<?xml version="1.0" encoding="UTF-8"?>
<gpx version="1.1" creator="https://www.youtrack.es" xsi:schemaLocation="http://www.topografix.com/GPX/1/1 http://www.topografix.com/GPX/1/1/gpx.xsd http://www.garmin.com/xmlschemas/GpxExtensions/v3 http://www.garmin.com/xmlschemas/GpxExtensionsv3.xsd http://www.garmin.com/xmlschemas/TrackPointExtension/v1 http://www.garmin.com/xmlschemas/TrackPointExtensionv1.xsd" xmlns:gpxtpx="http://www.garmin.com/xmlschemas/TrackPointExtension/v1" xmlns:gpxx="http://www.garmin.com/xmlschemas/GpxExtensions/v3" xmlns:xsi="http://www.w3.org/2001/XMLSchema-instance">
  <metadata>
    <link href="https://www.youtrack.es">
      <text>YouTrack.es</text>
    </link>
    <time>2026-05-10T21:39:39Z</time>
  </metadata>
  <trk>
    <src>https://www.youtrack.es</src>
    <link href="https://www.youtrack.es/ruta/8850-marrocos-2019">
      <text>YouTrack.es</text>
    </link>
    <trkseg>
      <trkpt lat="38.552953982725739" lon="-7.970077972859144">
        <ele>247.369202</ele>
        <time>2019-03-17T18:10:34Z</time>
      </trkpt>
      <trkpt lat="38.539893971756101" lon="-7.956117996945977">
        <ele>241.91799900000001</ele>
        <time>2019-03-17T18:13:47Z</time>
      </trkpt>
      <trkpt lat="38.554382594302297" lon="-7.918466320261359">
        <ele>0</ele>
        <time>2019-04-15T10:32:11Z</time>
      </trkpt>
      <trkpt lat="38.195511996746063" lon="-7.497901981696487">
        <ele>168.94001800000001</ele>
        <time>2016-03-14T19:23:48Z</time>
      </trkpt>
      <trkpt lat="37.988703958690166" lon="-7.292520962655544">
        <ele>290.26086400000003</ele>
        <time>2016-03-14T19:56:33Z</time>
      </trkpt>
      <trkpt lat="37.976159015670419" lon="-7.259618975222111">
        <ele>286.09884599999998</ele>
        <time>2016-03-14T20:02:06Z</time>
      </trkpt>
      <trkpt lat="37.969966968521476" lon="-7.225115960463882">
        <ele>233.991333</ele>
        <time>2016-03-14T20:07:16Z</time>
      </trkpt>
      <trkpt lat="37.967806030064821" lon="-7.220728034153581">
        <ele>223.27726699999999</ele>
        <time>2016-03-14T21:06:16Z</time>
      </trkpt>
      <trkpt lat="37.897574985399842" lon="-6.568053960800171">
        <ele>725.81542999999999</ele>
        <time>2016-03-14T21:52:46Z</time>
      </trkpt>
      <trkpt lat="37.630904987454414" lon="-6.142274988815188">
        <ele>318.76327500000002</ele>
        <time>2016-03-14T22:34:28Z</time>
      </trkpt>
      <trkpt lat="36.981477979570627" lon="-5.949309999123216">
        <ele>28.485061999999999</ele>
        <time>2016-03-14T23:23:01Z</time>
      </trkpt>
      <trkpt lat="36.541302083060145" lon="-6.162471100687981">
        <ele>26.454103</ele>
        <time>2016-04-13T09:10:00Z</time>
      </trkpt>
      <trkpt lat="36.25494098290801" lon="-5.980899967253208">
        <ele>8.735439</ele>
        <time>2016-03-15T00:21:17Z</time>
      </trkpt>
      <trkpt lat="36.011294983327389" lon="-5.604303991422057">
        <ele>2.383771</ele>
        <time>2016-03-15T01:00:42Z</time>
      </trkpt>
      <trkpt lat="36.011128015816212" lon="-5.602683015167713">
        <ele>247.19999999999999</ele>
        <time>2016-03-15T07:23:28Z</time>
      </trkpt>
      <trkpt lat="35.78915661200881" lon="-5.804424863308668">
        <ele>246.72</ele>
        <time>2016-04-13T09:13:33Z</time>
      </trkpt>
      <trkpt lat="35.475001707673073" lon="-6.025233026593924">
        <ele>246.22999999999999</ele>
        <time>2016-04-13T09:19:48Z</time>
      </trkpt>
      <trkpt lat="38.552950629964471" lon="-7.970081828534603">
        <ele>245.27000000000001</ele>
        <time>2019-03-17T18:10:37Z</time>
      </trkpt>
      <trkpt lat="38.552860859781504" lon="-7.970135556533933">
        <ele>245.27000000000001</ele>
        <time>2019-03-17T18:10:51Z</time>
      </trkpt>
      <trkpt lat="38.552743932232261" lon="-7.970219627022743">
        <ele>245.27000000000001</ele>
        <time>2019-03-17T18:10:58Z</time>
      </trkpt>
      <trkpt lat="38.55263689532876" lon="-7.970234295353293">
        <ele>245.27000000000001</ele>
        <time>2019-03-17T18:11:20Z</time>
      </trkpt>
      <trkpt lat="38.552587609738111" lon="-7.970217112451792">
        <ele>244.78999999999999</ele>
        <time>2019-03-17T18:11:21Z</time>
      </trkpt>
      <trkpt lat="38.552531199529767" lon="-7.970180232077837">
        <ele>241.91</ele>
        <time>2019-03-17T18:11:22Z</time>
      </trkpt>
      <trkpt lat="38.55246540158987" lon="-7.970120133832097">
        <ele>241.91</ele>
        <time>2019-03-17T18:11:23Z</time>
      </trkpt>
      <trkpt lat="38.552391976118088" lon="-7.970048552379012">
        <ele>241.43000000000001</ele>
        <time>2019-03-17T18:11:24Z</time>
      </trkpt>
      <trkpt lat="38.551678843796253" lon="-7.969319745898247">
        <ele>238.53999999999999</ele>
        <time>2019-03-17T18:11:33Z</time>
      </trkpt>
      <trkpt lat="38.551593432202935" lon="-7.969247326254845">
        <ele>238.06</ele>
        <time>2019-03-17T18:11:34Z</time>
      </trkpt>
      <trkpt lat="38.550856579095125" lon="-7.968630166724324">
        <ele>233.74000000000001</ele>
        <time>2019-03-17T18:11:42Z</time>
      </trkpt>
      <trkpt lat="38.54983801022172" lon="-7.967282440513372">
        <ele>232.30000000000001</ele>
        <time>2019-03-17T18:11:53Z</time>
      </trkpt>
      <trkpt lat="38.549736505374312" lon="-7.967173056676984">
        <ele>231.81</ele>
        <time>2019-03-17T18:11:54Z</time>
      </trkpt>
      <trkpt lat="38.548670914024115" lon="-7.966055665165186">
        <ele>231.81</ele>
        <time>2019-03-17T18:12:04Z</time>
      </trkpt>
      <trkpt lat="38.547893995419145" lon="-7.965114796534181">
        <ele>231.81</ele>
        <time>2019-03-17T18:12:13Z</time>
      </trkpt>
      <trkpt lat="38.54781805537641" lon="-7.965031815692782">
        <ele>232.30000000000001</ele>
        <time>2019-03-17T18:12:14Z</time>
      </trkpt>
      <trkpt lat="38.547729291021824" lon="-7.964957887306809">
        <ele>232.30000000000001</ele>
        <time>2019-03-17T18:12:15Z</time>
      </trkpt>
      <trkpt lat="38.547480851411819" lon="-7.964761247858405">
        <ele>232.78</ele>
        <time>2019-03-17T18:12:18Z</time>
      </trkpt>
      <trkpt lat="38.547432823106647" lon="-7.964703496545553">
        <ele>232.78</ele>
        <time>2019-03-17T18:12:19Z</time>
      </trkpt>
      <trkpt lat="38.54741245508194" lon="-7.96463149599731">
        <ele>232.30000000000001</ele>
        <time>2019-03-17T18:12:20Z</time>
      </trkpt>
      <trkpt lat="38.54741932824254" lon="-7.96454893425107">
        <ele>232.30000000000001</ele>
        <time>2019-03-17T18:12:21Z</time>
      </trkpt>
      <trkpt lat="38.547446904703975" lon="-7.964459080249071">
        <ele>232.30000000000001</ele>
        <time>2019-03-17T18:12:22Z</time>
      </trkpt>
      <trkpt lat="38.54748135432601" lon="-7.96435983851552">
        <ele>232.30000000000001</ele>
        <time>2019-03-17T18:12:23Z</time>
      </trkpt>
      <trkpt lat="38.547517647966743" lon="-7.9642503708601">
        <ele>232.78</ele>
        <time>2019-03-17T18:12:24Z</time>
      </trkpt>
      <trkpt lat="38.547580260783434" lon="-7.964053982868791">
        <ele>232.78</ele>
        <time>2019-03-17T18:12:26Z</time>
      </trkpt>
      <trkpt lat="38.547590151429176" lon="-7.96397871337831">
        <ele>232.78</ele>
        <time>2019-03-17T18:12:27Z</time>
      </trkpt>
      <trkpt lat="38.54757959023118" lon="-7.963910652324557">
        <ele>234.22</ele>
        <time>2019-03-17T18:12:28Z</time>
      </trkpt>
      <trkpt lat="38.547545643523335" lon="-7.963851476088166">
        <ele>233.25999999999999</ele>
        <time>2019-03-17T18:12:29Z</time>
      </trkpt>
      <trkpt lat="38.547493843361735" lon="-7.963795149698854">
        <ele>233.25999999999999</ele>
        <time>2019-03-17T18:12:30Z</time>
      </trkpt>
      <trkpt lat="38.546868385747075" lon="-7.963133649900556">
        <ele>235.18000000000001</ele>
        <time>2019-03-17T18:12:38Z</time>
      </trkpt>
      <trkpt lat="38.546027345582843" lon="-7.962268218398094">
        <ele>235.66</ele>
        <time>2019-03-17T18:12:46Z</time>
      </trkpt>
      <trkpt lat="38.545076167210937" lon="-7.961347466334701">
        <ele>238.06</ele>
        <time>2019-03-17T18:12:55Z</time>
      </trkpt>
      <trkpt lat="38.543898342177272" lon="-7.960070734843612">
        <ele>239.99000000000001</ele>
        <time>2019-03-17T18:13:06Z</time>
      </trkpt>
      <trkpt lat="38.542935680598021" lon="-7.95917353592813">
        <ele>242.87</ele>
        <time>2019-03-17T18:13:15Z</time>
      </trkpt>
      <trkpt lat="38.541683340445161" lon="-7.957906359806657">
        <ele>243.34999999999999</ele>
        <time>2019-03-17T18:13:27Z</time>
      </trkpt>
      <trkpt lat="38.540450027212501" lon="-7.956640692427754">
        <ele>243.34999999999999</ele>
        <time>2019-03-17T18:13:39Z</time>
      </trkpt>
      <trkpt lat="38.539811661466956" lon="-7.956042559817433">
        <ele>243.83000000000001</ele>
        <time>2019-03-17T18:13:49Z</time>
      </trkpt>
      <trkpt lat="38.539746534079313" lon="-7.955928146839142">
        <ele>243.83000000000001</ele>
        <time>2019-03-17T18:13:54Z</time>
      </trkpt>
      <trkpt lat="38.539740331470966" lon="-7.955867294222117">
        <ele>243.83000000000001</ele>
        <time>2019-03-17T18:13:55Z</time>
      </trkpt>
      <trkpt lat="38.539748964831233" lon="-7.955796550959349">
        <ele>244.31</ele>
        <time>2019-03-17T18:13:56Z</time>
      </trkpt>
      <trkpt lat="38.539771428331733" lon="-7.955706613138318">
        <ele>243.83000000000001</ele>
        <time>2019-03-17T18:13:57Z</time>
      </trkpt>
      <trkpt lat="38.539808560162783" lon="-7.95559722930193">
        <ele>244.78999999999999</ele>
        <time>2019-03-17T18:13:58Z</time>
      </trkpt>
      <trkpt lat="38.540223632007837" lon="-7.954522585496306">
        <ele>248.16</ele>
        <time>2019-03-17T18:14:05Z</time>
      </trkpt>
      <trkpt lat="38.541079089045525" lon="-7.95228386297822">
        <ele>249.12</ele>
        <time>2019-03-17T18:14:16Z</time>
      </trkpt>
      <trkpt lat="38.542347690090537" lon="-7.948867566883564">
        <ele>251.03999999999999</ele>
        <time>2019-03-17T18:14:33Z</time>
      </trkpt>
      <trkpt lat="38.543826676905155" lon="-7.944862525910139">
        <ele>253.93000000000001</ele>
        <time>2019-03-17T18:14:54Z</time>
      </trkpt>
      <trkpt lat="38.544984050095081" lon="-7.941756024956703">
        <ele>254.88999999999999</ele>
        <time>2019-03-17T18:15:09Z</time>
      </trkpt>
      <trkpt lat="38.546174447983503" lon="-7.938538379967213">
        <ele>256.81</ele>
        <time>2019-03-17T18:15:23Z</time>
      </trkpt>
      <trkpt lat="38.54691943153739" lon="-7.936987979337573">
        <ele>261.62</ele>
        <time>2019-03-17T18:15:32Z</time>
      </trkpt>
      <trkpt lat="38.548623137176037" lon="-7.9341303370893">
        <ele>268.82999999999998</ele>
        <time>2019-03-17T18:15:50Z</time>
      </trkpt>
      <trkpt lat="38.549759136512876" lon="-7.932313978672028">
        <ele>269.79000000000002</ele>
        <time>2019-03-17T18:16:02Z</time>
      </trkpt>
      <trkpt lat="38.551053302362561" lon="-7.930391589179635">
        <ele>268.82999999999998</ele>
        <time>2019-03-17T18:16:15Z</time>
      </trkpt>
      <trkpt lat="38.552485266700387" lon="-7.929017879068852">
        <ele>0</ele>
        <time>2019-03-17T18:16:27Z</time>
      </trkpt>
      <trkpt lat="38.554180422797799" lon="-7.927824798971415">
        <ele>0</ele>
        <time>2019-03-17T18:16:42Z</time>
      </trkpt>
      <trkpt lat="38.556184871122241" lon="-7.92645201086998">
        <ele>0</ele>
        <time>2019-03-17T18:16:59Z</time>
      </trkpt>
      <trkpt lat="38.556251507252455" lon="-7.926424434408546">
        <ele>0</ele>
        <time>2016-03-14T18:37:38Z</time>
      </trkpt>
      <trkpt lat="38.556689377874136" lon="-7.926112543791533">
        <ele>0</ele>
        <time>2016-03-14T18:37:39Z</time>
      </trkpt>
      <trkpt lat="38.557109478861094" lon="-7.925853375345469">
        <ele>0</ele>
        <time>2016-03-14T18:37:40Z</time>
      </trkpt>
      <trkpt lat="38.5575788654387" lon="-7.925525642931461">
        <ele>0</ele>
        <time>2016-03-14T18:37:41Z</time>
      </trkpt>
      <trkpt lat="38.557923445478082" lon="-7.925279969349504">
        <ele>0</ele>
        <time>2016-03-14T18:37:42Z</time>
      </trkpt>
      <trkpt lat="38.558255871757865" lon="-7.925032954663038">
        <ele>0</ele>
        <time>2016-03-14T18:37:52Z</time>
      </trkpt>
      <trkpt lat="38.558407248929143" lon="-7.924861796200275">
        <ele>0</ele>
        <time>2016-03-14T18:38:00Z</time>
      </trkpt>
      <trkpt lat="38.558551920577884" lon="-7.924652164801955">
        <ele>0</ele>
        <time>2016-03-14T18:38:07Z</time>
      </trkpt>
      <trkpt lat="38.558733137324452" lon="-7.924431134015322">
        <ele>0</ele>
        <time>2016-03-14T18:38:14Z</time>
      </trkpt>
      <trkpt lat="38.558855932205915" lon="-7.9242008831352">
        <ele>0</ele>
        <time>2016-03-14T18:38:22Z</time>
      </trkpt>
      <trkpt lat="38.559016110375524" lon="-7.923961747437716">
        <ele>265.45999999999998</ele>
        <time>2016-03-14T18:38:30Z</time>
      </trkpt>
      <trkpt lat="38.559102527797222" lon="-7.923794277012348">
        <ele>265.45999999999998</ele>
        <time>2016-03-14T18:38:38Z</time>
      </trkpt>
      <trkpt lat="38.559102192521095" lon="-7.923670811578631">
        <ele>265.45999999999998</ele>
        <time>2016-03-14T18:38:44Z</time>
      </trkpt>
      <trkpt lat="38.559098672121763" lon="-7.923613898456097">
        <ele>264.98000000000002</ele>
        <time>2016-03-14T18:38:53Z</time>
      </trkpt>
      <trkpt lat="38.559033712372184" lon="-7.923503676429391">
        <ele>264.98000000000002</ele>
        <time>2016-03-14T18:38:57Z</time>
      </trkpt>
      <trkpt lat="38.558959029614925" lon="-7.923396555706859">
        <ele>261.62</ele>
        <time>2016-03-14T18:38:58Z</time>
      </trkpt>
      <trkpt lat="38.558873282745481" lon="-7.923290776088834">
        <ele>260.64999999999998</ele>
        <time>2016-03-14T18:38:59Z</time>
      </trkpt>
      <trkpt lat="38.55877747759223" lon="-7.92318063788116">
        <ele>261.13999999999999</ele>
        <time>2016-03-14T18:39:00Z</time>
      </trkpt>
      <trkpt lat="38.557536536827683" lon="-7.92194196023047">
        <ele>261.62</ele>
        <time>2016-03-14T18:39:01Z</time>
      </trkpt>
      <trkpt lat="38.556660627946258" lon="-7.921122629195452">
        <ele>261.62</ele>
        <time>2016-03-14T18:39:02Z</time>
      </trkpt>
      <trkpt lat="38.556418642401695" lon="-7.920894222334027">
        <ele>262.57999999999998</ele>
        <time>2016-03-14T18:39:03Z</time>
      </trkpt>
      <trkpt lat="38.556080935522914" lon="-7.920561628416181">
        <ele>264.5</ele>
        <time>2016-03-14T18:39:04Z</time>
      </trkpt>
      <trkpt lat="38.555258335545659" lon="-7.919750763103366">
        <ele>265.94</ele>
        <time>2016-03-14T18:39:20Z</time>
      </trkpt>
      <trkpt lat="38.55434169061482" lon="-7.918439330533147">
        <ele>267.38</ele>
        <time>2016-03-14T18:39:33Z</time>
      </trkpt>
      <trkpt lat="38.553816732019186" lon="-7.9167874250561">
        <ele>267.38</ele>
        <time>2016-03-14T18:39:37Z</time>
      </trkpt>
      <trkpt lat="38.553713969886303" lon="-7.916017295792699">
        <ele>267.86000000000001</ele>
        <time>2016-03-14T18:39:38Z</time>
      </trkpt>
      <trkpt lat="38.553667534142733" lon="-7.91570171713829">
        <ele>267.86000000000001</ele>
        <time>2016-03-14T18:39:40Z</time>
      </trkpt>
      <trkpt lat="38.553600646555424" lon="-7.91555168107152">
        <ele>267.86000000000001</ele>
        <time>2016-03-14T18:39:41Z</time>
      </trkpt>
      <trkpt lat="38.553585223853588" lon="-7.915481105446816">
        <ele>268.35000000000002</ele>
        <time>2016-03-14T18:39:42Z</time>
      </trkpt>
      <trkpt lat="38.553582960739732" lon="-7.915394017472863">
        <ele>268.35000000000002</ele>
        <time>2016-03-14T18:39:43Z</time>
      </trkpt>
      <trkpt lat="38.553598718717694" lon="-7.915302822366357">
        <ele>267.86000000000001</ele>
        <time>2016-03-14T18:39:44Z</time>
      </trkpt>
      <trkpt lat="38.553622355684638" lon="-7.915208609774709">
        <ele>267.86000000000001</ele>
        <time>2016-03-14T18:39:45Z</time>
      </trkpt>
      <trkpt lat="38.553644400089979" lon="-7.915105680003762">
        <ele>267.38</ele>
        <time>2016-03-14T18:39:46Z</time>
      </trkpt>
      <trkpt lat="38.55365957133472" lon="-7.914991183206439">
        <ele>264.5</ele>
        <time>2016-03-14T18:39:56Z</time>
      </trkpt>
      <trkpt lat="38.553667785599828" lon="-7.914866209030151">
        <ele>264.01999999999998</ele>
        <time>2016-03-14T18:40:10Z</time>
      </trkpt>
      <trkpt lat="38.553611040115356" lon="-7.912750281393528">
        <ele>264.01999999999998</ele>
        <time>2016-03-14T18:40:12Z</time>
      </trkpt>
      <trkpt lat="38.553545158356428" lon="-7.911284286528826">
        <ele>263.54000000000002</ele>
        <time>2016-03-14T18:40:13Z</time>
      </trkpt>
      <trkpt lat="38.553496962413192" lon="-7.911028554663062">
        <ele>263.06</ele>
        <time>2016-03-14T18:40:15Z</time>
      </trkpt>
      <trkpt lat="38.55347340926528" lon="-7.910963091999292">
        <ele>263.06</ele>
        <time>2016-03-14T18:40:16Z</time>
      </trkpt>
      <trkpt lat="38.553416412323713" lon="-7.910808613523841">
        <ele>263.06</ele>
        <time>2016-03-14T18:40:17Z</time>
      </trkpt>
      <trkpt lat="38.553403420373797" lon="-7.910717083141208">
        <ele>263.06</ele>
        <time>2016-03-14T18:40:18Z</time>
      </trkpt>
      <trkpt lat="38.553414484485984" lon="-7.91061750613153">
        <ele>262.57999999999998</ele>
        <time>2016-03-14T18:40:19Z</time>
      </trkpt>
      <trkpt lat="38.553447928279638" lon="-7.910518515855074">
        <ele>262.10000000000002</ele>
        <time>2016-03-14T18:40:27Z</time>
      </trkpt>
      <trkpt lat="38.55349444784224" lon="-7.910417597740889">
        <ele>256.81</ele>
        <time>2016-03-14T18:40:38Z</time>
      </trkpt>
      <trkpt lat="38.553536608815193" lon="-7.910303100943565">
        <ele>254.88999999999999</ele>
        <time>2016-03-14T18:40:47Z</time>
      </trkpt>
      <trkpt lat="38.553568124771118" lon="-7.910172929987311">
        <ele>254.41</ele>
        <time>2016-03-14T18:40:56Z</time>
      </trkpt>
      <trkpt lat="38.553800471127033" lon="-7.908538542687893">
        <ele>254.41</ele>
        <time>2016-03-14T18:41:05Z</time>
      </trkpt>
      <trkpt lat="38.554002391174436" lon="-7.906272411346436">
        <ele>254.41</ele>
        <time>2016-03-14T18:41:18Z</time>
      </trkpt>
      <trkpt lat="38.554010605439544" lon="-7.90601265616715">
        <ele>254.88999999999999</ele>
        <time>2016-03-14T18:41:21Z</time>
      </trkpt>
      <trkpt lat="38.553997362032533" lon="-7.905891034752131">
        <ele>254.41</ele>
        <time>2016-03-14T18:41:22Z</time>
      </trkpt>
      <trkpt lat="38.553970288485289" lon="-7.905675703659654">
        <ele>254.41</ele>
        <time>2016-03-14T18:41:23Z</time>
      </trkpt>
      <trkpt lat="38.55396693572402" lon="-7.905582413077354">
        <ele>254.41</ele>
        <time>2016-03-14T18:41:24Z</time>
      </trkpt>
      <trkpt lat="38.553974479436874" lon="-7.905498594045639">
        <ele>254.41</ele>
        <time>2016-03-14T18:41:25Z</time>
      </trkpt>
      <trkpt lat="38.553992249071598" lon="-7.905416367575526">
        <ele>253.93000000000001</ele>
        <time>2016-03-14T18:41:26Z</time>
      </trkpt>
      <trkpt lat="38.554019909352064" lon="-7.905327938497067">
        <ele>253.44</ele>
        <time>2016-03-14T18:41:27Z</time>
      </trkpt>
      <trkpt lat="38.554182769730687" lon="-7.90432395413518">
        <ele>252.47999999999999</ele>
        <time>2016-03-14T18:41:28Z</time>
      </trkpt>
      <trkpt lat="38.554395418614149" lon="-7.902445653453469">
        <ele>252.47999999999999</ele>
        <time>2016-03-14T18:41:39Z</time>
      </trkpt>
      <trkpt lat="38.554950635880232" lon="-7.900874549522996">
        <ele>256.32999999999998</ele>
        <time>2016-03-14T18:41:54Z</time>
      </trkpt>
      <trkpt lat="38.555987477302551" lon="-7.899611312896013">
        <ele>256.32999999999998</ele>
        <time>2016-03-14T18:41:59Z</time>
      </trkpt>
      <trkpt lat="38.557285247370601" lon="-7.89893195964396">
        <ele>256.32999999999998</ele>
        <time>2016-03-14T18:42:00Z</time>
      </trkpt>
      <trkpt lat="38.558818465098739" lon="-7.898276159539819">
        <ele>256.32999999999998</ele>
        <time>2016-03-14T18:42:02Z</time>
      </trkpt>
      <trkpt lat="38.558996329084039" lon="-7.898172056302428">
        <ele>256.81</ele>
        <time>2016-03-14T18:42:03Z</time>
      </trkpt>
      <trkpt lat="38.55903941206634" lon="-7.89813157171011">
        <ele>256.81</ele>
        <time>2016-03-14T18:42:04Z</time>
      </trkpt>
      <trkpt lat="38.559077130630612" lon="-7.898079520091415">
        <ele>256.81</ele>
        <time>2016-03-14T18:42:06Z</time>
      </trkpt>
      <trkpt lat="38.559109903872013" lon="-7.898010369390249">
        <ele>256.81</ele>
        <time>2016-03-14T18:42:07Z</time>
      </trkpt>
      <trkpt lat="38.559132283553481" lon="-7.897922107949853">
        <ele>256.81</ele>
        <time>2016-03-14T18:42:15Z</time>
      </trkpt>
      <trkpt lat="38.559140497818589" lon="-7.897816831246018">
        <ele>254.41</ele>
        <time>2016-03-14T18:42:28Z</time>
      </trkpt>
      <trkpt lat="38.559135217219591" lon="-7.897693365812302">
        <ele>250.56</ele>
        <time>2016-03-14T18:42:39Z</time>
      </trkpt>
      <trkpt lat="38.559120884165168" lon="-7.897554812952876">
        <ele>249.59999999999999</ele>
        <time>2016-03-14T18:42:40Z</time>
      </trkpt>
      <trkpt lat="38.558985600247979" lon="-7.895700233057141">
        <ele>249.59999999999999</ele>
        <time>2016-03-14T18:42:41Z</time>
      </trkpt>
      <trkpt lat="38.559106383472681" lon="-7.892901683226228">
        <ele>249.59999999999999</ele>
        <time>2016-03-14T18:42:42Z</time>
      </trkpt>
      <trkpt lat="38.559127673506737" lon="-7.892279075458646">
        <ele>249.12</ele>
        <time>2016-03-14T18:42:43Z</time>
      </trkpt>
      <trkpt lat="38.559109652414918" lon="-7.892183437943459">
        <ele>249.12</ele>
        <time>2016-03-14T18:42:44Z</time>
      </trkpt>
      <trkpt lat="38.559073191136122" lon="-7.891962323337793">
        <ele>249.12</ele>
        <time>2016-03-14T18:42:45Z</time>
      </trkpt>
      <trkpt lat="38.559082075953484" lon="-7.891835169866681">
        <ele>249.12</ele>
        <time>2016-03-14T18:42:46Z</time>
      </trkpt>
      <trkpt lat="38.559111747890711" lon="-7.891704328358173">
        <ele>248.63999999999999</ele>
        <time>2016-03-14T18:42:47Z</time>
      </trkpt>
      <trkpt lat="38.559177126735449" lon="-7.891421271488071">
        <ele>249.12</ele>
        <time>2016-03-14T18:42:48Z</time>
      </trkpt>
      <trkpt lat="38.559194980189204" lon="-7.89125656709075">
        <ele>252.47999999999999</ele>
        <time>2016-03-14T18:42:49Z</time>
      </trkpt>
      <trkpt lat="38.559104120358825" lon="-7.88972670212388">
        <ele>252.96000000000001</ele>
        <time>2016-03-14T18:42:58Z</time>
      </trkpt>
      <trkpt lat="38.558383025228977" lon="-7.88711054250598">
        <ele>252.96000000000001</ele>
        <time>2016-03-14T18:43:09Z</time>
      </trkpt>
      <trkpt lat="38.557811044156551" lon="-7.885267697274685">
        <ele>253.44</ele>
        <time>2016-03-14T18:43:27Z</time>
      </trkpt>
      <trkpt lat="38.557756897062063" lon="-7.885174155235291">
        <ele>253.44</ele>
        <time>2016-03-14T18:43:50Z</time>
      </trkpt>
      <trkpt lat="38.557690680027008" lon="-7.885088827461004">
        <ele>253.44</ele>
        <time>2016-03-14T18:44:07Z</time>
      </trkpt>
      <trkpt lat="38.557622702792287" lon="-7.885002829134464">
        <ele>253.93000000000001</ele>
        <time>2016-03-14T18:44:26Z</time>
      </trkpt>
      <trkpt lat="38.557570734992623" lon="-7.884902078658342">
        <ele>253.93000000000001</ele>
        <time>2016-03-14T18:44:37Z</time>
      </trkpt>
      <trkpt lat="38.557544499635696" lon="-7.884786324575543">
        <ele>254.41</ele>
        <time>2016-03-14T18:44:53Z</time>
      </trkpt>
      <trkpt lat="38.557541985064745" lon="-7.884662440046668">
        <ele>254.88999999999999</ele>
        <time>2016-03-14T18:45:12Z</time>
      </trkpt>
      <trkpt lat="38.557550366967916" lon="-7.884529503062367">
        <ele>254.88999999999999</ele>
        <time>2016-03-14T18:45:28Z</time>
      </trkpt>
      <trkpt lat="38.557549864053726" lon="-7.884387681260705">
        <ele>257.29000000000002</ele>
        <time>2016-03-14T18:45:39Z</time>
      </trkpt>
      <trkpt lat="38.557533351704478" lon="-7.88423839956522">
        <ele>256.32999999999998</ele>
        <time>2016-03-14T18:46:01Z</time>
      </trkpt>
      <trkpt lat="38.557501081377268" lon="-7.884080735966563">
        <ele>257.76999999999998</ele>
        <time>2016-03-14T18:46:21Z</time>
      </trkpt>
      <trkpt lat="38.557030018419027" lon="-7.882353812456131">
        <ele>263.54000000000002</ele>
        <time>2016-03-14T18:46:37Z</time>
      </trkpt>
      <trkpt lat="38.556197946891189" lon="-7.879948122426868">
        <ele>263.54000000000002</ele>
        <time>2016-03-14T18:46:53Z</time>
      </trkpt>
      <trkpt lat="38.554501365870237" lon="-7.875619875267148">
        <ele>265.45999999999998</ele>
        <time>2016-03-14T18:47:12Z</time>
      </trkpt>
      <trkpt lat="38.552280748263001" lon="-7.869767630472779">
        <ele>260.64999999999998</ele>
        <time>2016-03-14T18:47:31Z</time>
      </trkpt>
      <trkpt lat="38.550626328215003" lon="-7.865078039467335">
        <ele>274.11000000000001</ele>
        <time>2016-03-14T18:47:39Z</time>
      </trkpt>
      <trkpt lat="38.548834193497896" lon="-7.859626114368439">
        <ele>263.54000000000002</ele>
        <time>2016-03-14T18:47:48Z</time>
      </trkpt>
      <trkpt lat="38.547714790329337" lon="-7.856283076107502">
        <ele>269.31</ele>
        <time>2016-03-14T18:48:05Z</time>
      </trkpt>
      <trkpt lat="38.546169837936759" lon="-7.851566411554813">
        <ele>269.79000000000002</ele>
        <time>2016-03-14T18:48:28Z</time>
      </trkpt>
      <trkpt lat="38.544357670471072" lon="-7.846114067360759">
        <ele>260.64999999999998</ele>
        <time>2016-03-14T18:48:47Z</time>
      </trkpt>
      <trkpt lat="38.542851442471147" lon="-7.841608542948961">
        <ele>258.25</ele>
        <time>2016-03-14T18:49:04Z</time>
      </trkpt>
      <trkpt lat="38.541653752326965" lon="-7.838708655908704">
        <ele>253.93000000000001</ele>
        <time>2016-03-14T18:49:22Z</time>
      </trkpt>
      <trkpt lat="38.538781441748142" lon="-7.832876360043883">
        <ele>251.52000000000001</ele>
        <time>2016-03-14T18:49:42Z</time>
      </trkpt>
      <trkpt lat="38.536202916875482" lon="-7.82763859257102">
        <ele>249.59999999999999</ele>
        <time>2016-03-14T18:50:00Z</time>
      </trkpt>
      <trkpt lat="38.534220512956381" lon="-7.823617039248347">
        <ele>248.16</ele>
        <time>2016-03-14T18:50:12Z</time>
      </trkpt>
      <trkpt lat="38.532252861186862" lon="-7.819624822586775">
        <ele>248.16</ele>
        <time>2016-03-14T18:50:38Z</time>
      </trkpt>
      <trkpt lat="38.530066022649407" lon="-7.815192304551601">
        <ele>248.63999999999999</ele>
        <time>2016-03-14T18:50:54Z</time>
      </trkpt>
      <trkpt lat="38.527784552425146" lon="-7.810571026057005">
        <ele>246.72</ele>
        <time>2016-03-14T18:51:13Z</time>
      </trkpt>
      <trkpt lat="38.526971843093634" lon="-7.808969160541892">
        <ele>239.50999999999999</ele>
        <time>2016-03-14T18:51:28Z</time>
      </trkpt>
      <trkpt lat="38.525752779096365" lon="-7.807113155722618">
        <ele>241.43000000000001</ele>
        <time>2016-03-14T18:51:46Z</time>
      </trkpt>
      <trkpt lat="38.523151706904173" lon="-7.803136361762881">
        <ele>237.58000000000001</ele>
        <time>2016-03-14T18:52:00Z</time>
      </trkpt>
      <trkpt lat="38.51961680687964" lon="-7.797736572101712">
        <ele>233.74000000000001</ele>
        <time>2016-03-14T18:52:04Z</time>
      </trkpt>
      <trkpt lat="38.516722535714507" lon="-7.793319225311279">
        <ele>231.81</ele>
        <time>2016-03-14T18:52:05Z</time>
      </trkpt>
      <trkpt lat="38.514123223721981" lon="-7.789355758577585">
        <ele>230.84999999999999</ele>
        <time>2016-03-14T18:52:06Z</time>
      </trkpt>
      <trkpt lat="38.511470099911094" lon="-7.785300342366099">
        <ele>228.93000000000001</ele>
        <time>2016-03-14T18:52:08Z</time>
      </trkpt>
      <trkpt lat="38.508697701618075" lon="-7.781088100746274">
        <ele>224.12</ele>
        <time>2016-03-14T18:52:09Z</time>
      </trkpt>
      <trkpt lat="38.506178436800838" lon="-7.777238711714745">
        <ele>221.24000000000001</ele>
        <time>2016-03-14T18:52:10Z</time>
      </trkpt>
      <trkpt lat="38.504669023677707" lon="-7.774545354768634">
        <ele>220.75999999999999</ele>
        <time>2016-03-14T18:52:11Z</time>
      </trkpt>
      <trkpt lat="38.501646006479859" lon="-7.768187429755926">
        <ele>218.84</ele>
        <time>2016-03-14T18:52:12Z</time>
      </trkpt>
      <trkpt lat="38.499756557866931" lon="-7.764198565855622">
        <ele>225.56999999999999</ele>
        <time>2016-03-14T18:52:13Z</time>
      </trkpt>
      <trkpt lat="38.497500820085406" lon="-7.759445859119296">
        <ele>220.28</ele>
        <time>2016-03-14T18:52:14Z</time>
      </trkpt>
      <trkpt lat="38.49574439227581" lon="-7.755770143121481">
        <ele>219.80000000000001</ele>
        <time>2016-03-14T18:52:25Z</time>
      </trkpt>
      <trkpt lat="38.493598708882928" lon="-7.751310551539064">
        <ele>219.80000000000001</ele>
        <time>2016-03-14T18:52:34Z</time>
      </trkpt>
      <trkpt lat="38.49185099825263" lon="-7.747781099751592">
        <ele>219.80000000000001</ele>
        <time>2016-03-14T18:52:53Z</time>
      </trkpt>
      <trkpt lat="38.491202322766185" lon="-7.746956236660481">
        <ele>219.80000000000001</ele>
        <time>2016-03-14T18:53:15Z</time>
      </trkpt>
      <trkpt lat="38.491009622812271" lon="-7.746792789548636">
        <ele>219.80000000000001</ele>
        <time>2016-03-14T18:53:37Z</time>
      </trkpt>
      <trkpt lat="38.490807451307774" lon="-7.746650213375688">
        <ele>219.31999999999999</ele>
        <time>2016-03-14T18:53:51Z</time>
      </trkpt>
      <trkpt lat="38.490386428311467" lon="-7.746417950838804">
        <ele>219.31999999999999</ele>
        <time>2016-03-14T18:53:58Z</time>
      </trkpt>
      <trkpt lat="38.490166570991278" lon="-7.746336227282882">
        <ele>219.31999999999999</ele>
        <time>2016-03-14T18:54:09Z</time>
      </trkpt>
      <trkpt lat="38.489942857995629" lon="-7.746275877580047">
        <ele>219.31999999999999</ele>
        <time>2016-03-14T18:54:26Z</time>
      </trkpt>
      <trkpt lat="38.489716714248061" lon="-7.74623497389257">
        <ele>219.31999999999999</ele>
        <time>2016-03-14T18:54:33Z</time>
      </trkpt>
      <trkpt lat="38.489488894119859" lon="-7.746212342754006">
        <ele>216.43000000000001</ele>
        <time>2016-03-14T18:54:47Z</time>
      </trkpt>
      <trkpt lat="38.489256547763944" lon="-7.746203625574708">
        <ele>213.06999999999999</ele>
        <time>2016-03-14T18:54:53Z</time>
      </trkpt>
      <trkpt lat="38.489022105932236" lon="-7.746210917830467">
        <ele>209.69999999999999</ele>
        <time>2016-03-14T18:55:03Z</time>
      </trkpt>
      <trkpt lat="38.486463110893965" lon="-7.746603190898895">
        <ele>205.38</ele>
        <time>2016-03-14T18:55:19Z</time>
      </trkpt>
      <trkpt lat="38.484137300401926" lon="-7.746962271630764">
        <ele>201.53</ele>
        <time>2016-03-14T18:55:40Z</time>
      </trkpt>
      <trkpt lat="38.479082509875298" lon="-7.747808676213026">
        <ele>199.61000000000001</ele>
        <time>2016-03-14T18:56:02Z</time>
      </trkpt>
      <trkpt lat="38.473455319181085" lon="-7.748711491003633">
        <ele>201.05000000000001</ele>
        <time>2016-03-14T18:56:11Z</time>
      </trkpt>
      <trkpt lat="38.468050081282854" lon="-7.749598044902086">
        <ele>204.41999999999999</ele>
        <time>2016-03-14T18:56:18Z</time>
      </trkpt>
      <trkpt lat="38.464911058545113" lon="-7.749913036823273">
        <ele>214.50999999999999</ele>
        <time>2016-03-14T18:56:39Z</time>
      </trkpt>
      <trkpt lat="38.463475909084082" lon="-7.749328315258026">
        <ele>219.31999999999999</ele>
        <time>2016-03-14T18:56:47Z</time>
      </trkpt>
      <trkpt lat="38.461411697790027" lon="-7.747665010392666">
        <ele>218.36000000000001</ele>
        <time>2016-03-14T18:57:08Z</time>
      </trkpt>
      <trkpt lat="38.458258006721735" lon="-7.745304415002465">
        <ele>215.47</ele>
        <time>2016-03-14T18:57:16Z</time>
      </trkpt>
      <trkpt lat="38.456784132868052" lon="-7.745000990107656">
        <ele>211.15000000000001</ele>
        <time>2016-03-14T18:57:23Z</time>
      </trkpt>
      <trkpt lat="38.453684337437153" lon="-7.744638975709677">
        <ele>198.65000000000001</ele>
        <time>2016-03-14T18:57:29Z</time>
      </trkpt>
      <trkpt lat="38.452463010326028" lon="-7.743875719606876">
        <ele>193.36000000000001</ele>
        <time>2016-03-14T18:57:39Z</time>
      </trkpt>
      <trkpt lat="38.450670205056667" lon="-7.741996916010976">
        <ele>195.77000000000001</ele>
        <time>2016-03-14T18:57:53Z</time>
      </trkpt>
      <trkpt lat="38.447816586121917" lon="-7.738709701225162">
        <ele>195.28</ele>
        <time>2016-03-14T18:58:01Z</time>
      </trkpt>
      <trkpt lat="38.44464604742825" lon="-7.733752811327577">
        <ele>191.91999999999999</ele>
        <time>2016-03-14T18:58:18Z</time>
      </trkpt>
      <trkpt lat="38.441301248967648" lon="-7.72847187705338">
        <ele>189.52000000000001</ele>
        <time>2016-03-14T18:58:36Z</time>
      </trkpt>
      <trkpt lat="38.439667532220483" lon="-7.726433398202062">
        <ele>186.15000000000001</ele>
        <time>2016-03-14T18:58:44Z</time>
      </trkpt>
      <trkpt lat="38.438022416085005" lon="-7.725478196516633">
        <ele>185.19</ele>
        <time>2016-03-14T18:59:01Z</time>
      </trkpt>
      <trkpt lat="38.432994950562716" lon="-7.723181219771504">
        <ele>183.75</ele>
        <time>2016-03-14T18:59:21Z</time>
      </trkpt>
      <trkpt lat="38.4312913287431" lon="-7.722015464678407">
        <ele>183.75</ele>
        <time>2016-03-14T18:59:38Z</time>
      </trkpt>
      <trkpt lat="38.427121583372355" lon="-7.718164902180433">
        <ele>184.71000000000001</ele>
        <time>2016-03-14T18:59:51Z</time>
      </trkpt>
      <trkpt lat="38.425426930189133" lon="-7.717096293345094">
        <ele>185.66999999999999</ele>
        <time>2016-03-14T19:00:16Z</time>
      </trkpt>
      <trkpt lat="38.42377033084631" lon="-7.716922285035253">
        <ele>190.47999999999999</ele>
        <time>2016-03-14T19:00:33Z</time>
      </trkpt>
      <trkpt lat="38.422395195811987" lon="-7.71739368326962">
        <ele>195.77000000000001</ele>
        <time>2016-03-14T19:00:52Z</time>
      </trkpt>
      <trkpt lat="38.420230317860842" lon="-7.718835202977061">
        <ele>194.31999999999999</ele>
        <time>2016-03-14T19:01:03Z</time>
      </trkpt>
      <trkpt lat="38.417085511609912" lon="-7.720868149772286">
        <ele>191.91999999999999</ele>
        <time>2016-03-14T19:01:25Z</time>
      </trkpt>
      <trkpt lat="38.415182065218687" lon="-7.721402747556567">
        <ele>197.21000000000001</ele>
        <time>2016-03-14T19:01:38Z</time>
      </trkpt>
      <trkpt lat="38.41101030819118" lon="-7.722088135778904">
        <ele>197.21000000000001</ele>
        <time>2016-03-14T19:01:53Z</time>
      </trkpt>
      <trkpt lat="38.406708631664515" lon="-7.722664978355169">
        <ele>207.78</ele>
        <time>2016-03-14T19:02:11Z</time>
      </trkpt>
      <trkpt lat="38.404841395094991" lon="-7.72229952737689">
        <ele>212.11000000000001</ele>
        <time>2016-03-14T19:02:27Z</time>
      </trkpt>
      <trkpt lat="38.401019582524896" lon="-7.720713755115867">
        <ele>201.53</ele>
        <time>2016-03-14T19:02:45Z</time>
      </trkpt>
      <trkpt lat="38.396575078368187" lon="-7.718852553516626">
        <ele>207.30000000000001</ele>
        <time>2016-03-14T19:02:48Z</time>
      </trkpt>
      <trkpt lat="38.392720157280564" lon="-7.71712445653975">
        <ele>211.63</ele>
        <time>2016-03-14T19:02:49Z</time>
      </trkpt>
      <trkpt lat="38.389790430665016" lon="-7.715228637680411">
        <ele>210.19</ele>
        <time>2016-03-14T19:02:50Z</time>
      </trkpt>
      <trkpt lat="38.384106913581491" lon="-7.711556190624833">
        <ele>214.99000000000001</ele>
        <time>2016-03-14T19:02:51Z</time>
      </trkpt>
      <trkpt lat="38.380376631394029" lon="-7.709327274933457">
        <ele>232.78</ele>
        <time>2016-03-14T19:02:52Z</time>
      </trkpt>
      <trkpt lat="38.376146201044321" lon="-7.70716767758131">
        <ele>239.50999999999999</ele>
        <time>2016-03-14T19:02:53Z</time>
      </trkpt>
      <trkpt lat="38.373907310888171" lon="-7.705492889508605">
        <ele>248.16</ele>
        <time>2016-03-14T19:02:54Z</time>
      </trkpt>
      <trkpt lat="38.369461297988892" lon="-7.701692702248693">
        <ele>257.29000000000002</ele>
        <time>2016-03-14T19:02:55Z</time>
      </trkpt>
      <trkpt lat="38.366828877478838" lon="-7.69950695335865">
        <ele>249.59999999999999</ele>
        <time>2016-03-14T19:02:56Z</time>
      </trkpt>
      <trkpt lat="38.364129737019539" lon="-7.696556439623237">
        <ele>235.18000000000001</ele>
        <time>2016-03-14T19:02:57Z</time>
      </trkpt>
      <trkpt lat="38.361305119469762" lon="-7.69239884801209">
        <ele>235.18000000000001</ele>
        <time>2016-03-14T19:02:58Z</time>
      </trkpt>
      <trkpt lat="38.358524003997445" lon="-7.688568066805601">
        <ele>235.18000000000001</ele>
        <time>2016-03-14T19:02:59Z</time>
      </trkpt>
      <trkpt lat="38.355071414262056" lon="-7.684248955920339">
        <ele>234.69999999999999</ele>
        <time>2016-03-14T19:03:00Z</time>
      </trkpt>
      <trkpt lat="38.354457272216678" lon="-7.683656606823206">
        <ele>234.69999999999999</ele>
        <time>2016-03-14T19:03:01Z</time>
      </trkpt>
      <trkpt lat="38.354230541735888" lon="-7.683505900204182">
        <ele>234.69999999999999</ele>
        <time>2016-03-14T19:03:09Z</time>
      </trkpt>
      <trkpt lat="38.353996518999338" lon="-7.68338268622756">
        <ele>234.69999999999999</ele>
        <time>2016-03-14T19:03:23Z</time>
      </trkpt>
      <trkpt lat="38.353761406615376" lon="-7.683288557454944">
        <ele>235.18000000000001</ele>
        <time>2016-03-14T19:03:35Z</time>
      </trkpt>
      <trkpt lat="38.353525036945939" lon="-7.683223513886333">
        <ele>235.18000000000001</ele>
        <time>2016-03-14T19:03:42Z</time>
      </trkpt>
      <trkpt lat="38.353291768580675" lon="-7.683183783665299">
        <ele>235.66</ele>
        <time>2016-03-14T19:03:54Z</time>
      </trkpt>
      <trkpt lat="38.353065038099885" lon="-7.683168780058622">
        <ele>235.66</ele>
        <time>2016-03-14T19:04:02Z</time>
      </trkpt>
      <trkpt lat="38.352845599874854" lon="-7.683176407590509">
        <ele>235.66</ele>
        <time>2016-03-14T19:04:10Z</time>
      </trkpt>
      <trkpt lat="38.352638315409422" lon="-7.683203900232911">
        <ele>235.66</ele>
        <time>2016-03-14T19:04:31Z</time>
      </trkpt>
      <trkpt lat="38.352443939074874" lon="-7.683252599090338">
        <ele>235.66</ele>
        <time>2016-03-14T19:04:47Z</time>
      </trkpt>
      <trkpt lat="38.352262135595083" lon="-7.683317726477981">
        <ele>235.66</ele>
        <time>2016-03-14T19:04:57Z</time>
      </trkpt>
      <trkpt lat="38.352091480046511" lon="-7.683397689834237">
        <ele>236.62</ele>
        <time>2016-03-14T19:05:15Z</time>
      </trkpt>
      <trkpt lat="38.351926524192095" lon="-7.683492070063949">
        <ele>231.81</ele>
        <time>2016-03-14T19:05:31Z</time>
      </trkpt>
      <trkpt lat="38.351765424013138" lon="-7.683594832196832">
        <ele>223.63999999999999</ele>
        <time>2016-03-14T19:05:40Z</time>
      </trkpt>
      <trkpt lat="38.350436305627227" lon="-7.684784224256873">
        <ele>221.24000000000001</ele>
        <time>2016-03-14T19:05:50Z</time>
      </trkpt>
      <trkpt lat="38.348190961405635" lon="-7.687031161040068">
        <ele>224.12</ele>
        <time>2016-03-14T19:06:00Z</time>
      </trkpt>
      <trkpt lat="38.346142256632447" lon="-7.688825055956841">
        <ele>228.93000000000001</ele>
        <time>2016-03-14T19:06:06Z</time>
      </trkpt>
      <trkpt lat="38.344772569835186" lon="-7.689207438379526">
        <ele>234.22</ele>
        <time>2016-03-14T19:06:12Z</time>
      </trkpt>
      <trkpt lat="38.342492021620274" lon="-7.689625360071659">
        <ele>244.31</ele>
        <time>2016-03-14T19:06:19Z</time>
      </trkpt>
      <trkpt lat="38.341093584895134" lon="-7.690499508753419">
        <ele>249.59999999999999</ele>
        <time>2016-03-14T19:06:32Z</time>
      </trkpt>
      <trkpt lat="38.339802185073495" lon="-7.691984530538321">
        <ele>254.88999999999999</ele>
        <time>2016-03-14T19:06:40Z</time>
      </trkpt>
      <trkpt lat="38.336637178435922" lon="-7.696022847667337">
        <ele>268.82999999999998</ele>
        <time>2016-03-14T19:06:48Z</time>
      </trkpt>
      <trkpt lat="38.334225788712502" lon="-7.698872610926628">
        <ele>283.25</ele>
        <time>2016-03-14T19:07:02Z</time>
      </trkpt>
      <trkpt lat="38.332425355911255" lon="-7.700078012421727">
        <ele>286.61000000000001</ele>
        <time>2016-03-14T19:07:10Z</time>
      </trkpt>
      <trkpt lat="38.328986428678036" lon="-7.702255127951503">
        <ele>298.63</ele>
        <time>2016-03-14T19:07:11Z</time>
      </trkpt>
      <trkpt lat="38.325857045128942" lon="-7.703947182744741">
        <ele>313.52999999999997</ele>
        <time>2016-03-14T19:07:12Z</time>
      </trkpt>
      <trkpt lat="38.323848741129041" lon="-7.704103924334049">
        <ele>322.18000000000001</ele>
        <time>2016-03-14T19:07:13Z</time>
      </trkpt>
      <trkpt lat="38.321648743003607" lon="-7.703928323462606">
        <ele>330.35000000000002</ele>
        <time>2016-03-14T19:07:14Z</time>
      </trkpt>
      <trkpt lat="38.319596098735929" lon="-7.703016204759479">
        <ele>338.51999999999998</ele>
        <time>2016-03-14T19:07:15Z</time>
      </trkpt>
      <trkpt lat="38.318275278434157" lon="-7.703020563349128">
        <ele>344.76999999999998</ele>
        <time>2016-03-14T19:07:16Z</time>
      </trkpt>
      <trkpt lat="38.317150343209505" lon="-7.703566392883658">
        <ele>344.76999999999998</ele>
        <time>2016-03-14T19:07:21Z</time>
      </trkpt>
      <trkpt lat="38.316129511222243" lon="-7.704671043902636">
        <ele>341.88999999999999</ele>
        <time>2016-03-14T19:07:26Z</time>
      </trkpt>
      <trkpt lat="38.31434584222734" lon="-7.707128534093499">
        <ele>327.47000000000003</ele>
        <time>2016-03-14T19:07:27Z</time>
      </trkpt>
      <trkpt lat="38.313033152371645" lon="-7.708342149853706">
        <ele>320.25999999999999</ele>
        <time>2016-03-14T19:07:28Z</time>
      </trkpt>
      <trkpt lat="38.311578137800097" lon="-7.708942461758852">
        <ele>319.77999999999997</ele>
        <time>2016-03-14T19:07:29Z</time>
      </trkpt>
      <trkpt lat="38.309102291241288" lon="-7.709645954892039">
        <ele>319.30000000000001</ele>
        <time>2016-03-14T19:07:30Z</time>
      </trkpt>
      <trkpt lat="38.307946594431996" lon="-7.710011741146445">
        <ele>318.32999999999998</ele>
        <time>2016-03-14T19:07:31Z</time>
      </trkpt>
      <trkpt lat="38.307832349091768" lon="-7.71007988601923">
        <ele>317.85000000000002</ele>
        <time>2016-03-14T19:07:32Z</time>
      </trkpt>
      <trkpt lat="38.307726066559553" lon="-7.710169740021229">
        <ele>317.37</ele>
        <time>2016-03-14T19:07:33Z</time>
      </trkpt>
      <trkpt lat="38.307631434872746" lon="-7.710279626771808">
        <ele>316.88999999999999</ele>
        <time>2016-03-14T19:07:34Z</time>
      </trkpt>
      <trkpt lat="38.307551303878427" lon="-7.710410971194506">
        <ele>316.41000000000003</ele>
        <time>2016-03-14T19:07:35Z</time>
      </trkpt>
      <trkpt lat="38.307487769052386" lon="-7.710554972290993">
        <ele>316.88999999999999</ele>
        <time>2016-03-14T19:07:36Z</time>
      </trkpt>
      <trkpt lat="38.307438818737864" lon="-7.710698302835226">
        <ele>316.88999999999999</ele>
        <time>2016-03-14T19:07:37Z</time>
      </trkpt>
      <trkpt lat="38.307309402152896" lon="-7.711107255890966">
        <ele>316.88999999999999</ele>
        <time>2016-03-14T19:07:42Z</time>
      </trkpt>
      <trkpt lat="38.3072798140347" lon="-7.711164671927691">
        <ele>316.88999999999999</ele>
        <time>2016-03-14T19:07:43Z</time>
      </trkpt>
      <trkpt lat="38.307254165410995" lon="-7.711182441562414">
        <ele>316.88999999999999</ele>
        <time>2016-03-14T19:07:44Z</time>
      </trkpt>
      <trkpt lat="38.307216949760914" lon="-7.711196020245552">
        <ele>316.88999999999999</ele>
        <time>2016-03-14T19:07:45Z</time>
      </trkpt>
      <trkpt lat="38.307171603664756" lon="-7.711192583665252">
        <ele>316.88999999999999</ele>
        <time>2016-03-14T19:07:46Z</time>
      </trkpt>
      <trkpt lat="38.307111756876111" lon="-7.71116953343153">
        <ele>317.37</ele>
        <time>2016-03-14T19:07:47Z</time>
      </trkpt>
      <trkpt lat="38.307042857632041" lon="-7.7111313957721">
        <ele>317.37</ele>
        <time>2016-03-14T19:07:48Z</time>
      </trkpt>
      <trkpt lat="38.306970940902829" lon="-7.711082613095641">
        <ele>317.85000000000002</ele>
        <time>2016-03-14T19:07:52Z</time>
      </trkpt>
      <trkpt lat="38.306892989203334" lon="-7.711023353040218">
        <ele>318.32999999999998</ele>
        <time>2016-03-14T19:07:53Z</time>
      </trkpt>
      <trkpt lat="38.30681218765676" lon="-7.71094816736877">
        <ele>318.81</ele>
        <time>2016-03-14T19:07:54Z</time>
      </trkpt>
      <trkpt lat="38.30673398450017" lon="-7.710853954777122">
        <ele>319.77999999999997</ele>
        <time>2016-03-14T19:07:57Z</time>
      </trkpt>
      <trkpt lat="38.306661397218704" lon="-7.710746750235558">
        <ele>319.30000000000001</ele>
        <time>2016-03-14T19:07:58Z</time>
      </trkpt>
      <trkpt lat="38.306592497974634" lon="-7.710633175447583">
        <ele>318.32999999999998</ele>
        <time>2016-03-14T19:07:59Z</time>
      </trkpt>
      <trkpt lat="38.306260742247105" lon="-7.71006622351706">
        <ele>317.85000000000002</ele>
        <time>2016-03-14T19:08:02Z</time>
      </trkpt>
      <trkpt lat="38.30618186853826" lon="-7.709984248504043">
        <ele>316.88999999999999</ele>
        <time>2016-03-14T19:08:03Z</time>
      </trkpt>
      <trkpt lat="38.30608899705112" lon="-7.709933370351791">
        <ele>316.41000000000003</ele>
        <time>2016-03-14T19:08:10Z</time>
      </trkpt>
      <trkpt lat="38.305984307080507" lon="-7.709914427250624">
        <ele>315.93000000000001</ele>
        <time>2016-03-14T19:08:19Z</time>
      </trkpt>
      <trkpt lat="38.305872492492199" lon="-7.709932113066316">
        <ele>313.05000000000001</ele>
        <time>2016-03-14T19:08:26Z</time>
      </trkpt>
      <trkpt lat="38.305759336799383" lon="-7.709976956248283">
        <ele>312.08999999999997</ele>
        <time>2016-03-14T19:08:29Z</time>
      </trkpt>
      <trkpt lat="38.305644672363997" lon="-7.710034623742104">
        <ele>311.60000000000002</ele>
        <time>2016-03-14T19:08:31Z</time>
      </trkpt>
      <trkpt lat="38.305207975208759" lon="-7.710259426385164">
        <ele>310.16000000000003</ele>
        <time>2016-03-14T19:08:32Z</time>
      </trkpt>
      <trkpt lat="38.305104291066527" lon="-7.710278704762459">
        <ele>309.68000000000001</ele>
        <time>2016-03-14T19:08:33Z</time>
      </trkpt>
      <trkpt lat="38.305001361295581" lon="-7.710273675620556">
        <ele>309.68000000000001</ele>
        <time>2016-03-14T19:08:34Z</time>
      </trkpt>
      <trkpt lat="38.30471595749259" lon="-7.710210895165801">
        <ele>308.72000000000003</ele>
        <time>2016-03-14T19:08:35Z</time>
      </trkpt>
      <trkpt lat="38.304634150117636" lon="-7.710159765556455">
        <ele>308.24000000000001</ele>
        <time>2016-03-14T19:08:36Z</time>
      </trkpt>
      <trkpt lat="38.304563071578741" lon="-7.710077790543437">
        <ele>305.83999999999997</ele>
        <time>2016-03-14T19:08:43Z</time>
      </trkpt>
      <trkpt lat="38.304326618090272" lon="-7.709732791408896">
        <ele>301.02999999999997</ele>
        <time>2016-03-14T19:08:54Z</time>
      </trkpt>
      <trkpt lat="38.304223101586103" lon="-7.709617288783193">
        <ele>299.58999999999997</ele>
        <time>2016-03-14T19:08:55Z</time>
      </trkpt>
      <trkpt lat="38.303254405036569" lon="-7.708684802055359">
        <ele>299.11000000000001</ele>
        <time>2016-03-14T19:08:56Z</time>
      </trkpt>
      <trkpt lat="38.301631081849337" lon="-7.707448722794652">
        <ele>299.11000000000001</ele>
        <time>2016-03-14T19:08:57Z</time>
      </trkpt>
      <trkpt lat="38.300496255978942" lon="-7.706478517502546">
        <ele>299.11000000000001</ele>
        <time>2016-03-14T19:08:58Z</time>
      </trkpt>
      <trkpt lat="38.300221413373947" lon="-7.706080880016089">
        <ele>299.58999999999997</ele>
        <time>2016-03-14T19:08:59Z</time>
      </trkpt>
      <trkpt lat="38.300075065344572" lon="-7.705899579450488">
        <ele>299.58999999999997</ele>
        <time>2016-03-14T19:09:00Z</time>
      </trkpt>
      <trkpt lat="38.300027539953589" lon="-7.705794302746654">
        <ele>299.58999999999997</ele>
        <time>2016-03-14T19:09:08Z</time>
      </trkpt>
      <trkpt lat="38.300003819167614" lon="-7.705668741837144">
        <ele>299.58999999999997</ele>
        <time>2016-03-14T19:09:09Z</time>
      </trkpt>
      <trkpt lat="38.299998790025711" lon="-7.705527003854513">
        <ele>298.63</ele>
        <time>2016-03-14T19:09:10Z</time>
      </trkpt>
      <trkpt lat="38.299997365102172" lon="-7.705367747694254">
        <ele>292.86000000000001</ele>
        <time>2016-03-14T19:09:11Z</time>
      </trkpt>
      <trkpt lat="38.299987474456429" lon="-7.705193823203445">
        <ele>291.89999999999998</ele>
        <time>2016-03-14T19:09:12Z</time>
      </trkpt>
      <trkpt lat="38.300032485276461" lon="-7.703717183321714">
        <ele>291.42000000000002</ele>
        <time>2016-03-14T19:09:13Z</time>
      </trkpt>
      <trkpt lat="38.300356529653072" lon="-7.701045786961913">
        <ele>290.45999999999998</ele>
        <time>2016-03-14T19:09:14Z</time>
      </trkpt>
      <trkpt lat="38.300326187163591" lon="-7.700798353180289">
        <ele>289.97000000000003</ele>
        <time>2016-03-14T19:09:15Z</time>
      </trkpt>
      <trkpt lat="38.300283439457417" lon="-7.700554355978966">
        <ele>289.00999999999999</ele>
        <time>2016-03-14T19:09:16Z</time>
      </trkpt>
      <trkpt lat="38.300227615982294" lon="-7.700317986309528">
        <ele>288.52999999999997</ele>
        <time>2016-03-14T19:09:17Z</time>
      </trkpt>
      <trkpt lat="38.300155447795987" lon="-7.700088741257787">
        <ele>283.25</ele>
        <time>2016-03-14T19:09:18Z</time>
      </trkpt>
      <trkpt lat="38.300070706754923" lon="-7.699861340224743">
        <ele>282.27999999999997</ele>
        <time>2016-03-14T19:09:27Z</time>
      </trkpt>
      <trkpt lat="38.29997724853456" lon="-7.699637291952968">
        <ele>281.80000000000001</ele>
        <time>2016-03-14T19:09:42Z</time>
      </trkpt>
      <trkpt lat="38.299335446208715" lon="-7.697997456416488">
        <ele>280.83999999999997</ele>
        <time>2016-03-14T19:09:53Z</time>
      </trkpt>
      <trkpt lat="38.299271743744612" lon="-7.697873404249549">
        <ele>280.36000000000001</ele>
        <time>2016-03-14T19:10:08Z</time>
      </trkpt>
      <trkpt lat="38.299200916662812" lon="-7.697776174172759">
        <ele>279.88</ele>
        <time>2016-03-14T19:10:21Z</time>
      </trkpt>
      <trkpt lat="38.299133190885186" lon="-7.697692103683949">
        <ele>279.88</ele>
        <time>2016-03-14T19:10:29Z</time>
      </trkpt>
      <trkpt lat="38.299080049619079" lon="-7.697594119235873">
        <ele>279.88</ele>
        <time>2016-03-14T19:10:37Z</time>
      </trkpt>
      <trkpt lat="38.299051383510232" lon="-7.697474593296647">
        <ele>279.39999999999998</ele>
        <time>2016-03-14T19:10:38Z</time>
      </trkpt>
      <trkpt lat="38.299045683816075" lon="-7.697337297722697">
        <ele>279.39999999999998</ele>
        <time>2016-03-14T19:10:39Z</time>
      </trkpt>
      <trkpt lat="38.299038643017411" lon="-7.697187261655927">
        <ele>278.92000000000002</ele>
        <time>2016-03-14T19:10:40Z</time>
      </trkpt>
      <trkpt lat="38.29901123419404" lon="-7.69702666439116">
        <ele>277</ele>
        <time>2016-03-14T19:10:41Z</time>
      </trkpt>
      <trkpt lat="38.298965720459819" lon="-7.696856008842588">
        <ele>291.42000000000002</ele>
        <time>2016-03-14T19:10:42Z</time>
      </trkpt>
      <trkpt lat="38.298907298594713" lon="-7.696673618629575">
        <ele>291.89999999999998</ele>
        <time>2016-03-14T19:10:52Z</time>
      </trkpt>
      <trkpt lat="38.298232890665531" lon="-7.69468367099762">
        <ele>277.95999999999998</ele>
        <time>2016-03-14T19:11:01Z</time>
      </trkpt>
      <trkpt lat="38.296936042606831" lon="-7.690746858716011">
        <ele>281.31999999999999</ele>
        <time>2016-03-14T19:11:17Z</time>
      </trkpt>
      <trkpt lat="38.296120902523398" lon="-7.687404742464423">
        <ele>284.69</ele>
        <time>2016-03-14T19:11:25Z</time>
      </trkpt>
      <trkpt lat="38.294966798275709" lon="-7.682406194508076">
        <ele>283.73000000000002</ele>
        <time>2016-03-14T19:11:37Z</time>
      </trkpt>
      <trkpt lat="38.29401696100831" lon="-7.678223792463541">
        <ele>283.25</ele>
        <time>2016-03-14T19:11:48Z</time>
      </trkpt>
      <trkpt lat="38.293831301853061" lon="-7.675724644213915">
        <ele>282.76999999999998</ele>
        <time>2016-03-14T19:11:55Z</time>
      </trkpt>
      <trkpt lat="38.293695347383618" lon="-7.673225328326225">
        <ele>282.76999999999998</ele>
        <time>2016-03-14T19:11:56Z</time>
      </trkpt>
      <trkpt lat="38.293626280501485" lon="-7.672932548448443">
        <ele>282.27999999999997</ele>
        <time>2016-03-14T19:11:57Z</time>
      </trkpt>
      <trkpt lat="38.29354003071785" lon="-7.672646809369326">
        <ele>282.27999999999997</ele>
        <time>2016-03-14T19:11:58Z</time>
      </trkpt>
      <trkpt lat="38.293430730700493" lon="-7.67237045802176">
        <ele>280.83999999999997</ele>
        <time>2016-03-14T19:11:59Z</time>
      </trkpt>
      <trkpt lat="38.293303828686476" lon="-7.672103829681873">
        <ele>279.39999999999998</ele>
        <time>2016-03-14T19:12:00Z</time>
      </trkpt>
      <trkpt lat="38.293165443465114" lon="-7.671847846359015">
        <ele>268.82999999999998</ele>
        <time>2016-03-14T19:12:16Z</time>
      </trkpt>
      <trkpt lat="38.291955180466175" lon="-7.669347440823913">
        <ele>262.57999999999998</ele>
        <time>2016-03-14T19:12:23Z</time>
      </trkpt>
      <trkpt lat="38.291356964036822" lon="-7.666668416932225">
        <ele>254.88999999999999</ele>
        <time>2016-03-14T19:12:27Z</time>
      </trkpt>
      <trkpt lat="38.29027846455574" lon="-7.661869106814265">
        <ele>258.73000000000002</ele>
        <time>2016-03-14T19:12:28Z</time>
      </trkpt>
      <trkpt lat="38.289866158738732" lon="-7.659473726525903">
        <ele>258.25</ele>
        <time>2016-03-14T19:12:29Z</time>
      </trkpt>
      <trkpt lat="38.28977957367897" lon="-7.655762135982513">
        <ele>257.76999999999998</ele>
        <time>2016-03-14T19:12:30Z</time>
      </trkpt>
      <trkpt lat="38.289414625614882" lon="-7.652457738295198">
        <ele>257.76999999999998</ele>
        <time>2016-03-14T19:12:31Z</time>
      </trkpt>
      <trkpt lat="38.289418816566467" lon="-7.650321777909994">
        <ele>257.29000000000002</ele>
        <time>2016-03-14T19:12:32Z</time>
      </trkpt>
      <trkpt lat="38.289369363337755" lon="-7.650035535916686">
        <ele>257.29000000000002</ele>
        <time>2016-03-14T19:12:33Z</time>
      </trkpt>
      <trkpt lat="38.289300799369812" lon="-7.649754490703344">
        <ele>257.29000000000002</ele>
        <time>2016-03-14T19:12:40Z</time>
      </trkpt>
      <trkpt lat="38.289213627576828" lon="-7.649483336135745">
        <ele>252.47999999999999</ele>
        <time>2016-03-14T19:12:41Z</time>
      </trkpt>
      <trkpt lat="38.289107009768486" lon="-7.649222491309047">
        <ele>250.56</ele>
        <time>2016-03-14T19:12:42Z</time>
      </trkpt>
      <trkpt lat="38.288988824933767" lon="-7.648965502157807">
        <ele>248.63999999999999</ele>
        <time>2016-03-14T19:12:43Z</time>
      </trkpt>
      <trkpt lat="38.286936348304152" lon="-7.645042268559337">
        <ele>247.68000000000001</ele>
        <time>2016-03-14T19:12:44Z</time>
      </trkpt>
      <trkpt lat="38.28568484634161" lon="-7.643744414672256">
        <ele>246.72</ele>
        <time>2016-03-14T19:12:45Z</time>
      </trkpt>
      <trkpt lat="38.285077409818769" lon="-7.642912091687322">
        <ele>245.75</ele>
        <time>2016-03-14T19:12:46Z</time>
      </trkpt>
      <trkpt lat="38.28496609814465" lon="-7.642664490267634">
        <ele>244.78999999999999</ele>
        <time>2016-03-14T19:12:47Z</time>
      </trkpt>
      <trkpt lat="38.284876076504588" lon="-7.642396772280335">
        <ele>243.83000000000001</ele>
        <time>2016-03-14T19:12:48Z</time>
      </trkpt>
      <trkpt lat="38.284808015450835" lon="-7.642116146162152">
        <ele>242.87</ele>
        <time>2016-03-14T19:13:03Z</time>
      </trkpt>
      <trkpt lat="38.284762417897582" lon="-7.641827054321766">
        <ele>233.74000000000001</ele>
        <time>2016-03-14T19:13:10Z</time>
      </trkpt>
      <trkpt lat="38.284735009074211" lon="-7.641528993844986">
        <ele>232.30000000000001</ele>
        <time>2016-03-14T19:13:28Z</time>
      </trkpt>
      <trkpt lat="38.284720592200756" lon="-7.641224730759859">
        <ele>230.84999999999999</ele>
        <time>2016-03-14T19:13:47Z</time>
      </trkpt>
      <trkpt lat="38.284529065713286" lon="-7.639136211946607">
        <ele>229.88999999999999</ele>
        <time>2016-03-14T19:13:58Z</time>
      </trkpt>
      <trkpt lat="38.284432673826814" lon="-7.63885541819036">
        <ele>227.97</ele>
        <time>2016-03-14T19:14:05Z</time>
      </trkpt>
      <trkpt lat="38.284314656630158" lon="-7.638586526736617">
        <ele>227.00999999999999</ele>
        <time>2016-03-14T19:14:16Z</time>
      </trkpt>
      <trkpt lat="38.284171996638179" lon="-7.638332974165678">
        <ele>225.56999999999999</ele>
        <time>2016-03-14T19:14:23Z</time>
      </trkpt>
      <trkpt lat="38.284004023298621" lon="-7.63810683041811">
        <ele>224.61000000000001</ele>
        <time>2016-03-14T19:14:29Z</time>
      </trkpt>
      <trkpt lat="38.283817861229181" lon="-7.637904407456517">
        <ele>223.63999999999999</ele>
        <time>2016-03-14T19:14:38Z</time>
      </trkpt>
      <trkpt lat="38.283617198467255" lon="-7.63772813603282">
        <ele>210.19</ele>
        <time>2016-03-14T19:14:51Z</time>
      </trkpt>
      <trkpt lat="38.283400861546397" lon="-7.637571394443512">
        <ele>207.30000000000001</ele>
        <time>2016-03-14T19:15:03Z</time>
      </trkpt>
      <trkpt lat="38.283173209056258" lon="-7.637418424710631">
        <ele>201.53</ele>
        <time>2016-03-14T19:15:07Z</time>
      </trkpt>
      <trkpt lat="38.279693042859435" lon="-7.635149275884032">
        <ele>202.00999999999999</ele>
        <time>2016-03-14T19:15:08Z</time>
      </trkpt>
      <trkpt lat="38.278446486219764" lon="-7.633745642378926">
        <ele>204.41999999999999</ele>
        <time>2016-03-14T19:15:09Z</time>
      </trkpt>
      <trkpt lat="38.27567626722157" lon="-7.629197705537081">
        <ele>212.11000000000001</ele>
        <time>2016-03-14T19:15:10Z</time>
      </trkpt>
      <trkpt lat="38.272764896973968" lon="-7.624408956617117">
        <ele>223.63999999999999</ele>
        <time>2016-03-14T19:15:11Z</time>
      </trkpt>
      <trkpt lat="38.271293118596077" lon="-7.621451234444976">
        <ele>228.93000000000001</ele>
        <time>2016-03-14T19:15:12Z</time>
      </trkpt>
      <trkpt lat="38.270268011838198" lon="-7.619749959558249">
        <ele>233.25999999999999</ele>
        <time>2016-03-14T19:15:13Z</time>
      </trkpt>
      <trkpt lat="38.268165998160839" lon="-7.617670157924295">
        <ele>239.02000000000001</ele>
        <time>2016-03-14T19:15:14Z</time>
      </trkpt>
      <trkpt lat="38.267068807035685" lon="-7.615938456729055">
        <ele>237.58000000000001</ele>
        <time>2016-03-14T19:15:21Z</time>
      </trkpt>
      <trkpt lat="38.266524821519852" lon="-7.614317480474711">
        <ele>227.00999999999999</ele>
        <time>2016-03-14T19:15:28Z</time>
      </trkpt>
      <trkpt lat="38.266098350286484" lon="-7.611637953668833">
        <ele>225.09</ele>
        <time>2016-03-14T19:15:35Z</time>
      </trkpt>
      <trkpt lat="38.264763280749321" lon="-7.607897445559502">
        <ele>224.61000000000001</ele>
        <time>2016-03-14T19:15:44Z</time>
      </trkpt>
      <trkpt lat="38.263416392728686" lon="-7.604602435603738">
        <ele>224.12</ele>
        <time>2016-03-14T19:15:45Z</time>
      </trkpt>
      <trkpt lat="38.262885315343738" lon="-7.603639019653201">
        <ele>224.12</ele>
        <time>2016-03-14T19:15:46Z</time>
      </trkpt>
      <trkpt lat="38.262727400287986" lon="-7.603438356891275">
        <ele>224.12</ele>
        <time>2016-03-14T19:15:47Z</time>
      </trkpt>
      <trkpt lat="38.262558253481984" lon="-7.603256553411484">
        <ele>223.63999999999999</ele>
        <time>2016-03-14T19:15:48Z</time>
      </trkpt>
      <trkpt lat="38.26237871311605" lon="-7.603092268109322">
        <ele>223.63999999999999</ele>
        <time>2016-03-14T19:15:49Z</time>
      </trkpt>
      <trkpt lat="38.262188360095024" lon="-7.602949356660247">
        <ele>223.63999999999999</ele>
        <time>2016-03-14T19:16:02Z</time>
      </trkpt>
      <trkpt lat="38.261988619342446" lon="-7.602826980873942">
        <ele>224.12</ele>
        <time>2016-03-14T19:16:10Z</time>
      </trkpt>
      <trkpt lat="38.261782173067331" lon="-7.602727571502328">
        <ele>224.12</ele>
        <time>2016-03-14T19:16:25Z</time>
      </trkpt>
      <trkpt lat="38.261575475335121" lon="-7.602644087746739">
        <ele>222.19999999999999</ele>
        <time>2016-03-14T19:16:36Z</time>
      </trkpt>
      <trkpt lat="38.260224731639028" lon="-7.601848980411887">
        <ele>213.06999999999999</ele>
        <time>2016-03-14T19:16:43Z</time>
      </trkpt>
      <trkpt lat="38.259202977642417" lon="-7.600359180942178">
        <ele>212.11000000000001</ele>
        <time>2016-03-14T19:16:53Z</time>
      </trkpt>
      <trkpt lat="38.258508453145623" lon="-7.598488004878163">
        <ele>211.63</ele>
        <time>2016-03-14T19:17:00Z</time>
      </trkpt>
      <trkpt lat="38.257653415203094" lon="-7.59597435593605">
        <ele>210.66999999999999</ele>
        <time>2016-03-14T19:17:14Z</time>
      </trkpt>
      <trkpt lat="38.257494242861867" lon="-7.595742847770453">
        <ele>210.19</ele>
        <time>2016-03-14T19:17:24Z</time>
      </trkpt>
      <trkpt lat="38.257317636162043" lon="-7.595528103411198">
        <ele>209.69999999999999</ele>
        <time>2016-03-14T19:17:39Z</time>
      </trkpt>
      <trkpt lat="38.257127534598112" lon="-7.595329787582159">
        <ele>222.68000000000001</ele>
        <time>2016-03-14T19:17:45Z</time>
      </trkpt>
      <trkpt lat="38.256926788017154" lon="-7.595147229731083">
        <ele>237.09999999999999</ele>
        <time>2016-03-14T19:17:59Z</time>
      </trkpt>
      <trkpt lat="38.256717994809151" lon="-7.594975903630257">
        <ele>252.47999999999999</ele>
        <time>2016-03-14T19:18:11Z</time>
      </trkpt>
      <trkpt lat="38.254160843789577" lon="-7.592790154740214">
        <ele>247.68000000000001</ele>
        <time>2016-03-14T19:18:22Z</time>
      </trkpt>
      <trkpt lat="38.252927446737885" lon="-7.59120337665081">
        <ele>254.41</ele>
        <time>2016-03-14T19:18:28Z</time>
      </trkpt>
      <trkpt lat="38.250673720613122" lon="-7.587785320356488">
        <ele>264.01999999999998</ele>
        <time>2016-03-14T19:18:36Z</time>
      </trkpt>
      <trkpt lat="38.248909832909703" lon="-7.585389856249094">
        <ele>268.35000000000002</ele>
        <time>2016-03-14T19:18:43Z</time>
      </trkpt>
      <trkpt lat="38.247623965144157" lon="-7.584537835791707">
        <ele>271.70999999999998</ele>
        <time>2016-03-14T19:19:01Z</time>
      </trkpt>
      <trkpt lat="38.246032074093819" lon="-7.583386832848191">
        <ele>278.92000000000002</ele>
        <time>2016-03-14T19:19:11Z</time>
      </trkpt>
      <trkpt lat="38.244972936809063" lon="-7.582048745825887">
        <ele>285.64999999999998</ele>
        <time>2016-03-14T19:19:25Z</time>
      </trkpt>
      <trkpt lat="38.242811746895313" lon="-7.578942328691483">
        <ele>280.36000000000001</ele>
        <time>2016-03-14T19:19:38Z</time>
      </trkpt>
      <trkpt lat="38.240811740979552" lon="-7.57721733301878">
        <ele>278.44</ele>
        <time>2016-03-14T19:19:48Z</time>
      </trkpt>
      <trkpt lat="38.237684033811092" lon="-7.574541997164488">
        <ele>282.76999999999998</ele>
        <time>2016-03-14T19:19:52Z</time>
      </trkpt>
      <trkpt lat="38.236602013930678" lon="-7.573069632053375">
        <ele>269.31</ele>
        <time>2016-03-14T19:19:53Z</time>
      </trkpt>
      <trkpt lat="38.234327584505081" lon="-7.569452924653888">
        <ele>258.25</ele>
        <time>2016-03-14T19:19:54Z</time>
      </trkpt>
      <trkpt lat="38.231966737657785" lon="-7.567013036459684">
        <ele>247.19999999999999</ele>
        <time>2016-03-14T19:19:55Z</time>
      </trkpt>
      <trkpt lat="38.229888780042529" lon="-7.564592929556966">
        <ele>241.43000000000001</ele>
        <time>2016-03-14T19:19:56Z</time>
      </trkpt>
      <trkpt lat="38.229223424568772" lon="-7.562845386564732">
        <ele>213.55000000000001</ele>
        <time>2016-03-14T19:19:57Z</time>
      </trkpt>
      <trkpt lat="38.228229833766818" lon="-7.560516642406583">
        <ele>202.97999999999999</ele>
        <time>2016-03-14T19:19:58Z</time>
      </trkpt>
      <trkpt lat="38.226803652942181" lon="-7.558819307014346">
        <ele>200.09</ele>
        <time>2016-03-14T19:19:59Z</time>
      </trkpt>
      <trkpt lat="38.223160374909639" lon="-7.554585691541433">
        <ele>196.72999999999999</ele>
        <time>2016-03-14T19:20:00Z</time>
      </trkpt>
      <trkpt lat="38.221254581585526" lon="-7.551950672641397">
        <ele>204.41999999999999</ele>
        <time>2016-03-14T19:20:01Z</time>
      </trkpt>
      <trkpt lat="38.218902787193656" lon="-7.548193652182818">
        <ele>205.86000000000001</ele>
        <time>2016-03-14T19:20:02Z</time>
      </trkpt>
      <trkpt lat="38.216706225648522" lon="-7.544686077162623">
        <ele>205.86000000000001</ele>
        <time>2016-03-14T19:20:12Z</time>
      </trkpt>
      <trkpt lat="38.215278787538409" lon="-7.542414078488946">
        <ele>205.86000000000001</ele>
        <time>2016-03-14T19:20:17Z</time>
      </trkpt>
      <trkpt lat="38.214898584410548" lon="-7.541855843737721">
        <ele>205.38</ele>
        <time>2016-03-14T19:20:18Z</time>
      </trkpt>
      <trkpt lat="38.214811747893691" lon="-7.541774204000831">
        <ele>205.38</ele>
        <time>2016-03-14T19:20:19Z</time>
      </trkpt>
      <trkpt lat="38.214721893891692" lon="-7.541715614497662">
        <ele>205.86000000000001</ele>
        <time>2016-03-14T19:20:20Z</time>
      </trkpt>
      <trkpt lat="38.214638158679008" lon="-7.5416549295187">
        <ele>205.86000000000001</ele>
        <time>2016-03-14T19:20:21Z</time>
      </trkpt>
      <trkpt lat="38.214573618024588" lon="-7.541572032496333">
        <ele>206.34</ele>
        <time>2016-03-14T19:20:22Z</time>
      </trkpt>
      <trkpt lat="38.214533049613237" lon="-7.541467761620879">
        <ele>206.81999999999999</ele>
        <time>2016-03-14T19:20:23Z</time>
      </trkpt>
      <trkpt lat="38.214506646618247" lon="-7.541347481310368">
        <ele>206.81999999999999</ele>
        <time>2016-03-14T19:20:24Z</time>
      </trkpt>
      <trkpt lat="38.214475130662322" lon="-7.541221836581826">
        <ele>206.81999999999999</ele>
        <time>2016-03-14T19:20:25Z</time>
      </trkpt>
      <trkpt lat="38.214423833414912" lon="-7.541095437481999">
        <ele>206.81999999999999</ele>
        <time>2016-03-14T19:20:26Z</time>
      </trkpt>
      <trkpt lat="38.214358035475016" lon="-7.540966188535094">
        <ele>205.38</ele>
        <time>2016-03-14T19:20:34Z</time>
      </trkpt>
      <trkpt lat="38.214277820661664" lon="-7.540837023407221">
        <ele>205.38</ele>
        <time>2016-03-14T19:20:45Z</time>
      </trkpt>
      <trkpt lat="38.21330476552248" lon="-7.539287293329835">
        <ele>204.90000000000001</ele>
        <time>2016-03-14T19:20:54Z</time>
      </trkpt>
      <trkpt lat="38.212815849110484" lon="-7.538519175723195">
        <ele>204.90000000000001</ele>
        <time>2016-03-14T19:21:09Z</time>
      </trkpt>
      <trkpt lat="38.212725324556231" lon="-7.53842806443572">
        <ele>204.41999999999999</ele>
        <time>2016-03-14T19:21:16Z</time>
      </trkpt>
      <trkpt lat="38.212634464725852" lon="-7.538368888199329">
        <ele>204.41999999999999</ele>
        <time>2016-03-14T19:21:28Z</time>
      </trkpt>
      <trkpt lat="38.212552908807993" lon="-7.538314573466778">
        <ele>204.41999999999999</ele>
        <time>2016-03-14T19:21:41Z</time>
      </trkpt>
      <trkpt lat="38.212491720914841" lon="-7.538232682272792">
        <ele>203.94</ele>
        <time>2016-03-14T19:21:47Z</time>
      </trkpt>
      <trkpt lat="38.212453918531537" lon="-7.538122460246086">
        <ele>203.94</ele>
        <time>2016-03-14T19:21:59Z</time>
      </trkpt>
      <trkpt lat="38.21242718026042" lon="-7.537995390594006">
        <ele>203.46000000000001</ele>
        <time>2016-03-14T19:22:07Z</time>
      </trkpt>
      <trkpt lat="38.212388036772609" lon="-7.537859519943595">
        <ele>198.65000000000001</ele>
        <time>2016-03-14T19:22:17Z</time>
      </trkpt>
      <trkpt lat="38.212324250489473" lon="-7.53771903924644">
        <ele>196.25</ele>
        <time>2016-03-14T19:22:21Z</time>
      </trkpt>
      <trkpt lat="38.212240934371948" lon="-7.537573277950287">
        <ele>204.41999999999999</ele>
        <time>2016-03-14T19:22:22Z</time>
      </trkpt>
      <trkpt lat="38.211319595575333" lon="-7.536180876195431">
        <ele>203.94</ele>
        <time>2016-03-14T19:22:23Z</time>
      </trkpt>
      <trkpt lat="38.2096859626472" lon="-7.533694971352816">
        <ele>198.65000000000001</ele>
        <time>2016-03-14T19:22:24Z</time>
      </trkpt>
      <trkpt lat="38.208306217566133" lon="-7.531916163861752">
        <ele>211.63</ele>
        <time>2016-03-14T19:22:25Z</time>
      </trkpt>
      <trkpt lat="38.205578410997987" lon="-7.529322048649192">
        <ele>205.86000000000001</ele>
        <time>2016-03-14T19:22:26Z</time>
      </trkpt>
      <trkpt lat="38.204328585416079" lon="-7.527748681604862">
        <ele>200.56999999999999</ele>
        <time>2016-03-14T19:22:27Z</time>
      </trkpt>
      <trkpt lat="38.202639883384109" lon="-7.524785175919533">
        <ele>191.44</ele>
        <time>2016-03-14T19:22:28Z</time>
      </trkpt>
      <trkpt lat="38.200909607112408" lon="-7.521625114604831">
        <ele>192.40000000000001</ele>
        <time>2016-03-14T19:22:29Z</time>
      </trkpt>
      <trkpt lat="38.200366543605924" lon="-7.520033894106746">
        <ele>185.66999999999999</ele>
        <time>2016-03-14T19:22:30Z</time>
      </trkpt>
      <trkpt lat="38.19963145069778" lon="-7.516290619969368">
        <ele>182.78999999999999</ele>
        <time>2016-03-14T19:22:31Z</time>
      </trkpt>
      <trkpt lat="38.199008088558912" lon="-7.514092465862632">
        <ele>182.31</ele>
        <time>2016-03-14T19:22:32Z</time>
      </trkpt>
      <trkpt lat="38.197965295985341" lon="-7.511619720607996">
        <ele>181.83000000000001</ele>
        <time>2016-03-14T19:22:41Z</time>
      </trkpt>
      <trkpt lat="38.197696320712566" lon="-7.511011445894837">
        <ele>181.83000000000001</ele>
        <time>2016-03-14T19:22:54Z</time>
      </trkpt>
      <trkpt lat="38.197615351527929" lon="-7.510904157534242">
        <ele>181.34999999999999</ele>
        <time>2016-03-14T19:23:03Z</time>
      </trkpt>
      <trkpt lat="38.197530610486865" lon="-7.51082587055862">
        <ele>181.83000000000001</ele>
        <time>2016-03-14T19:23:10Z</time>
      </trkpt>
      <trkpt lat="38.19745609536767" lon="-7.510754875838757">
        <ele>181.83000000000001</ele>
        <time>2016-03-14T19:23:11Z</time>
      </trkpt>
      <trkpt lat="38.197401110082865" lon="-7.510672565549612">
        <ele>181.83000000000001</ele>
        <time>2016-03-14T19:23:12Z</time>
      </trkpt>
      <trkpt lat="38.197371689602733" lon="-7.510575167834759">
        <ele>181.34999999999999</ele>
        <time>2016-03-14T19:23:13Z</time>
      </trkpt>
      <trkpt lat="38.197374623268843" lon="-7.510472740978003">
        <ele>181.34999999999999</ele>
        <time>2016-03-14T19:23:14Z</time>
      </trkpt>
      <trkpt lat="38.197402535006404" lon="-7.510363860055804">
        <ele>180.38</ele>
        <time>2016-03-14T19:23:15Z</time>
      </trkpt>
      <trkpt lat="38.197443019598722" lon="-7.510240310803056">
        <ele>179.90000000000001</ele>
        <time>2016-03-14T19:23:16Z</time>
      </trkpt>
      <trkpt lat="38.197477553039789" lon="-7.510094381868839">
        <ele>175.09999999999999</ele>
        <time>2016-03-14T19:23:17Z</time>
      </trkpt>
      <trkpt lat="38.197495155036449" lon="-7.509933281689882">
        <ele>175.09999999999999</ele>
        <time>2016-03-14T19:23:18Z</time>
      </trkpt>
      <trkpt lat="38.19749859161675" lon="-7.509760530665517">
        <ele>178.46000000000001</ele>
        <time>2016-03-14T19:23:19Z</time>
      </trkpt>
      <trkpt lat="38.197573693469167" lon="-7.507930677384138">
        <ele>179.90000000000001</ele>
        <time>2016-03-14T19:23:20Z</time>
      </trkpt>
      <trkpt lat="38.197950460016727" lon="-7.504946803674102">
        <ele>180.38</ele>
        <time>2016-03-14T19:23:30Z</time>
      </trkpt>
      <trkpt lat="38.198038218542933" lon="-7.50277815386653">
        <ele>180.38</ele>
        <time>2016-03-14T19:23:31Z</time>
      </trkpt>
      <trkpt lat="38.197955237701535" lon="-7.501192884519696">
        <ele>180.87</ele>
        <time>2016-03-14T19:23:32Z</time>
      </trkpt>
      <trkpt lat="38.197905784472823" lon="-7.500995993614197">
        <ele>180.87</ele>
        <time>2016-03-14T19:23:33Z</time>
      </trkpt>
      <trkpt lat="38.197831688448787" lon="-7.500806730240583">
        <ele>181.34999999999999</ele>
        <time>2016-03-14T19:23:34Z</time>
      </trkpt>
      <trkpt lat="38.197733117267489" lon="-7.500635404139757">
        <ele>181.83000000000001</ele>
        <time>2016-03-14T19:23:35Z</time>
      </trkpt>
      <trkpt lat="38.197614932432771" lon="-7.500484948977828">
        <ele>181.83000000000001</ele>
        <time>2016-03-14T19:23:36Z</time>
      </trkpt>
      <trkpt lat="38.197481157258153" lon="-7.500356957316399">
        <ele>182.31</ele>
        <time>2016-03-14T19:23:37Z</time>
      </trkpt>
      <trkpt lat="38.197334222495556" lon="-7.500252602621913">
        <ele>182.31</ele>
        <time>2016-03-14T19:23:38Z</time>
      </trkpt>
      <trkpt lat="38.197177900001407" lon="-7.500175908207893">
        <ele>182.78999999999999</ele>
        <time>2016-03-14T19:23:39Z</time>
      </trkpt>
      <trkpt lat="38.197015710175037" lon="-7.500125113874674">
        <ele>177.02000000000001</ele>
        <time>2016-03-14T19:23:40Z</time>
      </trkpt>
      <trkpt lat="38.196855783462524" lon="-7.500097621232271">
        <ele>176.06</ele>
        <time>2016-03-14T19:23:41Z</time>
      </trkpt>
      <trkpt lat="38.196699041873217" lon="-7.500077085569501">
        <ele>175.58000000000001</ele>
        <time>2016-03-14T19:23:42Z</time>
      </trkpt>
      <trkpt lat="38.195209493860602" lon="-7.499906681478024">
        <ele>174.62</ele>
        <time>2016-03-14T19:23:43Z</time>
      </trkpt>
      <trkpt lat="38.195089800283313" lon="-7.499845325946808">
        <ele>173.66</ele>
        <time>2016-03-14T19:23:44Z</time>
      </trkpt>
      <trkpt lat="38.19497924298048" lon="-7.499761087819934">
        <ele>172.69</ele>
        <time>2016-03-14T19:23:45Z</time>
      </trkpt>
      <trkpt lat="38.194880671799183" lon="-7.499654972925782">
        <ele>172.21000000000001</ele>
        <time>2016-03-14T19:23:46Z</time>
      </trkpt>
      <trkpt lat="38.194797355681658" lon="-7.499527735635638">
        <ele>172.21000000000001</ele>
        <time>2016-03-14T19:23:47Z</time>
      </trkpt>
      <trkpt lat="38.194731641560793" lon="-7.499383063986898">
        <ele>172.21000000000001</ele>
        <time>2016-03-14T19:23:56Z</time>
      </trkpt>
      <trkpt lat="38.194680847227573" lon="-7.499224226921797">
        <ele>172.21000000000001</ele>
        <time>2016-03-14T19:24:06Z</time>
      </trkpt>
      <trkpt lat="38.194652181118727" lon="-7.499053739011288">
        <ele>172.21000000000001</ele>
        <time>2016-03-14T19:24:12Z</time>
      </trkpt>
      <trkpt lat="38.194651091471314" lon="-7.498879227787256">
        <ele>171.72999999999999</ele>
        <time>2016-03-14T19:24:13Z</time>
      </trkpt>
      <trkpt lat="38.194670202210546" lon="-7.498708236962557">
        <ele>171.25</ele>
        <time>2016-03-14T19:24:14Z</time>
      </trkpt>
      <trkpt lat="38.194708507508039" lon="-7.49854956753552">
        <ele>170.77000000000001</ele>
        <time>2016-03-14T19:24:22Z</time>
      </trkpt>
      <trkpt lat="38.194767348468304" lon="-7.49840104021132">
        <ele>170.28999999999999</ele>
        <time>2016-03-14T19:24:28Z</time>
      </trkpt>
      <trkpt lat="38.194848317652941" lon="-7.498271288350225">
        <ele>170.28999999999999</ele>
        <time>2016-03-14T19:24:29Z</time>
      </trkpt>
      <trkpt lat="38.194947056472301" lon="-7.498160731047392">
        <ele>169.81</ele>
        <time>2016-03-14T19:24:30Z</time>
      </trkpt>
      <trkpt lat="38.195058284327388" lon="-7.498071379959583">
        <ele>169.33000000000001</ele>
        <time>2016-03-14T19:24:31Z</time>
      </trkpt>
      <trkpt lat="38.195177558809519" lon="-7.498006587848067">
        <ele>168.84999999999999</ele>
        <time>2016-03-14T19:24:32Z</time>
      </trkpt>
      <trkpt lat="38.195299180224538" lon="-7.497963504865766">
        <ele>166.44999999999999</ele>
        <time>2016-03-14T19:24:36Z</time>
      </trkpt>
      <trkpt lat="38.195418119430542" lon="-7.497929977253079">
        <ele>165.47999999999999</ele>
        <time>2016-03-14T19:24:37Z</time>
      </trkpt>
      <trkpt lat="38.19618271663785" lon="-7.497712047770619">
        <ele>165.47999999999999</ele>
        <time>2016-03-14T19:24:38Z</time>
      </trkpt>
      <trkpt lat="38.197105396538973" lon="-7.497108047828078">
        <ele>165.47999999999999</ele>
        <time>2016-03-14T19:24:52Z</time>
      </trkpt>
      <trkpt lat="38.197576710954309" lon="-7.496303720399737">
        <ele>164.52000000000001</ele>
        <time>2016-03-14T19:24:55Z</time>
      </trkpt>
      <trkpt lat="38.197630103677511" lon="-7.496128538623452">
        <ele>164.52000000000001</ele>
        <time>2016-03-14T19:24:56Z</time>
      </trkpt>
      <trkpt lat="38.197674276307225" lon="-7.495946735143662">
        <ele>164.03999999999999</ele>
        <time>2016-03-14T19:24:58Z</time>
      </trkpt>
      <trkpt lat="38.197735799476504" lon="-7.494404213503003">
        <ele>164.03999999999999</ele>
        <time>2016-03-14T19:24:59Z</time>
      </trkpt>
      <trkpt lat="38.197581237182021" lon="-7.493337700143457">
        <ele>164.03999999999999</ele>
        <time>2016-03-14T19:25:00Z</time>
      </trkpt>
      <trkpt lat="38.197587691247463" lon="-7.493156651034951">
        <ele>164.03999999999999</ele>
        <time>2016-03-14T19:25:02Z</time>
      </trkpt>
      <trkpt lat="38.197615435346961" lon="-7.492964789271355">
        <ele>164.03999999999999</ele>
        <time>2016-03-14T19:25:03Z</time>
      </trkpt>
      <trkpt lat="38.197664804756641" lon="-7.492771837860346">
        <ele>164.52000000000001</ele>
        <time>2016-03-14T19:25:11Z</time>
      </trkpt>
      <trkpt lat="38.197728423401713" lon="-7.49257511459291">
        <ele>164.52000000000001</ele>
        <time>2016-03-14T19:25:21Z</time>
      </trkpt>
      <trkpt lat="38.197980718687177" lon="-7.491755280643702">
        <ele>169.33000000000001</ele>
        <time>2016-03-14T19:25:33Z</time>
      </trkpt>
      <trkpt lat="38.198009803891182" lon="-7.491536177694798">
        <ele>170.28999999999999</ele>
        <time>2016-03-14T19:25:41Z</time>
      </trkpt>
      <trkpt lat="38.198023969307542" lon="-7.491310955956578">
        <ele>170.28999999999999</ele>
        <time>2016-03-14T19:25:53Z</time>
      </trkpt>
      <trkpt lat="38.198060765862465" lon="-7.488014604896307">
        <ele>171.25</ele>
        <time>2016-03-14T19:26:03Z</time>
      </trkpt>
      <trkpt lat="38.198028830811381" lon="-7.487504649907351">
        <ele>171.72999999999999</ele>
        <time>2016-03-14T19:26:12Z</time>
      </trkpt>
      <trkpt lat="38.197999158874154" lon="-7.487379843369126">
        <ele>171.72999999999999</ele>
        <time>2016-03-14T19:26:24Z</time>
      </trkpt>
      <trkpt lat="38.197953980416059" lon="-7.487173061817884">
        <ele>172.21000000000001</ele>
        <time>2016-03-14T19:26:31Z</time>
      </trkpt>
      <trkpt lat="38.197961272671819" lon="-7.487075580283999">
        <ele>172.69</ele>
        <time>2016-03-14T19:26:47Z</time>
      </trkpt>
      <trkpt lat="38.197992537170649" lon="-7.486976506188512">
        <ele>175.58000000000001</ele>
        <time>2016-03-14T19:27:03Z</time>
      </trkpt>
      <trkpt lat="38.198088509961963" lon="-7.486738711595535">
        <ele>179.41999999999999</ele>
        <time>2016-03-14T19:27:11Z</time>
      </trkpt>
      <trkpt lat="38.198127066716552" lon="-7.486593537032604">
        <ele>182.31</ele>
        <time>2016-03-14T19:27:19Z</time>
      </trkpt>
      <trkpt lat="38.198416410014033" lon="-7.485148413106799">
        <ele>177.5</ele>
        <time>2016-03-14T19:27:37Z</time>
      </trkpt>
      <trkpt lat="38.198887892067432" lon="-7.48281623236835">
        <ele>178.46000000000001</ele>
        <time>2016-03-14T19:27:52Z</time>
      </trkpt>
      <trkpt lat="38.199428273364902" lon="-7.479825066402555">
        <ele>186.15000000000001</ele>
        <time>2016-03-14T19:28:01Z</time>
      </trkpt>
      <trkpt lat="38.199480911716819" lon="-7.477609142661095">
        <ele>182.31</ele>
        <time>2016-03-14T19:28:17Z</time>
      </trkpt>
      <trkpt lat="38.199519217014313" lon="-7.47405756264925">
        <ele>184.71000000000001</ele>
        <time>2016-03-14T19:28:34Z</time>
      </trkpt>
      <trkpt lat="38.199539501219988" lon="-7.471367055550218">
        <ele>183.27000000000001</ele>
        <time>2016-03-14T19:28:46Z</time>
      </trkpt>
      <trkpt lat="38.199554588645697" lon="-7.468629693612456">
        <ele>189.03999999999999</ele>
        <time>2016-03-14T19:28:55Z</time>
      </trkpt>
      <trkpt lat="38.199564982205629" lon="-7.465105773881078">
        <ele>203.46000000000001</ele>
        <time>2016-03-14T19:29:12Z</time>
      </trkpt>
      <trkpt lat="38.199129123240709" lon="-7.46302823536098">
        <ele>203.46000000000001</ele>
        <time>2016-03-14T19:29:23Z</time>
      </trkpt>
      <trkpt lat="38.198001002892852" lon="-7.457882333546877">
        <ele>200.09</ele>
        <time>2016-03-14T19:29:25Z</time>
      </trkpt>
      <trkpt lat="38.196825357154012" lon="-7.452707681804895">
        <ele>193.36000000000001</ele>
        <time>2016-03-14T19:29:26Z</time>
      </trkpt>
      <trkpt lat="38.195882979780436" lon="-7.450302746146917">
        <ele>189.03999999999999</ele>
        <time>2016-03-14T19:29:27Z</time>
      </trkpt>
      <trkpt lat="38.194501390680671" lon="-7.448155051097274">
        <ele>186.15000000000001</ele>
        <time>2016-03-14T19:29:28Z</time>
      </trkpt>
      <trkpt lat="38.191000437363982" lon="-7.443362111225724">
        <ele>174.62</ele>
        <time>2016-03-14T19:29:29Z</time>
      </trkpt>
      <trkpt lat="38.188067274168134" lon="-7.439549434930086">
        <ele>151.53999999999999</ele>
        <time>2016-03-14T19:29:30Z</time>
      </trkpt>
      <trkpt lat="38.186123175546527" lon="-7.437876909971237">
        <ele>146.25999999999999</ele>
        <time>2016-03-14T19:29:31Z</time>
      </trkpt>
      <trkpt lat="38.182529686018825" lon="-7.434916002675891">
        <ele>145.78</ele>
        <time>2016-03-14T19:29:40Z</time>
      </trkpt>
      <trkpt lat="38.178596729412675" lon="-7.431674972176552">
        <ele>130.88</ele>
        <time>2016-03-14T19:29:47Z</time>
      </trkpt>
      <trkpt lat="38.175981491804123" lon="-7.429468603804708">
        <ele>115.98</ele>
        <time>2016-03-14T19:29:48Z</time>
      </trkpt>
      <trkpt lat="38.174427067860961" lon="-7.427640929818153">
        <ele>115.01000000000001</ele>
        <time>2016-03-14T19:29:49Z</time>
      </trkpt>
      <trkpt lat="38.171302042901516" lon="-7.423708140850067">
        <ele>114.53</ele>
        <time>2016-03-14T19:29:50Z</time>
      </trkpt>
      <trkpt lat="38.169328020885587" lon="-7.421315778046846">
        <ele>114.05</ele>
        <time>2016-03-14T19:29:51Z</time>
      </trkpt>
      <trkpt lat="38.168999115005136" lon="-7.420978657901287">
        <ele>113.56999999999999</ele>
        <time>2016-03-14T19:29:52Z</time>
      </trkpt>
      <trkpt lat="38.168822089210153" lon="-7.42084538564086">
        <ele>112.61</ele>
        <time>2016-03-14T19:29:57Z</time>
      </trkpt>
      <trkpt lat="38.168635675683618" lon="-7.42074036039412">
        <ele>112.13</ele>
        <time>2016-03-14T19:29:58Z</time>
      </trkpt>
      <trkpt lat="38.168442891910672" lon="-7.420665342360735">
        <ele>111.17</ele>
        <time>2016-03-14T19:30:08Z</time>
      </trkpt>
      <trkpt lat="38.168240804225206" lon="-7.420617900788784">
        <ele>110.20999999999999</ele>
        <time>2016-03-14T19:30:14Z</time>
      </trkpt>
      <trkpt lat="38.168033016845584" lon="-7.420587139204145">
        <ele>115.5</ele>
        <time>2016-03-14T19:30:15Z</time>
      </trkpt>
      <trkpt lat="38.16782221198082" lon="-7.420567944645882">
        <ele>116.45999999999999</ele>
        <time>2016-03-14T19:30:28Z</time>
      </trkpt>
      <trkpt lat="38.165967548266053" lon="-7.420523520559073">
        <ele>116.94</ele>
        <time>2016-03-14T19:30:33Z</time>
      </trkpt>
      <trkpt lat="38.164902292191982" lon="-7.420406928285956">
        <ele>117.90000000000001</ele>
        <time>2016-03-14T19:30:34Z</time>
      </trkpt>
      <trkpt lat="38.164775725454092" lon="-7.420408856123686">
        <ele>118.86</ele>
        <time>2016-03-14T19:30:35Z</time>
      </trkpt>
      <trkpt lat="38.164655109867454" lon="-7.420437689870596">
        <ele>119.81999999999999</ele>
        <time>2016-03-14T19:30:36Z</time>
      </trkpt>
      <trkpt lat="38.164540529251099" lon="-7.420490579679608">
        <ele>123.67</ele>
        <time>2016-03-14T19:30:37Z</time>
      </trkpt>
      <trkpt lat="38.164432151243091" lon="-7.420562244951725">
        <ele>124.63</ele>
        <time>2016-03-14T19:30:38Z</time>
      </trkpt>
      <trkpt lat="38.164327964186668" lon="-7.420638436451554">
        <ele>132.80000000000001</ele>
        <time>2016-03-14T19:30:39Z</time>
      </trkpt>
      <trkpt lat="38.16380619071424" lon="-7.4209313839674">
        <ele>138.56999999999999</ele>
        <time>2016-03-14T19:30:43Z</time>
      </trkpt>
      <trkpt lat="38.163688089698553" lon="-7.420956529676914">
        <ele>140.00999999999999</ele>
        <time>2016-03-14T19:30:44Z</time>
      </trkpt>
      <trkpt lat="38.162283785641193" lon="-7.421108828857541">
        <ele>154.91</ele>
        <time>2016-03-14T19:30:45Z</time>
      </trkpt>
      <trkpt lat="38.161388346925378" lon="-7.421268252655864">
        <ele>156.34999999999999</ele>
        <time>2016-03-14T19:30:46Z</time>
      </trkpt>
      <trkpt lat="38.161240825429559" lon="-7.421332793310285">
        <ele>155.87</ele>
        <time>2016-03-14T19:30:47Z</time>
      </trkpt>
      <trkpt lat="38.15928541123867" lon="-7.422413555905223">
        <ele>155.87</ele>
        <time>2016-03-14T19:30:48Z</time>
      </trkpt>
      <trkpt lat="38.158506648615003" lon="-7.422644393518567">
        <ele>155.38999999999999</ele>
        <time>2016-03-14T19:30:57Z</time>
      </trkpt>
      <trkpt lat="38.158362982794642" lon="-7.422732068225741">
        <ele>154.43000000000001</ele>
        <time>2016-03-14T19:31:03Z</time>
      </trkpt>
      <trkpt lat="38.158224681392312" lon="-7.422842541709542">
        <ele>153.94999999999999</ele>
        <time>2016-03-14T19:31:04Z</time>
      </trkpt>
      <trkpt lat="38.158095348626375" lon="-7.422972125932574">
        <ele>152.99000000000001</ele>
        <time>2016-03-14T19:31:05Z</time>
      </trkpt>
      <trkpt lat="38.157976074144244" lon="-7.423115707933903">
        <ele>149.13999999999999</ele>
        <time>2016-03-14T19:31:13Z</time>
      </trkpt>
      <trkpt lat="38.157863924279809" lon="-7.423270856961608">
        <ele>148.18000000000001</ele>
        <time>2016-03-14T19:31:26Z</time>
      </trkpt>
      <trkpt lat="38.157757306471467" lon="-7.423438997939229">
        <ele>147.22</ele>
        <time>2016-03-14T19:31:36Z</time>
      </trkpt>
      <trkpt lat="38.157384730875492" lon="-7.424080884084106">
        <ele>146.25999999999999</ele>
        <time>2016-03-14T19:31:47Z</time>
      </trkpt>
      <trkpt lat="38.157328153029084" lon="-7.42424282245338">
        <ele>145.30000000000001</ele>
        <time>2016-03-14T19:31:57Z</time>
      </trkpt>
      <trkpt lat="38.157295295968652" lon="-7.424411214888096">
        <ele>144.34</ele>
        <time>2016-03-14T19:32:09Z</time>
      </trkpt>
      <trkpt lat="38.157281884923577" lon="-7.424588743597269">
        <ele>144.81999999999999</ele>
        <time>2016-03-14T19:32:23Z</time>
      </trkpt>
      <trkpt lat="38.157283728942275" lon="-7.424775827676058">
        <ele>150.09999999999999</ele>
        <time>2016-03-14T19:32:25Z</time>
      </trkpt>
      <trkpt lat="38.15729177556932" lon="-7.424974227324128">
        <ele>150.58000000000001</ele>
        <time>2016-03-14T19:32:26Z</time>
      </trkpt>
      <trkpt lat="38.157223295420408" lon="-7.426878428086639">
        <ele>150.58000000000001</ele>
        <time>2016-03-14T19:32:31Z</time>
      </trkpt>
      <trkpt lat="38.157033529132605" lon="-7.42797109298408">
        <ele>148.18000000000001</ele>
        <time>2016-03-14T19:32:32Z</time>
      </trkpt>
      <trkpt lat="38.15695758908987" lon="-7.42810151539743">
        <ele>151.06</ele>
        <time>2016-03-14T19:32:33Z</time>
      </trkpt>
      <trkpt lat="38.156856754794717" lon="-7.428217772394419">
        <ele>147.22</ele>
        <time>2016-03-14T19:32:36Z</time>
      </trkpt>
      <trkpt lat="38.155771298334002" lon="-7.429278502240777">
        <ele>152.03</ele>
        <time>2016-03-14T19:32:37Z</time>
      </trkpt>
      <trkpt lat="38.153914790600538" lon="-7.431103996932507">
        <ele>152.50999999999999</ele>
        <time>2016-03-14T19:32:38Z</time>
      </trkpt>
      <trkpt lat="38.152421219274402" lon="-7.432570829987526">
        <ele>150.09999999999999</ele>
        <time>2016-03-14T19:32:39Z</time>
      </trkpt>
      <trkpt lat="38.150935946032405" lon="-7.434009416028857">
        <ele>139.05000000000001</ele>
        <time>2016-03-14T19:32:40Z</time>
      </trkpt>
      <trkpt lat="38.149736076593399" lon="-7.435426628217101">
        <ele>138.09</ele>
        <time>2016-03-14T19:32:41Z</time>
      </trkpt>
      <trkpt lat="38.148366557434201" lon="-7.437638361006975">
        <ele>138.09</ele>
        <time>2016-03-14T19:32:42Z</time>
      </trkpt>
      <trkpt lat="38.146750526502728" lon="-7.440279079601169">
        <ele>138.09</ele>
        <time>2016-03-14T19:32:46Z</time>
      </trkpt>
      <trkpt lat="38.146589258685708" lon="-7.440614774823189">
        <ele>138.09</ele>
        <time>2016-03-14T19:32:47Z</time>
      </trkpt>
      <trkpt lat="38.146521532908082" lon="-7.440806804224849">
        <ele>138.56999999999999</ele>
        <time>2016-03-14T19:32:48Z</time>
      </trkpt>
      <trkpt lat="38.146211067214608" lon="-7.441778937354684">
        <ele>139.53</ele>
        <time>2016-03-14T19:32:49Z</time>
      </trkpt>
      <trkpt lat="38.146135881543159" lon="-7.441931571811438">
        <ele>140.49000000000001</ele>
        <time>2016-03-14T19:32:50Z</time>
      </trkpt>
      <trkpt lat="38.146043429151177" lon="-7.442062832415104">
        <ele>141.44999999999999</ele>
        <time>2016-03-14T19:32:51Z</time>
      </trkpt>
      <trkpt lat="38.145777555182576" lon="-7.442442197352648">
        <ele>142.41</ele>
        <time>2016-03-14T19:32:58Z</time>
      </trkpt>
      <trkpt lat="38.145724916830659" lon="-7.442580834031105">
        <ele>142.88999999999999</ele>
        <time>2016-03-14T19:32:59Z</time>
      </trkpt>
      <trkpt lat="38.145696921274066" lon="-7.442729193717241">
        <ele>143.84999999999999</ele>
        <time>2016-03-14T19:33:00Z</time>
      </trkpt>
      <trkpt lat="38.145693903788924" lon="-7.442883001640439">
        <ele>144.81999999999999</ele>
        <time>2016-03-14T19:33:01Z</time>
      </trkpt>
      <trkpt lat="38.145717205479741" lon="-7.443032534793019">
        <ele>147.69999999999999</ele>
        <time>2016-03-14T19:33:02Z</time>
      </trkpt>
      <trkpt lat="38.145758025348186" lon="-7.443172764033079">
        <ele>148.18000000000001</ele>
        <time>2016-03-14T19:33:03Z</time>
      </trkpt>
      <trkpt lat="38.14580655656755" lon="-7.44330863468349">
        <ele>148.66</ele>
        <time>2016-03-14T19:33:04Z</time>
      </trkpt>
      <trkpt lat="38.14597612246871" lon="-7.443867456167936">
        <ele>149.13999999999999</ele>
        <time>2016-03-14T19:33:14Z</time>
      </trkpt>
      <trkpt lat="38.145983666181564" lon="-7.444012546911836">
        <ele>149.62</ele>
        <time>2016-03-14T19:33:27Z</time>
      </trkpt>
      <trkpt lat="38.145972266793251" lon="-7.444166019558907">
        <ele>150.58000000000001</ele>
        <time>2016-03-14T19:33:36Z</time>
      </trkpt>
      <trkpt lat="38.145942343398929" lon="-7.444324856624007">
        <ele>156.34999999999999</ele>
        <time>2016-03-14T19:33:44Z</time>
      </trkpt>
      <trkpt lat="38.145897164940834" lon="-7.444486124441028">
        <ele>156.83000000000001</ele>
        <time>2016-03-14T19:33:52Z</time>
      </trkpt>
      <trkpt lat="38.145835474133492" lon="-7.444649655371904">
        <ele>157.78999999999999</ele>
        <time>2016-03-14T19:33:53Z</time>
      </trkpt>
      <trkpt lat="38.145252596586943" lon="-7.445651208981872">
        <ele>158.75</ele>
        <time>2016-03-14T19:33:54Z</time>
      </trkpt>
      <trkpt lat="38.145180847495794" lon="-7.445778697729111">
        <ele>159.72</ele>
        <time>2016-03-14T19:33:55Z</time>
      </trkpt>
      <trkpt lat="38.145123012363911" lon="-7.44591205380857">
        <ele>160.68000000000001</ele>
        <time>2016-03-14T19:33:56Z</time>
      </trkpt>
      <trkpt lat="38.145082108676434" lon="-7.446044990792871">
        <ele>161.63999999999999</ele>
        <time>2016-03-14T19:33:57Z</time>
      </trkpt>
      <trkpt lat="38.145055873319507" lon="-7.446172647178173">
        <ele>165.96000000000001</ele>
        <time>2016-03-14T19:33:58Z</time>
      </trkpt>
      <trkpt lat="38.145040031522512" lon="-7.446291921660304">
        <ele>170.28999999999999</ele>
        <time>2016-03-14T19:34:07Z</time>
      </trkpt>
      <trkpt lat="38.145031062886119" lon="-7.446398120373488">
        <ele>172.69</ele>
        <time>2016-03-14T19:34:14Z</time>
      </trkpt>
      <trkpt lat="38.144939113408327" lon="-7.447304287925363">
        <ele>173.66</ele>
        <time>2016-03-14T19:34:17Z</time>
      </trkpt>
      <trkpt lat="38.144756555557251" lon="-7.448775563389063">
        <ele>174.62</ele>
        <time>2016-03-14T19:34:18Z</time>
      </trkpt>
      <trkpt lat="38.144850684329867" lon="-7.449711570516229">
        <ele>174.62</ele>
        <time>2016-03-14T19:34:19Z</time>
      </trkpt>
      <trkpt lat="38.144946321845055" lon="-7.4501983076334">
        <ele>175.09999999999999</ele>
        <time>2016-03-14T19:34:26Z</time>
      </trkpt>
      <trkpt lat="38.145095435902476" lon="-7.45099039748311">
        <ele>175.09999999999999</ele>
        <time>2016-03-14T19:34:32Z</time>
      </trkpt>
      <trkpt lat="38.145095016807318" lon="-7.451077233999968">
        <ele>175.58000000000001</ele>
        <time>2016-03-14T19:34:33Z</time>
      </trkpt>
      <trkpt lat="38.145073391497135" lon="-7.451160131022334">
        <ele>175.58000000000001</ele>
        <time>2016-03-14T19:34:34Z</time>
      </trkpt>
      <trkpt lat="38.14502477645874" lon="-7.451234729960561">
        <ele>176.06</ele>
        <time>2016-03-14T19:34:35Z</time>
      </trkpt>
      <trkpt lat="38.144964678213" lon="-7.451303796842694">
        <ele>180.87</ele>
        <time>2016-03-14T19:34:44Z</time>
      </trkpt>
      <trkpt lat="38.144893599674106" lon="-7.45137294754386">
        <ele>185.19</ele>
        <time>2016-03-14T19:34:45Z</time>
      </trkpt>
      <trkpt lat="38.144820258021355" lon="-7.451445115730166">
        <ele>185.66999999999999</ele>
        <time>2016-03-14T19:34:51Z</time>
      </trkpt>
      <trkpt lat="38.144056247547269" lon="-7.452175011858344">
        <ele>185.66999999999999</ele>
        <time>2016-03-14T19:34:52Z</time>
      </trkpt>
      <trkpt lat="38.14351343549788" lon="-7.452521687373519">
        <ele>185.66999999999999</ele>
        <time>2016-03-14T19:34:53Z</time>
      </trkpt>
      <trkpt lat="38.143382677808404" lon="-7.452589916065335">
        <ele>184.71000000000001</ele>
        <time>2016-03-14T19:34:54Z</time>
      </trkpt>
      <trkpt lat="38.143332721665502" lon="-7.452627047896385">
        <ele>183.27000000000001</ele>
        <time>2016-03-14T19:34:55Z</time>
      </trkpt>
      <trkpt lat="38.14328720793128" lon="-7.452684044837952">
        <ele>182.78999999999999</ele>
        <time>2016-03-14T19:34:56Z</time>
      </trkpt>
      <trkpt lat="38.142818911001086" lon="-7.453318638727069">
        <ele>182.78999999999999</ele>
        <time>2016-03-14T19:35:07Z</time>
      </trkpt>
      <trkpt lat="38.14261975698173" lon="-7.453552661463618">
        <ele>182.78999999999999</ele>
        <time>2016-03-14T19:35:09Z</time>
      </trkpt>
      <trkpt lat="38.142586397007108" lon="-7.45355324819684">
        <ele>183.27000000000001</ele>
        <time>2016-03-14T19:35:10Z</time>
      </trkpt>
      <trkpt lat="38.142541972920299" lon="-7.453538496047258">
        <ele>182.78999999999999</ele>
        <time>2016-03-14T19:35:11Z</time>
      </trkpt>
      <trkpt lat="38.142484556883574" lon="-7.453507566824555">
        <ele>180.87</ele>
        <time>2016-03-14T19:35:12Z</time>
      </trkpt>
      <trkpt lat="38.141803946346045" lon="-7.453110348433256">
        <ele>181.34999999999999</ele>
        <time>2016-03-14T19:35:13Z</time>
      </trkpt>
      <trkpt lat="38.141718953847885" lon="-7.453098278492689">
        <ele>181.34999999999999</ele>
        <time>2016-03-14T19:35:14Z</time>
      </trkpt>
      <trkpt lat="38.141170609742403" lon="-7.453104062005878">
        <ele>180.87</ele>
        <time>2016-03-14T19:35:15Z</time>
      </trkpt>
      <trkpt lat="38.141091568395495" lon="-7.453126776963472">
        <ele>180.87</ele>
        <time>2016-03-14T19:35:16Z</time>
      </trkpt>
      <trkpt lat="38.141019400209188" lon="-7.453170698136091">
        <ele>180.38</ele>
        <time>2016-03-14T19:35:17Z</time>
      </trkpt>
      <trkpt lat="38.140952764078975" lon="-7.453230796381831">
        <ele>183.75</ele>
        <time>2016-03-14T19:35:18Z</time>
      </trkpt>
      <trkpt lat="38.140893084928393" lon="-7.453305060043931">
        <ele>184.71000000000001</ele>
        <time>2016-03-14T19:35:19Z</time>
      </trkpt>
      <trkpt lat="38.140834998339415" lon="-7.453391058370471">
        <ele>185.19</ele>
        <time>2016-03-14T19:35:20Z</time>
      </trkpt>
      <trkpt lat="38.140088003128767" lon="-7.454470228403807">
        <ele>185.66999999999999</ele>
        <time>2016-03-14T19:35:21Z</time>
      </trkpt>
      <trkpt lat="38.140018181875348" lon="-7.454618168994784">
        <ele>186.15000000000001</ele>
        <time>2016-03-14T19:35:22Z</time>
      </trkpt>
      <trkpt lat="38.139984989538789" lon="-7.454660916700959">
        <ele>186.63</ele>
        <time>2016-03-14T19:35:23Z</time>
      </trkpt>
      <trkpt lat="38.139954982325435" lon="-7.454681620001793">
        <ele>187.11000000000001</ele>
        <time>2016-03-14T19:35:33Z</time>
      </trkpt>
      <trkpt lat="38.139931429177523" lon="-7.454686565324664">
        <ele>187.11000000000001</ele>
        <time>2016-03-14T19:35:45Z</time>
      </trkpt>
      <trkpt lat="38.139912821352482" lon="-7.454684218391776">
        <ele>187.59</ele>
        <time>2016-03-14T19:35:48Z</time>
      </trkpt>
      <trkpt lat="38.13989320769906" lon="-7.454678267240524">
        <ele>187.59</ele>
        <time>2016-03-14T19:35:49Z</time>
      </trkpt>
      <trkpt lat="38.139874013140798" lon="-7.454668208956718">
        <ele>188.08000000000001</ele>
        <time>2016-03-14T19:35:50Z</time>
      </trkpt>
      <trkpt lat="38.139859177172184" lon="-7.454658066853881">
        <ele>188.08000000000001</ele>
        <time>2016-03-14T19:35:51Z</time>
      </trkpt>
      <trkpt lat="38.13984090462327" lon="-7.45463602244854">
        <ele>188.08000000000001</ele>
        <time>2016-03-14T19:35:52Z</time>
      </trkpt>
      <trkpt lat="38.139816764742136" lon="-7.454595370218158">
        <ele>188.56</ele>
        <time>2016-03-14T19:35:53Z</time>
      </trkpt>
      <trkpt lat="38.139794133603573" lon="-7.454543234780431">
        <ele>188.56</ele>
        <time>2016-03-14T19:35:54Z</time>
      </trkpt>
      <trkpt lat="38.139776112511754" lon="-7.454476179555059">
        <ele>188.56</ele>
        <time>2016-03-14T19:36:05Z</time>
      </trkpt>
      <trkpt lat="38.139761108905077" lon="-7.454388840124011">
        <ele>188.56</ele>
        <time>2016-03-14T19:36:06Z</time>
      </trkpt>
      <trkpt lat="38.139751721173525" lon="-7.454291861504316">
        <ele>187.59</ele>
        <time>2016-03-14T19:36:07Z</time>
      </trkpt>
      <trkpt lat="38.139744093641639" lon="-7.454190440475941">
        <ele>187.59</ele>
        <time>2016-03-14T19:36:08Z</time>
      </trkpt>
      <trkpt lat="38.139543095603585" lon="-7.453346634283662">
        <ele>187.59</ele>
        <time>2016-03-14T19:36:09Z</time>
      </trkpt>
      <trkpt lat="38.139301864430308" lon="-7.452524453401566">
        <ele>187.11000000000001</ele>
        <time>2016-03-14T19:36:10Z</time>
      </trkpt>
      <trkpt lat="38.139298427850008" lon="-7.452329657971859">
        <ele>187.11000000000001</ele>
        <time>2016-03-14T19:36:11Z</time>
      </trkpt>
      <trkpt lat="38.139308067038655" lon="-7.452265620231628">
        <ele>187.11000000000001</ele>
        <time>2016-03-14T19:36:22Z</time>
      </trkpt>
      <trkpt lat="38.139324076473713" lon="-7.452206946909428">
        <ele>186.63</ele>
        <time>2016-03-14T19:36:23Z</time>
      </trkpt>
      <trkpt lat="38.139346623793244" lon="-7.452148273587227">
        <ele>186.63</ele>
        <time>2016-03-14T19:36:24Z</time>
      </trkpt>
      <trkpt lat="38.139371769502759" lon="-7.452098987996578">
        <ele>188.08000000000001</ele>
        <time>2016-03-14T19:36:25Z</time>
      </trkpt>
      <trkpt lat="38.139407141134143" lon="-7.45205950923264">
        <ele>188.56</ele>
        <time>2016-03-14T19:36:26Z</time>
      </trkpt>
      <trkpt lat="38.139449469745159" lon="-7.452019108459353">
        <ele>188.56</ele>
        <time>2016-03-14T19:36:27Z</time>
      </trkpt>
      <trkpt lat="38.139942158013582" lon="-7.451523570343852">
        <ele>189.52000000000001</ele>
        <time>2016-03-14T19:36:28Z</time>
      </trkpt>
      <trkpt lat="38.139965878799558" lon="-7.451466070488095">
        <ele>190</ele>
        <time>2016-03-14T19:36:36Z</time>
      </trkpt>
      <trkpt lat="38.139975853264332" lon="-7.451398093253374">
        <ele>190.47999999999999</ele>
        <time>2016-03-14T19:36:45Z</time>
      </trkpt>
      <trkpt lat="38.13996939919889" lon="-7.451330535113812">
        <ele>190.96000000000001</ele>
        <time>2016-03-14T19:36:53Z</time>
      </trkpt>
      <trkpt lat="38.139944421127439" lon="-7.451271275058389">
        <ele>196.25</ele>
        <time>2016-03-14T19:36:56Z</time>
      </trkpt>
      <trkpt lat="38.139905026182532" lon="-7.451215703040361">
        <ele>196.72999999999999</ele>
        <time>2016-03-14T19:36:57Z</time>
      </trkpt>
      <trkpt lat="38.139858338981867" lon="-7.451161053031683">
        <ele>197.21000000000001</ele>
        <time>2016-03-14T19:37:09Z</time>
      </trkpt>
      <trkpt lat="38.139363639056683" lon="-7.450604997575283">
        <ele>197.69</ele>
        <time>2016-03-14T19:37:10Z</time>
      </trkpt>
      <trkpt lat="38.139325249940157" lon="-7.450560657307506">
        <ele>197.69</ele>
        <time>2016-03-14T19:37:20Z</time>
      </trkpt>
      <trkpt lat="38.139268839731812" lon="-7.450524615123868">
        <ele>198.16999999999999</ele>
        <time>2016-03-14T19:37:23Z</time>
      </trkpt>
      <trkpt lat="38.139196755364537" lon="-7.45050173252821">
        <ele>198.65000000000001</ele>
        <time>2016-03-14T19:37:24Z</time>
      </trkpt>
      <trkpt lat="38.139113523066044" lon="-7.450490584596992">
        <ele>203.46000000000001</ele>
        <time>2016-03-14T19:37:25Z</time>
      </trkpt>
      <trkpt lat="38.139020316302776" lon="-7.450488992035389">
        <ele>207.78</ele>
        <time>2016-03-14T19:37:26Z</time>
      </trkpt>
      <trkpt lat="38.138922331854701" lon="-7.450492009520531">
        <ele>210.19</ele>
        <time>2016-03-14T19:37:27Z</time>
      </trkpt>
      <trkpt lat="38.138117333874106" lon="-7.450477089732885">
        <ele>210.66999999999999</ele>
        <time>2016-03-14T19:37:28Z</time>
      </trkpt>
      <trkpt lat="38.137261290103197" lon="-7.45027843862772">
        <ele>210.66999999999999</ele>
        <time>2016-03-14T19:37:30Z</time>
      </trkpt>
      <trkpt lat="38.136284379288554" lon="-7.450127312913537">
        <ele>211.63</ele>
        <time>2016-03-14T19:37:31Z</time>
      </trkpt>
      <trkpt lat="38.135966537520289" lon="-7.449954561889172">
        <ele>212.11000000000001</ele>
        <time>2016-03-14T19:37:32Z</time>
      </trkpt>
      <trkpt lat="38.13587031327188" lon="-7.449865378439426">
        <ele>213.55000000000001</ele>
        <time>2016-03-14T19:37:41Z</time>
      </trkpt>
      <trkpt lat="38.1347312964499" lon="-7.448677998036146">
        <ele>213.55000000000001</ele>
        <time>2016-03-14T19:37:42Z</time>
      </trkpt>
      <trkpt lat="38.1346570327878" lon="-7.448548916727305">
        <ele>213.55000000000001</ele>
        <time>2016-03-14T19:37:43Z</time>
      </trkpt>
      <trkpt lat="38.133995784446597" lon="-7.447353322058916">
        <ele>213.55000000000001</ele>
        <time>2016-03-14T19:37:44Z</time>
      </trkpt>
      <trkpt lat="38.133867038413882" lon="-7.447184510529041">
        <ele>213.06999999999999</ele>
        <time>2016-03-14T19:37:45Z</time>
      </trkpt>
      <trkpt lat="38.133846586570144" lon="-7.447124160826206">
        <ele>213.06999999999999</ele>
        <time>2016-03-14T19:37:46Z</time>
      </trkpt>
      <trkpt lat="38.133840132504702" lon="-7.447059620171785">
        <ele>213.06999999999999</ele>
        <time>2016-03-14T19:38:00Z</time>
      </trkpt>
      <trkpt lat="38.133853627368808" lon="-7.446993151679635">
        <ele>213.06999999999999</ele>
        <time>2016-03-14T19:38:15Z</time>
      </trkpt>
      <trkpt lat="38.133884724229574" lon="-7.446928527206183">
        <ele>213.55000000000001</ele>
        <time>2016-03-14T19:38:26Z</time>
      </trkpt>
      <trkpt lat="38.13392261043191" lon="-7.446862477809191">
        <ele>214.03</ele>
        <time>2016-03-14T19:38:33Z</time>
      </trkpt>
      <trkpt lat="38.133996203541756" lon="-7.446715459227562">
        <ele>216.91</ele>
        <time>2016-03-14T19:38:41Z</time>
      </trkpt>
      <trkpt lat="38.13401841558516" lon="-7.446627030149102">
        <ele>217.88</ele>
        <time>2016-03-14T19:38:50Z</time>
      </trkpt>
      <trkpt lat="38.134027635678649" lon="-7.446528961881995">
        <ele>217.88</ele>
        <time>2016-03-14T19:39:03Z</time>
      </trkpt>
      <trkpt lat="38.13407021574676" lon="-7.445309814065695">
        <ele>218.84</ele>
        <time>2016-03-14T19:39:06Z</time>
      </trkpt>
      <trkpt lat="38.134055463597178" lon="-7.445154748857021">
        <ele>219.31999999999999</ele>
        <time>2016-03-14T19:39:07Z</time>
      </trkpt>
      <trkpt lat="38.134017325937748" lon="-7.445001024752855">
        <ele>219.80000000000001</ele>
        <time>2016-03-14T19:39:09Z</time>
      </trkpt>
      <trkpt lat="38.133952617645264" lon="-7.444853838533163">
        <ele>223.16</ele>
        <time>2016-03-14T19:39:10Z</time>
      </trkpt>
      <trkpt lat="38.133865613490343" lon="-7.444709250703454">
        <ele>222.68000000000001</ele>
        <time>2016-03-14T19:39:11Z</time>
      </trkpt>
      <trkpt lat="38.133767545223236" lon="-7.444561226293445">
        <ele>220.28</ele>
        <time>2016-03-14T19:39:14Z</time>
      </trkpt>
      <trkpt lat="38.132306411862373" lon="-7.442310685291886">
        <ele>220.75999999999999</ele>
        <time>2016-03-14T19:39:15Z</time>
      </trkpt>
      <trkpt lat="38.130453508347273" lon="-7.43943770416081">
        <ele>216.91</ele>
        <time>2016-03-14T19:39:21Z</time>
      </trkpt>
      <trkpt lat="38.128904029726982" lon="-7.437095548957586">
        <ele>217.88</ele>
        <time>2016-03-14T19:39:22Z</time>
      </trkpt>
      <trkpt lat="38.128250576555729" lon="-7.435503825545311">
        <ele>209.22</ele>
        <time>2016-03-14T19:39:31Z</time>
      </trkpt>
      <trkpt lat="38.127576587721705" lon="-7.433744547888637">
        <ele>207.30000000000001</ele>
        <time>2016-03-14T19:39:34Z</time>
      </trkpt>
      <trkpt lat="38.126909974962473" lon="-7.431921819224954">
        <ele>206.81999999999999</ele>
        <time>2016-03-14T19:39:35Z</time>
      </trkpt>
      <trkpt lat="38.126087794080377" lon="-7.429148918017745">
        <ele>205.38</ele>
        <time>2016-03-14T19:39:36Z</time>
      </trkpt>
      <trkpt lat="38.125872127711773" lon="-7.428539721295238">
        <ele>204.90000000000001</ele>
        <time>2016-03-14T19:39:37Z</time>
      </trkpt>
      <trkpt lat="38.125778837129474" lon="-7.428358253091574">
        <ele>203.94</ele>
        <time>2016-03-14T19:39:38Z</time>
      </trkpt>
      <trkpt lat="38.125579934567213" lon="-7.428018702194095">
        <ele>201.53</ele>
        <time>2016-03-14T19:39:51Z</time>
      </trkpt>
      <trkpt lat="38.125467030331492" lon="-7.427870091050863">
        <ele>200.56999999999999</ele>
        <time>2016-03-14T19:40:04Z</time>
      </trkpt>
      <trkpt lat="38.125338787212968" lon="-7.427742518484592">
        <ele>196.25</ele>
        <time>2016-03-14T19:40:15Z</time>
      </trkpt>
      <trkpt lat="38.124952632933855" lon="-7.427374888211489">
        <ele>196.25</ele>
        <time>2016-03-14T19:40:16Z</time>
      </trkpt>
      <trkpt lat="38.12483998015523" lon="-7.427213368937373">
        <ele>199.61000000000001</ele>
        <time>2016-03-14T19:40:26Z</time>
      </trkpt>
      <trkpt lat="38.12429373152554" lon="-7.426245594397187">
        <ele>199.13</ele>
        <time>2016-03-14T19:40:27Z</time>
      </trkpt>
      <trkpt lat="38.124243523925543" lon="-7.426072424277663">
        <ele>199.13</ele>
        <time>2016-03-14T19:40:28Z</time>
      </trkpt>
      <trkpt lat="38.124009082093835" lon="-7.424389254301786">
        <ele>198.65000000000001</ele>
        <time>2016-03-14T19:40:29Z</time>
      </trkpt>
      <trkpt lat="38.124012434855103" lon="-7.423814674839377">
        <ele>198.16999999999999</ele>
        <time>2016-03-14T19:40:30Z</time>
      </trkpt>
      <trkpt lat="38.123983182013035" lon="-7.423623651266098">
        <ele>197.69</ele>
        <time>2016-03-14T19:40:31Z</time>
      </trkpt>
      <trkpt lat="38.123925430700183" lon="-7.423436483368278">
        <ele>188.08000000000001</ele>
        <time>2016-03-14T19:40:39Z</time>
      </trkpt>
      <trkpt lat="38.123841779306531" lon="-7.423247219994664">
        <ele>184.22999999999999</ele>
        <time>2016-03-14T19:40:46Z</time>
      </trkpt>
      <trkpt lat="38.123746728524566" lon="-7.423050915822387">
        <ele>178.46000000000001</ele>
        <time>2016-03-14T19:40:47Z</time>
      </trkpt>
      <trkpt lat="38.122475780546665" lon="-7.42021607235074">
        <ele>177.97999999999999</ele>
        <time>2016-03-14T19:40:48Z</time>
      </trkpt>
      <trkpt lat="38.121257973834872" lon="-7.417085012421012">
        <ele>179.41999999999999</ele>
        <time>2016-03-14T19:40:49Z</time>
      </trkpt>
      <trkpt lat="38.120465213432908" lon="-7.414460387080908">
        <ele>179.90000000000001</ele>
        <time>2016-03-14T19:40:50Z</time>
      </trkpt>
      <trkpt lat="38.120440319180489" lon="-7.414226364344358">
        <ele>179.90000000000001</ele>
        <time>2016-03-14T19:41:02Z</time>
      </trkpt>
      <trkpt lat="38.120294725522399" lon="-7.41221135482192">
        <ele>180.38</ele>
        <time>2016-03-14T19:41:15Z</time>
      </trkpt>
      <trkpt lat="38.120261197909713" lon="-7.412071712315083">
        <ele>180.87</ele>
        <time>2016-03-14T19:41:33Z</time>
      </trkpt>
      <trkpt lat="38.120212331414223" lon="-7.411943888291717">
        <ele>181.34999999999999</ele>
        <time>2016-03-14T19:41:49Z</time>
      </trkpt>
      <trkpt lat="38.120145024731755" lon="-7.411825368180871">
        <ele>184.71000000000001</ele>
        <time>2016-03-14T19:41:56Z</time>
      </trkpt>
      <trkpt lat="38.120061038061976" lon="-7.411715649068356">
        <ele>186.63</ele>
        <time>2016-03-14T19:42:06Z</time>
      </trkpt>
      <trkpt lat="38.119965903460979" lon="-7.411606851965189">
        <ele>186.63</ele>
        <time>2016-03-14T19:42:17Z</time>
      </trkpt>
      <trkpt lat="38.119024029001594" lon="-7.410539332777262">
        <ele>186.63</ele>
        <time>2016-03-14T19:42:19Z</time>
      </trkpt>
      <trkpt lat="38.118022726848722" lon="-7.409473238512874">
        <ele>186.63</ele>
        <time>2016-03-14T19:42:20Z</time>
      </trkpt>
      <trkpt lat="38.117868499830365" lon="-7.409371985122562">
        <ele>186.15000000000001</ele>
        <time>2016-03-14T19:42:21Z</time>
      </trkpt>
      <trkpt lat="38.117702202871442" lon="-7.409304343163967">
        <ele>193.84</ele>
        <time>2016-03-14T19:42:31Z</time>
      </trkpt>
      <trkpt lat="38.117527943104506" lon="-7.409256650134921">
        <ele>199.61000000000001</ele>
        <time>2016-03-14T19:42:36Z</time>
      </trkpt>
      <trkpt lat="38.117348318919539" lon="-7.409212728962302">
        <ele>206.34</ele>
        <time>2016-03-14T19:42:37Z</time>
      </trkpt>
      <trkpt lat="38.115313444286585" lon="-7.408649465069175">
        <ele>209.22</ele>
        <time>2016-03-14T19:42:45Z</time>
      </trkpt>
      <trkpt lat="38.112950921058655" lon="-7.407891070470214">
        <ele>212.59</ele>
        <time>2016-03-14T19:42:57Z</time>
      </trkpt>
      <trkpt lat="38.109547449275851" lon="-7.406189544126391">
        <ele>218.36000000000001</ele>
        <time>2016-03-14T19:43:10Z</time>
      </trkpt>
      <trkpt lat="38.106432314962149" lon="-7.404527412727475">
        <ele>224.12</ele>
        <time>2016-03-14T19:43:24Z</time>
      </trkpt>
      <trkpt lat="38.105366388335824" lon="-7.403386970981956">
        <ele>225.09</ele>
        <time>2016-03-14T19:43:41Z</time>
      </trkpt>
      <trkpt lat="38.103814478963614" lon="-7.401694916188717">
        <ele>225.09</ele>
        <time>2016-03-14T19:43:57Z</time>
      </trkpt>
      <trkpt lat="38.101940872147679" lon="-7.399933962151408">
        <ele>225.56999999999999</ele>
        <time>2016-03-14T19:44:19Z</time>
      </trkpt>
      <trkpt lat="38.101672567427158" lon="-7.399589968845248">
        <ele>226.53</ele>
        <time>2016-03-14T19:44:33Z</time>
      </trkpt>
      <trkpt lat="38.101556394249201" lon="-7.399387629702687">
        <ele>227.97</ele>
        <time>2016-03-14T19:44:52Z</time>
      </trkpt>
      <trkpt lat="38.101453045383096" lon="-7.399163413792849">
        <ele>227.97</ele>
        <time>2016-03-14T19:45:12Z</time>
      </trkpt>
      <trkpt lat="38.100507901981473" lon="-7.396606178954244">
        <ele>226.05000000000001</ele>
        <time>2016-03-14T19:45:31Z</time>
      </trkpt>
      <trkpt lat="38.100062403827906" lon="-7.395495241507888">
        <ele>232.30000000000001</ele>
        <time>2016-03-14T19:45:52Z</time>
      </trkpt>
      <trkpt lat="38.099942542612553" lon="-7.395325172692537">
        <ele>228.93000000000001</ele>
        <time>2016-03-14T19:46:04Z</time>
      </trkpt>
      <trkpt lat="38.098691627383232" lon="-7.39393612369895">
        <ele>227.49000000000001</ele>
        <time>2016-03-14T19:46:19Z</time>
      </trkpt>
      <trkpt lat="38.096810141578317" lon="-7.391831008717418">
        <ele>231.81</ele>
        <time>2016-03-14T19:46:34Z</time>
      </trkpt>
      <trkpt lat="38.094909293577075" lon="-7.38936991430819">
        <ele>231.81</ele>
        <time>2016-03-14T19:46:45Z</time>
      </trkpt>
      <trkpt lat="38.092823373153806" lon="-7.38663163036108">
        <ele>234.22</ele>
        <time>2016-03-14T19:46:55Z</time>
      </trkpt>
      <trkpt lat="38.090208973735571" lon="-7.383236456662417">
        <ele>233.74000000000001</ele>
        <time>2016-03-14T19:47:03Z</time>
      </trkpt>
      <trkpt lat="38.087740670889616" lon="-7.38001068122685">
        <ele>227.00999999999999</ele>
        <time>2016-03-14T19:47:04Z</time>
      </trkpt>
      <trkpt lat="38.08431800454855" lon="-7.375557962805033">
        <ele>232.78</ele>
        <time>2016-03-14T19:47:05Z</time>
      </trkpt>
      <trkpt lat="38.082193778827786" lon="-7.372778691351414">
        <ele>245.75</ele>
        <time>2016-03-14T19:47:14Z</time>
      </trkpt>
      <trkpt lat="38.0790139362216" lon="-7.368642138317227">
        <ele>252.47999999999999</ele>
        <time>2016-03-14T19:47:15Z</time>
      </trkpt>
      <trkpt lat="38.07563460431993" lon="-7.364250021055341">
        <ele>254.41</ele>
        <time>2016-03-14T19:47:25Z</time>
      </trkpt>
      <trkpt lat="38.072416288778186" lon="-7.360063260421157">
        <ele>255.37</ele>
        <time>2016-03-14T19:47:28Z</time>
      </trkpt>
      <trkpt lat="38.068915838375688" lon="-7.355500655248761">
        <ele>257.29000000000002</ele>
        <time>2016-03-14T19:47:29Z</time>
      </trkpt>
      <trkpt lat="38.067020103335381" lon="-7.353021455928683">
        <ele>261.13999999999999</ele>
        <time>2016-03-14T19:47:30Z</time>
      </trkpt>
      <trkpt lat="38.064652550965548" lon="-7.349967006593943">
        <ele>260.64999999999998</ele>
        <time>2016-03-14T19:47:31Z</time>
      </trkpt>
      <trkpt lat="38.062339816242456" lon="-7.346830163151026">
        <ele>260.17000000000002</ele>
        <time>2016-03-14T19:47:32Z</time>
      </trkpt>
      <trkpt lat="38.060717666521668" lon="-7.344464454799891">
        <ele>260.64999999999998</ele>
        <time>2016-03-14T19:47:33Z</time>
      </trkpt>
      <trkpt lat="38.059096774086356" lon="-7.342772483825684">
        <ele>261.62</ele>
        <time>2016-03-14T19:47:42Z</time>
      </trkpt>
      <trkpt lat="38.05775516666472" lon="-7.341582924127579">
        <ele>268.35000000000002</ele>
        <time>2016-03-14T19:47:43Z</time>
      </trkpt>
      <trkpt lat="38.057653661817312" lon="-7.341412771493197">
        <ele>269.31</ele>
        <time>2016-03-14T19:47:44Z</time>
      </trkpt>
      <trkpt lat="38.057569758966565" lon="-7.341224597766995">
        <ele>273.14999999999998</ele>
        <time>2016-03-14T19:47:54Z</time>
      </trkpt>
      <trkpt lat="38.05685612373054" lon="-7.339440509676933">
        <ele>274.11000000000001</ele>
        <time>2016-03-14T19:48:02Z</time>
      </trkpt>
      <trkpt lat="38.056825278326869" lon="-7.339240601286292">
        <ele>274.58999999999997</ele>
        <time>2016-03-14T19:48:06Z</time>
      </trkpt>
      <trkpt lat="38.056687228381634" lon="-7.337002549320459">
        <ele>275.06999999999999</ele>
        <time>2016-03-14T19:48:07Z</time>
      </trkpt>
      <trkpt lat="38.056647246703506" lon="-7.336395112797618">
        <ele>275.06999999999999</ele>
        <time>2016-03-14T19:48:08Z</time>
      </trkpt>
      <trkpt lat="38.056611539795995" lon="-7.336224121972919">
        <ele>275.56</ele>
        <time>2016-03-14T19:48:17Z</time>
      </trkpt>
      <trkpt lat="38.056555381044745" lon="-7.336066458374262">
        <ele>275.56</ele>
        <time>2016-03-14T19:48:20Z</time>
      </trkpt>
      <trkpt lat="38.056477513164282" lon="-7.335919439792633">
        <ele>275.56</ele>
        <time>2016-03-14T19:48:21Z</time>
      </trkpt>
      <trkpt lat="38.056378858163953" lon="-7.335783652961254">
        <ele>275.56</ele>
        <time>2016-03-14T19:48:30Z</time>
      </trkpt>
      <trkpt lat="38.056268384680152" lon="-7.335654068738222">
        <ele>275.06999999999999</ele>
        <time>2016-03-14T19:48:42Z</time>
      </trkpt>
      <trkpt lat="38.055099444463849" lon="-7.334346827119589">
        <ele>275.06999999999999</ele>
        <time>2016-03-14T19:48:59Z</time>
      </trkpt>
      <trkpt lat="38.054982265457511" lon="-7.334182374179363">
        <ele>275.06999999999999</ele>
        <time>2016-03-14T19:49:12Z</time>
      </trkpt>
      <trkpt lat="38.054871624335647" lon="-7.33399948105216">
        <ele>276.04000000000002</ele>
        <time>2016-03-14T19:49:19Z</time>
      </trkpt>
      <trkpt lat="38.053737385198474" lon="-7.331915572285652">
        <ele>275.56</ele>
        <time>2016-03-14T19:49:20Z</time>
      </trkpt>
      <trkpt lat="38.052637679502368" lon="-7.330431723967195">
        <ele>275.56</ele>
        <time>2016-03-14T19:49:21Z</time>
      </trkpt>
      <trkpt lat="38.052151026204228" lon="-7.329756813123822">
        <ele>274.11000000000001</ele>
        <time>2016-03-14T19:49:29Z</time>
      </trkpt>
      <trkpt lat="38.052056478336453" lon="-7.329577021300793">
        <ele>273.14999999999998</ele>
        <time>2016-03-14T19:49:42Z</time>
      </trkpt>
      <trkpt lat="38.051970982924104" lon="-7.329382225871086">
        <ele>272.67000000000002</ele>
        <time>2016-03-14T19:49:43Z</time>
      </trkpt>
      <trkpt lat="38.051135558634996" lon="-7.327627474442124">
        <ele>270.26999999999998</ele>
        <time>2016-03-14T19:49:44Z</time>
      </trkpt>
      <trkpt lat="38.050827775150537" lon="-7.327027078717947">
        <ele>263.06</ele>
        <time>2016-03-14T19:49:45Z</time>
      </trkpt>
      <trkpt lat="38.05070623755455" lon="-7.326858937740326">
        <ele>253.44</ele>
        <time>2016-03-14T19:49:57Z</time>
      </trkpt>
      <trkpt lat="38.049473343417048" lon="-7.325310381129384">
        <ele>253.93000000000001</ele>
        <time>2016-03-14T19:50:06Z</time>
      </trkpt>
      <trkpt lat="38.047871394082904" lon="-7.32267402112484">
        <ele>253.93000000000001</ele>
        <time>2016-03-14T19:50:07Z</time>
      </trkpt>
      <trkpt lat="38.045294964686036" lon="-7.319034347310662">
        <ele>253.93000000000001</ele>
        <time>2016-03-14T19:50:08Z</time>
      </trkpt>
      <trkpt lat="38.043332509696484" lon="-7.316257003694773">
        <ele>253.44</ele>
        <time>2016-03-14T19:50:09Z</time>
      </trkpt>
      <trkpt lat="38.042277060449123" lon="-7.314809113740921">
        <ele>248.16</ele>
        <time>2016-03-14T19:50:10Z</time>
      </trkpt>
      <trkpt lat="38.042123252525926" lon="-7.314679613336921">
        <ele>238.53999999999999</ele>
        <time>2016-03-14T19:50:20Z</time>
      </trkpt>
      <trkpt lat="38.041955111548305" lon="-7.314584562554956">
        <ele>238.06</ele>
        <time>2016-03-14T19:50:42Z</time>
      </trkpt>
      <trkpt lat="38.040386354550719" lon="-7.313753999769688">
        <ele>238.06</ele>
        <time>2016-03-14T19:50:50Z</time>
      </trkpt>
      <trkpt lat="38.03763004951179" lon="-7.312276186421514">
        <ele>237.58000000000001</ele>
        <time>2016-03-14T19:51:03Z</time>
      </trkpt>
      <trkpt lat="38.037461489439011" lon="-7.312161941081286">
        <ele>235.66</ele>
        <time>2016-03-14T19:51:15Z</time>
      </trkpt>
      <trkpt lat="38.037300808355212" lon="-7.312025148421526">
        <ele>233.74000000000001</ele>
        <time>2016-03-14T19:51:30Z</time>
      </trkpt>
      <trkpt lat="38.037144234403968" lon="-7.311867401003838">
        <ele>234.22</ele>
        <time>2016-03-14T19:51:45Z</time>
      </trkpt>
      <trkpt lat="38.035105252638459" lon="-7.309720795601606">
        <ele>234.22</ele>
        <time>2016-03-14T19:51:47Z</time>
      </trkpt>
      <trkpt lat="38.033633138984442" lon="-7.308178190141916">
        <ele>233.74000000000001</ele>
        <time>2016-03-14T19:51:48Z</time>
      </trkpt>
      <trkpt lat="38.033529622480273" lon="-7.308008205145598">
        <ele>233.74000000000001</ele>
        <time>2016-03-14T19:51:49Z</time>
      </trkpt>
      <trkpt lat="38.03344932384789" lon="-7.30781240388751">
        <ele>231.81</ele>
        <time>2016-03-14T19:52:04Z</time>
      </trkpt>
      <trkpt lat="38.033383609727025" lon="-7.307598330080509">
        <ele>227.00999999999999</ele>
        <time>2016-03-14T19:52:16Z</time>
      </trkpt>
      <trkpt lat="38.033322254195809" lon="-7.307371431961656">
        <ele>227.00999999999999</ele>
        <time>2016-03-14T19:52:17Z</time>
      </trkpt>
      <trkpt lat="38.032596800476313" lon="-7.30477262288332">
        <ele>228.44999999999999</ele>
        <time>2016-03-14T19:52:25Z</time>
      </trkpt>
      <trkpt lat="38.030862584710121" lon="-7.29875416494906">
        <ele>230.37</ele>
        <time>2016-03-14T19:52:26Z</time>
      </trkpt>
      <trkpt lat="38.030165797099471" lon="-7.296802774071693">
        <ele>229.41</ele>
        <time>2016-03-14T19:52:27Z</time>
      </trkpt>
      <trkpt lat="38.02878831513226" lon="-7.29375746101141">
        <ele>223.63999999999999</ele>
        <time>2016-03-14T19:52:28Z</time>
      </trkpt>
      <trkpt lat="38.027584422379732" lon="-7.291057063266635">
        <ele>223.16</ele>
        <time>2016-03-14T19:52:29Z</time>
      </trkpt>
      <trkpt lat="38.026051875203848" lon="-7.287620147690177">
        <ele>223.16</ele>
        <time>2016-03-14T19:52:31Z</time>
      </trkpt>
      <trkpt lat="38.02449082955718" lon="-7.284114668145776">
        <ele>223.16</ele>
        <time>2016-03-14T19:52:32Z</time>
      </trkpt>
      <trkpt lat="38.024319335818291" lon="-7.283660788089037">
        <ele>228.93000000000001</ele>
        <time>2016-03-14T19:52:33Z</time>
      </trkpt>
      <trkpt lat="38.024260494858027" lon="-7.283421149477363">
        <ele>238.53999999999999</ele>
        <time>2016-03-14T19:52:34Z</time>
      </trkpt>
      <trkpt lat="38.024214394390583" lon="-7.283170782029629">
        <ele>239.02000000000001</ele>
        <time>2016-03-14T19:52:35Z</time>
      </trkpt>
      <trkpt lat="38.023679796606302" lon="-7.27923103608191">
        <ele>245.27000000000001</ele>
        <time>2016-03-14T19:52:43Z</time>
      </trkpt>
      <trkpt lat="38.023284338414669" lon="-7.276114895939827">
        <ele>245.75</ele>
        <time>2016-03-14T19:52:48Z</time>
      </trkpt>
      <trkpt lat="38.023291798308492" lon="-7.275867713615298">
        <ele>246.22999999999999</ele>
        <time>2016-03-14T19:52:55Z</time>
      </trkpt>
      <trkpt lat="38.023401265963912" lon="-7.273910036310554">
        <ele>246.72</ele>
        <time>2016-03-14T19:52:56Z</time>
      </trkpt>
      <trkpt lat="38.023368157446384" lon="-7.273705182597041">
        <ele>246.72</ele>
        <time>2016-03-14T19:52:57Z</time>
      </trkpt>
      <trkpt lat="38.023304454982281" lon="-7.273520193994045">
        <ele>246.72</ele>
        <time>2016-03-14T19:53:05Z</time>
      </trkpt>
      <trkpt lat="38.023206051439047" lon="-7.27335624396801">
        <ele>246.22999999999999</ele>
        <time>2016-03-14T19:53:15Z</time>
      </trkpt>
      <trkpt lat="38.023091219365597" lon="-7.273205369710922">
        <ele>246.22999999999999</ele>
        <time>2016-03-14T19:53:26Z</time>
      </trkpt>
      <trkpt lat="38.022888461127877" lon="-7.272894652560353">
        <ele>246.22999999999999</ele>
        <time>2016-03-14T19:53:40Z</time>
      </trkpt>
      <trkpt lat="38.022808330133557" lon="-7.272722907364368">
        <ele>246.22999999999999</ele>
        <time>2016-03-14T19:53:47Z</time>
      </trkpt>
      <trkpt lat="38.022735491394997" lon="-7.272541020065546">
        <ele>247.19999999999999</ele>
        <time>2016-03-14T19:53:48Z</time>
      </trkpt>
      <trkpt lat="38.022670364007354" lon="-7.272343542426825">
        <ele>247.68000000000001</ele>
        <time>2016-03-14T19:53:49Z</time>
      </trkpt>
      <trkpt lat="38.022612277418375" lon="-7.272129552438855">
        <ele>245.75</ele>
        <time>2016-03-14T19:53:50Z</time>
      </trkpt>
      <trkpt lat="38.022277755662799" lon="-7.2707249969244">
        <ele>245.75</ele>
        <time>2016-03-14T19:53:51Z</time>
      </trkpt>
      <trkpt lat="38.022223273292184" lon="-7.270545959472656">
        <ele>246.22999999999999</ele>
        <time>2016-03-14T19:53:52Z</time>
      </trkpt>
      <trkpt lat="38.022112799808383" lon="-7.270426852628589">
        <ele>248.16</ele>
        <time>2016-03-14T19:53:53Z</time>
      </trkpt>
      <trkpt lat="38.022067453712225" lon="-7.270400868728757">
        <ele>247.68000000000001</ele>
        <time>2016-03-14T19:53:54Z</time>
      </trkpt>
      <trkpt lat="38.022003835067153" lon="-7.27037706412375">
        <ele>243.34999999999999</ele>
        <time>2016-03-14T19:54:09Z</time>
      </trkpt>
      <trkpt lat="38.021168075501919" lon="-7.270217221230269">
        <ele>236.62</ele>
        <time>2016-03-14T19:54:27Z</time>
      </trkpt>
      <trkpt lat="38.01956252194941" lon="-7.269903654232621">
        <ele>239.02000000000001</ele>
        <time>2016-03-14T19:54:43Z</time>
      </trkpt>
      <trkpt lat="38.01751415245235" lon="-7.269710535183549">
        <ele>239.99000000000001</ele>
        <time>2016-03-14T19:54:51Z</time>
      </trkpt>
      <trkpt lat="38.014395162463188" lon="-7.269665692001581">
        <ele>240.47</ele>
        <time>2016-03-14T19:54:59Z</time>
      </trkpt>
      <trkpt lat="38.013086915016174" lon="-7.269960902631283">
        <ele>240.94999999999999</ele>
        <time>2016-03-14T19:55:08Z</time>
      </trkpt>
      <trkpt lat="38.012932855635881" lon="-7.270071376115084">
        <ele>241.91</ele>
        <time>2016-03-14T19:55:24Z</time>
      </trkpt>
      <trkpt lat="38.012783657759428" lon="-7.270198529586196">
        <ele>242.87</ele>
        <time>2016-03-14T19:55:35Z</time>
      </trkpt>
      <trkpt lat="38.01263865083456" lon="-7.270342530682683">
        <ele>243.83000000000001</ele>
        <time>2016-03-14T19:55:44Z</time>
      </trkpt>
      <trkpt lat="38.012500181794167" lon="-7.270505558699369">
        <ele>244.78999999999999</ele>
        <time>2016-03-14T19:55:52Z</time>
      </trkpt>
      <trkpt lat="38.012372441589832" lon="-7.27068392559886">
        <ele>251.52000000000001</ele>
        <time>2016-03-14T19:56:05Z</time>
      </trkpt>
      <trkpt lat="38.012256352230906" lon="-7.270879475399852">
        <ele>245.75</ele>
        <time>2016-03-14T19:56:20Z</time>
      </trkpt>
      <trkpt lat="38.012146884575486" lon="-7.271086843684316">
        <ele>244.31</ele>
        <time>2016-03-14T19:56:29Z</time>
      </trkpt>
      <trkpt lat="38.010423565283418" lon="-7.27444589138031">
        <ele>247.68000000000001</ele>
        <time>2016-03-14T19:56:35Z</time>
      </trkpt>
      <trkpt lat="38.008215101435781" lon="-7.278694426640868">
        <ele>250.08000000000001</ele>
        <time>2016-03-14T19:56:36Z</time>
      </trkpt>
      <trkpt lat="38.006299920380116" lon="-7.282380452379584">
        <ele>250.08000000000001</ele>
        <time>2016-03-14T19:56:37Z</time>
      </trkpt>
      <trkpt lat="38.005236173048615" lon="-7.28384904563427">
        <ele>254.88999999999999</ele>
        <time>2016-03-14T19:56:38Z</time>
      </trkpt>
      <trkpt lat="38.00386774353683" lon="-7.28482386097312">
        <ele>259.20999999999998</ele>
        <time>2016-03-14T19:56:39Z</time>
      </trkpt>
      <trkpt lat="38.002031687647104" lon="-7.285440433770418">
        <ele>262.57999999999998</ele>
        <time>2016-03-14T19:56:40Z</time>
      </trkpt>
      <trkpt lat="37.99881337210536" lon="-7.286346517503262">
        <ele>266.89999999999998</ele>
        <time>2016-03-14T19:56:41Z</time>
      </trkpt>
      <trkpt lat="37.996832644566894" lon="-7.287210104987025">
        <ele>277.95999999999998</ele>
        <time>2016-03-14T19:56:55Z</time>
      </trkpt>
      <trkpt lat="37.995747607201338" lon="-7.287867581471801">
        <ele>287.56999999999999</ele>
        <time>2016-03-14T19:57:14Z</time>
      </trkpt>
      <trkpt lat="37.994697941467166" lon="-7.288564704358578">
        <ele>289.49000000000001</ele>
        <time>2016-03-14T19:57:15Z</time>
      </trkpt>
      <trkpt lat="37.992585198953748" lon="-7.289954675361514">
        <ele>290.45999999999998</ele>
        <time>2016-03-14T19:57:16Z</time>
      </trkpt>
      <trkpt lat="37.990231644362211" lon="-7.291509518399835">
        <ele>290.45999999999998</ele>
        <time>2016-03-14T19:57:25Z</time>
      </trkpt>
      <trkpt lat="37.988975364714861" lon="-7.292336728423834">
        <ele>290.45999999999998</ele>
        <time>2016-03-14T19:57:26Z</time>
      </trkpt>
      <trkpt lat="37.988635562360287" lon="-7.292558345943689">
        <ele>289.97000000000003</ele>
        <time>2016-03-14T19:57:27Z</time>
      </trkpt>
      <trkpt lat="37.98859759233892" lon="-7.292566224932671">
        <ele>289.97000000000003</ele>
        <time>2016-03-14T19:57:29Z</time>
      </trkpt>
      <trkpt lat="37.98856389708817" lon="-7.292555160820484">
        <ele>289.49000000000001</ele>
        <time>2016-03-14T19:57:37Z</time>
      </trkpt>
      <trkpt lat="37.988541098311543" lon="-7.292523896321654">
        <ele>289.00999999999999</ele>
        <time>2016-03-14T19:57:48Z</time>
      </trkpt>
      <trkpt lat="37.988527771085501" lon="-7.292488440871239">
        <ele>288.05000000000001</ele>
        <time>2016-03-14T19:57:49Z</time>
      </trkpt>
      <trkpt lat="37.988519975915551" lon="-7.292458768934012">
        <ele>287.08999999999997</ele>
        <time>2016-03-14T19:57:50Z</time>
      </trkpt>
      <trkpt lat="37.988511677831411" lon="-7.292434629052877">
        <ele>286.61000000000001</ele>
        <time>2016-03-14T19:57:51Z</time>
      </trkpt>
      <trkpt lat="37.988508827984333" lon="-7.292399005964398">
        <ele>286.61000000000001</ele>
        <time>2016-03-14T19:57:52Z</time>
      </trkpt>
      <trkpt lat="37.988374214619398" lon="-7.29210932739079">
        <ele>287.56999999999999</ele>
        <time>2016-03-14T19:57:53Z</time>
      </trkpt>
      <trkpt lat="37.988328617066145" lon="-7.292032046243548">
        <ele>287.56999999999999</ele>
        <time>2016-03-14T19:57:54Z</time>
      </trkpt>
      <trkpt lat="37.988283522427082" lon="-7.291946467012167">
        <ele>288.52999999999997</ele>
        <time>2016-03-14T19:58:04Z</time>
      </trkpt>
      <trkpt lat="37.987742051482201" lon="-7.290974920615554">
        <ele>289.00999999999999</ele>
        <time>2016-03-14T19:58:08Z</time>
      </trkpt>
      <trkpt lat="37.987659405916929" lon="-7.2908706497401">
        <ele>291.42000000000002</ele>
        <time>2016-03-14T19:58:09Z</time>
      </trkpt>
      <trkpt lat="37.987570390105247" lon="-7.290774928405881">
        <ele>292.38</ele>
        <time>2016-03-14T19:58:19Z</time>
      </trkpt>
      <trkpt lat="37.987369056791067" lon="-7.290604272857308">
        <ele>292.38</ele>
        <time>2016-03-14T19:58:28Z</time>
      </trkpt>
      <trkpt lat="37.986529944464564" lon="-7.290138155221939">
        <ele>292.38</ele>
        <time>2016-03-14T19:58:37Z</time>
      </trkpt>
      <trkpt lat="37.985204346477985" lon="-7.289883596822619">
        <ele>291.89999999999998</ele>
        <time>2016-03-14T19:58:48Z</time>
      </trkpt>
      <trkpt lat="37.985111558809876" lon="-7.289829617366195">
        <ele>291.89999999999998</ele>
        <time>2016-03-14T19:58:50Z</time>
      </trkpt>
      <trkpt lat="37.985023548826575" lon="-7.289760047569871">
        <ele>291.42000000000002</ele>
        <time>2016-03-14T19:58:57Z</time>
      </trkpt>
      <trkpt lat="37.984940484166145" lon="-7.289674049243331">
        <ele>291.42000000000002</ele>
        <time>2016-03-14T19:58:58Z</time>
      </trkpt>
      <trkpt lat="37.98486010171473" lon="-7.289579920470715">
        <ele>288.05000000000001</ele>
        <time>2016-03-14T19:58:59Z</time>
      </trkpt>
      <trkpt lat="37.984789106994867" lon="-7.289483277127147">
        <ele>288.52999999999997</ele>
        <time>2016-03-14T19:59:03Z</time>
      </trkpt>
      <trkpt lat="37.984730014577508" lon="-7.289385963231325">
        <ele>288.52999999999997</ele>
        <time>2016-03-14T19:59:11Z</time>
      </trkpt>
      <trkpt lat="37.984117213636637" lon="-7.288296734914184">
        <ele>292.38</ele>
        <time>2016-03-14T19:59:22Z</time>
      </trkpt>
      <trkpt lat="37.983895009383559" lon="-7.287766076624394">
        <ele>291.42000000000002</ele>
        <time>2016-03-14T19:59:32Z</time>
      </trkpt>
      <trkpt lat="37.983860224485397" lon="-7.287629367783666">
        <ele>289.00999999999999</ele>
        <time>2016-03-14T19:59:45Z</time>
      </trkpt>
      <trkpt lat="37.983688227832317" lon="-7.286478448659182">
        <ele>287.56999999999999</ele>
        <time>2016-03-14T19:59:56Z</time>
      </trkpt>
      <trkpt lat="37.98364732414484" lon="-7.285406151786447">
        <ele>288.05000000000001</ele>
        <time>2016-03-14T20:00:06Z</time>
      </trkpt>
      <trkpt lat="37.983586303889751" lon="-7.284204522147775">
        <ele>290.94</ele>
        <time>2016-03-14T20:00:17Z</time>
      </trkpt>
      <trkpt lat="37.983536850661039" lon="-7.282566195353866">
        <ele>290.94</ele>
        <time>2016-03-14T20:00:30Z</time>
      </trkpt>
      <trkpt lat="37.983556548133492" lon="-7.282335609197617">
        <ele>291.42000000000002</ele>
        <time>2016-03-14T20:00:44Z</time>
      </trkpt>
      <trkpt lat="37.983625028282404" lon="-7.281577968969941">
        <ele>293.81999999999999</ele>
        <time>2016-03-14T20:00:55Z</time>
      </trkpt>
      <trkpt lat="37.983613712713122" lon="-7.281455090269446">
        <ele>297.18000000000001</ele>
        <time>2016-03-14T20:01:04Z</time>
      </trkpt>
      <trkpt lat="37.983594182878733" lon="-7.281331457197666">
        <ele>301.50999999999999</ele>
        <time>2016-03-14T20:01:18Z</time>
      </trkpt>
      <trkpt lat="37.983493851497769" lon="-7.280858466401696">
        <ele>300.06999999999999</ele>
        <time>2016-03-14T20:01:20Z</time>
      </trkpt>
      <trkpt lat="37.983271898701787" lon="-7.279916927218437">
        <ele>305.36000000000001</ele>
        <time>2016-03-14T20:01:21Z</time>
      </trkpt>
      <trkpt lat="37.982973083853722" lon="-7.278637597337365">
        <ele>305.36000000000001</ele>
        <time>2016-03-14T20:01:29Z</time>
      </trkpt>
      <trkpt lat="37.982660187408328" lon="-7.277362542226911">
        <ele>305.36000000000001</ele>
        <time>2016-03-14T20:01:38Z</time>
      </trkpt>
      <trkpt lat="37.982223154976964" lon="-7.275685742497444">
        <ele>301.99000000000001</ele>
        <time>2016-03-14T20:01:48Z</time>
      </trkpt>
      <trkpt lat="37.981668943539262" lon="-7.274445472285152">
        <ele>297.18000000000001</ele>
        <time>2016-03-14T20:01:53Z</time>
      </trkpt>
      <trkpt lat="37.981190672144294" lon="-7.273454647511244">
        <ele>296.22000000000003</ele>
        <time>2016-03-14T20:01:54Z</time>
      </trkpt>
      <trkpt lat="37.980911638587713" lon="-7.272179508581758">
        <ele>299.58999999999997</ele>
        <time>2016-03-14T20:01:55Z</time>
      </trkpt>
      <trkpt lat="37.980427499860525" lon="-7.270473791286349">
        <ele>303.43000000000001</ele>
        <time>2016-03-14T20:01:56Z</time>
      </trkpt>
      <trkpt lat="37.97966105863452" lon="-7.268648967146874">
        <ele>305.83999999999997</ele>
        <time>2016-03-14T20:01:57Z</time>
      </trkpt>
      <trkpt lat="37.978958990424871" lon="-7.267481535673142">
        <ele>305.83999999999997</ele>
        <time>2016-03-14T20:03:48Z</time>
      </trkpt>
      <trkpt lat="37.978523131459951" lon="-7.266522310674191">
        <ele>305.36000000000001</ele>
        <time>2016-03-14T20:03:56Z</time>
      </trkpt>
      <trkpt lat="37.977885603904724" lon="-7.264907788485289">
        <ele>299.58999999999997</ele>
        <time>2016-03-14T20:04:05Z</time>
      </trkpt>
      <trkpt lat="37.977818045765162" lon="-7.264718106016517">
        <ele>296.69999999999999</ele>
        <time>2016-03-14T20:04:16Z</time>
      </trkpt>
      <trkpt lat="37.977773621678352" lon="-7.264624983072281">
        <ele>289.00999999999999</ele>
        <time>2016-03-14T20:04:18Z</time>
      </trkpt>
      <trkpt lat="37.977291075512767" lon="-7.26355193182826">
        <ele>288.05000000000001</ele>
        <time>2016-03-14T20:04:19Z</time>
      </trkpt>
      <trkpt lat="37.976844739168882" lon="-7.262338818982244">
        <ele>287.56999999999999</ele>
        <time>2016-03-14T20:04:20Z</time>
      </trkpt>
      <trkpt lat="37.976359762251377" lon="-7.260903585702181">
        <ele>287.08999999999997</ele>
        <time>2016-03-14T20:04:31Z</time>
      </trkpt>
      <trkpt lat="37.976155914366245" lon="-7.260229596868157">
        <ele>287.08999999999997</ele>
        <time>2016-03-14T20:04:32Z</time>
      </trkpt>
      <trkpt lat="37.976142670959234" lon="-7.260109903290868">
        <ele>286.61000000000001</ele>
        <time>2016-03-14T20:04:33Z</time>
      </trkpt>
      <trkpt lat="37.976139234378934" lon="-7.25998199544847">
        <ele>283.73000000000002</ele>
        <time>2016-03-14T20:04:40Z</time>
      </trkpt>
      <trkpt lat="37.976143257692456" lon="-7.259857105091214">
        <ele>282.76999999999998</ele>
        <time>2016-03-14T20:04:46Z</time>
      </trkpt>
      <trkpt lat="37.976148035377264" lon="-7.259755432605743">
        <ele>279.88</ele>
        <time>2016-03-14T20:04:56Z</time>
      </trkpt>
      <trkpt lat="37.976183909922838" lon="-7.259546471759677">
        <ele>277.48000000000002</ele>
        <time>2016-03-14T20:05:09Z</time>
      </trkpt>
      <trkpt lat="37.976169660687447" lon="-7.258923025801778">
        <ele>277.48000000000002</ele>
        <time>2016-03-14T20:05:10Z</time>
      </trkpt>
      <trkpt lat="37.975979894399643" lon="-7.257430041208863">
        <ele>277.48000000000002</ele>
        <time>2016-03-14T20:05:11Z</time>
      </trkpt>
      <trkpt lat="37.975807981565595" lon="-7.255485020577908">
        <ele>277.48000000000002</ele>
        <time>2016-03-14T20:05:12Z</time>
      </trkpt>
      <trkpt lat="37.975797420367599" lon="-7.255180338397622">
        <ele>273.63</ele>
        <time>2016-03-14T20:05:13Z</time>
      </trkpt>
      <trkpt lat="37.975772609934211" lon="-7.255044132471085">
        <ele>273.63</ele>
        <time>2016-03-14T20:05:18Z</time>
      </trkpt>
      <trkpt lat="37.975737741217017" lon="-7.254908094182611">
        <ele>273.14999999999998</ele>
        <time>2016-03-14T20:05:19Z</time>
      </trkpt>
      <trkpt lat="37.975368350744247" lon="-7.253199191763997">
        <ele>269.79000000000002</ele>
        <time>2016-03-14T20:05:20Z</time>
      </trkpt>
      <trkpt lat="37.975318729877472" lon="-7.253048568964005">
        <ele>267.38</ele>
        <time>2016-03-14T20:05:21Z</time>
      </trkpt>
      <trkpt lat="37.975256284698844" lon="-7.252905908972025">
        <ele>263.06</ele>
        <time>2016-03-14T20:05:22Z</time>
      </trkpt>
      <trkpt lat="37.974822772666812" lon="-7.251894297078252">
        <ele>258.25</ele>
        <time>2016-03-14T20:05:31Z</time>
      </trkpt>
      <trkpt lat="37.974416334182024" lon="-7.251048982143402">
        <ele>257.76999999999998</ele>
        <time>2016-03-14T20:05:32Z</time>
      </trkpt>
      <trkpt lat="37.9736871086061" lon="-7.249613748863339">
        <ele>257.29000000000002</ele>
        <time>2016-03-14T20:05:33Z</time>
      </trkpt>
      <trkpt lat="37.973047401756048" lon="-7.247411236166954">
        <ele>256.81</ele>
        <time>2016-03-14T20:05:34Z</time>
      </trkpt>
      <trkpt lat="37.972988225519657" lon="-7.247258266434073">
        <ele>256.81</ele>
        <time>2016-03-14T20:05:47Z</time>
      </trkpt>
      <trkpt lat="37.972912034019828" lon="-7.247122311964631">
        <ele>256.32999999999998</ele>
        <time>2016-03-14T20:05:54Z</time>
      </trkpt>
      <trkpt lat="37.972820838913321" lon="-7.247001109644771">
        <ele>255.84999999999999</ele>
        <time>2016-03-14T20:05:55Z</time>
      </trkpt>
      <trkpt lat="37.97271816059947" lon="-7.246886193752289">
        <ele>255.84999999999999</ele>
        <time>2016-03-14T20:05:56Z</time>
      </trkpt>
      <trkpt lat="37.972194207832217" lon="-7.246295604854822">
        <ele>255.37</ele>
        <time>2016-03-14T20:05:57Z</time>
      </trkpt>
      <trkpt lat="37.972113406285644" lon="-7.246154202148318">
        <ele>254.88999999999999</ele>
        <time>2016-03-14T20:05:58Z</time>
      </trkpt>
      <trkpt lat="37.972043417394161" lon="-7.245999723672867">
        <ele>251.52000000000001</ele>
        <time>2016-03-14T20:05:59Z</time>
      </trkpt>
      <trkpt lat="37.971982900053263" lon="-7.245835606008768">
        <ele>251.03999999999999</ele>
        <time>2016-03-14T20:06:08Z</time>
      </trkpt>
      <trkpt lat="37.971928585320711" lon="-7.245663776993752">
        <ele>250.56</ele>
        <time>2016-03-14T20:06:18Z</time>
      </trkpt>
      <trkpt lat="37.971672769635916" lon="-7.243963675573468">
        <ele>250.56</ele>
        <time>2016-03-14T20:06:31Z</time>
      </trkpt>
      <trkpt lat="37.971640331670642" lon="-7.243775753304362">
        <ele>250.56</ele>
        <time>2016-03-14T20:06:45Z</time>
      </trkpt>
      <trkpt lat="37.971587609499693" lon="-7.243601493537426">
        <ele>249.59999999999999</ele>
        <time>2016-03-14T20:06:56Z</time>
      </trkpt>
      <trkpt lat="37.971521141007543" lon="-7.243439555168152">
        <ele>249.59999999999999</ele>
        <time>2016-03-14T20:07:06Z</time>
      </trkpt>
      <trkpt lat="37.970641041174531" lon="-7.241255985572934">
        <ele>249.59999999999999</ele>
        <time>2016-03-14T20:07:14Z</time>
      </trkpt>
      <trkpt lat="37.970120860263705" lon="-7.240109257400036">
        <ele>249.12</ele>
        <time>2016-03-14T20:07:20Z</time>
      </trkpt>
      <trkpt lat="37.970073418691754" lon="-7.239941786974669">
        <ele>249.12</ele>
        <time>2016-03-14T20:07:38Z</time>
      </trkpt>
      <trkpt lat="37.970036873593926" lon="-7.239761743694544">
        <ele>249.12</ele>
        <time>2016-03-14T20:07:39Z</time>
      </trkpt>
      <trkpt lat="37.970007956027985" lon="-7.239577928557992">
        <ele>247.19999999999999</ele>
        <time>2016-03-14T20:07:40Z</time>
      </trkpt>
      <trkpt lat="37.969988426193595" lon="-7.239389671012759">
        <ele>246.22999999999999</ele>
        <time>2016-03-14T20:07:41Z</time>
      </trkpt>
      <trkpt lat="37.969976775348186" lon="-7.239199988543987">
        <ele>246.22999999999999</ele>
        <time>2016-03-14T20:07:42Z</time>
      </trkpt>
      <trkpt lat="37.970038298517466" lon="-7.237354377284646">
        <ele>244.78999999999999</ele>
        <time>2016-03-14T20:07:49Z</time>
      </trkpt>
      <trkpt lat="37.969920113682747" lon="-7.235378511250019">
        <ele>242.38999999999999</ele>
        <time>2016-03-14T20:07:50Z</time>
      </trkpt>
      <trkpt lat="37.969756247475743" lon="-7.232861677184701">
        <ele>239.02000000000001</ele>
        <time>2016-03-14T20:07:51Z</time>
      </trkpt>
      <trkpt lat="37.969677876681089" lon="-7.230157842859626">
        <ele>234.69999999999999</ele>
        <time>2016-03-14T20:08:01Z</time>
      </trkpt>
      <trkpt lat="37.969990856945515" lon="-7.228166973218322">
        <ele>234.22</ele>
        <time>2016-03-14T20:08:02Z</time>
      </trkpt>
      <trkpt lat="37.97010107897222" lon="-7.226481204852462">
        <ele>234.69999999999999</ele>
        <time>2016-03-14T20:08:03Z</time>
      </trkpt>
      <trkpt lat="37.969971830025315" lon="-7.225231546908617">
        <ele>234.69999999999999</ele>
        <time>2016-03-14T20:08:04Z</time>
      </trkpt>
      <trkpt lat="37.969966381788254" lon="-7.225081929937005">
        <ele>234.69999999999999</ele>
        <time>2016-03-14T20:08:05Z</time>
      </trkpt>
      <trkpt lat="37.969930171966553" lon="-7.224881015717983">
        <ele>234.69999999999999</ele>
        <time>2016-03-14T20:08:06Z</time>
      </trkpt>
      <trkpt lat="37.96990460716188" lon="-7.224821755662561">
        <ele>235.18000000000001</ele>
        <time>2016-03-14T20:08:07Z</time>
      </trkpt>
      <trkpt lat="37.969866637140512" lon="-7.224762830883265">
        <ele>235.66</ele>
        <time>2016-03-14T20:08:17Z</time>
      </trkpt>
      <trkpt lat="37.969816848635674" lon="-7.224704995751381">
        <ele>235.66</ele>
        <time>2016-03-14T20:08:18Z</time>
      </trkpt>
      <trkpt lat="37.969760270789266" lon="-7.224646657705307">
        <ele>235.66</ele>
        <time>2016-03-14T20:08:19Z</time>
      </trkpt>
      <trkpt lat="37.969407979398966" lon="-7.224169727414846">
        <ele>236.62</ele>
        <time>2016-03-14T20:08:20Z</time>
      </trkpt>
      <trkpt lat="37.969379648566246" lon="-7.224096218124032">
        <ele>236.62</ele>
        <time>2016-03-14T20:08:21Z</time>
      </trkpt>
      <trkpt lat="37.969356933608651" lon="-7.22401256673038">
        <ele>236.62</ele>
        <time>2016-03-14T20:08:22Z</time>
      </trkpt>
      <trkpt lat="37.969109332188964" lon="-7.223170436918736">
        <ele>236.62</ele>
        <time>2016-03-14T20:08:23Z</time>
      </trkpt>
      <trkpt lat="37.969102626666427" lon="-7.22312861122191">
        <ele>237.09999999999999</ele>
        <time>2016-03-14T20:08:24Z</time>
      </trkpt>
      <trkpt lat="37.969097262248397" lon="-7.22309835255146">
        <ele>237.09999999999999</ele>
        <time>2016-03-14T20:08:25Z</time>
      </trkpt>
      <trkpt lat="37.969086365774274" lon="-7.22307144664228">
        <ele>237.09999999999999</ele>
        <time>2016-03-14T20:08:35Z</time>
      </trkpt>
      <trkpt lat="37.969063818454742" lon="-7.223043031990528">
        <ele>236.62</ele>
        <time>2016-03-14T20:08:46Z</time>
      </trkpt>
      <trkpt lat="37.969022914767265" lon="-7.223020233213902">
        <ele>236.62</ele>
        <time>2016-03-14T20:08:47Z</time>
      </trkpt>
      <trkpt lat="37.968965163454413" lon="-7.223001625388861">
        <ele>236.62</ele>
        <time>2016-03-14T20:08:48Z</time>
      </trkpt>
      <trkpt lat="37.968358732759953" lon="-7.222802136093378">
        <ele>236.62</ele>
        <time>2016-03-14T20:08:59Z</time>
      </trkpt>
      <trkpt lat="37.968335598707199" lon="-7.222779169678688">
        <ele>236.62</ele>
        <time>2016-03-14T20:09:10Z</time>
      </trkpt>
      <trkpt lat="37.968326630070806" lon="-7.222755448892713">
        <ele>236.62</ele>
        <time>2016-03-14T21:06:04Z</time>
      </trkpt>
      <trkpt lat="37.968326630070806" lon="-7.22273139283061">
        <ele>236.62</ele>
        <time>2016-03-14T21:06:17Z</time>
      </trkpt>
      <trkpt lat="37.968331407755613" lon="-7.222704906016588">
        <ele>237.09999999999999</ele>
        <time>2016-03-14T21:06:40Z</time>
      </trkpt>
      <trkpt lat="37.968345824629068" lon="-7.222672048956156">
        <ele>237.09999999999999</ele>
        <time>2016-03-14T21:06:45Z</time>
      </trkpt>
      <trkpt lat="37.968362336978316" lon="-7.222625948488712">
        <ele>241.91</ele>
        <time>2016-03-14T21:06:46Z</time>
      </trkpt>
      <trkpt lat="37.968375328928232" lon="-7.222572471946478">
        <ele>245.75</ele>
        <time>2016-03-14T21:06:47Z</time>
      </trkpt>
      <trkpt lat="37.968386057764292" lon="-7.222514720633626">
        <ele>246.22999999999999</ele>
        <time>2016-03-14T21:06:48Z</time>
      </trkpt>
      <trkpt lat="37.968534585088491" lon="-7.221728079020977">
        <ele>246.22999999999999</ele>
        <time>2016-03-14T21:06:56Z</time>
      </trkpt>
      <trkpt lat="37.968668695539236" lon="-7.220990555360913">
        <ele>243.83000000000001</ele>
        <time>2016-03-14T21:07:07Z</time>
      </trkpt>
      <trkpt lat="37.96864053234458" lon="-7.220959374681115">
        <ele>240.94999999999999</ele>
        <time>2016-03-14T21:07:23Z</time>
      </trkpt>
      <trkpt lat="37.968599712476134" lon="-7.220940263941884">
        <ele>220.28</ele>
        <time>2016-03-14T21:07:34Z</time>
      </trkpt>
      <trkpt lat="37.968205427750945" lon="-7.220834903419018">
        <ele>224.12</ele>
        <time>2016-03-14T21:07:37Z</time>
      </trkpt>
      <trkpt lat="37.967930836603045" lon="-7.220755107700825">
        <ele>223.63999999999999</ele>
        <time>2016-03-14T21:07:38Z</time>
      </trkpt>
      <trkpt lat="37.967872079461813" lon="-7.220752090215683">
        <ele>225.56999999999999</ele>
        <time>2016-03-14T21:07:39Z</time>
      </trkpt>
      <trkpt lat="37.96780644915998" lon="-7.220729794353247">
        <ele>225.56999999999999</ele>
        <time>2016-03-14T21:07:48Z</time>
      </trkpt>
      <trkpt lat="37.967810891568661" lon="-7.220726190134883">
        <ele>225.56999999999999</ele>
        <time>2016-03-14T21:08:00Z</time>
      </trkpt>
      <trkpt lat="37.967768060043454" lon="-7.220626445487142">
        <ele>225.56999999999999</ele>
        <time>2016-03-14T21:08:15Z</time>
      </trkpt>
      <trkpt lat="37.967771328985691" lon="-7.220577746629715">
        <ele>226.53</ele>
        <time>2016-03-14T21:08:25Z</time>
      </trkpt>
      <trkpt lat="37.967780046164989" lon="-7.220534412190318">
        <ele>219.80000000000001</ele>
        <time>2016-03-14T21:08:36Z</time>
      </trkpt>
      <trkpt lat="37.967791864648461" lon="-7.220484958961606">
        <ele>220.28</ele>
        <time>2016-03-14T21:08:45Z</time>
      </trkpt>
      <trkpt lat="37.96794424764812" lon="-7.21974877640605">
        <ele>225.56999999999999</ele>
        <time>2016-03-14T21:08:54Z</time>
      </trkpt>
      <trkpt lat="37.96826234087348" lon="-7.218121094629169">
        <ele>227.49000000000001</ele>
        <time>2016-03-14T21:09:01Z</time>
      </trkpt>
      <trkpt lat="37.968774223700166" lon="-7.215524800121784">
        <ele>227.97</ele>
        <time>2016-03-14T21:09:14Z</time>
      </trkpt>
      <trkpt lat="37.969216704368591" lon="-7.213387414813042">
        <ele>228.44999999999999</ele>
        <time>2016-03-14T21:09:25Z</time>
      </trkpt>
      <trkpt lat="37.969428263604641" lon="-7.212785761803389">
        <ele>228.93000000000001</ele>
        <time>2016-03-14T21:09:26Z</time>
      </trkpt>
      <trkpt lat="37.969526331871748" lon="-7.21259968355298">
        <ele>231.33000000000001</ele>
        <time>2016-03-14T21:09:27Z</time>
      </trkpt>
      <trkpt lat="37.969638230279088" lon="-7.212423160672188">
        <ele>222.68000000000001</ele>
        <time>2016-03-14T21:09:34Z</time>
      </trkpt>
      <trkpt lat="37.970586642622948" lon="-7.210659272968769">
        <ele>226.05000000000001</ele>
        <time>2016-03-14T21:09:45Z</time>
      </trkpt>
      <trkpt lat="37.971447799354792" lon="-7.207586634904146">
        <ele>229.88999999999999</ele>
        <time>2016-03-14T21:09:54Z</time>
      </trkpt>
      <trkpt lat="37.972495369613171" lon="-7.203517975285649">
        <ele>220.28</ele>
        <time>2016-03-14T21:10:04Z</time>
      </trkpt>
      <trkpt lat="37.97287062741816" lon="-7.200664523988962">
        <ele>214.03</ele>
        <time>2016-03-14T21:10:14Z</time>
      </trkpt>
      <trkpt lat="37.973404303193092" lon="-7.197828507050872">
        <ele>214.03</ele>
        <time>2016-03-14T21:10:28Z</time>
      </trkpt>
      <trkpt lat="37.974109975621104" lon="-7.195402113720775">
        <ele>214.03</ele>
        <time>2016-03-14T21:10:39Z</time>
      </trkpt>
      <trkpt lat="37.974787568673491" lon="-7.192669529467821">
        <ele>202.00999999999999</ele>
        <time>2016-03-14T21:10:47Z</time>
      </trkpt>
      <trkpt lat="37.975109349936247" lon="-7.190521163865924">
        <ele>201.05000000000001</ele>
        <time>2016-03-14T21:10:53Z</time>
      </trkpt>
      <trkpt lat="37.975692646577954" lon="-7.18632074072957">
        <ele>200.09</ele>
        <time>2016-03-14T21:10:56Z</time>
      </trkpt>
      <trkpt lat="37.976056840270758" lon="-7.182772010564804">
        <ele>196.72999999999999</ele>
        <time>2016-03-14T21:10:57Z</time>
      </trkpt>
      <trkpt lat="37.976018283516169" lon="-7.182480655610561">
        <ele>198.16999999999999</ele>
        <time>2016-03-14T21:10:58Z</time>
      </trkpt>
      <trkpt lat="37.975956676527858" lon="-7.18219474889338">
        <ele>201.05000000000001</ele>
        <time>2016-03-14T21:10:59Z</time>
      </trkpt>
      <trkpt lat="37.975662220269442" lon="-7.180329021066427">
        <ele>207.78</ele>
        <time>2016-03-14T21:11:00Z</time>
      </trkpt>
      <trkpt lat="37.975908815860748" lon="-7.177234925329685">
        <ele>201.05000000000001</ele>
        <time>2016-03-14T21:11:01Z</time>
      </trkpt>
      <trkpt lat="37.976242834702134" lon="-7.174719013273716">
        <ele>198.65000000000001</ele>
        <time>2016-03-14T21:11:02Z</time>
      </trkpt>
      <trkpt lat="37.976224310696125" lon="-7.17211483977735">
        <ele>197.21000000000001</ele>
        <time>2016-03-14T21:11:03Z</time>
      </trkpt>
      <trkpt lat="37.976621026173234" lon="-7.169351074844599">
        <ele>193.84</ele>
        <time>2016-03-14T21:11:04Z</time>
      </trkpt>
      <trkpt lat="37.977341869845986" lon="-7.165196835994721">
        <ele>194.80000000000001</ele>
        <time>2016-03-14T21:11:05Z</time>
      </trkpt>
      <trkpt lat="37.978394972160459" lon="-7.16202998533845">
        <ele>197.21000000000001</ele>
        <time>2016-03-14T21:11:06Z</time>
      </trkpt>
      <trkpt lat="37.979089412838221" lon="-7.159871561452746">
        <ele>197.69</ele>
        <time>2016-03-14T21:11:07Z</time>
      </trkpt>
      <trkpt lat="37.979979906231165" lon="-7.158579910174012">
        <ele>198.16999999999999</ele>
        <time>2016-03-14T21:11:08Z</time>
      </trkpt>
      <trkpt lat="37.980336556211114" lon="-7.158002816140652">
        <ele>198.65000000000001</ele>
        <time>2016-03-14T21:11:09Z</time>
      </trkpt>
      <trkpt lat="37.980420961976051" lon="-7.157800309360027">
        <ele>198.65000000000001</ele>
        <time>2016-03-14T21:11:10Z</time>
      </trkpt>
      <trkpt lat="37.980487011373043" lon="-7.15758640319109">
        <ele>198.65000000000001</ele>
        <time>2016-03-14T21:11:11Z</time>
      </trkpt>
      <trkpt lat="37.980531351640821" lon="-7.157361516728997">
        <ele>198.65000000000001</ele>
        <time>2016-03-14T21:11:12Z</time>
      </trkpt>
      <trkpt lat="37.980558844283223" lon="-7.157126907259226">
        <ele>198.16999999999999</ele>
        <time>2016-03-14T21:11:16Z</time>
      </trkpt>
      <trkpt lat="37.980568734928966" lon="-7.156887520104647">
        <ele>198.16999999999999</ele>
        <time>2016-03-14T21:11:17Z</time>
      </trkpt>
      <trkpt lat="37.980555240064859" lon="-7.156644612550736">
        <ele>197.69</ele>
        <time>2016-03-14T21:11:18Z</time>
      </trkpt>
      <trkpt lat="37.980516934767365" lon="-7.156404303386807">
        <ele>197.69</ele>
        <time>2016-03-14T21:11:19Z</time>
      </trkpt>
      <trkpt lat="37.980457758530974" lon="-7.156168268993497">
        <ele>197.69</ele>
        <time>2016-03-14T21:11:20Z</time>
      </trkpt>
      <trkpt lat="37.980377292260528" lon="-7.155940867960453">
        <ele>197.69</ele>
        <time>2016-03-14T21:11:21Z</time>
      </trkpt>
      <trkpt lat="37.980276038870215" lon="-7.155723860487342">
        <ele>197.69</ele>
        <time>2016-03-14T21:11:22Z</time>
      </trkpt>
      <trkpt lat="37.980155674740672" lon="-7.155525293201208">
        <ele>197.69</ele>
        <time>2016-03-14T21:11:23Z</time>
      </trkpt>
      <trkpt lat="37.980019887909293" lon="-7.155347596853972">
        <ele>197.69</ele>
        <time>2016-03-14T21:11:24Z</time>
      </trkpt>
      <trkpt lat="37.979867588728666" lon="-7.155191190540791">
        <ele>197.69</ele>
        <time>2016-03-14T21:11:25Z</time>
      </trkpt>
      <trkpt lat="37.979703303426504" lon="-7.155057918280363">
        <ele>199.13</ele>
        <time>2016-03-14T21:11:26Z</time>
      </trkpt>
      <trkpt lat="37.979528373107314" lon="-7.154943505302072">
        <ele>199.61000000000001</ele>
        <time>2016-03-14T21:11:42Z</time>
      </trkpt>
      <trkpt lat="37.979348078370094" lon="-7.154841246083379">
        <ele>200.09</ele>
        <time>2016-03-14T21:11:52Z</time>
      </trkpt>
      <trkpt lat="37.978647937998176" lon="-7.154388120397925">
        <ele>201.05000000000001</ele>
        <time>2016-03-14T21:12:02Z</time>
      </trkpt>
      <trkpt lat="37.978493878617883" lon="-7.154236659407616">
        <ele>201.53</ele>
        <time>2016-03-14T21:12:04Z</time>
      </trkpt>
      <trkpt lat="37.978354571387172" lon="-7.154062399640679">
        <ele>202.49000000000001</ele>
        <time>2016-03-14T21:12:05Z</time>
      </trkpt>
      <trkpt lat="37.978232949972153" lon="-7.153867604210973">
        <ele>203.46000000000001</ele>
        <time>2016-03-14T21:12:06Z</time>
      </trkpt>
      <trkpt lat="37.978129182010889" lon="-7.15365688316524">
        <ele>204.41999999999999</ele>
        <time>2016-03-14T21:12:07Z</time>
      </trkpt>
      <trkpt lat="37.978046033531427" lon="-7.153428727760911">
        <ele>205.38</ele>
        <time>2016-03-14T21:12:08Z</time>
      </trkpt>
      <trkpt lat="37.977983672171831" lon="-7.1531892567873">
        <ele>206.34</ele>
        <time>2016-03-14T21:12:14Z</time>
      </trkpt>
      <trkpt lat="37.977942684665322" lon="-7.152938973158598">
        <ele>207.30000000000001</ele>
        <time>2016-03-14T21:12:15Z</time>
      </trkpt>
      <trkpt lat="37.977918460965157" lon="-7.152684582397342">
        <ele>219.31999999999999</ele>
        <time>2016-03-14T21:12:16Z</time>
      </trkpt>
      <trkpt lat="37.977906474843621" lon="-7.152425078675151">
        <ele>211.63</ele>
        <time>2016-03-14T21:12:17Z</time>
      </trkpt>
      <trkpt lat="37.977902451530099" lon="-7.152160042896867">
        <ele>209.22</ele>
        <time>2016-03-14T21:12:18Z</time>
      </trkpt>
      <trkpt lat="37.977841598913074" lon="-7.147859707474709">
        <ele>208.74000000000001</ele>
        <time>2016-03-14T21:12:19Z</time>
      </trkpt>
      <trkpt lat="37.977829109877348" lon="-7.144955042749643">
        <ele>208.25999999999999</ele>
        <time>2016-03-14T21:12:20Z</time>
      </trkpt>
      <trkpt lat="37.977730371057987" lon="-7.14152617380023">
        <ele>208.25999999999999</ele>
        <time>2016-03-14T21:12:34Z</time>
      </trkpt>
      <trkpt lat="37.977660465985537" lon="-7.140933657065034">
        <ele>208.25999999999999</ele>
        <time>2016-03-14T21:12:42Z</time>
      </trkpt>
      <trkpt lat="37.977595003321767" lon="-7.140651186928153">
        <ele>208.25999999999999</ele>
        <time>2016-03-14T21:12:43Z</time>
      </trkpt>
      <trkpt lat="37.97750573605299" lon="-7.140373326838017">
        <ele>207.78</ele>
        <time>2016-03-14T21:12:44Z</time>
      </trkpt>
      <trkpt lat="37.97739383764565" lon="-7.140101250261068">
        <ele>207.78</ele>
        <time>2016-03-14T21:12:45Z</time>
      </trkpt>
      <trkpt lat="37.977265845984221" lon="-7.139831520617008">
        <ele>207.30000000000001</ele>
        <time>2016-03-14T21:12:46Z</time>
      </trkpt>
      <trkpt lat="37.976539051160216" lon="-7.138249855488539">
        <ele>207.30000000000001</ele>
        <time>2016-03-14T21:12:53Z</time>
      </trkpt>
      <trkpt lat="37.976466380059719" lon="-7.13796554133296">
        <ele>207.30000000000001</ele>
        <time>2016-03-14T21:12:54Z</time>
      </trkpt>
      <trkpt lat="37.976416172459722" lon="-7.13766748085618">
        <ele>207.30000000000001</ele>
        <time>2016-03-14T21:13:07Z</time>
      </trkpt>
      <trkpt lat="37.976390523836017" lon="-7.137358440086246">
        <ele>207.30000000000001</ele>
        <time>2016-03-14T21:13:23Z</time>
      </trkpt>
      <trkpt lat="37.976388512179255" lon="-7.137042861431837">
        <ele>207.30000000000001</ele>
        <time>2016-03-14T21:13:41Z</time>
      </trkpt>
      <trkpt lat="37.976406700909138" lon="-7.136719990521669">
        <ele>209.22</ele>
        <time>2016-03-14T21:13:57Z</time>
      </trkpt>
      <trkpt lat="37.976435283198953" lon="-7.136391922831535">
        <ele>209.69999999999999</ele>
        <time>2016-03-14T21:14:11Z</time>
      </trkpt>
      <trkpt lat="37.976683806627989" lon="-7.131780367344618">
        <ele>209.69999999999999</ele>
        <time>2016-03-14T21:14:35Z</time>
      </trkpt>
      <trkpt lat="37.976293712854385" lon="-7.129170829430223">
        <ele>210.19</ele>
        <time>2016-03-14T21:14:50Z</time>
      </trkpt>
      <trkpt lat="37.976308967918158" lon="-7.1288628783077">
        <ele>210.19</ele>
        <time>2016-03-14T21:15:11Z</time>
      </trkpt>
      <trkpt lat="37.976347273215652" lon="-7.128562554717064">
        <ele>213.06999999999999</ele>
        <time>2016-03-14T21:15:30Z</time>
      </trkpt>
      <trkpt lat="37.97640535980463" lon="-7.128262314945459">
        <ele>214.03</ele>
        <time>2016-03-14T21:15:39Z</time>
      </trkpt>
      <trkpt lat="37.976474426686764" lon="-7.127961404621601">
        <ele>227.97</ele>
        <time>2016-03-14T21:15:46Z</time>
      </trkpt>
      <trkpt lat="37.976771732792258" lon="-7.125860312953591">
        <ele>233.74000000000001</ele>
        <time>2016-03-14T21:15:47Z</time>
      </trkpt>
      <trkpt lat="37.976746084168553" lon="-7.125555546954274">
        <ele>239.99000000000001</ele>
        <time>2016-03-14T21:15:48Z</time>
      </trkpt>
      <trkpt lat="37.976145520806313" lon="-7.121501052752137">
        <ele>250.56</ele>
        <time>2016-03-14T21:15:49Z</time>
      </trkpt>
      <trkpt lat="37.97550531104207" lon="-7.116347355768085">
        <ele>247.68000000000001</ele>
        <time>2016-03-14T21:15:50Z</time>
      </trkpt>
      <trkpt lat="37.974990243092179" lon="-7.110332334414125">
        <ele>250.56</ele>
        <time>2016-03-14T21:15:51Z</time>
      </trkpt>
      <trkpt lat="37.97451825812459" lon="-7.104866160079837">
        <ele>251.52000000000001</ele>
        <time>2016-03-14T21:15:57Z</time>
      </trkpt>
      <trkpt lat="37.974119614809752" lon="-7.100112028419972">
        <ele>259.20999999999998</ele>
        <time>2016-03-14T21:16:08Z</time>
      </trkpt>
      <trkpt lat="37.973420983180404" lon="-7.091671703383327">
        <ele>270.75</ele>
        <time>2016-03-14T21:16:22Z</time>
      </trkpt>
      <trkpt lat="37.972914716228843" lon="-7.086110897362232">
        <ele>276.04000000000002</ele>
        <time>2016-03-14T21:16:28Z</time>
      </trkpt>
      <trkpt lat="37.972139557823539" lon="-7.078624265268445">
        <ele>271.23000000000002</ele>
        <time>2016-03-14T21:16:29Z</time>
      </trkpt>
      <trkpt lat="37.971428520977497" lon="-7.071878425776959">
        <ele>270.75</ele>
        <time>2016-03-14T21:16:30Z</time>
      </trkpt>
      <trkpt lat="37.970806919038296" lon="-7.068854738026857">
        <ele>270.26999999999998</ele>
        <time>2016-03-14T21:16:31Z</time>
      </trkpt>
      <trkpt lat="37.970061684027314" lon="-7.066614925861359">
        <ele>269.79000000000002</ele>
        <time>2016-03-14T21:16:32Z</time>
      </trkpt>
      <trkpt lat="37.970009800046682" lon="-7.066306639462709">
        <ele>269.31</ele>
        <time>2016-03-14T21:16:33Z</time>
      </trkpt>
      <trkpt lat="37.969982642680407" lon="-7.065993072465062">
        <ele>269.31</ele>
        <time>2016-03-14T21:16:34Z</time>
      </trkpt>
      <trkpt lat="37.969979960471392" lon="-7.065671794116497">
        <ele>265.45999999999998</ele>
        <time>2016-03-14T21:16:35Z</time>
      </trkpt>
      <trkpt lat="37.969996137544513" lon="-7.065344145521522">
        <ele>259.69</ele>
        <time>2016-03-14T21:16:39Z</time>
      </trkpt>
      <trkpt lat="37.970020193606615" lon="-7.065007947385311">
        <ele>261.62</ele>
        <time>2016-03-14T21:16:40Z</time>
      </trkpt>
      <trkpt lat="37.969940565526485" lon="-7.062931833788753">
        <ele>265.45999999999998</ele>
        <time>2016-03-14T21:16:41Z</time>
      </trkpt>
      <trkpt lat="37.969376714900136" lon="-7.059100801125169">
        <ele>266.42000000000002</ele>
        <time>2016-03-14T21:16:42Z</time>
      </trkpt>
      <trkpt lat="37.969258278608322" lon="-7.053995551541448">
        <ele>267.38</ele>
        <time>2016-03-14T21:16:43Z</time>
      </trkpt>
      <trkpt lat="37.96915166079998" lon="-7.051967130973935">
        <ele>268.35000000000002</ele>
        <time>2016-03-14T21:16:57Z</time>
      </trkpt>
      <trkpt lat="37.969062142074108" lon="-7.05166345462203">
        <ele>269.31</ele>
        <time>2016-03-14T21:17:05Z</time>
      </trkpt>
      <trkpt lat="37.968945298343897" lon="-7.051375955343247">
        <ele>269.79000000000002</ele>
        <time>2016-03-14T21:17:06Z</time>
      </trkpt>
      <trkpt lat="37.96880716457963" lon="-7.05110689625144">
        <ele>270.75</ele>
        <time>2016-03-14T21:17:07Z</time>
      </trkpt>
      <trkpt lat="37.968645896762609" lon="-7.050859043374658">
        <ele>271.23000000000002</ele>
        <time>2016-03-14T21:17:19Z</time>
      </trkpt>
      <trkpt lat="37.968464093282819" lon="-7.050634073093534">
        <ele>273.14999999999998</ele>
        <time>2016-03-14T21:17:21Z</time>
      </trkpt>
      <trkpt lat="37.96826770529151" lon="-7.050429973751307">
        <ele>273.63</ele>
        <time>2016-03-14T21:17:22Z</time>
      </trkpt>
      <trkpt lat="37.968069305643439" lon="-7.050234926864505">
        <ele>273.63</ele>
        <time>2016-03-14T21:17:27Z</time>
      </trkpt>
      <trkpt lat="37.967354832217097" lon="-7.049427833408117">
        <ele>274.11000000000001</ele>
        <time>2016-03-14T21:17:28Z</time>
      </trkpt>
      <trkpt lat="37.967216111719608" lon="-7.049183752387762">
        <ele>274.11000000000001</ele>
        <time>2016-03-14T21:17:29Z</time>
      </trkpt>
      <trkpt lat="37.967101028189063" lon="-7.048921147361398">
        <ele>287.08999999999997</ele>
        <time>2016-03-14T21:17:40Z</time>
      </trkpt>
      <trkpt lat="37.967006647959352" lon="-7.04864370636642">
        <ele>292.86000000000001</ele>
        <time>2016-03-14T21:17:56Z</time>
      </trkpt>
      <trkpt lat="37.966927606612444" lon="-7.048354614526033">
        <ele>293.33999999999997</ele>
        <time>2016-03-14T21:18:01Z</time>
      </trkpt>
      <trkpt lat="37.965965196490288" lon="-7.044254438951612">
        <ele>292.86000000000001</ele>
        <time>2016-03-14T21:18:02Z</time>
      </trkpt>
      <trkpt lat="37.965822536498308" lon="-7.04194463789463">
        <ele>285.17000000000002</ele>
        <time>2016-03-14T21:18:03Z</time>
      </trkpt>
      <trkpt lat="37.965859416872263" lon="-7.041660994291306">
        <ele>282.76999999999998</ele>
        <time>2016-03-14T21:18:04Z</time>
      </trkpt>
      <trkpt lat="37.965912893414497" lon="-7.0413763448596">
        <ele>281.80000000000001</ele>
        <time>2016-03-14T21:18:05Z</time>
      </trkpt>
      <trkpt lat="37.966731302440166" lon="-7.037753770127893">
        <ele>275.56</ele>
        <time>2016-03-14T21:18:06Z</time>
      </trkpt>
      <trkpt lat="37.966817384585738" lon="-7.037153039127588">
        <ele>274.11000000000001</ele>
        <time>2016-03-14T21:18:07Z</time>
      </trkpt>
      <trkpt lat="37.966829035431147" lon="-7.036849111318588">
        <ele>273.14999999999998</ele>
        <time>2016-03-14T21:18:08Z</time>
      </trkpt>
      <trkpt lat="37.966864742338657" lon="-7.035349756479263">
        <ele>259.20999999999998</ele>
        <time>2016-03-14T21:18:09Z</time>
      </trkpt>
      <trkpt lat="37.966919224709272" lon="-7.035056138411164">
        <ele>261.62</ele>
        <time>2016-03-14T21:18:10Z</time>
      </trkpt>
      <trkpt lat="37.966996841132641" lon="-7.034766795113683">
        <ele>265.45999999999998</ele>
        <time>2016-03-14T21:18:14Z</time>
      </trkpt>
      <trkpt lat="37.968112891539931" lon="-7.031511934474111">
        <ele>266.42000000000002</ele>
        <time>2016-03-14T21:18:15Z</time>
      </trkpt>
      <trkpt lat="37.969587352126837" lon="-7.026782864704728">
        <ele>267.38</ele>
        <time>2016-03-14T21:18:16Z</time>
      </trkpt>
      <trkpt lat="37.969910893589258" lon="-7.025413429364562">
        <ele>268.35000000000002</ele>
        <time>2016-03-14T21:18:17Z</time>
      </trkpt>
      <trkpt lat="37.969919862225652" lon="-7.025140430778265">
        <ele>269.31</ele>
        <time>2016-03-14T21:18:18Z</time>
      </trkpt>
      <trkpt lat="37.969906534999609" lon="-7.024866426363587">
        <ele>270.26999999999998</ele>
        <time>2016-03-14T21:18:19Z</time>
      </trkpt>
      <trkpt lat="37.96987091191113" lon="-7.024597451090813">
        <ele>270.75</ele>
        <time>2016-03-14T21:18:20Z</time>
      </trkpt>
      <trkpt lat="37.96980737708509" lon="-7.024338282644749">
        <ele>271.70999999999998</ele>
        <time>2016-03-14T21:18:32Z</time>
      </trkpt>
      <trkpt lat="37.969720875844359" lon="-7.024095710366964">
        <ele>272.19</ele>
        <time>2016-03-14T21:18:45Z</time>
      </trkpt>
      <trkpt lat="37.969615012407303" lon="-7.023869482800365">
        <ele>273.14999999999998</ele>
        <time>2016-03-14T21:18:46Z</time>
      </trkpt>
      <trkpt lat="37.969489367678761" lon="-7.023660521954298">
        <ele>274.58999999999997</ele>
        <time>2016-03-14T21:18:55Z</time>
      </trkpt>
      <trkpt lat="37.969350479543209" lon="-7.023461367934942">
        <ele>275.06999999999999</ele>
        <time>2016-03-14T21:19:05Z</time>
      </trkpt>
      <trkpt lat="37.969200946390629" lon="-7.023266237229109">
        <ele>275.06999999999999</ele>
        <time>2016-03-14T21:19:06Z</time>
      </trkpt>
      <trkpt lat="37.96864153817296" lon="-7.022478338330984">
        <ele>275.56</ele>
        <time>2016-03-14T21:19:07Z</time>
      </trkpt>
      <trkpt lat="37.968539362773299" lon="-7.022258816286922">
        <ele>276.04000000000002</ele>
        <time>2016-03-14T21:19:08Z</time>
      </trkpt>
      <trkpt lat="37.968451101332903" lon="-7.022027056664228">
        <ele>276.51999999999998</ele>
        <time>2016-03-14T21:19:09Z</time>
      </trkpt>
      <trkpt lat="37.968383627012372" lon="-7.021781802177429">
        <ele>277</ele>
        <time>2016-03-14T21:19:15Z</time>
      </trkpt>
      <trkpt lat="37.968336269259453" lon="-7.021524729207158">
        <ele>284.69</ele>
        <time>2016-03-14T21:19:16Z</time>
      </trkpt>
      <trkpt lat="37.968303160741925" lon="-7.021257681772113">
        <ele>283.73000000000002</ele>
        <time>2016-03-14T21:19:17Z</time>
      </trkpt>
      <trkpt lat="37.968278098851442" lon="-7.020982336252928">
        <ele>282.76999999999998</ele>
        <time>2016-03-14T21:19:18Z</time>
      </trkpt>
      <trkpt lat="37.967979954555631" lon="-7.017408544197679">
        <ele>274.58999999999997</ele>
        <time>2016-03-14T21:19:19Z</time>
      </trkpt>
      <trkpt lat="37.967687426134944" lon="-7.01329437084496">
        <ele>277.48000000000002</ele>
        <time>2016-03-14T21:19:20Z</time>
      </trkpt>
      <trkpt lat="37.967722043395042" lon="-7.013003686442971">
        <ele>278.44</ele>
        <time>2016-03-14T21:19:21Z</time>
      </trkpt>
      <trkpt lat="37.968305256217718" lon="-7.010192479938269">
        <ele>278.92000000000002</ele>
        <time>2016-03-14T21:19:22Z</time>
      </trkpt>
      <trkpt lat="37.968897186219692" lon="-7.006984055042267">
        <ele>279.39999999999998</ele>
        <time>2016-03-14T21:19:23Z</time>
      </trkpt>
      <trkpt lat="37.968898694962263" lon="-7.006659423932433">
        <ele>279.88</ele>
        <time>2016-03-14T21:19:34Z</time>
      </trkpt>
      <trkpt lat="37.968870364129543" lon="-7.006335966289043">
        <ele>284.69</ele>
        <time>2016-03-14T21:19:36Z</time>
      </trkpt>
      <trkpt lat="37.968817558139563" lon="-7.006016029044986">
        <ele>286.13</ele>
        <time>2016-03-14T21:19:37Z</time>
      </trkpt>
      <trkpt lat="37.968747904524207" lon="-7.005697097629309">
        <ele>287.08999999999997</ele>
        <time>2016-03-14T21:19:38Z</time>
      </trkpt>
      <trkpt lat="37.968499045819044" lon="-7.00389658100903">
        <ele>288.05000000000001</ele>
        <time>2016-03-14T21:19:39Z</time>
      </trkpt>
      <trkpt lat="37.968521928414702" lon="-7.003616625443101">
        <ele>289.00999999999999</ele>
        <time>2016-03-14T21:19:40Z</time>
      </trkpt>
      <trkpt lat="37.968567106872797" lon="-7.003344716504216">
        <ele>289.49000000000001</ele>
        <time>2016-03-14T21:19:41Z</time>
      </trkpt>
      <trkpt lat="37.968632150441408" lon="-7.003082865849137">
        <ele>289.97000000000003</ele>
        <time>2016-03-14T21:19:42Z</time>
      </trkpt>
      <trkpt lat="37.968716975301504" lon="-7.002830486744642">
        <ele>290.45999999999998</ele>
        <time>2016-03-14T21:19:50Z</time>
      </trkpt>
      <trkpt lat="37.968821497634053" lon="-7.002587160095573">
        <ele>290.45999999999998</ele>
        <time>2016-03-14T21:19:51Z</time>
      </trkpt>
      <trkpt lat="37.96894253231585" lon="-7.002352718263865">
        <ele>298.14999999999998</ele>
        <time>2016-03-14T21:19:52Z</time>
      </trkpt>
      <trkpt lat="37.969083432108164" lon="-7.002129843458533">
        <ele>299.58999999999997</ele>
        <time>2016-03-14T21:20:04Z</time>
      </trkpt>
      <trkpt lat="37.969234390184283" lon="-7.001912081614137">
        <ele>300.06999999999999</ele>
        <time>2016-03-14T21:20:16Z</time>
      </trkpt>
      <trkpt lat="37.970957038924098" lon="-6.999308494850993">
        <ele>300.55000000000001</ele>
        <time>2016-03-14T21:20:26Z</time>
      </trkpt>
      <trkpt lat="37.971181841567159" lon="-6.998780099675059">
        <ele>301.02999999999997</ele>
        <time>2016-03-14T21:20:27Z</time>
      </trkpt>
      <trkpt lat="37.971257194876671" lon="-6.998507017269731">
        <ele>301.50999999999999</ele>
        <time>2016-03-14T21:20:28Z</time>
      </trkpt>
      <trkpt lat="37.971312515437603" lon="-6.998227396979928">
        <ele>301.99000000000001</ele>
        <time>2016-03-14T21:20:29Z</time>
      </trkpt>
      <trkpt lat="37.971347216516733" lon="-6.997940819710493">
        <ele>301.99000000000001</ele>
        <time>2016-03-14T21:20:30Z</time>
      </trkpt>
      <trkpt lat="37.971358532086015" lon="-6.997646195814014">
        <ele>304.38999999999999</ele>
        <time>2016-03-14T21:20:34Z</time>
      </trkpt>
      <trkpt lat="37.971347803249955" lon="-6.997347297146916">
        <ele>305.36000000000001</ele>
        <time>2016-03-14T21:20:35Z</time>
      </trkpt>
      <trkpt lat="37.971326261758804" lon="-6.997047727927566">
        <ele>306.31999999999999</ele>
        <time>2016-03-14T21:20:36Z</time>
      </trkpt>
      <trkpt lat="37.970941280946136" lon="-6.994853261858225">
        <ele>312.56999999999999</ele>
        <time>2016-03-14T21:20:37Z</time>
      </trkpt>
      <trkpt lat="37.97081982716918" lon="-6.994609767571092">
        <ele>323.62</ele>
        <time>2016-03-14T21:20:38Z</time>
      </trkpt>
      <trkpt lat="37.970683118328452" lon="-6.994374990463257">
        <ele>333.23000000000002</ele>
        <time>2016-03-14T21:20:52Z</time>
      </trkpt>
      <trkpt lat="37.968874890357256" lon="-6.991659672930837">
        <ele>334.19999999999999</ele>
        <time>2016-03-14T21:20:56Z</time>
      </trkpt>
      <trkpt lat="37.966807661578059" lon="-6.988693149760366">
        <ele>335.16000000000003</ele>
        <time>2016-03-14T21:20:57Z</time>
      </trkpt>
      <trkpt lat="37.965401848778129" lon="-6.986033488065004">
        <ele>336.12</ele>
        <time>2016-03-14T21:20:58Z</time>
      </trkpt>
      <trkpt lat="37.965325238183141" lon="-6.985754203051329">
        <ele>336.60000000000002</ele>
        <time>2016-03-14T21:20:59Z</time>
      </trkpt>
      <trkpt lat="37.965271677821875" lon="-6.985465278849006">
        <ele>339</ele>
        <time>2016-03-14T21:21:00Z</time>
      </trkpt>
      <trkpt lat="37.965237982571125" lon="-6.985164955258369">
        <ele>339.48000000000002</ele>
        <time>2016-03-14T21:21:04Z</time>
      </trkpt>
      <trkpt lat="37.96521476469934" lon="-6.984857674688101">
        <ele>339.95999999999998</ele>
        <time>2016-03-14T21:21:05Z</time>
      </trkpt>
      <trkpt lat="37.965055173262954" lon="-6.983649088069797">
        <ele>340.44</ele>
        <time>2016-03-14T21:21:06Z</time>
      </trkpt>
      <trkpt lat="37.964969510212541" lon="-6.983362762257457">
        <ele>340.92000000000002</ele>
        <time>2016-03-14T21:21:07Z</time>
      </trkpt>
      <trkpt lat="37.964855264872313" lon="-6.983092278242111">
        <ele>339</ele>
        <time>2016-03-14T21:21:08Z</time>
      </trkpt>
      <trkpt lat="37.96472224406898" lon="-6.982836127281189">
        <ele>337.07999999999998</ele>
        <time>2016-03-14T21:21:09Z</time>
      </trkpt>
      <trkpt lat="37.964575896039605" lon="-6.982590369880199">
        <ele>337.07999999999998</ele>
        <time>2016-03-14T21:21:10Z</time>
      </trkpt>
      <trkpt lat="37.962351087480783" lon="-6.97918857447803">
        <ele>336.60000000000002</ele>
        <time>2016-03-14T21:21:11Z</time>
      </trkpt>
      <trkpt lat="37.961704088374972" lon="-6.978434287011623">
        <ele>336.60000000000002</ele>
        <time>2016-03-14T21:21:12Z</time>
      </trkpt>
      <trkpt lat="37.961515495553613" lon="-6.97830218821764">
        <ele>336.60000000000002</ele>
        <time>2016-03-14T21:21:13Z</time>
      </trkpt>
      <trkpt lat="37.961317095905542" lon="-6.978186434134841">
        <ele>336.12</ele>
        <time>2016-03-14T21:21:28Z</time>
      </trkpt>
      <trkpt lat="37.961111404001713" lon="-6.978085348382592">
        <ele>335.63999999999999</ele>
        <time>2016-03-14T21:21:37Z</time>
      </trkpt>
      <trkpt lat="37.960899509489536" lon="-6.977993817999959">
        <ele>335.16000000000003</ele>
        <time>2016-03-14T21:21:49Z</time>
      </trkpt>
      <trkpt lat="37.960092164576054" lon="-6.97760347276926">
        <ele>335.16000000000003</ele>
        <time>2016-03-14T21:22:00Z</time>
      </trkpt>
      <trkpt lat="37.959912288933992" lon="-6.977468859404326">
        <ele>334.68000000000001</ele>
        <time>2016-03-14T21:22:11Z</time>
      </trkpt>
      <trkpt lat="37.959739789366722" lon="-6.977314632385969">
        <ele>334.19999999999999</ele>
        <time>2016-03-14T21:22:12Z</time>
      </trkpt>
      <trkpt lat="37.959574162960052" lon="-6.977140624076128">
        <ele>334.19999999999999</ele>
        <time>2016-03-14T21:22:13Z</time>
      </trkpt>
      <trkpt lat="37.959419349208474" lon="-6.976944319903851">
        <ele>333.23000000000002</ele>
        <time>2016-03-14T21:22:25Z</time>
      </trkpt>
      <trkpt lat="37.95928088016808" lon="-6.976728569716215">
        <ele>332.75</ele>
        <time>2016-03-14T21:22:33Z</time>
      </trkpt>
      <trkpt lat="37.95916210860014" lon="-6.976487590000033">
        <ele>332.26999999999998</ele>
        <time>2016-03-14T21:22:37Z</time>
      </trkpt>
      <trkpt lat="37.959059597924352" lon="-6.976230265572667">
        <ele>325.06</ele>
        <time>2016-03-14T21:22:38Z</time>
      </trkpt>
      <trkpt lat="37.958970917388797" lon="-6.975958691909909">
        <ele>326.99000000000001</ele>
        <time>2016-03-14T21:22:39Z</time>
      </trkpt>
      <trkpt lat="37.958891540765762" lon="-6.975679658353329">
        <ele>321.69999999999999</ele>
        <time>2016-03-14T21:22:51Z</time>
      </trkpt>
      <trkpt lat="37.957722935825586" lon="-6.971213696524501">
        <ele>321.69999999999999</ele>
        <time>2016-03-14T21:23:01Z</time>
      </trkpt>
      <trkpt lat="37.957256650552154" lon="-6.968652857467532">
        <ele>316.41000000000003</ele>
        <time>2016-03-14T21:23:19Z</time>
      </trkpt>
      <trkpt lat="37.957057664170861" lon="-6.964888544753194">
        <ele>315.93000000000001</ele>
        <time>2016-03-14T21:23:26Z</time>
      </trkpt>
      <trkpt lat="37.956746863201261" lon="-6.961584817618132">
        <ele>315.93000000000001</ele>
        <time>2016-03-14T21:23:37Z</time>
      </trkpt>
      <trkpt lat="37.95580574311316" lon="-6.958409752696753">
        <ele>319.77999999999997</ele>
        <time>2016-03-14T21:23:56Z</time>
      </trkpt>
      <trkpt lat="37.955775652080774" lon="-6.958100879564881">
        <ele>317.37</ele>
        <time>2016-03-14T21:24:09Z</time>
      </trkpt>
      <trkpt lat="37.955764839425683" lon="-6.957786474376917">
        <ele>317.85000000000002</ele>
        <time>2016-03-14T21:24:11Z</time>
      </trkpt>
      <trkpt lat="37.955778250470757" lon="-6.953882602974773">
        <ele>318.32999999999998</ele>
        <time>2016-03-14T21:24:12Z</time>
      </trkpt>
      <trkpt lat="37.955944212153554" lon="-6.951289912685752">
        <ele>318.32999999999998</ele>
        <time>2016-03-14T21:24:24Z</time>
      </trkpt>
      <trkpt lat="37.95613557100296" lon="-6.950014689937234">
        <ele>322.66000000000003</ele>
        <time>2016-03-14T21:24:41Z</time>
      </trkpt>
      <trkpt lat="37.956136912107468" lon="-6.949692573398352">
        <ele>312.56999999999999</ele>
        <time>2016-03-14T21:24:58Z</time>
      </trkpt>
      <trkpt lat="37.956119729205966" lon="-6.949371714144945">
        <ele>303.91000000000003</ele>
        <time>2016-03-14T21:25:03Z</time>
      </trkpt>
      <trkpt lat="37.95570314861834" lon="-6.945519978180528">
        <ele>303.43000000000001</ele>
        <time>2016-03-14T21:25:04Z</time>
      </trkpt>
      <trkpt lat="37.95511775650084" lon="-6.94215539842844">
        <ele>302.47000000000003</ele>
        <time>2016-03-14T21:25:05Z</time>
      </trkpt>
      <trkpt lat="37.953987037763" lon="-6.935709295794368">
        <ele>307.75999999999999</ele>
        <time>2016-03-14T21:25:06Z</time>
      </trkpt>
      <trkpt lat="37.953466773033142" lon="-6.933527486398816">
        <ele>320.25999999999999</ele>
        <time>2016-03-14T21:25:07Z</time>
      </trkpt>
      <trkpt lat="37.952019637450576" lon="-6.930127535015345">
        <ele>322.18000000000001</ele>
        <time>2016-03-14T21:25:13Z</time>
      </trkpt>
      <trkpt lat="37.949483608826995" lon="-6.924050822854042">
        <ele>323.13999999999999</ele>
        <time>2016-03-14T21:25:14Z</time>
      </trkpt>
      <trkpt lat="37.947964556515217" lon="-6.920259771868587">
        <ele>336.12</ele>
        <time>2016-03-14T21:25:15Z</time>
      </trkpt>
      <trkpt lat="37.947801360860467" lon="-6.919683935120702">
        <ele>346.69</ele>
        <time>2016-03-14T21:25:16Z</time>
      </trkpt>
      <trkpt lat="37.947753751650453" lon="-6.91938771866262">
        <ele>365.44</ele>
        <time>2016-03-14T21:25:17Z</time>
      </trkpt>
      <trkpt lat="37.947458457201719" lon="-6.915709236636758">
        <ele>372.17000000000002</ele>
        <time>2016-03-14T21:25:18Z</time>
      </trkpt>
      <trkpt lat="37.947010360658169" lon="-6.910205846652389">
        <ele>374.08999999999997</ele>
        <time>2016-03-14T21:25:19Z</time>
      </trkpt>
      <trkpt lat="37.946576345711946" lon="-6.904952237382531">
        <ele>375.05000000000001</ele>
        <time>2016-03-14T21:25:20Z</time>
      </trkpt>
      <trkpt lat="37.946553882211447" lon="-6.903557321056724">
        <ele>376.49000000000001</ele>
        <time>2016-03-14T21:25:29Z</time>
      </trkpt>
      <trkpt lat="37.946597384288907" lon="-6.903284238651395">
        <ele>377.94</ele>
        <time>2016-03-14T21:25:44Z</time>
      </trkpt>
      <trkpt lat="37.946658320724964" lon="-6.903014006093144">
        <ele>385.14999999999998</ele>
        <time>2016-03-14T21:25:57Z</time>
      </trkpt>
      <trkpt lat="37.946733254939318" lon="-6.902747880667448">
        <ele>386.58999999999997</ele>
        <time>2016-03-14T21:25:58Z</time>
      </trkpt>
      <trkpt lat="37.94681690633297" lon="-6.902482425794005">
        <ele>388.02999999999997</ele>
        <time>2016-03-14T21:25:59Z</time>
      </trkpt>
      <trkpt lat="37.947205659002066" lon="-6.900816187262535">
        <ele>389.47000000000003</ele>
        <time>2016-03-14T21:26:00Z</time>
      </trkpt>
      <trkpt lat="37.947211023420095" lon="-6.900523826479912">
        <ele>390.91000000000003</ele>
        <time>2016-03-14T21:26:01Z</time>
      </trkpt>
      <trkpt lat="37.947195768356323" lon="-6.90023054368794">
        <ele>392.36000000000001</ele>
        <time>2016-03-14T21:26:02Z</time>
      </trkpt>
      <trkpt lat="37.947159390896559" lon="-6.899940948933363">
        <ele>393.80000000000001</ele>
        <time>2016-03-14T21:26:03Z</time>
      </trkpt>
      <trkpt lat="37.947107255458832" lon="-6.899655377492309">
        <ele>395.24000000000001</ele>
        <time>2016-03-14T21:26:09Z</time>
      </trkpt>
      <trkpt lat="37.947036260738969" lon="-6.899376679211855">
        <ele>408.22000000000003</ele>
        <time>2016-03-14T21:26:16Z</time>
      </trkpt>
      <trkpt lat="37.946948753669858" lon="-6.899106279015541">
        <ele>427.44</ele>
        <time>2016-03-14T21:26:29Z</time>
      </trkpt>
      <trkpt lat="37.946855379268527" lon="-6.898840153589845">
        <ele>447.63</ele>
        <time>2016-03-14T21:26:37Z</time>
      </trkpt>
      <trkpt lat="37.946283901110291" lon="-6.896339161321521">
        <ele>449.06999999999999</ele>
        <time>2016-03-14T21:26:40Z</time>
      </trkpt>
      <trkpt lat="37.945846198126674" lon="-6.891755517572165">
        <ele>451</ele>
        <time>2016-03-14T21:26:41Z</time>
      </trkpt>
      <trkpt lat="37.945364322513342" lon="-6.88776321709156">
        <ele>452.44</ele>
        <time>2016-03-14T21:26:42Z</time>
      </trkpt>
      <trkpt lat="37.945276144891977" lon="-6.887505725026131">
        <ele>453.88</ele>
        <time>2016-03-14T21:26:43Z</time>
      </trkpt>
      <trkpt lat="37.945168856531382" lon="-6.887262146919966">
        <ele>455.80000000000001</ele>
        <time>2016-03-14T21:26:44Z</time>
      </trkpt>
      <trkpt lat="37.945042792707682" lon="-6.887034997344017">
        <ele>457.24000000000001</ele>
        <time>2016-03-14T21:26:45Z</time>
      </trkpt>
      <trkpt lat="37.944900719448924" lon="-6.886823941022158">
        <ele>465.89999999999998</ele>
        <time>2016-03-14T21:26:53Z</time>
      </trkpt>
      <trkpt lat="37.94474707916379" lon="-6.886627050116658">
        <ele>475.99000000000001</ele>
        <time>2016-03-14T21:27:00Z</time>
      </trkpt>
      <trkpt lat="37.944583129137754" lon="-6.886442312970758">
        <ele>488.00999999999999</ele>
        <time>2016-03-14T21:27:09Z</time>
      </trkpt>
      <trkpt lat="37.943687355145812" lon="-6.885240599513054">
        <ele>495.69999999999999</ele>
        <time>2016-03-14T21:27:11Z</time>
      </trkpt>
      <trkpt lat="37.943049324676394" lon="-6.883471179753542">
        <ele>498.10000000000002</ele>
        <time>2016-03-14T21:27:12Z</time>
      </trkpt>
      <trkpt lat="37.941914079710841" lon="-6.879716254770756">
        <ele>498.57999999999998</ele>
        <time>2016-03-14T21:27:13Z</time>
      </trkpt>
      <trkpt lat="37.941021071746945" lon="-6.877407543361187">
        <ele>499.54000000000002</ele>
        <time>2016-03-14T21:27:21Z</time>
      </trkpt>
      <trkpt lat="37.940630642697215" lon="-6.876685945317149">
        <ele>500.5</ele>
        <time>2016-03-14T21:27:26Z</time>
      </trkpt>
      <trkpt lat="37.940536933019757" lon="-6.876442953944206">
        <ele>501.45999999999998</ele>
        <time>2016-03-14T21:27:27Z</time>
      </trkpt>
      <trkpt lat="37.940464681014419" lon="-6.876195436343551">
        <ele>501.94999999999999</ele>
        <time>2016-03-14T21:27:35Z</time>
      </trkpt>
      <trkpt lat="37.940417239442468" lon="-6.875936854630709">
        <ele>504.82999999999998</ele>
        <time>2016-03-14T21:27:38Z</time>
      </trkpt>
      <trkpt lat="37.940394440665841" lon="-6.875669388100505">
        <ele>509.16000000000003</ele>
        <time>2016-03-14T21:27:39Z</time>
      </trkpt>
      <trkpt lat="37.940391171723604" lon="-6.875395635142922">
        <ele>513.96000000000004</ele>
        <time>2016-03-14T21:27:40Z</time>
      </trkpt>
      <trkpt lat="37.940120855346322" lon="-6.873232265934348">
        <ele>515.39999999999998</ele>
        <time>2016-03-14T21:27:45Z</time>
      </trkpt>
      <trkpt lat="37.939802845939994" lon="-6.871296297758818">
        <ele>516.37</ele>
        <time>2016-03-14T21:27:46Z</time>
      </trkpt>
      <trkpt lat="37.94001373462379" lon="-6.868543848395348">
        <ele>517.80999999999995</ele>
        <time>2016-03-14T21:27:47Z</time>
      </trkpt>
      <trkpt lat="37.939984733238816" lon="-6.867960803210735">
        <ele>523.58000000000004</ele>
        <time>2016-03-14T21:27:48Z</time>
      </trkpt>
      <trkpt lat="37.939942153170705" lon="-6.867675567045808">
        <ele>521.64999999999998</ele>
        <time>2016-03-14T21:27:49Z</time>
      </trkpt>
      <trkpt lat="37.939879959449172" lon="-6.867395276203752">
        <ele>520.69000000000005</ele>
        <time>2016-03-14T21:28:00Z</time>
      </trkpt>
      <trkpt lat="37.939174203202128" lon="-6.865383200347424">
        <ele>514.91999999999996</ele>
        <time>2016-03-14T21:28:11Z</time>
      </trkpt>
      <trkpt lat="37.938733315095305" lon="-6.864092387259007">
        <ele>513.48000000000002</ele>
        <time>2016-03-14T21:28:23Z</time>
      </trkpt>
      <trkpt lat="37.938599791377783" lon="-6.863838583230972">
        <ele>513.48000000000002</ele>
        <time>2016-03-14T21:28:35Z</time>
      </trkpt>
      <trkpt lat="37.937479298561811" lon="-6.861599525436759">
        <ele>513.96000000000004</ele>
        <time>2016-03-14T21:28:40Z</time>
      </trkpt>
      <trkpt lat="37.937088534235954" lon="-6.860834090039134">
        <ele>517.33000000000004</ele>
        <time>2016-03-14T21:28:41Z</time>
      </trkpt>
      <trkpt lat="37.936932044103742" lon="-6.86061792075634">
        <ele>517.80999999999995</ele>
        <time>2016-03-14T21:28:42Z</time>
      </trkpt>
      <trkpt lat="37.936753928661346" lon="-6.860422538593411">
        <ele>518.28999999999996</ele>
        <time>2016-03-14T21:28:43Z</time>
      </trkpt>
      <trkpt lat="37.935824794694781" lon="-6.859519053250551">
        <ele>518.76999999999998</ele>
        <time>2016-03-14T21:28:44Z</time>
      </trkpt>
      <trkpt lat="37.935676937922835" lon="-6.859311517328024">
        <ele>519.25</ele>
        <time>2016-03-14T21:28:45Z</time>
      </trkpt>
      <trkpt lat="37.93554081581533" lon="-6.859086966142058">
        <ele>529.34000000000003</ele>
        <time>2016-03-14T21:28:53Z</time>
      </trkpt>
      <trkpt lat="37.935422044247389" lon="-6.858844226226211">
        <ele>547.13</ele>
        <time>2016-03-14T21:29:07Z</time>
      </trkpt>
      <trkpt lat="37.935315845534205" lon="-6.858586817979813">
        <ele>562.02999999999997</ele>
        <time>2016-03-14T21:29:16Z</time>
      </trkpt>
      <trkpt lat="37.934077000245452" lon="-6.855529099702835">
        <ele>581.25</ele>
        <time>2016-03-14T21:29:24Z</time>
      </trkpt>
      <trkpt lat="37.932485695928335" lon="-6.852649496868253">
        <ele>590.87</ele>
        <time>2016-03-14T21:29:31Z</time>
      </trkpt>
      <trkpt lat="37.930522821843624" lon="-6.849603680893779">
        <ele>592.30999999999995</ele>
        <time>2016-03-14T21:29:39Z</time>
      </trkpt>
      <trkpt lat="37.928156275302172" lon="-6.847081063315272">
        <ele>594.23000000000002</ele>
        <time>2016-03-14T21:29:40Z</time>
      </trkpt>
      <trkpt lat="37.927252119407058" lon="-6.84627371840179">
        <ele>595.66999999999996</ele>
        <time>2016-03-14T21:29:41Z</time>
      </trkpt>
      <trkpt lat="37.9271100461483" lon="-6.846064841374755">
        <ele>597.12</ele>
        <time>2016-03-14T21:29:49Z</time>
      </trkpt>
      <trkpt lat="37.926985071972013" lon="-6.845835093408823">
        <ele>598.08000000000004</ele>
        <time>2016-03-14T21:29:50Z</time>
      </trkpt>
      <trkpt lat="37.926877867430449" lon="-6.845590258017182">
        <ele>605.76999999999998</ele>
        <time>2016-03-14T21:29:51Z</time>
      </trkpt>
      <trkpt lat="37.92678558267653" lon="-6.845333687961102">
        <ele>619.23000000000002</ele>
        <time>2016-03-14T21:29:52Z</time>
      </trkpt>
      <trkpt lat="37.926703188568354" lon="-6.845069322735071">
        <ele>614.89999999999998</ele>
        <time>2016-03-14T21:29:53Z</time>
      </trkpt>
      <trkpt lat="37.925914535298944" lon="-6.842950964346528">
        <ele>618.75</ele>
        <time>2016-03-14T21:30:04Z</time>
      </trkpt>
      <trkpt lat="37.923786286264658" lon="-6.839577415958047">
        <ele>619.71000000000004</ele>
        <time>2016-03-14T21:30:10Z</time>
      </trkpt>
      <trkpt lat="37.922332193702459" lon="-6.837583025917411">
        <ele>620.19000000000005</ele>
        <time>2016-03-14T21:30:20Z</time>
      </trkpt>
      <trkpt lat="37.920766118913889" lon="-6.83618500828743">
        <ele>620.66999999999996</ele>
        <time>2016-03-14T21:30:23Z</time>
      </trkpt>
      <trkpt lat="37.919767834246159" lon="-6.834963681176305">
        <ele>620.66999999999996</ele>
        <time>2016-03-14T21:30:24Z</time>
      </trkpt>
      <trkpt lat="37.91900809854269" lon="-6.833061072975397">
        <ele>619.23000000000002</ele>
        <time>2016-03-14T21:30:25Z</time>
      </trkpt>
      <trkpt lat="37.918960070237517" lon="-6.832811711356044">
        <ele>619.23000000000002</ele>
        <time>2016-03-14T21:30:26Z</time>
      </trkpt>
      <trkpt lat="37.918930649757385" lon="-6.832561008632183">
        <ele>619.71000000000004</ele>
        <time>2016-03-14T21:30:27Z</time>
      </trkpt>
      <trkpt lat="37.918720934540033" lon="-6.830477770417929">
        <ele>620.66999999999996</ele>
        <time>2016-03-14T21:30:28Z</time>
      </trkpt>
      <trkpt lat="37.918645916506648" lon="-6.830237545073032">
        <ele>621.63</ele>
        <time>2016-03-14T21:30:29Z</time>
      </trkpt>
      <trkpt lat="37.918553799390793" lon="-6.830007880926132">
        <ele>627.88</ele>
        <time>2016-03-14T21:30:30Z</time>
      </trkpt>
      <trkpt lat="37.918448271229863" lon="-6.829789783805609">
        <ele>632.67999999999995</ele>
        <time>2016-03-14T21:30:31Z</time>
      </trkpt>
      <trkpt lat="37.918336289003491" lon="-6.829581409692764">
        <ele>646.13999999999999</ele>
        <time>2016-03-14T21:30:32Z</time>
      </trkpt>
      <trkpt lat="37.916972804814577" lon="-6.827370515093207">
        <ele>649.50999999999999</ele>
        <time>2016-03-14T21:30:41Z</time>
      </trkpt>
      <trkpt lat="37.916515320539474" lon="-6.825982723385096">
        <ele>650.47000000000003</ele>
        <time>2016-03-14T21:30:53Z</time>
      </trkpt>
      <trkpt lat="37.916057500988245" lon="-6.823781887069345">
        <ele>650.95000000000005</ele>
        <time>2016-03-14T21:31:02Z</time>
      </trkpt>
      <trkpt lat="37.915953230112791" lon="-6.823385339230299">
        <ele>651.90999999999997</ele>
        <time>2016-03-14T21:31:03Z</time>
      </trkpt>
      <trkpt lat="37.915904615074396" lon="-6.823286768049002">
        <ele>652.38999999999999</ele>
        <time>2016-03-14T21:31:04Z</time>
      </trkpt>
      <trkpt lat="37.91585884988308" lon="-6.823198003694415">
        <ele>653.35000000000002</ele>
        <time>2016-03-14T21:31:05Z</time>
      </trkpt>
      <trkpt lat="37.915826328098774" lon="-6.823108736425638">
        <ele>653.83000000000004</ele>
        <time>2016-03-14T21:31:06Z</time>
      </trkpt>
      <trkpt lat="37.915813168510795" lon="-6.823010332882404">
        <ele>654.30999999999995</ele>
        <time>2016-03-14T21:31:14Z</time>
      </trkpt>
      <trkpt lat="37.915812497958541" lon="-6.822901032865048">
        <ele>655.27999999999997</ele>
        <time>2016-03-14T21:31:26Z</time>
      </trkpt>
      <trkpt lat="37.915814341977239" lon="-6.822780501097441">
        <ele>655.75999999999999</ele>
        <time>2016-03-14T21:31:27Z</time>
      </trkpt>
      <trkpt lat="37.915810737758875" lon="-6.822649072855711">
        <ele>664.40999999999997</ele>
        <time>2016-03-14T21:31:28Z</time>
      </trkpt>
      <trkpt lat="37.915795231238008" lon="-6.822508592158556">
        <ele>672.10000000000002</ele>
        <time>2016-03-14T21:31:29Z</time>
      </trkpt>
      <trkpt lat="37.915768744423985" lon="-6.822358975186944">
        <ele>679.30999999999995</ele>
        <time>2016-03-14T21:31:30Z</time>
      </trkpt>
      <trkpt lat="37.915262896567583" lon="-6.82102139107883">
        <ele>679.78999999999996</ele>
        <time>2016-03-14T21:31:31Z</time>
      </trkpt>
      <trkpt lat="37.914202501997352" lon="-6.819369737058878">
        <ele>679.78999999999996</ele>
        <time>2016-03-14T21:31:32Z</time>
      </trkpt>
      <trkpt lat="37.913481742143631" lon="-6.818171795457602">
        <ele>679.30999999999995</ele>
        <time>2016-03-14T21:31:33Z</time>
      </trkpt>
      <trkpt lat="37.913435893133283" lon="-6.818034667521715">
        <ele>679.30999999999995</ele>
        <time>2016-03-14T21:31:44Z</time>
      </trkpt>
      <trkpt lat="37.913397001102567" lon="-6.817883374169469">
        <ele>668.25</ele>
        <time>2016-03-14T21:31:45Z</time>
      </trkpt>
      <trkpt lat="37.913364227861166" lon="-6.817716574296355">
        <ele>648.07000000000005</ele>
        <time>2016-03-14T21:31:46Z</time>
      </trkpt>
      <trkpt lat="37.913337154313922" lon="-6.817534938454628">
        <ele>646.13999999999999</ele>
        <time>2016-03-14T21:31:53Z</time>
      </trkpt>
      <trkpt lat="37.913257190957665" lon="-6.815666360780597">
        <ele>644.70000000000005</ele>
        <time>2016-03-14T21:31:54Z</time>
      </trkpt>
      <trkpt lat="37.912964411079884" lon="-6.812589699402452">
        <ele>642.77999999999997</ele>
        <time>2016-03-14T21:31:55Z</time>
      </trkpt>
      <trkpt lat="37.912870282307267" lon="-6.812348803505302">
        <ele>640.86000000000001</ele>
        <time>2016-03-14T21:31:56Z</time>
      </trkpt>
      <trkpt lat="37.912755953148007" lon="-6.812120145186782">
        <ele>639.40999999999997</ele>
        <time>2016-03-14T21:31:57Z</time>
      </trkpt>
      <trkpt lat="37.912619411945343" lon="-6.811908837407827">
        <ele>637.97000000000003</ele>
        <time>2016-03-14T21:31:58Z</time>
      </trkpt>
      <trkpt lat="37.912470465525985" lon="-6.811709934845567">
        <ele>636.04999999999995</ele>
        <time>2016-03-14T21:31:59Z</time>
      </trkpt>
      <trkpt lat="37.91230115108192" lon="-6.811525952070952">
        <ele>615.86000000000001</ele>
        <time>2016-03-14T21:32:00Z</time>
      </trkpt>
      <trkpt lat="37.912119682878256" lon="-6.811353703960776">
        <ele>613.94000000000005</ele>
        <time>2016-03-14T21:32:01Z</time>
      </trkpt>
      <trkpt lat="37.91192882694304" lon="-6.81118581444025">
        <ele>612.5</ele>
        <time>2016-03-14T21:32:02Z</time>
      </trkpt>
      <trkpt lat="37.909627910703421" lon="-6.809416813775897">
        <ele>602.88</ele>
        <time>2016-03-14T21:32:03Z</time>
      </trkpt>
      <trkpt lat="37.909412747249007" lon="-6.809330228716135">
        <ele>602.39999999999998</ele>
        <time>2016-03-14T21:32:04Z</time>
      </trkpt>
      <trkpt lat="37.909187944605947" lon="-6.809268286451697">
        <ele>602.39999999999998</ele>
        <time>2016-03-14T21:32:05Z</time>
      </trkpt>
      <trkpt lat="37.907582055777311" lon="-6.808995539322496">
        <ele>602.39999999999998</ele>
        <time>2016-03-14T21:32:06Z</time>
      </trkpt>
      <trkpt lat="37.907381309196353" lon="-6.808901913464069">
        <ele>602.88</ele>
        <time>2016-03-14T21:32:07Z</time>
      </trkpt>
      <trkpt lat="37.907186262309551" lon="-6.808782638981938">
        <ele>603.36000000000001</ele>
        <time>2016-03-14T21:32:08Z</time>
      </trkpt>
      <trkpt lat="37.90700001642108" lon="-6.808641739189625">
        <ele>604.33000000000004</ele>
        <time>2016-03-14T21:32:09Z</time>
      </trkpt>
      <trkpt lat="37.906827013939619" lon="-6.808477118611336">
        <ele>605.76999999999998</ele>
        <time>2016-03-14T21:32:10Z</time>
      </trkpt>
      <trkpt lat="37.906667422503233" lon="-6.808291040360928">
        <ele>606.73000000000002</ele>
        <time>2016-03-14T21:32:21Z</time>
      </trkpt>
      <trkpt lat="37.906521325930953" lon="-6.80808836594224">
        <ele>608.16999999999996</ele>
        <time>2016-03-14T21:32:30Z</time>
      </trkpt>
      <trkpt lat="37.906390065327287" lon="-6.807870017364621">
        <ele>609.61000000000001</ele>
        <time>2016-03-14T21:32:37Z</time>
      </trkpt>
      <trkpt lat="37.906279759481549" lon="-6.807640185579658">
        <ele>610.57000000000005</ele>
        <time>2016-03-14T21:32:46Z</time>
      </trkpt>
      <trkpt lat="37.906188312917948" lon="-6.807400966063142">
        <ele>611.53999999999996</ele>
        <time>2016-03-14T21:32:47Z</time>
      </trkpt>
      <trkpt lat="37.906116899102926" lon="-6.807155711576343">
        <ele>612.5</ele>
        <time>2016-03-14T21:32:48Z</time>
      </trkpt>
      <trkpt lat="37.906066104769707" lon="-6.806902159005404">
        <ele>613.46000000000004</ele>
        <time>2016-03-14T21:32:49Z</time>
      </trkpt>
      <trkpt lat="37.906033080071211" lon="-6.806644164025784">
        <ele>613.94000000000005</ele>
        <time>2016-03-14T21:32:50Z</time>
      </trkpt>
      <trkpt lat="37.906017992645502" lon="-6.806382983922958">
        <ele>614.41999999999996</ele>
        <time>2016-03-14T21:32:51Z</time>
      </trkpt>
      <trkpt lat="37.906020926311612" lon="-6.806122474372387">
        <ele>614.89999999999998</ele>
        <time>2016-03-14T21:32:57Z</time>
      </trkpt>
      <trkpt lat="37.906041545793414" lon="-6.805861964821816">
        <ele>614.89999999999998</ele>
        <time>2016-03-14T21:32:58Z</time>
      </trkpt>
      <trkpt lat="37.90608094073832" lon="-6.80560220964253">
        <ele>598.55999999999995</ele>
        <time>2016-03-14T21:32:59Z</time>
      </trkpt>
      <trkpt lat="37.906130729243159" lon="-6.805346896871924">
        <ele>585.58000000000004</ele>
        <time>2016-03-14T21:33:00Z</time>
      </trkpt>
      <trkpt lat="37.906799353659153" lon="-6.80223754607141">
        <ele>569.72000000000003</ele>
        <time>2016-03-14T21:33:01Z</time>
      </trkpt>
      <trkpt lat="37.907369574531913" lon="-6.799234561622143">
        <ele>568.27999999999997</ele>
        <time>2016-03-14T21:33:05Z</time>
      </trkpt>
      <trkpt lat="37.907251222059131" lon="-6.796880252659321">
        <ele>567.32000000000005</ele>
        <time>2016-03-14T21:33:06Z</time>
      </trkpt>
      <trkpt lat="37.906915107741952" lon="-6.793920686468482">
        <ele>565.87</ele>
        <time>2016-03-14T21:33:07Z</time>
      </trkpt>
      <trkpt lat="37.906933464109898" lon="-6.793624050915241">
        <ele>564.42999999999995</ele>
        <time>2016-03-14T21:33:08Z</time>
      </trkpt>
      <trkpt lat="37.906977720558643" lon="-6.793334539979696">
        <ele>562.99000000000001</ele>
        <time>2016-03-14T21:33:09Z</time>
      </trkpt>
      <trkpt lat="37.907045194879174" lon="-6.793050058186054">
        <ele>553.86000000000001</ele>
        <time>2016-03-14T21:33:10Z</time>
      </trkpt>
      <trkpt lat="37.907131109386683" lon="-6.792765911668539">
        <ele>552.89999999999998</ele>
        <time>2016-03-14T21:33:11Z</time>
      </trkpt>
      <trkpt lat="37.907228507101536" lon="-6.792478999122977">
        <ele>551.92999999999995</ele>
        <time>2016-03-14T21:33:12Z</time>
      </trkpt>
      <trkpt lat="37.907725051045418" lon="-6.790760457515717">
        <ele>550.97000000000003</ele>
        <time>2016-03-14T21:33:13Z</time>
      </trkpt>
      <trkpt lat="37.907749274745584" lon="-6.790464241057634">
        <ele>550.00999999999999</ele>
        <time>2016-03-14T21:33:14Z</time>
      </trkpt>
      <trkpt lat="37.90775204077363" lon="-6.790159726515412">
        <ele>547.13</ele>
        <time>2016-03-14T21:33:15Z</time>
      </trkpt>
      <trkpt lat="37.907738881185651" lon="-6.789852865040302">
        <ele>546.16999999999996</ele>
        <time>2016-03-14T21:33:16Z</time>
      </trkpt>
      <trkpt lat="37.907717088237405" lon="-6.789546422660351">
        <ele>545.69000000000005</ele>
        <time>2016-03-14T21:33:25Z</time>
      </trkpt>
      <trkpt lat="37.907674424350262" lon="-6.788406483829022">
        <ele>545.20000000000005</ele>
        <time>2016-03-14T21:33:26Z</time>
      </trkpt>
      <trkpt lat="37.907702336087823" lon="-6.788136335089803">
        <ele>544.72000000000003</ele>
        <time>2016-03-14T21:33:31Z</time>
      </trkpt>
      <trkpt lat="37.907755728811026" lon="-6.787868198007345">
        <ele>544.24000000000001</ele>
        <time>2016-03-14T21:33:32Z</time>
      </trkpt>
      <trkpt lat="37.907834770157933" lon="-6.787605257704854">
        <ele>543.27999999999997</ele>
        <time>2016-03-14T21:33:33Z</time>
      </trkpt>
      <trkpt lat="37.907939879223704" lon="-6.787353716790676">
        <ele>542.79999999999995</ele>
        <time>2016-03-14T21:33:34Z</time>
      </trkpt>
      <trkpt lat="37.908066194504499" lon="-6.787117598578334">
        <ele>541.84000000000003</ele>
        <time>2016-03-14T21:33:35Z</time>
      </trkpt>
      <trkpt lat="37.908210949972272" lon="-6.786900758743286">
        <ele>541.36000000000001</ele>
        <time>2016-03-14T21:33:36Z</time>
      </trkpt>
      <trkpt lat="37.908373055979609" lon="-6.78670889697969">
        <ele>540.88</ele>
        <time>2016-03-14T21:33:37Z</time>
      </trkpt>
      <trkpt lat="37.90854899212718" lon="-6.78654033690691">
        <ele>540.39999999999998</ele>
        <time>2016-03-14T21:33:44Z</time>
      </trkpt>
      <trkpt lat="37.908739931881428" lon="-6.786394827067852">
        <ele>536.54999999999995</ele>
        <time>2016-03-14T21:33:50Z</time>
      </trkpt>
      <trkpt lat="37.908945791423321" lon="-6.786267338320613">
        <ele>536.07000000000005</ele>
        <time>2016-03-14T21:33:55Z</time>
      </trkpt>
      <trkpt lat="37.909159362316132" lon="-6.786144794896245">
        <ele>533.66999999999996</ele>
        <time>2016-03-14T21:33:56Z</time>
      </trkpt>
      <trkpt lat="37.911179400980473" lon="-6.785032264888287">
        <ele>533.19000000000005</ele>
        <time>2016-03-14T21:33:57Z</time>
      </trkpt>
      <trkpt lat="37.911416441202164" lon="-6.784982308745384">
        <ele>532.23000000000002</ele>
        <time>2016-03-14T21:33:58Z</time>
      </trkpt>
      <trkpt lat="37.912610694766045" lon="-6.784757673740387">
        <ele>530.78999999999996</ele>
        <time>2016-03-14T21:33:59Z</time>
      </trkpt>
      <trkpt lat="37.912839436903596" lon="-6.784641835838556">
        <ele>529.34000000000003</ele>
        <time>2016-03-14T21:34:00Z</time>
      </trkpt>
      <trkpt lat="37.913059797137976" lon="-6.784488614648581">
        <ele>527.41999999999996</ele>
        <time>2016-03-14T21:34:01Z</time>
      </trkpt>
      <trkpt lat="37.913268087431788" lon="-6.784298429265618">
        <ele>525.01999999999998</ele>
        <time>2016-03-14T21:34:02Z</time>
      </trkpt>
      <trkpt lat="37.913460368290544" lon="-6.784076560288668">
        <ele>510.12</ele>
        <time>2016-03-14T21:34:03Z</time>
      </trkpt>
      <trkpt lat="37.913638316094875" lon="-6.783824851736426">
        <ele>496.66000000000003</ele>
        <time>2016-03-14T21:34:04Z</time>
      </trkpt>
      <trkpt lat="37.913808636367321" lon="-6.783558139577508">
        <ele>484.63999999999999</ele>
        <time>2016-03-14T21:34:07Z</time>
      </trkpt>
      <trkpt lat="37.915174635127187" lon="-6.781878992915154">
        <ele>482.24000000000001</ele>
        <time>2016-03-14T21:34:08Z</time>
      </trkpt>
      <trkpt lat="37.91669343598187" lon="-6.780990678817034">
        <ele>480.31999999999999</ele>
        <time>2016-03-14T21:34:09Z</time>
      </trkpt>
      <trkpt lat="37.917898753657937" lon="-6.7802067194134">
        <ele>477.43000000000001</ele>
        <time>2016-03-14T21:34:10Z</time>
      </trkpt>
      <trkpt lat="37.918090363964438" lon="-6.779993819072843">
        <ele>475.50999999999999</ele>
        <time>2016-03-14T21:34:11Z</time>
      </trkpt>
      <trkpt lat="37.918261857703328" lon="-6.779753342270851">
        <ele>473.11000000000001</ele>
        <time>2016-03-14T21:34:12Z</time>
      </trkpt>
      <trkpt lat="37.918411307036877" lon="-6.77948797121644">
        <ele>470.69999999999999</ele>
        <time>2016-03-14T21:34:13Z</time>
      </trkpt>
      <trkpt lat="37.918536197394133" lon="-6.779202315956354">
        <ele>468.30000000000001</ele>
        <time>2016-03-14T21:34:14Z</time>
      </trkpt>
      <trkpt lat="37.918636864051223" lon="-6.778903249651194">
        <ele>465.89999999999998</ele>
        <time>2016-03-14T21:34:17Z</time>
      </trkpt>
      <trkpt lat="37.918709116056561" lon="-6.77859228104353">
        <ele>463.49000000000001</ele>
        <time>2016-03-14T21:34:18Z</time>
      </trkpt>
      <trkpt lat="37.918752366676927" lon="-6.778268991038203">
        <ele>457.72000000000003</ele>
        <time>2016-03-14T21:34:19Z</time>
      </trkpt>
      <trkpt lat="37.918772734701633" lon="-6.777939582243562">
        <ele>456.27999999999997</ele>
        <time>2016-03-14T21:34:25Z</time>
      </trkpt>
      <trkpt lat="37.918782373890281" lon="-6.777615118771792">
        <ele>454.83999999999997</ele>
        <time>2016-03-14T21:34:26Z</time>
      </trkpt>
      <trkpt lat="37.918838616460562" lon="-6.776732504367828">
        <ele>453.88</ele>
        <time>2016-03-14T21:34:27Z</time>
      </trkpt>
      <trkpt lat="37.918891506269574" lon="-6.776468139141798">
        <ele>452.44</ele>
        <time>2016-03-14T21:34:28Z</time>
      </trkpt>
      <trkpt lat="37.918965518474579" lon="-6.776215508580208">
        <ele>451.48000000000002</ele>
        <time>2016-03-14T21:34:29Z</time>
      </trkpt>
      <trkpt lat="37.919059814885259" lon="-6.775976540520787">
        <ele>450.51999999999998</ele>
        <time>2016-03-14T21:34:32Z</time>
      </trkpt>
      <trkpt lat="37.919175317510962" lon="-6.775758024305105">
        <ele>449.55000000000001</ele>
        <time>2016-03-14T21:34:33Z</time>
      </trkpt>
      <trkpt lat="37.9193115234375" lon="-6.775558115914464">
        <ele>446.67000000000002</ele>
        <time>2016-03-14T21:34:34Z</time>
      </trkpt>
      <trkpt lat="37.919465498998761" lon="-6.77537078037858">
        <ele>445.70999999999998</ele>
        <time>2016-03-14T21:34:35Z</time>
      </trkpt>
      <trkpt lat="37.919634394347668" lon="-6.77519291639328">
        <ele>444.26999999999998</ele>
        <time>2016-03-14T21:34:36Z</time>
      </trkpt>
      <trkpt lat="37.920183576643467" lon="-6.774718835949898">
        <ele>440.42000000000002</ele>
        <time>2016-03-14T21:34:37Z</time>
      </trkpt>
      <trkpt lat="37.920381892472506" lon="-6.774606015533209">
        <ele>439.94</ele>
        <time>2016-03-14T21:34:38Z</time>
      </trkpt>
      <trkpt lat="37.920589847490191" lon="-6.774520352482796">
        <ele>439.45999999999998</ele>
        <time>2016-03-14T21:34:39Z</time>
      </trkpt>
      <trkpt lat="37.921707658097148" lon="-6.77418876439333">
        <ele>438.98000000000002</ele>
        <time>2016-03-14T21:34:40Z</time>
      </trkpt>
      <trkpt lat="37.921857945621014" lon="-6.7742093000561">
        <ele>438.98000000000002</ele>
        <time>2016-03-14T21:34:41Z</time>
      </trkpt>
      <trkpt lat="37.922000689432025" lon="-6.774268392473459">
        <ele>438.01999999999998</ele>
        <time>2016-03-14T21:34:42Z</time>
      </trkpt>
      <trkpt lat="37.922138823196292" lon="-6.774363443255425">
        <ele>438.01999999999998</ele>
        <time>2016-03-14T21:34:43Z</time>
      </trkpt>
      <trkpt lat="37.922275196760893" lon="-6.774472827091813">
        <ele>438.5</ele>
        <time>2016-03-14T21:34:44Z</time>
      </trkpt>
      <trkpt lat="37.922641150653362" lon="-6.774733169004321">
        <ele>438.5</ele>
        <time>2016-03-14T21:34:45Z</time>
      </trkpt>
      <trkpt lat="37.922751121222973" lon="-6.774768456816673">
        <ele>438.5</ele>
        <time>2016-03-14T21:34:46Z</time>
      </trkpt>
      <trkpt lat="37.922864863649011" lon="-6.7747619189322">
        <ele>438.98000000000002</ele>
        <time>2016-03-14T21:34:47Z</time>
      </trkpt>
      <trkpt lat="37.922977264970541" lon="-6.774713136255741">
        <ele>439.45999999999998</ele>
        <time>2016-03-14T21:34:48Z</time>
      </trkpt>
      <trkpt lat="37.923086062073708" lon="-6.774633172899485">
        <ele>439.45999999999998</ele>
        <time>2016-03-14T21:34:49Z</time>
      </trkpt>
      <trkpt lat="37.923194859176874" lon="-6.774540636688471">
        <ele>439.45999999999998</ele>
        <time>2016-03-14T21:34:50Z</time>
      </trkpt>
      <trkpt lat="37.923306841403246" lon="-6.774455057457089">
        <ele>439.45999999999998</ele>
        <time>2016-03-14T21:34:51Z</time>
      </trkpt>
      <trkpt lat="37.923425110056996" lon="-6.774390265345573">
        <ele>438.98000000000002</ele>
        <time>2016-03-14T21:34:52Z</time>
      </trkpt>
      <trkpt lat="37.92354941368103" lon="-6.774350367486477">
        <ele>438.98000000000002</ele>
        <time>2016-03-14T21:34:53Z</time>
      </trkpt>
      <trkpt lat="37.923675142228603" lon="-6.774342153221369">
        <ele>438.98000000000002</ele>
        <time>2016-03-14T21:34:54Z</time>
      </trkpt>
      <trkpt lat="37.923800367861986" lon="-6.774366544559598">
        <ele>438.98000000000002</ele>
        <time>2016-03-14T21:34:55Z</time>
      </trkpt>
      <trkpt lat="37.923924587666988" lon="-6.774416752159596">
        <ele>438.98000000000002</ele>
        <time>2016-03-14T21:34:56Z</time>
      </trkpt>
      <trkpt lat="37.924045957624912" lon="-6.77448489703238">
        <ele>438.98000000000002</ele>
        <time>2016-03-14T21:34:57Z</time>
      </trkpt>
      <trkpt lat="37.924160957336426" lon="-6.77456553094089">
        <ele>439.45999999999998</ele>
        <time>2016-03-14T21:34:58Z</time>
      </trkpt>
      <trkpt lat="37.924267910420895" lon="-6.774654714390636">
        <ele>439.45999999999998</ele>
        <time>2016-03-14T21:35:09Z</time>
      </trkpt>
      <trkpt lat="37.924368074163795" lon="-6.774740293622017">
        <ele>439.45999999999998</ele>
        <time>2016-03-14T21:35:18Z</time>
      </trkpt>
      <trkpt lat="37.924469579011202" lon="-6.774811455979943">
        <ele>439.94</ele>
        <time>2016-03-14T21:35:31Z</time>
      </trkpt>
      <trkpt lat="37.924576951190829" lon="-6.774850431829691">
        <ele>439.94</ele>
        <time>2016-03-14T21:35:43Z</time>
      </trkpt>
      <trkpt lat="37.924686167389154" lon="-6.774840708822012">
        <ele>440.42000000000002</ele>
        <time>2016-03-14T21:35:50Z</time>
      </trkpt>
      <trkpt lat="37.924792114645243" lon="-6.77478639408946">
        <ele>439.94</ele>
        <time>2016-03-14T21:35:51Z</time>
      </trkpt>
      <trkpt lat="37.924892865121365" lon="-6.774701150134206">
        <ele>439.94</ele>
        <time>2016-03-14T21:36:01Z</time>
      </trkpt>
      <trkpt lat="37.924992190673947" lon="-6.774607272818685">
        <ele>439.94</ele>
        <time>2016-03-14T21:36:02Z</time>
      </trkpt>
      <trkpt lat="37.925084391608834" lon="-6.774510378018022">
        <ele>439.94</ele>
        <time>2016-03-14T21:36:06Z</time>
      </trkpt>
      <trkpt lat="37.925160247832537" lon="-6.774400155991316">
        <ele>439.94</ele>
        <time>2016-03-14T21:36:07Z</time>
      </trkpt>
      <trkpt lat="37.925219507887959" lon="-6.774271074682474">
        <ele>441.86000000000001</ele>
        <time>2016-03-14T21:36:08Z</time>
      </trkpt>
      <trkpt lat="37.925262507051229" lon="-6.774122379720211">
        <ele>445.70999999999998</ele>
        <time>2016-03-14T21:36:09Z</time>
      </trkpt>
      <trkpt lat="37.925297962501645" lon="-6.773960357531905">
        <ele>452.44</ele>
        <time>2016-03-14T21:36:10Z</time>
      </trkpt>
      <trkpt lat="37.925686379894614" lon="-6.772268805652857">
        <ele>463.97000000000003</ele>
        <time>2016-03-14T21:36:11Z</time>
      </trkpt>
      <trkpt lat="37.925862651318312" lon="-6.771445954218507">
        <ele>471.66000000000003</ele>
        <time>2016-03-14T21:36:12Z</time>
      </trkpt>
      <trkpt lat="37.926296582445502" lon="-6.769555835053325">
        <ele>472.63</ele>
        <time>2016-03-14T21:36:13Z</time>
      </trkpt>
      <trkpt lat="37.926757084205747" lon="-6.767454072833061">
        <ele>476.47000000000003</ele>
        <time>2016-03-14T21:36:14Z</time>
      </trkpt>
      <trkpt lat="37.92682958766818" lon="-6.765961842611432">
        <ele>476.47000000000003</ele>
        <time>2016-03-14T21:36:15Z</time>
      </trkpt>
      <trkpt lat="37.926807040348649" lon="-6.765748355537653">
        <ele>477.43000000000001</ele>
        <time>2016-03-14T21:36:16Z</time>
      </trkpt>
      <trkpt lat="37.926453910768032" lon="-6.763518936932087">
        <ele>478.38999999999999</ele>
        <time>2016-03-14T21:36:17Z</time>
      </trkpt>
      <trkpt lat="37.92638098821044" lon="-6.763314418494701">
        <ele>479.35000000000002</ele>
        <time>2016-03-14T21:36:26Z</time>
      </trkpt>
      <trkpt lat="37.926055602729321" lon="-6.762561304494739">
        <ele>480.31999999999999</ele>
        <time>2016-03-14T21:36:33Z</time>
      </trkpt>
      <trkpt lat="37.926006903871894" lon="-6.762364916503429">
        <ele>481.27999999999997</ele>
        <time>2016-03-14T21:36:40Z</time>
      </trkpt>
      <trkpt lat="37.925972621887922" lon="-6.762160481885076">
        <ele>482.24000000000001</ele>
        <time>2016-03-14T21:36:47Z</time>
      </trkpt>
      <trkpt lat="37.925957199186087" lon="-6.761948838829994">
        <ele>483.68000000000001</ele>
        <time>2016-03-14T21:36:55Z</time>
      </trkpt>
      <trkpt lat="37.925962563604116" lon="-6.761731915175915">
        <ele>484.63999999999999</ele>
        <time>2016-03-14T21:37:04Z</time>
      </trkpt>
      <trkpt lat="37.9259910620749" lon="-6.761516500264406">
        <ele>485.60000000000002</ele>
        <time>2016-03-14T21:37:05Z</time>
      </trkpt>
      <trkpt lat="37.926041018217802" lon="-6.761308126151562">
        <ele>487.05000000000001</ele>
        <time>2016-03-14T21:37:06Z</time>
      </trkpt>
      <trkpt lat="37.92611519806087" lon="-6.761110732331872">
        <ele>488.00999999999999</ele>
        <time>2016-03-14T21:37:07Z</time>
      </trkpt>
      <trkpt lat="37.926207985728979" lon="-6.760924570262432">
        <ele>489.44999999999999</ele>
        <time>2016-03-14T21:37:08Z</time>
      </trkpt>
      <trkpt lat="37.926311837509274" lon="-6.760750645771623">
        <ele>501.45999999999998</ele>
        <time>2016-03-14T21:37:09Z</time>
      </trkpt>
      <trkpt lat="37.926429519429803" lon="-6.760586444288492">
        <ele>512.03999999999996</ele>
        <time>2016-03-14T21:37:24Z</time>
      </trkpt>
      <trkpt lat="37.926553068682551" lon="-6.760425679385662">
        <ele>522.61000000000001</ele>
        <time>2016-03-14T21:37:29Z</time>
      </trkpt>
      <trkpt lat="37.927465606480837" lon="-6.758712753653526">
        <ele>533.66999999999996</ele>
        <time>2016-03-14T21:37:30Z</time>
      </trkpt>
      <trkpt lat="37.927703987807035" lon="-6.757074426859617">
        <ele>546.16999999999996</ele>
        <time>2016-03-14T21:37:35Z</time>
      </trkpt>
      <trkpt lat="37.927420344203711" lon="-6.755379773676395">
        <ele>561.07000000000005</ele>
        <time>2016-03-14T21:37:36Z</time>
      </trkpt>
      <trkpt lat="37.926638731732965" lon="-6.753925429657102">
        <ele>562.50999999999999</ele>
        <time>2016-03-14T21:37:37Z</time>
      </trkpt>
      <trkpt lat="37.925846809521317" lon="-6.752182245254517">
        <ele>563.47000000000003</ele>
        <time>2016-03-14T21:37:38Z</time>
      </trkpt>
      <trkpt lat="37.925206599757075" lon="-6.750023318454623">
        <ele>564.90999999999997</ele>
        <time>2016-03-14T21:37:39Z</time>
      </trkpt>
      <trkpt lat="37.925205677747726" lon="-6.749758198857307">
        <ele>566.35000000000002</ele>
        <time>2016-03-14T21:37:40Z</time>
      </trkpt>
      <trkpt lat="37.925219172611833" lon="-6.749491319060326">
        <ele>567.79999999999995</ele>
        <time>2016-03-14T21:37:41Z</time>
      </trkpt>
      <trkpt lat="37.925249012187123" lon="-6.749221673235297">
        <ele>587.01999999999998</ele>
        <time>2016-03-14T21:37:42Z</time>
      </trkpt>
      <trkpt lat="37.925290670245886" lon="-6.748959235846996">
        <ele>586.05999999999995</ele>
        <time>2016-03-14T21:37:51Z</time>
      </trkpt>
      <trkpt lat="37.925340961664915" lon="-6.748699899762869">
        <ele>585.10000000000002</ele>
        <time>2016-03-14T21:38:00Z</time>
      </trkpt>
      <trkpt lat="37.926122490316629" lon="-6.744631826877594">
        <ele>577.88999999999999</ele>
        <time>2016-03-14T21:38:06Z</time>
      </trkpt>
      <trkpt lat="37.926347041502595" lon="-6.743254261091352">
        <ele>575.97000000000003</ele>
        <time>2016-03-14T21:38:07Z</time>
      </trkpt>
      <trkpt lat="37.926349136978388" lon="-6.742962570860982">
        <ele>574.52999999999997</ele>
        <time>2016-03-14T21:38:08Z</time>
      </trkpt>
      <trkpt lat="37.926306305453181" lon="-6.741477884352207">
        <ele>573.08000000000004</ele>
        <time>2016-03-14T21:38:09Z</time>
      </trkpt>
      <trkpt lat="37.926341257989407" lon="-6.741199269890785">
        <ele>571.63999999999999</ele>
        <time>2016-03-14T21:38:10Z</time>
      </trkpt>
      <trkpt lat="37.926399344578385" lon="-6.740933312103152">
        <ele>570.20000000000005</ele>
        <time>2016-03-14T21:38:11Z</time>
      </trkpt>
      <trkpt lat="37.926477715373039" lon="-6.740676742047072">
        <ele>568.75999999999999</ele>
        <time>2016-03-14T21:38:12Z</time>
      </trkpt>
      <trkpt lat="37.926575029268861" lon="-6.740425368770957">
        <ele>567.32000000000005</ele>
        <time>2016-03-14T21:38:13Z</time>
      </trkpt>
      <trkpt lat="37.926695644855499" lon="-6.740179359912872">
        <ele>556.25999999999999</ele>
        <time>2016-03-14T21:38:14Z</time>
      </trkpt>
      <trkpt lat="37.926834365352988" lon="-6.739942571148276">
        <ele>562.50999999999999</ele>
        <time>2016-03-14T21:38:27Z</time>
      </trkpt>
      <trkpt lat="37.926984988152981" lon="-6.739708883687854">
        <ele>567.79999999999995</ele>
        <time>2016-03-14T21:38:33Z</time>
      </trkpt>
      <trkpt lat="37.928332379087806" lon="-6.737410398200154">
        <ele>568.27999999999997</ele>
        <time>2016-03-14T21:38:34Z</time>
      </trkpt>
      <trkpt lat="37.929166881367564" lon="-6.73493086360395">
        <ele>568.75999999999999</ele>
        <time>2016-03-14T21:38:44Z</time>
      </trkpt>
      <trkpt lat="37.929790578782558" lon="-6.733462857082486">
        <ele>568.75999999999999</ele>
        <time>2016-03-14T21:38:50Z</time>
      </trkpt>
      <trkpt lat="37.929852269589901" lon="-6.733189187943935">
        <ele>568.27999999999997</ele>
        <time>2016-03-14T21:38:57Z</time>
      </trkpt>
      <trkpt lat="37.929891077801585" lon="-6.732904287055135">
        <ele>567.79999999999995</ele>
        <time>2016-03-14T21:38:59Z</time>
      </trkpt>
      <trkpt lat="37.929903902113438" lon="-6.732614859938622">
        <ele>567.32000000000005</ele>
        <time>2016-03-14T21:39:00Z</time>
      </trkpt>
      <trkpt lat="37.929897867143154" lon="-6.732322918251157">
        <ele>566.35000000000002</ele>
        <time>2016-03-14T21:39:01Z</time>
      </trkpt>
      <trkpt lat="37.929862327873707" lon="-6.732037598267198">
        <ele>565.38999999999999</ele>
        <time>2016-03-14T21:39:02Z</time>
      </trkpt>
      <trkpt lat="37.929807174950838" lon="-6.731758648529649">
        <ele>552.40999999999997</ele>
        <time>2016-03-14T21:39:03Z</time>
      </trkpt>
      <trkpt lat="37.929736850783229" lon="-6.731483722105622">
        <ele>548.09000000000003</ele>
        <time>2016-03-14T21:39:04Z</time>
      </trkpt>
      <trkpt lat="37.929653534665704" lon="-6.73120946623385">
        <ele>548.09000000000003</ele>
        <time>2016-03-14T21:39:05Z</time>
      </trkpt>
      <trkpt lat="37.928399015218019" lon="-6.727456972002983">
        <ele>552.89999999999998</ele>
        <time>2016-03-14T21:39:06Z</time>
      </trkpt>
      <trkpt lat="37.927974723279476" lon="-6.725713703781366">
        <ele>548.57000000000005</ele>
        <time>2016-03-14T21:39:07Z</time>
      </trkpt>
      <trkpt lat="37.927960138767958" lon="-6.725412206724286">
        <ele>540.39999999999998</ele>
        <time>2016-03-14T21:39:08Z</time>
      </trkpt>
      <trkpt lat="37.928016884252429" lon="-6.722497148439288">
        <ele>538.48000000000002</ele>
        <time>2016-03-14T21:39:09Z</time>
      </trkpt>
      <trkpt lat="37.927696527913213" lon="-6.720962841063738">
        <ele>537.99000000000001</ele>
        <time>2016-03-14T21:39:10Z</time>
      </trkpt>
      <trkpt lat="37.927091186866164" lon="-6.719342116266489">
        <ele>537.50999999999999</ele>
        <time>2016-03-14T21:39:11Z</time>
      </trkpt>
      <trkpt lat="37.926909886300564" lon="-6.719048162922263">
        <ele>537.02999999999997</ele>
        <time>2016-03-14T21:39:12Z</time>
      </trkpt>
      <trkpt lat="37.92680511251092" lon="-6.718937521800399">
        <ele>537.02999999999997</ele>
        <time>2016-03-14T21:39:13Z</time>
      </trkpt>
      <trkpt lat="37.926699500530958" lon="-6.718859737738967">
        <ele>536.54999999999995</ele>
        <time>2016-03-14T21:39:14Z</time>
      </trkpt>
      <trkpt lat="37.926609646528959" lon="-6.718790251761675">
        <ele>536.54999999999995</ele>
        <time>2016-03-14T21:39:21Z</time>
      </trkpt>
      <trkpt lat="37.926529180258512" lon="-6.718715485185385">
        <ele>536.54999999999995</ele>
        <time>2016-03-14T21:39:25Z</time>
      </trkpt>
      <trkpt lat="37.926473608240485" lon="-6.718616243451834">
        <ele>536.07000000000005</ele>
        <time>2016-03-14T21:39:26Z</time>
      </trkpt>
      <trkpt lat="37.926443181931973" lon="-6.718499734997749">
        <ele>536.07000000000005</ele>
        <time>2016-03-14T21:39:27Z</time>
      </trkpt>
      <trkpt lat="37.926431363448501" lon="-6.718369564041495">
        <ele>536.07000000000005</ele>
        <time>2016-03-14T21:39:28Z</time>
      </trkpt>
      <trkpt lat="37.926431782543659" lon="-6.718223886564374">
        <ele>536.07000000000005</ele>
        <time>2016-03-14T21:39:29Z</time>
      </trkpt>
      <trkpt lat="37.926423065364361" lon="-6.718085166066885">
        <ele>536.07000000000005</ele>
        <time>2016-03-14T21:39:30Z</time>
      </trkpt>
      <trkpt lat="37.926397752016783" lon="-6.71795348636806">
        <ele>536.07000000000005</ele>
        <time>2016-03-14T21:39:37Z</time>
      </trkpt>
      <trkpt lat="37.926349136978388" lon="-6.717834379523993">
        <ele>536.07000000000005</ele>
        <time>2016-03-14T21:39:38Z</time>
      </trkpt>
      <trkpt lat="37.926279567182064" lon="-6.717724660411477">
        <ele>536.07000000000005</ele>
        <time>2016-03-14T21:39:41Z</time>
      </trkpt>
      <trkpt lat="37.926207985728979" lon="-6.717609241604805">
        <ele>537.02999999999997</ele>
        <time>2016-03-14T21:39:42Z</time>
      </trkpt>
      <trkpt lat="37.926150234416127" lon="-6.717476975172758">
        <ele>539.44000000000005</ele>
        <time>2016-03-14T21:39:43Z</time>
      </trkpt>
      <trkpt lat="37.926103798672557" lon="-6.717325933277607">
        <ele>540.39999999999998</ele>
        <time>2016-03-14T21:39:45Z</time>
      </trkpt>
      <trkpt lat="37.925557633861899" lon="-6.716170571744442">
        <ele>540.39999999999998</ele>
        <time>2016-03-14T21:39:46Z</time>
      </trkpt>
      <trkpt lat="37.925224285572767" lon="-6.715581743046641">
        <ele>540.88</ele>
        <time>2016-03-14T21:39:47Z</time>
      </trkpt>
      <trkpt lat="37.925179358571768" lon="-6.71542969532311">
        <ele>541.36000000000001</ele>
        <time>2016-03-14T21:39:48Z</time>
      </trkpt>
      <trkpt lat="37.925150441005826" lon="-6.715261386707425">
        <ele>541.84000000000003</ele>
        <time>2016-03-14T21:39:49Z</time>
      </trkpt>
      <trkpt lat="37.925130324438214" lon="-6.71508276835084">
        <ele>547.61000000000001</ele>
        <time>2016-03-14T21:39:58Z</time>
      </trkpt>
      <trkpt lat="37.925119260326028" lon="-6.71489174477756">
        <ele>548.57000000000005</ele>
        <time>2016-03-14T21:40:06Z</time>
      </trkpt>
      <trkpt lat="37.925112890079618" lon="-6.714703571051359">
        <ele>550.00999999999999</ele>
        <time>2016-03-14T21:40:16Z</time>
      </trkpt>
      <trkpt lat="37.925061089918017" lon="-6.713748453184962">
        <ele>550.49000000000001</ele>
        <time>2016-03-14T21:40:25Z</time>
      </trkpt>
      <trkpt lat="37.925046505406499" lon="-6.713619707152247">
        <ele>550.97000000000003</ele>
        <time>2016-03-14T21:40:26Z</time>
      </trkpt>
      <trkpt lat="37.924981294199824" lon="-6.713199941441417">
        <ele>551.45000000000005</ele>
        <time>2016-03-14T21:40:27Z</time>
      </trkpt>
      <trkpt lat="37.924982802942395" lon="-6.713057281449437">
        <ele>551.45000000000005</ele>
        <time>2016-03-14T21:40:28Z</time>
      </trkpt>
      <trkpt lat="37.924996046349406" lon="-6.712922500446439">
        <ele>551.45000000000005</ele>
        <time>2016-03-14T21:40:29Z</time>
      </trkpt>
      <trkpt lat="37.92502898722887" lon="-6.712682442739606">
        <ele>551.45000000000005</ele>
        <time>2016-03-14T21:40:30Z</time>
      </trkpt>
      <trkpt lat="37.925030747428536" lon="-6.712571633979678">
        <ele>551.45000000000005</ele>
        <time>2016-03-14T21:40:31Z</time>
      </trkpt>
      <trkpt lat="37.925016917288303" lon="-6.712458143010736">
        <ele>555.29999999999995</ele>
        <time>2016-03-14T21:40:32Z</time>
      </trkpt>
      <trkpt lat="37.924989005550742" lon="-6.712337359786034">
        <ele>563.47000000000003</ele>
        <time>2016-03-14T21:40:33Z</time>
      </trkpt>
      <trkpt lat="37.92495128698647" lon="-6.712204590439796">
        <ele>571.63999999999999</ele>
        <time>2016-03-14T21:40:34Z</time>
      </trkpt>
      <trkpt lat="37.924549458548427" lon="-6.710767010226846">
        <ele>576.45000000000005</ele>
        <time>2016-03-14T21:40:35Z</time>
      </trkpt>
      <trkpt lat="37.923992229625583" lon="-6.709458511322737">
        <ele>576.45000000000005</ele>
        <time>2016-03-14T21:40:36Z</time>
      </trkpt>
      <trkpt lat="37.923607332631946" lon="-6.707911128178239">
        <ele>576.45000000000005</ele>
        <time>2016-03-14T21:40:37Z</time>
      </trkpt>
      <trkpt lat="37.923443969339132" lon="-6.706709330901504">
        <ele>576.45000000000005</ele>
        <time>2016-03-14T21:40:39Z</time>
      </trkpt>
      <trkpt lat="37.923403903841972" lon="-6.70663389377296">
        <ele>576.92999999999995</ele>
        <time>2016-03-14T21:40:44Z</time>
      </trkpt>
      <trkpt lat="37.923345314338803" lon="-6.706582261249423">
        <ele>576.92999999999995</ele>
        <time>2016-03-14T21:40:45Z</time>
      </trkpt>
      <trkpt lat="37.923261243849993" lon="-6.706550242379308">
        <ele>577.88999999999999</ele>
        <time>2016-03-14T21:40:46Z</time>
      </trkpt>
      <trkpt lat="37.923166360706091" lon="-6.706530209630728">
        <ele>578.85000000000002</ele>
        <time>2016-03-14T21:40:47Z</time>
      </trkpt>
      <trkpt lat="37.923061670735478" lon="-6.706520654261112">
        <ele>579.80999999999995</ele>
        <time>2016-03-14T21:40:48Z</time>
      </trkpt>
      <trkpt lat="37.922947760671377" lon="-6.706517888233066">
        <ele>580.76999999999998</ele>
        <time>2016-03-14T21:40:49Z</time>
      </trkpt>
      <trkpt lat="37.922831419855356" lon="-6.706507997587323">
        <ele>581.73000000000002</ele>
        <time>2016-03-14T21:40:50Z</time>
      </trkpt>
      <trkpt lat="37.922723209485412" lon="-6.70647413469851">
        <ele>582.70000000000005</ele>
        <time>2016-03-14T21:40:51Z</time>
      </trkpt>
      <trkpt lat="37.922622710466385" lon="-6.706411773338914">
        <ele>583.65999999999997</ele>
        <time>2016-03-14T21:40:52Z</time>
      </trkpt>
      <trkpt lat="37.922524306923151" lon="-6.706326864659786">
        <ele>585.58000000000004</ele>
        <time>2016-03-14T21:40:53Z</time>
      </trkpt>
      <trkpt lat="37.922424143180251" lon="-6.706226700916886">
        <ele>587.5</ele>
        <time>2016-03-14T21:40:54Z</time>
      </trkpt>
      <trkpt lat="37.922319872304797" lon="-6.706116562709212">
        <ele>587.98000000000002</ele>
        <time>2016-03-14T21:40:55Z</time>
      </trkpt>
      <trkpt lat="37.922093728557229" lon="-6.705925455316901">
        <ele>588.46000000000004</ele>
        <time>2016-03-14T21:40:56Z</time>
      </trkpt>
      <trkpt lat="37.921433905139565" lon="-6.705452213063836">
        <ele>588.46000000000004</ele>
        <time>2016-03-14T21:40:57Z</time>
      </trkpt>
      <trkpt lat="37.92131002061069" lon="-6.705317264422774">
        <ele>588.95000000000005</ele>
        <time>2016-03-14T21:40:58Z</time>
      </trkpt>
      <trkpt lat="37.921189488843083" lon="-6.70516555197537">
        <ele>588.95000000000005</ele>
        <time>2016-03-14T21:40:59Z</time>
      </trkpt>
      <trkpt lat="37.921078344807029" lon="-6.704999255016446">
        <ele>588.95000000000005</ele>
        <time>2016-03-14T21:41:07Z</time>
      </trkpt>
      <trkpt lat="37.920977510511875" lon="-6.70481963083148">
        <ele>589.42999999999995</ele>
        <time>2016-03-14T21:41:18Z</time>
      </trkpt>
      <trkpt lat="37.920888075605035" lon="-6.704630283638835">
        <ele>589.42999999999995</ele>
        <time>2016-03-14T21:41:29Z</time>
      </trkpt>
      <trkpt lat="37.920811213552952" lon="-6.704433392733336">
        <ele>589.42999999999995</ele>
        <time>2016-03-14T21:41:39Z</time>
      </trkpt>
      <trkpt lat="37.920747008174658" lon="-6.70422543771565">
        <ele>589.90999999999997</ele>
        <time>2016-03-14T21:41:45Z</time>
      </trkpt>
      <trkpt lat="37.920697219669819" lon="-6.704001724720001">
        <ele>589.90999999999997</ele>
        <time>2016-03-14T21:41:46Z</time>
      </trkpt>
      <trkpt lat="37.920663608238101" lon="-6.703765271231532">
        <ele>590.38999999999999</ele>
        <time>2016-03-14T21:41:47Z</time>
      </trkpt>
      <trkpt lat="37.920647682622075" lon="-6.703521106392145">
        <ele>590.38999999999999</ele>
        <time>2016-03-14T21:41:48Z</time>
      </trkpt>
      <trkpt lat="37.920650616288185" lon="-6.703269062563777">
        <ele>590.87</ele>
        <time>2016-03-14T21:41:49Z</time>
      </trkpt>
      <trkpt lat="37.920673079788685" lon="-6.70301123522222">
        <ele>590.87</ele>
        <time>2016-03-14T21:41:50Z</time>
      </trkpt>
      <trkpt lat="37.920715576037765" lon="-6.702750474214554">
        <ele>591.83000000000004</ele>
        <time>2016-03-14T21:41:51Z</time>
      </trkpt>
      <trkpt lat="37.920776847749949" lon="-6.702487282454968">
        <ele>591.35000000000002</ele>
        <time>2016-03-14T21:42:01Z</time>
      </trkpt>
      <trkpt lat="37.920846752822399" lon="-6.702221911400557">
        <ele>600.96000000000004</ele>
        <time>2016-03-14T21:42:08Z</time>
      </trkpt>
      <trkpt lat="37.921214215457439" lon="-6.699866596609354">
        <ele>603.85000000000002</ele>
        <time>2016-03-14T21:42:09Z</time>
      </trkpt>
      <trkpt lat="37.921009613201022" lon="-6.69617822393775">
        <ele>605.28999999999996</ele>
        <time>2016-03-14T21:42:10Z</time>
      </trkpt>
      <trkpt lat="37.920894026756287" lon="-6.692756395787001">
        <ele>605.76999999999998</ele>
        <time>2016-03-14T21:42:11Z</time>
      </trkpt>
      <trkpt lat="37.921059736981988" lon="-6.690190276131034">
        <ele>606.25</ele>
        <time>2016-03-14T21:42:12Z</time>
      </trkpt>
      <trkpt lat="37.92068162932992" lon="-6.688576089218259">
        <ele>606.73000000000002</ele>
        <time>2016-03-14T21:42:13Z</time>
      </trkpt>
      <trkpt lat="37.920565959066153" lon="-6.688331589102745">
        <ele>607.21000000000004</ele>
        <time>2016-03-14T21:42:14Z</time>
      </trkpt>
      <trkpt lat="37.920434698462486" lon="-6.688101589679718">
        <ele>607.21000000000004</ele>
        <time>2016-03-14T21:42:23Z</time>
      </trkpt>
      <trkpt lat="37.920275023207068" lon="-6.687896316871047">
        <ele>607.21000000000004</ele>
        <time>2016-03-14T21:42:28Z</time>
      </trkpt>
      <trkpt lat="37.920105289667845" lon="-6.687702611088753">
        <ele>607.69000000000005</ele>
        <time>2016-03-14T21:42:29Z</time>
      </trkpt>
      <trkpt lat="37.919919211417437" lon="-6.687524160370231">
        <ele>612.98000000000002</ele>
        <time>2016-03-14T21:42:30Z</time>
      </trkpt>
      <trkpt lat="37.919719303026795" lon="-6.687357109040022">
        <ele>613.46000000000004</ele>
        <time>2016-03-14T21:42:31Z</time>
      </trkpt>
      <trkpt lat="37.917777802795172" lon="-6.685393732041121">
        <ele>614.41999999999996</ele>
        <time>2016-03-14T21:42:32Z</time>
      </trkpt>
      <trkpt lat="37.916758060455322" lon="-6.683856826275587">
        <ele>614.89999999999998</ele>
        <time>2016-03-14T21:42:33Z</time>
      </trkpt>
      <trkpt lat="37.916671726852655" lon="-6.683624563738704">
        <ele>615.86000000000001</ele>
        <time>2016-03-14T21:42:42Z</time>
      </trkpt>
      <trkpt lat="37.916602659970522" lon="-6.683381488546729">
        <ele>616.82000000000005</ele>
        <time>2016-03-14T21:42:51Z</time>
      </trkpt>
      <trkpt lat="37.916551195085049" lon="-6.683131121098995">
        <ele>617.77999999999997</ele>
        <time>2016-03-14T21:42:52Z</time>
      </trkpt>
      <trkpt lat="37.916520433500409" lon="-6.682877568528056">
        <ele>622.59000000000003</ele>
        <time>2016-03-14T21:42:53Z</time>
      </trkpt>
      <trkpt lat="37.916508531197906" lon="-6.682619238272309">
        <ele>623.07000000000005</ele>
        <time>2016-03-14T21:43:01Z</time>
      </trkpt>
      <trkpt lat="37.91650827974081" lon="-6.682353531941772">
        <ele>623.54999999999995</ele>
        <time>2016-03-14T21:43:09Z</time>
      </trkpt>
      <trkpt lat="37.916481122374535" lon="-6.679843822494149">
        <ele>624.02999999999997</ele>
        <time>2016-03-14T21:43:18Z</time>
      </trkpt>
      <trkpt lat="37.916131261736155" lon="-6.678400374948978">
        <ele>624.50999999999999</ele>
        <time>2016-03-14T21:43:23Z</time>
      </trkpt>
      <trkpt lat="37.916111312806606" lon="-6.678096698597074">
        <ele>624.99000000000001</ele>
        <time>2016-03-14T21:43:24Z</time>
      </trkpt>
      <trkpt lat="37.916113408282399" lon="-6.67779553681612">
        <ele>625.47000000000003</ele>
        <time>2016-03-14T21:43:34Z</time>
      </trkpt>
      <trkpt lat="37.916140481829643" lon="-6.677497057244182">
        <ele>629.32000000000005</ele>
        <time>2016-03-14T21:43:35Z</time>
      </trkpt>
      <trkpt lat="37.916192533448339" lon="-6.677199918776751">
        <ele>638.45000000000005</ele>
        <time>2016-03-14T21:43:36Z</time>
      </trkpt>
      <trkpt lat="37.916255313903093" lon="-6.676901858299971">
        <ele>639.40999999999997</ele>
        <time>2016-03-14T21:43:37Z</time>
      </trkpt>
      <trkpt lat="37.916656136512756" lon="-6.674054693430662">
        <ele>640.86000000000001</ele>
        <time>2016-03-14T21:43:38Z</time>
      </trkpt>
      <trkpt lat="37.916790582239628" lon="-6.671182969585061">
        <ele>649.50999999999999</ele>
        <time>2016-03-14T21:43:39Z</time>
      </trkpt>
      <trkpt lat="37.916744649410248" lon="-6.67087065987289">
        <ele>655.75999999999999</ele>
        <time>2016-03-14T21:43:46Z</time>
      </trkpt>
      <trkpt lat="37.916675331071019" lon="-6.670562624931335">
        <ele>658.15999999999997</ele>
        <time>2016-03-14T21:43:52Z</time>
      </trkpt>
      <trkpt lat="37.91620971634984" lon="-6.668058698996902">
        <ele>662.97000000000003</ele>
        <time>2016-03-14T21:43:59Z</time>
      </trkpt>
      <trkpt lat="37.91574988514185" lon="-6.665786365047097">
        <ele>663.45000000000005</ele>
        <time>2016-03-14T21:44:09Z</time>
      </trkpt>
      <trkpt lat="37.914732489734888" lon="-6.663255030289292">
        <ele>670.65999999999997</ele>
        <time>2016-03-14T21:44:18Z</time>
      </trkpt>
      <trkpt lat="37.914073085412383" lon="-6.661899089813232">
        <ele>672.10000000000002</ele>
        <time>2016-03-14T21:44:19Z</time>
      </trkpt>
      <trkpt lat="37.913900418207049" lon="-6.661677807569504">
        <ele>673.05999999999995</ele>
        <time>2016-03-14T21:44:20Z</time>
      </trkpt>
      <trkpt lat="37.911887252703309" lon="-6.659683166071773">
        <ele>674.5</ele>
        <time>2016-03-14T21:44:31Z</time>
      </trkpt>
      <trkpt lat="37.911675525829196" lon="-6.659525167196989">
        <ele>675.94000000000005</ele>
        <time>2016-03-14T21:44:39Z</time>
      </trkpt>
      <trkpt lat="37.911457009613514" lon="-6.659391727298498">
        <ele>677.87</ele>
        <time>2016-03-14T21:44:47Z</time>
      </trkpt>
      <trkpt lat="37.91122910566628" lon="-6.659283433109522">
        <ele>684.60000000000002</ele>
        <time>2016-03-14T21:44:50Z</time>
      </trkpt>
      <trkpt lat="37.910997346043587" lon="-6.659199865534902">
        <ele>685.55999999999995</ele>
        <time>2016-03-14T21:44:51Z</time>
      </trkpt>
      <trkpt lat="37.91076835244894" lon="-6.659135911613703">
        <ele>683.63</ele>
        <time>2016-03-14T21:44:59Z</time>
      </trkpt>
      <trkpt lat="37.909382488578558" lon="-6.658671637997031">
        <ele>697.09000000000003</ele>
        <time>2016-03-14T21:45:12Z</time>
      </trkpt>
      <trkpt lat="37.908306587487459" lon="-6.657753316685557">
        <ele>709.59000000000003</ele>
        <time>2016-03-14T21:45:20Z</time>
      </trkpt>
      <trkpt lat="37.907295059412718" lon="-6.656103674322367">
        <ele>711.02999999999997</ele>
        <time>2016-03-14T21:45:27Z</time>
      </trkpt>
      <trkpt lat="37.90576477535069" lon="-6.653775097802281">
        <ele>712.47000000000003</ele>
        <time>2016-03-14T21:45:38Z</time>
      </trkpt>
      <trkpt lat="37.904763389378786" lon="-6.651475187391043">
        <ele>726.88999999999999</ele>
        <time>2016-03-14T21:45:47Z</time>
      </trkpt>
      <trkpt lat="37.904616286978126" lon="-6.651249378919601">
        <ele>727.86000000000001</ele>
        <time>2016-03-14T21:45:57Z</time>
      </trkpt>
      <trkpt lat="37.90445133112371" lon="-6.651041507720947">
        <ele>722.57000000000005</ele>
        <time>2016-03-14T21:46:03Z</time>
      </trkpt>
      <trkpt lat="37.902501784265041" lon="-6.648978553712368">
        <ele>722.09000000000003</ele>
        <time>2016-03-14T21:46:13Z</time>
      </trkpt>
      <trkpt lat="37.901289258152246" lon="-6.64743016473949">
        <ele>722.09000000000003</ele>
        <time>2016-03-14T21:46:19Z</time>
      </trkpt>
      <trkpt lat="37.900430615991354" lon="-6.645395709201694">
        <ele>727.86000000000001</ele>
        <time>2016-03-14T21:46:20Z</time>
      </trkpt>
      <trkpt lat="37.900206567719579" lon="-6.644643768668175">
        <ele>740.35000000000002</ele>
        <time>2016-03-14T21:46:21Z</time>
      </trkpt>
      <trkpt lat="37.900168849155307" lon="-6.64438552223146">
        <ele>744.20000000000005</ele>
        <time>2016-03-14T21:46:22Z</time>
      </trkpt>
      <trkpt lat="37.900164574384689" lon="-6.642166916280985">
        <ele>744.67999999999995</ele>
        <time>2016-03-14T21:46:23Z</time>
      </trkpt>
      <trkpt lat="37.900038594380021" lon="-6.638585831969976">
        <ele>752.37</ele>
        <time>2016-03-14T21:46:35Z</time>
      </trkpt>
      <trkpt lat="37.899561412632465" lon="-6.636538803577423">
        <ele>760.05999999999995</ele>
        <time>2016-03-14T21:46:36Z</time>
      </trkpt>
      <trkpt lat="37.899468624964356" lon="-6.634805174544454">
        <ele>753.80999999999995</ele>
        <time>2016-03-14T21:46:37Z</time>
      </trkpt>
      <trkpt lat="37.899331077933311" lon="-6.632010145112872">
        <ele>748.03999999999996</ele>
        <time>2016-03-14T21:46:38Z</time>
      </trkpt>
      <trkpt lat="37.898649042472243" lon="-6.629927158355713">
        <ele>744.20000000000005</ele>
        <time>2016-03-14T21:46:39Z</time>
      </trkpt>
      <trkpt lat="37.897990727797151" lon="-6.627559689804912">
        <ele>743.72000000000003</ele>
        <time>2016-03-14T21:46:53Z</time>
      </trkpt>
      <trkpt lat="37.898100530728698" lon="-6.626099478453398">
        <ele>743.24000000000001</ele>
        <time>2016-03-14T21:46:54Z</time>
      </trkpt>
      <trkpt lat="37.898630686104298" lon="-6.623673588037491">
        <ele>743.24000000000001</ele>
        <time>2016-03-14T21:46:55Z</time>
      </trkpt>
      <trkpt lat="37.899164780974388" lon="-6.622212203219533">
        <ele>742.75999999999999</ele>
        <time>2016-03-14T21:46:56Z</time>
      </trkpt>
      <trkpt lat="37.899296376854181" lon="-6.622009025886655">
        <ele>742.75999999999999</ele>
        <time>2016-03-14T21:46:57Z</time>
      </trkpt>
      <trkpt lat="37.899443227797747" lon="-6.621819594874978">
        <ele>744.20000000000005</ele>
        <time>2016-03-14T21:47:09Z</time>
      </trkpt>
      <trkpt lat="37.899603573605418" lon="-6.621642988175154">
        <ele>744.20000000000005</ele>
        <time>2016-03-14T21:47:23Z</time>
      </trkpt>
      <trkpt lat="37.899772385135293" lon="-6.621475266292691">
        <ele>743.72000000000003</ele>
        <time>2016-03-14T21:47:31Z</time>
      </trkpt>
      <trkpt lat="37.901769122108817" lon="-6.619518510997295">
        <ele>743.72000000000003</ele>
        <time>2016-03-14T21:47:44Z</time>
      </trkpt>
      <trkpt lat="37.90188655257225" lon="-6.619325811043382">
        <ele>743.24000000000001</ele>
        <time>2016-03-14T21:47:45Z</time>
      </trkpt>
      <trkpt lat="37.901992416009307" lon="-6.619121795520186">
        <ele>734.58000000000004</ele>
        <time>2016-03-14T21:47:46Z</time>
      </trkpt>
      <trkpt lat="37.902086460962892" lon="-6.618911074474454">
        <ele>733.13999999999999</ele>
        <time>2016-03-14T21:47:47Z</time>
      </trkpt>
      <trkpt lat="37.90216994471848" lon="-6.618696246296167">
        <ele>731.70000000000005</ele>
        <time>2016-03-14T21:47:48Z</time>
      </trkpt>
      <trkpt lat="37.903136964887381" lon="-6.615509362891316">
        <ele>730.74000000000001</ele>
        <time>2016-03-14T21:48:00Z</time>
      </trkpt>
      <trkpt lat="37.903134366497397" lon="-6.615249020978808">
        <ele>729.29999999999995</ele>
        <time>2016-03-14T21:48:01Z</time>
      </trkpt>
      <trkpt lat="37.903116932138801" lon="-6.614989684894681">
        <ele>724.00999999999999</ele>
        <time>2016-03-14T21:48:02Z</time>
      </trkpt>
      <trkpt lat="37.903080554679036" lon="-6.614731522276998">
        <ele>721.13</ele>
        <time>2016-03-14T21:48:03Z</time>
      </trkpt>
      <trkpt lat="37.903033196926117" lon="-6.614470761269331">
        <ele>717.27999999999997</ele>
        <time>2016-03-14T21:48:04Z</time>
      </trkpt>
      <trkpt lat="37.902365159243345" lon="-6.611521504819393">
        <ele>715.36000000000001</ele>
        <time>2016-03-14T21:48:05Z</time>
      </trkpt>
      <trkpt lat="37.90109253488481" lon="-6.608454566448927">
        <ele>715.36000000000001</ele>
        <time>2016-03-14T21:48:17Z</time>
      </trkpt>
      <trkpt lat="37.900662459433079" lon="-6.606517508625984">
        <ele>715.36000000000001</ele>
        <time>2016-03-14T21:48:20Z</time>
      </trkpt>
      <trkpt lat="37.900378312915564" lon="-6.603212775662541">
        <ele>715.36000000000001</ele>
        <time>2016-03-14T21:48:21Z</time>
      </trkpt>
      <trkpt lat="37.900304803624749" lon="-6.602986548095942">
        <ele>715.36000000000001</ele>
        <time>2016-03-14T21:48:22Z</time>
      </trkpt>
      <trkpt lat="37.900217967107892" lon="-6.602768199518323">
        <ele>714.88</ele>
        <time>2016-03-14T21:48:23Z</time>
      </trkpt>
      <trkpt lat="37.900121323764324" lon="-6.602557813748717">
        <ele>714.88</ele>
        <time>2016-03-14T21:48:24Z</time>
      </trkpt>
      <trkpt lat="37.900016298517585" lon="-6.602355055510998">
        <ele>714.88</ele>
        <time>2016-03-14T21:48:37Z</time>
      </trkpt>
      <trkpt lat="37.898792289197445" lon="-6.599918100982904">
        <ele>714.88</ele>
        <time>2016-03-14T21:48:52Z</time>
      </trkpt>
      <trkpt lat="37.898735543712974" lon="-6.59969019703567">
        <ele>714.88</ele>
        <time>2016-03-14T21:49:01Z</time>
      </trkpt>
      <trkpt lat="37.898695226758718" lon="-6.599458353593946">
        <ele>714.39999999999998</ele>
        <time>2016-03-14T21:49:04Z</time>
      </trkpt>
      <trkpt lat="37.898670835420489" lon="-6.599225420504808">
        <ele>714.39999999999998</ele>
        <time>2016-03-14T21:49:09Z</time>
      </trkpt>
      <trkpt lat="37.898665219545364" lon="-6.598987625911832">
        <ele>714.88</ele>
        <time>2016-03-14T21:49:10Z</time>
      </trkpt>
      <trkpt lat="37.898671589791775" lon="-6.598746562376618">
        <ele>715.36000000000001</ele>
        <time>2016-03-14T21:49:11Z</time>
      </trkpt>
      <trkpt lat="37.89884140715003" lon="-6.595950191840529">
        <ele>715.36000000000001</ele>
        <time>2016-03-14T21:49:12Z</time>
      </trkpt>
      <trkpt lat="37.898764545097947" lon="-6.595245860517025">
        <ele>715.84000000000003</ele>
        <time>2016-03-14T21:49:13Z</time>
      </trkpt>
      <trkpt lat="37.898706793785095" lon="-6.595018124207854">
        <ele>716.32000000000005</ele>
        <time>2016-03-14T21:49:14Z</time>
      </trkpt>
      <trkpt lat="37.898635463789105" lon="-6.594798350706697">
        <ele>721.61000000000001</ele>
        <time>2016-03-14T21:49:15Z</time>
      </trkpt>
      <trkpt lat="37.898551309481263" lon="-6.594587042927742">
        <ele>729.29999999999995</ele>
        <time>2016-03-14T21:49:16Z</time>
      </trkpt>
      <trkpt lat="37.898456510156393" lon="-6.594383949413896">
        <ele>736.50999999999999</ele>
        <time>2016-03-14T21:49:17Z</time>
      </trkpt>
      <trkpt lat="37.897346494719386" lon="-6.591618759557605">
        <ele>737.47000000000003</ele>
        <time>2016-03-14T21:49:24Z</time>
      </trkpt>
      <trkpt lat="37.896306468173862" lon="-6.588215539231896">
        <ele>737.47000000000003</ele>
        <time>2016-03-14T21:49:25Z</time>
      </trkpt>
      <trkpt lat="37.895580260083079" lon="-6.586289210245013">
        <ele>736.50999999999999</ele>
        <time>2016-03-14T21:49:26Z</time>
      </trkpt>
      <trkpt lat="37.89535503834486" lon="-6.585686132311821">
        <ele>735.54999999999995</ele>
        <time>2016-03-14T21:49:27Z</time>
      </trkpt>
      <trkpt lat="37.895209360867739" lon="-6.584598496556282">
        <ele>734.58000000000004</ele>
        <time>2016-03-14T21:49:28Z</time>
      </trkpt>
      <trkpt lat="37.895223358646035" lon="-6.584386602044106">
        <ele>733.62</ele>
        <time>2016-03-14T21:49:40Z</time>
      </trkpt>
      <trkpt lat="37.895249174907804" lon="-6.584183592349291">
        <ele>732.65999999999997</ele>
        <time>2016-03-14T21:49:47Z</time>
      </trkpt>
      <trkpt lat="37.895285803824663" lon="-6.583987707272172">
        <ele>732.17999999999995</ele>
        <time>2016-03-14T21:49:56Z</time>
      </trkpt>
      <trkpt lat="37.895333580672741" lon="-6.583799114450812">
        <ele>731.22000000000003</ele>
        <time>2016-03-14T21:50:01Z</time>
      </trkpt>
      <trkpt lat="37.895395774394274" lon="-6.583611276000738">
        <ele>730.25999999999999</ele>
        <time>2016-03-14T21:50:29Z</time>
      </trkpt>
      <trkpt lat="37.895474983379245" lon="-6.583418659865856">
        <ele>724.49000000000001</ele>
        <time>2016-03-14T21:51:13Z</time>
      </trkpt>
      <trkpt lat="37.895566681399941" lon="-6.583221182227135">
        <ele>723.52999999999997</ele>
        <time>2016-03-14T21:51:52Z</time>
      </trkpt>
      <trkpt lat="37.895670449361205" lon="-6.583020519465208">
        <ele>723.04999999999995</ele>
        <time>2016-03-14T21:52:07Z</time>
      </trkpt>
      <trkpt lat="37.896460276097059" lon="-6.581439776346088">
        <ele>722.57000000000005</ele>
        <time>2016-03-14T21:52:14Z</time>
      </trkpt>
      <trkpt lat="37.896526074036956" lon="-6.581184295937419">
        <ele>722.57000000000005</ele>
        <time>2016-03-14T21:52:27Z</time>
      </trkpt>
      <trkpt lat="37.896573012694716" lon="-6.580923283472657">
        <ele>723.52999999999997</ele>
        <time>2016-03-14T21:52:34Z</time>
      </trkpt>
      <trkpt lat="37.896597320213914" lon="-6.580662522464991">
        <ele>726.88999999999999</ele>
        <time>2016-03-14T21:52:35Z</time>
      </trkpt>
      <trkpt lat="37.896603941917419" lon="-6.580403940752149">
        <ele>734.10000000000002</ele>
        <time>2016-03-14T21:52:44Z</time>
      </trkpt>
      <trkpt lat="37.89649548009038" lon="-6.577337589114904">
        <ele>734.58000000000004</ele>
        <time>2016-03-14T21:52:45Z</time>
      </trkpt>
      <trkpt lat="37.896685162559152" lon="-6.57573077827692">
        <ele>736.02999999999997</ele>
        <time>2016-03-14T21:52:46Z</time>
      </trkpt>
      <trkpt lat="37.896929997950792" lon="-6.573891956359148">
        <ele>731.22000000000003</ele>
        <time>2016-03-14T21:52:47Z</time>
      </trkpt>
      <trkpt lat="37.89692304097116" lon="-6.573625411838293">
        <ele>730.25999999999999</ele>
        <time>2016-03-14T21:52:48Z</time>
      </trkpt>
      <trkpt lat="37.896938715130091" lon="-6.573624070733786">
        <ele>730.25999999999999</ele>
        <time>2016-03-14T21:52:50Z</time>
      </trkpt>
      <trkpt lat="37.896919101476669" lon="-6.573648545891047">
        <ele>731.22000000000003</ele>
        <time>2016-03-14T21:52:51Z</time>
      </trkpt>
      <trkpt lat="37.896920358762145" lon="-6.573629602789879">
        <ele>732.17999999999995</ele>
        <time>2016-03-14T21:52:52Z</time>
      </trkpt>
      <trkpt lat="37.896950282156467" lon="-6.573354592546821">
        <ele>729.77999999999997</ele>
        <time>2016-03-14T21:52:53Z</time>
      </trkpt>
      <trkpt lat="37.896985989063978" lon="-6.572645148262382">
        <ele>729.29999999999995</ele>
        <time>2016-03-14T21:52:54Z</time>
      </trkpt>
      <trkpt lat="37.897059749811888" lon="-6.570774391293526">
        <ele>726.40999999999997</ele>
        <time>2016-03-14T21:52:55Z</time>
      </trkpt>
      <trkpt lat="37.897132085636258" lon="-6.569684157148004">
        <ele>725.92999999999995</ele>
        <time>2016-03-14T21:52:56Z</time>
      </trkpt>
      <trkpt lat="37.897166535258293" lon="-6.569530181586742">
        <ele>725.92999999999995</ele>
        <time>2016-03-14T21:52:57Z</time>
      </trkpt>
      <trkpt lat="37.897562077268958" lon="-6.568172732368112">
        <ele>725.92999999999995</ele>
        <time>2016-03-14T21:52:58Z</time>
      </trkpt>
      <trkpt lat="37.897571800276637" lon="-6.568096121773124">
        <ele>725.45000000000005</ele>
        <time>2016-03-14T21:53:06Z</time>
      </trkpt>
      <trkpt lat="37.897572722285986" lon="-6.568036694079638">
        <ele>725.45000000000005</ele>
        <time>2016-03-14T21:53:16Z</time>
      </trkpt>
      <trkpt lat="37.897568615153432" lon="-6.567983133718371">
        <ele>725.45000000000005</ele>
        <time>2016-03-14T21:53:17Z</time>
      </trkpt>
      <trkpt lat="37.897561239078641" lon="-6.567926472052932">
        <ele>724.97000000000003</ele>
        <time>2016-03-14T21:53:25Z</time>
      </trkpt>
      <trkpt lat="37.897549085319042" lon="-6.567784063518047">
        <ele>725.45000000000005</ele>
        <time>2016-03-14T21:53:26Z</time>
      </trkpt>
      <trkpt lat="37.897556712850928" lon="-6.567703178152442">
        <ele>725.45000000000005</ele>
        <time>2016-03-14T21:53:27Z</time>
      </trkpt>
      <trkpt lat="37.89757976308465" lon="-6.567630087956786">
        <ele>725.45000000000005</ele>
        <time>2016-03-14T21:53:34Z</time>
      </trkpt>
      <trkpt lat="37.897617649286985" lon="-6.567571498453617">
        <ele>725.45000000000005</ele>
        <time>2016-03-14T21:53:35Z</time>
      </trkpt>
      <trkpt lat="37.897653607651591" lon="-6.567516177892685">
        <ele>725.45000000000005</ele>
        <time>2016-03-14T21:53:36Z</time>
      </trkpt>
      <trkpt lat="37.897678250446916" lon="-6.56745390035212">
        <ele>724.97000000000003</ele>
        <time>2016-03-14T21:53:37Z</time>
      </trkpt>
      <trkpt lat="37.897691074758768" lon="-6.567376451566815">
        <ele>722.09000000000003</ele>
        <time>2016-03-14T21:53:38Z</time>
      </trkpt>
      <trkpt lat="37.897697109729052" lon="-6.567278886213899">
        <ele>715.84000000000003</ele>
        <time>2016-03-14T21:53:39Z</time>
      </trkpt>
      <trkpt lat="37.897701133042574" lon="-6.567166317254305">
        <ele>714.88</ele>
        <time>2016-03-14T21:53:40Z</time>
      </trkpt>
      <trkpt lat="37.897724770009518" lon="-6.565907187759876">
        <ele>715.84000000000003</ele>
        <time>2016-03-14T21:53:41Z</time>
      </trkpt>
      <trkpt lat="37.897805739194155" lon="-6.563787572085857">
        <ele>715.84000000000003</ele>
        <time>2016-03-14T21:53:42Z</time>
      </trkpt>
      <trkpt lat="37.897772965952754" lon="-6.563565284013748">
        <ele>716.32000000000005</ele>
        <time>2016-03-14T21:53:43Z</time>
      </trkpt>
      <trkpt lat="37.897376585751772" lon="-6.561865769326687">
        <ele>714.39999999999998</ele>
        <time>2016-03-14T21:53:44Z</time>
      </trkpt>
      <trkpt lat="37.897362001240253" lon="-6.561640966683626">
        <ele>714.39999999999998</ele>
        <time>2016-03-14T21:53:45Z</time>
      </trkpt>
      <trkpt lat="37.897367533296347" lon="-6.561411051079631">
        <ele>713.91999999999996</ele>
        <time>2016-03-14T21:53:46Z</time>
      </trkpt>
      <trkpt lat="37.897511031478643" lon="-6.559743387624621">
        <ele>713.91999999999996</ele>
        <time>2016-03-14T21:53:47Z</time>
      </trkpt>
      <trkpt lat="37.897496949881315" lon="-6.559526044875383">
        <ele>713.44000000000005</ele>
        <time>2016-03-14T21:53:48Z</time>
      </trkpt>
      <trkpt lat="37.897460740059614" lon="-6.55931331217289">
        <ele>712.95000000000005</ele>
        <time>2016-03-14T21:53:49Z</time>
      </trkpt>
      <trkpt lat="37.897405084222555" lon="-6.55910661444068">
        <ele>712.95000000000005</ele>
        <time>2016-03-14T21:53:50Z</time>
      </trkpt>
      <trkpt lat="37.897329814732075" lon="-6.558908801525831">
        <ele>712.95000000000005</ele>
        <time>2016-03-14T21:53:57Z</time>
      </trkpt>
      <trkpt lat="37.897234680131078" lon="-6.558724232017994">
        <ele>712.95000000000005</ele>
        <time>2016-03-14T21:53:58Z</time>
      </trkpt>
      <trkpt lat="37.897121524438262" lon="-6.558554247021675">
        <ele>712.95000000000005</ele>
        <time>2016-03-14T21:53:59Z</time>
      </trkpt>
      <trkpt lat="37.896990934386849" lon="-6.558400103822351">
        <ele>712.47000000000003</ele>
        <time>2016-03-14T21:54:00Z</time>
      </trkpt>
      <trkpt lat="37.896848944947124" lon="-6.55826230533421">
        <ele>712.47000000000003</ele>
        <time>2016-03-14T21:54:01Z</time>
      </trkpt>
      <trkpt lat="37.896691700443625" lon="-6.558145796880126">
        <ele>711.99000000000001</ele>
        <time>2016-03-14T21:54:10Z</time>
      </trkpt>
      <trkpt lat="37.896522888913751" lon="-6.558054350316525">
        <ele>711.99000000000001</ele>
        <time>2016-03-14T21:54:11Z</time>
      </trkpt>
      <trkpt lat="37.896348880603909" lon="-6.557987965643406">
        <ele>711.99000000000001</ele>
        <time>2016-03-14T21:54:12Z</time>
      </trkpt>
      <trkpt lat="37.896173531189561" lon="-6.557951839640737">
        <ele>711.99000000000001</ele>
        <time>2016-03-14T21:54:13Z</time>
      </trkpt>
      <trkpt lat="37.895993236452341" lon="-6.557944044470787">
        <ele>712.47000000000003</ele>
        <time>2016-03-14T21:54:14Z</time>
      </trkpt>
      <trkpt lat="37.895814618095756" lon="-6.557958126068115">
        <ele>713.91999999999996</ele>
        <time>2016-03-14T21:54:20Z</time>
      </trkpt>
      <trkpt lat="37.895633904263377" lon="-6.557992743328214">
        <ele>713.91999999999996</ele>
        <time>2016-03-14T21:54:21Z</time>
      </trkpt>
      <trkpt lat="37.895452938973904" lon="-6.55803993344307">
        <ele>713.44000000000005</ele>
        <time>2016-03-14T21:54:22Z</time>
      </trkpt>
      <trkpt lat="37.894170843064785" lon="-6.5583267621696">
        <ele>712.47000000000003</ele>
        <time>2016-03-14T21:54:23Z</time>
      </trkpt>
      <trkpt lat="37.893998762592673" lon="-6.558302538469434">
        <ele>711.50999999999999</ele>
        <time>2016-03-14T21:54:24Z</time>
      </trkpt>
      <trkpt lat="37.893834142014384" lon="-6.558239422738552">
        <ele>712.95000000000005</ele>
        <time>2016-03-14T21:54:25Z</time>
      </trkpt>
      <trkpt lat="37.893673293292522" lon="-6.558149568736553">
        <ele>713.44000000000005</ele>
        <time>2016-03-14T21:54:26Z</time>
      </trkpt>
      <trkpt lat="37.893510097637773" lon="-6.558045214042068">
        <ele>713.44000000000005</ele>
        <time>2016-03-14T21:54:27Z</time>
      </trkpt>
      <trkpt lat="37.892054747790098" lon="-6.557088419795036">
        <ele>713.44000000000005</ele>
        <time>2016-03-14T21:54:28Z</time>
      </trkpt>
      <trkpt lat="37.891929019242525" lon="-6.556963445618749">
        <ele>712.47000000000003</ele>
        <time>2016-03-14T21:54:36Z</time>
      </trkpt>
      <trkpt lat="37.891818294301629" lon="-6.556816678494215">
        <ele>705.75</ele>
        <time>2016-03-14T21:54:45Z</time>
      </trkpt>
      <trkpt lat="37.891714442521334" lon="-6.556649124249816">
        <ele>704.29999999999995</ele>
        <time>2016-03-14T21:54:46Z</time>
      </trkpt>
      <trkpt lat="37.891610842198133" lon="-6.556468158960342">
        <ele>702.86000000000001</ele>
        <time>2016-03-14T21:54:47Z</time>
      </trkpt>
      <trkpt lat="37.891002567484975" lon="-6.555365854874253">
        <ele>701.89999999999998</ele>
        <time>2016-03-14T21:54:48Z</time>
      </trkpt>
      <trkpt lat="37.89089678786695" lon="-6.555227218195796">
        <ele>700.46000000000004</ele>
        <time>2016-03-14T21:54:49Z</time>
      </trkpt>
      <trkpt lat="37.890777261927724" lon="-6.555124204605818">
        <ele>699.01999999999998</ele>
        <time>2016-03-14T21:54:50Z</time>
      </trkpt>
      <trkpt lat="37.890639463439584" lon="-6.555066620931029">
        <ele>698.04999999999995</ele>
        <time>2016-03-14T21:54:51Z</time>
      </trkpt>
      <trkpt lat="37.890491103753448" lon="-6.555060502141714">
        <ele>697.09000000000003</ele>
        <time>2016-03-14T21:54:52Z</time>
      </trkpt>
      <trkpt lat="37.890342744067311" lon="-6.555106854066253">
        <ele>696.13</ele>
        <time>2016-03-14T21:54:53Z</time>
      </trkpt>
      <trkpt lat="37.890201006084681" lon="-6.555194612592459">
        <ele>687</ele>
        <time>2016-03-14T21:54:54Z</time>
      </trkpt>
      <trkpt lat="37.890062034130096" lon="-6.555312210693955">
        <ele>679.30999999999995</ele>
        <time>2016-03-14T21:54:55Z</time>
      </trkpt>
      <trkpt lat="37.889924151822925" lon="-6.555440621450543">
        <ele>678.35000000000002</ele>
        <time>2016-03-14T21:54:56Z</time>
      </trkpt>
      <trkpt lat="37.888741130009294" lon="-6.556221814826131">
        <ele>677.87</ele>
        <time>2016-03-14T21:54:57Z</time>
      </trkpt>
      <trkpt lat="37.887566993013024" lon="-6.556620290502906">
        <ele>677.38999999999999</ele>
        <time>2016-03-14T21:55:01Z</time>
      </trkpt>
      <trkpt lat="37.887485856190324" lon="-6.556665385141969">
        <ele>676.90999999999997</ele>
        <time>2016-03-14T21:55:02Z</time>
      </trkpt>
      <trkpt lat="37.887417878955603" lon="-6.556720621883869">
        <ele>676.41999999999996</ele>
        <time>2016-03-14T21:55:03Z</time>
      </trkpt>
      <trkpt lat="37.887359037995338" lon="-6.556786336004734">
        <ele>675.94000000000005</ele>
        <time>2016-03-14T21:55:04Z</time>
      </trkpt>
      <trkpt lat="37.887301789596677" lon="-6.55684232711792">
        <ele>675.46000000000004</ele>
        <time>2016-03-14T21:55:05Z</time>
      </trkpt>
      <trkpt lat="37.887239092960954" lon="-6.556881135329604">
        <ele>674.5</ele>
        <time>2016-03-14T21:55:06Z</time>
      </trkpt>
      <trkpt lat="37.887167260050774" lon="-6.556896474212408">
        <ele>674.01999999999998</ele>
        <time>2016-03-14T21:55:07Z</time>
      </trkpt>
      <trkpt lat="37.887086793780327" lon="-6.556885074824095">
        <ele>673.53999999999996</ele>
        <time>2016-03-14T21:55:08Z</time>
      </trkpt>
      <trkpt lat="37.886996604502201" lon="-6.556860851123929">
        <ele>673.05999999999995</ele>
        <time>2016-03-14T21:55:09Z</time>
      </trkpt>
      <trkpt lat="37.886890908703208" lon="-6.556852804496884">
        <ele>673.05999999999995</ele>
        <time>2016-03-14T21:55:10Z</time>
      </trkpt>
      <trkpt lat="37.886776579543948" lon="-6.556863868609071">
        <ele>673.05999999999995</ele>
        <time>2016-03-14T21:55:20Z</time>
      </trkpt>
      <trkpt lat="37.886650431901217" lon="-6.556897144764662">
        <ele>673.05999999999995</ele>
        <time>2016-03-14T21:55:36Z</time>
      </trkpt>
      <trkpt lat="37.886517075821757" lon="-6.556938802823424">
        <ele>673.05999999999995</ele>
        <time>2016-03-14T21:55:47Z</time>
      </trkpt>
      <trkpt lat="37.885936461389065" lon="-6.557070314884186">
        <ele>673.53999999999996</ele>
        <time>2016-03-14T21:55:54Z</time>
      </trkpt>
      <trkpt lat="37.885777791962028" lon="-6.557061094790697">
        <ele>673.53999999999996</ele>
        <time>2016-03-14T21:55:55Z</time>
      </trkpt>
      <trkpt lat="37.8856186196208" lon="-6.557024382054806">
        <ele>674.01999999999998</ele>
        <time>2016-03-14T21:55:56Z</time>
      </trkpt>
      <trkpt lat="37.885462297126651" lon="-6.556957578286529">
        <ele>674.01999999999998</ele>
        <time>2016-03-14T21:55:57Z</time>
      </trkpt>
      <trkpt lat="37.88531226105988" lon="-6.556859090924263">
        <ele>674.5</ele>
        <time>2016-03-14T21:56:07Z</time>
      </trkpt>
      <trkpt lat="37.885176055133343" lon="-6.556731685996056">
        <ele>674.5</ele>
        <time>2016-03-14T21:56:20Z</time>
      </trkpt>
      <trkpt lat="37.885059881955385" lon="-6.556577794253826">
        <ele>674.5</ele>
        <time>2016-03-14T21:56:28Z</time>
      </trkpt>
      <trkpt lat="37.884961310774088" lon="-6.556401774287224">
        <ele>677.38999999999999</ele>
        <time>2016-03-14T21:56:39Z</time>
      </trkpt>
      <trkpt lat="37.884879587218165" lon="-6.5562061406672">
        <ele>682.19000000000005</ele>
        <time>2016-03-14T21:56:46Z</time>
      </trkpt>
      <trkpt lat="37.884806245565414" lon="-6.55599701218307">
        <ele>676.41999999999996</ele>
        <time>2016-03-14T21:56:49Z</time>
      </trkpt>
      <trkpt lat="37.884100405499339" lon="-6.553663574159145">
        <ele>672.10000000000002</ele>
        <time>2016-03-14T21:56:50Z</time>
      </trkpt>
      <trkpt lat="37.882838090881705" lon="-6.549349240958691">
        <ele>672.10000000000002</ele>
        <time>2016-03-14T21:56:51Z</time>
      </trkpt>
      <trkpt lat="37.881712317466736" lon="-6.546276267617941">
        <ele>672.10000000000002</ele>
        <time>2016-03-14T21:56:52Z</time>
      </trkpt>
      <trkpt lat="37.880794247612357" lon="-6.544688483700156">
        <ele>672.10000000000002</ele>
        <time>2016-03-14T21:56:53Z</time>
      </trkpt>
      <trkpt lat="37.880677236244082" lon="-6.544472398236394">
        <ele>673.53999999999996</ele>
        <time>2016-03-14T21:56:54Z</time>
      </trkpt>
      <trkpt lat="37.880577994510531" lon="-6.54423862695694">
        <ele>672.10000000000002</ele>
        <time>2016-03-14T21:56:55Z</time>
      </trkpt>
      <trkpt lat="37.880499372258782" lon="-6.543990857899189">
        <ele>663.92999999999995</ele>
        <time>2016-03-14T21:57:06Z</time>
      </trkpt>
      <trkpt lat="37.879872238263488" lon="-6.541166491806507">
        <ele>653.35000000000002</ele>
        <time>2016-03-14T21:57:14Z</time>
      </trkpt>
      <trkpt lat="37.879265556111932" lon="-6.537438053637743">
        <ele>647.10000000000002</ele>
        <time>2016-03-14T21:57:26Z</time>
      </trkpt>
      <trkpt lat="37.879438726231456" lon="-6.535029178485274">
        <ele>644.70000000000005</ele>
        <time>2016-03-14T21:57:36Z</time>
      </trkpt>
      <trkpt lat="37.880181949585676" lon="-6.531663089990616">
        <ele>643.74000000000001</ele>
        <time>2016-03-14T21:57:47Z</time>
      </trkpt>
      <trkpt lat="37.881072191521525" lon="-6.529760314151645">
        <ele>643.25999999999999</ele>
        <time>2016-03-14T21:57:59Z</time>
      </trkpt>
      <trkpt lat="37.881405036896467" lon="-6.528951963409782">
        <ele>642.29999999999995</ele>
        <time>2016-03-14T21:58:12Z</time>
      </trkpt>
      <trkpt lat="37.881472343578935" lon="-6.528671840205789">
        <ele>641.82000000000005</ele>
        <time>2016-03-14T21:58:25Z</time>
      </trkpt>
      <trkpt lat="37.881512157618999" lon="-6.528389118611813">
        <ele>640.86000000000001</ele>
        <time>2016-03-14T21:58:27Z</time>
      </trkpt>
      <trkpt lat="37.881531100720167" lon="-6.528107486665249">
        <ele>640.38</ele>
        <time>2016-03-14T21:58:28Z</time>
      </trkpt>
      <trkpt lat="37.881531184539199" lon="-6.527830129489303">
        <ele>634.13</ele>
        <time>2016-03-14T21:58:36Z</time>
      </trkpt>
      <trkpt lat="37.88151266053319" lon="-6.527553778141737">
        <ele>631.72000000000003</ele>
        <time>2016-03-14T21:58:48Z</time>
      </trkpt>
      <trkpt lat="37.881481228396297" lon="-6.527280947193503">
        <ele>627.88</ele>
        <time>2016-03-14T21:59:05Z</time>
      </trkpt>
      <trkpt lat="37.880949648097157" lon="-6.524350214749575">
        <ele>624.99000000000001</ele>
        <time>2016-03-14T21:59:07Z</time>
      </trkpt>
      <trkpt lat="37.880192846059799" lon="-6.522395052015781">
        <ele>615.38</ele>
        <time>2016-03-14T21:59:08Z</time>
      </trkpt>
      <trkpt lat="37.878720900043845" lon="-6.519134575501084">
        <ele>611.05999999999995</ele>
        <time>2016-03-14T21:59:09Z</time>
      </trkpt>
      <trkpt lat="37.877441067248583" lon="-6.516602234914899">
        <ele>600</ele>
        <time>2016-03-14T21:59:10Z</time>
      </trkpt>
      <trkpt lat="37.875563185662031" lon="-6.513944836333394">
        <ele>583.65999999999997</ele>
        <time>2016-03-14T21:59:11Z</time>
      </trkpt>
      <trkpt lat="37.873376179486513" lon="-6.511264387518168">
        <ele>581.73000000000002</ele>
        <time>2016-03-14T21:59:12Z</time>
      </trkpt>
      <trkpt lat="37.871109629049897" lon="-6.508294008672237">
        <ele>580.28999999999996</ele>
        <time>2016-03-14T21:59:13Z</time>
      </trkpt>
      <trkpt lat="37.869323445484042" lon="-6.505015762522817">
        <ele>572.60000000000002</ele>
        <time>2016-03-14T21:59:14Z</time>
      </trkpt>
      <trkpt lat="37.869142228737473" lon="-6.504488037899137">
        <ele>570.20000000000005</ele>
        <time>2016-03-14T21:59:20Z</time>
      </trkpt>
      <trkpt lat="37.869081627577543" lon="-6.504204394295812">
        <ele>582.70000000000005</ele>
        <time>2016-03-14T21:59:21Z</time>
      </trkpt>
      <trkpt lat="37.868436053395271" lon="-6.502002133056521">
        <ele>582.70000000000005</ele>
        <time>2016-03-14T21:59:22Z</time>
      </trkpt>
      <trkpt lat="37.866677027195692" lon="-6.499139377847314">
        <ele>582.70000000000005</ele>
        <time>2016-03-14T21:59:23Z</time>
      </trkpt>
      <trkpt lat="37.86435641348362" lon="-6.49513391777873">
        <ele>582.70000000000005</ele>
        <time>2016-03-14T21:59:24Z</time>
      </trkpt>
      <trkpt lat="37.864170921966434" lon="-6.494614658877254">
        <ele>583.17999999999995</ele>
        <time>2016-03-14T21:59:25Z</time>
      </trkpt>
      <trkpt lat="37.864109566435218" lon="-6.494347276166081">
        <ele>583.17999999999995</ele>
        <time>2016-03-14T21:59:26Z</time>
      </trkpt>
      <trkpt lat="37.864070674404502" lon="-6.494076456874609">
        <ele>583.65999999999997</ele>
        <time>2016-03-14T21:59:27Z</time>
      </trkpt>
      <trkpt lat="37.864056089892983" lon="-6.493802452459931">
        <ele>583.65999999999997</ele>
        <time>2016-03-14T21:59:39Z</time>
      </trkpt>
      <trkpt lat="37.86406472325325" lon="-6.493523754179478">
        <ele>584.13999999999999</ele>
        <time>2016-03-14T21:59:50Z</time>
      </trkpt>
      <trkpt lat="37.864092383533716" lon="-6.49324731901288">
        <ele>587.98000000000002</ele>
        <time>2016-03-14T21:59:54Z</time>
      </trkpt>
      <trkpt lat="37.86413898691535" lon="-6.492972811684012">
        <ele>588.95000000000005</ele>
        <time>2016-03-14T21:59:55Z</time>
      </trkpt>
      <trkpt lat="37.864195816218853" lon="-6.49270199239254">
        <ele>589.90999999999997</ele>
        <time>2016-03-14T21:59:56Z</time>
      </trkpt>
      <trkpt lat="37.864404106512666" lon="-6.491110939532518">
        <ele>590.87</ele>
        <time>2016-03-14T22:00:05Z</time>
      </trkpt>
      <trkpt lat="37.864384828135371" lon="-6.490843892097473">
        <ele>591.83000000000004</ele>
        <time>2016-03-14T22:00:16Z</time>
      </trkpt>
      <trkpt lat="37.864346103742719" lon="-6.490579191595316">
        <ele>593.26999999999998</ele>
        <time>2016-03-14T22:00:31Z</time>
      </trkpt>
      <trkpt lat="37.864289106801152" lon="-6.490318346768618">
        <ele>594.23000000000002</ele>
        <time>2016-03-14T22:00:44Z</time>
      </trkpt>
      <trkpt lat="37.864213921129704" lon="-6.490063788369298">
        <ele>595.66999999999996</ele>
        <time>2016-03-14T22:00:55Z</time>
      </trkpt>
      <trkpt lat="37.864120379090309" lon="-6.489819539710879">
        <ele>610.57000000000005</ele>
        <time>2016-03-14T22:01:02Z</time>
      </trkpt>
      <trkpt lat="37.864012084901333" lon="-6.489587360993028">
        <ele>622.59000000000003</ele>
        <time>2016-03-14T22:01:20Z</time>
      </trkpt>
      <trkpt lat="37.863889206200838" lon="-6.48936465382576">
        <ele>624.02999999999997</ele>
        <time>2016-03-14T22:01:36Z</time>
      </trkpt>
      <trkpt lat="37.862298488616943" lon="-6.486823679879308">
        <ele>623.54999999999995</ele>
        <time>2016-03-14T22:01:43Z</time>
      </trkpt>
      <trkpt lat="37.861104654148221" lon="-6.484464425593615">
        <ele>623.07000000000005</ele>
        <time>2016-03-14T22:01:56Z</time>
      </trkpt>
      <trkpt lat="37.860458996146917" lon="-6.483854306861758">
        <ele>616.34000000000003</ele>
        <time>2016-03-14T22:02:04Z</time>
      </trkpt>
      <trkpt lat="37.860278701409698" lon="-6.483746096491814">
        <ele>608.16999999999996</ele>
        <time>2016-03-14T22:02:16Z</time>
      </trkpt>
      <trkpt lat="37.860095975920558" lon="-6.483657080680132">
        <ele>605.28999999999996</ele>
        <time>2016-03-14T22:02:24Z</time>
      </trkpt>
      <trkpt lat="37.858336195349693" lon="-6.483101025223732">
        <ele>608.16999999999996</ele>
        <time>2016-03-14T22:02:36Z</time>
      </trkpt>
      <trkpt lat="37.856056485325098" lon="-6.481978185474873">
        <ele>616.34000000000003</ele>
        <time>2016-03-14T22:02:50Z</time>
      </trkpt>
      <trkpt lat="37.852825680747628" lon="-6.480218237265945">
        <ele>609.13</ele>
        <time>2016-03-14T22:03:03Z</time>
      </trkpt>
      <trkpt lat="37.849969295784831" lon="-6.477933414280415">
        <ele>600</ele>
        <time>2016-03-14T22:03:05Z</time>
      </trkpt>
      <trkpt lat="37.847796706482768" lon="-6.476093251258135">
        <ele>618.75</ele>
        <time>2016-03-14T22:03:06Z</time>
      </trkpt>
      <trkpt lat="37.846726924180984" lon="-6.474411757662892">
        <ele>625.47000000000003</ele>
        <time>2016-03-14T22:03:07Z</time>
      </trkpt>
      <trkpt lat="37.843966260552406" lon="-6.469590738415718">
        <ele>625.96000000000004</ele>
        <time>2016-03-14T22:03:08Z</time>
      </trkpt>
      <trkpt lat="37.84168554469943" lon="-6.465427195653319">
        <ele>622.59000000000003</ele>
        <time>2016-03-14T22:03:09Z</time>
      </trkpt>
      <trkpt lat="37.841096883639693" lon="-6.463265754282475">
        <ele>609.61000000000001</ele>
        <time>2016-03-14T22:03:10Z</time>
      </trkpt>
      <trkpt lat="37.84017713740468" lon="-6.459437152370811">
        <ele>606.25</ele>
        <time>2016-03-14T22:03:17Z</time>
      </trkpt>
      <trkpt lat="37.839278597384691" lon="-6.457247044891119">
        <ele>605.76999999999998</ele>
        <time>2016-03-14T22:03:18Z</time>
      </trkpt>
      <trkpt lat="37.83774864859879" lon="-6.454024286940694">
        <ele>606.25</ele>
        <time>2016-03-14T22:03:19Z</time>
      </trkpt>
      <trkpt lat="37.837087903171778" lon="-6.452327119186521">
        <ele>592.78999999999996</ele>
        <time>2016-03-14T22:03:20Z</time>
      </trkpt>
      <trkpt lat="37.836116272956133" lon="-6.450294004753232">
        <ele>591.35000000000002</ele>
        <time>2016-03-14T22:03:21Z</time>
      </trkpt>
      <trkpt lat="37.834972897544503" lon="-6.448070537298918">
        <ele>590.87</ele>
        <time>2016-03-14T22:03:22Z</time>
      </trkpt>
      <trkpt lat="37.833480834960938" lon="-6.446151835843921">
        <ele>589.90999999999997</ele>
        <time>2016-03-14T22:03:23Z</time>
      </trkpt>
      <trkpt lat="37.833297606557608" lon="-6.445936169475317">
        <ele>589.42999999999995</ele>
        <time>2016-03-14T22:03:24Z</time>
      </trkpt>
      <trkpt lat="37.833205992355943" lon="-6.445861654356122">
        <ele>588.95000000000005</ele>
        <time>2016-03-14T22:03:25Z</time>
      </trkpt>
      <trkpt lat="37.833111193031073" lon="-6.445825612172484">
        <ele>588.46000000000004</ele>
        <time>2016-03-14T22:03:26Z</time>
      </trkpt>
      <trkpt lat="37.833016058430076" lon="-6.445825947448611">
        <ele>582.70000000000005</ele>
        <time>2016-03-14T22:03:27Z</time>
      </trkpt>
      <trkpt lat="37.832922013476491" lon="-6.445857379585505">
        <ele>582.22000000000003</ele>
        <time>2016-03-14T22:03:28Z</time>
      </trkpt>
      <trkpt lat="37.832825956866145" lon="-6.445907754823566">
        <ele>581.25</ele>
        <time>2016-03-14T22:03:29Z</time>
      </trkpt>
      <trkpt lat="37.831994891166687" lon="-6.446376806125045">
        <ele>580.28999999999996</ele>
        <time>2016-03-14T22:03:30Z</time>
      </trkpt>
      <trkpt lat="37.831864636391401" lon="-6.446415195241571">
        <ele>579.80999999999995</ele>
        <time>2016-03-14T22:03:31Z</time>
      </trkpt>
      <trkpt lat="37.831735806539655" lon="-6.44642248749733">
        <ele>578.37</ele>
        <time>2016-03-14T22:03:32Z</time>
      </trkpt>
      <trkpt lat="37.831611335277557" lon="-6.446400946006179">
        <ele>577.40999999999997</ele>
        <time>2016-03-14T22:03:33Z</time>
      </trkpt>
      <trkpt lat="37.831495329737663" lon="-6.446346547454596">
        <ele>576.45000000000005</ele>
        <time>2016-03-14T22:03:34Z</time>
      </trkpt>
      <trkpt lat="37.831391980871558" lon="-6.446259710937738">
        <ele>575.49000000000001</ele>
        <time>2016-03-14T22:03:44Z</time>
      </trkpt>
      <trkpt lat="37.83130363561213" lon="-6.446142867207527">
        <ele>574.52999999999997</ele>
        <time>2016-03-14T22:03:53Z</time>
      </trkpt>
      <trkpt lat="37.831239346414804" lon="-6.445996854454279">
        <ele>573.55999999999995</ele>
        <time>2016-03-14T22:04:00Z</time>
      </trkpt>
      <trkpt lat="37.831205483525991" lon="-6.445834413170815">
        <ele>572.12</ele>
        <time>2016-03-14T22:04:10Z</time>
      </trkpt>
      <trkpt lat="37.831194000318646" lon="-6.445664763450623">
        <ele>571.15999999999997</ele>
        <time>2016-03-14T22:04:21Z</time>
      </trkpt>
      <trkpt lat="37.831177487969398" lon="-6.445493940263987">
        <ele>569.72000000000003</ele>
        <time>2016-03-14T22:04:22Z</time>
      </trkpt>
      <trkpt lat="37.831145720556378" lon="-6.445319596678019">
        <ele>568.75999999999999</ele>
        <time>2016-03-14T22:04:23Z</time>
      </trkpt>
      <trkpt lat="37.831098446622491" lon="-6.445143241435289">
        <ele>567.79999999999995</ele>
        <time>2016-03-14T22:04:24Z</time>
      </trkpt>
      <trkpt lat="37.831031139940023" lon="-6.444971160963178">
        <ele>566.35000000000002</ele>
        <time>2016-03-14T22:04:25Z</time>
      </trkpt>
      <trkpt lat="37.830944051966071" lon="-6.444807462394238">
        <ele>565.38999999999999</ele>
        <time>2016-03-14T22:04:26Z</time>
      </trkpt>
      <trkpt lat="37.830838775262237" lon="-6.44465466029942">
        <ele>551.45000000000005</ele>
        <time>2016-03-14T22:04:27Z</time>
      </trkpt>
      <trkpt lat="37.830713130533695" lon="-6.444514263421297">
        <ele>534.63</ele>
        <time>2016-03-14T22:04:28Z</time>
      </trkpt>
      <trkpt lat="37.830582456663251" lon="-6.444377135485411">
        <ele>523.58000000000004</ele>
        <time>2016-03-14T22:04:29Z</time>
      </trkpt>
      <trkpt lat="37.829017220064998" lon="-6.442970065400004">
        <ele>513.48000000000002</ele>
        <time>2016-03-14T22:04:30Z</time>
      </trkpt>
      <trkpt lat="37.827209746465087" lon="-6.441858289763331">
        <ele>503.87</ele>
        <time>2016-03-14T22:04:31Z</time>
      </trkpt>
      <trkpt lat="37.825779709964991" lon="-6.440975423902273">
        <ele>502.91000000000003</ele>
        <time>2016-03-14T22:04:32Z</time>
      </trkpt>
      <trkpt lat="37.823846256360412" lon="-6.43937598913908">
        <ele>501.94999999999999</ele>
        <time>2016-03-14T22:04:33Z</time>
      </trkpt>
      <trkpt lat="37.821969212964177" lon="-6.436924785375595">
        <ele>500.98000000000002</ele>
        <time>2016-03-14T22:04:34Z</time>
      </trkpt>
      <trkpt lat="37.821801910176873" lon="-6.436744909733534">
        <ele>500.01999999999998</ele>
        <time>2016-03-14T22:04:35Z</time>
      </trkpt>
      <trkpt lat="37.821623124182224" lon="-6.436588419601321">
        <ele>499.54000000000002</ele>
        <time>2016-03-14T22:04:36Z</time>
      </trkpt>
      <trkpt lat="37.821435118094087" lon="-6.43645690754056">
        <ele>498.57999999999998</ele>
        <time>2016-03-14T22:04:39Z</time>
      </trkpt>
      <trkpt lat="37.821239903569221" lon="-6.436352636665106">
        <ele>498.10000000000002</ele>
        <time>2016-03-14T22:04:40Z</time>
      </trkpt>
      <trkpt lat="37.821039073169231" lon="-6.436273427680135">
        <ele>497.13999999999999</ele>
        <time>2016-03-14T22:04:41Z</time>
      </trkpt>
      <trkpt lat="37.820835644379258" lon="-6.436222800984979">
        <ele>496.18000000000001</ele>
        <time>2016-03-14T22:04:42Z</time>
      </trkpt>
      <trkpt lat="37.820628695189953" lon="-6.436200756579638">
        <ele>495.22000000000003</ele>
        <time>2016-03-14T22:04:43Z</time>
      </trkpt>
      <trkpt lat="37.820421410724521" lon="-6.436206623911858">
        <ele>494.25999999999999</ele>
        <time>2016-03-14T22:04:44Z</time>
      </trkpt>
      <trkpt lat="37.820214293897152" lon="-6.436238139867783">
        <ele>493.29000000000002</ele>
        <time>2016-03-14T22:04:45Z</time>
      </trkpt>
      <trkpt lat="37.820011451840401" lon="-6.436296561732888">
        <ele>492.81</ele>
        <time>2016-03-14T22:04:46Z</time>
      </trkpt>
      <trkpt lat="37.819814058020711" lon="-6.436381638050079">
        <ele>492.32999999999998</ele>
        <time>2016-03-14T22:04:47Z</time>
      </trkpt>
      <trkpt lat="37.819621525704861" lon="-6.436491943895817">
        <ele>491.85000000000002</ele>
        <time>2016-03-14T22:04:48Z</time>
      </trkpt>
      <trkpt lat="37.819438129663467" lon="-6.436621611937881">
        <ele>491.37</ele>
        <time>2016-03-14T22:04:49Z</time>
      </trkpt>
      <trkpt lat="37.819262025877833" lon="-6.436762511730194">
        <ele>491.85000000000002</ele>
        <time>2016-03-14T22:04:50Z</time>
      </trkpt>
      <trkpt lat="37.819092459976673" lon="-6.436912631615996">
        <ele>491.37</ele>
        <time>2016-03-14T22:04:51Z</time>
      </trkpt>
      <trkpt lat="37.818574123084545" lon="-6.437318315729499">
        <ele>491.37</ele>
        <time>2016-03-14T22:04:52Z</time>
      </trkpt>
      <trkpt lat="37.818389134481549" lon="-6.437414539977908">
        <ele>490.88999999999999</ele>
        <time>2016-03-14T22:05:00Z</time>
      </trkpt>
      <trkpt lat="37.818197691813111" lon="-6.437487127259374">
        <ele>490.88999999999999</ele>
        <time>2016-03-14T22:05:06Z</time>
      </trkpt>
      <trkpt lat="37.818001806735992" lon="-6.437533982098103">
        <ele>490.41000000000003</ele>
        <time>2016-03-14T22:05:14Z</time>
      </trkpt>
      <trkpt lat="37.817803155630827" lon="-6.437554266303778">
        <ele>489.44999999999999</ele>
        <time>2016-03-14T22:05:24Z</time>
      </trkpt>
      <trkpt lat="37.817603498697281" lon="-6.437551835551858">
        <ele>488.97000000000003</ele>
        <time>2016-03-14T22:05:36Z</time>
      </trkpt>
      <trkpt lat="37.817405350506306" lon="-6.437525432556868">
        <ele>488.49000000000001</ele>
        <time>2016-03-14T22:05:41Z</time>
      </trkpt>
      <trkpt lat="37.817207202315331" lon="-6.437473045662046">
        <ele>487.52999999999997</ele>
        <time>2016-03-14T22:05:42Z</time>
      </trkpt>
      <trkpt lat="37.817012323066592" lon="-6.437394842505455">
        <ele>486.56</ele>
        <time>2016-03-14T22:05:43Z</time>
      </trkpt>
      <trkpt lat="37.81682264059782" lon="-6.437291326001287">
        <ele>485.12</ele>
        <time>2016-03-14T22:05:44Z</time>
      </trkpt>
      <trkpt lat="37.816641088575125" lon="-6.437163418158889">
        <ele>483.68000000000001</ele>
        <time>2016-03-14T22:05:45Z</time>
      </trkpt>
      <trkpt lat="37.816470265388489" lon="-6.437009442597628">
        <ele>472.63</ele>
        <time>2016-03-14T22:05:46Z</time>
      </trkpt>
      <trkpt lat="37.816309500485659" lon="-6.436835182830691">
        <ele>464.44999999999999</ele>
        <time>2016-03-14T22:05:47Z</time>
      </trkpt>
      <trkpt lat="37.816156111657619" lon="-6.436644578352571">
        <ele>458.69</ele>
        <time>2016-03-14T22:05:50Z</time>
      </trkpt>
      <trkpt lat="37.814727667719126" lon="-6.435196939855814">
        <ele>456.75999999999999</ele>
        <time>2016-03-14T22:05:51Z</time>
      </trkpt>
      <trkpt lat="37.813622010871768" lon="-6.434032944962382">
        <ele>451</ele>
        <time>2016-03-14T22:05:52Z</time>
      </trkpt>
      <trkpt lat="37.812312422320247" lon="-6.432345332577825">
        <ele>447.63</ele>
        <time>2016-03-14T22:05:53Z</time>
      </trkpt>
      <trkpt lat="37.810303280130029" lon="-6.430808929726481">
        <ele>447.14999999999998</ele>
        <time>2016-03-14T22:05:54Z</time>
      </trkpt>
      <trkpt lat="37.807791475206614" lon="-6.428660564124584">
        <ele>446.19</ele>
        <time>2016-03-14T22:05:55Z</time>
      </trkpt>
      <trkpt lat="37.806815067306161" lon="-6.427867887541652">
        <ele>445.70999999999998</ele>
        <time>2016-03-14T22:05:56Z</time>
      </trkpt>
      <trkpt lat="37.806663438677788" lon="-6.427680384367704">
        <ele>444.26999999999998</ele>
        <time>2016-03-14T22:05:57Z</time>
      </trkpt>
      <trkpt lat="37.806529412046075" lon="-6.427476452663541">
        <ele>443.31</ele>
        <time>2016-03-14T22:05:58Z</time>
      </trkpt>
      <trkpt lat="37.806413993239403" lon="-6.427255086600781">
        <ele>442.33999999999997</ele>
        <time>2016-03-14T22:05:59Z</time>
      </trkpt>
      <trkpt lat="37.806316595524549" lon="-6.427018465474248">
        <ele>438.01999999999998</ele>
        <time>2016-03-14T22:06:00Z</time>
      </trkpt>
      <trkpt lat="37.806234620511532" lon="-6.426771031692624">
        <ele>436.57999999999998</ele>
        <time>2016-03-14T22:06:04Z</time>
      </trkpt>
      <trkpt lat="37.806161446496844" lon="-6.426514461636543">
        <ele>435.13</ele>
        <time>2016-03-14T22:06:05Z</time>
      </trkpt>
      <trkpt lat="37.805895153433084" lon="-6.425751876085997">
        <ele>434.17000000000002</ele>
        <time>2016-03-14T22:06:06Z</time>
      </trkpt>
      <trkpt lat="37.805770263075829" lon="-6.425518356263638">
        <ele>433.20999999999998</ele>
        <time>2016-03-14T22:06:07Z</time>
      </trkpt>
      <trkpt lat="37.805624082684517" lon="-6.425300678238273">
        <ele>432.25</ele>
        <time>2016-03-14T22:06:08Z</time>
      </trkpt>
      <trkpt lat="37.80545812100172" lon="-6.42510311678052">
        <ele>431.76999999999998</ele>
        <time>2016-03-14T22:06:09Z</time>
      </trkpt>
      <trkpt lat="37.805273970589042" lon="-6.424930701032281">
        <ele>430.81</ele>
        <time>2016-03-14T22:06:10Z</time>
      </trkpt>
      <trkpt lat="37.805073391646147" lon="-6.42478552646935">
        <ele>430.32999999999998</ele>
        <time>2016-03-14T22:06:11Z</time>
      </trkpt>
      <trkpt lat="37.804862838238478" lon="-6.424672119319439">
        <ele>429.85000000000002</ele>
        <time>2016-03-14T22:06:12Z</time>
      </trkpt>
      <trkpt lat="37.804645914584398" lon="-6.424589054659009">
        <ele>429.37</ele>
        <time>2016-03-14T22:06:21Z</time>
      </trkpt>
      <trkpt lat="37.804423375055194" lon="-6.424535410478711">
        <ele>426.48000000000002</ele>
        <time>2016-03-14T22:06:31Z</time>
      </trkpt>
      <trkpt lat="37.804194297641516" lon="-6.424505235627294">
        <ele>425.51999999999998</ele>
        <time>2016-03-14T22:06:42Z</time>
      </trkpt>
      <trkpt lat="37.803962621837854" lon="-6.424488723278046">
        <ele>424.56</ele>
        <time>2016-03-14T22:06:51Z</time>
      </trkpt>
      <trkpt lat="37.803036337718368" lon="-6.424359558150172">
        <ele>423.12</ele>
        <time>2016-03-14T22:07:01Z</time>
      </trkpt>
      <trkpt lat="37.802818575873971" lon="-6.424270290881395">
        <ele>421.68000000000001</ele>
        <time>2016-03-14T22:07:02Z</time>
      </trkpt>
      <trkpt lat="37.802610956132412" lon="-6.424153530970216">
        <ele>420.23000000000002</ele>
        <time>2016-03-14T22:07:03Z</time>
      </trkpt>
      <trkpt lat="37.802414065226912" lon="-6.424013637006283">
        <ele>418.79000000000002</ele>
        <time>2016-03-14T22:07:04Z</time>
      </trkpt>
      <trkpt lat="37.802227819338441" lon="-6.423849603161216">
        <ele>416.87</ele>
        <time>2016-03-14T22:07:05Z</time>
      </trkpt>
      <trkpt lat="37.802055822685361" lon="-6.423662938177586">
        <ele>415.43000000000001</ele>
        <time>2016-03-14T22:07:06Z</time>
      </trkpt>
      <trkpt lat="37.801897237077355" lon="-6.423456156626344">
        <ele>401.49000000000001</ele>
        <time>2016-03-14T22:07:07Z</time>
      </trkpt>
      <trkpt lat="37.801748793572187" lon="-6.423232695087791">
        <ele>390.91000000000003</ele>
        <time>2016-03-14T22:07:08Z</time>
      </trkpt>
      <trkpt lat="37.801605630666018" lon="-6.422997498884797">
        <ele>393.31999999999999</ele>
        <time>2016-03-14T22:07:15Z</time>
      </trkpt>
      <trkpt lat="37.800243990495801" lon="-6.420620139688253">
        <ele>390.91000000000003</ele>
        <time>2016-03-14T22:07:16Z</time>
      </trkpt>
      <trkpt lat="37.798854522407055" lon="-6.417512129992247">
        <ele>388.02999999999997</ele>
        <time>2016-03-14T22:07:17Z</time>
      </trkpt>
      <trkpt lat="37.797771412879229" lon="-6.414271937683225">
        <ele>387.06999999999999</ele>
        <time>2016-03-14T22:07:18Z</time>
      </trkpt>
      <trkpt lat="37.796642873436213" lon="-6.411712523549795">
        <ele>386.58999999999997</ele>
        <time>2016-03-14T22:07:19Z</time>
      </trkpt>
      <trkpt lat="37.795208981260657" lon="-6.409153947606683">
        <ele>385.63</ele>
        <time>2016-03-14T22:07:20Z</time>
      </trkpt>
      <trkpt lat="37.79503220692277" lon="-6.408969294279814">
        <ele>384.66000000000003</ele>
        <time>2016-03-14T22:07:21Z</time>
      </trkpt>
      <trkpt lat="37.794845122843981" lon="-6.408806433901191">
        <ele>383.69999999999999</ele>
        <time>2016-03-14T22:07:22Z</time>
      </trkpt>
      <trkpt lat="37.794646387919784" lon="-6.408671149984002">
        <ele>382.74000000000001</ele>
        <time>2016-03-14T22:07:23Z</time>
      </trkpt>
      <trkpt lat="37.794440863654017" lon="-6.408557994291186">
        <ele>381.30000000000001</ele>
        <time>2016-03-14T22:07:24Z</time>
      </trkpt>
      <trkpt lat="37.794227125123143" lon="-6.408470151945949">
        <ele>378.42000000000002</ele>
        <time>2016-03-14T22:07:25Z</time>
      </trkpt>
      <trkpt lat="37.794010620564222" lon="-6.408399157226086">
        <ele>378.89999999999998</ele>
        <time>2016-03-14T22:07:26Z</time>
      </trkpt>
      <trkpt lat="37.793791936710477" lon="-6.40834073536098">
        <ele>379.38</ele>
        <time>2016-03-14T22:07:32Z</time>
      </trkpt>
      <trkpt lat="37.792307501658797" lon="-6.407848885282874">
        <ele>380.33999999999997</ele>
        <time>2016-03-14T22:07:33Z</time>
      </trkpt>
      <trkpt lat="37.792129805311561" lon="-6.407721564173698">
        <ele>381.30000000000001</ele>
        <time>2016-03-14T22:07:34Z</time>
      </trkpt>
      <trkpt lat="37.79196317307651" lon="-6.407575299963355">
        <ele>381.77999999999997</ele>
        <time>2016-03-14T22:07:35Z</time>
      </trkpt>
      <trkpt lat="37.791808024048805" lon="-6.407411014661193">
        <ele>382.74000000000001</ele>
        <time>2016-03-14T22:07:36Z</time>
      </trkpt>
      <trkpt lat="37.79166360385716" lon="-6.407233905047178">
        <ele>383.22000000000003</ele>
        <time>2016-03-14T22:07:37Z</time>
      </trkpt>
      <trkpt lat="37.791534019634128" lon="-6.407041288912296">
        <ele>384.18000000000001</ele>
        <time>2016-03-14T22:07:38Z</time>
      </trkpt>
      <trkpt lat="37.791419103741646" lon="-6.406833501532674">
        <ele>384.66000000000003</ele>
        <time>2016-03-14T22:07:39Z</time>
      </trkpt>
      <trkpt lat="37.791318604722619" lon="-6.406612386927009">
        <ele>385.14999999999998</ele>
        <time>2016-03-14T22:07:40Z</time>
      </trkpt>
      <trkpt lat="37.791234953328967" lon="-6.40637987293303">
        <ele>385.14999999999998</ele>
        <time>2016-03-14T22:07:47Z</time>
      </trkpt>
      <trkpt lat="37.791166640818119" lon="-6.406136881560087">
        <ele>386.11000000000001</ele>
        <time>2016-03-14T22:07:48Z</time>
      </trkpt>
      <trkpt lat="37.791113499552011" lon="-6.405886597931385">
        <ele>385.63</ele>
        <time>2016-03-14T22:07:49Z</time>
      </trkpt>
      <trkpt lat="37.7910709194839" lon="-6.405630027875304">
        <ele>385.14999999999998</ele>
        <time>2016-03-14T22:07:50Z</time>
      </trkpt>
      <trkpt lat="37.790702702477574" lon="-6.404139725491405">
        <ele>384.66000000000003</ele>
        <time>2016-03-14T22:07:51Z</time>
      </trkpt>
      <trkpt lat="37.790590971708298" lon="-6.403918610885739">
        <ele>384.18000000000001</ele>
        <time>2016-03-14T22:07:52Z</time>
      </trkpt>
      <trkpt lat="37.79046013019979" lon="-6.403712499886751">
        <ele>383.69999999999999</ele>
        <time>2016-03-14T22:07:53Z</time>
      </trkpt>
      <trkpt lat="37.790312608703971" lon="-6.403522482141852">
        <ele>382.25999999999999</ele>
        <time>2016-03-14T22:07:54Z</time>
      </trkpt>
      <trkpt lat="37.790146982297301" lon="-6.403351742774248">
        <ele>381.30000000000001</ele>
        <time>2016-03-14T22:08:00Z</time>
      </trkpt>
      <trkpt lat="37.789966017007828" lon="-6.403202377259731">
        <ele>379.86000000000001</ele>
        <time>2016-03-14T22:08:01Z</time>
      </trkpt>
      <trkpt lat="37.789777591824532" lon="-6.403068518266082">
        <ele>369.75999999999999</ele>
        <time>2016-03-14T22:08:02Z</time>
      </trkpt>
      <trkpt lat="37.789577934890985" lon="-6.402951423078775">
        <ele>368.80000000000001</ele>
        <time>2016-03-14T22:08:03Z</time>
      </trkpt>
      <trkpt lat="37.789372494444251" lon="-6.402842290699482">
        <ele>368.31999999999999</ele>
        <time>2016-03-14T22:08:04Z</time>
      </trkpt>
      <trkpt lat="37.787926448509097" lon="-6.402290761470795">
        <ele>367.83999999999997</ele>
        <time>2016-03-14T22:08:05Z</time>
      </trkpt>
      <trkpt lat="37.787719499319792" lon="-6.402284055948257">
        <ele>367.83999999999997</ele>
        <time>2016-03-14T22:08:06Z</time>
      </trkpt>
      <trkpt lat="37.787513304501772" lon="-6.402300987392664">
        <ele>367.83999999999997</ele>
        <time>2016-03-14T22:08:11Z</time>
      </trkpt>
      <trkpt lat="37.78730895370245" lon="-6.402341891080141">
        <ele>367.36000000000001</ele>
        <time>2016-03-14T22:08:12Z</time>
      </trkpt>
      <trkpt lat="37.787107620388269" lon="-6.402405593544245">
        <ele>367.36000000000001</ele>
        <time>2016-03-14T22:08:13Z</time>
      </trkpt>
      <trkpt lat="37.786909639835358" lon="-6.402490502223373">
        <ele>367.36000000000001</ele>
        <time>2016-03-14T22:08:14Z</time>
      </trkpt>
      <trkpt lat="37.786716101691127" lon="-6.402595108374953">
        <ele>367.36000000000001</ele>
        <time>2016-03-14T22:08:15Z</time>
      </trkpt>
      <trkpt lat="37.786524575203657" lon="-6.40271320939064">
        <ele>367.36000000000001</ele>
        <time>2016-03-14T22:08:27Z</time>
      </trkpt>
      <trkpt lat="37.785345911979675" lon="-6.403218973428011">
        <ele>367.36000000000001</ele>
        <time>2016-03-14T22:08:33Z</time>
      </trkpt>
      <trkpt lat="37.785139130428433" lon="-6.403226349502802">
        <ele>367.36000000000001</ele>
        <time>2016-03-14T22:08:40Z</time>
      </trkpt>
      <trkpt lat="37.784930504858494" lon="-6.40320866368711">
        <ele>367.36000000000001</ele>
        <time>2016-03-14T22:08:51Z</time>
      </trkpt>
      <trkpt lat="37.78472607024014" lon="-6.403166418895125">
        <ele>367.36000000000001</ele>
        <time>2016-03-14T22:09:04Z</time>
      </trkpt>
      <trkpt lat="37.784527167677879" lon="-6.403097519651055">
        <ele>371.20999999999998</ele>
        <time>2016-03-14T22:09:05Z</time>
      </trkpt>
      <trkpt lat="37.784330192953348" lon="-6.403006240725517">
        <ele>372.64999999999998</ele>
        <time>2016-03-14T22:09:06Z</time>
      </trkpt>
      <trkpt lat="37.784137576818466" lon="-6.402902137488127">
        <ele>374.08999999999997</ele>
        <time>2016-03-14T22:09:07Z</time>
      </trkpt>
      <trkpt lat="37.783152032643557" lon="-6.402476001530886">
        <ele>375.52999999999997</ele>
        <time>2016-03-14T22:09:08Z</time>
      </trkpt>
      <trkpt lat="37.782945921644568" lon="-6.402450520545244">
        <ele>376.49000000000001</ele>
        <time>2016-03-14T22:09:19Z</time>
      </trkpt>
      <trkpt lat="37.782738469541073" lon="-6.402445742860436">
        <ele>381.77999999999997</ele>
        <time>2016-03-14T22:09:28Z</time>
      </trkpt>
      <trkpt lat="37.782531017437577" lon="-6.402461836114526">
        <ele>381.77999999999997</ele>
        <time>2016-03-14T22:09:29Z</time>
      </trkpt>
      <trkpt lat="37.782321721315384" lon="-6.402490166947246">
        <ele>381.77999999999997</ele>
        <time>2016-03-14T22:09:30Z</time>
      </trkpt>
      <trkpt lat="37.779632974416018" lon="-6.402986878529191">
        <ele>388.50999999999999</ele>
        <time>2016-03-14T22:09:31Z</time>
      </trkpt>
      <trkpt lat="37.778327241539955" lon="-6.402800381183624">
        <ele>404.37</ele>
        <time>2016-03-14T22:09:32Z</time>
      </trkpt>
      <trkpt lat="37.776973145082593" lon="-6.401909301057458">
        <ele>405.32999999999998</ele>
        <time>2016-03-14T22:09:33Z</time>
      </trkpt>
      <trkpt lat="37.774821426719427" lon="-6.400529388338327">
        <ele>407.25999999999999</ele>
        <time>2016-03-14T22:09:34Z</time>
      </trkpt>
      <trkpt lat="37.772023128345609" lon="-6.399309234693646">
        <ele>408.69999999999999</ele>
        <time>2016-03-14T22:09:35Z</time>
      </trkpt>
      <trkpt lat="37.771845431998372" lon="-6.399151235818863">
        <ele>410.13999999999999</ele>
        <time>2016-03-14T22:09:36Z</time>
      </trkpt>
      <trkpt lat="37.771677542477846" lon="-6.398978233337402">
        <ele>426.48000000000002</ele>
        <time>2016-03-14T22:09:37Z</time>
      </trkpt>
      <trkpt lat="37.771521471440792" lon="-6.398788299411535">
        <ele>438.01999999999998</ele>
        <time>2016-03-14T22:09:38Z</time>
      </trkpt>
      <trkpt lat="37.771374704316258" lon="-6.39858378097415">
        <ele>439.45999999999998</ele>
        <time>2016-03-14T22:09:39Z</time>
      </trkpt>
      <trkpt lat="37.769632693380117" lon="-6.396362576633692">
        <ele>440.89999999999998</ele>
        <time>2016-03-14T22:09:40Z</time>
      </trkpt>
      <trkpt lat="37.767851706594229" lon="-6.394921811297536">
        <ele>442.33999999999997</ele>
        <time>2016-03-14T22:09:51Z</time>
      </trkpt>
      <trkpt lat="37.767682895064354" lon="-6.39472316019237">
        <ele>443.79000000000002</ele>
        <time>2016-03-14T22:09:52Z</time>
      </trkpt>
      <trkpt lat="37.767528751865029" lon="-6.394506990909576">
        <ele>445.23000000000002</ele>
        <time>2016-03-14T22:09:53Z</time>
      </trkpt>
      <trkpt lat="37.767389109358191" lon="-6.394277326762676">
        <ele>446.67000000000002</ele>
        <time>2016-03-14T22:09:54Z</time>
      </trkpt>
      <trkpt lat="37.767265727743506" lon="-6.394034419208765">
        <ele>447.63</ele>
        <time>2016-03-14T22:09:55Z</time>
      </trkpt>
      <trkpt lat="37.767159109935164" lon="-6.393779693171382">
        <ele>449.06999999999999</ele>
        <time>2016-03-14T22:09:56Z</time>
      </trkpt>
      <trkpt lat="37.767068585380912" lon="-6.39351331628859">
        <ele>450.02999999999997</ele>
        <time>2016-03-14T22:09:57Z</time>
      </trkpt>
      <trkpt lat="37.766995579004288" lon="-6.393238808959723">
        <ele>451</ele>
        <time>2016-03-14T22:09:58Z</time>
      </trkpt>
      <trkpt lat="37.766940761357546" lon="-6.392959607765079">
        <ele>451.95999999999998</ele>
        <time>2016-03-14T22:10:09Z</time>
      </trkpt>
      <trkpt lat="37.766906227916479" lon="-6.392674874514341">
        <ele>452.92000000000002</ele>
        <time>2016-03-14T22:10:10Z</time>
      </trkpt>
      <trkpt lat="37.766892062500119" lon="-6.392382178455591">
        <ele>464.44999999999999</ele>
        <time>2016-03-14T22:10:11Z</time>
      </trkpt>
      <trkpt lat="37.766893319785595" lon="-6.392088644206524">
        <ele>465.42000000000002</ele>
        <time>2016-03-14T22:10:12Z</time>
      </trkpt>
      <trkpt lat="37.766904048621655" lon="-6.391795864328742">
        <ele>466.86000000000001</ele>
        <time>2016-03-14T22:10:13Z</time>
      </trkpt>
      <trkpt lat="37.76689600199461" lon="-6.388605544343591">
        <ele>467.81999999999999</ele>
        <time>2016-03-14T22:10:14Z</time>
      </trkpt>
      <trkpt lat="37.766826264560223" lon="-6.388341095298529">
        <ele>469.25999999999999</ele>
        <time>2016-03-14T22:10:21Z</time>
      </trkpt>
      <trkpt lat="37.76673624292016" lon="-6.388088883832097">
        <ele>470.69999999999999</ele>
        <time>2016-03-14T22:10:22Z</time>
      </trkpt>
      <trkpt lat="37.766627697274089" lon="-6.387849245220423">
        <ele>472.13999999999999</ele>
        <time>2016-03-14T22:10:23Z</time>
      </trkpt>
      <trkpt lat="37.766502136364579" lon="-6.387623185291886">
        <ele>473.11000000000001</ele>
        <time>2016-03-14T22:10:24Z</time>
      </trkpt>
      <trkpt lat="37.766360063105822" lon="-6.387413218617439">
        <ele>486.56</ele>
        <time>2016-03-14T22:10:25Z</time>
      </trkpt>
      <trkpt lat="37.766199968755245" lon="-6.387221440672875">
        <ele>488.00999999999999</ele>
        <time>2016-03-14T22:10:26Z</time>
      </trkpt>
      <trkpt lat="37.766030738130212" lon="-6.387040223926306">
        <ele>489.44999999999999</ele>
        <time>2016-03-14T22:10:27Z</time>
      </trkpt>
      <trkpt lat="37.764000641182065" lon="-6.385221686214209">
        <ele>490.88999999999999</ele>
        <time>2016-03-14T22:10:28Z</time>
      </trkpt>
      <trkpt lat="37.763785310089588" lon="-6.385127473622561">
        <ele>492.32999999999998</ele>
        <time>2016-03-14T22:10:29Z</time>
      </trkpt>
      <trkpt lat="37.763564698398113" lon="-6.385059831663966">
        <ele>493.76999999999998</ele>
        <time>2016-03-14T22:10:30Z</time>
      </trkpt>
      <trkpt lat="37.763339560478926" lon="-6.38502286747098">
        <ele>503.38999999999999</ele>
        <time>2016-03-14T22:10:31Z</time>
      </trkpt>
      <trkpt lat="37.763110734522343" lon="-6.385011048987508">
        <ele>504.82999999999998</ele>
        <time>2016-03-14T22:10:32Z</time>
      </trkpt>
      <trkpt lat="37.762882495298982" lon="-6.385016413405538">
        <ele>506.26999999999998</ele>
        <time>2016-03-14T22:10:33Z</time>
      </trkpt>
      <trkpt lat="37.761292867362499" lon="-6.384921446442604">
        <ele>507.23000000000002</ele>
        <time>2016-03-14T22:10:34Z</time>
      </trkpt>
      <trkpt lat="37.761088432744145" lon="-6.384837459772825">
        <ele>508.19</ele>
        <time>2016-03-14T22:10:35Z</time>
      </trkpt>
      <trkpt lat="37.76089321821928" lon="-6.384730339050293">
        <ele>508.67000000000002</ele>
        <time>2016-03-14T22:10:36Z</time>
      </trkpt>
      <trkpt lat="37.760704457759857" lon="-6.384604023769498">
        <ele>509.16000000000003</ele>
        <time>2016-03-14T22:10:37Z</time>
      </trkpt>
      <trkpt lat="37.760522151365876" lon="-6.384455412626267">
        <ele>509.63999999999999</ele>
        <time>2016-03-14T22:10:42Z</time>
      </trkpt>
      <trkpt lat="37.760349735617638" lon="-6.384286349639297">
        <ele>510.12</ele>
        <time>2016-03-14T22:10:43Z</time>
      </trkpt>
      <trkpt lat="37.76019056327641" lon="-6.384095074608922">
        <ele>510.12</ele>
        <time>2016-03-14T22:10:44Z</time>
      </trkpt>
      <trkpt lat="37.760046645998955" lon="-6.383883683010936">
        <ele>509.16000000000003</ele>
        <time>2016-03-14T22:10:45Z</time>
      </trkpt>
      <trkpt lat="37.75992033071816" lon="-6.383656281977892">
        <ele>508.19</ele>
        <time>2016-03-14T22:10:46Z</time>
      </trkpt>
      <trkpt lat="37.759814634919167" lon="-6.383416475728154">
        <ele>507.23000000000002</ele>
        <time>2016-03-14T22:10:47Z</time>
      </trkpt>
      <trkpt lat="37.759730732068419" lon="-6.383169544860721">
        <ele>505.79000000000002</ele>
        <time>2016-03-14T22:10:48Z</time>
      </trkpt>
      <trkpt lat="37.759667616337538" lon="-6.382916998118162">
        <ele>504.82999999999998</ele>
        <time>2016-03-14T22:10:49Z</time>
      </trkpt>
      <trkpt lat="37.759623611345887" lon="-6.382658500224352">
        <ele>503.87</ele>
        <time>2016-03-14T22:10:50Z</time>
      </trkpt>
      <trkpt lat="37.759598800912499" lon="-6.382396314293146">
        <ele>502.43000000000001</ele>
        <time>2016-03-14T22:10:51Z</time>
      </trkpt>
      <trkpt lat="37.759592514485121" lon="-6.382131865248084">
        <ele>495.69999999999999</ele>
        <time>2016-03-14T22:10:52Z</time>
      </trkpt>
      <trkpt lat="37.759604584425688" lon="-6.381865572184324">
        <ele>494.25999999999999</ele>
        <time>2016-03-14T22:10:53Z</time>
      </trkpt>
      <trkpt lat="37.759631238877773" lon="-6.381593160331249">
        <ele>492.81</ele>
        <time>2016-03-14T22:10:59Z</time>
      </trkpt>
      <trkpt lat="37.759658982977271" lon="-6.380202686414123">
        <ele>491.37</ele>
        <time>2016-03-14T22:11:00Z</time>
      </trkpt>
      <trkpt lat="37.759609865024686" lon="-6.379930023103952">
        <ele>490.41000000000003</ele>
        <time>2016-03-14T22:11:01Z</time>
      </trkpt>
      <trkpt lat="37.759538451209664" lon="-6.37966406531632">
        <ele>488.97000000000003</ele>
        <time>2016-03-14T22:11:02Z</time>
      </trkpt>
      <trkpt lat="37.75944733992219" lon="-6.37940757907927">
        <ele>487.52999999999997</ele>
        <time>2016-03-14T22:11:03Z</time>
      </trkpt>
      <trkpt lat="37.759336195886135" lon="-6.379163330420852">
        <ele>486.56</ele>
        <time>2016-03-14T22:11:04Z</time>
      </trkpt>
      <trkpt lat="37.759205522015691" lon="-6.378935594111681">
        <ele>485.12</ele>
        <time>2016-03-14T22:11:11Z</time>
      </trkpt>
      <trkpt lat="37.759055569767952" lon="-6.378722861409187">
        <ele>484.16000000000003</ele>
        <time>2016-03-14T22:11:12Z</time>
      </trkpt>
      <trkpt lat="37.758888937532902" lon="-6.378528485074639">
        <ele>482.72000000000003</ele>
        <time>2016-03-14T22:11:13Z</time>
      </trkpt>
      <trkpt lat="37.758704451844096" lon="-6.378356488421559">
        <ele>481.27999999999997</ele>
        <time>2016-03-14T22:11:14Z</time>
      </trkpt>
      <trkpt lat="37.758504711091518" lon="-6.378205278888345">
        <ele>473.58999999999997</ele>
        <time>2016-03-14T22:11:15Z</time>
      </trkpt>
      <trkpt lat="37.758296420797706" lon="-6.378071838989854">
        <ele>472.13999999999999</ele>
        <time>2016-03-14T22:11:16Z</time>
      </trkpt>
      <trkpt lat="37.758085867390037" lon="-6.37794803828001">
        <ele>470.69999999999999</ele>
        <time>2016-03-14T22:11:26Z</time>
      </trkpt>
      <trkpt lat="37.756941821426153" lon="-6.377049246802926">
        <ele>469.74000000000001</ele>
        <time>2016-03-14T22:11:38Z</time>
      </trkpt>
      <trkpt lat="37.75679606013" lon="-6.37684129178524">
        <ele>468.30000000000001</ele>
        <time>2016-03-14T22:11:44Z</time>
      </trkpt>
      <trkpt lat="37.75666756555438" lon="-6.376618416979909">
        <ele>466.86000000000001</ele>
        <time>2016-03-14T22:11:45Z</time>
      </trkpt>
      <trkpt lat="37.756554828956723" lon="-6.376379448920488">
        <ele>455.31999999999999</ele>
        <time>2016-03-14T22:11:46Z</time>
      </trkpt>
      <trkpt lat="37.756456593051553" lon="-6.376123800873756">
        <ele>454.36000000000001</ele>
        <time>2016-03-14T22:11:47Z</time>
      </trkpt>
      <trkpt lat="37.756367409601808" lon="-6.375858597457409">
        <ele>452.92000000000002</ele>
        <time>2016-03-14T22:11:48Z</time>
      </trkpt>
      <trkpt lat="37.755668694153428" lon="-6.374001000076532">
        <ele>451.48000000000002</ele>
        <time>2016-03-14T22:11:49Z</time>
      </trkpt>
      <trkpt lat="37.755511282011867" lon="-6.373780304566026">
        <ele>450.02999999999997</ele>
        <time>2016-03-14T22:11:53Z</time>
      </trkpt>
      <trkpt lat="37.755338363349438" lon="-6.373582324013114">
        <ele>448.58999999999997</ele>
        <time>2016-03-14T22:11:54Z</time>
      </trkpt>
      <trkpt lat="37.755149519070983" lon="-6.373408148065209">
        <ele>434.17000000000002</ele>
        <time>2016-03-14T22:11:55Z</time>
      </trkpt>
      <trkpt lat="37.754949359223247" lon="-6.373258614912629">
        <ele>414.94999999999999</ele>
        <time>2016-03-14T22:11:56Z</time>
      </trkpt>
      <trkpt lat="37.754743583500385" lon="-6.373122660443187">
        <ele>409.18000000000001</ele>
        <time>2016-03-14T22:11:57Z</time>
      </trkpt>
      <trkpt lat="37.752631762996316" lon="-6.37147662229836">
        <ele>408.22000000000003</ele>
        <time>2016-03-14T22:12:09Z</time>
      </trkpt>
      <trkpt lat="37.750122388824821" lon="-6.36909943073988">
        <ele>407.25999999999999</ele>
        <time>2016-03-14T22:12:26Z</time>
      </trkpt>
      <trkpt lat="37.749039363116026" lon="-6.367704933509231">
        <ele>405.81</ele>
        <time>2016-03-14T22:12:37Z</time>
      </trkpt>
      <trkpt lat="37.748826798051596" lon="-6.367538217455149">
        <ele>404.37</ele>
        <time>2016-03-14T22:12:48Z</time>
      </trkpt>
      <trkpt lat="37.748599983751774" lon="-6.367404609918594">
        <ele>402.93000000000001</ele>
        <time>2016-03-14T22:13:00Z</time>
      </trkpt>
      <trkpt lat="37.748362105339766" lon="-6.367301261052489">
        <ele>398.12</ele>
        <time>2016-03-14T22:13:08Z</time>
      </trkpt>
      <trkpt lat="37.748117689043283" lon="-6.367224399000406">
        <ele>396.68000000000001</ele>
        <time>2016-03-14T22:13:10Z</time>
      </trkpt>
      <trkpt lat="37.747870087623596" lon="-6.367161786183715">
        <ele>394.75999999999999</ele>
        <time>2016-03-14T22:13:11Z</time>
      </trkpt>
      <trkpt lat="37.746899295598269" lon="-6.366868084296584">
        <ele>393.31999999999999</ele>
        <time>2016-03-14T22:13:12Z</time>
      </trkpt>
      <trkpt lat="37.746677175164223" lon="-6.36673984117806">
        <ele>392.36000000000001</ele>
        <time>2016-03-14T22:13:13Z</time>
      </trkpt>
      <trkpt lat="37.746465699747205" lon="-6.366585027426481">
        <ele>391.38999999999999</ele>
        <time>2016-03-14T22:13:14Z</time>
      </trkpt>
      <trkpt lat="37.74626269005239" lon="-6.366410432383418">
        <ele>393.31999999999999</ele>
        <time>2016-03-14T22:13:25Z</time>
      </trkpt>
      <trkpt lat="37.746062446385622" lon="-6.366223767399788">
        <ele>395.24000000000001</ele>
        <time>2016-03-14T22:13:36Z</time>
      </trkpt>
      <trkpt lat="37.743797153234482" lon="-6.364002227783203">
        <ele>388.50999999999999</ele>
        <time>2016-03-14T22:13:49Z</time>
      </trkpt>
      <trkpt lat="37.740886034443974" lon="-6.361186997964978">
        <ele>374.08999999999997</ele>
        <time>2016-03-14T22:13:57Z</time>
      </trkpt>
      <trkpt lat="37.738943109288812" lon="-6.359618827700615">
        <ele>366.88</ele>
        <time>2016-03-14T22:13:58Z</time>
      </trkpt>
      <trkpt lat="37.736647808924317" lon="-6.357789225876331">
        <ele>366.39999999999998</ele>
        <time>2016-03-14T22:13:59Z</time>
      </trkpt>
      <trkpt lat="37.734327362850308" lon="-6.355041302740574">
        <ele>366.39999999999998</ele>
        <time>2016-03-14T22:14:08Z</time>
      </trkpt>
      <trkpt lat="37.73293873295188" lon="-6.353317899629474">
        <ele>366.39999999999998</ele>
        <time>2016-03-14T22:14:09Z</time>
      </trkpt>
      <trkpt lat="37.732704291120172" lon="-6.352897631004453">
        <ele>366.39999999999998</ele>
        <time>2016-03-14T22:14:19Z</time>
      </trkpt>
      <trkpt lat="37.732613682746887" lon="-6.352678360417485">
        <ele>366.39999999999998</ele>
        <time>2016-03-14T22:14:27Z</time>
      </trkpt>
      <trkpt lat="37.732538329437375" lon="-6.352459844201803">
        <ele>365.44</ele>
        <time>2016-03-14T22:14:37Z</time>
      </trkpt>
      <trkpt lat="37.732477057725191" lon="-6.35224275290966">
        <ele>361.11000000000001</ele>
        <time>2016-03-14T22:14:47Z</time>
      </trkpt>
      <trkpt lat="37.732427436858416" lon="-6.352031361311674">
        <ele>356.79000000000002</ele>
        <time>2016-03-14T22:14:54Z</time>
      </trkpt>
      <trkpt lat="37.731991158798337" lon="-6.349958349019289">
        <ele>349.10000000000002</ele>
        <time>2016-03-14T22:15:01Z</time>
      </trkpt>
      <trkpt lat="37.73136192932725" lon="-6.348314993083477">
        <ele>348.62</ele>
        <time>2016-03-14T22:15:16Z</time>
      </trkpt>
      <trkpt lat="37.730381330475211" lon="-6.346433507278562">
        <ele>348.13</ele>
        <time>2016-03-14T22:15:18Z</time>
      </trkpt>
      <trkpt lat="37.729721758514643" lon="-6.344728544354439">
        <ele>345.73000000000002</ele>
        <time>2016-03-14T22:15:19Z</time>
      </trkpt>
      <trkpt lat="37.729604747146368" lon="-6.344528216868639">
        <ele>346.20999999999998</ele>
        <time>2016-03-14T22:15:20Z</time>
      </trkpt>
      <trkpt lat="37.729471139609814" lon="-6.344342725351453">
        <ele>349.10000000000002</ele>
        <time>2016-03-14T22:15:26Z</time>
      </trkpt>
      <trkpt lat="37.728169597685337" lon="-6.342754689976573">
        <ele>345.25</ele>
        <time>2016-03-14T22:15:27Z</time>
      </trkpt>
      <trkpt lat="37.72806809283793" lon="-6.342535922303796">
        <ele>339</ele>
        <time>2016-03-14T22:15:28Z</time>
      </trkpt>
      <trkpt lat="37.727169720456004" lon="-6.340016825124621">
        <ele>332.75</ele>
        <time>2016-03-14T22:15:29Z</time>
      </trkpt>
      <trkpt lat="37.726715253666043" lon="-6.337800482288003">
        <ele>326.99000000000001</ele>
        <time>2016-03-14T22:15:30Z</time>
      </trkpt>
      <trkpt lat="37.725930288434029" lon="-6.335036968812347">
        <ele>321.69999999999999</ele>
        <time>2016-03-14T22:15:31Z</time>
      </trkpt>
      <trkpt lat="37.725449586287141" lon="-6.331941951066256">
        <ele>310.63999999999999</ele>
        <time>2016-03-14T22:15:41Z</time>
      </trkpt>
      <trkpt lat="37.724809879437089" lon="-6.329932389780879">
        <ele>309.68000000000001</ele>
        <time>2016-03-14T22:15:54Z</time>
      </trkpt>
      <trkpt lat="37.723688129335642" lon="-6.328236311674118">
        <ele>308.72000000000003</ele>
        <time>2016-03-14T22:15:59Z</time>
      </trkpt>
      <trkpt lat="37.721329964697361" lon="-6.324852621182799">
        <ele>308.24000000000001</ele>
        <time>2016-03-14T22:16:00Z</time>
      </trkpt>
      <trkpt lat="37.72115251980722" lon="-6.324381977319717">
        <ele>304.88</ele>
        <time>2016-03-14T22:16:01Z</time>
      </trkpt>
      <trkpt lat="37.721091751009226" lon="-6.324136219918728">
        <ele>304.38999999999999</ele>
        <time>2016-03-14T22:16:02Z</time>
      </trkpt>
      <trkpt lat="37.72104942239821" lon="-6.323883589357138">
        <ele>304.38999999999999</ele>
        <time>2016-03-14T22:16:03Z</time>
      </trkpt>
      <trkpt lat="37.720836689695716" lon="-6.322299912571907">
        <ele>304.38999999999999</ele>
        <time>2016-03-14T22:16:04Z</time>
      </trkpt>
      <trkpt lat="37.720756726339459" lon="-6.322039822116494">
        <ele>304.38999999999999</ele>
        <time>2016-03-14T22:16:05Z</time>
      </trkpt>
      <trkpt lat="37.720659244805574" lon="-6.321781072765589">
        <ele>304.38999999999999</ele>
        <time>2016-03-14T22:16:14Z</time>
      </trkpt>
      <trkpt lat="37.720546005293727" lon="-6.321525257080793">
        <ele>302.94999999999999</ele>
        <time>2016-03-14T22:16:22Z</time>
      </trkpt>
      <trkpt lat="37.720415163785219" lon="-6.32127195596695">
        <ele>299.11000000000001</ele>
        <time>2016-03-14T22:16:31Z</time>
      </trkpt>
      <trkpt lat="37.720273341983557" lon="-6.32102033123374">
        <ele>298.14999999999998</ele>
        <time>2016-03-14T22:16:42Z</time>
      </trkpt>
      <trkpt lat="37.719013290479779" lon="-6.318320101127029">
        <ele>298.14999999999998</ele>
        <time>2016-03-14T22:16:54Z</time>
      </trkpt>
      <trkpt lat="37.717686602845788" lon="-6.314501222223043">
        <ele>297.67000000000002</ele>
        <time>2016-03-14T22:17:01Z</time>
      </trkpt>
      <trkpt lat="37.717271531000733" lon="-6.313130613416433">
        <ele>297.67000000000002</ele>
        <time>2016-03-14T22:17:07Z</time>
      </trkpt>
      <trkpt lat="37.717143204063177" lon="-6.312904469668865">
        <ele>297.18000000000001</ele>
        <time>2016-03-14T22:17:15Z</time>
      </trkpt>
      <trkpt lat="37.71699576638639" lon="-6.312695341184735">
        <ele>297.18000000000001</ele>
        <time>2016-03-14T22:17:24Z</time>
      </trkpt>
      <trkpt lat="37.716832151636481" lon="-6.312503982335329">
        <ele>297.18000000000001</ele>
        <time>2016-03-14T22:17:25Z</time>
      </trkpt>
      <trkpt lat="37.716651605442166" lon="-6.312329722568393">
        <ele>294.30000000000001</ele>
        <time>2016-03-14T22:17:26Z</time>
      </trkpt>
      <trkpt lat="37.716455888003111" lon="-6.312168706208468">
        <ele>293.81999999999999</ele>
        <time>2016-03-14T22:17:35Z</time>
      </trkpt>
      <trkpt lat="37.716248603537679" lon="-6.312015233561397">
        <ele>295.74000000000001</ele>
        <time>2016-03-14T22:17:49Z</time>
      </trkpt>
      <trkpt lat="37.714295452460647" lon="-6.310859452933073">
        <ele>295.25999999999999</ele>
        <time>2016-03-14T22:18:00Z</time>
      </trkpt>
      <trkpt lat="37.712478255853057" lon="-6.309831915423274">
        <ele>304.88</ele>
        <time>2016-03-14T22:18:06Z</time>
      </trkpt>
      <trkpt lat="37.710671201348305" lon="-6.308152265846729">
        <ele>306.80000000000001</ele>
        <time>2016-03-14T22:18:14Z</time>
      </trkpt>
      <trkpt lat="37.708765491843224" lon="-6.30540962330997">
        <ele>305.83999999999997</ele>
        <time>2016-03-14T22:18:18Z</time>
      </trkpt>
      <trkpt lat="37.706595500931144" lon="-6.302560111507773">
        <ele>308.72000000000003</ele>
        <time>2016-03-14T22:18:19Z</time>
      </trkpt>
      <trkpt lat="37.70572654902935" lon="-6.300893453881145">
        <ele>312.08999999999997</ele>
        <time>2016-03-14T22:18:20Z</time>
      </trkpt>
      <trkpt lat="37.705044513568282" lon="-6.299618817865849">
        <ele>312.56999999999999</ele>
        <time>2016-03-14T22:18:21Z</time>
      </trkpt>
      <trkpt lat="37.703685639426112" lon="-6.298381481319666">
        <ele>312.56999999999999</ele>
        <time>2016-03-14T22:18:22Z</time>
      </trkpt>
      <trkpt lat="37.701999032869935" lon="-6.296824039891362">
        <ele>314.49000000000001</ele>
        <time>2016-03-14T22:18:32Z</time>
      </trkpt>
      <trkpt lat="37.701863665133715" lon="-6.296624634414911">
        <ele>310.63999999999999</ele>
        <time>2016-03-14T22:18:39Z</time>
      </trkpt>
      <trkpt lat="37.701743803918362" lon="-6.296412656083703">
        <ele>311.60000000000002</ele>
        <time>2016-03-14T22:18:54Z</time>
      </trkpt>
      <trkpt lat="37.700774688273668" lon="-6.294135041534901">
        <ele>310.63999999999999</ele>
        <time>2016-03-14T22:19:08Z</time>
      </trkpt>
      <trkpt lat="37.699213810265064" lon="-6.290222788229585">
        <ele>308.24000000000001</ele>
        <time>2016-03-14T22:19:20Z</time>
      </trkpt>
      <trkpt lat="37.698234971612692" lon="-6.286852844059467">
        <ele>308.24000000000001</ele>
        <time>2016-03-14T22:19:30Z</time>
      </trkpt>
      <trkpt lat="37.697416394948959" lon="-6.285269418731332">
        <ele>308.24000000000001</ele>
        <time>2016-03-14T22:19:36Z</time>
      </trkpt>
      <trkpt lat="37.695838585495949" lon="-6.283603683114052">
        <ele>308.72000000000003</ele>
        <time>2016-03-14T22:19:37Z</time>
      </trkpt>
      <trkpt lat="37.695143474265933" lon="-6.282820478081703">
        <ele>308.72000000000003</ele>
        <time>2016-03-14T22:19:38Z</time>
      </trkpt>
      <trkpt lat="37.695010621100664" lon="-6.282604476436973">
        <ele>308.72000000000003</ele>
        <time>2016-03-14T22:19:39Z</time>
      </trkpt>
      <trkpt lat="37.694896711036563" lon="-6.282374979928136">
        <ele>303.43000000000001</ele>
        <time>2016-03-14T22:19:40Z</time>
      </trkpt>
      <trkpt lat="37.694798642769456" lon="-6.282133413478732">
        <ele>300.55000000000001</ele>
        <time>2016-03-14T22:19:41Z</time>
      </trkpt>
      <trkpt lat="37.69470895640552" lon="-6.28188363276422">
        <ele>301.99000000000001</ele>
        <time>2016-03-14T22:19:42Z</time>
      </trkpt>
      <trkpt lat="37.693738918751478" lon="-6.279229754582048">
        <ele>299.11000000000001</ele>
        <time>2016-03-14T22:19:50Z</time>
      </trkpt>
      <trkpt lat="37.692539300769567" lon="-6.277721263468266">
        <ele>292.38</ele>
        <time>2016-03-14T22:19:51Z</time>
      </trkpt>
      <trkpt lat="37.689927415922284" lon="-6.274505043402314">
        <ele>282.76999999999998</ele>
        <time>2016-03-14T22:19:52Z</time>
      </trkpt>
      <trkpt lat="37.687972504645586" lon="-6.271625692024827">
        <ele>280.36000000000001</ele>
        <time>2016-03-14T22:19:53Z</time>
      </trkpt>
      <trkpt lat="37.686143992468715" lon="-6.268848851323128">
        <ele>280.83999999999997</ele>
        <time>2016-03-14T22:19:54Z</time>
      </trkpt>
      <trkpt lat="37.68494663760066" lon="-6.266078632324934">
        <ele>280.83999999999997</ele>
        <time>2016-03-14T22:19:55Z</time>
      </trkpt>
      <trkpt lat="37.684510191902518" lon="-6.264382554218173">
        <ele>281.31999999999999</ele>
        <time>2016-03-14T22:19:56Z</time>
      </trkpt>
      <trkpt lat="37.68438714556396" lon="-6.264143250882626">
        <ele>281.31999999999999</ele>
        <time>2016-03-14T22:19:57Z</time>
      </trkpt>
      <trkpt lat="37.68424641340971" lon="-6.263919286429882">
        <ele>281.31999999999999</ele>
        <time>2016-03-14T22:19:58Z</time>
      </trkpt>
      <trkpt lat="37.684090090915561" lon="-6.263712923973799">
        <ele>281.31999999999999</ele>
        <time>2016-03-14T22:19:59Z</time>
      </trkpt>
      <trkpt lat="37.683920357376337" lon="-6.263522822409868">
        <ele>276.04000000000002</ele>
        <time>2016-03-14T22:20:00Z</time>
      </trkpt>
      <trkpt lat="37.683743583038449" lon="-6.263347556814551">
        <ele>275.56</ele>
        <time>2016-03-14T22:20:03Z</time>
      </trkpt>
      <trkpt lat="37.683560773730278" lon="-6.26317891292274">
        <ele>274.58999999999997</ele>
        <time>2016-03-14T22:20:04Z</time>
      </trkpt>
      <trkpt lat="37.682092431932688" lon="-6.261804616078734">
        <ele>273.63</ele>
        <time>2016-03-14T22:20:05Z</time>
      </trkpt>
      <trkpt lat="37.681968295946717" lon="-6.261614849790931">
        <ele>272.67000000000002</ele>
        <time>2016-03-14T22:20:06Z</time>
      </trkpt>
      <trkpt lat="37.681868635118008" lon="-6.261421144008637">
        <ele>271.70999999999998</ele>
        <time>2016-03-14T22:20:07Z</time>
      </trkpt>
      <trkpt lat="37.681788420304656" lon="-6.261221738532186">
        <ele>270.75</ele>
        <time>2016-03-14T22:20:08Z</time>
      </trkpt>
      <trkpt lat="37.68172312527895" lon="-6.261017052456737">
        <ele>270.26999999999998</ele>
        <time>2016-03-14T22:20:11Z</time>
      </trkpt>
      <trkpt lat="37.681673672050238" lon="-6.260806163772941">
        <ele>269.31</ele>
        <time>2016-03-14T22:20:12Z</time>
      </trkpt>
      <trkpt lat="37.681636959314346" lon="-6.260589575394988">
        <ele>268.82999999999998</ele>
        <time>2016-03-14T22:20:13Z</time>
      </trkpt>
      <trkpt lat="37.681616004556417" lon="-6.260366784408689">
        <ele>267.86000000000001</ele>
        <time>2016-03-14T22:20:14Z</time>
      </trkpt>
      <trkpt lat="37.681613238528371" lon="-6.260142317041755">
        <ele>265.45999999999998</ele>
        <time>2016-03-14T22:20:15Z</time>
      </trkpt>
      <trkpt lat="37.681625811383128" lon="-6.259921789169312">
        <ele>264.5</ele>
        <time>2016-03-14T22:20:16Z</time>
      </trkpt>
      <trkpt lat="37.681649615988135" lon="-6.259701931849122">
        <ele>263.54000000000002</ele>
        <time>2016-03-14T22:20:17Z</time>
      </trkpt>
      <trkpt lat="37.6817118935287" lon="-6.259037666022778">
        <ele>262.57999999999998</ele>
        <time>2016-03-14T22:20:27Z</time>
      </trkpt>
      <trkpt lat="37.681707283481956" lon="-6.258816970512271">
        <ele>261.62</ele>
        <time>2016-03-14T22:20:36Z</time>
      </trkpt>
      <trkpt lat="37.681690184399486" lon="-6.258596191182733">
        <ele>260.64999999999998</ele>
        <time>2016-03-14T22:25:44Z</time>
      </trkpt>
      <trkpt lat="37.68166109919548" lon="-6.258377004414797">
        <ele>258.25</ele>
        <time>2016-03-14T22:25:52Z</time>
      </trkpt>
      <trkpt lat="37.681618602946401" lon="-6.258156476542354">
        <ele>257.29000000000002</ele>
        <time>2016-03-14T22:26:00Z</time>
      </trkpt>
      <trkpt lat="37.681566970422864" lon="-6.257933685556054">
        <ele>256.81</ele>
        <time>2016-03-14T22:26:11Z</time>
      </trkpt>
      <trkpt lat="37.681362200528383" lon="-6.257281322032213">
        <ele>256.32999999999998</ele>
        <time>2016-03-14T22:26:24Z</time>
      </trkpt>
      <trkpt lat="37.681268574669957" lon="-6.257087951526046">
        <ele>256.32999999999998</ele>
        <time>2016-03-14T22:26:30Z</time>
      </trkpt>
      <trkpt lat="37.681164974346757" lon="-6.256906148046255">
        <ele>255.84999999999999</ele>
        <time>2016-03-14T22:26:31Z</time>
      </trkpt>
      <trkpt lat="37.681048884987831" lon="-6.256739683449268">
        <ele>255.84999999999999</ele>
        <time>2016-03-14T22:26:32Z</time>
      </trkpt>
      <trkpt lat="37.680924162268639" lon="-6.256591407582164">
        <ele>257.29000000000002</ele>
        <time>2016-03-14T22:26:39Z</time>
      </trkpt>
      <trkpt lat="37.68079524859786" lon="-6.256461571902037">
        <ele>257.29000000000002</ele>
        <time>2016-03-14T22:26:40Z</time>
      </trkpt>
      <trkpt lat="37.680664071813226" lon="-6.256346236914396">
        <ele>256.81</ele>
        <time>2016-03-14T22:26:41Z</time>
      </trkpt>
      <trkpt lat="37.679580040276051" lon="-6.255230940878391">
        <ele>259.20999999999998</ele>
        <time>2016-03-14T22:26:42Z</time>
      </trkpt>
      <trkpt lat="37.678981488570571" lon="-6.254253275692463">
        <ele>264.98000000000002</ele>
        <time>2016-03-14T22:26:43Z</time>
      </trkpt>
      <trkpt lat="37.677819253876805" lon="-6.252179928123951">
        <ele>271.70999999999998</ele>
        <time>2016-03-14T22:26:44Z</time>
      </trkpt>
      <trkpt lat="37.677332516759634" lon="-6.250688703730702">
        <ele>278.44</ele>
        <time>2016-03-14T22:26:45Z</time>
      </trkpt>
      <trkpt lat="37.676490386947989" lon="-6.24893588013947">
        <ele>280.83999999999997</ele>
        <time>2016-03-14T22:26:46Z</time>
      </trkpt>
      <trkpt lat="37.674984913319349" lon="-6.246430277824402">
        <ele>281.80000000000001</ele>
        <time>2016-03-14T22:26:47Z</time>
      </trkpt>
      <trkpt lat="37.672770582139492" lon="-6.243436010554433">
        <ele>282.76999999999998</ele>
        <time>2016-03-14T22:26:48Z</time>
      </trkpt>
      <trkpt lat="37.671865755692124" lon="-6.242048554122448">
        <ele>289.49000000000001</ele>
        <time>2016-03-14T22:26:51Z</time>
      </trkpt>
      <trkpt lat="37.671768106520176" lon="-6.241793408989906">
        <ele>290.94</ele>
        <time>2016-03-14T22:26:52Z</time>
      </trkpt>
      <trkpt lat="37.671688897535205" lon="-6.241525942459703">
        <ele>291.89999999999998</ele>
        <time>2016-03-14T22:26:53Z</time>
      </trkpt>
      <trkpt lat="37.671158406883478" lon="-6.239659544080496">
        <ele>292.86000000000001</ele>
        <time>2016-03-14T22:27:01Z</time>
      </trkpt>
      <trkpt lat="37.671031169593334" lon="-6.239435998722911">
        <ele>293.81999999999999</ele>
        <time>2016-03-14T22:27:02Z</time>
      </trkpt>
      <trkpt lat="37.670886246487498" lon="-6.23923072591424">
        <ele>294.30000000000001</ele>
        <time>2016-03-14T22:27:03Z</time>
      </trkpt>
      <trkpt lat="37.67072263173759" lon="-6.239044647663832">
        <ele>294.77999999999997</ele>
        <time>2016-03-14T22:27:04Z</time>
      </trkpt>
      <trkpt lat="37.670545438304543" lon="-6.238876674324274">
        <ele>294.77999999999997</ele>
        <time>2016-03-14T22:27:05Z</time>
      </trkpt>
      <trkpt lat="37.670357348397374" lon="-6.238725548610091">
        <ele>294.77999999999997</ele>
        <time>2016-03-14T22:27:06Z</time>
      </trkpt>
      <trkpt lat="37.670155679807067" lon="-6.238597724586725">
        <ele>294.30000000000001</ele>
        <time>2016-03-14T22:27:07Z</time>
      </trkpt>
      <trkpt lat="37.669944455847144" lon="-6.238489430397749">
        <ele>292.86000000000001</ele>
        <time>2016-03-14T22:27:13Z</time>
      </trkpt>
      <trkpt lat="37.669726694002748" lon="-6.238396223634481">
        <ele>292.38</ele>
        <time>2016-03-14T22:27:14Z</time>
      </trkpt>
      <trkpt lat="37.669505579397082" lon="-6.238317769020796">
        <ele>291.42000000000002</ele>
        <time>2016-03-14T22:27:15Z</time>
      </trkpt>
      <trkpt lat="37.668848102912307" lon="-6.238081147894263">
        <ele>282.27999999999997</ele>
        <time>2016-03-14T22:27:16Z</time>
      </trkpt>
      <trkpt lat="37.668641656637192" lon="-6.237961789593101">
        <ele>281.31999999999999</ele>
        <time>2016-03-14T22:27:17Z</time>
      </trkpt>
      <trkpt lat="37.668441412970424" lon="-6.237818794324994">
        <ele>279.88</ele>
        <time>2016-03-14T22:27:18Z</time>
      </trkpt>
      <trkpt lat="37.666840553283691" lon="-6.236569890752435">
        <ele>278.44</ele>
        <time>2016-03-14T22:27:19Z</time>
      </trkpt>
      <trkpt lat="37.666617343202233" lon="-6.236487999558449">
        <ele>277.48000000000002</ele>
        <time>2016-03-14T22:27:20Z</time>
      </trkpt>
      <trkpt lat="37.666389020159841" lon="-6.236436367034912">
        <ele>276.04000000000002</ele>
        <time>2016-03-14T22:27:21Z</time>
      </trkpt>
      <trkpt lat="37.666159691289067" lon="-6.236413484439254">
        <ele>274.58999999999997</ele>
        <time>2016-03-14T22:27:22Z</time>
      </trkpt>
      <trkpt lat="37.665931284427643" lon="-6.236417591571808">
        <ele>266.42000000000002</ele>
        <time>2016-03-14T22:27:23Z</time>
      </trkpt>
      <trkpt lat="37.665705811232328" lon="-6.236443659290671">
        <ele>265.45999999999998</ele>
        <time>2016-03-14T22:27:24Z</time>
      </trkpt>
      <trkpt lat="37.665485115721822" lon="-6.236485149711371">
        <ele>264.5</ele>
        <time>2016-03-14T22:27:25Z</time>
      </trkpt>
      <trkpt lat="37.664207546040416" lon="-6.236689332872629">
        <ele>263.06</ele>
        <time>2016-03-14T22:27:35Z</time>
      </trkpt>
      <trkpt lat="37.66399908810854" lon="-6.236656224355102">
        <ele>261.13999999999999</ele>
        <time>2016-03-14T22:27:47Z</time>
      </trkpt>
      <trkpt lat="37.663794821128249" lon="-6.236597718670964">
        <ele>259.69</ele>
        <time>2016-03-14T22:27:55Z</time>
      </trkpt>
      <trkpt lat="37.663592733442783" lon="-6.236512893810868">
        <ele>258.73000000000002</ele>
        <time>2016-03-14T22:28:01Z</time>
      </trkpt>
      <trkpt lat="37.663398021832108" lon="-6.236405270174146">
        <ele>257.29000000000002</ele>
        <time>2016-03-14T22:28:13Z</time>
      </trkpt>
      <trkpt lat="37.663208842277527" lon="-6.236275350674987">
        <ele>256.32999999999998</ele>
        <time>2016-03-14T22:28:26Z</time>
      </trkpt>
      <trkpt lat="37.663026452064514" lon="-6.23612355440855">
        <ele>254.88999999999999</ele>
        <time>2016-03-14T22:28:32Z</time>
      </trkpt>
      <trkpt lat="37.66285571269691" lon="-6.235948540270329">
        <ele>253.93000000000001</ele>
        <time>2016-03-14T22:28:38Z</time>
      </trkpt>
      <trkpt lat="37.662696791812778" lon="-6.235752739012241">
        <ele>252.47999999999999</ele>
        <time>2016-03-14T22:28:47Z</time>
      </trkpt>
      <trkpt lat="37.66255178488791" lon="-6.235536234453321">
        <ele>251.52000000000001</ele>
        <time>2016-03-14T22:28:56Z</time>
      </trkpt>
      <trkpt lat="37.662420524284244" lon="-6.235301708802581">
        <ele>237.58000000000001</ele>
        <time>2016-03-14T22:28:57Z</time>
      </trkpt>
      <trkpt lat="37.662303512915969" lon="-6.235051844269037">
        <ele>229.41</ele>
        <time>2016-03-14T22:29:08Z</time>
      </trkpt>
      <trkpt lat="37.662196978926659" lon="-6.234789490699768">
        <ele>221.24000000000001</ele>
        <time>2016-03-14T22:29:15Z</time>
      </trkpt>
      <trkpt lat="37.661030637100339" lon="-6.232048524543643">
        <ele>221.24000000000001</ele>
        <time>2016-03-14T22:29:24Z</time>
      </trkpt>
      <trkpt lat="37.659072708338499" lon="-6.229296997189522">
        <ele>221.24000000000001</ele>
        <time>2016-03-14T22:29:41Z</time>
      </trkpt>
      <trkpt lat="37.657421808689833" lon="-6.227981625124812">
        <ele>215.94999999999999</ele>
        <time>2016-03-14T22:29:51Z</time>
      </trkpt>
      <trkpt lat="37.656459482386708" lon="-6.226709587499499">
        <ele>214.03</ele>
        <time>2016-03-14T22:30:01Z</time>
      </trkpt>
      <trkpt lat="37.65441806986928" lon="-6.223780950531364">
        <ele>213.55000000000001</ele>
        <time>2016-03-14T22:30:07Z</time>
      </trkpt>
      <trkpt lat="37.652121344581246" lon="-6.220720633864403">
        <ele>217.88</ele>
        <time>2016-03-14T22:30:14Z</time>
      </trkpt>
      <trkpt lat="37.651442578062415" lon="-6.219049030914903">
        <ele>228.44999999999999</ele>
        <time>2016-03-14T22:30:24Z</time>
      </trkpt>
      <trkpt lat="37.650540433824062" lon="-6.217559650540352">
        <ele>229.41</ele>
        <time>2016-03-14T22:30:36Z</time>
      </trkpt>
      <trkpt lat="37.649298571050167" lon="-6.215174663811922">
        <ele>242.87</ele>
        <time>2016-03-14T22:30:48Z</time>
      </trkpt>
      <trkpt lat="37.648339346051216" lon="-6.212818846106529">
        <ele>243.34999999999999</ele>
        <time>2016-03-14T22:30:58Z</time>
      </trkpt>
      <trkpt lat="37.648301208391786" lon="-6.212543668225408">
        <ele>238.06</ele>
        <time>2016-03-14T22:31:06Z</time>
      </trkpt>
      <trkpt lat="37.648143796250224" lon="-6.209414033219218">
        <ele>231.33000000000001</ele>
        <time>2016-03-14T22:31:18Z</time>
      </trkpt>
      <trkpt lat="37.647622022777796" lon="-6.207491308450699">
        <ele>219.80000000000001</ele>
        <time>2016-03-14T22:31:27Z</time>
      </trkpt>
      <trkpt lat="37.646446293219924" lon="-6.205115793272853">
        <ele>220.28</ele>
        <time>2016-03-14T22:31:33Z</time>
      </trkpt>
      <trkpt lat="37.644199440255761" lon="-6.200578082352877">
        <ele>223.63999999999999</ele>
        <time>2016-03-14T22:31:34Z</time>
      </trkpt>
      <trkpt lat="37.64302127994597" lon="-6.19757023639977">
        <ele>227.97</ele>
        <time>2016-03-14T22:31:35Z</time>
      </trkpt>
      <trkpt lat="37.642127266153693" lon="-6.19474939070642">
        <ele>232.78</ele>
        <time>2016-03-14T22:31:45Z</time>
      </trkpt>
      <trkpt lat="37.64122998341918" lon="-6.193364532664418">
        <ele>240.47</ele>
        <time>2016-03-14T22:31:57Z</time>
      </trkpt>
      <trkpt lat="37.63986281119287" lon="-6.192222749814391">
        <ele>258.25</ele>
        <time>2016-03-14T22:32:01Z</time>
      </trkpt>
      <trkpt lat="37.637576647102833" lon="-6.19058576412499">
        <ele>271.70999999999998</ele>
        <time>2016-03-14T22:32:02Z</time>
      </trkpt>
      <trkpt lat="37.634670725092292" lon="-6.188595062121749">
        <ele>281.31999999999999</ele>
        <time>2016-03-14T22:32:03Z</time>
      </trkpt>
      <trkpt lat="37.632017936557531" lon="-6.186519451439381">
        <ele>289.49000000000001</ele>
        <time>2016-03-14T22:32:14Z</time>
      </trkpt>
      <trkpt lat="37.630448006093502" lon="-6.184122394770384">
        <ele>295.25999999999999</ele>
        <time>2016-03-14T22:32:35Z</time>
      </trkpt>
      <trkpt lat="37.62965826317668" lon="-6.181833548471332">
        <ele>300.06999999999999</ele>
        <time>2016-03-14T22:32:44Z</time>
      </trkpt>
      <trkpt lat="37.62863852083683" lon="-6.178381545469165">
        <ele>301.02999999999997</ele>
        <time>2016-03-14T22:32:45Z</time>
      </trkpt>
      <trkpt lat="37.628323948010802" lon="-6.175809726119041">
        <ele>301.50999999999999</ele>
        <time>2016-03-14T22:32:46Z</time>
      </trkpt>
      <trkpt lat="37.628295198082924" lon="-6.174156898632646">
        <ele>311.12</ele>
        <time>2016-03-14T22:32:47Z</time>
      </trkpt>
      <trkpt lat="37.628354458138347" lon="-6.173904938623309">
        <ele>317.85000000000002</ele>
        <time>2016-03-14T22:32:48Z</time>
      </trkpt>
      <trkpt lat="37.628434002399445" lon="-6.173657504841685">
        <ele>321.69999999999999</ele>
        <time>2016-03-14T22:32:49Z</time>
      </trkpt>
      <trkpt lat="37.62952147051692" lon="-6.171160116791725">
        <ele>322.66000000000003</ele>
        <time>2016-03-14T22:32:50Z</time>
      </trkpt>
      <trkpt lat="37.630992578342557" lon="-6.167894192039967">
        <ele>323.62</ele>
        <time>2016-03-14T22:32:51Z</time>
      </trkpt>
      <trkpt lat="37.631610408425331" lon="-6.167034963145852">
        <ele>324.57999999999998</ele>
        <time>2016-03-14T22:32:52Z</time>
      </trkpt>
      <trkpt lat="37.631794726476073" lon="-6.166875455528498">
        <ele>333.23000000000002</ele>
        <time>2016-03-14T22:32:53Z</time>
      </trkpt>
      <trkpt lat="37.631987845525146" lon="-6.166735226288438">
        <ele>340.92000000000002</ele>
        <time>2016-03-14T22:32:54Z</time>
      </trkpt>
      <trkpt lat="37.634400995448232" lon="-6.165195303037763">
        <ele>341.41000000000003</ele>
        <time>2016-03-14T22:32:55Z</time>
      </trkpt>
      <trkpt lat="37.639192594215274" lon="-6.162072625011206">
        <ele>341.41000000000003</ele>
        <time>2016-03-14T22:32:56Z</time>
      </trkpt>
      <trkpt lat="37.640947261825204" lon="-6.160768484696746">
        <ele>341.88999999999999</ele>
        <time>2016-03-14T22:33:09Z</time>
      </trkpt>
      <trkpt lat="37.641086569055915" lon="-6.160573186352849">
        <ele>342.37</ele>
        <time>2016-03-14T22:33:19Z</time>
      </trkpt>
      <trkpt lat="37.641210705041885" lon="-6.160364560782909">
        <ele>342.37</ele>
        <time>2016-03-14T22:33:20Z</time>
      </trkpt>
      <trkpt lat="37.641320591792464" lon="-6.160140428692102">
        <ele>341.88999999999999</ele>
        <time>2016-03-14T22:33:21Z</time>
      </trkpt>
      <trkpt lat="37.641416229307652" lon="-6.159905148670077">
        <ele>341.88999999999999</ele>
        <time>2016-03-14T22:33:22Z</time>
      </trkpt>
      <trkpt lat="37.641495522111654" lon="-6.159656792879105">
        <ele>341.41000000000003</ele>
        <time>2016-03-14T22:33:23Z</time>
      </trkpt>
      <trkpt lat="37.641555452719331" lon="-6.159396702423692">
        <ele>340.92000000000002</ele>
        <time>2016-03-14T22:33:24Z</time>
      </trkpt>
      <trkpt lat="37.641599038615823" lon="-6.159126134589315">
        <ele>339.95999999999998</ele>
        <time>2016-03-14T22:33:25Z</time>
      </trkpt>
      <trkpt lat="37.641625106334686" lon="-6.158848274499178">
        <ele>339.48000000000002</ele>
        <time>2016-03-14T22:33:26Z</time>
      </trkpt>
      <trkpt lat="37.641632063314319" lon="-6.158563792705536">
        <ele>339</ele>
        <time>2016-03-14T22:33:36Z</time>
      </trkpt>
      <trkpt lat="37.641618233174086" lon="-6.15827520377934">
        <ele>329.87</ele>
        <time>2016-03-14T22:33:51Z</time>
      </trkpt>
      <trkpt lat="37.641586633399129" lon="-6.157985692843795">
        <ele>324.10000000000002</ele>
        <time>2016-03-14T22:33:53Z</time>
      </trkpt>
      <trkpt lat="37.641543718054891" lon="-6.157697103917599">
        <ele>324.57999999999998</ele>
        <time>2016-03-14T22:33:54Z</time>
      </trkpt>
      <trkpt lat="37.641004761680961" lon="-6.154072852805257">
        <ele>325.06</ele>
        <time>2016-03-14T22:33:55Z</time>
      </trkpt>
      <trkpt lat="37.640485418960452" lon="-6.151436911895871">
        <ele>326.5</ele>
        <time>2016-03-14T22:33:56Z</time>
      </trkpt>
      <trkpt lat="37.640385758131742" lon="-6.151220910251141">
        <ele>327.94999999999999</ele>
        <time>2016-03-14T22:33:57Z</time>
      </trkpt>
      <trkpt lat="37.640277128666639" lon="-6.151024606078863">
        <ele>329.38999999999999</ele>
        <time>2016-03-14T22:34:07Z</time>
      </trkpt>
      <trkpt lat="37.640164392068982" lon="-6.150846993550658">
        <ele>329.38999999999999</ele>
        <time>2016-03-14T22:34:14Z</time>
      </trkpt>
      <trkpt lat="37.640051487833261" lon="-6.150689078494906">
        <ele>329.38999999999999</ele>
        <time>2016-03-14T22:34:20Z</time>
      </trkpt>
      <trkpt lat="37.639935566112399" lon="-6.150552537292242">
        <ele>326.01999999999998</ele>
        <time>2016-03-14T22:34:21Z</time>
      </trkpt>
      <trkpt lat="37.639815034344792" lon="-6.150434436276555">
        <ele>323.62</ele>
        <time>2016-03-14T22:34:22Z</time>
      </trkpt>
      <trkpt lat="37.639687713235617" lon="-6.150325303897262">
        <ele>323.62</ele>
        <time>2016-03-14T22:34:23Z</time>
      </trkpt>
      <trkpt lat="37.638206798583269" lon="-6.149075562134385">
        <ele>323.62</ele>
        <time>2016-03-14T22:34:24Z</time>
      </trkpt>
      <trkpt lat="37.635611593723297" lon="-6.147201536223292">
        <ele>324.10000000000002</ele>
        <time>2016-03-14T22:34:25Z</time>
      </trkpt>
      <trkpt lat="37.635298948734999" lon="-6.146893836557865">
        <ele>324.10000000000002</ele>
        <time>2016-03-14T22:34:26Z</time>
      </trkpt>
      <trkpt lat="37.635163078084588" lon="-6.146710272878408">
        <ele>324.57999999999998</ele>
        <time>2016-03-14T22:34:27Z</time>
      </trkpt>
      <trkpt lat="37.63504397124052" lon="-6.146504916250706">
        <ele>327.47000000000003</ele>
        <time>2016-03-14T22:34:28Z</time>
      </trkpt>
      <trkpt lat="37.634938443079591" lon="-6.146282209083438">
        <ele>323.62</ele>
        <time>2016-03-14T22:34:32Z</time>
      </trkpt>
      <trkpt lat="37.634838363155723" lon="-6.146049778908491">
        <ele>321.22000000000003</ele>
        <time>2016-03-14T22:34:33Z</time>
      </trkpt>
      <trkpt lat="37.633686102926731" lon="-6.14374483935535">
        <ele>320.25999999999999</ele>
        <time>2016-03-14T22:34:38Z</time>
      </trkpt>
      <trkpt lat="37.632521269842982" lon="-6.142719313502312">
        <ele>319.77999999999997</ele>
        <time>2016-03-14T22:34:39Z</time>
      </trkpt>
      <trkpt lat="37.631574282422662" lon="-6.142165185883641">
        <ele>319.30000000000001</ele>
        <time>2016-03-14T22:34:40Z</time>
      </trkpt>
      <trkpt lat="37.63143153861165" lon="-6.142127886414528">
        <ele>319.30000000000001</ele>
        <time>2016-03-14T22:34:41Z</time>
      </trkpt>
      <trkpt lat="37.631301116198301" lon="-6.142109446227551">
        <ele>319.30000000000001</ele>
        <time>2016-03-14T22:34:42Z</time>
      </trkpt>
      <trkpt lat="37.631190055981278" lon="-6.142108105123043">
        <ele>318.81</ele>
        <time>2016-03-14T22:34:54Z</time>
      </trkpt>
      <trkpt lat="37.631099615246058" lon="-6.142121851444244">
        <ele>318.81</ele>
        <time>2016-03-14T22:35:03Z</time>
      </trkpt>
      <trkpt lat="37.631030799821019" lon="-6.142150769010186">
        <ele>318.81</ele>
        <time>2016-03-14T22:35:10Z</time>
      </trkpt>
      <trkpt lat="37.630978664383292" lon="-6.142191421240568">
        <ele>318.81</ele>
        <time>2016-03-14T22:35:11Z</time>
      </trkpt>
      <trkpt lat="37.630936419591308" lon="-6.142237102612853">
        <ele>318.81</ele>
        <time>2016-03-14T22:35:12Z</time>
      </trkpt>
      <trkpt lat="37.630902053788304" lon="-6.14227750338614">
        <ele>318.32999999999998</ele>
        <time>2016-03-14T22:35:13Z</time>
      </trkpt>
      <trkpt lat="37.630774481222034" lon="-6.142379175871611">
        <ele>318.32999999999998</ele>
        <time>2016-03-14T22:35:14Z</time>
      </trkpt>
      <trkpt lat="37.630732739344239" lon="-6.142393425107002">
        <ele>318.32999999999998</ele>
        <time>2016-03-14T22:35:15Z</time>
      </trkpt>
      <trkpt lat="37.630456052720547" lon="-6.142477244138718">
        <ele>318.32999999999998</ele>
        <time>2016-03-14T22:35:16Z</time>
      </trkpt>
      <trkpt lat="37.630396038293839" lon="-6.142513705417514">
        <ele>318.32999999999998</ele>
        <time>2016-03-14T22:35:17Z</time>
      </trkpt>
      <trkpt lat="37.630336945876479" lon="-6.142563242465258">
        <ele>316.41000000000003</ele>
        <time>2016-03-14T22:35:18Z</time>
      </trkpt>
      <trkpt lat="37.630277518182993" lon="-6.142624262720347">
        <ele>314.49000000000001</ele>
        <time>2016-03-14T22:35:19Z</time>
      </trkpt>
      <trkpt lat="37.630218090489507" lon="-6.142692407593131">
        <ele>311.60000000000002</ele>
        <time>2016-03-14T22:35:20Z</time>
      </trkpt>
      <trkpt lat="37.629327680915594" lon="-6.143740313127637">
        <ele>311.12</ele>
        <time>2016-03-14T22:35:21Z</time>
      </trkpt>
      <trkpt lat="37.628369629383087" lon="-6.144854435697198">
        <ele>310.16000000000003</ele>
        <time>2016-03-14T22:35:22Z</time>
      </trkpt>
      <trkpt lat="37.627553483471274" lon="-6.145768733695149">
        <ele>309.68000000000001</ele>
        <time>2016-03-14T22:35:23Z</time>
      </trkpt>
      <trkpt lat="37.627427503466606" lon="-6.145862946286798">
        <ele>308.72000000000003</ele>
        <time>2016-03-14T22:35:24Z</time>
      </trkpt>
      <trkpt lat="37.627292890101671" lon="-6.145928828045726">
        <ele>308.24000000000001</ele>
        <time>2016-03-14T22:35:32Z</time>
      </trkpt>
      <trkpt lat="37.627150733023882" lon="-6.145960344001651">
        <ele>307.75999999999999</ele>
        <time>2016-03-14T22:35:39Z</time>
      </trkpt>
      <trkpt lat="37.627004720270634" lon="-6.145955482497811">
        <ele>307.27999999999997</ele>
        <time>2016-03-14T22:35:48Z</time>
      </trkpt>
      <trkpt lat="37.626861054450274" lon="-6.145911309868097">
        <ele>306.80000000000001</ele>
        <time>2016-03-14T22:36:04Z</time>
      </trkpt>
      <trkpt lat="37.626725351437926" lon="-6.145832184702158">
        <ele>306.31999999999999</ele>
        <time>2016-03-14T22:36:19Z</time>
      </trkpt>
      <trkpt lat="37.626604316756129" lon="-6.145718693733215">
        <ele>306.31999999999999</ele>
        <time>2016-03-14T22:36:29Z</time>
      </trkpt>
      <trkpt lat="37.626502644270658" lon="-6.145574944093823">
        <ele>305.83999999999997</ele>
        <time>2016-03-14T22:36:37Z</time>
      </trkpt>
      <trkpt lat="37.62642259709537" lon="-6.145411329343915">
        <ele>305.83999999999997</ele>
        <time>2016-03-14T22:36:45Z</time>
      </trkpt>
      <trkpt lat="37.626370713114738" lon="-6.14523128606379">
        <ele>305.83999999999997</ele>
        <time>2016-03-14T22:36:54Z</time>
      </trkpt>
      <trkpt lat="37.626349925994873" lon="-6.145044537261128">
        <ele>305.36000000000001</ele>
        <time>2016-03-14T22:37:03Z</time>
      </trkpt>
      <trkpt lat="37.626354452222586" lon="-6.144857201725245">
        <ele>304.88</ele>
        <time>2016-03-14T22:37:13Z</time>
      </trkpt>
      <trkpt lat="37.626375993713737" lon="-6.144671710208058">
        <ele>302.94999999999999</ele>
        <time>2016-03-14T22:37:26Z</time>
      </trkpt>
      <trkpt lat="37.626409353688359" lon="-6.144483033567667">
        <ele>301.02999999999997</ele>
        <time>2016-03-14T22:37:36Z</time>
      </trkpt>
      <trkpt lat="37.626471128314734" lon="-6.142811262980104">
        <ele>295.25999999999999</ele>
        <time>2016-03-14T22:37:48Z</time>
      </trkpt>
      <trkpt lat="37.625959413126111" lon="-6.141236135736108">
        <ele>278.44</ele>
        <time>2016-03-14T22:37:57Z</time>
      </trkpt>
      <trkpt lat="37.624966073781252" lon="-6.138825751841068">
        <ele>268.82999999999998</ele>
        <time>2016-03-14T22:38:09Z</time>
      </trkpt>
      <trkpt lat="37.622719639912248" lon="-6.134350318461657">
        <ele>262.57999999999998</ele>
        <time>2016-03-14T22:38:19Z</time>
      </trkpt>
      <trkpt lat="37.620332390069962" lon="-6.130202366039157">
        <ele>257.29000000000002</ele>
        <time>2016-03-14T22:38:30Z</time>
      </trkpt>
      <trkpt lat="37.61842324398458" lon="-6.127808662131429">
        <ele>250.56</ele>
        <time>2016-03-14T22:38:41Z</time>
      </trkpt>
      <trkpt lat="37.616474702954292" lon="-6.126182489097118">
        <ele>244.78999999999999</ele>
        <time>2016-03-14T22:38:52Z</time>
      </trkpt>
      <trkpt lat="37.614397834986448" lon="-6.125032743439078">
        <ele>239.99000000000001</ele>
        <time>2016-03-14T22:39:03Z</time>
      </trkpt>
      <trkpt lat="37.611952414736152" lon="-6.124299243092537">
        <ele>237.09999999999999</ele>
        <time>2016-03-14T22:39:19Z</time>
      </trkpt>
      <trkpt lat="37.609462570399046" lon="-6.12414451315999">
        <ele>235.18000000000001</ele>
        <time>2016-03-14T22:39:29Z</time>
      </trkpt>
      <trkpt lat="37.606764938682318" lon="-6.124600237235427">
        <ele>228.93000000000001</ele>
        <time>2016-03-14T22:39:39Z</time>
      </trkpt>
      <trkpt lat="37.603262225165963" lon="-6.125144390389323">
        <ele>221.24000000000001</ele>
        <time>2016-03-14T22:39:49Z</time>
      </trkpt>
      <trkpt lat="37.600533999502659" lon="-6.124801738187671">
        <ele>208.74000000000001</ele>
        <time>2016-03-14T22:39:59Z</time>
      </trkpt>
      <trkpt lat="37.597210239619017" lon="-6.12394854426384">
        <ele>199.61000000000001</ele>
        <time>2016-03-14T22:40:09Z</time>
      </trkpt>
      <trkpt lat="37.59462651796639" lon="-6.123901354148984">
        <ele>189.03999999999999</ele>
        <time>2016-03-14T22:40:20Z</time>
      </trkpt>
      <trkpt lat="37.591187590733171" lon="-6.123800771310926">
        <ele>180.38</ele>
        <time>2016-03-14T22:40:32Z</time>
      </trkpt>
      <trkpt lat="37.588389711454511" lon="-6.12315502949059">
        <ele>174.62</ele>
        <time>2016-03-14T22:40:41Z</time>
      </trkpt>
      <trkpt lat="37.585401060059667" lon="-6.12181518226862">
        <ele>171.25</ele>
        <time>2016-03-14T22:40:51Z</time>
      </trkpt>
      <trkpt lat="37.582689682021737" lon="-6.119905114173889">
        <ele>168.84999999999999</ele>
        <time>2016-03-14T22:41:01Z</time>
      </trkpt>
      <trkpt lat="37.580371331423521" lon="-6.117586931213737">
        <ele>167.88999999999999</ele>
        <time>2016-03-14T22:41:14Z</time>
      </trkpt>
      <trkpt lat="37.578274263069034" lon="-6.114693665876985">
        <ele>163.56</ele>
        <time>2016-03-14T22:41:24Z</time>
      </trkpt>
      <trkpt lat="37.575522819533944" lon="-6.110214376822114">
        <ele>157.31</ele>
        <time>2016-03-14T22:41:34Z</time>
      </trkpt>
      <trkpt lat="37.573477635160089" lon="-6.107832742854953">
        <ele>146.25999999999999</ele>
        <time>2016-03-14T22:41:44Z</time>
      </trkpt>
      <trkpt lat="37.571106059476733" lon="-6.105844806879759">
        <ele>138.09</ele>
        <time>2016-03-14T22:41:54Z</time>
      </trkpt>
      <trkpt lat="37.568528708070517" lon="-6.10439314506948">
        <ele>132.31999999999999</ele>
        <time>2016-03-14T22:42:17Z</time>
      </trkpt>
      <trkpt lat="37.565695373341441" lon="-6.103487899526954">
        <ele>125.59</ele>
        <time>2016-03-14T22:42:38Z</time>
      </trkpt>
      <trkpt lat="37.562797917053103" lon="-6.103180535137653">
        <ele>119.81999999999999</ele>
        <time>2016-03-14T22:42:46Z</time>
      </trkpt>
      <trkpt lat="37.559657385572791" lon="-6.103491084650159">
        <ele>112.61</ele>
        <time>2016-03-14T22:42:54Z</time>
      </trkpt>
      <trkpt lat="37.556171352043748" lon="-6.103743966668844">
        <ele>105.88</ele>
        <time>2016-03-14T22:43:06Z</time>
      </trkpt>
      <trkpt lat="37.55354848690331" lon="-6.103263767436147">
        <ele>98.670000000000002</ele>
        <time>2016-03-14T22:43:14Z</time>
      </trkpt>
      <trkpt lat="37.550788661465049" lon="-6.10213958658278">
        <ele>94.829999999999998</ele>
        <time>2016-03-14T22:43:33Z</time>
      </trkpt>
      <trkpt lat="37.547994302585721" lon="-6.101219421252608">
        <ele>90.019999999999996</ele>
        <time>2016-03-14T22:43:41Z</time>
      </trkpt>
      <trkpt lat="37.54425915889442" lon="-6.10066294670105">
        <ele>86.659999999999997</ele>
        <time>2016-03-14T22:43:49Z</time>
      </trkpt>
      <trkpt lat="37.541455579921603" lon="-6.09974286518991">
        <ele>82.329999999999998</ele>
        <time>2016-03-14T22:43:57Z</time>
      </trkpt>
      <trkpt lat="37.538818465545774" lon="-6.09823253005743">
        <ele>75.120000000000005</ele>
        <time>2016-03-14T22:44:07Z</time>
      </trkpt>
      <trkpt lat="37.536407830193639" lon="-6.096145939081907">
        <ele>72.239999999999995</ele>
        <time>2016-03-14T22:44:19Z</time>
      </trkpt>
      <trkpt lat="37.534286202862859" lon="-6.093556685373187">
        <ele>72.239999999999995</ele>
        <time>2016-03-14T22:44:26Z</time>
      </trkpt>
      <trkpt lat="37.529668444767594" lon="-6.08733169734478">
        <ele>74.640000000000001</ele>
        <time>2016-03-14T22:44:33Z</time>
      </trkpt>
      <trkpt lat="37.525487886741757" lon="-6.081796204671264">
        <ele>75.599999999999994</ele>
        <time>2016-03-14T22:44:41Z</time>
      </trkpt>
      <trkpt lat="37.523629534989595" lon="-6.080166175961494">
        <ele>71.269999999999996</ele>
        <time>2016-03-14T22:44:58Z</time>
      </trkpt>
      <trkpt lat="37.52158829011023" lon="-6.07917157933116">
        <ele>62.140000000000001</ele>
        <time>2016-03-14T22:45:19Z</time>
      </trkpt>
      <trkpt lat="37.518547503277659" lon="-6.077882694080472">
        <ele>61.659999999999997</ele>
        <time>2016-03-14T22:45:34Z</time>
      </trkpt>
      <trkpt lat="37.516672555357218" lon="-6.076356936246157">
        <ele>61.659999999999997</ele>
        <time>2016-03-14T22:45:43Z</time>
      </trkpt>
      <trkpt lat="37.512402730062604" lon="-6.072278302162886">
        <ele>58.299999999999997</ele>
        <time>2016-03-14T22:45:54Z</time>
      </trkpt>
      <trkpt lat="37.510351091623306" lon="-6.071040630340576">
        <ele>52.530000000000001</ele>
        <time>2016-03-14T22:46:02Z</time>
      </trkpt>
      <trkpt lat="37.508160900324583" lon="-6.070487089455128">
        <ele>44.359999999999999</ele>
        <time>2016-03-14T22:46:11Z</time>
      </trkpt>
      <trkpt lat="37.505912873893976" lon="-6.070627151057124">
        <ele>40.509999999999998</ele>
        <time>2016-03-14T22:46:31Z</time>
      </trkpt>
      <trkpt lat="37.50318649224937" lon="-6.071472801268101">
        <ele>36.189999999999998</ele>
        <time>2016-03-14T22:46:42Z</time>
      </trkpt>
      <trkpt lat="37.499869856983423" lon="-6.072287689894438">
        <ele>33.780000000000001</ele>
        <time>2016-03-14T22:46:51Z</time>
      </trkpt>
      <trkpt lat="37.497830288484693" lon="-6.072051404044032">
        <ele>34.259999999999998</ele>
        <time>2016-03-14T22:46:59Z</time>
      </trkpt>
      <trkpt lat="37.495965147390962" lon="-6.071247579529882">
        <ele>37.630000000000003</ele>
        <time>2016-03-14T22:47:09Z</time>
      </trkpt>
      <trkpt lat="37.494148621335626" lon="-6.069814693182707">
        <ele>40.509999999999998</ele>
        <time>2016-03-14T22:47:22Z</time>
      </trkpt>
      <trkpt lat="37.490616822615266" lon="-6.066418513655663">
        <ele>39.07</ele>
        <time>2016-03-14T22:47:34Z</time>
      </trkpt>
      <trkpt lat="37.485990514978766" lon="-6.061952216550708">
        <ele>36.189999999999998</ele>
        <time>2016-03-14T22:47:45Z</time>
      </trkpt>
      <trkpt lat="37.482612691819668" lon="-6.058876728639007">
        <ele>35.229999999999997</ele>
        <time>2016-03-14T22:47:55Z</time>
      </trkpt>
      <trkpt lat="37.480353098362684" lon="-6.057621873915196">
        <ele>32.82</ele>
        <time>2016-03-14T22:48:06Z</time>
      </trkpt>
      <trkpt lat="37.477424629032612" lon="-6.056206002831459">
        <ele>28.5</ele>
        <time>2016-03-14T22:48:19Z</time>
      </trkpt>
      <trkpt lat="37.475599301978946" lon="-6.054587373510003">
        <ele>26.57</ele>
        <time>2016-03-14T22:48:32Z</time>
      </trkpt>
      <trkpt lat="37.47406667098403" lon="-6.05253498069942">
        <ele>25.609999999999999</ele>
        <time>2016-03-14T22:48:42Z</time>
      </trkpt>
      <trkpt lat="37.47089353390038" lon="-6.048052506521344">
        <ele>26.09</ele>
        <time>2016-03-14T22:48:51Z</time>
      </trkpt>
      <trkpt lat="37.469165436923504" lon="-6.0460948292166">
        <ele>28.98</ele>
        <time>2016-03-14T22:49:04Z</time>
      </trkpt>
      <trkpt lat="37.467408925294876" lon="-6.04498565196991">
        <ele>30.420000000000002</ele>
        <time>2016-03-14T22:49:26Z</time>
      </trkpt>
      <trkpt lat="37.465640427544713" lon="-6.044541662558913">
        <ele>29.940000000000001</ele>
        <time>2016-03-14T22:49:43Z</time>
      </trkpt>
      <trkpt lat="37.463331967592239" lon="-6.044612238183618">
        <ele>27.050000000000001</ele>
        <time>2016-03-14T22:50:03Z</time>
      </trkpt>
      <trkpt lat="37.460322109982371" lon="-6.044838884845376">
        <ele>25.129999999999999</ele>
        <time>2016-03-14T22:50:13Z</time>
      </trkpt>
      <trkpt lat="37.457462036982179" lon="-6.044692369177938">
        <ele>23.690000000000001</ele>
        <time>2016-03-14T22:50:24Z</time>
      </trkpt>
      <trkpt lat="37.454805225133896" lon="-6.043926263228059">
        <ele>25.129999999999999</ele>
        <time>2016-03-14T22:50:38Z</time>
      </trkpt>
      <trkpt lat="37.452542530372739" lon="-6.042710635811091">
        <ele>23.210000000000001</ele>
        <time>2016-03-14T22:50:48Z</time>
      </trkpt>
      <trkpt lat="37.450244296342134" lon="-6.040851278230548">
        <ele>23.210000000000001</ele>
        <time>2016-03-14T22:50:56Z</time>
      </trkpt>
      <trkpt lat="37.447818238288164" lon="-6.038377024233341">
        <ele>25.129999999999999</ele>
        <time>2016-03-14T22:51:03Z</time>
      </trkpt>
      <trkpt lat="37.445364268496633" lon="-6.036005616188049">
        <ele>26.09</ele>
        <time>2016-03-14T22:51:14Z</time>
      </trkpt>
      <trkpt lat="37.443445818498731" lon="-6.034683370962739">
        <ele>26.09</ele>
        <time>2016-03-14T22:51:22Z</time>
      </trkpt>
      <trkpt lat="37.442049477249384" lon="-6.034004101529717">
        <ele>25.129999999999999</ele>
        <time>2016-03-14T22:51:26Z</time>
      </trkpt>
      <trkpt lat="37.440106049180031" lon="-6.03339976631105">
        <ele>26.57</ele>
        <time>2016-03-14T22:51:27Z</time>
      </trkpt>
      <trkpt lat="37.436824031174183" lon="-6.032833233475685">
        <ele>25.609999999999999</ele>
        <time>2016-03-14T22:51:28Z</time>
      </trkpt>
      <trkpt lat="37.433973178267479" lon="-6.032387316226959">
        <ele>23.210000000000001</ele>
        <time>2016-03-14T22:51:33Z</time>
      </trkpt>
      <trkpt lat="37.430109372362494" lon="-6.03179857134819">
        <ele>23.210000000000001</ele>
        <time>2016-03-14T22:51:34Z</time>
      </trkpt>
      <trkpt lat="37.428283374756575" lon="-6.03132214397192">
        <ele>24.649999999999999</ele>
        <time>2016-03-14T22:51:35Z</time>
      </trkpt>
      <trkpt lat="37.426692740991712" lon="-6.03048856370151">
        <ele>25.129999999999999</ele>
        <time>2016-03-14T22:51:36Z</time>
      </trkpt>
      <trkpt lat="37.424260312691331" lon="-6.029171347618103">
        <ele>25.129999999999999</ele>
        <time>2016-03-14T22:51:37Z</time>
      </trkpt>
      <trkpt lat="37.422536155208945" lon="-6.028769938275218">
        <ele>23.210000000000001</ele>
        <time>2016-03-14T22:51:38Z</time>
      </trkpt>
      <trkpt lat="37.421139311045408" lon="-6.0289400909096">
        <ele>24.649999999999999</ele>
        <time>2016-03-14T22:51:39Z</time>
      </trkpt>
      <trkpt lat="37.419771635904908" lon="-6.029617348685861">
        <ele>27.530000000000001</ele>
        <time>2016-03-14T22:51:48Z</time>
      </trkpt>
      <trkpt lat="37.417848743498325" lon="-6.031338823959231">
        <ele>28.5</ele>
        <time>2016-03-14T22:51:56Z</time>
      </trkpt>
      <trkpt lat="37.416279232129455" lon="-6.032190676778555">
        <ele>28.98</ele>
        <time>2016-03-14T22:52:06Z</time>
      </trkpt>
      <trkpt lat="37.415477335453033" lon="-6.032627373933792">
        <ele>33.299999999999997</ele>
        <time>2016-03-14T22:52:26Z</time>
      </trkpt>
      <trkpt lat="37.415301483124495" lon="-6.032780930399895">
        <ele>33.299999999999997</ele>
        <time>2016-03-14T22:52:42Z</time>
      </trkpt>
      <trkpt lat="37.415138455107808" lon="-6.032948736101389">
        <ele>32.82</ele>
        <time>2016-03-14T22:52:53Z</time>
      </trkpt>
      <trkpt lat="37.414406379684806" lon="-6.033738981932402">
        <ele>32.340000000000003</ele>
        <time>2016-03-14T22:53:03Z</time>
      </trkpt>
      <trkpt lat="37.414250392466784" lon="-6.033846270292997">
        <ele>31.859999999999999</ele>
        <time>2016-03-14T22:53:12Z</time>
      </trkpt>
      <trkpt lat="37.41408359259367" lon="-6.033933693543077">
        <ele>30.899999999999999</ele>
        <time>2016-03-14T22:53:18Z</time>
      </trkpt>
      <trkpt lat="37.413905058056116" lon="-6.033999910578132">
        <ele>30.420000000000002</ele>
        <time>2016-03-14T22:53:22Z</time>
      </trkpt>
      <trkpt lat="37.413718057796359" lon="-6.034046513959765">
        <ele>26.57</ele>
        <time>2016-03-14T22:53:23Z</time>
      </trkpt>
      <trkpt lat="37.413523094728589" lon="-6.0340775270015">
        <ele>20.32</ele>
        <time>2016-03-14T22:53:24Z</time>
      </trkpt>
      <trkpt lat="37.41332377307117" lon="-6.034100661054254">
        <ele>20.32</ele>
        <time>2016-03-14T22:53:25Z</time>
      </trkpt>
      <trkpt lat="37.411411944776773" lon="-6.034205770120025">
        <ele>21.289999999999999</ele>
        <time>2016-03-14T22:53:26Z</time>
      </trkpt>
      <trkpt lat="37.409620061516762" lon="-6.033697240054607">
        <ele>21.289999999999999</ele>
        <time>2016-03-14T22:53:27Z</time>
      </trkpt>
      <trkpt lat="37.407512180507183" lon="-6.032275334000588">
        <ele>20.809999999999999</ele>
        <time>2016-03-14T22:53:28Z</time>
      </trkpt>
      <trkpt lat="37.403205055743456" lon="-6.029113680124283">
        <ele>21.289999999999999</ele>
        <time>2016-03-14T22:53:29Z</time>
      </trkpt>
      <trkpt lat="37.399649620056152" lon="-6.026864815503359">
        <ele>21.289999999999999</ele>
        <time>2016-03-14T22:53:30Z</time>
      </trkpt>
      <trkpt lat="37.397051565349102" lon="-6.025874996557832">
        <ele>18.399999999999999</ele>
        <time>2016-03-14T22:53:31Z</time>
      </trkpt>
      <trkpt lat="37.394578820094466" lon="-6.025561178103089">
        <ele>17.440000000000001</ele>
        <time>2016-03-14T22:53:32Z</time>
      </trkpt>
      <trkpt lat="37.392394412308931" lon="-6.025825459510088">
        <ele>17.440000000000001</ele>
        <time>2016-03-14T22:53:33Z</time>
      </trkpt>
      <trkpt lat="37.391010895371437" lon="-6.026553930714726">
        <ele>17.920000000000002</ele>
        <time>2016-03-14T22:53:34Z</time>
      </trkpt>
      <trkpt lat="37.390175219625235" lon="-6.027204198762775">
        <ele>18.399999999999999</ele>
        <time>2016-03-14T22:53:35Z</time>
      </trkpt>
      <trkpt lat="37.389957038685679" lon="-6.0273202881217">
        <ele>18.879999999999999</ele>
        <time>2016-03-14T22:53:36Z</time>
      </trkpt>
      <trkpt lat="37.389734918251634" lon="-6.027410812675953">
        <ele>19.84</ele>
        <time>2016-03-14T22:53:37Z</time>
      </trkpt>
      <trkpt lat="37.389512043446302" lon="-6.027474598959088">
        <ele>20.809999999999999</ele>
        <time>2016-03-14T22:53:45Z</time>
      </trkpt>
      <trkpt lat="37.389290761202574" lon="-6.027518101036549">
        <ele>21.289999999999999</ele>
        <time>2016-03-14T22:53:51Z</time>
      </trkpt>
      <trkpt lat="37.389069311320782" lon="-6.027546264231205">
        <ele>21.77</ele>
        <time>2016-03-14T22:54:03Z</time>
      </trkpt>
      <trkpt lat="37.388845263049006" lon="-6.027556657791138">
        <ele>22.25</ele>
        <time>2016-03-14T22:54:26Z</time>
      </trkpt>
      <trkpt lat="37.388622304424644" lon="-6.02755137719214">
        <ele>22.73</ele>
        <time>2016-03-14T22:54:34Z</time>
      </trkpt>
      <trkpt lat="37.388403536751866" lon="-6.027531428262591">
        <ele>22.73</ele>
        <time>2016-03-14T22:54:37Z</time>
      </trkpt>
      <trkpt lat="37.388187535107136" lon="-6.027496475726366">
        <ele>23.210000000000001</ele>
        <time>2016-03-14T22:54:38Z</time>
      </trkpt>
      <trkpt lat="37.387972706928849" lon="-6.027443585917354">
        <ele>23.210000000000001</ele>
        <time>2016-03-14T22:54:39Z</time>
      </trkpt>
      <trkpt lat="37.387760309502482" lon="-6.027368316426873">
        <ele>23.210000000000001</ele>
        <time>2016-03-14T22:54:40Z</time>
      </trkpt>
      <trkpt lat="37.387549504637718" lon="-6.02727142162621">
        <ele>23.210000000000001</ele>
        <time>2016-03-14T22:54:41Z</time>
      </trkpt>
      <trkpt lat="37.387343142181635" lon="-6.027155667543411">
        <ele>18.879999999999999</ele>
        <time>2016-03-14T22:54:42Z</time>
      </trkpt>
      <trkpt lat="37.387141808867455" lon="-6.027021473273635">
        <ele>18.399999999999999</ele>
        <time>2016-03-14T22:54:43Z</time>
      </trkpt>
      <trkpt lat="37.386941565200686" lon="-6.026873951777816">
        <ele>19.84</ele>
        <time>2016-03-14T22:54:44Z</time>
      </trkpt>
      <trkpt lat="37.385213971138" lon="-6.025869799777865">
        <ele>19.84</ele>
        <time>2016-03-14T22:54:45Z</time>
      </trkpt>
      <trkpt lat="37.383802207186818" lon="-6.025721859186888">
        <ele>21.289999999999999</ele>
        <time>2016-03-14T22:54:46Z</time>
      </trkpt>
      <trkpt lat="37.380993934348226" lon="-6.026123436167836">
        <ele>20.809999999999999</ele>
        <time>2016-03-14T22:54:47Z</time>
      </trkpt>
      <trkpt lat="37.375481827184558" lon="-6.027039242908359">
        <ele>20.32</ele>
        <time>2016-03-14T22:54:48Z</time>
      </trkpt>
      <trkpt lat="37.373813912272453" lon="-6.027635782957077">
        <ele>19.84</ele>
        <time>2016-03-14T22:54:49Z</time>
      </trkpt>
      <trkpt lat="37.373303202912211" lon="-6.027760589495301">
        <ele>19.359999999999999</ele>
        <time>2016-03-14T22:54:50Z</time>
      </trkpt>
      <trkpt lat="37.373127518221736" lon="-6.027767630293965">
        <ele>19.359999999999999</ele>
        <time>2016-03-14T22:54:51Z</time>
      </trkpt>
      <trkpt lat="37.372951582074165" lon="-6.027753967791796">
        <ele>18.879999999999999</ele>
        <time>2016-03-14T22:54:52Z</time>
      </trkpt>
      <trkpt lat="37.372775310650468" lon="-6.027715830132365">
        <ele>18.399999999999999</ele>
        <time>2016-03-14T22:54:53Z</time>
      </trkpt>
      <trkpt lat="37.372604152187705" lon="-6.027651038020849">
        <ele>18.399999999999999</ele>
        <time>2016-03-14T22:55:03Z</time>
      </trkpt>
      <trkpt lat="37.372440034523606" lon="-6.027564201503992">
        <ele>18.399999999999999</ele>
        <time>2016-03-14T22:55:17Z</time>
      </trkpt>
      <trkpt lat="37.37228337675333" lon="-6.027458840981126">
        <ele>18.399999999999999</ele>
        <time>2016-03-14T22:55:26Z</time>
      </trkpt>
      <trkpt lat="37.372139291837811" lon="-6.027331687510014">
        <ele>18.879999999999999</ele>
        <time>2016-03-14T22:55:27Z</time>
      </trkpt>
      <trkpt lat="37.372010042890906" lon="-6.027186093851924">
        <ele>19.359999999999999</ele>
        <time>2016-03-14T22:55:28Z</time>
      </trkpt>
      <trkpt lat="37.371896971017122" lon="-6.027028597891331">
        <ele>19.84</ele>
        <time>2016-03-14T22:55:29Z</time>
      </trkpt>
      <trkpt lat="37.371796304360032" lon="-6.02686045691371">
        <ele>19.84</ele>
        <time>2016-03-14T22:55:30Z</time>
      </trkpt>
      <trkpt lat="37.371710725128651" lon="-6.026677479967475">
        <ele>19.84</ele>
        <time>2016-03-14T22:55:31Z</time>
      </trkpt>
      <trkpt lat="37.371638054028153" lon="-6.026480672881007">
        <ele>19.84</ele>
        <time>2016-03-14T22:55:32Z</time>
      </trkpt>
      <trkpt lat="37.371581140905619" lon="-6.026270370930433">
        <ele>19.84</ele>
        <time>2016-03-14T22:55:33Z</time>
      </trkpt>
      <trkpt lat="37.371541913598776" lon="-6.026040790602565">
        <ele>18.399999999999999</ele>
        <time>2016-03-14T22:55:34Z</time>
      </trkpt>
      <trkpt lat="37.371519198641181" lon="-6.025799894705415">
        <ele>17.440000000000001</ele>
        <time>2016-03-14T22:55:35Z</time>
      </trkpt>
      <trkpt lat="37.371508721262217" lon="-6.025547767058015">
        <ele>17.440000000000001</ele>
        <time>2016-03-14T22:55:36Z</time>
      </trkpt>
      <trkpt lat="37.371397661045194" lon="-6.022694231942296">
        <ele>17.440000000000001</ele>
        <time>2016-03-14T22:55:37Z</time>
      </trkpt>
      <trkpt lat="37.371414760127664" lon="-6.018460197374225">
        <ele>17.440000000000001</ele>
        <time>2016-03-14T22:55:38Z</time>
      </trkpt>
      <trkpt lat="37.371806027367711" lon="-6.016044951975346">
        <ele>17.920000000000002</ele>
        <time>2016-03-14T22:55:39Z</time>
      </trkpt>
      <trkpt lat="37.371809966862202" lon="-6.015809420496225">
        <ele>17.920000000000002</ele>
        <time>2016-03-14T22:55:40Z</time>
      </trkpt>
      <trkpt lat="37.371790017932653" lon="-6.015580845996738">
        <ele>18.399999999999999</ele>
        <time>2016-03-14T22:55:41Z</time>
      </trkpt>
      <trkpt lat="37.371747270226479" lon="-6.015363922342658">
        <ele>18.399999999999999</ele>
        <time>2016-03-14T22:55:42Z</time>
      </trkpt>
      <trkpt lat="37.371685244143009" lon="-6.015161583200097">
        <ele>18.399999999999999</ele>
        <time>2016-03-14T22:55:50Z</time>
      </trkpt>
      <trkpt lat="37.371606035158038" lon="-6.014971565455198">
        <ele>17.920000000000002</ele>
        <time>2016-03-14T22:55:57Z</time>
      </trkpt>
      <trkpt lat="37.371509140357375" lon="-6.014793533831835">
        <ele>17.440000000000001</ele>
        <time>2016-03-14T22:56:04Z</time>
      </trkpt>
      <trkpt lat="37.371394643560052" lon="-6.014633439481258">
        <ele>16.960000000000001</ele>
        <time>2016-03-14T22:56:26Z</time>
      </trkpt>
      <trkpt lat="37.371262880042195" lon="-6.014490947127342">
        <ele>16.48</ele>
        <time>2016-03-14T22:56:41Z</time>
      </trkpt>
      <trkpt lat="37.371115023270249" lon="-6.014368152245879">
        <ele>15.52</ele>
        <time>2016-03-14T22:56:55Z</time>
      </trkpt>
      <trkpt lat="37.37095283344388" lon="-6.014266898855567">
        <ele>15.039999999999999</ele>
        <time>2016-03-14T22:57:10Z</time>
      </trkpt>
      <trkpt lat="37.370779076591134" lon="-6.014192383736372">
        <ele>15.039999999999999</ele>
        <time>2016-03-14T22:57:22Z</time>
      </trkpt>
      <trkpt lat="37.37059366889298" lon="-6.014144187793136">
        <ele>14.56</ele>
        <time>2016-03-14T22:57:42Z</time>
      </trkpt>
      <trkpt lat="37.370400130748749" lon="-6.014123819768429">
        <ele>14.56</ele>
        <time>2016-03-14T22:58:01Z</time>
      </trkpt>
      <trkpt lat="37.370203407481313" lon="-6.014132453128696">
        <ele>11.67</ele>
        <time>2016-03-14T22:58:16Z</time>
      </trkpt>
      <trkpt lat="37.37000634893775" lon="-6.014168243855238">
        <ele>11.67</ele>
        <time>2016-03-14T22:58:31Z</time>
      </trkpt>
      <trkpt lat="37.369810547679663" lon="-6.014222893863916">
        <ele>12.15</ele>
        <time>2016-03-14T22:58:44Z</time>
      </trkpt>
      <trkpt lat="37.368152691051364" lon="-6.014463705942035">
        <ele>16.960000000000001</ele>
        <time>2016-03-14T22:59:00Z</time>
      </trkpt>
      <trkpt lat="37.366679823026061" lon="-6.013951320201159">
        <ele>16.960000000000001</ele>
        <time>2016-03-14T22:59:11Z</time>
      </trkpt>
      <trkpt lat="37.365437122061849" lon="-6.012783721089363">
        <ele>20.809999999999999</ele>
        <time>2016-03-14T22:59:17Z</time>
      </trkpt>
      <trkpt lat="37.361828796565533" lon="-6.008501909673214">
        <ele>26.09</ele>
        <time>2016-03-14T22:59:18Z</time>
      </trkpt>
      <trkpt lat="37.359327971935272" lon="-6.005490627139807">
        <ele>29.940000000000001</ele>
        <time>2016-03-14T22:59:19Z</time>
      </trkpt>
      <trkpt lat="37.357183462008834" lon="-6.00293381139636">
        <ele>42.439999999999998</ele>
        <time>2016-03-14T22:59:20Z</time>
      </trkpt>
      <trkpt lat="37.355208853259683" lon="-6.000587465241551">
        <ele>56.369999999999997</ele>
        <time>2016-03-14T22:59:21Z</time>
      </trkpt>
      <trkpt lat="37.353841597214341" lon="-5.998978391289711">
        <ele>57.82</ele>
        <time>2016-03-14T22:59:22Z</time>
      </trkpt>
      <trkpt lat="37.351773781701922" lon="-5.996518470346928">
        <ele>46.280000000000001</ele>
        <time>2016-03-14T22:59:23Z</time>
      </trkpt>
      <trkpt lat="37.349833035841584" lon="-5.99419710226357">
        <ele>35.710000000000001</ele>
        <time>2016-03-14T22:59:24Z</time>
      </trkpt>
      <trkpt lat="37.3480258975178" lon="-5.992049910128117">
        <ele>22.73</ele>
        <time>2016-03-14T22:59:25Z</time>
      </trkpt>
      <trkpt lat="37.346224710345268" lon="-5.98996507935226">
        <ele>16.960000000000001</ele>
        <time>2016-03-14T22:59:26Z</time>
      </trkpt>
      <trkpt lat="37.34478872269392" lon="-5.988254919648171">
        <ele>19.84</ele>
        <time>2016-03-14T22:59:27Z</time>
      </trkpt>
      <trkpt lat="37.3429368250072" lon="-5.986078474670649">
        <ele>20.809999999999999</ele>
        <time>2016-03-14T22:59:28Z</time>
      </trkpt>
      <trkpt lat="37.341865533962846" lon="-5.984362447634339">
        <ele>21.77</ele>
        <time>2016-03-14T22:59:29Z</time>
      </trkpt>
      <trkpt lat="37.341322051361203" lon="-5.983496429398656">
        <ele>22.25</ele>
        <time>2016-03-14T22:59:30Z</time>
      </trkpt>
      <trkpt lat="37.341208560392261" lon="-5.983390565961599">
        <ele>23.210000000000001</ele>
        <time>2016-03-14T22:59:39Z</time>
      </trkpt>
      <trkpt lat="37.341085597872734" lon="-5.983296940103173">
        <ele>23.690000000000001</ele>
        <time>2016-03-14T22:59:48Z</time>
      </trkpt>
      <trkpt lat="37.34095299616456" lon="-5.98321907222271">
        <ele>24.170000000000002</ele>
        <time>2016-03-14T23:00:00Z</time>
      </trkpt>
      <trkpt lat="37.340809497982264" lon="-5.983157297596335">
        <ele>24.649999999999999</ele>
        <time>2016-03-14T23:00:12Z</time>
      </trkpt>
      <trkpt lat="37.340654851868749" lon="-5.983109856024385">
        <ele>24.649999999999999</ele>
        <time>2016-03-14T23:00:25Z</time>
      </trkpt>
      <trkpt lat="37.340497355908155" lon="-5.983083536848426">
        <ele>25.129999999999999</ele>
        <time>2016-03-14T23:00:40Z</time>
      </trkpt>
      <trkpt lat="37.340336674824357" lon="-5.983080184087157">
        <ele>25.129999999999999</ele>
        <time>2016-03-14T23:00:54Z</time>
      </trkpt>
      <trkpt lat="37.340172557160258" lon="-5.983095355331898">
        <ele>25.129999999999999</ele>
        <time>2016-03-14T23:01:07Z</time>
      </trkpt>
      <trkpt lat="37.340004332363605" lon="-5.983132990077138">
        <ele>25.129999999999999</ele>
        <time>2016-03-14T23:01:23Z</time>
      </trkpt>
      <trkpt lat="37.339834934100509" lon="-5.983191411942244">
        <ele>25.609999999999999</ele>
        <time>2016-03-14T23:01:35Z</time>
      </trkpt>
      <trkpt lat="37.33966444619" lon="-5.98327187821269">
        <ele>24.170000000000002</ele>
        <time>2016-03-14T23:01:48Z</time>
      </trkpt>
      <trkpt lat="37.339496640488505" lon="-5.983372461050749">
        <ele>17.920000000000002</ele>
        <time>2016-03-14T23:02:04Z</time>
      </trkpt>
      <trkpt lat="37.339328331872821" lon="-5.98348687402904">
        <ele>15.52</ele>
        <time>2016-03-14T23:02:20Z</time>
      </trkpt>
      <trkpt lat="37.337520187720656" lon="-5.984502760693431">
        <ele>16</ele>
        <time>2016-03-14T23:02:35Z</time>
      </trkpt>
      <trkpt lat="37.335232514888048" lon="-5.985307591035962">
        <ele>16</ele>
        <time>2016-03-14T23:02:51Z</time>
      </trkpt>
      <trkpt lat="37.332027778029442" lon="-5.985825341194868">
        <ele>18.399999999999999</ele>
        <time>2016-03-14T23:03:12Z</time>
      </trkpt>
      <trkpt lat="37.328877439722419" lon="-5.985821904614568">
        <ele>18.399999999999999</ele>
        <time>2016-03-14T23:03:27Z</time>
      </trkpt>
      <trkpt lat="37.325449660420418" lon="-5.98528110422194">
        <ele>15.52</ele>
        <time>2016-03-14T23:03:38Z</time>
      </trkpt>
      <trkpt lat="37.321575544774532" lon="-5.984095484018326">
        <ele>17.920000000000002</ele>
        <time>2016-03-14T23:03:47Z</time>
      </trkpt>
      <trkpt lat="37.317840736359358" lon="-5.983236758038402">
        <ele>17.920000000000002</ele>
        <time>2016-03-14T23:03:56Z</time>
      </trkpt>
      <trkpt lat="37.314354116097093" lon="-5.983154363930225">
        <ele>16.960000000000001</ele>
        <time>2016-03-14T23:04:05Z</time>
      </trkpt>
      <trkpt lat="37.310095187276602" lon="-5.983186634257436">
        <ele>20.809999999999999</ele>
        <time>2016-03-14T23:04:20Z</time>
      </trkpt>
      <trkpt lat="37.306910986080766" lon="-5.982676343992353">
        <ele>23.690000000000001</ele>
        <time>2016-03-14T23:04:32Z</time>
      </trkpt>
      <trkpt lat="37.303472813218832" lon="-5.981549229472876">
        <ele>25.129999999999999</ele>
        <time>2016-03-14T23:04:41Z</time>
      </trkpt>
      <trkpt lat="37.299517812207341" lon="-5.980119612067938">
        <ele>27.530000000000001</ele>
        <time>2016-03-14T23:04:53Z</time>
      </trkpt>
      <trkpt lat="37.295588627457619" lon="-5.979126607999206">
        <ele>28.02</ele>
        <time>2016-03-14T23:05:03Z</time>
      </trkpt>
      <trkpt lat="37.291775783523917" lon="-5.978740705177188">
        <ele>26.57</ele>
        <time>2016-03-14T23:05:12Z</time>
      </trkpt>
      <trkpt lat="37.287672255188227" lon="-5.978896943852305">
        <ele>27.530000000000001</ele>
        <time>2016-03-14T23:05:20Z</time>
      </trkpt>
      <trkpt lat="37.282299790531397" lon="-5.979262227192521">
        <ele>28.02</ele>
        <time>2016-03-14T23:05:28Z</time>
      </trkpt>
      <trkpt lat="37.27842852473259" lon="-5.978988977149129">
        <ele>28.5</ele>
        <time>2016-03-14T23:05:38Z</time>
      </trkpt>
      <trkpt lat="37.275703735649586" lon="-5.97821599803865">
        <ele>31.379999999999999</ele>
        <time>2016-03-14T23:05:57Z</time>
      </trkpt>
      <trkpt lat="37.273599542677402" lon="-5.976990228518844">
        <ele>37.630000000000003</ele>
        <time>2016-03-14T23:06:11Z</time>
      </trkpt>
      <trkpt lat="37.271674806252122" lon="-5.975203039124608">
        <ele>35.229999999999997</ele>
        <time>2016-03-14T23:06:30Z</time>
      </trkpt>
      <trkpt lat="37.270021308213472" lon="-5.972960544750094">
        <ele>37.630000000000003</ele>
        <time>2016-03-14T23:06:50Z</time>
      </trkpt>
      <trkpt lat="37.267598183825612" lon="-5.968913845717907">
        <ele>40.030000000000001</ele>
        <time>2016-03-14T23:07:00Z</time>
      </trkpt>
      <trkpt lat="37.265373962000012" lon="-5.965791754424572">
        <ele>42.439999999999998</ele>
        <time>2016-03-14T23:07:08Z</time>
      </trkpt>
      <trkpt lat="37.263564225286245" lon="-5.963837346062064">
        <ele>44.359999999999999</ele>
        <time>2016-03-14T23:07:16Z</time>
      </trkpt>
      <trkpt lat="37.260801550000906" lon="-5.961411204189062">
        <ele>46.759999999999998</ele>
        <time>2016-03-14T23:07:23Z</time>
      </trkpt>
      <trkpt lat="37.258745636790991" lon="-5.959274237975478">
        <ele>48.68</ele>
        <time>2016-03-14T23:07:30Z</time>
      </trkpt>
      <trkpt lat="37.257056012749672" lon="-5.956881288439035">
        <ele>50.609999999999999</ele>
        <time>2016-03-14T23:07:39Z</time>
      </trkpt>
      <trkpt lat="37.255958318710327" lon="-5.95439144410193">
        <ele>47.240000000000002</ele>
        <time>2016-03-14T23:07:50Z</time>
      </trkpt>
      <trkpt lat="37.255255412310362" lon="-5.951645700260997">
        <ele>49.649999999999999</ele>
        <time>2016-03-14T23:08:08Z</time>
      </trkpt>
      <trkpt lat="37.254889458417892" lon="-5.94799336977303">
        <ele>53.490000000000002</ele>
        <time>2016-03-14T23:08:29Z</time>
      </trkpt>
      <trkpt lat="37.254644958302379" lon="-5.940990457311273">
        <ele>57.340000000000003</ele>
        <time>2016-03-14T23:08:48Z</time>
      </trkpt>
      <trkpt lat="37.254073480144143" lon="-5.936026778072119">
        <ele>59.740000000000002</ele>
        <time>2016-03-14T23:09:06Z</time>
      </trkpt>
      <trkpt lat="37.252874867990613" lon="-5.929538179188967">
        <ele>61.18</ele>
        <time>2016-03-14T23:09:21Z</time>
      </trkpt>
      <trkpt lat="37.251584138721228" lon="-5.922557143494487">
        <ele>61.18</ele>
        <time>2016-03-14T23:09:37Z</time>
      </trkpt>
      <trkpt lat="37.250748127698898" lon="-5.919194156304002">
        <ele>59.259999999999998</ele>
        <time>2016-03-14T23:09:54Z</time>
      </trkpt>
      <trkpt lat="37.249595196917653" lon="-5.916706407442689">
        <ele>57.82</ele>
        <time>2016-03-14T23:10:09Z</time>
      </trkpt>
      <trkpt lat="37.247953349724412" lon="-5.914503475651145">
        <ele>57.340000000000003</ele>
        <time>2016-03-14T23:10:27Z</time>
      </trkpt>
      <trkpt lat="37.246143110096455" lon="-5.912937149405479">
        <ele>54.93</ele>
        <time>2016-03-14T23:10:45Z</time>
      </trkpt>
      <trkpt lat="37.244192976504564" lon="-5.911894189193845">
        <ele>48.68</ele>
        <time>2016-03-14T23:11:04Z</time>
      </trkpt>
      <trkpt lat="37.241641860455275" lon="-5.91126948595047">
        <ele>43.399999999999999</ele>
        <time>2016-03-14T23:11:21Z</time>
      </trkpt>
      <trkpt lat="37.238465705886483" lon="-5.911137387156487">
        <ele>41.469999999999999</ele>
        <time>2016-03-14T23:11:39Z</time>
      </trkpt>
      <trkpt lat="37.233361294493079" lon="-5.911203436553478">
        <ele>40.030000000000001</ele>
        <time>2016-03-14T23:11:52Z</time>
      </trkpt>
      <trkpt lat="37.227349122986197" lon="-5.910800434648991">
        <ele>38.590000000000003</ele>
        <time>2016-03-14T23:12:02Z</time>
      </trkpt>
      <trkpt lat="37.221928797662258" lon="-5.910014631226659">
        <ele>40.509999999999998</ele>
        <time>2016-03-14T23:12:14Z</time>
      </trkpt>
      <trkpt lat="37.216741656884551" lon="-5.909288926050067">
        <ele>38.109999999999999</ele>
        <time>2016-03-14T23:12:26Z</time>
      </trkpt>
      <trkpt lat="37.212313245981932" lon="-5.909037301316857">
        <ele>35.710000000000001</ele>
        <time>2016-03-14T23:12:42Z</time>
      </trkpt>
      <trkpt lat="37.207647375762463" lon="-5.909155905246735">
        <ele>30.899999999999999</ele>
        <time>2016-03-14T23:12:58Z</time>
      </trkpt>
      <trkpt lat="37.20272527076304" lon="-5.909671057015657">
        <ele>28.02</ele>
        <time>2016-03-14T23:13:14Z</time>
      </trkpt>
      <trkpt lat="37.198478160426021" lon="-5.910373544320464">
        <ele>29.460000000000001</ele>
        <time>2016-03-14T23:13:29Z</time>
      </trkpt>
      <trkpt lat="37.193103516474366" lon="-5.910925827920437">
        <ele>31.379999999999999</ele>
        <time>2016-03-14T23:13:46Z</time>
      </trkpt>
      <trkpt lat="37.187511697411537" lon="-5.911070415750146">
        <ele>28.02</ele>
        <time>2016-03-14T23:14:05Z</time>
      </trkpt>
      <trkpt lat="37.181564569473267" lon="-5.91075693257153">
        <ele>25.129999999999999</ele>
        <time>2016-03-14T23:14:25Z</time>
      </trkpt>
      <trkpt lat="37.176297213882208" lon="-5.910056037828326">
        <ele>23.690000000000001</ele>
        <time>2016-03-14T23:14:46Z</time>
      </trkpt>
      <trkpt lat="37.170992642641068" lon="-5.908996565267444">
        <ele>20.809999999999999</ele>
        <time>2016-03-14T23:15:05Z</time>
      </trkpt>
      <trkpt lat="37.167147444561124" lon="-5.908618709072471">
        <ele>18.879999999999999</ele>
        <time>2016-03-14T23:15:25Z</time>
      </trkpt>
      <trkpt lat="37.164211682975292" lon="-5.90878869406879">
        <ele>15.039999999999999</ele>
        <time>2016-03-14T23:15:45Z</time>
      </trkpt>
      <trkpt lat="37.16071835719049" lon="-5.909514985978603">
        <ele>14.08</ele>
        <time>2016-03-14T23:16:08Z</time>
      </trkpt>
      <trkpt lat="37.157294768840075" lon="-5.910831280052662">
        <ele>11.67</ele>
        <time>2016-03-14T23:16:25Z</time>
      </trkpt>
      <trkpt lat="37.152821263298392" lon="-5.913084503263235">
        <ele>12.630000000000001</ele>
        <time>2016-03-14T23:16:41Z</time>
      </trkpt>
      <trkpt lat="37.148302579298615" lon="-5.914935814216733">
        <ele>12.630000000000001</ele>
        <time>2016-03-14T23:17:00Z</time>
      </trkpt>
      <trkpt lat="37.143702087923884" lon="-5.916740689426661">
        <ele>12.15</ele>
        <time>2016-03-14T23:17:17Z</time>
      </trkpt>
      <trkpt lat="37.139601241797209" lon="-5.918769361451268">
        <ele>12.15</ele>
        <time>2016-03-14T23:17:35Z</time>
      </trkpt>
      <trkpt lat="37.135221865028143" lon="-5.921409074217081">
        <ele>11.19</ele>
        <time>2016-03-14T23:17:52Z</time>
      </trkpt>
      <trkpt lat="37.130198758095503" lon="-5.924539715051651">
        <ele>11.19</ele>
        <time>2016-03-14T23:18:10Z</time>
      </trkpt>
      <trkpt lat="37.124586151912808" lon="-5.927494755014777">
        <ele>13.119999999999999</ele>
        <time>2016-03-14T23:18:26Z</time>
      </trkpt>
      <trkpt lat="37.118516312912107" lon="-5.930087193846703">
        <ele>15.52</ele>
        <time>2016-03-14T23:18:41Z</time>
      </trkpt>
      <trkpt lat="37.112883422523737" lon="-5.931954011321068">
        <ele>15.52</ele>
        <time>2016-03-14T23:18:54Z</time>
      </trkpt>
      <trkpt lat="37.106960350647569" lon="-5.933414474129677">
        <ele>15.039999999999999</ele>
        <time>2016-03-14T23:19:09Z</time>
      </trkpt>
      <trkpt lat="37.10104264318943" lon="-5.934385014697909">
        <ele>14.08</ele>
        <time>2016-03-14T23:19:24Z</time>
      </trkpt>
      <trkpt lat="37.094091195613146" lon="-5.935395285487175">
        <ele>15.039999999999999</ele>
        <time>2016-03-14T23:19:41Z</time>
      </trkpt>
      <trkpt lat="37.089052079245448" lon="-5.936094000935555">
        <ele>13.6</ele>
        <time>2016-03-14T23:19:57Z</time>
      </trkpt>
      <trkpt lat="37.084468100219965" lon="-5.936666904017329">
        <ele>13.119999999999999</ele>
        <time>2016-03-14T23:20:12Z</time>
      </trkpt>
      <trkpt lat="37.078819200396538" lon="-5.936813335865736">
        <ele>14.08</ele>
        <time>2016-03-14T23:20:26Z</time>
      </trkpt>
      <trkpt lat="37.073587216436863" lon="-5.936453500762582">
        <ele>14.56</ele>
        <time>2016-03-14T23:20:40Z</time>
      </trkpt>
      <trkpt lat="37.067975532263517" lon="-5.935542052611709">
        <ele>12.630000000000001</ele>
        <time>2016-03-14T23:20:57Z</time>
      </trkpt>
      <trkpt lat="37.062675403431058" lon="-5.934137832373381">
        <ele>13.119999999999999</ele>
        <time>2016-03-14T23:21:15Z</time>
      </trkpt>
      <trkpt lat="37.057108227163553" lon="-5.932104801759124">
        <ele>14.56</ele>
        <time>2016-03-14T23:21:27Z</time>
      </trkpt>
      <trkpt lat="37.052203556522727" lon="-5.930090378969908">
        <ele>12.630000000000001</ele>
        <time>2016-03-14T23:21:38Z</time>
      </trkpt>
      <trkpt lat="37.047544559463859" lon="-5.928664784878492">
        <ele>16.960000000000001</ele>
        <time>2016-03-14T23:21:48Z</time>
      </trkpt>
      <trkpt lat="37.043528622016311" lon="-5.927804801613092">
        <ele>16.48</ele>
        <time>2016-03-14T23:22:03Z</time>
      </trkpt>
      <trkpt lat="37.039131810888648" lon="-5.92729652300477">
        <ele>14.56</ele>
        <time>2016-03-14T23:22:13Z</time>
      </trkpt>
      <trkpt lat="37.034927532076836" lon="-5.927197113633156">
        <ele>14.08</ele>
        <time>2016-03-14T23:22:25Z</time>
      </trkpt>
      <trkpt lat="37.030116822570562" lon="-5.927521493285894">
        <ele>16.48</ele>
        <time>2016-03-14T23:22:39Z</time>
      </trkpt>
      <trkpt lat="37.025301167741418" lon="-5.928363706916571">
        <ele>23.210000000000001</ele>
        <time>2016-03-14T23:22:50Z</time>
      </trkpt>
      <trkpt lat="37.020879378542304" lon="-5.92960917390883">
        <ele>29.940000000000001</ele>
        <time>2016-03-14T23:22:58Z</time>
      </trkpt>
      <trkpt lat="37.017009286209941" lon="-5.9310716483742">
        <ele>43.880000000000003</ele>
        <time>2016-03-14T23:23:04Z</time>
      </trkpt>
      <trkpt lat="37.013395596295595" lon="-5.932747190818191">
        <ele>55.409999999999997</ele>
        <time>2016-03-14T23:23:14Z</time>
      </trkpt>
      <trkpt lat="37.009197687730193" lon="-5.935158915817738">
        <ele>56.859999999999999</ele>
        <time>2016-03-14T23:23:41Z</time>
      </trkpt>
      <trkpt lat="37.005000282078981" lon="-5.938040530309081">
        <ele>52.049999999999997</ele>
        <time>2016-03-14T23:23:50Z</time>
      </trkpt>
      <trkpt lat="37.001943904906511" lon="-5.939762592315674">
        <ele>42.439999999999998</ele>
        <time>2016-03-14T23:23:57Z</time>
      </trkpt>
      <trkpt lat="36.998735480010509" lon="-5.941002108156681">
        <ele>38.590000000000003</ele>
        <time>2016-03-14T23:24:04Z</time>
      </trkpt>
      <trkpt lat="36.99581690132618" lon="-5.941689172759652">
        <ele>35.710000000000001</ele>
        <time>2016-03-14T23:24:13Z</time>
      </trkpt>
      <trkpt lat="36.991668362170458" lon="-5.942544629797339">
        <ele>30.420000000000002</ele>
        <time>2016-03-14T23:24:23Z</time>
      </trkpt>
      <trkpt lat="36.98924733325839" lon="-5.943481056019664">
        <ele>28.98</ele>
        <time>2016-03-14T23:24:35Z</time>
      </trkpt>
      <trkpt lat="36.986875422298908" lon="-5.944770276546478">
        <ele>28.5</ele>
        <time>2016-03-14T23:24:46Z</time>
      </trkpt>
      <trkpt lat="36.984356073662639" lon="-5.946629634127021">
        <ele>28.02</ele>
        <time>2016-03-14T23:24:58Z</time>
      </trkpt>
      <trkpt lat="36.982611045241356" lon="-5.948277013376355">
        <ele>28.02</ele>
        <time>2016-03-14T23:25:14Z</time>
      </trkpt>
      <trkpt lat="36.981676714494824" lon="-5.949132638052106">
        <ele>28.5</ele>
        <time>2016-03-14T23:25:26Z</time>
      </trkpt>
      <trkpt lat="36.981394495815039" lon="-5.949416616931558">
        <ele>28.02</ele>
        <time>2016-03-14T23:25:38Z</time>
      </trkpt>
      <trkpt lat="36.98129148222506" lon="-5.949540417641401">
        <ele>27.050000000000001</ele>
        <time>2016-03-14T23:25:49Z</time>
      </trkpt>
      <trkpt lat="36.981186289340258" lon="-5.949661200866103">
        <ele>26.57</ele>
        <time>2016-03-14T23:26:03Z</time>
      </trkpt>
      <trkpt lat="36.980795273557305" lon="-5.950170485302806">
        <ele>24.649999999999999</ele>
        <time>2016-03-14T23:26:16Z</time>
      </trkpt>
      <trkpt lat="36.980164619162679" lon="-5.950943548232317">
        <ele>22.73</ele>
        <time>2016-03-14T23:26:29Z</time>
      </trkpt>
      <trkpt lat="36.979160802438855" lon="-5.951940072700381">
        <ele>20.32</ele>
        <time>2016-03-14T23:26:43Z</time>
      </trkpt>
      <trkpt lat="36.97748308070004" lon="-5.953369354829192">
        <ele>19.359999999999999</ele>
        <time>2016-03-14T23:26:56Z</time>
      </trkpt>
      <trkpt lat="36.975165819749236" lon="-5.954913636669517">
        <ele>18.879999999999999</ele>
        <time>2016-03-14T23:27:09Z</time>
      </trkpt>
      <trkpt lat="36.972101898863912" lon="-5.956360939890146">
        <ele>16.960000000000001</ele>
        <time>2016-03-14T23:27:28Z</time>
      </trkpt>
      <trkpt lat="36.969139231368899" lon="-5.957188736647368">
        <ele>20.32</ele>
        <time>2016-03-14T23:27:41Z</time>
      </trkpt>
      <trkpt lat="36.965766688808799" lon="-5.957534573972225">
        <ele>28.5</ele>
        <time>2016-03-14T23:27:57Z</time>
      </trkpt>
      <trkpt lat="36.961387898772955" lon="-5.957819810137153">
        <ele>32.82</ele>
        <time>2016-03-14T23:28:08Z</time>
      </trkpt>
      <trkpt lat="36.958194309845567" lon="-5.958653306588531">
        <ele>29.460000000000001</ele>
        <time>2016-03-14T23:28:19Z</time>
      </trkpt>
      <trkpt lat="36.955120749771595" lon="-5.960025759413838">
        <ele>22.25</ele>
        <time>2016-03-14T23:28:33Z</time>
      </trkpt>
      <trkpt lat="36.952411467209458" lon="-5.961840525269508">
        <ele>19.359999999999999</ele>
        <time>2016-03-14T23:28:46Z</time>
      </trkpt>
      <trkpt lat="36.948914201930165" lon="-5.964559363201261">
        <ele>25.129999999999999</ele>
        <time>2016-03-14T23:28:59Z</time>
      </trkpt>
      <trkpt lat="36.945475693792105" lon="-5.96662231720984">
        <ele>30.899999999999999</ele>
        <time>2016-03-14T23:29:12Z</time>
      </trkpt>
      <trkpt lat="36.94198127835989" lon="-5.968125863000751">
        <ele>31.379999999999999</ele>
        <time>2016-03-14T23:29:24Z</time>
      </trkpt>
      <trkpt lat="36.93824278190732" lon="-5.969127584248781">
        <ele>32.340000000000003</ele>
        <time>2016-03-14T23:29:37Z</time>
      </trkpt>
      <trkpt lat="36.934605706483126" lon="-5.969526311382651">
        <ele>31.379999999999999</ele>
        <time>2016-03-14T23:29:50Z</time>
      </trkpt>
      <trkpt lat="36.930984389036894" lon="-5.969427824020386">
        <ele>32.82</ele>
        <time>2016-03-14T23:30:02Z</time>
      </trkpt>
      <trkpt lat="36.92571728490293" lon="-5.969331515952945">
        <ele>33.299999999999997</ele>
        <time>2016-03-14T23:30:14Z</time>
      </trkpt>
      <trkpt lat="36.922313142567873" lon="-5.969647094607353">
        <ele>34.259999999999998</ele>
        <time>2016-03-14T23:30:27Z</time>
      </trkpt>
      <trkpt lat="36.918294103816152" lon="-5.970071135088801">
        <ele>34.740000000000002</ele>
        <time>2016-03-14T23:30:40Z</time>
      </trkpt>
      <trkpt lat="36.915566800162196" lon="-5.970194768160582">
        <ele>35.710000000000001</ele>
        <time>2016-03-14T23:30:51Z</time>
      </trkpt>
      <trkpt lat="36.913357246667147" lon="-5.970164090394974">
        <ele>38.109999999999999</ele>
        <time>2016-03-14T23:31:02Z</time>
      </trkpt>
      <trkpt lat="36.910662548616529" lon="-5.969947334378958">
        <ele>39.07</ele>
        <time>2016-03-14T23:31:14Z</time>
      </trkpt>
      <trkpt lat="36.907618576660752" lon="-5.96983015537262">
        <ele>40.990000000000002</ele>
        <time>2016-03-14T23:31:26Z</time>
      </trkpt>
      <trkpt lat="36.904324572533369" lon="-5.97012972459197">
        <ele>43.880000000000003</ele>
        <time>2016-03-14T23:31:41Z</time>
      </trkpt>
      <trkpt lat="36.900922860950232" lon="-5.970987863838673">
        <ele>46.759999999999998</ele>
        <time>2016-03-14T23:31:54Z</time>
      </trkpt>
      <trkpt lat="36.897825412452221" lon="-5.972302816808224">
        <ele>49.159999999999997</ele>
        <time>2016-03-14T23:32:07Z</time>
      </trkpt>
      <trkpt lat="36.894620424136519" lon="-5.974241802468896">
        <ele>51.090000000000003</ele>
        <time>2016-03-14T23:32:20Z</time>
      </trkpt>
      <trkpt lat="36.891541164368391" lon="-5.976776909083128">
        <ele>54.93</ele>
        <time>2016-03-14T23:32:31Z</time>
      </trkpt>
      <trkpt lat="36.888868762180209" lon="-5.979694649577141">
        <ele>57.82</ele>
        <time>2016-03-14T23:32:44Z</time>
      </trkpt>
      <trkpt lat="36.886523421853781" lon="-5.983013464137912">
        <ele>59.259999999999998</ele>
        <time>2016-03-14T23:32:56Z</time>
      </trkpt>
      <trkpt lat="36.883991919457912" lon="-5.98649388179183">
        <ele>58.780000000000001</ele>
        <time>2016-03-14T23:33:07Z</time>
      </trkpt>
      <trkpt lat="36.881128326058388" lon="-5.989353619515896">
        <ele>62.619999999999997</ele>
        <time>2016-03-14T23:33:21Z</time>
      </trkpt>
      <trkpt lat="36.878359196707606" lon="-5.991351362317801">
        <ele>66.469999999999999</ele>
        <time>2016-03-14T23:33:30Z</time>
      </trkpt>
      <trkpt lat="36.87537188641727" lon="-5.992837054654956">
        <ele>72.239999999999995</ele>
        <time>2016-03-14T23:33:40Z</time>
      </trkpt>
      <trkpt lat="36.871978053823113" lon="-5.993826873600483">
        <ele>78.480000000000004</ele>
        <time>2016-03-14T23:33:52Z</time>
      </trkpt>
      <trkpt lat="36.868408704176545" lon="-5.994159048423171">
        <ele>82.810000000000002</ele>
        <time>2016-03-14T23:34:05Z</time>
      </trkpt>
      <trkpt lat="36.863928157836199" lon="-5.994350407272577">
        <ele>86.659999999999997</ele>
        <time>2016-03-14T23:34:19Z</time>
      </trkpt>
      <trkpt lat="36.860215477645397" lon="-5.99518951959908">
        <ele>90.019999999999996</ele>
        <time>2016-03-14T23:34:28Z</time>
      </trkpt>
      <trkpt lat="36.856591226533055" lon="-5.996684012934566">
        <ele>94.349999999999994</ele>
        <time>2016-03-14T23:34:37Z</time>
      </trkpt>
      <trkpt lat="36.853072252124548" lon="-5.998867750167847">
        <ele>91.939999999999998</ele>
        <time>2016-03-14T23:34:45Z</time>
      </trkpt>
      <trkpt lat="36.850338410586119" lon="-6.001169253140688">
        <ele>82.329999999999998</ele>
        <time>2016-03-14T23:34:53Z</time>
      </trkpt>
      <trkpt lat="36.84737834148109" lon="-6.004323782399297">
        <ele>73.200000000000003</ele>
        <time>2016-03-14T23:35:06Z</time>
      </trkpt>
      <trkpt lat="36.844427492469549" lon="-6.007129959762096">
        <ele>70.790000000000006</ele>
        <time>2016-03-14T23:35:20Z</time>
      </trkpt>
      <trkpt lat="36.841333648189902" lon="-6.009331718087196">
        <ele>69.349999999999994</ele>
        <time>2016-03-14T23:35:36Z</time>
      </trkpt>
      <trkpt lat="36.837276639416814" lon="-6.011842517182231">
        <ele>66.950000000000003</ele>
        <time>2016-03-14T23:35:50Z</time>
      </trkpt>
      <trkpt lat="36.835078233852983" lon="-6.013791393488646">
        <ele>62.140000000000001</ele>
        <time>2016-03-14T23:36:04Z</time>
      </trkpt>
      <trkpt lat="36.83309524320066" lon="-6.016161208972335">
        <ele>54.93</ele>
        <time>2016-03-14T23:36:18Z</time>
      </trkpt>
      <trkpt lat="36.830939669162035" lon="-6.01934876292944">
        <ele>50.130000000000003</ele>
        <time>2016-03-14T23:36:32Z</time>
      </trkpt>
      <trkpt lat="36.828640764579177" lon="-6.02335749194026">
        <ele>45.799999999999997</ele>
        <time>2016-03-14T23:36:43Z</time>
      </trkpt>
      <trkpt lat="36.826339429244399" lon="-6.028223522007465">
        <ele>42.439999999999998</ele>
        <time>2016-03-14T23:36:56Z</time>
      </trkpt>
      <trkpt lat="36.824692133814096" lon="-6.031125085428357">
        <ele>43.399999999999999</ele>
        <time>2016-03-14T23:37:12Z</time>
      </trkpt>
      <trkpt lat="36.822579391300678" lon="-6.03352046571672">
        <ele>39.07</ele>
        <time>2016-03-14T23:37:26Z</time>
      </trkpt>
      <trkpt lat="36.820392888039351" lon="-6.03515543974936">
        <ele>32.82</ele>
        <time>2016-03-14T23:37:39Z</time>
      </trkpt>
      <trkpt lat="36.818031119182706" lon="-6.036263443529606">
        <ele>31.379999999999999</ele>
        <time>2016-03-14T23:37:55Z</time>
      </trkpt>
      <trkpt lat="36.814179383218288" lon="-6.037539504468441">
        <ele>34.740000000000002</ele>
        <time>2016-03-14T23:38:12Z</time>
      </trkpt>
      <trkpt lat="36.810024557635188" lon="-6.039371369406581">
        <ele>37.630000000000003</ele>
        <time>2016-03-14T23:38:27Z</time>
      </trkpt>
      <trkpt lat="36.805061465129256" lon="-6.041286718100309">
        <ele>43.880000000000003</ele>
        <time>2016-03-14T23:38:44Z</time>
      </trkpt>
      <trkpt lat="36.800601286813617" lon="-6.042358092963696">
        <ele>54.450000000000003</ele>
        <time>2016-03-14T23:38:59Z</time>
      </trkpt>
      <trkpt lat="36.796172875910997" lon="-6.042848685756326">
        <ele>55.890000000000001</ele>
        <time>2016-03-14T23:39:15Z</time>
      </trkpt>
      <trkpt lat="36.791898859664798" lon="-6.043218830600381">
        <ele>54.450000000000003</ele>
        <time>2016-03-14T23:39:31Z</time>
      </trkpt>
      <trkpt lat="36.787667172029614" lon="-6.043762816116214">
        <ele>53.969999999999999</ele>
        <time>2016-03-14T23:39:47Z</time>
      </trkpt>
      <trkpt lat="36.784334192052484" lon="-6.043858202174306">
        <ele>50.130000000000003</ele>
        <time>2016-03-14T23:40:06Z</time>
      </trkpt>
      <trkpt lat="36.780771631747484" lon="-6.043622083961964">
        <ele>46.280000000000001</ele>
        <time>2016-03-14T23:40:24Z</time>
      </trkpt>
      <trkpt lat="36.776512367650867" lon="-6.042889002710581">
        <ele>42.439999999999998</ele>
        <time>2016-03-14T23:40:39Z</time>
      </trkpt>
      <trkpt lat="36.772531550377607" lon="-6.042259354144335">
        <ele>38.109999999999999</ele>
        <time>2016-03-14T23:40:58Z</time>
      </trkpt>
      <trkpt lat="36.768671767786145" lon="-6.041992222890258">
        <ele>36.670000000000002</ele>
        <time>2016-03-14T23:41:13Z</time>
      </trkpt>
      <trkpt lat="36.763718314468861" lon="-6.04217360727489">
        <ele>35.229999999999997</ele>
        <time>2016-03-14T23:41:30Z</time>
      </trkpt>
      <trkpt lat="36.758632343262434" lon="-6.042950777336955">
        <ele>33.299999999999997</ele>
        <time>2016-03-14T23:41:47Z</time>
      </trkpt>
      <trkpt lat="36.754183396697044" lon="-6.044158274307847">
        <ele>32.340000000000003</ele>
        <time>2016-03-14T23:42:03Z</time>
      </trkpt>
      <trkpt lat="36.749256597831845" lon="-6.046054009348154">
        <ele>29.460000000000001</ele>
        <time>2016-03-14T23:42:18Z</time>
      </trkpt>
      <trkpt lat="36.745018791407347" lon="-6.048218971118331">
        <ele>28.5</ele>
        <time>2016-03-14T23:42:33Z</time>
      </trkpt>
      <trkpt lat="36.740721892565489" lon="-6.050987429916859">
        <ele>26.57</ele>
        <time>2016-03-14T23:42:48Z</time>
      </trkpt>
      <trkpt lat="36.736675947904587" lon="-6.05418412014842">
        <ele>26.09</ele>
        <time>2016-03-14T23:43:03Z</time>
      </trkpt>
      <trkpt lat="36.7328848131001" lon="-6.057735783979297">
        <ele>24.170000000000002</ele>
        <time>2016-03-14T23:43:14Z</time>
      </trkpt>
      <trkpt lat="36.728363111615181" lon="-6.061869403347373">
        <ele>21.77</ele>
        <time>2016-03-14T23:43:25Z</time>
      </trkpt>
      <trkpt lat="36.723929420113564" lon="-6.065339595079422">
        <ele>19.84</ele>
        <time>2016-03-14T23:43:37Z</time>
      </trkpt>
      <trkpt lat="36.720088915899396" lon="-6.067907474935055">
        <ele>19.359999999999999</ele>
        <time>2016-03-14T23:43:48Z</time>
      </trkpt>
      <trkpt lat="36.71510512009263" lon="-6.070732092484832">
        <ele>19.359999999999999</ele>
        <time>2016-03-14T23:43:55Z</time>
      </trkpt>
      <trkpt lat="36.710964627563953" lon="-6.072654565796256">
        <ele>16.960000000000001</ele>
        <time>2016-03-14T23:44:08Z</time>
      </trkpt>
      <trkpt lat="36.706154840067029" lon="-6.074435720220208">
        <ele>16.960000000000001</ele>
        <time>2016-03-14T23:44:18Z</time>
      </trkpt>
      <trkpt lat="36.701076747849584" lon="-6.075868522748351">
        <ele>17.920000000000002</ele>
        <time>2016-03-14T23:44:29Z</time>
      </trkpt>
      <trkpt lat="36.696191690862179" lon="-6.077154977247119">
        <ele>18.399999999999999</ele>
        <time>2016-03-14T23:44:39Z</time>
      </trkpt>
      <trkpt lat="36.691939467564225" lon="-6.078789280727506">
        <ele>20.32</ele>
        <time>2016-03-14T23:44:48Z</time>
      </trkpt>
      <trkpt lat="36.687823366373777" lon="-6.080931359902024">
        <ele>19.359999999999999</ele>
        <time>2016-03-14T23:45:02Z</time>
      </trkpt>
      <trkpt lat="36.683835927397013" lon="-6.083601163700223">
        <ele>16.960000000000001</ele>
        <time>2016-03-14T23:45:16Z</time>
      </trkpt>
      <trkpt lat="36.679737428203225" lon="-6.086292508989573">
        <ele>17.440000000000001</ele>
        <time>2016-03-14T23:45:31Z</time>
      </trkpt>
      <trkpt lat="36.676407130435109" lon="-6.087657837197185">
        <ele>17.920000000000002</ele>
        <time>2016-03-14T23:45:46Z</time>
      </trkpt>
      <trkpt lat="36.673024781048298" lon="-6.088351774960756">
        <ele>17.920000000000002</ele>
        <time>2016-03-14T23:45:56Z</time>
      </trkpt>
      <trkpt lat="36.669351747259498" lon="-6.088364347815514">
        <ele>16</ele>
        <time>2016-03-14T23:46:06Z</time>
      </trkpt>
      <trkpt lat="36.666077775880694" lon="-6.087756995111704">
        <ele>15.52</ele>
        <time>2016-03-14T23:46:18Z</time>
      </trkpt>
      <trkpt lat="36.664290251210332" lon="-6.08714897185564">
        <ele>15.039999999999999</ele>
        <time>2016-03-14T23:46:29Z</time>
      </trkpt>
      <trkpt lat="36.661242842674255" lon="-6.085892273113132">
        <ele>16</ele>
        <time>2016-03-14T23:46:43Z</time>
      </trkpt>
      <trkpt lat="36.65899490006268" lon="-6.085187271237373">
        <ele>17.440000000000001</ele>
        <time>2016-03-14T23:46:56Z</time>
      </trkpt>
      <trkpt lat="36.656497931107879" lon="-6.084866411983967">
        <ele>17.920000000000002</ele>
        <time>2016-03-14T23:47:07Z</time>
      </trkpt>
      <trkpt lat="36.653899205848575" lon="-6.08498970977962">
        <ele>18.399999999999999</ele>
        <time>2016-03-14T23:47:18Z</time>
      </trkpt>
      <trkpt lat="36.651396034285426" lon="-6.085545094683766">
        <ele>18.399999999999999</ele>
        <time>2016-03-14T23:47:28Z</time>
      </trkpt>
      <trkpt lat="36.647425526753068" lon="-6.086902040988207">
        <ele>20.32</ele>
        <time>2016-03-14T23:47:40Z</time>
      </trkpt>
      <trkpt lat="36.643325351178646" lon="-6.087910970672965">
        <ele>20.32</ele>
        <time>2016-03-14T23:47:48Z</time>
      </trkpt>
      <trkpt lat="36.638963744044304" lon="-6.088437186554074">
        <ele>18.879999999999999</ele>
        <time>2016-03-14T23:47:58Z</time>
      </trkpt>
      <trkpt lat="36.634601885452867" lon="-6.088433247059584">
        <ele>18.399999999999999</ele>
        <time>2016-03-14T23:48:06Z</time>
      </trkpt>
      <trkpt lat="36.631710045039654" lon="-6.08795371837914">
        <ele>20.32</ele>
        <time>2016-03-14T23:48:14Z</time>
      </trkpt>
      <trkpt lat="36.628886265680194" lon="-6.086810594424605">
        <ele>25.609999999999999</ele>
        <time>2016-03-14T23:48:22Z</time>
      </trkpt>
      <trkpt lat="36.62556778639555" lon="-6.085464376956224">
        <ele>31.859999999999999</ele>
        <time>2016-03-14T23:48:31Z</time>
      </trkpt>
      <trkpt lat="36.622485760599375" lon="-6.084938831627369">
        <ele>36.189999999999998</ele>
        <time>2016-03-14T23:48:47Z</time>
      </trkpt>
      <trkpt lat="36.618469068780541" lon="-6.084028976038098">
        <ele>36.189999999999998</ele>
        <time>2016-03-14T23:49:01Z</time>
      </trkpt>
      <trkpt lat="36.61458782851696" lon="-6.083298325538635">
        <ele>37.149999999999999</ele>
        <time>2016-03-14T23:49:15Z</time>
      </trkpt>
      <trkpt lat="36.611227355897427" lon="-6.083339480683208">
        <ele>45.799999999999997</ele>
        <time>2016-03-14T23:49:26Z</time>
      </trkpt>
      <trkpt lat="36.607796894386411" lon="-6.084018414840102">
        <ele>53.009999999999998</ele>
        <time>2016-03-14T23:49:33Z</time>
      </trkpt>
      <trkpt lat="36.604972528293729" lon="-6.085099009796977">
        <ele>61.659999999999997</ele>
        <time>2016-03-14T23:49:40Z</time>
      </trkpt>
      <trkpt lat="36.601777179166675" lon="-6.086208773776889">
        <ele>69.829999999999998</ele>
        <time>2016-03-14T23:49:51Z</time>
      </trkpt>
      <trkpt lat="36.599572654813528" lon="-6.086195698007941">
        <ele>77.519999999999996</ele>
        <time>2016-03-14T23:50:01Z</time>
      </trkpt>
      <trkpt lat="36.596845854073763" lon="-6.085525061935186">
        <ele>80.890000000000001</ele>
        <time>2016-03-14T23:50:11Z</time>
      </trkpt>
      <trkpt lat="36.594595983624458" lon="-6.085339989513159">
        <ele>78.480000000000004</ele>
        <time>2016-03-14T23:50:20Z</time>
      </trkpt>
      <trkpt lat="36.592333791777492" lon="-6.085752630606294">
        <ele>68.390000000000001</ele>
        <time>2016-03-14T23:50:30Z</time>
      </trkpt>
      <trkpt lat="36.590110408142209" lon="-6.086789136752486">
        <ele>56.369999999999997</ele>
        <time>2016-03-14T23:50:45Z</time>
      </trkpt>
      <trkpt lat="36.587674375623465" lon="-6.088588647544384">
        <ele>50.130000000000003</ele>
        <time>2016-03-14T23:50:59Z</time>
      </trkpt>
      <trkpt lat="36.583504462614655" lon="-6.09227660112083">
        <ele>43.399999999999999</ele>
        <time>2016-03-14T23:51:13Z</time>
      </trkpt>
      <trkpt lat="36.580299390479922" lon="-6.095661800354719">
        <ele>35.229999999999997</ele>
        <time>2016-03-14T23:51:27Z</time>
      </trkpt>
      <trkpt lat="36.577344099059701" lon="-6.099313125014305">
        <ele>27.530000000000001</ele>
        <time>2016-03-14T23:51:40Z</time>
      </trkpt>
      <trkpt lat="36.574905551970005" lon="-6.102202367037535">
        <ele>20.809999999999999</ele>
        <time>2016-03-14T23:51:53Z</time>
      </trkpt>
      <trkpt lat="36.572944521903992" lon="-6.103496700525284">
        <ele>21.289999999999999</ele>
        <time>2016-03-14T23:52:15Z</time>
      </trkpt>
      <trkpt lat="36.570766903460026" lon="-6.104159038513899">
        <ele>23.690000000000001</ele>
        <time>2016-03-14T23:52:29Z</time>
      </trkpt>
      <trkpt lat="36.567324204370379" lon="-6.104591628536582">
        <ele>27.050000000000001</ele>
        <time>2016-03-14T23:52:49Z</time>
      </trkpt>
      <trkpt lat="36.564375534653664" lon="-6.105462843552232">
        <ele>30.420000000000002</ele>
        <time>2016-03-14T23:53:03Z</time>
      </trkpt>
      <trkpt lat="36.561574386432767" lon="-6.106994049623609">
        <ele>30.420000000000002</ele>
        <time>2016-03-14T23:53:15Z</time>
      </trkpt>
      <trkpt lat="36.559225860983133" lon="-6.108840079978108">
        <ele>28.5</ele>
        <time>2016-03-14T23:53:34Z</time>
      </trkpt>
      <trkpt lat="36.556976409628987" lon="-6.111273011192679">
        <ele>26.09</ele>
        <time>2016-03-14T23:53:40Z</time>
      </trkpt>
      <trkpt lat="36.553997313603759" lon="-6.115301018580794">
        <ele>21.77</ele>
        <time>2016-03-14T23:53:41Z</time>
      </trkpt>
      <trkpt lat="36.551481150090694" lon="-6.119422316551209">
        <ele>20.32</ele>
        <time>2016-03-14T23:53:42Z</time>
      </trkpt>
      <trkpt lat="36.54927528463304" lon="-6.123861288651824">
        <ele>23.210000000000001</ele>
        <time>2016-03-14T23:53:43Z</time>
      </trkpt>
      <trkpt lat="36.547363623976707" lon="-6.128690103068948">
        <ele>31.859999999999999</ele>
        <time>2016-03-14T23:53:44Z</time>
      </trkpt>
      <trkpt lat="36.545893521979451" lon="-6.133452616631985">
        <ele>29.940000000000001</ele>
        <time>2016-03-14T23:53:45Z</time>
      </trkpt>
      <trkpt lat="36.544751320034266" lon="-6.137899300083518">
        <ele>24.170000000000002</ele>
        <time>2016-03-14T23:53:46Z</time>
      </trkpt>
      <trkpt lat="36.543200248852372" lon="-6.145261628553271">
        <ele>19.84</ele>
        <time>2016-03-14T23:53:47Z</time>
      </trkpt>
      <trkpt lat="36.542426599189639" lon="-6.150039313361049">
        <ele>16.960000000000001</ele>
        <time>2016-03-14T23:54:01Z</time>
      </trkpt>
      <trkpt lat="36.541664432734251" lon="-6.156400255858898">
        <ele>13.119999999999999</ele>
        <time>2016-03-14T23:54:09Z</time>
      </trkpt>
      <trkpt lat="36.541376933455467" lon="-6.160358022898436">
        <ele>12.630000000000001</ele>
        <time>2016-03-14T23:54:10Z</time>
      </trkpt>
      <trkpt lat="36.541272746399045" lon="-6.163298897445202">
        <ele>13.119999999999999</ele>
        <time>2016-03-14T23:54:11Z</time>
      </trkpt>
      <trkpt lat="36.541146514937282" lon="-6.167805595323443">
        <ele>13.119999999999999</ele>
        <time>2016-03-14T23:54:12Z</time>
      </trkpt>
      <trkpt lat="36.541159506887197" lon="-6.168963219970465">
        <ele>13.119999999999999</ele>
        <time>2016-03-14T23:54:13Z</time>
      </trkpt>
      <trkpt lat="36.54118993319571" lon="-6.169112334027886">
        <ele>13.119999999999999</ele>
        <time>2016-03-14T23:54:15Z</time>
      </trkpt>
      <trkpt lat="36.541241062805057" lon="-6.169231943786144">
        <ele>12.630000000000001</ele>
        <time>2016-03-14T23:54:16Z</time>
      </trkpt>
      <trkpt lat="36.541301077231765" lon="-6.169320037588477">
        <ele>12.630000000000001</ele>
        <time>2016-03-14T23:54:17Z</time>
      </trkpt>
      <trkpt lat="36.541363438591361" lon="-6.169383656233549">
        <ele>12.630000000000001</ele>
        <time>2016-03-14T23:54:18Z</time>
      </trkpt>
      <trkpt lat="36.541423033922911" lon="-6.169427912682295">
        <ele>11.67</ele>
        <time>2016-03-14T23:54:19Z</time>
      </trkpt>
      <trkpt lat="36.541475336998701" lon="-6.169456830248237">
        <ele>10.710000000000001</ele>
        <time>2016-03-14T23:54:20Z</time>
      </trkpt>
      <trkpt lat="36.541518336161971" lon="-6.169475270435214">
        <ele>10.23</ele>
        <time>2016-03-14T23:54:21Z</time>
      </trkpt>
      <trkpt lat="36.541994512081146" lon="-6.169544337317348">
        <ele>10.23</ele>
        <time>2016-03-14T23:54:22Z</time>
      </trkpt>
      <trkpt lat="36.542312856763601" lon="-6.169343842193484">
        <ele>9.75</ele>
        <time>2016-03-14T23:54:23Z</time>
      </trkpt>
      <trkpt lat="36.542344707995653" lon="-6.1693015974015">
        <ele>9.75</ele>
        <time>2016-03-14T23:54:24Z</time>
      </trkpt>
      <trkpt lat="36.542372955009341" lon="-6.169253066182137">
        <ele>9.75</ele>
        <time>2016-03-14T23:54:25Z</time>
      </trkpt>
      <trkpt lat="36.54239877127111" lon="-6.16919849999249">
        <ele>9.75</ele>
        <time>2016-03-14T23:54:26Z</time>
      </trkpt>
      <trkpt lat="36.542422156780958" lon="-6.169139575213194">
        <ele>9.75</ele>
        <time>2016-03-14T23:54:27Z</time>
      </trkpt>
      <trkpt lat="36.542467335239053" lon="-6.169022144749761">
        <ele>9.75</ele>
        <time>2016-03-14T23:54:28Z</time>
      </trkpt>
      <trkpt lat="36.542494995519519" lon="-6.168968584388495">
        <ele>9.75</ele>
        <time>2016-03-14T23:54:29Z</time>
      </trkpt>
      <trkpt lat="36.542530534788966" lon="-6.168919717893004">
        <ele>9.75</ele>
        <time>2016-03-14T23:54:30Z</time>
      </trkpt>
      <trkpt lat="36.542574539780617" lon="-6.168878227472305">
        <ele>9.27</ele>
        <time>2016-03-14T23:54:31Z</time>
      </trkpt>
      <trkpt lat="36.542629944160581" lon="-6.168851908296347">
        <ele>9.27</ele>
        <time>2016-03-14T23:54:32Z</time>
      </trkpt>
      <trkpt lat="36.542693143710494" lon="-6.168848387897015">
        <ele>9.75</ele>
        <time>2016-03-14T23:54:33Z</time>
      </trkpt>
      <trkpt lat="36.542753912508488" lon="-6.1688716057688">
        <ele>9.75</ele>
        <time>2016-03-14T23:54:34Z</time>
      </trkpt>
      <trkpt lat="36.54280730523169" lon="-6.168913850560784">
        <ele>9.75</ele>
        <time>2016-03-14T23:54:35Z</time>
      </trkpt>
      <trkpt lat="36.542856674641371" lon="-6.16896104067564">
        <ele>9.27</ele>
        <time>2016-03-14T23:54:36Z</time>
      </trkpt>
      <trkpt lat="36.542908810079098" lon="-6.169006889685988">
        <ele>9.27</ele>
        <time>2016-03-14T23:54:37Z</time>
      </trkpt>
      <trkpt lat="36.542969578877091" lon="-6.169048296287656">
        <ele>9.27</ele>
        <time>2016-03-14T23:54:38Z</time>
      </trkpt>
      <trkpt lat="36.543040908873081" lon="-6.169083751738071">
        <ele>8.789999999999999</ele>
        <time>2016-03-14T23:54:39Z</time>
      </trkpt>
      <trkpt lat="36.543121878057718" lon="-6.169109651818872">
        <ele>8.789999999999999</ele>
        <time>2016-03-14T23:54:40Z</time>
      </trkpt>
      <trkpt lat="36.5432074572891" lon="-6.16912473924458">
        <ele>8.310000000000001</ele>
        <time>2016-03-14T23:54:41Z</time>
      </trkpt>
      <trkpt lat="36.543295970186591" lon="-6.169125493615866">
        <ele>8.310000000000001</ele>
        <time>2016-03-14T23:54:42Z</time>
      </trkpt>
      <trkpt lat="36.543384399265051" lon="-6.169118704274297">
        <ele>8.310000000000001</ele>
        <time>2016-03-14T23:54:43Z</time>
      </trkpt>
      <trkpt lat="36.54347182251513" lon="-6.169105796143413">
        <ele>8.310000000000001</ele>
        <time>2016-03-14T23:54:44Z</time>
      </trkpt>
      <trkpt lat="36.543556479737163" lon="-6.169085511937738">
        <ele>8.310000000000001</ele>
        <time>2016-03-14T23:54:45Z</time>
      </trkpt>
      <trkpt lat="36.543635688722134" lon="-6.169053828343749">
        <ele>8.310000000000001</ele>
        <time>2016-03-14T23:54:46Z</time>
      </trkpt>
      <trkpt lat="36.543704755604267" lon="-6.169007308781147">
        <ele>8.789999999999999</ele>
        <time>2016-03-14T23:54:47Z</time>
      </trkpt>
      <trkpt lat="36.543759992346168" lon="-6.168945031240583">
        <ele>9.27</ele>
        <time>2016-03-14T23:54:48Z</time>
      </trkpt>
      <trkpt lat="36.543799303472042" lon="-6.168874120339751">
        <ele>9.75</ele>
        <time>2016-03-14T23:54:49Z</time>
      </trkpt>
      <trkpt lat="36.543823191896081" lon="-6.168797425925732">
        <ele>10.23</ele>
        <time>2016-03-14T23:55:01Z</time>
      </trkpt>
      <trkpt lat="36.543836686760187" lon="-6.168716456741095">
        <ele>10.23</ele>
        <time>2016-03-14T23:55:13Z</time>
      </trkpt>
      <trkpt lat="36.543838698416948" lon="-6.168633475899696">
        <ele>10.710000000000001</ele>
        <time>2016-03-14T23:55:22Z</time>
      </trkpt>
      <trkpt lat="36.543830819427967" lon="-6.168550495058298">
        <ele>11.19</ele>
        <time>2016-03-14T23:55:37Z</time>
      </trkpt>
      <trkpt lat="36.543812630698085" lon="-6.168467178940773">
        <ele>11.67</ele>
        <time>2016-03-14T23:55:49Z</time>
      </trkpt>
      <trkpt lat="36.543782623484731" lon="-6.168386628851295">
        <ele>12.15</ele>
        <time>2016-03-14T23:55:57Z</time>
      </trkpt>
      <trkpt lat="36.543737947940826" lon="-6.168311024084687">
        <ele>12.630000000000001</ele>
        <time>2016-03-14T23:56:05Z</time>
      </trkpt>
      <trkpt lat="36.54367852024734" lon="-6.168245729058981">
        <ele>13.119999999999999</ele>
        <time>2016-03-14T23:56:14Z</time>
      </trkpt>
      <trkpt lat="36.543606519699097" lon="-6.16819778457284">
        <ele>13.6</ele>
        <time>2016-03-14T23:56:27Z</time>
      </trkpt>
      <trkpt lat="36.54352605342865" lon="-6.168167442083359">
        <ele>14.08</ele>
        <time>2016-03-14T23:56:39Z</time>
      </trkpt>
      <trkpt lat="36.543439468368888" lon="-6.168153444305062">
        <ele>18.399999999999999</ele>
        <time>2016-03-14T23:56:50Z</time>
      </trkpt>
      <trkpt lat="36.543348357081413" lon="-6.16814992390573">
        <ele>19.84</ele>
        <time>2016-03-14T23:57:03Z</time>
      </trkpt>
      <trkpt lat="36.543251629918814" lon="-6.168152606114745">
        <ele>17.920000000000002</ele>
        <time>2016-03-14T23:57:16Z</time>
      </trkpt>
      <trkpt lat="36.541884038597345" lon="-6.168130058795214">
        <ele>25.129999999999999</ele>
        <time>2016-03-14T23:57:32Z</time>
      </trkpt>
      <trkpt lat="36.540118642151356" lon="-6.168192001059651">
        <ele>33.299999999999997</ele>
        <time>2016-03-14T23:57:43Z</time>
      </trkpt>
      <trkpt lat="36.538406386971474" lon="-6.168296774849296">
        <ele>30.899999999999999</ele>
        <time>2016-03-14T23:57:56Z</time>
      </trkpt>
      <trkpt lat="36.535004172474146" lon="-6.16860531270504">
        <ele>25.129999999999999</ele>
        <time>2016-03-14T23:58:05Z</time>
      </trkpt>
      <trkpt lat="36.532079642638564" lon="-6.168793402612209">
        <ele>18.399999999999999</ele>
        <time>2016-03-14T23:58:18Z</time>
      </trkpt>
      <trkpt lat="36.530069075524807" lon="-6.168366596102715">
        <ele>17.440000000000001</ele>
        <time>2016-03-14T23:58:35Z</time>
      </trkpt>
      <trkpt lat="36.528134951367974" lon="-6.167297065258026">
        <ele>19.359999999999999</ele>
        <time>2016-03-14T23:58:48Z</time>
      </trkpt>
      <trkpt lat="36.52618121355772" lon="-6.165536278858781">
        <ele>12.630000000000001</ele>
        <time>2016-03-14T23:59:05Z</time>
      </trkpt>
      <trkpt lat="36.523293480277061" lon="-6.163250533863902">
        <ele>12.630000000000001</ele>
        <time>2016-03-14T23:59:27Z</time>
      </trkpt>
      <trkpt lat="36.520655443891883" lon="-6.161043159663677">
        <ele>9.75</ele>
        <time>2016-03-14T23:59:44Z</time>
      </trkpt>
      <trkpt lat="36.518465336412191" lon="-6.1585932970047">
        <ele>9.27</ele>
        <time>2016-03-14T23:59:53Z</time>
      </trkpt>
      <trkpt lat="36.516096694394946" lon="-6.155799692496657">
        <ele>8.789999999999999</ele>
        <time>2016-03-15T00:00:00Z</time>
      </trkpt>
      <trkpt lat="36.513538956642151" lon="-6.153152016922832">
        <ele>9.27</ele>
        <time>2016-03-15T00:00:07Z</time>
      </trkpt>
      <trkpt lat="36.510151829570532" lon="-6.149797411635518">
        <ele>9.75</ele>
        <time>2016-03-15T00:00:14Z</time>
      </trkpt>
      <trkpt lat="36.507876561954618" lon="-6.147588361054659">
        <ele>10.23</ele>
        <time>2016-03-15T00:00:30Z</time>
      </trkpt>
      <trkpt lat="36.504938704892993" lon="-6.145481318235397">
        <ele>9.27</ele>
        <time>2016-03-15T00:00:40Z</time>
      </trkpt>
      <trkpt lat="36.502888239920139" lon="-6.144793499261141">
        <ele>10.710000000000001</ele>
        <time>2016-03-15T00:00:48Z</time>
      </trkpt>
      <trkpt lat="36.499602282419801" lon="-6.144372895359993">
        <ele>8.310000000000001</ele>
        <time>2016-03-15T00:00:58Z</time>
      </trkpt>
      <trkpt lat="36.494871200993657" lon="-6.143774343654513">
        <ele>5.42</ele>
        <time>2016-03-15T00:01:06Z</time>
      </trkpt>
      <trkpt lat="36.491295900195837" lon="-6.143620032817125">
        <ele>5.91</ele>
        <time>2016-03-15T00:01:14Z</time>
      </trkpt>
      <trkpt lat="36.486589126288891" lon="-6.144068632274866">
        <ele>6.39</ele>
        <time>2016-03-15T00:01:27Z</time>
      </trkpt>
      <trkpt lat="36.480180155485868" lon="-6.144695766270161">
        <ele>6.39</ele>
        <time>2016-03-15T00:01:29Z</time>
      </trkpt>
      <trkpt lat="36.475216224789619" lon="-6.145179569721222">
        <ele>6.87</ele>
        <time>2016-03-15T00:01:30Z</time>
      </trkpt>
      <trkpt lat="36.472979681566358" lon="-6.145662870258093">
        <ele>7.35</ele>
        <time>2016-03-15T00:01:31Z</time>
      </trkpt>
      <trkpt lat="36.471502706408501" lon="-6.146708177402616">
        <ele>6.39</ele>
        <time>2016-03-15T00:01:32Z</time>
      </trkpt>
      <trkpt lat="36.470431918278337" lon="-6.148233767598867">
        <ele>6.39</ele>
        <time>2016-03-15T00:01:33Z</time>
      </trkpt>
      <trkpt lat="36.469807215034962" lon="-6.150075858458877">
        <ele>6.87</ele>
        <time>2016-03-15T00:01:34Z</time>
      </trkpt>
      <trkpt lat="36.468633329495788" lon="-6.154341828078032">
        <ele>6.87</ele>
        <time>2016-03-15T00:01:35Z</time>
      </trkpt>
      <trkpt lat="36.46817266009748" lon="-6.157045243307948">
        <ele>8.789999999999999</ele>
        <time>2016-03-15T00:01:36Z</time>
      </trkpt>
      <trkpt lat="36.468393774703145" lon="-6.15930718369782">
        <ele>16</ele>
        <time>2016-03-15T00:01:37Z</time>
      </trkpt>
      <trkpt lat="36.46869502030313" lon="-6.161994757130742">
        <ele>12.630000000000001</ele>
        <time>2016-03-15T00:01:38Z</time>
      </trkpt>
      <trkpt lat="36.468438785523176" lon="-6.163993170484901">
        <ele>10.710000000000001</ele>
        <time>2016-03-15T00:01:39Z</time>
      </trkpt>
      <trkpt lat="36.467774687334895" lon="-6.165536949411035">
        <ele>10.23</ele>
        <time>2016-03-15T00:01:40Z</time>
      </trkpt>
      <trkpt lat="36.466585043817759" lon="-6.167996870353818">
        <ele>9.75</ele>
        <time>2016-03-15T00:01:41Z</time>
      </trkpt>
      <trkpt lat="36.466520503163338" lon="-6.168328458443284">
        <ele>9.27</ele>
        <time>2016-03-15T00:01:42Z</time>
      </trkpt>
      <trkpt lat="36.466515893116593" lon="-6.168478829786181">
        <ele>8.789999999999999</ele>
        <time>2016-03-15T00:01:45Z</time>
      </trkpt>
      <trkpt lat="36.466532489284873" lon="-6.168617717921734">
        <ele>8.789999999999999</ele>
        <time>2016-03-15T00:01:46Z</time>
      </trkpt>
      <trkpt lat="36.466571129858494" lon="-6.168743278831244">
        <ele>8.789999999999999</ele>
        <time>2016-03-15T00:01:47Z</time>
      </trkpt>
      <trkpt lat="36.466631731018424" lon="-6.168854422867298">
        <ele>8.789999999999999</ele>
        <time>2016-03-15T00:01:48Z</time>
      </trkpt>
      <trkpt lat="36.466709347441792" lon="-6.168946037068963">
        <ele>8.789999999999999</ele>
        <time>2016-03-15T00:01:49Z</time>
      </trkpt>
      <trkpt lat="36.466804901137948" lon="-6.169012254104018">
        <ele>8.310000000000001</ele>
        <time>2016-03-15T00:01:50Z</time>
      </trkpt>
      <trkpt lat="36.46691202186048" lon="-6.169048128649592">
        <ele>8.310000000000001</ele>
        <time>2016-03-15T00:01:51Z</time>
      </trkpt>
      <trkpt lat="36.467024674639106" lon="-6.169048715382814">
        <ele>8.310000000000001</ele>
        <time>2016-03-15T00:01:52Z</time>
      </trkpt>
      <trkpt lat="36.467135064303875" lon="-6.169017031788826">
        <ele>7.83</ele>
        <time>2016-03-15T00:01:53Z</time>
      </trkpt>
      <trkpt lat="36.467237994074821" lon="-6.168952574953437">
        <ele>7.83</ele>
        <time>2016-03-15T00:01:54Z</time>
      </trkpt>
      <trkpt lat="36.467330195009708" lon="-6.168858949095011">
        <ele>7.83</ele>
        <time>2016-03-15T00:01:55Z</time>
      </trkpt>
      <trkpt lat="36.467415019869804" lon="-6.168743195012212">
        <ele>7.83</ele>
        <time>2016-03-15T00:01:56Z</time>
      </trkpt>
      <trkpt lat="36.467498419806361" lon="-6.168609587475658">
        <ele>7.35</ele>
        <time>2016-03-15T00:01:57Z</time>
      </trkpt>
      <trkpt lat="36.467720624059439" lon="-6.168125281110406">
        <ele>7.35</ele>
        <time>2016-03-15T00:01:58Z</time>
      </trkpt>
      <trkpt lat="36.467771669849753" lon="-6.167930066585541">
        <ele>7.83</ele>
        <time>2016-03-15T00:01:59Z</time>
      </trkpt>
      <trkpt lat="36.467800084501505" lon="-6.167720435187221">
        <ele>7.83</ele>
        <time>2016-03-15T00:02:00Z</time>
      </trkpt>
      <trkpt lat="36.467814082279801" lon="-6.167502589523792">
        <ele>7.83</ele>
        <time>2016-03-15T00:02:01Z</time>
      </trkpt>
      <trkpt lat="36.467813914641738" lon="-6.167278457432985">
        <ele>8.310000000000001</ele>
        <time>2016-03-15T00:02:10Z</time>
      </trkpt>
      <trkpt lat="36.467798072844744" lon="-6.167048374190927">
        <ele>8.789999999999999</ele>
        <time>2016-03-15T00:02:32Z</time>
      </trkpt>
      <trkpt lat="36.467762533575296" lon="-6.166814183816314">
        <ele>9.27</ele>
        <time>2016-03-15T00:02:50Z</time>
      </trkpt>
      <trkpt lat="36.467709895223379" lon="-6.166578400880098">
        <ele>9.27</ele>
        <time>2016-03-15T00:03:10Z</time>
      </trkpt>
      <trkpt lat="36.467641834169626" lon="-6.166344881057739">
        <ele>9.75</ele>
        <time>2016-03-15T00:03:32Z</time>
      </trkpt>
      <trkpt lat="36.46755944006145" lon="-6.166115636005998">
        <ele>10.23</ele>
        <time>2016-03-15T00:03:47Z</time>
      </trkpt>
      <trkpt lat="36.467462377622724" lon="-6.165897455066443">
        <ele>10.23</ele>
        <time>2016-03-15T00:03:54Z</time>
      </trkpt>
      <trkpt lat="36.467354167252779" lon="-6.16569209843874">
        <ele>10.710000000000001</ele>
        <time>2016-03-15T00:04:01Z</time>
      </trkpt>
      <trkpt lat="36.467230534180999" lon="-6.165501996874809">
        <ele>10.710000000000001</ele>
        <time>2016-03-15T00:04:09Z</time>
      </trkpt>
      <trkpt lat="36.467090137302876" lon="-6.165326563641429">
        <ele>10.710000000000001</ele>
        <time>2016-03-15T00:04:17Z</time>
      </trkpt>
      <trkpt lat="36.466933228075504" lon="-6.165162948891521">
        <ele>9.75</ele>
        <time>2016-03-15T00:04:24Z</time>
      </trkpt>
      <trkpt lat="36.466763075441122" lon="-6.165007883682847">
        <ele>7.35</ele>
        <time>2016-03-15T00:04:40Z</time>
      </trkpt>
      <trkpt lat="36.466586133465171" lon="-6.164856841787696">
        <ele>6.87</ele>
        <time>2016-03-15T00:04:54Z</time>
      </trkpt>
      <trkpt lat="36.464808415621519" lon="-6.163364108651876">
        <ele>6.87</ele>
        <time>2016-03-15T00:05:08Z</time>
      </trkpt>
      <trkpt lat="36.460014721378684" lon="-6.159371556714177">
        <ele>6.39</ele>
        <time>2016-03-15T00:05:20Z</time>
      </trkpt>
      <trkpt lat="36.456160889938474" lon="-6.156007312238216">
        <ele>7.35</ele>
        <time>2016-03-15T00:05:38Z</time>
      </trkpt>
      <trkpt lat="36.452300185337663" lon="-6.152577772736549">
        <ele>9.27</ele>
        <time>2016-03-15T00:05:52Z</time>
      </trkpt>
      <trkpt lat="36.448128679767251" lon="-6.148890322074294">
        <ele>10.23</ele>
        <time>2016-03-15T00:05:59Z</time>
      </trkpt>
      <trkpt lat="36.445415625348687" lon="-6.146186487749219">
        <ele>15.039999999999999</ele>
        <time>2016-03-15T00:06:06Z</time>
      </trkpt>
      <trkpt lat="36.444589085876942" lon="-6.144448919221759">
        <ele>16.48</ele>
        <time>2016-03-15T00:06:13Z</time>
      </trkpt>
      <trkpt lat="36.444195387884974" lon="-6.142408763989806">
        <ele>18.399999999999999</ele>
        <time>2016-03-15T00:06:21Z</time>
      </trkpt>
      <trkpt lat="36.44425380975008" lon="-6.140019251033664">
        <ele>21.289999999999999</ele>
        <time>2016-03-15T00:06:30Z</time>
      </trkpt>
      <trkpt lat="36.444037305191159" lon="-6.13764675334096">
        <ele>25.609999999999999</ele>
        <time>2016-03-15T00:06:39Z</time>
      </trkpt>
      <trkpt lat="36.44341679289937" lon="-6.135675581172109">
        <ele>33.299999999999997</ele>
        <time>2016-03-15T00:06:49Z</time>
      </trkpt>
      <trkpt lat="36.441544443368912" lon="-6.131235435605049">
        <ele>37.630000000000003</ele>
        <time>2016-03-15T00:06:58Z</time>
      </trkpt>
      <trkpt lat="36.439641332253814" lon="-6.12753608264029">
        <ele>38.109999999999999</ele>
        <time>2016-03-15T00:07:05Z</time>
      </trkpt>
      <trkpt lat="36.437347456812859" lon="-6.124099502339959">
        <ele>36.670000000000002</ele>
        <time>2016-03-15T00:07:12Z</time>
      </trkpt>
      <trkpt lat="36.435067495331168" lon="-6.121483342722058">
        <ele>35.710000000000001</ele>
        <time>2016-03-15T00:07:21Z</time>
      </trkpt>
      <trkpt lat="36.431257082149386" lon="-6.117624985054135">
        <ele>35.229999999999997</ele>
        <time>2016-03-15T00:07:28Z</time>
      </trkpt>
      <trkpt lat="36.428058212623" lon="-6.114916792139411">
        <ele>31.859999999999999</ele>
        <time>2016-03-15T00:07:34Z</time>
      </trkpt>
      <trkpt lat="36.426208326593041" lon="-6.114257136359811">
        <ele>22.73</ele>
        <time>2016-03-15T00:07:41Z</time>
      </trkpt>
      <trkpt lat="36.424273448064923" lon="-6.114298794418573">
        <ele>21.289999999999999</ele>
        <time>2016-03-15T00:07:47Z</time>
      </trkpt>
      <trkpt lat="36.422403948381543" lon="-6.115008490160108">
        <ele>20.809999999999999</ele>
        <time>2016-03-15T00:08:00Z</time>
      </trkpt>
      <trkpt lat="36.420425986871123" lon="-6.116482028737664">
        <ele>18.399999999999999</ele>
        <time>2016-03-15T00:08:15Z</time>
      </trkpt>
      <trkpt lat="36.418121801689267" lon="-6.117889685556293">
        <ele>16.48</ele>
        <time>2016-03-15T00:08:31Z</time>
      </trkpt>
      <trkpt lat="36.415637824684381" lon="-6.118733156472445">
        <ele>16.48</ele>
        <time>2016-03-15T00:08:43Z</time>
      </trkpt>
      <trkpt lat="36.412905575707555" lon="-6.118999281898141">
        <ele>16.48</ele>
        <time>2016-03-15T00:08:56Z</time>
      </trkpt>
      <trkpt lat="36.410447917878628" lon="-6.119365403428674">
        <ele>18.879999999999999</ele>
        <time>2016-03-15T00:09:10Z</time>
      </trkpt>
      <trkpt lat="36.408709594979882" lon="-6.12038891762495">
        <ele>21.289999999999999</ele>
        <time>2016-03-15T00:09:27Z</time>
      </trkpt>
      <trkpt lat="36.407242342829704" lon="-6.122020538896322">
        <ele>22.73</ele>
        <time>2016-03-15T00:09:42Z</time>
      </trkpt>
      <trkpt lat="36.405636286363006" lon="-6.12449730746448">
        <ele>23.210000000000001</ele>
        <time>2016-03-15T00:09:54Z</time>
      </trkpt>
      <trkpt lat="36.404060069471598" lon="-6.125804716721177">
        <ele>23.690000000000001</ele>
        <time>2016-03-15T00:10:06Z</time>
      </trkpt>
      <trkpt lat="36.402473207563162" lon="-6.126370411366224">
        <ele>28.98</ele>
        <time>2016-03-15T00:10:14Z</time>
      </trkpt>
      <trkpt lat="36.400488959625363" lon="-6.126316767185926">
        <ele>28.5</ele>
        <time>2016-03-15T00:10:21Z</time>
      </trkpt>
      <trkpt lat="36.398809058591723" lon="-6.125637833029032">
        <ele>32.82</ele>
        <time>2016-03-15T00:10:29Z</time>
      </trkpt>
      <trkpt lat="36.395325120538473" lon="-6.123430961742997">
        <ele>35.710000000000001</ele>
        <time>2016-03-15T00:10:36Z</time>
      </trkpt>
      <trkpt lat="36.39157178811729" lon="-6.120652947574854">
        <ele>38.590000000000003</ele>
        <time>2016-03-15T00:10:43Z</time>
      </trkpt>
      <trkpt lat="36.387831699103117" lon="-6.117835622280836">
        <ele>38.590000000000003</ele>
        <time>2016-03-15T00:11:03Z</time>
      </trkpt>
      <trkpt lat="36.384708769619465" lon="-6.116320006549358">
        <ele>29.940000000000001</ele>
        <time>2016-03-15T00:11:15Z</time>
      </trkpt>
      <trkpt lat="36.381110670045018" lon="-6.114903716370463">
        <ele>32.340000000000003</ele>
        <time>2016-03-15T00:11:27Z</time>
      </trkpt>
      <trkpt lat="36.376944109797478" lon="-6.114181950688362">
        <ele>38.109999999999999</ele>
        <time>2016-03-15T00:11:43Z</time>
      </trkpt>
      <trkpt lat="36.371527640148997" lon="-6.113255750387907">
        <ele>37.630000000000003</ele>
        <time>2016-03-15T00:11:55Z</time>
      </trkpt>
      <trkpt lat="36.366855315864086" lon="-6.112309014424682">
        <ele>36.670000000000002</ele>
        <time>2016-03-15T00:12:02Z</time>
      </trkpt>
      <trkpt lat="36.363472547382116" lon="-6.111071174964309">
        <ele>37.149999999999999</ele>
        <time>2016-03-15T00:12:10Z</time>
      </trkpt>
      <trkpt lat="36.360219027847052" lon="-6.109265545383096">
        <ele>38.109999999999999</ele>
        <time>2016-03-15T00:12:21Z</time>
      </trkpt>
      <trkpt lat="36.358334524556994" lon="-6.107573742046952">
        <ele>40.990000000000002</ele>
        <time>2016-03-15T00:12:30Z</time>
      </trkpt>
      <trkpt lat="36.357020828872919" lon="-6.105640204623342">
        <ele>44.840000000000003</ele>
        <time>2016-03-15T00:12:38Z</time>
      </trkpt>
      <trkpt lat="36.355931265279651" lon="-6.103044496849179">
        <ele>54.93</ele>
        <time>2016-03-15T00:12:46Z</time>
      </trkpt>
      <trkpt lat="36.355425920337439" lon="-6.100508803501725">
        <ele>60.700000000000003</ele>
        <time>2016-03-15T00:12:53Z</time>
      </trkpt>
      <trkpt lat="36.355382334440947" lon="-6.097866492345929">
        <ele>66.469999999999999</ele>
        <time>2016-03-15T00:13:00Z</time>
      </trkpt>
      <trkpt lat="36.355685675516725" lon="-6.090201325714588">
        <ele>74.640000000000001</ele>
        <time>2016-03-15T00:13:07Z</time>
      </trkpt>
      <trkpt lat="36.355418460443616" lon="-6.085557332262397">
        <ele>79.450000000000003</ele>
        <time>2016-03-15T00:13:14Z</time>
      </trkpt>
      <trkpt lat="36.354744303971529" lon="-6.081187091767788">
        <ele>80.890000000000001</ele>
        <time>2016-03-15T00:13:21Z</time>
      </trkpt>
      <trkpt lat="36.353738727048039" lon="-6.07540768571198">
        <ele>82.329999999999998</ele>
        <time>2016-03-15T00:13:28Z</time>
      </trkpt>
      <trkpt lat="36.3527512550354" lon="-6.071050269529223">
        <ele>85.209999999999994</ele>
        <time>2016-03-15T00:13:36Z</time>
      </trkpt>
      <trkpt lat="36.351665882393718" lon="-6.068701408803463">
        <ele>85.689999999999998</ele>
        <time>2016-03-15T00:13:51Z</time>
      </trkpt>
      <trkpt lat="36.349976928904653" lon="-6.066355146467686">
        <ele>84.730000000000004</ele>
        <time>2016-03-15T00:14:02Z</time>
      </trkpt>
      <trkpt lat="36.347673330456018" lon="-6.063207993283868">
        <ele>83.290000000000006</ele>
        <time>2016-03-15T00:14:13Z</time>
      </trkpt>
      <trkpt lat="36.346302218735218" lon="-6.060210289433599">
        <ele>80.890000000000001</ele>
        <time>2016-03-15T00:14:22Z</time>
      </trkpt>
      <trkpt lat="36.345496801659465" lon="-6.057284753769636">
        <ele>76.560000000000002</ele>
        <time>2016-03-15T00:14:34Z</time>
      </trkpt>
      <trkpt lat="36.344654588028789" lon="-6.054347818717361">
        <ele>71.760000000000005</ele>
        <time>2016-03-15T00:14:48Z</time>
      </trkpt>
      <trkpt lat="36.343508278951049" lon="-6.052298862487078">
        <ele>65.510000000000005</ele>
        <time>2016-03-15T00:15:02Z</time>
      </trkpt>
      <trkpt lat="36.342016132548451" lon="-6.050702529028058">
        <ele>60.700000000000003</ele>
        <time>2016-03-15T00:15:13Z</time>
      </trkpt>
      <trkpt lat="36.340197846293449" lon="-6.049562757834792">
        <ele>59.740000000000002</ele>
        <time>2016-03-15T00:15:24Z</time>
      </trkpt>
      <trkpt lat="36.338123576715589" lon="-6.049017934128642">
        <ele>64.549999999999997</ele>
        <time>2016-03-15T00:15:35Z</time>
      </trkpt>
      <trkpt lat="36.336001865565777" lon="-6.049178447574377">
        <ele>76.560000000000002</ele>
        <time>2016-03-15T00:15:42Z</time>
      </trkpt>
      <trkpt lat="36.333966068923473" lon="-6.050032563507557">
        <ele>78</ele>
        <time>2016-03-15T00:15:50Z</time>
      </trkpt>
      <trkpt lat="36.331885512918234" lon="-6.05161833576858">
        <ele>67.909999999999997</ele>
        <time>2016-03-15T00:15:58Z</time>
      </trkpt>
      <trkpt lat="36.327871754765511" lon="-6.054376317188144">
        <ele>57.82</ele>
        <time>2016-03-15T00:16:06Z</time>
      </trkpt>
      <trkpt lat="36.324575822800398" lon="-6.055906182155013">
        <ele>44.840000000000003</ele>
        <time>2016-03-15T00:16:14Z</time>
      </trkpt>
      <trkpt lat="36.320988954976201" lon="-6.056940341368318">
        <ele>39.549999999999997</ele>
        <time>2016-03-15T00:16:23Z</time>
      </trkpt>
      <trkpt lat="36.318144723773003" lon="-6.05732062831521">
        <ele>44.359999999999999</ele>
        <time>2016-03-15T00:16:40Z</time>
      </trkpt>
      <trkpt lat="36.314436318352818" lon="-6.057257512584329">
        <ele>45.799999999999997</ele>
        <time>2016-03-15T00:16:57Z</time>
      </trkpt>
      <trkpt lat="36.310008578002453" lon="-6.056591654196382">
        <ele>41.950000000000003</ele>
        <time>2016-03-15T00:17:06Z</time>
      </trkpt>
      <trkpt lat="36.30580429919064" lon="-6.056026294827461">
        <ele>32.82</ele>
        <time>2016-03-15T00:17:13Z</time>
      </trkpt>
      <trkpt lat="36.302431002259254" lon="-6.056086225435138">
        <ele>28.02</ele>
        <time>2016-03-15T00:17:22Z</time>
      </trkpt>
      <trkpt lat="36.298901466652751" lon="-6.056694919243455">
        <ele>23.210000000000001</ele>
        <time>2016-03-15T00:17:31Z</time>
      </trkpt>
      <trkpt lat="36.295291883870959" lon="-6.05727469548583">
        <ele>19.359999999999999</ele>
        <time>2016-03-15T00:17:39Z</time>
      </trkpt>
      <trkpt lat="36.293225074186921" lon="-6.057033548131585">
        <ele>17.920000000000002</ele>
        <time>2016-03-15T00:17:48Z</time>
      </trkpt>
      <trkpt lat="36.290968162938952" lon="-6.056173229590058">
        <ele>17.920000000000002</ele>
        <time>2016-03-15T00:17:56Z</time>
      </trkpt>
      <trkpt lat="36.288868496194482" lon="-6.054704133421183">
        <ele>16.960000000000001</ele>
        <time>2016-03-15T00:18:05Z</time>
      </trkpt>
      <trkpt lat="36.287142913788557" lon="-6.052802950143814">
        <ele>16.960000000000001</ele>
        <time>2016-03-15T00:18:13Z</time>
      </trkpt>
      <trkpt lat="36.285778675228357" lon="-6.050499184057117">
        <ele>25.129999999999999</ele>
        <time>2016-03-15T00:18:22Z</time>
      </trkpt>
      <trkpt lat="36.284635132178664" lon="-6.047496786341071">
        <ele>32.340000000000003</ele>
        <time>2016-03-15T00:18:38Z</time>
      </trkpt>
      <trkpt lat="36.28250109963119" lon="-6.041404400020838">
        <ele>40.030000000000001</ele>
        <time>2016-03-15T00:18:46Z</time>
      </trkpt>
      <trkpt lat="36.280280062928796" lon="-6.035532038658857">
        <ele>48.200000000000003</ele>
        <time>2016-03-15T00:18:54Z</time>
      </trkpt>
      <trkpt lat="36.278864024206996" lon="-6.032684622332454">
        <ele>53.009999999999998</ele>
        <time>2016-03-15T00:19:02Z</time>
      </trkpt>
      <trkpt lat="36.277379589155316" lon="-6.030939426273108">
        <ele>53.969999999999999</ele>
        <time>2016-03-15T00:19:09Z</time>
      </trkpt>
      <trkpt lat="36.275341780856252" lon="-6.029323814436793">
        <ele>53.490000000000002</ele>
        <time>2016-03-15T00:19:17Z</time>
      </trkpt>
      <trkpt lat="36.273090066388249" lon="-6.028316309675574">
        <ele>48.68</ele>
        <time>2016-03-15T00:19:25Z</time>
      </trkpt>
      <trkpt lat="36.270982017740607" lon="-6.027993019670248">
        <ele>41.950000000000003</ele>
        <time>2016-03-15T00:19:41Z</time>
      </trkpt>
      <trkpt lat="36.26867045648396" lon="-6.028241794556379">
        <ele>40.030000000000001</ele>
        <time>2016-03-15T00:19:50Z</time>
      </trkpt>
      <trkpt lat="36.266542878001928" lon="-6.02903195656836">
        <ele>40.509999999999998</ele>
        <time>2016-03-15T00:19:58Z</time>
      </trkpt>
      <trkpt lat="36.263990001752973" lon="-6.029810132458806">
        <ele>39.549999999999997</ele>
        <time>2016-03-15T00:20:06Z</time>
      </trkpt>
      <trkpt lat="36.261616833508015" lon="-6.029772246256471">
        <ele>39.07</ele>
        <time>2016-03-15T00:20:18Z</time>
      </trkpt>
      <trkpt lat="36.259053563699126" lon="-6.029048468917608">
        <ele>41.469999999999999</ele>
        <time>2016-03-15T00:20:26Z</time>
      </trkpt>
      <trkpt lat="36.254621213302016" lon="-6.027435539290309">
        <ele>43.399999999999999</ele>
        <time>2016-03-15T00:20:35Z</time>
      </trkpt>
      <trkpt lat="36.252731513231993" lon="-6.026038527488709">
        <ele>43.880000000000003</ele>
        <time>2016-03-15T00:20:45Z</time>
      </trkpt>
      <trkpt lat="36.251190835610032" lon="-6.024146061390638">
        <ele>48.68</ele>
        <time>2016-03-15T00:20:59Z</time>
      </trkpt>
      <trkpt lat="36.250043353065848" lon="-6.021828129887581">
        <ele>53.490000000000002</ele>
        <time>2016-03-15T00:21:08Z</time>
      </trkpt>
      <trkpt lat="36.249429881572723" lon="-6.019505588337779">
        <ele>55.890000000000001</ele>
        <time>2016-03-15T00:21:18Z</time>
      </trkpt>
      <trkpt lat="36.249246234074235" lon="-6.016659010201693">
        <ele>53.969999999999999</ele>
        <time>2016-03-15T00:21:27Z</time>
      </trkpt>
      <trkpt lat="36.249569021165371" lon="-6.013803631067276">
        <ele>52.049999999999997</ele>
        <time>2016-03-15T00:21:35Z</time>
      </trkpt>
      <trkpt lat="36.250406373292208" lon="-6.007872009649873">
        <ele>50.130000000000003</ele>
        <time>2016-03-15T00:21:47Z</time>
      </trkpt>
      <trkpt lat="36.251156302168965" lon="-6.004449678584933">
        <ele>42.439999999999998</ele>
        <time>2016-03-15T00:21:54Z</time>
      </trkpt>
      <trkpt lat="36.252044700086117" lon="-6.001850534230471">
        <ele>39.07</ele>
        <time>2016-03-15T00:22:01Z</time>
      </trkpt>
      <trkpt lat="36.252516014501452" lon="-5.999278798699379">
        <ele>37.630000000000003</ele>
        <time>2016-03-15T00:22:17Z</time>
      </trkpt>
      <trkpt lat="36.252745762467384" lon="-5.995486238971353">
        <ele>35.229999999999997</ele>
        <time>2016-03-15T00:22:27Z</time>
      </trkpt>
      <trkpt lat="36.253219172358513" lon="-5.993269560858607">
        <ele>31.859999999999999</ele>
        <time>2016-03-15T00:22:34Z</time>
      </trkpt>
      <trkpt lat="36.253644386306405" lon="-5.99135379306972">
        <ele>29.460000000000001</ele>
        <time>2016-03-15T00:22:35Z</time>
      </trkpt>
      <trkpt lat="36.253812946379185" lon="-5.989045081660152">
        <ele>26.09</ele>
        <time>2016-03-15T00:22:36Z</time>
      </trkpt>
      <trkpt lat="36.253748824819922" lon="-5.985457124188542">
        <ele>25.609999999999999</ele>
        <time>2016-03-15T00:22:37Z</time>
      </trkpt>
      <trkpt lat="36.254144115373492" lon="-5.983071466907859">
        <ele>27.050000000000001</ele>
        <time>2016-03-15T00:22:38Z</time>
      </trkpt>
      <trkpt lat="36.255041565746069" lon="-5.98069628700614">
        <ele>28.98</ele>
        <time>2016-03-15T00:22:39Z</time>
      </trkpt>
      <trkpt lat="36.25625979155302" lon="-5.978795774281025">
        <ele>23.690000000000001</ele>
        <time>2016-03-15T00:22:40Z</time>
      </trkpt>
      <trkpt lat="36.257564770057797" lon="-5.977366659790278">
        <ele>18.879999999999999</ele>
        <time>2016-03-15T00:22:41Z</time>
      </trkpt>
      <trkpt lat="36.259460086002946" lon="-5.975000113248825">
        <ele>19.84</ele>
        <time>2016-03-15T00:22:46Z</time>
      </trkpt>
      <trkpt lat="36.260266592726111" lon="-5.973364971578121">
        <ele>14.56</ele>
        <time>2016-03-15T00:22:47Z</time>
      </trkpt>
      <trkpt lat="36.260558199137449" lon="-5.971589265391231">
        <ele>14.08</ele>
        <time>2016-03-15T00:22:48Z</time>
      </trkpt>
      <trkpt lat="36.260868748649955" lon="-5.967165129259229">
        <ele>14.08</ele>
        <time>2016-03-15T00:22:49Z</time>
      </trkpt>
      <trkpt lat="36.260887440294027" lon="-5.964401112869382">
        <ele>14.08</ele>
        <time>2016-03-15T00:22:50Z</time>
      </trkpt>
      <trkpt lat="36.260767830535769" lon="-5.962816430255771">
        <ele>14.08</ele>
        <time>2016-03-15T00:22:59Z</time>
      </trkpt>
      <trkpt lat="36.260727681219578" lon="-5.96262825652957">
        <ele>14.56</ele>
        <time>2016-03-15T00:23:00Z</time>
      </trkpt>
      <trkpt lat="36.260673953220248" lon="-5.962447877973318">
        <ele>14.08</ele>
        <time>2016-03-15T00:23:01Z</time>
      </trkpt>
      <trkpt lat="36.260601198300719" lon="-5.96227940171957">
        <ele>14.08</ele>
        <time>2016-03-15T00:23:02Z</time>
      </trkpt>
      <trkpt lat="36.260499358177185" lon="-5.962125845253468">
        <ele>14.08</ele>
        <time>2016-03-15T00:23:03Z</time>
      </trkpt>
      <trkpt lat="36.260376898571849" lon="-5.961983436718583">
        <ele>13.6</ele>
        <time>2016-03-15T00:23:12Z</time>
      </trkpt>
      <trkpt lat="36.260238597169518" lon="-5.961851505562663">
        <ele>13.119999999999999</ele>
        <time>2016-03-15T00:23:26Z</time>
      </trkpt>
      <trkpt lat="36.26009208150208" lon="-5.961725190281868">
        <ele>13.119999999999999</ele>
        <time>2016-03-15T00:23:29Z</time>
      </trkpt>
      <trkpt lat="36.259370064362884" lon="-5.961049776524305">
        <ele>13.119999999999999</ele>
        <time>2016-03-15T00:23:30Z</time>
      </trkpt>
      <trkpt lat="36.259254394099116" lon="-5.960884317755699">
        <ele>13.119999999999999</ele>
        <time>2016-03-15T00:23:31Z</time>
      </trkpt>
      <trkpt lat="36.25915540382266" lon="-5.960700083523989">
        <ele>12.630000000000001</ele>
        <time>2016-03-15T00:23:32Z</time>
      </trkpt>
      <trkpt lat="36.259069070219994" lon="-5.96049883402884">
        <ele>12.630000000000001</ele>
        <time>2016-03-15T00:23:33Z</time>
      </trkpt>
      <trkpt lat="36.258984748274088" lon="-5.960287610068917">
        <ele>12.630000000000001</ele>
        <time>2016-03-15T00:23:34Z</time>
      </trkpt>
      <trkpt lat="36.258037341758609" lon="-5.958397658541799">
        <ele>12.630000000000001</ele>
        <time>2016-03-15T00:23:35Z</time>
      </trkpt>
      <trkpt lat="36.257890490815043" lon="-5.958231193944812">
        <ele>12.630000000000001</ele>
        <time>2016-03-15T00:23:36Z</time>
      </trkpt>
      <trkpt lat="36.257727462798357" lon="-5.958084091544151">
        <ele>14.08</ele>
        <time>2016-03-15T00:23:37Z</time>
      </trkpt>
      <trkpt lat="36.257549347355962" lon="-5.957952328026295">
        <ele>19.84</ele>
        <time>2016-03-15T00:23:38Z</time>
      </trkpt>
      <trkpt lat="36.257363185286522" lon="-5.957829533144832">
        <ele>20.809999999999999</ele>
        <time>2016-03-15T00:23:39Z</time>
      </trkpt>
      <trkpt lat="36.255502989515662" lon="-5.956678614020348">
        <ele>21.289999999999999</ele>
        <time>2016-03-15T00:23:40Z</time>
      </trkpt>
      <trkpt lat="36.252804268151522" lon="-5.954170078039169">
        <ele>21.77</ele>
        <time>2016-03-15T00:23:41Z</time>
      </trkpt>
      <trkpt lat="36.252332199364901" lon="-5.953648556023836">
        <ele>22.25</ele>
        <time>2016-03-15T00:23:50Z</time>
      </trkpt>
      <trkpt lat="36.252214685082436" lon="-5.953458370640874">
        <ele>22.73</ele>
        <time>2016-03-15T00:23:59Z</time>
      </trkpt>
      <trkpt lat="36.252122400328517" lon="-5.953254271298647">
        <ele>23.210000000000001</ele>
        <time>2016-03-15T00:24:00Z</time>
      </trkpt>
      <trkpt lat="36.252054674550891" lon="-5.953036090359092">
        <ele>24.170000000000002</ele>
        <time>2016-03-15T00:24:01Z</time>
      </trkpt>
      <trkpt lat="36.252013267949224" lon="-5.952807767316699">
        <ele>24.649999999999999</ele>
        <time>2016-03-15T00:24:02Z</time>
      </trkpt>
      <trkpt lat="36.252000359818339" lon="-5.952577348798513">
        <ele>25.129999999999999</ele>
        <time>2016-03-15T00:24:03Z</time>
      </trkpt>
      <trkpt lat="36.252017123624682" lon="-5.952350702136755">
        <ele>26.09</ele>
        <time>2016-03-15T00:24:04Z</time>
      </trkpt>
      <trkpt lat="36.252061212435365" lon="-5.952131850644946">
        <ele>26.09</ele>
        <time>2016-03-15T00:24:05Z</time>
      </trkpt>
      <trkpt lat="36.252127010375261" lon="-5.95192096196115">
        <ele>26.09</ele>
        <time>2016-03-15T00:24:06Z</time>
      </trkpt>
      <trkpt lat="36.25220856629312" lon="-5.951719377189875">
        <ele>26.09</ele>
        <time>2016-03-15T00:24:19Z</time>
      </trkpt>
      <trkpt lat="36.252306383103132" lon="-5.951529024168849">
        <ele>24.170000000000002</ele>
        <time>2016-03-15T00:24:30Z</time>
      </trkpt>
      <trkpt lat="36.252423394471407" lon="-5.951345628127456">
        <ele>35.710000000000001</ele>
        <time>2016-03-15T00:24:41Z</time>
      </trkpt>
      <trkpt lat="36.252555996179581" lon="-5.951167596504092">
        <ele>37.149999999999999</ele>
        <time>2016-03-15T00:24:53Z</time>
      </trkpt>
      <trkpt lat="36.253967843949795" lon="-5.949385603889823">
        <ele>38.109999999999999</ele>
        <time>2016-03-15T00:25:07Z</time>
      </trkpt>
      <trkpt lat="36.255354378372431" lon="-5.947660943493247">
        <ele>39.549999999999997</ele>
        <time>2016-03-15T00:25:22Z</time>
      </trkpt>
      <trkpt lat="36.255450434982777" lon="-5.94746271148324">
        <ele>40.990000000000002</ele>
        <time>2016-03-15T00:25:35Z</time>
      </trkpt>
      <trkpt lat="36.255519837141037" lon="-5.947254002094269">
        <ele>42.439999999999998</ele>
        <time>2016-03-15T00:25:47Z</time>
      </trkpt>
      <trkpt lat="36.255563339218497" lon="-5.947033641859889">
        <ele>43.880000000000003</ele>
        <time>2016-03-15T00:25:58Z</time>
      </trkpt>
      <trkpt lat="36.255578007549047" lon="-5.946808336302638">
        <ele>45.32</ele>
        <time>2016-03-15T00:26:13Z</time>
      </trkpt>
      <trkpt lat="36.255565602332354" lon="-5.946582863107324">
        <ele>61.659999999999997</ele>
        <time>2016-03-15T00:26:33Z</time>
      </trkpt>
      <trkpt lat="36.255534421652555" lon="-5.946358563378453">
        <ele>65.030000000000001</ele>
        <time>2016-03-15T00:26:53Z</time>
      </trkpt>
      <trkpt lat="36.25549360178411" lon="-5.946130743250251">
        <ele>52.530000000000001</ele>
        <time>2016-03-15T00:27:03Z</time>
      </trkpt>
      <trkpt lat="36.254893289878964" lon="-5.942966155707836">
        <ele>46.280000000000001</ele>
        <time>2016-03-15T00:27:04Z</time>
      </trkpt>
      <trkpt lat="36.254127854481339" lon="-5.93994858674705">
        <ele>33.299999999999997</ele>
        <time>2016-03-15T00:27:05Z</time>
      </trkpt>
      <trkpt lat="36.253211963921785" lon="-5.936477221548557">
        <ele>28.98</ele>
        <time>2016-03-15T00:27:06Z</time>
      </trkpt>
      <trkpt lat="36.252327840775251" lon="-5.933106355369091">
        <ele>30.420000000000002</ele>
        <time>2016-03-15T00:27:07Z</time>
      </trkpt>
      <trkpt lat="36.251237271353602" lon="-5.928957900032401">
        <ele>38.109999999999999</ele>
        <time>2016-03-15T00:27:16Z</time>
      </trkpt>
      <trkpt lat="36.250070510432124" lon="-5.924594029784203">
        <ele>41.469999999999999</ele>
        <time>2016-03-15T00:27:29Z</time>
      </trkpt>
      <trkpt lat="36.249101143330336" lon="-5.920916721224785">
        <ele>46.759999999999998</ele>
        <time>2016-03-15T00:27:36Z</time>
      </trkpt>
      <trkpt lat="36.248269826173782" lon="-5.917604276910424">
        <ele>51.090000000000003</ele>
        <time>2016-03-15T00:27:43Z</time>
      </trkpt>
      <trkpt lat="36.247755093500018" lon="-5.914281271398068">
        <ele>50.130000000000003</ele>
        <time>2016-03-15T00:27:51Z</time>
      </trkpt>
      <trkpt lat="36.247003991156816" lon="-5.909322453662753">
        <ele>51.57</ele>
        <time>2016-03-15T00:28:06Z</time>
      </trkpt>
      <trkpt lat="36.246062703430653" lon="-5.903096878901124">
        <ele>52.049999999999997</ele>
        <time>2016-03-15T00:28:17Z</time>
      </trkpt>
      <trkpt lat="36.245175562798977" lon="-5.897017987444997">
        <ele>52.049999999999997</ele>
        <time>2016-03-15T00:28:25Z</time>
      </trkpt>
      <trkpt lat="36.244679186493158" lon="-5.894180461764336">
        <ele>52.049999999999997</ele>
        <time>2016-03-15T00:28:44Z</time>
      </trkpt>
      <trkpt lat="36.244597462937236" lon="-5.893989270552993">
        <ele>52.530000000000001</ele>
        <time>2016-03-15T00:28:58Z</time>
      </trkpt>
      <trkpt lat="36.244503250345588" lon="-5.893809897825122">
        <ele>54.450000000000003</ele>
        <time>2016-03-15T00:29:05Z</time>
      </trkpt>
      <trkpt lat="36.244397051632404" lon="-5.893637984991074">
        <ele>53.969999999999999</ele>
        <time>2016-03-15T00:29:14Z</time>
      </trkpt>
      <trkpt lat="36.244280291721225" lon="-5.893467916175723">
        <ele>51.57</ele>
        <time>2016-03-15T00:29:30Z</time>
      </trkpt>
      <trkpt lat="36.24299886636436" lon="-5.891809975728393">
        <ele>46.280000000000001</ele>
        <time>2016-03-15T00:29:45Z</time>
      </trkpt>
      <trkpt lat="36.24083524569869" lon="-5.889028608798981">
        <ele>35.710000000000001</ele>
        <time>2016-03-15T00:29:56Z</time>
      </trkpt>
      <trkpt lat="36.239604279398918" lon="-5.887798899784684">
        <ele>22.25</ele>
        <time>2016-03-15T00:30:03Z</time>
      </trkpt>
      <trkpt lat="36.238094950094819" lon="-5.887174531817436">
        <ele>20.32</ele>
        <time>2016-03-15T00:30:10Z</time>
      </trkpt>
      <trkpt lat="36.236220588907599" lon="-5.886341957375407">
        <ele>21.77</ele>
        <time>2016-03-15T00:30:24Z</time>
      </trkpt>
      <trkpt lat="36.232608826830983" lon="-5.884148664772511">
        <ele>25.129999999999999</ele>
        <time>2016-03-15T00:30:25Z</time>
      </trkpt>
      <trkpt lat="36.230110265314579" lon="-5.882592396810651">
        <ele>16.48</ele>
        <time>2016-03-15T00:30:33Z</time>
      </trkpt>
      <trkpt lat="36.228642258793116" lon="-5.881152553483844">
        <ele>13.119999999999999</ele>
        <time>2016-03-15T00:30:45Z</time>
      </trkpt>
      <trkpt lat="36.225291257724166" lon="-5.877613127231598">
        <ele>12.15</ele>
        <time>2016-03-15T00:30:59Z</time>
      </trkpt>
      <trkpt lat="36.222719941288233" lon="-5.874864114448428">
        <ele>22.73</ele>
        <time>2016-03-15T00:31:06Z</time>
      </trkpt>
      <trkpt lat="36.221744203940034" lon="-5.873238695785403">
        <ele>14.08</ele>
        <time>2016-03-15T00:31:13Z</time>
      </trkpt>
      <trkpt lat="36.221059402450919" lon="-5.870750527828932">
        <ele>13.6</ele>
        <time>2016-03-15T00:31:30Z</time>
      </trkpt>
      <trkpt lat="36.219953745603561" lon="-5.866563683375716">
        <ele>14.08</ele>
        <time>2016-03-15T00:31:45Z</time>
      </trkpt>
      <trkpt lat="36.218971889466047" lon="-5.862761903554201">
        <ele>18.399999999999999</ele>
        <time>2016-03-15T00:31:52Z</time>
      </trkpt>
      <trkpt lat="36.218445422127843" lon="-5.859848689287901">
        <ele>21.77</ele>
        <time>2016-03-15T00:31:59Z</time>
      </trkpt>
      <trkpt lat="36.21869008988142" lon="-5.857890341430903">
        <ele>20.809999999999999</ele>
        <time>2016-03-15T00:32:10Z</time>
      </trkpt>
      <trkpt lat="36.219388302415609" lon="-5.856144810095429">
        <ele>14.08</ele>
        <time>2016-03-15T00:32:23Z</time>
      </trkpt>
      <trkpt lat="36.220987401902676" lon="-5.852940576151013">
        <ele>16.960000000000001</ele>
        <time>2016-03-15T00:32:39Z</time>
      </trkpt>
      <trkpt lat="36.221138946712017" lon="-5.852753659710288">
        <ele>19.359999999999999</ele>
        <time>2016-03-15T00:32:56Z</time>
      </trkpt>
      <trkpt lat="36.222619274631143" lon="-5.851312475278974">
        <ele>24.649999999999999</ele>
        <time>2016-03-15T00:33:15Z</time>
      </trkpt>
      <trkpt lat="36.224874258041382" lon="-5.84914717823267">
        <ele>25.129999999999999</ele>
        <time>2016-03-15T00:33:30Z</time>
      </trkpt>
      <trkpt lat="36.227602818980813" lon="-5.846504280343652">
        <ele>13.6</ele>
        <time>2016-03-15T00:33:42Z</time>
      </trkpt>
      <trkpt lat="36.228704703971744" lon="-5.84505588747561">
        <ele>13.119999999999999</ele>
        <time>2016-03-15T00:33:57Z</time>
      </trkpt>
      <trkpt lat="36.229367461055517" lon="-5.843244893476367">
        <ele>15.52</ele>
        <time>2016-03-15T00:34:01Z</time>
      </trkpt>
      <trkpt lat="36.230726670473814" lon="-5.838270569220185">
        <ele>18.399999999999999</ele>
        <time>2016-03-15T00:34:02Z</time>
      </trkpt>
      <trkpt lat="36.23186007142067" lon="-5.83402899093926">
        <ele>16.48</ele>
        <time>2016-03-15T00:34:03Z</time>
      </trkpt>
      <trkpt lat="36.231966940686107" lon="-5.832144487649202">
        <ele>13.119999999999999</ele>
        <time>2016-03-15T00:34:14Z</time>
      </trkpt>
      <trkpt lat="36.231586989015341" lon="-5.830316646024585">
        <ele>14.08</ele>
        <time>2016-03-15T00:34:24Z</time>
      </trkpt>
      <trkpt lat="36.230453252792358" lon="-5.82743788138032">
        <ele>14.08</ele>
        <time>2016-03-15T00:34:25Z</time>
      </trkpt>
      <trkpt lat="36.229142490774393" lon="-5.824164999648929">
        <ele>16.48</ele>
        <time>2016-03-15T00:34:26Z</time>
      </trkpt>
      <trkpt lat="36.227491423487663" lon="-5.820085695013404">
        <ele>20.809999999999999</ele>
        <time>2016-03-15T00:34:37Z</time>
      </trkpt>
      <trkpt lat="36.22564229182899" lon="-5.815571201965213">
        <ele>21.77</ele>
        <time>2016-03-15T00:34:51Z</time>
      </trkpt>
      <trkpt lat="36.223526280373335" lon="-5.81037349998951">
        <ele>28.5</ele>
        <time>2016-03-15T00:35:10Z</time>
      </trkpt>
      <trkpt lat="36.221981663256884" lon="-5.806596614420414">
        <ele>28.98</ele>
        <time>2016-03-15T00:35:27Z</time>
      </trkpt>
      <trkpt lat="36.220677020028234" lon="-5.803967462852597">
        <ele>28.98</ele>
        <time>2016-03-15T00:35:43Z</time>
      </trkpt>
      <trkpt lat="36.218491103500128" lon="-5.801148293539882">
        <ele>28.5</ele>
        <time>2016-03-15T00:36:01Z</time>
      </trkpt>
      <trkpt lat="36.217986345291138" lon="-5.800314964726567">
        <ele>25.609999999999999</ele>
        <time>2016-03-15T00:36:18Z</time>
      </trkpt>
      <trkpt lat="36.217898335307837" lon="-5.800080271437764">
        <ele>27.050000000000001</ele>
        <time>2016-03-15T00:36:39Z</time>
      </trkpt>
      <trkpt lat="36.21782717294991" lon="-5.799836609512568">
        <ele>27.530000000000001</ele>
        <time>2016-03-15T00:36:55Z</time>
      </trkpt>
      <trkpt lat="36.216967692598701" lon="-5.797068988904357">
        <ele>27.530000000000001</ele>
        <time>2016-03-15T00:37:15Z</time>
      </trkpt>
      <trkpt lat="36.215921966359019" lon="-5.794826745986939">
        <ele>27.530000000000001</ele>
        <time>2016-03-15T00:37:24Z</time>
      </trkpt>
      <trkpt lat="36.215786850079894" lon="-5.794652737677097">
        <ele>24.649999999999999</ele>
        <time>2016-03-15T00:37:33Z</time>
      </trkpt>
      <trkpt lat="36.215636981651187" lon="-5.794493230059743">
        <ele>20.809999999999999</ele>
        <time>2016-03-15T00:37:50Z</time>
      </trkpt>
      <trkpt lat="36.21370755136013" lon="-5.79276580363512">
        <ele>18.879999999999999</ele>
        <time>2016-03-15T00:38:02Z</time>
      </trkpt>
      <trkpt lat="36.211344189941883" lon="-5.790459355339408">
        <ele>16.48</ele>
        <time>2016-03-15T00:38:11Z</time>
      </trkpt>
      <trkpt lat="36.208416055887938" lon="-5.786859160289168">
        <ele>16.48</ele>
        <time>2016-03-15T00:38:22Z</time>
      </trkpt>
      <trkpt lat="36.205624295398593" lon="-5.78337631188333">
        <ele>11.19</ele>
        <time>2016-03-15T00:38:31Z</time>
      </trkpt>
      <trkpt lat="36.202938901260495" lon="-5.780033189803362">
        <ele>12.15</ele>
        <time>2016-03-15T00:38:41Z</time>
      </trkpt>
      <trkpt lat="36.200031386688352" lon="-5.776399048045278">
        <ele>13.6</ele>
        <time>2016-03-15T00:38:59Z</time>
      </trkpt>
      <trkpt lat="36.197151951491833" lon="-5.772822489961982">
        <ele>12.630000000000001</ele>
        <time>2016-03-15T00:39:18Z</time>
      </trkpt>
      <trkpt lat="36.19358872063458" lon="-5.768355522304773">
        <ele>12.630000000000001</ele>
        <time>2016-03-15T00:39:38Z</time>
      </trkpt>
      <trkpt lat="36.191021427512169" lon="-5.76516168192029">
        <ele>13.119999999999999</ele>
        <time>2016-03-15T00:39:52Z</time>
      </trkpt>
      <trkpt lat="36.188201503828168" lon="-5.761647233739495">
        <ele>18.879999999999999</ele>
        <time>2016-03-15T00:40:06Z</time>
      </trkpt>
      <trkpt lat="36.187147730961442" lon="-5.760371424257755">
        <ele>19.359999999999999</ele>
        <time>2016-03-15T00:40:24Z</time>
      </trkpt>
      <trkpt lat="36.186422361060977" lon="-5.758936442434788">
        <ele>16.960000000000001</ele>
        <time>2016-03-15T00:40:38Z</time>
      </trkpt>
      <trkpt lat="36.185297509655356" lon="-5.756096066907048">
        <ele>19.359999999999999</ele>
        <time>2016-03-15T00:40:49Z</time>
      </trkpt>
      <trkpt lat="36.184355467557907" lon="-5.75419781729579">
        <ele>17.920000000000002</ele>
        <time>2016-03-15T00:40:58Z</time>
      </trkpt>
      <trkpt lat="36.18320295587182" lon="-5.752995433285832">
        <ele>15.52</ele>
        <time>2016-03-15T00:41:15Z</time>
      </trkpt>
      <trkpt lat="36.181901581585407" lon="-5.751868570223451">
        <ele>17.440000000000001</ele>
        <time>2016-03-15T00:41:30Z</time>
      </trkpt>
      <trkpt lat="36.180622084066272" lon="-5.750737600028515">
        <ele>19.359999999999999</ele>
        <time>2016-03-15T00:41:44Z</time>
      </trkpt>
      <trkpt lat="36.178840510547161" lon="-5.749219385907054">
        <ele>26.09</ele>
        <time>2016-03-15T00:41:51Z</time>
      </trkpt>
      <trkpt lat="36.175954956561327" lon="-5.746714454144239">
        <ele>27.530000000000001</ele>
        <time>2016-03-15T00:42:05Z</time>
      </trkpt>
      <trkpt lat="36.172750890254974" lon="-5.743945576250553">
        <ele>32.82</ele>
        <time>2016-03-15T00:42:21Z</time>
      </trkpt>
      <trkpt lat="36.169403661042452" lon="-5.741057172417641">
        <ele>33.780000000000001</ele>
        <time>2016-03-15T00:42:39Z</time>
      </trkpt>
      <trkpt lat="36.166861932724714" lon="-5.73886027559638">
        <ele>45.799999999999997</ele>
        <time>2016-03-15T00:42:46Z</time>
      </trkpt>
      <trkpt lat="36.164221046492457" lon="-5.736835626885295">
        <ele>41.950000000000003</ele>
        <time>2016-03-15T00:42:51Z</time>
      </trkpt>
      <trkpt lat="36.160526052117348" lon="-5.734475953504443">
        <ele>37.149999999999999</ele>
        <time>2016-03-15T00:42:52Z</time>
      </trkpt>
      <trkpt lat="36.157847447320819" lon="-5.732670743018389">
        <ele>37.630000000000003</ele>
        <time>2016-03-15T00:42:53Z</time>
      </trkpt>
      <trkpt lat="36.156062856316566" lon="-5.73068548925221">
        <ele>38.109999999999999</ele>
        <time>2016-03-15T00:42:54Z</time>
      </trkpt>
      <trkpt lat="36.154837002977729" lon="-5.728531172499061">
        <ele>38.109999999999999</ele>
        <time>2016-03-15T00:42:55Z</time>
      </trkpt>
      <trkpt lat="36.152617055922747" lon="-5.724605759605765">
        <ele>39.549999999999997</ele>
        <time>2016-03-15T00:42:56Z</time>
      </trkpt>
      <trkpt lat="36.150655271485448" lon="-5.721132634207606">
        <ele>36.670000000000002</ele>
        <time>2016-03-15T00:43:08Z</time>
      </trkpt>
      <trkpt lat="36.148827262222767" lon="-5.718241045251489">
        <ele>40.990000000000002</ele>
        <time>2016-03-15T00:43:19Z</time>
      </trkpt>
      <trkpt lat="36.147586070001125" lon="-5.717303529381752">
        <ele>58.299999999999997</ele>
        <time>2016-03-15T00:43:25Z</time>
      </trkpt>
      <trkpt lat="36.144714765250683" lon="-5.715730078518391">
        <ele>66.469999999999999</ele>
        <time>2016-03-15T00:43:26Z</time>
      </trkpt>
      <trkpt lat="36.141252284869552" lon="-5.713818836957216">
        <ele>72.239999999999995</ele>
        <time>2016-03-15T00:43:35Z</time>
      </trkpt>
      <trkpt lat="36.137121682986617" lon="-5.711530493572354">
        <ele>73.200000000000003</ele>
        <time>2016-03-15T00:43:41Z</time>
      </trkpt>
      <trkpt lat="36.135768676176667" lon="-5.71041670627892">
        <ele>74.159999999999997</ele>
        <time>2016-03-15T00:43:49Z</time>
      </trkpt>
      <trkpt lat="36.134871896356344" lon="-5.70950735360384">
        <ele>75.120000000000005</ele>
        <time>2016-03-15T00:43:56Z</time>
      </trkpt>
      <trkpt lat="36.134672071784735" lon="-5.709380870684981">
        <ele>76.079999999999998</ele>
        <time>2016-03-15T00:44:03Z</time>
      </trkpt>
      <trkpt lat="36.134471660479903" lon="-5.70927576161921">
        <ele>77.519999999999996</ele>
        <time>2016-03-15T00:44:13Z</time>
      </trkpt>
      <trkpt lat="36.13426823168993" lon="-5.709192780777812">
        <ele>82.810000000000002</ele>
        <time>2016-03-15T00:44:24Z</time>
      </trkpt>
      <trkpt lat="36.13405960611999" lon="-5.70912865921855">
        <ele>75.599999999999994</ele>
        <time>2016-03-15T00:44:32Z</time>
      </trkpt>
      <trkpt lat="36.133845532312989" lon="-5.709078619256616">
        <ele>71.760000000000005</ele>
        <time>2016-03-15T00:44:45Z</time>
      </trkpt>
      <trkpt lat="36.131174052134156" lon="-5.708741918206215">
        <ele>71.269999999999996</ele>
        <time>2016-03-15T00:44:46Z</time>
      </trkpt>
      <trkpt lat="36.128454627469182" lon="-5.70883009582758">
        <ele>64.069999999999993</ele>
        <time>2016-03-15T00:44:56Z</time>
      </trkpt>
      <trkpt lat="36.127081084996462" lon="-5.708546368405223">
        <ele>64.549999999999997</ele>
        <time>2016-03-15T00:45:08Z</time>
      </trkpt>
      <trkpt lat="36.126848738640547" lon="-5.708532622084022">
        <ele>59.740000000000002</ele>
        <time>2016-03-15T00:45:15Z</time>
      </trkpt>
      <trkpt lat="36.124575901776552" lon="-5.708600683137775">
        <ele>55.409999999999997</ele>
        <time>2016-03-15T00:45:16Z</time>
      </trkpt>
      <trkpt lat="36.123099680989981" lon="-5.708216791972518">
        <ele>51.090000000000003</ele>
        <time>2016-03-15T00:45:17Z</time>
      </trkpt>
      <trkpt lat="36.121292291209102" lon="-5.707157738506794">
        <ele>41.469999999999999</ele>
        <time>2016-03-15T00:45:18Z</time>
      </trkpt>
      <trkpt lat="36.119744405150414" lon="-5.70688096806407">
        <ele>37.630000000000003</ele>
        <time>2016-03-15T00:45:19Z</time>
      </trkpt>
      <trkpt lat="36.118201715871692" lon="-5.707249017432332">
        <ele>35.229999999999997</ele>
        <time>2016-03-15T00:45:31Z</time>
      </trkpt>
      <trkpt lat="36.116078747436404" lon="-5.708479648455977">
        <ele>29.460000000000001</ele>
        <time>2016-03-15T00:45:42Z</time>
      </trkpt>
      <trkpt lat="36.113805072382092" lon="-5.709654539823532">
        <ele>28.98</ele>
        <time>2016-03-15T00:45:52Z</time>
      </trkpt>
      <trkpt lat="36.112056104466319" lon="-5.709751015529037">
        <ele>24.170000000000002</ele>
        <time>2016-03-15T00:45:53Z</time>
      </trkpt>
      <trkpt lat="36.109090251848102" lon="-5.709549430757761">
        <ele>22.73</ele>
        <time>2016-03-15T00:46:03Z</time>
      </trkpt>
      <trkpt lat="36.108883302658796" lon="-5.709484471008182">
        <ele>22.73</ele>
        <time>2016-03-15T00:46:04Z</time>
      </trkpt>
      <trkpt lat="36.106806769967079" lon="-5.708457855507731">
        <ele>22.73</ele>
        <time>2016-03-15T00:46:15Z</time>
      </trkpt>
      <trkpt lat="36.10398642718792" lon="-5.70701633580029">
        <ele>22.73</ele>
        <time>2016-03-15T00:46:23Z</time>
      </trkpt>
      <trkpt lat="36.102476678788662" lon="-5.706161800771952">
        <ele>23.210000000000001</ele>
        <time>2016-03-15T00:46:31Z</time>
      </trkpt>
      <trkpt lat="36.102314405143261" lon="-5.706004891544581">
        <ele>23.210000000000001</ele>
        <time>2016-03-15T00:46:38Z</time>
      </trkpt>
      <trkpt lat="36.102167973294854" lon="-5.70583138614893">
        <ele>20.809999999999999</ele>
        <time>2016-03-15T00:46:45Z</time>
      </trkpt>
      <trkpt lat="36.102033359929919" lon="-5.705645307898521">
        <ele>19.84</ele>
        <time>2016-03-15T00:46:52Z</time>
      </trkpt>
      <trkpt lat="36.101903859525919" lon="-5.705450428649783">
        <ele>18.399999999999999</ele>
        <time>2016-03-15T00:47:02Z</time>
      </trkpt>
      <trkpt lat="36.100252624601126" lon="-5.702948765829206">
        <ele>18.399999999999999</ele>
        <time>2016-03-15T00:47:14Z</time>
      </trkpt>
      <trkpt lat="36.09835060313344" lon="-5.70094607770443">
        <ele>16</ele>
        <time>2016-03-15T00:47:27Z</time>
      </trkpt>
      <trkpt lat="36.096794754266739" lon="-5.699306996539235">
        <ele>16</ele>
        <time>2016-03-15T00:47:32Z</time>
      </trkpt>
      <trkpt lat="36.096616135910153" lon="-5.699214125052095">
        <ele>16.48</ele>
        <time>2016-03-15T00:47:33Z</time>
      </trkpt>
      <trkpt lat="36.094754179939628" lon="-5.698435446247459">
        <ele>18.879999999999999</ele>
        <time>2016-03-15T00:47:34Z</time>
      </trkpt>
      <trkpt lat="36.094589475542307" lon="-5.698309550061822">
        <ele>14.56</ele>
        <time>2016-03-15T00:47:46Z</time>
      </trkpt>
      <trkpt lat="36.092796083539724" lon="-5.696608275175095">
        <ele>11.19</ele>
        <time>2016-03-15T00:48:04Z</time>
      </trkpt>
      <trkpt lat="36.091281389817595" lon="-5.695779221132398">
        <ele>10.710000000000001</ele>
        <time>2016-03-15T00:48:11Z</time>
      </trkpt>
      <trkpt lat="36.089810030534863" lon="-5.694627379998565">
        <ele>9.75</ele>
        <time>2016-03-15T00:48:28Z</time>
      </trkpt>
      <trkpt lat="36.088804956525564" lon="-5.693191392347217">
        <ele>11.67</ele>
        <time>2016-03-15T00:48:40Z</time>
      </trkpt>
      <trkpt lat="36.08765747398138" lon="-5.692272232845426">
        <ele>9.27</ele>
        <time>2016-03-15T00:48:57Z</time>
      </trkpt>
      <trkpt lat="36.086219307035208" lon="-5.691972831264138">
        <ele>3.98</ele>
        <time>2016-03-15T00:49:15Z</time>
      </trkpt>
      <trkpt lat="36.083963066339493" lon="-5.691981464624405">
        <ele>4.46</ele>
        <time>2016-03-15T00:49:30Z</time>
      </trkpt>
      <trkpt lat="36.081271637231112" lon="-5.691411662846804">
        <ele>4.94</ele>
        <time>2016-03-15T00:49:45Z</time>
      </trkpt>
      <trkpt lat="36.078263875097036" lon="-5.690386304631829">
        <ele>5.42</ele>
        <time>2016-03-15T00:49:50Z</time>
      </trkpt>
      <trkpt lat="36.077098036184907" lon="-5.689949942752719">
        <ele>8.789999999999999</ele>
        <time>2016-03-15T00:50:00Z</time>
      </trkpt>
      <trkpt lat="36.07689343392849" lon="-5.689822118729353">
        <ele>8.789999999999999</ele>
        <time>2016-03-15T00:50:30Z</time>
      </trkpt>
      <trkpt lat="36.076699392870069" lon="-5.689676273614168">
        <ele>10.23</ele>
        <time>2016-03-15T00:51:15Z</time>
      </trkpt>
      <trkpt lat="36.074521355330944" lon="-5.687680123373866">
        <ele>13.119999999999999</ele>
        <time>2016-03-15T00:51:59Z</time>
      </trkpt>
      <trkpt lat="36.071278480812907" lon="-5.684728352352977">
        <ele>15.52</ele>
        <time>2016-03-15T00:52:00Z</time>
      </trkpt>
      <trkpt lat="36.070287236943841" lon="-5.683397725224495">
        <ele>16.960000000000001</ele>
        <time>2016-03-15T00:52:01Z</time>
      </trkpt>
      <trkpt lat="36.068190755322576" lon="-5.679866345599294">
        <ele>18.399999999999999</ele>
        <time>2016-03-15T00:52:10Z</time>
      </trkpt>
      <trkpt lat="36.066663907840848" lon="-5.677828956395388">
        <ele>19.84</ele>
        <time>2016-03-15T00:52:18Z</time>
      </trkpt>
      <trkpt lat="36.064457288011909" lon="-5.674843406304717">
        <ele>18.399999999999999</ele>
        <time>2016-03-15T00:52:26Z</time>
      </trkpt>
      <trkpt lat="36.062082359567285" lon="-5.671655349433422">
        <ele>17.440000000000001</ele>
        <time>2016-03-15T00:52:34Z</time>
      </trkpt>
      <trkpt lat="36.060432298108935" lon="-5.669070035219193">
        <ele>16.960000000000001</ele>
        <time>2016-03-15T00:52:44Z</time>
      </trkpt>
      <trkpt lat="36.058897655457258" lon="-5.666403919458389">
        <ele>15.039999999999999</ele>
        <time>2016-03-15T00:53:00Z</time>
      </trkpt>
      <trkpt lat="36.058696657419205" lon="-5.666097225621343">
        <ele>15.039999999999999</ele>
        <time>2016-03-15T00:53:13Z</time>
      </trkpt>
      <trkpt lat="36.058667991310358" lon="-5.666055735200644">
        <ele>14.08</ele>
        <time>2016-03-15T00:53:19Z</time>
      </trkpt>
      <trkpt lat="36.05867050588131" lon="-5.666064703837037">
        <ele>14.56</ele>
        <time>2016-03-15T00:53:33Z</time>
      </trkpt>
      <trkpt lat="36.058668913319707" lon="-5.666053555905819">
        <ele>14.56</ele>
        <time>2016-03-15T00:53:50Z</time>
      </trkpt>
      <trkpt lat="36.058665560558438" lon="-5.666037127375603">
        <ele>15.039999999999999</ele>
        <time>2016-03-15T00:54:09Z</time>
      </trkpt>
      <trkpt lat="36.058663800358772" lon="-5.666021872311831">
        <ele>14.56</ele>
        <time>2016-03-15T00:54:33Z</time>
      </trkpt>
      <trkpt lat="36.058658435940742" lon="-5.666002510115504">
        <ele>14.08</ele>
        <time>2016-03-15T00:54:41Z</time>
      </trkpt>
      <trkpt lat="36.058417959138751" lon="-5.665534464642406">
        <ele>13.6</ele>
        <time>2016-03-15T00:54:54Z</time>
      </trkpt>
      <trkpt lat="36.05792636051774" lon="-5.664666518568993">
        <ele>14.08</ele>
        <time>2016-03-15T00:55:03Z</time>
      </trkpt>
      <trkpt lat="36.057281289249659" lon="-5.663424069061875">
        <ele>16</ele>
        <time>2016-03-15T00:55:23Z</time>
      </trkpt>
      <trkpt lat="36.056807544082403" lon="-5.661687757819891">
        <ele>14.08</ele>
        <time>2016-03-15T00:55:30Z</time>
      </trkpt>
      <trkpt lat="36.056454917415977" lon="-5.659253736957908">
        <ele>13.119999999999999</ele>
        <time>2016-03-15T00:55:31Z</time>
      </trkpt>
      <trkpt lat="36.056365314871073" lon="-5.655547007918358">
        <ele>13.119999999999999</ele>
        <time>2016-03-15T00:55:42Z</time>
      </trkpt>
      <trkpt lat="36.056212931871414" lon="-5.652280831709504">
        <ele>10.23</ele>
        <time>2016-03-15T00:56:02Z</time>
      </trkpt>
      <trkpt lat="36.055685207247734" lon="-5.6508978176862">
        <ele>3.5</ele>
        <time>2016-03-15T00:56:19Z</time>
      </trkpt>
      <trkpt lat="36.053890306502581" lon="-5.648069931194186">
        <ele>4.46</ele>
        <time>2016-03-15T00:56:30Z</time>
      </trkpt>
      <trkpt lat="36.051591234281659" lon="-5.644452217966318">
        <ele>6.39</ele>
        <time>2016-03-15T00:56:35Z</time>
      </trkpt>
      <trkpt lat="36.048882706090808" lon="-5.64020317979157">
        <ele>4.46</ele>
        <time>2016-03-15T00:56:36Z</time>
      </trkpt>
      <trkpt lat="36.045374209061265" lon="-5.634689563885331">
        <ele>3.02</ele>
        <time>2016-03-15T00:56:37Z</time>
      </trkpt>
      <trkpt lat="36.044513555243611" lon="-5.6327950861305">
        <ele>4.46</ele>
        <time>2016-03-15T00:56:44Z</time>
      </trkpt>
      <trkpt lat="36.043454417958856" lon="-5.629719011485577">
        <ele>6.39</ele>
        <time>2016-03-15T00:56:54Z</time>
      </trkpt>
      <trkpt lat="36.04264204390347" lon="-5.627723280340433">
        <ele>6.39</ele>
        <time>2016-03-15T00:57:05Z</time>
      </trkpt>
      <trkpt lat="36.040221937000751" lon="-5.623566275462508">
        <ele>4.46</ele>
        <time>2016-03-15T00:57:11Z</time>
      </trkpt>
      <trkpt lat="36.039288276806474" lon="-5.622198265045881">
        <ele>4.46</ele>
        <time>2016-03-15T00:57:12Z</time>
      </trkpt>
      <trkpt lat="36.03911904618144" lon="-5.622054683044553">
        <ele>3.98</ele>
        <time>2016-03-15T00:57:16Z</time>
      </trkpt>
      <trkpt lat="36.037204200401902" lon="-5.620500342920423">
        <ele>3.98</ele>
        <time>2016-03-15T00:57:23Z</time>
      </trkpt>
      <trkpt lat="36.033996446058154" lon="-5.616924036294222">
        <ele>4.46</ele>
        <time>2016-03-15T00:57:32Z</time>
      </trkpt>
      <trkpt lat="36.031389925628901" lon="-5.614005541428924">
        <ele>4.46</ele>
        <time>2016-03-15T00:57:41Z</time>
      </trkpt>
      <trkpt lat="36.029920242726803" lon="-5.61240023933351">
        <ele>4.46</ele>
        <time>2016-03-15T00:57:47Z</time>
      </trkpt>
      <trkpt lat="36.029427386820316" lon="-5.611900510266423">
        <ele>5.42</ele>
        <time>2016-03-15T00:57:56Z</time>
      </trkpt>
      <trkpt lat="36.029335185885429" lon="-5.611842088401318">
        <ele>6.39</ele>
        <time>2016-03-15T00:58:05Z</time>
      </trkpt>
      <trkpt lat="36.029246505349874" lon="-5.611798753961921">
        <ele>5.91</ele>
        <time>2016-03-15T00:58:12Z</time>
      </trkpt>
      <trkpt lat="36.028778040781617" lon="-5.611712587997317">
        <ele>5.91</ele>
        <time>2016-03-15T00:58:20Z</time>
      </trkpt>
      <trkpt lat="36.027881260961294" lon="-5.611852901056409">
        <ele>5.91</ele>
        <time>2016-03-15T00:58:33Z</time>
      </trkpt>
      <trkpt lat="36.02660721167922" lon="-5.611807638779283">
        <ele>5.91</ele>
        <time>2016-03-15T00:58:42Z</time>
      </trkpt>
      <trkpt lat="36.026146039366722" lon="-5.611813925206661">
        <ele>7.83</ele>
        <time>2016-03-15T00:58:55Z</time>
      </trkpt>
      <trkpt lat="36.026077978312969" lon="-5.611794898286462">
        <ele>9.75</ele>
        <time>2016-03-15T00:59:02Z</time>
      </trkpt>
      <trkpt lat="36.025727447122335" lon="-5.611676881089807">
        <ele>12.630000000000001</ele>
        <time>2016-03-15T00:59:13Z</time>
      </trkpt>
      <trkpt lat="36.025161165744066" lon="-5.611596750095487">
        <ele>14.08</ele>
        <time>2016-03-15T00:59:28Z</time>
      </trkpt>
      <trkpt lat="36.024636877700686" lon="-5.611554589122534">
        <ele>17.920000000000002</ele>
        <time>2016-03-15T00:59:43Z</time>
      </trkpt>
      <trkpt lat="36.023618141189218" lon="-5.611594822257757">
        <ele>21.289999999999999</ele>
        <time>2016-03-15T00:59:47Z</time>
      </trkpt>
      <trkpt lat="36.023246236145496" lon="-5.611625667661429">
        <ele>22.73</ele>
        <time>2016-03-15T00:59:48Z</time>
      </trkpt>
      <trkpt lat="36.022623209282756" lon="-5.611599432304502">
        <ele>22.73</ele>
        <time>2016-03-15T00:59:49Z</time>
      </trkpt>
      <trkpt lat="36.021741600707173" lon="-5.611078245565295">
        <ele>16.960000000000001</ele>
        <time>2016-03-15T00:59:50Z</time>
      </trkpt>
      <trkpt lat="36.021269867196679" lon="-5.610715392976999">
        <ele>15.039999999999999</ele>
        <time>2016-03-15T00:59:51Z</time>
      </trkpt>
      <trkpt lat="36.02066695690155" lon="-5.610262854024768">
        <ele>18.399999999999999</ele>
        <time>2016-03-15T01:00:02Z</time>
      </trkpt>
      <trkpt lat="36.019495669752359" lon="-5.609361464157701">
        <ele>20.809999999999999</ele>
        <time>2016-03-15T01:00:04Z</time>
      </trkpt>
      <trkpt lat="36.019035838544369" lon="-5.609011603519321">
        <ele>24.649999999999999</ele>
        <time>2016-03-15T01:00:05Z</time>
      </trkpt>
      <trkpt lat="36.017938982695341" lon="-5.608175424858928">
        <ele>32.82</ele>
        <time>2016-03-15T01:00:06Z</time>
      </trkpt>
      <trkpt lat="36.017518462613225" lon="-5.607784241437912">
        <ele>35.229999999999997</ele>
        <time>2016-03-15T01:00:07Z</time>
      </trkpt>
      <trkpt lat="36.016681026667356" lon="-5.606960467994213">
        <ele>34.259999999999998</ele>
        <time>2016-03-15T01:00:17Z</time>
      </trkpt>
      <trkpt lat="36.015446288511157" lon="-5.605732267722487">
        <ele>34.259999999999998</ele>
        <time>2016-03-15T01:00:25Z</time>
      </trkpt>
      <trkpt lat="36.014377931132913" lon="-5.6046437099576">
        <ele>34.259999999999998</ele>
        <time>2016-03-15T01:00:36Z</time>
      </trkpt>
      <trkpt lat="36.014263350516558" lon="-5.604557124897838">
        <ele>34.259999999999998</ele>
        <time>2016-03-15T01:00:45Z</time>
      </trkpt>
      <trkpt lat="36.014227056875825" lon="-5.604571960866451">
        <ele>33.780000000000001</ele>
        <time>2016-03-15T07:07:58Z</time>
      </trkpt>
      <trkpt lat="36.0141921043396" lon="-5.604607751592994">
        <ele>30.899999999999999</ele>
        <time>2016-03-15T07:08:09Z</time>
      </trkpt>
      <trkpt lat="36.014162683859468" lon="-5.604661395773292">
        <ele>29.940000000000001</ele>
        <time>2016-03-15T07:08:16Z</time>
      </trkpt>
      <trkpt lat="36.014130497351289" lon="-5.604720655828714">
        <ele>29.460000000000001</ele>
        <time>2016-03-15T07:21:14Z</time>
      </trkpt>
      <trkpt lat="36.013667145743966" lon="-5.605558678507805">
        <ele>28.98</ele>
        <time>2016-03-15T07:21:26Z</time>
      </trkpt>
      <trkpt lat="36.013606460765004" lon="-5.605655908584595">
        <ele>28.5</ele>
        <time>2016-03-15T07:22:07Z</time>
      </trkpt>
      <trkpt lat="36.01357008330524" lon="-5.605679797008634">
        <ele>19.359999999999999</ele>
        <time>2016-03-15T07:22:24Z</time>
      </trkpt>
      <trkpt lat="36.013525323942304" lon="-5.605685245245695">
        <ele>12.630000000000001</ele>
        <time>2016-03-15T07:22:46Z</time>
      </trkpt>
      <trkpt lat="36.013476122170687" lon="-5.60566445812583">
        <ele>8.789999999999999</ele>
        <time>2016-03-15T07:22:59Z</time>
      </trkpt>
      <trkpt lat="36.012883773073554" lon="-5.605229940265417">
        <ele>8.789999999999999</ele>
        <time>2016-03-15T07:23:15Z</time>
      </trkpt>
      <trkpt lat="36.012189583852887" lon="-5.604814784601331">
        <ele>4.94</ele>
        <time>2016-03-15T07:23:29Z</time>
      </trkpt>
      <trkpt lat="36.011423310264945" lon="-5.60436274856329">
        <ele>3.5</ele>
        <time>2016-03-15T07:23:42Z</time>
      </trkpt>
      <trkpt lat="36.011289367452264" lon="-5.604302147403359">
        <ele>3.5</ele>
        <time>2016-03-15T07:23:43Z</time>
      </trkpt>
      <trkpt lat="36.011209907010198" lon="-5.604277336969972">
        <ele>2.06</ele>
        <time>2016-03-15T07:23:44Z</time>
      </trkpt>
      <trkpt lat="36.010954258963466" lon="-5.604040632024407">
        <ele>3.98</ele>
        <time>2016-03-15T07:23:45Z</time>
      </trkpt>
      <trkpt lat="36.010855436325073" lon="-5.603728489950299">
        <ele>3.5</ele>
        <time>2016-03-15T07:23:46Z</time>
      </trkpt>
      <trkpt lat="36.010872535407543" lon="-5.603483067825437">
        <ele>3.02</ele>
        <time>2016-03-15T07:23:47Z</time>
      </trkpt>
      <trkpt lat="36.010917713865638" lon="-5.603195317089558">
        <ele>2.06</ele>
        <time>2016-03-15T07:23:58Z</time>
      </trkpt>
      <trkpt lat="36.010941686108708" lon="-5.603185426443815">
        <ele>1.58</ele>
        <time>2016-03-15T07:25:10Z</time>
      </trkpt>
      <trkpt lat="36.010958198457956" lon="-5.603153072297573">
        <ele>1.58</ele>
        <time>2016-03-15T07:25:21Z</time>
      </trkpt>
      <trkpt lat="36.010945457965136" lon="-5.603125914931297">
        <ele>2.54</ele>
        <time>2016-03-15T07:25:40Z</time>
      </trkpt>
      <trkpt lat="36.010999353602529" lon="-5.603036563843489">
        <ele>3.98</ele>
        <time>2016-03-15T07:25:43Z</time>
      </trkpt>
      <trkpt lat="36.011104211211205" lon="-5.602770438417792">
        <ele>3.98</ele>
        <time>2016-03-15T07:25:50Z</time>
      </trkpt>
      <trkpt lat="36.01113430224359" lon="-5.602658875286579">
        <ele>4.46</ele>
        <time>2016-03-15T07:26:04Z</time>
      </trkpt>
      <trkpt lat="36.011167746037245" lon="-5.602260148152709">
        <ele>4.46</ele>
        <time>2016-03-15T07:26:07Z</time>
      </trkpt>
      <trkpt lat="36.011160872876644" lon="-5.60221279039979">
        <ele>4.46</ele>
        <time>2016-03-15T07:26:18Z</time>
      </trkpt>
      <trkpt lat="36.011158442124724" lon="-5.602161744609475">
        <ele>4.94</ele>
        <time>2016-03-15T07:26:30Z</time>
      </trkpt>
      <trkpt lat="36.011161878705025" lon="-5.602109106257558">
        <ele>5.42</ele>
        <time>2016-03-15T07:26:39Z</time>
      </trkpt>
      <trkpt lat="36.011171266436577" lon="-5.602056216448546">
        <ele>5.91</ele>
        <time>2016-03-15T07:26:57Z</time>
      </trkpt>
      <trkpt lat="36.011187611147761" lon="-5.602002739906311">
        <ele>5.91</ele>
        <time>2016-03-15T07:27:13Z</time>
      </trkpt>
      <trkpt lat="36.011274866759777" lon="-5.60170610435307">
        <ele>5.91</ele>
        <time>2016-03-15T09:21:42Z</time>
      </trkpt>
      <trkpt lat="36.01126916706562" lon="-5.601632259786129">
        <ele>5.91</ele>
        <time>2016-03-15T09:22:16Z</time>
      </trkpt>
      <trkpt lat="36.011218037456274" lon="-5.601537963375449">
        <ele>6.39</ele>
        <time>2016-03-15T09:34:49Z</time>
      </trkpt>
      <trkpt lat="36.011095326393843" lon="-5.601508794352412">
        <ele>5.42</ele>
        <time>2016-03-15T09:34:50Z</time>
      </trkpt>
      <trkpt lat="36.010998012498021" lon="-5.601527402177453">
        <ele>4.94</ele>
        <time>2016-03-15T09:35:03Z</time>
      </trkpt>
      <trkpt lat="36.010886365547776" lon="-5.601873658597469">
        <ele>4.94</ele>
        <time>2016-03-15T09:35:13Z</time>
      </trkpt>
      <trkpt lat="36.0106779076159" lon="-5.60243172571063">
        <ele>5.91</ele>
        <time>2016-03-15T09:35:14Z</time>
      </trkpt>
      <trkpt lat="36.01059434004128" lon="-5.602475563064218">
        <ele>6.87</ele>
        <time>2016-03-15T09:35:15Z</time>
      </trkpt>
      <trkpt lat="36.010321844369173" lon="-5.602616965770721">
        <ele>7.35</ele>
        <time>2016-03-15T09:35:16Z</time>
      </trkpt>
      <trkpt lat="36.01028747856617" lon="-5.602757278829813">
        <ele>2.06</ele>
        <time>2016-03-15T09:35:22Z</time>
      </trkpt>
      <trkpt lat="36.010288903489709" lon="-5.602837912738323">
        <ele>-72.439999999999998</ele>
        <time>2016-03-15T09:35:31Z</time>
      </trkpt>
      <trkpt lat="36.010309522971511" lon="-5.60291888192296">
        <ele>-84.939999999999998</ele>
        <time>2016-03-15T09:35:42Z</time>
      </trkpt>
      <trkpt lat="36.009800406172872" lon="-5.60266918502748">
        <ele>1.1</ele>
        <time>2016-03-15T09:35:52Z</time>
      </trkpt>
      <trkpt lat="36.009818091988564" lon="-5.602698940783739">
        <ele>1.1</ele>
        <time>2016-03-15T10:00:10Z</time>
      </trkpt>
      <trkpt lat="35.789355179294944" lon="-5.803641574457288">
        <ele>1.58</ele>
        <time>2016-03-15T10:00:26Z</time>
      </trkpt>
      <trkpt lat="35.789228864014149" lon="-5.803841482847929">
        <ele>2.54</ele>
        <time>2016-03-15T10:00:40Z</time>
      </trkpt>
      <trkpt lat="35.789261050522327" lon="-5.803855564445257">
        <ele>3.02</ele>
        <time>2016-03-15T10:00:41Z</time>
      </trkpt>
      <trkpt lat="35.789639661088586" lon="-5.804068967700005">
        <ele>3.02</ele>
        <time>2016-03-15T10:00:42Z</time>
      </trkpt>
      <trkpt lat="35.790109299123287" lon="-5.804353700950742">
        <ele>3.02</ele>
        <time>2016-03-15T10:00:43Z</time>
      </trkpt>
      <trkpt lat="35.790110975503922" lon="-5.804401058703661">
        <ele>2.06</ele>
        <time>2016-03-15T10:00:44Z</time>
      </trkpt>
      <trkpt lat="35.790090775117278" lon="-5.80444841645658">
        <ele>2.54</ele>
        <time>2016-03-15T10:00:45Z</time>
      </trkpt>
      <trkpt lat="35.790051883086562" lon="-5.804487308487296">
        <ele>2.06</ele>
        <time>2017-03-15T13:37:40Z</time>
      </trkpt>
      <trkpt lat="35.789695903658867" lon="-5.804498288780451">
        <ele>2.06</ele>
        <time>2017-03-15T13:37:48Z</time>
      </trkpt>
      <trkpt lat="35.789413098245859" lon="-5.804353198036552">
        <ele>2.06</ele>
        <time>2017-03-15T13:37:56Z</time>
      </trkpt>
      <trkpt lat="35.789266331121325" lon="-5.804352276027203">
        <ele>0.62</ele>
        <time>2017-03-15T13:38:06Z</time>
      </trkpt>
      <trkpt lat="35.789158204570413" lon="-5.804418157786131">
        <ele>0.62</ele>
        <time>2017-03-15T13:38:10Z</time>
      </trkpt>
      <trkpt lat="35.789074720814824" lon="-5.805045962333679">
        <ele>1.1</ele>
        <time>2017-03-15T13:38:11Z</time>
      </trkpt>
      <trkpt lat="35.788888977840543" lon="-5.806043492630124">
        <ele>1.1</ele>
        <time>2017-03-15T13:38:12Z</time>
      </trkpt>
      <trkpt lat="35.788696361705661" lon="-5.807072790339589">
        <ele>0.62</ele>
        <time>2017-03-15T13:38:13Z</time>
      </trkpt>
      <trkpt lat="35.788688817992806" lon="-5.80712903290987">
        <ele>0.62</ele>
        <time>2017-03-15T13:38:14Z</time>
      </trkpt>
      <trkpt lat="35.788687560707331" lon="-5.807180497795343">
        <ele>0.62</ele>
        <time>2017-03-15T13:38:15Z</time>
      </trkpt>
      <trkpt lat="35.788691667839885" lon="-5.80723506398499">
        <ele>0.14</ele>
        <time>2017-03-15T13:38:16Z</time>
      </trkpt>
      <trkpt lat="35.788701893761754" lon="-5.807292480021715">
        <ele>0.14</ele>
        <time>2017-03-15T13:38:17Z</time>
      </trkpt>
      <trkpt lat="35.788715472444892" lon="-5.807353751733899">
        <ele>0.62</ele>
        <time>2017-03-15T13:38:28Z</time>
      </trkpt>
      <trkpt lat="35.788670126348734" lon="-5.807529771700501">
        <ele>1.58</ele>
        <time>2017-03-15T13:38:38Z</time>
      </trkpt>
      <trkpt lat="35.788564262911677" lon="-5.807690117508173">
        <ele>2.06</ele>
        <time>2017-03-15T13:38:50Z</time>
      </trkpt>
      <trkpt lat="35.788028743118048" lon="-5.808007791638374">
        <ele>2.06</ele>
        <time>2017-03-15T13:38:57Z</time>
      </trkpt>
      <trkpt lat="35.787077564746141" lon="-5.808373913168907">
        <ele>1.58</ele>
        <time>2017-03-15T13:38:59Z</time>
      </trkpt>
      <trkpt lat="35.786712197586894" lon="-5.808391598984599">
        <ele>1.58</ele>
        <time>2017-03-15T13:39:00Z</time>
      </trkpt>
      <trkpt lat="35.786635419353843" lon="-5.808373410254717">
        <ele>1.1</ele>
        <time>2017-03-15T13:39:01Z</time>
      </trkpt>
      <trkpt lat="35.786565346643329" lon="-5.808331919834018">
        <ele>1.1</ele>
        <time>2017-03-15T13:39:16Z</time>
      </trkpt>
      <trkpt lat="35.786496698856354" lon="-5.808267211541534">
        <ele>1.1</ele>
        <time>2017-03-15T13:39:27Z</time>
      </trkpt>
      <trkpt lat="35.786427799612284" lon="-5.808195881545544">
        <ele>1.58</ele>
        <time>2017-03-15T13:39:40Z</time>
      </trkpt>
      <trkpt lat="35.786355044692755" lon="-5.80813704058528">
        <ele>2.06</ele>
        <time>2017-03-15T13:39:51Z</time>
      </trkpt>
      <trkpt lat="35.786275584250689" lon="-5.808098316192627">
        <ele>2.54</ele>
        <time>2017-03-15T13:39:59Z</time>
      </trkpt>
      <trkpt lat="35.786187490448356" lon="-5.808073086664081">
        <ele>2.54</ele>
        <time>2017-03-15T13:40:02Z</time>
      </trkpt>
      <trkpt lat="35.785107230767608" lon="-5.807942831888795">
        <ele>3.5</ele>
        <time>2017-03-15T13:40:03Z</time>
      </trkpt>
      <trkpt lat="35.784248756244779" lon="-5.807843506336212">
        <ele>3.5</ele>
        <time>2017-03-15T13:40:04Z</time>
      </trkpt>
      <trkpt lat="35.783147290349007" lon="-5.807715095579624">
        <ele>3.98</ele>
        <time>2017-03-15T13:40:05Z</time>
      </trkpt>
      <trkpt lat="35.782837243750691" lon="-5.807711575180292">
        <ele>3.98</ele>
        <time>2017-03-15T13:40:06Z</time>
      </trkpt>
      <trkpt lat="35.782753676176071" lon="-5.807709060609341">
        <ele>4.46</ele>
        <time>2017-03-15T13:40:07Z</time>
      </trkpt>
      <trkpt lat="35.78271109610796" lon="-5.80769095569849">
        <ele>4.94</ele>
        <time>2017-03-15T13:40:16Z</time>
      </trkpt>
      <trkpt lat="35.78266616910696" lon="-5.807664385065436">
        <ele>7.35</ele>
        <time>2017-03-15T13:40:17Z</time>
      </trkpt>
      <trkpt lat="35.781891513615847" lon="-5.807143449783325">
        <ele>8.789999999999999</ele>
        <time>2017-03-15T13:40:27Z</time>
      </trkpt>
      <trkpt lat="35.781147703528404" lon="-5.806310791522265">
        <ele>9.75</ele>
        <time>2017-03-15T13:40:33Z</time>
      </trkpt>
      <trkpt lat="35.780334072187543" lon="-5.804685540497303">
        <ele>10.23</ele>
        <time>2017-03-15T13:40:41Z</time>
      </trkpt>
      <trkpt lat="35.779735436663032" lon="-5.803457926958799">
        <ele>10.23</ele>
        <time>2017-03-15T13:40:42Z</time>
      </trkpt>
      <trkpt lat="35.779446847736835" lon="-5.802933303639293">
        <ele>10.23</ele>
        <time>2017-03-15T13:40:43Z</time>
      </trkpt>
      <trkpt lat="35.779312402009964" lon="-5.802787709981203">
        <ele>10.710000000000001</ele>
        <time>2017-03-15T13:40:44Z</time>
      </trkpt>
      <trkpt lat="35.779251046478748" lon="-5.802755104377866">
        <ele>10.710000000000001</ele>
        <time>2017-03-15T13:40:54Z</time>
      </trkpt>
      <trkpt lat="35.779189104214311" lon="-5.802734820172191">
        <ele>11.19</ele>
        <time>2017-03-15T13:40:58Z</time>
      </trkpt>
      <trkpt lat="35.779125737026334" lon="-5.802724929526448">
        <ele>14.08</ele>
        <time>2017-03-15T13:40:59Z</time>
      </trkpt>
      <trkpt lat="35.779058011248708" lon="-5.802724091336131">
        <ele>14.08</ele>
        <time>2017-03-15T13:41:06Z</time>
      </trkpt>
      <trkpt lat="35.778984082862735" lon="-5.802725935354829">
        <ele>18.879999999999999</ele>
        <time>2017-03-15T13:41:14Z</time>
      </trkpt>
      <trkpt lat="35.778312357142568" lon="-5.802634321153164">
        <ele>22.73</ele>
        <time>2017-03-15T13:41:25Z</time>
      </trkpt>
      <trkpt lat="35.778241530060768" lon="-5.80261361785233">
        <ele>24.170000000000002</ele>
        <time>2017-03-15T13:41:34Z</time>
      </trkpt>
      <trkpt lat="35.777415912598372" lon="-5.802557542920113">
        <ele>24.649999999999999</ele>
        <time>2017-03-15T13:41:44Z</time>
      </trkpt>
      <trkpt lat="35.777265457436442" lon="-5.802550334483385">
        <ele>25.129999999999999</ele>
        <time>2017-03-15T13:41:53Z</time>
      </trkpt>
      <trkpt lat="35.776709988713264" lon="-5.802483027800918">
        <ele>25.609999999999999</ele>
        <time>2017-03-15T13:42:01Z</time>
      </trkpt>
      <trkpt lat="35.776646537706256" lon="-5.80248118378222">
        <ele>27.050000000000001</ele>
        <time>2017-03-15T13:42:06Z</time>
      </trkpt>
      <trkpt lat="35.776600940153003" lon="-5.802484955638647">
        <ele>28.5</ele>
        <time>2017-03-15T13:42:15Z</time>
      </trkpt>
      <trkpt lat="35.776569759473205" lon="-5.802492164075375">
        <ele>28.5</ele>
        <time>2017-03-15T13:42:23Z</time>
      </trkpt>
      <trkpt lat="35.776497926563025" lon="-5.802589142695069">
        <ele>28.02</ele>
        <time>2017-03-15T13:42:30Z</time>
      </trkpt>
      <trkpt lat="35.776477726176381" lon="-5.802604984492064">
        <ele>26.57</ele>
        <time>2017-03-15T13:42:52Z</time>
      </trkpt>
      <trkpt lat="35.776450736448169" lon="-5.802603391930461">
        <ele>20.32</ele>
        <time>2017-03-15T13:42:58Z</time>
      </trkpt>
      <trkpt lat="35.776042202487588" lon="-5.802521500736475">
        <ele>18.399999999999999</ele>
        <time>2017-03-15T13:43:10Z</time>
      </trkpt>
      <trkpt lat="35.775293698534369" lon="-5.802463917061687">
        <ele>14.56</ele>
        <time>2017-03-15T13:43:22Z</time>
      </trkpt>
      <trkpt lat="35.774026103317738" lon="-5.802361909300089">
        <ele>12.15</ele>
        <time>2017-03-15T13:43:34Z</time>
      </trkpt>
      <trkpt lat="35.773137956857681" lon="-5.802289741113782">
        <ele>7.83</ele>
        <time>2017-03-15T13:43:45Z</time>
      </trkpt>
      <trkpt lat="35.772130284458399" lon="-5.802202485501766">
        <ele>6.39</ele>
        <time>2017-03-15T13:43:57Z</time>
      </trkpt>
      <trkpt lat="35.77114524319768" lon="-5.802734065800905">
        <ele>9.75</ele>
        <time>2017-03-15T13:44:06Z</time>
      </trkpt>
      <trkpt lat="35.769969094544649" lon="-5.803420376032591">
        <ele>14.08</ele>
        <time>2017-03-15T13:44:15Z</time>
      </trkpt>
      <trkpt lat="35.769412033259869" lon="-5.804161923006177">
        <ele>16.48</ele>
        <time>2017-03-15T13:44:24Z</time>
      </trkpt>
      <trkpt lat="35.768609801307321" lon="-5.805522557348013">
        <ele>19.359999999999999</ele>
        <time>2017-03-15T13:44:30Z</time>
      </trkpt>
      <trkpt lat="35.768145443871617" lon="-5.806269804015756">
        <ele>20.32</ele>
        <time>2017-03-15T13:47:02Z</time>
      </trkpt>
      <trkpt lat="35.768094062805176" lon="-5.806326046586037">
        <ele>19.359999999999999</ele>
        <time>2018-03-24T10:20:13Z</time>
      </trkpt>
      <trkpt lat="35.768078891560435" lon="-5.806330908089876">
        <ele>19.359999999999999</ele>
        <time>2018-03-24T10:20:21Z</time>
      </trkpt>
      <trkpt lat="35.768005969002843" lon="-5.806462336331606">
        <ele>20.32</ele>
        <time>2018-03-24T10:20:32Z</time>
      </trkpt>
      <trkpt lat="35.767543120309711" lon="-5.807249983772636">
        <ele>15.52</ele>
        <time>2018-03-24T10:20:45Z</time>
      </trkpt>
      <trkpt lat="35.766972480341792" lon="-5.808178195729852">
        <ele>12.630000000000001</ele>
        <time>2018-03-24T10:20:55Z</time>
      </trkpt>
      <trkpt lat="35.766305113211274" lon="-5.809271950274706">
        <ele>7.83</ele>
        <time>2018-03-24T10:21:05Z</time>
      </trkpt>
      <trkpt lat="35.765608744695783" lon="-5.81052646972239">
        <ele>7.83</ele>
        <time>2018-03-24T10:21:08Z</time>
      </trkpt>
      <trkpt lat="35.764831239357591" lon="-5.811949213966727">
        <ele>12.15</ele>
        <time>2018-03-24T10:21:09Z</time>
      </trkpt>
      <trkpt lat="35.764561090618372" lon="-5.813159057870507">
        <ele>13.119999999999999</ele>
        <time>2018-03-24T10:21:20Z</time>
      </trkpt>
      <trkpt lat="35.764321954920888" lon="-5.814311318099499">
        <ele>13.6</ele>
        <time>2018-03-24T10:21:29Z</time>
      </trkpt>
      <trkpt lat="35.76404208317399" lon="-5.815446227788925">
        <ele>14.56</ele>
        <time>2018-03-24T10:21:35Z</time>
      </trkpt>
      <trkpt lat="35.763744777068496" lon="-5.816349629312754">
        <ele>16.48</ele>
        <time>2018-03-24T10:21:38Z</time>
      </trkpt>
      <trkpt lat="35.763539085164666" lon="-5.816706111654639">
        <ele>16</ele>
        <time>2018-03-24T10:21:50Z</time>
      </trkpt>
      <trkpt lat="35.763296764343977" lon="-5.817052535712719">
        <ele>20.32</ele>
        <time>2018-03-24T10:22:00Z</time>
      </trkpt>
      <trkpt lat="35.762404426932335" lon="-5.817974461242557">
        <ele>22.73</ele>
        <time>2018-03-24T10:22:07Z</time>
      </trkpt>
      <trkpt lat="35.76146942563355" lon="-5.818891609087586">
        <ele>24.170000000000002</ele>
        <time>2018-03-24T10:22:11Z</time>
      </trkpt>
      <trkpt lat="35.760172326117754" lon="-5.820332374423742">
        <ele>25.129999999999999</ele>
        <time>2018-03-24T10:22:12Z</time>
      </trkpt>
      <trkpt lat="35.75949540361762" lon="-5.821726871654391">
        <ele>25.129999999999999</ele>
        <time>2018-03-24T10:22:13Z</time>
      </trkpt>
      <trkpt lat="35.759143950417638" lon="-5.823199404403567">
        <ele>28.5</ele>
        <time>2018-03-24T10:22:14Z</time>
      </trkpt>
      <trkpt lat="35.759083265438676" lon="-5.823725033551455">
        <ele>28.5</ele>
        <time>2018-03-24T10:22:15Z</time>
      </trkpt>
      <trkpt lat="35.75908251106739" lon="-5.823919745162129">
        <ele>25.609999999999999</ele>
        <time>2018-03-24T10:22:16Z</time>
      </trkpt>
      <trkpt lat="35.759226176887751" lon="-5.826067859306932">
        <ele>24.170000000000002</ele>
        <time>2018-03-24T10:22:17Z</time>
      </trkpt>
      <trkpt lat="35.759118720889091" lon="-5.827781287953258">
        <ele>30.420000000000002</ele>
        <time>2018-03-24T10:22:24Z</time>
      </trkpt>
      <trkpt lat="35.758782103657722" lon="-5.828857608139515">
        <ele>36.189999999999998</ele>
        <time>2018-03-24T10:22:35Z</time>
      </trkpt>
      <trkpt lat="35.758520672097802" lon="-5.829260274767876">
        <ele>37.149999999999999</ele>
        <time>2018-03-24T10:22:42Z</time>
      </trkpt>
      <trkpt lat="35.756882848218083" lon="-5.830603642389178">
        <ele>38.590000000000003</ele>
        <time>2018-03-24T10:22:43Z</time>
      </trkpt>
      <trkpt lat="35.7556904386729" lon="-5.831514168530703">
        <ele>39.07</ele>
        <time>2018-03-24T10:22:44Z</time>
      </trkpt>
      <trkpt lat="35.755151985213161" lon="-5.831899233162403">
        <ele>39.07</ele>
        <time>2018-03-24T10:22:45Z</time>
      </trkpt>
      <trkpt lat="35.754964062944055" lon="-5.83210526034236">
        <ele>39.549999999999997</ele>
        <time>2018-03-24T10:22:46Z</time>
      </trkpt>
      <trkpt lat="35.754911676049232" lon="-5.83214390091598">
        <ele>39.549999999999997</ele>
        <time>2018-03-24T10:22:47Z</time>
      </trkpt>
      <trkpt lat="35.754843698814511" lon="-5.832175249233842">
        <ele>40.030000000000001</ele>
        <time>2018-03-24T10:22:48Z</time>
      </trkpt>
      <trkpt lat="35.75475862249732" lon="-5.83220005966723">
        <ele>40.030000000000001</ele>
        <time>2018-03-24T10:22:49Z</time>
      </trkpt>
      <trkpt lat="35.754654351621866" lon="-5.832226378843188">
        <ele>42.439999999999998</ele>
        <time>2018-03-24T10:22:50Z</time>
      </trkpt>
      <trkpt lat="35.754545470699668" lon="-5.832264516502619">
        <ele>49.159999999999997</ele>
        <time>2018-03-24T10:22:51Z</time>
      </trkpt>
      <trkpt lat="35.754437763243914" lon="-5.832313802093267">
        <ele>52.049999999999997</ele>
        <time>2018-03-24T10:22:52Z</time>
      </trkpt>
      <trkpt lat="35.753478957340121" lon="-5.832859547808766">
        <ele>52.530000000000001</ele>
        <time>2018-03-24T10:22:53Z</time>
      </trkpt>
      <trkpt lat="35.752122094854712" lon="-5.833660271018744">
        <ele>53.009999999999998</ele>
        <time>2018-03-24T10:23:00Z</time>
      </trkpt>
      <trkpt lat="35.751705933362246" lon="-5.833963695913553">
        <ele>53.490000000000002</ele>
        <time>2018-03-24T10:23:08Z</time>
      </trkpt>
      <trkpt lat="35.751640554517508" lon="-5.834016920998693">
        <ele>53.490000000000002</ele>
        <time>2018-03-24T10:23:19Z</time>
      </trkpt>
      <trkpt lat="35.75156394392252" lon="-5.834062183275819">
        <ele>53.969999999999999</ele>
        <time>2018-03-24T10:23:26Z</time>
      </trkpt>
      <trkpt lat="35.751484148204327" lon="-5.834097722545266">
        <ele>54.450000000000003</ele>
        <time>2018-03-24T10:23:35Z</time>
      </trkpt>
      <trkpt lat="35.751400161534548" lon="-5.83413502201438">
        <ele>54.450000000000003</ele>
        <time>2018-03-24T10:23:44Z</time>
      </trkpt>
      <trkpt lat="35.751310475170612" lon="-5.834184726700187">
        <ele>54.450000000000003</ele>
        <time>2018-03-24T10:23:54Z</time>
      </trkpt>
      <trkpt lat="35.751218609511852" lon="-5.834247758612037">
        <ele>54.450000000000003</ele>
        <time>2018-03-24T10:24:04Z</time>
      </trkpt>
      <trkpt lat="35.751126240938902" lon="-5.834323028102517">
        <ele>54.93</ele>
        <time>2018-03-24T10:24:10Z</time>
      </trkpt>
      <trkpt lat="35.751034878194332" lon="-5.834409110248089">
        <ele>54.93</ele>
        <time>2018-03-24T10:24:14Z</time>
      </trkpt>
      <trkpt lat="35.750943180173635" lon="-5.834507765248418">
        <ele>55.409999999999997</ele>
        <time>2018-03-24T10:24:15Z</time>
      </trkpt>
      <trkpt lat="35.750853409990668" lon="-5.834616562351584">
        <ele>54.93</ele>
        <time>2018-03-24T10:24:16Z</time>
      </trkpt>
      <trkpt lat="35.75076405890286" lon="-5.83473265171051">
        <ele>54.450000000000003</ele>
        <time>2018-03-24T10:24:18Z</time>
      </trkpt>
      <trkpt lat="35.750277237966657" lon="-5.835790447890759">
        <ele>53.009999999999998</ele>
        <time>2018-03-24T10:24:19Z</time>
      </trkpt>
      <trkpt lat="35.750047490000725" lon="-5.837100706994534">
        <ele>52.530000000000001</ele>
        <time>2018-03-24T10:24:29Z</time>
      </trkpt>
      <trkpt lat="35.749725792557001" lon="-5.838938355445862">
        <ele>52.530000000000001</ele>
        <time>2018-03-24T10:24:38Z</time>
      </trkpt>
      <trkpt lat="35.749127576127648" lon="-5.840074522420764">
        <ele>56.859999999999999</ele>
        <time>2018-03-24T10:24:49Z</time>
      </trkpt>
      <trkpt lat="35.747984535992146" lon="-5.841104909777641">
        <ele>59.259999999999998</ele>
        <time>2018-03-24T10:24:57Z</time>
      </trkpt>
      <trkpt lat="35.746735297143459" lon="-5.842128256335855">
        <ele>59.740000000000002</ele>
        <time>2018-03-24T10:25:05Z</time>
      </trkpt>
      <trkpt lat="35.745453536510468" lon="-5.843117823824287">
        <ele>59.740000000000002</ele>
        <time>2018-03-24T10:25:16Z</time>
      </trkpt>
      <trkpt lat="35.744583997875452" lon="-5.843826178461313">
        <ele>59.740000000000002</ele>
        <time>2018-03-24T10:25:22Z</time>
      </trkpt>
      <trkpt lat="35.744450557976961" lon="-5.843989374116063">
        <ele>59.740000000000002</ele>
        <time>2018-03-24T10:25:23Z</time>
      </trkpt>
      <trkpt lat="35.744345113635063" lon="-5.84409817121923">
        <ele>60.219999999999999</ele>
        <time>2018-03-24T10:25:26Z</time>
      </trkpt>
      <trkpt lat="35.744300857186317" lon="-5.84412750788033">
        <ele>60.700000000000003</ele>
        <time>2018-03-24T10:25:27Z</time>
      </trkpt>
      <trkpt lat="35.744252325966954" lon="-5.844150055199862">
        <ele>62.619999999999997</ele>
        <time>2018-03-24T10:25:28Z</time>
      </trkpt>
      <trkpt lat="35.744120981544256" lon="-5.844204118475318">
        <ele>63.579999999999998</ele>
        <time>2018-03-24T10:25:29Z</time>
      </trkpt>
      <trkpt lat="35.744043700397015" lon="-5.844250721856952">
        <ele>63.579999999999998</ele>
        <time>2018-03-24T10:25:30Z</time>
      </trkpt>
      <trkpt lat="35.743137449026108" lon="-5.844954969361424">
        <ele>65.030000000000001</ele>
        <time>2018-03-24T10:25:31Z</time>
      </trkpt>
      <trkpt lat="35.742052746936679" lon="-5.84581034258008">
        <ele>62.619999999999997</ele>
        <time>2018-03-24T10:25:32Z</time>
      </trkpt>
      <trkpt lat="35.74054291471839" lon="-5.847073663026094">
        <ele>63.100000000000001</ele>
        <time>2018-03-24T10:25:42Z</time>
      </trkpt>
      <trkpt lat="35.739685278385878" lon="-5.848367577418685">
        <ele>64.069999999999993</ele>
        <time>2018-03-24T10:25:48Z</time>
      </trkpt>
      <trkpt lat="35.739129306748509" lon="-5.850080754607916">
        <ele>64.069999999999993</ele>
        <time>2017-03-15T14:04:01Z</time>
      </trkpt>
      <trkpt lat="35.738572245463729" lon="-5.852322243154049">
        <ele>64.549999999999997</ele>
        <time>2016-03-15T10:26:14Z</time>
      </trkpt>
      <trkpt lat="35.738454228267074" lon="-5.8529291767627">
        <ele>65.030000000000001</ele>
        <time>2016-03-15T10:26:29Z</time>
      </trkpt>
      <trkpt lat="35.738458083942533" lon="-5.853006122633815">
        <ele>65.030000000000001</ele>
        <time>2016-03-15T10:26:39Z</time>
      </trkpt>
      <trkpt lat="35.738457497209311" lon="-5.85317543707788">
        <ele>65.030000000000001</ele>
        <time>2016-03-15T10:26:51Z</time>
      </trkpt>
      <trkpt lat="35.738435871899128" lon="-5.853223968297243">
        <ele>65.030000000000001</ele>
        <time>2016-03-15T10:27:05Z</time>
      </trkpt>
      <trkpt lat="35.738398320972919" lon="-5.853276187554002">
        <ele>65.030000000000001</ele>
        <time>2016-03-15T10:27:06Z</time>
      </trkpt>
      <trkpt lat="35.738350292667747" lon="-5.853341147303581">
        <ele>65.030000000000001</ele>
        <time>2016-03-15T10:27:07Z</time>
      </trkpt>
      <trkpt lat="35.738304443657398" lon="-5.853432090952992">
        <ele>65.030000000000001</ele>
        <time>2016-03-15T10:27:08Z</time>
      </trkpt>
      <trkpt lat="35.738265300169587" lon="-5.853548431769013">
        <ele>64.069999999999993</ele>
        <time>2016-03-15T10:27:09Z</time>
      </trkpt>
      <trkpt lat="35.738229593262076" lon="-5.853680530562997">
        <ele>59.259999999999998</ele>
        <time>2016-03-15T10:27:10Z</time>
      </trkpt>
      <trkpt lat="35.737858191132545" lon="-5.855144178494811">
        <ele>56.859999999999999</ele>
        <time>2016-03-15T10:27:11Z</time>
      </trkpt>
      <trkpt lat="35.737763224169612" lon="-5.855581965297461">
        <ele>53.009999999999998</ele>
        <time>2016-03-15T10:27:18Z</time>
      </trkpt>
      <trkpt lat="35.737375728785992" lon="-5.857183076441288">
        <ele>50.130000000000003</ele>
        <time>2016-03-15T10:27:32Z</time>
      </trkpt>
      <trkpt lat="35.73685965500772" lon="-5.858963392674923">
        <ele>46.759999999999998</ele>
        <time>2016-03-15T10:27:46Z</time>
      </trkpt>
      <trkpt lat="35.735934711992741" lon="-5.861481567844749">
        <ele>43.399999999999999</ele>
        <time>2016-03-15T10:27:47Z</time>
      </trkpt>
      <trkpt lat="35.735369017347693" lon="-5.862866342067719">
        <ele>43.399999999999999</ele>
        <time>2016-03-15T10:27:48Z</time>
      </trkpt>
      <trkpt lat="35.734553206712008" lon="-5.864895349368453">
        <ele>43.399999999999999</ele>
        <time>2016-03-15T10:28:00Z</time>
      </trkpt>
      <trkpt lat="35.733574032783508" lon="-5.867319228127599">
        <ele>43.399999999999999</ele>
        <time>2016-03-15T10:28:18Z</time>
      </trkpt>
      <trkpt lat="35.733541259542108" lon="-5.867442861199379">
        <ele>43.399999999999999</ele>
        <time>2016-03-15T10:28:33Z</time>
      </trkpt>
      <trkpt lat="35.733519801869988" lon="-5.867561465129256">
        <ele>43.399999999999999</ele>
        <time>2016-03-15T10:28:41Z</time>
      </trkpt>
      <trkpt lat="35.733499936759472" lon="-5.867668082937598">
        <ele>42.920000000000002</ele>
        <time>2016-03-15T10:28:50Z</time>
      </trkpt>
      <trkpt lat="35.733466744422913" lon="-5.867763552814722">
        <ele>43.399999999999999</ele>
        <time>2016-03-15T10:28:58Z</time>
      </trkpt>
      <trkpt lat="35.733415530994534" lon="-5.867851478978992">
        <ele>40.030000000000001</ele>
        <time>2016-03-15T10:29:14Z</time>
      </trkpt>
      <trkpt lat="35.733354510739446" lon="-5.867939488962293">
        <ele>34.740000000000002</ele>
        <time>2016-03-15T10:29:29Z</time>
      </trkpt>
      <trkpt lat="35.732946395874023" lon="-5.868896618485451">
        <ele>34.259999999999998</ele>
        <time>2016-03-15T10:29:45Z</time>
      </trkpt>
      <trkpt lat="35.732169980183244" lon="-5.871355449780822">
        <ele>34.259999999999998</ele>
        <time>2016-03-15T10:29:55Z</time>
      </trkpt>
      <trkpt lat="35.731493979692459" lon="-5.873692324385047">
        <ele>33.780000000000001</ele>
        <time>2016-03-15T10:29:56Z</time>
      </trkpt>
      <trkpt lat="35.731453411281109" lon="-5.873835571110249">
        <ele>31.379999999999999</ele>
        <time>2016-03-15T10:29:57Z</time>
      </trkpt>
      <trkpt lat="35.731400018557906" lon="-5.873979153111577">
        <ele>28.5</ele>
        <time>2016-03-15T10:30:06Z</time>
      </trkpt>
      <trkpt lat="35.730742793530226" lon="-5.875951079651713">
        <ele>27.050000000000001</ele>
        <time>2016-03-15T10:30:15Z</time>
      </trkpt>
      <trkpt lat="35.729724727571011" lon="-5.879159923642874">
        <ele>26.09</ele>
        <time>2016-03-15T10:30:26Z</time>
      </trkpt>
      <trkpt lat="35.728937918320298" lon="-5.881597464904189">
        <ele>24.649999999999999</ele>
        <time>2016-03-15T10:30:42Z</time>
      </trkpt>
      <trkpt lat="35.728670367971063" lon="-5.882625672966242">
        <ele>21.289999999999999</ele>
        <time>2016-03-15T10:30:56Z</time>
      </trkpt>
      <trkpt lat="35.728404326364398" lon="-5.883443914353848">
        <ele>20.32</ele>
        <time>2016-03-15T10:31:06Z</time>
      </trkpt>
      <trkpt lat="35.728030493482947" lon="-5.884585110470653">
        <ele>20.32</ele>
        <time>2016-03-15T10:36:29Z</time>
      </trkpt>
      <trkpt lat="35.727171851322055" lon="-5.887233791872859">
        <ele>19.359999999999999</ele>
        <time>2016-03-15T10:36:38Z</time>
      </trkpt>
      <trkpt lat="35.726276412606239" lon="-5.889875600114465">
        <ele>18.879999999999999</ele>
        <time>2016-03-15T10:36:46Z</time>
      </trkpt>
      <trkpt lat="35.725317522883415" lon="-5.892942538484931">
        <ele>18.879999999999999</ele>
        <time>2016-03-15T10:36:56Z</time>
      </trkpt>
      <trkpt lat="35.724883256480098" lon="-5.894568376243115">
        <ele>17.920000000000002</ele>
        <time>2016-03-15T10:37:09Z</time>
      </trkpt>
      <trkpt lat="35.724833970889449" lon="-5.894706845283508">
        <ele>17.440000000000001</ele>
        <time>2016-03-15T10:37:15Z</time>
      </trkpt>
      <trkpt lat="35.724771106615663" lon="-5.894841626286507">
        <ele>16.960000000000001</ele>
        <time>2016-03-15T10:37:22Z</time>
      </trkpt>
      <trkpt lat="35.724232401698828" lon="-5.896244421601296">
        <ele>16</ele>
        <time>2016-03-15T10:37:32Z</time>
      </trkpt>
      <trkpt lat="35.723535865545273" lon="-5.897719552740455">
        <ele>16.48</ele>
        <time>2016-03-15T10:37:40Z</time>
      </trkpt>
      <trkpt lat="35.722635984420776" lon="-5.898996787145734">
        <ele>18.399999999999999</ele>
        <time>2016-03-15T10:37:51Z</time>
      </trkpt>
      <trkpt lat="35.721069993451238" lon="-5.90128286741674">
        <ele>22.25</ele>
        <time>2016-03-15T10:37:58Z</time>
      </trkpt>
      <trkpt lat="35.719674406573176" lon="-5.90318120084703">
        <ele>25.129999999999999</ele>
        <time>2016-03-15T10:37:59Z</time>
      </trkpt>
      <trkpt lat="35.7184989284724" lon="-5.904007153585553">
        <ele>28.98</ele>
        <time>2016-03-15T10:38:08Z</time>
      </trkpt>
      <trkpt lat="35.714321304112673" lon="-5.90360096655786">
        <ele>30.899999999999999</ele>
        <time>2016-03-15T10:38:25Z</time>
      </trkpt>
      <trkpt lat="35.713229812681675" lon="-5.903430059552193">
        <ele>29.460000000000001</ele>
        <time>2016-03-15T10:38:38Z</time>
      </trkpt>
      <trkpt lat="35.712108733132482" lon="-5.903840940445662">
        <ele>29.940000000000001</ele>
        <time>2016-03-15T10:38:52Z</time>
      </trkpt>
      <trkpt lat="35.710834013298154" lon="-5.905010383576155">
        <ele>30.420000000000002</ele>
        <time>2016-03-15T10:38:59Z</time>
      </trkpt>
      <trkpt lat="35.709095522761345" lon="-5.906625157222152">
        <ele>30.420000000000002</ele>
        <time>2016-03-15T10:39:10Z</time>
      </trkpt>
      <trkpt lat="35.708605851978064" lon="-5.907085910439491">
        <ele>29.940000000000001</ele>
        <time>2016-03-15T10:39:21Z</time>
      </trkpt>
      <trkpt lat="35.708539383485913" lon="-5.907162353396416">
        <ele>28.02</ele>
        <time>2016-03-15T10:39:42Z</time>
      </trkpt>
      <trkpt lat="35.708365961909294" lon="-5.90736678801477">
        <ele>25.609999999999999</ele>
        <time>2016-03-15T10:39:58Z</time>
      </trkpt>
      <trkpt lat="35.70787369273603" lon="-5.90777381323278">
        <ele>25.609999999999999</ele>
        <time>2016-03-15T10:40:12Z</time>
      </trkpt>
      <trkpt lat="35.70683978497982" lon="-5.908769918605685">
        <ele>24.170000000000002</ele>
        <time>2016-03-15T10:40:24Z</time>
      </trkpt>
      <trkpt lat="35.706286327913404" lon="-5.909397136420012">
        <ele>26.09</ele>
        <time>2016-03-15T10:40:38Z</time>
      </trkpt>
      <trkpt lat="35.706188008189201" lon="-5.909484392032027">
        <ele>24.649999999999999</ele>
        <time>2016-03-15T10:40:48Z</time>
      </trkpt>
      <trkpt lat="35.705113867297769" lon="-5.910465829074383">
        <ele>22.73</ele>
        <time>2016-03-15T10:40:50Z</time>
      </trkpt>
      <trkpt lat="35.702778333798051" lon="-5.912688039243221">
        <ele>20.809999999999999</ele>
        <time>2016-03-15T10:40:51Z</time>
      </trkpt>
      <trkpt lat="35.701088961213827" lon="-5.914292838424444">
        <ele>18.879999999999999</ele>
        <time>2016-03-15T10:40:52Z</time>
      </trkpt>
      <trkpt lat="35.699273440986872" lon="-5.915961675345898">
        <ele>17.920000000000002</ele>
        <time>2016-03-15T10:40:53Z</time>
      </trkpt>
      <trkpt lat="35.698201227933168" lon="-5.916360570117831">
        <ele>18.399999999999999</ele>
        <time>2016-03-15T10:40:54Z</time>
      </trkpt>
      <trkpt lat="35.696614617481828" lon="-5.916493088006973">
        <ele>18.879999999999999</ele>
        <time>2016-03-15T10:40:55Z</time>
      </trkpt>
      <trkpt lat="35.694895656779408" lon="-5.916480431333184">
        <ele>18.399999999999999</ele>
        <time>2016-03-15T10:40:56Z</time>
      </trkpt>
      <trkpt lat="35.691334353759885" lon="-5.916611440479755">
        <ele>17.920000000000002</ele>
        <time>2016-03-15T10:40:57Z</time>
      </trkpt>
      <trkpt lat="35.688675278797746" lon="-5.916966749355197">
        <ele>20.32</ele>
        <time>2016-03-15T10:41:00Z</time>
      </trkpt>
      <trkpt lat="35.68641853518784" lon="-5.917816171422601">
        <ele>22.25</ele>
        <time>2016-03-15T10:41:01Z</time>
      </trkpt>
      <trkpt lat="35.684593878686428" lon="-5.918929623439908">
        <ele>22.25</ele>
        <time>2016-03-15T10:41:02Z</time>
      </trkpt>
      <trkpt lat="35.682842815294862" lon="-5.920378351584077">
        <ele>22.25</ele>
        <time>2016-03-15T10:41:03Z</time>
      </trkpt>
      <trkpt lat="35.681989369913936" lon="-5.921184774488211">
        <ele>22.25</ele>
        <time>2016-03-15T10:41:04Z</time>
      </trkpt>
      <trkpt lat="35.681903958320618" lon="-5.921327350661159">
        <ele>22.25</ele>
        <time>2016-03-15T10:41:05Z</time>
      </trkpt>
      <trkpt lat="35.681877052411437" lon="-5.921406056731939">
        <ele>22.25</ele>
        <time>2016-03-15T10:41:06Z</time>
      </trkpt>
      <trkpt lat="35.681858947500587" lon="-5.921492641791701">
        <ele>21.77</ele>
        <time>2016-03-15T10:41:07Z</time>
      </trkpt>
      <trkpt lat="35.681850733235478" lon="-5.921586519107223">
        <ele>21.289999999999999</ele>
        <time>2016-03-15T10:41:08Z</time>
      </trkpt>
      <trkpt lat="35.681854337453842" lon="-5.921687940135598">
        <ele>21.289999999999999</ele>
        <time>2016-03-15T10:41:09Z</time>
      </trkpt>
      <trkpt lat="35.681872610002756" lon="-5.921795899048448">
        <ele>21.289999999999999</ele>
        <time>2016-03-15T10:41:10Z</time>
      </trkpt>
      <trkpt lat="35.681904712691903" lon="-5.921908803284168">
        <ele>20.809999999999999</ele>
        <time>2016-03-15T10:41:11Z</time>
      </trkpt>
      <trkpt lat="35.681946622207761" lon="-5.922023635357618">
        <ele>20.809999999999999</ele>
        <time>2016-03-15T10:41:12Z</time>
      </trkpt>
      <trkpt lat="35.682082828134298" lon="-5.922408029437065">
        <ele>20.32</ele>
        <time>2016-03-15T10:41:13Z</time>
      </trkpt>
      <trkpt lat="35.68211367353797" lon="-5.922555550932884">
        <ele>20.32</ele>
        <time>2016-03-15T10:41:14Z</time>
      </trkpt>
      <trkpt lat="35.682132113724947" lon="-5.922710699960589">
        <ele>19.84</ele>
        <time>2016-03-15T10:41:23Z</time>
      </trkpt>
      <trkpt lat="35.682138316333294" lon="-5.922872805967927">
        <ele>19.84</ele>
        <time>2016-03-15T10:41:33Z</time>
      </trkpt>
      <trkpt lat="35.682130688801408" lon="-5.92304153367877">
        <ele>19.359999999999999</ele>
        <time>2016-03-15T10:41:46Z</time>
      </trkpt>
      <trkpt lat="35.682109566405416" lon="-5.92321302741766">
        <ele>19.359999999999999</ele>
        <time>2016-03-15T10:41:58Z</time>
      </trkpt>
      <trkpt lat="35.682073859497905" lon="-5.923383180052042">
        <ele>19.359999999999999</ele>
        <time>2016-03-15T10:42:06Z</time>
      </trkpt>
      <trkpt lat="35.682022143155336" lon="-5.923549309372902">
        <ele>18.879999999999999</ele>
        <time>2016-03-15T10:42:15Z</time>
      </trkpt>
      <trkpt lat="35.681957267224789" lon="-5.923709319904447">
        <ele>18.879999999999999</ele>
        <time>2016-03-15T10:42:21Z</time>
      </trkpt>
      <trkpt lat="35.681877639144659" lon="-5.923857931047678">
        <ele>18.399999999999999</ele>
        <time>2016-03-15T10:42:27Z</time>
      </trkpt>
      <trkpt lat="35.68178434856236" lon="-5.92399631626904">
        <ele>18.399999999999999</ele>
        <time>2016-03-15T10:42:40Z</time>
      </trkpt>
      <trkpt lat="35.681678401306272" lon="-5.924120871350169">
        <ele>17.920000000000002</ele>
        <time>2016-03-15T10:42:48Z</time>
      </trkpt>
      <trkpt lat="35.681562395766377" lon="-5.924233105033636">
        <ele>16.48</ele>
        <time>2016-03-15T10:42:59Z</time>
      </trkpt>
      <trkpt lat="35.681438762694597" lon="-5.92433393932879">
        <ele>16.960000000000001</ele>
        <time>2016-03-15T10:43:12Z</time>
      </trkpt>
      <trkpt lat="35.681309094652534" lon="-5.924429325386882">
        <ele>18.399999999999999</ele>
        <time>2016-03-15T10:43:20Z</time>
      </trkpt>
      <trkpt lat="35.680139567703009" lon="-5.92555895447731">
        <ele>20.32</ele>
        <time>2016-03-15T10:43:35Z</time>
      </trkpt>
      <trkpt lat="35.679099960252643" lon="-5.927312113344669">
        <ele>19.84</ele>
        <time>2016-03-15T10:43:50Z</time>
      </trkpt>
      <trkpt lat="35.677695069462061" lon="-5.929842442274094">
        <ele>18.879999999999999</ele>
        <time>2016-03-15T10:44:06Z</time>
      </trkpt>
      <trkpt lat="35.676196720451117" lon="-5.932372352108359">
        <ele>20.32</ele>
        <time>2016-03-15T10:44:23Z</time>
      </trkpt>
      <trkpt lat="35.675613591447473" lon="-5.934447795152664">
        <ele>22.25</ele>
        <time>2016-03-15T10:44:39Z</time>
      </trkpt>
      <trkpt lat="35.674789818003774" lon="-5.936647709459066">
        <ele>24.649999999999999</ele>
        <time>2016-03-15T10:44:48Z</time>
      </trkpt>
      <trkpt lat="35.673811314627528" lon="-5.937657980248332">
        <ele>25.609999999999999</ele>
        <time>2016-03-15T10:44:57Z</time>
      </trkpt>
      <trkpt lat="35.672736503183842" lon="-5.938142957165837">
        <ele>25.129999999999999</ele>
        <time>2016-03-15T10:45:07Z</time>
      </trkpt>
      <trkpt lat="35.670580007135868" lon="-5.938613768666983">
        <ele>22.25</ele>
        <time>2016-03-15T10:45:16Z</time>
      </trkpt>
      <trkpt lat="35.669384831562638" lon="-5.939366547390819">
        <ele>20.809999999999999</ele>
        <time>2016-03-15T10:45:27Z</time>
      </trkpt>
      <trkpt lat="35.668106088414788" lon="-5.940778227522969">
        <ele>17.920000000000002</ele>
        <time>2016-03-15T10:45:38Z</time>
      </trkpt>
      <trkpt lat="35.66660069860518" lon="-5.94264043495059">
        <ele>15.039999999999999</ele>
        <time>2016-03-15T10:45:48Z</time>
      </trkpt>
      <trkpt lat="35.665539130568504" lon="-5.9441561345011">
        <ele>17.440000000000001</ele>
        <time>2016-03-15T10:46:06Z</time>
      </trkpt>
      <trkpt lat="35.663598049432039" lon="-5.947577459737659">
        <ele>13.119999999999999</ele>
        <time>2016-03-15T10:46:25Z</time>
      </trkpt>
      <trkpt lat="35.661936001852155" lon="-5.951433470472693">
        <ele>6.39</ele>
        <time>2016-03-15T10:46:41Z</time>
      </trkpt>
      <trkpt lat="35.660277642309666" lon="-5.955949639901519">
        <ele>4.94</ele>
        <time>2016-03-15T10:47:00Z</time>
      </trkpt>
      <trkpt lat="35.658419039100409" lon="-5.960892783477902">
        <ele>7.35</ele>
        <time>2016-03-15T10:47:16Z</time>
      </trkpt>
      <trkpt lat="35.656669484451413" lon="-5.965522695332766">
        <ele>7.35</ele>
        <time>2016-03-15T10:47:34Z</time>
      </trkpt>
      <trkpt lat="35.655393172055483" lon="-5.967643987387419">
        <ele>7.83</ele>
        <time>2016-03-15T10:47:52Z</time>
      </trkpt>
      <trkpt lat="35.65382307395339" lon="-5.969270328059793">
        <ele>8.310000000000001</ele>
        <time>2016-03-15T10:48:11Z</time>
      </trkpt>
      <trkpt lat="35.651744613423944" lon="-5.970544377341867">
        <ele>9.27</ele>
        <time>2016-03-15T10:48:27Z</time>
      </trkpt>
      <trkpt lat="35.649636900052428" lon="-5.971106551587582">
        <ele>11.19</ele>
        <time>2016-03-15T10:48:36Z</time>
      </trkpt>
      <trkpt lat="35.647070612758398" lon="-5.971235632896423">
        <ele>12.630000000000001</ele>
        <time>2016-03-15T10:48:47Z</time>
      </trkpt>
      <trkpt lat="35.644625276327133" lon="-5.971328336745501">
        <ele>11.19</ele>
        <time>2016-03-15T10:48:57Z</time>
      </trkpt>
      <trkpt lat="35.642107520252466" lon="-5.971434284001589">
        <ele>10.23</ele>
        <time>2016-03-15T10:49:14Z</time>
      </trkpt>
      <trkpt lat="35.637391442433" lon="-5.971937868744135">
        <ele>10.23</ele>
        <time>2016-03-15T10:49:28Z</time>
      </trkpt>
      <trkpt lat="35.632459530606866" lon="-5.972853926941752">
        <ele>9.27</ele>
        <time>2016-03-15T10:49:36Z</time>
      </trkpt>
      <trkpt lat="35.628343345597386" lon="-5.973940137773752">
        <ele>4.94</ele>
        <time>2016-03-15T10:49:44Z</time>
      </trkpt>
      <trkpt lat="35.623604552820325" lon="-5.975592629984021">
        <ele>3.98</ele>
        <time>2016-03-15T10:49:54Z</time>
      </trkpt>
      <trkpt lat="35.619433298707008" lon="-5.977395996451378">
        <ele>4.46</ele>
        <time>2016-03-15T10:50:02Z</time>
      </trkpt>
      <trkpt lat="35.614906819537282" lon="-5.979598257690668">
        <ele>4.94</ele>
        <time>2016-03-15T10:50:10Z</time>
      </trkpt>
      <trkpt lat="35.610473211854696" lon="-5.981650482863188">
        <ele>4.94</ele>
        <time>2016-03-15T10:50:17Z</time>
      </trkpt>
      <trkpt lat="35.605850508436561" lon="-5.983612518757582">
        <ele>4.94</ele>
        <time>2016-03-15T10:50:24Z</time>
      </trkpt>
      <trkpt lat="35.6019820086658" lon="-5.985124781727791">
        <ele>5.42</ele>
        <time>2016-03-15T10:50:35Z</time>
      </trkpt>
      <trkpt lat="35.600411910563707" lon="-5.985715454444289">
        <ele>5.91</ele>
        <time>2016-03-15T10:50:44Z</time>
      </trkpt>
      <trkpt lat="35.598354320973158" lon="-5.986409643664956">
        <ele>6.39</ele>
        <time>2016-03-15T10:51:02Z</time>
      </trkpt>
      <trkpt lat="35.596021804958582" lon="-5.987239368259907">
        <ele>6.87</ele>
        <time>2016-03-15T10:51:16Z</time>
      </trkpt>
      <trkpt lat="35.59163773432374" lon="-5.988622885197401">
        <ele>6.39</ele>
        <time>2016-03-15T10:51:30Z</time>
      </trkpt>
      <trkpt lat="35.588144911453128" lon="-5.989534249529243">
        <ele>7.83</ele>
        <time>2016-03-15T10:51:45Z</time>
      </trkpt>
      <trkpt lat="35.586146917194128" lon="-5.98935135640204">
        <ele>7.83</ele>
        <time>2016-03-15T10:52:03Z</time>
      </trkpt>
      <trkpt lat="35.584289571270347" lon="-5.988492714241147">
        <ele>6.87</ele>
        <time>2016-03-15T10:52:18Z</time>
      </trkpt>
      <trkpt lat="35.582326110452414" lon="-5.986917000263929">
        <ele>5.91</ele>
        <time>2016-03-15T10:52:30Z</time>
      </trkpt>
      <trkpt lat="35.581130934879184" lon="-5.98594025708735">
        <ele>5.91</ele>
        <time>2016-03-15T10:52:42Z</time>
      </trkpt>
      <trkpt lat="35.579886976629496" lon="-5.985204074531794">
        <ele>5.91</ele>
        <time>2016-03-15T10:52:53Z</time>
      </trkpt>
      <trkpt lat="35.578778889030218" lon="-5.985209355130792">
        <ele>6.39</ele>
        <time>2016-03-15T10:53:06Z</time>
      </trkpt>
      <trkpt lat="35.577737018465996" lon="-5.985721070319414">
        <ele>6.87</ele>
        <time>2016-03-15T10:53:19Z</time>
      </trkpt>
      <trkpt lat="35.576056111603975" lon="-5.986811136826873">
        <ele>8.789999999999999</ele>
        <time>2016-03-15T10:53:34Z</time>
      </trkpt>
      <trkpt lat="35.574275460094213" lon="-5.988055011257529">
        <ele>10.710000000000001</ele>
        <time>2016-03-15T10:53:46Z</time>
      </trkpt>
      <trkpt lat="35.570406038314104" lon="-5.990646276623011">
        <ele>8.789999999999999</ele>
        <time>2016-03-15T10:53:58Z</time>
      </trkpt>
      <trkpt lat="35.567462565377355" lon="-5.992296757176518">
        <ele>10.23</ele>
        <time>2016-03-15T10:54:14Z</time>
      </trkpt>
      <trkpt lat="35.564402583986521" lon="-5.993491932749748">
        <ele>15.039999999999999</ele>
        <time>2016-03-15T10:54:26Z</time>
      </trkpt>
      <trkpt lat="35.561131294816732" lon="-5.994269689545035">
        <ele>19.84</ele>
        <time>2016-03-15T10:54:39Z</time>
      </trkpt>
      <trkpt lat="35.557354912161827" lon="-5.994944935664535">
        <ele>27.050000000000001</ele>
        <time>2016-03-15T10:54:52Z</time>
      </trkpt>
      <trkpt lat="35.554509172216058" lon="-5.995446592569351">
        <ele>33.780000000000001</ele>
        <time>2016-03-15T10:55:05Z</time>
      </trkpt>
      <trkpt lat="35.552616370841861" lon="-5.995673155412078">
        <ele>39.07</ele>
        <time>2016-03-15T10:55:16Z</time>
      </trkpt>
      <trkpt lat="35.55086555890739" lon="-5.995633257552981">
        <ele>40.990000000000002</ele>
        <time>2016-03-15T10:55:28Z</time>
      </trkpt>
      <trkpt lat="35.549351871013641" lon="-5.995441898703575">
        <ele>40.030000000000001</ele>
        <time>2016-03-15T10:55:42Z</time>
      </trkpt>
      <trkpt lat="35.547668784856796" lon="-5.995110059157014">
        <ele>42.920000000000002</ele>
        <time>2016-03-15T10:55:49Z</time>
      </trkpt>
      <trkpt lat="35.545943034812808" lon="-5.994752990081906">
        <ele>45.799999999999997</ele>
        <time>2016-03-15T10:55:58Z</time>
      </trkpt>
      <trkpt lat="35.543717890977859" lon="-5.99453279748559">
        <ele>45.32</ele>
        <time>2016-03-15T10:56:09Z</time>
      </trkpt>
      <trkpt lat="35.542006976902485" lon="-5.994788110256195">
        <ele>45.32</ele>
        <time>2016-03-15T10:56:19Z</time>
      </trkpt>
      <trkpt lat="35.540383234620094" lon="-5.995448855683208">
        <ele>46.280000000000001</ele>
        <time>2016-03-15T10:56:29Z</time>
      </trkpt>
      <trkpt lat="35.538223553448915" lon="-5.996754504740238">
        <ele>42.439999999999998</ele>
        <time>2016-03-15T10:56:40Z</time>
      </trkpt>
      <trkpt lat="35.536379450932145" lon="-5.997762931510806">
        <ele>41.950000000000003</ele>
        <time>2016-03-15T10:56:50Z</time>
      </trkpt>
      <trkpt lat="35.534276263788342" lon="-5.998553009703755">
        <ele>41.469999999999999</ele>
        <time>2016-03-15T10:56:58Z</time>
      </trkpt>
      <trkpt lat="35.531911225989461" lon="-5.999063048511744">
        <ele>40.509999999999998</ele>
        <time>2016-03-15T10:57:08Z</time>
      </trkpt>
      <trkpt lat="35.529623301699758" lon="-5.999130103737116">
        <ele>37.630000000000003</ele>
        <time>2016-03-15T10:57:21Z</time>
      </trkpt>
      <trkpt lat="35.527794538065791" lon="-5.998749481514096">
        <ele>33.780000000000001</ele>
        <time>2016-03-15T10:57:31Z</time>
      </trkpt>
      <trkpt lat="35.525912381708622" lon="-5.997932497411966">
        <ele>26.09</ele>
        <time>2016-03-15T10:57:35Z</time>
      </trkpt>
      <trkpt lat="35.523637533187866" lon="-5.99674821831286">
        <ele>16.960000000000001</ele>
        <time>2016-03-15T10:59:55Z</time>
      </trkpt>
      <trkpt lat="35.522485608235002" lon="-5.996625004336238">
        <ele>12.15</ele>
        <time>2016-03-15T11:00:04Z</time>
      </trkpt>
      <trkpt lat="35.521165039390326" lon="-5.997072430327535">
        <ele>11.19</ele>
        <time>2016-03-15T11:00:14Z</time>
      </trkpt>
      <trkpt lat="35.519632073119283" lon="-5.997866783291102">
        <ele>8.310000000000001</ele>
        <time>2016-03-15T11:00:26Z</time>
      </trkpt>
      <trkpt lat="35.517979832366109" lon="-5.998326446861029">
        <ele>4.46</ele>
        <time>2016-03-15T11:00:39Z</time>
      </trkpt>
      <trkpt lat="35.516125420108438" lon="-5.998271461576223">
        <ele>4.46</ele>
        <time>2016-03-15T11:00:46Z</time>
      </trkpt>
      <trkpt lat="35.514109907671809" lon="-5.997969293966889">
        <ele>5.42</ele>
        <time>2016-03-15T11:00:55Z</time>
      </trkpt>
      <trkpt lat="35.512253567576408" lon="-5.998173141852021">
        <ele>5.91</ele>
        <time>2016-03-15T11:01:10Z</time>
      </trkpt>
      <trkpt lat="35.510604847222567" lon="-5.998899936676025">
        <ele>6.39</ele>
        <time>2016-03-15T11:01:16Z</time>
      </trkpt>
      <trkpt lat="35.508361766114831" lon="-6.000431897118688">
        <ele>6.39</ele>
        <time>2016-03-15T11:01:26Z</time>
      </trkpt>
      <trkpt lat="35.50562834367156" lon="-6.00254581309855">
        <ele>4.46</ele>
        <time>2016-03-15T11:01:35Z</time>
      </trkpt>
      <trkpt lat="35.504010217264295" lon="-6.004283968359232">
        <ele>3.02</ele>
        <time>2016-03-15T11:01:36Z</time>
      </trkpt>
      <trkpt lat="35.503439325839281" lon="-6.005018642172217">
        <ele>4.46</ele>
        <time>2016-03-15T11:01:37Z</time>
      </trkpt>
      <trkpt lat="35.485525438562036" lon="-6.02278777398169">
        <ele>5.42</ele>
        <time>2016-03-15T11:01:45Z</time>
      </trkpt>
      <trkpt lat="35.484583396464586" lon="-6.02317719720304">
        <ele>5.91</ele>
        <time>2016-03-15T11:01:57Z</time>
      </trkpt>
      <trkpt lat="35.483929691836238" lon="-6.023444831371307">
        <ele>6.87</ele>
        <time>2016-03-15T11:02:00Z</time>
      </trkpt>
      <trkpt lat="35.483733555302024" lon="-6.023516329005361">
        <ele>7.83</ele>
        <time>2016-03-15T11:02:01Z</time>
      </trkpt>
      <trkpt lat="35.483586955815554" lon="-6.023573325946927">
        <ele>6.39</ele>
        <time>2016-03-15T11:02:02Z</time>
      </trkpt>
      <trkpt lat="35.483015226200223" lon="-6.023818580433726">
        <ele>6.87</ele>
        <time>2016-03-15T11:02:03Z</time>
      </trkpt>
      <trkpt lat="35.481820804998279" lon="-6.024296768009663">
        <ele>6.87</ele>
        <time>2016-03-15T11:02:04Z</time>
      </trkpt>
      <trkpt lat="35.479435650631785" lon="-6.025261776521802">
        <ele>6.87</ele>
        <time>2016-03-15T11:02:05Z</time>
      </trkpt>
      <trkpt lat="35.478718327358365" lon="-6.025544414296746">
        <ele>6.87</ele>
        <time>2016-03-15T11:02:06Z</time>
      </trkpt>
      <trkpt lat="35.477776369079947" lon="-6.025811042636633">
        <ele>6.87</ele>
        <time>2016-03-15T11:02:07Z</time>
      </trkpt>
      <trkpt lat="35.476899705827236" lon="-6.026046657934785">
        <ele>6.87</ele>
        <time>2016-03-15T11:02:08Z</time>
      </trkpt>
      <trkpt lat="35.476803481578827" lon="-6.026069456711412">
        <ele>5.42</ele>
        <time>2016-03-15T11:02:09Z</time>
      </trkpt>
      <trkpt lat="35.476704491302371" lon="-6.026071049273014">
        <ele>4.94</ele>
        <time>2016-03-15T11:02:10Z</time>
      </trkpt>
      <trkpt lat="35.475735375657678" lon="-6.026164256036282">
        <ele>4.94</ele>
        <time>2016-03-15T11:02:11Z</time>
      </trkpt>
      <trkpt lat="35.474419835954905" lon="-6.026382185518742">
        <ele>4.94</ele>
        <time>2016-03-15T11:02:12Z</time>
      </trkpt>
      <trkpt lat="35.474264519289136" lon="-6.026436164975166">
        <ele>5.42</ele>
        <time>2016-03-15T11:02:13Z</time>
      </trkpt>
      <trkpt lat="35.47421682626009" lon="-6.026466423645616">
        <ele>5.42</ele>
        <time>2016-03-15T11:02:14Z</time>
      </trkpt>
      <trkpt lat="35.474175922572613" lon="-6.026504561305046">
        <ele>5.42</ele>
        <time>2016-03-15T11:02:15Z</time>
      </trkpt>
      <trkpt lat="35.474137114360929" lon="-6.026550410315394">
        <ele>4.94</ele>
        <time>2016-03-15T11:02:16Z</time>
      </trkpt>
      <trkpt lat="35.474097803235054" lon="-6.026599360629916">
        <ele>4.94</ele>
        <time>2016-03-15T11:02:17Z</time>
      </trkpt>
      <trkpt lat="35.474052708595991" lon="-6.026648562401533">
        <ele>4.94</ele>
        <time>2016-03-15T11:02:18Z</time>
      </trkpt>
      <trkpt lat="35.474000992253423" lon="-6.026689969003201">
        <ele>4.46</ele>
        <time>2016-03-15T11:02:29Z</time>
      </trkpt>
      <trkpt lat="35.473943827673793" lon="-6.026720479130745">
        <ele>4.46</ele>
        <time>2016-03-15T11:02:40Z</time>
      </trkpt>
      <trkpt lat="35.473881717771292" lon="-6.026731375604868">
        <ele>4.46</ele>
      </trkpt>
      <trkpt lat="35.473817680031061" lon="-6.026721149682999">
        <ele>4.46</ele>
      </trkpt>
      <trkpt lat="35.473757917061448" lon="-6.026687957346439">
        <ele>4.46</ele>
      </trkpt>
      <trkpt lat="35.473708882927895" lon="-6.026635989546776">
        <ele>4.46</ele>
      </trkpt>
      <trkpt lat="35.473679462447762" lon="-6.026566922664642">
        <ele>4.46</ele>
      </trkpt>
      <trkpt lat="35.473670996725559" lon="-6.026492491364479">
        <ele>4.46</ele>
      </trkpt>
      <trkpt lat="35.473682144656777" lon="-6.026416886597872">
        <ele>4.46</ele>
      </trkpt>
      <trkpt lat="35.473708799108863" lon="-6.026345388963819">
        <ele>4.46</ele>
      </trkpt>
      <trkpt lat="35.473751882091165" lon="-6.026286212727428">
        <ele>3.02</ele>
      </trkpt>
      <trkpt lat="35.473805274814367" lon="-6.026237346231937">
        <ele>3.02</ele>
      </trkpt>
      <trkpt lat="35.473865624517202" lon="-6.026192167773843"/>
      <trkpt lat="35.474462918937206" lon="-6.025597639381886"/>
      <trkpt lat="35.474922163411975" lon="-6.025169910863042"/>
      <trkpt lat="35.474829878658056" lon="-6.025286503136158">
        <ele>5.125698</ele>
        <time>2018-03-27T18:54:24Z</time>
      </trkpt>
      <trkpt lat="35.466842008754611" lon="-6.036212984472513">
        <ele>52.006107</ele>
        <time>2019-03-10T10:56:56Z</time>
      </trkpt>
      <trkpt lat="35.453665992245078" lon="-6.033774018287659">
        <ele>53.870196999999997</ele>
        <time>2019-03-10T11:00:22Z</time>
      </trkpt>
      <trkpt lat="35.229044985026121" lon="-5.981378993019462">
        <ele>15.774792</ele>
        <time>2019-03-10T11:20:43Z</time>
      </trkpt>
      <trkpt lat="35.001585027202964" lon="-5.906447041779757">
        <ele>27.161567999999999</ele>
        <time>2019-03-10T11:55:01Z</time>
      </trkpt>
      <trkpt lat="34.687458034604788" lon="-6.004723012447357">
        <ele>55.213577000000001</ele>
        <time>2019-03-10T13:16:19Z</time>
      </trkpt>
      <trkpt lat="34.226438021287322" lon="-5.712908981367946">
        <ele>523.14587400000005</ele>
        <time>2019-03-10T14:06:43Z</time>
      </trkpt>
      <trkpt lat="33.894562013447285" lon="-5.550237027928233">
        <ele>1061.6953120000001</ele>
        <time>2019-03-10T14:55:26Z</time>
      </trkpt>
      <trkpt lat="33.67907702922821" lon="-5.372626008465886">
        <ele>1058.458862</ele>
        <time>2019-03-10T15:43:18Z</time>
      </trkpt>
      <trkpt lat="33.502976512536407" lon="-5.294270133599639">
        <ele>1048.362793</ele>
        <time>2019-04-15T09:26:53Z</time>
      </trkpt>
      <trkpt lat="33.504900997504592" lon="-5.345244007185102">
        <ele>968.95330799999999</ele>
        <time>2019-03-10T16:26:41Z</time>
      </trkpt>
      <trkpt lat="33.503856025636196" lon="-5.350521001964808">
        <ele>1103.511475</ele>
        <time>2019-03-10T16:28:11Z</time>
      </trkpt>
      <trkpt lat="33.471770016476512" lon="-5.378927020356059">
        <ele>1137.968384</ele>
        <time>2019-03-10T16:35:45Z</time>
      </trkpt>
      <trkpt lat="33.405748028308153" lon="-5.308678038418293">
        <ele>1185.909668</ele>
        <time>2019-03-10T16:49:01Z</time>
      </trkpt>
      <trkpt lat="33.387164007872343" lon="-5.303184958174825">
        <ele>1603.6763920000001</ele>
        <time>2019-03-10T16:54:24Z</time>
      </trkpt>
      <trkpt lat="33.375440994277596" lon="-5.310391969978809">
        <ele>1790.3630370000001</ele>
        <time>2019-03-10T16:56:18Z</time>
      </trkpt>
      <trkpt lat="33.347437977790833" lon="-5.275567006319761">
        <ele>1752.2208250000001</ele>
        <time>2019-03-10T17:13:45Z</time>
      </trkpt>
      <trkpt lat="33.377550970762968" lon="-5.227940026670694">
        <ele>1898.0008539999999</ele>
        <time>2019-03-10T17:26:48Z</time>
      </trkpt>
      <trkpt lat="33.419700963422656" lon="-5.178263001143932">
        <ele>1910.0417480000001</ele>
        <time>2019-03-10T17:36:40Z</time>
      </trkpt>
      <trkpt lat="33.404269963502884" lon="-5.120101980865002">
        <ele>1689.377563</ele>
        <time>2019-03-11T08:18:26Z</time>
      </trkpt>
      <trkpt lat="33.426485024392605" lon="-5.068230992183089">
        <ele>0</ele>
        <time>2019-03-11T08:30:50Z</time>
      </trkpt>
      <trkpt lat="33.316820980980992" lon="-5.018745996057987">
        <ele>1527.0357670000001</ele>
        <time>2019-03-11T08:54:20Z</time>
      </trkpt>
      <trkpt lat="33.233471335843205" lon="-5.058247391134501">
        <ele>1416.5771480000001</ele>
        <time>2019-04-15T09:45:48Z</time>
      </trkpt>
      <trkpt lat="33.017894150689244" lon="-5.072649512439966">
        <ele>1427.3125</ele>
        <time>2019-04-15T09:52:13Z</time>
      </trkpt>
      <trkpt lat="32.885959977284074" lon="-4.966311994940043">
        <ele>1404.460327</ele>
        <time>2019-03-11T10:27:11Z</time>
      </trkpt>
      <trkpt lat="32.869409993290901" lon="-4.826337983831763">
        <ele>0</ele>
        <time>2019-03-11T10:37:46Z</time>
      </trkpt>
      <trkpt lat="32.813346963375807" lon="-4.759117970243096">
        <ele>3.98</ele>
        <time>2019-03-11T11:07:07Z</time>
      </trkpt>
      <trkpt lat="32.849246989935637" lon="-4.701602021232247">
        <ele>3.98</ele>
        <time>2019-03-11T11:12:36Z</time>
      </trkpt>
      <trkpt lat="32.81417291611433" lon="-4.582778150215745">
        <ele>3.98</ele>
        <time>2019-04-15T10:02:20Z</time>
      </trkpt>
      <trkpt lat="32.687003100290895" lon="-4.744777204468846">
        <ele>4.94</ele>
        <time>2019-04-15T09:43:45Z</time>
      </trkpt>
      <trkpt lat="32.70683778449893" lon="-4.788886215537787">
        <ele>4.94</ele>
        <time>2019-04-15T09:44:42Z</time>
      </trkpt>
      <trkpt lat="35.474817305803299" lon="-6.025308798998594">
        <ele>4.94</ele>
        <time>2019-03-10T10:54:23Z</time>
      </trkpt>
      <trkpt lat="35.474600633606315" lon="-6.02548398077488">
        <ele>4.94</ele>
        <time>2019-03-10T10:54:31Z</time>
      </trkpt>
      <trkpt lat="35.474065281450748" lon="-6.026039365679026">
        <ele>5.42</ele>
        <time>2019-03-10T10:54:45Z</time>
      </trkpt>
      <trkpt lat="35.474074585363269" lon="-6.026361733675003">
        <ele>4.94</ele>
        <time>2019-03-10T10:54:54Z</time>
      </trkpt>
      <trkpt lat="35.47408883459866" lon="-6.026420742273331">
        <ele>4.94</ele>
        <time>2019-03-10T10:54:55Z</time>
      </trkpt>
      <trkpt lat="35.474095875397325" lon="-6.026486959308386">
        <ele>4.94</ele>
        <time>2019-03-10T10:54:56Z</time>
      </trkpt>
      <trkpt lat="35.47409319318831" lon="-6.026559043675661">
        <ele>5.91</ele>
        <time>2019-03-10T10:54:57Z</time>
      </trkpt>
      <trkpt lat="35.474080201238394" lon="-6.026633977890015">
        <ele>6.39</ele>
        <time>2019-03-10T10:54:58Z</time>
      </trkpt>
      <trkpt lat="35.474056731909513" lon="-6.026709834113717">
        <ele>5.91</ele>
        <time>2019-03-10T10:54:59Z</time>
      </trkpt>
      <trkpt lat="35.474026892334223" lon="-6.026789210736752">
        <ele>5.42</ele>
        <time>2019-03-10T10:55:00Z</time>
      </trkpt>
      <trkpt lat="35.473542083054781" lon="-6.027760673314333">
        <ele>4.94</ele>
        <time>2019-03-10T10:55:10Z</time>
      </trkpt>
      <trkpt lat="35.472496189177036" lon="-6.029171263799071">
        <ele>4.94</ele>
        <time>2019-03-10T10:55:24Z</time>
      </trkpt>
      <trkpt lat="35.471192887052894" lon="-6.030506752431393">
        <ele>4.46</ele>
        <time>2019-03-10T10:55:40Z</time>
      </trkpt>
      <trkpt lat="35.469842562451959" lon="-6.032296121120453">
        <ele>4.46</ele>
        <time>2019-03-10T10:55:59Z</time>
      </trkpt>
      <trkpt lat="35.468449573963881" lon="-6.034185653552413">
        <ele>4.46</ele>
        <time>2019-03-10T10:56:20Z</time>
      </trkpt>
      <trkpt lat="35.46749914996326" lon="-6.03546716272831">
        <ele>4.46</ele>
        <time>2019-03-10T10:56:35Z</time>
      </trkpt>
      <trkpt lat="35.467150462791324" lon="-6.035961359739304">
        <ele>4.46</ele>
        <time>2019-03-10T10:56:43Z</time>
      </trkpt>
      <trkpt lat="35.4671292565763" lon="-6.036015506833792">
        <ele>4.46</ele>
        <time>2019-03-10T10:56:44Z</time>
      </trkpt>
      <trkpt lat="35.467116851359606" lon="-6.036065714433789">
        <ele>4.46</ele>
        <time>2019-03-10T10:56:45Z</time>
      </trkpt>
      <trkpt lat="35.467108972370625" lon="-6.036116173490882">
        <ele>4.94</ele>
        <time>2019-03-10T10:56:46Z</time>
      </trkpt>
      <trkpt lat="35.467102183029056" lon="-6.036167554557324">
        <ele>4.94</ele>
        <time>2019-03-10T10:56:47Z</time>
      </trkpt>
      <trkpt lat="35.467088185250759" lon="-6.036217259243131">
        <ele>5.42</ele>
        <time>2019-03-10T10:56:48Z</time>
      </trkpt>
      <trkpt lat="35.467066057026386" lon="-6.036258582025766">
        <ele>5.42</ele>
        <time>2019-03-10T10:56:49Z</time>
      </trkpt>
      <trkpt lat="35.467034708708525" lon="-6.036282889544964">
        <ele>7.83</ele>
        <time>2019-03-10T10:56:50Z</time>
      </trkpt>
      <trkpt lat="35.467003528028727" lon="-6.036291774362326">
        <ele>7.83</ele>
        <time>2019-03-10T10:56:51Z</time>
      </trkpt>
      <trkpt lat="35.466973772272468" lon="-6.036286745220423">
        <ele>9.75</ele>
        <time>2019-03-10T10:56:52Z</time>
      </trkpt>
      <trkpt lat="35.466944184154272" lon="-6.036273082718253">
        <ele>13.119999999999999</ele>
        <time>2019-03-10T10:56:53Z</time>
      </trkpt>
      <trkpt lat="35.466913590207696" lon="-6.03625288233161">
        <ele>16.48</ele>
        <time>2019-03-10T10:56:54Z</time>
      </trkpt>
      <trkpt lat="35.466486532241106" lon="-6.035916097462177">
        <ele>21.77</ele>
        <time>2019-03-10T10:57:06Z</time>
      </trkpt>
      <trkpt lat="35.466157039627433" lon="-6.035872427746654">
        <ele>22.25</ele>
        <time>2019-03-10T10:57:15Z</time>
      </trkpt>
      <trkpt lat="35.465645827353001" lon="-6.035488788038492">
        <ele>22.25</ele>
        <time>2019-03-10T10:57:27Z</time>
      </trkpt>
      <trkpt lat="35.465239221230149" lon="-6.035197684541345">
        <ele>24.170000000000002</ele>
        <time>2019-03-10T10:57:36Z</time>
      </trkpt>
      <trkpt lat="35.464644525200129" lon="-6.034805746749044">
        <ele>24.649999999999999</ele>
        <time>2019-03-10T10:57:46Z</time>
      </trkpt>
      <trkpt lat="35.463930387049913" lon="-6.034277686849237">
        <ele>24.649999999999999</ele>
        <time>2019-03-10T10:57:57Z</time>
      </trkpt>
      <trkpt lat="35.463561164215207" lon="-6.034065876156092">
        <ele>25.129999999999999</ele>
        <time>2019-03-10T10:58:02Z</time>
      </trkpt>
      <trkpt lat="35.463478853926063" lon="-6.034029666334391">
        <ele>24.649999999999999</ele>
        <time>2019-03-10T10:58:03Z</time>
      </trkpt>
      <trkpt lat="35.46314986422658" lon="-6.033890442922711">
        <ele>24.170000000000002</ele>
        <time>2019-03-10T10:58:07Z</time>
      </trkpt>
      <trkpt lat="35.463038384914398" lon="-6.03384836576879">
        <ele>22.73</ele>
        <time>2019-03-10T10:58:08Z</time>
      </trkpt>
      <trkpt lat="35.462969820946455" lon="-6.033786088228226">
        <ele>22.73</ele>
        <time>2019-03-10T10:58:09Z</time>
      </trkpt>
      <trkpt lat="35.462909303605556" lon="-6.033716015517712">
        <ele>27.050000000000001</ele>
        <time>2019-03-10T10:58:10Z</time>
      </trkpt>
      <trkpt lat="35.462859012186527" lon="-6.033648038282991">
        <ele>34.259999999999998</ele>
        <time>2019-03-10T10:58:11Z</time>
      </trkpt>
      <trkpt lat="35.462813414633274" lon="-6.033572936430574">
        <ele>38.109999999999999</ele>
        <time>2019-03-10T10:58:12Z</time>
      </trkpt>
      <trkpt lat="35.462635215371847" lon="-6.033187033608556">
        <ele>38.109999999999999</ele>
        <time>2019-03-10T10:58:17Z</time>
      </trkpt>
      <trkpt lat="35.462607555091381" lon="-6.033097933977842">
        <ele>38.590000000000003</ele>
        <time>2019-03-10T10:58:18Z</time>
      </trkpt>
      <trkpt lat="35.462202038615942" lon="-6.032141475006938">
        <ele>39.07</ele>
        <time>2019-03-10T10:58:27Z</time>
      </trkpt>
      <trkpt lat="35.461734076961875" lon="-6.031388361006975">
        <ele>39.07</ele>
        <time>2019-03-10T10:58:36Z</time>
      </trkpt>
      <trkpt lat="35.461591333150864" lon="-6.0311867762357">
        <ele>39.549999999999997</ele>
        <time>2019-03-10T10:58:43Z</time>
      </trkpt>
      <trkpt lat="35.461560823023319" lon="-6.031155595555902">
        <ele>39.549999999999997</ele>
        <time>2019-03-10T10:58:44Z</time>
      </trkpt>
      <trkpt lat="35.461517740041018" lon="-6.031137071549892">
        <ele>40.509999999999998</ele>
        <time>2019-03-10T10:58:45Z</time>
      </trkpt>
      <trkpt lat="35.461464514955878" lon="-6.031136652454734">
        <ele>43.880000000000003</ele>
        <time>2019-03-10T10:58:46Z</time>
      </trkpt>
      <trkpt lat="35.461406763643026" lon="-6.03114478290081">
        <ele>47.719999999999999</ele>
        <time>2019-03-10T10:58:47Z</time>
      </trkpt>
      <trkpt lat="35.46134197153151" lon="-6.031159618869424">
        <ele>49.649999999999999</ele>
        <time>2019-03-10T10:58:48Z</time>
      </trkpt>
      <trkpt lat="35.46126619912684" lon="-6.031179567798972">
        <ele>48.68</ele>
        <time>2019-03-10T10:58:49Z</time>
      </trkpt>
      <trkpt lat="35.460398839786649" lon="-6.031353324651718">
        <ele>49.649999999999999</ele>
        <time>2019-03-10T10:58:57Z</time>
      </trkpt>
      <trkpt lat="35.458882721140981" lon="-6.031733779236674">
        <ele>51.57</ele>
        <time>2019-03-10T10:59:07Z</time>
      </trkpt>
      <trkpt lat="35.458213677629828" lon="-6.032087663188577">
        <ele>51.57</ele>
        <time>2019-03-10T10:59:13Z</time>
      </trkpt>
      <trkpt lat="35.458097672089934" lon="-6.03215136565268">
        <ele>52.530000000000001</ele>
        <time>2019-03-10T10:59:18Z</time>
      </trkpt>
      <trkpt lat="35.457968423143029" lon="-6.032201992347837">
        <ele>55.409999999999997</ele>
        <time>2019-03-10T10:59:48Z</time>
      </trkpt>
      <trkpt lat="35.45737087726593" lon="-6.032476499676704">
        <ele>57.340000000000003</ele>
        <time>2019-03-10T10:59:56Z</time>
      </trkpt>
      <trkpt lat="35.456412909552455" lon="-6.032857457175851">
        <ele>57.82</ele>
        <time>2019-03-10T11:00:04Z</time>
      </trkpt>
      <trkpt lat="35.454748598858714" lon="-6.033410998061299">
        <ele>57.82</ele>
        <time>2019-03-10T11:00:15Z</time>
      </trkpt>
      <trkpt lat="35.453201215714216" lon="-6.03393092751503">
        <ele>57.82</ele>
        <time>2019-03-10T11:00:25Z</time>
      </trkpt>
      <trkpt lat="35.451353089883924" lon="-6.034548841416836">
        <ele>58.299999999999997</ele>
        <time>2019-03-10T11:00:37Z</time>
      </trkpt>
      <trkpt lat="35.450306944549084" lon="-6.034795101732016">
        <ele>58.299999999999997</ele>
        <time>2019-03-10T11:00:45Z</time>
      </trkpt>
      <trkpt lat="35.450222538784146" lon="-6.034815302118659">
        <ele>58.780000000000001</ele>
        <time>2019-03-10T11:00:46Z</time>
      </trkpt>
      <trkpt lat="35.450136624276638" lon="-6.034851847216487">
        <ele>61.659999999999997</ele>
        <time>2019-03-10T11:00:47Z</time>
      </trkpt>
      <trkpt lat="35.450041741132736" lon="-6.03489157743752">
        <ele>68.390000000000001</ele>
        <time>2019-03-10T11:00:48Z</time>
      </trkpt>
      <trkpt lat="35.449820877984166" lon="-6.03497807867825">
        <ele>70.310000000000002</ele>
        <time>2019-03-10T11:00:50Z</time>
      </trkpt>
      <trkpt lat="35.449705626815557" lon="-6.035042451694608">
        <ele>73.680000000000007</ele>
        <time>2019-03-10T11:00:51Z</time>
      </trkpt>
      <trkpt lat="35.44958995655179" lon="-6.035121995955706">
        <ele>76.560000000000002</ele>
        <time>2019-03-10T11:00:52Z</time>
      </trkpt>
      <trkpt lat="35.448119854554534" lon="-6.036094296723604">
        <ele>80.409999999999997</ele>
        <time>2019-03-10T11:01:03Z</time>
      </trkpt>
      <trkpt lat="35.445585669949651" lon="-6.037706388160586">
        <ele>84.25</ele>
        <time>2019-03-10T11:01:19Z</time>
      </trkpt>
      <trkpt lat="35.443343678489327" lon="-6.039127791300416">
        <ele>86.659999999999997</ele>
        <time>2019-03-10T11:01:35Z</time>
      </trkpt>
      <trkpt lat="35.441532181575894" lon="-6.039917198941112">
        <ele>88.579999999999998</ele>
        <time>2019-03-10T11:01:48Z</time>
      </trkpt>
      <trkpt lat="35.439655305817723" lon="-6.040115347132087">
        <ele>84.25</ele>
        <time>2019-03-10T11:02:01Z</time>
      </trkpt>
      <trkpt lat="35.438007172197104" lon="-6.039758529514074">
        <ele>76.079999999999998</ele>
        <time>2019-03-10T11:02:12Z</time>
      </trkpt>
      <trkpt lat="35.435871798545122" lon="-6.038780026137829">
        <ele>67.909999999999997</ele>
        <time>2019-03-10T11:02:27Z</time>
      </trkpt>
      <trkpt lat="35.434104641899467" lon="-6.03795331902802">
        <ele>60.700000000000003</ele>
        <time>2019-03-10T11:02:40Z</time>
      </trkpt>
      <trkpt lat="35.43171051889658" lon="-6.036848500370979">
        <ele>51.090000000000003</ele>
        <time>2019-03-10T11:02:57Z</time>
      </trkpt>
      <trkpt lat="35.429487051442266" lon="-6.035906374454498">
        <ele>43.880000000000003</ele>
        <time>2019-03-10T11:03:12Z</time>
      </trkpt>
      <trkpt lat="35.427325526252389" lon="-6.035265242680907">
        <ele>41.469999999999999</ele>
        <time>2019-03-10T11:03:25Z</time>
      </trkpt>
      <trkpt lat="35.425796248018742" lon="-6.034512128680944">
        <ele>36.189999999999998</ele>
        <time>2019-03-10T11:03:34Z</time>
      </trkpt>
      <trkpt lat="35.424721268936992" lon="-6.033355174586177">
        <ele>40.030000000000001</ele>
        <time>2019-03-10T11:03:42Z</time>
      </trkpt>
      <trkpt lat="35.423810742795467" lon="-6.031587012112141">
        <ele>46.280000000000001</ele>
        <time>2019-03-10T11:03:52Z</time>
      </trkpt>
      <trkpt lat="35.422178953886032" lon="-6.028469698503614">
        <ele>50.609999999999999</ele>
        <time>2019-03-10T11:04:10Z</time>
      </trkpt>
      <trkpt lat="35.421005235984921" lon="-6.026639845222235">
        <ele>49.159999999999997</ele>
        <time>2019-03-10T11:04:21Z</time>
      </trkpt>
      <trkpt lat="35.419457517564297" lon="-6.024296432733536">
        <ele>50.609999999999999</ele>
        <time>2019-03-10T11:04:36Z</time>
      </trkpt>
      <trkpt lat="35.418374827131629" lon="-6.023348858579993">
        <ele>49.649999999999999</ele>
        <time>2019-03-10T11:04:46Z</time>
      </trkpt>
      <trkpt lat="35.416956357657909" lon="-6.022771596908569">
        <ele>52.530000000000001</ele>
        <time>2019-03-10T11:04:56Z</time>
      </trkpt>
      <trkpt lat="35.414648652076721" lon="-6.02216768078506">
        <ele>59.259999999999998</ele>
        <time>2019-03-10T11:05:11Z</time>
      </trkpt>
      <trkpt lat="35.412795078009367" lon="-6.021643644198775">
        <ele>57.340000000000003</ele>
        <time>2019-03-10T11:05:21Z</time>
      </trkpt>
      <trkpt lat="35.410246811807156" lon="-6.020982814952731">
        <ele>58.780000000000001</ele>
        <time>2019-03-10T11:05:32Z</time>
      </trkpt>
      <trkpt lat="35.406933277845383" lon="-6.020193323493004">
        <ele>61.659999999999997</ele>
        <time>2019-03-10T11:05:45Z</time>
      </trkpt>
      <trkpt lat="35.403793165460229" lon="-6.019988637417555">
        <ele>62.619999999999997</ele>
        <time>2019-03-10T11:05:57Z</time>
      </trkpt>
      <trkpt lat="35.399635657668114" lon="-6.019910937175155">
        <ele>64.069999999999993</ele>
        <time>2019-03-10T11:06:13Z</time>
      </trkpt>
      <trkpt lat="35.395445628091693" lon="-6.020327098667622">
        <ele>68.870000000000005</ele>
        <time>2019-03-10T11:06:29Z</time>
      </trkpt>
      <trkpt lat="35.393640417605639" lon="-6.020967727527022">
        <ele>77.040000000000006</ele>
        <time>2019-03-10T11:06:37Z</time>
      </trkpt>
      <trkpt lat="35.390500640496612" lon="-6.022192155942321">
        <ele>87.140000000000001</ele>
        <time>2019-03-10T11:06:51Z</time>
      </trkpt>
      <trkpt lat="35.388559056445956" lon="-6.022458197548986">
        <ele>91.459999999999994</ele>
        <time>2019-03-10T11:07:00Z</time>
      </trkpt>
      <trkpt lat="35.386480009183288" lon="-6.022315369918943">
        <ele>98.189999999999998</ele>
        <time>2019-03-10T11:07:09Z</time>
      </trkpt>
      <trkpt lat="35.384292667731643" lon="-6.021655630320311">
        <ele>100.59999999999999</ele>
        <time>2019-03-10T11:07:18Z</time>
      </trkpt>
      <trkpt lat="35.382582172751427" lon="-6.020734375342727">
        <ele>99.150000000000006</ele>
        <time>2019-03-10T11:07:26Z</time>
      </trkpt>
      <trkpt lat="35.380673613399267" lon="-6.019178777933121">
        <ele>103.48</ele>
        <time>2019-03-10T11:07:36Z</time>
      </trkpt>
      <trkpt lat="35.378548549488187" lon="-6.016785828396678">
        <ele>107.81</ele>
        <time>2019-03-10T11:07:48Z</time>
      </trkpt>
      <trkpt lat="35.377000831067562" lon="-6.015578918159008">
        <ele>106.36</ele>
        <time>2019-03-10T11:07:56Z</time>
      </trkpt>
      <trkpt lat="35.374983558431268" lon="-6.014650873839855">
        <ele>103.48</ele>
        <time>2019-03-10T11:08:05Z</time>
      </trkpt>
      <trkpt lat="35.372997801750898" lon="-6.014354322105646">
        <ele>104.44</ele>
        <time>2019-03-10T11:08:13Z</time>
      </trkpt>
      <trkpt lat="35.371011458337307" lon="-6.014580884948373">
        <ele>103.95999999999999</ele>
        <time>2019-03-10T11:08:21Z</time>
      </trkpt>
      <trkpt lat="35.368924280628562" lon="-6.015435671433806">
        <ele>103</ele>
        <time>2019-03-10T11:08:30Z</time>
      </trkpt>
      <trkpt lat="35.366743057966232" lon="-6.016222648322582">
        <ele>101.56</ele>
        <time>2019-03-10T11:08:40Z</time>
      </trkpt>
      <trkpt lat="35.364946145564318" lon="-6.016183672472835">
        <ele>101.56</ele>
        <time>2019-03-10T11:08:48Z</time>
      </trkpt>
      <trkpt lat="35.363319469615817" lon="-6.015649577602744">
        <ele>99.629999999999995</ele>
        <time>2019-03-10T11:08:56Z</time>
      </trkpt>
      <trkpt lat="35.361645938828588" lon="-6.014571245759726">
        <ele>94.829999999999998</ele>
        <time>2019-03-10T11:09:06Z</time>
      </trkpt>
      <trkpt lat="35.360188158228993" lon="-6.013532560318708">
        <ele>90.5</ele>
        <time>2019-03-10T11:09:14Z</time>
      </trkpt>
      <trkpt lat="35.35801699385047" lon="-6.012066313996911">
        <ele>89.540000000000006</ele>
        <time>2019-03-10T11:09:27Z</time>
      </trkpt>
      <trkpt lat="35.356534402817488" lon="-6.011402970179915">
        <ele>89.060000000000002</ele>
        <time>2019-03-10T11:09:34Z</time>
      </trkpt>
      <trkpt lat="35.354145895689726" lon="-6.011088229715824">
        <ele>90.980000000000004</ele>
        <time>2019-03-10T11:09:44Z</time>
      </trkpt>
      <trkpt lat="35.350911905989051" lon="-6.011390900239348">
        <ele>92.900000000000006</ele>
        <time>2019-03-10T11:09:57Z</time>
      </trkpt>
      <trkpt lat="35.348160965368152" lon="-6.011494165286422">
        <ele>94.349999999999994</ele>
        <time>2019-03-10T11:10:08Z</time>
      </trkpt>
      <trkpt lat="35.346387857571244" lon="-6.010861331596971">
        <ele>96.75</ele>
        <time>2019-03-10T11:10:15Z</time>
      </trkpt>
      <trkpt lat="35.344563284888864" lon="-6.009528273716569">
        <ele>100.59999999999999</ele>
        <time>2019-03-10T11:10:23Z</time>
      </trkpt>
      <trkpt lat="35.342281730845571" lon="-6.008077785372734">
        <ele>101.08</ele>
        <time>2019-03-10T11:10:33Z</time>
      </trkpt>
      <trkpt lat="35.339025529101491" lon="-6.007103892043233">
        <ele>100.59999999999999</ele>
        <time>2019-03-10T11:10:46Z</time>
      </trkpt>
      <trkpt lat="35.337061984464526" lon="-6.007205732166767">
        <ele>99.629999999999995</ele>
        <time>2019-03-10T11:10:54Z</time>
      </trkpt>
      <trkpt lat="35.335416616871953" lon="-6.00734026171267">
        <ele>100.11</ele>
        <time>2019-03-10T11:11:03Z</time>
      </trkpt>
      <trkpt lat="35.333822630345821" lon="-6.007087798789144">
        <ele>100.11</ele>
        <time>2019-03-10T11:11:13Z</time>
      </trkpt>
      <trkpt lat="35.332980416715145" lon="-6.006762748584151">
        <ele>99.629999999999995</ele>
        <time>2019-03-10T11:11:21Z</time>
      </trkpt>
      <trkpt lat="35.33284236676991" lon="-6.00672117434442">
        <ele>99.629999999999995</ele>
        <time>2019-03-10T11:11:23Z</time>
      </trkpt>
      <trkpt lat="35.332395192235708" lon="-6.006672643125057">
        <ele>99.629999999999995</ele>
        <time>2019-03-10T11:11:31Z</time>
      </trkpt>
      <trkpt lat="35.332361916080117" lon="-6.006605755537748">
        <ele>100.11</ele>
        <time>2019-03-10T11:11:32Z</time>
      </trkpt>
      <trkpt lat="35.332345152273774" lon="-6.006527384743094">
        <ele>100.11</ele>
        <time>2019-03-10T11:11:33Z</time>
      </trkpt>
      <trkpt lat="35.332335764542222" lon="-6.006441554054618">
        <ele>100.11</ele>
        <time>2019-03-10T11:11:34Z</time>
      </trkpt>
      <trkpt lat="35.332321347668767" lon="-6.00635027512908">
        <ele>102.04000000000001</ele>
        <time>2019-03-10T11:11:35Z</time>
      </trkpt>
      <trkpt lat="35.332295279949903" lon="-6.006254469975829">
        <ele>103</ele>
        <time>2019-03-10T11:11:36Z</time>
      </trkpt>
      <trkpt lat="35.332255885004997" lon="-6.00615774281323">
        <ele>106.84</ele>
        <time>2019-03-10T11:11:37Z</time>
      </trkpt>
      <trkpt lat="35.332204671576619" lon="-6.006060428917408">
        <ele>103</ele>
        <time>2019-03-10T11:11:38Z</time>
      </trkpt>
      <trkpt lat="35.332143399864435" lon="-6.005959091708064">
        <ele>99.629999999999995</ele>
        <time>2019-03-10T11:11:39Z</time>
      </trkpt>
      <trkpt lat="35.331425238400698" lon="-6.004830971360207">
        <ele>98.189999999999998</ele>
        <time>2019-03-10T11:11:48Z</time>
      </trkpt>
      <trkpt lat="35.330447908490896" lon="-6.003245785832405">
        <ele>98.189999999999998</ele>
        <time>2019-03-10T11:12:00Z</time>
      </trkpt>
      <trkpt lat="35.3293770365417" lon="-6.001579379662871">
        <ele>100.59999999999999</ele>
        <time>2019-03-10T11:12:11Z</time>
      </trkpt>
      <trkpt lat="35.327749522402883" lon="-5.999648021534085">
        <ele>102.04000000000001</ele>
        <time>2019-03-10T11:12:24Z</time>
      </trkpt>
      <trkpt lat="35.326351001858711" lon="-5.998058142140508">
        <ele>104.44</ele>
        <time>2019-03-10T11:12:33Z</time>
      </trkpt>
      <trkpt lat="35.324298441410065" lon="-5.995591348037124">
        <ele>107.81</ele>
        <time>2019-03-10T11:12:46Z</time>
      </trkpt>
      <trkpt lat="35.322438329458237" lon="-5.993504924699664">
        <ele>110.20999999999999</ele>
        <time>2019-03-10T11:12:56Z</time>
      </trkpt>
      <trkpt lat="35.320107070729136" lon="-5.991465356200934">
        <ele>111.65000000000001</ele>
        <time>2019-03-10T11:13:07Z</time>
      </trkpt>
      <trkpt lat="35.317614628002048" lon="-5.989575991407037">
        <ele>115.5</ele>
        <time>2019-03-10T11:13:19Z</time>
      </trkpt>
      <trkpt lat="35.313521241769195" lon="-5.986539646983147">
        <ele>120.78</ele>
        <time>2019-03-10T11:13:38Z</time>
      </trkpt>
      <trkpt lat="35.311699770390987" lon="-5.98542669788003">
        <ele>124.15000000000001</ele>
        <time>2019-03-10T11:13:47Z</time>
      </trkpt>
      <trkpt lat="35.309681072831154" lon="-5.984215009957552">
        <ele>129.91999999999999</ele>
        <time>2019-03-10T11:13:59Z</time>
      </trkpt>
      <trkpt lat="35.307703195139766" lon="-5.983079513534904">
        <ele>131.36000000000001</ele>
        <time>2019-03-10T11:14:12Z</time>
      </trkpt>
      <trkpt lat="35.306330155581236" lon="-5.982692604884505">
        <ele>128.47</ele>
        <time>2019-03-10T11:14:21Z</time>
      </trkpt>
      <trkpt lat="35.304566519334912" lon="-5.982659412547946">
        <ele>123.19</ele>
        <time>2019-03-10T11:14:33Z</time>
      </trkpt>
      <trkpt lat="35.302977561950684" lon="-5.982862925156951">
        <ele>117.42</ele>
        <time>2019-03-10T11:14:44Z</time>
      </trkpt>
      <trkpt lat="35.300655271857977" lon="-5.983667839318514">
        <ele>111.65000000000001</ele>
        <time>2019-03-10T11:14:59Z</time>
      </trkpt>
      <trkpt lat="35.299292793497443" lon="-5.983776217326522">
        <ele>105.88</ele>
        <time>2019-03-10T11:15:08Z</time>
      </trkpt>
      <trkpt lat="35.29785605147481" lon="-5.983337089419365">
        <ele>99.629999999999995</ele>
        <time>2019-03-10T11:15:17Z</time>
      </trkpt>
      <trkpt lat="35.296411430463195" lon="-5.982261439785361">
        <ele>89.060000000000002</ele>
        <time>2019-03-10T11:15:27Z</time>
      </trkpt>
      <trkpt lat="35.295039815828204" lon="-5.981430122628808">
        <ele>84.25</ele>
        <time>2019-03-10T11:15:36Z</time>
      </trkpt>
      <trkpt lat="35.293665938079357" lon="-5.98125628195703">
        <ele>78</ele>
        <time>2019-03-10T11:15:44Z</time>
      </trkpt>
      <trkpt lat="35.292158620432019" lon="-5.981558701023459">
        <ele>74.159999999999997</ele>
        <time>2019-03-10T11:15:53Z</time>
      </trkpt>
      <trkpt lat="35.290622971951962" lon="-5.982131520286202">
        <ele>70.790000000000006</ele>
        <time>2019-03-10T11:16:01Z</time>
      </trkpt>
      <trkpt lat="35.287629878148437" lon="-5.983339017257094">
        <ele>67.909999999999997</ele>
        <time>2019-03-10T11:16:14Z</time>
      </trkpt>
      <trkpt lat="35.285778818652034" lon="-5.983717376366258">
        <ele>65.030000000000001</ele>
        <time>2019-03-10T11:16:22Z</time>
      </trkpt>
      <trkpt lat="35.282253809273243" lon="-5.983540769666433">
        <ele>60.700000000000003</ele>
        <time>2019-03-10T11:16:36Z</time>
      </trkpt>
      <trkpt lat="35.278714383020997" lon="-5.983301969245076">
        <ele>55.890000000000001</ele>
        <time>2019-03-10T11:16:50Z</time>
      </trkpt>
      <trkpt lat="35.275616180151701" lon="-5.98240208812058">
        <ele>52.049999999999997</ele>
        <time>2019-03-10T11:17:03Z</time>
      </trkpt>
      <trkpt lat="35.274068377912045" lon="-5.981961116194725">
        <ele>54.93</ele>
        <time>2019-03-10T11:17:11Z</time>
      </trkpt>
      <trkpt lat="35.272389147430658" lon="-5.981705635786057">
        <ele>61.659999999999997</ele>
        <time>2019-03-10T11:17:20Z</time>
      </trkpt>
      <trkpt lat="35.270242542028427" lon="-5.98175123333931">
        <ele>70.310000000000002</ele>
        <time>2019-03-10T11:17:29Z</time>
      </trkpt>
      <trkpt lat="35.266227778047323" lon="-5.98158510401845">
        <ele>81.849999999999994</ele>
        <time>2019-03-10T11:17:45Z</time>
      </trkpt>
      <trkpt lat="35.261735916137695" lon="-5.981455352157354">
        <ele>84.25</ele>
        <time>2019-03-10T11:18:02Z</time>
      </trkpt>
      <trkpt lat="35.259158480912447" lon="-5.981293246150017">
        <ele>83.290000000000006</ele>
        <time>2019-03-10T11:18:12Z</time>
      </trkpt>
      <trkpt lat="35.255604805424809" lon="-5.980700142681599">
        <ele>78</ele>
        <time>2019-03-10T11:18:26Z</time>
      </trkpt>
      <trkpt lat="35.25419807061553" lon="-5.979987513273954">
        <ele>73.680000000000007</ele>
        <time>2019-03-10T11:18:32Z</time>
      </trkpt>
      <trkpt lat="35.25199337862432" lon="-5.978606762364507">
        <ele>67.430000000000007</ele>
        <time>2019-03-10T11:18:42Z</time>
      </trkpt>
      <trkpt lat="35.250487737357616" lon="-5.978425461798906">
        <ele>62.619999999999997</ele>
        <time>2019-03-10T11:18:48Z</time>
      </trkpt>
      <trkpt lat="35.249186279252172" lon="-5.978715475648642">
        <ele>62.619999999999997</ele>
        <time>2019-03-10T11:18:54Z</time>
      </trkpt>
      <trkpt lat="35.246960045769811" lon="-5.979311177507043">
        <ele>62.140000000000001</ele>
        <time>2019-03-10T11:19:05Z</time>
      </trkpt>
      <trkpt lat="35.244428459554911" lon="-5.979949627071619">
        <ele>61.659999999999997</ele>
        <time>2019-03-10T11:19:16Z</time>
      </trkpt>
      <trkpt lat="35.240492066368461" lon="-5.980971213430166">
        <ele>61.659999999999997</ele>
        <time>2019-03-10T11:19:32Z</time>
      </trkpt>
      <trkpt lat="35.238851644098759" lon="-5.981026869267225">
        <ele>61.18</ele>
        <time>2019-03-10T11:19:39Z</time>
      </trkpt>
      <trkpt lat="35.238633463159204" lon="-5.980989653617144">
        <ele>60.700000000000003</ele>
        <time>2019-03-10T11:19:40Z</time>
      </trkpt>
      <trkpt lat="35.238420814275742" lon="-5.980928298085928">
        <ele>59.740000000000002</ele>
        <time>2019-03-10T11:19:41Z</time>
      </trkpt>
      <trkpt lat="35.238212021067739" lon="-5.980849172919989">
        <ele>57.82</ele>
        <time>2019-03-10T11:19:42Z</time>
      </trkpt>
      <trkpt lat="35.238010855391622" lon="-5.980753535404801">
        <ele>55.890000000000001</ele>
        <time>2019-03-10T11:19:43Z</time>
      </trkpt>
      <trkpt lat="35.237811282277107" lon="-5.98064742051065">
        <ele>54.93</ele>
        <time>2019-03-10T11:19:44Z</time>
      </trkpt>
      <trkpt lat="35.235894341021776" lon="-5.979798417538405">
        <ele>53.969999999999999</ele>
        <time>2019-03-10T11:19:54Z</time>
      </trkpt>
      <trkpt lat="35.234565725550056" lon="-5.979739995673299">
        <ele>53.969999999999999</ele>
        <time>2019-03-10T11:20:02Z</time>
      </trkpt>
      <trkpt lat="35.232425574213266" lon="-5.980340139940381">
        <ele>52.049999999999997</ele>
        <time>2019-03-10T11:20:17Z</time>
      </trkpt>
      <trkpt lat="35.231018252670765" lon="-5.98071145825088">
        <ele>49.159999999999997</ele>
        <time>2019-03-10T11:20:27Z</time>
      </trkpt>
      <trkpt lat="35.229530548676848" lon="-5.981172965839505">
        <ele>43.880000000000003</ele>
        <time>2019-03-10T11:20:37Z</time>
      </trkpt>
      <trkpt lat="35.229232152923942" lon="-5.981278326362371">
        <ele>43.399999999999999</ele>
        <time>2019-03-10T11:20:40Z</time>
      </trkpt>
      <trkpt lat="35.228963010013103" lon="-5.981413191184402">
        <ele>42.920000000000002</ele>
        <time>2019-03-10T11:20:46Z</time>
      </trkpt>
      <trkpt lat="35.228400500491261" lon="-5.981493825092912">
        <ele>42.920000000000002</ele>
        <time>2019-03-10T11:20:57Z</time>
      </trkpt>
      <trkpt lat="35.22760153748095" lon="-5.981724159792066">
        <ele>42.920000000000002</ele>
        <time>2019-03-10T11:21:04Z</time>
      </trkpt>
      <trkpt lat="35.2264713216573" lon="-5.981800016015768">
        <ele>40.030000000000001</ele>
        <time>2019-03-10T11:21:11Z</time>
      </trkpt>
      <trkpt lat="35.226303096860647" lon="-5.981749221682549">
        <ele>34.740000000000002</ele>
        <time>2019-03-10T11:21:12Z</time>
      </trkpt>
      <trkpt lat="35.226135961711407" lon="-5.981679484248161">
        <ele>28.02</ele>
        <time>2019-03-10T11:21:13Z</time>
      </trkpt>
      <trkpt lat="35.225971173495054" lon="-5.98159683868289">
        <ele>31.379999999999999</ele>
        <time>2019-03-10T11:21:14Z</time>
      </trkpt>
      <trkpt lat="35.223743347451091" lon="-5.980371655896306">
        <ele>34.259999999999998</ele>
        <time>2019-03-10T11:21:27Z</time>
      </trkpt>
      <trkpt lat="35.221464978531003" lon="-5.978960813954473">
        <ele>39.549999999999997</ele>
        <time>2019-03-10T11:21:40Z</time>
      </trkpt>
      <trkpt lat="35.22002287209034" lon="-5.977912154048681">
        <ele>49.159999999999997</ele>
        <time>2019-03-10T11:21:50Z</time>
      </trkpt>
      <trkpt lat="35.218107104301453" lon="-5.976522183045745">
        <ele>54.450000000000003</ele>
        <time>2019-03-10T11:22:04Z</time>
      </trkpt>
      <trkpt lat="35.216062506660819" lon="-5.975052332505584">
        <ele>62.619999999999997</ele>
        <time>2019-03-10T11:22:19Z</time>
      </trkpt>
      <trkpt lat="35.213904669508338" lon="-5.973508972674608">
        <ele>68.390000000000001</ele>
        <time>2019-03-10T11:22:35Z</time>
      </trkpt>
      <trkpt lat="35.212110104039311" lon="-5.972213381901383">
        <ele>70.790000000000006</ele>
        <time>2019-03-10T11:22:46Z</time>
      </trkpt>
      <trkpt lat="35.210139518603683" lon="-5.971052655950189">
        <ele>70.310000000000002</ele>
        <time>2019-03-10T11:22:57Z</time>
      </trkpt>
      <trkpt lat="35.208688359707594" lon="-5.970927178859711">
        <ele>64.549999999999997</ele>
        <time>2019-03-10T11:23:05Z</time>
      </trkpt>
      <trkpt lat="35.206760941073298" lon="-5.971317356452346">
        <ele>55.409999999999997</ele>
        <time>2019-03-10T11:23:15Z</time>
      </trkpt>
      <trkpt lat="35.204793540760875" lon="-5.97177249379456">
        <ele>45.32</ele>
        <time>2019-03-10T11:23:27Z</time>
      </trkpt>
      <trkpt lat="35.203013978898525" lon="-5.972138363867998">
        <ele>40.509999999999998</ele>
        <time>2019-03-10T11:23:38Z</time>
      </trkpt>
      <trkpt lat="35.201480174437165" lon="-5.972515130415559">
        <ele>37.630000000000003</ele>
        <time>2019-03-10T11:23:45Z</time>
      </trkpt>
      <trkpt lat="35.198972895741463" lon="-5.973364049568772">
        <ele>36.670000000000002</ele>
        <time>2019-03-10T11:23:56Z</time>
      </trkpt>
      <trkpt lat="35.196206029504538" lon="-5.974441794678569">
        <ele>35.229999999999997</ele>
        <time>2019-03-10T11:24:09Z</time>
      </trkpt>
      <trkpt lat="35.192359574139118" lon="-5.975918769836426">
        <ele>36.670000000000002</ele>
        <time>2019-03-10T11:24:26Z</time>
      </trkpt>
      <trkpt lat="35.188632309436798" lon="-5.977357355877757">
        <ele>37.630000000000003</ele>
        <time>2019-03-10T11:24:42Z</time>
      </trkpt>
      <trkpt lat="35.186077589169145" lon="-5.978047773241997">
        <ele>38.590000000000003</ele>
        <time>2019-03-10T11:24:53Z</time>
      </trkpt>
      <trkpt lat="35.182325346395373" lon="-5.978491846472025">
        <ele>36.670000000000002</ele>
        <time>2019-03-10T11:25:08Z</time>
      </trkpt>
      <trkpt lat="35.17785519361496" lon="-5.978858890011907">
        <ele>28.02</ele>
        <time>2019-03-10T11:25:26Z</time>
      </trkpt>
      <trkpt lat="35.175869101658463" lon="-5.978424791246653">
        <ele>11.19</ele>
        <time>2019-03-10T11:25:34Z</time>
      </trkpt>
      <trkpt lat="35.173951741307974" lon="-5.977429859340191">
        <ele>5.91</ele>
        <time>2019-03-10T11:25:43Z</time>
      </trkpt>
      <trkpt lat="35.171303562819958" lon="-5.975719867274165">
        <ele>5.42</ele>
        <time>2019-03-10T11:25:57Z</time>
      </trkpt>
      <trkpt lat="35.169330630451441" lon="-5.974835744127631">
        <ele>6.39</ele>
        <time>2019-03-10T11:26:07Z</time>
      </trkpt>
      <trkpt lat="35.167130213230848" lon="-5.974517231807113">
        <ele>6.39</ele>
        <time>2019-03-10T11:26:17Z</time>
      </trkpt>
      <trkpt lat="35.163856828585267" lon="-5.974568361416459">
        <ele>4.46</ele>
        <time>2019-03-10T11:26:30Z</time>
      </trkpt>
      <trkpt lat="35.161053920164704" lon="-5.974626112729311">
        <ele>4.94</ele>
        <time>2019-03-10T11:26:43Z</time>
      </trkpt>
      <trkpt lat="35.158198624849319" lon="-5.974493511021137">
        <ele>4.94</ele>
        <time>2019-03-10T11:26:56Z</time>
      </trkpt>
      <trkpt lat="35.156180681660771" lon="-5.97397131845355">
        <ele>4.46</ele>
        <time>2019-03-10T11:27:05Z</time>
      </trkpt>
      <trkpt lat="35.154588203877211" lon="-5.973288109526038">
        <ele>4.94</ele>
        <time>2019-03-10T11:27:12Z</time>
      </trkpt>
      <trkpt lat="35.1531330216676" lon="-5.971976844593883">
        <ele>4.46</ele>
        <time>2019-03-10T11:27:19Z</time>
      </trkpt>
      <trkpt lat="35.151467369869351" lon="-5.970766413956881">
        <ele>3.98</ele>
        <time>2019-03-10T11:27:27Z</time>
      </trkpt>
      <trkpt lat="35.150002799928188" lon="-5.970469610765576">
        <ele>3.5</ele>
        <time>2019-03-10T11:27:33Z</time>
      </trkpt>
      <trkpt lat="35.146088451147079" lon="-5.970413284376264">
        <ele>3.98</ele>
        <time>2019-03-10T11:27:48Z</time>
      </trkpt>
      <trkpt lat="35.142008056864142" lon="-5.970337176695466">
        <ele>4.46</ele>
        <time>2019-03-10T11:28:04Z</time>
      </trkpt>
      <trkpt lat="35.139746367931366" lon="-5.970290657132864">
        <ele>3.5</ele>
        <time>2019-03-10T11:28:14Z</time>
      </trkpt>
      <trkpt lat="35.137836635112762" lon="-5.970245143398643">
        <ele>3.02</ele>
        <time>2019-03-10T11:28:24Z</time>
      </trkpt>
      <trkpt lat="35.135930003598332" lon="-5.970210107043386">
        <ele>2.54</ele>
        <time>2019-03-10T11:28:33Z</time>
      </trkpt>
      <trkpt lat="35.131482733413577" lon="-5.97012042067945">
        <ele>2.54</ele>
        <time>2019-03-10T11:28:53Z</time>
      </trkpt>
      <trkpt lat="35.129321375861764" lon="-5.969882123172283">
        <ele>2.54</ele>
        <time>2019-03-10T11:29:04Z</time>
      </trkpt>
      <trkpt lat="35.12760266661644" lon="-5.969250798225403">
        <ele>2.06</ele>
        <time>2019-03-10T11:29:12Z</time>
      </trkpt>
      <trkpt lat="35.125729897990823" lon="-5.967935090884566">
        <ele>2.54</ele>
        <time>2019-03-10T11:29:21Z</time>
      </trkpt>
      <trkpt lat="35.123627297580242" lon="-5.965815810486674">
        <ele>3.02</ele>
        <time>2019-03-10T11:29:32Z</time>
      </trkpt>
      <trkpt lat="35.12055373750627" lon="-5.962902931496501">
        <ele>2.54</ele>
        <time>2019-03-10T11:29:48Z</time>
      </trkpt>
      <trkpt lat="35.119145326316357" lon="-5.962010845541954">
        <ele>2.06</ele>
        <time>2019-03-10T11:29:56Z</time>
      </trkpt>
      <trkpt lat="35.116850696504116" lon="-5.960976183414459">
        <ele>2.54</ele>
        <time>2019-03-10T11:30:08Z</time>
      </trkpt>
      <trkpt lat="35.115083958953619" lon="-5.960187111049891">
        <ele>3.5</ele>
        <time>2019-03-10T11:30:19Z</time>
      </trkpt>
      <trkpt lat="35.113570438697934" lon="-5.959573136642575">
        <ele>3.98</ele>
        <time>2019-03-10T11:30:28Z</time>
      </trkpt>
      <trkpt lat="35.111888693645597" lon="-5.958926975727081">
        <ele>3.98</ele>
        <time>2019-03-10T11:30:36Z</time>
      </trkpt>
      <trkpt lat="35.108413053676486" lon="-5.957763567566872">
        <ele>3.98</ele>
        <time>2019-03-10T11:30:50Z</time>
      </trkpt>
      <trkpt lat="35.105014862492681" lon="-5.956649277359247">
        <ele>3.98</ele>
        <time>2019-03-10T11:31:03Z</time>
      </trkpt>
      <trkpt lat="35.101738041266799" lon="-5.95538922585547">
        <ele>4.94</ele>
        <time>2019-03-10T11:31:16Z</time>
      </trkpt>
      <trkpt lat="35.099839875474572" lon="-5.954002272337675">
        <ele>5.42</ele>
        <time>2019-03-10T11:31:25Z</time>
      </trkpt>
      <trkpt lat="35.096878968179226" lon="-5.951929427683353">
        <ele>4.94</ele>
        <time>2019-03-10T11:31:39Z</time>
      </trkpt>
      <trkpt lat="35.093113984912634" lon="-5.950117260217667">
        <ele>4.46</ele>
        <time>2019-03-10T11:31:55Z</time>
      </trkpt>
      <trkpt lat="35.090901497751474" lon="-5.94904538244009">
        <ele>6.39</ele>
        <time>2019-03-10T11:32:06Z</time>
      </trkpt>
      <trkpt lat="35.08791821077466" lon="-5.947435135021806">
        <ele>6.39</ele>
        <time>2019-03-10T11:32:22Z</time>
      </trkpt>
      <trkpt lat="35.085579324513674" lon="-5.946092940866947">
        <ele>6.87</ele>
        <time>2019-03-10T11:32:34Z</time>
      </trkpt>
      <trkpt lat="35.08257164619863" lon="-5.944345397874713">
        <ele>6.87</ele>
        <time>2019-03-10T11:32:50Z</time>
      </trkpt>
      <trkpt lat="35.080493437126279" lon="-5.943159526214004">
        <ele>13.119999999999999</ele>
        <time>2019-03-10T11:33:00Z</time>
      </trkpt>
      <trkpt lat="35.078099817037582" lon="-5.941636869683862">
        <ele>16.48</ele>
        <time>2019-03-10T11:33:12Z</time>
      </trkpt>
      <trkpt lat="35.075687589123845" lon="-5.939416671171784">
        <ele>15.039999999999999</ele>
        <time>2019-03-10T11:33:25Z</time>
      </trkpt>
      <trkpt lat="35.072880573570728" lon="-5.936838146299124">
        <ele>9.27</ele>
        <time>2019-03-10T11:33:40Z</time>
      </trkpt>
      <trkpt lat="35.07043213583529" lon="-5.934569416567683">
        <ele>8.789999999999999</ele>
        <time>2019-03-10T11:33:54Z</time>
      </trkpt>
      <trkpt lat="35.068319393321872" lon="-5.932830339297652">
        <ele>13.6</ele>
        <time>2019-03-10T11:34:07Z</time>
      </trkpt>
      <trkpt lat="35.067028161138296" lon="-5.932088037952781">
        <ele>16.48</ele>
        <time>2019-03-10T11:34:16Z</time>
      </trkpt>
      <trkpt lat="35.065711364150047" lon="-5.931404326111078">
        <ele>14.08</ele>
        <time>2019-03-10T11:34:27Z</time>
      </trkpt>
      <trkpt lat="35.064503867179155" lon="-5.930382404476404">
        <ele>9.27</ele>
        <time>2019-03-10T11:34:38Z</time>
      </trkpt>
      <trkpt lat="35.063701048493385" lon="-5.929140793159604">
        <ele>9.75</ele>
        <time>2019-03-10T11:34:47Z</time>
      </trkpt>
      <trkpt lat="35.063181119039655" lon="-5.927511770278215">
        <ele>11.19</ele>
        <time>2019-03-10T11:34:58Z</time>
      </trkpt>
      <trkpt lat="35.063094282522798" lon="-5.926003195345402">
        <ele>12.630000000000001</ele>
        <time>2019-03-10T11:35:08Z</time>
      </trkpt>
      <trkpt lat="35.063233757391572" lon="-5.924482718110085">
        <ele>12.630000000000001</ele>
        <time>2019-03-10T11:35:17Z</time>
      </trkpt>
      <trkpt lat="35.063412627205253" lon="-5.922140562906861">
        <ele>13.119999999999999</ele>
        <time>2019-03-10T11:35:27Z</time>
      </trkpt>
      <trkpt lat="35.063653271645308" lon="-5.919474698603153">
        <ele>15.52</ele>
        <time>2019-03-10T11:35:39Z</time>
      </trkpt>
      <trkpt lat="35.063559645786881" lon="-5.91787132434547">
        <ele>17.920000000000002</ele>
        <time>2019-03-10T11:35:47Z</time>
      </trkpt>
      <trkpt lat="35.062976768240333" lon="-5.916685620322824">
        <ele>17.440000000000001</ele>
        <time>2019-03-10T11:35:54Z</time>
      </trkpt>
      <trkpt lat="35.061909081414342" lon="-5.915762688964605">
        <ele>16.960000000000001</ele>
        <time>2019-03-10T11:36:02Z</time>
      </trkpt>
      <trkpt lat="35.06038885563612" lon="-5.914627946913242">
        <ele>17.920000000000002</ele>
        <time>2019-03-10T11:36:12Z</time>
      </trkpt>
      <trkpt lat="35.058541232720017" lon="-5.913245268166065">
        <ele>18.399999999999999</ele>
        <time>2019-03-10T11:36:25Z</time>
      </trkpt>
      <trkpt lat="35.056417509913445" lon="-5.9116564784199">
        <ele>18.879999999999999</ele>
        <time>2019-03-10T11:36:41Z</time>
      </trkpt>
      <trkpt lat="35.054766107350588" lon="-5.910414112731814">
        <ele>20.32</ele>
        <time>2019-03-10T11:36:55Z</time>
      </trkpt>
      <trkpt lat="35.053790202364326" lon="-5.909690000116825">
        <ele>26.57</ele>
        <time>2019-03-10T11:37:05Z</time>
      </trkpt>
      <trkpt lat="35.052819326519966" lon="-5.908971922472119">
        <ele>26.57</ele>
        <time>2019-03-10T11:37:16Z</time>
      </trkpt>
      <trkpt lat="35.051999660208821" lon="-5.908314948901534">
        <ele>25.609999999999999</ele>
        <time>2019-03-10T11:37:22Z</time>
      </trkpt>
      <trkpt lat="35.050601223483682" lon="-5.907565020024777">
        <ele>25.609999999999999</ele>
        <time>2019-03-10T11:37:30Z</time>
      </trkpt>
      <trkpt lat="35.048466101288795" lon="-5.90658450499177">
        <ele>26.57</ele>
        <time>2019-03-10T11:37:43Z</time>
      </trkpt>
      <trkpt lat="35.046202735975385" lon="-5.905708512291312">
        <ele>24.649999999999999</ele>
        <time>2019-03-10T11:37:57Z</time>
      </trkpt>
      <trkpt lat="35.04441755823791" lon="-5.905283968895674">
        <ele>19.84</ele>
        <time>2019-03-10T11:38:08Z</time>
      </trkpt>
      <trkpt lat="35.041949925944209" lon="-5.90509177185595">
        <ele>16.48</ele>
        <time>2019-03-10T11:38:23Z</time>
      </trkpt>
      <trkpt lat="35.039629396051168" lon="-5.905268881469965">
        <ele>16.48</ele>
        <time>2019-03-10T11:38:37Z</time>
      </trkpt>
      <trkpt lat="35.03780054859817" lon="-5.905463173985481">
        <ele>14.56</ele>
        <time>2019-03-10T11:38:48Z</time>
      </trkpt>
      <trkpt lat="35.036165909841657" lon="-5.90567515231669">
        <ele>13.6</ele>
        <time>2019-03-10T11:38:59Z</time>
      </trkpt>
      <trkpt lat="35.034214183688164" lon="-5.905980840325356">
        <ele>15.039999999999999</ele>
        <time>2019-03-10T11:39:13Z</time>
      </trkpt>
      <trkpt lat="35.032592453062534" lon="-5.906611494719982">
        <ele>21.289999999999999</ele>
        <time>2019-03-10T11:39:24Z</time>
      </trkpt>
      <trkpt lat="35.031669270247221" lon="-5.907211722806096">
        <ele>28.98</ele>
        <time>2019-03-10T11:39:32Z</time>
      </trkpt>
      <trkpt lat="35.030383486300707" lon="-5.908001214265823">
        <ele>23.690000000000001</ele>
        <time>2019-03-10T11:39:43Z</time>
      </trkpt>
      <trkpt lat="35.029313620179892" lon="-5.908402623608708">
        <ele>24.649999999999999</ele>
        <time>2019-03-10T11:39:49Z</time>
      </trkpt>
      <trkpt lat="35.027890373021364" lon="-5.908605298027396">
        <ele>22.73</ele>
        <time>2019-03-10T11:39:57Z</time>
      </trkpt>
      <trkpt lat="35.026541138067842" lon="-5.908718956634402">
        <ele>21.77</ele>
        <time>2019-03-10T11:40:07Z</time>
      </trkpt>
      <trkpt lat="35.024728635326028" lon="-5.908856671303511">
        <ele>21.289999999999999</ele>
        <time>2018-03-24T11:56:50Z</time>
      </trkpt>
      <trkpt lat="35.018595932051539" lon="-5.909405518323183">
        <ele>20.809999999999999</ele>
        <time>2018-03-24T11:58:06Z</time>
      </trkpt>
      <trkpt lat="35.018083294853568" lon="-5.909388586878777">
        <ele>17.920000000000002</ele>
        <time>2019-03-10T11:51:46Z</time>
      </trkpt>
      <trkpt lat="35.017484994605184" lon="-5.909359669312835">
        <ele>18.879999999999999</ele>
        <time>2019-03-10T11:51:56Z</time>
      </trkpt>
      <trkpt lat="35.017366642132401" lon="-5.909333936870098">
        <ele>20.809999999999999</ele>
        <time>2019-03-10T11:51:58Z</time>
      </trkpt>
      <trkpt lat="35.016717547550797" lon="-5.909164873883128">
        <ele>21.289999999999999</ele>
        <time>2019-03-10T11:52:05Z</time>
      </trkpt>
      <trkpt lat="35.015176618471742" lon="-5.908782407641411">
        <ele>22.73</ele>
        <time>2019-03-10T11:52:17Z</time>
      </trkpt>
      <trkpt lat="35.012988522648811" lon="-5.908308830112219">
        <ele>23.210000000000001</ele>
        <time>2019-03-10T11:52:31Z</time>
      </trkpt>
      <trkpt lat="35.011505093425512" lon="-5.907887136563659">
        <ele>24.170000000000002</ele>
        <time>2019-03-10T11:52:41Z</time>
      </trkpt>
      <trkpt lat="35.010523153468966" lon="-5.907308449968696">
        <ele>25.129999999999999</ele>
        <time>2019-03-10T11:52:50Z</time>
      </trkpt>
      <trkpt lat="35.010445034131408" lon="-5.907266959547997">
        <ele>26.09</ele>
        <time>2019-03-10T11:52:51Z</time>
      </trkpt>
      <trkpt lat="35.009821001440287" lon="-5.906987003982067">
        <ele>26.09</ele>
        <time>2019-03-10T11:53:01Z</time>
      </trkpt>
      <trkpt lat="35.00929394736886" lon="-5.906834034249187">
        <ele>24.649999999999999</ele>
        <time>2019-03-10T11:53:10Z</time>
      </trkpt>
      <trkpt lat="35.008503030985594" lon="-5.906588695943356">
        <ele>24.649999999999999</ele>
        <time>2019-03-10T11:53:18Z</time>
      </trkpt>
      <trkpt lat="35.007478427141905" lon="-5.90606952086091">
        <ele>24.170000000000002</ele>
        <time>2019-03-10T11:53:28Z</time>
      </trkpt>
      <trkpt lat="35.006618946790695" lon="-5.905450182035565">
        <ele>24.170000000000002</ele>
        <time>2019-03-10T11:53:37Z</time>
      </trkpt>
      <trkpt lat="35.006522135809064" lon="-5.905410116538405">
        <ele>24.170000000000002</ele>
        <time>2019-03-10T11:53:38Z</time>
      </trkpt>
      <trkpt lat="35.005562240257859" lon="-5.905104763805866">
        <ele>22.25</ele>
        <time>2019-03-10T11:53:49Z</time>
      </trkpt>
      <trkpt lat="35.005494765937328" lon="-5.905093867331743">
        <ele>19.359999999999999</ele>
        <time>2019-03-10T11:53:50Z</time>
      </trkpt>
      <trkpt lat="35.005430476740003" lon="-5.905098309740424">
        <ele>18.399999999999999</ele>
        <time>2019-03-10T11:53:51Z</time>
      </trkpt>
      <trkpt lat="35.005369372665882" lon="-5.905115073546767">
        <ele>17.920000000000002</ele>
        <time>2019-03-10T11:53:52Z</time>
      </trkpt>
      <trkpt lat="35.005310783162713" lon="-5.905137034133077">
        <ele>16.48</ele>
        <time>2019-03-10T11:53:53Z</time>
      </trkpt>
      <trkpt lat="35.004511568695307" lon="-5.905447918921709">
        <ele>16.48</ele>
        <time>2019-03-10T11:54:04Z</time>
      </trkpt>
      <trkpt lat="35.003629876300693" lon="-5.905762491747737">
        <ele>16.48</ele>
        <time>2019-03-10T11:54:17Z</time>
      </trkpt>
      <trkpt lat="35.003019673749804" lon="-5.905949575826526">
        <ele>16.48</ele>
        <time>2019-03-10T11:54:30Z</time>
      </trkpt>
      <trkpt lat="35.002321042120457" lon="-5.906221317127347">
        <ele>16.48</ele>
        <time>2019-03-10T11:54:42Z</time>
      </trkpt>
      <trkpt lat="35.001760628074408" lon="-5.906396331265569">
        <ele>16.48</ele>
        <time>2019-03-10T11:54:52Z</time>
      </trkpt>
      <trkpt lat="35.001529706642032" lon="-5.906505379825831">
        <ele>16.48</ele>
        <time>2019-03-10T11:55:04Z</time>
      </trkpt>
      <trkpt lat="35.001441529020667" lon="-5.906580397859216">
        <ele>16.48</ele>
        <time>2019-03-10T11:55:07Z</time>
      </trkpt>
      <trkpt lat="35.001402217894793" lon="-5.906573357060552">
        <ele>16.48</ele>
        <time>2019-03-10T11:55:08Z</time>
      </trkpt>
      <trkpt lat="35.001371456310153" lon="-5.90653957799077">
        <ele>16</ele>
        <time>2019-03-10T11:55:09Z</time>
      </trkpt>
      <trkpt lat="35.001355782151222" lon="-5.906483167782426">
        <ele>16</ele>
        <time>2019-03-10T11:55:10Z</time>
      </trkpt>
      <trkpt lat="35.001361230388284" lon="-5.906415777280927">
        <ele>16</ele>
        <time>2019-03-10T11:55:11Z</time>
      </trkpt>
      <trkpt lat="35.001372629776597" lon="-5.906345620751381">
        <ele>16</ele>
        <time>2019-03-10T11:55:12Z</time>
      </trkpt>
      <trkpt lat="35.001400206238031" lon="-5.906145209446549">
        <ele>16.48</ele>
        <time>2019-03-10T11:55:15Z</time>
      </trkpt>
      <trkpt lat="35.001398362219334" lon="-5.906083099544048">
        <ele>16.960000000000001</ele>
        <time>2019-03-10T11:55:16Z</time>
      </trkpt>
      <trkpt lat="35.001390818506479" lon="-5.906019313260913">
        <ele>17.920000000000002</ele>
        <time>2019-03-10T11:55:17Z</time>
      </trkpt>
      <trkpt lat="35.001378497108817" lon="-5.905952760949731">
        <ele>18.879999999999999</ele>
        <time>2019-03-10T11:55:18Z</time>
      </trkpt>
      <trkpt lat="35.001360643655062" lon="-5.905887968838215">
        <ele>19.84</ele>
        <time>2019-03-10T11:55:19Z</time>
      </trkpt>
      <trkpt lat="35.001299288123846" lon="-5.905694514513016">
        <ele>20.809999999999999</ele>
        <time>2019-03-10T11:55:27Z</time>
      </trkpt>
      <trkpt lat="35.001194514334202" lon="-5.905445739626885">
        <ele>20.809999999999999</ele>
        <time>2019-03-10T11:55:36Z</time>
      </trkpt>
      <trkpt lat="35.001132907345891" lon="-5.905309114605188">
        <ele>19.84</ele>
        <time>2019-03-10T11:55:47Z</time>
      </trkpt>
      <trkpt lat="35.000965017825365" lon="-5.905034188181162">
        <ele>18.399999999999999</ele>
        <time>2019-03-10T11:55:57Z</time>
      </trkpt>
      <trkpt lat="35.000565452501178" lon="-5.904567651450634">
        <ele>18.399999999999999</ele>
        <time>2019-03-10T11:56:05Z</time>
      </trkpt>
      <trkpt lat="35.000050384551287" lon="-5.904013523831964">
        <ele>16.960000000000001</ele>
        <time>2019-03-10T11:56:14Z</time>
      </trkpt>
      <trkpt lat="34.999444540590048" lon="-5.903362669050694">
        <ele>16</ele>
        <time>2019-03-10T11:56:23Z</time>
      </trkpt>
      <trkpt lat="34.998664185404778" lon="-5.902709802612662">
        <ele>13.119999999999999</ele>
        <time>2019-03-10T11:56:34Z</time>
      </trkpt>
      <trkpt lat="34.998490512371063" lon="-5.9026232175529">
        <ele>13.119999999999999</ele>
        <time>2019-03-10T11:56:41Z</time>
      </trkpt>
      <trkpt lat="34.997830521315336" lon="-5.902368240058422">
        <ele>14.08</ele>
        <time>2019-03-10T11:56:50Z</time>
      </trkpt>
      <trkpt lat="34.997282763943076" lon="-5.90222692117095">
        <ele>14.56</ele>
        <time>2019-03-10T11:57:00Z</time>
      </trkpt>
      <trkpt lat="34.997155107557774" lon="-5.902211749926209">
        <ele>15.039999999999999</ele>
        <time>2019-03-10T11:57:11Z</time>
      </trkpt>
      <trkpt lat="34.99716080725193" lon="-5.902213091030717">
        <ele>16</ele>
        <time>2019-03-10T11:57:41Z</time>
      </trkpt>
      <trkpt lat="34.997147563844919" lon="-5.902205044403672">
        <ele>16</ele>
        <time>2019-03-10T11:57:44Z</time>
      </trkpt>
      <trkpt lat="34.997037257999182" lon="-5.902166487649083">
        <ele>15.039999999999999</ele>
        <time>2019-03-10T11:58:00Z</time>
      </trkpt>
      <trkpt lat="34.996998533606529" lon="-5.902160871773958">
        <ele>15.52</ele>
        <time>2019-03-10T11:58:15Z</time>
      </trkpt>
      <trkpt lat="34.996905075386167" lon="-5.902144527062774">
        <ele>15.039999999999999</ele>
        <time>2019-03-10T11:58:28Z</time>
      </trkpt>
      <trkpt lat="34.996717404574156" lon="-5.902096247300506">
        <ele>15.039999999999999</ele>
        <time>2019-03-10T11:58:39Z</time>
      </trkpt>
      <trkpt lat="34.996439795941114" lon="-5.902059869840741">
        <ele>14.56</ele>
        <time>2019-03-10T11:58:51Z</time>
      </trkpt>
      <trkpt lat="34.996129414066672" lon="-5.902027012780309">
        <ele>14.08</ele>
        <time>2019-03-10T11:59:02Z</time>
      </trkpt>
      <trkpt lat="34.995720125734806" lon="-5.90203246101737">
        <ele>15.039999999999999</ele>
        <time>2019-03-10T11:59:13Z</time>
      </trkpt>
      <trkpt lat="34.995649214833975" lon="-5.902039669454098">
        <ele>16</ele>
        <time>2019-03-10T11:59:28Z</time>
      </trkpt>
      <trkpt lat="34.995402283966541" lon="-5.902097253128886">
        <ele>15.039999999999999</ele>
        <time>2019-03-10T11:59:38Z</time>
      </trkpt>
      <trkpt lat="34.995027864351869" lon="-5.902188951149583">
        <ele>16</ele>
        <time>2019-03-10T11:59:48Z</time>
      </trkpt>
      <trkpt lat="34.994391510263085" lon="-5.902466392144561">
        <ele>17.440000000000001</ele>
        <time>2019-03-10T12:00:01Z</time>
      </trkpt>
      <trkpt lat="34.993916004896164" lon="-5.90276101604104">
        <ele>16.960000000000001</ele>
        <time>2019-03-10T12:00:12Z</time>
      </trkpt>
      <trkpt lat="34.993472769856453" lon="-5.903067458420992">
        <ele>16</ele>
        <time>2019-03-10T12:00:23Z</time>
      </trkpt>
      <trkpt lat="34.992884444072843" lon="-5.903438525274396">
        <ele>15.52</ele>
        <time>2019-03-10T12:00:36Z</time>
      </trkpt>
      <trkpt lat="34.992388067767024" lon="-5.903783021494746">
        <ele>15.039999999999999</ele>
        <time>2019-03-10T12:00:47Z</time>
      </trkpt>
      <trkpt lat="34.991788510233164" lon="-5.904207229614258">
        <ele>15.039999999999999</ele>
        <time>2019-03-10T12:01:01Z</time>
      </trkpt>
      <trkpt lat="34.991409312933683" lon="-5.904446365311742">
        <ele>15.039999999999999</ele>
        <time>2019-03-10T12:01:11Z</time>
      </trkpt>
      <trkpt lat="34.9910544231534" lon="-5.904645435512066">
        <ele>15.039999999999999</ele>
        <time>2019-03-10T12:01:21Z</time>
      </trkpt>
      <trkpt lat="34.990535918623209" lon="-5.905058663338423">
        <ele>15.039999999999999</ele>
        <time>2019-03-10T12:01:30Z</time>
      </trkpt>
      <trkpt lat="34.990481687709689" lon="-5.905116330832243">
        <ele>15.039999999999999</ele>
        <time>2019-03-10T12:01:31Z</time>
      </trkpt>
      <trkpt lat="34.99028873629868" lon="-5.905395783483982">
        <ele>14.56</ele>
        <time>2019-03-10T12:01:34Z</time>
      </trkpt>
      <trkpt lat="34.990234170109034" lon="-5.905509358271956">
        <ele>13.6</ele>
        <time>2019-03-10T12:01:35Z</time>
      </trkpt>
      <trkpt lat="34.989897133782506" lon="-5.906566400080919">
        <ele>13.6</ele>
        <time>2019-03-10T12:01:44Z</time>
      </trkpt>
      <trkpt lat="34.989366140216589" lon="-5.907415989786387">
        <ele>13.6</ele>
        <time>2019-03-10T12:01:53Z</time>
      </trkpt>
      <trkpt lat="34.988752165809274" lon="-5.908167846500874">
        <ele>13.119999999999999</ele>
        <time>2019-03-10T12:02:02Z</time>
      </trkpt>
      <trkpt lat="34.988134754821658" lon="-5.908890450373292">
        <ele>13.119999999999999</ele>
        <time>2019-03-10T12:02:11Z</time>
      </trkpt>
      <trkpt lat="34.986880319193006" lon="-5.91037580743432">
        <ele>13.119999999999999</ele>
        <time>2019-03-10T12:02:25Z</time>
      </trkpt>
      <trkpt lat="34.986353013664484" lon="-5.91084242798388">
        <ele>12.630000000000001</ele>
        <time>2019-03-10T12:02:33Z</time>
      </trkpt>
      <trkpt lat="34.986188225448132" lon="-5.910965893417597">
        <ele>12.630000000000001</ele>
        <time>2019-03-10T12:02:37Z</time>
      </trkpt>
      <trkpt lat="34.98614614829421" lon="-5.910986009985209">
        <ele>12.630000000000001</ele>
        <time>2019-03-10T12:02:38Z</time>
      </trkpt>
      <trkpt lat="34.986102897673845" lon="-5.911000007763505">
        <ele>14.08</ele>
        <time>2019-03-10T12:02:39Z</time>
      </trkpt>
      <trkpt lat="34.98601664789021" lon="-5.911029595881701">
        <ele>15.52</ele>
        <time>2019-03-10T12:02:41Z</time>
      </trkpt>
      <trkpt lat="34.985975492745638" lon="-5.911053065210581">
        <ele>14.08</ele>
        <time>2019-03-10T12:02:42Z</time>
      </trkpt>
      <trkpt lat="34.985937187448144" lon="-5.91108818538487">
        <ele>11.67</ele>
        <time>2019-03-10T12:02:43Z</time>
      </trkpt>
      <trkpt lat="34.985411390662193" lon="-5.911486241966486">
        <ele>11.67</ele>
        <time>2019-03-10T12:02:51Z</time>
      </trkpt>
      <trkpt lat="34.984440430998802" lon="-5.91200633905828">
        <ele>12.15</ele>
        <time>2019-03-10T12:03:03Z</time>
      </trkpt>
      <trkpt lat="34.983692010864615" lon="-5.912278667092323">
        <ele>12.15</ele>
        <time>2019-03-10T12:03:15Z</time>
      </trkpt>
      <trkpt lat="34.982680231332779" lon="-5.912764230743051">
        <ele>12.15</ele>
        <time>2019-03-10T12:03:26Z</time>
      </trkpt>
      <trkpt lat="34.981394028291106" lon="-5.913746589794755">
        <ele>13.119999999999999</ele>
        <time>2019-03-10T12:03:37Z</time>
      </trkpt>
      <trkpt lat="34.980067508295178" lon="-5.914512109011412">
        <ele>13.6</ele>
        <time>2019-03-10T12:03:49Z</time>
      </trkpt>
      <trkpt lat="34.978687260299921" lon="-5.915283411741257">
        <ele>14.56</ele>
        <time>2019-03-10T12:03:58Z</time>
      </trkpt>
      <trkpt lat="34.976992942392826" lon="-5.916227968409658">
        <ele>14.08</ele>
        <time>2019-03-10T12:04:08Z</time>
      </trkpt>
      <trkpt lat="34.975802795961499" lon="-5.916868429630995">
        <ele>14.08</ele>
        <time>2019-03-10T12:04:16Z</time>
      </trkpt>
      <trkpt lat="34.974149717018008" lon="-5.917700165882707">
        <ele>13.119999999999999</ele>
        <time>2019-03-10T12:04:31Z</time>
      </trkpt>
      <trkpt lat="34.97295806184411" lon="-5.917756240814924">
        <ele>13.119999999999999</ele>
        <time>2019-03-10T12:04:41Z</time>
      </trkpt>
      <trkpt lat="34.971678983420134" lon="-5.917717767879367">
        <ele>13.6</ele>
        <time>2019-03-10T12:04:50Z</time>
      </trkpt>
      <trkpt lat="34.970274763181806" lon="-5.917612323537469">
        <ele>14.08</ele>
        <time>2019-03-10T12:04:57Z</time>
      </trkpt>
      <trkpt lat="34.967523403465748" lon="-5.916807493194938">
        <ele>13.6</ele>
        <time>2019-03-10T12:05:10Z</time>
      </trkpt>
      <trkpt lat="34.964018426835537" lon="-5.915770651772618">
        <ele>14.08</ele>
        <time>2019-03-10T12:05:28Z</time>
      </trkpt>
      <trkpt lat="34.962505660951138" lon="-5.915727987885475">
        <ele>14.08</ele>
        <time>2019-03-10T12:05:36Z</time>
      </trkpt>
      <trkpt lat="34.961248124018312" lon="-5.916060581803322">
        <ele>13.6</ele>
        <time>2019-03-10T12:05:44Z</time>
      </trkpt>
      <trkpt lat="34.96018429286778" lon="-5.916156470775604">
        <ele>13.6</ele>
        <time>2019-03-10T12:05:53Z</time>
      </trkpt>
      <trkpt lat="34.959450038149953" lon="-5.916018253192306">
        <ele>13.6</ele>
        <time>2019-03-10T12:06:03Z</time>
      </trkpt>
      <trkpt lat="34.959298158064485" lon="-5.915968716144562">
        <ele>13.119999999999999</ele>
        <time>2019-03-10T12:06:12Z</time>
      </trkpt>
      <trkpt lat="34.9592041131109" lon="-5.915926219895482">
        <ele>13.6</ele>
        <time>2019-03-10T12:06:27Z</time>
      </trkpt>
      <trkpt lat="34.958998253569007" lon="-5.915820524096489">
        <ele>14.08</ele>
        <time>2019-03-10T12:06:45Z</time>
      </trkpt>
      <trkpt lat="34.958934467285872" lon="-5.915726395323873">
        <ele>14.08</ele>
        <time>2019-03-10T12:06:50Z</time>
      </trkpt>
      <trkpt lat="34.958922062069178" lon="-5.91566420160234">
        <ele>14.56</ele>
        <time>2019-03-10T12:06:51Z</time>
      </trkpt>
      <trkpt lat="34.958820305764675" lon="-5.914871608838439">
        <ele>14.56</ele>
        <time>2019-03-10T12:06:59Z</time>
      </trkpt>
      <trkpt lat="34.958636490628123" lon="-5.913373092189431">
        <ele>15.039999999999999</ele>
        <time>2019-03-10T12:07:09Z</time>
      </trkpt>
      <trkpt lat="34.958585863932967" lon="-5.913044102489948">
        <ele>15.039999999999999</ele>
        <time>2019-03-10T12:07:11Z</time>
      </trkpt>
      <trkpt lat="34.958543702960014" lon="-5.912892976775765">
        <ele>15.52</ele>
        <time>2019-03-10T12:07:12Z</time>
      </trkpt>
      <trkpt lat="34.958490477874875" lon="-5.912750149145722">
        <ele>15.52</ele>
        <time>2019-03-10T12:07:13Z</time>
      </trkpt>
      <trkpt lat="34.958423841744661" lon="-5.912615871056914">
        <ele>15.52</ele>
        <time>2019-03-10T12:07:14Z</time>
      </trkpt>
      <trkpt lat="34.958340441808105" lon="-5.912494836375117">
        <ele>16.48</ele>
        <time>2019-03-10T12:07:15Z</time>
      </trkpt>
      <trkpt lat="34.95823809877038" lon="-5.912388218566775">
        <ele>16.960000000000001</ele>
        <time>2019-03-10T12:07:16Z</time>
      </trkpt>
      <trkpt lat="34.958117064088583" lon="-5.912295849993825">
        <ele>17.920000000000002</ele>
        <time>2019-03-10T12:07:17Z</time>
      </trkpt>
      <trkpt lat="34.957980439066887" lon="-5.912212785333395">
        <ele>17.920000000000002</ele>
        <time>2019-03-10T12:07:18Z</time>
      </trkpt>
      <trkpt lat="34.957832247018814" lon="-5.912132319062948">
        <ele>17.920000000000002</ele>
        <time>2019-03-10T12:07:19Z</time>
      </trkpt>
      <trkpt lat="34.956247061491013" lon="-5.911314832046628">
        <ele>21.289999999999999</ele>
        <time>2019-03-10T12:07:28Z</time>
      </trkpt>
      <trkpt lat="34.954602280631661" lon="-5.910475132986903">
        <ele>24.649999999999999</ele>
        <time>2019-03-10T12:07:38Z</time>
      </trkpt>
      <trkpt lat="34.954015966504812" lon="-5.910244882106781">
        <ele>27.530000000000001</ele>
        <time>2019-03-10T12:07:43Z</time>
      </trkpt>
      <trkpt lat="34.953906163573265" lon="-5.910231806337833">
        <ele>30.420000000000002</ele>
        <time>2019-03-10T12:07:44Z</time>
      </trkpt>
      <trkpt lat="34.953801892697811" lon="-5.910229710862041">
        <ele>32.82</ele>
        <time>2019-03-10T12:07:45Z</time>
      </trkpt>
      <trkpt lat="34.952311674132943" lon="-5.910380417481065">
        <ele>34.740000000000002</ele>
        <time>2019-03-10T12:07:59Z</time>
      </trkpt>
      <trkpt lat="34.950869735330343" lon="-5.910537578165531">
        <ele>36.670000000000002</ele>
        <time>2019-03-10T12:08:10Z</time>
      </trkpt>
      <trkpt lat="34.949303911998868" lon="-5.910723656415939">
        <ele>35.229999999999997</ele>
        <time>2019-03-10T12:08:22Z</time>
      </trkpt>
      <trkpt lat="34.9483438488096" lon="-5.911109475418925">
        <ele>33.299999999999997</ele>
        <time>2019-03-10T12:08:31Z</time>
      </trkpt>
      <trkpt lat="34.947113636881113" lon="-5.911563439294696">
        <ele>28.98</ele>
        <time>2019-03-10T12:08:41Z</time>
      </trkpt>
      <trkpt lat="34.946240829303861" lon="-5.911836605519056">
        <ele>28.02</ele>
        <time>2019-03-10T12:08:49Z</time>
      </trkpt>
      <trkpt lat="34.944628234952688" lon="-5.912360642105341">
        <ele>28.98</ele>
        <time>2019-03-10T12:09:03Z</time>
      </trkpt>
      <trkpt lat="34.943435154855251" lon="-5.912434486672282">
        <ele>29.460000000000001</ele>
        <time>2019-03-10T12:09:11Z</time>
      </trkpt>
      <trkpt lat="34.941905038431287" lon="-5.912417639046907">
        <ele>30.899999999999999</ele>
        <time>2019-03-10T12:09:22Z</time>
      </trkpt>
      <trkpt lat="34.940280457958579" lon="-5.912808906286955">
        <ele>30.899999999999999</ele>
        <time>2019-03-10T12:09:34Z</time>
      </trkpt>
      <trkpt lat="34.939082683995366" lon="-5.913544418290258">
        <ele>31.379999999999999</ele>
        <time>2019-03-10T12:09:41Z</time>
      </trkpt>
      <trkpt lat="34.93715962395072" lon="-5.914550581946969">
        <ele>31.379999999999999</ele>
        <time>2019-03-10T12:09:51Z</time>
      </trkpt>
      <trkpt lat="34.935466228052974" lon="-5.914992475882173">
        <ele>31.379999999999999</ele>
        <time>2019-03-10T12:10:00Z</time>
      </trkpt>
      <trkpt lat="34.934685872867703" lon="-5.915137818083167">
        <ele>31.859999999999999</ele>
        <time>2019-03-10T12:10:05Z</time>
      </trkpt>
      <trkpt lat="34.934518318623304" lon="-5.915128262713552">
        <ele>32.340000000000003</ele>
        <time>2019-03-10T12:10:06Z</time>
      </trkpt>
      <trkpt lat="34.934350429102778" lon="-5.915102865546942">
        <ele>33.299999999999997</ele>
        <time>2019-03-10T12:10:07Z</time>
      </trkpt>
      <trkpt lat="34.93418438360095" lon="-5.915064392611384">
        <ele>36.670000000000002</ele>
        <time>2019-03-10T12:10:08Z</time>
      </trkpt>
      <trkpt lat="34.934025462716818" lon="-5.915011921897531">
        <ele>45.799999999999997</ele>
        <time>2019-03-10T12:10:09Z</time>
      </trkpt>
      <trkpt lat="34.933874337002635" lon="-5.914945285767317">
        <ele>50.130000000000003</ele>
        <time>2019-03-10T12:10:10Z</time>
      </trkpt>
      <trkpt lat="34.933730335906148" lon="-5.914871105924249">
        <ele>54.450000000000003</ele>
        <time>2019-03-10T12:10:11Z</time>
      </trkpt>
      <trkpt lat="34.932047082111239" lon="-5.914030903950334">
        <ele>58.780000000000001</ele>
        <time>2019-03-10T12:10:23Z</time>
      </trkpt>
      <trkpt lat="34.930666331201792" lon="-5.913953706622124">
        <ele>60.700000000000003</ele>
        <time>2019-03-10T12:10:32Z</time>
      </trkpt>
      <trkpt lat="34.927959395572543" lon="-5.914075998589397">
        <ele>61.659999999999997</ele>
        <time>2019-03-10T12:10:49Z</time>
      </trkpt>
      <trkpt lat="34.92666095495224" lon="-5.914528872817755">
        <ele>65.989999999999995</ele>
        <time>2019-03-10T12:10:57Z</time>
      </trkpt>
      <trkpt lat="34.925778340548277" lon="-5.915499664843082">
        <ele>71.269999999999996</ele>
        <time>2019-03-10T12:11:04Z</time>
      </trkpt>
      <trkpt lat="34.924778798595071" lon="-5.916612278670073">
        <ele>72.719999999999999</ele>
        <time>2019-03-10T12:11:12Z</time>
      </trkpt>
      <trkpt lat="34.923618407920003" lon="-5.917102200910449">
        <ele>75.599999999999994</ele>
        <time>2019-03-10T12:11:20Z</time>
      </trkpt>
      <trkpt lat="34.921831721439958" lon="-5.917652975767851">
        <ele>77.040000000000006</ele>
        <time>2019-03-10T12:11:30Z</time>
      </trkpt>
      <trkpt lat="34.919498199597001" lon="-5.918466188013554">
        <ele>83.769999999999996</ele>
        <time>2019-03-10T12:11:41Z</time>
      </trkpt>
      <trkpt lat="34.917891304939985" lon="-5.918943788856268">
        <ele>87.140000000000001</ele>
        <time>2019-03-10T12:11:50Z</time>
      </trkpt>
      <trkpt lat="34.917590478435159" lon="-5.918939262628555">
        <ele>87.620000000000005</ele>
        <time>2019-03-10T12:11:52Z</time>
      </trkpt>
      <trkpt lat="34.916047789156437" lon="-5.918585797771812">
        <ele>88.099999999999994</ele>
        <time>2019-03-10T12:12:02Z</time>
      </trkpt>
      <trkpt lat="34.914222126826644" lon="-5.918359234929085">
        <ele>88.579999999999998</ele>
        <time>2019-03-10T12:12:12Z</time>
      </trkpt>
      <trkpt lat="34.911983655765653" lon="-5.918460907414556">
        <ele>89.060000000000002</ele>
        <time>2019-03-10T12:12:24Z</time>
      </trkpt>
      <trkpt lat="34.911051839590073" lon="-5.918614128604531">
        <ele>90.019999999999996</ele>
        <time>2019-03-10T12:12:29Z</time>
      </trkpt>
      <trkpt lat="34.910891745239496" lon="-5.918691493570805">
        <ele>90.5</ele>
        <time>2019-03-10T12:12:30Z</time>
      </trkpt>
      <trkpt lat="34.91073994897306" lon="-5.918787717819214">
        <ele>94.829999999999998</ele>
        <time>2019-03-10T12:12:31Z</time>
      </trkpt>
      <trkpt lat="34.91059435531497" lon="-5.918899029493332">
        <ele>95.790000000000006</ele>
        <time>2019-03-10T12:12:32Z</time>
      </trkpt>
      <trkpt lat="34.910456221550703" lon="-5.919023081660271">
        <ele>95.790000000000006</ele>
        <time>2019-03-10T12:12:33Z</time>
      </trkpt>
      <trkpt lat="34.910331582650542" lon="-5.919154258444905">
        <ele>99.150000000000006</ele>
        <time>2019-03-10T12:12:34Z</time>
      </trkpt>
      <trkpt lat="34.910216834396124" lon="-5.919289207085967">
        <ele>104.92</ele>
        <time>2019-03-10T12:12:35Z</time>
      </trkpt>
      <trkpt lat="34.909072620794177" lon="-5.920622264966369">
        <ele>108.77</ele>
        <time>2019-03-10T12:12:46Z</time>
      </trkpt>
      <trkpt lat="34.908550009131432" lon="-5.921255685389042">
        <ele>116.94</ele>
        <time>2019-03-10T12:12:54Z</time>
      </trkpt>
      <trkpt lat="34.907667059451342" lon="-5.921986671164632">
        <ele>125.11</ele>
        <time>2019-03-10T12:13:01Z</time>
      </trkpt>
      <trkpt lat="34.90648252889514" lon="-5.922514731064439">
        <ele>125.59</ele>
        <time>2019-03-10T12:13:08Z</time>
      </trkpt>
      <trkpt lat="34.904945958405733" lon="-5.922862831503153">
        <ele>126.06999999999999</ele>
        <time>2019-03-10T12:13:16Z</time>
      </trkpt>
      <trkpt lat="34.903253735974431" lon="-5.923550231382251">
        <ele>127.03</ele>
        <time>2019-03-10T12:13:25Z</time>
      </trkpt>
      <trkpt lat="34.901145435869694" lon="-5.924265878275037">
        <ele>127.51000000000001</ele>
        <time>2019-03-10T12:13:35Z</time>
      </trkpt>
      <trkpt lat="34.899105951189995" lon="-5.924615571275353">
        <ele>131.84</ele>
        <time>2019-03-10T12:13:44Z</time>
      </trkpt>
      <trkpt lat="34.898909227922559" lon="-5.924704000353813">
        <ele>134.72</ele>
        <time>2019-03-10T12:13:45Z</time>
      </trkpt>
      <trkpt lat="34.898716947063804" lon="-5.924819922074676">
        <ele>138.09</ele>
        <time>2019-03-10T12:13:46Z</time>
      </trkpt>
      <trkpt lat="34.898526426404715" lon="-5.924959480762482">
        <ele>135.68000000000001</ele>
        <time>2019-03-10T12:13:47Z</time>
      </trkpt>
      <trkpt lat="34.898332636803389" lon="-5.925110103562474">
        <ele>120.3</ele>
        <time>2019-03-10T12:13:48Z</time>
      </trkpt>
      <trkpt lat="34.896665560081601" lon="-5.926224980503321">
        <ele>117.42</ele>
        <time>2019-03-10T12:13:56Z</time>
      </trkpt>
      <trkpt lat="34.895446076989174" lon="-5.926395384594798">
        <ele>115.98</ele>
        <time>2019-03-10T12:14:02Z</time>
      </trkpt>
      <trkpt lat="34.894079575315118" lon="-5.926039153710008">
        <ele>121.73999999999999</ele>
        <time>2019-03-10T12:14:09Z</time>
      </trkpt>
      <trkpt lat="34.89168050698936" lon="-5.925329877063632">
        <ele>117.42</ele>
        <time>2019-03-10T12:14:19Z</time>
      </trkpt>
      <trkpt lat="34.888021806254983" lon="-5.924237882718444">
        <ele>102.04000000000001</ele>
        <time>2019-03-10T12:14:34Z</time>
      </trkpt>
      <trkpt lat="34.886197485029697" lon="-5.923878299072385">
        <ele>97.709999999999994</ele>
        <time>2019-03-10T12:14:42Z</time>
      </trkpt>
      <trkpt lat="34.885004404932261" lon="-5.92421131208539">
        <ele>93.390000000000001</ele>
        <time>2019-03-10T12:14:47Z</time>
      </trkpt>
      <trkpt lat="34.882835000753403" lon="-5.92556968331337">
        <ele>90.019999999999996</ele>
        <time>2019-03-10T12:14:56Z</time>
      </trkpt>
      <trkpt lat="34.879796393215656" lon="-5.927476231008768">
        <ele>87.620000000000005</ele>
        <time>2019-03-10T12:15:09Z</time>
      </trkpt>
      <trkpt lat="34.876765497028828" lon="-5.929406499490142">
        <ele>81.370000000000005</ele>
        <time>2019-03-10T12:15:22Z</time>
      </trkpt>
      <trkpt lat="34.875914147123694" lon="-5.93029229901731">
        <ele>80.890000000000001</ele>
        <time>2019-03-10T12:15:28Z</time>
      </trkpt>
      <trkpt lat="34.875065563246608" lon="-5.931407175958157">
        <ele>81.849999999999994</ele>
        <time>2019-03-10T12:15:37Z</time>
      </trkpt>
      <trkpt lat="34.874000977724791" lon="-5.932752387598157">
        <ele>82.810000000000002</ele>
        <time>2019-03-10T12:15:50Z</time>
      </trkpt>
      <trkpt lat="34.872784344479442" lon="-5.933737093582749">
        <ele>81.370000000000005</ele>
        <time>2019-03-10T12:16:00Z</time>
      </trkpt>
      <trkpt lat="34.870536737143993" lon="-5.935090770944953">
        <ele>81.370000000000005</ele>
        <time>2019-03-10T12:16:14Z</time>
      </trkpt>
      <trkpt lat="34.868363980203867" lon="-5.936401449143887">
        <ele>80.890000000000001</ele>
        <time>2019-03-10T12:16:28Z</time>
      </trkpt>
      <trkpt lat="34.866934949532151" lon="-5.937239639461041">
        <ele>80.890000000000001</ele>
        <time>2019-03-10T12:22:49Z</time>
      </trkpt>
      <trkpt lat="34.865701636299491" lon="-5.937971211969852">
        <ele>81.370000000000005</ele>
        <time>2019-03-10T12:23:02Z</time>
      </trkpt>
      <trkpt lat="34.864697232842445" lon="-5.938868578523397">
        <ele>81.849999999999994</ele>
        <time>2019-03-10T12:23:13Z</time>
      </trkpt>
      <trkpt lat="34.864272605627775" lon="-5.93933142721653">
        <ele>82.329999999999998</ele>
        <time>2019-03-10T12:23:18Z</time>
      </trkpt>
      <trkpt lat="34.864209070801735" lon="-5.939434943720698">
        <ele>83.769999999999996</ele>
        <time>2019-03-10T12:23:19Z</time>
      </trkpt>
      <trkpt lat="34.864160874858499" lon="-5.939541645348072">
        <ele>82.810000000000002</ele>
        <time>2019-03-10T12:23:20Z</time>
      </trkpt>
      <trkpt lat="34.864006564021111" lon="-5.940047241747379">
        <ele>82.810000000000002</ele>
        <time>2019-03-10T12:23:27Z</time>
      </trkpt>
      <trkpt lat="34.863956859335303" lon="-5.940280761569738">
        <ele>81.370000000000005</ele>
        <time>2019-03-10T12:23:31Z</time>
      </trkpt>
      <trkpt lat="34.863898772746325" lon="-5.940926084294915">
        <ele>80.890000000000001</ele>
        <time>2019-03-10T12:23:39Z</time>
      </trkpt>
      <trkpt lat="34.863774385303259" lon="-5.941739045083523">
        <ele>82.329999999999998</ele>
        <time>2019-03-10T12:23:48Z</time>
      </trkpt>
      <trkpt lat="34.863570034503937" lon="-5.942318821325898">
        <ele>82.329999999999998</ele>
        <time>2019-03-10T12:23:57Z</time>
      </trkpt>
      <trkpt lat="34.863009788095951" lon="-5.943168411031365">
        <ele>79.930000000000007</ele>
        <time>2019-03-10T12:24:08Z</time>
      </trkpt>
      <trkpt lat="34.862435963004827" lon="-5.944151105359197">
        <ele>78</ele>
        <time>2019-03-10T12:24:19Z</time>
      </trkpt>
      <trkpt lat="34.86144857481122" lon="-5.945531437173486">
        <ele>74.159999999999997</ele>
        <time>2019-03-10T12:24:31Z</time>
      </trkpt>
      <trkpt lat="34.860105291008949" lon="-5.946866674348712">
        <ele>72.239999999999995</ele>
        <time>2019-03-10T12:24:43Z</time>
      </trkpt>
      <trkpt lat="34.85861599445343" lon="-5.94785749912262">
        <ele>71.269999999999996</ele>
        <time>2019-03-10T12:24:53Z</time>
      </trkpt>
      <trkpt lat="34.855619128793478" lon="-5.949546368792653">
        <ele>67.909999999999997</ele>
        <time>2019-03-10T12:25:11Z</time>
      </trkpt>
      <trkpt lat="34.852639697492123" lon="-5.951237333938479">
        <ele>73.680000000000007</ele>
        <time>2019-03-10T12:25:28Z</time>
      </trkpt>
      <trkpt lat="34.850018592551351" lon="-5.952717326581478">
        <ele>74.159999999999997</ele>
        <time>2019-03-10T12:25:44Z</time>
      </trkpt>
      <trkpt lat="34.847528077661991" lon="-5.954122301191092">
        <ele>72.719999999999999</ele>
        <time>2019-03-10T12:25:58Z</time>
      </trkpt>
      <trkpt lat="34.843913801014423" lon="-5.95615734346211">
        <ele>81.849999999999994</ele>
        <time>2019-03-10T12:26:17Z</time>
      </trkpt>
      <trkpt lat="34.840897237882018" lon="-5.957861887291074">
        <ele>82.329999999999998</ele>
        <time>2019-03-10T12:26:32Z</time>
      </trkpt>
      <trkpt lat="34.838398760184646" lon="-5.959460819140077">
        <ele>81.849999999999994</ele>
        <time>2019-03-10T12:26:45Z</time>
      </trkpt>
      <trkpt lat="34.835497783496976" lon="-5.961897354573011">
        <ele>78.969999999999999</ele>
        <time>2019-03-10T12:27:01Z</time>
      </trkpt>
      <trkpt lat="34.833081783726811" lon="-5.963795688003302">
        <ele>77.040000000000006</ele>
        <time>2019-03-10T12:27:14Z</time>
      </trkpt>
      <trkpt lat="34.830684140324593" lon="-5.965545494109392">
        <ele>76.079999999999998</ele>
        <time>2019-03-10T12:27:28Z</time>
      </trkpt>
      <trkpt lat="34.829188222065568" lon="-5.966220740228891">
        <ele>73.680000000000007</ele>
        <time>2019-03-10T12:27:36Z</time>
      </trkpt>
      <trkpt lat="34.827606221660972" lon="-5.966238174587488">
        <ele>72.239999999999995</ele>
        <time>2019-03-10T12:27:44Z</time>
      </trkpt>
      <trkpt lat="34.825678300112486" lon="-5.9655796084553">
        <ele>69.829999999999998</ele>
        <time>2019-03-10T12:27:54Z</time>
      </trkpt>
      <trkpt lat="34.823616351932287" lon="-5.964795984327793">
        <ele>66.469999999999999</ele>
        <time>2019-03-10T12:28:06Z</time>
      </trkpt>
      <trkpt lat="34.822085816413164" lon="-5.963992746546865">
        <ele>63.579999999999998</ele>
        <time>2019-03-10T12:28:16Z</time>
      </trkpt>
      <trkpt lat="34.820538181811571" lon="-5.963563928380609">
        <ele>60.700000000000003</ele>
        <time>2019-03-10T12:28:27Z</time>
      </trkpt>
      <trkpt lat="34.8189134337008" lon="-5.963441217318177">
        <ele>58.780000000000001</ele>
        <time>2019-03-10T12:28:39Z</time>
      </trkpt>
      <trkpt lat="34.81728189624846" lon="-5.963568789884448">
        <ele>57.82</ele>
        <time>2019-03-10T12:28:52Z</time>
      </trkpt>
      <trkpt lat="34.815806429833174" lon="-5.963261593133211">
        <ele>58.299999999999997</ele>
        <time>2019-03-10T12:29:05Z</time>
      </trkpt>
      <trkpt lat="34.814813928678632" lon="-5.963305346667767">
        <ele>57.82</ele>
        <time>2019-03-10T12:29:13Z</time>
      </trkpt>
      <trkpt lat="34.813988730311394" lon="-5.963954525068402">
        <ele>58.780000000000001</ele>
        <time>2019-03-10T12:29:21Z</time>
      </trkpt>
      <trkpt lat="34.812964797019958" lon="-5.964746279641986">
        <ele>58.299999999999997</ele>
        <time>2019-03-10T12:29:30Z</time>
      </trkpt>
      <trkpt lat="34.811469297856092" lon="-5.965028163045645">
        <ele>58.299999999999997</ele>
        <time>2019-03-10T12:29:41Z</time>
      </trkpt>
      <trkpt lat="34.810180328786373" lon="-5.96524047665298">
        <ele>59.740000000000002</ele>
        <time>2019-03-10T12:29:52Z</time>
      </trkpt>
      <trkpt lat="34.808847522363067" lon="-5.965464189648628">
        <ele>60.219999999999999</ele>
        <time>2019-03-10T12:30:04Z</time>
      </trkpt>
      <trkpt lat="34.807424610480666" lon="-5.965691590681672">
        <ele>60.219999999999999</ele>
        <time>2019-03-10T12:30:15Z</time>
      </trkpt>
      <trkpt lat="34.805336678400636" lon="-5.965971546247602">
        <ele>61.18</ele>
        <time>2019-03-10T12:30:31Z</time>
      </trkpt>
      <trkpt lat="34.804681465029716" lon="-5.965811954811215">
        <ele>61.659999999999997</ele>
        <time>2019-03-10T12:30:36Z</time>
      </trkpt>
      <trkpt lat="34.803501544520259" lon="-5.965207535773516">
        <ele>62.140000000000001</ele>
        <time>2019-03-10T12:30:47Z</time>
      </trkpt>
      <trkpt lat="34.802467888221145" lon="-5.964915091171861">
        <ele>62.140000000000001</ele>
        <time>2019-03-10T12:30:56Z</time>
      </trkpt>
      <trkpt lat="34.801150504499674" lon="-5.964940069243312">
        <ele>63.100000000000001</ele>
        <time>2019-03-10T12:31:05Z</time>
      </trkpt>
      <trkpt lat="34.799792552366853" lon="-5.965191358700395">
        <ele>65.510000000000005</ele>
        <time>2019-03-10T12:31:16Z</time>
      </trkpt>
      <trkpt lat="34.799074977636337" lon="-5.965704498812556">
        <ele>68.870000000000005</ele>
        <time>2019-03-10T12:31:22Z</time>
      </trkpt>
      <trkpt lat="34.798941118642688" lon="-5.965841794386506">
        <ele>70.310000000000002</ele>
        <time>2019-03-10T12:31:23Z</time>
      </trkpt>
      <trkpt lat="34.798808349296451" lon="-5.966004235669971">
        <ele>64.069999999999993</ele>
        <time>2019-03-10T12:31:24Z</time>
      </trkpt>
      <trkpt lat="34.798240559175611" lon="-5.966890957206488">
        <ele>60.219999999999999</ele>
        <time>2019-03-10T12:31:30Z</time>
      </trkpt>
      <trkpt lat="34.797456851229072" lon="-5.967912040650845">
        <ele>58.780000000000001</ele>
        <time>2019-03-10T12:31:37Z</time>
      </trkpt>
      <trkpt lat="34.796452112495899" lon="-5.968738747760654">
        <ele>56.369999999999997</ele>
        <time>2019-03-10T12:31:43Z</time>
      </trkpt>
      <trkpt lat="34.793352400884032" lon="-5.970570025965571">
        <ele>51.57</ele>
        <time>2019-03-10T12:31:59Z</time>
      </trkpt>
      <trkpt lat="34.790092846378684" lon="-5.972461737692356">
        <ele>52.049999999999997</ele>
        <time>2019-03-10T12:32:15Z</time>
      </trkpt>
      <trkpt lat="34.786257036030293" lon="-5.974725522100925">
        <ele>53.009999999999998</ele>
        <time>2019-03-10T12:32:33Z</time>
      </trkpt>
      <trkpt lat="34.78301290422678" lon="-5.976503742858768">
        <ele>49.159999999999997</ele>
        <time>2019-03-10T12:32:47Z</time>
      </trkpt>
      <trkpt lat="34.781215321272612" lon="-5.976779842749238">
        <ele>45.32</ele>
        <time>2019-03-10T12:32:54Z</time>
      </trkpt>
      <trkpt lat="34.779331320896745" lon="-5.976443393155932">
        <ele>43.399999999999999</ele>
        <time>2019-03-10T12:33:01Z</time>
      </trkpt>
      <trkpt lat="34.77511078119278" lon="-5.975444186478853">
        <ele>42.439999999999998</ele>
        <time>2019-03-10T12:33:17Z</time>
      </trkpt>
      <trkpt lat="34.772770553827286" lon="-5.975235477089882">
        <ele>42.439999999999998</ele>
        <time>2019-03-10T12:33:26Z</time>
      </trkpt>
      <trkpt lat="34.771198946982622" lon="-5.975537225604057">
        <ele>42.439999999999998</ele>
        <time>2019-03-10T12:33:33Z</time>
      </trkpt>
      <trkpt lat="34.768413305282593" lon="-5.976432748138905">
        <ele>41.950000000000003</ele>
        <time>2019-03-10T12:33:48Z</time>
      </trkpt>
      <trkpt lat="34.766371306031942" lon="-5.977096427232027">
        <ele>41.469999999999999</ele>
        <time>2019-03-10T12:34:00Z</time>
      </trkpt>
      <trkpt lat="34.764055972918868" lon="-5.977821797132492">
        <ele>38.109999999999999</ele>
        <time>2019-03-10T12:34:13Z</time>
      </trkpt>
      <trkpt lat="34.761581048369408" lon="-5.978645822033286">
        <ele>39.07</ele>
        <time>2019-03-10T12:34:24Z</time>
      </trkpt>
      <trkpt lat="34.757824949920177" lon="-5.979954488575459">
        <ele>44.840000000000003</ele>
        <time>2019-03-10T12:34:40Z</time>
      </trkpt>
      <trkpt lat="34.757620180025697" lon="-5.980092873796821">
        <ele>48.68</ele>
        <time>2019-03-10T12:34:41Z</time>
      </trkpt>
      <trkpt lat="34.757423372939229" lon="-5.980249112471938">
        <ele>49.159999999999997</ele>
        <time>2019-03-10T12:34:42Z</time>
      </trkpt>
      <trkpt lat="34.75521189160645" lon="-5.98210939206183">
        <ele>50.130000000000003</ele>
        <time>2019-03-10T12:34:54Z</time>
      </trkpt>
      <trkpt lat="34.752958584576845" lon="-5.983981071040034">
        <ele>51.090000000000003</ele>
        <time>2019-03-10T12:35:06Z</time>
      </trkpt>
      <trkpt lat="34.749520076438785" lon="-5.986828990280628">
        <ele>52.049999999999997</ele>
        <time>2019-03-10T12:35:23Z</time>
      </trkpt>
      <trkpt lat="34.748916160315275" lon="-5.987190585583448">
        <ele>52.530000000000001</ele>
        <time>2019-03-10T12:35:26Z</time>
      </trkpt>
      <trkpt lat="34.748703511431813" lon="-5.987263759598136">
        <ele>53.009999999999998</ele>
        <time>2019-03-10T12:35:27Z</time>
      </trkpt>
      <trkpt lat="34.74848784506321" lon="-5.987313967198134">
        <ele>53.009999999999998</ele>
        <time>2019-03-10T12:35:28Z</time>
      </trkpt>
      <trkpt lat="34.74826849065721" lon="-5.987339364364743">
        <ele>52.530000000000001</ele>
        <time>2019-03-10T12:35:29Z</time>
      </trkpt>
      <trkpt lat="34.748048968613148" lon="-5.987344644963741">
        <ele>52.049999999999997</ele>
        <time>2019-03-10T12:35:30Z</time>
      </trkpt>
      <trkpt lat="34.747829027473927" lon="-5.98733433522284">
        <ele>45.799999999999997</ele>
        <time>2019-03-10T12:35:31Z</time>
      </trkpt>
      <trkpt lat="34.747609002515674" lon="-5.987305836752057">
        <ele>43.399999999999999</ele>
        <time>2019-03-10T12:35:32Z</time>
      </trkpt>
      <trkpt lat="34.747390234842896" lon="-5.987268704921007">
        <ele>46.280000000000001</ele>
        <time>2019-03-10T12:35:33Z</time>
      </trkpt>
      <trkpt lat="34.744722275063396" lon="-5.987047674134374">
        <ele>47.719999999999999</ele>
        <time>2019-03-10T12:35:45Z</time>
      </trkpt>
      <trkpt lat="34.741905117407441" lon="-5.986925298348069">
        <ele>49.649999999999999</ele>
        <time>2019-03-10T12:35:58Z</time>
      </trkpt>
      <trkpt lat="34.739388199523091" lon="-5.98699034191668">
        <ele>51.57</ele>
        <time>2019-03-10T12:36:11Z</time>
      </trkpt>
      <trkpt lat="34.736626697704196" lon="-5.987371383234859">
        <ele>51.57</ele>
        <time>2019-03-10T12:36:26Z</time>
      </trkpt>
      <trkpt lat="34.734285045415163" lon="-5.987940933555365">
        <ele>49.649999999999999</ele>
        <time>2019-03-10T12:36:39Z</time>
      </trkpt>
      <trkpt lat="34.732468435540795" lon="-5.988961346447468">
        <ele>50.130000000000003</ele>
        <time>2019-03-10T12:36:50Z</time>
      </trkpt>
      <trkpt lat="34.730697004124522" lon="-5.990382833406329">
        <ele>50.609999999999999</ele>
        <time>2019-03-10T12:37:01Z</time>
      </trkpt>
      <trkpt lat="34.728951808065176" lon="-5.991884702816606">
        <ele>51.090000000000003</ele>
        <time>2019-03-10T12:37:10Z</time>
      </trkpt>
      <trkpt lat="34.726974349468946" lon="-5.993371987715364">
        <ele>50.609999999999999</ele>
        <time>2019-03-10T12:37:20Z</time>
      </trkpt>
      <trkpt lat="34.725311379879713" lon="-5.9938052482903">
        <ele>48.200000000000003</ele>
        <time>2019-03-10T12:37:27Z</time>
      </trkpt>
      <trkpt lat="34.723799284547567" lon="-5.993603076785803">
        <ele>43.399999999999999</ele>
        <time>2019-03-10T12:37:33Z</time>
      </trkpt>
      <trkpt lat="34.722251314669847" lon="-5.992816602811217">
        <ele>30.420000000000002</ele>
        <time>2019-03-10T12:37:40Z</time>
      </trkpt>
      <trkpt lat="34.720562864094973" lon="-5.992179159075022">
        <ele>25.609999999999999</ele>
        <time>2019-03-10T12:37:48Z</time>
      </trkpt>
      <trkpt lat="34.71898497082293" lon="-5.992255853489041">
        <ele>24.649999999999999</ele>
        <time>2019-03-10T12:37:55Z</time>
      </trkpt>
      <trkpt lat="34.717521825805306" lon="-5.992982229217887">
        <ele>22.73</ele>
        <time>2019-03-10T12:38:02Z</time>
      </trkpt>
      <trkpt lat="34.716296559199691" lon="-5.99430019967258">
        <ele>22.25</ele>
        <time>2019-03-10T12:38:09Z</time>
      </trkpt>
      <trkpt lat="34.714398561045527" lon="-5.996179254725575">
        <ele>22.25</ele>
        <time>2019-03-10T12:38:20Z</time>
      </trkpt>
      <trkpt lat="34.712927620857954" lon="-5.996758108958602">
        <ele>22.25</ele>
        <time>2019-03-10T12:38:28Z</time>
      </trkpt>
      <trkpt lat="34.709863532334566" lon="-5.997716328129172">
        <ele>21.77</ele>
        <time>2019-03-10T12:38:43Z</time>
      </trkpt>
      <trkpt lat="34.706238191574812" lon="-5.998838748782873">
        <ele>21.289999999999999</ele>
        <time>2019-03-10T12:38:59Z</time>
      </trkpt>
      <trkpt lat="34.704087981954217" lon="-5.999506870284677">
        <ele>21.289999999999999</ele>
        <time>2019-03-10T12:39:10Z</time>
      </trkpt>
      <trkpt lat="34.702080180868506" lon="-6.000141883268952">
        <ele>21.77</ele>
        <time>2019-03-10T12:39:21Z</time>
      </trkpt>
      <trkpt lat="34.698388539254665" lon="-6.001290706917644">
        <ele>20.809999999999999</ele>
        <time>2019-03-10T12:39:40Z</time>
      </trkpt>
      <trkpt lat="34.696157863363624" lon="-6.001978944987059">
        <ele>20.809999999999999</ele>
        <time>2019-03-10T12:39:53Z</time>
      </trkpt>
      <trkpt lat="34.693957278504968" lon="-6.002662321552634">
        <ele>21.77</ele>
        <time>2019-03-10T12:40:07Z</time>
      </trkpt>
      <trkpt lat="34.693240541964769" lon="-6.002884609624744">
        <ele>19.359999999999999</ele>
        <time>2019-03-10T12:40:13Z</time>
      </trkpt>
      <trkpt lat="34.692368321120739" lon="-6.003155596554279">
        <ele>20.32</ele>
        <time>2019-03-10T12:40:25Z</time>
      </trkpt>
      <trkpt lat="34.691858198493719" lon="-6.003324072808027">
        <ele>24.170000000000002</ele>
        <time>2019-03-10T12:40:38Z</time>
      </trkpt>
      <trkpt lat="34.691064013168216" lon="-6.003577709197998">
        <ele>25.609999999999999</ele>
        <time>2019-03-10T12:40:50Z</time>
      </trkpt>
      <trkpt lat="34.690236048772931" lon="-6.003869315609336">
        <ele>26.09</ele>
        <time>2019-03-10T12:41:03Z</time>
      </trkpt>
      <trkpt lat="34.689705725759268" lon="-6.004017340019345">
        <ele>27.050000000000001</ele>
        <time>2019-03-10T13:15:36Z</time>
      </trkpt>
      <trkpt lat="34.68927145935595" lon="-6.00414658896625">
        <ele>27.050000000000001</ele>
        <time>2019-03-10T13:15:47Z</time>
      </trkpt>
      <trkpt lat="34.688445506617427" lon="-6.004404919221997">
        <ele>27.050000000000001</ele>
        <time>2019-03-10T13:15:57Z</time>
      </trkpt>
      <trkpt lat="34.688030267134309" lon="-6.00456677377224">
        <ele>26.57</ele>
        <time>2019-03-10T13:16:04Z</time>
      </trkpt>
      <trkpt lat="34.687821390107274" lon="-6.004599966108799">
        <ele>26.57</ele>
        <time>2019-03-10T13:16:12Z</time>
      </trkpt>
      <trkpt lat="34.687269693240523" lon="-6.004774896427989">
        <ele>26.57</ele>
        <time>2019-03-10T13:16:23Z</time>
      </trkpt>
      <trkpt lat="34.687230465933681" lon="-6.00476467050612">
        <ele>28.5</ele>
        <time>2019-03-10T13:16:24Z</time>
      </trkpt>
      <trkpt lat="34.687194256111979" lon="-6.004738183692098">
        <ele>30.899999999999999</ele>
        <time>2019-03-10T13:16:25Z</time>
      </trkpt>
      <trkpt lat="34.687086213380098" lon="-6.004626285284758">
        <ele>31.859999999999999</ele>
        <time>2019-03-10T13:16:28Z</time>
      </trkpt>
      <trkpt lat="34.687031731009483" lon="-6.004586052149534">
        <ele>30.899999999999999</ele>
        <time>2019-03-10T13:16:29Z</time>
      </trkpt>
      <trkpt lat="34.686961071565747" lon="-6.004546405747533">
        <ele>30.420000000000002</ele>
        <time>2019-03-10T13:16:30Z</time>
      </trkpt>
      <trkpt lat="34.686210807412863" lon="-6.004203585907817">
        <ele>31.859999999999999</ele>
        <time>2019-03-10T13:16:39Z</time>
      </trkpt>
      <trkpt lat="34.685487281531096" lon="-6.003868142142892">
        <ele>31.859999999999999</ele>
        <time>2019-03-10T13:16:49Z</time>
      </trkpt>
      <trkpt lat="34.684874564409256" lon="-6.003554658964276">
        <ele>31.859999999999999</ele>
        <time>2019-03-10T13:16:59Z</time>
      </trkpt>
      <trkpt lat="34.684276096522808" lon="-6.003154087811709">
        <ele>32.340000000000003</ele>
        <time>2019-03-10T13:17:08Z</time>
      </trkpt>
      <trkpt lat="34.683081675320864" lon="-6.002426287159324">
        <ele>30.420000000000002</ele>
        <time>2019-03-10T13:17:20Z</time>
      </trkpt>
      <trkpt lat="34.68221272341907" lon="-6.001954218372703">
        <ele>28.98</ele>
        <time>2019-03-10T13:17:30Z</time>
      </trkpt>
      <trkpt lat="34.682130832225084" lon="-6.001926893368363">
        <ele>28.98</ele>
        <time>2019-03-10T13:17:31Z</time>
      </trkpt>
      <trkpt lat="34.682041648775339" lon="-6.001913985237479">
        <ele>29.460000000000001</ele>
        <time>2019-03-10T13:17:32Z</time>
      </trkpt>
      <trkpt lat="34.681947017088532" lon="-6.001911722123623">
        <ele>29.940000000000001</ele>
        <time>2019-03-10T13:17:33Z</time>
      </trkpt>
      <trkpt lat="34.68064128421247" lon="-6.002060584723949">
        <ele>29.460000000000001</ele>
        <time>2019-03-10T13:17:46Z</time>
      </trkpt>
      <trkpt lat="34.679851289838552" lon="-6.002515889704227">
        <ele>29.460000000000001</ele>
        <time>2019-03-10T13:17:55Z</time>
      </trkpt>
      <trkpt lat="34.678907990455627" lon="-6.003214437514544">
        <ele>31.859999999999999</ele>
        <time>2019-03-10T13:18:04Z</time>
      </trkpt>
      <trkpt lat="34.678583610802889" lon="-6.003408813849092">
        <ele>35.710000000000001</ele>
        <time>2019-03-10T13:18:09Z</time>
      </trkpt>
      <trkpt lat="34.67803836800158" lon="-6.003692205995321">
        <ele>37.630000000000003</ele>
        <time>2019-03-10T13:18:15Z</time>
      </trkpt>
      <trkpt lat="34.676820477470756" lon="-6.003990266472101">
        <ele>38.109999999999999</ele>
        <time>2019-03-10T13:18:23Z</time>
      </trkpt>
      <trkpt lat="34.675480294972658" lon="-6.003846516832709">
        <ele>39.07</ele>
        <time>2019-03-10T13:18:30Z</time>
      </trkpt>
      <trkpt lat="34.67382101342082" lon="-6.003158781677485">
        <ele>42.439999999999998</ele>
        <time>2019-03-10T13:18:38Z</time>
      </trkpt>
      <trkpt lat="34.671390512958169" lon="-6.002065194770694">
        <ele>41.950000000000003</ele>
        <time>2019-03-10T13:18:49Z</time>
      </trkpt>
      <trkpt lat="34.670805959030986" lon="-6.001702677458525">
        <ele>39.549999999999997</ele>
        <time>2019-03-10T13:18:52Z</time>
      </trkpt>
      <trkpt lat="34.670634884387255" lon="-6.001536464318633">
        <ele>33.299999999999997</ele>
        <time>2019-03-10T13:18:53Z</time>
      </trkpt>
      <trkpt lat="34.670474706217647" lon="-6.001349966973066">
        <ele>39.07</ele>
        <time>2019-03-10T13:18:54Z</time>
      </trkpt>
      <trkpt lat="34.669410958886147" lon="-6.000020261853933">
        <ele>53.490000000000002</ele>
        <time>2019-03-10T13:19:02Z</time>
      </trkpt>
      <trkpt lat="34.668122744187713" lon="-5.998439518734813">
        <ele>47.719999999999999</ele>
        <time>2019-03-10T13:19:12Z</time>
      </trkpt>
      <trkpt lat="34.666907452046871" lon="-5.996721563860774">
        <ele>48.200000000000003</ele>
        <time>2019-03-10T13:19:23Z</time>
      </trkpt>
      <trkpt lat="34.665694087743759" lon="-5.994346048682928">
        <ele>56.369999999999997</ele>
        <time>2019-03-10T13:19:36Z</time>
      </trkpt>
      <trkpt lat="34.664478125050664" lon="-5.992039935663343">
        <ele>64.549999999999997</ele>
        <time>2019-03-10T13:19:46Z</time>
      </trkpt>
      <trkpt lat="34.66207385994494" lon="-5.987425865605474">
        <ele>68.870000000000005</ele>
        <time>2019-03-10T13:20:05Z</time>
      </trkpt>
      <trkpt lat="34.660718170925975" lon="-5.984977344051004">
        <ele>69.349999999999994</ele>
        <time>2019-03-10T13:20:15Z</time>
      </trkpt>
      <trkpt lat="34.658834002912045" lon="-5.982267893850803">
        <ele>69.349999999999994</ele>
        <time>2019-03-10T13:20:27Z</time>
      </trkpt>
      <trkpt lat="34.657336072996259" lon="-5.980087677016854">
        <ele>69.349999999999994</ele>
        <time>2019-03-10T13:20:38Z</time>
      </trkpt>
      <trkpt lat="34.655802184715867" lon="-5.977883152663708">
        <ele>69.349999999999994</ele>
        <time>2019-03-10T13:20:49Z</time>
      </trkpt>
      <trkpt lat="34.655124675482512" lon="-5.977042866870761">
        <ele>69.349999999999994</ele>
        <time>2019-03-10T13:20:55Z</time>
      </trkpt>
      <trkpt lat="34.654986625537276" lon="-5.976938847452402">
        <ele>63.100000000000001</ele>
        <time>2019-03-10T13:20:56Z</time>
      </trkpt>
      <trkpt lat="34.654841283336282" lon="-5.976847987622023">
        <ele>59.259999999999998</ele>
        <time>2019-03-10T13:20:57Z</time>
      </trkpt>
      <trkpt lat="34.654687223955989" lon="-5.976773053407669">
        <ele>55.409999999999997</ele>
        <time>2019-03-10T13:20:58Z</time>
      </trkpt>
      <trkpt lat="34.654526123777032" lon="-5.976710105314851">
        <ele>54.450000000000003</ele>
        <time>2019-03-10T13:20:59Z</time>
      </trkpt>
      <trkpt lat="34.654360581189394" lon="-5.976652521640062">
        <ele>54.93</ele>
        <time>2019-03-10T13:21:00Z</time>
      </trkpt>
      <trkpt lat="34.652158487588167" lon="-5.976000744849443">
        <ele>59.259999999999998</ele>
        <time>2019-03-10T13:21:12Z</time>
      </trkpt>
      <trkpt lat="34.650926096364856" lon="-5.975926481187344">
        <ele>61.18</ele>
        <time>2019-03-10T13:21:19Z</time>
      </trkpt>
      <trkpt lat="34.649641402065754" lon="-5.976225296035409">
        <ele>50.130000000000003</ele>
        <time>2019-03-10T13:21:29Z</time>
      </trkpt>
      <trkpt lat="34.648911003023386" lon="-5.976388575509191">
        <ele>40.990000000000002</ele>
        <time>2019-03-10T13:21:38Z</time>
      </trkpt>
      <trkpt lat="34.648034675046802" lon="-5.976602900773287">
        <ele>37.630000000000003</ele>
        <time>2019-03-10T13:21:48Z</time>
      </trkpt>
      <trkpt lat="34.646615032106638" lon="-5.976934572681785">
        <ele>37.630000000000003</ele>
        <time>2019-03-10T13:21:58Z</time>
      </trkpt>
      <trkpt lat="34.644458284601569" lon="-5.977297844365239">
        <ele>34.740000000000002</ele>
        <time>2019-03-10T13:22:10Z</time>
      </trkpt>
      <trkpt lat="34.641747744753957" lon="-5.977465230971575">
        <ele>32.82</ele>
        <time>2019-03-10T13:22:22Z</time>
      </trkpt>
      <trkpt lat="34.638462038710713" lon="-5.977677796036005">
        <ele>30.420000000000002</ele>
        <time>2019-03-10T13:22:35Z</time>
      </trkpt>
      <trkpt lat="34.633557284250855" lon="-5.977976443246007">
        <ele>28.02</ele>
        <time>2019-03-10T13:22:54Z</time>
      </trkpt>
      <trkpt lat="34.631608491763473" lon="-5.97784467972815">
        <ele>26.57</ele>
        <time>2019-03-10T13:23:02Z</time>
      </trkpt>
      <trkpt lat="34.628672981634736" lon="-5.977426758036017">
        <ele>26.09</ele>
        <time>2019-03-10T13:23:15Z</time>
      </trkpt>
      <trkpt lat="34.626347757875919" lon="-5.977095505222678">
        <ele>26.09</ele>
        <time>2019-03-10T13:23:28Z</time>
      </trkpt>
      <trkpt lat="34.624072825536132" lon="-5.976757211610675">
        <ele>26.09</ele>
        <time>2019-03-10T13:23:39Z</time>
      </trkpt>
      <trkpt lat="34.621634781360626" lon="-5.976428305730224">
        <ele>25.609999999999999</ele>
        <time>2019-03-10T13:23:49Z</time>
      </trkpt>
      <trkpt lat="34.619260607287288" lon="-5.976087665185332">
        <ele>24.170000000000002</ele>
        <time>2019-03-10T13:24:00Z</time>
      </trkpt>
      <trkpt lat="34.618002735078335" lon="-5.975708551704884">
        <ele>23.210000000000001</ele>
        <time>2019-03-10T13:24:09Z</time>
      </trkpt>
      <trkpt lat="34.61745036765933" lon="-5.975453071296215">
        <ele>23.690000000000001</ele>
        <time>2019-03-10T13:24:15Z</time>
      </trkpt>
      <trkpt lat="34.616621984168887" lon="-5.974984271451831">
        <ele>22.25</ele>
        <time>2019-03-10T13:24:21Z</time>
      </trkpt>
      <trkpt lat="34.614516282454133" lon="-5.973820863291621">
        <ele>21.289999999999999</ele>
        <time>2019-03-10T13:24:33Z</time>
      </trkpt>
      <trkpt lat="34.612162811681628" lon="-5.972540946677327">
        <ele>19.84</ele>
        <time>2019-03-10T13:24:45Z</time>
      </trkpt>
      <trkpt lat="34.609522931277752" lon="-5.9710658993572">
        <ele>19.84</ele>
        <time>2019-03-10T13:25:00Z</time>
      </trkpt>
      <trkpt lat="34.608276207000017" lon="-5.970238605514169">
        <ele>19.84</ele>
        <time>2019-03-10T13:25:09Z</time>
      </trkpt>
      <trkpt lat="34.606925714761019" lon="-5.968600194901228">
        <ele>19.84</ele>
        <time>2019-03-10T13:25:22Z</time>
      </trkpt>
      <trkpt lat="34.605689635500312" lon="-5.967379370704293">
        <ele>20.32</ele>
        <time>2019-03-10T13:25:33Z</time>
      </trkpt>
      <trkpt lat="34.603443033993244" lon="-5.966091994196177">
        <ele>17.920000000000002</ele>
        <time>2019-03-10T13:25:49Z</time>
      </trkpt>
      <trkpt lat="34.601310594007373" lon="-5.964855412021279">
        <ele>18.399999999999999</ele>
        <time>2019-03-10T13:26:05Z</time>
      </trkpt>
      <trkpt lat="34.599890531972051" lon="-5.963868107646704">
        <ele>17.920000000000002</ele>
        <time>2019-03-10T13:26:16Z</time>
      </trkpt>
      <trkpt lat="34.598447503522038" lon="-5.962802851572633">
        <ele>17.920000000000002</ele>
        <time>2019-03-10T13:26:26Z</time>
      </trkpt>
      <trkpt lat="34.596905903890729" lon="-5.961908334866166">
        <ele>17.440000000000001</ele>
        <time>2019-03-10T13:26:36Z</time>
      </trkpt>
      <trkpt lat="34.59414079785347" lon="-5.960926478728652">
        <ele>18.399999999999999</ele>
        <time>2019-03-10T13:26:53Z</time>
      </trkpt>
      <trkpt lat="34.591725887730718" lon="-5.960083091631532">
        <ele>18.399999999999999</ele>
        <time>2019-03-10T13:27:08Z</time>
      </trkpt>
      <trkpt lat="34.590689716860652" lon="-5.959714120253921">
        <ele>18.399999999999999</ele>
        <time>2019-03-10T13:27:17Z</time>
      </trkpt>
      <trkpt lat="34.589167227968574" lon="-5.959197795018554">
        <ele>18.399999999999999</ele>
        <time>2019-03-10T13:27:27Z</time>
      </trkpt>
      <trkpt lat="34.587669633328915" lon="-5.958680463954806">
        <ele>18.399999999999999</ele>
        <time>2019-03-10T13:27:37Z</time>
      </trkpt>
      <trkpt lat="34.58686513826251" lon="-5.958331944420934">
        <ele>18.399999999999999</ele>
        <time>2019-03-10T13:27:45Z</time>
      </trkpt>
      <trkpt lat="34.586034575477242" lon="-5.957883261144161">
        <ele>18.399999999999999</ele>
        <time>2019-03-10T13:27:54Z</time>
      </trkpt>
      <trkpt lat="34.585943128913641" lon="-5.957842608913779">
        <ele>17.920000000000002</ele>
        <time>2019-03-10T13:27:56Z</time>
      </trkpt>
      <trkpt lat="34.585891664028168" lon="-5.957831209525466">
        <ele>17.920000000000002</ele>
        <time>2019-03-10T13:27:57Z</time>
      </trkpt>
      <trkpt lat="34.585836175829172" lon="-5.957819391041994">
        <ele>17.920000000000002</ele>
        <time>2019-03-10T13:27:58Z</time>
      </trkpt>
      <trkpt lat="34.585781777277589" lon="-5.957791227847338">
        <ele>17.920000000000002</ele>
        <time>2019-03-10T13:27:59Z</time>
      </trkpt>
      <trkpt lat="34.585730228573084" lon="-5.95774294808507">
        <ele>17.440000000000001</ele>
        <time>2019-03-10T13:28:00Z</time>
      </trkpt>
      <trkpt lat="34.585676081478596" lon="-5.95769408158958">
        <ele>17.440000000000001</ele>
        <time>2019-03-10T13:28:01Z</time>
      </trkpt>
      <trkpt lat="34.585624784231186" lon="-5.957651501521468">
        <ele>19.359999999999999</ele>
        <time>2019-03-10T13:28:02Z</time>
      </trkpt>
      <trkpt lat="34.585570050403476" lon="-5.957619398832321">
        <ele>20.32</ele>
        <time>2019-03-10T13:28:03Z</time>
      </trkpt>
      <trkpt lat="34.585509365424514" lon="-5.957588469609618">
        <ele>21.77</ele>
        <time>2019-03-10T13:28:04Z</time>
      </trkpt>
      <trkpt lat="34.584851218387485" lon="-5.957237603142858">
        <ele>21.289999999999999</ele>
        <time>2019-03-10T13:28:11Z</time>
      </trkpt>
      <trkpt lat="34.58333183079958" lon="-5.956421373412013">
        <ele>20.32</ele>
        <time>2019-03-10T13:28:24Z</time>
      </trkpt>
      <trkpt lat="34.581809006631374" lon="-5.956019209697843">
        <ele>19.84</ele>
        <time>2019-03-10T13:28:36Z</time>
      </trkpt>
      <trkpt lat="34.579748315736651" lon="-5.955543201416731">
        <ele>19.359999999999999</ele>
        <time>2019-03-10T13:28:53Z</time>
      </trkpt>
      <trkpt lat="34.577732048928738" lon="-5.955141540616751">
        <ele>19.359999999999999</ele>
        <time>2019-03-10T13:29:10Z</time>
      </trkpt>
      <trkpt lat="34.577314546331763" lon="-5.955095356330276">
        <ele>18.879999999999999</ele>
        <time>2019-03-10T13:29:15Z</time>
      </trkpt>
      <trkpt lat="34.57725671119988" lon="-5.955112287774682">
        <ele>18.879999999999999</ele>
        <time>2019-03-10T13:29:16Z</time>
      </trkpt>
      <trkpt lat="34.577199881896377" lon="-5.955140199512243">
        <ele>18.879999999999999</ele>
        <time>2019-03-10T13:29:17Z</time>
      </trkpt>
      <trkpt lat="34.577080775052309" lon="-5.955205326899886">
        <ele>18.399999999999999</ele>
        <time>2019-03-10T13:29:19Z</time>
      </trkpt>
      <trkpt lat="34.577013049274683" lon="-5.955226449295878">
        <ele>18.399999999999999</ele>
        <time>2019-03-10T13:29:20Z</time>
      </trkpt>
      <trkpt lat="34.576942808926105" lon="-5.955216307193041">
        <ele>18.399999999999999</ele>
        <time>2019-03-10T13:29:21Z</time>
      </trkpt>
      <trkpt lat="34.576877932995558" lon="-5.955177415162325">
        <ele>18.399999999999999</ele>
        <time>2019-03-10T13:29:22Z</time>
      </trkpt>
      <trkpt lat="34.576815739274025" lon="-5.955127710476518">
        <ele>18.399999999999999</ele>
        <time>2019-03-10T13:29:23Z</time>
      </trkpt>
      <trkpt lat="34.576749689877033" lon="-5.95508043654263">
        <ele>18.399999999999999</ele>
        <time>2019-03-10T13:29:24Z</time>
      </trkpt>
      <trkpt lat="34.576676683500409" lon="-5.9550457354635">
        <ele>18.879999999999999</ele>
        <time>2019-03-10T13:29:25Z</time>
      </trkpt>
      <trkpt lat="34.5766029227525" lon="-5.955022852867842">
        <ele>19.84</ele>
        <time>2019-03-10T13:29:26Z</time>
      </trkpt>
      <trkpt lat="34.576533269137144" lon="-5.955010866746306">
        <ele>20.32</ele>
        <time>2019-03-10T13:29:27Z</time>
      </trkpt>
      <trkpt lat="34.576467555016279" lon="-5.955004412680864">
        <ele>20.32</ele>
        <time>2019-03-10T13:29:28Z</time>
      </trkpt>
      <trkpt lat="34.575665323063731" lon="-5.955035258084536">
        <ele>19.84</ele>
        <time>2019-03-10T13:29:37Z</time>
      </trkpt>
      <trkpt lat="34.574838951230049" lon="-5.955227706581354">
        <ele>19.359999999999999</ele>
        <time>2019-03-10T13:29:46Z</time>
      </trkpt>
      <trkpt lat="34.573805211111903" lon="-5.955703631043434">
        <ele>18.879999999999999</ele>
        <time>2019-03-10T13:29:57Z</time>
      </trkpt>
      <trkpt lat="34.573643943294883" lon="-5.955813601613045">
        <ele>18.399999999999999</ele>
        <time>2019-03-10T13:30:04Z</time>
      </trkpt>
      <trkpt lat="34.573594406247139" lon="-5.955885434523225">
        <ele>17.920000000000002</ele>
        <time>2019-03-10T13:30:06Z</time>
      </trkpt>
      <trkpt lat="34.573574122041464" lon="-5.955944443121553">
        <ele>17.920000000000002</ele>
        <time>2019-03-10T13:30:07Z</time>
      </trkpt>
      <trkpt lat="34.57355635240674" lon="-5.956010827794671">
        <ele>17.920000000000002</ele>
        <time>2019-03-10T13:30:08Z</time>
      </trkpt>
      <trkpt lat="34.573518550023437" lon="-5.9561578463763">
        <ele>17.440000000000001</ele>
        <time>2019-03-10T13:30:10Z</time>
      </trkpt>
      <trkpt lat="34.573483765125275" lon="-5.956235378980637">
        <ele>17.920000000000002</ele>
        <time>2019-03-10T13:30:11Z</time>
      </trkpt>
      <trkpt lat="34.573440011590719" lon="-5.956303020939231">
        <ele>17.440000000000001</ele>
        <time>2019-03-10T13:30:12Z</time>
      </trkpt>
      <trkpt lat="34.573388043791056" lon="-5.956356916576624">
        <ele>17.440000000000001</ele>
        <time>2019-03-10T13:30:13Z</time>
      </trkpt>
      <trkpt lat="34.573329789564013" lon="-5.956392288208008">
        <ele>17.440000000000001</ele>
        <time>2019-03-10T13:30:14Z</time>
      </trkpt>
      <trkpt lat="34.573266422376037" lon="-5.956400251016021">
        <ele>17.440000000000001</ele>
        <time>2019-03-10T13:30:15Z</time>
      </trkpt>
      <trkpt lat="34.573205905035138" lon="-5.956380888819695">
        <ele>17.920000000000002</ele>
        <time>2019-03-10T13:30:16Z</time>
      </trkpt>
      <trkpt lat="34.573146812617779" lon="-5.956345517188311">
        <ele>17.920000000000002</ele>
        <time>2019-03-10T13:30:17Z</time>
      </trkpt>
      <trkpt lat="34.573087887838483" lon="-5.956307463347912">
        <ele>17.920000000000002</ele>
        <time>2019-03-10T13:30:18Z</time>
      </trkpt>
      <trkpt lat="34.573024772107601" lon="-5.956282988190651">
        <ele>17.920000000000002</ele>
        <time>2019-03-10T13:30:19Z</time>
      </trkpt>
      <trkpt lat="34.572960147634149" lon="-5.956277875229716">
        <ele>18.879999999999999</ele>
        <time>2019-03-10T13:30:20Z</time>
      </trkpt>
      <trkpt lat="34.572899881750345" lon="-5.956290783360601">
        <ele>18.399999999999999</ele>
        <time>2019-03-10T13:30:21Z</time>
      </trkpt>
      <trkpt lat="34.572846237570047" lon="-5.956311151385307">
        <ele>17.920000000000002</ele>
        <time>2019-03-10T13:30:22Z</time>
      </trkpt>
      <trkpt lat="34.572798712179065" lon="-5.956333698704839">
        <ele>17.920000000000002</ele>
        <time>2019-03-10T13:30:23Z</time>
      </trkpt>
      <trkpt lat="34.572756551206112" lon="-5.956357000395656">
        <ele>17.440000000000001</ele>
        <time>2019-03-10T13:30:24Z</time>
      </trkpt>
      <trkpt lat="34.572270317003131" lon="-5.956662436947227">
        <ele>16.48</ele>
        <time>2019-03-10T13:30:31Z</time>
      </trkpt>
      <trkpt lat="34.571155942976475" lon="-5.957352686673403">
        <ele>16.48</ele>
        <time>2019-03-10T13:30:44Z</time>
      </trkpt>
      <trkpt lat="34.5701271481812" lon="-5.958001362159848">
        <ele>17.920000000000002</ele>
        <time>2019-03-10T13:30:57Z</time>
      </trkpt>
      <trkpt lat="34.569214107468724" lon="-5.958569487556815">
        <ele>17.920000000000002</ele>
        <time>2019-03-10T13:31:08Z</time>
      </trkpt>
      <trkpt lat="34.568445570766926" lon="-5.959258815273643">
        <ele>18.399999999999999</ele>
        <time>2019-03-10T13:31:18Z</time>
      </trkpt>
      <trkpt lat="34.568225629627705" lon="-5.960011845454574">
        <ele>18.399999999999999</ele>
        <time>2019-03-10T13:31:28Z</time>
      </trkpt>
      <trkpt lat="34.568141642957926" lon="-5.961124124005437">
        <ele>18.399999999999999</ele>
        <time>2019-03-10T13:31:37Z</time>
      </trkpt>
      <trkpt lat="34.568087998777628" lon="-5.961569873616099">
        <ele>18.399999999999999</ele>
        <time>2019-03-10T13:31:40Z</time>
      </trkpt>
      <trkpt lat="34.568048436194658" lon="-5.961718233302236">
        <ele>18.399999999999999</ele>
        <time>2019-03-10T13:31:41Z</time>
      </trkpt>
      <trkpt lat="34.567995462566614" lon="-5.961857791990042">
        <ele>18.399999999999999</ele>
        <time>2019-03-10T13:31:42Z</time>
      </trkpt>
      <trkpt lat="34.567932011559606" lon="-5.961985867470503">
        <ele>17.920000000000002</ele>
        <time>2019-03-10T13:31:43Z</time>
      </trkpt>
      <trkpt lat="34.567860513925552" lon="-5.96210639923811">
        <ele>16.48</ele>
        <time>2019-03-10T13:31:44Z</time>
      </trkpt>
      <trkpt lat="34.56778272986412" lon="-5.962221398949623">
        <ele>14.08</ele>
        <time>2019-03-10T13:31:45Z</time>
      </trkpt>
      <trkpt lat="34.567066580057144" lon="-5.963103342801333">
        <ele>15.039999999999999</ele>
        <time>2019-03-10T13:31:55Z</time>
      </trkpt>
      <trkpt lat="34.566911514848471" lon="-5.963279530405998">
        <ele>14.56</ele>
        <time>2019-03-10T13:32:00Z</time>
      </trkpt>
      <trkpt lat="34.566439529880881" lon="-5.963860563933849">
        <ele>14.56</ele>
        <time>2019-03-10T13:32:07Z</time>
      </trkpt>
      <trkpt lat="34.565638052299619" lon="-5.964356772601605">
        <ele>14.08</ele>
        <time>2019-03-10T13:32:13Z</time>
      </trkpt>
      <trkpt lat="34.564127717167139" lon="-5.965135786682367">
        <ele>14.08</ele>
        <time>2019-03-10T13:32:22Z</time>
      </trkpt>
      <trkpt lat="34.562704470008612" lon="-5.965298311784864">
        <ele>15.039999999999999</ele>
        <time>2019-03-10T13:32:29Z</time>
      </trkpt>
      <trkpt lat="34.561346936970949" lon="-5.964847030118108">
        <ele>15.52</ele>
        <time>2019-03-10T13:32:35Z</time>
      </trkpt>
      <trkpt lat="34.558628099039197" lon="-5.963593935593963">
        <ele>16.960000000000001</ele>
        <time>2019-03-10T13:32:47Z</time>
      </trkpt>
      <trkpt lat="34.554529599845409" lon="-5.961720831692219">
        <ele>18.879999999999999</ele>
        <time>2019-03-10T13:33:05Z</time>
      </trkpt>
      <trkpt lat="34.550982713699341" lon="-5.96011133864522">
        <ele>17.920000000000002</ele>
        <time>2019-03-10T13:33:22Z</time>
      </trkpt>
      <trkpt lat="34.547330886125565" lon="-5.958428671583533">
        <ele>16.960000000000001</ele>
        <time>2019-03-10T13:33:40Z</time>
      </trkpt>
      <trkpt lat="34.543930180370808" lon="-5.956853628158569">
        <ele>16.960000000000001</ele>
        <time>2019-03-10T13:33:55Z</time>
      </trkpt>
      <trkpt lat="34.53856416977942" lon="-5.954398149624467">
        <ele>16.48</ele>
        <time>2019-03-10T13:34:18Z</time>
      </trkpt>
      <trkpt lat="34.531900472939014" lon="-5.951357698068023">
        <ele>16.48</ele>
        <time>2019-03-10T13:34:47Z</time>
      </trkpt>
      <trkpt lat="34.528654497116804" lon="-5.949856918305159">
        <ele>15.039999999999999</ele>
        <time>2019-03-10T13:35:02Z</time>
      </trkpt>
      <trkpt lat="34.524669321253896" lon="-5.948037374764681">
        <ele>15.039999999999999</ele>
        <time>2019-03-10T13:35:20Z</time>
      </trkpt>
      <trkpt lat="34.519448317587376" lon="-5.945652136579156">
        <ele>15.039999999999999</ele>
        <time>2019-03-10T13:35:43Z</time>
      </trkpt>
      <trkpt lat="34.517906382679939" lon="-5.944945123046637">
        <ele>15.039999999999999</ele>
        <time>2019-03-10T13:35:51Z</time>
      </trkpt>
      <trkpt lat="34.516302002593875" lon="-5.944199217483401">
        <ele>14.56</ele>
        <time>2019-03-10T13:36:01Z</time>
      </trkpt>
      <trkpt lat="34.513381747528911" lon="-5.942868422716856">
        <ele>15.039999999999999</ele>
        <time>2019-03-10T13:36:17Z</time>
      </trkpt>
      <trkpt lat="34.509770907461643" lon="-5.941210985183716">
        <ele>15.52</ele>
        <time>2019-03-10T13:36:36Z</time>
      </trkpt>
      <trkpt lat="34.5065594650805" lon="-5.939740715548396">
        <ele>15.52</ele>
        <time>2019-03-10T13:36:51Z</time>
      </trkpt>
      <trkpt lat="34.50310000218451" lon="-5.938162738457322">
        <ele>16</ele>
        <time>2019-03-10T13:37:07Z</time>
      </trkpt>
      <trkpt lat="34.50031234882772" lon="-5.936878882348537">
        <ele>16.48</ele>
        <time>2019-03-10T13:37:21Z</time>
      </trkpt>
      <trkpt lat="34.496400095522404" lon="-5.935094961896539">
        <ele>16.48</ele>
        <time>2019-03-10T13:37:41Z</time>
      </trkpt>
      <trkpt lat="34.492235211655498" lon="-5.933196796104312">
        <ele>17.440000000000001</ele>
        <time>2019-03-10T13:38:01Z</time>
      </trkpt>
      <trkpt lat="34.488029424101114" lon="-5.931258648633957">
        <ele>16.48</ele>
        <time>2019-03-10T13:38:20Z</time>
      </trkpt>
      <trkpt lat="34.485111851245165" lon="-5.929920645430684">
        <ele>16.48</ele>
        <time>2019-03-10T13:38:34Z</time>
      </trkpt>
      <trkpt lat="34.483002126216888" lon="-5.928954295814037">
        <ele>17.440000000000001</ele>
        <time>2019-03-10T13:38:46Z</time>
      </trkpt>
      <trkpt lat="34.481075713410974" lon="-5.928071094676852">
        <ele>18.879999999999999</ele>
        <time>2019-03-10T13:38:58Z</time>
      </trkpt>
      <trkpt lat="34.479840053245425" lon="-5.927491234615445">
        <ele>20.809999999999999</ele>
        <time>2019-03-10T13:39:07Z</time>
      </trkpt>
      <trkpt lat="34.477987485006452" lon="-5.92664516530931">
        <ele>20.32</ele>
        <time>2019-03-10T13:39:18Z</time>
      </trkpt>
      <trkpt lat="34.476776299998164" lon="-5.926101263612509">
        <ele>20.32</ele>
        <time>2019-03-10T13:39:27Z</time>
      </trkpt>
      <trkpt lat="34.475287338718772" lon="-5.925413277000189">
        <ele>19.84</ele>
        <time>2019-03-10T13:39:41Z</time>
      </trkpt>
      <trkpt lat="34.474237756803632" lon="-5.924663348123431">
        <ele>18.879999999999999</ele>
        <time>2019-03-10T13:39:51Z</time>
      </trkpt>
      <trkpt lat="34.473126232624054" lon="-5.923854913562536">
        <ele>18.399999999999999</ele>
        <time>2019-03-10T13:40:00Z</time>
      </trkpt>
      <trkpt lat="34.471426550298929" lon="-5.922990404069424">
        <ele>16.48</ele>
        <time>2019-03-10T13:40:11Z</time>
      </trkpt>
      <trkpt lat="34.469467364251614" lon="-5.921494988724589">
        <ele>16.48</ele>
        <time>2019-03-10T13:40:23Z</time>
      </trkpt>
      <trkpt lat="34.467209866270423" lon="-5.919769490137696">
        <ele>16</ele>
        <time>2019-03-10T13:40:37Z</time>
      </trkpt>
      <trkpt lat="34.465934475883842" lon="-5.918590910732746">
        <ele>15.52</ele>
        <time>2019-03-10T13:40:47Z</time>
      </trkpt>
      <trkpt lat="34.464285671710968" lon="-5.91677438467741">
        <ele>15.039999999999999</ele>
        <time>2019-03-10T13:41:00Z</time>
      </trkpt>
      <trkpt lat="34.4618871062994" lon="-5.914061246439815">
        <ele>15.52</ele>
        <time>2019-03-10T13:41:18Z</time>
      </trkpt>
      <trkpt lat="34.459347641095519" lon="-5.911190109327436">
        <ele>15.52</ele>
        <time>2019-03-10T13:41:37Z</time>
      </trkpt>
      <trkpt lat="34.457579143345356" lon="-5.909185325726867">
        <ele>14.56</ele>
        <time>2019-03-10T13:41:49Z</time>
      </trkpt>
      <trkpt lat="34.455284681171179" lon="-5.906593892723322">
        <ele>14.08</ele>
        <time>2019-03-10T13:42:04Z</time>
      </trkpt>
      <trkpt lat="34.451933763921261" lon="-5.902826311066747">
        <ele>13.6</ele>
        <time>2019-03-10T13:42:25Z</time>
      </trkpt>
      <trkpt lat="34.44913194514811" lon="-5.899676810950041">
        <ele>13.119999999999999</ele>
        <time>2019-03-10T13:42:42Z</time>
      </trkpt>
      <trkpt lat="34.446720890700817" lon="-5.896949423477054">
        <ele>13.119999999999999</ele>
        <time>2019-03-10T13:42:58Z</time>
      </trkpt>
      <trkpt lat="34.444567579776049" lon="-5.894517581909895">
        <ele>13.119999999999999</ele>
        <time>2019-03-10T13:43:11Z</time>
      </trkpt>
      <trkpt lat="34.440908627584577" lon="-5.890396116301417">
        <ele>13.6</ele>
        <time>2019-03-10T13:43:32Z</time>
      </trkpt>
      <trkpt lat="34.43716099485755" lon="-5.886171888560057">
        <ele>12.630000000000001</ele>
        <time>2019-03-10T13:43:53Z</time>
      </trkpt>
      <trkpt lat="34.433702537789941" lon="-5.882287714630365">
        <ele>13.119999999999999</ele>
        <time>2019-03-10T13:44:12Z</time>
      </trkpt>
      <trkpt lat="34.42974116653204" lon="-5.877828961238265">
        <ele>13.119999999999999</ele>
        <time>2019-03-10T13:44:34Z</time>
      </trkpt>
      <trkpt lat="34.426327385008335" lon="-5.874003292992711">
        <ele>13.119999999999999</ele>
        <time>2019-03-10T13:44:53Z</time>
      </trkpt>
      <trkpt lat="34.424151610583067" lon="-5.871560471132398">
        <ele>12.630000000000001</ele>
        <time>2019-03-10T13:45:06Z</time>
      </trkpt>
      <trkpt lat="34.420875962823629" lon="-5.867888862267137">
        <ele>14.08</ele>
        <time>2019-03-10T13:45:25Z</time>
      </trkpt>
      <trkpt lat="34.41855794750154" lon="-5.865285946056247">
        <ele>13.6</ele>
        <time>2019-03-10T13:45:39Z</time>
      </trkpt>
      <trkpt lat="34.416060810908675" lon="-5.862478511407971">
        <ele>13.6</ele>
        <time>2019-03-10T13:45:55Z</time>
      </trkpt>
      <trkpt lat="34.414062816649675" lon="-5.860211877152324">
        <ele>13.6</ele>
        <time>2019-03-10T13:46:06Z</time>
      </trkpt>
      <trkpt lat="34.411924174055457" lon="-5.857847258448601">
        <ele>14.56</ele>
        <time>2019-03-10T13:46:18Z</time>
      </trkpt>
      <trkpt lat="34.40868716686964" lon="-5.854216385632753">
        <ele>15.039999999999999</ele>
        <time>2019-03-10T13:46:36Z</time>
      </trkpt>
      <trkpt lat="34.40440678037703" lon="-5.849422607570887">
        <ele>14.56</ele>
        <time>2019-03-10T13:46:59Z</time>
      </trkpt>
      <trkpt lat="34.400829719379544" lon="-5.845405161380768">
        <ele>15.039999999999999</ele>
        <time>2019-03-10T13:47:18Z</time>
      </trkpt>
      <trkpt lat="34.399530356749892" lon="-5.843948470428586">
        <ele>15.52</ele>
        <time>2019-03-10T13:47:26Z</time>
      </trkpt>
      <trkpt lat="34.397640321403742" lon="-5.841824663802981">
        <ele>15.52</ele>
        <time>2019-03-10T13:47:40Z</time>
      </trkpt>
      <trkpt lat="34.396175500005484" lon="-5.840171920135617">
        <ele>16</ele>
        <time>2019-03-10T13:47:53Z</time>
      </trkpt>
      <trkpt lat="34.394723251461983" lon="-5.838524540886283">
        <ele>16</ele>
        <time>2019-03-10T13:48:06Z</time>
      </trkpt>
      <trkpt lat="34.393178718164563" lon="-5.836824523285031">
        <ele>16</ele>
        <time>2019-03-10T13:48:16Z</time>
      </trkpt>
      <trkpt lat="34.390480080619454" lon="-5.833805361762643">
        <ele>16.48</ele>
        <time>2019-03-10T13:48:31Z</time>
      </trkpt>
      <trkpt lat="34.387233769521117" lon="-5.830160910263658">
        <ele>16</ele>
        <time>2019-03-10T13:48:49Z</time>
      </trkpt>
      <trkpt lat="34.385201241821051" lon="-5.827883379533887">
        <ele>16</ele>
        <time>2019-03-10T13:49:03Z</time>
      </trkpt>
      <trkpt lat="34.3825445137918" lon="-5.824901768937707">
        <ele>16</ele>
        <time>2019-03-10T13:49:22Z</time>
      </trkpt>
      <trkpt lat="34.380466639995575" lon="-5.822583083063364">
        <ele>16.48</ele>
        <time>2019-03-10T13:49:35Z</time>
      </trkpt>
      <trkpt lat="34.377494249492884" lon="-5.81923870369792">
        <ele>17.440000000000001</ele>
        <time>2019-03-10T13:49:52Z</time>
      </trkpt>
      <trkpt lat="34.3733333889395" lon="-5.814564451575279">
        <ele>19.359999999999999</ele>
        <time>2019-03-10T13:50:15Z</time>
      </trkpt>
      <trkpt lat="34.369393475353718" lon="-5.810148362070322">
        <ele>22.25</ele>
        <time>2019-03-10T13:50:37Z</time>
      </trkpt>
      <trkpt lat="34.365666545927525" lon="-5.805982975289226">
        <ele>23.210000000000001</ele>
        <time>2019-03-10T13:50:58Z</time>
      </trkpt>
      <trkpt lat="34.361403174698353" lon="-5.801199171692133">
        <ele>24.170000000000002</ele>
        <time>2019-03-10T13:51:22Z</time>
      </trkpt>
      <trkpt lat="34.359178952872753" lon="-5.798870008438826">
        <ele>24.170000000000002</ele>
        <time>2019-03-10T13:51:35Z</time>
      </trkpt>
      <trkpt lat="34.357019942253828" lon="-5.797470565885305">
        <ele>25.129999999999999</ele>
        <time>2019-03-10T13:51:46Z</time>
      </trkpt>
      <trkpt lat="34.353654105216265" lon="-5.79535405151546">
        <ele>26.57</ele>
        <time>2019-03-10T13:52:03Z</time>
      </trkpt>
      <trkpt lat="34.35224175453186" lon="-5.794470431283116">
        <ele>25.609999999999999</ele>
        <time>2019-03-10T13:52:12Z</time>
      </trkpt>
      <trkpt lat="34.350154493004084" lon="-5.793172158300877">
        <ele>26.09</ele>
        <time>2019-03-10T13:52:24Z</time>
      </trkpt>
      <trkpt lat="34.348419355228543" lon="-5.792083013802767">
        <ele>26.09</ele>
        <time>2019-03-10T13:52:35Z</time>
      </trkpt>
      <trkpt lat="34.346159007400274" lon="-5.790663370862603">
        <ele>26.57</ele>
        <time>2019-03-10T13:52:51Z</time>
      </trkpt>
      <trkpt lat="34.343821965157986" lon="-5.789180276915431">
        <ele>26.57</ele>
        <time>2019-03-10T13:53:06Z</time>
      </trkpt>
      <trkpt lat="34.341192645952106" lon="-5.787536334246397">
        <ele>27.050000000000001</ele>
        <time>2019-03-10T13:53:24Z</time>
      </trkpt>
      <trkpt lat="34.339345777407289" lon="-5.786383654922247">
        <ele>27.530000000000001</ele>
        <time>2019-03-10T13:53:38Z</time>
      </trkpt>
      <trkpt lat="34.337865533307195" lon="-5.785418981686235">
        <ele>28.5</ele>
        <time>2019-03-10T13:53:50Z</time>
      </trkpt>
      <trkpt lat="34.335707696154714" lon="-5.784076955169439">
        <ele>28.98</ele>
        <time>2019-03-10T13:54:06Z</time>
      </trkpt>
      <trkpt lat="34.333573412150145" lon="-5.782705675810576">
        <ele>29.940000000000001</ele>
        <time>2019-03-10T13:54:20Z</time>
      </trkpt>
      <trkpt lat="34.331078035756946" lon="-5.781167345121503">
        <ele>29.940000000000001</ele>
        <time>2019-03-10T13:54:34Z</time>
      </trkpt>
      <trkpt lat="34.328155685216188" lon="-5.779335228726268">
        <ele>30.420000000000002</ele>
        <time>2019-03-10T13:54:51Z</time>
      </trkpt>
      <trkpt lat="34.325881423428655" lon="-5.777909550815821">
        <ele>30.420000000000002</ele>
        <time>2019-03-10T13:55:05Z</time>
      </trkpt>
      <trkpt lat="34.323497107252479" lon="-5.776402652263641">
        <ele>30.899999999999999</ele>
        <time>2019-03-10T13:55:20Z</time>
      </trkpt>
      <trkpt lat="34.320723870769143" lon="-5.774673884734511">
        <ele>31.379999999999999</ele>
        <time>2019-03-10T13:55:38Z</time>
      </trkpt>
      <trkpt lat="34.318267554044724" lon="-5.77312583103776">
        <ele>31.859999999999999</ele>
        <time>2019-03-10T13:55:53Z</time>
      </trkpt>
      <trkpt lat="34.315720880404115" lon="-5.771533269435167">
        <ele>32.82</ele>
        <time>2019-03-10T13:56:09Z</time>
      </trkpt>
      <trkpt lat="34.313555499538779" lon="-5.77017012052238">
        <ele>33.299999999999997</ele>
        <time>2019-03-10T13:56:23Z</time>
      </trkpt>
      <trkpt lat="34.310852838680148" lon="-5.768466414883733">
        <ele>33.299999999999997</ele>
        <time>2019-03-10T13:56:41Z</time>
      </trkpt>
      <trkpt lat="34.30886322632432" lon="-5.767187923192978">
        <ele>33.780000000000001</ele>
        <time>2019-03-10T13:56:53Z</time>
      </trkpt>
      <trkpt lat="34.306298866868019" lon="-5.76561220921576">
        <ele>34.740000000000002</ele>
        <time>2019-03-10T13:57:05Z</time>
      </trkpt>
      <trkpt lat="34.302940154448152" lon="-5.76350424438715">
        <ele>34.259999999999998</ele>
        <time>2019-03-10T13:57:21Z</time>
      </trkpt>
      <trkpt lat="34.301213901489973" lon="-5.762423314154148">
        <ele>35.229999999999997</ele>
        <time>2019-03-10T13:57:31Z</time>
      </trkpt>
      <trkpt lat="34.299288159236312" lon="-5.761162173002958">
        <ele>36.670000000000002</ele>
        <time>2019-03-10T13:57:43Z</time>
      </trkpt>
      <trkpt lat="34.297389071434736" lon="-5.759981498122215">
        <ele>38.109999999999999</ele>
        <time>2019-03-10T13:57:53Z</time>
      </trkpt>
      <trkpt lat="34.295652592554688" lon="-5.758884139358997">
        <ele>39.07</ele>
        <time>2019-03-10T13:58:02Z</time>
      </trkpt>
      <trkpt lat="34.292440228164196" lon="-5.756866112351418">
        <ele>39.07</ele>
        <time>2019-03-10T13:58:17Z</time>
      </trkpt>
      <trkpt lat="34.290596209466457" lon="-5.755724078044295">
        <ele>39.07</ele>
        <time>2019-03-10T13:58:27Z</time>
      </trkpt>
      <trkpt lat="34.288602154701948" lon="-5.754448268562555">
        <ele>39.549999999999997</ele>
        <time>2019-03-10T13:58:38Z</time>
      </trkpt>
      <trkpt lat="34.286124212667346" lon="-5.752949500456452">
        <ele>40.030000000000001</ele>
        <time>2019-03-10T13:58:49Z</time>
      </trkpt>
      <trkpt lat="34.281141590327024" lon="-5.749826990067959">
        <ele>40.509999999999998</ele>
        <time>2019-03-10T13:59:11Z</time>
      </trkpt>
      <trkpt lat="34.277607779949903" lon="-5.747608300298452">
        <ele>41.469999999999999</ele>
        <time>2019-03-10T13:59:27Z</time>
      </trkpt>
      <trkpt lat="34.274257533252239" lon="-5.745512153953314">
        <ele>42.920000000000002</ele>
        <time>2019-03-10T13:59:42Z</time>
      </trkpt>
      <trkpt lat="34.27229281514883" lon="-5.744292167946696">
        <ele>43.399999999999999</ele>
        <time>2019-03-10T13:59:52Z</time>
      </trkpt>
      <trkpt lat="34.271805072203279" lon="-5.744022186845541">
        <ele>42.920000000000002</ele>
        <time>2019-03-10T13:59:57Z</time>
      </trkpt>
      <trkpt lat="34.271013736724854" lon="-5.743669224902988">
        <ele>43.399999999999999</ele>
        <time>2019-03-10T14:00:07Z</time>
      </trkpt>
      <trkpt lat="34.26981009542942" lon="-5.743224984034896">
        <ele>44.840000000000003</ele>
        <time>2019-03-10T14:00:16Z</time>
      </trkpt>
      <trkpt lat="34.268154837191105" lon="-5.742525514215231">
        <ele>43.399999999999999</ele>
        <time>2019-03-10T14:00:26Z</time>
      </trkpt>
      <trkpt lat="34.266928732395172" lon="-5.741798551753163">
        <ele>43.399999999999999</ele>
        <time>2019-03-10T14:00:35Z</time>
      </trkpt>
      <trkpt lat="34.265377661213279" lon="-5.740775624290109">
        <ele>43.880000000000003</ele>
        <time>2019-03-10T14:00:46Z</time>
      </trkpt>
      <trkpt lat="34.262922098860145" lon="-5.73918423615396">
        <ele>45.32</ele>
        <time>2019-03-10T14:01:00Z</time>
      </trkpt>
      <trkpt lat="34.260426638647914" lon="-5.737557727843523">
        <ele>44.359999999999999</ele>
        <time>2019-03-10T14:01:13Z</time>
      </trkpt>
      <trkpt lat="34.256753185763955" lon="-5.735186655074358">
        <ele>44.840000000000003</ele>
        <time>2019-03-10T14:01:31Z</time>
      </trkpt>
      <trkpt lat="34.254947304725647" lon="-5.734017295762897">
        <ele>45.799999999999997</ele>
        <time>2019-03-10T14:01:41Z</time>
      </trkpt>
      <trkpt lat="34.252680838108063" lon="-5.732547696679831">
        <ele>46.759999999999998</ele>
        <time>2019-03-10T14:01:55Z</time>
      </trkpt>
      <trkpt lat="34.251116188243032" lon="-5.731527702882886">
        <ele>46.759999999999998</ele>
        <time>2019-03-10T14:02:06Z</time>
      </trkpt>
      <trkpt lat="34.249771814793348" lon="-5.73067668825388">
        <ele>47.240000000000002</ele>
        <time>2019-03-10T14:02:15Z</time>
      </trkpt>
      <trkpt lat="34.247258584946394" lon="-5.729043558239937">
        <ele>47.240000000000002</ele>
        <time>2019-03-10T14:02:31Z</time>
      </trkpt>
      <trkpt lat="34.245322197675705" lon="-5.727782584726811">
        <ele>47.240000000000002</ele>
        <time>2019-03-10T14:02:45Z</time>
      </trkpt>
      <trkpt lat="34.243512460961938" lon="-5.726619344204664">
        <ele>47.240000000000002</ele>
        <time>2019-03-10T14:02:59Z</time>
      </trkpt>
      <trkpt lat="34.243084229528904" lon="-5.726297730579972">
        <ele>47.240000000000002</ele>
        <time>2019-03-10T14:03:03Z</time>
      </trkpt>
      <trkpt lat="34.242994459345937" lon="-5.726193375885487">
        <ele>47.240000000000002</ele>
        <time>2019-03-10T14:03:04Z</time>
      </trkpt>
      <trkpt lat="34.242915753275156" lon="-5.726075107231736">
        <ele>46.759999999999998</ele>
        <time>2019-03-10T14:03:05Z</time>
      </trkpt>
      <trkpt lat="34.242852972820401" lon="-5.725944600999355">
        <ele>46.759999999999998</ele>
        <time>2019-03-10T14:03:06Z</time>
      </trkpt>
      <trkpt lat="34.242806034162641" lon="-5.725808646529913">
        <ele>46.280000000000001</ele>
        <time>2019-03-10T14:03:07Z</time>
      </trkpt>
      <trkpt lat="34.242776613682508" lon="-5.725669004023075">
        <ele>44.359999999999999</ele>
        <time>2019-03-10T14:03:08Z</time>
      </trkpt>
      <trkpt lat="34.242764879018068" lon="-5.725521985441446">
        <ele>44.840000000000003</ele>
        <time>2019-03-10T14:03:09Z</time>
      </trkpt>
      <trkpt lat="34.242767812684178" lon="-5.72536826133728">
        <ele>45.32</ele>
        <time>2019-03-10T14:03:10Z</time>
      </trkpt>
      <trkpt lat="34.242786420509219" lon="-5.72520749643445">
        <ele>45.799999999999997</ele>
        <time>2019-03-10T14:03:11Z</time>
      </trkpt>
      <trkpt lat="34.242812739685178" lon="-5.725045474246144">
        <ele>45.799999999999997</ele>
        <time>2019-03-10T14:03:12Z</time>
      </trkpt>
      <trkpt lat="34.243168802931905" lon="-5.722822258248925">
        <ele>45.799999999999997</ele>
        <time>2019-03-10T14:03:25Z</time>
      </trkpt>
      <trkpt lat="34.243476167321205" lon="-5.72082401253283">
        <ele>45.799999999999997</ele>
        <time>2019-03-10T14:03:39Z</time>
      </trkpt>
      <trkpt lat="34.243512293323874" lon="-5.720455292612314">
        <ele>45.799999999999997</ele>
        <time>2019-03-10T14:03:42Z</time>
      </trkpt>
      <trkpt lat="34.243504330515862" lon="-5.720334760844708">
        <ele>45.799999999999997</ele>
        <time>2019-03-10T14:03:43Z</time>
      </trkpt>
      <trkpt lat="34.243478178977966" lon="-5.720214480534196">
        <ele>45.799999999999997</ele>
        <time>2019-03-10T14:03:44Z</time>
      </trkpt>
      <trkpt lat="34.243443058803678" lon="-5.720099480822682">
        <ele>45.799999999999997</ele>
        <time>2019-03-10T14:03:45Z</time>
      </trkpt>
      <trkpt lat="34.243400311097503" lon="-5.719993365928531">
        <ele>45.799999999999997</ele>
        <time>2019-03-10T14:03:46Z</time>
      </trkpt>
      <trkpt lat="34.243347253650427" lon="-5.719899237155914">
        <ele>47.719999999999999</ele>
        <time>2019-03-10T14:03:47Z</time>
      </trkpt>
      <trkpt lat="34.243282126262784" lon="-5.719817345961928">
        <ele>48.68</ele>
        <time>2019-03-10T14:03:48Z</time>
      </trkpt>
      <trkpt lat="34.243203839287162" lon="-5.719749117270112">
        <ele>48.68</ele>
        <time>2019-03-10T14:03:49Z</time>
      </trkpt>
      <trkpt lat="34.243122283369303" lon="-5.719693042337894">
        <ele>48.68</ele>
        <time>2019-03-10T14:03:50Z</time>
      </trkpt>
      <trkpt lat="34.24303762614727" lon="-5.719646187499166">
        <ele>48.68</ele>
        <time>2019-03-10T14:03:51Z</time>
      </trkpt>
      <trkpt lat="34.242199519649148" lon="-5.719235222786665">
        <ele>48.68</ele>
        <time>2019-03-10T14:04:03Z</time>
      </trkpt>
      <trkpt lat="34.242071360349655" lon="-5.719212424010038">
        <ele>48.68</ele>
        <time>2019-03-10T14:04:06Z</time>
      </trkpt>
      <trkpt lat="34.242021068930626" lon="-5.719214603304863">
        <ele>48.68</ele>
        <time>2019-03-10T14:04:07Z</time>
      </trkpt>
      <trkpt lat="34.241963820531964" lon="-5.719223069027066">
        <ele>48.68</ele>
        <time>2019-03-10T14:04:08Z</time>
      </trkpt>
      <trkpt lat="34.241899447515607" lon="-5.719228517264128">
        <ele>48.68</ele>
        <time>2019-03-10T14:04:09Z</time>
      </trkpt>
      <trkpt lat="34.241830548271537" lon="-5.719218710437417">
        <ele>48.68</ele>
        <time>2019-03-10T14:04:10Z</time>
      </trkpt>
      <trkpt lat="34.241762654855847" lon="-5.71918660774827">
        <ele>49.159999999999997</ele>
        <time>2019-03-10T14:04:11Z</time>
      </trkpt>
      <trkpt lat="34.241698449477553" lon="-5.719133382663131">
        <ele>48.68</ele>
        <time>2019-03-10T14:04:12Z</time>
      </trkpt>
      <trkpt lat="34.241635333746672" lon="-5.719068758189678">
        <ele>49.159999999999997</ele>
        <time>2019-03-10T14:04:13Z</time>
      </trkpt>
      <trkpt lat="34.241565261036158" lon="-5.719005391001701">
        <ele>49.649999999999999</ele>
        <time>2019-03-10T14:04:14Z</time>
      </trkpt>
      <trkpt lat="34.241482447832823" lon="-5.718950908631086">
        <ele>49.649999999999999</ele>
        <time>2019-03-10T14:04:15Z</time>
      </trkpt>
      <trkpt lat="34.240561528131366" lon="-5.71850054897368">
        <ele>50.130000000000003</ele>
        <time>2019-03-10T14:04:23Z</time>
      </trkpt>
      <trkpt lat="34.239171389490366" lon="-5.717588514089584">
        <ele>51.090000000000003</ele>
        <time>2019-03-10T14:04:33Z</time>
      </trkpt>
      <trkpt lat="34.23751462250948" lon="-5.716525437310338">
        <ele>53.969999999999999</ele>
        <time>2019-03-10T14:04:45Z</time>
      </trkpt>
      <trkpt lat="34.237139113247395" lon="-5.71631739847362">
        <ele>54.93</ele>
        <time>2019-03-10T14:04:49Z</time>
      </trkpt>
      <trkpt lat="34.23705437220633" lon="-5.716257803142071">
        <ele>55.409999999999997</ele>
        <time>2019-03-10T14:04:50Z</time>
      </trkpt>
      <trkpt lat="34.236074946820736" lon="-5.715577192604542">
        <ele>55.409999999999997</ele>
        <time>2019-03-10T14:04:59Z</time>
      </trkpt>
      <trkpt lat="34.234226318076253" lon="-5.714395930990577">
        <ele>53.969999999999999</ele>
        <time>2019-03-10T14:05:14Z</time>
      </trkpt>
      <trkpt lat="34.232964674010873" lon="-5.713588669896126">
        <ele>54.450000000000003</ele>
        <time>2019-03-10T14:05:28Z</time>
      </trkpt>
      <trkpt lat="34.232271742075682" lon="-5.713150966912508">
        <ele>54.93</ele>
        <time>2019-03-10T14:05:38Z</time>
      </trkpt>
      <trkpt lat="34.23220812343061" lon="-5.713122971355915">
        <ele>54.93</ele>
        <time>2019-03-10T14:05:39Z</time>
      </trkpt>
      <trkpt lat="34.232145762071013" lon="-5.713103776797652">
        <ele>54.93</ele>
        <time>2019-03-10T14:05:40Z</time>
      </trkpt>
      <trkpt lat="34.231445537880063" lon="-5.71295608766377">
        <ele>54.93</ele>
        <time>2019-03-10T14:05:50Z</time>
      </trkpt>
      <trkpt lat="34.230154976248741" lon="-5.712961787357926">
        <ele>55.409999999999997</ele>
        <time>2019-03-10T14:06:01Z</time>
      </trkpt>
      <trkpt lat="34.22865629196167" lon="-5.712949298322201">
        <ele>55.409999999999997</ele>
        <time>2019-03-10T14:06:14Z</time>
      </trkpt>
      <trkpt lat="34.228341551497579" lon="-5.7129648886621">
        <ele>55.409999999999997</ele>
        <time>2019-03-10T14:06:22Z</time>
      </trkpt>
      <trkpt lat="34.228250188753009" lon="-5.712966984137893">
        <ele>55.890000000000001</ele>
        <time>2019-03-10T14:06:24Z</time>
      </trkpt>
      <trkpt lat="34.228190593421459" lon="-5.712958099320531">
        <ele>56.369999999999997</ele>
        <time>2019-03-10T14:06:25Z</time>
      </trkpt>
      <trkpt lat="34.227540912106633" lon="-5.71291359141469">
        <ele>56.369999999999997</ele>
        <time>2019-03-10T14:06:32Z</time>
      </trkpt>
      <trkpt lat="34.226415306329727" lon="-5.712912082672119">
        <ele>56.369999999999997</ele>
        <time>2019-03-10T14:06:43Z</time>
      </trkpt>
      <trkpt lat="34.226340958848596" lon="-5.712925158441067">
        <ele>56.859999999999999</ele>
        <time>2019-03-10T14:06:44Z</time>
      </trkpt>
      <trkpt lat="34.226274574175477" lon="-5.712949465960264">
        <ele>56.859999999999999</ele>
        <time>2019-03-10T14:06:45Z</time>
      </trkpt>
      <trkpt lat="34.226215146481991" lon="-5.712983496487141">
        <ele>56.859999999999999</ele>
        <time>2019-03-10T14:06:46Z</time>
      </trkpt>
      <trkpt lat="34.226160747930408" lon="-5.713026076555252">
        <ele>57.340000000000003</ele>
        <time>2019-03-10T14:06:47Z</time>
      </trkpt>
      <trkpt lat="34.226108863949776" lon="-5.713069075718522">
        <ele>57.340000000000003</ele>
        <time>2019-03-10T14:06:48Z</time>
      </trkpt>
      <trkpt lat="34.226056560873985" lon="-5.713101513683796">
        <ele>57.340000000000003</ele>
        <time>2019-03-10T14:06:49Z</time>
      </trkpt>
      <trkpt lat="34.225999061018229" lon="-5.713113583624363">
        <ele>57.340000000000003</ele>
        <time>2019-03-10T14:06:50Z</time>
      </trkpt>
      <trkpt lat="34.225939800962806" lon="-5.713101681321859">
        <ele>57.82</ele>
        <time>2019-03-10T14:06:51Z</time>
      </trkpt>
      <trkpt lat="34.225885234773159" lon="-5.713063459843397">
        <ele>57.82</ele>
        <time>2019-03-10T14:06:52Z</time>
      </trkpt>
      <trkpt lat="34.225848522037268" lon="-5.713001182302833">
        <ele>57.82</ele>
        <time>2019-03-10T14:06:53Z</time>
      </trkpt>
      <trkpt lat="34.225829830393195" lon="-5.71292482316494">
        <ele>61.659999999999997</ele>
        <time>2019-03-10T14:06:54Z</time>
      </trkpt>
      <trkpt lat="34.225821448490024" lon="-5.712844524532557">
        <ele>64.549999999999997</ele>
        <time>2019-03-10T14:06:55Z</time>
      </trkpt>
      <trkpt lat="34.225813737139106" lon="-5.712769506499171">
        <ele>67.909999999999997</ele>
        <time>2019-03-10T14:06:56Z</time>
      </trkpt>
      <trkpt lat="34.225798984989524" lon="-5.712702283635736">
        <ele>73.200000000000003</ele>
        <time>2019-03-10T14:06:57Z</time>
      </trkpt>
      <trkpt lat="34.225775012746453" lon="-5.712638078257442">
        <ele>77.519999999999996</ele>
        <time>2019-03-10T14:06:58Z</time>
      </trkpt>
      <trkpt lat="34.225257765501738" lon="-5.711673321202397">
        <ele>80.890000000000001</ele>
        <time>2019-03-10T14:07:12Z</time>
      </trkpt>
      <trkpt lat="34.2246915679425" lon="-5.71068643592298">
        <ele>82.329999999999998</ele>
        <time>2019-03-10T14:07:26Z</time>
      </trkpt>
      <trkpt lat="34.224043563008308" lon="-5.709516825154424">
        <ele>82.329999999999998</ele>
        <time>2019-03-10T14:07:41Z</time>
      </trkpt>
      <trkpt lat="34.223282486200333" lon="-5.708112856373191">
        <ele>82.329999999999998</ele>
        <time>2019-03-10T14:07:59Z</time>
      </trkpt>
      <trkpt lat="34.222698099911213" lon="-5.707055814564228">
        <ele>82.329999999999998</ele>
        <time>2019-03-10T14:08:11Z</time>
      </trkpt>
      <trkpt lat="34.222238436341286" lon="-5.706221144646406">
        <ele>82.810000000000002</ele>
        <time>2019-03-10T14:08:21Z</time>
      </trkpt>
      <trkpt lat="34.221980776637793" lon="-5.705815628170967">
        <ele>82.810000000000002</ele>
        <time>2019-03-10T14:08:29Z</time>
      </trkpt>
      <trkpt lat="34.221944818273187" lon="-5.705789057537913">
        <ele>82.810000000000002</ele>
        <time>2019-03-10T14:08:30Z</time>
      </trkpt>
      <trkpt lat="34.221898885443807" lon="-5.705772126093507">
        <ele>82.810000000000002</ele>
        <time>2019-03-10T14:08:31Z</time>
      </trkpt>
      <trkpt lat="34.221839709207416" lon="-5.705772880464792">
        <ele>82.810000000000002</ele>
        <time>2019-03-10T14:08:32Z</time>
      </trkpt>
      <trkpt lat="34.221609206870198" lon="-5.705796936526895">
        <ele>83.290000000000006</ele>
        <time>2019-03-10T14:08:35Z</time>
      </trkpt>
      <trkpt lat="34.221528405323625" lon="-5.705781932920218">
        <ele>83.769999999999996</ele>
        <time>2019-03-10T14:08:36Z</time>
      </trkpt>
      <trkpt lat="34.221453387290239" lon="-5.705755362287164">
        <ele>84.25</ele>
        <time>2019-03-10T14:08:37Z</time>
      </trkpt>
      <trkpt lat="34.22138256020844" lon="-5.705716051161289">
        <ele>84.25</ele>
        <time>2019-03-10T14:08:38Z</time>
      </trkpt>
      <trkpt lat="34.22131072729826" lon="-5.705659640952945">
        <ele>85.209999999999994</ele>
        <time>2019-03-10T14:08:39Z</time>
      </trkpt>
      <trkpt lat="34.221242498606443" lon="-5.705586215481162">
        <ele>85.209999999999994</ele>
        <time>2019-03-10T14:08:40Z</time>
      </trkpt>
      <trkpt lat="34.221180975437164" lon="-5.705497115850449">
        <ele>86.180000000000007</ele>
        <time>2019-03-10T14:08:41Z</time>
      </trkpt>
      <trkpt lat="34.2211255710572" lon="-5.705402651801705">
        <ele>86.180000000000007</ele>
        <time>2019-03-10T14:08:42Z</time>
      </trkpt>
      <trkpt lat="34.22107670456171" lon="-5.705309780314565">
        <ele>90.5</ele>
        <time>2019-03-10T14:08:43Z</time>
      </trkpt>
      <trkpt lat="34.220712929964066" lon="-5.704581309109926">
        <ele>90.5</ele>
        <time>2019-03-10T14:08:51Z</time>
      </trkpt>
      <trkpt lat="34.220692561939359" lon="-5.704478463158011">
        <ele>90.980000000000004</ele>
        <time>2019-03-10T14:08:52Z</time>
      </trkpt>
      <trkpt lat="34.220551829785109" lon="-5.704016033560038">
        <ele>90.980000000000004</ele>
        <time>2019-03-10T14:08:56Z</time>
      </trkpt>
      <trkpt lat="34.220484439283609" lon="-5.70388862863183">
        <ele>90.980000000000004</ele>
        <time>2019-03-10T14:08:57Z</time>
      </trkpt>
      <trkpt lat="34.219899466261268" lon="-5.702863186597824">
        <ele>91.459999999999994</ele>
        <time>2019-03-10T14:09:06Z</time>
      </trkpt>
      <trkpt lat="34.219839116558433" lon="-5.702799735590816">
        <ele>91.939999999999998</ele>
        <time>2019-03-10T14:09:07Z</time>
      </trkpt>
      <trkpt lat="34.219771306961775" lon="-5.702758161351085">
        <ele>92.420000000000002</ele>
        <time>2019-03-10T14:09:08Z</time>
      </trkpt>
      <trkpt lat="34.2197026591748" lon="-5.702739385887981">
        <ele>92.420000000000002</ele>
        <time>2019-03-10T14:09:09Z</time>
      </trkpt>
      <trkpt lat="34.21964306384325" lon="-5.702737374231219">
        <ele>92.420000000000002</ele>
        <time>2019-03-10T14:09:10Z</time>
      </trkpt>
      <trkpt lat="34.219598807394505" lon="-5.702742235735059">
        <ele>92.900000000000006</ele>
        <time>2019-03-10T14:09:11Z</time>
      </trkpt>
      <trkpt lat="34.219565782696009" lon="-5.702749695628882">
        <ele>92.900000000000006</ele>
        <time>2019-03-10T14:09:12Z</time>
      </trkpt>
      <trkpt lat="34.219501493498683" lon="-5.702777775004506">
        <ele>93.870000000000005</ele>
        <time>2019-03-10T14:09:14Z</time>
      </trkpt>
      <trkpt lat="34.219460338354111" lon="-5.702810883522034">
        <ele>92.900000000000006</ele>
        <time>2019-03-10T14:09:15Z</time>
      </trkpt>
      <trkpt lat="34.219416081905365" lon="-5.702859498560429">
        <ele>93.870000000000005</ele>
        <time>2019-03-10T14:09:16Z</time>
      </trkpt>
      <trkpt lat="34.219371154904366" lon="-5.70292261429131">
        <ele>93.390000000000001</ele>
        <time>2019-03-10T14:09:17Z</time>
      </trkpt>
      <trkpt lat="34.219322120770812" lon="-5.702994866296649">
        <ele>87.140000000000001</ele>
        <time>2019-03-10T14:09:18Z</time>
      </trkpt>
      <trkpt lat="34.218575041741133" lon="-5.704126758500934">
        <ele>85.209999999999994</ele>
        <time>2019-03-10T14:09:31Z</time>
      </trkpt>
      <trkpt lat="34.217739868909121" lon="-5.705413464456797">
        <ele>85.209999999999994</ele>
        <time>2019-03-10T14:09:43Z</time>
      </trkpt>
      <trkpt lat="34.216944007202983" lon="-5.706763118505478">
        <ele>84.730000000000004</ele>
        <time>2019-03-10T14:09:56Z</time>
      </trkpt>
      <trkpt lat="34.216296253725886" lon="-5.708064157515764">
        <ele>83.769999999999996</ele>
        <time>2019-03-10T14:10:06Z</time>
      </trkpt>
      <trkpt lat="34.215731984004378" lon="-5.709438705816865">
        <ele>83.290000000000006</ele>
        <time>2019-03-10T14:10:19Z</time>
      </trkpt>
      <trkpt lat="34.215705581009388" lon="-5.709523446857929">
        <ele>82.810000000000002</ele>
        <time>2019-03-10T14:10:26Z</time>
      </trkpt>
      <trkpt lat="34.215648667886853" lon="-5.709666442126036">
        <ele>81.849999999999994</ele>
        <time>2019-03-10T14:10:32Z</time>
      </trkpt>
      <trkpt lat="34.215613044798374" lon="-5.709678176790476">
        <ele>81.370000000000005</ele>
        <time>2019-03-10T14:10:33Z</time>
      </trkpt>
      <trkpt lat="34.215569123625755" lon="-5.709677757695317">
        <ele>76.079999999999998</ele>
        <time>2019-03-10T14:10:34Z</time>
      </trkpt>
      <trkpt lat="34.215516233816743" lon="-5.709678512066603">
        <ele>75.599999999999994</ele>
        <time>2019-03-10T14:10:35Z</time>
      </trkpt>
      <trkpt lat="34.215451693162322" lon="-5.709689408540726">
        <ele>75.599999999999994</ele>
        <time>2019-03-10T14:10:36Z</time>
      </trkpt>
      <trkpt lat="34.215377261862159" lon="-5.709713464602828">
        <ele>75.599999999999994</ele>
        <time>2019-03-10T14:10:37Z</time>
      </trkpt>
      <trkpt lat="34.215291766449809" lon="-5.709745651111007">
        <ele>75.120000000000005</ele>
        <time>2019-03-10T14:10:38Z</time>
      </trkpt>
      <trkpt lat="34.214049568399787" lon="-5.710194921121001">
        <ele>75.120000000000005</ele>
        <time>2019-03-10T14:10:50Z</time>
      </trkpt>
      <trkpt lat="34.213816551491618" lon="-5.710296258330345">
        <ele>75.120000000000005</ele>
        <time>2019-03-10T14:10:53Z</time>
      </trkpt>
      <trkpt lat="34.213778497651219" lon="-5.710326684638858">
        <ele>73.200000000000003</ele>
        <time>2019-03-10T14:10:54Z</time>
      </trkpt>
      <trkpt lat="34.213758213445544" lon="-5.71034437045455">
        <ele>73.200000000000003</ele>
        <time>2019-03-10T14:10:55Z</time>
      </trkpt>
      <trkpt lat="34.213679423555732" lon="-5.710398098453879">
        <ele>74.159999999999997</ele>
        <time>2019-03-10T14:11:04Z</time>
      </trkpt>
      <trkpt lat="34.213628210127354" lon="-5.710402708500624">
        <ele>75.120000000000005</ele>
        <time>2019-03-10T14:11:05Z</time>
      </trkpt>
      <trkpt lat="34.213570794090629" lon="-5.710397260263562">
        <ele>75.120000000000005</ele>
        <time>2019-03-10T14:11:06Z</time>
      </trkpt>
      <trkpt lat="34.213005853816867" lon="-5.710280584171414">
        <ele>75.599999999999994</ele>
        <time>2019-03-10T14:11:12Z</time>
      </trkpt>
      <trkpt lat="34.211670532822609" lon="-5.710004651919007">
        <ele>77.519999999999996</ele>
        <time>2019-03-10T14:11:22Z</time>
      </trkpt>
      <trkpt lat="34.210347784683108" lon="-5.709980176761746">
        <ele>81.370000000000005</ele>
        <time>2019-03-10T14:11:31Z</time>
      </trkpt>
      <trkpt lat="34.20931488275528" lon="-5.710262982174754">
        <ele>80.890000000000001</ele>
        <time>2019-03-10T14:11:40Z</time>
      </trkpt>
      <trkpt lat="34.20777328312397" lon="-5.710718790069223">
        <ele>81.849999999999994</ele>
        <time>2019-03-10T14:11:53Z</time>
      </trkpt>
      <trkpt lat="34.206156665459275" lon="-5.711204437538981">
        <ele>81.849999999999994</ele>
        <time>2019-03-10T14:12:07Z</time>
      </trkpt>
      <trkpt lat="34.205478904768825" lon="-5.711372913792729">
        <ele>83.290000000000006</ele>
        <time>2019-03-10T14:12:16Z</time>
      </trkpt>
      <trkpt lat="34.204615820199251" lon="-5.711346594616771">
        <ele>84.25</ele>
        <time>2019-03-10T14:12:25Z</time>
      </trkpt>
      <trkpt lat="34.203576380386949" lon="-5.710927918553352">
        <ele>85.209999999999994</ele>
        <time>2019-03-10T14:12:33Z</time>
      </trkpt>
      <trkpt lat="34.202572479844093" lon="-5.710344957187772">
        <ele>91.939999999999998</ele>
        <time>2019-03-10T14:12:41Z</time>
      </trkpt>
      <trkpt lat="34.202454965561628" lon="-5.710295336320996">
        <ele>96.269999999999996</ele>
        <time>2019-03-10T14:12:42Z</time>
      </trkpt>
      <trkpt lat="34.201299687847495" lon="-5.710118394345045">
        <ele>96.269999999999996</ele>
        <time>2019-03-10T14:12:51Z</time>
      </trkpt>
      <trkpt lat="34.200568199157715" lon="-5.710146306082606">
        <ele>95.310000000000002</ele>
        <time>2019-03-10T14:12:58Z</time>
      </trkpt>
      <trkpt lat="34.199554491788149" lon="-5.710210092365742">
        <ele>94.829999999999998</ele>
        <time>2019-03-10T14:13:06Z</time>
      </trkpt>
      <trkpt lat="34.197813151404262" lon="-5.710371360182762">
        <ele>94.829999999999998</ele>
        <time>2019-03-10T14:13:19Z</time>
      </trkpt>
      <trkpt lat="34.196589477360249" lon="-5.710883075371385">
        <ele>90.980000000000004</ele>
        <time>2019-03-10T14:13:29Z</time>
      </trkpt>
      <trkpt lat="34.195778528228402" lon="-5.711264200508595">
        <ele>90.980000000000004</ele>
        <time>2019-03-10T14:13:37Z</time>
      </trkpt>
      <trkpt lat="34.195548612624407" lon="-5.711344666779041">
        <ele>90.5</ele>
        <time>2019-03-10T14:13:39Z</time>
      </trkpt>
      <trkpt lat="34.195421291515231" lon="-5.711362017318606">
        <ele>90.5</ele>
        <time>2019-03-10T14:13:40Z</time>
      </trkpt>
      <trkpt lat="34.195294138044119" lon="-5.711358245462179">
        <ele>90.019999999999996</ele>
        <time>2019-03-10T14:13:41Z</time>
      </trkpt>
      <trkpt lat="34.194184625521302" lon="-5.711351707577705">
        <ele>89.060000000000002</ele>
        <time>2019-03-10T14:13:51Z</time>
      </trkpt>
      <trkpt lat="34.194081444293261" lon="-5.711387330666184">
        <ele>90.980000000000004</ele>
        <time>2019-03-10T14:13:52Z</time>
      </trkpt>
      <trkpt lat="34.193972228094935" lon="-5.711438292637467">
        <ele>92.900000000000006</ele>
        <time>2019-03-10T14:13:53Z</time>
      </trkpt>
      <trkpt lat="34.193856474012136" lon="-5.711505180224776">
        <ele>92.900000000000006</ele>
        <time>2019-03-10T14:13:54Z</time>
      </trkpt>
      <trkpt lat="34.193735690787435" lon="-5.711581707000732">
        <ele>93.390000000000001</ele>
        <time>2019-03-10T14:13:55Z</time>
      </trkpt>
      <trkpt lat="34.192554345354438" lon="-5.71240103803575">
        <ele>93.390000000000001</ele>
        <time>2019-03-10T14:14:03Z</time>
      </trkpt>
      <trkpt lat="34.191168984398246" lon="-5.712886434048414">
        <ele>93.390000000000001</ele>
        <time>2019-03-10T14:14:11Z</time>
      </trkpt>
      <trkpt lat="34.190688701346517" lon="-5.71295709349215">
        <ele>92.900000000000006</ele>
        <time>2019-03-10T14:14:14Z</time>
      </trkpt>
      <trkpt lat="34.190528774634004" lon="-5.712940329685807">
        <ele>92.900000000000006</ele>
        <time>2019-03-10T14:14:15Z</time>
      </trkpt>
      <trkpt lat="34.190362729132175" lon="-5.712901772931218">
        <ele>93.390000000000001</ele>
        <time>2019-03-10T14:14:16Z</time>
      </trkpt>
      <trkpt lat="34.190189559012651" lon="-5.712843351066113">
        <ele>94.829999999999998</ele>
        <time>2019-03-10T14:14:17Z</time>
      </trkpt>
      <trkpt lat="34.190008509904146" lon="-5.712764309719205">
        <ele>95.790000000000006</ele>
        <time>2019-03-10T14:14:18Z</time>
      </trkpt>
      <trkpt lat="34.189822431653738" lon="-5.712667498737574">
        <ele>106.84</ele>
        <time>2019-03-10T14:14:19Z</time>
      </trkpt>
      <trkpt lat="34.189632413908839" lon="-5.712559372186661">
        <ele>116.45999999999999</ele>
        <time>2019-03-10T14:14:20Z</time>
      </trkpt>
      <trkpt lat="34.188882149755955" lon="-5.712033156305552">
        <ele>116.94</ele>
        <time>2019-03-10T14:14:24Z</time>
      </trkpt>
      <trkpt lat="34.188723899424076" lon="-5.711866104975343">
        <ele>117.90000000000001</ele>
        <time>2019-03-10T14:14:25Z</time>
      </trkpt>
      <trkpt lat="34.188580652698874" lon="-5.711678601801395">
        <ele>116.94</ele>
        <time>2019-03-10T14:14:26Z</time>
      </trkpt>
      <trkpt lat="34.187482874840498" lon="-5.710350153967738">
        <ele>116.45999999999999</ele>
        <time>2019-03-10T14:14:34Z</time>
      </trkpt>
      <trkpt lat="34.18652524240315" lon="-5.709401071071625">
        <ele>115.98</ele>
        <time>2019-03-10T14:14:43Z</time>
      </trkpt>
      <trkpt lat="34.186425330117345" lon="-5.709343235939741">
        <ele>119.34</ele>
        <time>2019-03-10T14:14:44Z</time>
      </trkpt>
      <trkpt lat="34.18533400632441" lon="-5.708581656217575">
        <ele>117.90000000000001</ele>
        <time>2019-03-10T14:14:56Z</time>
      </trkpt>
      <trkpt lat="34.184242933988571" lon="-5.707278605550528">
        <ele>117.90000000000001</ele>
        <time>2019-03-10T14:15:08Z</time>
      </trkpt>
      <trkpt lat="34.183492586016655" lon="-5.705793919041753">
        <ele>117.90000000000001</ele>
        <time>2019-03-10T14:15:18Z</time>
      </trkpt>
      <trkpt lat="34.182482985779643" lon="-5.704404031857848">
        <ele>118.38</ele>
        <time>2019-03-10T14:15:28Z</time>
      </trkpt>
      <trkpt lat="34.181857276707888" lon="-5.703187063336372">
        <ele>118.86</ele>
        <time>2019-03-10T14:15:36Z</time>
      </trkpt>
      <trkpt lat="34.181308429688215" lon="-5.702032623812556">
        <ele>118.86</ele>
        <time>2019-03-10T14:15:44Z</time>
      </trkpt>
      <trkpt lat="34.181206673383713" lon="-5.701912343502045">
        <ele>119.34</ele>
        <time>2019-03-10T14:15:45Z</time>
      </trkpt>
      <trkpt lat="34.181089913472533" lon="-5.701805306598544">
        <ele>120.3</ele>
        <time>2019-03-10T14:15:46Z</time>
      </trkpt>
      <trkpt lat="34.180960161611438" lon="-5.701717380434275">
        <ele>120.78</ele>
        <time>2019-03-10T14:15:47Z</time>
      </trkpt>
      <trkpt lat="34.1808170825243" lon="-5.701650409027934">
        <ele>121.73999999999999</ele>
        <time>2019-03-10T14:15:48Z</time>
      </trkpt>
      <trkpt lat="34.180665537714958" lon="-5.701607326045632">
        <ele>122.22</ele>
        <time>2019-03-10T14:15:49Z</time>
      </trkpt>
      <trkpt lat="34.180515082553029" lon="-5.701593747362495">
        <ele>123.19</ele>
        <time>2019-03-10T14:15:50Z</time>
      </trkpt>
      <trkpt lat="34.180371752008796" lon="-5.701604895293713">
        <ele>123.67</ele>
        <time>2019-03-10T14:15:51Z</time>
      </trkpt>
      <trkpt lat="34.180236635729671" lon="-5.701632555574179">
        <ele>130.88</ele>
        <time>2019-03-10T14:15:52Z</time>
      </trkpt>
      <trkpt lat="34.180110320448875" lon="-5.701676560565829">
        <ele>131.36000000000001</ele>
        <time>2019-03-10T14:15:53Z</time>
      </trkpt>
      <trkpt lat="34.179990375414491" lon="-5.701735652983189">
        <ele>131.36000000000001</ele>
        <time>2019-03-10T14:15:54Z</time>
      </trkpt>
      <trkpt lat="34.179877638816833" lon="-5.70180656388402">
        <ele>131.84</ele>
        <time>2019-03-10T14:15:55Z</time>
      </trkpt>
      <trkpt lat="34.179773451760411" lon="-5.70188133046031">
        <ele>131.84</ele>
        <time>2019-03-10T14:15:56Z</time>
      </trkpt>
      <trkpt lat="34.17821366339922" lon="-5.703081367537379">
        <ele>131.84</ele>
        <time>2019-03-10T14:16:11Z</time>
      </trkpt>
      <trkpt lat="34.178094388917089" lon="-5.703153870999813">
        <ele>131.84</ele>
        <time>2019-03-10T14:16:12Z</time>
      </trkpt>
      <trkpt lat="34.177973605692387" lon="-5.703209191560745">
        <ele>131.84</ele>
        <time>2019-03-10T14:16:13Z</time>
      </trkpt>
      <trkpt lat="34.177851397544146" lon="-5.703243222087622">
        <ele>139.53</ele>
        <time>2019-03-10T14:16:14Z</time>
      </trkpt>
      <trkpt lat="34.177729440853" lon="-5.703250430524349">
        <ele>140.49000000000001</ele>
        <time>2019-03-10T14:16:15Z</time>
      </trkpt>
      <trkpt lat="34.177602371200919" lon="-5.703228134661913">
        <ele>138.09</ele>
        <time>2019-03-10T14:16:16Z</time>
      </trkpt>
      <trkpt lat="34.177474798634648" lon="-5.703179771080613">
        <ele>137.13</ele>
        <time>2019-03-10T14:16:17Z</time>
      </trkpt>
      <trkpt lat="34.177344040945172" lon="-5.703119421377778">
        <ele>136.63999999999999</ele>
        <time>2019-03-10T14:16:18Z</time>
      </trkpt>
      <trkpt lat="34.176041996106505" lon="-5.702333115041256">
        <ele>135.68000000000001</ele>
        <time>2019-03-10T14:16:29Z</time>
      </trkpt>
      <trkpt lat="34.175072209909558" lon="-5.701198121532798">
        <ele>134.72</ele>
        <time>2019-03-10T14:16:40Z</time>
      </trkpt>
      <trkpt lat="34.17457977309823" lon="-5.700708869844675">
        <ele>133.75999999999999</ele>
        <time>2019-03-10T14:16:45Z</time>
      </trkpt>
      <trkpt lat="34.174464857205749" lon="-5.70063485763967">
        <ele>132.80000000000001</ele>
        <time>2019-03-10T14:16:46Z</time>
      </trkpt>
      <trkpt lat="34.174345079809427" lon="-5.700569311156869">
        <ele>131.84</ele>
        <time>2019-03-10T14:16:47Z</time>
      </trkpt>
      <trkpt lat="34.174220776185393" lon="-5.700512984767556">
        <ele>131.36000000000001</ele>
        <time>2019-03-10T14:16:48Z</time>
      </trkpt>
      <trkpt lat="34.174091862514615" lon="-5.700464872643352">
        <ele>130.40000000000001</ele>
        <time>2019-03-10T14:16:49Z</time>
      </trkpt>
      <trkpt lat="34.173959763720632" lon="-5.700431764125824">
        <ele>129.43000000000001</ele>
        <time>2019-03-10T14:16:50Z</time>
      </trkpt>
      <trkpt lat="34.173825904726982" lon="-5.700412485748529">
        <ele>128.94999999999999</ele>
        <time>2019-03-10T14:16:51Z</time>
      </trkpt>
      <trkpt lat="34.173691626638174" lon="-5.700405864045024">
        <ele>128.47</ele>
        <time>2019-03-10T14:16:52Z</time>
      </trkpt>
      <trkpt lat="34.173556258901954" lon="-5.700409971177578">
        <ele>127.98999999999999</ele>
        <time>2019-03-10T14:16:53Z</time>
      </trkpt>
      <trkpt lat="34.17341879568994" lon="-5.700428830459714">
        <ele>127.51000000000001</ele>
        <time>2019-03-10T14:16:54Z</time>
      </trkpt>
      <trkpt lat="34.173279823735356" lon="-5.700461771339178">
        <ele>127.03</ele>
        <time>2019-03-10T14:16:55Z</time>
      </trkpt>
      <trkpt lat="34.173140097409487" lon="-5.700506614521146">
        <ele>127.51000000000001</ele>
        <time>2019-03-10T14:16:56Z</time>
      </trkpt>
      <trkpt lat="34.173001544550061" lon="-5.70056302472949">
        <ele>133.75999999999999</ele>
        <time>2019-03-10T14:16:57Z</time>
      </trkpt>
      <trkpt lat="34.17286709882319" lon="-5.70063091814518">
        <ele>132.31999999999999</ele>
        <time>2019-03-10T14:16:58Z</time>
      </trkpt>
      <trkpt lat="34.171840231865644" lon="-5.70122460834682">
        <ele>131.84</ele>
        <time>2019-03-10T14:17:07Z</time>
      </trkpt>
      <trkpt lat="34.170974465087056" lon="-5.701714279130101">
        <ele>131.36000000000001</ele>
        <time>2019-03-10T14:17:17Z</time>
      </trkpt>
      <trkpt lat="34.170075422152877" lon="-5.702232783660293">
        <ele>131.36000000000001</ele>
        <time>2019-03-10T14:17:24Z</time>
      </trkpt>
      <trkpt lat="34.168242132291198" lon="-5.703244479373097">
        <ele>130.88</ele>
        <time>2019-03-10T14:17:35Z</time>
      </trkpt>
      <trkpt lat="34.166332650929689" lon="-5.703891813755035">
        <ele>130.88</ele>
        <time>2019-03-10T14:17:45Z</time>
      </trkpt>
      <trkpt lat="34.165956722572446" lon="-5.703933304175735">
        <ele>130.40000000000001</ele>
        <time>2019-03-10T14:17:47Z</time>
      </trkpt>
      <trkpt lat="34.165764022618532" lon="-5.703927520662546">
        <ele>129.91999999999999</ele>
        <time>2019-03-10T14:17:48Z</time>
      </trkpt>
      <trkpt lat="34.165571155026555" lon="-5.703907320275903">
        <ele>129.43000000000001</ele>
        <time>2019-03-10T14:17:49Z</time>
      </trkpt>
      <trkpt lat="34.165383484214544" lon="-5.703870942816138">
        <ele>131.84</ele>
        <time>2019-03-10T14:17:50Z</time>
      </trkpt>
      <trkpt lat="34.165196064859629" lon="-5.703814532607794">
        <ele>137.61000000000001</ele>
        <time>2019-03-10T14:17:51Z</time>
      </trkpt>
      <trkpt lat="34.165007388219237" lon="-5.703741190955043">
        <ele>147.22</ele>
        <time>2019-03-10T14:17:52Z</time>
      </trkpt>
      <trkpt lat="34.164815442636609" lon="-5.703654522076249">
        <ele>150.58000000000001</ele>
        <time>2019-03-10T14:17:53Z</time>
      </trkpt>
      <trkpt lat="34.16207087226212" lon="-5.702420370653272">
        <ele>157.78999999999999</ele>
        <time>2019-03-10T14:18:07Z</time>
      </trkpt>
      <trkpt lat="34.160456098616123" lon="-5.702432105317712">
        <ele>157.78999999999999</ele>
        <time>2019-03-10T14:18:14Z</time>
      </trkpt>
      <trkpt lat="34.157444732263684" lon="-5.702836951240897">
        <ele>154.91</ele>
        <time>2019-03-10T14:18:27Z</time>
      </trkpt>
      <trkpt lat="34.155125375837088" lon="-5.703320000320673">
        <ele>151.53999999999999</ele>
        <time>2019-03-10T14:18:37Z</time>
      </trkpt>
      <trkpt lat="34.153907066211104" lon="-5.70417151786387">
        <ele>146.25999999999999</ele>
        <time>2019-03-10T14:18:43Z</time>
      </trkpt>
      <trkpt lat="34.151222845539451" lon="-5.706451563164592">
        <ele>142.41</ele>
        <time>2019-03-10T14:18:58Z</time>
      </trkpt>
      <trkpt lat="34.149715779349208" lon="-5.707256896421313">
        <ele>143.84999999999999</ele>
        <time>2019-03-10T14:19:06Z</time>
      </trkpt>
      <trkpt lat="34.148178454488516" lon="-5.707292016595602">
        <ele>149.13999999999999</ele>
        <time>2019-03-10T14:19:13Z</time>
      </trkpt>
      <trkpt lat="34.146901806816459" lon="-5.707105603069067">
        <ele>150.58000000000001</ele>
        <time>2019-03-10T14:19:20Z</time>
      </trkpt>
      <trkpt lat="34.145431956276298" lon="-5.706905778497458">
        <ele>151.53999999999999</ele>
        <time>2019-03-10T14:19:30Z</time>
      </trkpt>
      <trkpt lat="34.143335139378905" lon="-5.706626996397972">
        <ele>152.50999999999999</ele>
        <time>2019-03-10T14:19:41Z</time>
      </trkpt>
      <trkpt lat="34.141591703519225" lon="-5.706725567579269">
        <ele>153.94999999999999</ele>
        <time>2019-03-10T14:19:50Z</time>
      </trkpt>
      <trkpt lat="34.140489650890231" lon="-5.707473317161202">
        <ele>154.91</ele>
        <time>2019-03-10T14:19:56Z</time>
      </trkpt>
      <trkpt lat="34.140339279547334" lon="-5.707646822556853">
        <ele>156.34999999999999</ele>
        <time>2019-03-10T14:19:57Z</time>
      </trkpt>
      <trkpt lat="34.140210952609777" lon="-5.707837343215942">
        <ele>157.31</ele>
        <time>2019-03-10T14:19:58Z</time>
      </trkpt>
      <trkpt lat="34.140102574601769" lon="-5.708043957129121">
        <ele>174.13999999999999</ele>
        <time>2019-03-10T14:19:59Z</time>
      </trkpt>
      <trkpt lat="34.140017917379737" lon="-5.708264317363501">
        <ele>177.5</ele>
        <time>2019-03-10T14:20:00Z</time>
      </trkpt>
      <trkpt lat="34.139957316219807" lon="-5.708498172461987">
        <ele>178.46000000000001</ele>
        <time>2019-03-10T14:20:01Z</time>
      </trkpt>
      <trkpt lat="34.13991691544652" lon="-5.708739403635263">
        <ele>179.90000000000001</ele>
        <time>2019-03-10T14:20:02Z</time>
      </trkpt>
      <trkpt lat="34.139886572957039" lon="-5.708985580131412">
        <ele>180.87</ele>
        <time>2019-03-10T14:20:03Z</time>
      </trkpt>
      <trkpt lat="34.139523720368743" lon="-5.712508326396346">
        <ele>181.83000000000001</ele>
        <time>2019-03-10T14:20:17Z</time>
      </trkpt>
      <trkpt lat="34.139381730929017" lon="-5.713160103186965">
        <ele>182.78999999999999</ele>
        <time>2019-03-10T14:20:20Z</time>
      </trkpt>
      <trkpt lat="34.139301851391792" lon="-5.713352803140879">
        <ele>183.27000000000001</ele>
        <time>2019-03-10T14:20:21Z</time>
      </trkpt>
      <trkpt lat="34.139203364029527" lon="-5.713530750945211">
        <ele>183.27000000000001</ele>
        <time>2019-03-10T14:20:22Z</time>
      </trkpt>
      <trkpt lat="34.139087861403823" lon="-5.713698472827673">
        <ele>183.75</ele>
        <time>2019-03-10T14:20:23Z</time>
      </trkpt>
      <trkpt lat="34.138957187533379" lon="-5.713856723159552">
        <ele>183.75</ele>
        <time>2019-03-10T14:20:24Z</time>
      </trkpt>
      <trkpt lat="34.138814527541399" lon="-5.714005250483751">
        <ele>183.75</ele>
        <time>2019-03-10T14:20:25Z</time>
      </trkpt>
      <trkpt lat="34.13866063579917" lon="-5.714139109477401">
        <ele>183.75</ele>
        <time>2019-03-10T14:20:26Z</time>
      </trkpt>
      <trkpt lat="34.138496350497007" lon="-5.714250337332487">
        <ele>184.71000000000001</ele>
        <time>2019-03-10T14:20:27Z</time>
      </trkpt>
      <trkpt lat="34.138324856758118" lon="-5.714335246011615">
        <ele>184.71000000000001</ele>
        <time>2019-03-10T14:20:28Z</time>
      </trkpt>
      <trkpt lat="34.138142801821232" lon="-5.714394506067038">
        <ele>185.19</ele>
        <time>2019-03-10T14:20:29Z</time>
      </trkpt>
      <trkpt lat="34.137948593124747" lon="-5.714432979002595">
        <ele>185.19</ele>
        <time>2019-03-10T14:20:30Z</time>
      </trkpt>
      <trkpt lat="34.137745415791869" lon="-5.714459046721458">
        <ele>185.66999999999999</ele>
        <time>2019-03-10T14:20:31Z</time>
      </trkpt>
      <trkpt lat="34.136480586603284" lon="-5.714652249589562">
        <ele>185.66999999999999</ele>
        <time>2019-03-10T14:20:37Z</time>
      </trkpt>
      <trkpt lat="34.136283025145531" lon="-5.714729279279709">
        <ele>181.34999999999999</ele>
        <time>2019-03-10T14:20:38Z</time>
      </trkpt>
      <trkpt lat="34.1360929235816" lon="-5.714839082211256">
        <ele>177.02000000000001</ele>
        <time>2019-03-10T14:20:39Z</time>
      </trkpt>
      <trkpt lat="34.135912461206317" lon="-5.714982077479363">
        <ele>172.69</ele>
        <time>2019-03-10T14:20:40Z</time>
      </trkpt>
      <trkpt lat="34.135739794000983" lon="-5.715148122981191">
        <ele>171.25</ele>
        <time>2019-03-10T14:20:41Z</time>
      </trkpt>
      <trkpt lat="34.135572407394648" lon="-5.715322885662317">
        <ele>170.28999999999999</ele>
        <time>2019-03-10T14:20:42Z</time>
      </trkpt>
      <trkpt lat="34.133114665746689" lon="-5.717777945101261">
        <ele>163.56</ele>
        <time>2019-03-10T14:20:57Z</time>
      </trkpt>
      <trkpt lat="34.131778255105019" lon="-5.718502141535282">
        <ele>164.52000000000001</ele>
        <time>2019-03-10T14:21:04Z</time>
      </trkpt>
      <trkpt lat="34.130772091448307" lon="-5.718625523149967">
        <ele>164.52000000000001</ele>
        <time>2019-03-10T14:21:09Z</time>
      </trkpt>
      <trkpt lat="34.130561370402575" lon="-5.718590905889869">
        <ele>164.52000000000001</ele>
        <time>2019-03-10T14:21:10Z</time>
      </trkpt>
      <trkpt lat="34.130351571366191" lon="-5.718538602814078">
        <ele>163.08000000000001</ele>
        <time>2019-03-10T14:21:11Z</time>
      </trkpt>
      <trkpt lat="34.128394816070795" lon="-5.717855645343661">
        <ele>162.59999999999999</ele>
        <time>2019-03-10T14:21:21Z</time>
      </trkpt>
      <trkpt lat="34.127537850290537" lon="-5.717424144968391">
        <ele>162.59999999999999</ele>
        <time>2019-03-10T14:21:26Z</time>
      </trkpt>
      <trkpt lat="34.127392340451479" lon="-5.717288525775075">
        <ele>162.12</ele>
        <time>2019-03-10T14:21:27Z</time>
      </trkpt>
      <trkpt lat="34.127256888896227" lon="-5.71713580749929">
        <ele>161.63999999999999</ele>
        <time>2019-03-10T14:21:28Z</time>
      </trkpt>
      <trkpt lat="34.126743581146002" lon="-5.716517809778452">
        <ele>160.68000000000001</ele>
        <time>2019-03-10T14:21:32Z</time>
      </trkpt>
      <trkpt lat="34.126594634726644" lon="-5.716394009068608">
        <ele>160.19999999999999</ele>
        <time>2019-03-10T14:21:33Z</time>
      </trkpt>
      <trkpt lat="34.126432696357369" lon="-5.716291079297662">
        <ele>159.72</ele>
        <time>2019-03-10T14:21:34Z</time>
      </trkpt>
      <trkpt lat="34.126257179304957" lon="-5.716211870312691">
        <ele>159.24000000000001</ele>
        <time>2019-03-10T14:21:35Z</time>
      </trkpt>
      <trkpt lat="34.126075375825167" lon="-5.716145234182477">
        <ele>158.75</ele>
        <time>2019-03-10T14:21:36Z</time>
      </trkpt>
      <trkpt lat="34.125351011753082" lon="-5.715913055464625">
        <ele>158.75</ele>
        <time>2019-03-10T14:21:40Z</time>
      </trkpt>
      <trkpt lat="34.125168202444911" lon="-5.715893190354109">
        <ele>158.27000000000001</ele>
        <time>2019-03-10T14:21:41Z</time>
      </trkpt>
      <trkpt lat="34.124983632937074" lon="-5.715896207839251">
        <ele>157.78999999999999</ele>
        <time>2019-03-10T14:21:42Z</time>
      </trkpt>
      <trkpt lat="34.124799063429236" lon="-5.715927556157112">
        <ele>157.78999999999999</ele>
        <time>2019-03-10T14:21:43Z</time>
      </trkpt>
      <trkpt lat="34.124617846682668" lon="-5.715981619432569">
        <ele>160.68000000000001</ele>
        <time>2019-03-10T14:21:44Z</time>
      </trkpt>
      <trkpt lat="34.124437971040606" lon="-5.716051021590829">
        <ele>165.96000000000001</ele>
        <time>2019-03-10T14:21:45Z</time>
      </trkpt>
      <trkpt lat="34.124258849769831" lon="-5.716142551973462">
        <ele>166.44999999999999</ele>
        <time>2019-03-10T14:21:46Z</time>
      </trkpt>
      <trkpt lat="34.124084673821926" lon="-5.716253109276295">
        <ele>166.44999999999999</ele>
        <time>2019-03-10T14:21:47Z</time>
      </trkpt>
      <trkpt lat="34.123913431540132" lon="-5.716372467577457">
        <ele>166.93000000000001</ele>
        <time>2019-03-10T14:21:48Z</time>
      </trkpt>
      <trkpt lat="34.122518431395292" lon="-5.716992979869247">
        <ele>167.41</ele>
        <time>2019-03-10T14:21:56Z</time>
      </trkpt>
      <trkpt lat="34.121029889211059" lon="-5.71698090992868">
        <ele>167.41</ele>
        <time>2019-03-10T14:22:05Z</time>
      </trkpt>
      <trkpt lat="34.120873734354973" lon="-5.716919302940369">
        <ele>167.41</ele>
        <time>2019-03-10T14:22:06Z</time>
      </trkpt>
      <trkpt lat="34.120728140696883" lon="-5.716841518878937">
        <ele>165.96000000000001</ele>
        <time>2019-03-10T14:22:07Z</time>
      </trkpt>
      <trkpt lat="34.120592521503568" lon="-5.716748647391796">
        <ele>165.96000000000001</ele>
        <time>2019-03-10T14:22:08Z</time>
      </trkpt>
      <trkpt lat="34.120466206222773" lon="-5.716641275212169">
        <ele>167.88999999999999</ele>
        <time>2019-03-10T14:22:09Z</time>
      </trkpt>
      <trkpt lat="34.120344836264849" lon="-5.716515965759754">
        <ele>168.84999999999999</ele>
        <time>2019-03-10T14:22:10Z</time>
      </trkpt>
      <trkpt lat="34.120228579267859" lon="-5.716381017118692">
        <ele>168.37</ele>
        <time>2019-03-10T14:22:11Z</time>
      </trkpt>
      <trkpt lat="34.119155360385776" lon="-5.714918542653322">
        <ele>169.33000000000001</ele>
        <time>2019-03-10T14:22:20Z</time>
      </trkpt>
      <trkpt lat="34.11838254891336" lon="-5.713947499170899">
        <ele>169.81</ele>
        <time>2019-03-10T14:22:28Z</time>
      </trkpt>
      <trkpt lat="34.11745416931808" lon="-5.713381133973599">
        <ele>170.28999999999999</ele>
        <time>2019-03-10T14:22:36Z</time>
      </trkpt>
      <trkpt lat="34.116337867453694" lon="-5.7128647249192">
        <ele>171.25</ele>
        <time>2019-03-10T14:22:45Z</time>
      </trkpt>
      <trkpt lat="34.114842284470797" lon="-5.712212109938264">
        <ele>171.72999999999999</ele>
        <time>2019-03-10T14:22:53Z</time>
      </trkpt>
      <trkpt lat="34.113408476114273" lon="-5.711546503007412">
        <ele>172.69</ele>
        <time>2019-03-10T14:23:00Z</time>
      </trkpt>
      <trkpt lat="34.113221894949675" lon="-5.711413063108921">
        <ele>173.16999999999999</ele>
        <time>2019-03-10T14:23:01Z</time>
      </trkpt>
      <trkpt lat="34.113042103126645" lon="-5.711259925737977">
        <ele>173.66</ele>
        <time>2019-03-10T14:23:02Z</time>
      </trkpt>
      <trkpt lat="34.112869435921311" lon="-5.711086923256517">
        <ele>174.13999999999999</ele>
        <time>2019-03-10T14:23:03Z</time>
      </trkpt>
      <trkpt lat="34.112710012122989" lon="-5.710892714560032">
        <ele>176.53999999999999</ele>
        <time>2019-03-10T14:23:04Z</time>
      </trkpt>
      <trkpt lat="34.112563077360392" lon="-5.710685010999441">
        <ele>177.97999999999999</ele>
        <time>2019-03-10T14:23:05Z</time>
      </trkpt>
      <trkpt lat="34.112427793443203" lon="-5.710463980212808">
        <ele>179.41999999999999</ele>
        <time>2019-03-10T14:23:06Z</time>
      </trkpt>
      <trkpt lat="34.112307513132691" lon="-5.710230963304639">
        <ele>181.34999999999999</ele>
        <time>2019-03-10T14:23:07Z</time>
      </trkpt>
      <trkpt lat="34.112198716029525" lon="-5.709992162883282">
        <ele>186.15000000000001</ele>
        <time>2019-03-10T14:23:08Z</time>
      </trkpt>
      <trkpt lat="34.111264804378152" lon="-5.707770371809602">
        <ele>188.08000000000001</ele>
        <time>2019-03-10T14:23:18Z</time>
      </trkpt>
      <trkpt lat="34.110499285161495" lon="-5.705973459407687">
        <ele>187.59</ele>
        <time>2019-03-10T14:23:28Z</time>
      </trkpt>
      <trkpt lat="34.109614407643676" lon="-5.704560941085219">
        <ele>186.15000000000001</ele>
        <time>2019-03-10T14:23:37Z</time>
      </trkpt>
      <trkpt lat="34.108512857928872" lon="-5.703738424926996">
        <ele>185.66999999999999</ele>
        <time>2019-03-10T14:23:45Z</time>
      </trkpt>
      <trkpt lat="34.106732625514269" lon="-5.702637964859605">
        <ele>184.22999999999999</ele>
        <time>2019-03-10T14:23:58Z</time>
      </trkpt>
      <trkpt lat="34.105565696954727" lon="-5.701909577473998">
        <ele>185.66999999999999</ele>
        <time>2019-03-10T14:24:07Z</time>
      </trkpt>
      <trkpt lat="34.104860192164779" lon="-5.701423930004239">
        <ele>187.59</ele>
        <time>2019-03-10T14:24:14Z</time>
      </trkpt>
      <trkpt lat="34.103812705725431" lon="-5.700478283688426">
        <ele>189.52000000000001</ele>
        <time>2019-03-10T14:24:22Z</time>
      </trkpt>
      <trkpt lat="34.102553995326161" lon="-5.699790883809328">
        <ele>190.96000000000001</ele>
        <time>2019-03-10T14:24:29Z</time>
      </trkpt>
      <trkpt lat="34.100704193115234" lon="-5.699523082002997">
        <ele>190.47999999999999</ele>
        <time>2019-03-10T14:24:37Z</time>
      </trkpt>
      <trkpt lat="34.09818853251636" lon="-5.699181938543916">
        <ele>187.59</ele>
        <time>2019-03-10T14:24:48Z</time>
      </trkpt>
      <trkpt lat="34.096843572333455" lon="-5.69876242429018">
        <ele>187.11000000000001</ele>
        <time>2019-03-10T14:24:55Z</time>
      </trkpt>
      <trkpt lat="34.095576731488109" lon="-5.697783250361681">
        <ele>187.11000000000001</ele>
        <time>2019-03-10T14:25:02Z</time>
      </trkpt>
      <trkpt lat="34.093206999823451" lon="-5.695826662704349">
        <ele>186.15000000000001</ele>
        <time>2019-03-10T14:25:15Z</time>
      </trkpt>
      <trkpt lat="34.09235866740346" lon="-5.694578513503075">
        <ele>185.66999999999999</ele>
        <time>2019-03-10T14:25:21Z</time>
      </trkpt>
      <trkpt lat="34.091289052739739" lon="-5.693349810317159">
        <ele>185.66999999999999</ele>
        <time>2019-03-10T14:25:28Z</time>
      </trkpt>
      <trkpt lat="34.091089060530066" lon="-5.693233218044043">
        <ele>194.31999999999999</ele>
        <time>2019-03-10T14:25:29Z</time>
      </trkpt>
      <trkpt lat="34.090876746922731" lon="-5.693135568872094">
        <ele>189.52000000000001</ele>
        <time>2019-03-10T14:25:30Z</time>
      </trkpt>
      <trkpt lat="34.08963069319725" lon="-5.692636761814356">
        <ele>188.56</ele>
        <time>2019-03-10T14:25:36Z</time>
      </trkpt>
      <trkpt lat="34.089447716251016" lon="-5.692512877285481">
        <ele>188.08000000000001</ele>
        <time>2019-03-10T14:25:37Z</time>
      </trkpt>
      <trkpt lat="34.089275468140841" lon="-5.69235454313457">
        <ele>187.59</ele>
        <time>2019-03-10T14:25:38Z</time>
      </trkpt>
      <trkpt lat="34.087665053084493" lon="-5.690479595214129">
        <ele>187.11000000000001</ele>
        <time>2019-03-10T14:25:48Z</time>
      </trkpt>
      <trkpt lat="34.086401062086225" lon="-5.68897764198482">
        <ele>186.63</ele>
        <time>2019-03-10T14:25:56Z</time>
      </trkpt>
      <trkpt lat="34.086281452327967" lon="-5.688777230679989">
        <ele>186.63</ele>
        <time>2019-03-10T14:25:57Z</time>
      </trkpt>
      <trkpt lat="34.086181791499257" lon="-5.688561145216227">
        <ele>186.63</ele>
        <time>2019-03-10T14:25:58Z</time>
      </trkpt>
      <trkpt lat="34.08610618673265" lon="-5.688333828002214">
        <ele>186.63</ele>
        <time>2019-03-10T14:25:59Z</time>
      </trkpt>
      <trkpt lat="34.086054135113955" lon="-5.688096368685365">
        <ele>186.63</ele>
        <time>2019-03-10T14:26:00Z</time>
      </trkpt>
      <trkpt lat="34.086023541167378" lon="-5.687848683446646">
        <ele>185.66999999999999</ele>
        <time>2019-03-10T14:26:01Z</time>
      </trkpt>
      <trkpt lat="34.086017506197095" lon="-5.687590353190899">
        <ele>191.91999999999999</ele>
        <time>2019-03-10T14:26:02Z</time>
      </trkpt>
      <trkpt lat="34.086030414327979" lon="-5.687325652688742">
        <ele>190.47999999999999</ele>
        <time>2019-03-10T14:26:03Z</time>
      </trkpt>
      <trkpt lat="34.086061762645841" lon="-5.687055168673396">
        <ele>192.88</ele>
        <time>2019-03-10T14:26:04Z</time>
      </trkpt>
      <trkpt lat="34.086099984124303" lon="-5.68677831441164">
        <ele>192.40000000000001</ele>
        <time>2019-03-10T14:26:05Z</time>
      </trkpt>
      <trkpt lat="34.086425537243485" lon="-5.683354893699288">
        <ele>194.80000000000001</ele>
        <time>2019-03-10T14:26:17Z</time>
      </trkpt>
      <trkpt lat="34.086550511419773" lon="-5.678753983229399">
        <ele>198.16999999999999</ele>
        <time>2019-03-10T14:26:33Z</time>
      </trkpt>
      <trkpt lat="34.086879584938288" lon="-5.676299594342709">
        <ele>204.41999999999999</ele>
        <time>2019-03-10T14:26:42Z</time>
      </trkpt>
      <trkpt lat="34.086898360401392" lon="-5.674825133755803">
        <ele>204.90000000000001</ele>
        <time>2019-03-10T14:26:48Z</time>
      </trkpt>
      <trkpt lat="34.08650784753263" lon="-5.673379255458713">
        <ele>204.90000000000001</ele>
        <time>2019-03-10T14:26:54Z</time>
      </trkpt>
      <trkpt lat="34.085705783218145" lon="-5.671978052705526">
        <ele>204.90000000000001</ele>
        <time>2019-03-10T14:27:00Z</time>
      </trkpt>
      <trkpt lat="34.084127889946103" lon="-5.670352214947343">
        <ele>204.41999999999999</ele>
        <time>2019-03-10T14:27:08Z</time>
      </trkpt>
      <trkpt lat="34.082483528181911" lon="-5.668671391904354">
        <ele>200.56999999999999</ele>
        <time>2019-03-10T14:27:17Z</time>
      </trkpt>
      <trkpt lat="34.082337012514472" lon="-5.668466286733747">
        <ele>201.53</ele>
        <time>2019-03-10T14:27:18Z</time>
      </trkpt>
      <trkpt lat="34.082203740254045" lon="-5.668247519060969">
        <ele>202.00999999999999</ele>
        <time>2019-03-10T14:27:19Z</time>
      </trkpt>
      <trkpt lat="34.082083962857723" lon="-5.668014166876674">
        <ele>202.49000000000001</ele>
        <time>2019-03-10T14:27:20Z</time>
      </trkpt>
      <trkpt lat="34.080959027633071" lon="-5.665344698354602">
        <ele>202.49000000000001</ele>
        <time>2019-03-10T14:27:31Z</time>
      </trkpt>
      <trkpt lat="34.079256076365709" lon="-5.661210492253304">
        <ele>202.97999999999999</ele>
        <time>2019-03-10T14:27:47Z</time>
      </trkpt>
      <trkpt lat="34.078129967674613" lon="-5.658786613494158">
        <ele>202.97999999999999</ele>
        <time>2019-03-10T14:27:57Z</time>
      </trkpt>
      <trkpt lat="34.077986134216189" lon="-5.65861226990819">
        <ele>202.97999999999999</ele>
        <time>2019-03-10T14:27:58Z</time>
      </trkpt>
      <trkpt lat="34.077828051522374" lon="-5.658454187214375">
        <ele>203.46000000000001</ele>
        <time>2019-03-10T14:27:59Z</time>
      </trkpt>
      <trkpt lat="34.077656222507358" lon="-5.658312700688839">
        <ele>203.94</ele>
        <time>2019-03-10T14:28:00Z</time>
      </trkpt>
      <trkpt lat="34.077471736818552" lon="-5.65818764269352">
        <ele>203.94</ele>
        <time>2019-03-10T14:28:01Z</time>
      </trkpt>
      <trkpt lat="34.077277444303036" lon="-5.658078594133258">
        <ele>204.41999999999999</ele>
        <time>2019-03-10T14:28:02Z</time>
      </trkpt>
      <trkpt lat="34.077077871188521" lon="-5.657984968274832">
        <ele>204.41999999999999</ele>
        <time>2019-03-10T14:28:03Z</time>
      </trkpt>
      <trkpt lat="34.074970996007323" lon="-5.657058851793408">
        <ele>204.41999999999999</ele>
        <time>2019-03-10T14:28:14Z</time>
      </trkpt>
      <trkpt lat="34.074818026274443" lon="-5.656937565654516">
        <ele>204.41999999999999</ele>
        <time>2019-03-10T14:28:15Z</time>
      </trkpt>
      <trkpt lat="34.074679641053081" lon="-5.656802281737328">
        <ele>204.41999999999999</ele>
        <time>2019-03-10T14:28:16Z</time>
      </trkpt>
      <trkpt lat="34.07455500215292" lon="-5.656652161851525">
        <ele>203.94</ele>
        <time>2019-03-10T14:28:17Z</time>
      </trkpt>
      <trkpt lat="34.074446624144912" lon="-5.656487038359046">
        <ele>203.46000000000001</ele>
        <time>2019-03-10T14:28:18Z</time>
      </trkpt>
      <trkpt lat="34.074351908639073" lon="-5.65631085075438">
        <ele>203.46000000000001</ele>
        <time>2019-03-10T14:28:19Z</time>
      </trkpt>
      <trkpt lat="34.074269011616707" lon="-5.656127370893955">
        <ele>202.97999999999999</ele>
        <time>2019-03-10T14:28:20Z</time>
      </trkpt>
      <trkpt lat="34.074198519811034" lon="-5.655933916568756">
        <ele>202.00999999999999</ele>
        <time>2019-03-10T14:28:21Z</time>
      </trkpt>
      <trkpt lat="34.074144121259451" lon="-5.655727470293641">
        <ele>201.53</ele>
        <time>2019-03-10T14:28:22Z</time>
      </trkpt>
      <trkpt lat="34.07411134801805" lon="-5.655510043725371">
        <ele>200.56999999999999</ele>
        <time>2019-03-10T14:28:23Z</time>
      </trkpt>
      <trkpt lat="34.074098356068134" lon="-5.655287923291326">
        <ele>200.09</ele>
        <time>2019-03-10T14:28:24Z</time>
      </trkpt>
      <trkpt lat="34.074100786820054" lon="-5.655064964666963">
        <ele>199.13</ele>
        <time>2019-03-10T14:28:25Z</time>
      </trkpt>
      <trkpt lat="34.074121825397015" lon="-5.654839994385839">
        <ele>198.65000000000001</ele>
        <time>2019-03-10T14:28:26Z</time>
      </trkpt>
      <trkpt lat="34.074163315817714" lon="-5.654615862295032">
        <ele>199.61000000000001</ele>
        <time>2019-03-10T14:28:27Z</time>
      </trkpt>
      <trkpt lat="34.074220983311534" lon="-5.654396675527096">
        <ele>201.05000000000001</ele>
        <time>2019-03-10T14:28:28Z</time>
      </trkpt>
      <trkpt lat="34.074295749887824" lon="-5.654184110462666">
        <ele>202.00999999999999</ele>
        <time>2019-03-10T14:28:29Z</time>
      </trkpt>
      <trkpt lat="34.074385352432728" lon="-5.653976993635297">
        <ele>203.94</ele>
        <time>2019-03-10T14:28:30Z</time>
      </trkpt>
      <trkpt lat="34.074483923614025" lon="-5.653767781332135">
        <ele>205.38</ele>
        <time>2019-03-10T14:28:31Z</time>
      </trkpt>
      <trkpt lat="34.074714845046401" lon="-5.653117932379246">
        <ele>206.34</ele>
        <time>2019-03-10T14:28:34Z</time>
      </trkpt>
      <trkpt lat="34.074757676571608" lon="-5.652884999290109">
        <ele>207.78</ele>
        <time>2019-03-10T14:28:35Z</time>
      </trkpt>
      <trkpt lat="34.074779972434044" lon="-5.652647875249386">
        <ele>208.74000000000001</ele>
        <time>2019-03-10T14:28:36Z</time>
      </trkpt>
      <trkpt lat="34.074778882786632" lon="-5.652409745380282">
        <ele>209.69999999999999</ele>
        <time>2019-03-10T14:28:37Z</time>
      </trkpt>
      <trkpt lat="34.074752982705832" lon="-5.652173040434718">
        <ele>210.66999999999999</ele>
        <time>2019-03-10T14:28:38Z</time>
      </trkpt>
      <trkpt lat="34.074703278020024" lon="-5.651939604431391">
        <ele>211.15000000000001</ele>
        <time>2019-03-10T14:28:39Z</time>
      </trkpt>
      <trkpt lat="34.07463077455759" lon="-5.65171086229384">
        <ele>211.63</ele>
        <time>2019-03-10T14:28:40Z</time>
      </trkpt>
      <trkpt lat="34.074536142870784" lon="-5.65148756839335">
        <ele>211.63</ele>
        <time>2019-03-10T14:28:41Z</time>
      </trkpt>
      <trkpt lat="34.074421729892492" lon="-5.65127064473927">
        <ele>211.63</ele>
        <time>2019-03-10T14:28:42Z</time>
      </trkpt>
      <trkpt lat="34.074292900040746" lon="-5.651057492941618">
        <ele>211.63</ele>
        <time>2019-03-10T14:28:43Z</time>
      </trkpt>
      <trkpt lat="34.074155353009701" lon="-5.650849118828774">
        <ele>211.63</ele>
        <time>2019-03-10T14:28:44Z</time>
      </trkpt>
      <trkpt lat="34.073423445224762" lon="-5.649879416450858">
        <ele>210.19</ele>
        <time>2019-03-10T14:28:49Z</time>
      </trkpt>
      <trkpt lat="34.073253376409411" lon="-5.649721333757043">
        <ele>209.22</ele>
        <time>2019-03-10T14:28:50Z</time>
      </trkpt>
      <trkpt lat="34.073076350614429" lon="-5.649582697078586">
        <ele>210.19</ele>
        <time>2019-03-10T14:28:51Z</time>
      </trkpt>
      <trkpt lat="34.07289169728756" lon="-5.64946467988193">
        <ele>213.55000000000001</ele>
        <time>2019-03-10T14:28:52Z</time>
      </trkpt>
      <trkpt lat="34.072702014818788" lon="-5.649360660463572">
        <ele>213.06999999999999</ele>
        <time>2019-03-10T14:28:53Z</time>
      </trkpt>
      <trkpt lat="34.071960719302297" lon="-5.648995293304324">
        <ele>214.99000000000001</ele>
        <time>2019-03-10T14:28:58Z</time>
      </trkpt>
      <trkpt lat="34.070422807708383" lon="-5.648226169869304">
        <ele>216.91</ele>
        <time>2019-03-10T14:29:11Z</time>
      </trkpt>
      <trkpt lat="34.068564204499125" lon="-5.647295443341136">
        <ele>217.40000000000001</ele>
        <time>2019-03-10T14:29:23Z</time>
      </trkpt>
      <trkpt lat="34.066841136664152" lon="-5.646085850894451">
        <ele>216.91</ele>
        <time>2019-03-10T14:29:34Z</time>
      </trkpt>
      <trkpt lat="34.065601704642177" lon="-5.644316850230098">
        <ele>222.19999999999999</ele>
        <time>2019-03-10T14:29:44Z</time>
      </trkpt>
      <trkpt lat="34.064445421099663" lon="-5.643009608611465">
        <ele>232.30000000000001</ele>
        <time>2019-03-10T14:29:52Z</time>
      </trkpt>
      <trkpt lat="34.063096018508077" lon="-5.642304858192802">
        <ele>232.78</ele>
        <time>2019-03-10T14:29:59Z</time>
      </trkpt>
      <trkpt lat="34.061546958982944" lon="-5.642177034169436">
        <ele>233.25999999999999</ele>
        <time>2019-03-10T14:30:06Z</time>
      </trkpt>
      <trkpt lat="34.059987002983689" lon="-5.642699645832181">
        <ele>233.25999999999999</ele>
        <time>2019-03-10T14:30:13Z</time>
      </trkpt>
      <trkpt lat="34.058049106970429" lon="-5.643389644101262">
        <ele>233.25999999999999</ele>
        <time>2019-03-10T14:30:22Z</time>
      </trkpt>
      <trkpt lat="34.056118670850992" lon="-5.643568430095911">
        <ele>232.78</ele>
        <time>2019-03-10T14:30:32Z</time>
      </trkpt>
      <trkpt lat="34.055927814915776" lon="-5.643553091213107">
        <ele>232.30000000000001</ele>
        <time>2019-03-10T14:30:33Z</time>
      </trkpt>
      <trkpt lat="34.055741652846336" lon="-5.643518809229136">
        <ele>231.81</ele>
        <time>2019-03-10T14:30:34Z</time>
      </trkpt>
      <trkpt lat="34.055565800517797" lon="-5.643464075401425">
        <ele>231.33000000000001</ele>
        <time>2019-03-10T14:30:35Z</time>
      </trkpt>
      <trkpt lat="34.055400844663382" lon="-5.643388302996755">
        <ele>230.84999999999999</ele>
        <time>2019-03-10T14:30:36Z</time>
      </trkpt>
      <trkpt lat="34.055244270712137" lon="-5.643295180052519">
        <ele>229.88999999999999</ele>
        <time>2019-03-10T14:30:37Z</time>
      </trkpt>
      <trkpt lat="34.055096246302128" lon="-5.643187053501606">
        <ele>229.41</ele>
        <time>2019-03-10T14:30:38Z</time>
      </trkpt>
      <trkpt lat="34.054962135851383" lon="-5.643063001334667">
        <ele>228.44999999999999</ele>
        <time>2019-03-10T14:30:39Z</time>
      </trkpt>
      <trkpt lat="34.054842358455062" lon="-5.642930986359716">
        <ele>224.12</ele>
        <time>2019-03-10T14:30:40Z</time>
      </trkpt>
      <trkpt lat="34.054734567180276" lon="-5.642785141244531">
        <ele>223.63999999999999</ele>
        <time>2019-03-10T14:30:41Z</time>
      </trkpt>
      <trkpt lat="34.054637337103486" lon="-5.642622699961066">
        <ele>223.63999999999999</ele>
        <time>2019-03-10T14:30:42Z</time>
      </trkpt>
      <trkpt lat="34.054547399282455" lon="-5.642447015270591">
        <ele>224.12</ele>
        <time>2019-03-10T14:30:43Z</time>
      </trkpt>
      <trkpt lat="34.054467268288136" lon="-5.642263032495976">
        <ele>224.12</ele>
        <time>2019-03-10T14:30:44Z</time>
      </trkpt>
      <trkpt lat="34.053899813443422" lon="-5.641008093953133">
        <ele>224.12</ele>
        <time>2019-03-10T14:30:52Z</time>
      </trkpt>
      <trkpt lat="34.053798643872142" lon="-5.640862584114075">
        <ele>224.12</ele>
        <time>2019-03-10T14:30:53Z</time>
      </trkpt>
      <trkpt lat="34.053683476522565" lon="-5.640723695978522">
        <ele>224.12</ele>
        <time>2019-03-10T14:30:54Z</time>
      </trkpt>
      <trkpt lat="34.053555987775326" lon="-5.64059654250741">
        <ele>223.63999999999999</ele>
        <time>2019-03-10T14:30:55Z</time>
      </trkpt>
      <trkpt lat="34.053421542048454" lon="-5.640484225004911">
        <ele>218.36000000000001</ele>
        <time>2019-03-10T14:30:56Z</time>
      </trkpt>
      <trkpt lat="34.053284246474504" lon="-5.640388168394566">
        <ele>225.09</ele>
        <time>2019-03-10T14:30:57Z</time>
      </trkpt>
      <trkpt lat="34.053140748292208" lon="-5.640313653275371">
        <ele>222.68000000000001</ele>
        <time>2019-03-10T14:30:58Z</time>
      </trkpt>
      <trkpt lat="34.052992556244135" lon="-5.640259087085724">
        <ele>233.25999999999999</ele>
        <time>2019-03-10T14:30:59Z</time>
      </trkpt>
      <trkpt lat="34.052837742492557" lon="-5.640216507017613">
        <ele>235.66</ele>
        <time>2019-03-10T14:31:00Z</time>
      </trkpt>
      <trkpt lat="34.051023898646235" lon="-5.639898162335157">
        <ele>228.93000000000001</ele>
        <time>2019-03-10T14:31:10Z</time>
      </trkpt>
      <trkpt lat="34.048021836206317" lon="-5.639365240931511">
        <ele>228.44999999999999</ele>
        <time>2019-03-10T14:31:25Z</time>
      </trkpt>
      <trkpt lat="34.045388828963041" lon="-5.638883784413338">
        <ele>227.49000000000001</ele>
        <time>2019-03-10T14:31:38Z</time>
      </trkpt>
      <trkpt lat="34.043141724541783" lon="-5.638484889641404">
        <ele>227.00999999999999</ele>
        <time>2019-03-10T14:31:50Z</time>
      </trkpt>
      <trkpt lat="34.041325114667416" lon="-5.638157157227397">
        <ele>226.05000000000001</ele>
        <time>2019-03-10T14:32:01Z</time>
      </trkpt>
      <trkpt lat="34.039738168939948" lon="-5.637764548882842">
        <ele>225.56999999999999</ele>
        <time>2019-03-10T14:32:10Z</time>
      </trkpt>
      <trkpt lat="34.039582097902894" lon="-5.637667486444116">
        <ele>225.09</ele>
        <time>2019-03-10T14:32:11Z</time>
      </trkpt>
      <trkpt lat="34.03943776153028" lon="-5.637549636885524">
        <ele>224.12</ele>
        <time>2019-03-10T14:32:12Z</time>
      </trkpt>
      <trkpt lat="34.039302477613091" lon="-5.63741602934897">
        <ele>220.28</ele>
        <time>2019-03-10T14:32:13Z</time>
      </trkpt>
      <trkpt lat="34.039177922531962" lon="-5.637268172577024">
        <ele>222.19999999999999</ele>
        <time>2019-03-10T14:32:14Z</time>
      </trkpt>
      <trkpt lat="34.039065185934305" lon="-5.637107826769352">
        <ele>222.68000000000001</ele>
        <time>2019-03-10T14:32:15Z</time>
      </trkpt>
      <trkpt lat="34.0389652736485" lon="-5.636942870914936">
        <ele>223.63999999999999</ele>
        <time>2019-03-10T14:32:16Z</time>
      </trkpt>
      <trkpt lat="34.038874749094248" lon="-5.636778669431806">
        <ele>225.09</ele>
        <time>2019-03-10T14:32:17Z</time>
      </trkpt>
      <trkpt lat="34.037739252671599" lon="-5.634485632181168">
        <ele>225.56999999999999</ele>
        <time>2019-03-10T14:32:30Z</time>
      </trkpt>
      <trkpt lat="34.037514952942729" lon="-5.634130658581853">
        <ele>226.53</ele>
        <time>2019-03-10T14:32:32Z</time>
      </trkpt>
      <trkpt lat="34.03738553635776" lon="-5.633972240611911">
        <ele>228.93000000000001</ele>
        <time>2019-03-10T14:32:33Z</time>
      </trkpt>
      <trkpt lat="34.037245055660605" lon="-5.633830670267344">
        <ele>229.41</ele>
        <time>2019-03-10T14:32:34Z</time>
      </trkpt>
      <trkpt lat="34.03709527105093" lon="-5.633704774081707">
        <ele>229.88999999999999</ele>
        <time>2019-03-10T14:32:35Z</time>
      </trkpt>
      <trkpt lat="34.03694037348032" lon="-5.633598156273365">
        <ele>229.88999999999999</ele>
        <time>2019-03-10T14:32:36Z</time>
      </trkpt>
      <trkpt lat="34.036781787872314" lon="-5.63350846990943">
        <ele>229.88999999999999</ele>
        <time>2019-03-10T14:32:37Z</time>
      </trkpt>
      <trkpt lat="34.036120371893048" lon="-5.633244272321463">
        <ele>229.88999999999999</ele>
        <time>2019-03-10T14:32:41Z</time>
      </trkpt>
      <trkpt lat="34.035947034135461" lon="-5.633218958973885">
        <ele>229.88999999999999</ele>
        <time>2019-03-10T14:32:42Z</time>
      </trkpt>
      <trkpt lat="34.035772942006588" lon="-5.633212840184569">
        <ele>229.88999999999999</ele>
        <time>2019-03-10T14:32:43Z</time>
      </trkpt>
      <trkpt lat="34.035597760230303" lon="-5.63322750851512">
        <ele>229.41</ele>
        <time>2019-03-10T14:32:44Z</time>
      </trkpt>
      <trkpt lat="34.035421907901764" lon="-5.633264305070043">
        <ele>229.41</ele>
        <time>2019-03-10T14:32:45Z</time>
      </trkpt>
      <trkpt lat="34.035246642306447" lon="-5.633325660601258">
        <ele>230.84999999999999</ele>
        <time>2019-03-10T14:32:46Z</time>
      </trkpt>
      <trkpt lat="34.035075651481748" lon="-5.63340830616653">
        <ele>231.33000000000001</ele>
        <time>2019-03-10T14:32:47Z</time>
      </trkpt>
      <trkpt lat="34.034911366179585" lon="-5.633506877347827">
        <ele>231.81</ele>
        <time>2019-03-10T14:32:48Z</time>
      </trkpt>
      <trkpt lat="34.034752026200294" lon="-5.633618356660008">
        <ele>232.30000000000001</ele>
        <time>2019-03-10T14:32:49Z</time>
      </trkpt>
      <trkpt lat="34.034592267125845" lon="-5.633740229532123">
        <ele>233.25999999999999</ele>
        <time>2019-03-10T14:32:50Z</time>
      </trkpt>
      <trkpt lat="34.033507145941257" lon="-5.634535169228911">
        <ele>234.22</ele>
        <time>2019-03-10T14:32:57Z</time>
      </trkpt>
      <trkpt lat="34.033357864245772" lon="-5.634585209190846">
        <ele>235.18000000000001</ele>
        <time>2019-03-10T14:32:58Z</time>
      </trkpt>
      <trkpt lat="34.03321118094027" lon="-5.634618988260627">
        <ele>237.09999999999999</ele>
        <time>2019-03-10T14:32:59Z</time>
      </trkpt>
      <trkpt lat="34.033065922558308" lon="-5.634638518095017">
        <ele>237.09999999999999</ele>
        <time>2019-03-10T14:33:00Z</time>
      </trkpt>
      <trkpt lat="34.032920161262155" lon="-5.634646313264966">
        <ele>236.62</ele>
        <time>2019-03-10T14:33:01Z</time>
      </trkpt>
      <trkpt lat="34.032773058861494" lon="-5.634633908048272">
        <ele>236.62</ele>
        <time>2019-03-10T14:33:02Z</time>
      </trkpt>
      <trkpt lat="34.032626794651151" lon="-5.634607756510377">
        <ele>236.62</ele>
        <time>2019-03-10T14:33:03Z</time>
      </trkpt>
      <trkpt lat="34.032208118587732" lon="-5.634466353803873">
        <ele>236.13999999999999</ele>
        <time>2019-03-10T14:33:06Z</time>
      </trkpt>
      <trkpt lat="34.032074091956019" lon="-5.63439141958952">
        <ele>236.13999999999999</ele>
        <time>2019-03-10T14:33:07Z</time>
      </trkpt>
      <trkpt lat="34.031939813867211" lon="-5.634301230311394">
        <ele>236.13999999999999</ele>
        <time>2019-03-10T14:33:08Z</time>
      </trkpt>
      <trkpt lat="34.03180779889226" lon="-5.634200815111399">
        <ele>236.13999999999999</ele>
        <time>2019-03-10T14:33:09Z</time>
      </trkpt>
      <trkpt lat="34.031677544116974" lon="-5.634089251980186">
        <ele>235.66</ele>
        <time>2019-03-10T14:33:10Z</time>
      </trkpt>
      <trkpt lat="34.031425081193447" lon="-5.633831424638629">
        <ele>235.66</ele>
        <time>2019-03-10T14:33:12Z</time>
      </trkpt>
      <trkpt lat="34.031308237463236" lon="-5.633676275610924">
        <ele>235.18000000000001</ele>
        <time>2019-03-10T14:33:13Z</time>
      </trkpt>
      <trkpt lat="34.031204553321004" lon="-5.633505368605256">
        <ele>234.69999999999999</ele>
        <time>2019-03-10T14:33:14Z</time>
      </trkpt>
      <trkpt lat="34.03111444786191" lon="-5.633319625630975">
        <ele>234.69999999999999</ele>
        <time>2019-03-10T14:33:15Z</time>
      </trkpt>
      <trkpt lat="34.031040519475937" lon="-5.633121896535158">
        <ele>234.22</ele>
        <time>2019-03-10T14:33:16Z</time>
      </trkpt>
      <trkpt lat="34.030980002135038" lon="-5.632914863526821">
        <ele>234.22</ele>
        <time>2019-03-10T14:33:17Z</time>
      </trkpt>
      <trkpt lat="34.030937673524022" lon="-5.63270028680563">
        <ele>239.02000000000001</ele>
        <time>2019-03-10T14:33:18Z</time>
      </trkpt>
      <trkpt lat="34.030914539471269" lon="-5.632481519132853">
        <ele>247.19999999999999</ele>
        <time>2019-03-10T14:33:19Z</time>
      </trkpt>
      <trkpt lat="34.030906409025192" lon="-5.632264763116837">
        <ele>253.93000000000001</ele>
        <time>2019-03-10T14:33:20Z</time>
      </trkpt>
      <trkpt lat="34.030910180881619" lon="-5.632052700966597">
        <ele>260.64999999999998</ele>
        <time>2019-03-10T14:33:21Z</time>
      </trkpt>
      <trkpt lat="34.030920239165425" lon="-5.631847009062767">
        <ele>268.82999999999998</ele>
        <time>2019-03-10T14:33:22Z</time>
      </trkpt>
      <trkpt lat="34.031092068180442" lon="-5.629312740638852">
        <ele>278.44</ele>
        <time>2019-03-10T14:33:35Z</time>
      </trkpt>
      <trkpt lat="34.030966171994805" lon="-5.627622865140438">
        <ele>283.25</ele>
        <time>2019-03-10T14:33:45Z</time>
      </trkpt>
      <trkpt lat="34.030335769057274" lon="-5.626431964337826">
        <ele>282.76999999999998</ele>
        <time>2019-03-10T14:33:53Z</time>
      </trkpt>
      <trkpt lat="34.029167834669352" lon="-5.62489933334291">
        <ele>282.76999999999998</ele>
        <time>2019-03-10T14:34:04Z</time>
      </trkpt>
      <trkpt lat="34.028023118153214" lon="-5.623770458623767">
        <ele>282.27999999999997</ele>
        <time>2019-03-10T14:34:13Z</time>
      </trkpt>
      <trkpt lat="34.026623088866472" lon="-5.623040059581399">
        <ele>282.27999999999997</ele>
        <time>2019-03-10T14:34:23Z</time>
      </trkpt>
      <trkpt lat="34.025143012404442" lon="-5.622510993853211">
        <ele>282.76999999999998</ele>
        <time>2019-03-10T14:34:32Z</time>
      </trkpt>
      <trkpt lat="34.02495919726789" lon="-5.622509988024831">
        <ele>282.76999999999998</ele>
        <time>2019-03-10T14:34:33Z</time>
      </trkpt>
      <trkpt lat="34.02477353811264" lon="-5.622532367706299">
        <ele>282.27999999999997</ele>
        <time>2019-03-10T14:34:34Z</time>
      </trkpt>
      <trkpt lat="34.024590896442533" lon="-5.622580144554377">
        <ele>282.27999999999997</ele>
        <time>2019-03-10T14:34:35Z</time>
      </trkpt>
      <trkpt lat="34.02441437356174" lon="-5.622651893645525">
        <ele>282.27999999999997</ele>
        <time>2019-03-10T14:34:36Z</time>
      </trkpt>
      <trkpt lat="34.024244388565421" lon="-5.622744848951697">
        <ele>282.27999999999997</ele>
        <time>2019-03-10T14:34:37Z</time>
      </trkpt>
      <trkpt lat="34.024081192910671" lon="-5.622850125655532">
        <ele>282.27999999999997</ele>
        <time>2019-03-10T14:34:38Z</time>
      </trkpt>
      <trkpt lat="34.022707231342793" lon="-5.623687393963337">
        <ele>282.27999999999997</ele>
        <time>2019-03-10T14:34:47Z</time>
      </trkpt>
      <trkpt lat="34.022545795887709" lon="-5.623726034536958">
        <ele>282.27999999999997</ele>
        <time>2019-03-10T14:34:48Z</time>
      </trkpt>
      <trkpt lat="34.022386204451323" lon="-5.623749252408743">
        <ele>281.80000000000001</ele>
        <time>2019-03-10T14:34:49Z</time>
      </trkpt>
      <trkpt lat="34.022230133414268" lon="-5.62375252135098">
        <ele>281.80000000000001</ele>
        <time>2019-03-10T14:34:50Z</time>
      </trkpt>
      <trkpt lat="34.022074565291405" lon="-5.623737769201398">
        <ele>281.31999999999999</ele>
        <time>2019-03-10T14:34:51Z</time>
      </trkpt>
      <trkpt lat="34.021919164806604" lon="-5.623708097264171">
        <ele>274.58999999999997</ele>
        <time>2019-03-10T14:34:52Z</time>
      </trkpt>
      <trkpt lat="34.021767368540168" lon="-5.6236616615206">
        <ele>265.94</ele>
        <time>2019-03-10T14:34:53Z</time>
      </trkpt>
      <trkpt lat="34.021617667749524" lon="-5.623600808903575">
        <ele>257.29000000000002</ele>
        <time>2019-03-10T14:34:54Z</time>
      </trkpt>
      <trkpt lat="34.021472241729498" lon="-5.623526042327285">
        <ele>253.44</ele>
        <time>2019-03-10T14:34:55Z</time>
      </trkpt>
      <trkpt lat="34.021331509575248" lon="-5.623441720381379">
        <ele>253.44</ele>
        <time>2019-03-10T14:34:56Z</time>
      </trkpt>
      <trkpt lat="34.020196851342916" lon="-5.622650971636176">
        <ele>253.93000000000001</ele>
        <time>2019-03-10T14:35:03Z</time>
      </trkpt>
      <trkpt lat="34.017811613157392" lon="-5.621029827743769">
        <ele>260.64999999999998</ele>
        <time>2019-03-10T14:35:17Z</time>
      </trkpt>
      <trkpt lat="34.0160255972296" lon="-5.620092730969191">
        <ele>276.04000000000002</ele>
        <time>2019-03-10T14:35:27Z</time>
      </trkpt>
      <trkpt lat="34.01438626460731" lon="-5.61998032964766">
        <ele>278.44</ele>
        <time>2019-03-10T14:35:35Z</time>
      </trkpt>
      <trkpt lat="34.01276252232492" lon="-5.61977262608707">
        <ele>276.51999999999998</ele>
        <time>2019-03-10T14:35:44Z</time>
      </trkpt>
      <trkpt lat="34.011455867439508" lon="-5.619109449908137">
        <ele>276.51999999999998</ele>
        <time>2019-03-10T14:35:53Z</time>
      </trkpt>
      <trkpt lat="34.010482644662261" lon="-5.618302524089813">
        <ele>275.56</ele>
        <time>2019-03-10T14:36:02Z</time>
      </trkpt>
      <trkpt lat="34.008514489978552" lon="-5.616354905068874">
        <ele>275.56</ele>
        <time>2019-03-10T14:36:22Z</time>
      </trkpt>
      <trkpt lat="34.007402546703815" lon="-5.615108599886298">
        <ele>277.95999999999998</ele>
        <time>2019-03-10T14:36:33Z</time>
      </trkpt>
      <trkpt lat="34.006343744695187" lon="-5.613372707739472">
        <ele>279.88</ele>
        <time>2019-03-10T14:36:45Z</time>
      </trkpt>
      <trkpt lat="34.005714599043131" lon="-5.612334189936519">
        <ele>283.25</ele>
        <time>2019-03-10T14:36:55Z</time>
      </trkpt>
      <trkpt lat="34.005253175273538" lon="-5.611570179462433">
        <ele>284.20999999999998</ele>
        <time>2019-03-10T14:37:04Z</time>
      </trkpt>
      <trkpt lat="34.004509365186095" lon="-5.610346673056483">
        <ele>283.25</ele>
        <time>2019-03-10T14:37:12Z</time>
      </trkpt>
      <trkpt lat="34.003392308950424" lon="-5.608488488942385">
        <ele>288.05000000000001</ele>
        <time>2019-03-10T14:37:22Z</time>
      </trkpt>
      <trkpt lat="34.002172909677029" lon="-5.606451770290732">
        <ele>290.94</ele>
        <time>2019-03-10T14:37:33Z</time>
      </trkpt>
      <trkpt lat="34.000819819048047" lon="-5.604185722768307">
        <ele>285.17000000000002</ele>
        <time>2019-03-10T14:37:45Z</time>
      </trkpt>
      <trkpt lat="33.999294564127922" lon="-5.602100053802133">
        <ele>286.61000000000001</ele>
        <time>2019-03-10T14:37:57Z</time>
      </trkpt>
      <trkpt lat="33.997648106887937" lon="-5.600850060582161">
        <ele>288.05000000000001</ele>
        <time>2019-03-10T14:38:07Z</time>
      </trkpt>
      <trkpt lat="33.995536956936121" lon="-5.599283650517464">
        <ele>289.49000000000001</ele>
        <time>2019-03-10T14:38:19Z</time>
      </trkpt>
      <trkpt lat="33.993797628208995" lon="-5.598216718062758">
        <ele>289.97000000000003</ele>
        <time>2019-03-10T14:38:29Z</time>
      </trkpt>
      <trkpt lat="33.990550646558404" lon="-5.596580235287547">
        <ele>288.05000000000001</ele>
        <time>2019-03-10T14:38:47Z</time>
      </trkpt>
      <trkpt lat="33.988209581002593" lon="-5.595403332263231">
        <ele>287.08999999999997</ele>
        <time>2019-03-10T14:39:01Z</time>
      </trkpt>
      <trkpt lat="33.987240381538868" lon="-5.594901004806161">
        <ele>286.61000000000001</ele>
        <time>2019-03-10T14:39:09Z</time>
      </trkpt>
      <trkpt lat="33.986250394955277" lon="-5.594396414235234">
        <ele>286.13</ele>
        <time>2019-03-10T14:39:21Z</time>
      </trkpt>
      <trkpt lat="33.985158065333962" lon="-5.593838933855295">
        <ele>285.64999999999998</ele>
        <time>2019-03-10T14:39:32Z</time>
      </trkpt>
      <trkpt lat="33.983697686344385" lon="-5.593102918937802">
        <ele>285.17000000000002</ele>
        <time>2019-03-10T14:39:42Z</time>
      </trkpt>
      <trkpt lat="33.982588676735759" lon="-5.592515598982573">
        <ele>284.20999999999998</ele>
        <time>2019-03-10T14:39:49Z</time>
      </trkpt>
      <trkpt lat="33.98245339281857" lon="-5.59239867143333">
        <ele>278.44</ele>
        <time>2019-03-10T14:39:50Z</time>
      </trkpt>
      <trkpt lat="33.982326239347458" lon="-5.592263219878078">
        <ele>277.48000000000002</ele>
        <time>2019-03-10T14:39:51Z</time>
      </trkpt>
      <trkpt lat="33.982208725064993" lon="-5.5921118427068">
        <ele>276.51999999999998</ele>
        <time>2019-03-10T14:39:52Z</time>
      </trkpt>
      <trkpt lat="33.982101436704397" lon="-5.591948227956891">
        <ele>275.56</ele>
        <time>2019-03-10T14:39:53Z</time>
      </trkpt>
      <trkpt lat="33.982001775875688" lon="-5.591778075322509">
        <ele>274.58999999999997</ele>
        <time>2019-03-10T14:39:54Z</time>
      </trkpt>
      <trkpt lat="33.98143314756453" lon="-5.590823544189334">
        <ele>273.63</ele>
        <time>2019-03-10T14:40:00Z</time>
      </trkpt>
      <trkpt lat="33.98131831549108" lon="-5.590679459273815">
        <ele>272.67000000000002</ele>
        <time>2019-03-10T14:40:01Z</time>
      </trkpt>
      <trkpt lat="33.981189988553524" lon="-5.590543672442436">
        <ele>267.86000000000001</ele>
        <time>2019-03-10T14:40:02Z</time>
      </trkpt>
      <trkpt lat="33.981049591675401" lon="-5.590420626103878">
        <ele>267.38</ele>
        <time>2019-03-10T14:40:03Z</time>
      </trkpt>
      <trkpt lat="33.980898046866059" lon="-5.590314846485853">
        <ele>266.89999999999998</ele>
        <time>2019-03-10T14:40:04Z</time>
      </trkpt>
      <trkpt lat="33.980739880353212" lon="-5.590224573388696">
        <ele>266.42000000000002</ele>
        <time>2019-03-10T14:40:05Z</time>
      </trkpt>
      <trkpt lat="33.980577941983938" lon="-5.590145280584693">
        <ele>265.94</ele>
        <time>2019-03-10T14:40:06Z</time>
      </trkpt>
      <trkpt lat="33.979563815519214" lon="-5.589584950357676">
        <ele>272.19</ele>
        <time>2019-03-10T14:40:13Z</time>
      </trkpt>
      <trkpt lat="33.9794453792274" lon="-5.589471627026796">
        <ele>281.80000000000001</ele>
        <time>2019-03-10T14:40:14Z</time>
      </trkpt>
      <trkpt lat="33.979334067553282" lon="-5.589347826316953">
        <ele>292.86000000000001</ele>
        <time>2019-03-10T14:40:15Z</time>
      </trkpt>
      <trkpt lat="33.979231137782335" lon="-5.589215727522969">
        <ele>300.06999999999999</ele>
        <time>2019-03-10T14:40:16Z</time>
      </trkpt>
      <trkpt lat="33.979132734239101" lon="-5.589078264310956">
        <ele>305.36000000000001</ele>
        <time>2019-03-10T14:40:17Z</time>
      </trkpt>
      <trkpt lat="33.977962285280228" lon="-5.587228881195188">
        <ele>305.83999999999997</ele>
        <time>2019-03-10T14:40:30Z</time>
      </trkpt>
      <trkpt lat="33.977362308651209" lon="-5.585789876058698">
        <ele>304.88</ele>
        <time>2019-03-10T14:40:39Z</time>
      </trkpt>
      <trkpt lat="33.976431079208851" lon="-5.583257535472512">
        <ele>305.83999999999997</ele>
        <time>2019-03-10T14:40:53Z</time>
      </trkpt>
      <trkpt lat="33.97557252086699" lon="-5.580910854041576">
        <ele>307.27999999999997</ele>
        <time>2019-03-10T14:41:05Z</time>
      </trkpt>
      <trkpt lat="33.974829548969865" lon="-5.579199939966202">
        <ele>306.80000000000001</ele>
        <time>2019-03-10T14:41:15Z</time>
      </trkpt>
      <trkpt lat="33.974421098828316" lon="-5.578528381884098">
        <ele>306.80000000000001</ele>
        <time>2019-03-10T14:41:22Z</time>
      </trkpt>
      <trkpt lat="33.974291095510125" lon="-5.578299555927515">
        <ele>306.80000000000001</ele>
        <time>2019-03-10T14:41:30Z</time>
      </trkpt>
      <trkpt lat="33.97419554181397" lon="-5.57811314240098">
        <ele>306.80000000000001</ele>
        <time>2019-03-10T14:41:44Z</time>
      </trkpt>
      <trkpt lat="33.974076686426997" lon="-5.577873755246401">
        <ele>306.80000000000001</ele>
        <time>2019-03-10T14:41:55Z</time>
      </trkpt>
      <trkpt lat="33.97382908500731" lon="-5.577530181035399">
        <ele>306.80000000000001</ele>
        <time>2019-03-10T14:42:02Z</time>
      </trkpt>
      <trkpt lat="33.9737777877599" lon="-5.577479219064117">
        <ele>311.12</ele>
        <time>2019-03-10T14:42:03Z</time>
      </trkpt>
      <trkpt lat="33.973719449713826" lon="-5.577430436387658">
        <ele>319.30000000000001</ele>
        <time>2019-03-10T14:42:04Z</time>
      </trkpt>
      <trkpt lat="33.973657339811325" lon="-5.577386012300849">
        <ele>325.54000000000002</ele>
        <time>2019-03-10T14:42:05Z</time>
      </trkpt>
      <trkpt lat="33.973591877147555" lon="-5.577342174947262">
        <ele>327.47000000000003</ele>
        <time>2019-03-10T14:42:06Z</time>
      </trkpt>
      <trkpt lat="33.972600130364299" lon="-5.576732475310564">
        <ele>329.87</ele>
        <time>2019-03-10T14:42:19Z</time>
      </trkpt>
      <trkpt lat="33.971952209249139" lon="-5.576335927471519">
        <ele>329.87</ele>
        <time>2019-03-10T14:42:28Z</time>
      </trkpt>
      <trkpt lat="33.97090757265687" lon="-5.575863774865866">
        <ele>325.06</ele>
        <time>2019-03-10T14:42:42Z</time>
      </trkpt>
      <trkpt lat="33.969933427870274" lon="-5.575584741309285">
        <ele>315.44999999999999</ele>
        <time>2019-03-10T14:42:54Z</time>
      </trkpt>
      <trkpt lat="33.968826765194535" lon="-5.575161706656218">
        <ele>302.47000000000003</ele>
        <time>2019-03-10T14:43:05Z</time>
      </trkpt>
      <trkpt lat="33.967764945700765" lon="-5.574308596551418">
        <ele>296.69999999999999</ele>
        <time>2019-03-10T14:43:15Z</time>
      </trkpt>
      <trkpt lat="33.966868501156569" lon="-5.573985055088997">
        <ele>292.38</ele>
        <time>2019-03-10T14:43:22Z</time>
      </trkpt>
      <trkpt lat="33.965745661407709" lon="-5.57427104562521">
        <ele>286.13</ele>
        <time>2019-03-10T14:43:30Z</time>
      </trkpt>
      <trkpt lat="33.964605806395411" lon="-5.574886361137033">
        <ele>284.69</ele>
        <time>2019-03-10T14:43:38Z</time>
      </trkpt>
      <trkpt lat="33.963315160945058" lon="-5.576082793995738">
        <ele>283.73000000000002</ele>
        <time>2019-03-10T14:43:47Z</time>
      </trkpt>
      <trkpt lat="33.962285444140434" lon="-5.576671790331602">
        <ele>286.61000000000001</ele>
        <time>2019-03-10T14:43:54Z</time>
      </trkpt>
      <trkpt lat="33.961195042356849" lon="-5.576727446168661">
        <ele>291.89999999999998</ele>
        <time>2019-03-10T14:44:01Z</time>
      </trkpt>
      <trkpt lat="33.960037166252732" lon="-5.576222520321608">
        <ele>301.50999999999999</ele>
        <time>2019-03-10T14:44:08Z</time>
      </trkpt>
      <trkpt lat="33.958367826417089" lon="-5.575426239520311">
        <ele>308.72000000000003</ele>
        <time>2019-03-10T14:44:19Z</time>
      </trkpt>
      <trkpt lat="33.957023285329342" lon="-5.575260445475578">
        <ele>316.88999999999999</ele>
        <time>2019-03-10T14:44:27Z</time>
      </trkpt>
      <trkpt lat="33.955257805064321" lon="-5.574952829629183">
        <ele>322.18000000000001</ele>
        <time>2019-03-10T14:44:39Z</time>
      </trkpt>
      <trkpt lat="33.953713104128838" lon="-5.574257299304009">
        <ele>323.13999999999999</ele>
        <time>2019-03-10T14:44:51Z</time>
      </trkpt>
      <trkpt lat="33.952335622161627" lon="-5.57394809089601">
        <ele>320.74000000000001</ele>
        <time>2019-03-10T14:45:00Z</time>
      </trkpt>
      <trkpt lat="33.950628647580743" lon="-5.57382445782423">
        <ele>319.77999999999997</ele>
        <time>2019-03-10T14:45:10Z</time>
      </trkpt>
      <trkpt lat="33.948838440701365" lon="-5.573762096464634">
        <ele>322.66000000000003</ele>
        <time>2019-03-10T14:45:19Z</time>
      </trkpt>
      <trkpt lat="33.948006201535463" lon="-5.573605438694358">
        <ele>322.18000000000001</ele>
        <time>2019-03-10T14:45:26Z</time>
      </trkpt>
      <trkpt lat="33.947145044803619" lon="-5.57306413538754">
        <ele>322.66000000000003</ele>
        <time>2019-03-10T14:45:34Z</time>
      </trkpt>
      <trkpt lat="33.946255724877119" lon="-5.571922771632671">
        <ele>319.77999999999997</ele>
        <time>2019-03-10T14:45:43Z</time>
      </trkpt>
      <trkpt lat="33.945639822632074" lon="-5.570606980472803">
        <ele>326.01999999999998</ele>
        <time>2019-03-10T14:45:52Z</time>
      </trkpt>
      <trkpt lat="33.945026518777013" lon="-5.568698924034834">
        <ele>328.43000000000001</ele>
        <time>2019-03-10T14:46:04Z</time>
      </trkpt>
      <trkpt lat="33.94453089684248" lon="-5.568023342639208">
        <ele>336.60000000000002</ele>
        <time>2019-03-10T14:46:09Z</time>
      </trkpt>
      <trkpt lat="33.943495815619826" lon="-5.567244328558445">
        <ele>345.73000000000002</ele>
        <time>2019-03-10T14:46:17Z</time>
      </trkpt>
      <trkpt lat="33.941857824102044" lon="-5.566132804378867">
        <ele>350.54000000000002</ele>
        <time>2019-03-10T14:46:27Z</time>
      </trkpt>
      <trkpt lat="33.940445054322481" lon="-5.565198725089431">
        <ele>353.42000000000002</ele>
        <time>2019-03-10T14:46:37Z</time>
      </trkpt>
      <trkpt lat="33.939300505444407" lon="-5.564811732620001">
        <ele>360.14999999999998</ele>
        <time>2019-03-10T14:46:46Z</time>
      </trkpt>
      <trkpt lat="33.937877425923944" lon="-5.564562454819679">
        <ele>365.44</ele>
        <time>2019-03-10T14:46:59Z</time>
      </trkpt>
      <trkpt lat="33.936283271759748" lon="-5.564311500638723">
        <ele>368.31999999999999</ele>
        <time>2019-03-10T14:47:14Z</time>
      </trkpt>
      <trkpt lat="33.934977119788527" lon="-5.564356427639723">
        <ele>369.27999999999997</ele>
        <time>2019-03-10T14:47:26Z</time>
      </trkpt>
      <trkpt lat="33.93378839828074" lon="-5.564313093200326">
        <ele>369.27999999999997</ele>
        <time>2019-03-10T14:47:35Z</time>
      </trkpt>
      <trkpt lat="33.932907963171601" lon="-5.563876982778311">
        <ele>371.20999999999998</ele>
        <time>2019-03-10T14:47:43Z</time>
      </trkpt>
      <trkpt lat="33.932284768670797" lon="-5.563567187637091">
        <ele>372.64999999999998</ele>
        <time>2019-03-10T14:47:52Z</time>
      </trkpt>
      <trkpt lat="33.931433083489537" lon="-5.563410697504878">
        <ele>367.36000000000001</ele>
        <time>2019-03-10T14:48:03Z</time>
      </trkpt>
      <trkpt lat="33.930396577343345" lon="-5.563351269811392">
        <ele>376.49000000000001</ele>
        <time>2019-03-10T14:48:15Z</time>
      </trkpt>
      <trkpt lat="33.929535839706659" lon="-5.562992356717587">
        <ele>385.14999999999998</ele>
        <time>2019-03-10T14:48:26Z</time>
      </trkpt>
      <trkpt lat="33.928316105157137" lon="-5.56227914057672">
        <ele>386.58999999999997</ele>
        <time>2019-03-10T14:48:41Z</time>
      </trkpt>
      <trkpt lat="33.927217153832316" lon="-5.561900110915303">
        <ele>387.55000000000001</ele>
        <time>2019-03-10T14:48:51Z</time>
      </trkpt>
      <trkpt lat="33.925764737650752" lon="-5.561483278870583">
        <ele>388.02999999999997</ele>
        <time>2019-03-10T14:49:01Z</time>
      </trkpt>
      <trkpt lat="33.924499405547976" lon="-5.560916913673282">
        <ele>388.02999999999997</ele>
        <time>2019-03-10T14:49:11Z</time>
      </trkpt>
      <trkpt lat="33.923304481431842" lon="-5.56061826646328">
        <ele>388.99000000000001</ele>
        <time>2019-03-10T14:49:22Z</time>
      </trkpt>
      <trkpt lat="33.922153394669294" lon="-5.560891767963767">
        <ele>388.99000000000001</ele>
        <time>2019-03-10T14:49:33Z</time>
      </trkpt>
      <trkpt lat="33.921845024451613" lon="-5.56102872826159">
        <ele>389.47000000000003</ele>
        <time>2019-03-10T14:49:37Z</time>
      </trkpt>
      <trkpt lat="33.921786015853286" lon="-5.561070470139384">
        <ele>389.94999999999999</ele>
        <time>2019-03-10T14:49:38Z</time>
      </trkpt>
      <trkpt lat="33.921736730262637" lon="-5.561114391312003">
        <ele>389.94999999999999</ele>
        <time>2019-03-10T14:49:39Z</time>
      </trkpt>
      <trkpt lat="33.921653497964144" lon="-5.561197958886623">
        <ele>390.43000000000001</ele>
        <time>2019-03-10T14:49:41Z</time>
      </trkpt>
      <trkpt lat="33.921606726944447" lon="-5.561228720471263">
        <ele>390.43000000000001</ele>
        <time>2019-03-10T14:49:42Z</time>
      </trkpt>
      <trkpt lat="33.921552328392863" lon="-5.561245316639543">
        <ele>390.43000000000001</ele>
        <time>2019-03-10T14:49:43Z</time>
      </trkpt>
      <trkpt lat="33.921490637585521" lon="-5.561243807896972">
        <ele>390.91000000000003</ele>
        <time>2019-03-10T14:49:44Z</time>
      </trkpt>
      <trkpt lat="33.921423917636275" lon="-5.561231318861246">
        <ele>392.83999999999997</ele>
        <time>2019-03-10T14:49:45Z</time>
      </trkpt>
      <trkpt lat="33.921353174373507" lon="-5.561216063797474">
        <ele>395.72000000000003</ele>
        <time>2019-03-10T14:49:46Z</time>
      </trkpt>
      <trkpt lat="33.92128000035882" lon="-5.561207933351398">
        <ele>406.29000000000002</ele>
        <time>2019-03-10T14:49:47Z</time>
      </trkpt>
      <trkpt lat="33.921201545745134" lon="-5.5612129624933">
        <ele>425.04000000000002</ele>
        <time>2019-03-10T14:49:48Z</time>
      </trkpt>
      <trkpt lat="33.921117559075356" lon="-5.561231151223183">
        <ele>438.98000000000002</ele>
        <time>2019-03-10T14:49:49Z</time>
      </trkpt>
      <trkpt lat="33.920251708477736" lon="-5.561435082927346">
        <ele>451.48000000000002</ele>
        <time>2019-03-10T14:49:56Z</time>
      </trkpt>
      <trkpt lat="33.919073296710849" lon="-5.561318071559072">
        <ele>463.49000000000001</ele>
        <time>2019-03-10T14:50:03Z</time>
      </trkpt>
      <trkpt lat="33.91769690439105" lon="-5.560595886781812">
        <ele>467.33999999999997</ele>
        <time>2019-03-10T14:50:12Z</time>
      </trkpt>
      <trkpt lat="33.915621377527714" lon="-5.559524176642299">
        <ele>473.58999999999997</ele>
        <time>2019-03-10T14:50:24Z</time>
      </trkpt>
      <trkpt lat="33.913646601140499" lon="-5.55873854085803">
        <ele>479.35000000000002</ele>
        <time>2019-03-10T14:50:35Z</time>
      </trkpt>
      <trkpt lat="33.911790680140257" lon="-5.557838827371597">
        <ele>485.60000000000002</ele>
        <time>2019-03-10T14:50:46Z</time>
      </trkpt>
      <trkpt lat="33.909891257062554" lon="-5.556770889088512">
        <ele>491.85000000000002</ele>
        <time>2019-03-10T14:50:59Z</time>
      </trkpt>
      <trkpt lat="33.909097071737051" lon="-5.556627893820405">
        <ele>492.32999999999998</ele>
        <time>2019-03-10T14:51:07Z</time>
      </trkpt>
      <trkpt lat="33.907838445156813" lon="-5.556726967915893">
        <ele>492.81</ele>
        <time>2019-03-10T14:51:21Z</time>
      </trkpt>
      <trkpt lat="33.906801184639335" lon="-5.556648429483175">
        <ele>492.81</ele>
        <time>2019-03-10T14:51:32Z</time>
      </trkpt>
      <trkpt lat="33.905684798955917" lon="-5.556322960183024">
        <ele>493.29000000000002</ele>
        <time>2019-03-10T14:51:43Z</time>
      </trkpt>
      <trkpt lat="33.904582997784019" lon="-5.555681493133307">
        <ele>498.10000000000002</ele>
        <time>2019-03-10T14:51:55Z</time>
      </trkpt>
      <trkpt lat="33.90450588427484" lon="-5.555649641901255">
        <ele>506.26999999999998</ele>
        <time>2019-03-10T14:51:56Z</time>
      </trkpt>
      <trkpt lat="33.904430866241455" lon="-5.555615862831473">
        <ele>508.67000000000002</ele>
        <time>2019-03-10T14:51:57Z</time>
      </trkpt>
      <trkpt lat="33.904355512931943" lon="-5.555575210601091">
        <ele>511.07999999999998</ele>
        <time>2019-03-10T14:51:58Z</time>
      </trkpt>
      <trkpt lat="33.904284350574017" lon="-5.555533301085234">
        <ele>514.44000000000005</ele>
        <time>2019-03-10T14:51:59Z</time>
      </trkpt>
      <trkpt lat="33.903273493051529" lon="-5.555035248398781">
        <ele>515.88</ele>
        <time>2019-03-10T14:52:11Z</time>
      </trkpt>
      <trkpt lat="33.901973208412528" lon="-5.554462093859911">
        <ele>518.28999999999996</ele>
        <time>2019-03-10T14:52:26Z</time>
      </trkpt>
      <trkpt lat="33.901607757434249" lon="-5.554344663396478">
        <ele>524.05999999999995</ele>
        <time>2019-03-10T14:52:36Z</time>
      </trkpt>
      <trkpt lat="33.901270721107721" lon="-5.554298395290971">
        <ele>526.46000000000004</ele>
        <time>2019-03-10T14:52:44Z</time>
      </trkpt>
      <trkpt lat="33.90068675391376" lon="-5.554185407236219">
        <ele>524.05999999999995</ele>
        <time>2019-03-10T14:52:54Z</time>
      </trkpt>
      <trkpt lat="33.900108486413956" lon="-5.554087338969111">
        <ele>524.05999999999995</ele>
        <time>2019-03-10T14:53:06Z</time>
      </trkpt>
      <trkpt lat="33.899614037945867" lon="-5.553934369236231">
        <ele>524.53999999999996</ele>
        <time>2019-03-10T14:53:18Z</time>
      </trkpt>
      <trkpt lat="33.898820439353585" lon="-5.553594399243593">
        <ele>524.53999999999996</ele>
        <time>2019-03-10T14:53:34Z</time>
      </trkpt>
      <trkpt lat="33.898403942584991" lon="-5.553415277972817">
        <ele>525.01999999999998</ele>
        <time>2019-03-10T14:53:47Z</time>
      </trkpt>
      <trkpt lat="33.898252984508872" lon="-5.553353084251285">
        <ele>525.01999999999998</ele>
        <time>2019-03-10T14:54:10Z</time>
      </trkpt>
      <trkpt lat="33.898198334500194" lon="-5.553343780338764">
        <ele>526.94000000000005</ele>
        <time>2019-03-10T14:54:11Z</time>
      </trkpt>
      <trkpt lat="33.898147623986006" lon="-5.553343780338764">
        <ele>529.34000000000003</ele>
        <time>2019-03-10T14:54:12Z</time>
      </trkpt>
      <trkpt lat="33.898029355332255" lon="-5.553334224969149">
        <ele>532.23000000000002</ele>
        <time>2019-03-10T14:54:15Z</time>
      </trkpt>
      <trkpt lat="33.897993732243776" lon="-5.553306648507714">
        <ele>533.66999999999996</ele>
        <time>2019-03-10T14:54:16Z</time>
      </trkpt>
      <trkpt lat="33.897965988144279" lon="-5.553267002105713">
        <ele>530.29999999999995</ele>
        <time>2019-03-10T14:54:17Z</time>
      </trkpt>
      <trkpt lat="33.897789129987359" lon="-5.553060723468661">
        <ele>525.01999999999998</ele>
        <time>2019-03-10T14:54:26Z</time>
      </trkpt>
      <trkpt lat="33.897277330979705" lon="-5.552660906687379">
        <ele>522.13</ele>
        <time>2019-03-10T14:54:34Z</time>
      </trkpt>
      <trkpt lat="33.896459089592099" lon="-5.55206386372447">
        <ele>521.64999999999998</ele>
        <time>2019-03-10T14:54:46Z</time>
      </trkpt>
      <trkpt lat="33.895774874836206" lon="-5.551645942032337">
        <ele>521.64999999999998</ele>
        <time>2019-03-10T14:54:58Z</time>
      </trkpt>
      <trkpt lat="33.894928302615881" lon="-5.550908083096147">
        <ele>521.64999999999998</ele>
        <time>2019-03-10T14:55:13Z</time>
      </trkpt>
      <trkpt lat="33.894642479717731" lon="-5.550397625193">
        <ele>521.64999999999998</ele>
        <time>2019-03-10T14:55:22Z</time>
      </trkpt>
      <trkpt lat="33.894567713141441" lon="-5.550235351547599">
        <ele>522.13</ele>
        <time>2019-03-10T14:55:31Z</time>
      </trkpt>
      <trkpt lat="33.894407702609897" lon="-5.550025217235088">
        <ele>522.13</ele>
        <time>2019-03-10T14:55:43Z</time>
      </trkpt>
      <trkpt lat="33.894367134198546" lon="-5.549956150352955">
        <ele>522.61000000000001</ele>
        <time>2019-03-10T14:55:44Z</time>
      </trkpt>
      <trkpt lat="33.894339976832271" lon="-5.549871074035764">
        <ele>522.61000000000001</ele>
        <time>2019-03-10T14:55:45Z</time>
      </trkpt>
      <trkpt lat="33.894289769232273" lon="-5.549693377688527">
        <ele>530.29999999999995</ele>
        <time>2019-03-10T14:55:47Z</time>
      </trkpt>
      <trkpt lat="33.89424467459321" lon="-5.549602769315243">
        <ele>538.48000000000002</ele>
        <time>2019-03-10T14:55:48Z</time>
      </trkpt>
      <trkpt lat="33.894185414537787" lon="-5.549510484561324">
        <ele>541.36000000000001</ele>
        <time>2019-03-10T14:55:49Z</time>
      </trkpt>
      <trkpt lat="33.894113581627607" lon="-5.549417361617088">
        <ele>541.36000000000001</ele>
        <time>2019-03-10T14:55:50Z</time>
      </trkpt>
      <trkpt lat="33.894039569422603" lon="-5.549328932538629">
        <ele>550.00999999999999</ele>
        <time>2019-03-10T14:55:51Z</time>
      </trkpt>
      <trkpt lat="33.892911449074745" lon="-5.548157226294279">
        <ele>550.49000000000001</ele>
        <time>2019-03-10T14:56:04Z</time>
      </trkpt>
      <trkpt lat="33.891696995124221" lon="-5.546876722946763">
        <ele>553.38</ele>
        <time>2019-03-10T14:56:15Z</time>
      </trkpt>
      <trkpt lat="33.890638696029782" lon="-5.545721780508757">
        <ele>558.65999999999997</ele>
        <time>2019-03-10T14:56:25Z</time>
      </trkpt>
      <trkpt lat="33.889983985573053" lon="-5.545047372579575">
        <ele>558.65999999999997</ele>
        <time>2018-03-24T15:02:47Z</time>
      </trkpt>
      <trkpt lat="33.887845342978835" lon="-5.541899213567376">
        <ele>559.13999999999999</ele>
        <time>2018-03-24T15:03:17Z</time>
      </trkpt>
      <trkpt lat="33.886438272893429" lon="-5.539506012573838">
        <ele>558.65999999999997</ele>
        <time>2018-03-24T15:03:58Z</time>
      </trkpt>
      <trkpt lat="33.884028475731611" lon="-5.536852134391666">
        <ele>558.65999999999997</ele>
        <time>2018-03-24T15:04:23Z</time>
      </trkpt>
      <trkpt lat="33.882955340668559" lon="-5.535897184163332">
        <ele>558.65999999999997</ele>
        <time>2019-03-10T14:58:57Z</time>
      </trkpt>
      <trkpt lat="33.88280195184052" lon="-5.535716889426112">
        <ele>558.65999999999997</ele>
        <time>2019-03-10T14:58:59Z</time>
      </trkpt>
      <trkpt lat="33.882735148072243" lon="-5.535612870007753">
        <ele>557.22000000000003</ele>
        <time>2019-03-10T14:59:00Z</time>
      </trkpt>
      <trkpt lat="33.882674966007471" lon="-5.535499295219779">
        <ele>557.22000000000003</ele>
        <time>2019-03-10T14:59:01Z</time>
      </trkpt>
      <trkpt lat="33.882622914388776" lon="-5.535381026566029">
        <ele>557.22000000000003</ele>
        <time>2019-03-10T14:59:02Z</time>
      </trkpt>
      <trkpt lat="33.882576646283269" lon="-5.535258902236819">
        <ele>557.22000000000003</ele>
        <time>2019-03-10T14:59:03Z</time>
      </trkpt>
      <trkpt lat="33.882533647119999" lon="-5.535132503136993">
        <ele>556.74000000000001</ele>
        <time>2019-03-10T14:59:04Z</time>
      </trkpt>
      <trkpt lat="33.882232066243887" lon="-5.533981081098318">
        <ele>556.74000000000001</ele>
        <time>2019-03-10T14:59:14Z</time>
      </trkpt>
      <trkpt lat="33.882183786481619" lon="-5.53385459817946">
        <ele>556.74000000000001</ele>
        <time>2019-03-10T14:59:15Z</time>
      </trkpt>
      <trkpt lat="33.882123772054911" lon="-5.533733814954758">
        <ele>556.74000000000001</ele>
        <time>2019-03-10T14:59:16Z</time>
      </trkpt>
      <trkpt lat="33.882056381553411" lon="-5.533618312329054">
        <ele>556.74000000000001</ele>
        <time>2019-03-10T14:59:17Z</time>
      </trkpt>
      <trkpt lat="33.881980525329709" lon="-5.53350767120719">
        <ele>556.25999999999999</ele>
        <time>2019-03-10T14:59:18Z</time>
      </trkpt>
      <trkpt lat="33.881894443184137" lon="-5.533400299027562">
        <ele>556.25999999999999</ele>
        <time>2019-03-10T14:59:19Z</time>
      </trkpt>
      <trkpt lat="33.881796877831221" lon="-5.533299883827567">
        <ele>555.77999999999997</ele>
        <time>2019-03-10T14:59:20Z</time>
      </trkpt>
      <trkpt lat="33.881690260022879" lon="-5.533208018168807">
        <ele>555.77999999999997</ele>
        <time>2019-03-10T14:59:21Z</time>
      </trkpt>
      <trkpt lat="33.881574925035238" lon="-5.533128725364804">
        <ele>555.29999999999995</ele>
        <time>2019-03-10T14:59:22Z</time>
      </trkpt>
      <trkpt lat="33.881450118497014" lon="-5.533065777271986">
        <ele>547.61000000000001</ele>
        <time>2019-03-10T14:59:23Z</time>
      </trkpt>
      <trkpt lat="33.881318857893348" lon="-5.533018922433257">
        <ele>545.69000000000005</ele>
        <time>2019-03-10T14:59:24Z</time>
      </trkpt>
      <trkpt lat="33.88118457980454" lon="-5.532986652106047">
        <ele>546.16999999999996</ele>
        <time>2019-03-10T14:59:25Z</time>
      </trkpt>
      <trkpt lat="33.881046529859304" lon="-5.532967206090689">
        <ele>546.16999999999996</ele>
        <time>2019-03-10T14:59:26Z</time>
      </trkpt>
      <trkpt lat="33.880906049162149" lon="-5.532958321273327">
        <ele>546.16999999999996</ele>
        <time>2019-03-10T14:59:27Z</time>
      </trkpt>
      <trkpt lat="33.878768663853407" lon="-5.532917752861977">
        <ele>546.64999999999998</ele>
        <time>2019-03-10T14:59:42Z</time>
      </trkpt>
      <trkpt lat="33.877577930688858" lon="-5.532940467819572">
        <ele>547.61000000000001</ele>
        <time>2019-03-10T14:59:51Z</time>
      </trkpt>
      <trkpt lat="33.877495704218745" lon="-5.532970475032926">
        <ele>546.64999999999998</ele>
        <time>2019-03-10T14:59:52Z</time>
      </trkpt>
      <trkpt lat="33.877422865480185" lon="-5.533008528873324">
        <ele>545.69000000000005</ele>
        <time>2019-03-10T14:59:53Z</time>
      </trkpt>
      <trkpt lat="33.877290347591043" lon="-5.53308648057282">
        <ele>545.20000000000005</ele>
        <time>2019-03-10T14:59:55Z</time>
      </trkpt>
      <trkpt lat="33.877222202718258" lon="-5.533114308491349">
        <ele>545.20000000000005</ele>
        <time>2019-03-10T14:59:56Z</time>
      </trkpt>
      <trkpt lat="33.87657729908824" lon="-5.53350624628365">
        <ele>544.72000000000003</ele>
        <time>2019-03-10T15:00:03Z</time>
      </trkpt>
      <trkpt lat="33.875329401344061" lon="-5.534443762153387">
        <ele>544.72000000000003</ele>
        <time>2019-03-10T15:00:15Z</time>
      </trkpt>
      <trkpt lat="33.874275628477335" lon="-5.535310870036483">
        <ele>544.72000000000003</ele>
        <time>2019-03-10T15:00:26Z</time>
      </trkpt>
      <trkpt lat="33.874225169420242" lon="-5.5353669449687">
        <ele>544.72000000000003</ele>
        <time>2019-03-10T15:00:27Z</time>
      </trkpt>
      <trkpt lat="33.874191306531429" lon="-5.535418493673205">
        <ele>545.20000000000005</ele>
        <time>2019-03-10T15:00:28Z</time>
      </trkpt>
      <trkpt lat="33.874169765040278" lon="-5.535462331026793">
        <ele>545.69000000000005</ele>
        <time>2019-03-10T15:00:29Z</time>
      </trkpt>
      <trkpt lat="33.874157862737775" lon="-5.535498457029462">
        <ele>545.20000000000005</ele>
        <time>2019-03-10T15:00:30Z</time>
      </trkpt>
      <trkpt lat="33.874150402843952" lon="-5.535522680729628">
        <ele>545.20000000000005</ele>
        <time>2019-03-10T15:00:31Z</time>
      </trkpt>
      <trkpt lat="33.874137746170163" lon="-5.535589568316937">
        <ele>545.20000000000005</ele>
        <time>2019-03-10T15:00:33Z</time>
      </trkpt>
      <trkpt lat="33.874134141951799" lon="-5.535648996010423">
        <ele>544.72000000000003</ele>
        <time>2019-03-10T15:00:34Z</time>
      </trkpt>
      <trkpt lat="33.874121401458979" lon="-5.535782771185041">
        <ele>544.72000000000003</ele>
        <time>2019-03-10T15:00:36Z</time>
      </trkpt>
      <trkpt lat="33.874087957665324" lon="-5.53584479726851">
        <ele>544.72000000000003</ele>
        <time>2019-03-10T15:00:37Z</time>
      </trkpt>
      <trkpt lat="33.874030541628599" lon="-5.535885030403733">
        <ele>544.72000000000003</ele>
        <time>2019-03-10T15:00:38Z</time>
      </trkpt>
      <trkpt lat="33.873960301280022" lon="-5.535893412306905">
        <ele>545.20000000000005</ele>
        <time>2019-03-10T15:00:39Z</time>
      </trkpt>
      <trkpt lat="33.873887127265334" lon="-5.535883437842131">
        <ele>545.20000000000005</ele>
        <time>2019-03-10T15:00:40Z</time>
      </trkpt>
      <trkpt lat="33.873813701793551" lon="-5.53587413392961">
        <ele>549.04999999999995</ele>
        <time>2019-03-10T15:00:41Z</time>
      </trkpt>
      <trkpt lat="33.873741449788213" lon="-5.535878157243133">
        <ele>552.40999999999997</ele>
        <time>2019-03-10T15:00:42Z</time>
      </trkpt>
      <trkpt lat="33.873666431754827" lon="-5.535901626572013">
        <ele>557.70000000000005</ele>
        <time>2019-03-10T15:00:43Z</time>
      </trkpt>
      <trkpt lat="33.873586300760508" lon="-5.53594445809722">
        <ele>563.95000000000005</ele>
        <time>2019-03-10T15:00:44Z</time>
      </trkpt>
      <trkpt lat="33.873500386252999" lon="-5.536005813628435">
        <ele>568.27999999999997</ele>
        <time>2019-03-10T15:00:45Z</time>
      </trkpt>
      <trkpt lat="33.872449127957225" lon="-5.53691927343607">
        <ele>568.75999999999999</ele>
        <time>2019-03-10T15:00:56Z</time>
      </trkpt>
      <trkpt lat="33.871365683153272" lon="-5.537905236706138">
        <ele>568.75999999999999</ele>
        <time>2019-03-10T15:01:06Z</time>
      </trkpt>
      <trkpt lat="33.869918631389737" lon="-5.538806123659015">
        <ele>568.75999999999999</ele>
        <time>2019-03-10T15:01:17Z</time>
      </trkpt>
      <trkpt lat="33.868829654529691" lon="-5.538786510005593">
        <ele>569.24000000000001</ele>
        <time>2019-03-10T15:01:25Z</time>
      </trkpt>
      <trkpt lat="33.868109229952097" lon="-5.538431284949184">
        <ele>569.72000000000003</ele>
        <time>2019-03-10T15:01:33Z</time>
      </trkpt>
      <trkpt lat="33.86796816252172" lon="-5.538370599970222">
        <ele>569.72000000000003</ele>
        <time>2019-03-10T15:01:38Z</time>
      </trkpt>
      <trkpt lat="33.867869256064296" lon="-5.538343777880073">
        <ele>569.72000000000003</ele>
        <time>2019-03-10T15:01:43Z</time>
      </trkpt>
      <trkpt lat="33.86781963519752" lon="-5.538342017680407">
        <ele>570.20000000000005</ele>
        <time>2019-03-10T15:01:44Z</time>
      </trkpt>
      <trkpt lat="33.867661636322737" lon="-5.538333300501108">
        <ele>570.20000000000005</ele>
        <time>2019-03-10T15:01:47Z</time>
      </trkpt>
      <trkpt lat="33.867614949122071" lon="-5.53830505348742">
        <ele>570.20000000000005</ele>
        <time>2019-03-10T15:01:48Z</time>
      </trkpt>
      <trkpt lat="33.867547810077667" lon="-5.538057284429669">
        <ele>570.67999999999995</ele>
        <time>2019-03-10T15:01:52Z</time>
      </trkpt>
      <trkpt lat="33.867536997422576" lon="-5.537974638864398">
        <ele>571.15999999999997</ele>
        <time>2019-03-10T15:01:53Z</time>
      </trkpt>
      <trkpt lat="33.867517299950123" lon="-5.537899285554886">
        <ele>575.00999999999999</ele>
        <time>2019-03-10T15:01:54Z</time>
      </trkpt>
      <trkpt lat="33.867489555850625" lon="-5.53782812319696">
        <ele>580.76999999999998</ele>
        <time>2019-03-10T15:01:55Z</time>
      </trkpt>
      <trkpt lat="33.867453765124083" lon="-5.537760648876429">
        <ele>584.62</ele>
        <time>2019-03-10T15:01:56Z</time>
      </trkpt>
      <trkpt lat="33.8674096763134" lon="-5.537695689126849">
        <ele>589.42999999999995</ele>
        <time>2019-03-10T15:01:57Z</time>
      </trkpt>
      <trkpt lat="33.867353266105056" lon="-5.537625951692462">
        <ele>590.87</ele>
        <time>2019-03-10T15:01:58Z</time>
      </trkpt>
      <trkpt lat="33.86661465279758" lon="-5.536760101094842">
        <ele>590.87</ele>
        <time>2019-03-10T15:02:08Z</time>
      </trkpt>
      <trkpt lat="33.865862041711807" lon="-5.535901542752981">
        <ele>590.87</ele>
        <time>2019-03-10T15:02:19Z</time>
      </trkpt>
      <trkpt lat="33.864904996007681" lon="-5.534964362159371">
        <ele>590.87</ele>
        <time>2019-03-10T15:02:31Z</time>
      </trkpt>
      <trkpt lat="33.863821635022759" lon="-5.534130446612835">
        <ele>590.87</ele>
        <time>2019-03-10T15:02:44Z</time>
      </trkpt>
      <trkpt lat="33.86343757621944" lon="-5.533846886828542">
        <ele>590.87</ele>
        <time>2019-03-10T15:02:51Z</time>
      </trkpt>
      <trkpt lat="33.863377645611763" lon="-5.533825093880296">
        <ele>590.87</ele>
        <time>2019-03-10T15:02:52Z</time>
      </trkpt>
      <trkpt lat="33.863315870985389" lon="-5.533810928463936">
        <ele>590.87</ele>
        <time>2019-03-10T15:02:53Z</time>
      </trkpt>
      <trkpt lat="33.863254515454173" lon="-5.533802462741733">
        <ele>590.87</ele>
        <time>2019-03-10T15:02:54Z</time>
      </trkpt>
      <trkpt lat="33.863198691979051" lon="-5.533798271790147">
        <ele>590.38999999999999</ele>
        <time>2019-03-10T15:02:55Z</time>
      </trkpt>
      <trkpt lat="33.86314588598907" lon="-5.53379156626761">
        <ele>589.90999999999997</ele>
        <time>2019-03-10T15:02:56Z</time>
      </trkpt>
      <trkpt lat="33.863097941502929" lon="-5.53377203643322">
        <ele>589.42999999999995</ele>
        <time>2019-03-10T15:02:57Z</time>
      </trkpt>
      <trkpt lat="33.863058043643832" lon="-5.533735491335392">
        <ele>588.95000000000005</ele>
        <time>2019-03-10T15:02:58Z</time>
      </trkpt>
      <trkpt lat="33.863032311201096" lon="-5.533684194087982">
        <ele>588.95000000000005</ele>
        <time>2019-03-10T15:02:59Z</time>
      </trkpt>
      <trkpt lat="33.863021079450846" lon="-5.533617809414864">
        <ele>588.46000000000004</ele>
        <time>2019-03-10T15:03:00Z</time>
      </trkpt>
      <trkpt lat="33.863020157441497" lon="-5.533545641228557">
        <ele>588.46000000000004</ele>
        <time>2019-03-10T15:03:01Z</time>
      </trkpt>
      <trkpt lat="33.863022336736321" lon="-5.533467270433903">
        <ele>587.01999999999998</ele>
        <time>2019-03-10T15:03:02Z</time>
      </trkpt>
      <trkpt lat="33.863017810508609" lon="-5.533389989286661">
        <ele>587.98000000000002</ele>
        <time>2019-03-10T15:03:03Z</time>
      </trkpt>
      <trkpt lat="33.863004399463534" lon="-5.533324023708701">
        <ele>588.46000000000004</ele>
        <time>2019-03-10T15:03:04Z</time>
      </trkpt>
      <trkpt lat="33.862986881285906" lon="-5.533278761431575">
        <ele>590.38999999999999</ele>
        <time>2019-03-10T15:03:05Z</time>
      </trkpt>
      <trkpt lat="33.862974308431149" lon="-5.533251939341426">
        <ele>594.71000000000004</ele>
        <time>2019-03-10T15:03:06Z</time>
      </trkpt>
      <trkpt lat="33.862885879352689" lon="-5.533110871911049">
        <ele>597.60000000000002</ele>
        <time>2019-03-10T15:03:15Z</time>
      </trkpt>
      <trkpt lat="33.862450690940022" lon="-5.532540483400226">
        <ele>604.80999999999995</ele>
        <time>2019-03-10T15:03:24Z</time>
      </trkpt>
      <trkpt lat="33.861980047076941" lon="-5.531938914209604">
        <ele>608.64999999999998</ele>
        <time>2019-03-10T15:03:31Z</time>
      </trkpt>
      <trkpt lat="33.861007243394852" lon="-5.530797382816672">
        <ele>612.5</ele>
        <time>2019-03-10T15:03:41Z</time>
      </trkpt>
      <trkpt lat="33.859917679801583" lon="-5.529965981841087">
        <ele>618.75</ele>
        <time>2019-03-10T15:03:52Z</time>
      </trkpt>
      <trkpt lat="33.858847813680768" lon="-5.529424594715238">
        <ele>621.14999999999998</ele>
        <time>2019-03-10T15:04:02Z</time>
      </trkpt>
      <trkpt lat="33.857266986742616" lon="-5.528620686382055">
        <ele>623.54999999999995</ele>
        <time>2019-03-10T15:04:16Z</time>
      </trkpt>
      <trkpt lat="33.85606124997139" lon="-5.528038982301951">
        <ele>626.44000000000005</ele>
        <time>2019-03-10T15:04:27Z</time>
      </trkpt>
      <trkpt lat="33.854745542630553" lon="-5.527680153027177">
        <ele>627.39999999999998</ele>
        <time>2019-03-10T15:04:38Z</time>
      </trkpt>
      <trkpt lat="33.853456657379866" lon="-5.527296345680952">
        <ele>629.32000000000005</ele>
        <time>2019-03-10T15:04:48Z</time>
      </trkpt>
      <trkpt lat="33.852111026644707" lon="-5.526677090674639">
        <ele>630.27999999999997</ele>
        <time>2019-03-10T15:04:59Z</time>
      </trkpt>
      <trkpt lat="33.850917108356953" lon="-5.526106534525752">
        <ele>631.24000000000001</ele>
        <time>2019-03-10T15:05:12Z</time>
      </trkpt>
      <trkpt lat="33.849943969398737" lon="-5.525640165433288">
        <ele>632.20000000000005</ele>
        <time>2019-03-10T15:05:24Z</time>
      </trkpt>
      <trkpt lat="33.848876701667905" lon="-5.525129623711109">
        <ele>632.20000000000005</ele>
        <time>2019-03-10T15:05:35Z</time>
      </trkpt>
      <trkpt lat="33.847702983766794" lon="-5.524579854682088">
        <ele>632.20000000000005</ele>
        <time>2019-03-10T15:05:46Z</time>
      </trkpt>
      <trkpt lat="33.846774185076356" lon="-5.524139637127519">
        <ele>632.67999999999995</ele>
        <time>2019-03-10T15:05:58Z</time>
      </trkpt>
      <trkpt lat="33.845801129937172" lon="-5.523669915273786">
        <ele>632.67999999999995</ele>
        <time>2019-03-10T15:06:10Z</time>
      </trkpt>
      <trkpt lat="33.845294024795294" lon="-5.523441005498171">
        <ele>632.67999999999995</ele>
        <time>2019-03-10T15:06:19Z</time>
      </trkpt>
      <trkpt lat="33.84509839117527" lon="-5.523378225043416">
        <ele>632.67999999999995</ele>
        <time>2019-03-10T15:06:32Z</time>
      </trkpt>
      <trkpt lat="33.844955982640386" lon="-5.523367747664452">
        <ele>633.16999999999996</ele>
        <time>2019-03-10T15:06:41Z</time>
      </trkpt>
      <trkpt lat="33.844724725931883" lon="-5.523398425430059">
        <ele>633.16999999999996</ele>
        <time>2019-03-10T15:06:47Z</time>
      </trkpt>
      <trkpt lat="33.84466010145843" lon="-5.523393480107188">
        <ele>633.64999999999998</ele>
        <time>2019-03-10T15:06:48Z</time>
      </trkpt>
      <trkpt lat="33.844592794775963" lon="-5.52337009459734">
        <ele>633.64999999999998</ele>
        <time>2019-03-10T15:06:49Z</time>
      </trkpt>
      <trkpt lat="33.844528840854764" lon="-5.523320306092501">
        <ele>634.13</ele>
        <time>2019-03-10T15:06:50Z</time>
      </trkpt>
      <trkpt lat="33.844467736780643" lon="-5.523245539516211">
        <ele>634.13</ele>
        <time>2019-03-10T15:06:51Z</time>
      </trkpt>
      <trkpt lat="33.844410656020045" lon="-5.523162726312876">
        <ele>634.13</ele>
        <time>2019-03-10T15:06:52Z</time>
      </trkpt>
      <trkpt lat="33.844348965212703" lon="-5.523083601146936">
        <ele>635.09000000000003</ele>
        <time>2019-03-10T15:06:53Z</time>
      </trkpt>
      <trkpt lat="33.844279479235411" lon="-5.523011097684503">
        <ele>636.04999999999995</ele>
        <time>2019-03-10T15:06:54Z</time>
      </trkpt>
      <trkpt lat="33.844205047935247" lon="-5.522952424362302">
        <ele>639.40999999999997</ele>
        <time>2019-03-10T15:06:55Z</time>
      </trkpt>
      <trkpt lat="33.844129610806704" lon="-5.522905737161636">
        <ele>642.29999999999995</ele>
        <time>2019-03-10T15:06:56Z</time>
      </trkpt>
      <trkpt lat="33.844057358801365" lon="-5.522865755483508">
        <ele>646.13999999999999</ele>
        <time>2019-03-10T15:06:57Z</time>
      </trkpt>
      <trkpt lat="33.843479845672846" lon="-5.522569622844458">
        <ele>650.47000000000003</ele>
        <time>2019-03-10T15:07:08Z</time>
      </trkpt>
      <trkpt lat="33.842752128839493" lon="-5.522225042805076">
        <ele>651.90999999999997</ele>
        <time>2019-03-10T15:07:18Z</time>
      </trkpt>
      <trkpt lat="33.841258138418198" lon="-5.521502941846848">
        <ele>653.35000000000002</ele>
        <time>2019-03-10T15:07:30Z</time>
      </trkpt>
      <trkpt lat="33.840261194854975" lon="-5.521022994071245">
        <ele>653.35000000000002</ele>
        <time>2019-03-10T15:07:39Z</time>
      </trkpt>
      <trkpt lat="33.838702915236354" lon="-5.52026535384357">
        <ele>653.35000000000002</ele>
        <time>2019-03-10T15:07:50Z</time>
      </trkpt>
      <trkpt lat="33.836979931220412" lon="-5.519230691716075">
        <ele>653.35000000000002</ele>
        <time>2019-03-10T15:08:01Z</time>
      </trkpt>
      <trkpt lat="33.835299611091614" lon="-5.518257971853018">
        <ele>653.35000000000002</ele>
        <time>2019-03-10T15:08:14Z</time>
      </trkpt>
      <trkpt lat="33.834331082180142" lon="-5.51772203296423">
        <ele>653.35000000000002</ele>
        <time>2019-03-10T15:08:25Z</time>
      </trkpt>
      <trkpt lat="33.834047103300691" lon="-5.51761893555522">
        <ele>652.87</ele>
        <time>2019-03-10T15:08:29Z</time>
      </trkpt>
      <trkpt lat="33.833974013105035" lon="-5.517610805109143">
        <ele>653.35000000000002</ele>
        <time>2019-03-10T15:08:30Z</time>
      </trkpt>
      <trkpt lat="33.833832191303372" lon="-5.517607536166906">
        <ele>655.75999999999999</ele>
        <time>2019-03-10T15:08:32Z</time>
      </trkpt>
      <trkpt lat="33.833760609850287" lon="-5.517591694369912">
        <ele>655.75999999999999</ele>
        <time>2019-03-10T15:08:33Z</time>
      </trkpt>
      <trkpt lat="33.833695398643613" lon="-5.517554813995957">
        <ele>657.67999999999995</ele>
        <time>2019-03-10T15:08:34Z</time>
      </trkpt>
      <trkpt lat="33.833635803312063" lon="-5.517501756548882">
        <ele>658.63999999999999</ele>
        <time>2019-03-10T15:08:35Z</time>
      </trkpt>
      <trkpt lat="33.833574363961816" lon="-5.517441909760237">
        <ele>659.60000000000002</ele>
        <time>2019-03-10T15:08:36Z</time>
      </trkpt>
      <trkpt lat="33.832889227196574" lon="-5.516926003620029">
        <ele>652.87</ele>
        <time>2019-03-10T15:08:43Z</time>
      </trkpt>
      <trkpt lat="33.832772383466363" lon="-5.516810836270452">
        <ele>649.99000000000001</ele>
        <time>2019-03-10T15:08:44Z</time>
      </trkpt>
      <trkpt lat="33.831705367192626" lon="-5.515899723395705">
        <ele>647.59000000000003</ele>
        <time>2019-03-10T15:08:52Z</time>
      </trkpt>
      <trkpt lat="33.830155720934272" lon="-5.515387672930956">
        <ele>642.29999999999995</ele>
        <time>2019-03-10T15:09:01Z</time>
      </trkpt>
      <trkpt lat="33.828416727483273" lon="-5.51506002433598">
        <ele>640.86000000000001</ele>
        <time>2019-03-10T15:09:12Z</time>
      </trkpt>
      <trkpt lat="33.826140873134136" lon="-5.514499694108963">
        <ele>643.25999999999999</ele>
        <time>2019-03-10T15:18:38Z</time>
      </trkpt>
      <trkpt lat="33.823607610538602" lon="-5.513688242062926">
        <ele>649.99000000000001</ele>
        <time>2019-03-10T15:18:55Z</time>
      </trkpt>
      <trkpt lat="33.823167979717255" lon="-5.513550778850913">
        <ele>651.90999999999997</ele>
        <time>2019-03-10T15:19:07Z</time>
      </trkpt>
      <trkpt lat="33.821304347366095" lon="-5.512522822245956">
        <ele>651.90999999999997</ele>
        <time>2019-03-10T15:19:20Z</time>
      </trkpt>
      <trkpt lat="33.819873807951808" lon="-5.512226019054651">
        <ele>651.90999999999997</ele>
        <time>2019-03-10T15:19:31Z</time>
      </trkpt>
      <trkpt lat="33.81813682615757" lon="-5.511901890859008">
        <ele>653.83000000000004</ele>
        <time>2019-03-10T15:19:45Z</time>
      </trkpt>
      <trkpt lat="33.816672759130597" lon="-5.511125810444355">
        <ele>657.20000000000005</ele>
        <time>2019-03-10T15:20:01Z</time>
      </trkpt>
      <trkpt lat="33.814880037680268" lon="-5.510011184960604">
        <ele>656.24000000000001</ele>
        <time>2019-03-10T15:20:12Z</time>
      </trkpt>
      <trkpt lat="33.812862010672688" lon="-5.508813578635454">
        <ele>656.24000000000001</ele>
        <time>2019-03-10T15:20:14Z</time>
      </trkpt>
      <trkpt lat="33.811738835647702" lon="-5.508355004712939">
        <ele>662.49000000000001</ele>
        <time>2019-03-10T15:20:15Z</time>
      </trkpt>
      <trkpt lat="33.811554936692119" lon="-5.508296079933643">
        <ele>664.88999999999999</ele>
        <time>2019-03-10T15:20:22Z</time>
      </trkpt>
      <trkpt lat="33.811466842889786" lon="-5.508244698867202">
        <ele>664.88999999999999</ele>
        <time>2019-03-10T15:20:32Z</time>
      </trkpt>
      <trkpt lat="33.81069352850318" lon="-5.50782535225153">
        <ele>664.88999999999999</ele>
        <time>2019-03-10T15:20:48Z</time>
      </trkpt>
      <trkpt lat="33.809221750125289" lon="-5.507192434743047">
        <ele>664.88999999999999</ele>
        <time>2019-03-10T15:21:00Z</time>
      </trkpt>
      <trkpt lat="33.806784125044942" lon="-5.5060706846416">
        <ele>664.88999999999999</ele>
        <time>2019-03-10T15:21:22Z</time>
      </trkpt>
      <trkpt lat="33.805251410230994" lon="-5.504952622577548">
        <ele>664.88999999999999</ele>
        <time>2019-03-10T15:21:33Z</time>
      </trkpt>
      <trkpt lat="33.80242352373898" lon="-5.50281741656363">
        <ele>664.88999999999999</ele>
        <time>2019-03-10T15:21:34Z</time>
      </trkpt>
      <trkpt lat="33.801171015948057" lon="-5.501847378909588">
        <ele>664.88999999999999</ele>
        <time>2019-03-10T15:21:35Z</time>
      </trkpt>
      <trkpt lat="33.801069427281618" lon="-5.501787448301911">
        <ele>664.40999999999997</ele>
        <time>2019-03-10T15:21:36Z</time>
      </trkpt>
      <trkpt lat="33.800964988768101" lon="-5.501743946224451">
        <ele>663.92999999999995</ele>
        <time>2019-03-10T15:21:37Z</time>
      </trkpt>
      <trkpt lat="33.800867423415184" lon="-5.501706060022116">
        <ele>663.45000000000005</ele>
        <time>2019-03-10T15:21:38Z</time>
      </trkpt>
      <trkpt lat="33.800786789506674" lon="-5.501656271517277">
        <ele>663.45000000000005</ele>
        <time>2019-03-10T15:21:39Z</time>
      </trkpt>
      <trkpt lat="33.800724763423204" lon="-5.501581504940987">
        <ele>661.51999999999998</ele>
        <time>2019-03-10T15:21:40Z</time>
      </trkpt>
      <trkpt lat="33.800683273002505" lon="-5.501483352854848">
        <ele>663.45000000000005</ele>
        <time>2019-03-10T15:21:41Z</time>
      </trkpt>
      <trkpt lat="33.800654020160437" lon="-5.501371119171381">
        <ele>671.13999999999999</ele>
        <time>2019-03-10T15:21:42Z</time>
      </trkpt>
      <trkpt lat="33.800622085109353" lon="-5.501251090317965">
        <ele>686.51999999999998</ele>
        <time>2019-03-10T15:21:43Z</time>
      </trkpt>
      <trkpt lat="33.800582773983479" lon="-5.501128882169724">
        <ele>687.96000000000004</ele>
        <time>2019-03-10T15:21:44Z</time>
      </trkpt>
      <trkpt lat="33.800532566383481" lon="-5.501002818346024">
        <ele>688.44000000000005</ele>
        <time>2019-03-10T15:21:54Z</time>
      </trkpt>
      <trkpt lat="33.800475904718041" lon="-5.50087264738977">
        <ele>692.76999999999998</ele>
        <time>2019-03-10T15:22:04Z</time>
      </trkpt>
      <trkpt lat="33.799894787371159" lon="-5.499260723590851">
        <ele>695.64999999999998</ele>
        <time>2019-03-10T15:22:12Z</time>
      </trkpt>
      <trkpt lat="33.799144104123116" lon="-5.497537320479751">
        <ele>696.61000000000001</ele>
        <time>2019-03-10T15:22:28Z</time>
      </trkpt>
      <trkpt lat="33.798071891069412" lon="-5.496546579524875">
        <ele>699.01999999999998</ele>
        <time>2019-03-10T15:22:43Z</time>
      </trkpt>
      <trkpt lat="33.795635690912604" lon="-5.494984276592732">
        <ele>700.94000000000005</ele>
        <time>2019-03-10T15:22:55Z</time>
      </trkpt>
      <trkpt lat="33.792942753061652" lon="-5.493975766003132">
        <ele>705.25999999999999</ele>
        <time>2019-03-10T15:23:11Z</time>
      </trkpt>
      <trkpt lat="33.790978621691465" lon="-5.493242600932717">
        <ele>709.11000000000001</ele>
        <time>2019-03-10T15:23:22Z</time>
      </trkpt>
      <trkpt lat="33.788487855345011" lon="-5.492324782535434">
        <ele>711.50999999999999</ele>
        <time>2019-03-10T15:23:37Z</time>
      </trkpt>
      <trkpt lat="33.786884984001517" lon="-5.491939382627606">
        <ele>717.27999999999997</ele>
        <time>2019-03-10T15:23:46Z</time>
      </trkpt>
      <trkpt lat="33.78490568138659" lon="-5.491560352966189">
        <ele>719.67999999999995</ele>
        <time>2019-03-10T15:23:55Z</time>
      </trkpt>
      <trkpt lat="33.783543203026056" lon="-5.491235805675387">
        <ele>720.15999999999997</ele>
        <time>2019-03-10T15:24:11Z</time>
      </trkpt>
      <trkpt lat="33.782133115455508" lon="-5.490993652492762">
        <ele>721.13</ele>
        <time>2019-03-10T15:24:24Z</time>
      </trkpt>
      <trkpt lat="33.780298065394163" lon="-5.490800198167563">
        <ele>721.13</ele>
        <time>2019-03-10T15:24:41Z</time>
      </trkpt>
      <trkpt lat="33.778400821611285" lon="-5.490656867623329">
        <ele>719.20000000000005</ele>
        <time>2019-03-10T15:24:59Z</time>
      </trkpt>
      <trkpt lat="33.77555675804615" lon="-5.490479003638029">
        <ele>717.75999999999999</ele>
        <time>2019-03-10T15:25:11Z</time>
      </trkpt>
      <trkpt lat="33.772419495508075" lon="-5.49019175581634">
        <ele>717.27999999999997</ele>
        <time>2019-03-10T15:25:21Z</time>
      </trkpt>
      <trkpt lat="33.770386967808008" lon="-5.489690266549587">
        <ele>717.27999999999997</ele>
        <time>2019-03-10T15:25:32Z</time>
      </trkpt>
      <trkpt lat="33.768840506672859" lon="-5.488626854494214">
        <ele>718.24000000000001</ele>
        <time>2019-03-10T15:25:42Z</time>
      </trkpt>
      <trkpt lat="33.767406614497304" lon="-5.487627312541008">
        <ele>718.72000000000003</ele>
        <time>2019-03-10T15:25:54Z</time>
      </trkpt>
      <trkpt lat="33.766216300427914" lon="-5.487132528796792">
        <ele>719.20000000000005</ele>
        <time>2019-03-10T15:26:07Z</time>
      </trkpt>
      <trkpt lat="33.764700936153531" lon="-5.486672110855579">
        <ele>718.24000000000001</ele>
        <time>2019-03-10T15:26:17Z</time>
      </trkpt>
      <trkpt lat="33.762991866096854" lon="-5.486210100352764">
        <ele>718.24000000000001</ele>
        <time>2019-03-10T15:26:28Z</time>
      </trkpt>
      <trkpt lat="33.762074802070856" lon="-5.486019076779485">
        <ele>717.75999999999999</ele>
        <time>2019-03-10T15:26:36Z</time>
      </trkpt>
      <trkpt lat="33.761236276477575" lon="-5.4858473315835">
        <ele>716.79999999999995</ele>
        <time>2019-03-10T15:26:47Z</time>
      </trkpt>
      <trkpt lat="33.761062519624829" lon="-5.485808104276657">
        <ele>721.13</ele>
        <time>2019-03-10T15:26:59Z</time>
      </trkpt>
      <trkpt lat="33.760633450001478" lon="-5.485722022131085">
        <ele>728.34000000000003</ele>
        <time>2019-03-10T15:27:12Z</time>
      </trkpt>
      <trkpt lat="33.759795930236578" lon="-5.485562011599541">
        <ele>736.02999999999997</ele>
        <time>2019-03-10T15:27:23Z</time>
      </trkpt>
      <trkpt lat="33.758813068270683" lon="-5.485378531739116">
        <ele>736.99000000000001</ele>
        <time>2019-03-10T15:27:33Z</time>
      </trkpt>
      <trkpt lat="33.758094320073724" lon="-5.485221957787871">
        <ele>733.62</ele>
        <time>2019-03-10T15:27:46Z</time>
      </trkpt>
      <trkpt lat="33.758051404729486" lon="-5.485207457095385">
        <ele>729.29999999999995</ele>
        <time>2019-03-10T15:28:00Z</time>
      </trkpt>
      <trkpt lat="33.757798355072737" lon="-5.48515104688704">
        <ele>728.34000000000003</ele>
        <time>2019-03-10T15:28:12Z</time>
      </trkpt>
      <trkpt lat="33.756725387647748" lon="-5.484949294477701">
        <ele>728.34000000000003</ele>
        <time>2019-03-10T15:28:28Z</time>
      </trkpt>
      <trkpt lat="33.75549266114831" lon="-5.484714098274708">
        <ele>727.37</ele>
        <time>2019-03-10T15:28:38Z</time>
      </trkpt>
      <trkpt lat="33.753716535866261" lon="-5.484358789399266">
        <ele>727.37</ele>
        <time>2019-03-10T15:28:49Z</time>
      </trkpt>
      <trkpt lat="33.752445252612233" lon="-5.483796028420329">
        <ele>727.37</ele>
        <time>2019-03-10T15:29:01Z</time>
      </trkpt>
      <trkpt lat="33.751226775348186" lon="-5.482736807316542">
        <ele>726.88999999999999</ele>
        <time>2019-03-10T15:29:03Z</time>
      </trkpt>
      <trkpt lat="33.750117346644402" lon="-5.481699630618095">
        <ele>726.88999999999999</ele>
        <time>2019-03-10T15:29:04Z</time>
      </trkpt>
      <trkpt lat="33.749962197616696" lon="-5.481599885970354">
        <ele>726.88999999999999</ele>
        <time>2019-03-10T15:29:07Z</time>
      </trkpt>
      <trkpt lat="33.749881898984313" lon="-5.481560155749321">
        <ele>726.40999999999997</ele>
        <time>2019-03-10T15:29:08Z</time>
      </trkpt>
      <trkpt lat="33.749667406082153" lon="-5.481466697528958">
        <ele>726.40999999999997</ele>
        <time>2019-03-10T15:29:09Z</time>
      </trkpt>
      <trkpt lat="33.749617701396346" lon="-5.481430068612099">
        <ele>726.40999999999997</ele>
        <time>2019-03-10T15:29:10Z</time>
      </trkpt>
      <trkpt lat="33.749580150470138" lon="-5.481387656182051">
        <ele>726.88999999999999</ele>
        <time>2019-03-10T15:29:11Z</time>
      </trkpt>
      <trkpt lat="33.74955047853291" lon="-5.481336945667863">
        <ele>726.88999999999999</ele>
        <time>2019-03-10T15:29:12Z</time>
      </trkpt>
      <trkpt lat="33.74952357262373" lon="-5.481278439983726">
        <ele>726.88999999999999</ele>
        <time>2019-03-10T15:29:13Z</time>
      </trkpt>
      <trkpt lat="33.749498929828405" lon="-5.481210965663195">
        <ele>730.25999999999999</ele>
        <time>2019-03-10T15:29:14Z</time>
      </trkpt>
      <trkpt lat="33.749474203214049" lon="-5.481133265420795">
        <ele>734.10000000000002</ele>
        <time>2019-03-10T15:29:15Z</time>
      </trkpt>
      <trkpt lat="33.749441597610712" lon="-5.481049781665206">
        <ele>738.42999999999995</ele>
        <time>2019-03-10T15:29:16Z</time>
      </trkpt>
      <trkpt lat="33.74939457513392" lon="-5.480967219918966">
        <ele>745.63999999999999</ele>
        <time>2019-03-10T15:29:17Z</time>
      </trkpt>
      <trkpt lat="33.749331207945943" lon="-5.480886418372393">
        <ele>749.97000000000003</ele>
        <time>2019-03-10T15:29:18Z</time>
      </trkpt>
      <trkpt lat="33.749255519360304" lon="-5.480805868282914">
        <ele>757.65999999999997</ele>
        <time>2019-03-10T15:29:31Z</time>
      </trkpt>
      <trkpt lat="33.749169856309891" lon="-5.480720791965723">
        <ele>762.46000000000004</ele>
        <time>2019-03-10T15:29:47Z</time>
      </trkpt>
      <trkpt lat="33.74786127358675" lon="-5.479401731863618">
        <ele>764.38999999999999</ele>
        <time>2019-03-10T15:30:03Z</time>
      </trkpt>
      <trkpt lat="33.74623216688633" lon="-5.477749323472381">
        <ele>760.53999999999996</ele>
        <time>2019-03-10T15:30:19Z</time>
      </trkpt>
      <trkpt lat="33.74441253952682" lon="-5.476154582574964">
        <ele>757.65999999999997</ele>
        <time>2019-03-10T15:30:32Z</time>
      </trkpt>
      <trkpt lat="33.742188736796379" lon="-5.474769724532962">
        <ele>757.65999999999997</ele>
        <time>2019-03-10T15:30:47Z</time>
      </trkpt>
      <trkpt lat="33.740077251568437" lon="-5.473868083208799">
        <ele>757.17999999999995</ele>
        <time>2019-03-10T15:30:57Z</time>
      </trkpt>
      <trkpt lat="33.737300829961896" lon="-5.472744572907686">
        <ele>756.69000000000005</ele>
        <time>2019-03-10T15:31:08Z</time>
      </trkpt>
      <trkpt lat="33.735515819862485" lon="-5.471738241612911">
        <ele>756.21000000000004</ele>
        <time>2019-03-10T15:31:18Z</time>
      </trkpt>
      <trkpt lat="33.733687056228518" lon="-5.470386492088437">
        <ele>755.73000000000002</ele>
        <time>2019-03-10T15:31:31Z</time>
      </trkpt>
      <trkpt lat="33.732629762962461" lon="-5.469565317034721">
        <ele>755.25</ele>
        <time>2019-03-10T15:31:32Z</time>
      </trkpt>
      <trkpt lat="33.731643632054329" lon="-5.468695359304547">
        <ele>754.76999999999998</ele>
        <time>2019-03-10T15:31:34Z</time>
      </trkpt>
      <trkpt lat="33.731558555737138" lon="-5.46865395270288">
        <ele>754.28999999999996</ele>
        <time>2019-03-10T15:31:35Z</time>
      </trkpt>
      <trkpt lat="33.731387229636312" lon="-5.468586646020412">
        <ele>753.80999999999995</ele>
        <time>2019-03-10T15:31:36Z</time>
      </trkpt>
      <trkpt lat="33.731308272108436" lon="-5.468532331287861">
        <ele>753.80999999999995</ele>
        <time>2019-03-10T15:31:37Z</time>
      </trkpt>
      <trkpt lat="33.73124155215919" lon="-5.468451697379351">
        <ele>753.80999999999995</ele>
        <time>2019-03-10T15:31:38Z</time>
      </trkpt>
      <trkpt lat="33.731192098930478" lon="-5.468345917761326">
        <ele>755.73000000000002</ele>
        <time>2019-03-10T15:31:39Z</time>
      </trkpt>
      <trkpt lat="33.731149015948176" lon="-5.468227565288544">
        <ele>773.03999999999996</ele>
        <time>2019-03-10T15:31:40Z</time>
      </trkpt>
      <trkpt lat="33.731095204129815" lon="-5.468105776235461">
        <ele>777.84000000000003</ele>
        <time>2019-03-10T15:31:41Z</time>
      </trkpt>
      <trkpt lat="33.731025634333491" lon="-5.467987088486552">
        <ele>776.39999999999998</ele>
        <time>2019-03-10T15:31:42Z</time>
      </trkpt>
      <trkpt lat="33.730942653492093" lon="-5.467873346060515">
        <ele>778.32000000000005</ele>
        <time>2019-03-10T15:31:43Z</time>
      </trkpt>
      <trkpt lat="33.730849530547857" lon="-5.467763962224126">
        <ele>785.04999999999995</ele>
        <time>2019-03-10T15:31:54Z</time>
      </trkpt>
      <trkpt lat="33.730749702081084" lon="-5.467656087130308">
        <ele>785.04999999999995</ele>
        <time>2019-03-10T15:32:11Z</time>
      </trkpt>
      <trkpt lat="33.7294917460531" lon="-5.466249771416187">
        <ele>786.98000000000002</ele>
        <time>2019-03-10T15:32:22Z</time>
      </trkpt>
      <trkpt lat="33.727521663531661" lon="-5.464021358639002">
        <ele>793.71000000000004</ele>
        <time>2019-03-10T15:32:38Z</time>
      </trkpt>
      <trkpt lat="33.726099422201514" lon="-5.462361574172974">
        <ele>796.11000000000001</ele>
        <time>2019-03-10T15:33:00Z</time>
      </trkpt>
      <trkpt lat="33.723817700520158" lon="-5.459820851683617">
        <ele>798.02999999999997</ele>
        <time>2019-03-10T15:33:16Z</time>
      </trkpt>
      <trkpt lat="33.72066861949861" lon="-5.456270026043057">
        <ele>799.95000000000005</ele>
        <time>2019-03-10T15:33:26Z</time>
      </trkpt>
      <trkpt lat="33.718495275825262" lon="-5.453656883910298">
        <ele>801.88</ele>
        <time>2019-03-10T15:33:41Z</time>
      </trkpt>
      <trkpt lat="33.7176264077425" lon="-5.451754359528422">
        <ele>801.88</ele>
        <time>2019-03-10T15:34:00Z</time>
      </trkpt>
      <trkpt lat="33.716377420350909" lon="-5.448830500245094">
        <ele>797.54999999999995</ele>
        <time>2019-03-10T15:34:12Z</time>
      </trkpt>
      <trkpt lat="33.714647479355335" lon="-5.444857310503721">
        <ele>796.11000000000001</ele>
        <time>2019-03-10T15:34:30Z</time>
      </trkpt>
      <trkpt lat="33.713263627141714" lon="-5.442268643528223">
        <ele>795.63</ele>
        <time>2019-03-10T15:34:48Z</time>
      </trkpt>
      <trkpt lat="33.711173851042986" lon="-5.438333172351122">
        <ele>798.99000000000001</ele>
        <time>2019-03-10T15:35:02Z</time>
      </trkpt>
      <trkpt lat="33.709209803491831" lon="-5.434308433905244">
        <ele>790.34000000000003</ele>
        <time>2019-03-10T15:35:09Z</time>
      </trkpt>
      <trkpt lat="33.707793094217777" lon="-5.431168489158154">
        <ele>796.11000000000001</ele>
        <time>2019-03-10T15:35:21Z</time>
      </trkpt>
      <trkpt lat="33.707539876922965" lon="-5.429416922852397">
        <ele>803.32000000000005</ele>
        <time>2019-03-10T15:35:28Z</time>
      </trkpt>
      <trkpt lat="33.707313062623143" lon="-5.426329616457224">
        <ele>809.09000000000003</ele>
        <time>2019-03-10T15:35:37Z</time>
      </trkpt>
      <trkpt lat="33.706897990778089" lon="-5.424997229129076">
        <ele>816.77999999999997</ele>
        <time>2019-03-10T15:35:51Z</time>
      </trkpt>
      <trkpt lat="33.70597941800952" lon="-5.423301737755537">
        <ele>828.30999999999995</ele>
        <time>2019-03-10T15:36:09Z</time>
      </trkpt>
      <trkpt lat="33.704312508925796" lon="-5.42047762311995">
        <ele>839.37</ele>
        <time>2019-03-10T15:36:21Z</time>
      </trkpt>
      <trkpt lat="33.702257098630071" lon="-5.417037522420287">
        <ele>847.05999999999995</ele>
        <time>2019-03-10T15:36:40Z</time>
      </trkpt>
      <trkpt lat="33.701133672147989" lon="-5.415150001645088">
        <ele>848.01999999999998</ele>
        <time>2019-03-10T15:36:59Z</time>
      </trkpt>
      <trkpt lat="33.69962140917778" lon="-5.412597628310323">
        <ele>848.5</ele>
        <time>2019-03-10T15:37:19Z</time>
      </trkpt>
      <trkpt lat="33.698219954967499" lon="-5.410225382074714">
        <ele>848.98000000000002</ele>
        <time>2019-03-10T15:37:44Z</time>
      </trkpt>
      <trkpt lat="33.696702998131514" lon="-5.407668231055141">
        <ele>848.98000000000002</ele>
        <time>2019-03-10T15:38:04Z</time>
      </trkpt>
      <trkpt lat="33.6946901679039" lon="-5.404305662959814">
        <ele>849.46000000000004</ele>
        <time>2019-03-10T15:38:15Z</time>
      </trkpt>
      <trkpt lat="33.692891327664256" lon="-5.40164147503674">
        <ele>849.94000000000005</ele>
        <time>2019-03-10T15:38:17Z</time>
      </trkpt>
      <trkpt lat="33.692014329135418" lon="-5.400399612262845">
        <ele>850.41999999999996</ele>
        <time>2019-03-10T15:38:18Z</time>
      </trkpt>
      <trkpt lat="33.691882146522403" lon="-5.400268267840147">
        <ele>850.89999999999998</ele>
        <time>2019-03-10T15:38:19Z</time>
      </trkpt>
      <trkpt lat="33.691808888688684" lon="-5.400224262848496">
        <ele>851.38</ele>
        <time>2019-03-10T15:38:20Z</time>
      </trkpt>
      <trkpt lat="33.69173445738852" lon="-5.400190316140652">
        <ele>851.87</ele>
        <time>2019-03-10T15:38:21Z</time>
      </trkpt>
      <trkpt lat="33.691662037745118" lon="-5.400153687223792">
        <ele>852.35000000000002</ele>
        <time>2019-03-10T15:38:22Z</time>
      </trkpt>
      <trkpt lat="33.691596994176507" lon="-5.400098701938987">
        <ele>857.14999999999998</ele>
        <time>2019-03-10T15:38:23Z</time>
      </trkpt>
      <trkpt lat="33.691548714414239" lon="-5.400017984211445">
        <ele>865.79999999999995</ele>
        <time>2019-03-10T15:38:24Z</time>
      </trkpt>
      <trkpt lat="33.691521808505058" lon="-5.399916898459196">
        <ele>869.64999999999998</ele>
        <time>2019-03-10T15:38:25Z</time>
      </trkpt>
      <trkpt lat="33.691507140174508" lon="-5.399802317842841">
        <ele>887.42999999999995</ele>
        <time>2019-03-10T15:38:26Z</time>
      </trkpt>
      <trkpt lat="33.691487023606896" lon="-5.399682121351361">
        <ele>896.57000000000005</ele>
        <time>2019-03-10T15:38:27Z</time>
      </trkpt>
      <trkpt lat="33.691453579813242" lon="-5.399560332298279">
        <ele>904.25999999999999</ele>
        <time>2019-03-10T15:38:35Z</time>
      </trkpt>
      <trkpt lat="33.691403707489371" lon="-5.399437369778752">
        <ele>905.22000000000003</ele>
        <time>2019-03-10T15:38:49Z</time>
      </trkpt>
      <trkpt lat="33.690932979807258" lon="-5.39829189889133">
        <ele>906.17999999999995</ele>
        <time>2019-03-10T15:38:58Z</time>
      </trkpt>
      <trkpt lat="33.690307438373566" lon="-5.395846394822002">
        <ele>907.13999999999999</ele>
        <time>2019-03-10T15:39:16Z</time>
      </trkpt>
      <trkpt lat="33.690371224656701" lon="-5.394102036952972">
        <ele>908.10000000000002</ele>
        <time>2019-03-10T15:39:30Z</time>
      </trkpt>
      <trkpt lat="33.690951587632298" lon="-5.390508128330112">
        <ele>909.05999999999995</ele>
        <time>2019-03-10T15:39:40Z</time>
      </trkpt>
      <trkpt lat="33.691585762426257" lon="-5.387392323464155">
        <ele>912.42999999999995</ele>
        <time>2019-03-10T15:39:41Z</time>
      </trkpt>
      <trkpt lat="33.692070487886667" lon="-5.385364908725023">
        <ele>913.87</ele>
        <time>2019-03-10T15:39:42Z</time>
      </trkpt>
      <trkpt lat="33.692145841196179" lon="-5.385196432471275">
        <ele>914.83000000000004</ele>
        <time>2019-03-10T15:39:43Z</time>
      </trkpt>
      <trkpt lat="33.692235946655273" lon="-5.385035667568445">
        <ele>920.60000000000002</ele>
        <time>2019-03-10T15:39:44Z</time>
      </trkpt>
      <trkpt lat="33.692340468987823" lon="-5.384882614016533">
        <ele>922.03999999999996</ele>
        <time>2019-03-10T15:39:45Z</time>
      </trkpt>
      <trkpt lat="33.692455887794495" lon="-5.384737523272634">
        <ele>923.48000000000002</ele>
        <time>2019-03-10T15:39:48Z</time>
      </trkpt>
      <trkpt lat="33.692579939961433" lon="-5.384599724784493">
        <ele>924.45000000000005</ele>
        <time>2019-03-10T15:39:49Z</time>
      </trkpt>
      <trkpt lat="33.692931728437543" lon="-5.384162105619907">
        <ele>925.88999999999999</ele>
        <time>2019-03-10T15:39:50Z</time>
      </trkpt>
      <trkpt lat="33.693026946857572" lon="-5.383997233584523">
        <ele>926.85000000000002</ele>
        <time>2019-03-10T15:39:55Z</time>
      </trkpt>
      <trkpt lat="33.69311629794538" lon="-5.38382506929338">
        <ele>927.80999999999995</ele>
        <time>2019-03-10T15:39:56Z</time>
      </trkpt>
      <trkpt lat="33.693446628749371" lon="-5.382973216474056">
        <ele>932.13999999999999</ele>
        <time>2019-03-10T15:39:57Z</time>
      </trkpt>
      <trkpt lat="33.693479737266898" lon="-5.382798202335835">
        <ele>934.53999999999996</ele>
        <time>2019-03-10T15:39:58Z</time>
      </trkpt>
      <trkpt lat="33.69349742308259" lon="-5.382627379149199">
        <ele>935.01999999999998</ele>
        <time>2019-03-10T15:39:59Z</time>
      </trkpt>
      <trkpt lat="33.693501278758049" lon="-5.382458567619324">
        <ele>937.89999999999998</ele>
        <time>2019-03-10T15:40:00Z</time>
      </trkpt>
      <trkpt lat="33.693496584892273" lon="-5.382293108850718">
        <ele>938.38</ele>
        <time>2019-03-10T15:40:01Z</time>
      </trkpt>
      <trkpt lat="33.693484682589769" lon="-5.382129745557904">
        <ele>939.35000000000002</ele>
        <time>2019-03-10T15:40:05Z</time>
      </trkpt>
      <trkpt lat="33.693466996774077" lon="-5.381964622065425">
        <ele>939.83000000000004</ele>
        <time>2019-03-10T15:40:08Z</time>
      </trkpt>
      <trkpt lat="33.693362139165401" lon="-5.381356347352266">
        <ele>941.26999999999998</ele>
        <time>2019-03-10T15:40:09Z</time>
      </trkpt>
      <trkpt lat="33.69323842227459" lon="-5.381042193621397">
        <ele>942.23000000000002</ele>
        <time>2019-03-10T15:40:12Z</time>
      </trkpt>
      <trkpt lat="33.693182934075594" lon="-5.380956111475825">
        <ele>943.66999999999996</ele>
        <time>2019-03-10T15:40:13Z</time>
      </trkpt>
      <trkpt lat="33.692980259656906" lon="-5.38070029579103">
        <ele>957.61000000000001</ele>
        <time>2019-03-10T15:40:14Z</time>
      </trkpt>
      <trkpt lat="33.692891914397478" lon="-5.380622008815408">
        <ele>970.59000000000003</ele>
        <time>2019-03-10T15:40:15Z</time>
      </trkpt>
      <trkpt lat="33.69279426522553" lon="-5.380545817315579">
        <ele>972.02999999999997</ele>
        <time>2019-03-10T15:40:16Z</time>
      </trkpt>
      <trkpt lat="33.69268286973238" lon="-5.380482282489538">
        <ele>973.47000000000003</ele>
        <time>2019-03-10T15:40:17Z</time>
      </trkpt>
      <trkpt lat="33.692559823393822" lon="-5.380431739613414">
        <ele>974.90999999999997</ele>
        <time>2019-03-10T15:40:18Z</time>
      </trkpt>
      <trkpt lat="33.69242537766695" lon="-5.380390584468842">
        <ele>976.36000000000001</ele>
        <time>2019-03-10T15:40:29Z</time>
      </trkpt>
      <trkpt lat="33.692284896969795" lon="-5.380355045199394">
        <ele>977.79999999999995</ele>
        <time>2019-03-10T15:40:41Z</time>
      </trkpt>
      <trkpt lat="33.690727455541492" lon="-5.379823297262192">
        <ele>979.24000000000001</ele>
        <time>2019-03-10T15:40:42Z</time>
      </trkpt>
      <trkpt lat="33.689143862575293" lon="-5.378756951540709">
        <ele>980.67999999999995</ele>
        <time>2019-03-10T15:40:43Z</time>
      </trkpt>
      <trkpt lat="33.689040178433061" lon="-5.378624768927693">
        <ele>982.12</ele>
        <time>2019-03-10T15:40:44Z</time>
      </trkpt>
      <trkpt lat="33.688951078802347" lon="-5.378476409241557">
        <ele>983.57000000000005</ele>
        <time>2019-03-10T15:40:45Z</time>
      </trkpt>
      <trkpt lat="33.68887647986412" lon="-5.378317655995488">
        <ele>984.52999999999997</ele>
        <time>2019-03-10T15:40:46Z</time>
      </trkpt>
      <trkpt lat="33.68881780654192" lon="-5.378148844465613">
        <ele>985.49000000000001</ele>
        <time>2019-03-10T15:40:47Z</time>
      </trkpt>
      <trkpt lat="33.688773298636079" lon="-5.377978188917041">
        <ele>986.45000000000005</ele>
        <time>2019-03-10T15:40:48Z</time>
      </trkpt>
      <trkpt lat="33.688739435747266" lon="-5.377805689349771">
        <ele>986.92999999999995</ele>
        <time>2019-03-10T15:40:49Z</time>
      </trkpt>
      <trkpt lat="33.688714122399688" lon="-5.377634279429913">
        <ele>990.77999999999997</ele>
        <time>2019-03-10T15:40:50Z</time>
      </trkpt>
      <trkpt lat="33.688699789345264" lon="-5.377468401566148">
        <ele>991.74000000000001</ele>
        <time>2019-03-10T15:40:51Z</time>
      </trkpt>
      <trkpt lat="33.688698951154947" lon="-5.377306714653969">
        <ele>992.70000000000005</ele>
        <time>2019-03-10T15:40:52Z</time>
      </trkpt>
      <trkpt lat="33.688714541494846" lon="-5.377147123217583">
        <ele>999.90999999999997</ele>
        <time>2019-03-10T15:40:53Z</time>
      </trkpt>
      <trkpt lat="33.688743878155947" lon="-5.376989208161831">
        <ele>1000.39</ele>
        <time>2019-03-10T15:40:54Z</time>
      </trkpt>
      <trkpt lat="33.688789391890168" lon="-5.37683523260057">
        <ele>1001.35</ele>
        <time>2019-03-10T15:40:59Z</time>
      </trkpt>
      <trkpt lat="33.688845131546259" lon="-5.376684861257672">
        <ele>1001.83</ele>
        <time>2019-03-10T15:41:00Z</time>
      </trkpt>
      <trkpt lat="33.689087117090821" lon="-5.375994862988591">
        <ele>1002.79</ele>
        <time>2019-03-10T15:41:01Z</time>
      </trkpt>
      <trkpt lat="33.689108993858099" lon="-5.375855304300785">
        <ele>1003.75</ele>
        <time>2019-03-10T15:41:13Z</time>
      </trkpt>
      <trkpt lat="33.689120225608349" lon="-5.37571826018393">
        <ele>1010.48</ele>
        <time>2019-03-10T15:41:14Z</time>
      </trkpt>
      <trkpt lat="33.689075130969286" lon="-5.374082447960973">
        <ele>1011.4400000000001</ele>
        <time>2019-03-10T15:41:15Z</time>
      </trkpt>
      <trkpt lat="33.689044453203678" lon="-5.373935094103217">
        <ele>1012.41</ele>
        <time>2019-03-10T15:41:16Z</time>
      </trkpt>
      <trkpt lat="33.689001789316535" lon="-5.373792937025428">
        <ele>1016.25</ele>
        <time>2019-03-10T15:41:17Z</time>
      </trkpt>
      <trkpt lat="33.688949570059776" lon="-5.373655389994383">
        <ele>1017.21</ele>
        <time>2019-03-10T15:41:18Z</time>
      </trkpt>
      <trkpt lat="33.688889220356941" lon="-5.373519770801067">
        <ele>1018.17</ele>
        <time>2019-03-10T15:41:27Z</time>
      </trkpt>
      <trkpt lat="33.688825350254774" lon="-5.37338993512094">
        <ele>1018.65</ele>
        <time>2019-03-10T15:41:28Z</time>
      </trkpt>
      <trkpt lat="33.688305420801044" lon="-5.372263742610812">
        <ele>1019.62</ele>
        <time>2019-03-10T15:41:29Z</time>
      </trkpt>
      <trkpt lat="33.68826761841774" lon="-5.372128626331687">
        <ele>1021.0599999999999</ele>
        <time>2019-03-10T15:41:34Z</time>
      </trkpt>
      <trkpt lat="33.688243310898542" lon="-5.371991582214832">
        <ele>1022.02</ele>
        <time>2019-03-10T15:41:35Z</time>
      </trkpt>
      <trkpt lat="33.68815965950489" lon="-5.371316252276301">
        <ele>1022.98</ele>
        <time>2019-03-10T15:41:36Z</time>
      </trkpt>
      <trkpt lat="33.688123533502221" lon="-5.371181387454271">
        <ele>1023.9400000000001</ele>
        <time>2019-03-10T15:41:37Z</time>
      </trkpt>
      <trkpt lat="33.688071146607399" lon="-5.371051216498017">
        <ele>1024.9000000000001</ele>
        <time>2019-03-10T15:41:38Z</time>
      </trkpt>
      <trkpt lat="33.688004929572344" lon="-5.370928840711713">
        <ele>1026.3399999999999</ele>
        <time>2019-03-10T15:41:39Z</time>
      </trkpt>
      <trkpt lat="33.687931671738625" lon="-5.370813841000199">
        <ele>1027.3099999999999</ele>
        <time>2019-03-10T15:41:40Z</time>
      </trkpt>
      <trkpt lat="33.687854977324605" lon="-5.370707642287016">
        <ele>1028.27</ele>
        <time>2019-03-10T15:41:41Z</time>
      </trkpt>
      <trkpt lat="33.68777702562511" lon="-5.370611837133765">
        <ele>1029.23</ele>
        <time>2019-03-10T15:41:42Z</time>
      </trkpt>
      <trkpt lat="33.687699157744646" lon="-5.370524832978845">
        <ele>1029.71</ele>
        <time>2019-03-10T15:41:43Z</time>
      </trkpt>
      <trkpt lat="33.687620032578707" lon="-5.370444031432271">
        <ele>1030.6700000000001</ele>
        <time>2019-03-10T15:41:44Z</time>
      </trkpt>
      <trkpt lat="33.68753663264215" lon="-5.370373874902725">
        <ele>1031.6300000000001</ele>
        <time>2019-03-10T15:41:45Z</time>
      </trkpt>
      <trkpt lat="33.687448790296912" lon="-5.370314614847302">
        <ele>1032.5899999999999</ele>
        <time>2019-03-10T15:41:46Z</time>
      </trkpt>
      <trkpt lat="33.687354912981391" lon="-5.370265999808908">
        <ele>1033.0699999999999</ele>
        <time>2019-03-10T15:41:47Z</time>
      </trkpt>
      <trkpt lat="33.687259024009109" lon="-5.370229035615921">
        <ele>1034.04</ele>
        <time>2019-03-10T15:41:48Z</time>
      </trkpt>
      <trkpt lat="33.687161039561033" lon="-5.370202045887709">
        <ele>1035</ele>
        <time>2019-03-10T15:41:49Z</time>
      </trkpt>
      <trkpt lat="33.687065569683909" lon="-5.37018938921392">
        <ele>1035.96</ele>
        <time>2019-03-10T15:41:50Z</time>
      </trkpt>
      <trkpt lat="33.686973117291927" lon="-5.370183270424604">
        <ele>1036.9200000000001</ele>
        <time>2019-03-10T15:41:51Z</time>
      </trkpt>
      <trkpt lat="33.686879742890596" lon="-5.370182599872351">
        <ele>1037.8800000000001</ele>
        <time>2019-03-10T15:41:52Z</time>
      </trkpt>
      <trkpt lat="33.686783686280251" lon="-5.370191736146808">
        <ele>1043.6500000000001</ele>
        <time>2019-03-10T15:41:53Z</time>
      </trkpt>
      <trkpt lat="33.686688467860222" lon="-5.370206907391548">
        <ele>1049.4200000000001</ele>
        <time>2019-03-10T15:41:54Z</time>
      </trkpt>
      <trkpt lat="33.686597105115652" lon="-5.37022702395916">
        <ele>1054.22</ele>
        <time>2019-03-10T15:41:55Z</time>
      </trkpt>
      <trkpt lat="33.686511190608144" lon="-5.370256779715419">
        <ele>1055.1800000000001</ele>
        <time>2019-03-10T15:41:56Z</time>
      </trkpt>
      <trkpt lat="33.686427790671587" lon="-5.370295085012913">
        <ele>1055.6700000000001</ele>
        <time>2019-03-10T15:41:57Z</time>
      </trkpt>
      <trkpt lat="33.686346486210823" lon="-5.370338587090373">
        <ele>1055.6700000000001</ele>
        <time>2019-03-10T15:42:07Z</time>
      </trkpt>
      <trkpt lat="33.686267444863915" lon="-5.370387118309736">
        <ele>1055.6700000000001</ele>
        <time>2019-03-10T15:42:19Z</time>
      </trkpt>
      <trkpt lat="33.685548696666956" lon="-5.371010228991509">
        <ele>1055.6700000000001</ele>
        <time>2019-03-10T15:42:30Z</time>
      </trkpt>
      <trkpt lat="33.684700280427933" lon="-5.371765103191137">
        <ele>1055.6700000000001</ele>
        <time>2019-03-10T15:42:38Z</time>
      </trkpt>
      <trkpt lat="33.683715742081404" lon="-5.372608993202448">
        <ele>1055.6700000000001</ele>
        <time>2019-03-10T15:42:39Z</time>
      </trkpt>
      <trkpt lat="33.68312967941165" lon="-5.37308257073164">
        <ele>1055.6700000000001</ele>
        <time>2019-03-10T15:42:40Z</time>
      </trkpt>
      <trkpt lat="33.683054745197296" lon="-5.373121127486229">
        <ele>1056.1500000000001</ele>
        <time>2019-03-10T15:42:41Z</time>
      </trkpt>
      <trkpt lat="33.682973608374596" lon="-5.373147111386061">
        <ele>1058.0699999999999</ele>
        <time>2019-03-10T15:42:42Z</time>
      </trkpt>
      <trkpt lat="33.68287998251617" lon="-5.373157924041152">
        <ele>1061.4300000000001</ele>
        <time>2019-03-10T15:42:43Z</time>
      </trkpt>
      <trkpt lat="33.68277688510716" lon="-5.373145518824458">
        <ele>1061.9100000000001</ele>
        <time>2019-03-10T15:42:44Z</time>
      </trkpt>
      <trkpt lat="33.682668004184961" lon="-5.373117439448834">
        <ele>1061.9100000000001</ele>
        <time>2019-03-10T15:42:45Z</time>
      </trkpt>
      <trkpt lat="33.682551747187972" lon="-5.373077122494578">
        <ele>1064.8</ele>
        <time>2019-03-10T15:42:55Z</time>
      </trkpt>
      <trkpt lat="33.682425012812018" lon="-5.373022640123963">
        <ele>1071.53</ele>
        <time>2019-03-10T15:43:03Z</time>
      </trkpt>
      <trkpt lat="33.68099925108254" lon="-5.37252651527524">
        <ele>1075.3699999999999</ele>
        <time>2019-03-10T15:43:13Z</time>
      </trkpt>
      <trkpt lat="33.680033320561051" lon="-5.372475804761052">
        <ele>1078.74</ele>
        <time>2019-03-10T15:43:21Z</time>
      </trkpt>
      <trkpt lat="33.679168140515685" lon="-5.372600359842181">
        <ele>1081.6199999999999</ele>
        <time>2019-03-10T15:43:44Z</time>
      </trkpt>
      <trkpt lat="33.679080130532384" lon="-5.372619638219476">
        <ele>1089.79</ele>
        <time>2019-03-10T15:43:52Z</time>
      </trkpt>
      <trkpt lat="33.678885335102677" lon="-5.372638246044517">
        <ele>1096.04</ele>
        <time>2019-03-10T15:44:05Z</time>
      </trkpt>
      <trkpt lat="33.678149152547121" lon="-5.372720304876566">
        <ele>1101.8099999999999</ele>
        <time>2019-03-10T15:44:18Z</time>
      </trkpt>
      <trkpt lat="33.676433796063066" lon="-5.372917531058192">
        <ele>1107.5799999999999</ele>
        <time>2019-03-10T15:44:33Z</time>
      </trkpt>
      <trkpt lat="33.674456924200058" lon="-5.373158426955342">
        <ele>1112.8599999999999</ele>
        <time>2019-03-10T15:44:46Z</time>
      </trkpt>
      <trkpt lat="33.67215852253139" lon="-5.373445255681872">
        <ele>1123.9200000000001</ele>
        <time>2019-03-10T15:45:02Z</time>
      </trkpt>
      <trkpt lat="33.670352306216955" lon="-5.373659078031778">
        <ele>1138.8199999999999</ele>
        <time>2019-03-10T15:45:16Z</time>
      </trkpt>
      <trkpt lat="33.667867323383689" lon="-5.373959317803383">
        <ele>1154.6800000000001</ele>
        <time>2019-03-10T15:45:30Z</time>
      </trkpt>
      <trkpt lat="33.665653662756085" lon="-5.374219324439764">
        <ele>1164.29</ele>
        <time>2019-03-10T15:45:43Z</time>
      </trkpt>
      <trkpt lat="33.663910897448659" lon="-5.374426944181323">
        <ele>1178.71</ele>
        <time>2019-03-10T15:45:53Z</time>
      </trkpt>
      <trkpt lat="33.662378853186965" lon="-5.374586619436741">
        <ele>1193.6099999999999</ele>
        <time>2019-03-10T15:46:07Z</time>
      </trkpt>
      <trkpt lat="33.660792494192719" lon="-5.374781833961606">
        <ele>1199.8599999999999</ele>
        <time>2019-03-10T15:46:21Z</time>
      </trkpt>
      <trkpt lat="33.658048175275326" lon="-5.37501267157495">
        <ele>1204.6700000000001</ele>
        <time>2019-03-10T15:46:32Z</time>
      </trkpt>
      <trkpt lat="33.655305951833725" lon="-5.37510646507144">
        <ele>1210.9200000000001</ele>
        <time>2019-03-10T15:46:40Z</time>
      </trkpt>
      <trkpt lat="33.653272669762373" lon="-5.375435203313828">
        <ele>1217.6500000000001</ele>
        <time>2019-03-10T15:46:53Z</time>
      </trkpt>
      <trkpt lat="33.652270194143057" lon="-5.375310396775603">
        <ele>1220.53</ele>
        <time>2019-03-10T15:47:07Z</time>
      </trkpt>
      <trkpt lat="33.650761619210243" lon="-5.374719137325883">
        <ele>1220.05</ele>
        <time>2019-03-10T15:47:16Z</time>
      </trkpt>
      <trkpt lat="33.64930241368711" lon="-5.373655222356319">
        <ele>1220.05</ele>
        <time>2019-03-10T15:47:28Z</time>
      </trkpt>
      <trkpt lat="33.648283509537578" lon="-5.373226068913937">
        <ele>1222.9300000000001</ele>
        <time>2019-03-10T15:47:41Z</time>
      </trkpt>
      <trkpt lat="33.646700754761696" lon="-5.37313923239708">
        <ele>1236.8699999999999</ele>
        <time>2019-03-10T15:47:50Z</time>
      </trkpt>
      <trkpt lat="33.64471759647131" lon="-5.37304543890059">
        <ele>1250.3299999999999</ele>
        <time>2019-03-10T15:47:57Z</time>
      </trkpt>
      <trkpt lat="33.643295103684068" lon="-5.372634558007121">
        <ele>1260.9100000000001</ele>
        <time>2019-03-10T15:47:58Z</time>
      </trkpt>
      <trkpt lat="33.6422124132514" lon="-5.372244212776423">
        <ele>1273.4000000000001</ele>
        <time>2019-03-10T15:47:59Z</time>
      </trkpt>
      <trkpt lat="33.642056174576283" lon="-5.372229209169745">
        <ele>1281.5699999999999</ele>
        <time>2019-03-10T15:48:12Z</time>
      </trkpt>
      <trkpt lat="33.641902953386307" lon="-5.372226946055889">
        <ele>1287.8199999999999</ele>
        <time>2019-03-10T15:48:23Z</time>
      </trkpt>
      <trkpt lat="33.639802783727646" lon="-5.372484270483255">
        <ele>1288.78</ele>
        <time>2019-03-10T15:48:35Z</time>
      </trkpt>
      <trkpt lat="33.637922219932079" lon="-5.37270194850862">
        <ele>1288.3</ele>
        <time>2019-03-10T15:48:46Z</time>
      </trkpt>
      <trkpt lat="33.635627841576934" lon="-5.373078966513276">
        <ele>1287.8199999999999</ele>
        <time>2019-03-10T15:49:02Z</time>
      </trkpt>
      <trkpt lat="33.633699920028448" lon="-5.37336453795433">
        <ele>1287.8199999999999</ele>
        <time>2019-03-10T15:49:14Z</time>
      </trkpt>
      <trkpt lat="33.631294649094343" lon="-5.373475681990385">
        <ele>1287.8199999999999</ele>
        <time>2019-03-10T15:49:27Z</time>
      </trkpt>
      <trkpt lat="33.629667637869716" lon="-5.373738454654813">
        <ele>1287.8199999999999</ele>
        <time>2019-03-10T15:49:32Z</time>
      </trkpt>
      <trkpt lat="33.627970134839416" lon="-5.374488718807697">
        <ele>1287.8199999999999</ele>
        <time>2019-03-10T15:49:33Z</time>
      </trkpt>
      <trkpt lat="33.627279466018081" lon="-5.374819049611688">
        <ele>1287.8199999999999</ele>
        <time>2019-03-10T15:49:34Z</time>
      </trkpt>
      <trkpt lat="33.627125658094883" lon="-5.374858193099499">
        <ele>1285.9000000000001</ele>
        <time>2019-03-10T15:49:35Z</time>
      </trkpt>
      <trkpt lat="33.626967994496226" lon="-5.374881494790316">
        <ele>1287.3399999999999</ele>
        <time>2019-03-10T15:49:36Z</time>
      </trkpt>
      <trkpt lat="33.626809241250157" lon="-5.374888032674789">
        <ele>1293.1099999999999</ele>
        <time>2019-03-10T15:49:37Z</time>
      </trkpt>
      <trkpt lat="33.62665350548923" lon="-5.374879566952586">
        <ele>1302.24</ele>
        <time>2019-03-10T15:49:38Z</time>
      </trkpt>
      <trkpt lat="33.626509923487902" lon="-5.374859031289816">
        <ele>1308.49</ele>
        <time>2019-03-10T15:49:39Z</time>
      </trkpt>
      <trkpt lat="33.626390565186739" lon="-5.374831957742572">
        <ele>1298.4000000000001</ele>
        <time>2019-03-10T15:56:45Z</time>
      </trkpt>
      <trkpt lat="33.626301968470216" lon="-5.374812260270119">
        <ele>1294.55</ele>
        <time>2019-03-10T15:56:52Z</time>
      </trkpt>
      <trkpt lat="33.625976582989097" lon="-5.374711425974965">
        <ele>1293.5899999999999</ele>
        <time>2019-03-10T15:57:02Z</time>
      </trkpt>
      <trkpt lat="33.625342659652233" lon="-5.374474972486496">
        <ele>1293.1099999999999</ele>
        <time>2019-03-10T15:57:11Z</time>
      </trkpt>
      <trkpt lat="33.623950509354472" lon="-5.373959569260478">
        <ele>1292.1500000000001</ele>
        <time>2019-03-10T15:57:20Z</time>
      </trkpt>
      <trkpt lat="33.622637065127492" lon="-5.373218525201082">
        <ele>1291.1900000000001</ele>
        <time>2019-03-10T15:57:34Z</time>
      </trkpt>
      <trkpt lat="33.621552530676126" lon="-5.371983451768756">
        <ele>1289.75</ele>
        <time>2019-03-10T15:57:39Z</time>
      </trkpt>
      <trkpt lat="33.619470298290253" lon="-5.370237752795219">
        <ele>1285.4200000000001</ele>
        <time>2019-03-10T15:57:40Z</time>
      </trkpt>
      <trkpt lat="33.618566310033202" lon="-5.369823016226292">
        <ele>1285.9000000000001</ele>
        <time>2019-03-10T15:57:41Z</time>
      </trkpt>
      <trkpt lat="33.618372520431876" lon="-5.369793763384223">
        <ele>1285.9000000000001</ele>
        <time>2019-03-10T15:57:42Z</time>
      </trkpt>
      <trkpt lat="33.618177808821201" lon="-5.369780855253339">
        <ele>1286.3800000000001</ele>
        <time>2019-03-10T15:57:43Z</time>
      </trkpt>
      <trkpt lat="33.617982007563114" lon="-5.369783202186227">
        <ele>1286.3800000000001</ele>
        <time>2019-03-10T15:57:44Z</time>
      </trkpt>
      <trkpt lat="33.617784446105361" lon="-5.369800049811602">
        <ele>1291.1900000000001</ele>
        <time>2019-03-10T15:57:52Z</time>
      </trkpt>
      <trkpt lat="33.617586633190513" lon="-5.369829805567861">
        <ele>1293.5899999999999</ele>
        <time>2019-03-10T15:57:53Z</time>
      </trkpt>
      <trkpt lat="33.616110328584909" lon="-5.370048573240638">
        <ele>1293.5899999999999</ele>
        <time>2019-03-10T15:57:54Z</time>
      </trkpt>
      <trkpt lat="33.615960543975234" lon="-5.370023427531123">
        <ele>1293.5899999999999</ele>
        <time>2019-03-10T15:57:55Z</time>
      </trkpt>
      <trkpt lat="33.615816123783588" lon="-5.369979338720441">
        <ele>1292.1500000000001</ele>
        <time>2019-03-10T15:57:56Z</time>
      </trkpt>
      <trkpt lat="33.615673128515482" lon="-5.369920916855335">
        <ele>1292.1500000000001</ele>
        <time>2019-03-10T15:58:05Z</time>
      </trkpt>
      <trkpt lat="33.615529462695122" lon="-5.369849167764187">
        <ele>1292.1500000000001</ele>
        <time>2019-03-10T15:58:12Z</time>
      </trkpt>
      <trkpt lat="33.614120380952954" lon="-5.36894828081131">
        <ele>1292.6300000000001</ele>
        <time>2019-03-10T15:58:13Z</time>
      </trkpt>
      <trkpt lat="33.612934593111277" lon="-5.368331205099821">
        <ele>1292.6300000000001</ele>
        <time>2019-03-10T15:58:14Z</time>
      </trkpt>
      <trkpt lat="33.612750945612788" lon="-5.368306059390307">
        <ele>1293.1099999999999</ele>
        <time>2019-03-10T15:58:23Z</time>
      </trkpt>
      <trkpt lat="33.612563777714968" lon="-5.368305305019021">
        <ele>1294.0699999999999</ele>
        <time>2019-03-10T15:58:24Z</time>
      </trkpt>
      <trkpt lat="33.610843308269978" lon="-5.368486940860748">
        <ele>1298.8800000000001</ele>
        <time>2019-03-10T15:58:25Z</time>
      </trkpt>
      <trkpt lat="33.61065823584795" lon="-5.368451988324523">
        <ele>1300.8</ele>
        <time>2019-03-10T15:58:26Z</time>
      </trkpt>
      <trkpt lat="33.610475175082684" lon="-5.368390716612339">
        <ele>1303.2</ele>
        <time>2019-03-10T15:58:27Z</time>
      </trkpt>
      <trkpt lat="33.610298065468669" lon="-5.368309328332543">
        <ele>1304.1700000000001</ele>
        <time>2019-03-10T15:58:28Z</time>
      </trkpt>
      <trkpt lat="33.610131349414587" lon="-5.368209583684802">
        <ele>1305.6099999999999</ele>
        <time>2019-03-10T15:58:29Z</time>
      </trkpt>
      <trkpt lat="33.609976200386882" lon="-5.368094919249415">
        <ele>1311.8599999999999</ele>
        <time>2019-03-10T15:58:36Z</time>
      </trkpt>
      <trkpt lat="33.609828008338809" lon="-5.367974303662777">
        <ele>1312.8199999999999</ele>
        <time>2019-03-10T15:58:44Z</time>
      </trkpt>
      <trkpt lat="33.608999289572239" lon="-5.367230996489525">
        <ele>1315.7</ele>
        <time>2019-03-10T15:58:55Z</time>
      </trkpt>
      <trkpt lat="33.607863625511527" lon="-5.366688938811421">
        <ele>1319.0699999999999</ele>
        <time>2019-03-10T15:59:03Z</time>
      </trkpt>
      <trkpt lat="33.60588968731463" lon="-5.366326002404094">
        <ele>1327.72</ele>
        <time>2019-03-10T15:59:12Z</time>
      </trkpt>
      <trkpt lat="33.604587307199836" lon="-5.366569077596068">
        <ele>1335.4100000000001</ele>
        <time>2019-03-10T15:59:22Z</time>
      </trkpt>
      <trkpt lat="33.603095998987556" lon="-5.366635965183377">
        <ele>1341.1800000000001</ele>
        <time>2019-03-10T15:59:30Z</time>
      </trkpt>
      <trkpt lat="33.601490948349237" lon="-5.366677287966013">
        <ele>1344.54</ele>
        <time>2019-03-10T15:59:37Z</time>
      </trkpt>
      <trkpt lat="33.600220922380686" lon="-5.367373069748282">
        <ele>1347.9100000000001</ele>
        <time>2019-03-10T15:59:45Z</time>
      </trkpt>
      <trkpt lat="33.598948214203119" lon="-5.36756887100637">
        <ele>1352.71</ele>
        <time>2019-03-10T15:59:58Z</time>
      </trkpt>
      <trkpt lat="33.597467048093677" lon="-5.367276258766651">
        <ele>1358</ele>
        <time>2019-03-10T16:00:08Z</time>
      </trkpt>
      <trkpt lat="33.59510418958962" lon="-5.366563461720944">
        <ele>1356.5599999999999</ele>
        <time>2019-03-10T16:00:21Z</time>
      </trkpt>
      <trkpt lat="33.593359747901559" lon="-5.365936495363712">
        <ele>1353.6700000000001</ele>
        <time>2019-03-10T16:00:32Z</time>
      </trkpt>
      <trkpt lat="33.591139633208513" lon="-5.364900324493647">
        <ele>1359.4400000000001</ele>
        <time>2019-03-10T16:00:45Z</time>
      </trkpt>
      <trkpt lat="33.589315228164196" lon="-5.36395350471139">
        <ele>1360.4000000000001</ele>
        <time>2019-03-10T16:00:55Z</time>
      </trkpt>
      <trkpt lat="33.587385127320886" lon="-5.362273436039686">
        <ele>1358.96</ele>
        <time>2019-03-10T16:01:07Z</time>
      </trkpt>
      <trkpt lat="33.585837241262197" lon="-5.361256627365947">
        <ele>1358.96</ele>
        <time>2019-03-10T16:01:19Z</time>
      </trkpt>
      <trkpt lat="33.583869086578488" lon="-5.360412318259478">
        <ele>1359.4400000000001</ele>
        <time>2019-03-10T16:01:28Z</time>
      </trkpt>
      <trkpt lat="33.581842929124832" lon="-5.360112078487873">
        <ele>1362.3299999999999</ele>
        <time>2019-03-10T16:01:42Z</time>
      </trkpt>
      <trkpt lat="33.580277860164642" lon="-5.359479915350676">
        <ele>1361.3599999999999</ele>
        <time>2019-03-10T16:01:55Z</time>
      </trkpt>
      <trkpt lat="33.577901255339384" lon="-5.358302174136043">
        <ele>1363.77</ele>
        <time>2019-03-10T16:02:03Z</time>
      </trkpt>
      <trkpt lat="33.575688684359193" lon="-5.357186291366816">
        <ele>1366.1700000000001</ele>
        <time>2019-03-10T16:02:16Z</time>
      </trkpt>
      <trkpt lat="33.574500298127532" lon="-5.356193706393242">
        <ele>1366.6500000000001</ele>
        <time>2019-03-10T16:02:31Z</time>
      </trkpt>
      <trkpt lat="33.572870856150985" lon="-5.354200573638082">
        <ele>1368.5699999999999</ele>
        <time>2019-03-10T16:02:47Z</time>
      </trkpt>
      <trkpt lat="33.570854170247912" lon="-5.351722296327353">
        <ele>1369.54</ele>
        <time>2019-03-10T16:03:03Z</time>
      </trkpt>
      <trkpt lat="33.568762298673391" lon="-5.349147543311119">
        <ele>1373.3800000000001</ele>
        <time>2019-03-10T16:03:18Z</time>
      </trkpt>
      <trkpt lat="33.566539669409394" lon="-5.346400709822774">
        <ele>1383.47</ele>
        <time>2019-03-10T16:03:35Z</time>
      </trkpt>
      <trkpt lat="33.564459783956409" lon="-5.343938861042261">
        <ele>1397.8900000000001</ele>
        <time>2019-03-10T16:03:48Z</time>
      </trkpt>
      <trkpt lat="33.561958791688085" lon="-5.341210886836052">
        <ele>1414.72</ele>
        <time>2019-03-10T16:04:03Z</time>
      </trkpt>
      <trkpt lat="33.560083759948611" lon="-5.339046260342002">
        <ele>1421.45</ele>
        <time>2019-03-10T16:04:13Z</time>
      </trkpt>
      <trkpt lat="33.55823764577508" lon="-5.336442673578858">
        <ele>1426.25</ele>
        <time>2019-03-10T16:04:27Z</time>
      </trkpt>
      <trkpt lat="33.557273810729384" lon="-5.335007859393954">
        <ele>1427.7</ele>
        <time>2019-03-10T16:04:36Z</time>
      </trkpt>
      <trkpt lat="33.555685942992568" lon="-5.332720102742314">
        <ele>1429.1400000000001</ele>
        <time>2019-03-10T16:04:48Z</time>
      </trkpt>
      <trkpt lat="33.554441062733531" lon="-5.331458877772093">
        <ele>1430.5799999999999</ele>
        <time>2019-03-10T16:05:01Z</time>
      </trkpt>
      <trkpt lat="33.55247332714498" lon="-5.330385742709041">
        <ele>1431.54</ele>
        <time>2019-03-10T16:05:08Z</time>
      </trkpt>
      <trkpt lat="33.550293613225222" lon="-5.329192830249667">
        <ele>1431.54</ele>
        <time>2019-03-10T16:05:16Z</time>
      </trkpt>
      <trkpt lat="33.549432121217251" lon="-5.328163951635361">
        <ele>1432.98</ele>
        <time>2019-03-10T16:05:26Z</time>
      </trkpt>
      <trkpt lat="33.548838347196579" lon="-5.32660374417901">
        <ele>1434.9100000000001</ele>
        <time>2019-03-10T16:05:38Z</time>
      </trkpt>
      <trkpt lat="33.548132926225662" lon="-5.324860811233521">
        <ele>1437.79</ele>
        <time>2019-03-10T16:05:49Z</time>
      </trkpt>
      <trkpt lat="33.547139586880803" lon="-5.323280654847622">
        <ele>1444.52</ele>
        <time>2019-03-10T16:05:55Z</time>
      </trkpt>
      <trkpt lat="33.546288907527924" lon="-5.321945166215301">
        <ele>1450.29</ele>
        <time>2019-03-10T16:05:56Z</time>
      </trkpt>
      <trkpt lat="33.545818934217095" lon="-5.32118383795023">
        <ele>1456.53</ele>
        <time>2019-03-10T16:06:11Z</time>
      </trkpt>
      <trkpt lat="33.545733438804746" lon="-5.32106607221067">
        <ele>1459.9000000000001</ele>
        <time>2019-03-10T16:06:22Z</time>
      </trkpt>
      <trkpt lat="33.544366182759404" lon="-5.31922054477036">
        <ele>1461.8199999999999</ele>
        <time>2019-03-10T16:06:31Z</time>
      </trkpt>
      <trkpt lat="33.543511983007193" lon="-5.317494794726372">
        <ele>1461.3399999999999</ele>
        <time>2019-03-10T16:06:42Z</time>
      </trkpt>
      <trkpt lat="33.542559882625937" lon="-5.315918494015932">
        <ele>1460.8599999999999</ele>
        <time>2019-03-10T16:06:54Z</time>
      </trkpt>
      <trkpt lat="33.540982911363244" lon="-5.314190732315183">
        <ele>1460.3800000000001</ele>
        <time>2019-03-10T16:07:07Z</time>
      </trkpt>
      <trkpt lat="33.538786768913269" lon="-5.312823895365">
        <ele>1459.9000000000001</ele>
        <time>2019-03-10T16:07:17Z</time>
      </trkpt>
      <trkpt lat="33.536554919555783" lon="-5.311447586864233">
        <ele>1459.4200000000001</ele>
        <time>2019-03-10T16:07:22Z</time>
      </trkpt>
      <trkpt lat="33.535213395953178" lon="-5.310674272477627">
        <ele>1458.9400000000001</ele>
        <time>2019-03-10T16:07:23Z</time>
      </trkpt>
      <trkpt lat="33.534716265276074" lon="-5.310205137357116">
        <ele>1457.98</ele>
        <time>2019-03-10T16:07:24Z</time>
      </trkpt>
      <trkpt lat="33.534640744328499" lon="-5.310081336647272">
        <ele>1456.05</ele>
        <time>2019-03-10T16:07:25Z</time>
      </trkpt>
      <trkpt lat="33.534573437646031" lon="-5.309943957254291">
        <ele>1454.6099999999999</ele>
        <time>2019-03-10T16:07:26Z</time>
      </trkpt>
      <trkpt lat="33.534513507038355" lon="-5.30979978851974">
        <ele>1452.21</ele>
        <time>2019-03-10T16:07:27Z</time>
      </trkpt>
      <trkpt lat="33.534464556723833" lon="-5.309658301994205">
        <ele>1450.77</ele>
        <time>2019-03-10T16:07:36Z</time>
      </trkpt>
      <trkpt lat="33.534423150122166" lon="-5.309525197371841">
        <ele>1450.29</ele>
        <time>2019-03-10T16:07:42Z</time>
      </trkpt>
      <trkpt lat="33.533804817125201" lon="-5.308377966284752">
        <ele>1450.29</ele>
        <time>2019-03-10T16:07:51Z</time>
      </trkpt>
      <trkpt lat="33.533450681716204" lon="-5.307931881397963">
        <ele>1449.8099999999999</ele>
        <time>2019-03-10T16:08:01Z</time>
      </trkpt>
      <trkpt lat="33.532812735065818" lon="-5.307134594768286">
        <ele>1449.3199999999999</ele>
        <time>2019-03-10T16:08:12Z</time>
      </trkpt>
      <trkpt lat="33.53189910762012" lon="-5.306256087496877">
        <ele>1453.1700000000001</ele>
        <time>2019-03-10T16:08:18Z</time>
      </trkpt>
      <trkpt lat="33.530576527118683" lon="-5.305610932409763">
        <ele>1452.6900000000001</ele>
        <time>2019-03-10T16:08:26Z</time>
      </trkpt>
      <trkpt lat="33.530091047286987" lon="-5.30545687302947">
        <ele>1448.3599999999999</ele>
        <time>2019-03-10T16:08:38Z</time>
      </trkpt>
      <trkpt lat="33.529143389314413" lon="-5.305198458954692">
        <ele>1446.9200000000001</ele>
        <time>2019-03-10T16:08:56Z</time>
      </trkpt>
      <trkpt lat="33.527241619303823" lon="-5.305009949952364">
        <ele>1446.4400000000001</ele>
        <time>2019-03-10T16:09:07Z</time>
      </trkpt>
      <trkpt lat="33.524221200495958" lon="-5.304562104865909">
        <ele>1446.4400000000001</ele>
        <time>2019-03-10T16:09:20Z</time>
      </trkpt>
      <trkpt lat="33.522291267290711" lon="-5.304093221202493">
        <ele>1445.96</ele>
        <time>2019-03-10T16:09:30Z</time>
      </trkpt>
      <trkpt lat="33.520019520074129" lon="-5.303362486883998">
        <ele>1445.48</ele>
        <time>2019-03-10T16:09:42Z</time>
      </trkpt>
      <trkpt lat="33.518111128360033" lon="-5.302925035357475">
        <ele>1445</ele>
        <time>2019-03-10T16:09:47Z</time>
      </trkpt>
      <trkpt lat="33.515946501865983" lon="-5.301756598055363">
        <ele>1445.96</ele>
        <time>2019-03-10T16:09:48Z</time>
      </trkpt>
      <trkpt lat="33.515137229114771" lon="-5.301320236176252">
        <ele>1446.4400000000001</ele>
        <time>2019-03-10T16:09:49Z</time>
      </trkpt>
      <trkpt lat="33.514972357079387" lon="-5.301271788775921">
        <ele>1447.4000000000001</ele>
        <time>2019-03-10T16:09:50Z</time>
      </trkpt>
      <trkpt lat="33.514802204445004" lon="-5.301249912008643">
        <ele>1447.4000000000001</ele>
        <time>2019-03-10T16:09:51Z</time>
      </trkpt>
      <trkpt lat="33.514626603573561" lon="-5.301255192607641">
        <ele>1446.9200000000001</ele>
        <time>2019-03-10T16:09:52Z</time>
      </trkpt>
      <trkpt lat="33.514449913054705" lon="-5.301280673593283">
        <ele>1446.9200000000001</ele>
        <time>2019-03-10T16:10:00Z</time>
      </trkpt>
      <trkpt lat="33.51427330635488" lon="-5.301317721605301">
        <ele>1446.4400000000001</ele>
        <time>2019-03-10T16:10:09Z</time>
      </trkpt>
      <trkpt lat="33.51305952295661" lon="-5.301721226423979">
        <ele>1445.48</ele>
        <time>2019-03-10T16:10:18Z</time>
      </trkpt>
      <trkpt lat="33.512150337919593" lon="-5.301956171169877">
        <ele>1445</ele>
        <time>2019-03-10T16:10:21Z</time>
      </trkpt>
      <trkpt lat="33.510830858722329" lon="-5.301873190328479">
        <ele>1445</ele>
        <time>2019-03-10T16:10:22Z</time>
      </trkpt>
      <trkpt lat="33.510350994765759" lon="-5.301819210872054">
        <ele>1441.6300000000001</ele>
        <time>2019-03-10T16:10:23Z</time>
      </trkpt>
      <trkpt lat="33.510202635079622" lon="-5.301773613318801">
        <ele>1433.9400000000001</ele>
        <time>2019-03-10T16:10:24Z</time>
      </trkpt>
      <trkpt lat="33.510057460516691" lon="-5.301707899197936">
        <ele>1430.0999999999999</ele>
        <time>2019-03-10T16:10:25Z</time>
      </trkpt>
      <trkpt lat="33.509916393086314" lon="-5.301620559766889">
        <ele>1429.6199999999999</ele>
        <time>2019-03-10T16:10:26Z</time>
      </trkpt>
      <trkpt lat="33.509785635396838" lon="-5.301505895331502">
        <ele>1432.5</ele>
        <time>2019-03-10T16:10:27Z</time>
      </trkpt>
      <trkpt lat="33.509666193276644" lon="-5.301370192319155">
        <ele>1433.9400000000001</ele>
        <time>2019-03-10T16:10:38Z</time>
      </trkpt>
      <trkpt lat="33.509549349546432" lon="-5.301224682480097">
        <ele>1434.4200000000001</ele>
        <time>2019-03-10T16:10:50Z</time>
      </trkpt>
      <trkpt lat="33.508167508989573" lon="-5.299409916624427">
        <ele>1434.4200000000001</ele>
        <time>2019-03-10T16:10:57Z</time>
      </trkpt>
      <trkpt lat="33.506715930998325" lon="-5.29734461568296">
        <ele>1434.4200000000001</ele>
        <time>2019-03-10T16:11:05Z</time>
      </trkpt>
      <trkpt lat="33.506222236901522" lon="-5.296558476984501">
        <ele>1433.9400000000001</ele>
        <time>2019-03-10T16:11:15Z</time>
      </trkpt>
      <trkpt lat="33.505523772910237" lon="-5.295771919190884">
        <ele>1433.46</ele>
        <time>2019-03-10T16:11:25Z</time>
      </trkpt>
      <trkpt lat="33.504227930679917" lon="-5.294887293130159">
        <ele>1431.0599999999999</ele>
        <time>2019-03-10T16:11:29Z</time>
      </trkpt>
      <trkpt lat="33.503115316852927" lon="-5.294323693960905">
        <ele>1429.6199999999999</ele>
        <time>2019-03-10T16:11:30Z</time>
      </trkpt>
      <trkpt lat="33.502968549728394" lon="-5.29428387992084">
        <ele>1429.1400000000001</ele>
        <time>2019-03-10T16:11:31Z</time>
      </trkpt>
      <trkpt lat="33.502956395968795" lon="-5.29431170783937">
        <ele>1428.1800000000001</ele>
        <time>2019-03-10T16:11:32Z</time>
      </trkpt>
      <trkpt lat="33.502957988530397" lon="-5.294347414746881">
        <ele>1425.77</ele>
        <time>2019-03-10T16:11:33Z</time>
      </trkpt>
      <trkpt lat="33.502972489222884" lon="-5.294380355626345">
        <ele>1422.4100000000001</ele>
        <time>2019-03-10T16:11:45Z</time>
      </trkpt>
      <trkpt lat="33.502987576648593" lon="-5.294409021735191">
        <ele>1421.9300000000001</ele>
        <time>2019-03-10T16:12:07Z</time>
      </trkpt>
      <trkpt lat="33.503048177808523" lon="-5.294489655643702">
        <ele>1420.97</ele>
        <time>2019-03-10T16:12:14Z</time>
      </trkpt>
      <trkpt lat="33.503113556653261" lon="-5.294629381969571">
        <ele>1419.52</ele>
        <time>2019-03-10T16:12:23Z</time>
      </trkpt>
      <trkpt lat="33.503301981836557" lon="-5.295267077162862">
        <ele>1418.5599999999999</ele>
        <time>2019-03-10T16:12:28Z</time>
      </trkpt>
      <trkpt lat="33.503307094797492" lon="-5.296459654346108">
        <ele>1412.79</ele>
        <time>2019-03-10T16:12:34Z</time>
      </trkpt>
      <trkpt lat="33.503296785056591" lon="-5.297017470002174">
        <ele>1411.8299999999999</ele>
        <time>2019-03-10T16:12:35Z</time>
      </trkpt>
      <trkpt lat="33.503348585218191" lon="-5.297677125781775">
        <ele>1411.3499999999999</ele>
        <time>2019-03-10T16:12:36Z</time>
      </trkpt>
      <trkpt lat="33.503342801705003" lon="-5.297779804095626">
        <ele>1411.3499999999999</ele>
        <time>2019-03-10T16:12:37Z</time>
      </trkpt>
      <trkpt lat="33.503323020413518" lon="-5.297881811857224">
        <ele>1404.6199999999999</ele>
        <time>2019-03-10T16:12:38Z</time>
      </trkpt>
      <trkpt lat="33.503289157524705" lon="-5.297987926751375">
        <ele>1397.8900000000001</ele>
        <time>2019-03-10T16:12:47Z</time>
      </trkpt>
      <trkpt lat="33.503249259665608" lon="-5.298101752996445">
        <ele>1397.4100000000001</ele>
        <time>2019-03-10T16:12:49Z</time>
      </trkpt>
      <trkpt lat="33.502918425947428" lon="-5.299142953008413">
        <ele>1396.9300000000001</ele>
        <time>2019-03-10T16:12:50Z</time>
      </trkpt>
      <trkpt lat="33.502856902778149" lon="-5.299347806721926">
        <ele>1396.9300000000001</ele>
        <time>2019-03-10T16:12:51Z</time>
      </trkpt>
      <trkpt lat="33.502842904999852" lon="-5.299448641017079">
        <ele>1396.45</ele>
        <time>2019-03-10T16:13:03Z</time>
      </trkpt>
      <trkpt lat="33.502837624400854" lon="-5.299549894407392">
        <ele>1396.45</ele>
        <time>2019-03-10T16:13:10Z</time>
      </trkpt>
      <trkpt lat="33.502845168113708" lon="-5.300793601199985">
        <ele>1392.6099999999999</ele>
        <time>2019-03-10T16:13:11Z</time>
      </trkpt>
      <trkpt lat="33.502892693504691" lon="-5.301597760990262">
        <ele>1392.1300000000001</ele>
        <time>2019-03-10T16:13:12Z</time>
      </trkpt>
      <trkpt lat="33.502919599413872" lon="-5.301696080714464">
        <ele>1391.6500000000001</ele>
        <time>2019-03-10T16:13:13Z</time>
      </trkpt>
      <trkpt lat="33.502954971045256" lon="-5.301779396831989">
        <ele>1390.2</ele>
        <time>2019-03-10T16:13:14Z</time>
      </trkpt>
      <trkpt lat="33.502995204180479" lon="-5.301865059882402">
        <ele>1387.3199999999999</ele>
        <time>2019-03-10T16:13:15Z</time>
      </trkpt>
      <trkpt lat="33.503031078726053" lon="-5.301954578608275">
        <ele>1381.0699999999999</ele>
        <time>2019-03-10T16:13:24Z</time>
      </trkpt>
      <trkpt lat="33.503061756491661" lon="-5.302047953009605">
        <ele>1380.1099999999999</ele>
        <time>2019-03-10T16:13:25Z</time>
      </trkpt>
      <trkpt lat="33.503415053710341" lon="-5.302904583513737">
        <ele>1379.1500000000001</ele>
        <time>2019-03-10T16:13:26Z</time>
      </trkpt>
      <trkpt lat="33.503477079793811" lon="-5.302981697022915">
        <ele>1377.23</ele>
        <time>2019-03-10T16:13:35Z</time>
      </trkpt>
      <trkpt lat="33.503548912703991" lon="-5.30305084772408">
        <ele>1375.78</ele>
        <time>2019-03-10T16:13:46Z</time>
      </trkpt>
      <trkpt lat="33.504339829087257" lon="-5.303522497415543">
        <ele>1370.5</ele>
        <time>2019-03-10T16:13:56Z</time>
      </trkpt>
      <trkpt lat="33.5054687038064" lon="-5.303841680288315">
        <ele>1369.54</ele>
        <time>2019-03-10T16:13:57Z</time>
      </trkpt>
      <trkpt lat="33.506368836387992" lon="-5.303863221779466">
        <ele>1357.04</ele>
        <time>2019-03-10T16:13:58Z</time>
      </trkpt>
      <trkpt lat="33.506446955725551" lon="-5.303879231214523">
        <ele>1347.4300000000001</ele>
        <time>2019-03-10T16:14:01Z</time>
      </trkpt>
      <trkpt lat="33.506519878283143" lon="-5.303900688886643">
        <ele>1343.0999999999999</ele>
        <time>2019-03-10T16:14:03Z</time>
      </trkpt>
      <trkpt lat="33.506703777238727" lon="-5.303962882608175">
        <ele>1339.73</ele>
        <time>2019-03-10T16:14:09Z</time>
      </trkpt>
      <trkpt lat="33.506828164681792" lon="-5.303990878164768">
        <ele>1338.29</ele>
        <time>2019-03-10T16:14:10Z</time>
      </trkpt>
      <trkpt lat="33.507201327010989" lon="-5.304173436015844">
        <ele>1337.8099999999999</ele>
        <time>2019-03-10T16:14:21Z</time>
      </trkpt>
      <trkpt lat="33.507256982848048" lon="-5.304221548140049">
        <ele>1337.3299999999999</ele>
        <time>2019-03-10T16:14:33Z</time>
      </trkpt>
      <trkpt lat="33.507900545373559" lon="-5.304812137037516">
        <ele>1336.8499999999999</ele>
        <time>2019-03-10T16:14:45Z</time>
      </trkpt>
      <trkpt lat="33.508635135367513" lon="-5.305443210527301">
        <ele>1335.8900000000001</ele>
        <time>2019-03-10T16:14:56Z</time>
      </trkpt>
      <trkpt lat="33.509414568543434" lon="-5.306101022288203">
        <ele>1335.8900000000001</ele>
        <time>2019-03-10T16:14:58Z</time>
      </trkpt>
      <trkpt lat="33.510206490755081" lon="-5.306678367778659">
        <ele>1334.45</ele>
        <time>2019-03-10T16:14:59Z</time>
      </trkpt>
      <trkpt lat="33.510320987552404" lon="-5.306753050535917">
        <ele>1338.29</ele>
        <time>2019-03-10T16:15:00Z</time>
      </trkpt>
      <trkpt lat="33.510385025292635" lon="-5.306787081062794">
        <ele>1338.29</ele>
        <time>2019-03-10T16:15:01Z</time>
      </trkpt>
      <trkpt lat="33.510460797697306" lon="-5.306815328076482">
        <ele>1338.29</ele>
        <time>2019-03-10T16:15:02Z</time>
      </trkpt>
      <trkpt lat="33.51054847240448" lon="-5.30683477409184">
        <ele>1338.29</ele>
        <time>2019-03-10T16:15:03Z</time>
      </trkpt>
      <trkpt lat="33.510640589520335" lon="-5.306845083832741">
        <ele>1338.77</ele>
        <time>2019-03-10T16:15:09Z</time>
      </trkpt>
      <trkpt lat="33.510728348046541" lon="-5.306846592575312">
        <ele>1339.25</ele>
        <time>2019-03-10T16:15:20Z</time>
      </trkpt>
      <trkpt lat="33.511160770431161" lon="-5.306907277554274">
        <ele>1339.73</ele>
        <time>2019-03-10T16:15:21Z</time>
      </trkpt>
      <trkpt lat="33.511937102302909" lon="-5.307114729657769">
        <ele>1340.22</ele>
        <time>2019-03-10T16:15:22Z</time>
      </trkpt>
      <trkpt lat="33.512011868879199" lon="-5.307114645838738">
        <ele>1340.7</ele>
        <time>2019-03-10T16:15:23Z</time>
      </trkpt>
      <trkpt lat="33.512088730931282" lon="-5.30711380764842">
        <ele>1341.1800000000001</ele>
        <time>2019-03-10T16:15:24Z</time>
      </trkpt>
      <trkpt lat="33.512163581326604" lon="-5.307128559798002">
        <ele>1341.1800000000001</ele>
        <time>2019-03-10T16:15:25Z</time>
      </trkpt>
      <trkpt lat="33.512231474742293" lon="-5.307162757962942">
        <ele>1339.73</ele>
        <time>2019-03-10T16:15:26Z</time>
      </trkpt>
      <trkpt lat="33.512293500825763" lon="-5.307205254212022">
        <ele>1339.73</ele>
        <time>2019-03-10T16:15:27Z</time>
      </trkpt>
      <trkpt lat="33.512352593243122" lon="-5.307241128757596">
        <ele>1339.25</ele>
        <time>2019-03-10T16:15:28Z</time>
      </trkpt>
      <trkpt lat="33.512408416718245" lon="-5.30726476572454">
        <ele>1339.25</ele>
        <time>2019-03-10T16:15:29Z</time>
      </trkpt>
      <trkpt lat="33.51246147416532" lon="-5.307272979989648">
        <ele>1339.25</ele>
        <time>2019-03-10T16:15:30Z</time>
      </trkpt>
      <trkpt lat="33.512513525784016" lon="-5.307266106829047">
        <ele>1339.25</ele>
        <time>2019-03-10T16:15:33Z</time>
      </trkpt>
      <trkpt lat="33.512559793889523" lon="-5.307249007746577">
        <ele>1337.8099999999999</ele>
        <time>2019-03-10T16:15:34Z</time>
      </trkpt>
      <trkpt lat="33.512650653719902" lon="-5.307255042716861">
        <ele>1337.3299999999999</ele>
        <time>2019-03-10T16:15:35Z</time>
      </trkpt>
      <trkpt lat="33.512672865763307" lon="-5.307280188426375">
        <ele>1337.3299999999999</ele>
        <time>2019-03-10T16:15:36Z</time>
      </trkpt>
      <trkpt lat="33.512690719217062" lon="-5.307312458753586">
        <ele>1336.8499999999999</ele>
        <time>2019-03-10T16:15:37Z</time>
      </trkpt>
      <trkpt lat="33.512701531872153" lon="-5.307355625554919">
        <ele>1336.3699999999999</ele>
        <time>2019-03-10T16:15:38Z</time>
      </trkpt>
      <trkpt lat="33.512709829956293" lon="-5.307405330240727">
        <ele>1335.8900000000001</ele>
        <time>2019-03-10T16:15:46Z</time>
      </trkpt>
      <trkpt lat="33.512716619297862" lon="-5.307453190907836">
        <ele>1333.01</ele>
        <time>2019-03-10T16:15:47Z</time>
      </trkpt>
      <trkpt lat="33.512768000364304" lon="-5.307796848937869">
        <ele>1329.1600000000001</ele>
        <time>2019-03-10T16:15:48Z</time>
      </trkpt>
      <trkpt lat="33.512790380045772" lon="-5.307855941355228">
        <ele>1321.95</ele>
        <time>2019-03-10T16:15:49Z</time>
      </trkpt>
      <trkpt lat="33.512822482734919" lon="-5.307918637990952">
        <ele>1313.78</ele>
        <time>2019-03-10T16:15:50Z</time>
      </trkpt>
      <trkpt lat="33.512864056974649" lon="-5.307983681559563">
        <ele>1308.49</ele>
        <time>2019-03-10T16:15:51Z</time>
      </trkpt>
      <trkpt lat="33.512912336736917" lon="-5.308044869452715">
        <ele>1305.6099999999999</ele>
        <time>2019-03-10T16:15:55Z</time>
      </trkpt>
      <trkpt lat="33.512963382527232" lon="-5.308101866394281">
        <ele>1303.6900000000001</ele>
        <time>2019-03-10T16:16:01Z</time>
      </trkpt>
      <trkpt lat="33.513146108016372" lon="-5.308330776169896">
        <ele>1297.9200000000001</ele>
        <time>2019-03-10T16:16:08Z</time>
      </trkpt>
      <trkpt lat="33.513298071920872" lon="-5.308653060346842">
        <ele>1296.96</ele>
        <time>2019-03-10T16:16:15Z</time>
      </trkpt>
      <trkpt lat="33.513497645035386" lon="-5.309013482183218">
        <ele>1296.48</ele>
        <time>2019-03-10T16:16:20Z</time>
      </trkpt>
      <trkpt lat="33.51365128532052" lon="-5.309438277035952">
        <ele>1295.51</ele>
        <time>2019-03-10T16:16:24Z</time>
      </trkpt>
      <trkpt lat="33.513704761862755" lon="-5.309820827096701">
        <ele>1293.5899999999999</ele>
        <time>2019-03-10T16:16:26Z</time>
      </trkpt>
      <trkpt lat="33.513663355261087" lon="-5.310082426294684">
        <ele>1291.1900000000001</ele>
        <time>2019-03-10T16:16:37Z</time>
      </trkpt>
      <trkpt lat="33.513582721352577" lon="-5.31022634357214">
        <ele>1284.9400000000001</ele>
        <time>2019-03-10T16:16:43Z</time>
      </trkpt>
      <trkpt lat="33.513068491593003" lon="-5.311226891353726">
        <ele>1277.25</ele>
        <time>2019-03-10T16:16:47Z</time>
      </trkpt>
      <trkpt lat="33.512777974829078" lon="-5.311754196882248">
        <ele>1275.8099999999999</ele>
        <time>2019-03-10T16:16:49Z</time>
      </trkpt>
      <trkpt lat="33.512553758919239" lon="-5.311955949291587">
        <ele>1272.4400000000001</ele>
        <time>2019-03-10T16:16:53Z</time>
      </trkpt>
      <trkpt lat="33.51241260766983" lon="-5.312021244317293">
        <ele>1271.96</ele>
        <time>2019-03-10T16:16:57Z</time>
      </trkpt>
      <trkpt lat="33.512166934087873" lon="-5.312212351709604">
        <ele>1271.48</ele>
        <time>2019-03-10T16:17:02Z</time>
      </trkpt>
      <trkpt lat="33.511942969635129" lon="-5.312507981434465">
        <ele>1269.0799999999999</ele>
        <time>2019-03-10T16:17:13Z</time>
      </trkpt>
      <trkpt lat="33.511616410687566" lon="-5.312892878428102">
        <ele>1266.6700000000001</ele>
        <time>2019-03-10T16:17:15Z</time>
      </trkpt>
      <trkpt lat="33.510864889249206" lon="-5.31356024555862">
        <ele>1260.4300000000001</ele>
        <time>2019-03-10T16:17:23Z</time>
      </trkpt>
      <trkpt lat="33.510710829868913" lon="-5.31364624388516">
        <ele>1252.74</ele>
        <time>2019-03-10T16:17:36Z</time>
      </trkpt>
      <trkpt lat="33.510412517935038" lon="-5.314021082594991">
        <ele>1245.53</ele>
        <time>2019-03-10T16:17:40Z</time>
      </trkpt>
      <trkpt lat="33.510353341698647" lon="-5.314164413139224">
        <ele>1238.3199999999999</ele>
        <time>2019-03-10T16:17:46Z</time>
      </trkpt>
      <trkpt lat="33.51035300642252" lon="-5.314159383997321">
        <ele>1234.95</ele>
        <time>2019-03-10T16:17:49Z</time>
      </trkpt>
      <trkpt lat="33.510258290916681" lon="-5.314319897443056">
        <ele>1230.6199999999999</ele>
        <time>2019-03-10T16:17:54Z</time>
      </trkpt>
      <trkpt lat="33.51017220877111" lon="-5.314449733123183">
        <ele>1226.3</ele>
        <time>2019-03-10T16:18:03Z</time>
      </trkpt>
      <trkpt lat="33.510007169097662" lon="-5.314782494679093">
        <ele>1222.9300000000001</ele>
        <time>2019-03-10T16:18:12Z</time>
      </trkpt>
      <trkpt lat="33.509803153574467" lon="-5.315529992803931">
        <ele>1215.72</ele>
        <time>2019-03-10T16:18:21Z</time>
      </trkpt>
      <trkpt lat="33.509489838033915" lon="-5.316088311374188">
        <ele>1213.3199999999999</ele>
        <time>2019-03-10T16:18:25Z</time>
      </trkpt>
      <trkpt lat="33.509210385382175" lon="-5.316392155364156">
        <ele>1211.8800000000001</ele>
        <time>2019-03-10T16:18:30Z</time>
      </trkpt>
      <trkpt lat="33.509053308516741" lon="-5.316384024918079">
        <ele>1208.51</ele>
        <time>2019-03-10T16:18:35Z</time>
      </trkpt>
      <trkpt lat="33.508814759552479" lon="-5.316377738490701">
        <ele>1206.5899999999999</ele>
        <time>2019-03-10T16:18:39Z</time>
      </trkpt>
      <trkpt lat="33.508593142032623" lon="-5.316503215581179">
        <ele>1200.3399999999999</ele>
        <time>2019-03-10T16:18:48Z</time>
      </trkpt>
      <trkpt lat="33.508400777354836" lon="-5.316624166443944">
        <ele>1192.1700000000001</ele>
        <time>2019-03-10T16:18:51Z</time>
      </trkpt>
      <trkpt lat="33.508097436279058" lon="-5.317140826955438">
        <ele>1188.3299999999999</ele>
        <time>2019-03-10T16:18:54Z</time>
      </trkpt>
      <trkpt lat="33.507973551750183" lon="-5.317279798910022">
        <ele>1179.1900000000001</ele>
        <time>2019-03-10T16:19:01Z</time>
      </trkpt>
      <trkpt lat="33.507862072438002" lon="-5.317438971251249">
        <ele>1177.27</ele>
        <time>2019-03-10T16:19:06Z</time>
      </trkpt>
      <trkpt lat="33.50752143189311" lon="-5.317775001749396">
        <ele>1175.8299999999999</ele>
        <time>2019-03-10T16:19:12Z</time>
      </trkpt>
      <trkpt lat="33.507299311459064" lon="-5.318037439137697">
        <ele>1171.98</ele>
        <time>2019-03-10T16:19:20Z</time>
      </trkpt>
      <trkpt lat="33.506939895451069" lon="-5.318235587328672">
        <ele>1165.26</ele>
        <time>2019-03-10T16:19:24Z</time>
      </trkpt>
      <trkpt lat="33.506414014846087" lon="-5.318385288119316">
        <ele>1161.4100000000001</ele>
        <time>2019-03-10T16:19:36Z</time>
      </trkpt>
      <trkpt lat="33.506225254386663" lon="-5.318498108536005">
        <ele>1159.01</ele>
        <time>2019-03-10T16:19:51Z</time>
      </trkpt>
      <trkpt lat="33.505734577775002" lon="-5.318977134302259">
        <ele>1158.53</ele>
        <time>2019-03-10T16:19:56Z</time>
      </trkpt>
      <trkpt lat="33.505730135366321" lon="-5.318981744349003">
        <ele>1157.0799999999999</ele>
        <time>2019-03-10T16:20:05Z</time>
      </trkpt>
      <trkpt lat="33.505674563348293" lon="-5.319053493440151">
        <ele>1153.72</ele>
        <time>2019-03-10T16:20:15Z</time>
      </trkpt>
      <trkpt lat="33.50585569627583" lon="-5.319516928866506">
        <ele>1151.3199999999999</ele>
        <time>2019-03-10T16:20:20Z</time>
      </trkpt>
      <trkpt lat="33.506200611591339" lon="-5.320150600746274">
        <ele>1147.95</ele>
        <time>2019-03-10T16:20:26Z</time>
      </trkpt>
      <trkpt lat="33.506344445049763" lon="-5.320503143593669">
        <ele>1147.47</ele>
        <time>2019-03-10T16:20:27Z</time>
      </trkpt>
      <trkpt lat="33.506570421159267" lon="-5.32075728289783">
        <ele>1144.1099999999999</ele>
        <time>2019-03-10T16:20:29Z</time>
      </trkpt>
      <trkpt lat="33.506603194400668" lon="-5.320815956220031">
        <ele>1142.1800000000001</ele>
        <time>2019-03-10T16:20:33Z</time>
      </trkpt>
      <trkpt lat="33.506690114736557" lon="-5.320963226258755">
        <ele>1141.7</ele>
        <time>2019-03-10T16:20:37Z</time>
      </trkpt>
      <trkpt lat="33.506954647600651" lon="-5.321235219016671">
        <ele>1142.6600000000001</ele>
        <time>2019-03-10T16:20:45Z</time>
      </trkpt>
      <trkpt lat="33.507277350872755" lon="-5.321509558707476">
        <ele>1142.1800000000001</ele>
        <time>2019-03-10T16:20:54Z</time>
      </trkpt>
      <trkpt lat="33.507928960025311" lon="-5.322174830362201">
        <ele>1142.1800000000001</ele>
        <time>2019-03-10T16:20:59Z</time>
      </trkpt>
      <trkpt lat="33.508399855345488" lon="-5.322769777849317">
        <ele>1141.22</ele>
        <time>2019-03-10T16:21:06Z</time>
      </trkpt>
      <trkpt lat="33.508678050711751" lon="-5.322998017072678">
        <ele>1141.22</ele>
        <time>2019-03-10T16:21:13Z</time>
      </trkpt>
      <trkpt lat="33.508925903588533" lon="-5.323542086407542">
        <ele>1139.3</ele>
        <time>2019-03-10T16:21:22Z</time>
      </trkpt>
      <trkpt lat="33.509083064273" lon="-5.323928073048592">
        <ele>1128.24</ele>
        <time>2019-03-10T16:21:25Z</time>
      </trkpt>
      <trkpt lat="33.509282469749451" lon="-5.324423024430871">
        <ele>1124.8800000000001</ele>
        <time>2019-03-10T16:21:29Z</time>
      </trkpt>
      <trkpt lat="33.509391266852617" lon="-5.324660483747721">
        <ele>1118.6300000000001</ele>
        <time>2019-03-10T16:21:34Z</time>
      </trkpt>
      <trkpt lat="33.509519007056952" lon="-5.324904732406139">
        <ele>1114.79</ele>
        <time>2019-03-10T16:21:39Z</time>
      </trkpt>
      <trkpt lat="33.509646244347095" lon="-5.325231039896607">
        <ele>1112.8599999999999</ele>
        <time>2019-03-10T16:21:46Z</time>
      </trkpt>
      <trkpt lat="33.509665271267295" lon="-5.325637310743332">
        <ele>1111.4200000000001</ele>
        <time>2019-03-10T16:21:58Z</time>
      </trkpt>
      <trkpt lat="33.509517414495349" lon="-5.326157743111253">
        <ele>1111.4200000000001</ele>
        <time>2019-03-10T16:22:02Z</time>
      </trkpt>
      <trkpt lat="33.508976530283689" lon="-5.327146723866463">
        <ele>1110.46</ele>
        <time>2019-03-10T16:22:10Z</time>
      </trkpt>
      <trkpt lat="33.508823057636619" lon="-5.327522987499833">
        <ele>1108.54</ele>
        <time>2019-03-10T16:22:15Z</time>
      </trkpt>
      <trkpt lat="33.508418714627624" lon="-5.328207286074758">
        <ele>1106.6099999999999</ele>
        <time>2019-03-10T16:22:18Z</time>
      </trkpt>
      <trkpt lat="33.508293488994241" lon="-5.328629985451698">
        <ele>1106.1300000000001</ele>
        <time>2019-03-10T16:22:23Z</time>
      </trkpt>
      <trkpt lat="33.508274629712105" lon="-5.328829642385244">
        <ele>1104.6900000000001</ele>
        <time>2019-03-10T16:22:27Z</time>
      </trkpt>
      <trkpt lat="33.508133394643664" lon="-5.32901756465435">
        <ele>1104.6900000000001</ele>
        <time>2019-03-10T16:22:32Z</time>
      </trkpt>
      <trkpt lat="33.508028956130147" lon="-5.329288048669696">
        <ele>1104.6900000000001</ele>
        <time>2019-03-10T16:22:35Z</time>
      </trkpt>
      <trkpt lat="33.508029794320464" lon="-5.329785933718085">
        <ele>1101.8099999999999</ele>
        <time>2019-03-10T16:22:41Z</time>
      </trkpt>
      <trkpt lat="33.50796609185636" lon="-5.330124562606216">
        <ele>1098.9200000000001</ele>
        <time>2019-03-10T16:22:46Z</time>
      </trkpt>
      <trkpt lat="33.507921164855361" lon="-5.330721605569124">
        <ele>1098.4400000000001</ele>
        <time>2019-03-10T16:22:50Z</time>
      </trkpt>
      <trkpt lat="33.507913872599602" lon="-5.3311235178262">
        <ele>1098.4400000000001</ele>
        <time>2019-03-10T16:22:55Z</time>
      </trkpt>
      <trkpt lat="33.507777247577906" lon="-5.331524759531021">
        <ele>1097.96</ele>
        <time>2019-03-10T16:23:05Z</time>
      </trkpt>
      <trkpt lat="33.507654787972569" lon="-5.332093806937337">
        <ele>1095.5599999999999</ele>
        <time>2019-03-10T16:23:15Z</time>
      </trkpt>
      <trkpt lat="33.507468122988939" lon="-5.333169624209404">
        <ele>1092.6800000000001</ele>
        <time>2019-03-10T16:23:22Z</time>
      </trkpt>
      <trkpt lat="33.50727659650147" lon="-5.334206717088819">
        <ele>1091.71</ele>
        <time>2019-03-10T16:23:24Z</time>
      </trkpt>
      <trkpt lat="33.507144330069423" lon="-5.334983384236693">
        <ele>1088.8299999999999</ele>
        <time>2019-03-10T16:23:27Z</time>
      </trkpt>
      <trkpt lat="33.507125303149223" lon="-5.335118668153882">
        <ele>1087.8699999999999</ele>
        <time>2019-03-10T16:23:32Z</time>
      </trkpt>
      <trkpt lat="33.507082471624017" lon="-5.335356295108795">
        <ele>1083.54</ele>
        <time>2019-03-10T16:23:43Z</time>
      </trkpt>
      <trkpt lat="33.507071323692799" lon="-5.335686039179564">
        <ele>1081.6199999999999</ele>
        <time>2019-03-10T16:23:50Z</time>
      </trkpt>
      <trkpt lat="33.50693117827177" lon="-5.336762359365821">
        <ele>1081.6199999999999</ele>
        <time>2019-03-10T16:23:53Z</time>
      </trkpt>
      <trkpt lat="33.506789524108171" lon="-5.337417656555772">
        <ele>1081.6199999999999</ele>
        <time>2019-03-10T16:24:00Z</time>
      </trkpt>
      <trkpt lat="33.506756415590644" lon="-5.337696941569448">
        <ele>1080.1800000000001</ele>
        <time>2019-03-10T16:24:09Z</time>
      </trkpt>
      <trkpt lat="33.506594309583306" lon="-5.338077312335372">
        <ele>1077.29</ele>
        <time>2019-03-10T16:24:21Z</time>
      </trkpt>
      <trkpt lat="33.506504958495498" lon="-5.338837131857872">
        <ele>1076.3299999999999</ele>
        <time>2019-03-10T16:24:29Z</time>
      </trkpt>
      <trkpt lat="33.506298596039414" lon="-5.340303126722574">
        <ele>1072.49</ele>
        <time>2019-03-10T16:24:37Z</time>
      </trkpt>
      <trkpt lat="33.50611612200737" lon="-5.340995052829385">
        <ele>1071.05</ele>
        <time>2019-03-10T16:24:52Z</time>
      </trkpt>
      <trkpt lat="33.506104722619057" lon="-5.341082811355591">
        <ele>1069.5999999999999</ele>
        <time>2019-03-10T16:25:00Z</time>
      </trkpt>
      <trkpt lat="33.5060696862638" lon="-5.341322366148233">
        <ele>1066.72</ele>
        <time>2019-03-10T16:25:10Z</time>
      </trkpt>
      <trkpt lat="33.505945634096861" lon="-5.342238089069724">
        <ele>1063.3599999999999</ele>
        <time>2019-03-10T16:25:12Z</time>
      </trkpt>
      <trkpt lat="33.505760980769992" lon="-5.343308290466666">
        <ele>1059.51</ele>
        <time>2019-03-10T16:25:19Z</time>
      </trkpt>
      <trkpt lat="33.505723848938942" lon="-5.343465954065323">
        <ele>1058.0699999999999</ele>
        <time>2019-03-10T16:25:21Z</time>
      </trkpt>
      <trkpt lat="33.505380777642131" lon="-5.343753285706043">
        <ele>1059.03</ele>
        <time>2019-03-10T16:25:23Z</time>
      </trkpt>
      <trkpt lat="33.505302239209414" lon="-5.343882367014885">
        <ele>1057.5899999999999</ele>
        <time>2019-03-10T16:25:26Z</time>
      </trkpt>
      <trkpt lat="33.505237950012088" lon="-5.344061572104693">
        <ele>1057.1099999999999</ele>
        <time>2019-03-10T16:25:30Z</time>
      </trkpt>
      <trkpt lat="33.505090679973364" lon="-5.344335827976465">
        <ele>1055.1800000000001</ele>
        <time>2019-03-10T16:25:39Z</time>
      </trkpt>
      <trkpt lat="33.504968220368028" lon="-5.344718210399151">
        <ele>1049.9000000000001</ele>
        <time>2019-03-10T16:27:22Z</time>
      </trkpt>
      <trkpt lat="33.504904098808765" lon="-5.34517309628427">
        <ele>1047.01</ele>
        <time>2019-03-10T16:27:32Z</time>
      </trkpt>
      <trkpt lat="33.504823297262192" lon="-5.345663437619805">
        <ele>1046.05</ele>
        <time>2019-03-10T16:27:40Z</time>
      </trkpt>
      <trkpt lat="33.504560105502605" lon="-5.346870766952634">
        <ele>1047.49</ele>
        <time>2019-03-10T16:27:43Z</time>
      </trkpt>
      <trkpt lat="33.504427252337337" lon="-5.347750028595328">
        <ele>1052.78</ele>
        <time>2019-03-10T16:27:52Z</time>
      </trkpt>
      <trkpt lat="33.504407303407788" lon="-5.348106678575277">
        <ele>1053.74</ele>
        <time>2019-03-10T16:28:05Z</time>
      </trkpt>
      <trkpt lat="33.504165569320321" lon="-5.34903958439827">
        <ele>1059.51</ele>
        <time>2019-03-10T16:28:14Z</time>
      </trkpt>
      <trkpt lat="33.503962391987443" lon="-5.350309275090694">
        <ele>1060.47</ele>
        <time>2019-03-10T16:28:18Z</time>
      </trkpt>
      <trkpt lat="33.503856863826513" lon="-5.350571880117059">
        <ele>1059.99</ele>
        <time>2019-03-10T16:28:21Z</time>
      </trkpt>
      <trkpt lat="33.503915872424841" lon="-5.350641617551446">
        <ele>1059.99</ele>
        <time>2019-03-10T16:28:30Z</time>
      </trkpt>
      <trkpt lat="33.503958703950047" lon="-5.350701045244932">
        <ele>1059.99</ele>
        <time>2019-03-10T16:28:31Z</time>
      </trkpt>
      <trkpt lat="33.504233546555042" lon="-5.350965997204185">
        <ele>1060.95</ele>
        <time>2019-03-10T16:28:42Z</time>
      </trkpt>
      <trkpt lat="33.504254333674908" lon="-5.351036489009857">
        <ele>1058.0699999999999</ele>
        <time>2019-03-10T16:28:45Z</time>
      </trkpt>
      <trkpt lat="33.504296410828829" lon="-5.351646607741714">
        <ele>1056.6300000000001</ele>
        <time>2019-03-10T16:28:51Z</time>
      </trkpt>
      <trkpt lat="33.504234720021486" lon="-5.351758254691958">
        <ele>1057.5899999999999</ele>
        <time>2019-03-10T16:28:55Z</time>
      </trkpt>
      <trkpt lat="33.503938419744372" lon="-5.35196796990931">
        <ele>1054.22</ele>
        <time>2019-03-10T16:28:59Z</time>
      </trkpt>
      <trkpt lat="33.503767093643546" lon="-5.352238118648529">
        <ele>1053.26</ele>
        <time>2019-03-10T16:29:04Z</time>
      </trkpt>
      <trkpt lat="33.503620242699981" lon="-5.352510781958699">
        <ele>1043.1700000000001</ele>
        <time>2019-03-10T16:29:14Z</time>
      </trkpt>
      <trkpt lat="33.503426536917686" lon="-5.353017887100577">
        <ele>1037.4000000000001</ele>
        <time>2019-03-10T16:29:21Z</time>
      </trkpt>
      <trkpt lat="33.503170637413859" lon="-5.354589242488146">
        <ele>1034.52</ele>
        <time>2019-03-10T16:29:27Z</time>
      </trkpt>
      <trkpt lat="33.502708962187171" lon="-5.355824064463377">
        <ele>1034.04</ele>
        <time>2019-03-10T16:29:33Z</time>
      </trkpt>
      <trkpt lat="33.502372344955802" lon="-5.356785301119089">
        <ele>1045.0899999999999</ele>
        <time>2019-03-10T16:29:34Z</time>
      </trkpt>
      <trkpt lat="33.501789467409253" lon="-5.357309840619564">
        <ele>1041.25</ele>
        <time>2019-03-10T16:29:43Z</time>
      </trkpt>
      <trkpt lat="33.50163540802896" lon="-5.357330795377493">
        <ele>1037.8800000000001</ele>
        <time>2019-03-10T16:29:47Z</time>
      </trkpt>
      <trkpt lat="33.500284999608994" lon="-5.357558699324727">
        <ele>1047.01</ele>
        <time>2019-03-10T16:29:49Z</time>
      </trkpt>
      <trkpt lat="33.499786779284477" lon="-5.357850976288319">
        <ele>1053.26</ele>
        <time>2019-03-10T16:29:56Z</time>
      </trkpt>
      <trkpt lat="33.499592151492834" lon="-5.358048370108008">
        <ele>1058.0699999999999</ele>
        <time>2019-03-10T16:30:08Z</time>
      </trkpt>
      <trkpt lat="33.498783968389034" lon="-5.358220115303993">
        <ele>1061.4300000000001</ele>
        <time>2019-03-10T16:30:16Z</time>
      </trkpt>
      <trkpt lat="33.497352758422494" lon="-5.358241153880954">
        <ele>1065.28</ele>
        <time>2019-03-10T16:30:27Z</time>
      </trkpt>
      <trkpt lat="33.496207874268293" lon="-5.358170745894313">
        <ele>1065.76</ele>
        <time>2019-03-10T16:30:37Z</time>
      </trkpt>
      <trkpt lat="33.494441555812955" lon="-5.358620602637529">
        <ele>1060.47</ele>
        <time>2019-03-10T16:30:47Z</time>
      </trkpt>
      <trkpt lat="33.492987211793661" lon="-5.358961829915643">
        <ele>1058.55</ele>
        <time>2019-03-10T16:30:58Z</time>
      </trkpt>
      <trkpt lat="33.491569580510259" lon="-5.359004829078913">
        <ele>1055.1800000000001</ele>
        <time>2019-03-10T16:31:02Z</time>
      </trkpt>
      <trkpt lat="33.490101490169764" lon="-5.359114464372397">
        <ele>1050.3800000000001</ele>
        <time>2019-03-10T16:31:07Z</time>
      </trkpt>
      <trkpt lat="33.489539567381144" lon="-5.359013127163053">
        <ele>1046.05</ele>
        <time>2019-03-10T16:31:11Z</time>
      </trkpt>
      <trkpt lat="33.488922994583845" lon="-5.359071297571063">
        <ele>1043.6500000000001</ele>
        <time>2019-03-10T16:31:20Z</time>
      </trkpt>
      <trkpt lat="33.488514209166169" lon="-5.358956884592772">
        <ele>1039.8</ele>
        <time>2019-03-10T16:31:26Z</time>
      </trkpt>
      <trkpt lat="33.48740260116756" lon="-5.3580073826015">
        <ele>1039.3199999999999</ele>
        <time>2019-03-10T16:31:34Z</time>
      </trkpt>
      <trkpt lat="33.486781837418675" lon="-5.357580073177815">
        <ele>1038.8399999999999</ele>
        <time>2019-03-10T16:31:44Z</time>
      </trkpt>
      <trkpt lat="33.485879944637418" lon="-5.357227781787515">
        <ele>1038.8399999999999</ele>
        <time>2019-03-10T16:31:52Z</time>
      </trkpt>
      <trkpt lat="33.484496846795082" lon="-5.356516828760505">
        <ele>1038.8399999999999</ele>
        <time>2019-03-10T16:32:02Z</time>
      </trkpt>
      <trkpt lat="33.48342664539814" lon="-5.356081305071712">
        <ele>1038.8399999999999</ele>
        <time>2019-03-10T16:32:10Z</time>
      </trkpt>
      <trkpt lat="33.482009768486023" lon="-5.355297848582268">
        <ele>1038.8399999999999</ele>
        <time>2019-03-10T16:32:14Z</time>
      </trkpt>
      <trkpt lat="33.480840409174562" lon="-5.354773309081793">
        <ele>1038.8399999999999</ele>
        <time>2019-03-10T16:32:15Z</time>
      </trkpt>
      <trkpt lat="33.480410249903798" lon="-5.354517577216029">
        <ele>1038.8399999999999</ele>
        <time>2019-03-10T16:32:16Z</time>
      </trkpt>
      <trkpt lat="33.480314863845706" lon="-5.354501651600003">
        <ele>1038.8399999999999</ele>
        <time>2019-03-10T16:32:17Z</time>
      </trkpt>
      <trkpt lat="33.480227272957563" lon="-5.354514308273792">
        <ele>1038.8399999999999</ele>
        <time>2019-03-10T16:32:18Z</time>
      </trkpt>
      <trkpt lat="33.480147058144212" lon="-5.354557223618031">
        <ele>1038.8399999999999</ele>
        <time>2019-03-10T16:32:19Z</time>
      </trkpt>
      <trkpt lat="33.48008151166141" lon="-5.354631654918194">
        <ele>1038.3599999999999</ele>
        <time>2019-03-10T16:32:20Z</time>
      </trkpt>
      <trkpt lat="33.480033734813333" lon="-5.354731567203999">
        <ele>1037.8800000000001</ele>
        <time>2019-03-10T16:32:21Z</time>
      </trkpt>
      <trkpt lat="33.480000123381615" lon="-5.354845728725195">
        <ele>1037.8800000000001</ele>
        <time>2019-03-10T16:32:22Z</time>
      </trkpt>
      <trkpt lat="33.479974223300815" lon="-5.354967601597309">
        <ele>1036.9200000000001</ele>
        <time>2019-03-10T16:32:23Z</time>
      </trkpt>
      <trkpt lat="33.479952933266759" lon="-5.355098526924849">
        <ele>1036.4400000000001</ele>
        <time>2019-03-10T16:32:24Z</time>
      </trkpt>
      <trkpt lat="33.479942372068763" lon="-5.355238001793623">
        <ele>1035.96</ele>
        <time>2019-03-10T16:32:25Z</time>
      </trkpt>
      <trkpt lat="33.479943629354239" lon="-5.355386780574918">
        <ele>1035.96</ele>
        <time>2019-03-10T16:32:26Z</time>
      </trkpt>
      <trkpt lat="33.479958800598979" lon="-5.355543019250035">
        <ele>1035.96</ele>
        <time>2019-03-10T16:32:27Z</time>
      </trkpt>
      <trkpt lat="33.479983611032367" lon="-5.355697749182582">
        <ele>1035.48</ele>
        <time>2019-03-10T16:32:29Z</time>
      </trkpt>
      <trkpt lat="33.480016635730863" lon="-5.355851305648685">
        <ele>1034.04</ele>
        <time>2019-03-10T16:32:30Z</time>
      </trkpt>
      <trkpt lat="33.480073297396302" lon="-5.356166465207934">
        <ele>1033.55</ele>
        <time>2019-03-10T16:32:31Z</time>
      </trkpt>
      <trkpt lat="33.480072543025017" lon="-5.356326475739479">
        <ele>1033.55</ele>
        <time>2019-03-10T16:32:32Z</time>
      </trkpt>
      <trkpt lat="33.480047732591629" lon="-5.356483971700072">
        <ele>1030.6700000000001</ele>
        <time>2019-03-10T16:32:33Z</time>
      </trkpt>
      <trkpt lat="33.479999285191298" lon="-5.35663727670908">
        <ele>1029.23</ele>
        <time>2019-03-10T16:32:34Z</time>
      </trkpt>
      <trkpt lat="33.479933571070433" lon="-5.356784462928772">
        <ele>1028.27</ele>
        <time>2019-03-10T16:32:40Z</time>
      </trkpt>
      <trkpt lat="33.479860313236713" lon="-5.356926787644625">
        <ele>1028.27</ele>
        <time>2019-03-10T16:32:41Z</time>
      </trkpt>
      <trkpt lat="33.479371229186654" lon="-5.357636986300349">
        <ele>1028.27</ele>
        <time>2019-03-10T16:32:42Z</time>
      </trkpt>
      <trkpt lat="33.479334684088826" lon="-5.357750309631228">
        <ele>1028.27</ele>
        <time>2019-03-10T16:32:45Z</time>
      </trkpt>
      <trkpt lat="33.479327308014035" lon="-5.357873104512692">
        <ele>1028.75</ele>
        <time>2019-03-10T16:32:46Z</time>
      </trkpt>
      <trkpt lat="33.47945848479867" lon="-5.358285661786795">
        <ele>1029.23</ele>
        <time>2019-03-10T16:32:47Z</time>
      </trkpt>
      <trkpt lat="33.479519421234727" lon="-5.358442319557071">
        <ele>1032.5899999999999</ele>
        <time>2019-03-10T16:32:48Z</time>
      </trkpt>
      <trkpt lat="33.479567030444741" lon="-5.358610711991787">
        <ele>1032.1099999999999</ele>
        <time>2019-03-10T16:32:49Z</time>
      </trkpt>
      <trkpt lat="33.479595445096493" lon="-5.358784887939692">
        <ele>1027.3099999999999</ele>
        <time>2019-03-10T16:32:50Z</time>
      </trkpt>
      <trkpt lat="33.479605251923203" lon="-5.358960656449199">
        <ele>1026.8299999999999</ele>
        <time>2019-03-10T16:32:51Z</time>
      </trkpt>
      <trkpt lat="33.479601899161935" lon="-5.359135754406452">
        <ele>1020.58</ele>
        <time>2019-03-10T16:32:52Z</time>
      </trkpt>
      <trkpt lat="33.479588655754924" lon="-5.359312947839499">
        <ele>1020.1</ele>
        <time>2019-03-10T16:33:02Z</time>
      </trkpt>
      <trkpt lat="33.479572394862771" lon="-5.359491566196084">
        <ele>1020.1</ele>
        <time>2019-03-10T16:33:09Z</time>
      </trkpt>
      <trkpt lat="33.479333091527224" lon="-5.361241037026048">
        <ele>1020.1</ele>
        <time>2019-03-10T16:33:19Z</time>
      </trkpt>
      <trkpt lat="33.479121113196015" lon="-5.362105965614319">
        <ele>1019.62</ele>
        <time>2019-03-10T16:33:20Z</time>
      </trkpt>
      <trkpt lat="33.478815760463476" lon="-5.363226877525449">
        <ele>1019.13</ele>
        <time>2019-03-10T16:33:30Z</time>
      </trkpt>
      <trkpt lat="33.478757254779339" lon="-5.363364089280367">
        <ele>1019.62</ele>
        <time>2019-03-10T16:33:34Z</time>
      </trkpt>
      <trkpt lat="33.478065077215433" lon="-5.364684574306011">
        <ele>1019.62</ele>
        <time>2019-03-10T16:33:37Z</time>
      </trkpt>
      <trkpt lat="33.477852344512939" lon="-5.365078439936042">
        <ele>1019.13</ele>
        <time>2019-03-10T16:33:38Z</time>
      </trkpt>
      <trkpt lat="33.477729801088572" lon="-5.365452105179429">
        <ele>1018.65</ele>
        <time>2019-03-10T16:33:39Z</time>
      </trkpt>
      <trkpt lat="33.477698285132647" lon="-5.365597195923328">
        <ele>1017.6900000000001</ele>
        <time>2019-03-10T16:33:47Z</time>
      </trkpt>
      <trkpt lat="33.477679174393415" lon="-5.365748656913638">
        <ele>1017.21</ele>
        <time>2019-03-10T16:33:56Z</time>
      </trkpt>
      <trkpt lat="33.477467531338334" lon="-5.36678172647953">
        <ele>1016.73</ele>
        <time>2019-03-10T16:33:58Z</time>
      </trkpt>
      <trkpt lat="33.476975513622165" lon="-5.367889478802681">
        <ele>1012.89</ele>
        <time>2019-03-10T16:33:59Z</time>
      </trkpt>
      <trkpt lat="33.476863447576761" lon="-5.368125764653087">
        <ele>1012.41</ele>
        <time>2019-03-10T16:34:00Z</time>
      </trkpt>
      <trkpt lat="33.476790608838201" lon="-5.368229281157255">
        <ele>1010.48</ele>
        <time>2019-03-10T16:34:01Z</time>
      </trkpt>
      <trkpt lat="33.476703269407153" lon="-5.368330534547567">
        <ele>1010</ele>
        <time>2019-03-10T16:34:02Z</time>
      </trkpt>
      <trkpt lat="33.476601513102651" lon="-5.36842742934823">
        <ele>1005.6799999999999</ele>
        <time>2019-03-10T16:34:03Z</time>
      </trkpt>
      <trkpt lat="33.476491291075945" lon="-5.368515690788627">
        <ele>1000.39</ele>
        <time>2019-03-10T16:34:10Z</time>
      </trkpt>
      <trkpt lat="33.476378805935383" lon="-5.368597330525518">
        <ele>1000.39</ele>
        <time>2019-03-10T16:34:11Z</time>
      </trkpt>
      <trkpt lat="33.475678497925401" lon="-5.369099322706461">
        <ele>1000.39</ele>
        <time>2019-03-10T16:34:20Z</time>
      </trkpt>
      <trkpt lat="33.475617980584502" lon="-5.369166461750865">
        <ele>999.90999999999997</ele>
        <time>2019-03-10T16:34:28Z</time>
      </trkpt>
      <trkpt lat="33.475278932601213" lon="-5.369731402024627">
        <ele>999.90999999999997</ele>
        <time>2019-03-10T16:34:38Z</time>
      </trkpt>
      <trkpt lat="33.474958827719092" lon="-5.370667073875666">
        <ele>994.13999999999999</ele>
        <time>2019-03-10T16:34:48Z</time>
      </trkpt>
      <trkpt lat="33.474505199119449" lon="-5.372330881655216">
        <ele>993.65999999999997</ele>
        <time>2019-03-10T16:34:49Z</time>
      </trkpt>
      <trkpt lat="33.474202947691083" lon="-5.374123267829418">
        <ele>992.70000000000005</ele>
        <time>2019-03-10T16:34:50Z</time>
      </trkpt>
      <trkpt lat="33.474134048447013" lon="-5.374269280582666">
        <ele>991.74000000000001</ele>
        <time>2019-03-10T16:34:51Z</time>
      </trkpt>
      <trkpt lat="33.474056348204613" lon="-5.374398529529572">
        <ele>990.77999999999997</ele>
        <time>2019-03-10T16:34:52Z</time>
      </trkpt>
      <trkpt lat="33.473966913297772" lon="-5.374512355774641">
        <ele>989.80999999999995</ele>
        <time>2019-03-10T16:34:59Z</time>
      </trkpt>
      <trkpt lat="33.473870605230331" lon="-5.374629199504852">
        <ele>988.37</ele>
        <time>2019-03-10T16:35:00Z</time>
      </trkpt>
      <trkpt lat="33.473228048533201" lon="-5.375451799482107">
        <ele>986.92999999999995</ele>
        <time>2019-03-10T16:35:01Z</time>
      </trkpt>
      <trkpt lat="33.473132830113173" lon="-5.37552572786808">
        <ele>978.27999999999997</ele>
        <time>2019-03-10T16:35:02Z</time>
      </trkpt>
      <trkpt lat="33.473023949190974" lon="-5.375576019287109">
        <ele>977.32000000000005</ele>
        <time>2019-03-10T16:35:03Z</time>
      </trkpt>
      <trkpt lat="33.47290987148881" lon="-5.375599153339863">
        <ele>976.84000000000003</ele>
        <time>2019-03-10T16:35:04Z</time>
      </trkpt>
      <trkpt lat="33.472790345549583" lon="-5.375592447817326">
        <ele>975.88</ele>
        <time>2019-03-10T16:35:05Z</time>
      </trkpt>
      <trkpt lat="33.472665539011359" lon="-5.375560848042369">
        <ele>974.90999999999997</ele>
        <time>2019-03-10T16:35:06Z</time>
      </trkpt>
      <trkpt lat="33.47253704443574" lon="-5.375510640442371">
        <ele>974.42999999999995</ele>
        <time>2019-03-10T16:35:13Z</time>
      </trkpt>
      <trkpt lat="33.472404442727566" lon="-5.375454733148217">
        <ele>973.95000000000005</ele>
        <time>2019-03-10T16:35:14Z</time>
      </trkpt>
      <trkpt lat="33.471559965983033" lon="-5.375088779255748">
        <ele>973.47000000000003</ele>
        <time>2019-03-10T16:35:15Z</time>
      </trkpt>
      <trkpt lat="33.471457287669182" lon="-5.375072518363595">
        <ele>972.99000000000001</ele>
        <time>2019-03-10T16:35:16Z</time>
      </trkpt>
      <trkpt lat="33.471358045935631" lon="-5.375086599960923">
        <ele>970.11000000000001</ele>
        <time>2019-03-10T16:35:17Z</time>
      </trkpt>
      <trkpt lat="33.471268946304917" lon="-5.375138651579619">
        <ele>970.11000000000001</ele>
        <time>2019-03-10T16:35:18Z</time>
      </trkpt>
      <trkpt lat="33.471205495297909" lon="-5.375224985182285">
        <ele>970.11000000000001</ele>
        <time>2019-03-10T16:35:19Z</time>
      </trkpt>
      <trkpt lat="33.471174733713269" lon="-5.375334285199642">
        <ele>970.11000000000001</ele>
        <time>2019-03-10T16:35:20Z</time>
      </trkpt>
      <trkpt lat="33.471169201657176" lon="-5.375454984605312">
        <ele>969.63</ele>
        <time>2019-03-10T16:35:21Z</time>
      </trkpt>
      <trkpt lat="33.471182025969028" lon="-5.375579874962568">
        <ele>969.63</ele>
        <time>2019-03-10T16:35:28Z</time>
      </trkpt>
      <trkpt lat="33.471202896907926" lon="-5.375707447528839">
        <ele>969.14999999999998</ele>
        <time>2019-03-10T16:35:29Z</time>
      </trkpt>
      <trkpt lat="33.471382688730955" lon="-5.37680204026401">
        <ele>969.14999999999998</ele>
        <time>2019-03-10T16:35:30Z</time>
      </trkpt>
      <trkpt lat="33.471399452537298" lon="-5.376976551488042">
        <ele>969.14999999999998</ele>
        <time>2019-03-10T16:35:31Z</time>
      </trkpt>
      <trkpt lat="33.471432141959667" lon="-5.377153493463993">
        <ele>968.66999999999996</ele>
        <time>2019-03-10T16:35:32Z</time>
      </trkpt>
      <trkpt lat="33.471478829160333" lon="-5.377326076850295">
        <ele>970.11000000000001</ele>
        <time>2019-03-10T16:35:40Z</time>
      </trkpt>
      <trkpt lat="33.471528282389045" lon="-5.377492541447282">
        <ele>970.11000000000001</ele>
        <time>2019-03-10T16:35:42Z</time>
      </trkpt>
      <trkpt lat="33.471760796383023" lon="-5.378686375916004">
        <ele>970.59000000000003</ele>
        <time>2019-03-10T16:35:43Z</time>
      </trkpt>
      <trkpt lat="33.47178166732192" lon="-5.378846721723676">
        <ele>970.59000000000003</ele>
        <time>2019-03-10T16:35:44Z</time>
      </trkpt>
      <trkpt lat="33.471779739484191" lon="-5.378892822191119">
        <ele>971.07000000000005</ele>
        <time>2019-03-10T16:35:56Z</time>
      </trkpt>
      <trkpt lat="33.471775213256478" lon="-5.378915369510651">
        <ele>975.88</ele>
        <time>2019-03-10T16:36:08Z</time>
      </trkpt>
      <trkpt lat="33.471772195771337" lon="-5.378913776949048">
        <ele>983.09000000000003</ele>
        <time>2019-03-10T16:36:09Z</time>
      </trkpt>
      <trkpt lat="33.471754258498549" lon="-5.378929451107979">
        <ele>984.52999999999997</ele>
        <time>2019-03-10T16:36:10Z</time>
      </trkpt>
      <trkpt lat="33.471727184951305" lon="-5.378945544362068">
        <ele>985.97000000000003</ele>
        <time>2019-03-10T16:36:11Z</time>
      </trkpt>
      <trkpt lat="33.471684353426099" lon="-5.378948310390115">
        <ele>987.40999999999997</ele>
        <time>2019-03-10T16:36:12Z</time>
      </trkpt>
      <trkpt lat="33.471634732559323" lon="-5.378932803869247">
        <ele>988.85000000000002</ele>
        <time>2019-03-10T16:36:19Z</time>
      </trkpt>
      <trkpt lat="33.471583435311913" lon="-5.378909250721335">
        <ele>989.80999999999995</ele>
        <time>2019-03-10T16:36:26Z</time>
      </trkpt>
      <trkpt lat="33.471002401784062" lon="-5.378754520788789">
        <ele>991.25999999999999</ele>
        <time>2019-03-10T16:36:27Z</time>
      </trkpt>
      <trkpt lat="33.470146441832185" lon="-5.37875703535974">
        <ele>992.70000000000005</ele>
        <time>2019-03-10T16:36:28Z</time>
      </trkpt>
      <trkpt lat="33.470015935599804" lon="-5.37872233428061">
        <ele>994.13999999999999</ele>
        <time>2019-03-10T16:36:29Z</time>
      </trkpt>
      <trkpt lat="33.469891045242548" lon="-5.378658380359411">
        <ele>996.05999999999995</ele>
        <time>2019-03-10T16:36:30Z</time>
      </trkpt>
      <trkpt lat="33.46977487206459" lon="-5.378563245758414">
        <ele>997.50999999999999</ele>
        <time>2019-03-10T16:36:31Z</time>
      </trkpt>
      <trkpt lat="33.469669679179788" lon="-5.378441456705332">
        <ele>1008.08</ele>
        <time>2019-03-10T16:36:32Z</time>
      </trkpt>
      <trkpt lat="33.46957596950233" lon="-5.378300892189145">
        <ele>1009.04</ele>
        <time>2019-03-10T16:36:33Z</time>
      </trkpt>
      <trkpt lat="33.469500113278627" lon="-5.378138786181808">
        <ele>1009.52</ele>
        <time>2019-03-10T16:36:34Z</time>
      </trkpt>
      <trkpt lat="33.469444122165442" lon="-5.377958072349429">
        <ele>1012.89</ele>
        <time>2019-03-10T16:36:35Z</time>
      </trkpt>
      <trkpt lat="33.469407493248582" lon="-5.377767300233245">
        <ele>1011.9299999999999</ele>
        <time>2019-03-10T16:36:36Z</time>
      </trkpt>
      <trkpt lat="33.46938394010067" lon="-5.377566805109382">
        <ele>1008.08</ele>
        <time>2019-03-10T16:36:44Z</time>
      </trkpt>
      <trkpt lat="33.469368098303676" lon="-5.377366561442614">
        <ele>1007.12</ele>
        <time>2019-03-10T16:36:45Z</time>
      </trkpt>
      <trkpt lat="33.469187719747424" lon="-5.375816160812974">
        <ele>1014.8099999999999</ele>
        <time>2019-03-10T16:36:46Z</time>
      </trkpt>
      <trkpt lat="33.469124687835574" lon="-5.375630669295788">
        <ele>1027.3099999999999</ele>
        <time>2019-03-10T16:36:52Z</time>
      </trkpt>
      <trkpt lat="33.469045143574476" lon="-5.375456660985947">
        <ele>1041.73</ele>
        <time>2019-03-10T16:37:00Z</time>
      </trkpt>
      <trkpt lat="33.468625545501709" lon="-5.374799016863108">
        <ele>1059.51</ele>
        <time>2019-03-10T16:37:09Z</time>
      </trkpt>
      <trkpt lat="33.468382805585861" lon="-5.374433482065797">
        <ele>1068.1600000000001</ele>
        <time>2019-03-10T16:37:18Z</time>
      </trkpt>
      <trkpt lat="33.467911994084716" lon="-5.373744741082192">
        <ele>1069.5999999999999</ele>
        <time>2019-03-10T16:37:26Z</time>
      </trkpt>
      <trkpt lat="33.467126442119479" lon="-5.372355524450541">
        <ele>1070.5699999999999</ele>
        <time>2019-03-10T16:37:38Z</time>
      </trkpt>
      <trkpt lat="33.466638699173927" lon="-5.370619213208556">
        <ele>1070.5699999999999</ele>
        <time>2019-03-10T16:37:53Z</time>
      </trkpt>
      <trkpt lat="33.466183813288808" lon="-5.367715554311872">
        <ele>1071.05</ele>
        <time>2019-03-10T16:38:08Z</time>
      </trkpt>
      <trkpt lat="33.465632116422057" lon="-5.364431859925389">
        <ele>1066.72</ele>
        <time>2019-03-10T16:38:13Z</time>
      </trkpt>
      <trkpt lat="33.464878248050809" lon="-5.361046493053436">
        <ele>1065.76</ele>
        <time>2019-03-10T16:38:14Z</time>
      </trkpt>
      <trkpt lat="33.464640537276864" lon="-5.360012920573354">
        <ele>1065.28</ele>
        <time>2019-03-10T16:38:15Z</time>
      </trkpt>
      <trkpt lat="33.464562920853496" lon="-5.359852490946651">
        <ele>1065.28</ele>
        <time>2019-03-10T16:38:16Z</time>
      </trkpt>
      <trkpt lat="33.464467031881213" lon="-5.35971318371594">
        <ele>1065.28</ele>
        <time>2019-03-10T16:38:17Z</time>
      </trkpt>
      <trkpt lat="33.464359911158681" lon="-5.359592735767365">
        <ele>1073.45</ele>
        <time>2019-03-10T16:38:21Z</time>
      </trkpt>
      <trkpt lat="33.464247761294246" lon="-5.359474383294582">
        <ele>1074.8900000000001</ele>
        <time>2019-03-10T16:38:22Z</time>
      </trkpt>
      <trkpt lat="33.463822631165385" lon="-5.358974570408464">
        <ele>1075.8499999999999</ele>
        <time>2019-03-10T16:38:23Z</time>
      </trkpt>
      <trkpt lat="33.463747780770063" lon="-5.358834257349372">
        <ele>1077.29</ele>
        <time>2019-03-10T16:38:24Z</time>
      </trkpt>
      <trkpt lat="33.463698327541351" lon="-5.358680114150047">
        <ele>1078.74</ele>
        <time>2019-03-10T16:38:25Z</time>
      </trkpt>
      <trkpt lat="33.463667230680585" lon="-5.358514906838536">
        <ele>1089.3099999999999</ele>
        <time>2019-03-10T16:38:35Z</time>
      </trkpt>
      <trkpt lat="33.463640157133341" lon="-5.35835238173604">
        <ele>1090.27</ele>
        <time>2019-03-10T16:38:36Z</time>
      </trkpt>
      <trkpt lat="33.463174374774098" lon="-5.356681533157826">
        <ele>1091.71</ele>
        <time>2019-03-10T16:38:37Z</time>
      </trkpt>
      <trkpt lat="33.463089801371098" lon="-5.35656644962728">
        <ele>1092.6800000000001</ele>
        <time>2019-03-10T16:38:38Z</time>
      </trkpt>
      <trkpt lat="33.462986536324024" lon="-5.356477266177535">
        <ele>1094.1199999999999</ele>
        <time>2019-03-10T16:38:39Z</time>
      </trkpt>
      <trkpt lat="33.462873715907335" lon="-5.356400739401579">
        <ele>1095.5599999999999</ele>
        <time>2019-03-10T16:38:48Z</time>
      </trkpt>
      <trkpt lat="33.462758045643568" lon="-5.356330079957843">
        <ele>1096.52</ele>
        <time>2019-03-10T16:38:49Z</time>
      </trkpt>
      <trkpt lat="33.461655573919415" lon="-5.355762206017971">
        <ele>1097.96</ele>
        <time>2019-03-10T16:38:50Z</time>
      </trkpt>
      <trkpt lat="33.461547112092376" lon="-5.355674531310797">
        <ele>1098.9200000000001</ele>
        <time>2019-03-10T16:38:51Z</time>
      </trkpt>
      <trkpt lat="33.461454743519425" lon="-5.35556573420763">
        <ele>1100.3699999999999</ele>
        <time>2019-03-10T16:38:52Z</time>
      </trkpt>
      <trkpt lat="33.461378132924438" lon="-5.355443945154548">
        <ele>1101.8099999999999</ele>
        <time>2019-03-10T16:38:53Z</time>
      </trkpt>
      <trkpt lat="33.461320716887712" lon="-5.355307990685105">
        <ele>1102.77</ele>
        <time>2019-03-10T16:38:54Z</time>
      </trkpt>
      <trkpt lat="33.461284255608916" lon="-5.355158960446715">
        <ele>1107.5799999999999</ele>
        <time>2019-03-10T16:38:55Z</time>
      </trkpt>
      <trkpt lat="33.461266318336129" lon="-5.355007918551564">
        <ele>1108.0599999999999</ele>
        <time>2019-03-10T16:38:56Z</time>
      </trkpt>
      <trkpt lat="33.461264055222273" lon="-5.354855200275779">
        <ele>1108.54</ele>
        <time>2019-03-10T16:38:57Z</time>
      </trkpt>
      <trkpt lat="33.461281573399901" lon="-5.354706756770611">
        <ele>1108.54</ele>
        <time>2019-03-10T16:38:58Z</time>
      </trkpt>
      <trkpt lat="33.461318118497729" lon="-5.354564432054758">
        <ele>1108.54</ele>
        <time>2019-03-10T16:38:59Z</time>
      </trkpt>
      <trkpt lat="33.461367823183537" lon="-5.354430321604013">
        <ele>1107.5799999999999</ele>
        <time>2019-03-10T16:39:03Z</time>
      </trkpt>
      <trkpt lat="33.461424903944135" lon="-5.354303251951933">
        <ele>1106.1300000000001</ele>
        <time>2019-03-10T16:39:04Z</time>
      </trkpt>
      <trkpt lat="33.461653310805559" lon="-5.353837553411722">
        <ele>1102.77</ele>
        <time>2019-03-10T16:39:05Z</time>
      </trkpt>
      <trkpt lat="33.461679210886359" lon="-5.353720793500543">
        <ele>1101.8099999999999</ele>
        <time>2019-03-10T16:39:06Z</time>
      </trkpt>
      <trkpt lat="33.461678372696042" lon="-5.353597830981016">
        <ele>1101.3299999999999</ele>
        <time>2019-03-10T16:39:07Z</time>
      </trkpt>
      <trkpt lat="33.46165138296783" lon="-5.353471683338285">
        <ele>1095.5599999999999</ele>
        <time>2019-03-10T16:39:08Z</time>
      </trkpt>
      <trkpt lat="33.461598074063659" lon="-5.353351067751646">
        <ele>1093.6400000000001</ele>
        <time>2019-03-10T16:39:09Z</time>
      </trkpt>
      <trkpt lat="33.461524061858654" lon="-5.353233218193054">
        <ele>1091.71</ele>
        <time>2019-03-10T16:39:12Z</time>
      </trkpt>
      <trkpt lat="33.461438734084368" lon="-5.353112183511257">
        <ele>1080.1800000000001</ele>
        <time>2019-03-10T16:39:13Z</time>
      </trkpt>
      <trkpt lat="33.461198844015598" lon="-5.352719407528639">
        <ele>1081.1400000000001</ele>
        <time>2019-03-10T16:39:14Z</time>
      </trkpt>
      <trkpt lat="33.461142936721444" lon="-5.352576244622469">
        <ele>1084.99</ele>
        <time>2019-03-10T16:39:19Z</time>
      </trkpt>
      <trkpt lat="33.461104044690728" lon="-5.352426124736667">
        <ele>1092.2</ele>
        <time>2019-03-10T16:39:20Z</time>
      </trkpt>
      <trkpt lat="33.460908913984895" lon="-5.351611990481615">
        <ele>1097.48</ele>
        <time>2019-03-10T16:39:21Z</time>
      </trkpt>
      <trkpt lat="33.460832806304097" lon="-5.351450219750404">
        <ele>1098.4400000000001</ele>
        <time>2019-03-10T16:39:32Z</time>
      </trkpt>
      <trkpt lat="33.460735743865371" lon="-5.351292639970779">
        <ele>1099.8900000000001</ele>
        <time>2019-03-10T16:39:42Z</time>
      </trkpt>
      <trkpt lat="33.459627656266093" lon="-5.349668227136135">
        <ele>1100.3699999999999</ele>
        <time>2019-03-10T16:39:54Z</time>
      </trkpt>
      <trkpt lat="33.458993146196008" lon="-5.348015483468771">
        <ele>1101.3299999999999</ele>
        <time>2019-03-10T16:40:07Z</time>
      </trkpt>
      <trkpt lat="33.458292335271835" lon="-5.346161741763353">
        <ele>1102.29</ele>
        <time>2019-03-10T16:40:14Z</time>
      </trkpt>
      <trkpt lat="33.457565288990736" lon="-5.344174476340413">
        <ele>1103.25</ele>
        <time>2019-03-10T16:40:15Z</time>
      </trkpt>
      <trkpt lat="33.457120293751359" lon="-5.343059431761503">
        <ele>1112.3800000000001</ele>
        <time>2019-03-10T16:40:16Z</time>
      </trkpt>
      <trkpt lat="33.457035217434168" lon="-5.342920711264014">
        <ele>1125.3599999999999</ele>
        <time>2019-03-10T16:40:17Z</time>
      </trkpt>
      <trkpt lat="33.456940166652203" lon="-5.342792803421617">
        <ele>1129.6900000000001</ele>
        <time>2019-03-10T16:40:18Z</time>
      </trkpt>
      <trkpt lat="33.456833716481924" lon="-5.342676378786564">
        <ele>1126.8</ele>
        <time>2019-03-10T16:40:19Z</time>
      </trkpt>
      <trkpt lat="33.45671720802784" lon="-5.342570180073381">
        <ele>1125.3599999999999</ele>
        <time>2019-03-10T16:40:20Z</time>
      </trkpt>
      <trkpt lat="33.456591395661235" lon="-5.342475632205606">
        <ele>1124.8800000000001</ele>
        <time>2019-03-10T16:40:28Z</time>
      </trkpt>
      <trkpt lat="33.456461057066917" lon="-5.342384185642004">
        <ele>1114.3099999999999</ele>
        <time>2019-03-10T16:40:37Z</time>
      </trkpt>
      <trkpt lat="33.455261941999197" lon="-5.341798458248377">
        <ele>1108.54</ele>
        <time>2019-03-10T16:40:41Z</time>
      </trkpt>
      <trkpt lat="33.454053187742829" lon="-5.341272242367268">
        <ele>1105.6500000000001</ele>
        <time>2019-03-10T16:40:50Z</time>
      </trkpt>
      <trkpt lat="33.453691257163882" lon="-5.341190854087472">
        <ele>1107.5799999999999</ele>
        <time>2019-03-10T16:40:52Z</time>
      </trkpt>
      <trkpt lat="33.452627761289477" lon="-5.341097312048078">
        <ele>1107.5799999999999</ele>
        <time>2019-03-10T16:40:53Z</time>
      </trkpt>
      <trkpt lat="33.45233422704041" lon="-5.341039896011353">
        <ele>1107.0999999999999</ele>
        <time>2019-03-10T16:41:08Z</time>
      </trkpt>
      <trkpt lat="33.452184023335576" lon="-5.34098650328815">
        <ele>1094.5999999999999</ele>
        <time>2019-03-10T16:41:20Z</time>
      </trkpt>
      <trkpt lat="33.449841197580099" lon="-5.339998444542289">
        <ele>1089.79</ele>
        <time>2019-03-10T16:41:29Z</time>
      </trkpt>
      <trkpt lat="33.447802048176527" lon="-5.339125720784068">
        <ele>1093.1600000000001</ele>
        <time>2019-03-10T16:41:35Z</time>
      </trkpt>
      <trkpt lat="33.446470750495791" lon="-5.338324997574091">
        <ele>1101.3299999999999</ele>
        <time>2019-03-10T16:41:36Z</time>
      </trkpt>
      <trkpt lat="33.44567958265543" lon="-5.337783023715019">
        <ele>1106.1300000000001</ele>
        <time>2019-03-10T16:41:37Z</time>
      </trkpt>
      <trkpt lat="33.445564582943916" lon="-5.337657881900668">
        <ele>1106.6099999999999</ele>
        <time>2019-03-10T16:41:48Z</time>
      </trkpt>
      <trkpt lat="33.445457546040416" lon="-5.337522430345416">
        <ele>1107.0999999999999</ele>
        <time>2019-03-10T16:41:57Z</time>
      </trkpt>
      <trkpt lat="33.444472337141633" lon="-5.335969012230635">
        <ele>1108.0599999999999</ele>
        <time>2019-03-10T16:42:10Z</time>
      </trkpt>
      <trkpt lat="33.443811507895589" lon="-5.334696471691132">
        <ele>1109.02</ele>
        <time>2019-03-10T16:42:24Z</time>
      </trkpt>
      <trkpt lat="33.443079264834523" lon="-5.333101311698556">
        <ele>1109.98</ele>
        <time>2019-03-10T16:42:31Z</time>
      </trkpt>
      <trkpt lat="33.442314164713025" lon="-5.33145921304822">
        <ele>1110.46</ele>
        <time>2019-03-10T16:42:32Z</time>
      </trkpt>
      <trkpt lat="33.441874533891678" lon="-5.330426897853613">
        <ele>1115.75</ele>
        <time>2019-03-10T16:42:33Z</time>
      </trkpt>
      <trkpt lat="33.441837150603533" lon="-5.330257499590516">
        <ele>1117.1900000000001</ele>
        <time>2019-03-10T16:42:34Z</time>
      </trkpt>
      <trkpt lat="33.441810747608542" lon="-5.330085586756468">
        <ele>1118.6300000000001</ele>
        <time>2019-03-10T16:42:35Z</time>
      </trkpt>
      <trkpt lat="33.441795157268643" lon="-5.329913087189198">
        <ele>1133.05</ele>
        <time>2019-03-10T16:42:36Z</time>
      </trkpt>
      <trkpt lat="33.441791133955121" lon="-5.329741928726435">
        <ele>1134.49</ele>
        <time>2019-03-10T16:42:37Z</time>
      </trkpt>
      <trkpt lat="33.441796917468309" lon="-5.329574374482036">
        <ele>1135.9400000000001</ele>
        <time>2019-03-10T16:42:44Z</time>
      </trkpt>
      <trkpt lat="33.441810328513384" lon="-5.329409334808588">
        <ele>1137.3800000000001</ele>
        <time>2019-03-10T16:42:45Z</time>
      </trkpt>
      <trkpt lat="33.441928597167134" lon="-5.328231761232019">
        <ele>1138.8199999999999</ele>
        <time>2019-03-10T16:42:46Z</time>
      </trkpt>
      <trkpt lat="33.441922394558787" lon="-5.328063871711493">
        <ele>1139.78</ele>
        <time>2019-03-10T16:42:55Z</time>
      </trkpt>
      <trkpt lat="33.441906720399857" lon="-5.327898161485791">
        <ele>1153.72</ele>
        <time>2019-03-10T16:42:56Z</time>
      </trkpt>
      <trkpt lat="33.441668758168817" lon="-5.326395034790039">
        <ele>1155.6400000000001</ele>
        <time>2019-03-10T16:42:57Z</time>
      </trkpt>
      <trkpt lat="33.441617544740438" lon="-5.326244411990047">
        <ele>1157.0799999999999</ele>
        <time>2019-03-10T16:42:58Z</time>
      </trkpt>
      <trkpt lat="33.441550489515066" lon="-5.326105188578367">
        <ele>1158.05</ele>
        <time>2019-03-10T16:42:59Z</time>
      </trkpt>
      <trkpt lat="33.441468263044953" lon="-5.325981136411429">
        <ele>1159.97</ele>
        <time>2019-03-10T16:43:00Z</time>
      </trkpt>
      <trkpt lat="33.441373463720083" lon="-5.325870411470532">
        <ele>1160.9300000000001</ele>
        <time>2019-03-10T16:43:09Z</time>
      </trkpt>
      <trkpt lat="33.441274221986532" lon="-5.325767230242491">
        <ele>1162.3699999999999</ele>
        <time>2019-03-10T16:43:10Z</time>
      </trkpt>
      <trkpt lat="33.440391691401601" lon="-5.32483633607626">
        <ele>1163.8099999999999</ele>
        <time>2019-03-10T16:43:11Z</time>
      </trkpt>
      <trkpt lat="33.440294209867716" lon="-5.32478311099112">
        <ele>1164.77</ele>
        <time>2019-03-10T16:43:12Z</time>
      </trkpt>
      <trkpt lat="33.440188430249691" lon="-5.324766095727682">
        <ele>1165.74</ele>
        <time>2019-03-10T16:43:13Z</time>
      </trkpt>
      <trkpt lat="33.440084662288427" lon="-5.324786547571421">
        <ele>1166.7</ele>
        <time>2019-03-10T16:43:14Z</time>
      </trkpt>
      <trkpt lat="33.439992042258382" lon="-5.324839856475592">
        <ele>1168.1400000000001</ele>
        <time>2019-03-10T16:43:15Z</time>
      </trkpt>
      <trkpt lat="33.439919454976916" lon="-5.324915712699294">
        <ele>1169.0999999999999</ele>
        <time>2019-03-10T16:43:16Z</time>
      </trkpt>
      <trkpt lat="33.439866062253714" lon="-5.325007075443864">
        <ele>1170.0599999999999</ele>
        <time>2019-03-10T16:43:17Z</time>
      </trkpt>
      <trkpt lat="33.439829433336854" lon="-5.325114531442523">
        <ele>1171.02</ele>
        <time>2019-03-10T16:43:18Z</time>
      </trkpt>
      <trkpt lat="33.439806886017323" lon="-5.325234895572066">
        <ele>1172.47</ele>
        <time>2019-03-10T16:43:19Z</time>
      </trkpt>
      <trkpt lat="33.439785344526172" lon="-5.32535383477807">
        <ele>1173.4300000000001</ele>
        <time>2019-03-10T16:43:20Z</time>
      </trkpt>
      <trkpt lat="33.439753744751215" lon="-5.325466068461537">
        <ele>1174.3900000000001</ele>
        <time>2019-03-10T16:43:21Z</time>
      </trkpt>
      <trkpt lat="33.43970563262701" lon="-5.325567573308945">
        <ele>1178.71</ele>
        <time>2019-03-10T16:43:22Z</time>
      </trkpt>
      <trkpt lat="33.439643690362573" lon="-5.32565675675869">
        <ele>1180.1600000000001</ele>
        <time>2019-03-10T16:43:23Z</time>
      </trkpt>
      <trkpt lat="33.439571019262075" lon="-5.325732780620456">
        <ele>1184.48</ele>
        <time>2019-03-10T16:43:24Z</time>
      </trkpt>
      <trkpt lat="33.43948963098228" lon="-5.325797153636813">
        <ele>1185.4400000000001</ele>
        <time>2019-03-10T16:43:25Z</time>
      </trkpt>
      <trkpt lat="33.439401453360915" lon="-5.325848115608096">
        <ele>1186.8800000000001</ele>
        <time>2019-03-10T16:43:26Z</time>
      </trkpt>
      <trkpt lat="33.439306570217013" lon="-5.325888181105256">
        <ele>1187.8499999999999</ele>
        <time>2019-03-10T16:43:30Z</time>
      </trkpt>
      <trkpt lat="33.439206909388304" lon="-5.325919277966023">
        <ele>1188.8099999999999</ele>
        <time>2019-03-10T16:43:31Z</time>
      </trkpt>
      <trkpt lat="33.438768703490496" lon="-5.326084150001407">
        <ele>1189.77</ele>
        <time>2019-03-10T16:43:35Z</time>
      </trkpt>
      <trkpt lat="33.43867365270853" lon="-5.326150869950652">
        <ele>1190.25</ele>
        <time>2019-03-10T16:43:36Z</time>
      </trkpt>
      <trkpt lat="33.438315577805042" lon="-5.326416073367">
        <ele>1190.73</ele>
        <time>2019-03-10T16:43:37Z</time>
      </trkpt>
      <trkpt lat="33.438217509537935" lon="-5.326449852436781">
        <ele>1191.21</ele>
        <time>2019-03-10T16:43:38Z</time>
      </trkpt>
      <trkpt lat="33.438115920871496" lon="-5.326461335644126">
        <ele>1191.6900000000001</ele>
        <time>2019-03-10T16:43:39Z</time>
      </trkpt>
      <trkpt lat="33.438014248386025" lon="-5.326452199369669">
        <ele>1191.21</ele>
        <time>2019-03-10T16:43:40Z</time>
      </trkpt>
      <trkpt lat="33.437916683033109" lon="-5.326420180499554">
        <ele>1190.25</ele>
        <time>2019-03-10T16:43:41Z</time>
      </trkpt>
      <trkpt lat="33.437826074659824" lon="-5.326368128880858">
        <ele>1187.3699999999999</ele>
        <time>2019-03-10T16:43:42Z</time>
      </trkpt>
      <trkpt lat="33.437747033312917" lon="-5.326301576569676">
        <ele>1186.4000000000001</ele>
        <time>2019-03-10T16:43:43Z</time>
      </trkpt>
      <trkpt lat="33.437676290050149" lon="-5.326227229088545">
        <ele>1184.96</ele>
        <time>2019-03-10T16:43:47Z</time>
      </trkpt>
      <trkpt lat="33.437609067186713" lon="-5.326152294874191">
        <ele>1184</ele>
        <time>2019-03-10T16:43:48Z</time>
      </trkpt>
      <trkpt lat="33.43732014298439" lon="-5.32580528408289">
        <ele>1183.04</ele>
        <time>2019-03-10T16:43:49Z</time>
      </trkpt>
      <trkpt lat="33.437263565137982" lon="-5.325694642961025">
        <ele>1182.5599999999999</ele>
        <time>2019-03-10T16:43:52Z</time>
      </trkpt>
      <trkpt lat="33.437218386679888" lon="-5.325569501146674">
        <ele>1178.23</ele>
        <time>2019-03-10T16:43:53Z</time>
      </trkpt>
      <trkpt lat="33.437092741951346" lon="-5.325169349089265">
        <ele>1174.3900000000001</ele>
        <time>2019-03-10T16:43:54Z</time>
      </trkpt>
      <trkpt lat="33.437034403905272" lon="-5.325062479823828">
        <ele>1160.45</ele>
        <time>2019-03-10T16:43:55Z</time>
      </trkpt>
      <trkpt lat="33.436954440549016" lon="-5.324975894764066">
        <ele>1159.01</ele>
        <time>2019-03-10T16:43:56Z</time>
      </trkpt>
      <trkpt lat="33.436854863539338" lon="-5.324912695214152">
        <ele>1157.5599999999999</ele>
        <time>2019-03-10T16:43:57Z</time>
      </trkpt>
      <trkpt lat="33.436740534380078" lon="-5.324874809011817">
        <ele>1156.5999999999999</ele>
        <time>2019-03-10T16:44:02Z</time>
      </trkpt>
      <trkpt lat="33.436615979298949" lon="-5.324847232550383">
        <ele>1155.1600000000001</ele>
        <time>2019-03-10T16:44:05Z</time>
      </trkpt>
      <trkpt lat="33.435988426208496" lon="-5.324655873700976">
        <ele>1152.28</ele>
        <time>2019-03-10T16:44:17Z</time>
      </trkpt>
      <trkpt lat="33.435654742643237" lon="-5.324438195675612">
        <ele>1151.3199999999999</ele>
        <time>2019-03-10T16:44:18Z</time>
      </trkpt>
      <trkpt lat="33.434442719444633" lon="-5.323319965973496">
        <ele>1150.3499999999999</ele>
        <time>2019-03-10T16:44:19Z</time>
      </trkpt>
      <trkpt lat="33.434366444125772" lon="-5.323186526075006">
        <ele>1149.3900000000001</ele>
        <time>2019-03-10T16:44:20Z</time>
      </trkpt>
      <trkpt lat="33.434300227090716" lon="-5.323036825284362">
        <ele>1148.4300000000001</ele>
        <time>2019-03-10T16:44:21Z</time>
      </trkpt>
      <trkpt lat="33.434241805225611" lon="-5.32287891022861">
        <ele>1147.47</ele>
        <time>2019-03-10T16:44:23Z</time>
      </trkpt>
      <trkpt lat="33.434187909588218" lon="-5.322719486430287">
        <ele>1146.99</ele>
        <time>2019-03-10T16:44:24Z</time>
      </trkpt>
      <trkpt lat="33.434066036716104" lon="-5.322426622733474">
        <ele>1146.03</ele>
        <time>2019-03-10T16:44:25Z</time>
      </trkpt>
      <trkpt lat="33.433989426121116" lon="-5.322306761518121">
        <ele>1145.55</ele>
        <time>2019-03-10T16:44:26Z</time>
      </trkpt>
      <trkpt lat="33.433893956243992" lon="-5.322211878374219">
        <ele>1142.1800000000001</ele>
        <time>2019-03-10T16:44:27Z</time>
      </trkpt>
      <trkpt lat="33.433782560750842" lon="-5.322144823148847">
        <ele>1141.22</ele>
        <time>2019-03-10T16:44:28Z</time>
      </trkpt>
      <trkpt lat="33.433661861345172" lon="-5.322106769308448">
        <ele>1140.74</ele>
        <time>2019-03-10T16:44:29Z</time>
      </trkpt>
      <trkpt lat="33.433533618226647" lon="-5.322098303586245">
        <ele>1140.26</ele>
        <time>2019-03-10T16:44:30Z</time>
      </trkpt>
      <trkpt lat="33.43340671621263" lon="-5.32211665995419">
        <ele>1139.78</ele>
        <time>2019-03-10T16:44:31Z</time>
      </trkpt>
      <trkpt lat="33.433281071484089" lon="-5.322154378518462">
        <ele>1139.78</ele>
        <time>2019-03-10T16:44:36Z</time>
      </trkpt>
      <trkpt lat="33.433157354593277" lon="-5.322204753756523">
        <ele>1139.3</ele>
        <time>2019-03-10T16:44:37Z</time>
      </trkpt>
      <trkpt lat="33.432675898075104" lon="-5.32238052226603">
        <ele>1139.3</ele>
        <time>2019-03-10T16:44:38Z</time>
      </trkpt>
      <trkpt lat="33.432600544765592" lon="-5.322386976331472">
        <ele>1135.45</ele>
        <time>2019-03-10T16:44:39Z</time>
      </trkpt>
      <trkpt lat="33.432517228648067" lon="-5.322383204475045">
        <ele>1131.6099999999999</ele>
        <time>2019-03-10T16:44:40Z</time>
      </trkpt>
      <trkpt lat="33.432431565597653" lon="-5.322371637448669">
        <ele>1130.1700000000001</ele>
        <time>2019-03-10T16:44:41Z</time>
      </trkpt>
      <trkpt lat="33.432356882840395" lon="-5.322357472032309">
        <ele>1127.76</ele>
        <time>2019-03-10T16:44:42Z</time>
      </trkpt>
      <trkpt lat="33.432292761281133" lon="-5.322338026016951">
        <ele>1122.96</ele>
        <time>2019-03-10T16:44:43Z</time>
      </trkpt>
      <trkpt lat="33.432232579216361" lon="-5.322305504232645">
        <ele>1122.48</ele>
        <time>2019-03-10T16:44:53Z</time>
      </trkpt>
      <trkpt lat="33.432169631123543" lon="-5.32226275652647">
        <ele>1121.52</ele>
        <time>2019-03-10T16:45:01Z</time>
      </trkpt>
      <trkpt lat="33.43142188154161" lon="-5.321783814579248">
        <ele>1118.6300000000001</ele>
        <time>2019-03-10T16:45:10Z</time>
      </trkpt>
      <trkpt lat="33.430704977363348" lon="-5.321332113817334">
        <ele>1115.75</ele>
        <time>2019-03-10T16:45:20Z</time>
      </trkpt>
      <trkpt lat="33.430075412616134" lon="-5.32089114189148">
        <ele>1113.3399999999999</ele>
        <time>2019-03-10T16:45:30Z</time>
      </trkpt>
      <trkpt lat="33.429063968360424" lon="-5.320109529420734">
        <ele>1110.9400000000001</ele>
        <time>2019-03-10T16:45:31Z</time>
      </trkpt>
      <trkpt lat="33.427788075059652" lon="-5.319125996902585">
        <ele>1107.5799999999999</ele>
        <time>2019-03-10T16:45:32Z</time>
      </trkpt>
      <trkpt lat="33.427641475573182" lon="-5.319047542288899">
        <ele>1103.73</ele>
        <time>2019-03-10T16:45:41Z</time>
      </trkpt>
      <trkpt lat="33.427485153079033" lon="-5.318982247263193">
        <ele>1102.77</ele>
        <time>2019-03-10T16:45:49Z</time>
      </trkpt>
      <trkpt lat="33.42606458812952" lon="-5.318636829033494">
        <ele>1103.73</ele>
        <time>2019-03-10T16:45:58Z</time>
      </trkpt>
      <trkpt lat="33.425069572404027" lon="-5.318681923672557">
        <ele>1102.77</ele>
        <time>2019-03-10T16:46:12Z</time>
      </trkpt>
      <trkpt lat="33.424118561670184" lon="-5.318636829033494">
        <ele>1103.25</ele>
        <time>2019-03-10T16:46:22Z</time>
      </trkpt>
      <trkpt lat="33.422669162973762" lon="-5.318258302286267">
        <ele>1102.77</ele>
        <time>2019-03-10T16:46:31Z</time>
      </trkpt>
      <trkpt lat="33.421476669609547" lon="-5.317652458325028">
        <ele>1102.29</ele>
        <time>2019-03-10T16:46:38Z</time>
      </trkpt>
      <trkpt lat="33.420012183487415" lon="-5.317079639062285">
        <ele>1101.8099999999999</ele>
        <time>2019-03-10T16:46:46Z</time>
      </trkpt>
      <trkpt lat="33.419083300977945" lon="-5.31679792329669">
        <ele>1101.8099999999999</ele>
        <time>2019-03-10T16:46:54Z</time>
      </trkpt>
      <trkpt lat="33.418450970202684" lon="-5.316655598580837">
        <ele>1101.3299999999999</ele>
        <time>2019-03-10T16:47:06Z</time>
      </trkpt>
      <trkpt lat="33.417452266439795" lon="-5.316163077950478">
        <ele>1101.3299999999999</ele>
        <time>2019-03-10T16:47:15Z</time>
      </trkpt>
      <trkpt lat="33.41553264297545" lon="-5.315335197374225">
        <ele>1101.8099999999999</ele>
        <time>2019-03-10T16:47:26Z</time>
      </trkpt>
      <trkpt lat="33.414224060252309" lon="-5.314775118604302">
        <ele>1102.29</ele>
        <time>2019-03-10T16:47:29Z</time>
      </trkpt>
      <trkpt lat="33.41272353194654" lon="-5.31390817835927">
        <ele>1102.29</ele>
        <time>2019-03-10T16:47:30Z</time>
      </trkpt>
      <trkpt lat="33.412325391545892" lon="-5.313657307997346">
        <ele>1103.25</ele>
        <time>2019-03-10T16:47:31Z</time>
      </trkpt>
      <trkpt lat="33.412183485925198" lon="-5.313602657988668">
        <ele>1105.6500000000001</ele>
        <time>2019-03-10T16:47:32Z</time>
      </trkpt>
      <trkpt lat="33.412033701315522" lon="-5.313562927767634">
        <ele>1105.6500000000001</ele>
        <time>2019-03-10T16:47:33Z</time>
      </trkpt>
      <trkpt lat="33.411880731582642" lon="-5.313536692410708">
        <ele>1104.6900000000001</ele>
        <time>2019-03-10T16:47:34Z</time>
      </trkpt>
      <trkpt lat="33.411726672202349" lon="-5.313527137041092">
        <ele>1104.21</ele>
        <time>2019-03-10T16:47:35Z</time>
      </trkpt>
      <trkpt lat="33.411580240353942" lon="-5.313532501459122">
        <ele>1105.1700000000001</ele>
        <time>2019-03-10T16:47:36Z</time>
      </trkpt>
      <trkpt lat="33.411444034427404" lon="-5.313550271093845">
        <ele>1104.21</ele>
        <time>2019-03-10T16:47:44Z</time>
      </trkpt>
      <trkpt lat="33.411313276737928" lon="-5.313575165346265">
        <ele>1101.8099999999999</ele>
        <time>2019-03-10T16:47:45Z</time>
      </trkpt>
      <trkpt lat="33.410334521904588" lon="-5.313615901395679">
        <ele>1101.3299999999999</ele>
        <time>2019-03-10T16:47:53Z</time>
      </trkpt>
      <trkpt lat="33.410220444202423" lon="-5.313575081527233">
        <ele>1100.8499999999999</ele>
        <time>2019-03-10T16:48:04Z</time>
      </trkpt>
      <trkpt lat="33.409384768456221" lon="-5.313191609457135">
        <ele>1100.8499999999999</ele>
        <time>2019-03-10T16:48:13Z</time>
      </trkpt>
      <trkpt lat="33.408419089391828" lon="-5.312935207039118">
        <ele>1100.8499999999999</ele>
        <time>2019-03-10T16:48:23Z</time>
      </trkpt>
      <trkpt lat="33.407466989010572" lon="-5.312380073592067">
        <ele>1101.3299999999999</ele>
        <time>2019-03-10T16:48:32Z</time>
      </trkpt>
      <trkpt lat="33.406607760116458" lon="-5.311352871358395">
        <ele>1101.3299999999999</ele>
        <time>2019-03-10T16:48:39Z</time>
      </trkpt>
      <trkpt lat="33.405993534252048" lon="-5.310586178675294">
        <ele>1101.8099999999999</ele>
        <time>2019-03-10T16:48:48Z</time>
      </trkpt>
      <trkpt lat="33.405838385224342" lon="-5.310343690216541">
        <ele>1103.73</ele>
        <time>2019-03-10T16:48:49Z</time>
      </trkpt>
      <trkpt lat="33.405681727454066" lon="-5.309964576736093">
        <ele>1103.73</ele>
        <time>2019-03-10T16:48:50Z</time>
      </trkpt>
      <trkpt lat="33.40566529892385" lon="-5.309910932555795">
        <ele>1103.73</ele>
        <time>2019-03-10T16:48:51Z</time>
      </trkpt>
      <trkpt lat="33.405651971697807" lon="-5.3098432905972">
        <ele>1103.73</ele>
        <time>2019-03-10T16:48:52Z</time>
      </trkpt>
      <trkpt lat="33.405641661956906" lon="-5.309761734679341">
        <ele>1103.25</ele>
        <time>2019-03-10T16:48:53Z</time>
      </trkpt>
      <trkpt lat="33.405636716634035" lon="-5.309663750231266">
        <ele>1103.73</ele>
        <time>2019-03-10T16:49:02Z</time>
      </trkpt>
      <trkpt lat="33.405637219548225" lon="-5.309555707499385">
        <ele>1102.29</ele>
        <time>2019-03-10T16:49:04Z</time>
      </trkpt>
      <trkpt lat="33.405758505687118" lon="-5.308641325682402">
        <ele>1101.8099999999999</ele>
        <time>2019-03-10T16:49:10Z</time>
      </trkpt>
      <trkpt lat="33.405763702467084" lon="-5.308565301820636">
        <ele>1098.9200000000001</ele>
        <time>2019-03-10T16:49:11Z</time>
      </trkpt>
      <trkpt lat="33.405610313639045" lon="-5.308618862181902">
        <ele>1096.52</ele>
        <time>2019-03-10T16:49:23Z</time>
      </trkpt>
      <trkpt lat="33.405586760491133" lon="-5.308644426986575">
        <ele>1095.5599999999999</ele>
        <time>2019-03-10T16:49:24Z</time>
      </trkpt>
      <trkpt lat="33.4051463752985" lon="-5.309093864634633">
        <ele>1094.1199999999999</ele>
        <time>2019-03-10T16:49:34Z</time>
      </trkpt>
      <trkpt lat="33.405096838250756" lon="-5.309159075841308">
        <ele>1094.5999999999999</ele>
        <time>2019-03-10T16:49:38Z</time>
      </trkpt>
      <trkpt lat="33.404575400054455" lon="-5.310176052153111">
        <ele>1095.0799999999999</ele>
        <time>2019-03-10T16:49:48Z</time>
      </trkpt>
      <trkpt lat="33.404274741187692" lon="-5.310548963025212">
        <ele>1096.04</ele>
        <time>2019-03-10T16:49:51Z</time>
      </trkpt>
      <trkpt lat="33.403374524787068" lon="-5.311413640156388">
        <ele>1096.04</ele>
        <time>2019-03-10T16:49:53Z</time>
      </trkpt>
      <trkpt lat="33.403139999136329" lon="-5.311716562137008">
        <ele>1097</ele>
        <time>2019-03-10T16:50:02Z</time>
      </trkpt>
      <trkpt lat="33.403057185932994" lon="-5.311882020905614">
        <ele>1097.96</ele>
        <time>2019-03-10T16:50:06Z</time>
      </trkpt>
      <trkpt lat="33.402773039415479" lon="-5.312428437173367">
        <ele>1098.4400000000001</ele>
        <time>2019-03-10T16:50:12Z</time>
      </trkpt>
      <trkpt lat="33.402634151279926" lon="-5.312588699162006">
        <ele>1099.4000000000001</ele>
        <time>2019-03-10T16:50:17Z</time>
      </trkpt>
      <trkpt lat="33.402359476312995" lon="-5.312796654179692">
        <ele>1099.4000000000001</ele>
        <time>2019-03-10T16:50:23Z</time>
      </trkpt>
      <trkpt lat="33.40196343138814" lon="-5.312748877331615">
        <ele>1099.4000000000001</ele>
        <time>2019-03-10T16:50:29Z</time>
      </trkpt>
      <trkpt lat="33.401656653732061" lon="-5.312450146302581">
        <ele>1099.4000000000001</ele>
        <time>2019-03-10T16:50:36Z</time>
      </trkpt>
      <trkpt lat="33.401431683450937" lon="-5.311988806352019">
        <ele>1098.9200000000001</ele>
        <time>2019-03-10T16:50:38Z</time>
      </trkpt>
      <trkpt lat="33.401074362918735" lon="-5.311695858836174">
        <ele>1100.3699999999999</ele>
        <time>2019-03-10T16:50:49Z</time>
      </trkpt>
      <trkpt lat="33.400953831151128" lon="-5.311645986512303">
        <ele>1102.29</ele>
        <time>2019-03-10T16:50:53Z</time>
      </trkpt>
      <trkpt lat="33.400513026863337" lon="-5.311590330675244">
        <ele>1106.6099999999999</ele>
        <time>2019-03-10T16:50:57Z</time>
      </trkpt>
      <trkpt lat="33.400354022160172" lon="-5.311555964872241">
        <ele>1109.5</ele>
        <time>2019-03-10T16:51:01Z</time>
      </trkpt>
      <trkpt lat="33.400184120982885" lon="-5.311522269621491">
        <ele>1113.8199999999999</ele>
        <time>2019-03-10T16:51:09Z</time>
      </trkpt>
      <trkpt lat="33.40001480653882" lon="-5.311451023444533">
        <ele>1115.27</ele>
        <time>2019-03-10T16:51:20Z</time>
      </trkpt>
      <trkpt lat="33.399729654192924" lon="-5.311063025146723">
        <ele>1115.75</ele>
        <time>2019-03-10T16:51:28Z</time>
      </trkpt>
      <trkpt lat="33.399333693087101" lon="-5.310457181185484">
        <ele>1116.71</ele>
        <time>2019-03-10T16:51:38Z</time>
      </trkpt>
      <trkpt lat="33.39892222546041" lon="-5.309737510979176">
        <ele>1120.0699999999999</ele>
        <time>2019-03-10T16:51:42Z</time>
      </trkpt>
      <trkpt lat="33.398361308500171" lon="-5.308751463890076">
        <ele>1122.96</ele>
        <time>2019-03-10T16:51:50Z</time>
      </trkpt>
      <trkpt lat="33.398152515292168" lon="-5.308363381773233">
        <ele>1124.8800000000001</ele>
        <time>2019-03-10T16:51:56Z</time>
      </trkpt>
      <trkpt lat="33.397827381268144" lon="-5.307789640501142">
        <ele>1130.1700000000001</ele>
        <time>2019-03-10T16:52:03Z</time>
      </trkpt>
      <trkpt lat="33.397772731259465" lon="-5.307555366307497">
        <ele>1131.6099999999999</ele>
        <time>2019-03-10T16:52:09Z</time>
      </trkpt>
      <trkpt lat="33.397559160366654" lon="-5.307230232283473">
        <ele>1133.05</ele>
        <time>2019-03-10T16:52:22Z</time>
      </trkpt>
      <trkpt lat="33.397448351606727" lon="-5.307100228965282">
        <ele>1135.45</ele>
        <time>2019-03-10T16:52:30Z</time>
      </trkpt>
      <trkpt lat="33.396872514858842" lon="-5.306617515161634">
        <ele>1138.3399999999999</ele>
        <time>2019-03-10T16:52:36Z</time>
      </trkpt>
      <trkpt lat="33.396261222660542" lon="-5.306191295385361">
        <ele>1137.8599999999999</ele>
        <time>2019-03-10T16:52:48Z</time>
      </trkpt>
      <trkpt lat="33.395770462229848" lon="-5.30582089908421">
        <ele>1137.8599999999999</ele>
        <time>2019-03-10T16:52:50Z</time>
      </trkpt>
      <trkpt lat="33.394561456516385" lon="-5.305073065683246">
        <ele>1138.3399999999999</ele>
        <time>2019-03-10T16:52:52Z</time>
      </trkpt>
      <trkpt lat="33.394337994977832" lon="-5.304971728473902">
        <ele>1138.3399999999999</ele>
        <time>2019-03-10T16:52:55Z</time>
      </trkpt>
      <trkpt lat="33.394129620864987" lon="-5.304845497012138">
        <ele>1138.3399999999999</ele>
        <time>2019-03-10T16:53:02Z</time>
      </trkpt>
      <trkpt lat="33.393820747733116" lon="-5.304691521450877">
        <ele>1137.3800000000001</ele>
        <time>2019-03-10T16:53:10Z</time>
      </trkpt>
      <trkpt lat="33.393121361732483" lon="-5.304301343858242">
        <ele>1136.9000000000001</ele>
        <time>2019-03-10T16:53:12Z</time>
      </trkpt>
      <trkpt lat="33.392502358183265" lon="-5.304039912298322">
        <ele>1136.9000000000001</ele>
        <time>2019-03-10T16:53:20Z</time>
      </trkpt>
      <trkpt lat="33.392410073429346" lon="-5.304009821265936">
        <ele>1137.8599999999999</ele>
        <time>2019-03-10T16:53:29Z</time>
      </trkpt>
      <trkpt lat="33.391851671040058" lon="-5.303845955058932">
        <ele>1138.8199999999999</ele>
        <time>2019-03-10T16:53:31Z</time>
      </trkpt>
      <trkpt lat="33.390995040535927" lon="-5.303593743592501">
        <ele>1137.8599999999999</ele>
        <time>2019-03-10T16:53:35Z</time>
      </trkpt>
      <trkpt lat="33.390825809910893" lon="-5.303545631468296">
        <ele>1137.8599999999999</ele>
        <time>2019-03-10T16:53:46Z</time>
      </trkpt>
      <trkpt lat="33.390616094693542" lon="-5.303517216816545">
        <ele>1138.3399999999999</ele>
        <time>2019-03-10T16:53:52Z</time>
      </trkpt>
      <trkpt lat="33.39001108892262" lon="-5.303340526297689">
        <ele>1138.8199999999999</ele>
        <time>2019-03-10T16:53:55Z</time>
      </trkpt>
      <trkpt lat="33.389414632692933" lon="-5.30330297537148">
        <ele>1138.8199999999999</ele>
        <time>2019-03-10T16:53:59Z</time>
      </trkpt>
      <trkpt lat="33.389112800359726" lon="-5.303319236263633">
        <ele>1138.8199999999999</ele>
        <time>2019-03-10T16:54:08Z</time>
      </trkpt>
      <trkpt lat="33.388789426535368" lon="-5.303311105817556">
        <ele>1140.74</ele>
        <time>2019-03-10T16:54:20Z</time>
      </trkpt>
      <trkpt lat="33.388000102713704" lon="-5.303306747227907">
        <ele>1143.6300000000001</ele>
        <time>2019-03-10T16:54:27Z</time>
      </trkpt>
      <trkpt lat="33.387269033119082" lon="-5.30321647413075">
        <ele>1144.1099999999999</ele>
        <time>2019-03-10T16:54:36Z</time>
      </trkpt>
      <trkpt lat="33.387155709788203" lon="-5.303182695060968">
        <ele>1150.8399999999999</ele>
        <time>2019-03-10T16:54:37Z</time>
      </trkpt>
      <trkpt lat="33.387084882706404" lon="-5.303192418068647">
        <ele>1155.1600000000001</ele>
        <time>2019-03-10T16:54:38Z</time>
      </trkpt>
      <trkpt lat="33.387054456397891" lon="-5.303222257643938">
        <ele>1160.45</ele>
        <time>2019-03-10T16:54:46Z</time>
      </trkpt>
      <trkpt lat="33.387022353708744" lon="-5.303258886560798">
        <ele>1166.22</ele>
        <time>2019-03-10T16:54:53Z</time>
      </trkpt>
      <trkpt lat="33.386616921052337" lon="-5.303757777437568">
        <ele>1170.0599999999999</ele>
        <time>2019-03-10T16:54:54Z</time>
      </trkpt>
      <trkpt lat="33.386039827018976" lon="-5.304383235052228">
        <ele>1178.71</ele>
        <time>2019-03-10T16:55:08Z</time>
      </trkpt>
      <trkpt lat="33.385943351313472" lon="-5.304450038820505">
        <ele>1184.48</ele>
        <time>2019-03-10T16:55:17Z</time>
      </trkpt>
      <trkpt lat="33.384450115263462" lon="-5.305308764800429">
        <ele>1186.8800000000001</ele>
        <time>2019-03-10T16:55:30Z</time>
      </trkpt>
      <trkpt lat="33.383455434814095" lon="-5.306095238775015">
        <ele>1185.9200000000001</ele>
        <time>2019-03-10T16:55:42Z</time>
      </trkpt>
      <trkpt lat="33.381907129660249" lon="-5.307044489309192">
        <ele>1185.4400000000001</ele>
        <time>2019-03-10T16:55:53Z</time>
      </trkpt>
      <trkpt lat="33.380365110933781" lon="-5.307904807850719">
        <ele>1187.8499999999999</ele>
        <time>2019-03-10T16:56:06Z</time>
      </trkpt>
      <trkpt lat="33.378750840201974" lon="-5.308859255164862">
        <ele>1187.8499999999999</ele>
        <time>2019-03-10T16:56:15Z</time>
      </trkpt>
      <trkpt lat="33.376761395484209" lon="-5.309758214280009">
        <ele>1188.8099999999999</ele>
        <time>2019-03-10T16:56:21Z</time>
      </trkpt>
      <trkpt lat="33.375654648989439" lon="-5.310300104320049">
        <ele>1188.8099999999999</ele>
        <time>2019-03-10T16:56:31Z</time>
      </trkpt>
      <trkpt lat="33.375366814434528" lon="-5.310414014384151">
        <ele>1189.29</ele>
        <time>2019-03-10T16:56:41Z</time>
      </trkpt>
      <trkpt lat="33.375290120020509" lon="-5.310413260012865">
        <ele>1189.29</ele>
        <time>2019-03-10T16:56:52Z</time>
      </trkpt>
      <trkpt lat="33.37507763877511" lon="-5.310413930565119">
        <ele>1192.1700000000001</ele>
        <time>2019-03-10T16:56:56Z</time>
      </trkpt>
      <trkpt lat="33.374149594455957" lon="-5.310496324673295">
        <ele>1193.6099999999999</ele>
        <time>2019-03-10T16:57:06Z</time>
      </trkpt>
      <trkpt lat="33.373845415189862" lon="-5.310506382957101">
        <ele>1195.54</ele>
        <time>2019-03-10T16:57:13Z</time>
      </trkpt>
      <trkpt lat="33.373234374448657" lon="-5.310449888929725">
        <ele>1197.9400000000001</ele>
        <time>2019-03-10T16:57:16Z</time>
      </trkpt>
      <trkpt lat="33.372870516031981" lon="-5.31038518063724">
        <ele>1198.9000000000001</ele>
        <time>2019-03-10T16:57:20Z</time>
      </trkpt>
      <trkpt lat="33.372676139697433" lon="-5.310438489541411">
        <ele>1201.79</ele>
        <time>2019-03-10T16:57:29Z</time>
      </trkpt>
      <trkpt lat="33.372387634590268" lon="-5.310456175357103">
        <ele>1202.75</ele>
        <time>2019-03-10T16:57:34Z</time>
      </trkpt>
      <trkpt lat="33.371691601350904" lon="-5.310359029099345">
        <ele>1203.71</ele>
        <time>2019-03-10T16:57:40Z</time>
      </trkpt>
      <trkpt lat="33.371318690478802" lon="-5.31033044680953">
        <ele>1204.6700000000001</ele>
        <time>2019-03-10T16:57:48Z</time>
      </trkpt>
      <trkpt lat="33.37090864777565" lon="-5.310270097106695">
        <ele>1204.1900000000001</ele>
        <time>2019-03-10T16:57:50Z</time>
      </trkpt>
      <trkpt lat="33.370505226776004" lon="-5.310465395450592">
        <ele>1202.75</ele>
        <time>2019-03-10T16:57:59Z</time>
      </trkpt>
      <trkpt lat="33.370400201529264" lon="-5.310495905578136">
        <ele>1202.75</ele>
        <time>2019-03-10T16:58:05Z</time>
      </trkpt>
      <trkpt lat="33.36979947052896" lon="-5.310398424044251">
        <ele>1202.75</ele>
        <time>2019-03-10T16:58:08Z</time>
      </trkpt>
      <trkpt lat="33.36923704482615" lon="-5.310373697429895">
        <ele>1204.1900000000001</ele>
        <time>2019-03-10T16:58:12Z</time>
      </trkpt>
      <trkpt lat="33.369036801159382" lon="-5.310416696593165">
        <ele>1209.48</ele>
        <time>2019-03-10T16:58:17Z</time>
      </trkpt>
      <trkpt lat="33.368896152824163" lon="-5.31038367189467">
        <ele>1212.3599999999999</ele>
        <time>2019-03-10T16:58:29Z</time>
      </trkpt>
      <trkpt lat="33.368700183928013" lon="-5.31027521006763">
        <ele>1212.8399999999999</ele>
        <time>2019-03-10T16:58:31Z</time>
      </trkpt>
      <trkpt lat="33.368277652189136" lon="-5.310255512595177">
        <ele>1213.3199999999999</ele>
        <time>2019-03-10T16:58:34Z</time>
      </trkpt>
      <trkpt lat="33.368230629712343" lon="-5.310236569494009">
        <ele>1217.6500000000001</ele>
        <time>2019-03-10T16:58:38Z</time>
      </trkpt>
      <trkpt lat="33.368107080459595" lon="-5.310173202306032">
        <ele>1220.05</ele>
        <time>2019-03-10T16:58:47Z</time>
      </trkpt>
      <trkpt lat="33.367849504575133" lon="-5.310101620852947">
        <ele>1221.97</ele>
        <time>2019-03-10T16:58:52Z</time>
      </trkpt>
      <trkpt lat="33.36711491458118" lon="-5.31025274656713">
        <ele>1226.3</ele>
        <time>2019-03-10T16:58:57Z</time>
      </trkpt>
      <trkpt lat="33.366760611534119" lon="-5.310124754905701">
        <ele>1228.22</ele>
        <time>2019-03-10T16:58:59Z</time>
      </trkpt>
      <trkpt lat="33.366383006796241" lon="-5.309829711914063">
        <ele>1232.55</ele>
        <time>2019-03-10T16:59:07Z</time>
      </trkpt>
      <trkpt lat="33.3662348985672" lon="-5.309688309207559">
        <ele>1238.8</ele>
        <time>2019-03-10T16:59:11Z</time>
      </trkpt>
      <trkpt lat="33.365513049066067" lon="-5.309387985616922">
        <ele>1239.28</ele>
        <time>2019-03-10T16:59:14Z</time>
      </trkpt>
      <trkpt lat="33.365124044939876" lon="-5.309237614274025">
        <ele>1237.8299999999999</ele>
        <time>2019-03-10T16:59:20Z</time>
      </trkpt>
      <trkpt lat="33.364867558702826" lon="-5.309098139405251">
        <ele>1233.99</ele>
        <time>2019-03-10T16:59:27Z</time>
      </trkpt>
      <trkpt lat="33.364398591220379" lon="-5.309035107493401">
        <ele>1233.03</ele>
        <time>2019-03-10T16:59:38Z</time>
      </trkpt>
      <trkpt lat="33.364285854622722" lon="-5.309164775535464">
        <ele>1231.1099999999999</ele>
        <time>2019-03-10T16:59:47Z</time>
      </trkpt>
      <trkpt lat="33.364404793828726" lon="-5.309595270082355">
        <ele>1231.1099999999999</ele>
        <time>2019-03-10T16:59:48Z</time>
      </trkpt>
      <trkpt lat="33.364578718319535" lon="-5.310333129018545">
        <ele>1232.0699999999999</ele>
        <time>2019-03-10T16:59:52Z</time>
      </trkpt>
      <trkpt lat="33.364600008353591" lon="-5.310422396287322">
        <ele>1232.55</ele>
        <time>2019-03-10T16:59:59Z</time>
      </trkpt>
      <trkpt lat="33.364610066637397" lon="-5.310874348506331">
        <ele>1233.99</ele>
        <time>2019-03-10T17:00:02Z</time>
      </trkpt>
      <trkpt lat="33.364508897066116" lon="-5.311664091423154">
        <ele>1237.3499999999999</ele>
        <time>2019-03-10T17:00:08Z</time>
      </trkpt>
      <trkpt lat="33.364431532099843" lon="-5.311917057260871">
        <ele>1238.8</ele>
        <time>2019-03-10T17:00:10Z</time>
      </trkpt>
      <trkpt lat="33.364478470757604" lon="-5.312155103310943">
        <ele>1239.76</ele>
        <time>2019-03-10T17:00:18Z</time>
      </trkpt>
      <trkpt lat="33.364550638943911" lon="-5.312208496034145">
        <ele>1242.6400000000001</ele>
        <time>2019-03-10T17:00:21Z</time>
      </trkpt>
      <trkpt lat="33.364858087152243" lon="-5.312609151005745">
        <ele>1244.0799999999999</ele>
        <time>2019-03-10T17:00:26Z</time>
      </trkpt>
      <trkpt lat="33.364960262551904" lon="-5.312741082161665">
        <ele>1245.04</ele>
        <time>2019-03-10T17:00:31Z</time>
      </trkpt>
      <trkpt lat="33.36525128223002" lon="-5.312945013865829">
        <ele>1246.49</ele>
        <time>2019-03-10T17:00:33Z</time>
      </trkpt>
      <trkpt lat="33.365525454282761" lon="-5.313163110986352">
        <ele>1246.97</ele>
        <time>2019-03-10T17:00:35Z</time>
      </trkpt>
      <trkpt lat="33.365619163960218" lon="-5.31324508599937">
        <ele>1247.45</ele>
        <time>2019-03-10T17:00:41Z</time>
      </trkpt>
      <trkpt lat="33.365715723484755" lon="-5.313315242528915">
        <ele>1247.9300000000001</ele>
        <time>2019-03-10T17:00:51Z</time>
      </trkpt>
      <trkpt lat="33.365967012941837" lon="-5.313525125384331">
        <ele>1248.8900000000001</ele>
        <time>2019-03-10T17:01:00Z</time>
      </trkpt>
      <trkpt lat="33.366134315729141" lon="-5.313782868906856">
        <ele>1255.1400000000001</ele>
        <time>2019-03-10T17:01:10Z</time>
      </trkpt>
      <trkpt lat="33.36624713614583" lon="-5.314038684591651">
        <ele>1258.98</ele>
        <time>2019-03-10T17:01:11Z</time>
      </trkpt>
      <trkpt lat="33.366419970989227" lon="-5.314773609861732">
        <ele>1266.6700000000001</ele>
        <time>2019-03-10T17:01:12Z</time>
      </trkpt>
      <trkpt lat="33.366429358720779" lon="-5.314836138859391">
        <ele>1269.0799999999999</ele>
        <time>2019-03-10T17:01:13Z</time>
      </trkpt>
      <trkpt lat="33.366430448368192" lon="-5.314887268468738">
        <ele>1268.5999999999999</ele>
        <time>2019-03-10T17:01:15Z</time>
      </trkpt>
      <trkpt lat="33.366419216617942" lon="-5.314922891557217">
        <ele>1268.1199999999999</ele>
        <time>2019-03-10T17:01:23Z</time>
      </trkpt>
      <trkpt lat="33.36635953746736" lon="-5.314944852143526">
        <ele>1269.5599999999999</ele>
        <time>2019-03-10T17:01:28Z</time>
      </trkpt>
      <trkpt lat="33.365999115630984" lon="-5.315066557377577">
        <ele>1270.04</ele>
        <time>2019-03-10T17:01:38Z</time>
      </trkpt>
      <trkpt lat="33.365736762061715" lon="-5.315150879323483">
        <ele>1271</ele>
        <time>2019-03-10T17:01:46Z</time>
      </trkpt>
      <trkpt lat="33.365099485963583" lon="-5.31552798114717">
        <ele>1276.77</ele>
        <time>2019-03-10T17:01:52Z</time>
      </trkpt>
      <trkpt lat="33.364785583689809" lon="-5.315479785203934">
        <ele>1277.73</ele>
        <time>2019-03-10T17:02:01Z</time>
      </trkpt>
      <trkpt lat="33.364567654207349" lon="-5.315516833215952">
        <ele>1282.0599999999999</ele>
        <time>2019-03-10T17:02:11Z</time>
      </trkpt>
      <trkpt lat="33.364393562078476" lon="-5.315864263102412">
        <ele>1284.9400000000001</ele>
        <time>2019-03-10T17:02:13Z</time>
      </trkpt>
      <trkpt lat="33.364249644801021" lon="-5.31617347151041">
        <ele>1289.27</ele>
        <time>2019-03-10T17:02:17Z</time>
      </trkpt>
      <trkpt lat="33.364215195178986" lon="-5.316239101812244">
        <ele>1287.8199999999999</ele>
        <time>2019-03-10T17:02:28Z</time>
      </trkpt>
      <trkpt lat="33.364081755280495" lon="-5.316280676051974">
        <ele>1290.23</ele>
        <time>2019-03-10T17:02:29Z</time>
      </trkpt>
      <trkpt lat="33.363311961293221" lon="-5.316144973039627">
        <ele>1292.1500000000001</ele>
        <time>2019-03-10T17:02:33Z</time>
      </trkpt>
      <trkpt lat="33.363224705681205" lon="-5.316136591136456">
        <ele>1303.2</ele>
        <time>2019-03-10T17:02:40Z</time>
      </trkpt>
      <trkpt lat="33.362988084554672" lon="-5.316163916140795">
        <ele>1308.97</ele>
        <time>2019-03-10T17:02:47Z</time>
      </trkpt>
      <trkpt lat="33.3626205381006" lon="-5.315935174003243">
        <ele>1311.8599999999999</ele>
        <time>2019-03-10T17:02:56Z</time>
      </trkpt>
      <trkpt lat="33.362243268638849" lon="-5.315576763823628">
        <ele>1318.5899999999999</ele>
        <time>2019-03-10T17:03:00Z</time>
      </trkpt>
      <trkpt lat="33.362065069377422" lon="-5.314653748646379">
        <ele>1320.51</ele>
        <time>2019-03-10T17:03:03Z</time>
      </trkpt>
      <trkpt lat="33.361837835982442" lon="-5.314571857452393">
        <ele>1325.8</ele>
        <time>2019-03-10T17:03:15Z</time>
      </trkpt>
      <trkpt lat="33.361630132421851" lon="-5.314577557146549">
        <ele>1331.5599999999999</ele>
        <time>2019-03-10T17:03:24Z</time>
      </trkpt>
      <trkpt lat="33.360800156369805" lon="-5.314610162749887">
        <ele>1336.8499999999999</ele>
        <time>2019-03-10T17:03:27Z</time>
      </trkpt>
      <trkpt lat="33.360080402344465" lon="-5.314523577690125">
        <ele>1346.9400000000001</ele>
        <time>2019-03-10T17:03:34Z</time>
      </trkpt>
      <trkpt lat="33.359890216961503" lon="-5.31442953273654">
        <ele>1358</ele>
        <time>2019-03-10T17:03:36Z</time>
      </trkpt>
      <trkpt lat="33.35959542542696" lon="-5.314543526619673">
        <ele>1362.3299999999999</ele>
        <time>2019-03-10T17:03:42Z</time>
      </trkpt>
      <trkpt lat="33.359534656628966" lon="-5.31466162763536">
        <ele>1362.8099999999999</ele>
        <time>2019-03-10T17:03:48Z</time>
      </trkpt>
      <trkpt lat="33.359216647222638" lon="-5.314746703952551">
        <ele>1364.25</ele>
        <time>2019-03-10T17:03:52Z</time>
      </trkpt>
      <trkpt lat="33.358828397467732" lon="-5.314667327329516">
        <ele>1367.6099999999999</ele>
        <time>2019-03-10T17:04:01Z</time>
      </trkpt>
      <trkpt lat="33.358636535704136" lon="-5.314496923238039">
        <ele>1367.6099999999999</ele>
        <time>2019-03-10T17:04:12Z</time>
      </trkpt>
      <trkpt lat="33.358301511034369" lon="-5.313987135887146">
        <ele>1368.0899999999999</ele>
        <time>2019-03-10T17:04:21Z</time>
      </trkpt>
      <trkpt lat="33.3579580206424" lon="-5.313612800091505">
        <ele>1371.9400000000001</ele>
        <time>2019-03-10T17:04:22Z</time>
      </trkpt>
      <trkpt lat="33.357720393687487" lon="-5.313270064070821">
        <ele>1377.71</ele>
        <time>2019-03-10T17:04:25Z</time>
      </trkpt>
      <trkpt lat="33.357687620446086" lon="-5.313225220888853">
        <ele>1380.1099999999999</ele>
        <time>2019-03-10T17:04:32Z</time>
      </trkpt>
      <trkpt lat="33.357558036223054" lon="-5.313067808747292">
        <ele>1384.4400000000001</ele>
        <time>2019-03-10T17:04:34Z</time>
      </trkpt>
      <trkpt lat="33.357426188886166" lon="-5.312804700806737">
        <ele>1388.28</ele>
        <time>2019-03-10T17:04:38Z</time>
      </trkpt>
      <trkpt lat="33.357393750920892" lon="-5.312700178474188">
        <ele>1389.72</ele>
        <time>2019-03-10T17:04:43Z</time>
      </trkpt>
      <trkpt lat="33.3572793379426" lon="-5.312488451600075">
        <ele>1390.2</ele>
        <time>2019-03-10T17:04:50Z</time>
      </trkpt>
      <trkpt lat="33.357156291604042" lon="-5.312126940116286">
        <ele>1390.2</ele>
        <time>2019-03-10T17:04:52Z</time>
      </trkpt>
      <trkpt lat="33.356787906959653" lon="-5.311899455264211">
        <ele>1390.6800000000001</ele>
        <time>2019-03-10T17:04:57Z</time>
      </trkpt>
      <trkpt lat="33.35666611790657" lon="-5.311809265986085">
        <ele>1395.49</ele>
        <time>2019-03-10T17:05:03Z</time>
      </trkpt>
      <trkpt lat="33.356465455144644" lon="-5.311491927132011">
        <ele>1396.9300000000001</ele>
        <time>2019-03-10T17:05:07Z</time>
      </trkpt>
      <trkpt lat="33.356367219239473" lon="-5.310968644917011">
        <ele>1401.26</ele>
        <time>2019-03-10T17:05:11Z</time>
      </trkpt>
      <trkpt lat="33.356404770165682" lon="-5.31067150644958">
        <ele>1400.78</ele>
        <time>2019-03-10T17:05:17Z</time>
      </trkpt>
      <trkpt lat="33.356574503704906" lon="-5.310369674116373">
        <ele>1398.3699999999999</ele>
        <time>2019-03-10T17:05:21Z</time>
      </trkpt>
      <trkpt lat="33.35663627833128" lon="-5.309900622814894">
        <ele>1398.8599999999999</ele>
        <time>2019-03-10T17:05:28Z</time>
      </trkpt>
      <trkpt lat="33.356620855629444" lon="-5.30968839302659">
        <ele>1399.8199999999999</ele>
        <time>2019-03-10T17:05:31Z</time>
      </trkpt>
      <trkpt lat="33.356498228386045" lon="-5.309281870722771">
        <ele>1400.78</ele>
        <time>2019-03-10T17:05:38Z</time>
      </trkpt>
      <trkpt lat="33.356458498165011" lon="-5.309090008959174">
        <ele>1400.78</ele>
        <time>2019-03-10T17:05:48Z</time>
      </trkpt>
      <trkpt lat="33.356303600594401" lon="-5.308736879378557">
        <ele>1401.74</ele>
        <time>2019-03-10T17:05:54Z</time>
      </trkpt>
      <trkpt lat="33.356316844001412" lon="-5.307844206690788">
        <ele>1400.3</ele>
        <time>2019-03-10T17:06:03Z</time>
      </trkpt>
      <trkpt lat="33.356314664706588" lon="-5.307259736582637">
        <ele>1397.8900000000001</ele>
        <time>2019-03-10T17:06:07Z</time>
      </trkpt>
      <trkpt lat="33.356521781533957" lon="-5.30636228621006">
        <ele>1395.01</ele>
        <time>2019-03-10T17:06:13Z</time>
      </trkpt>
      <trkpt lat="33.356633260846138" lon="-5.306087443605065">
        <ele>1394.05</ele>
        <time>2019-03-10T17:06:17Z</time>
      </trkpt>
      <trkpt lat="33.35671205073595" lon="-5.305690728127956">
        <ele>1394.05</ele>
        <time>2019-03-10T17:06:24Z</time>
      </trkpt>
      <trkpt lat="33.356616664677858" lon="-5.305332653224468">
        <ele>1395.49</ele>
        <time>2019-03-10T17:06:27Z</time>
      </trkpt>
      <trkpt lat="33.356380378827453" lon="-5.304703004658222">
        <ele>1396.45</ele>
        <time>2019-03-10T17:06:32Z</time>
      </trkpt>
      <trkpt lat="33.356369649991393" lon="-5.304417349398136">
        <ele>1397.4100000000001</ele>
        <time>2019-03-10T17:06:43Z</time>
      </trkpt>
      <trkpt lat="33.356176111847162" lon="-5.304008647799492">
        <ele>1399.8199999999999</ele>
        <time>2019-03-10T17:06:46Z</time>
      </trkpt>
      <trkpt lat="33.355533219873905" lon="-5.30314807780087">
        <ele>1403.1800000000001</ele>
        <time>2019-03-10T17:06:53Z</time>
      </trkpt>
      <trkpt lat="33.355296934023499" lon="-5.302885975688696">
        <ele>1414.24</ele>
        <time>2019-03-10T17:06:57Z</time>
      </trkpt>
      <trkpt lat="33.354775914922357" lon="-5.302220117300749">
        <ele>1420</ele>
        <time>2019-03-10T17:07:01Z</time>
      </trkpt>
      <trkpt lat="33.354485481977463" lon="-5.301834382116795">
        <ele>1422.8900000000001</ele>
        <time>2019-03-10T17:07:04Z</time>
      </trkpt>
      <trkpt lat="33.354314239695668" lon="-5.301574962213635">
        <ele>1423.8499999999999</ele>
        <time>2019-03-10T17:07:08Z</time>
      </trkpt>
      <trkpt lat="33.354238383471966" lon="-5.301332641392946">
        <ele>1425.77</ele>
        <time>2019-03-10T17:07:12Z</time>
      </trkpt>
      <trkpt lat="33.354028835892677" lon="-5.301022091880441">
        <ele>1429.1400000000001</ele>
        <time>2019-03-10T17:07:22Z</time>
      </trkpt>
      <trkpt lat="33.353842757642269" lon="-5.300633339211345">
        <ele>1435.3900000000001</ele>
        <time>2019-03-10T17:07:26Z</time>
      </trkpt>
      <trkpt lat="33.353168182075024" lon="-5.2996582724154">
        <ele>1444.52</ele>
        <time>2019-03-10T17:07:32Z</time>
      </trkpt>
      <trkpt lat="33.352831564843655" lon="-5.299394158646464">
        <ele>1457.5</ele>
        <time>2019-03-10T17:07:34Z</time>
      </trkpt>
      <trkpt lat="33.352629309520125" lon="-5.299128368496895">
        <ele>1467.1099999999999</ele>
        <time>2019-03-10T17:07:39Z</time>
      </trkpt>
      <trkpt lat="33.352537276223302" lon="-5.299020828679204">
        <ele>1475.28</ele>
        <time>2019-03-10T17:07:49Z</time>
      </trkpt>
      <trkpt lat="33.352538952603936" lon="-5.298672560602427">
        <ele>1483.45</ele>
        <time>2019-03-10T17:07:54Z</time>
      </trkpt>
      <trkpt lat="33.352886131033301" lon="-5.297673186287284">
        <ele>1492.0999999999999</ele>
        <time>2019-03-10T17:07:58Z</time>
      </trkpt>
      <trkpt lat="33.352984031662345" lon="-5.297126937657595">
        <ele>1499.79</ele>
        <time>2019-03-10T17:08:05Z</time>
      </trkpt>
      <trkpt lat="33.352950839325786" lon="-5.29665956273675">
        <ele>1522.8699999999999</ele>
        <time>2019-03-10T17:08:11Z</time>
      </trkpt>
      <trkpt lat="33.3527497574687" lon="-5.295889936387539">
        <ele>1525.27</ele>
        <time>2019-03-10T17:08:15Z</time>
      </trkpt>
      <trkpt lat="33.352495450526476" lon="-5.295423399657011">
        <ele>1530.5599999999999</ele>
        <time>2019-03-10T17:08:19Z</time>
      </trkpt>
      <trkpt lat="33.352249944582582" lon="-5.295202117413282">
        <ele>1531.04</ele>
        <time>2019-03-10T17:08:24Z</time>
      </trkpt>
      <trkpt lat="33.351973509415984" lon="-5.295056188479066">
        <ele>1533.4400000000001</ele>
        <time>2019-03-10T17:08:28Z</time>
      </trkpt>
      <trkpt lat="33.351541925221682" lon="-5.294984020292759">
        <ele>1533.9200000000001</ele>
        <time>2019-03-10T17:08:38Z</time>
      </trkpt>
      <trkpt lat="33.351190388202667" lon="-5.294869104400277">
        <ele>1534.8800000000001</ele>
        <time>2019-03-10T17:08:39Z</time>
      </trkpt>
      <trkpt lat="33.350277012214065" lon="-5.294939680024982">
        <ele>1538.25</ele>
        <time>2019-03-10T17:08:46Z</time>
      </trkpt>
      <trkpt lat="33.350204927846789" lon="-5.294945631176233">
        <ele>1547.8599999999999</ele>
        <time>2019-03-10T17:08:48Z</time>
      </trkpt>
      <trkpt lat="33.349976604804397" lon="-5.294769946485758">
        <ele>1548.8199999999999</ele>
        <time>2019-03-10T17:08:55Z</time>
      </trkpt>
      <trkpt lat="33.349957074970007" lon="-5.294692078605294">
        <ele>1547.8599999999999</ele>
        <time>2019-03-10T17:08:56Z</time>
      </trkpt>
      <trkpt lat="33.349827993661165" lon="-5.294478926807642">
        <ele>1547.3800000000001</ele>
        <time>2019-03-10T17:08:58Z</time>
      </trkpt>
      <trkpt lat="33.349795555695891" lon="-5.294511197134852">
        <ele>1545.9400000000001</ele>
        <time>2019-03-10T17:09:02Z</time>
      </trkpt>
      <trkpt lat="33.349726237356663" lon="-5.294596273452044">
        <ele>1545.46</ele>
        <time>2019-03-10T17:09:15Z</time>
      </trkpt>
      <trkpt lat="33.34955750964582" lon="-5.294634578749538">
        <ele>1542.0899999999999</ele>
        <time>2019-03-10T17:09:23Z</time>
      </trkpt>
      <trkpt lat="33.348798947408795" lon="-5.294154798611999">
        <ele>1537.29</ele>
        <time>2019-03-10T17:09:35Z</time>
      </trkpt>
      <trkpt lat="33.348301649093628" lon="-5.293875429779291">
        <ele>1533.9200000000001</ele>
        <time>2019-03-10T17:09:37Z</time>
      </trkpt>
      <trkpt lat="33.347504362463951" lon="-5.293540488928556">
        <ele>1530.0799999999999</ele>
        <time>2019-03-10T17:09:44Z</time>
      </trkpt>
      <trkpt lat="33.347375448793173" lon="-5.293462118133903">
        <ele>1527.1900000000001</ele>
        <time>2019-03-10T17:09:46Z</time>
      </trkpt>
      <trkpt lat="33.347006225958467" lon="-5.292966831475496">
        <ele>1526.71</ele>
        <time>2019-03-10T17:09:53Z</time>
      </trkpt>
      <trkpt lat="33.34690673276782" lon="-5.292843282222748">
        <ele>1525.27</ele>
        <time>2019-03-10T17:09:59Z</time>
      </trkpt>
      <trkpt lat="33.346763988956809" lon="-5.292299129068852">
        <ele>1523.3499999999999</ele>
        <time>2019-03-10T17:10:06Z</time>
      </trkpt>
      <trkpt lat="33.34685392677784" lon="-5.291784647852182">
        <ele>1518.0599999999999</ele>
        <time>2019-03-10T17:10:12Z</time>
      </trkpt>
      <trkpt lat="33.346773544326425" lon="-5.29133596457541">
        <ele>1515.1800000000001</ele>
        <time>2019-03-10T17:10:21Z</time>
      </trkpt>
      <trkpt lat="33.346779076382518" lon="-5.290966322645545">
        <ele>1513.73</ele>
        <time>2019-03-10T17:10:22Z</time>
      </trkpt>
      <trkpt lat="33.346681175753474" lon="-5.290612019598484">
        <ele>1512.77</ele>
        <time>2019-03-10T17:10:26Z</time>
      </trkpt>
      <trkpt lat="33.346674973145127" lon="-5.290580419823527">
        <ele>1512.29</ele>
        <time>2019-03-10T17:10:30Z</time>
      </trkpt>
      <trkpt lat="33.346654940396547" lon="-5.290313540026546">
        <ele>1512.29</ele>
        <time>2019-03-10T17:10:41Z</time>
      </trkpt>
      <trkpt lat="33.346565337851644" lon="-5.289946747943759">
        <ele>1512.29</ele>
        <time>2019-03-10T17:10:46Z</time>
      </trkpt>
      <trkpt lat="33.346491828560829" lon="-5.289047034457326">
        <ele>1512.29</ele>
        <time>2019-03-10T17:10:49Z</time>
      </trkpt>
      <trkpt lat="33.346455115824938" lon="-5.288638332858682">
        <ele>1512.77</ele>
        <time>2019-03-10T17:10:52Z</time>
      </trkpt>
      <trkpt lat="33.346462156623602" lon="-5.288376733660698">
        <ele>1512.77</ele>
        <time>2019-03-10T17:10:59Z</time>
      </trkpt>
      <trkpt lat="33.346501970663667" lon="-5.288114380091429">
        <ele>1514.21</ele>
        <time>2019-03-10T17:11:00Z</time>
      </trkpt>
      <trkpt lat="33.346502557396889" lon="-5.287835178896785">
        <ele>1513.73</ele>
        <time>2019-03-10T17:11:03Z</time>
      </trkpt>
      <trkpt lat="33.346524015069008" lon="-5.287801651284099">
        <ele>1517.5799999999999</ele>
        <time>2019-03-10T17:11:06Z</time>
      </trkpt>
      <trkpt lat="33.346616635099053" lon="-5.287687992677093">
        <ele>1518.0599999999999</ele>
        <time>2019-03-10T17:11:15Z</time>
      </trkpt>
      <trkpt lat="33.346730209887028" lon="-5.287507781758905">
        <ele>1523.8299999999999</ele>
        <time>2019-03-10T17:11:19Z</time>
      </trkpt>
      <trkpt lat="33.347201943397522" lon="-5.286838822066784">
        <ele>1524.3099999999999</ele>
        <time>2019-03-10T17:11:31Z</time>
      </trkpt>
      <trkpt lat="33.347433200106025" lon="-5.286517040804029">
        <ele>1525.27</ele>
        <time>2019-03-10T17:11:40Z</time>
      </trkpt>
      <trkpt lat="33.347907615825534" lon="-5.285947825759649">
        <ele>1527.6700000000001</ele>
        <time>2019-03-10T17:11:49Z</time>
      </trkpt>
      <trkpt lat="33.348142979666591" lon="-5.285536358132958">
        <ele>1528.6300000000001</ele>
        <time>2019-03-10T17:11:50Z</time>
      </trkpt>
      <trkpt lat="33.348585544154048" lon="-5.284560788422823">
        <ele>1529.5899999999999</ele>
        <time>2019-03-10T17:11:59Z</time>
      </trkpt>
      <trkpt lat="33.348612701520324" lon="-5.284433718770742">
        <ele>1530.0799999999999</ele>
        <time>2019-03-10T17:12:00Z</time>
      </trkpt>
      <trkpt lat="33.348745219409466" lon="-5.283279195427895">
        <ele>1530.5599999999999</ele>
        <time>2019-03-10T17:12:01Z</time>
      </trkpt>
      <trkpt lat="33.34878645837307" lon="-5.283167045563459">
        <ele>1531.04</ele>
        <time>2019-03-10T17:12:04Z</time>
      </trkpt>
      <trkpt lat="33.3488436229527" lon="-5.283070066943765">
        <ele>1531.52</ele>
        <time>2019-03-10T17:12:05Z</time>
      </trkpt>
      <trkpt lat="33.349018385633826" lon="-5.282812742516398">
        <ele>1532</ele>
        <time>2019-03-10T17:12:06Z</time>
      </trkpt>
      <trkpt lat="33.349065072834492" lon="-5.282715009525418">
        <ele>1532.96</ele>
        <time>2019-03-10T17:12:07Z</time>
      </trkpt>
      <trkpt lat="33.349099019542336" lon="-5.282609816640616">
        <ele>1533.4400000000001</ele>
        <time>2019-03-10T17:12:08Z</time>
      </trkpt>
      <trkpt lat="33.349115950986743" lon="-5.282499343156815">
        <ele>1537.77</ele>
        <time>2019-03-10T17:12:09Z</time>
      </trkpt>
      <trkpt lat="33.349121399223804" lon="-5.282392557710409">
        <ele>1538.25</ele>
        <time>2019-03-10T17:12:10Z</time>
      </trkpt>
      <trkpt lat="33.34913874976337" lon="-5.282288286834955">
        <ele>1544.01</ele>
        <time>2019-03-10T17:12:11Z</time>
      </trkpt>
      <trkpt lat="33.349182670935988" lon="-5.28219080530107">
        <ele>1545.9400000000001</ele>
        <time>2019-03-10T17:12:12Z</time>
      </trkpt>
      <trkpt lat="33.349247463047504" lon="-5.28210774064064">
        <ele>1546.4200000000001</ele>
        <time>2019-03-10T17:12:13Z</time>
      </trkpt>
      <trkpt lat="33.349325582385063" lon="-5.28203833848238">
        <ele>1546.9000000000001</ele>
        <time>2019-03-10T17:12:18Z</time>
      </trkpt>
      <trkpt lat="33.349411077797413" lon="-5.281971367076039">
        <ele>1547.3800000000001</ele>
        <time>2019-03-10T17:12:19Z</time>
      </trkpt>
      <trkpt lat="33.349759010598063" lon="-5.281623434275389">
        <ele>1548.3399999999999</ele>
        <time>2019-03-10T17:12:27Z</time>
      </trkpt>
      <trkpt lat="33.349799076095223" lon="-5.28154581785202">
        <ele>1548.8199999999999</ele>
        <time>2019-03-10T17:12:30Z</time>
      </trkpt>
      <trkpt lat="33.350076014176011" lon="-5.280891777947545">
        <ele>1548.8199999999999</ele>
        <time>2019-03-10T17:12:31Z</time>
      </trkpt>
      <trkpt lat="33.350175088271499" lon="-5.28065306134522">
        <ele>1553.1500000000001</ele>
        <time>2019-03-10T17:12:32Z</time>
      </trkpt>
      <trkpt lat="33.350185817107558" lon="-5.28056412935257">
        <ele>1553.6300000000001</ele>
        <time>2019-03-10T17:12:33Z</time>
      </trkpt>
      <trkpt lat="33.350181793794036" lon="-5.280478550121188">
        <ele>1561.3199999999999</ele>
        <time>2019-03-10T17:12:34Z</time>
      </trkpt>
      <trkpt lat="33.350166706368327" lon="-5.280400849878788">
        <ele>1566.1199999999999</ele>
        <time>2019-03-10T17:12:35Z</time>
      </trkpt>
      <trkpt lat="33.350144829601049" lon="-5.280339913442731">
        <ele>1567.0899999999999</ele>
        <time>2019-03-10T17:12:36Z</time>
      </trkpt>
      <trkpt lat="33.350119097158313" lon="-5.28029590845108">
        <ele>1568.05</ele>
        <time>2019-03-10T17:12:45Z</time>
      </trkpt>
      <trkpt lat="33.350095124915242" lon="-5.28025877662003">
        <ele>1569.01</ele>
        <time>2019-03-10T17:12:46Z</time>
      </trkpt>
      <trkpt lat="33.349840063601732" lon="-5.279762065038085">
        <ele>1569.49</ele>
        <time>2019-03-10T17:12:59Z</time>
      </trkpt>
      <trkpt lat="33.349785665050149" lon="-5.27969928458333">
        <ele>1570.9300000000001</ele>
        <time>2019-03-10T17:13:05Z</time>
      </trkpt>
      <trkpt lat="33.349187113344669" lon="-5.278846677392721">
        <ele>1571.8900000000001</ele>
        <time>2019-03-10T17:13:06Z</time>
      </trkpt>
      <trkpt lat="33.348908247426152" lon="-5.2784488722682">
        <ele>1572.8499999999999</ele>
        <time>2019-03-10T17:13:07Z</time>
      </trkpt>
      <trkpt lat="33.348846388980746" lon="-5.278385169804096">
        <ele>1573.8199999999999</ele>
        <time>2019-03-10T17:13:08Z</time>
      </trkpt>
      <trkpt lat="33.348783943802118" lon="-5.278320126235485">
        <ele>1574.78</ele>
        <time>2019-03-10T17:13:09Z</time>
      </trkpt>
      <trkpt lat="33.348726779222488" lon="-5.278251310810447">
        <ele>1575.74</ele>
        <time>2019-03-10T17:13:10Z</time>
      </trkpt>
      <trkpt lat="33.348675146698952" lon="-5.278177717700601">
        <ele>1576.7</ele>
        <time>2019-03-10T17:13:11Z</time>
      </trkpt>
      <trkpt lat="33.348627872765064" lon="-5.278099766001105">
        <ele>1584.8699999999999</ele>
        <time>2019-03-10T17:13:12Z</time>
      </trkpt>
      <trkpt lat="33.34858562797308" lon="-5.278017036616802">
        <ele>1586.3099999999999</ele>
        <time>2019-03-10T17:13:13Z</time>
      </trkpt>
      <trkpt lat="33.348550675436854" lon="-5.277926428243518">
        <ele>1587.75</ele>
        <time>2019-03-10T17:13:14Z</time>
      </trkpt>
      <trkpt lat="33.348523518070579" lon="-5.27782978489995">
        <ele>1590.1600000000001</ele>
        <time>2019-03-10T17:13:15Z</time>
      </trkpt>
      <trkpt lat="33.348504574969411" lon="-5.277722915634513">
        <ele>1591.1199999999999</ele>
        <time>2019-03-10T17:13:16Z</time>
      </trkpt>
      <trkpt lat="33.34848353639245" lon="-5.277606323361397">
        <ele>1592.0799999999999</ele>
        <time>2019-03-10T17:13:23Z</time>
      </trkpt>
      <trkpt lat="33.348454954102635" lon="-5.277481516823173">
        <ele>1593.52</ele>
        <time>2019-03-10T17:13:24Z</time>
      </trkpt>
      <trkpt lat="33.348160749301314" lon="-5.276648104190826">
        <ele>1594.96</ele>
        <time>2019-03-10T17:13:25Z</time>
      </trkpt>
      <trkpt lat="33.348105764016509" lon="-5.2765476051718">
        <ele>1595.9300000000001</ele>
        <time>2019-03-10T17:13:27Z</time>
      </trkpt>
      <trkpt lat="33.348060166463256" lon="-5.276439897716045">
        <ele>1597.3699999999999</ele>
        <time>2019-03-10T17:13:28Z</time>
      </trkpt>
      <trkpt lat="33.347973665222526" lon="-5.276217106729746">
        <ele>1598.8099999999999</ele>
        <time>2019-03-10T17:13:29Z</time>
      </trkpt>
      <trkpt lat="33.347919685766101" lon="-5.276107555255294">
        <ele>1600.25</ele>
        <time>2019-03-10T17:13:30Z</time>
      </trkpt>
      <trkpt lat="33.347857827320695" lon="-5.27600378729403">
        <ele>1601.6900000000001</ele>
        <time>2019-03-10T17:13:31Z</time>
      </trkpt>
      <trkpt lat="33.34778968244791" lon="-5.275906892493367">
        <ele>1604.5799999999999</ele>
        <time>2019-03-10T17:13:32Z</time>
      </trkpt>
      <trkpt lat="33.347718939185143" lon="-5.275817960500717">
        <ele>1601.6900000000001</ele>
        <time>2019-03-10T17:13:33Z</time>
      </trkpt>
      <trkpt lat="33.347644759342074" lon="-5.275738332420588">
        <ele>1602.1700000000001</ele>
        <time>2019-03-10T17:13:34Z</time>
      </trkpt>
      <trkpt lat="33.347573345527053" lon="-5.275673624128103">
        <ele>1602.6600000000001</ele>
        <time>2019-03-10T17:13:35Z</time>
      </trkpt>
      <trkpt lat="33.347510145977139" lon="-5.275626182556152">
        <ele>1603.1400000000001</ele>
        <time>2019-03-10T17:13:36Z</time>
      </trkpt>
      <trkpt lat="33.347463626414537" lon="-5.275595504790545">
        <ele>1603.6199999999999</ele>
        <time>2019-03-10T17:13:50Z</time>
      </trkpt>
      <trkpt lat="33.347443426027894" lon="-5.275576896965504">
        <ele>1604.5799999999999</ele>
        <time>2019-03-10T17:14:18Z</time>
      </trkpt>
      <trkpt lat="33.347437558695674" lon="-5.275570778176189">
        <ele>1608.9000000000001</ele>
        <time>2019-03-10T17:14:19Z</time>
      </trkpt>
      <trkpt lat="33.347446359694004" lon="-5.275549991056323">
        <ele>1612.75</ele>
        <time>2019-03-10T17:14:21Z</time>
      </trkpt>
      <trkpt lat="33.347451724112034" lon="-5.275521073490381">
        <ele>1615.6300000000001</ele>
        <time>2019-03-10T17:14:22Z</time>
      </trkpt>
      <trkpt lat="33.347475612536073" lon="-5.275435158982873">
        <ele>1616.1099999999999</ele>
        <time>2019-03-10T17:14:23Z</time>
      </trkpt>
      <trkpt lat="33.347470834851265" lon="-5.275381514802575">
        <ele>1614.1900000000001</ele>
        <time>2019-03-10T17:14:25Z</time>
      </trkpt>
      <trkpt lat="33.347451137378812" lon="-5.275324517861009">
        <ele>1614.1900000000001</ele>
        <time>2019-03-10T17:14:30Z</time>
      </trkpt>
      <trkpt lat="33.347384920343757" lon="-5.275188814848661">
        <ele>1614.1900000000001</ele>
        <time>2019-03-10T17:14:34Z</time>
      </trkpt>
      <trkpt lat="33.34725265391171" lon="-5.274839121848345">
        <ele>1616.5899999999999</ele>
        <time>2019-03-10T17:14:40Z</time>
      </trkpt>
      <trkpt lat="33.347112592309713" lon="-5.274558244273067">
        <ele>1618.52</ele>
        <time>2019-03-10T17:14:44Z</time>
      </trkpt>
      <trkpt lat="33.346906984224916" lon="-5.274201510474086">
        <ele>1621.4000000000001</ele>
        <time>2019-03-10T17:14:51Z</time>
      </trkpt>
      <trkpt lat="33.346786452457309" lon="-5.27384796179831">
        <ele>1626.6900000000001</ele>
        <time>2019-03-10T17:15:02Z</time>
      </trkpt>
      <trkpt lat="33.346642954275012" lon="-5.273393159732223">
        <ele>1628.6099999999999</ele>
        <time>2019-03-10T17:15:04Z</time>
      </trkpt>
      <trkpt lat="33.346414379775524" lon="-5.272630993276835">
        <ele>1633.9000000000001</ele>
        <time>2019-03-10T17:15:10Z</time>
      </trkpt>
      <trkpt lat="33.346351683139801" lon="-5.272433767095208">
        <ele>1634.3800000000001</ele>
        <time>2019-03-10T17:15:12Z</time>
      </trkpt>
      <trkpt lat="33.346112631261349" lon="-5.271827336400747">
        <ele>1636.3</ele>
        <time>2019-03-10T17:15:15Z</time>
      </trkpt>
      <trkpt lat="33.346084384247661" lon="-5.271623991429806">
        <ele>1638.22</ele>
        <time>2019-03-10T17:15:20Z</time>
      </trkpt>
      <trkpt lat="33.346082288771868" lon="-5.271312771365047">
        <ele>1640.1500000000001</ele>
        <time>2019-03-10T17:15:22Z</time>
      </trkpt>
      <trkpt lat="33.346247160807252" lon="-5.270905159413815">
        <ele>1640.1500000000001</ele>
        <time>2019-03-10T17:15:28Z</time>
      </trkpt>
      <trkpt lat="33.346324358135462" lon="-5.270737856626511">
        <ele>1642.55</ele>
        <time>2019-03-10T17:15:30Z</time>
      </trkpt>
      <trkpt lat="33.346561901271343" lon="-5.270385229960084">
        <ele>1643.03</ele>
        <time>2019-03-10T17:15:34Z</time>
      </trkpt>
      <trkpt lat="33.346626022830606" lon="-5.270269643515348">
        <ele>1644.47</ele>
        <time>2019-03-10T17:15:39Z</time>
      </trkpt>
      <trkpt lat="33.346801120787859" lon="-5.270066130906344">
        <ele>1643.99</ele>
        <time>2019-03-10T17:15:46Z</time>
      </trkpt>
      <trkpt lat="33.347025001421571" lon="-5.269878208637238">
        <ele>1643.03</ele>
        <time>2019-03-10T17:15:49Z</time>
      </trkpt>
      <trkpt lat="33.347102953121066" lon="-5.2696902025491">
        <ele>1642.55</ele>
        <time>2019-03-10T17:15:57Z</time>
      </trkpt>
      <trkpt lat="33.347118459641933" lon="-5.269530108198524">
        <ele>1644.47</ele>
        <time>2019-03-10T17:15:59Z</time>
      </trkpt>
      <trkpt lat="33.347281822934747" lon="-5.26886098086834">
        <ele>1644.47</ele>
        <time>2019-03-10T17:16:06Z</time>
      </trkpt>
      <trkpt lat="33.347237482666969" lon="-5.268652187660337">
        <ele>1644.47</ele>
        <time>2019-03-10T17:16:09Z</time>
      </trkpt>
      <trkpt lat="33.347181910648942" lon="-5.267905360087752">
        <ele>1646.4000000000001</ele>
        <time>2019-03-10T17:16:16Z</time>
      </trkpt>
      <trkpt lat="33.347218791022897" lon="-5.267549548298121">
        <ele>1652.1600000000001</ele>
        <time>2019-03-10T17:16:21Z</time>
      </trkpt>
      <trkpt lat="33.347373520955443" lon="-5.266942698508501">
        <ele>1653.5999999999999</ele>
        <time>2019-03-10T17:16:31Z</time>
      </trkpt>
      <trkpt lat="33.347497237846255" lon="-5.26651312597096">
        <ele>1653.5999999999999</ele>
        <time>2019-03-10T17:16:38Z</time>
      </trkpt>
      <trkpt lat="33.347354829311371" lon="-5.265429178252816">
        <ele>1654.0899999999999</ele>
        <time>2019-03-10T17:16:43Z</time>
      </trkpt>
      <trkpt lat="33.347278302535415" lon="-5.264872033149004">
        <ele>1656.01</ele>
        <time>2019-03-10T17:16:47Z</time>
      </trkpt>
      <trkpt lat="33.347424147650599" lon="-5.264516724273562">
        <ele>1659.8499999999999</ele>
        <time>2019-03-10T17:16:54Z</time>
      </trkpt>
      <trkpt lat="33.347752382978797" lon="-5.26438026688993">
        <ele>1660.8099999999999</ele>
        <time>2019-03-10T17:16:59Z</time>
      </trkpt>
      <trkpt lat="33.348239036276937" lon="-5.264250012114644">
        <ele>1660.8099999999999</ele>
        <time>2019-03-10T17:17:03Z</time>
      </trkpt>
      <trkpt lat="33.348518321290612" lon="-5.263938205316663">
        <ele>1660.8099999999999</ele>
        <time>2019-03-10T17:17:12Z</time>
      </trkpt>
      <trkpt lat="33.348624520003796" lon="-5.263722455129027">
        <ele>1661.3</ele>
        <time>2019-03-10T17:17:17Z</time>
      </trkpt>
      <trkpt lat="33.348761228844523" lon="-5.263229180127382">
        <ele>1661.78</ele>
        <time>2019-03-10T17:17:26Z</time>
      </trkpt>
      <trkpt lat="33.348983097821474" lon="-5.262982165440917">
        <ele>1662.26</ele>
        <time>2019-03-10T17:17:32Z</time>
      </trkpt>
      <trkpt lat="33.34947201423347" lon="-5.262408843263984">
        <ele>1662.74</ele>
        <time>2019-03-10T17:17:38Z</time>
      </trkpt>
      <trkpt lat="33.349743587896228" lon="-5.2617690525949">
        <ele>1663.7</ele>
        <time>2019-03-10T17:17:43Z</time>
      </trkpt>
      <trkpt lat="33.349830927327275" lon="-5.261029517278075">
        <ele>1665.6199999999999</ele>
        <time>2019-03-10T17:17:51Z</time>
      </trkpt>
      <trkpt lat="33.349951626732945" lon="-5.260519478470087">
        <ele>1667.0599999999999</ele>
        <time>2019-03-10T17:17:55Z</time>
      </trkpt>
      <trkpt lat="33.350375331938267" lon="-5.260046822950244">
        <ele>1667.54</ele>
        <time>2019-03-10T17:18:01Z</time>
      </trkpt>
      <trkpt lat="33.350620502606034" lon="-5.259819589555264">
        <ele>1668.02</ele>
        <time>2019-03-10T17:18:05Z</time>
      </trkpt>
      <trkpt lat="33.351019397377968" lon="-5.259302677586675">
        <ele>1668.51</ele>
        <time>2019-03-10T17:18:14Z</time>
      </trkpt>
      <trkpt lat="33.351352661848068" lon="-5.259012496098876">
        <ele>1669.95</ele>
        <time>2019-03-10T17:18:23Z</time>
      </trkpt>
      <trkpt lat="33.351914500817657" lon="-5.258267344906926">
        <ele>1671.3900000000001</ele>
        <time>2019-03-10T17:18:31Z</time>
      </trkpt>
      <trkpt lat="33.35266032256186" lon="-5.257566953077912">
        <ele>1673.79</ele>
        <time>2019-03-10T17:18:35Z</time>
      </trkpt>
      <trkpt lat="33.353109927847981" lon="-5.257064960896969">
        <ele>1673.79</ele>
        <time>2019-03-10T17:18:38Z</time>
      </trkpt>
      <trkpt lat="33.353353338316083" lon="-5.256952727213502">
        <ele>1675.23</ele>
        <time>2019-03-10T17:18:42Z</time>
      </trkpt>
      <trkpt lat="33.35352810099721" lon="-5.256831860169768">
        <ele>1678.5999999999999</ele>
        <time>2019-03-10T17:18:49Z</time>
      </trkpt>
      <trkpt lat="33.353676795959473" lon="-5.256618121638894">
        <ele>1679.0799999999999</ele>
        <time>2019-03-10T17:18:53Z</time>
      </trkpt>
      <trkpt lat="33.353949459269643" lon="-5.255920914933085">
        <ele>1682.9300000000001</ele>
        <time>2019-03-10T17:19:06Z</time>
      </trkpt>
      <trkpt lat="33.354136124253273" lon="-5.255670631304383">
        <ele>1684.8499999999999</ele>
        <time>2019-03-10T17:19:07Z</time>
      </trkpt>
      <trkpt lat="33.354939697310328" lon="-5.254942746832967">
        <ele>1692.54</ele>
        <time>2019-03-10T17:19:12Z</time>
      </trkpt>
      <trkpt lat="33.35499401204288" lon="-5.254872171208262">
        <ele>1695.4200000000001</ele>
        <time>2019-03-10T17:19:18Z</time>
      </trkpt>
      <trkpt lat="33.355310345068574" lon="-5.254557263106108">
        <ele>1698.3099999999999</ele>
        <time>2019-03-10T17:19:23Z</time>
      </trkpt>
      <trkpt lat="33.355760788545012" lon="-5.254524573683739">
        <ele>1700.23</ele>
        <time>2019-03-10T17:19:34Z</time>
      </trkpt>
      <trkpt lat="33.356203772127628" lon="-5.254586851224303">
        <ele>1701.6700000000001</ele>
        <time>2019-03-10T17:19:36Z</time>
      </trkpt>
      <trkpt lat="33.357035089284182" lon="-5.254804696887732">
        <ele>1702.6300000000001</ele>
        <time>2019-03-10T17:19:43Z</time>
      </trkpt>
      <trkpt lat="33.357174564152956" lon="-5.254859011620283">
        <ele>1702.6300000000001</ele>
        <time>2019-03-10T17:19:47Z</time>
      </trkpt>
      <trkpt lat="33.35765652358532" lon="-5.254925731569529">
        <ele>1702.1500000000001</ele>
        <time>2019-03-10T17:19:51Z</time>
      </trkpt>
      <trkpt lat="33.357870513573289" lon="-5.254903770983219">
        <ele>1701.6700000000001</ele>
        <time>2019-03-10T17:19:56Z</time>
      </trkpt>
      <trkpt lat="33.358135800808668" lon="-5.254791369661689">
        <ele>1702.1500000000001</ele>
        <time>2019-03-10T17:19:59Z</time>
      </trkpt>
      <trkpt lat="33.358439058065414" lon="-5.254480736330152">
        <ele>1702.6300000000001</ele>
        <time>2019-03-10T17:20:03Z</time>
      </trkpt>
      <trkpt lat="33.358586076647043" lon="-5.254215365275741">
        <ele>1701.6700000000001</ele>
        <time>2019-03-10T17:20:11Z</time>
      </trkpt>
      <trkpt lat="33.358746841549873" lon="-5.253872545436025">
        <ele>1701.1900000000001</ele>
        <time>2019-03-10T17:20:13Z</time>
      </trkpt>
      <trkpt lat="33.359235003590584" lon="-5.253393268212676">
        <ele>1702.6300000000001</ele>
        <time>2019-03-10T17:20:20Z</time>
      </trkpt>
      <trkpt lat="33.35930909961462" lon="-5.253339037299156">
        <ele>1703.1099999999999</ele>
        <time>2019-03-10T17:20:28Z</time>
      </trkpt>
      <trkpt lat="33.359649823978543" lon="-5.253138961270452">
        <ele>1704.0699999999999</ele>
        <time>2019-03-10T17:20:36Z</time>
      </trkpt>
      <trkpt lat="33.360305121168494" lon="-5.252784658223391">
        <ele>1705.52</ele>
        <time>2019-03-10T17:20:41Z</time>
      </trkpt>
      <trkpt lat="33.360706362873316" lon="-5.252115447074175">
        <ele>1706.48</ele>
        <time>2019-03-10T17:20:50Z</time>
      </trkpt>
      <trkpt lat="33.360881041735411" lon="-5.251669362187386">
        <ele>1706.96</ele>
        <time>2019-03-10T17:21:01Z</time>
      </trkpt>
      <trkpt lat="33.361367862671614" lon="-5.250473935157061">
        <ele>1707.9200000000001</ele>
        <time>2019-03-10T17:21:04Z</time>
      </trkpt>
      <trkpt lat="33.361987033858895" lon="-5.249073654413223">
        <ele>1707.9200000000001</ele>
        <time>2019-03-10T17:21:08Z</time>
      </trkpt>
      <trkpt lat="33.362144781276584" lon="-5.248793279752135">
        <ele>1708.4000000000001</ele>
        <time>2019-03-10T17:21:18Z</time>
      </trkpt>
      <trkpt lat="33.362350976094604" lon="-5.248548444360495">
        <ele>1710.3199999999999</ele>
        <time>2019-03-10T17:21:20Z</time>
      </trkpt>
      <trkpt lat="33.36294743232429" lon="-5.248349793255329">
        <ele>1711.28</ele>
        <time>2019-03-10T17:21:27Z</time>
      </trkpt>
      <trkpt lat="33.363107275217772" lon="-5.248299082741141">
        <ele>1712.73</ele>
        <time>2019-03-10T17:21:33Z</time>
      </trkpt>
      <trkpt lat="33.363405922427773" lon="-5.247739255428314">
        <ele>1714.6500000000001</ele>
        <time>2019-03-10T17:21:35Z</time>
      </trkpt>
      <trkpt lat="33.363583786413074" lon="-5.247237766161561">
        <ele>1716.0899999999999</ele>
        <time>2019-03-10T17:21:41Z</time>
      </trkpt>
      <trkpt lat="33.363540032878518" lon="-5.247097369283438">
        <ele>1718.49</ele>
        <time>2019-03-10T17:21:45Z</time>
      </trkpt>
      <trkpt lat="33.363355295732617" lon="-5.246690511703491">
        <ele>1718.97</ele>
        <time>2019-03-10T17:21:48Z</time>
      </trkpt>
      <trkpt lat="33.363378513604403" lon="-5.246393624693155">
        <ele>1721.3800000000001</ele>
        <time>2019-03-10T17:21:51Z</time>
      </trkpt>
      <trkpt lat="33.363521005958319" lon="-5.246151639148593">
        <ele>1722.8199999999999</ele>
        <time>2019-03-10T17:21:56Z</time>
      </trkpt>
      <trkpt lat="33.363635586574674" lon="-5.245931949466467">
        <ele>1723.78</ele>
        <time>2019-03-10T17:21:58Z</time>
      </trkpt>
      <trkpt lat="33.363754944875836" lon="-5.245521487668157">
        <ele>1726.6700000000001</ele>
        <time>2019-03-10T17:22:05Z</time>
      </trkpt>
      <trkpt lat="33.36384940892458" lon="-5.245328703895211">
        <ele>1727.6300000000001</ele>
        <time>2019-03-10T17:22:07Z</time>
      </trkpt>
      <trkpt lat="33.363990057259798" lon="-5.244768792763352">
        <ele>1728.5899999999999</ele>
        <time>2019-03-10T17:22:14Z</time>
      </trkpt>
      <trkpt lat="33.364061303436756" lon="-5.244634347036481">
        <ele>1731.95</ele>
        <time>2019-03-10T17:22:18Z</time>
      </trkpt>
      <trkpt lat="33.364434046670794" lon="-5.244243582710624">
        <ele>1733.3900000000001</ele>
        <time>2019-03-10T17:22:25Z</time>
      </trkpt>
      <trkpt lat="33.36477686651051" lon="-5.243983492255211">
        <ele>1735.3199999999999</ele>
        <time>2019-03-10T17:22:31Z</time>
      </trkpt>
      <trkpt lat="33.365081129595637" lon="-5.243477141484618">
        <ele>1737.72</ele>
        <time>2019-03-10T17:22:33Z</time>
      </trkpt>
      <trkpt lat="33.36479689925909" lon="-5.243072211742401">
        <ele>1738.6800000000001</ele>
        <time>2019-03-10T17:22:35Z</time>
      </trkpt>
      <trkpt lat="33.364689778536558" lon="-5.24307950399816">
        <ele>1739.1600000000001</ele>
        <time>2019-03-10T17:22:41Z</time>
      </trkpt>
      <trkpt lat="33.364587686955929" lon="-5.243111941963434">
        <ele>1740.5999999999999</ele>
        <time>2019-03-10T17:22:44Z</time>
      </trkpt>
      <trkpt lat="33.364299349486828" lon="-5.242896527051926">
        <ele>1740.5999999999999</ele>
        <time>2019-03-10T17:22:48Z</time>
      </trkpt>
      <trkpt lat="33.364382833242416" lon="-5.242707096040249">
        <ele>1740.5999999999999</ele>
        <time>2019-03-10T17:22:52Z</time>
      </trkpt>
      <trkpt lat="33.36460730060935" lon="-5.242452286183834">
        <ele>1741.0799999999999</ele>
        <time>2019-03-10T17:22:55Z</time>
      </trkpt>
      <trkpt lat="33.364794887602329" lon="-5.242122625932097">
        <ele>1741.0799999999999</ele>
        <time>2019-03-10T17:22:57Z</time>
      </trkpt>
      <trkpt lat="33.364862613379955" lon="-5.241855327039957">
        <ele>1742.05</ele>
        <time>2019-03-10T17:23:02Z</time>
      </trkpt>
      <trkpt lat="33.36486479267478" lon="-5.241685258224607">
        <ele>1742.05</ele>
        <time>2019-03-10T17:23:06Z</time>
      </trkpt>
      <trkpt lat="33.364964621141553" lon="-5.241246465593576">
        <ele>1742.05</ele>
        <time>2019-03-10T17:23:11Z</time>
      </trkpt>
      <trkpt lat="33.365023462101817" lon="-5.241066254675388">
        <ele>1743.01</ele>
        <time>2019-03-10T17:23:14Z</time>
      </trkpt>
      <trkpt lat="33.364977948367596" lon="-5.240763500332832">
        <ele>1744.45</ele>
        <time>2019-03-10T17:23:18Z</time>
      </trkpt>
      <trkpt lat="33.364863451570272" lon="-5.240526795387268">
        <ele>1749.26</ele>
        <time>2019-03-10T17:23:25Z</time>
      </trkpt>
      <trkpt lat="33.364787511527538" lon="-5.240136198699474">
        <ele>1753.0999999999999</ele>
        <time>2019-03-10T17:23:27Z</time>
      </trkpt>
      <trkpt lat="33.365045338869095" lon="-5.239476710557938">
        <ele>1753.5799999999999</ele>
        <time>2019-03-10T17:23:30Z</time>
      </trkpt>
      <trkpt lat="33.365076519548893" lon="-5.239248806610704">
        <ele>1754.54</ele>
        <time>2019-03-10T17:23:35Z</time>
      </trkpt>
      <trkpt lat="33.36509638465941" lon="-5.238921577110887">
        <ele>1755.99</ele>
        <time>2019-03-10T17:23:40Z</time>
      </trkpt>
      <trkpt lat="33.365285480394959" lon="-5.238565681502223">
        <ele>1756.47</ele>
        <time>2019-03-10T17:23:45Z</time>
      </trkpt>
      <trkpt lat="33.365522688254714" lon="-5.238427631556988">
        <ele>1757.9100000000001</ele>
        <time>2019-03-10T17:23:51Z</time>
      </trkpt>
      <trkpt lat="33.365847989916801" lon="-5.238419249653816">
        <ele>1759.8299999999999</ele>
        <time>2019-03-10T17:23:54Z</time>
      </trkpt>
      <trkpt lat="33.366219224408269" lon="-5.238337190821767">
        <ele>1761.27</ele>
        <time>2019-03-10T17:23:57Z</time>
      </trkpt>
      <trkpt lat="33.366381581872702" lon="-5.23815949447453">
        <ele>1762.23</ele>
        <time>2019-03-10T17:24:03Z</time>
      </trkpt>
      <trkpt lat="33.366446038708091" lon="-5.237949527800083">
        <ele>1762.71</ele>
        <time>2019-03-10T17:24:06Z</time>
      </trkpt>
      <trkpt lat="33.366741668432951" lon="-5.237571503967047">
        <ele>1763.2</ele>
        <time>2019-03-10T17:24:11Z</time>
      </trkpt>
      <trkpt lat="33.366758599877357" lon="-5.237324573099613">
        <ele>1763.6800000000001</ele>
        <time>2019-03-10T17:24:16Z</time>
      </trkpt>
      <trkpt lat="33.366665476933122" lon="-5.236933054402471">
        <ele>1764.1600000000001</ele>
        <time>2019-03-10T17:24:20Z</time>
      </trkpt>
      <trkpt lat="33.366735465824604" lon="-5.236591910943389">
        <ele>1765.1199999999999</ele>
        <time>2019-03-10T17:24:24Z</time>
      </trkpt>
      <trkpt lat="33.366928584873676" lon="-5.236406503245235">
        <ele>1765.5999999999999</ele>
        <time>2019-03-10T17:24:28Z</time>
      </trkpt>
      <trkpt lat="33.367216167971492" lon="-5.236340118572116">
        <ele>1765.5999999999999</ele>
        <time>2019-03-10T17:24:31Z</time>
      </trkpt>
      <trkpt lat="33.367379950359464" lon="-5.236124955117703">
        <ele>1765.5999999999999</ele>
        <time>2019-03-10T17:24:35Z</time>
      </trkpt>
      <trkpt lat="33.36743451654911" lon="-5.235832342877984">
        <ele>1767.52</ele>
        <time>2019-03-10T17:24:38Z</time>
      </trkpt>
      <trkpt lat="33.367439210414886" lon="-5.235394388437271">
        <ele>1769.4400000000001</ele>
        <time>2019-03-10T17:24:41Z</time>
      </trkpt>
      <trkpt lat="33.367500565946102" lon="-5.235065650194883">
        <ele>1770.4100000000001</ele>
        <time>2019-03-10T17:24:45Z</time>
      </trkpt>
      <trkpt lat="33.367535099387169" lon="-5.234699947759509">
        <ele>1771.8499999999999</ele>
        <time>2019-03-10T17:24:47Z</time>
      </trkpt>
      <trkpt lat="33.367675999179482" lon="-5.234212037175894">
        <ele>1773.29</ele>
        <time>2019-03-10T17:24:49Z</time>
      </trkpt>
      <trkpt lat="33.367811031639576" lon="-5.233983714133501">
        <ele>1775.21</ele>
        <time>2019-03-10T17:24:55Z</time>
      </trkpt>
      <trkpt lat="33.367964420467615" lon="-5.233785230666399">
        <ele>1777.1300000000001</ele>
        <time>2019-03-10T17:25:03Z</time>
      </trkpt>
      <trkpt lat="33.3683623932302" lon="-5.233168741688132">
        <ele>1778.0999999999999</ele>
        <time>2019-03-10T17:25:06Z</time>
      </trkpt>
      <trkpt lat="33.368749972432852" lon="-5.232506655156612">
        <ele>1778.0999999999999</ele>
        <time>2019-03-10T17:25:11Z</time>
      </trkpt>
      <trkpt lat="33.368882825598121" lon="-5.232307249680162">
        <ele>1779.54</ele>
        <time>2019-03-10T17:25:14Z</time>
      </trkpt>
      <trkpt lat="33.369085332378745" lon="-5.231856135651469">
        <ele>1782.4200000000001</ele>
        <time>2019-03-10T17:25:21Z</time>
      </trkpt>
      <trkpt lat="33.369161440059543" lon="-5.231546424329281">
        <ele>1785.79</ele>
        <time>2019-03-10T17:25:28Z</time>
      </trkpt>
      <trkpt lat="33.369454303756356" lon="-5.231151888146997">
        <ele>1786.27</ele>
        <time>2019-03-10T17:25:32Z</time>
      </trkpt>
      <trkpt lat="33.369958139955997" lon="-5.230953237041831">
        <ele>1787.71</ele>
        <time>2019-03-10T17:25:36Z</time>
      </trkpt>
      <trkpt lat="33.370261397212744" lon="-5.230989195406437">
        <ele>1788.6700000000001</ele>
        <time>2019-03-10T17:25:44Z</time>
      </trkpt>
      <trkpt lat="33.370419731363654" lon="-5.231045437976718">
        <ele>1789.6300000000001</ele>
        <time>2019-03-10T17:25:53Z</time>
      </trkpt>
      <trkpt lat="33.371085338294506" lon="-5.230911998078227">
        <ele>1789.6300000000001</ele>
        <time>2019-03-10T17:26:03Z</time>
      </trkpt>
      <trkpt lat="33.372253691777587" lon="-5.230633299797773">
        <ele>1790.1099999999999</ele>
        <time>2019-03-10T17:26:04Z</time>
      </trkpt>
      <trkpt lat="33.373506115749478" lon="-5.229812376201153">
        <ele>1789.6300000000001</ele>
        <time>2019-03-10T17:26:08Z</time>
      </trkpt>
      <trkpt lat="33.373593203723431" lon="-5.229747081175447">
        <ele>1789.6300000000001</ele>
        <time>2019-03-10T17:26:16Z</time>
      </trkpt>
      <trkpt lat="33.373844493180513" lon="-5.229554967954755">
        <ele>1789.6300000000001</ele>
        <time>2019-03-10T17:26:27Z</time>
      </trkpt>
      <trkpt lat="33.374564833939075" lon="-5.229117013514042">
        <ele>1789.6300000000001</ele>
        <time>2019-03-10T17:26:29Z</time>
      </trkpt>
      <trkpt lat="33.375812061131001" lon="-5.228206403553486">
        <ele>1789.6300000000001</ele>
        <time>2019-03-10T17:26:37Z</time>
      </trkpt>
      <trkpt lat="33.376036277040839" lon="-5.228085285052657">
        <ele>1789.6300000000001</ele>
        <time>2019-03-10T17:26:38Z</time>
      </trkpt>
      <trkpt lat="33.376791067421436" lon="-5.227869283407927">
        <ele>1790.1099999999999</ele>
        <time>2019-03-10T17:26:39Z</time>
      </trkpt>
      <trkpt lat="33.376883519813418" lon="-5.227868612855673">
        <ele>1790.1099999999999</ele>
        <time>2019-03-10T17:26:40Z</time>
      </trkpt>
      <trkpt lat="33.376976978033781" lon="-5.227874480187893">
        <ele>1790.1099999999999</ele>
        <time>2019-03-10T17:26:41Z</time>
      </trkpt>
      <trkpt lat="33.377066412940621" lon="-5.227886298671365">
        <ele>1790.5899999999999</ele>
        <time>2019-03-10T17:26:42Z</time>
      </trkpt>
      <trkpt lat="33.377154925838113" lon="-5.227910187095404">
        <ele>1790.5899999999999</ele>
        <time>2019-03-10T17:26:43Z</time>
      </trkpt>
      <trkpt lat="33.377241846174002" lon="-5.227944804355502">
        <ele>1787.71</ele>
        <time>2019-03-10T17:26:44Z</time>
      </trkpt>
      <trkpt lat="33.377323318272829" lon="-5.227980092167854">
        <ele>1786.27</ele>
        <time>2019-03-10T17:26:45Z</time>
      </trkpt>
      <trkpt lat="33.377397917211056" lon="-5.227997107431293">
        <ele>1786.27</ele>
        <time>2019-03-10T17:26:46Z</time>
      </trkpt>
      <trkpt lat="33.377460781484842" lon="-5.227990401908755">
        <ele>1786.75</ele>
        <time>2019-03-10T17:26:47Z</time>
      </trkpt>
      <trkpt lat="33.377505457028747" lon="-5.227972548455">
        <ele>1786.75</ele>
        <time>2019-03-10T17:26:48Z</time>
      </trkpt>
      <trkpt lat="33.377532530575991" lon="-5.227953772991896">
        <ele>1786.75</ele>
        <time>2019-03-10T17:27:03Z</time>
      </trkpt>
      <trkpt lat="33.377547366544604" lon="-5.227942792698741">
        <ele>1786.75</ele>
        <time>2019-03-10T17:27:22Z</time>
      </trkpt>
      <trkpt lat="33.377532782033086" lon="-5.227937260642648">
        <ele>1786.75</ele>
        <time>2019-03-10T17:27:25Z</time>
      </trkpt>
      <trkpt lat="33.377631269395351" lon="-5.227915300056338">
        <ele>1786.27</ele>
        <time>2019-03-10T17:27:26Z</time>
      </trkpt>
      <trkpt lat="33.377810893580317" lon="-5.22789727896452">
        <ele>1785.79</ele>
        <time>2019-03-10T17:27:27Z</time>
      </trkpt>
      <trkpt lat="33.377890437841415" lon="-5.227869367226958">
        <ele>1786.75</ele>
        <time>2019-03-10T17:27:28Z</time>
      </trkpt>
      <trkpt lat="33.377972329035401" lon="-5.227829134091735">
        <ele>1789.6300000000001</ele>
        <time>2019-03-10T17:27:29Z</time>
      </trkpt>
      <trkpt lat="33.378055058419704" lon="-5.227776160463691">
        <ele>1792.52</ele>
        <time>2019-03-10T17:27:30Z</time>
      </trkpt>
      <trkpt lat="33.37813938036561" lon="-5.227707931771874">
        <ele>1793</ele>
        <time>2019-03-10T17:27:40Z</time>
      </trkpt>
      <trkpt lat="33.37822294794023" lon="-5.227634841576219">
        <ele>1791.55</ele>
        <time>2019-03-10T17:27:51Z</time>
      </trkpt>
      <trkpt lat="33.379029454663396" lon="-5.226767901331186">
        <ele>1791.0699999999999</ele>
        <time>2019-03-10T17:28:01Z</time>
      </trkpt>
      <trkpt lat="33.380048777908087" lon="-5.225624609738588">
        <ele>1789.6300000000001</ele>
        <time>2019-03-10T17:28:12Z</time>
      </trkpt>
      <trkpt lat="33.380919992923737" lon="-5.22455264814198">
        <ele>1792.03</ele>
        <time>2019-03-10T17:28:23Z</time>
      </trkpt>
      <trkpt lat="33.38200150988996" lon="-5.223208190873265">
        <ele>1794.9200000000001</ele>
        <time>2019-03-10T17:28:33Z</time>
      </trkpt>
      <trkpt lat="33.383176317438483" lon="-5.221943529322743">
        <ele>1795.8800000000001</ele>
        <time>2019-03-10T17:28:42Z</time>
      </trkpt>
      <trkpt lat="33.384292451664805" lon="-5.221005929633975">
        <ele>1792.03</ele>
        <time>2019-03-10T17:28:50Z</time>
      </trkpt>
      <trkpt lat="33.385411771014333" lon="-5.220378041267395">
        <ele>1789.6300000000001</ele>
        <time>2019-03-10T17:29:00Z</time>
      </trkpt>
      <trkpt lat="33.386313915252686" lon="-5.219645714387298">
        <ele>1788.6700000000001</ele>
        <time>2019-03-10T17:29:09Z</time>
      </trkpt>
      <trkpt lat="33.387111369520426" lon="-5.218459339812398">
        <ele>1788.6700000000001</ele>
        <time>2019-03-10T17:29:19Z</time>
      </trkpt>
      <trkpt lat="33.387915194034576" lon="-5.217264499515295">
        <ele>1784.3399999999999</ele>
        <time>2019-03-10T17:29:29Z</time>
      </trkpt>
      <trkpt lat="33.388833263888955" lon="-5.216136379167438">
        <ele>1782.4200000000001</ele>
        <time>2019-03-10T17:29:38Z</time>
      </trkpt>
      <trkpt lat="33.389625689014792" lon="-5.215080929920077">
        <ele>1781.9400000000001</ele>
        <time>2019-03-10T17:29:46Z</time>
      </trkpt>
      <trkpt lat="33.390421215444803" lon="-5.213881563395262">
        <ele>1781.46</ele>
        <time>2019-03-10T17:29:49Z</time>
      </trkpt>
      <trkpt lat="33.391127223148942" lon="-5.212993416935206">
        <ele>1781.46</ele>
        <time>2019-03-10T17:29:50Z</time>
      </trkpt>
      <trkpt lat="33.39141983538866" lon="-5.21272343583405">
        <ele>1781.46</ele>
        <time>2019-03-10T17:30:02Z</time>
      </trkpt>
      <trkpt lat="33.391535170376301" lon="-5.212646825239062">
        <ele>1781.46</ele>
        <time>2019-03-10T17:30:11Z</time>
      </trkpt>
      <trkpt lat="33.392958333715796" lon="-5.211664214730263">
        <ele>1779.54</ele>
        <time>2019-03-10T17:30:13Z</time>
      </trkpt>
      <trkpt lat="33.393875313922763" lon="-5.211159875616431">
        <ele>1777.1300000000001</ele>
        <time>2019-03-10T17:30:14Z</time>
      </trkpt>
      <trkpt lat="33.39414487592876" lon="-5.211102962493897">
        <ele>1776.6500000000001</ele>
        <time>2019-03-10T17:30:15Z</time>
      </trkpt>
      <trkpt lat="33.394290637224913" lon="-5.211095502600074">
        <ele>1776.1700000000001</ele>
        <time>2019-03-10T17:30:16Z</time>
      </trkpt>
      <trkpt lat="33.394441260024905" lon="-5.211104052141309">
        <ele>1775.6900000000001</ele>
        <time>2019-03-10T17:30:17Z</time>
      </trkpt>
      <trkpt lat="33.394596241414547" lon="-5.211128443479538">
        <ele>1775.21</ele>
        <time>2019-03-10T17:30:26Z</time>
      </trkpt>
      <trkpt lat="33.394750552251935" lon="-5.211165323853493">
        <ele>1774.73</ele>
        <time>2019-03-10T17:30:31Z</time>
      </trkpt>
      <trkpt lat="33.396053519099951" lon="-5.211280575022101">
        <ele>1774.25</ele>
        <time>2019-03-10T17:30:32Z</time>
      </trkpt>
      <trkpt lat="33.39673706330359" lon="-5.211204551160336">
        <ele>1773.77</ele>
        <time>2019-03-10T17:30:33Z</time>
      </trkpt>
      <trkpt lat="33.396836053580046" lon="-5.2111597917974">
        <ele>1773.29</ele>
        <time>2019-03-10T17:30:34Z</time>
      </trkpt>
      <trkpt lat="33.396913921460509" lon="-5.211085947230458">
        <ele>1772.3299999999999</ele>
        <time>2019-03-10T17:30:35Z</time>
      </trkpt>
      <trkpt lat="33.396980809047818" lon="-5.210993243381381">
        <ele>1771.8499999999999</ele>
        <time>2019-03-10T17:30:36Z</time>
      </trkpt>
      <trkpt lat="33.397045265883207" lon="-5.210892995819449">
        <ele>1770.8900000000001</ele>
        <time>2019-03-10T17:30:37Z</time>
      </trkpt>
      <trkpt lat="33.397117685526609" lon="-5.210793251171708">
        <ele>1768.48</ele>
        <time>2019-03-10T17:30:38Z</time>
      </trkpt>
      <trkpt lat="33.397207455709577" lon="-5.210701134055853">
        <ele>1766.0799999999999</ele>
        <time>2019-03-10T17:30:39Z</time>
      </trkpt>
      <trkpt lat="33.397316168993711" lon="-5.210626535117626">
        <ele>1765.1199999999999</ele>
        <time>2019-03-10T17:30:40Z</time>
      </trkpt>
      <trkpt lat="33.397438796237111" lon="-5.210566855967045">
        <ele>1765.1199999999999</ele>
        <time>2019-03-10T17:30:41Z</time>
      </trkpt>
      <trkpt lat="33.397573493421078" lon="-5.21051824092865">
        <ele>1765.1199999999999</ele>
        <time>2019-03-10T17:30:52Z</time>
      </trkpt>
      <trkpt lat="33.397715063765645" lon="-5.210476834326983">
        <ele>1765.1199999999999</ele>
        <time>2019-03-10T17:31:00Z</time>
      </trkpt>
      <trkpt lat="33.399255322292447" lon="-5.210025971755385">
        <ele>1767.52</ele>
        <time>2019-03-10T17:31:08Z</time>
      </trkpt>
      <trkpt lat="33.4004095941782" lon="-5.209506377577782">
        <ele>1768</ele>
        <time>2019-03-10T17:31:16Z</time>
      </trkpt>
      <trkpt lat="33.401426319032907" lon="-5.209001954644918">
        <ele>1768.48</ele>
        <time>2019-03-10T17:31:17Z</time>
      </trkpt>
      <trkpt lat="33.402347154915333" lon="-5.208334000781179">
        <ele>1768.96</ele>
        <time>2019-03-10T17:31:23Z</time>
      </trkpt>
      <trkpt lat="33.402468441054225" lon="-5.208262838423252">
        <ele>1769.9200000000001</ele>
        <time>2019-03-10T17:31:24Z</time>
      </trkpt>
      <trkpt lat="33.403153074905276" lon="-5.207913313060999">
        <ele>1770.4100000000001</ele>
        <time>2019-03-10T17:31:32Z</time>
      </trkpt>
      <trkpt lat="33.403256004676223" lon="-5.207822537049651">
        <ele>1771.3699999999999</ele>
        <time>2019-03-10T17:31:33Z</time>
      </trkpt>
      <trkpt lat="33.404062008485198" lon="-5.207142932340503">
        <ele>1773.29</ele>
        <time>2019-03-10T17:31:34Z</time>
      </trkpt>
      <trkpt lat="33.404144318774343" lon="-5.207041511312127">
        <ele>1773.29</ele>
        <time>2019-03-10T17:31:35Z</time>
      </trkpt>
      <trkpt lat="33.404220510274172" lon="-5.206928942352533">
        <ele>1772.3299999999999</ele>
        <time>2019-03-10T17:31:36Z</time>
      </trkpt>
      <trkpt lat="33.404290499165654" lon="-5.206808159127832">
        <ele>1768.96</ele>
        <time>2019-03-10T17:31:37Z</time>
      </trkpt>
      <trkpt lat="33.404357386752963" lon="-5.206680502742529">
        <ele>1768.48</ele>
        <time>2019-03-10T17:31:38Z</time>
      </trkpt>
      <trkpt lat="33.404424944892526" lon="-5.206551505252719">
        <ele>1768</ele>
        <time>2019-03-10T17:31:48Z</time>
      </trkpt>
      <trkpt lat="33.404497196897864" lon="-5.206431644037366">
        <ele>1768</ele>
        <time>2019-03-10T17:31:49Z</time>
      </trkpt>
      <trkpt lat="33.405212592333555" lon="-5.205223644152284">
        <ele>1767.52</ele>
        <time>2019-03-10T17:31:58Z</time>
      </trkpt>
      <trkpt lat="33.405265146866441" lon="-5.20509397611022">
        <ele>1767.52</ele>
        <time>2019-03-10T17:32:06Z</time>
      </trkpt>
      <trkpt lat="33.405783483758569" lon="-5.203758906573057">
        <ele>1767.52</ele>
        <time>2019-03-10T17:32:12Z</time>
      </trkpt>
      <trkpt lat="33.406258402392268" lon="-5.202689711004496">
        <ele>1767.52</ele>
        <time>2019-03-10T17:32:13Z</time>
      </trkpt>
      <trkpt lat="33.406673390418291" lon="-5.202008346095681">
        <ele>1768.48</ele>
        <time>2019-03-10T17:32:14Z</time>
      </trkpt>
      <trkpt lat="33.406767603009939" lon="-5.201914049685001">
        <ele>1768.48</ele>
        <time>2019-03-10T17:32:15Z</time>
      </trkpt>
      <trkpt lat="33.406861564144492" lon="-5.201838947832584">
        <ele>1768.48</ele>
        <time>2019-03-10T17:32:16Z</time>
      </trkpt>
      <trkpt lat="33.406962649896741" lon="-5.201777340844274">
        <ele>1768.48</ele>
        <time>2019-03-10T17:32:17Z</time>
      </trkpt>
      <trkpt lat="33.407073793932796" lon="-5.201730150729418">
        <ele>1769.4400000000001</ele>
        <time>2019-03-10T17:32:18Z</time>
      </trkpt>
      <trkpt lat="33.407190134748816" lon="-5.201690504327416">
        <ele>1769.4400000000001</ele>
        <time>2019-03-10T17:32:24Z</time>
      </trkpt>
      <trkpt lat="33.407309828326106" lon="-5.20165597088635">
        <ele>1769.9200000000001</ele>
        <time>2019-03-10T17:32:25Z</time>
      </trkpt>
      <trkpt lat="33.408013572916389" lon="-5.201459163799882">
        <ele>1769.9200000000001</ele>
        <time>2019-03-10T17:32:26Z</time>
      </trkpt>
      <trkpt lat="33.408113569021225" lon="-5.20140627399087">
        <ele>1770.4100000000001</ele>
        <time>2019-03-10T17:32:28Z</time>
      </trkpt>
      <trkpt lat="33.408203423023224" lon="-5.201328573748469">
        <ele>1770.4100000000001</ele>
        <time>2019-03-10T17:32:31Z</time>
      </trkpt>
      <trkpt lat="33.408340215682983" lon="-5.201120534911752">
        <ele>1770.4100000000001</ele>
        <time>2019-03-10T17:32:32Z</time>
      </trkpt>
      <trkpt lat="33.408474326133728" lon="-5.200744019821286">
        <ele>1770.4100000000001</ele>
        <time>2019-03-10T17:32:33Z</time>
      </trkpt>
      <trkpt lat="33.408541548997164" lon="-5.200631283223629">
        <ele>1767.52</ele>
        <time>2019-03-10T17:32:34Z</time>
      </trkpt>
      <trkpt lat="33.408624362200499" lon="-5.200527850538492">
        <ele>1763.2</ele>
        <time>2019-03-10T17:32:35Z</time>
      </trkpt>
      <trkpt lat="33.408719580620527" lon="-5.200432715937495">
        <ele>1762.71</ele>
        <time>2019-03-10T17:32:36Z</time>
      </trkpt>
      <trkpt lat="33.408827958628535" lon="-5.200347388163209">
        <ele>1762.71</ele>
        <time>2019-03-10T17:32:37Z</time>
      </trkpt>
      <trkpt lat="33.408942706882954" lon="-5.200273795053363">
        <ele>1762.71</ele>
        <time>2019-03-10T17:32:46Z</time>
      </trkpt>
      <trkpt lat="33.409058880060911" lon="-5.200208500027657">
        <ele>1762.71</ele>
        <time>2019-03-10T17:32:53Z</time>
      </trkpt>
      <trkpt lat="33.410092452540994" lon="-5.199576923623681">
        <ele>1762.71</ele>
        <time>2019-03-10T17:33:03Z</time>
      </trkpt>
      <trkpt lat="33.410882279276848" lon="-5.199174089357257">
        <ele>1760.3099999999999</ele>
        <time>2019-03-10T17:33:04Z</time>
      </trkpt>
      <trkpt lat="33.412118023261428" lon="-5.198886254802346">
        <ele>1760.3099999999999</ele>
        <time>2019-03-10T17:33:05Z</time>
      </trkpt>
      <trkpt lat="33.412229586392641" lon="-5.198822217062116">
        <ele>1756.95</ele>
        <time>2019-03-10T17:33:06Z</time>
      </trkpt>
      <trkpt lat="33.412333773449063" lon="-5.198744768276811">
        <ele>1756.47</ele>
        <time>2019-03-10T17:33:07Z</time>
      </trkpt>
      <trkpt lat="33.412431506440043" lon="-5.198652818799019">
        <ele>1755.99</ele>
        <time>2019-03-10T17:33:08Z</time>
      </trkpt>
      <trkpt lat="33.412520857527852" lon="-5.198550643399358">
        <ele>1756.95</ele>
        <time>2019-03-10T17:33:13Z</time>
      </trkpt>
      <trkpt lat="33.412610795348883" lon="-5.198443019762635">
        <ele>1756.95</ele>
        <time>2019-03-10T17:33:14Z</time>
      </trkpt>
      <trkpt lat="33.413060987368226" lon="-5.197859639301896">
        <ele>1756.95</ele>
        <time>2019-03-10T17:33:21Z</time>
      </trkpt>
      <trkpt lat="33.413135753944516" lon="-5.197714464738965">
        <ele>1757.4300000000001</ele>
        <time>2019-03-10T17:33:31Z</time>
      </trkpt>
      <trkpt lat="33.413515035063028" lon="-5.196790192276239">
        <ele>1757.4300000000001</ele>
        <time>2019-03-10T17:33:41Z</time>
      </trkpt>
      <trkpt lat="33.414062960073352" lon="-5.19552712328732">
        <ele>1757.9100000000001</ele>
        <time>2019-03-10T17:33:43Z</time>
      </trkpt>
      <trkpt lat="33.414670899510384" lon="-5.19442230463028">
        <ele>1759.8299999999999</ele>
        <time>2019-03-10T17:33:44Z</time>
      </trkpt>
      <trkpt lat="33.414771147072315" lon="-5.194245614111424">
        <ele>1762.23</ele>
        <time>2019-03-10T17:33:45Z</time>
      </trkpt>
      <trkpt lat="33.414808781817555" lon="-5.194161124527454">
        <ele>1762.71</ele>
        <time>2019-03-10T17:33:46Z</time>
      </trkpt>
      <trkpt lat="33.41483635827899" lon="-5.194071438163519">
        <ele>1762.71</ele>
        <time>2019-03-10T17:33:47Z</time>
      </trkpt>
      <trkpt lat="33.414847841486335" lon="-5.193978315219283">
        <ele>1763.2</ele>
        <time>2019-03-10T17:33:48Z</time>
      </trkpt>
      <trkpt lat="33.414847087115049" lon="-5.193882677704096">
        <ele>1763.2</ele>
        <time>2019-03-10T17:33:59Z</time>
      </trkpt>
      <trkpt lat="33.414837950840592" lon="-5.193784777075052">
        <ele>1763.2</ele>
        <time>2019-03-10T17:34:07Z</time>
      </trkpt>
      <trkpt lat="33.41472202911973" lon="-5.19249714910984">
        <ele>1763.2</ele>
        <time>2019-03-10T17:34:08Z</time>
      </trkpt>
      <trkpt lat="33.414598647505045" lon="-5.191544881090522">
        <ele>1763.2</ele>
        <time>2019-03-10T17:34:09Z</time>
      </trkpt>
      <trkpt lat="33.414629828184843" lon="-5.191430049017072">
        <ele>1763.2</ele>
        <time>2019-03-10T17:34:10Z</time>
      </trkpt>
      <trkpt lat="33.414677185937762" lon="-5.191319156438112">
        <ele>1768</ele>
        <time>2019-03-10T17:34:11Z</time>
      </trkpt>
      <trkpt lat="33.414735188707709" lon="-5.191220166161656">
        <ele>1776.6500000000001</ele>
        <time>2019-03-10T17:34:12Z</time>
      </trkpt>
      <trkpt lat="33.414808278903365" lon="-5.191134084016085">
        <ele>1777.1300000000001</ele>
        <time>2019-03-10T17:34:13Z</time>
      </trkpt>
      <trkpt lat="33.414890924468637" lon="-5.191061748191714">
        <ele>1779.0599999999999</ele>
        <time>2019-03-10T17:34:15Z</time>
      </trkpt>
      <trkpt lat="33.414977425709367" lon="-5.190995614975691">
        <ele>1779.54</ele>
        <time>2019-03-10T17:34:16Z</time>
      </trkpt>
      <trkpt lat="33.415150847285986" lon="-5.190870640799403">
        <ele>1780.02</ele>
        <time>2019-03-10T17:34:27Z</time>
      </trkpt>
      <trkpt lat="33.415231062099338" lon="-5.190791515633464">
        <ele>1781.9400000000001</ele>
        <time>2019-03-10T17:34:38Z</time>
      </trkpt>
      <trkpt lat="33.416025498881936" lon="-5.189809827134013">
        <ele>1781.9400000000001</ele>
        <time>2019-03-10T17:34:39Z</time>
      </trkpt>
      <trkpt lat="33.416825132444501" lon="-5.188840795308352">
        <ele>1781.46</ele>
        <time>2019-03-10T17:34:42Z</time>
      </trkpt>
      <trkpt lat="33.416899982839823" lon="-5.188750103116036">
        <ele>1781.46</ele>
        <time>2019-03-10T17:34:43Z</time>
      </trkpt>
      <trkpt lat="33.417091174051166" lon="-5.188449695706368">
        <ele>1781.46</ele>
        <time>2019-03-10T17:34:44Z</time>
      </trkpt>
      <trkpt lat="33.417128305882215" lon="-5.188334193080664">
        <ele>1781.46</ele>
        <time>2019-03-10T17:34:50Z</time>
      </trkpt>
      <trkpt lat="33.417145572602749" lon="-5.188209721818566">
        <ele>1780.98</ele>
        <time>2019-03-10T17:35:01Z</time>
      </trkpt>
      <trkpt lat="33.41723844408989" lon="-5.187439927831292">
        <ele>1780.5</ele>
        <time>2019-03-10T17:35:10Z</time>
      </trkpt>
      <trkpt lat="33.417469868436456" lon="-5.186146935448051">
        <ele>1780.02</ele>
        <time>2019-03-10T17:35:17Z</time>
      </trkpt>
      <trkpt lat="33.417639099061489" lon="-5.184887638315558">
        <ele>1779.54</ele>
        <time>2019-03-10T17:35:18Z</time>
      </trkpt>
      <trkpt lat="33.417818387970328" lon="-5.184051208198071">
        <ele>1779.0599999999999</ele>
        <time>2019-03-10T17:35:19Z</time>
      </trkpt>
      <trkpt lat="33.417868930846453" lon="-5.183953978121281">
        <ele>1778.0999999999999</ele>
        <time>2019-03-10T17:35:20Z</time>
      </trkpt>
      <trkpt lat="33.417940428480506" lon="-5.183872589841485">
        <ele>1777.6099999999999</ele>
        <time>2019-03-10T17:35:21Z</time>
      </trkpt>
      <trkpt lat="33.418029611930251" lon="-5.183801176026464">
        <ele>1773.77</ele>
        <time>2019-03-10T17:35:22Z</time>
      </trkpt>
      <trkpt lat="33.418126925826073" lon="-5.183726996183395">
        <ele>1773.29</ele>
        <time>2019-03-10T17:35:23Z</time>
      </trkpt>
      <trkpt lat="33.418224491178989" lon="-5.183640075847507">
        <ele>1772.8099999999999</ele>
        <time>2019-03-10T17:35:24Z</time>
      </trkpt>
      <trkpt lat="33.418312836438417" lon="-5.183540666475892">
        <ele>1769.4400000000001</ele>
        <time>2019-03-10T17:35:25Z</time>
      </trkpt>
      <trkpt lat="33.41838818974793" lon="-5.183432204648852">
        <ele>1767.04</ele>
        <time>2019-03-10T17:35:26Z</time>
      </trkpt>
      <trkpt lat="33.418454406782985" lon="-5.183314858004451">
        <ele>1767.04</ele>
        <time>2019-03-10T17:35:33Z</time>
      </trkpt>
      <trkpt lat="33.418517941609025" lon="-5.183194661512971">
        <ele>1766.5599999999999</ele>
        <time>2019-03-10T17:35:34Z</time>
      </trkpt>
      <trkpt lat="33.418910969048738" lon="-5.182373067364097">
        <ele>1766.5599999999999</ele>
        <time>2019-03-10T17:35:35Z</time>
      </trkpt>
      <trkpt lat="33.418960254639387" lon="-5.182252870872617">
        <ele>1766.0799999999999</ele>
        <time>2019-03-10T17:35:40Z</time>
      </trkpt>
      <trkpt lat="33.4189975541085" lon="-5.182135188952088">
        <ele>1765.5999999999999</ele>
        <time>2019-03-10T17:35:48Z</time>
      </trkpt>
      <trkpt lat="33.41918908059597" lon="-5.181590197607875">
        <ele>1762.23</ele>
        <time>2019-03-10T17:35:49Z</time>
      </trkpt>
      <trkpt lat="33.419728623703122" lon="-5.180826857686043">
        <ele>1761.27</ele>
        <time>2019-03-10T17:35:50Z</time>
      </trkpt>
      <trkpt lat="33.419775227084756" lon="-5.180731052532792">
        <ele>1755.99</ele>
        <time>2019-03-10T17:35:51Z</time>
      </trkpt>
      <trkpt lat="33.419805150479078" lon="-5.180655531585217">
        <ele>1755.02</ele>
        <time>2019-03-10T17:35:52Z</time>
      </trkpt>
      <trkpt lat="33.419823590666056" lon="-5.180591493844986">
        <ele>1751.6600000000001</ele>
        <time>2019-03-10T17:35:53Z</time>
      </trkpt>
      <trkpt lat="33.419834822416306" lon="-5.180530725046992">
        <ele>1752.1400000000001</ele>
        <time>2019-03-10T17:36:00Z</time>
      </trkpt>
      <trkpt lat="33.419844377785921" lon="-5.180475320667028">
        <ele>1752.1400000000001</ele>
        <time>2019-03-10T17:36:01Z</time>
      </trkpt>
      <trkpt lat="33.419885281473398" lon="-5.180268958210945">
        <ele>1746.8499999999999</ele>
        <time>2019-03-10T17:36:10Z</time>
      </trkpt>
      <trkpt lat="33.419899446889758" lon="-5.180213302373886">
        <ele>1747.8099999999999</ele>
        <time>2019-03-10T17:36:11Z</time>
      </trkpt>
      <trkpt lat="33.420051243156195" lon="-5.179568566381931">
        <ele>1751.1800000000001</ele>
        <time>2019-03-10T17:36:20Z</time>
      </trkpt>
      <trkpt lat="33.420054763555527" lon="-5.17952648922801">
        <ele>1754.0599999999999</ele>
        <time>2019-03-10T17:36:29Z</time>
      </trkpt>
      <trkpt lat="33.419989719986916" lon="-5.179197667166591">
        <ele>1754.0599999999999</ele>
        <time>2019-03-10T17:36:38Z</time>
      </trkpt>
      <trkpt lat="33.41976860538125" lon="-5.178585536777973">
        <ele>1754.0599999999999</ele>
        <time>2019-03-10T17:36:57Z</time>
      </trkpt>
      <trkpt lat="33.419704651460052" lon="-5.178268197923899">
        <ele>1754.0599999999999</ele>
        <time>2019-03-10T17:37:16Z</time>
      </trkpt>
      <trkpt lat="33.41970263980329" lon="-5.17826534807682">
        <ele>1754.0599999999999</ele>
        <time>2019-03-10T17:37:27Z</time>
      </trkpt>
      <trkpt lat="33.419640948995948" lon="-5.178121346980333">
        <ele>1754.0599999999999</ele>
        <time>2019-03-10T17:38:25Z</time>
      </trkpt>
      <trkpt lat="33.419621754437685" lon="-5.177977345883846">
        <ele>1754.0599999999999</ele>
        <time>2019-03-10T17:38:28Z</time>
      </trkpt>
      <trkpt lat="33.419552687555552" lon="-5.177735527977347">
        <ele>1754.0599999999999</ele>
        <time>2019-03-10T17:38:29Z</time>
      </trkpt>
      <trkpt lat="33.419500300660729" lon="-5.177582474425435">
        <ele>1752.6199999999999</ele>
        <time>2019-03-10T17:38:30Z</time>
      </trkpt>
      <trkpt lat="33.41949007473886" lon="-5.177520699799061">
        <ele>1744.9300000000001</ele>
        <time>2019-03-10T17:38:31Z</time>
      </trkpt>
      <trkpt lat="33.419485632330179" lon="-5.177446939051151">
        <ele>1738.6800000000001</ele>
        <time>2019-03-10T17:38:32Z</time>
      </trkpt>
      <trkpt lat="33.419485799968243" lon="-5.177365802228451">
        <ele>1739.6400000000001</ele>
        <time>2019-03-10T17:38:33Z</time>
      </trkpt>
      <trkpt lat="33.41949007473886" lon="-5.177279720082879">
        <ele>1739.6400000000001</ele>
        <time>2019-03-10T17:38:34Z</time>
      </trkpt>
      <trkpt lat="33.419500635936856" lon="-5.177187686786056">
        <ele>1738.6800000000001</ele>
        <time>2019-03-10T17:38:44Z</time>
      </trkpt>
      <trkpt lat="33.419515639543533" lon="-5.177091797813773">
        <ele>1739.6400000000001</ele>
        <time>2019-03-10T17:38:56Z</time>
      </trkpt>
      <trkpt lat="33.419818561524153" lon="-5.175975412130356">
        <ele>1739.6400000000001</ele>
        <time>2019-03-10T17:39:09Z</time>
      </trkpt>
      <trkpt lat="33.420013776049018" lon="-5.174506986513734">
        <ele>1739.6400000000001</ele>
        <time>2019-03-10T17:39:19Z</time>
      </trkpt>
      <trkpt lat="33.41999676078558" lon="-5.173100084066391">
        <ele>1739.6400000000001</ele>
        <time>2019-03-10T17:39:20Z</time>
      </trkpt>
      <trkpt lat="33.420170685276389" lon="-5.172186372801662">
        <ele>1739.6400000000001</ele>
        <time>2019-03-10T17:39:33Z</time>
      </trkpt>
      <trkpt lat="33.420188622549176" lon="-5.172084867954254">
        <ele>1739.1600000000001</ele>
        <time>2019-03-10T17:39:44Z</time>
      </trkpt>
      <trkpt lat="33.420269088819623" lon="-5.170743260532618">
        <ele>1737.24</ele>
        <time>2019-03-10T17:39:45Z</time>
      </trkpt>
      <trkpt lat="33.420349303632975" lon="-5.169794596731663">
        <ele>1736.76</ele>
        <time>2019-03-10T17:39:46Z</time>
      </trkpt>
      <trkpt lat="33.420352321118116" lon="-5.169741120189428">
        <ele>1736.76</ele>
        <time>2019-03-10T17:39:47Z</time>
      </trkpt>
      <trkpt lat="33.420355254784226" lon="-5.169702060520649">
        <ele>1736.28</ele>
        <time>2019-03-10T17:39:48Z</time>
      </trkpt>
      <trkpt lat="33.420356931164861" lon="-5.169678507372737">
        <ele>1736.76</ele>
        <time>2019-03-10T17:39:49Z</time>
      </trkpt>
      <trkpt lat="33.420360116288066" lon="-5.169655960053206">
        <ele>1736.76</ele>
        <time>2019-03-10T17:39:53Z</time>
      </trkpt>
      <trkpt lat="33.420360619202256" lon="-5.169630898162723">
        <ele>1738.6800000000001</ele>
        <time>2019-03-10T17:39:54Z</time>
      </trkpt>
      <trkpt lat="33.420353913679719" lon="-5.169475749135017">
        <ele>1740.1199999999999</ele>
        <time>2019-03-10T17:39:55Z</time>
      </trkpt>
      <trkpt lat="33.420356763526797" lon="-5.169398887082934">
        <ele>1740.5999999999999</ele>
        <time>2019-03-10T17:39:57Z</time>
      </trkpt>
      <trkpt lat="33.420366486534476" lon="-5.16930827870965">
        <ele>1741.0799999999999</ele>
        <time>2019-03-10T17:39:59Z</time>
      </trkpt>
      <trkpt lat="33.420406300574541" lon="-5.169110046699643">
        <ele>1742.05</ele>
        <time>2019-03-10T17:40:00Z</time>
      </trkpt>
      <trkpt lat="33.420470925047994" lon="-5.168903265148401">
        <ele>1743.01</ele>
        <time>2019-03-10T17:40:10Z</time>
      </trkpt>
      <trkpt lat="33.420492215082049" lon="-5.168785583227873">
        <ele>1743.97</ele>
        <time>2019-03-10T17:40:13Z</time>
      </trkpt>
      <trkpt lat="33.420729674398899" lon="-5.167418997734785">
        <ele>1744.9300000000001</ele>
        <time>2019-03-10T17:40:14Z</time>
      </trkpt>
      <trkpt lat="33.420773260295391" lon="-5.167005266994238">
        <ele>1745.8900000000001</ele>
        <time>2019-03-10T17:40:15Z</time>
      </trkpt>
      <trkpt lat="33.420763788744807" lon="-5.166880041360855">
        <ele>1746.8499999999999</ele>
        <time>2019-03-10T17:40:16Z</time>
      </trkpt>
      <trkpt lat="33.420738140121102" lon="-5.16676789149642">
        <ele>1747.8099999999999</ele>
        <time>2019-03-10T17:40:17Z</time>
      </trkpt>
      <trkpt lat="33.42069698497653" lon="-5.166673008352518">
        <ele>1748.78</ele>
        <time>2019-03-10T17:40:18Z</time>
      </trkpt>
      <trkpt lat="33.420646274462342" lon="-5.16659296117723">
        <ele>1753.5799999999999</ele>
        <time>2019-03-10T17:40:19Z</time>
      </trkpt>
      <trkpt lat="33.420592965558171" lon="-5.166527163237333">
        <ele>1754.54</ele>
        <time>2019-03-10T17:40:20Z</time>
      </trkpt>
      <trkpt lat="33.420539991930127" lon="-5.166471339762211">
        <ele>1755.02</ele>
        <time>2019-03-10T17:40:21Z</time>
      </trkpt>
      <trkpt lat="33.4204844199121" lon="-5.166427167132497">
        <ele>1762.23</ele>
        <time>2019-03-10T17:40:22Z</time>
      </trkpt>
      <trkpt lat="33.420422226190567" lon="-5.166392885148525">
        <ele>1764.6400000000001</ele>
        <time>2019-03-10T17:40:23Z</time>
      </trkpt>
      <trkpt lat="33.420356260612607" lon="-5.166365979239345">
        <ele>1768.48</ele>
        <time>2019-03-10T17:40:30Z</time>
      </trkpt>
      <trkpt lat="33.420287361368537" lon="-5.166343012824655">
        <ele>1768.96</ele>
        <time>2019-03-10T17:40:31Z</time>
      </trkpt>
      <trkpt lat="33.41969333589077" lon="-5.166101865470409">
        <ele>1774.73</ele>
        <time>2019-03-10T17:40:32Z</time>
      </trkpt>
      <trkpt lat="33.419604068621993" lon="-5.16603447496891">
        <ele>1776.1700000000001</ele>
        <time>2019-03-10T17:40:42Z</time>
      </trkpt>
      <trkpt lat="33.419520333409309" lon="-5.165956858545542">
        <ele>1777.6099999999999</ele>
        <time>2019-03-10T17:40:45Z</time>
      </trkpt>
      <trkpt lat="33.418663451448083" lon="-5.16505085863173">
        <ele>1779.0599999999999</ele>
        <time>2019-03-10T17:40:49Z</time>
      </trkpt>
      <trkpt lat="33.418433787301183" lon="-5.16473762691021">
        <ele>1780.5</ele>
        <time>2019-03-10T17:40:50Z</time>
      </trkpt>
      <trkpt lat="33.418147964403033" lon="-5.164385419338942">
        <ele>1781.9400000000001</ele>
        <time>2019-03-10T17:40:55Z</time>
      </trkpt>
      <trkpt lat="33.418107982724905" lon="-5.164293637499213">
        <ele>1797.3199999999999</ele>
        <time>2019-03-10T17:40:56Z</time>
      </trkpt>
      <trkpt lat="33.417911259457469" lon="-5.163834057748318">
        <ele>1799.73</ele>
        <time>2019-03-10T17:40:57Z</time>
      </trkpt>
      <trkpt lat="33.417859207838774" lon="-5.163757363334298">
        <ele>1801.1700000000001</ele>
        <time>2019-03-10T17:40:58Z</time>
      </trkpt>
      <trkpt lat="33.417800618335605" lon="-5.163686955347657">
        <ele>1803.5699999999999</ele>
        <time>2019-03-10T17:40:59Z</time>
      </trkpt>
      <trkpt lat="33.417736161500216" lon="-5.163621241226792">
        <ele>1804.53</ele>
        <time>2019-03-10T17:41:00Z</time>
      </trkpt>
      <trkpt lat="33.417667765170336" lon="-5.163561562076211">
        <ele>1805.49</ele>
        <time>2019-03-10T17:41:11Z</time>
      </trkpt>
      <trkpt lat="33.417599201202393" lon="-5.16350825317204">
        <ele>1806.45</ele>
        <time>2019-03-10T17:41:13Z</time>
      </trkpt>
      <trkpt lat="33.416960751637816" lon="-5.16297566704452">
        <ele>1807.4200000000001</ele>
        <time>2019-03-10T17:41:14Z</time>
      </trkpt>
      <trkpt lat="33.416807278990746" lon="-5.16288966871798">
        <ele>1807.9000000000001</ele>
        <time>2019-03-10T17:41:16Z</time>
      </trkpt>
      <trkpt lat="33.416722705587745" lon="-5.162858739495277">
        <ele>1807.4200000000001</ele>
        <time>2019-03-10T17:41:17Z</time>
      </trkpt>
      <trkpt lat="33.416546937078238" lon="-5.162788247689605">
        <ele>1807.4200000000001</ele>
        <time>2019-03-10T17:41:18Z</time>
      </trkpt>
      <trkpt lat="33.416456412523985" lon="-5.162735022604466">
        <ele>1807.4200000000001</ele>
        <time>2019-03-10T17:41:19Z</time>
      </trkpt>
      <trkpt lat="33.416375108063221" lon="-5.162662602961063">
        <ele>1807.9000000000001</ele>
        <time>2019-03-10T17:41:20Z</time>
      </trkpt>
      <trkpt lat="33.416306795552373" lon="-5.16257987357676">
        <ele>1808.3800000000001</ele>
        <time>2019-03-10T17:41:21Z</time>
      </trkpt>
      <trkpt lat="33.41624803841114" lon="-5.162492282688618">
        <ele>1807.9000000000001</ele>
        <time>2019-03-10T17:41:22Z</time>
      </trkpt>
      <trkpt lat="33.41619917191565" lon="-5.162401841953397">
        <ele>1807.4200000000001</ele>
        <time>2019-03-10T17:41:23Z</time>
      </trkpt>
      <trkpt lat="33.416168242692947" lon="-5.162304611876607">
        <ele>1807.4200000000001</ele>
        <time>2019-03-10T17:41:24Z</time>
      </trkpt>
      <trkpt lat="33.416159860789776" lon="-5.162198999896646">
        <ele>1806.9400000000001</ele>
        <time>2019-03-10T17:41:25Z</time>
      </trkpt>
      <trkpt lat="33.41617570258677" lon="-5.162087101489306">
        <ele>1806.9400000000001</ele>
        <time>2019-03-10T17:41:26Z</time>
      </trkpt>
      <trkpt lat="33.416212582960725" lon="-5.16196564771235">
        <ele>1806.9400000000001</ele>
        <time>2019-03-10T17:41:32Z</time>
      </trkpt>
      <trkpt lat="33.416253067553043" lon="-5.161838913336396">
        <ele>1806.9400000000001</ele>
        <time>2019-03-10T17:41:33Z</time>
      </trkpt>
      <trkpt lat="33.416500752791762" lon="-5.161068867892027">
        <ele>1806.45</ele>
        <time>2019-03-10T17:41:42Z</time>
      </trkpt>
      <trkpt lat="33.416518438607454" lon="-5.160932578146458">
        <ele>1806.45</ele>
        <time>2019-03-10T17:41:45Z</time>
      </trkpt>
      <trkpt lat="33.416533106938004" lon="-5.15968325547874">
        <ele>1806.45</ele>
        <time>2019-03-10T17:41:54Z</time>
      </trkpt>
      <trkpt lat="33.416493963450193" lon="-5.159244714304805">
        <ele>1806.45</ele>
        <time>2019-03-10T17:41:56Z</time>
      </trkpt>
      <trkpt lat="33.416692698374391" lon="-5.157987847924233">
        <ele>1806.45</ele>
        <time>2019-03-10T17:41:57Z</time>
      </trkpt>
      <trkpt lat="33.416752461344004" lon="-5.157722141593695">
        <ele>1806.45</ele>
        <time>2019-03-10T17:41:58Z</time>
      </trkpt>
      <trkpt lat="33.41676352545619" lon="-5.157588617876172">
        <ele>1806.45</ele>
        <time>2019-03-10T17:41:59Z</time>
      </trkpt>
      <trkpt lat="33.416759753599763" lon="-5.157461296766996">
        <ele>1806.45</ele>
        <time>2019-03-10T17:42:00Z</time>
      </trkpt>
      <trkpt lat="33.416744582355022" lon="-5.157341016456485">
        <ele>1806.45</ele>
        <time>2019-03-10T17:42:01Z</time>
      </trkpt>
      <trkpt lat="33.416716838255525" lon="-5.157229956239462">
        <ele>1804.53</ele>
        <time>2019-03-10T17:42:09Z</time>
      </trkpt>
      <trkpt lat="33.416685741394758" lon="-5.157120572403073">
        <ele>1803.5699999999999</ele>
        <time>2019-03-10T17:42:10Z</time>
      </trkpt>
      <trkpt lat="33.416575016453862" lon="-5.156396878883243">
        <ele>1803.0899999999999</ele>
        <time>2019-03-10T17:42:11Z</time>
      </trkpt>
      <trkpt lat="33.416562108322978" lon="-5.15634055249393">
        <ele>1801.6500000000001</ele>
        <time>2019-03-10T17:42:12Z</time>
      </trkpt>
      <trkpt lat="33.416546517983079" lon="-5.156289506703615">
        <ele>1800.21</ele>
        <time>2019-03-10T17:42:13Z</time>
      </trkpt>
      <trkpt lat="33.416517013683915" lon="-5.156236784532666">
        <ele>1799.73</ele>
        <time>2019-03-10T17:42:20Z</time>
      </trkpt>
      <trkpt lat="33.41646546497941" lon="-5.15616562217474">
        <ele>1799.73</ele>
        <time>2019-03-10T17:42:21Z</time>
      </trkpt>
      <trkpt lat="33.415944697335362" lon="-5.155422734096646">
        <ele>1799.73</ele>
        <time>2019-03-10T17:42:22Z</time>
      </trkpt>
      <trkpt lat="33.415913851931691" lon="-5.155316283926368">
        <ele>1798.76</ele>
        <time>2019-03-10T17:42:23Z</time>
      </trkpt>
      <trkpt lat="33.415908655151725" lon="-5.155216790735722">
        <ele>1797.8</ele>
        <time>2019-03-10T17:42:24Z</time>
      </trkpt>
      <trkpt lat="33.415923323482275" lon="-5.155128361657262">
        <ele>1797.3199999999999</ele>
        <time>2019-03-10T17:42:25Z</time>
      </trkpt>
      <trkpt lat="33.415951821953058" lon="-5.155045129358769">
        <ele>1796.8399999999999</ele>
        <time>2019-03-10T17:42:26Z</time>
      </trkpt>
      <trkpt lat="33.41599440202117" lon="-5.154970278963447">
        <ele>1795.8800000000001</ele>
        <time>2019-03-10T17:42:27Z</time>
      </trkpt>
      <trkpt lat="33.416047794744372" lon="-5.15489911660552">
        <ele>1795.8800000000001</ele>
        <time>2019-03-10T17:42:28Z</time>
      </trkpt>
      <trkpt lat="33.416102612391114" lon="-5.154841113835573">
        <ele>1795.4000000000001</ele>
        <time>2019-03-10T17:42:29Z</time>
      </trkpt>
      <trkpt lat="33.416162962093949" lon="-5.154805155470967">
        <ele>1794.9200000000001</ele>
        <time>2019-03-10T17:42:30Z</time>
      </trkpt>
      <trkpt lat="33.416226580739021" lon="-5.154796186834574">
        <ele>1794.4400000000001</ele>
        <time>2019-03-10T17:42:31Z</time>
      </trkpt>
      <trkpt lat="33.416292211040854" lon="-5.154812950640917">
        <ele>1794.4400000000001</ele>
        <time>2019-03-10T17:42:32Z</time>
      </trkpt>
      <trkpt lat="33.41635256074369" lon="-5.15484044328332">
        <ele>1792.52</ele>
        <time>2019-03-10T17:42:33Z</time>
      </trkpt>
      <trkpt lat="33.416399918496609" lon="-5.154847148805857">
        <ele>1791.55</ele>
        <time>2019-03-10T17:42:34Z</time>
      </trkpt>
      <trkpt lat="33.416426908224821" lon="-5.154828960075975">
        <ele>1785.3099999999999</ele>
        <time>2019-03-10T17:42:35Z</time>
      </trkpt>
      <trkpt lat="33.41643369756639" lon="-5.154802892357111">
        <ele>1784.8199999999999</ele>
        <time>2019-03-10T17:42:36Z</time>
      </trkpt>
      <trkpt lat="33.416432943195105" lon="-5.154778752475977">
        <ele>1784.8199999999999</ele>
        <time>2019-03-10T17:42:37Z</time>
      </trkpt>
      <trkpt lat="33.416424142196774" lon="-5.15475888736546">
        <ele>1785.3099999999999</ele>
        <time>2019-03-10T17:42:40Z</time>
      </trkpt>
      <trkpt lat="33.416410898789763" lon="-5.15473592095077">
        <ele>1785.79</ele>
        <time>2019-03-10T17:42:43Z</time>
      </trkpt>
      <trkpt lat="33.416337054222822" lon="-5.154628548771143">
        <ele>1785.79</ele>
        <time>2019-03-10T17:42:57Z</time>
      </trkpt>
      <trkpt lat="33.416263293474913" lon="-5.154490247368813">
        <ele>1792.03</ele>
        <time>2019-03-10T17:43:01Z</time>
      </trkpt>
      <trkpt lat="33.415684187784791" lon="-5.15376940369606">
        <ele>1794.9200000000001</ele>
        <time>2019-03-10T17:43:02Z</time>
      </trkpt>
      <trkpt lat="33.41550825163722" lon="-5.153482658788562">
        <ele>1795.4000000000001</ele>
        <time>2019-03-10T17:43:03Z</time>
      </trkpt>
      <trkpt lat="33.415472628548741" lon="-5.153400180861354">
        <ele>1795.8800000000001</ele>
        <time>2019-03-10T17:43:06Z</time>
      </trkpt>
      <trkpt lat="33.415442872792482" lon="-5.153311332687736">
        <ele>1796.3599999999999</ele>
        <time>2019-03-10T17:43:07Z</time>
      </trkpt>
      <trkpt lat="33.415360227227211" lon="-5.153044452890754">
        <ele>1797.3199999999999</ele>
        <time>2019-03-10T17:43:20Z</time>
      </trkpt>
      <trkpt lat="33.415316054597497" lon="-5.15296071767807">
        <ele>1801.6500000000001</ele>
        <time>2019-03-10T17:43:28Z</time>
      </trkpt>
      <trkpt lat="33.414766201749444" lon="-5.151890097185969">
        <ele>1802.1300000000001</ele>
        <time>2019-03-10T17:43:29Z</time>
      </trkpt>
      <trkpt lat="33.414505524560809" lon="-5.15142448246479">
        <ele>1802.6099999999999</ele>
        <time>2019-03-10T17:43:30Z</time>
      </trkpt>
      <trkpt lat="33.414464788511395" lon="-5.151362037286162">
        <ele>1802.6099999999999</ele>
        <time>2019-03-10T17:43:31Z</time>
      </trkpt>
      <trkpt lat="33.414413072168827" lon="-5.151296826079488">
        <ele>1803.0899999999999</ele>
        <time>2019-03-10T17:43:32Z</time>
      </trkpt>
      <trkpt lat="33.414360266178846" lon="-5.15122851356864">
        <ele>1803.5699999999999</ele>
        <time>2019-03-10T17:43:42Z</time>
      </trkpt>
      <trkpt lat="33.414308801293373" lon="-5.151156093925238">
        <ele>1804.05</ele>
        <time>2019-03-10T17:43:45Z</time>
      </trkpt>
      <trkpt lat="33.413733467459679" lon="-5.150206424295902">
        <ele>1804.53</ele>
        <time>2019-03-10T17:43:46Z</time>
      </trkpt>
      <trkpt lat="33.413634644821286" lon="-5.149879110977054">
        <ele>1804.53</ele>
        <time>2019-03-10T17:43:47Z</time>
      </trkpt>
      <trkpt lat="33.413621820509434" lon="-5.149768721312285">
        <ele>1805.01</ele>
        <time>2019-03-10T17:43:48Z</time>
      </trkpt>
      <trkpt lat="33.413605140522122" lon="-5.149664953351021">
        <ele>1805.01</ele>
        <time>2019-03-10T17:43:49Z</time>
      </trkpt>
      <trkpt lat="33.413573373109102" lon="-5.149579793214798">
        <ele>1805.49</ele>
        <time>2019-03-10T17:43:50Z</time>
      </trkpt>
      <trkpt lat="33.413540599867702" lon="-5.149506870657206">
        <ele>1805.49</ele>
        <time>2019-03-10T17:43:51Z</time>
      </trkpt>
      <trkpt lat="33.413516962900758" lon="-5.149442330002785">
        <ele>1805.01</ele>
        <time>2019-03-10T17:43:52Z</time>
      </trkpt>
      <trkpt lat="33.413497935980558" lon="-5.149383489042521">
        <ele>1805.97</ele>
        <time>2019-03-10T17:43:53Z</time>
      </trkpt>
      <trkpt lat="33.413471868261695" lon="-5.149328503757715">
        <ele>1806.45</ele>
        <time>2019-03-10T17:43:54Z</time>
      </trkpt>
      <trkpt lat="33.413450075313449" lon="-5.149266980588436">
        <ele>1806.9400000000001</ele>
        <time>2019-03-10T17:43:55Z</time>
      </trkpt>
      <trkpt lat="33.413426605984569" lon="-5.14920512214303">
        <ele>1807.9000000000001</ele>
        <time>2019-03-10T17:43:56Z</time>
      </trkpt>
      <trkpt lat="33.413401208817959" lon="-5.149134127423167">
        <ele>1808.8599999999999</ele>
        <time>2019-03-10T17:43:57Z</time>
      </trkpt>
      <trkpt lat="33.413380589336157" lon="-5.149051984772086">
        <ele>1809.3399999999999</ele>
        <time>2019-03-10T17:44:01Z</time>
      </trkpt>
      <trkpt lat="33.413368267938495" lon="-5.148971183225513">
        <ele>1809.8199999999999</ele>
        <time>2019-03-10T17:44:02Z</time>
      </trkpt>
      <trkpt lat="33.413288723677397" lon="-5.148684438318014">
        <ele>1810.3</ele>
        <time>2019-03-10T17:44:03Z</time>
      </trkpt>
      <trkpt lat="33.413256788626313" lon="-5.148618388921022">
        <ele>1810.3</ele>
        <time>2019-03-10T17:44:05Z</time>
      </trkpt>
      <trkpt lat="33.413218650966883" lon="-5.148557703942061">
        <ele>1810.3</ele>
        <time>2019-03-10T17:44:13Z</time>
      </trkpt>
      <trkpt lat="33.413141453638673" lon="-5.148451086133719">
        <ele>1812.22</ele>
        <time>2019-03-10T17:44:14Z</time>
      </trkpt>
      <trkpt lat="33.41274406760931" lon="-5.14800064265728">
        <ele>1812.7</ele>
        <time>2019-03-10T17:44:15Z</time>
      </trkpt>
      <trkpt lat="33.412703331559896" lon="-5.147932749241591">
        <ele>1813.6600000000001</ele>
        <time>2019-03-10T17:44:16Z</time>
      </trkpt>
      <trkpt lat="33.412677766755223" lon="-5.147855887189508">
        <ele>1813.6600000000001</ele>
        <time>2019-03-10T17:44:17Z</time>
      </trkpt>
      <trkpt lat="33.412669384852052" lon="-5.147766955196858">
        <ele>1814.1500000000001</ele>
        <time>2019-03-10T17:44:18Z</time>
      </trkpt>
      <trkpt lat="33.412671396508813" lon="-5.147664612159133">
        <ele>1814.6300000000001</ele>
        <time>2019-03-10T17:44:24Z</time>
      </trkpt>
      <trkpt lat="33.412680197507143" lon="-5.147550869733095">
        <ele>1814.6300000000001</ele>
        <time>2019-03-10T17:44:25Z</time>
      </trkpt>
      <trkpt lat="33.412684220820665" lon="-5.146894818171859">
        <ele>1815.1099999999999</ele>
        <time>2019-03-10T17:44:26Z</time>
      </trkpt>
      <trkpt lat="33.412698805332184" lon="-5.146805299445987">
        <ele>1817.51</ele>
        <time>2019-03-10T17:44:27Z</time>
      </trkpt>
      <trkpt lat="33.412731243297458" lon="-5.146719720214605">
        <ele>1817.99</ele>
        <time>2019-03-10T17:44:28Z</time>
      </trkpt>
      <trkpt lat="33.412773991003633" lon="-5.146636990830302">
        <ele>1819.9100000000001</ele>
        <time>2019-03-10T17:44:29Z</time>
      </trkpt>
      <trkpt lat="33.412818750366569" lon="-5.14655233360827">
        <ele>1820.3900000000001</ele>
        <time>2019-03-10T17:44:30Z</time>
      </trkpt>
      <trkpt lat="33.412853870540857" lon="-5.146454768255353">
        <ele>1820.8699999999999</ele>
        <time>2019-03-10T17:44:31Z</time>
      </trkpt>
      <trkpt lat="33.41287650167942" lon="-5.146350665017963">
        <ele>1821.3499999999999</ele>
        <time>2019-03-10T17:44:38Z</time>
      </trkpt>
      <trkpt lat="33.412890918552876" lon="-5.146248741075397">
        <ele>1821.8399999999999</ele>
        <time>2019-03-10T17:44:39Z</time>
      </trkpt>
      <trkpt lat="33.412922853603959" lon="-5.145697379484773">
        <ele>1822.3199999999999</ele>
        <time>2019-03-10T17:44:46Z</time>
      </trkpt>
      <trkpt lat="33.412925535812974" lon="-5.145633677020669">
        <ele>1822.8</ele>
        <time>2019-03-10T17:44:47Z</time>
      </trkpt>
      <trkpt lat="33.412981443107128" lon="-5.14530242420733">
        <ele>1823.28</ele>
        <time>2019-03-10T17:44:48Z</time>
      </trkpt>
      <trkpt lat="33.41299083083868" lon="-5.145242912694812">
        <ele>1823.28</ele>
        <time>2019-03-10T17:44:49Z</time>
      </trkpt>
      <trkpt lat="33.412988400086761" lon="-5.145183904096484">
        <ele>1823.76</ele>
        <time>2019-03-10T17:44:50Z</time>
      </trkpt>
      <trkpt lat="33.412971636280417" lon="-5.145127661526203">
        <ele>1823.76</ele>
        <time>2019-03-10T17:44:51Z</time>
      </trkpt>
      <trkpt lat="33.412950597703457" lon="-5.14507669955492">
        <ele>1824.24</ele>
        <time>2019-03-10T17:44:52Z</time>
      </trkpt>
      <trkpt lat="33.412933917716146" lon="-5.145026240497828">
        <ele>1824.24</ele>
        <time>2019-03-10T17:44:56Z</time>
      </trkpt>
      <trkpt lat="33.41291950084269" lon="-5.14496966265142">
        <ele>1824.72</ele>
        <time>2019-03-10T17:44:57Z</time>
      </trkpt>
      <trkpt lat="33.412837777286768" lon="-5.144683504477143">
        <ele>1825.2</ele>
        <time>2019-03-10T17:44:59Z</time>
      </trkpt>
      <trkpt lat="33.41283543035388" lon="-5.144611336290836">
        <ele>1825.6800000000001</ele>
        <time>2019-03-10T17:45:00Z</time>
      </trkpt>
      <trkpt lat="33.412857558578253" lon="-5.144453756511211">
        <ele>1825.6800000000001</ele>
        <time>2019-03-10T17:45:03Z</time>
      </trkpt>
      <trkpt lat="33.412881195545197" lon="-5.144373122602701">
        <ele>1826.1600000000001</ele>
        <time>2019-03-10T17:45:04Z</time>
      </trkpt>
      <trkpt lat="33.412926625460386" lon="-5.144138177856803">
        <ele>1826.1600000000001</ele>
        <time>2019-03-10T17:45:08Z</time>
      </trkpt>
      <trkpt lat="33.41293266043067" lon="-5.144056873396039">
        <ele>1826.1600000000001</ele>
        <time>2019-03-10T17:45:09Z</time>
      </trkpt>
      <trkpt lat="33.412952860817313" lon="-5.143751436844468">
        <ele>1826.1600000000001</ele>
        <time>2019-03-10T17:45:10Z</time>
      </trkpt>
      <trkpt lat="33.412985801696777" lon="-5.14368505217135">
        <ele>1826.1600000000001</ele>
        <time>2019-03-10T17:45:11Z</time>
      </trkpt>
      <trkpt lat="33.413034249097109" lon="-5.14362595975399">
        <ele>1826.1600000000001</ele>
        <time>2019-03-10T17:45:12Z</time>
      </trkpt>
      <trkpt lat="33.413084037601948" lon="-5.143567034974694">
        <ele>1826.1600000000001</ele>
        <time>2019-03-10T17:45:14Z</time>
      </trkpt>
      <trkpt lat="33.413131814450026" lon="-5.14350475743413">
        <ele>1826.1600000000001</ele>
        <time>2019-03-10T17:45:15Z</time>
      </trkpt>
      <trkpt lat="33.4132194891572" lon="-5.143385985866189">
        <ele>1825.6800000000001</ele>
        <time>2019-03-10T17:45:16Z</time>
      </trkpt>
      <trkpt lat="33.413246395066381" lon="-5.143322953954339">
        <ele>1825.2</ele>
        <time>2019-03-10T17:45:18Z</time>
      </trkpt>
      <trkpt lat="33.413265841081738" lon="-5.143254892900586">
        <ele>1825.2</ele>
        <time>2019-03-10T17:45:19Z</time>
      </trkpt>
      <trkpt lat="33.41328788548708" lon="-5.14311483129859">
        <ele>1825.2</ele>
        <time>2019-03-10T17:45:20Z</time>
      </trkpt>
      <trkpt lat="33.413283945992589" lon="-5.143048362806439">
        <ele>1825.2</ele>
        <time>2019-03-10T17:45:21Z</time>
      </trkpt>
      <trkpt lat="33.41326885856688" lon="-5.14298390597105">
        <ele>1825.2</ele>
        <time>2019-03-10T17:45:22Z</time>
      </trkpt>
      <trkpt lat="33.413251508027315" lon="-5.142917186021805">
        <ele>1824.72</ele>
        <time>2019-03-10T17:45:23Z</time>
      </trkpt>
      <trkpt lat="33.413243964314461" lon="-5.142845772206783">
        <ele>1824.72</ele>
        <time>2019-03-10T17:45:24Z</time>
      </trkpt>
      <trkpt lat="33.413248071447015" lon="-5.142771508544684">
        <ele>1824.72</ele>
        <time>2019-03-10T17:45:26Z</time>
      </trkpt>
      <trkpt lat="33.413258381187916" lon="-5.142700932919979">
        <ele>1825.6800000000001</ele>
        <time>2019-03-10T17:45:27Z</time>
      </trkpt>
      <trkpt lat="33.413285622373223" lon="-5.142581574618816">
        <ele>1826.1600000000001</ele>
        <time>2019-03-10T17:45:28Z</time>
      </trkpt>
      <trkpt lat="33.413305319845676" lon="-5.14253824017942">
        <ele>1826.1600000000001</ele>
        <time>2019-03-10T17:45:29Z</time>
      </trkpt>
      <trkpt lat="33.413329711183906" lon="-5.142495073378086">
        <ele>1826.6400000000001</ele>
        <time>2019-03-10T17:45:30Z</time>
      </trkpt>
      <trkpt lat="33.413348905742168" lon="-5.142455594614148">
        <ele>1826.6400000000001</ele>
        <time>2019-03-10T17:45:31Z</time>
      </trkpt>
      <trkpt lat="33.41335485689342" lon="-5.142415780574083">
        <ele>1827.1199999999999</ele>
        <time>2019-03-10T17:45:35Z</time>
      </trkpt>
      <trkpt lat="33.413357036188245" lon="-5.142369344830513">
        <ele>1828.0799999999999</ele>
        <time>2019-03-10T17:45:37Z</time>
      </trkpt>
      <trkpt lat="33.413364998996258" lon="-5.142133561894298">
        <ele>1829.05</ele>
        <time>2019-03-10T17:45:38Z</time>
      </trkpt>
      <trkpt lat="33.413383439183235" lon="-5.142004480585456">
        <ele>1829.05</ele>
        <time>2019-03-10T17:45:39Z</time>
      </trkpt>
      <trkpt lat="33.413389809429646" lon="-5.141937928274274">
        <ele>1829.05</ele>
        <time>2019-03-10T17:45:40Z</time>
      </trkpt>
      <trkpt lat="33.413405315950513" lon="-5.141871627420187">
        <ele>1829.05</ele>
        <time>2019-03-10T17:45:41Z</time>
      </trkpt>
      <trkpt lat="33.413434736430645" lon="-5.141806919127703">
        <ele>1829.05</ele>
        <time>2019-03-10T17:45:43Z</time>
      </trkpt>
      <trkpt lat="33.413471700623631" lon="-5.141741540282965">
        <ele>1829.05</ele>
        <time>2019-03-10T17:45:44Z</time>
      </trkpt>
      <trkpt lat="33.41354445554316" lon="-5.141605837270618">
        <ele>1829.05</ele>
        <time>2019-03-10T17:45:45Z</time>
      </trkpt>
      <trkpt lat="33.41357035562396" lon="-5.141531825065613">
        <ele>1829.05</ele>
        <time>2019-03-10T17:45:46Z</time>
      </trkpt>
      <trkpt lat="33.41358745470643" lon="-5.14145010150969">
        <ele>1829.53</ele>
        <time>2019-03-10T17:45:47Z</time>
      </trkpt>
      <trkpt lat="33.413596004247665" lon="-5.141369635239244">
        <ele>1829.53</ele>
        <time>2019-03-10T17:45:48Z</time>
      </trkpt>
      <trkpt lat="33.413598518818617" lon="-5.141295539215207">
        <ele>1830.01</ele>
        <time>2019-03-10T17:45:49Z</time>
      </trkpt>
      <trkpt lat="33.413599524646997" lon="-5.141226891428232">
        <ele>1830.01</ele>
        <time>2019-03-10T17:45:50Z</time>
      </trkpt>
      <trkpt lat="33.413599105551839" lon="-5.141158243641257">
        <ele>1830.49</ele>
        <time>2019-03-10T17:45:51Z</time>
      </trkpt>
      <trkpt lat="33.413590975105762" lon="-5.141087165102363">
        <ele>1830.97</ele>
        <time>2019-03-10T17:45:52Z</time>
      </trkpt>
      <trkpt lat="33.413571864366531" lon="-5.141020026057959">
        <ele>1831.45</ele>
        <time>2019-03-10T17:45:53Z</time>
      </trkpt>
      <trkpt lat="33.413544539362192" lon="-5.140951797366142">
        <ele>1831.45</ele>
        <time>2019-03-10T17:45:54Z</time>
      </trkpt>
      <trkpt lat="33.413515537977219" lon="-5.140884323045611">
        <ele>1831.45</ele>
        <time>2019-03-10T17:45:55Z</time>
      </trkpt>
      <trkpt lat="33.413493828848004" lon="-5.140814082697034">
        <ele>1831.9300000000001</ele>
        <time>2019-03-10T17:45:57Z</time>
      </trkpt>
      <trkpt lat="33.413479244336486" lon="-5.140740741044283">
        <ele>1832.4100000000001</ele>
        <time>2019-03-10T17:45:58Z</time>
      </trkpt>
      <trkpt lat="33.41345401480794" lon="-5.140604786574841">
        <ele>1832.4100000000001</ele>
        <time>2019-03-10T17:45:59Z</time>
      </trkpt>
      <trkpt lat="33.41343398205936" lon="-5.1405378151685">
        <ele>1832.8900000000001</ele>
        <time>2019-03-10T17:46:00Z</time>
      </trkpt>
      <trkpt lat="33.413407495245337" lon="-5.140474867075682">
        <ele>1833.3699999999999</ele>
        <time>2019-03-10T17:46:01Z</time>
      </trkpt>
      <trkpt lat="33.413377739489079" lon="-5.140409823507071">
        <ele>1834.3299999999999</ele>
        <time>2019-03-10T17:46:02Z</time>
      </trkpt>
      <trkpt lat="33.413362735882401" lon="-5.140334721654654">
        <ele>1834.3299999999999</ele>
        <time>2019-03-10T17:46:03Z</time>
      </trkpt>
      <trkpt lat="33.413358377292752" lon="-5.140248388051987">
        <ele>1834.8099999999999</ele>
        <time>2019-03-10T17:46:04Z</time>
      </trkpt>
      <trkpt lat="33.413354102522135" lon="-5.140155768021941">
        <ele>1834.8099999999999</ele>
        <time>2019-03-10T17:46:06Z</time>
      </trkpt>
      <trkpt lat="33.413348570466042" lon="-5.140075804665685">
        <ele>1835.29</ele>
        <time>2019-03-10T17:46:07Z</time>
      </trkpt>
      <trkpt lat="33.413343373686075" lon="-5.139942364767194">
        <ele>1835.77</ele>
        <time>2019-03-10T17:46:09Z</time>
      </trkpt>
      <trkpt lat="33.413352174684405" lon="-5.139862569049001">
        <ele>1836.26</ele>
        <time>2019-03-10T17:46:10Z</time>
      </trkpt>
      <trkpt lat="33.413381595164537" lon="-5.139700714498758">
        <ele>1836.74</ele>
        <time>2019-03-10T17:46:11Z</time>
      </trkpt>
      <trkpt lat="33.413385534659028" lon="-5.1396225951612">
        <ele>1837.7</ele>
        <time>2019-03-10T17:46:12Z</time>
      </trkpt>
      <trkpt lat="33.413384109735489" lon="-5.139544811099768">
        <ele>1838.1800000000001</ele>
        <time>2019-03-10T17:46:13Z</time>
      </trkpt>
      <trkpt lat="33.413376566022635" lon="-5.139467110857368">
        <ele>1839.1400000000001</ele>
        <time>2019-03-10T17:46:14Z</time>
      </trkpt>
      <trkpt lat="33.413365921005607" lon="-5.139390416443348">
        <ele>1841.0599999999999</ele>
        <time>2019-03-10T17:46:15Z</time>
      </trkpt>
      <trkpt lat="33.413350246846676" lon="-5.139313638210297">
        <ele>1841.54</ele>
        <time>2019-03-10T17:46:16Z</time>
      </trkpt>
      <trkpt lat="33.413322921842337" lon="-5.139243062585592">
        <ele>1842.5</ele>
        <time>2019-03-10T17:46:17Z</time>
      </trkpt>
      <trkpt lat="33.413279503583908" lon="-5.139178186655045">
        <ele>1848.75</ele>
        <time>2019-03-10T17:46:18Z</time>
      </trkpt>
      <trkpt lat="33.413225691765547" lon="-5.139120519161224">
        <ele>1851.6400000000001</ele>
        <time>2019-03-10T17:46:19Z</time>
      </trkpt>
      <trkpt lat="33.413163665682077" lon="-5.139071987941861">
        <ele>1852.1199999999999</ele>
        <time>2019-03-10T17:46:22Z</time>
      </trkpt>
      <trkpt lat="33.413097532466054" lon="-5.139028653502464">
        <ele>1852.1199999999999</ele>
        <time>2019-03-10T17:46:23Z</time>
      </trkpt>
      <trkpt lat="33.412887146696448" lon="-5.138925304636359">
        <ele>1851.6400000000001</ele>
        <time>2019-03-10T17:46:24Z</time>
      </trkpt>
      <trkpt lat="33.412810284644365" lon="-5.138907870277762">
        <ele>1851.1600000000001</ele>
        <time>2019-03-10T17:46:30Z</time>
      </trkpt>
      <trkpt lat="33.412730153650045" lon="-5.138900578022003">
        <ele>1850.6800000000001</ele>
        <time>2019-03-10T17:46:34Z</time>
      </trkpt>
      <trkpt lat="33.412254145368934" lon="-5.138922287151218">
        <ele>1850.6800000000001</ele>
        <time>2019-03-10T17:46:35Z</time>
      </trkpt>
      <trkpt lat="33.411995898932219" lon="-5.139006525278091">
        <ele>1850.6800000000001</ele>
        <time>2019-03-10T17:46:39Z</time>
      </trkpt>
      <trkpt lat="33.411948457360268" lon="-5.139037957414985">
        <ele>1850.6800000000001</ele>
        <time>2019-03-10T17:46:40Z</time>
      </trkpt>
      <trkpt lat="33.411755338311195" lon="-5.139172989875078">
        <ele>1850.6800000000001</ele>
        <time>2019-03-10T17:46:41Z</time>
      </trkpt>
      <trkpt lat="33.4116998501122" lon="-5.139195369556546">
        <ele>1850.6800000000001</ele>
        <time>2019-03-10T17:46:42Z</time>
      </trkpt>
      <trkpt lat="33.411641847342253" lon="-5.139203583821654">
        <ele>1850.6800000000001</ele>
        <time>2019-03-10T17:46:43Z</time>
      </trkpt>
      <trkpt lat="33.411585185676813" lon="-5.139193190261722">
        <ele>1850.6800000000001</ele>
        <time>2019-03-10T17:46:44Z</time>
      </trkpt>
      <trkpt lat="33.411531960591674" lon="-5.139166200533509">
        <ele>1850.6800000000001</ele>
        <time>2019-03-10T17:46:46Z</time>
      </trkpt>
      <trkpt lat="33.411482591181993" lon="-5.139130996540189">
        <ele>1851.1600000000001</ele>
        <time>2019-03-10T17:46:52Z</time>
      </trkpt>
      <trkpt lat="33.411391731351614" lon="-5.139054888859391">
        <ele>1851.6400000000001</ele>
        <time>2019-03-10T17:46:54Z</time>
      </trkpt>
      <trkpt lat="33.411155948415399" lon="-5.138762695714831">
        <ele>1851.6400000000001</ele>
        <time>2019-03-10T17:46:55Z</time>
      </trkpt>
      <trkpt lat="33.411066345870495" lon="-5.138652641326189">
        <ele>1855.48</ele>
        <time>2019-03-10T17:46:56Z</time>
      </trkpt>
      <trkpt lat="33.411034494638443" lon="-5.138579467311502">
        <ele>1856.9200000000001</ele>
        <time>2019-03-10T17:46:57Z</time>
      </trkpt>
      <trkpt lat="33.411019239574671" lon="-5.138493133708835">
        <ele>1857.4000000000001</ele>
        <time>2019-03-10T17:46:58Z</time>
      </trkpt>
      <trkpt lat="33.411017563194036" lon="-5.138403447344899">
        <ele>1864.6099999999999</ele>
        <time>2019-03-10T17:46:59Z</time>
      </trkpt>
      <trkpt lat="33.41102602891624" lon="-5.138314263895154">
        <ele>1866.0599999999999</ele>
        <time>2019-03-10T17:47:00Z</time>
      </trkpt>
      <trkpt lat="33.411042625084519" lon="-5.138229606673122">
        <ele>1867.02</ele>
        <time>2019-03-10T17:47:08Z</time>
      </trkpt>
      <trkpt lat="33.41106123290956" lon="-5.138146290555596">
        <ele>1868.9400000000001</ele>
        <time>2019-03-10T17:47:10Z</time>
      </trkpt>
      <trkpt lat="33.411171287298203" lon="-5.137499962002039">
        <ele>1869.9000000000001</ele>
        <time>2019-03-10T17:47:11Z</time>
      </trkpt>
      <trkpt lat="33.411212274804711" lon="-5.137343220412731">
        <ele>1877.5899999999999</ele>
        <time>2019-03-10T17:47:19Z</time>
      </trkpt>
      <trkpt lat="33.411223003640771" lon="-5.137263173237443">
        <ele>1878.55</ele>
        <time>2019-03-10T17:47:21Z</time>
      </trkpt>
      <trkpt lat="33.411265835165977" lon="-5.136630088090897">
        <ele>1879.03</ele>
        <time>2019-03-10T17:47:22Z</time>
      </trkpt>
      <trkpt lat="33.41128452681005" lon="-5.136462785303593">
        <ele>1883.8399999999999</ele>
        <time>2019-03-10T17:47:24Z</time>
      </trkpt>
      <trkpt lat="33.411285365000367" lon="-5.136386593803763">
        <ele>1883.8399999999999</ele>
        <time>2019-03-10T17:47:25Z</time>
      </trkpt>
      <trkpt lat="33.411274887621403" lon="-5.13624569401145">
        <ele>1884.3199999999999</ele>
        <time>2019-03-10T17:47:33Z</time>
      </trkpt>
      <trkpt lat="33.4112698584795" lon="-5.136176710948348">
        <ele>1884.8</ele>
        <time>2019-03-10T17:47:34Z</time>
      </trkpt>
      <trkpt lat="33.411250663921237" lon="-5.135631468147039">
        <ele>1885.28</ele>
        <time>2019-03-10T17:47:35Z</time>
      </trkpt>
      <trkpt lat="33.41125519014895" lon="-5.135580422356725">
        <ele>1884.8</ele>
        <time>2019-03-10T17:47:44Z</time>
      </trkpt>
      <trkpt lat="33.41126499697566" lon="-5.135533986613154">
        <ele>1884.3199999999999</ele>
        <time>2019-03-10T17:47:45Z</time>
      </trkpt>
      <trkpt lat="33.411362981423736" lon="-5.135241709649563">
        <ele>1884.3199999999999</ele>
        <time>2019-03-10T17:47:46Z</time>
      </trkpt>
      <trkpt lat="33.411378571763635" lon="-5.135190999135375">
        <ele>1883.8399999999999</ele>
        <time>2019-03-10T17:47:47Z</time>
      </trkpt>
      <trkpt lat="33.411389887332916" lon="-5.13513701967895">
        <ele>1883.3599999999999</ele>
        <time>2019-03-10T17:47:49Z</time>
      </trkpt>
      <trkpt lat="33.411395754665136" lon="-5.13507935218513">
        <ele>1882.8800000000001</ele>
        <time>2019-03-10T17:47:57Z</time>
      </trkpt>
      <trkpt lat="33.411400113254786" lon="-5.134936608374119">
        <ele>1881.4400000000001</ele>
        <time>2019-03-10T17:47:58Z</time>
      </trkpt>
      <trkpt lat="33.411433976143599" lon="-5.134156504645944">
        <ele>1874.71</ele>
        <time>2019-03-10T17:47:59Z</time>
      </trkpt>
      <trkpt lat="33.411417044699192" lon="-5.134071093052626">
        <ele>1869.9000000000001</ele>
        <time>2019-03-10T17:48:00Z</time>
      </trkpt>
      <trkpt lat="33.411393910646439" lon="-5.133989872410893">
        <ele>1869.4200000000001</ele>
        <time>2019-03-10T17:48:01Z</time>
      </trkpt>
      <trkpt lat="33.411372285336256" lon="-5.133912758901715">
        <ele>1869.4200000000001</ele>
        <time>2019-03-10T17:48:02Z</time>
      </trkpt>
      <trkpt lat="33.411358036100864" lon="-5.133831119164825">
        <ele>1870.3800000000001</ele>
        <time>2019-03-10T17:48:04Z</time>
      </trkpt>
      <trkpt lat="33.411346385255456" lon="-5.133742354810238">
        <ele>1870.8599999999999</ele>
        <time>2019-03-10T17:48:13Z</time>
      </trkpt>
      <trkpt lat="33.411328531801701" lon="-5.133553678169847">
        <ele>1870.8599999999999</ele>
        <time>2019-03-10T17:48:21Z</time>
      </trkpt>
      <trkpt lat="33.411338003352284" lon="-5.132648348808289">
        <ele>1871.3399999999999</ele>
        <time>2019-03-10T17:48:24Z</time>
      </trkpt>
      <trkpt lat="33.411213448271155" lon="-5.131835220381618">
        <ele>1871.3399999999999</ele>
        <time>2019-03-10T17:48:25Z</time>
      </trkpt>
      <trkpt lat="33.411157457157969" lon="-5.13149575330317">
        <ele>1871.8199999999999</ele>
        <time>2019-03-10T17:48:29Z</time>
      </trkpt>
      <trkpt lat="33.411122588440776" lon="-5.131393829360604">
        <ele>1872.3</ele>
        <time>2019-03-10T17:48:30Z</time>
      </trkpt>
      <trkpt lat="33.410971546545625" lon="-5.131035251542926">
        <ele>1872.79</ele>
        <time>2019-03-10T17:48:31Z</time>
      </trkpt>
      <trkpt lat="33.410928966477513" lon="-5.130984792485833">
        <ele>1873.27</ele>
        <time>2019-03-10T17:48:32Z</time>
      </trkpt>
      <trkpt lat="33.410886051133275" lon="-5.130949420854449">
        <ele>1873.27</ele>
        <time>2019-03-10T17:48:33Z</time>
      </trkpt>
      <trkpt lat="33.410845901817083" lon="-5.130917150527239">
        <ele>1875.1900000000001</ele>
        <time>2019-03-10T17:48:34Z</time>
      </trkpt>
      <trkpt lat="33.4108208399266" lon="-5.130883287638426">
        <ele>1875.1900000000001</ele>
        <time>2019-03-10T17:48:35Z</time>
      </trkpt>
      <trkpt lat="33.410815894603729" lon="-5.130848586559296">
        <ele>1875.6700000000001</ele>
        <time>2019-03-10T17:48:36Z</time>
      </trkpt>
      <trkpt lat="33.410821845754981" lon="-5.130808018147945">
        <ele>1875.6700000000001</ele>
        <time>2019-03-10T17:48:37Z</time>
      </trkpt>
      <trkpt lat="33.410832155495882" lon="-5.13075839728117">
        <ele>1876.1500000000001</ele>
        <time>2019-03-10T17:48:38Z</time>
      </trkpt>
      <trkpt lat="33.410840956494212" lon="-5.130708273500204">
        <ele>1880.96</ele>
        <time>2019-03-10T17:48:42Z</time>
      </trkpt>
      <trkpt lat="33.410852272063494" lon="-5.130655132234097">
        <ele>1881.9200000000001</ele>
        <time>2019-03-10T17:48:43Z</time>
      </trkpt>
      <trkpt lat="33.410889906808734" lon="-5.13039780780673">
        <ele>1882.4000000000001</ele>
        <time>2019-03-10T17:48:44Z</time>
      </trkpt>
      <trkpt lat="33.410885967314243" lon="-5.130330417305231">
        <ele>1883.3599999999999</ele>
        <time>2019-03-10T17:48:45Z</time>
      </trkpt>
      <trkpt lat="33.410875741392374" lon="-5.130261685699225">
        <ele>1884.3199999999999</ele>
        <time>2019-03-10T17:48:46Z</time>
      </trkpt>
      <trkpt lat="33.410859648138285" lon="-5.130197899416089">
        <ele>1890.5699999999999</ele>
        <time>2019-03-10T17:48:55Z</time>
      </trkpt>
      <trkpt lat="33.410840118303895" lon="-5.130140483379364">
        <ele>1894.9000000000001</ele>
        <time>2019-03-10T17:48:56Z</time>
      </trkpt>
      <trkpt lat="33.410653872415423" lon="-5.12964972294867">
        <ele>1896.3399999999999</ele>
        <time>2019-03-10T17:48:57Z</time>
      </trkpt>
      <trkpt lat="33.410626631230116" lon="-5.129606053233147">
        <ele>1895.8599999999999</ele>
        <time>2019-03-10T17:48:58Z</time>
      </trkpt>
      <trkpt lat="33.410596288740635" lon="-5.129570765420795">
        <ele>1896.8199999999999</ele>
        <time>2019-03-10T17:48:59Z</time>
      </trkpt>
      <trkpt lat="33.410566030070186" lon="-5.129544027149677">
        <ele>1898.26</ele>
        <time>2019-03-10T17:49:10Z</time>
      </trkpt>
      <trkpt lat="33.410544907674193" lon="-5.129522318020463">
        <ele>1898.26</ele>
        <time>2019-03-10T17:49:21Z</time>
      </trkpt>
      <trkpt lat="33.41033318080008" lon="-5.12916105799377">
        <ele>1898.26</ele>
        <time>2019-03-10T17:49:29Z</time>
      </trkpt>
      <trkpt lat="33.410121789202094" lon="-5.128825027495623">
        <ele>1898.74</ele>
        <time>2019-03-10T17:49:33Z</time>
      </trkpt>
      <trkpt lat="33.409930430352688" lon="-5.128557477146387">
        <ele>1898.74</ele>
        <time>2019-03-10T17:49:35Z</time>
      </trkpt>
      <trkpt lat="33.409792296588421" lon="-5.128442225977778">
        <ele>1898.74</ele>
        <time>2019-03-10T17:49:42Z</time>
      </trkpt>
      <trkpt lat="33.409726750105619" lon="-5.128382965922356">
        <ele>1897.3</ele>
        <time>2019-03-10T17:49:43Z</time>
      </trkpt>
      <trkpt lat="33.409404968842864" lon="-5.128059173002839">
        <ele>1897.3</ele>
        <time>2019-03-10T17:49:44Z</time>
      </trkpt>
      <trkpt lat="33.409373117610812" lon="-5.128002678975463">
        <ele>1896.8199999999999</ele>
        <time>2019-03-10T17:49:45Z</time>
      </trkpt>
      <trkpt lat="33.409350905567408" lon="-5.127939395606518">
        <ele>1896.8199999999999</ele>
        <time>2019-03-10T17:49:46Z</time>
      </trkpt>
      <trkpt lat="33.409335818141699" lon="-5.127872843295336">
        <ele>1896.8199999999999</ele>
        <time>2019-03-10T17:49:47Z</time>
      </trkpt>
      <trkpt lat="33.409324083477259" lon="-5.127806877717376">
        <ele>1896.3399999999999</ele>
        <time>2019-03-10T17:49:54Z</time>
      </trkpt>
      <trkpt lat="33.409317377954721" lon="-5.12774745002389">
        <ele>1896.3399999999999</ele>
        <time>2019-03-10T17:49:55Z</time>
      </trkpt>
      <trkpt lat="33.409236995503306" lon="-5.127109754830599">
        <ele>1895.8599999999999</ele>
        <time>2019-03-10T17:49:56Z</time>
      </trkpt>
      <trkpt lat="33.409209670498967" lon="-5.127025097608566">
        <ele>1895.8599999999999</ele>
        <time>2019-03-10T17:49:59Z</time>
      </trkpt>
      <trkpt lat="33.409170275554061" lon="-5.126950666308403">
        <ele>1895.8599999999999</ele>
        <time>2019-03-10T17:50:00Z</time>
      </trkpt>
      <trkpt lat="33.409065753221512" lon="-5.126753440126777">
        <ele>1895.8599999999999</ele>
        <time>2019-03-10T17:50:01Z</time>
      </trkpt>
      <trkpt lat="33.409040607511997" lon="-5.126676075160503">
        <ele>1896.3399999999999</ele>
        <time>2019-03-10T17:50:02Z</time>
      </trkpt>
      <trkpt lat="33.409020490944386" lon="-5.12658940628171">
        <ele>1896.3399999999999</ele>
        <time>2019-03-10T17:50:03Z</time>
      </trkpt>
      <trkpt lat="33.409002386033535" lon="-5.126501312479377">
        <ele>1896.3399999999999</ele>
        <time>2019-03-10T17:50:04Z</time>
      </trkpt>
      <trkpt lat="33.408984951674938" lon="-5.126418331637979">
        <ele>1897.78</ele>
        <time>2019-03-10T17:50:05Z</time>
      </trkpt>
      <trkpt lat="33.408963410183787" lon="-5.126340463757515">
        <ele>1897.3</ele>
        <time>2019-03-10T17:50:06Z</time>
      </trkpt>
      <trkpt lat="33.408936001360416" lon="-5.126265781000257">
        <ele>1897.78</ele>
        <time>2019-03-10T17:50:13Z</time>
      </trkpt>
      <trkpt lat="33.408901887014508" lon="-5.126189505681396">
        <ele>1897.78</ele>
        <time>2019-03-10T17:50:14Z</time>
      </trkpt>
      <trkpt lat="33.40852864086628" lon="-5.125561784952879">
        <ele>1897.78</ele>
        <time>2019-03-10T17:50:15Z</time>
      </trkpt>
      <trkpt lat="33.408448174595833" lon="-5.125484587624669">
        <ele>1897.3</ele>
        <time>2019-03-10T17:50:24Z</time>
      </trkpt>
      <trkpt lat="33.40835957787931" lon="-5.125422142446041">
        <ele>1896.8199999999999</ele>
        <time>2019-03-10T17:50:25Z</time>
      </trkpt>
      <trkpt lat="33.407589783892035" lon="-5.125097930431366">
        <ele>1895.3800000000001</ele>
        <time>2019-03-10T17:50:29Z</time>
      </trkpt>
      <trkpt lat="33.407510994002223" lon="-5.12506197206676">
        <ele>1895.3800000000001</ele>
        <time>2019-03-10T17:50:30Z</time>
      </trkpt>
      <trkpt lat="33.407210167497396" lon="-5.124888634309173">
        <ele>1894.9000000000001</ele>
        <time>2019-03-10T17:50:31Z</time>
      </trkpt>
      <trkpt lat="33.407139759510756" lon="-5.124865919351578">
        <ele>1895.3800000000001</ele>
        <time>2019-03-10T17:50:32Z</time>
      </trkpt>
      <trkpt lat="33.407074464485049" lon="-5.124852927401662">
        <ele>1895.3800000000001</ele>
        <time>2019-03-10T17:50:33Z</time>
      </trkpt>
      <trkpt lat="33.407005397602916" lon="-5.124847982078791">
        <ele>1895.3800000000001</ele>
        <time>2019-03-10T17:50:36Z</time>
      </trkpt>
      <trkpt lat="33.406930463388562" lon="-5.124848317354918">
        <ele>1895.3800000000001</ele>
        <time>2019-03-10T17:50:37Z</time>
      </trkpt>
      <trkpt lat="33.406726196408272" lon="-5.124838091433048">
        <ele>1895.3800000000001</ele>
        <time>2019-03-10T17:50:38Z</time>
      </trkpt>
      <trkpt lat="33.406671714037657" lon="-5.124817052856088">
        <ele>1895.3800000000001</ele>
        <time>2019-03-10T17:50:39Z</time>
      </trkpt>
      <trkpt lat="33.406624607741833" lon="-5.124778999015689">
        <ele>1895.3800000000001</ele>
        <time>2019-03-10T17:50:40Z</time>
      </trkpt>
      <trkpt lat="33.4065848775208" lon="-5.124726193025708">
        <ele>1895.3800000000001</ele>
        <time>2019-03-10T17:50:41Z</time>
      </trkpt>
      <trkpt lat="33.406551852822304" lon="-5.124659473076463">
        <ele>1895.8599999999999</ele>
        <time>2019-03-10T17:50:42Z</time>
      </trkpt>
      <trkpt lat="33.406524946913123" lon="-5.124581186100841">
        <ele>1895.8599999999999</ele>
        <time>2019-03-10T17:50:44Z</time>
      </trkpt>
      <trkpt lat="33.40650181286037" lon="-5.124495355412364">
        <ele>1897.78</ele>
        <time>2019-03-10T17:50:45Z</time>
      </trkpt>
      <trkpt lat="33.406472057104111" lon="-5.124326543882489">
        <ele>1897.78</ele>
        <time>2019-03-10T17:50:46Z</time>
      </trkpt>
      <trkpt lat="33.406470296904445" lon="-5.12424691580236">
        <ele>1897.78</ele>
        <time>2019-03-10T17:50:47Z</time>
      </trkpt>
      <trkpt lat="33.406474823132157" lon="-5.124163180589676">
        <ele>1897.78</ele>
        <time>2019-03-10T17:50:48Z</time>
      </trkpt>
      <trkpt lat="33.40648865327239" lon="-5.124075589701533">
        <ele>1898.26</ele>
        <time>2019-03-10T17:50:49Z</time>
      </trkpt>
      <trkpt lat="33.406508099287748" lon="-5.123990094289184">
        <ele>1897.78</ele>
        <time>2019-03-10T17:50:56Z</time>
      </trkpt>
      <trkpt lat="33.406527796760201" lon="-5.123913399875164">
        <ele>1897.78</ele>
        <time>2019-03-10T17:51:02Z</time>
      </trkpt>
      <trkpt lat="33.406674228608608" lon="-5.123453484848142">
        <ele>1895.3800000000001</ele>
        <time>2019-03-10T17:51:09Z</time>
      </trkpt>
      <trkpt lat="33.40665721334517" lon="-5.122980577871203">
        <ele>1895.8599999999999</ele>
        <time>2019-03-10T17:51:11Z</time>
      </trkpt>
      <trkpt lat="33.406516732648015" lon="-5.122373141348362">
        <ele>1895.8599999999999</ele>
        <time>2019-03-10T17:51:14Z</time>
      </trkpt>
      <trkpt lat="33.406495694071054" lon="-5.122262164950371">
        <ele>1896.3399999999999</ele>
        <time>2019-03-10T17:51:25Z</time>
      </trkpt>
      <trkpt lat="33.406437104567885" lon="-5.122118582949042">
        <ele>1896.8199999999999</ele>
        <time>2019-03-10T17:51:29Z</time>
      </trkpt>
      <trkpt lat="33.406180618330836" lon="-5.121851535513997">
        <ele>1897.3</ele>
        <time>2019-03-11T08:17:43Z</time>
      </trkpt>
      <trkpt lat="33.406179109588265" lon="-5.121853463351727">
        <ele>1897.78</ele>
        <time>2019-03-11T08:17:56Z</time>
      </trkpt>
      <trkpt lat="33.406001077964902" lon="-5.121734272688627">
        <ele>1898.26</ele>
        <time>2019-03-11T08:18:00Z</time>
      </trkpt>
      <trkpt lat="33.405356928706169" lon="-5.121342334896326">
        <ele>1898.26</ele>
        <time>2019-03-11T08:18:05Z</time>
      </trkpt>
      <trkpt lat="33.405142100527883" lon="-5.121217612177134">
        <ele>1898.26</ele>
        <time>2019-03-11T08:18:06Z</time>
      </trkpt>
      <trkpt lat="33.404938839375973" lon="-5.121028097346425">
        <ele>1898.26</ele>
        <time>2019-03-11T08:18:13Z</time>
      </trkpt>
      <trkpt lat="33.404903551563621" lon="-5.12097705155611">
        <ele>1898.26</ele>
        <time>2019-03-11T08:18:14Z</time>
      </trkpt>
      <trkpt lat="33.404620327055454" lon="-5.120592154562473">
        <ele>1897.78</ele>
        <time>2019-03-11T08:18:18Z</time>
      </trkpt>
      <trkpt lat="33.40458495542407" lon="-5.120526691898704">
        <ele>1898.26</ele>
        <time>2019-03-11T08:18:19Z</time>
      </trkpt>
      <trkpt lat="33.404435673728585" lon="-5.120267691090703">
        <ele>1898.74</ele>
        <time>2019-03-11T08:18:20Z</time>
      </trkpt>
      <trkpt lat="33.404396697878838" lon="-5.120222931727767">
        <ele>1898.74</ele>
        <time>2019-03-11T08:18:28Z</time>
      </trkpt>
      <trkpt lat="33.4043572191149" lon="-5.120188146829605">
        <ele>1898.26</ele>
        <time>2019-03-11T08:18:40Z</time>
      </trkpt>
      <trkpt lat="33.404268706217408" lon="-5.120101226493716">
        <ele>1898.26</ele>
        <time>2019-03-11T08:18:59Z</time>
      </trkpt>
      <trkpt lat="33.404253786429763" lon="-5.120092090219259">
        <ele>1896.3399999999999</ele>
        <time>2019-03-11T08:19:09Z</time>
      </trkpt>
      <trkpt lat="33.404251271858811" lon="-5.120095191523433">
        <ele>1893.9300000000001</ele>
        <time>2019-03-11T08:19:10Z</time>
      </trkpt>
      <trkpt lat="33.404238279908895" lon="-5.120045319199562">
        <ele>1894.4200000000001</ele>
        <time>2019-03-11T08:19:11Z</time>
      </trkpt>
      <trkpt lat="33.404248505830765" lon="-5.120012294501066">
        <ele>1894.9000000000001</ele>
        <time>2019-03-11T08:19:12Z</time>
      </trkpt>
      <trkpt lat="33.404277339577675" lon="-5.119973570108414">
        <ele>1897.3</ele>
        <time>2019-03-11T08:19:13Z</time>
      </trkpt>
      <trkpt lat="33.404317740350962" lon="-5.119937360286713">
        <ele>1899.22</ele>
        <time>2019-03-11T08:19:21Z</time>
      </trkpt>
      <trkpt lat="33.404365433380008" lon="-5.119904587045312">
        <ele>1901.1400000000001</ele>
        <time>2019-03-11T08:19:35Z</time>
      </trkpt>
      <trkpt lat="33.405003631487489" lon="-5.119403768330813">
        <ele>1902.5899999999999</ele>
        <time>2019-03-11T08:19:52Z</time>
      </trkpt>
      <trkpt lat="33.406493598595262" lon="-5.118219489231706">
        <ele>1908.8299999999999</ele>
        <time>2019-03-11T08:20:02Z</time>
      </trkpt>
      <trkpt lat="33.408168470486999" lon="-5.116877965629101">
        <ele>1916.04</ele>
        <time>2019-03-11T08:20:12Z</time>
      </trkpt>
      <trkpt lat="33.409057790413499" lon="-5.115745486691594">
        <ele>1922.29</ele>
        <time>2019-03-11T08:20:29Z</time>
      </trkpt>
      <trkpt lat="33.409636141732335" lon="-5.114118978381157">
        <ele>1934.3099999999999</ele>
        <time>2019-03-11T08:20:46Z</time>
      </trkpt>
      <trkpt lat="33.410513056442142" lon="-5.111034773290157">
        <ele>1953.0599999999999</ele>
        <time>2019-03-11T08:21:05Z</time>
      </trkpt>
      <trkpt lat="33.411465995013714" lon="-5.107726017013192">
        <ele>1961.71</ele>
        <time>2019-03-11T08:21:26Z</time>
      </trkpt>
      <trkpt lat="33.412605095654726" lon="-5.103784007951617">
        <ele>1963.1500000000001</ele>
        <time>2019-03-11T08:21:35Z</time>
      </trkpt>
      <trkpt lat="33.413843773305416" lon="-5.099458275362849">
        <ele>1964.5899999999999</ele>
        <time>2019-03-11T08:21:44Z</time>
      </trkpt>
      <trkpt lat="33.414115933701396" lon="-5.097565641626716">
        <ele>1970.8399999999999</ele>
        <time>2019-03-11T08:22:00Z</time>
      </trkpt>
      <trkpt lat="33.413906721398234" lon="-5.095602516084909">
        <ele>1973.24</ele>
        <time>2019-03-11T08:22:13Z</time>
      </trkpt>
      <trkpt lat="33.413434065878391" lon="-5.092143807560206">
        <ele>1973.24</ele>
        <time>2019-03-11T08:22:19Z</time>
      </trkpt>
      <trkpt lat="33.413069620728493" lon="-5.089671984314919">
        <ele>1974.2</ele>
        <time>2019-03-11T08:22:20Z</time>
      </trkpt>
      <trkpt lat="33.413050677627325" lon="-5.088692726567388">
        <ele>1979.97</ele>
        <time>2019-03-11T08:22:21Z</time>
      </trkpt>
      <trkpt lat="33.413083199411631" lon="-5.08853992447257">
        <ele>1979.97</ele>
        <time>2019-03-11T08:22:30Z</time>
      </trkpt>
      <trkpt lat="33.413126030936837" lon="-5.088389553129673">
        <ele>1979.49</ele>
        <time>2019-03-11T08:22:39Z</time>
      </trkpt>
      <trkpt lat="33.413624921813607" lon="-5.086972173303366">
        <ele>1972.28</ele>
        <time>2019-03-11T08:22:40Z</time>
      </trkpt>
      <trkpt lat="33.413910241797566" lon="-5.085339965298772">
        <ele>1966.99</ele>
        <time>2019-03-11T08:22:41Z</time>
      </trkpt>
      <trkpt lat="33.413983667269349" lon="-5.085167633369565">
        <ele>1966.51</ele>
        <time>2019-03-11T08:28:15Z</time>
      </trkpt>
      <trkpt lat="33.414067402482033" lon="-5.085001504048705">
        <ele>1966.03</ele>
        <time>2019-03-11T08:28:19Z</time>
      </trkpt>
      <trkpt lat="33.414303185418248" lon="-5.084627587348223">
        <ele>1964.5899999999999</ele>
        <time>2019-03-11T08:28:29Z</time>
      </trkpt>
      <trkpt lat="33.414535783231258" lon="-5.084251407533884">
        <ele>1961.71</ele>
        <time>2019-03-11T08:28:41Z</time>
      </trkpt>
      <trkpt lat="33.414640137925744" lon="-5.084081925451756">
        <ele>1959.3</ele>
        <time>2019-03-11T08:28:53Z</time>
      </trkpt>
      <trkpt lat="33.414800148457289" lon="-5.083769112825394">
        <ele>1958.8199999999999</ele>
        <time>2019-03-11T08:28:54Z</time>
      </trkpt>
      <trkpt lat="33.415516633540392" lon="-5.08263579569757">
        <ele>1953.54</ele>
        <time>2019-03-11T08:29:04Z</time>
      </trkpt>
      <trkpt lat="33.416575435549021" lon="-5.08114448748529">
        <ele>1952.5699999999999</ele>
        <time>2019-03-11T08:29:17Z</time>
      </trkpt>
      <trkpt lat="33.4175487421453" lon="-5.079508256167173">
        <ele>1952.0899999999999</ele>
        <time>2019-03-11T08:29:22Z</time>
      </trkpt>
      <trkpt lat="33.417647229507565" lon="-5.079400297254324">
        <ele>1951.6099999999999</ele>
        <time>2019-03-11T08:29:26Z</time>
      </trkpt>
      <trkpt lat="33.418465470895171" lon="-5.078368484973908">
        <ele>1951.6099999999999</ele>
        <time>2019-03-11T08:29:27Z</time>
      </trkpt>
      <trkpt lat="33.419309193268418" lon="-5.076764356344938">
        <ele>1948.73</ele>
        <time>2019-03-11T08:29:37Z</time>
      </trkpt>
      <trkpt lat="33.419675482437015" lon="-5.076006045565009">
        <ele>1933.3499999999999</ele>
        <time>2019-03-11T08:29:39Z</time>
      </trkpt>
      <trkpt lat="33.419871618971229" lon="-5.075344294309616">
        <ele>1921.8099999999999</ele>
        <time>2019-03-11T08:29:40Z</time>
      </trkpt>
      <trkpt lat="33.419940015301108" lon="-5.075192330405116">
        <ele>1920.8499999999999</ele>
        <time>2019-03-11T08:29:41Z</time>
      </trkpt>
      <trkpt lat="33.420643759891391" lon="-5.073745278641582">
        <ele>1915.0799999999999</ele>
        <time>2019-03-11T08:29:43Z</time>
      </trkpt>
      <trkpt lat="33.420787341892719" lon="-5.073473704978824">
        <ele>1909.8</ele>
        <time>2019-03-11T08:29:51Z</time>
      </trkpt>
      <trkpt lat="33.420872921124101" lon="-5.073353424668312">
        <ele>1910.28</ele>
        <time>2019-03-11T08:30:00Z</time>
      </trkpt>
      <trkpt lat="33.420964367687702" lon="-5.073242615908384">
        <ele>1910.76</ele>
        <time>2019-03-11T08:30:09Z</time>
      </trkpt>
      <trkpt lat="33.421167964115739" lon="-5.073047988116741">
        <ele>1910.76</ele>
        <time>2019-03-11T08:30:10Z</time>
      </trkpt>
      <trkpt lat="33.4220524225384" lon="-5.072569800540805">
        <ele>1909.8</ele>
        <time>2019-03-11T08:30:19Z</time>
      </trkpt>
      <trkpt lat="33.422837974503636" lon="-5.072321528568864">
        <ele>1908.3499999999999</ele>
        <time>2019-03-11T08:30:34Z</time>
      </trkpt>
      <trkpt lat="33.423925107344985" lon="-5.071989856660366">
        <ele>1907.8699999999999</ele>
        <time>2019-03-11T08:30:40Z</time>
      </trkpt>
      <trkpt lat="33.424048908054829" lon="-5.07190402597189">
        <ele>1907.3900000000001</ele>
        <time>2019-03-11T08:30:42Z</time>
      </trkpt>
      <trkpt lat="33.424980556592345" lon="-5.070914793759584">
        <ele>1907.3900000000001</ele>
        <time>2019-03-11T08:30:43Z</time>
      </trkpt>
      <trkpt lat="33.426230465993285" lon="-5.068863742053509">
        <ele>1907.8699999999999</ele>
        <time>2019-03-11T08:30:57Z</time>
      </trkpt>
      <trkpt lat="33.426507068797946" lon="-5.068289330229163">
        <ele>1908.3499999999999</ele>
        <time>2019-03-11T08:31:13Z</time>
      </trkpt>
      <trkpt lat="33.426515869796276" lon="-5.068245073780417">
        <ele>1912.2</ele>
        <time>2019-03-11T08:31:17Z</time>
      </trkpt>
      <trkpt lat="33.426507487893105" lon="-5.068234344944358">
        <ele>1917.97</ele>
        <time>2019-03-11T08:31:27Z</time>
      </trkpt>
      <trkpt lat="33.426481755450368" lon="-5.068236524239183">
        <ele>1921.3299999999999</ele>
        <time>2019-03-11T08:31:29Z</time>
      </trkpt>
      <trkpt lat="33.426472283899784" lon="-5.068233842030168">
        <ele>1924.22</ele>
        <time>2019-03-11T08:31:33Z</time>
      </trkpt>
      <trkpt lat="33.426358876749873" lon="-5.068169217556715">
        <ele>1924.22</ele>
        <time>2019-03-11T08:31:36Z</time>
      </trkpt>
      <trkpt lat="33.425886053591967" lon="-5.067527582868934">
        <ele>1913.6400000000001</ele>
        <time>2019-03-11T08:31:49Z</time>
      </trkpt>
      <trkpt lat="33.425822099670768" lon="-5.067395986989141">
        <ele>1908.3499999999999</ele>
        <time>2019-03-11T08:31:57Z</time>
      </trkpt>
      <trkpt lat="33.425626633688807" lon="-5.067185265943408">
        <ele>1905.95</ele>
        <time>2019-03-11T08:32:01Z</time>
      </trkpt>
      <trkpt lat="33.425423875451088" lon="-5.067111337557435">
        <ele>1900.6600000000001</ele>
        <time>2019-03-11T08:32:06Z</time>
      </trkpt>
      <trkpt lat="33.424329785630107" lon="-5.066754184663296">
        <ele>1898.74</ele>
        <time>2019-03-11T08:32:09Z</time>
      </trkpt>
      <trkpt lat="33.423625621944666" lon="-5.06651789881289">
        <ele>1896.8199999999999</ele>
        <time>2019-03-11T08:32:22Z</time>
      </trkpt>
      <trkpt lat="33.42334097251296" lon="-5.066286474466324">
        <ele>1895.3800000000001</ele>
        <time>2019-03-11T08:32:28Z</time>
      </trkpt>
      <trkpt lat="33.423019275069237" lon="-5.065948348492384">
        <ele>1893.9300000000001</ele>
        <time>2019-03-11T08:32:32Z</time>
      </trkpt>
      <trkpt lat="33.422835292294621" lon="-5.06570435129106">
        <ele>1894.4200000000001</ele>
        <time>2019-03-11T08:32:44Z</time>
      </trkpt>
      <trkpt lat="33.422039430588484" lon="-5.064530046656728">
        <ele>1893.9300000000001</ele>
        <time>2019-03-11T08:32:47Z</time>
      </trkpt>
      <trkpt lat="33.421696946024895" lon="-5.063865864649415">
        <ele>1893.9300000000001</ele>
        <time>2019-03-11T08:32:56Z</time>
      </trkpt>
      <trkpt lat="33.421534253284335" lon="-5.063438136130571">
        <ele>1894.4200000000001</ele>
        <time>2019-03-11T08:33:00Z</time>
      </trkpt>
      <trkpt lat="33.420847775414586" lon="-5.062106251716614">
        <ele>1897.3</ele>
        <time>2019-03-11T08:33:03Z</time>
      </trkpt>
      <trkpt lat="33.420642334967852" lon="-5.061778016388416">
        <ele>1898.26</ele>
        <time>2019-03-11T08:33:09Z</time>
      </trkpt>
      <trkpt lat="33.42025576159358" lon="-5.060911159962416">
        <ele>1901.1400000000001</ele>
        <time>2019-03-11T08:33:14Z</time>
      </trkpt>
      <trkpt lat="33.419981170445681" lon="-5.06060061044991">
        <ele>1903.55</ele>
        <time>2019-03-11T08:33:17Z</time>
      </trkpt>
      <trkpt lat="33.41968453489244" lon="-5.060423919931054">
        <ele>1904.99</ele>
        <time>2019-03-11T08:33:24Z</time>
      </trkpt>
      <trkpt lat="33.419184386730194" lon="-5.060100629925728">
        <ele>1904.99</ele>
        <time>2019-03-11T08:33:33Z</time>
      </trkpt>
      <trkpt lat="33.418803764507174" lon="-5.060096774250269">
        <ele>1905.47</ele>
        <time>2019-03-11T08:33:37Z</time>
      </trkpt>
      <trkpt lat="33.418579213321209" lon="-5.060245469212532">
        <ele>1905.47</ele>
        <time>2019-03-11T08:33:50Z</time>
      </trkpt>
      <trkpt lat="33.41814000159502" lon="-5.060779983177781">
        <ele>1903.55</ele>
        <time>2019-03-11T08:33:55Z</time>
      </trkpt>
      <trkpt lat="33.417488560080528" lon="-5.061162197962403">
        <ele>1903.55</ele>
        <time>2019-03-11T08:33:58Z</time>
      </trkpt>
      <trkpt lat="33.417175747454166" lon="-5.061344420537353">
        <ele>1898.74</ele>
        <time>2019-03-11T08:34:01Z</time>
      </trkpt>
      <trkpt lat="33.415983254089952" lon="-5.061899889260531">
        <ele>1897.78</ele>
        <time>2019-03-11T08:34:06Z</time>
      </trkpt>
      <trkpt lat="33.415500540286303" lon="-5.061934925615788">
        <ele>1891.53</ele>
        <time>2019-03-11T08:34:08Z</time>
      </trkpt>
      <trkpt lat="33.415199713781476" lon="-5.06193065084517">
        <ele>1882.4000000000001</ele>
        <time>2019-03-11T08:34:15Z</time>
      </trkpt>
      <trkpt lat="33.414943730458617" lon="-5.061903744935989">
        <ele>1880.48</ele>
        <time>2019-03-11T08:34:17Z</time>
      </trkpt>
      <trkpt lat="33.414547182619572" lon="-5.062034502625465">
        <ele>1876.6300000000001</ele>
        <time>2019-03-11T08:34:25Z</time>
      </trkpt>
      <trkpt lat="33.414390608668327" lon="-5.062168361619115">
        <ele>1871.3399999999999</ele>
        <time>2019-03-11T08:34:27Z</time>
      </trkpt>
      <trkpt lat="33.413823405280709" lon="-5.062225861474872">
        <ele>1865.0899999999999</ele>
        <time>2019-03-11T08:34:34Z</time>
      </trkpt>
      <trkpt lat="33.413724163547158" lon="-5.062129553407431">
        <ele>1862.6900000000001</ele>
        <time>2019-03-11T08:34:44Z</time>
      </trkpt>
      <trkpt lat="33.413218148052692" lon="-5.061780279502273">
        <ele>1860.29</ele>
        <time>2019-03-11T08:34:48Z</time>
      </trkpt>
      <trkpt lat="33.413075488060713" lon="-5.061766030266881">
        <ele>1856.4400000000001</ele>
        <time>2019-03-11T08:34:57Z</time>
      </trkpt>
      <trkpt lat="33.412589002400637" lon="-5.061946157366037">
        <ele>1853.5599999999999</ele>
        <time>2019-03-11T08:35:07Z</time>
      </trkpt>
      <trkpt lat="33.411790877580643" lon="-5.062237931415439">
        <ele>1852.5999999999999</ele>
        <time>2019-03-11T08:35:17Z</time>
      </trkpt>
      <trkpt lat="33.411477562040091" lon="-5.062347985804081">
        <ele>1849.71</ele>
        <time>2019-03-11T08:35:21Z</time>
      </trkpt>
      <trkpt lat="33.410687819123268" lon="-5.062335664406419">
        <ele>1844.4300000000001</ele>
        <time>2019-03-11T08:35:26Z</time>
      </trkpt>
      <trkpt lat="33.409798163920641" lon="-5.062042633071542">
        <ele>1840.5799999999999</ele>
        <time>2019-03-11T08:35:34Z</time>
      </trkpt>
      <trkpt lat="33.409037925302982" lon="-5.061500910669565">
        <ele>1840.0999999999999</ele>
        <time>2019-03-11T08:35:40Z</time>
      </trkpt>
      <trkpt lat="33.408735673874617" lon="-5.061473669484258">
        <ele>1838.6600000000001</ele>
        <time>2019-03-11T08:35:42Z</time>
      </trkpt>
      <trkpt lat="33.408450521528721" lon="-5.061345007270575">
        <ele>1840.5799999999999</ele>
        <time>2019-03-11T08:35:48Z</time>
      </trkpt>
      <trkpt lat="33.408086495473981" lon="-5.060901353135705">
        <ele>1840.0999999999999</ele>
        <time>2019-03-11T08:35:55Z</time>
      </trkpt>
      <trkpt lat="33.407731521874666" lon="-5.060826586559415">
        <ele>1839.6199999999999</ele>
        <time>2019-03-11T08:36:04Z</time>
      </trkpt>
      <trkpt lat="33.407574947923422" lon="-5.060863299295306">
        <ele>1835.29</ele>
        <time>2019-03-11T08:36:08Z</time>
      </trkpt>
      <trkpt lat="33.406999027356505" lon="-5.060862628743053">
        <ele>1832.4100000000001</ele>
        <time>2019-03-11T08:36:11Z</time>
      </trkpt>
      <trkpt lat="33.406288828700781" lon="-5.060761626809835">
        <ele>1829.05</ele>
        <time>2019-03-11T08:36:18Z</time>
      </trkpt>
      <trkpt lat="33.405450135469437" lon="-5.060894312337041">
        <ele>1825.2</ele>
        <time>2019-03-11T08:36:26Z</time>
      </trkpt>
      <trkpt lat="33.405139921233058" lon="-5.061062704771757">
        <ele>1822.8</ele>
        <time>2019-03-11T08:36:36Z</time>
      </trkpt>
      <trkpt lat="33.404905647039413" lon="-5.061265379190445">
        <ele>1821.8399999999999</ele>
        <time>2019-03-11T08:36:46Z</time>
      </trkpt>
      <trkpt lat="33.40442175976932" lon="-5.061330506578088">
        <ele>1820.3900000000001</ele>
        <time>2019-03-11T08:36:52Z</time>
      </trkpt>
      <trkpt lat="33.403652720153332" lon="-5.061413235962391">
        <ele>1817.51</ele>
        <time>2019-03-11T08:36:58Z</time>
      </trkpt>
      <trkpt lat="33.40268268249929" lon="-5.061429580673575">
        <ele>1816.55</ele>
        <time>2019-03-11T08:37:06Z</time>
      </trkpt>
      <trkpt lat="33.401816580444574" lon="-5.061516920104623">
        <ele>1816.0699999999999</ele>
        <time>2019-03-11T08:37:12Z</time>
      </trkpt>
      <trkpt lat="33.401269493624568" lon="-5.061508705839515">
        <ele>1815.5899999999999</ele>
        <time>2019-03-11T08:37:15Z</time>
      </trkpt>
      <trkpt lat="33.400801448151469" lon="-5.061683636158705">
        <ele>1815.5899999999999</ele>
        <time>2019-03-11T08:37:18Z</time>
      </trkpt>
      <trkpt lat="33.40022393502295" lon="-5.061807939782739">
        <ele>1814.1500000000001</ele>
        <time>2019-03-11T08:37:23Z</time>
      </trkpt>
      <trkpt lat="33.399779191240668" lon="-5.061742477118969">
        <ele>1814.6300000000001</ele>
        <time>2019-03-11T08:37:27Z</time>
      </trkpt>
      <trkpt lat="33.399558244273067" lon="-5.061694029718638">
        <ele>1815.1099999999999</ele>
        <time>2019-03-11T08:37:29Z</time>
      </trkpt>
      <trkpt lat="33.399337464943528" lon="-5.061682127416134">
        <ele>1815.1099999999999</ele>
        <time>2019-03-11T08:37:36Z</time>
      </trkpt>
      <trkpt lat="33.398892218247056" lon="-5.061654718592763">
        <ele>1817.03</ele>
        <time>2019-03-11T08:37:37Z</time>
      </trkpt>
      <trkpt lat="33.398573957383633" lon="-5.061745913699269">
        <ele>1821.3499999999999</ele>
        <time>2019-03-11T08:37:49Z</time>
      </trkpt>
      <trkpt lat="33.398422161117196" lon="-5.061813974753022">
        <ele>1823.28</ele>
        <time>2019-03-11T08:37:51Z</time>
      </trkpt>
      <trkpt lat="33.397824699059129" lon="-5.06166335195303">
        <ele>1823.28</ele>
        <time>2019-03-11T08:37:58Z</time>
      </trkpt>
      <trkpt lat="33.397743059322238" lon="-5.061593363061547">
        <ele>1825.2</ele>
        <time>2019-03-11T08:38:06Z</time>
      </trkpt>
      <trkpt lat="33.396833874285221" lon="-5.06082683801651">
        <ele>1825.2</ele>
        <time>2019-03-11T08:38:18Z</time>
      </trkpt>
      <trkpt lat="33.396686520427465" lon="-5.060745868831873">
        <ele>1825.2</ele>
        <time>2019-03-11T08:38:26Z</time>
      </trkpt>
      <trkpt lat="33.396380245685577" lon="-5.060690715909004">
        <ele>1826.6400000000001</ele>
        <time>2019-03-11T08:38:35Z</time>
      </trkpt>
      <trkpt lat="33.39591664262116" lon="-5.06063480861485">
        <ele>1826.1600000000001</ele>
        <time>2019-03-11T08:38:39Z</time>
      </trkpt>
      <trkpt lat="33.394740577787161" lon="-5.060561131685972">
        <ele>1825.2</ele>
        <time>2019-03-11T08:38:46Z</time>
      </trkpt>
      <trkpt lat="33.393934238702059" lon="-5.060607818886638">
        <ele>1824.72</ele>
        <time>2019-03-11T08:38:57Z</time>
      </trkpt>
      <trkpt lat="33.393114488571882" lon="-5.060599101707339">
        <ele>1823.76</ele>
        <time>2019-03-11T08:38:59Z</time>
      </trkpt>
      <trkpt lat="33.392721712589264" lon="-5.060702869668603">
        <ele>1821.8399999999999</ele>
        <time>2019-03-11T08:39:08Z</time>
      </trkpt>
      <trkpt lat="33.39203012175858" lon="-5.061104195192456">
        <ele>1823.28</ele>
        <time>2019-03-11T08:39:13Z</time>
      </trkpt>
      <trkpt lat="33.391132587566972" lon="-5.06141223013401">
        <ele>1828.5599999999999</ele>
        <time>2019-03-11T08:39:20Z</time>
      </trkpt>
      <trkpt lat="33.390929494053125" lon="-5.061446679756045">
        <ele>1830.97</ele>
        <time>2019-03-11T08:39:21Z</time>
      </trkpt>
      <trkpt lat="33.390106726437807" lon="-5.061279879882932">
        <ele>1831.9300000000001</ele>
        <time>2019-03-11T08:39:24Z</time>
      </trkpt>
      <trkpt lat="33.389649158343673" lon="-5.061084665358067">
        <ele>1830.97</ele>
        <time>2019-03-11T08:39:29Z</time>
      </trkpt>
      <trkpt lat="33.388816835358739" lon="-5.061021130532026">
        <ele>1831.9300000000001</ele>
        <time>2019-03-11T08:39:36Z</time>
      </trkpt>
      <trkpt lat="33.3886962197721" lon="-5.061015849933028">
        <ele>1826.6400000000001</ele>
        <time>2019-03-11T08:39:47Z</time>
      </trkpt>
      <trkpt lat="33.388410564512014" lon="-5.060964049771428">
        <ele>1822.3199999999999</ele>
        <time>2019-03-11T08:39:50Z</time>
      </trkpt>
      <trkpt lat="33.38795349933207" lon="-5.061046192422509">
        <ele>1820.3900000000001</ele>
        <time>2019-03-11T08:39:56Z</time>
      </trkpt>
      <trkpt lat="33.387242965400219" lon="-5.06130519323051">
        <ele>1817.99</ele>
        <time>2019-03-11T08:39:58Z</time>
      </trkpt>
      <trkpt lat="33.386043682694435" lon="-5.061606522649527">
        <ele>1815.1099999999999</ele>
        <time>2019-03-11T08:40:08Z</time>
      </trkpt>
      <trkpt lat="33.385711926966906" lon="-5.061687994748354">
        <ele>1813.6600000000001</ele>
        <time>2019-03-11T08:40:20Z</time>
      </trkpt>
      <trkpt lat="33.385101305320859" lon="-5.061555057764053">
        <ele>1813.1800000000001</ele>
        <time>2019-03-11T08:40:30Z</time>
      </trkpt>
      <trkpt lat="33.384965602308512" lon="-5.061433436349034">
        <ele>1815.5899999999999</ele>
        <time>2019-03-11T08:40:33Z</time>
      </trkpt>
      <trkpt lat="33.38432296179235" lon="-5.060771852731705">
        <ele>1817.03</ele>
        <time>2019-03-11T08:40:37Z</time>
      </trkpt>
      <trkpt lat="33.383653415367007" lon="-5.060302801430225">
        <ele>1817.99</ele>
        <time>2019-03-11T08:40:43Z</time>
      </trkpt>
      <trkpt lat="33.382881358265877" lon="-5.059952102601528">
        <ele>1821.3499999999999</ele>
        <time>2019-03-11T08:40:47Z</time>
      </trkpt>
      <trkpt lat="33.382627386599779" lon="-5.059851855039597">
        <ele>1824.72</ele>
        <time>2019-03-11T08:40:52Z</time>
      </trkpt>
      <trkpt lat="33.382277442142367" lon="-5.059816651046276">
        <ele>1824.24</ele>
        <time>2019-03-11T08:40:58Z</time>
      </trkpt>
      <trkpt lat="33.381800428032875" lon="-5.059682792052627">
        <ele>1822.8</ele>
        <time>2019-03-11T08:41:01Z</time>
      </trkpt>
      <trkpt lat="33.381482837721705" lon="-5.059662340208888">
        <ele>1820.3900000000001</ele>
        <time>2019-03-11T08:41:06Z</time>
      </trkpt>
      <trkpt lat="33.381268093362451" lon="-5.059611881151795">
        <ele>1819.4300000000001</ele>
        <time>2019-03-11T08:41:16Z</time>
      </trkpt>
      <trkpt lat="33.380968607962132" lon="-5.059542898088694">
        <ele>1817.99</ele>
        <time>2019-03-11T08:41:25Z</time>
      </trkpt>
      <trkpt lat="33.380735004320741" lon="-5.059545999392867">
        <ele>1813.1800000000001</ele>
        <time>2019-03-11T08:41:37Z</time>
      </trkpt>
      <trkpt lat="33.380453456193209" lon="-5.059481374919415">
        <ele>1808.8599999999999</ele>
        <time>2019-03-11T08:41:47Z</time>
      </trkpt>
      <trkpt lat="33.379772594198585" lon="-5.05931792780757">
        <ele>1803.0899999999999</ele>
        <time>2019-03-11T08:41:57Z</time>
      </trkpt>
      <trkpt lat="33.378889812156558" lon="-5.05890947766602">
        <ele>1799.24</ele>
        <time>2019-03-11T08:42:06Z</time>
      </trkpt>
      <trkpt lat="33.377532865852118" lon="-5.058163907378912">
        <ele>1795.4000000000001</ele>
        <time>2019-03-11T08:42:16Z</time>
      </trkpt>
      <trkpt lat="33.376338025555015" lon="-5.05769083276391">
        <ele>1793</ele>
        <time>2019-03-11T08:42:24Z</time>
      </trkpt>
      <trkpt lat="33.375156344845891" lon="-5.057160928845406">
        <ele>1790.5899999999999</ele>
        <time>2019-03-11T08:42:36Z</time>
      </trkpt>
      <trkpt lat="33.374208938330412" lon="-5.056880638003349">
        <ele>1788.1900000000001</ele>
        <time>2019-03-11T08:42:51Z</time>
      </trkpt>
      <trkpt lat="33.373205373063684" lon="-5.05648098886013">
        <ele>1785.3099999999999</ele>
        <time>2019-03-11T08:43:01Z</time>
      </trkpt>
      <trkpt lat="33.372517051175237" lon="-5.056006405502558">
        <ele>1784.8199999999999</ele>
        <time>2019-03-11T08:43:10Z</time>
      </trkpt>
      <trkpt lat="33.371757986024022" lon="-5.055629638954997">
        <ele>1783.3800000000001</ele>
        <time>2019-03-11T08:43:19Z</time>
      </trkpt>
      <trkpt lat="33.370716869831085" lon="-5.055086575448513">
        <ele>1780.5</ele>
        <time>2019-03-11T08:43:26Z</time>
      </trkpt>
      <trkpt lat="33.369933580979705" lon="-5.054890774190426">
        <ele>1778.0999999999999</ele>
        <time>2019-03-11T08:43:37Z</time>
      </trkpt>
      <trkpt lat="33.36921357549727" lon="-5.054601179435849">
        <ele>1776.6500000000001</ele>
        <time>2019-03-11T08:43:49Z</time>
      </trkpt>
      <trkpt lat="33.368698675185442" lon="-5.054458351805806">
        <ele>1775.6900000000001</ele>
        <time>2019-03-11T08:43:53Z</time>
      </trkpt>
      <trkpt lat="33.368212776258588" lon="-5.05445902235806">
        <ele>1773.77</ele>
        <time>2019-03-11T08:44:04Z</time>
      </trkpt>
      <trkpt lat="33.367381207644939" lon="-5.054599586874247">
        <ele>1768.96</ele>
        <time>2019-03-11T08:44:17Z</time>
      </trkpt>
      <trkpt lat="33.366648629307747" lon="-5.054615261033177">
        <ele>1769.4400000000001</ele>
        <time>2019-03-11T08:44:27Z</time>
      </trkpt>
      <trkpt lat="33.366358699277043" lon="-5.054601011797786">
        <ele>1771.3699999999999</ele>
        <time>2019-03-11T08:44:31Z</time>
      </trkpt>
      <trkpt lat="33.365307692438364" lon="-5.054567400366068">
        <ele>1769.9200000000001</ele>
        <time>2019-03-11T08:44:36Z</time>
      </trkpt>
      <trkpt lat="33.363670371472836" lon="-5.054579051211476">
        <ele>1768.48</ele>
        <time>2019-03-11T08:44:39Z</time>
      </trkpt>
      <trkpt lat="33.362551806494594" lon="-5.054571004584432">
        <ele>1765.5999999999999</ele>
        <time>2019-03-11T08:44:49Z</time>
      </trkpt>
      <trkpt lat="33.362179985269904" lon="-5.054579470306635">
        <ele>1765.1199999999999</ele>
        <time>2019-03-11T08:45:00Z</time>
      </trkpt>
      <trkpt lat="33.361736666411161" lon="-5.054615680128336">
        <ele>1763.2</ele>
        <time>2019-03-11T08:45:13Z</time>
      </trkpt>
      <trkpt lat="33.361434079706669" lon="-5.054594138637185">
        <ele>1755.5</ele>
        <time>2019-03-11T08:45:25Z</time>
      </trkpt>
      <trkpt lat="33.360225996002555" lon="-5.054060127586126">
        <ele>1751.6600000000001</ele>
        <time>2019-03-11T08:45:36Z</time>
      </trkpt>
      <trkpt lat="33.358881706371903" lon="-5.053586047142744">
        <ele>1750.7</ele>
        <time>2019-03-11T08:45:46Z</time>
      </trkpt>
      <trkpt lat="33.357274811714888" lon="-5.053110625594854">
        <ele>1750.22</ele>
        <time>2019-03-11T08:45:47Z</time>
      </trkpt>
      <trkpt lat="33.355608573183417" lon="-5.052919937297702">
        <ele>1750.22</ele>
        <time>2019-03-11T08:45:51Z</time>
      </trkpt>
      <trkpt lat="33.354044845327735" lon="-5.052994452416897">
        <ele>1751.6600000000001</ele>
        <time>2019-03-11T08:46:01Z</time>
      </trkpt>
      <trkpt lat="33.352700555697083" lon="-5.052999062463641">
        <ele>1752.1400000000001</ele>
        <time>2019-03-11T08:46:13Z</time>
      </trkpt>
      <trkpt lat="33.352599469944835" lon="-5.053010210394859">
        <ele>1750.7</ele>
        <time>2019-03-11T08:46:16Z</time>
      </trkpt>
      <trkpt lat="33.352264445275068" lon="-5.052947178483009">
        <ele>1750.7</ele>
        <time>2019-03-11T08:46:22Z</time>
      </trkpt>
      <trkpt lat="33.351169768720865" lon="-5.052298335358501">
        <ele>1754.0599999999999</ele>
        <time>2019-03-11T08:46:24Z</time>
      </trkpt>
      <trkpt lat="33.349899910390377" lon="-5.051306840032339">
        <ele>1759.3499999999999</ele>
        <time>2019-03-11T08:46:30Z</time>
      </trkpt>
      <trkpt lat="33.349684327840805" lon="-5.05111631937325">
        <ele>1766.0799999999999</ele>
        <time>2019-03-11T08:46:40Z</time>
      </trkpt>
      <trkpt lat="33.349423063918948" lon="-5.050933677703142">
        <ele>1766.0799999999999</ele>
        <time>2019-03-11T08:46:46Z</time>
      </trkpt>
      <trkpt lat="33.349380819126964" lon="-5.050849607214332">
        <ele>1768</ele>
        <time>2019-03-11T08:46:53Z</time>
      </trkpt>
      <trkpt lat="33.349090805277228" lon="-5.050689093768597">
        <ele>1768.48</ele>
        <time>2019-03-11T08:47:03Z</time>
      </trkpt>
      <trkpt lat="33.34837943315506" lon="-5.050377370789647">
        <ele>1768.96</ele>
        <time>2019-03-11T08:47:14Z</time>
      </trkpt>
      <trkpt lat="33.347861180081964" lon="-5.050104539841414">
        <ele>1769.9200000000001</ele>
        <time>2019-03-11T08:47:25Z</time>
      </trkpt>
      <trkpt lat="33.347441330552101" lon="-5.049396520480514">
        <ele>1769.4400000000001</ele>
        <time>2019-03-11T08:47:30Z</time>
      </trkpt>
      <trkpt lat="33.34697462618351" lon="-5.048083076253533">
        <ele>1767.52</ele>
        <time>2019-03-11T08:47:35Z</time>
      </trkpt>
      <trkpt lat="33.346586124971509" lon="-5.046631246805191">
        <ele>1766.5599999999999</ele>
        <time>2019-03-11T08:47:44Z</time>
      </trkpt>
      <trkpt lat="33.34626417607069" lon="-5.045094760134816">
        <ele>1766.0799999999999</ele>
        <time>2019-03-11T08:47:53Z</time>
      </trkpt>
      <trkpt lat="33.346101483330131" lon="-5.044565610587597">
        <ele>1765.1199999999999</ele>
        <time>2019-03-11T08:47:58Z</time>
      </trkpt>
      <trkpt lat="33.346041887998581" lon="-5.044093877077103">
        <ele>1762.71</ele>
        <time>2019-03-11T08:48:08Z</time>
      </trkpt>
      <trkpt lat="33.345722956582904" lon="-5.04318829625845">
        <ele>1762.23</ele>
        <time>2019-03-11T08:48:15Z</time>
      </trkpt>
      <trkpt lat="33.345106719061732" lon="-5.042118430137634">
        <ele>1759.8299999999999</ele>
        <time>2019-03-11T08:48:25Z</time>
      </trkpt>
      <trkpt lat="33.3448182977736" lon="-5.041517782956362">
        <ele>1757.9100000000001</ele>
        <time>2019-03-11T08:48:29Z</time>
      </trkpt>
      <trkpt lat="33.344179429113865" lon="-5.040627038106322">
        <ele>1755.5</ele>
        <time>2019-03-11T08:48:31Z</time>
      </trkpt>
      <trkpt lat="33.343755640089512" lon="-5.03999562934041">
        <ele>1754.0599999999999</ele>
        <time>2019-03-11T08:48:37Z</time>
      </trkpt>
      <trkpt lat="33.343453640118241" lon="-5.039254752919078">
        <ele>1753.0999999999999</ele>
        <time>2019-03-11T08:48:41Z</time>
      </trkpt>
      <trkpt lat="33.343236465007067" lon="-5.039029447361827">
        <ele>1748.78</ele>
        <time>2019-03-11T08:48:47Z</time>
      </trkpt>
      <trkpt lat="33.343077795580029" lon="-5.038947639986873">
        <ele>1745.4100000000001</ele>
        <time>2019-03-11T08:48:55Z</time>
      </trkpt>
      <trkpt lat="33.342601368203759" lon="-5.038807410746813">
        <ele>1744.45</ele>
        <time>2019-03-11T08:49:04Z</time>
      </trkpt>
      <trkpt lat="33.342385031282902" lon="-5.038668941706419">
        <ele>1742.53</ele>
        <time>2019-03-11T08:49:08Z</time>
      </trkpt>
      <trkpt lat="33.341892762109637" lon="-5.038402732461691">
        <ele>1735.3199999999999</ele>
        <time>2019-03-11T08:49:11Z</time>
      </trkpt>
      <trkpt lat="33.341338885948062" lon="-5.038121771067381">
        <ele>1733.3900000000001</ele>
        <time>2019-03-11T08:49:18Z</time>
      </trkpt>
      <trkpt lat="33.340511173009872" lon="-5.037701670080423">
        <ele>1731.47</ele>
        <time>2019-03-11T08:49:25Z</time>
      </trkpt>
      <trkpt lat="33.340143878012896" lon="-5.03760184161365">
        <ele>1728.1099999999999</ele>
        <time>2019-03-11T08:49:28Z</time>
      </trkpt>
      <trkpt lat="33.339974228292704" lon="-5.037502683699131">
        <ele>1726.6700000000001</ele>
        <time>2019-03-11T08:49:32Z</time>
      </trkpt>
      <trkpt lat="33.339363103732467" lon="-5.037251310423017">
        <ele>1726.6700000000001</ele>
        <time>2019-03-11T08:49:42Z</time>
      </trkpt>
      <trkpt lat="33.338656257838011" lon="-5.037010749801993">
        <ele>1727.1500000000001</ele>
        <time>2019-03-11T08:49:48Z</time>
      </trkpt>
      <trkpt lat="33.33844025619328" lon="-5.036864317953587">
        <ele>1724.26</ele>
        <time>2019-03-11T08:49:56Z</time>
      </trkpt>
      <trkpt lat="33.338052341714501" lon="-5.036638425663114">
        <ele>1719.46</ele>
        <time>2019-03-11T08:50:04Z</time>
      </trkpt>
      <trkpt lat="33.33694601431489" lon="-5.036448827013373">
        <ele>1718.49</ele>
        <time>2019-03-11T08:50:12Z</time>
      </trkpt>
      <trkpt lat="33.336583329364657" lon="-5.036398787051439">
        <ele>1713.6900000000001</ele>
        <time>2019-03-11T08:50:16Z</time>
      </trkpt>
      <trkpt lat="33.335935240611434" lon="-5.036294348537922">
        <ele>1712.73</ele>
        <time>2019-03-11T08:50:23Z</time>
      </trkpt>
      <trkpt lat="33.335148096084595" lon="-5.036169625818729">
        <ele>1715.1300000000001</ele>
        <time>2019-03-11T08:50:30Z</time>
      </trkpt>
      <trkpt lat="33.33462649025023" lon="-5.036156130954623">
        <ele>1716.5699999999999</ele>
        <time>2019-03-11T08:50:38Z</time>
      </trkpt>
      <trkpt lat="33.334326418116689" lon="-5.036107935011387">
        <ele>1720.9000000000001</ele>
        <time>2019-03-11T08:50:42Z</time>
      </trkpt>
      <trkpt lat="33.334029028192163" lon="-5.035931915044785">
        <ele>1721.8599999999999</ele>
        <time>2019-03-11T08:50:51Z</time>
      </trkpt>
      <trkpt lat="33.333743289113045" lon="-5.03545138053596">
        <ele>1722.3399999999999</ele>
        <time>2019-03-11T08:50:59Z</time>
      </trkpt>
      <trkpt lat="33.333273399621248" lon="-5.034756772220135">
        <ele>1722.8199999999999</ele>
        <time>2019-03-11T08:51:05Z</time>
      </trkpt>
      <trkpt lat="33.332985900342464" lon="-5.034507494419813">
        <ele>1721.8599999999999</ele>
        <time>2019-03-11T08:51:08Z</time>
      </trkpt>
      <trkpt lat="33.332389192655683" lon="-5.034152353182435">
        <ele>1721.3800000000001</ele>
        <time>2019-03-11T08:51:15Z</time>
      </trkpt>
      <trkpt lat="33.332016281783581" lon="-5.033857226371765">
        <ele>1718.97</ele>
        <time>2019-03-11T08:51:22Z</time>
      </trkpt>
      <trkpt lat="33.331700284034014" lon="-5.033451542258263">
        <ele>1716.0899999999999</ele>
        <time>2019-03-11T08:51:23Z</time>
      </trkpt>
      <trkpt lat="33.331604059785604" lon="-5.033236714079976">
        <ele>1713.6900000000001</ele>
        <time>2019-03-11T08:51:31Z</time>
      </trkpt>
      <trkpt lat="33.331162333488464" lon="-5.032829353585839">
        <ele>1709.3599999999999</ele>
        <time>2019-03-11T08:51:42Z</time>
      </trkpt>
      <trkpt lat="33.330888412892818" lon="-5.032725417986512">
        <ele>1704.0699999999999</ele>
        <time>2019-03-11T08:51:52Z</time>
      </trkpt>
      <trkpt lat="33.330844240263104" lon="-5.032709911465645">
        <ele>1703.5899999999999</ele>
        <time>2019-03-11T08:52:04Z</time>
      </trkpt>
      <trkpt lat="33.330291453748941" lon="-5.032247062772512">
        <ele>1701.1900000000001</ele>
        <time>2019-03-11T08:52:15Z</time>
      </trkpt>
      <trkpt lat="33.329422418028116" lon="-5.031416835263372">
        <ele>1699.27</ele>
        <time>2019-03-11T08:52:27Z</time>
      </trkpt>
      <trkpt lat="33.328752368688583" lon="-5.030610412359238">
        <ele>1699.75</ele>
        <time>2019-03-11T08:52:38Z</time>
      </trkpt>
      <trkpt lat="33.327846620231867" lon="-5.029895771294832">
        <ele>1701.6700000000001</ele>
        <time>2019-03-11T08:52:49Z</time>
      </trkpt>
      <trkpt lat="33.326834002509713" lon="-5.028913831338286">
        <ele>1701.6700000000001</ele>
        <time>2019-03-11T08:52:50Z</time>
      </trkpt>
      <trkpt lat="33.325748629868031" lon="-5.027824686840177">
        <ele>1700.71</ele>
        <time>2019-03-11T08:52:54Z</time>
      </trkpt>
      <trkpt lat="33.324728384613991" lon="-5.026751719415188">
        <ele>1700.23</ele>
        <time>2019-03-11T08:52:58Z</time>
      </trkpt>
      <trkpt lat="33.323594816029072" lon="-5.02565385773778">
        <ele>1701.1900000000001</ele>
        <time>2019-03-11T08:53:03Z</time>
      </trkpt>
      <trkpt lat="33.323494987562299" lon="-5.025560315698385">
        <ele>1699.75</ele>
        <time>2019-03-11T08:53:07Z</time>
      </trkpt>
      <trkpt lat="33.323040017858148" lon="-5.02534506842494">
        <ele>1696.8599999999999</ele>
        <time>2019-03-11T08:53:11Z</time>
      </trkpt>
      <trkpt lat="33.322655707597733" lon="-5.025037620216608">
        <ele>1694.9400000000001</ele>
        <time>2019-03-11T08:53:17Z</time>
      </trkpt>
      <trkpt lat="33.32229838706553" lon="-5.024446696043015">
        <ele>1693.02</ele>
        <time>2019-03-11T08:53:21Z</time>
      </trkpt>
      <trkpt lat="33.32208976149559" lon="-5.024133129045367">
        <ele>1690.6199999999999</ele>
        <time>2019-03-11T08:53:26Z</time>
      </trkpt>
      <trkpt lat="33.321854313835502" lon="-5.023820484057069">
        <ele>1689.1700000000001</ele>
        <time>2019-03-11T08:53:31Z</time>
      </trkpt>
      <trkpt lat="33.321413174271584" lon="-5.023484788835049">
        <ele>1688.6900000000001</ele>
        <time>2019-03-11T08:53:42Z</time>
      </trkpt>
      <trkpt lat="33.32122290506959" lon="-5.023407256230712">
        <ele>1689.1700000000001</ele>
        <time>2019-03-11T08:53:51Z</time>
      </trkpt>
      <trkpt lat="33.320911517366767" lon="-5.023325616493821">
        <ele>1690.1400000000001</ele>
        <time>2019-03-11T08:54:01Z</time>
      </trkpt>
      <trkpt lat="33.320581605657935" lon="-5.023166527971625">
        <ele>1692.54</ele>
        <time>2019-03-11T08:54:12Z</time>
      </trkpt>
      <trkpt lat="33.319817427545786" lon="-5.022247787564993">
        <ele>1693.5</ele>
        <time>2019-03-11T08:54:19Z</time>
      </trkpt>
      <trkpt lat="33.319274112582207" lon="-5.021719308570027">
        <ele>1692.0599999999999</ele>
        <time>2019-03-11T08:54:30Z</time>
      </trkpt>
      <trkpt lat="33.318409854546189" lon="-5.020462861284614">
        <ele>1689.6500000000001</ele>
        <time>2019-03-11T08:54:37Z</time>
      </trkpt>
      <trkpt lat="33.31732464954257" lon="-5.019226195290685">
        <ele>1688.21</ele>
        <time>2019-03-11T08:54:42Z</time>
      </trkpt>
      <trkpt lat="33.316838834434748" lon="-5.018760329112411">
        <ele>1687.73</ele>
        <time>2019-03-11T08:54:50Z</time>
      </trkpt>
      <trkpt lat="33.316813101992011" lon="-5.018733842298389">
        <ele>1686.29</ele>
        <time>2019-03-11T08:54:54Z</time>
      </trkpt>
      <trkpt lat="33.316515795886517" lon="-5.018455311655998">
        <ele>1685.3299999999999</ele>
        <time>2019-03-11T08:55:02Z</time>
      </trkpt>
      <trkpt lat="33.316182615235448" lon="-5.018157418817282">
        <ele>1685.8099999999999</ele>
        <time>2019-03-11T08:55:08Z</time>
      </trkpt>
      <trkpt lat="33.315733596682549" lon="-5.01737748272717">
        <ele>1685.8099999999999</ele>
        <time>2019-03-11T08:55:13Z</time>
      </trkpt>
      <trkpt lat="33.315344424918294" lon="-5.017079086974263">
        <ele>1682.4400000000001</ele>
        <time>2019-03-11T08:55:22Z</time>
      </trkpt>
      <trkpt lat="33.314689798280597" lon="-5.016271490603685">
        <ele>1680.52</ele>
        <time>2019-03-11T08:55:31Z</time>
      </trkpt>
      <trkpt lat="33.314293166622519" lon="-5.015623653307557">
        <ele>1681</ele>
        <time>2019-03-11T08:55:42Z</time>
      </trkpt>
      <trkpt lat="33.314131814986467" lon="-5.014999788254499">
        <ele>1680.04</ele>
        <time>2019-03-11T08:55:45Z</time>
      </trkpt>
      <trkpt lat="33.313480960205197" lon="-5.013838894665241">
        <ele>1677.6400000000001</ele>
        <time>2019-03-11T08:55:49Z</time>
      </trkpt>
      <trkpt lat="33.312578815966845" lon="-5.012697279453278">
        <ele>1674.27</ele>
        <time>2019-03-11T08:56:00Z</time>
      </trkpt>
      <trkpt lat="33.311255648732185" lon="-5.011301105841994">
        <ele>1674.27</ele>
        <time>2019-03-11T08:56:06Z</time>
      </trkpt>
      <trkpt lat="33.310935711488128" lon="-5.010946718975902">
        <ele>1675.23</ele>
        <time>2019-03-11T08:56:10Z</time>
      </trkpt>
      <trkpt lat="33.310643685981631" lon="-5.010450342670083">
        <ele>1675.72</ele>
        <time>2019-03-11T08:56:14Z</time>
      </trkpt>
      <trkpt lat="33.309914376586676" lon="-5.009124660864472">
        <ele>1675.72</ele>
        <time>2019-03-11T08:56:24Z</time>
      </trkpt>
      <trkpt lat="33.309543896466494" lon="-5.008293762803078">
        <ele>1674.27</ele>
        <time>2019-03-11T08:56:37Z</time>
      </trkpt>
      <trkpt lat="33.309308448806405" lon="-5.007941974326968">
        <ele>1673.79</ele>
        <time>2019-03-11T08:56:40Z</time>
      </trkpt>
      <trkpt lat="33.309024134650826" lon="-5.007558586075902">
        <ele>1673.79</ele>
        <time>2019-03-11T08:56:44Z</time>
      </trkpt>
      <trkpt lat="33.308068681508303" lon="-5.006733220070601">
        <ele>1674.75</ele>
        <time>2019-03-11T08:56:52Z</time>
      </trkpt>
      <trkpt lat="33.306448878720403" lon="-5.006027547642589">
        <ele>1675.23</ele>
        <time>2019-03-11T08:56:56Z</time>
      </trkpt>
      <trkpt lat="33.306082421913743" lon="-5.005843732506037">
        <ele>1675.72</ele>
        <time>2019-03-11T08:57:06Z</time>
      </trkpt>
      <trkpt lat="33.305696016177535" lon="-5.005454979836941">
        <ele>1675.72</ele>
        <time>2019-03-11T08:57:08Z</time>
      </trkpt>
      <trkpt lat="33.305255714803934" lon="-5.004589967429638">
        <ele>1676.2</ele>
        <time>2019-03-11T08:57:12Z</time>
      </trkpt>
      <trkpt lat="33.305080449208617" lon="-5.004442865028977">
        <ele>1677.6400000000001</ele>
        <time>2019-03-11T08:57:20Z</time>
      </trkpt>
      <trkpt lat="33.304307973012328" lon="-5.004252847284079">
        <ele>1677.6400000000001</ele>
        <time>2019-03-11T08:57:25Z</time>
      </trkpt>
      <trkpt lat="33.30407059751451" lon="-5.004208339378238">
        <ele>1678.1199999999999</ele>
        <time>2019-03-11T08:57:29Z</time>
      </trkpt>
      <trkpt lat="33.303615543991327" lon="-5.003928802907467">
        <ele>1678.5999999999999</ele>
        <time>2019-03-11T08:57:34Z</time>
      </trkpt>
      <trkpt lat="33.302619270980358" lon="-5.003286497667432">
        <ele>1683.4100000000001</ele>
        <time>2019-03-11T08:57:39Z</time>
      </trkpt>
      <trkpt lat="33.30191376619041" lon="-5.00310217961669">
        <ele>1683.8900000000001</ele>
        <time>2019-03-11T08:57:48Z</time>
      </trkpt>
      <trkpt lat="33.301385371014476" lon="-5.003198822960258">
        <ele>1683.4100000000001</ele>
        <time>2019-03-11T08:57:52Z</time>
      </trkpt>
      <trkpt lat="33.300878349691629" lon="-5.003308122977614">
        <ele>1685.8099999999999</ele>
        <time>2019-03-11T08:57:54Z</time>
      </trkpt>
      <trkpt lat="33.300385074689984" lon="-5.00304501503706">
        <ele>1686.29</ele>
        <time>2019-03-11T08:58:01Z</time>
      </trkpt>
      <trkpt lat="33.299545710906386" lon="-5.002064667642117">
        <ele>1688.21</ele>
        <time>2019-03-11T08:58:10Z</time>
      </trkpt>
      <trkpt lat="33.29915402457118" lon="-5.001909350976348">
        <ele>1689.1700000000001</ele>
        <time>2019-03-11T08:58:15Z</time>
      </trkpt>
      <trkpt lat="33.298925282433629" lon="-5.001906836405397">
        <ele>1687.73</ele>
        <time>2019-03-11T08:58:20Z</time>
      </trkpt>
      <trkpt lat="33.298179460689425" lon="-5.001404006034136">
        <ele>1689.1700000000001</ele>
        <time>2019-03-11T08:58:30Z</time>
      </trkpt>
      <trkpt lat="33.297285782173276" lon="-5.000458443537355">
        <ele>1691.0999999999999</ele>
        <time>2019-03-11T08:58:31Z</time>
      </trkpt>
      <trkpt lat="33.296810863539577" lon="-4.999928288161755">
        <ele>1693.02</ele>
        <time>2019-03-11T08:58:36Z</time>
      </trkpt>
      <trkpt lat="33.296362347900867" lon="-4.999828208237886">
        <ele>1693.02</ele>
        <time>2019-03-11T08:58:42Z</time>
      </trkpt>
      <trkpt lat="33.295321902260184" lon="-5.000227773562074">
        <ele>1693.5</ele>
        <time>2019-03-11T08:58:50Z</time>
      </trkpt>
      <trkpt lat="33.295187037438154" lon="-5.000249398872256">
        <ele>1692.0599999999999</ele>
        <time>2019-03-11T08:58:59Z</time>
      </trkpt>
      <trkpt lat="33.294530566781759" lon="-5.000142278149724">
        <ele>1690.6199999999999</ele>
        <time>2019-03-11T08:59:02Z</time>
      </trkpt>
      <trkpt lat="33.293993370607495" lon="-4.999588150531054">
        <ele>1688.6900000000001</ele>
        <time>2019-03-11T08:59:08Z</time>
      </trkpt>
      <trkpt lat="33.293051496148109" lon="-4.998402111232281">
        <ele>1691.0999999999999</ele>
        <time>2019-03-11T08:59:10Z</time>
      </trkpt>
      <trkpt lat="33.291886579245329" lon="-4.996855398640037">
        <ele>1691.5799999999999</ele>
        <time>2019-03-11T08:59:14Z</time>
      </trkpt>
      <trkpt lat="33.291631182655692" lon="-4.99636497348547">
        <ele>1692.54</ele>
        <time>2019-03-11T08:59:18Z</time>
      </trkpt>
      <trkpt lat="33.290962558239698" lon="-4.995864657685161">
        <ele>1693.5</ele>
        <time>2019-03-11T08:59:20Z</time>
      </trkpt>
      <trkpt lat="33.290707916021347" lon="-4.995772372931242">
        <ele>1700.23</ele>
        <time>2019-03-11T08:59:24Z</time>
      </trkpt>
      <trkpt lat="33.29039971344173" lon="-4.99539309181273">
        <ele>1702.1500000000001</ele>
        <time>2019-03-11T08:59:31Z</time>
      </trkpt>
      <trkpt lat="33.290083548054099" lon="-4.995127804577351">
        <ele>1701.1900000000001</ele>
        <time>2019-03-11T08:59:34Z</time>
      </trkpt>
      <trkpt lat="33.289885148406029" lon="-4.995101736858487">
        <ele>1702.1500000000001</ele>
        <time>2019-03-11T08:59:42Z</time>
      </trkpt>
      <trkpt lat="33.289595302194357" lon="-4.994886657223105">
        <ele>1704.0699999999999</ele>
        <time>2019-03-11T08:59:54Z</time>
      </trkpt>
      <trkpt lat="33.289139326661825" lon="-4.994713570922613">
        <ele>1705.04</ele>
        <time>2019-03-11T09:00:05Z</time>
      </trkpt>
      <trkpt lat="33.288930617272854" lon="-4.994961507618427">
        <ele>1706.96</ele>
        <time>2019-03-11T09:00:12Z</time>
      </trkpt>
      <trkpt lat="33.288511019200087" lon="-4.99558168463409">
        <ele>1711.28</ele>
        <time>2019-03-11T09:00:20Z</time>
      </trkpt>
      <trkpt lat="33.288082787767053" lon="-4.996129106730223">
        <ele>1711.28</ele>
        <time>2019-03-11T09:00:24Z</time>
      </trkpt>
      <trkpt lat="33.287597224116325" lon="-4.996495479717851">
        <ele>1712.25</ele>
        <time>2019-03-11T09:00:32Z</time>
      </trkpt>
      <trkpt lat="33.287309054285288" lon="-4.996935361996293">
        <ele>1711.76</ele>
        <time>2019-03-11T09:00:35Z</time>
      </trkpt>
      <trkpt lat="33.286613440141082" lon="-4.997646315023303">
        <ele>1711.76</ele>
        <time>2019-03-11T09:00:40Z</time>
      </trkpt>
      <trkpt lat="33.286210438236594" lon="-4.998045209795237">
        <ele>1711.76</ele>
        <time>2019-03-11T09:00:48Z</time>
      </trkpt>
      <trkpt lat="33.285323549062014" lon="-4.998864205554128">
        <ele>1710.8</ele>
        <time>2019-03-11T09:00:49Z</time>
      </trkpt>
      <trkpt lat="33.285134369507432" lon="-4.999185651540756">
        <ele>1710.3199999999999</ele>
        <time>2019-03-11T09:00:55Z</time>
      </trkpt>
      <trkpt lat="33.28483329154551" lon="-4.99942428432405">
        <ele>1703.5899999999999</ele>
        <time>2019-03-11T09:00:57Z</time>
      </trkpt>
      <trkpt lat="33.28438276425004" lon="-4.999345075339079">
        <ele>1701.1900000000001</ele>
        <time>2019-03-11T09:01:01Z</time>
      </trkpt>
      <trkpt lat="33.284365748986602" lon="-4.999331496655941">
        <ele>1700.71</ele>
        <time>2019-03-11T09:01:06Z</time>
      </trkpt>
      <trkpt lat="33.284197691828012" lon="-4.998912317678332">
        <ele>1703.5899999999999</ele>
        <time>2019-03-11T09:01:12Z</time>
      </trkpt>
      <trkpt lat="33.284085374325514" lon="-4.998689526692033">
        <ele>1704.0699999999999</ele>
        <time>2019-03-11T09:01:18Z</time>
      </trkpt>
      <trkpt lat="33.283735681325197" lon="-4.998378893360496">
        <ele>1704.0699999999999</ele>
        <time>2019-03-11T09:01:25Z</time>
      </trkpt>
      <trkpt lat="33.283116174861789" lon="-4.998176721855998">
        <ele>1704.0699999999999</ele>
        <time>2019-03-11T09:01:30Z</time>
      </trkpt>
      <trkpt lat="33.282484766095877" lon="-4.997757291421294">
        <ele>1703.5899999999999</ele>
        <time>2019-03-11T09:01:40Z</time>
      </trkpt>
      <trkpt lat="33.281812286004424" lon="-4.997323025017977">
        <ele>1704.55</ele>
        <time>2019-03-11T09:01:46Z</time>
      </trkpt>
      <trkpt lat="33.280806373804808" lon="-4.996744254603982">
        <ele>1709.8399999999999</ele>
        <time>2019-03-11T09:01:47Z</time>
      </trkpt>
      <trkpt lat="33.28019424341619" lon="-4.9966224655509">
        <ele>1717.05</ele>
        <time>2019-03-11T09:01:48Z</time>
      </trkpt>
      <trkpt lat="33.279162850230932" lon="-4.996604193001986">
        <ele>1721.3800000000001</ele>
        <time>2019-03-11T09:01:49Z</time>
      </trkpt>
      <trkpt lat="33.278728751465678" lon="-4.996562451124191">
        <ele>1728.5899999999999</ele>
        <time>2019-03-11T09:01:55Z</time>
      </trkpt>
      <trkpt lat="33.27869413420558" lon="-4.996588015928865">
        <ele>1735.3199999999999</ele>
        <time>2019-03-11T09:02:05Z</time>
      </trkpt>
      <trkpt lat="33.278666222468019" lon="-4.99663126654923">
        <ele>1741.5699999999999</ele>
        <time>2019-03-11T09:02:20Z</time>
      </trkpt>
      <trkpt lat="33.278641579672694" lon="-4.996691280975938">
        <ele>1743.49</ele>
        <time>2019-03-11T09:02:35Z</time>
      </trkpt>
      <trkpt lat="33.278372352942824" lon="-4.997302237898111">
        <ele>1746.3699999999999</ele>
        <time>2019-03-11T09:02:48Z</time>
      </trkpt>
      <trkpt lat="33.277664920315146" lon="-4.998845849186182">
        <ele>1754.54</ele>
        <time>2019-03-11T09:03:02Z</time>
      </trkpt>
      <trkpt lat="33.276490531861782" lon="-5.001376010477543">
        <ele>1758.3900000000001</ele>
        <time>2019-03-11T09:03:16Z</time>
      </trkpt>
      <trkpt lat="33.27515747398138" lon="-5.004250081256032">
        <ele>1761.75</ele>
        <time>2019-03-11T09:03:33Z</time>
      </trkpt>
      <trkpt lat="33.273915443569422" lon="-5.006639929488301">
        <ele>1775.21</ele>
        <time>2019-03-11T09:03:53Z</time>
      </trkpt>
      <trkpt lat="33.272266807034612" lon="-5.009020389989018">
        <ele>1791.55</ele>
        <time>2019-03-11T09:04:10Z</time>
      </trkpt>
      <trkpt lat="33.270556982606649" lon="-5.011546527966857">
        <ele>1802.1300000000001</ele>
        <time>2019-03-11T09:04:27Z</time>
      </trkpt>
      <trkpt lat="33.268234273418784" lon="-5.01494849100709">
        <ele>1808.3800000000001</ele>
        <time>2019-03-11T09:04:43Z</time>
      </trkpt>
      <trkpt lat="33.265461372211576" lon="-5.01902955584228">
        <ele>1813.1800000000001</ele>
        <time>2019-03-11T09:04:59Z</time>
      </trkpt>
      <trkpt lat="33.263034727424383" lon="-5.022591445595026">
        <ele>1813.6600000000001</ele>
        <time>2019-03-11T09:05:16Z</time>
      </trkpt>
      <trkpt lat="33.260653261095285" lon="-5.026101870462298">
        <ele>1817.51</ele>
        <time>2019-03-11T09:05:34Z</time>
      </trkpt>
      <trkpt lat="33.258329713717103" lon="-5.029526380822063">
        <ele>1820.3900000000001</ele>
        <time>2019-03-11T09:05:52Z</time>
      </trkpt>
      <trkpt lat="33.256006501615047" lon="-5.032949633896351">
        <ele>1822.3199999999999</ele>
        <time>2019-03-11T09:06:06Z</time>
      </trkpt>
      <trkpt lat="33.253616821020842" lon="-5.036463579162955">
        <ele>1823.76</ele>
        <time>2019-03-11T09:06:20Z</time>
      </trkpt>
      <trkpt lat="33.251189589500427" lon="-5.040032174438238">
        <ele>1824.72</ele>
        <time>2019-03-11T09:06:38Z</time>
      </trkpt>
      <trkpt lat="33.248787000775337" lon="-5.043552238494158">
        <ele>1824.72</ele>
        <time>2019-03-11T09:06:53Z</time>
      </trkpt>
      <trkpt lat="33.246955890208483" lon="-5.046197483316064">
        <ele>1825.2</ele>
        <time>2019-03-11T09:07:03Z</time>
      </trkpt>
      <trkpt lat="33.245332399383187" lon="-5.048578279092908">
        <ele>1826.6400000000001</ele>
        <time>2019-03-11T09:07:14Z</time>
      </trkpt>
      <trkpt lat="33.243088899180293" lon="-5.051703387871385">
        <ele>1826.6400000000001</ele>
        <time>2019-03-11T09:07:23Z</time>
      </trkpt>
      <trkpt lat="33.241352001205087" lon="-5.054108323529363">
        <ele>1827.5999999999999</ele>
        <time>2019-03-11T09:07:34Z</time>
      </trkpt>
      <trkpt lat="33.240643311291933" lon="-5.055097723379731">
        <ele>1827.5999999999999</ele>
        <time>2019-03-11T09:07:44Z</time>
      </trkpt>
      <trkpt lat="33.24017945677042" lon="-5.055764587596059">
        <ele>1827.5999999999999</ele>
        <time>2019-03-11T09:07:57Z</time>
      </trkpt>
      <trkpt lat="33.239818112924695" lon="-5.05627479404211">
        <ele>1828.0799999999999</ele>
        <time>2019-03-11T09:08:08Z</time>
      </trkpt>
      <trkpt lat="33.239262644201517" lon="-5.057038720697165">
        <ele>1828.5599999999999</ele>
        <time>2019-03-11T09:08:18Z</time>
      </trkpt>
      <trkpt lat="33.238920494914055" lon="-5.05751833319664">
        <ele>1828.5599999999999</ele>
        <time>2019-03-11T09:08:27Z</time>
      </trkpt>
      <trkpt lat="33.238239213824272" lon="-5.058472780510783">
        <ele>1829.05</ele>
        <time>2019-03-11T09:08:36Z</time>
      </trkpt>
      <trkpt lat="33.237651474773884" lon="-5.059286747127771">
        <ele>1829.05</ele>
        <time>2019-03-11T09:08:37Z</time>
      </trkpt>
      <trkpt lat="33.237316114827991" lon="-5.059741465374827">
        <ele>1829.53</ele>
        <time>2019-03-11T09:08:38Z</time>
      </trkpt>
      <trkpt lat="33.237204635515809" lon="-5.059899212792516">
        <ele>1831.9300000000001</ele>
        <time>2019-03-11T09:08:39Z</time>
      </trkpt>
      <trkpt lat="33.237174544483423" lon="-5.059917652979493">
        <ele>1832.8900000000001</ele>
        <time>2019-03-11T09:08:40Z</time>
      </trkpt>
      <trkpt lat="33.237149398773909" lon="-5.059921005740762">
        <ele>1837.7</ele>
        <time>2019-03-11T09:08:41Z</time>
      </trkpt>
      <trkpt lat="33.237118804827332" lon="-5.059910612180829">
        <ele>1839.6199999999999</ele>
        <time>2019-03-11T09:08:42Z</time>
      </trkpt>
      <trkpt lat="33.237088546156883" lon="-5.059887059032917">
        <ele>1841.54</ele>
        <time>2019-03-11T09:08:47Z</time>
      </trkpt>
      <trkpt lat="33.237058455124497" lon="-5.059853699058294">
        <ele>1843.95</ele>
        <time>2019-03-11T09:08:59Z</time>
      </trkpt>
      <trkpt lat="33.237026100978255" lon="-5.059812292456627">
        <ele>1846.3499999999999</ele>
        <time>2019-03-11T09:09:11Z</time>
      </trkpt>
      <trkpt lat="33.236994165927172" lon="-5.059763928875327">
        <ele>1849.23</ele>
        <time>2019-03-11T09:09:25Z</time>
      </trkpt>
      <trkpt lat="33.23680498637259" lon="-5.059482967481017">
        <ele>1849.71</ele>
        <time>2019-03-11T09:09:33Z</time>
      </trkpt>
      <trkpt lat="33.236204255372286" lon="-5.058940825983882">
        <ele>1851.1600000000001</ele>
        <time>2019-03-11T09:21:08Z</time>
      </trkpt>
      <trkpt lat="33.235282665118575" lon="-5.058568166568875">
        <ele>1851.1600000000001</ele>
        <time>2019-03-11T09:21:17Z</time>
      </trkpt>
      <trkpt lat="33.233913565054536" lon="-5.058279996737838">
        <ele>1851.1600000000001</ele>
        <time>2019-03-11T09:21:25Z</time>
      </trkpt>
      <trkpt lat="33.233517603948712" lon="-5.058245211839676">
        <ele>1852.5999999999999</ele>
        <time>2019-03-11T09:21:32Z</time>
      </trkpt>
      <trkpt lat="33.233195822685957" lon="-5.058233728632331">
        <ele>1854.04</ele>
        <time>2019-03-11T09:21:41Z</time>
      </trkpt>
      <trkpt lat="33.232363080605865" lon="-5.058173881843686">
        <ele>1852.1199999999999</ele>
        <time>2019-03-11T09:21:49Z</time>
      </trkpt>
      <trkpt lat="33.231369070708752" lon="-5.058482671156526">
        <ele>1854.52</ele>
        <time>2019-03-11T09:21:59Z</time>
      </trkpt>
      <trkpt lat="33.230600953102112" lon="-5.059077618643642">
        <ele>1856.4400000000001</ele>
        <time>2019-03-11T09:22:06Z</time>
      </trkpt>
      <trkpt lat="33.229889748618007" lon="-5.059765605255961">
        <ele>1861.25</ele>
        <time>2019-03-11T09:22:17Z</time>
      </trkpt>
      <trkpt lat="33.228925159201026" lon="-5.060120411217213">
        <ele>1861.73</ele>
        <time>2019-03-11T09:22:27Z</time>
      </trkpt>
      <trkpt lat="33.227622108533978" lon="-5.060099205002189">
        <ele>1847.79</ele>
        <time>2019-03-11T09:22:39Z</time>
      </trkpt>
      <trkpt lat="33.227172838523984" lon="-5.060088727623224">
        <ele>1849.23</ele>
        <time>2019-03-11T09:22:51Z</time>
      </trkpt>
      <trkpt lat="33.226439086720347" lon="-5.060073807835579">
        <ele>1851.6400000000001</ele>
        <time>2019-03-11T09:23:02Z</time>
      </trkpt>
      <trkpt lat="33.225305434316397" lon="-5.060050170868635">
        <ele>1854.04</ele>
        <time>2019-03-11T09:23:19Z</time>
      </trkpt>
      <trkpt lat="33.223526543006301" lon="-5.060002142563462">
        <ele>1855.96</ele>
        <time>2019-03-11T09:23:31Z</time>
      </trkpt>
      <trkpt lat="33.221837086603045" lon="-5.059963082894683">
        <ele>1858.8499999999999</ele>
        <time>2019-03-11T09:52:09Z</time>
      </trkpt>
      <trkpt lat="33.22049506008625" lon="-5.059927375987172">
        <ele>1859.3299999999999</ele>
        <time>2019-03-11T09:52:20Z</time>
      </trkpt>
      <trkpt lat="33.218317944556475" lon="-5.059880688786507">
        <ele>1860.29</ele>
        <time>2019-03-11T09:52:32Z</time>
      </trkpt>
      <trkpt lat="33.216700069606304" lon="-5.059838779270649">
        <ele>1860.77</ele>
        <time>2019-03-11T09:52:41Z</time>
      </trkpt>
      <trkpt lat="33.216331517323852" lon="-5.059876497834921">
        <ele>1861.73</ele>
        <time>2019-03-11T09:52:49Z</time>
      </trkpt>
      <trkpt lat="33.216224648058414" lon="-5.059875408187509">
        <ele>1862.6900000000001</ele>
        <time>2019-03-11T09:53:00Z</time>
      </trkpt>
      <trkpt lat="33.215797757729888" lon="-5.059836013242602">
        <ele>1871.8199999999999</ele>
        <time>2019-03-11T09:53:01Z</time>
      </trkpt>
      <trkpt lat="33.215014636516571" lon="-5.059808269143105">
        <ele>1879.03</ele>
        <time>2019-03-11T09:53:02Z</time>
      </trkpt>
      <trkpt lat="33.213817784562707" lon="-5.059781782329083">
        <ele>1884.3199999999999</ele>
        <time>2019-03-11T09:53:03Z</time>
      </trkpt>
      <trkpt lat="33.211534805595875" lon="-5.059731155633926">
        <ele>1885.28</ele>
        <time>2019-03-11T09:53:04Z</time>
      </trkpt>
      <trkpt lat="33.211317798122764" lon="-5.059752110391855">
        <ele>1881.9200000000001</ele>
        <time>2019-03-11T09:53:05Z</time>
      </trkpt>
      <trkpt lat="33.211110513657331" lon="-5.059798881411552">
        <ele>1878.0699999999999</ele>
        <time>2019-03-11T09:53:13Z</time>
      </trkpt>
      <trkpt lat="33.210915802046657" lon="-5.059868283569813">
        <ele>1875.6700000000001</ele>
        <time>2019-03-11T09:53:23Z</time>
      </trkpt>
      <trkpt lat="33.210736429318786" lon="-5.059952773153782">
        <ele>1873.75</ele>
        <time>2019-03-11T09:53:37Z</time>
      </trkpt>
      <trkpt lat="33.210570299997926" lon="-5.060044890269637">
        <ele>1880</ele>
        <time>2019-03-11T09:53:45Z</time>
      </trkpt>
      <trkpt lat="33.209538739174604" lon="-5.060659870505333">
        <ele>1881.9200000000001</ele>
        <time>2019-03-11T09:53:54Z</time>
      </trkpt>
      <trkpt lat="33.208726448938251" lon="-5.06100076250732">
        <ele>1883.8399999999999</ele>
        <time>2019-03-11T09:54:06Z</time>
      </trkpt>
      <trkpt lat="33.207621295005083" lon="-5.061366129666567">
        <ele>1887.6900000000001</ele>
        <time>2019-03-11T09:54:17Z</time>
      </trkpt>
      <trkpt lat="33.206662405282259" lon="-5.061667542904615">
        <ele>1900.1800000000001</ele>
        <time>2019-03-11T09:54:27Z</time>
      </trkpt>
      <trkpt lat="33.204941935837269" lon="-5.062285540625453">
        <ele>1907.8699999999999</ele>
        <time>2019-03-11T09:54:40Z</time>
      </trkpt>
      <trkpt lat="33.202248495072126" lon="-5.063213668763638">
        <ele>1912.6800000000001</ele>
        <time>2019-03-11T09:54:42Z</time>
      </trkpt>
      <trkpt lat="33.199763093143702" lon="-5.063903583213687">
        <ele>1912.2</ele>
        <time>2019-03-11T09:54:51Z</time>
      </trkpt>
      <trkpt lat="33.197368467226624" lon="-5.063917161896825">
        <ele>1908.3499999999999</ele>
        <time>2019-03-11T09:54:57Z</time>
      </trkpt>
      <trkpt lat="33.194415103644133" lon="-5.06339605897665">
        <ele>1911.72</ele>
        <time>2019-03-11T09:55:10Z</time>
      </trkpt>
      <trkpt lat="33.194022662937641" lon="-5.06327586248517">
        <ele>1912.2</ele>
        <time>2019-03-11T09:55:17Z</time>
      </trkpt>
      <trkpt lat="33.192251482978463" lon="-5.0623142067343">
        <ele>1913.1600000000001</ele>
        <time>2019-03-11T09:55:24Z</time>
      </trkpt>
      <trkpt lat="33.190882131457329" lon="-5.062058223411441">
        <ele>1913.6400000000001</ele>
        <time>2019-03-11T09:55:33Z</time>
      </trkpt>
      <trkpt lat="33.18798853084445" lon="-5.06180458702147">
        <ele>1914.5999999999999</ele>
        <time>2019-03-11T09:55:46Z</time>
      </trkpt>
      <trkpt lat="33.186499401926994" lon="-5.062123434618115">
        <ele>1915.5599999999999</ele>
        <time>2019-03-11T09:55:52Z</time>
      </trkpt>
      <trkpt lat="33.185186963528395" lon="-5.062120417132974">
        <ele>1916.53</ele>
        <time>2019-03-11T09:55:53Z</time>
      </trkpt>
      <trkpt lat="33.183515192940831" lon="-5.061752451583743">
        <ele>1917.01</ele>
        <time>2019-03-11T09:55:54Z</time>
      </trkpt>
      <trkpt lat="33.181031132116914" lon="-5.060896826907992">
        <ele>1917.49</ele>
        <time>2019-03-11T09:55:55Z</time>
      </trkpt>
      <trkpt lat="33.179951794445515" lon="-5.060552749782801">
        <ele>1918.9300000000001</ele>
        <time>2019-03-11T09:55:56Z</time>
      </trkpt>
      <trkpt lat="33.179771667346358" lon="-5.060532297939062">
        <ele>1919.4100000000001</ele>
        <time>2019-03-11T09:55:57Z</time>
      </trkpt>
      <trkpt lat="33.179586930200458" lon="-5.060533890500665">
        <ele>1919.8900000000001</ele>
        <time>2019-03-11T09:55:58Z</time>
      </trkpt>
      <trkpt lat="33.179401271045208" lon="-5.060554007068276">
        <ele>1920.3699999999999</ele>
        <time>2019-03-11T09:55:59Z</time>
      </trkpt>
      <trkpt lat="33.179218461737037" lon="-5.06058837287128">
        <ele>1920.8499999999999</ele>
        <time>2019-03-11T09:56:00Z</time>
      </trkpt>
      <trkpt lat="33.179039927199483" lon="-5.06063824519515">
        <ele>1922.77</ele>
        <time>2019-03-11T09:56:08Z</time>
      </trkpt>
      <trkpt lat="33.178862649947405" lon="-5.060705300420523">
        <ele>1921.3299999999999</ele>
        <time>2019-03-11T09:56:09Z</time>
      </trkpt>
      <trkpt lat="33.178686629980803" lon="-5.060791382566094">
        <ele>1920.8499999999999</ele>
        <time>2019-03-11T09:56:10Z</time>
      </trkpt>
      <trkpt lat="33.178511196747422" lon="-5.060889953747392">
        <ele>1919.8900000000001</ele>
        <time>2019-03-11T09:56:11Z</time>
      </trkpt>
      <trkpt lat="33.177104210481048" lon="-5.061627812683582">
        <ele>1917.01</ele>
        <time>2019-03-11T09:56:12Z</time>
      </trkpt>
      <trkpt lat="33.176917461678386" lon="-5.061667459085584">
        <ele>1910.28</ele>
        <time>2019-03-11T09:56:24Z</time>
      </trkpt>
      <trkpt lat="33.176726857200265" lon="-5.061694197356701">
        <ele>1921.3299999999999</ele>
        <time>2019-03-11T09:56:27Z</time>
      </trkpt>
      <trkpt lat="33.176533738151193" lon="-5.061708781868219">
        <ele>1927.0999999999999</ele>
        <time>2019-03-11T09:56:28Z</time>
      </trkpt>
      <trkpt lat="33.176342882215977" lon="-5.061711883172393">
        <ele>1927.5799999999999</ele>
        <time>2019-03-11T09:56:29Z</time>
      </trkpt>
      <trkpt lat="33.174068536609411" lon="-5.061708530411124">
        <ele>1928.0599999999999</ele>
        <time>2019-03-11T09:56:36Z</time>
      </trkpt>
      <trkpt lat="33.173557827249169" lon="-5.061753876507282">
        <ele>1928.0599999999999</ele>
        <time>2019-03-11T09:56:44Z</time>
      </trkpt>
      <trkpt lat="33.173395385965705" lon="-5.061799054965377">
        <ele>1928.0599999999999</ele>
        <time>2019-03-11T09:57:01Z</time>
      </trkpt>
      <trkpt lat="33.173234285786748" lon="-5.061856219545007">
        <ele>1928.0599999999999</ele>
        <time>2019-03-11T09:57:08Z</time>
      </trkpt>
      <trkpt lat="33.171968953683972" lon="-5.062510427087545">
        <ele>1922.77</ele>
        <time>2019-03-11T09:57:09Z</time>
      </trkpt>
      <trkpt lat="33.170120911672711" lon="-5.063575683161616">
        <ele>1921.8099999999999</ele>
        <time>2019-03-11T09:57:10Z</time>
      </trkpt>
      <trkpt lat="33.166083432734013" lon="-5.06583334878087">
        <ele>1921.3299999999999</ele>
        <time>2019-03-11T09:57:11Z</time>
      </trkpt>
      <trkpt lat="33.164660185575485" lon="-5.066568357869983">
        <ele>1920.8499999999999</ele>
        <time>2019-03-11T09:57:12Z</time>
      </trkpt>
      <trkpt lat="33.164455834776163" lon="-5.066611776128411">
        <ele>1921.8099999999999</ele>
        <time>2019-03-11T09:57:13Z</time>
      </trkpt>
      <trkpt lat="33.164242850616574" lon="-5.066625438630581">
        <ele>1923.74</ele>
        <time>2019-03-11T09:57:25Z</time>
      </trkpt>
      <trkpt lat="33.164021903648973" lon="-5.066612362861633">
        <ele>1923.74</ele>
        <time>2019-03-11T09:57:28Z</time>
      </trkpt>
      <trkpt lat="33.163794418796897" lon="-5.066575733944774">
        <ele>1924.22</ele>
        <time>2019-03-11T09:57:29Z</time>
      </trkpt>
      <trkpt lat="33.163563497364521" lon="-5.066526532173157">
        <ele>1924.7</ele>
        <time>2019-03-11T09:57:30Z</time>
      </trkpt>
      <trkpt lat="33.160753296688199" lon="-5.0658836401999">
        <ele>1925.1800000000001</ele>
        <time>2019-03-11T09:57:39Z</time>
      </trkpt>
      <trkpt lat="33.160127336159348" lon="-5.065836785361171">
        <ele>1925.1800000000001</ele>
        <time>2019-03-11T09:57:50Z</time>
      </trkpt>
      <trkpt lat="33.159919045865536" lon="-5.065876934677362">
        <ele>1924.7</ele>
        <time>2019-03-11T09:57:52Z</time>
      </trkpt>
      <trkpt lat="33.159709665924311" lon="-5.065948264673352">
        <ele>1924.7</ele>
        <time>2019-03-11T09:57:53Z</time>
      </trkpt>
      <trkpt lat="33.157654255628586" lon="-5.066923834383488">
        <ele>1925.1800000000001</ele>
        <time>2019-03-11T09:57:54Z</time>
      </trkpt>
      <trkpt lat="33.155088555067778" lon="-5.068135103210807">
        <ele>1925.6600000000001</ele>
        <time>2019-03-11T09:57:55Z</time>
      </trkpt>
      <trkpt lat="33.154701730236411" lon="-5.068239457905293">
        <ele>1925.6600000000001</ele>
        <time>2019-03-11T09:57:56Z</time>
      </trkpt>
      <trkpt lat="33.154508275911212" lon="-5.068249851465225">
        <ele>1926.1400000000001</ele>
        <time>2019-03-11T09:57:57Z</time>
      </trkpt>
      <trkpt lat="33.154316917061806" lon="-5.068226214498282">
        <ele>1926.6199999999999</ele>
        <time>2019-03-11T09:58:00Z</time>
      </trkpt>
      <trkpt lat="33.154129330068827" lon="-5.0681665353477">
        <ele>1927.0999999999999</ele>
        <time>2019-03-11T09:58:01Z</time>
      </trkpt>
      <trkpt lat="33.153942162171006" lon="-5.068080117926002">
        <ele>1927.5799999999999</ele>
        <time>2019-03-11T09:58:02Z</time>
      </trkpt>
      <trkpt lat="33.153754910454154" lon="-5.067977858707309">
        <ele>1927.5799999999999</ele>
        <time>2019-03-11T09:58:03Z</time>
      </trkpt>
      <trkpt lat="33.153213942423463" lon="-5.067601762712002">
        <ele>1928.54</ele>
        <time>2019-03-11T09:58:04Z</time>
      </trkpt>
      <trkpt lat="33.153049489483237" lon="-5.067436471581459">
        <ele>1928.0599999999999</ele>
        <time>2019-03-11T09:58:05Z</time>
      </trkpt>
      <trkpt lat="33.152896268293262" lon="-5.067245028913021">
        <ele>1928.0599999999999</ele>
        <time>2019-03-11T09:58:06Z</time>
      </trkpt>
      <trkpt lat="33.152762241661549" lon="-5.067030619829893">
        <ele>1927.5799999999999</ele>
        <time>2019-03-11T09:58:07Z</time>
      </trkpt>
      <trkpt lat="33.15265042707324" lon="-5.066801626235247">
        <ele>1928.0599999999999</ele>
        <time>2019-03-11T09:58:08Z</time>
      </trkpt>
      <trkpt lat="33.152567446231842" lon="-5.06656089797616">
        <ele>1922.77</ele>
        <time>2019-03-11T09:58:17Z</time>
      </trkpt>
      <trkpt lat="33.152519585564733" lon="-5.066308937966824">
        <ele>1925.6600000000001</ele>
        <time>2019-03-11T09:58:19Z</time>
      </trkpt>
      <trkpt lat="33.152491757646203" lon="-5.066045662388206">
        <ele>1926.6199999999999</ele>
        <time>2019-03-11T09:58:20Z</time>
      </trkpt>
      <trkpt lat="33.152470970526338" lon="-5.065775429829955">
        <ele>1927.5799999999999</ele>
        <time>2019-03-11T09:58:21Z</time>
      </trkpt>
      <trkpt lat="33.152064867317677" lon="-5.06331886164844">
        <ele>1928.54</ele>
        <time>2019-03-11T09:58:29Z</time>
      </trkpt>
      <trkpt lat="33.151886165142059" lon="-5.062816282734275">
        <ele>1929.5</ele>
        <time>2019-03-11T09:58:36Z</time>
      </trkpt>
      <trkpt lat="33.151765046641231" lon="-5.062584774568677">
        <ele>1930.46</ele>
        <time>2019-03-11T09:58:44Z</time>
      </trkpt>
      <trkpt lat="33.151626074686646" lon="-5.062365671619773">
        <ele>1930.46</ele>
        <time>2019-03-11T09:58:45Z</time>
      </trkpt>
      <trkpt lat="33.150581857189536" lon="-5.060431128367782">
        <ele>1930.95</ele>
        <time>2019-03-11T09:58:46Z</time>
      </trkpt>
      <trkpt lat="33.150052707642317" lon="-5.058617703616619">
        <ele>1930.95</ele>
        <time>2019-03-11T09:58:47Z</time>
      </trkpt>
      <trkpt lat="33.149773590266705" lon="-5.056643849238753">
        <ele>1930.95</ele>
        <time>2019-03-11T09:58:48Z</time>
      </trkpt>
      <trkpt lat="33.149695890024304" lon="-5.056428434327245">
        <ele>1930.95</ele>
        <time>2019-03-11T09:58:49Z</time>
      </trkpt>
      <trkpt lat="33.149595474824309" lon="-5.056225089356303">
        <ele>1932.3900000000001</ele>
        <time>2019-03-11T09:58:50Z</time>
      </trkpt>
      <trkpt lat="33.149473601952195" lon="-5.05603632889688">
        <ele>1933.8299999999999</ele>
        <time>2019-03-11T09:58:51Z</time>
      </trkpt>
      <trkpt lat="33.149329936131835" lon="-5.055858884006739">
        <ele>1933.8299999999999</ele>
        <time>2019-03-11T09:58:52Z</time>
      </trkpt>
      <trkpt lat="33.149165650829673" lon="-5.055694347247481">
        <ele>1934.3099999999999</ele>
        <time>2019-03-11T09:58:53Z</time>
      </trkpt>
      <trkpt lat="33.148983679711819" lon="-5.055547496303916">
        <ele>1933.8299999999999</ele>
        <time>2019-03-11T09:58:54Z</time>
      </trkpt>
      <trkpt lat="33.148782178759575" lon="-5.055420426651835">
        <ele>1933.8299999999999</ele>
        <time>2019-03-11T09:59:05Z</time>
      </trkpt>
      <trkpt lat="33.148567350581288" lon="-5.05532001145184">
        <ele>1934.3099999999999</ele>
        <time>2019-03-11T09:59:10Z</time>
      </trkpt>
      <trkpt lat="33.148339446634054" lon="-5.055243903771043">
        <ele>1935.27</ele>
        <time>2019-03-11T09:59:11Z</time>
      </trkpt>
      <trkpt lat="33.148104585707188" lon="-5.055177686735988">
        <ele>1936.23</ele>
        <time>2019-03-11T09:59:12Z</time>
      </trkpt>
      <trkpt lat="33.14529656432569" lon="-5.054297670722008">
        <ele>1936.71</ele>
        <time>2019-03-11T09:59:13Z</time>
      </trkpt>
      <trkpt lat="33.144108848646283" lon="-5.053882095962763">
        <ele>1940.0799999999999</ele>
        <time>2019-03-11T09:59:14Z</time>
      </trkpt>
      <trkpt lat="33.143899384886026" lon="-5.053752679377794">
        <ele>1942.48</ele>
        <time>2019-03-11T09:59:24Z</time>
      </trkpt>
      <trkpt lat="33.143700649961829" lon="-5.053590908646584">
        <ele>1942</ele>
        <time>2019-03-11T09:59:39Z</time>
      </trkpt>
      <trkpt lat="33.143516751006246" lon="-5.053399801254273">
        <ele>1942</ele>
        <time>2019-03-11T09:59:50Z</time>
      </trkpt>
      <trkpt lat="33.143342155963182" lon="-5.053192684426904">
        <ele>1942</ele>
        <time>2019-03-11T09:59:59Z</time>
      </trkpt>
      <trkpt lat="33.141767447814345" lon="-5.051307762041688">
        <ele>1942</ele>
        <time>2019-03-11T10:00:15Z</time>
      </trkpt>
      <trkpt lat="33.139555882662535" lon="-5.04867659881711">
        <ele>1942.48</ele>
        <time>2019-03-11T10:00:27Z</time>
      </trkpt>
      <trkpt lat="33.137922920286655" lon="-5.04653250798583">
        <ele>1942.48</ele>
        <time>2019-03-11T10:00:33Z</time>
      </trkpt>
      <trkpt lat="33.136511072516441" lon="-5.044131595641375">
        <ele>1942.96</ele>
        <time>2019-03-11T10:00:34Z</time>
      </trkpt>
      <trkpt lat="33.133893655613065" lon="-5.039605787023902">
        <ele>1943.4400000000001</ele>
        <time>2019-03-11T10:00:35Z</time>
      </trkpt>
      <trkpt lat="33.132000686600804" lon="-5.036480259150267">
        <ele>1944.8800000000001</ele>
        <time>2019-03-11T10:00:36Z</time>
      </trkpt>
      <trkpt lat="33.130993852391839" lon="-5.035222386941314">
        <ele>1944.8800000000001</ele>
        <time>2019-03-11T10:00:37Z</time>
      </trkpt>
      <trkpt lat="33.130811378359795" lon="-5.0350780505687">
        <ele>1945.3599999999999</ele>
        <time>2019-03-11T10:00:38Z</time>
      </trkpt>
      <trkpt lat="33.130610045045614" lon="-5.034961458295584">
        <ele>1945.3599999999999</ele>
        <time>2019-03-11T10:00:39Z</time>
      </trkpt>
      <trkpt lat="33.130396725609899" lon="-5.034882668405771">
        <ele>1945.3599999999999</ele>
        <time>2019-03-11T10:00:40Z</time>
      </trkpt>
      <trkpt lat="33.130178712308407" lon="-5.034846374765039">
        <ele>1952.0899999999999</ele>
        <time>2019-03-11T10:00:42Z</time>
      </trkpt>
      <trkpt lat="33.129956843331456" lon="-5.034842854365706">
        <ele>1956.4200000000001</ele>
        <time>2019-03-11T10:00:43Z</time>
      </trkpt>
      <trkpt lat="33.12973371706903" lon="-5.034864312037826">
        <ele>1955.46</ele>
        <time>2019-03-11T10:00:44Z</time>
      </trkpt>
      <trkpt lat="33.129510674625635" lon="-5.034889373928309">
        <ele>1958.8199999999999</ele>
        <time>2019-03-11T10:00:45Z</time>
      </trkpt>
      <trkpt lat="33.129061488434672" lon="-5.034884177148342">
        <ele>1973.72</ele>
        <time>2019-03-11T10:00:46Z</time>
      </trkpt>
      <trkpt lat="33.128836350515485" lon="-5.034834640100598">
        <ele>1982.3800000000001</ele>
        <time>2019-03-11T10:00:57Z</time>
      </trkpt>
      <trkpt lat="33.128619091585279" lon="-5.034745959565043">
        <ele>1984.3</ele>
        <time>2019-03-11T10:01:11Z</time>
      </trkpt>
      <trkpt lat="33.128414824604988" lon="-5.034626768901944">
        <ele>1985.74</ele>
        <time>2019-03-11T10:01:21Z</time>
      </trkpt>
      <trkpt lat="33.128216844052076" lon="-5.034496681764722">
        <ele>1986.7</ele>
        <time>2019-03-11T10:01:27Z</time>
      </trkpt>
      <trkpt lat="33.12621122226119" lon="-5.033135376870632">
        <ele>1988.1400000000001</ele>
        <time>2019-03-11T10:01:38Z</time>
      </trkpt>
      <trkpt lat="33.123608557507396" lon="-5.031359419226646">
        <ele>1992.95</ele>
        <time>2019-03-11T10:01:44Z</time>
      </trkpt>
      <trkpt lat="33.121869144961238" lon="-5.030222330242395">
        <ele>1991.03</ele>
        <time>2019-03-11T10:01:45Z</time>
      </trkpt>
      <trkpt lat="33.120608171448112" lon="-5.02997238188982">
        <ele>1990.0699999999999</ele>
        <time>2019-03-11T10:01:46Z</time>
      </trkpt>
      <trkpt lat="33.118320163339376" lon="-5.03022107295692">
        <ele>1989.5899999999999</ele>
        <time>2019-03-11T10:01:47Z</time>
      </trkpt>
      <trkpt lat="33.117182990536094" lon="-5.030326182022691">
        <ele>1989.5899999999999</ele>
        <time>2019-03-11T10:01:48Z</time>
      </trkpt>
      <trkpt lat="33.116999007761478" lon="-5.030309250578284">
        <ele>1990.0699999999999</ele>
        <time>2019-03-11T10:01:58Z</time>
      </trkpt>
      <trkpt lat="33.116813600063324" lon="-5.030270358547568">
        <ele>1990.0699999999999</ele>
        <time>2019-03-11T10:02:04Z</time>
      </trkpt>
      <trkpt lat="33.116628946736455" lon="-5.03021327778697">
        <ele>1990.55</ele>
        <time>2019-03-11T10:02:07Z</time>
      </trkpt>
      <trkpt lat="33.116448316723108" lon="-5.030144629999995">
        <ele>1990.55</ele>
        <time>2019-03-11T10:02:08Z</time>
      </trkpt>
      <trkpt lat="33.114760117605329" lon="-5.029188254848123">
        <ele>1996.3199999999999</ele>
        <time>2019-03-11T10:02:09Z</time>
      </trkpt>
      <trkpt lat="33.113815560936928" lon="-5.028252582997084">
        <ele>1998.72</ele>
        <time>2019-03-11T10:02:10Z</time>
      </trkpt>
      <trkpt lat="33.11340375803411" lon="-5.027707759290934">
        <ele>1999.6800000000001</ele>
        <time>2019-03-11T10:02:11Z</time>
      </trkpt>
      <trkpt lat="33.113239724189043" lon="-5.027552610263228">
        <ele>2001.1199999999999</ele>
        <time>2019-03-11T10:02:12Z</time>
      </trkpt>
      <trkpt lat="33.113061441108584" lon="-5.027421182021499">
        <ele>2002.0799999999999</ele>
        <time>2019-03-11T10:02:13Z</time>
      </trkpt>
      <trkpt lat="33.112868908792734" lon="-5.027316072955728">
        <ele>2002.5599999999999</ele>
        <time>2019-03-11T10:02:26Z</time>
      </trkpt>
      <trkpt lat="33.112662965431809" lon="-5.027236863970757">
        <ele>2005.45</ele>
        <time>2019-03-11T10:02:29Z</time>
      </trkpt>
      <trkpt lat="33.112448556348681" lon="-5.027175340801477">
        <ele>2008.3299999999999</ele>
        <time>2019-03-11T10:02:30Z</time>
      </trkpt>
      <trkpt lat="33.11223104596138" lon="-5.027124378830195">
        <ele>2009.29</ele>
        <time>2019-03-11T10:02:31Z</time>
      </trkpt>
      <trkpt lat="33.109530312940478" lon="-5.026470087468624">
        <ele>2012.1800000000001</ele>
        <time>2019-03-11T10:02:32Z</time>
      </trkpt>
      <trkpt lat="33.108950033783913" lon="-5.02630228176713">
        <ele>2012.6600000000001</ele>
        <time>2019-03-11T10:02:33Z</time>
      </trkpt>
      <trkpt lat="33.108777115121484" lon="-5.026222402229905">
        <ele>2012.6600000000001</ele>
        <time>2019-03-11T10:02:44Z</time>
      </trkpt>
      <trkpt lat="33.108614003285766" lon="-5.026123998686671">
        <ele>2013.1400000000001</ele>
        <time>2019-03-11T10:02:48Z</time>
      </trkpt>
      <trkpt lat="33.108456423506141" lon="-5.026008579879999">
        <ele>2013.1400000000001</ele>
        <time>2019-03-11T10:02:49Z</time>
      </trkpt>
      <trkpt lat="33.108302615582943" lon="-5.025877403095365">
        <ele>2020.3499999999999</ele>
        <time>2019-03-11T10:02:54Z</time>
      </trkpt>
      <trkpt lat="33.106642495840788" lon="-5.024518445134163">
        <ele>2025.1500000000001</ele>
        <time>2019-03-11T10:02:55Z</time>
      </trkpt>
      <trkpt lat="33.105977391824126" lon="-5.024205045774579">
        <ele>2026.1199999999999</ele>
        <time>2019-03-11T10:02:56Z</time>
      </trkpt>
      <trkpt lat="33.105788212269545" lon="-5.024170428514481">
        <ele>2035.25</ele>
        <time>2019-03-11T10:02:57Z</time>
      </trkpt>
      <trkpt lat="33.104743910953403" lon="-5.024073449894786">
        <ele>2035.73</ele>
        <time>2019-03-11T10:02:58Z</time>
      </trkpt>
      <trkpt lat="33.104526316747069" lon="-5.024096416309476">
        <ele>2035.73</ele>
        <time>2019-03-11T10:03:06Z</time>
      </trkpt>
      <trkpt lat="33.104303693398833" lon="-5.024144109338522">
        <ele>2036.21</ele>
        <time>2019-03-11T10:03:10Z</time>
      </trkpt>
      <trkpt lat="33.104076962918043" lon="-5.024213260039687">
        <ele>2036.6900000000001</ele>
        <time>2019-03-11T10:03:11Z</time>
      </trkpt>
      <trkpt lat="33.103849226608872" lon="-5.024299258366227">
        <ele>2041.02</ele>
        <time>2019-03-11T10:03:22Z</time>
      </trkpt>
      <trkpt lat="33.102227160707116" lon="-5.024900743737817">
        <ele>2049.1900000000001</ele>
        <time>2019-03-11T10:03:23Z</time>
      </trkpt>
      <trkpt lat="33.101458624005318" lon="-5.024982467293739">
        <ele>2052.0700000000002</ele>
        <time>2019-03-11T10:03:30Z</time>
      </trkpt>
      <trkpt lat="33.101262822747231" lon="-5.024954974651337">
        <ele>2054.4699999999998</ele>
        <time>2019-03-11T10:03:31Z</time>
      </trkpt>
      <trkpt lat="33.099134908989072" lon="-5.024353237822652">
        <ele>2054.96</ele>
        <time>2019-03-11T10:03:32Z</time>
      </trkpt>
      <trkpt lat="33.098951764404774" lon="-5.024261539801955">
        <ele>2055.9200000000001</ele>
        <time>2019-03-11T10:03:40Z</time>
      </trkpt>
      <trkpt lat="33.097737897187471" lon="-5.023480346426368">
        <ele>2055.9200000000001</ele>
        <time>2019-03-11T10:03:55Z</time>
      </trkpt>
      <trkpt lat="33.097556931897998" lon="-5.023423936218023">
        <ele>2056.4000000000001</ele>
        <time>2019-03-11T10:04:01Z</time>
      </trkpt>
      <trkpt lat="33.097369680181146" lon="-5.023384876549244">
        <ele>2056.8800000000001</ele>
        <time>2019-03-11T10:04:06Z</time>
      </trkpt>
      <trkpt lat="33.095854232087731" lon="-5.022822199389339">
        <ele>2056.8800000000001</ele>
        <time>2019-03-11T10:04:07Z</time>
      </trkpt>
      <trkpt lat="33.092939676716924" lon="-5.02122494392097">
        <ele>2057.3600000000001</ele>
        <time>2019-03-11T10:04:11Z</time>
      </trkpt>
      <trkpt lat="33.091850448399782" lon="-5.020550871267915">
        <ele>2062.6500000000001</ele>
        <time>2019-03-11T10:04:12Z</time>
      </trkpt>
      <trkpt lat="33.091106554493308" lon="-5.01984897069633">
        <ele>2075.6199999999999</ele>
        <time>2019-03-11T10:04:13Z</time>
      </trkpt>
      <trkpt lat="33.090982502326369" lon="-5.019691977649927">
        <ele>2089.0799999999999</ele>
        <time>2019-03-11T10:04:14Z</time>
      </trkpt>
      <trkpt lat="33.090460645034909" lon="-5.019041793420911">
        <ele>2095.8099999999999</ele>
        <time>2019-03-11T10:04:15Z</time>
      </trkpt>
      <trkpt lat="33.090297365561128" lon="-5.01890785060823">
        <ele>2096.77</ele>
        <time>2019-03-11T10:04:16Z</time>
      </trkpt>
      <trkpt lat="33.090116064995527" lon="-5.018797209486365">
        <ele>2097.73</ele>
        <time>2019-03-11T10:04:26Z</time>
      </trkpt>
      <trkpt lat="33.089918587356806" lon="-5.018712636083365">
        <ele>2098.21</ele>
        <time>2019-03-11T10:04:38Z</time>
      </trkpt>
      <trkpt lat="33.089710297062993" lon="-5.018644072115421">
        <ele>2098.6999999999998</ele>
        <time>2019-03-11T10:04:50Z</time>
      </trkpt>
      <trkpt lat="33.089494379237294" lon="-5.018580788746476">
        <ele>2099.1799999999998</ele>
        <time>2019-03-11T10:04:57Z</time>
      </trkpt>
      <trkpt lat="33.087326651439071" lon="-5.018048286437988">
        <ele>2100.1399999999999</ele>
        <time>2019-03-11T10:04:58Z</time>
      </trkpt>
      <trkpt lat="33.084838734939694" lon="-5.017850641161203">
        <ele>2106.8699999999999</ele>
        <time>2019-03-11T10:04:59Z</time>
      </trkpt>
      <trkpt lat="33.082261802628636" lon="-5.017632711678743">
        <ele>2106.8699999999999</ele>
        <time>2019-03-11T10:05:00Z</time>
      </trkpt>
      <trkpt lat="33.080836292356253" lon="-5.017554173246026">
        <ele>2106.8699999999999</ele>
        <time>2019-03-11T10:05:01Z</time>
      </trkpt>
      <trkpt lat="33.080638647079468" lon="-5.017591305077076">
        <ele>2106.3899999999999</ele>
        <time>2019-03-11T10:05:02Z</time>
      </trkpt>
      <trkpt lat="33.080446450039744" lon="-5.017649307847023">
        <ele>2105.9099999999999</ele>
        <time>2019-03-11T10:05:03Z</time>
      </trkpt>
      <trkpt lat="33.080266322940588" lon="-5.017731115221977">
        <ele>2105.4200000000001</ele>
        <time>2019-03-11T10:05:13Z</time>
      </trkpt>
      <trkpt lat="33.08009541593492" lon="-5.017838487401605">
        <ele>2104.9400000000001</ele>
        <time>2019-03-11T10:05:14Z</time>
      </trkpt>
      <trkpt lat="33.07992878369987" lon="-5.017969496548176">
        <ele>2103.5</ele>
        <time>2019-03-11T10:05:15Z</time>
      </trkpt>
      <trkpt lat="33.079764917492867" lon="-5.018110144883394">
        <ele>2104.46</ele>
        <time>2019-03-11T10:05:16Z</time>
      </trkpt>
      <trkpt lat="33.078100942075253" lon="-5.019475556910038">
        <ele>2104.46</ele>
        <time>2019-03-11T10:05:17Z</time>
      </trkpt>
      <trkpt lat="33.077927771955729" lon="-5.019543953239918">
        <ele>2103.98</ele>
        <time>2019-03-11T10:05:22Z</time>
      </trkpt>
      <trkpt lat="33.077754518017173" lon="-5.019584521651268">
        <ele>2103.98</ele>
        <time>2019-03-11T10:05:23Z</time>
      </trkpt>
      <trkpt lat="33.077582605183125" lon="-5.019609164446592">
        <ele>2104.9400000000001</ele>
        <time>2019-03-11T10:05:34Z</time>
      </trkpt>
      <trkpt lat="33.077410524711013" lon="-5.019626179710031">
        <ele>2104.9400000000001</ele>
        <time>2019-03-11T10:05:48Z</time>
      </trkpt>
      <trkpt lat="33.076539561152458" lon="-5.019815694540739">
        <ele>2104.46</ele>
        <time>2019-03-11T10:05:56Z</time>
      </trkpt>
      <trkpt lat="33.076364463195205" lon="-5.019904961809516">
        <ele>2105.4200000000001</ele>
        <time>2019-03-11T10:05:57Z</time>
      </trkpt>
      <trkpt lat="33.074511727318168" lon="-5.021133832633495">
        <ele>2104.46</ele>
        <time>2019-03-11T10:05:58Z</time>
      </trkpt>
      <trkpt lat="33.072642479091883" lon="-5.023246994242072">
        <ele>2104.46</ele>
        <time>2019-03-11T10:06:03Z</time>
      </trkpt>
      <trkpt lat="33.071785513311625" lon="-5.024669319391251">
        <ele>2104.46</ele>
        <time>2019-03-11T10:06:04Z</time>
      </trkpt>
      <trkpt lat="33.071641009300947" lon="-5.024814577773213">
        <ele>2105.4200000000001</ele>
        <time>2019-03-11T10:06:15Z</time>
      </trkpt>
      <trkpt lat="33.071485524997115" lon="-5.024949442595244">
        <ele>2104.9400000000001</ele>
        <time>2019-03-11T10:06:26Z</time>
      </trkpt>
      <trkpt lat="33.070702152326703" lon="-5.025577582418919">
        <ele>2105.9099999999999</ele>
        <time>2019-03-11T10:06:31Z</time>
      </trkpt>
      <trkpt lat="33.070568796247244" lon="-5.025737509131432">
        <ele>2107.3499999999999</ele>
        <time>2019-03-11T10:06:32Z</time>
      </trkpt>
      <trkpt lat="33.068990902975202" lon="-5.027742041274905">
        <ele>2107.3499999999999</ele>
        <time>2019-03-11T10:06:33Z</time>
      </trkpt>
      <trkpt lat="33.067451482638717" lon="-5.029462929815054">
        <ele>2107.8299999999999</ele>
        <time>2019-03-11T10:06:40Z</time>
      </trkpt>
      <trkpt lat="33.066631983965635" lon="-5.03008327446878">
        <ele>2109.75</ele>
        <time>2019-03-11T10:06:41Z</time>
      </trkpt>
      <trkpt lat="33.066497286781669" lon="-5.030241273343563">
        <ele>2109.75</ele>
        <time>2019-03-11T10:06:53Z</time>
      </trkpt>
      <trkpt lat="33.066375833004713" lon="-5.030415449291468">
        <ele>2110.23</ele>
        <time>2019-03-11T10:07:03Z</time>
      </trkpt>
      <trkpt lat="33.065538983792067" lon="-5.031709782779217">
        <ele>2110.23</ele>
        <time>2019-03-11T10:07:04Z</time>
      </trkpt>
      <trkpt lat="33.065380733460188" lon="-5.031860992312431">
        <ele>2110.23</ele>
        <time>2019-03-11T10:07:05Z</time>
      </trkpt>
      <trkpt lat="33.063267571851611" lon="-5.033411309123039">
        <ele>2113.5999999999999</ele>
        <time>2019-03-11T10:07:13Z</time>
      </trkpt>
      <trkpt lat="33.061468899250031" lon="-5.034575806930661">
        <ele>2111.1900000000001</ele>
        <time>2019-03-11T10:07:14Z</time>
      </trkpt>
      <trkpt lat="33.061336046084762" lon="-5.034741517156363">
        <ele>2108.3099999999999</ele>
        <time>2019-03-11T10:07:15Z</time>
      </trkpt>
      <trkpt lat="33.061218531802297" lon="-5.034933295100927">
        <ele>2115.04</ele>
        <time>2019-03-11T10:07:16Z</time>
      </trkpt>
      <trkpt lat="33.060350585728884" lon="-5.036524347960949">
        <ele>2125.1300000000001</ele>
        <time>2019-03-11T10:07:17Z</time>
      </trkpt>
      <trkpt lat="33.060191161930561" lon="-5.036685615777969">
        <ele>2142.9200000000001</ele>
        <time>2019-03-11T10:07:26Z</time>
      </trkpt>
      <trkpt lat="33.060011453926563" lon="-5.036824671551585">
        <ele>2146.2800000000002</ele>
        <time>2019-03-11T10:07:37Z</time>
      </trkpt>
      <trkpt lat="33.059818670153618" lon="-5.036947801709175">
        <ele>2148.1999999999998</ele>
        <time>2019-03-11T10:07:47Z</time>
      </trkpt>
      <trkpt lat="33.059615073725581" lon="-5.037059532478452">
        <ele>2149.1599999999999</ele>
        <time>2019-03-11T10:07:58Z</time>
      </trkpt>
      <trkpt lat="33.057679859921336" lon="-5.038315812125802">
        <ele>2150.6100000000001</ele>
        <time>2019-03-11T10:08:07Z</time>
      </trkpt>
      <trkpt lat="33.055412722751498" lon="-5.040065702050924">
        <ele>2151.0900000000001</ele>
        <time>2019-03-11T10:08:16Z</time>
      </trkpt>
      <trkpt lat="33.052995381876826" lon="-5.04193059168756">
        <ele>2151.5700000000002</ele>
        <time>2019-03-11T10:08:18Z</time>
      </trkpt>
      <trkpt lat="33.050405541434884" lon="-5.043935207650065">
        <ele>2152.0500000000002</ele>
        <time>2019-03-11T10:08:19Z</time>
      </trkpt>
      <trkpt lat="33.048424897715449" lon="-5.04580688662827">
        <ele>2152.5300000000002</ele>
        <time>2019-03-11T10:08:20Z</time>
      </trkpt>
      <trkpt lat="33.046727310866117" lon="-5.047708321362734">
        <ele>2150.1300000000001</ele>
        <time>2019-03-11T10:08:21Z</time>
      </trkpt>
      <trkpt lat="33.046494461596012" lon="-5.04815423861146">
        <ele>2154.9299999999998</ele>
        <time>2019-03-11T10:08:22Z</time>
      </trkpt>
      <trkpt lat="33.046405781060457" lon="-5.04839027300477">
        <ele>2151.5700000000002</ele>
        <time>2019-03-11T10:08:23Z</time>
      </trkpt>
      <trkpt lat="33.046326991170645" lon="-5.048638544976711">
        <ele>2151.0900000000001</ele>
        <time>2019-03-11T10:08:26Z</time>
      </trkpt>
      <trkpt lat="33.046260019764304" lon="-5.048898551613092">
        <ele>2150.6100000000001</ele>
        <time>2019-03-11T10:08:27Z</time>
      </trkpt>
      <trkpt lat="33.046205453574657" lon="-5.049166772514582">
        <ele>2150.6100000000001</ele>
        <time>2019-03-11T10:08:35Z</time>
      </trkpt>
      <trkpt lat="33.046158347278833" lon="-5.049437256529927">
        <ele>2150.1300000000001</ele>
        <time>2019-03-11T10:08:48Z</time>
      </trkpt>
      <trkpt lat="33.045969251543283" lon="-5.050209229812026">
        <ele>2149.6500000000001</ele>
        <time>2019-03-11T10:09:00Z</time>
      </trkpt>
      <trkpt lat="33.045857353135943" lon="-5.050441073253751">
        <ele>2152.5300000000002</ele>
        <time>2019-03-11T10:09:01Z</time>
      </trkpt>
      <trkpt lat="33.044645832851529" lon="-5.052339322865009">
        <ele>2153.4899999999998</ele>
        <time>2019-03-11T10:09:02Z</time>
      </trkpt>
      <trkpt lat="33.042653370648623" lon="-5.055537270382047">
        <ele>2158.7800000000002</ele>
        <time>2019-03-11T10:09:03Z</time>
      </trkpt>
      <trkpt lat="33.040853356942534" lon="-5.058804536238313">
        <ele>2159.7399999999998</ele>
        <time>2019-03-11T10:09:04Z</time>
      </trkpt>
      <trkpt lat="33.040689155459404" lon="-5.059003187343478">
        <ele>2160.2199999999998</ele>
        <time>2019-03-11T10:09:05Z</time>
      </trkpt>
      <trkpt lat="33.040507435798645" lon="-5.059185745194554">
        <ele>2159.7399999999998</ele>
        <time>2019-03-11T10:09:16Z</time>
      </trkpt>
      <trkpt lat="33.040305264294147" lon="-5.059353299438953">
        <ele>2156.3699999999999</ele>
        <time>2019-03-11T10:09:27Z</time>
      </trkpt>
      <trkpt lat="33.04008599370718" lon="-5.059506101533771">
        <ele>2152.5300000000002</ele>
        <time>2019-03-11T10:09:34Z</time>
      </trkpt>
      <trkpt lat="33.039855491369963" lon="-5.059646414592862">
        <ele>2149.6500000000001</ele>
        <time>2019-03-11T10:09:36Z</time>
      </trkpt>
      <trkpt lat="33.037162804976106" lon="-5.061295554041863">
        <ele>2149.6500000000001</ele>
        <time>2019-03-11T10:09:37Z</time>
      </trkpt>
      <trkpt lat="33.034659801051021" lon="-5.063655730336905">
        <ele>2149.6500000000001</ele>
        <time>2019-03-11T10:09:38Z</time>
      </trkpt>
      <trkpt lat="33.033284163102508" lon="-5.064955595880747">
        <ele>2150.6100000000001</ele>
        <time>2019-03-11T10:09:45Z</time>
      </trkpt>
      <trkpt lat="33.033006051555276" lon="-5.065274946391583">
        <ele>2151.5700000000002</ele>
        <time>2019-03-11T10:09:53Z</time>
      </trkpt>
      <trkpt lat="33.032901277765632" lon="-5.065461024641991">
        <ele>2152.5300000000002</ele>
        <time>2019-03-11T10:10:03Z</time>
      </trkpt>
      <trkpt lat="33.032819051295519" lon="-5.065670153126121">
        <ele>2153.9699999999998</ele>
        <time>2019-03-11T10:10:04Z</time>
      </trkpt>
      <trkpt lat="33.032161155715585" lon="-5.067425156012178">
        <ele>2158.3000000000002</ele>
        <time>2019-03-11T10:10:05Z</time>
      </trkpt>
      <trkpt lat="33.030940750613809" lon="-5.069400183856487">
        <ele>2159.2600000000002</ele>
        <time>2019-03-11T10:10:06Z</time>
      </trkpt>
      <trkpt lat="33.029121290892363" lon="-5.071437992155552">
        <ele>2160.2199999999998</ele>
        <time>2019-03-11T10:10:07Z</time>
      </trkpt>
      <trkpt lat="33.028944851830602" lon="-5.071583753451705">
        <ele>2165.0300000000002</ele>
        <time>2019-03-11T10:10:08Z</time>
      </trkpt>
      <trkpt lat="33.028763635084033" lon="-5.071696406230331">
        <ele>2166.4699999999998</ele>
        <time>2019-03-11T10:10:09Z</time>
      </trkpt>
      <trkpt lat="33.028574706986547" lon="-5.071777375414968">
        <ele>2182.8099999999999</ele>
        <time>2019-03-11T10:10:13Z</time>
      </trkpt>
      <trkpt lat="33.028377732262015" lon="-5.071823392063379">
        <ele>2197.23</ele>
        <time>2019-03-11T10:10:14Z</time>
      </trkpt>
      <trkpt lat="33.028175141662359" lon="-5.071836048737168">
        <ele>2199.1500000000001</ele>
        <time>2019-03-11T10:10:15Z</time>
      </trkpt>
      <trkpt lat="33.027972299605608" lon="-5.071827750653029">
        <ele>2199.6300000000001</ele>
        <time>2019-03-11T10:10:20Z</time>
      </trkpt>
      <trkpt lat="33.027220945805311" lon="-5.071829091757536">
        <ele>2199.6300000000001</ele>
        <time>2019-03-11T10:10:21Z</time>
      </trkpt>
      <trkpt lat="33.027042159810662" lon="-5.071877874433994">
        <ele>2199.6300000000001</ele>
        <time>2019-03-11T10:10:30Z</time>
      </trkpt>
      <trkpt lat="33.026860943064094" lon="-5.071950629353523">
        <ele>2199.1500000000001</ele>
        <time>2019-03-11T10:10:39Z</time>
      </trkpt>
      <trkpt lat="33.0259177275002" lon="-5.07238045334816">
        <ele>2199.1500000000001</ele>
        <time>2019-03-11T10:10:44Z</time>
      </trkpt>
      <trkpt lat="33.025708263739944" lon="-5.072427140548825">
        <ele>2198.6700000000001</ele>
        <time>2019-03-11T10:10:45Z</time>
      </trkpt>
      <trkpt lat="33.023713706061244" lon="-5.072534009814262">
        <ele>2198.6700000000001</ele>
        <time>2019-03-11T10:10:46Z</time>
      </trkpt>
      <trkpt lat="33.021718645468354" lon="-5.072532165795565">
        <ele>2196.75</ele>
        <time>2019-03-11T10:10:49Z</time>
      </trkpt>
      <trkpt lat="33.020689850673079" lon="-5.072665521875024">
        <ele>2195.79</ele>
        <time>2019-03-11T10:10:50Z</time>
      </trkpt>
      <trkpt lat="33.020495977252722" lon="-5.072744647040963">
        <ele>2195.3099999999999</ele>
        <time>2019-03-11T10:10:51Z</time>
      </trkpt>
      <trkpt lat="33.020311323925853" lon="-5.072844140231609">
        <ele>2193.8699999999999</ele>
        <time>2019-03-11T10:10:52Z</time>
      </trkpt>
      <trkpt lat="33.019792987033725" lon="-5.073140440508723">
        <ele>2192.9000000000001</ele>
        <time>2019-03-11T10:10:53Z</time>
      </trkpt>
      <trkpt lat="33.019614033401012" lon="-5.073199281468988">
        <ele>2192.4200000000001</ele>
        <time>2019-03-11T10:10:56Z</time>
      </trkpt>
      <trkpt lat="33.019423596560955" lon="-5.07322384044528">
        <ele>2183.77</ele>
        <time>2019-03-11T10:10:57Z</time>
      </trkpt>
      <trkpt lat="33.019225532189012" lon="-5.073214117437601">
        <ele>2183.77</ele>
        <time>2019-03-11T10:10:58Z</time>
      </trkpt>
      <trkpt lat="33.019025456160307" lon="-5.07318377494812">
        <ele>2183.77</ele>
        <time>2019-03-11T10:11:00Z</time>
      </trkpt>
      <trkpt lat="33.018465209752321" lon="-5.073065171018243">
        <ele>2184.25</ele>
        <time>2019-03-11T10:11:01Z</time>
      </trkpt>
      <trkpt lat="33.018304025754333" lon="-5.072978418320417">
        <ele>2184.25</ele>
        <time>2019-03-11T10:11:02Z</time>
      </trkpt>
      <trkpt lat="33.018147200345993" lon="-5.07286174222827">
        <ele>2185.21</ele>
        <time>2019-03-11T10:11:14Z</time>
      </trkpt>
      <trkpt lat="33.01781821064651" lon="-5.07260475307703">
        <ele>2186.1799999999998</ele>
        <time>2019-03-11T10:11:15Z</time>
      </trkpt>
      <trkpt lat="33.017633222043514" lon="-5.072503164410591">
        <ele>2181.3699999999999</ele>
        <time>2019-03-11T10:11:16Z</time>
      </trkpt>
      <trkpt lat="33.017430463805795" lon="-5.072431582957506">
        <ele>2171.27</ele>
        <time>2019-03-11T10:11:17Z</time>
      </trkpt>
      <trkpt lat="33.014859901741147" lon="-5.071880221366882">
        <ele>2164.5500000000002</ele>
        <time>2019-03-11T10:11:23Z</time>
      </trkpt>
      <trkpt lat="33.014646917581558" lon="-5.071883155032992">
        <ele>2161.1799999999998</ele>
        <time>2019-03-11T10:11:34Z</time>
      </trkpt>
      <trkpt lat="33.014444326981902" lon="-5.071917604655027">
        <ele>2157.8200000000002</ele>
        <time>2019-03-11T10:11:43Z</time>
      </trkpt>
      <trkpt lat="33.014256823807955" lon="-5.071977619081736">
        <ele>2157.3400000000001</ele>
        <time>2019-03-11T10:11:52Z</time>
      </trkpt>
      <trkpt lat="33.013357445597649" lon="-5.072213402017951">
        <ele>2156.8600000000001</ele>
        <time>2019-03-11T10:12:04Z</time>
      </trkpt>
      <trkpt lat="33.012039978057146" lon="-5.07219378836453">
        <ele>2156.8600000000001</ele>
        <time>2019-03-11T10:12:13Z</time>
      </trkpt>
      <trkpt lat="33.010580185800791" lon="-5.072095971554518">
        <ele>2156.8600000000001</ele>
        <time>2019-03-11T10:12:20Z</time>
      </trkpt>
      <trkpt lat="33.008677074685693" lon="-5.072367461398244">
        <ele>2156.3699999999999</ele>
        <time>2019-03-11T10:12:28Z</time>
      </trkpt>
      <trkpt lat="33.00625185482204" lon="-5.072892922908068">
        <ele>2155.8899999999999</ele>
        <time>2019-03-11T10:12:33Z</time>
      </trkpt>
      <trkpt lat="33.004489224404097" lon="-5.072903819382191">
        <ele>2155.4099999999999</ele>
        <time>2019-03-11T10:12:34Z</time>
      </trkpt>
      <trkpt lat="33.003215007483959" lon="-5.073183104395866">
        <ele>2154.4499999999998</ele>
        <time>2019-03-11T10:12:35Z</time>
      </trkpt>
      <trkpt lat="33.001749012619257" lon="-5.07370563223958">
        <ele>2153.9699999999998</ele>
        <time>2019-03-11T10:12:36Z</time>
      </trkpt>
      <trkpt lat="33.000936890020967" lon="-5.073858182877302">
        <ele>2153.4899999999998</ele>
        <time>2019-03-11T10:12:37Z</time>
      </trkpt>
      <trkpt lat="33.000805294141173" lon="-5.073920460417867">
        <ele>2153.0100000000002</ele>
        <time>2019-03-11T10:12:39Z</time>
      </trkpt>
      <trkpt lat="33.000678895041347" lon="-5.074008805677295">
        <ele>2153.0100000000002</ele>
        <time>2019-03-11T10:12:40Z</time>
      </trkpt>
      <trkpt lat="33.00055786035955" lon="-5.074118440970779">
        <ele>2152.5300000000002</ele>
        <time>2019-03-11T10:12:41Z</time>
      </trkpt>
      <trkpt lat="33.000441519543529" lon="-5.074240313842893">
        <ele>2152.5300000000002</ele>
        <time>2019-03-11T10:12:42Z</time>
      </trkpt>
      <trkpt lat="33.000208837911487" lon="-5.07447081618011">
        <ele>2152.0500000000002</ele>
        <time>2019-03-11T10:12:43Z</time>
      </trkpt>
      <trkpt lat="33.000088557600975" lon="-5.074549941346049">
        <ele>2151.5700000000002</ele>
        <time>2019-03-11T10:12:44Z</time>
      </trkpt>
      <trkpt lat="32.999965595081449" lon="-5.074598807841539">
        <ele>2151.0900000000001</ele>
        <time>2019-03-11T10:12:45Z</time>
      </trkpt>
      <trkpt lat="32.999835172668099" lon="-5.074614230543375">
        <ele>2151.0900000000001</ele>
        <time>2019-03-11T10:12:46Z</time>
      </trkpt>
      <trkpt lat="32.999701565131545" lon="-5.074589336290956">
        <ele>2150.6100000000001</ele>
        <time>2019-03-11T10:12:47Z</time>
      </trkpt>
      <trkpt lat="32.99956887960434" lon="-5.074525130912662">
        <ele>2150.1300000000001</ele>
        <time>2019-03-11T10:12:48Z</time>
      </trkpt>
      <trkpt lat="32.999446922913194" lon="-5.074429325759411">
        <ele>2150.1300000000001</ele>
        <time>2019-03-11T10:12:49Z</time>
      </trkpt>
      <trkpt lat="32.999342316761613" lon="-5.074305105954409">
        <ele>2150.1300000000001</ele>
        <time>2019-03-11T10:12:50Z</time>
      </trkpt>
      <trkpt lat="32.999255396425724" lon="-5.074162110686302">
        <ele>2144.8400000000001</ele>
        <time>2019-03-11T10:12:51Z</time>
      </trkpt>
      <trkpt lat="32.999185239896178" lon="-5.0740119908005">
        <ele>2143.4000000000001</ele>
        <time>2019-03-11T10:12:52Z</time>
      </trkpt>
      <trkpt lat="32.999114999547601" lon="-5.07387226447463">
        <ele>2141.9499999999998</ele>
        <time>2019-03-11T10:12:53Z</time>
      </trkpt>
      <trkpt lat="32.999035622924566" lon="-5.073758522048593">
        <ele>2140.0300000000002</ele>
        <time>2019-03-11T10:12:54Z</time>
      </trkpt>
      <trkpt lat="32.998940153047442" lon="-5.073680989444256">
        <ele>2139.0700000000002</ele>
        <time>2019-03-11T10:12:55Z</time>
      </trkpt>
      <trkpt lat="32.998826913535595" lon="-5.073635475710034">
        <ele>2138.5900000000001</ele>
        <time>2019-03-11T10:13:01Z</time>
      </trkpt>
      <trkpt lat="32.998702190816402" lon="-5.073615023866296">
        <ele>2137.6300000000001</ele>
        <time>2019-03-11T10:13:02Z</time>
      </trkpt>
      <trkpt lat="32.998568834736943" lon="-5.073610581457615">
        <ele>2136.6700000000001</ele>
        <time>2019-03-11T10:13:03Z</time>
      </trkpt>
      <trkpt lat="32.99842793494463" lon="-5.073611168190837">
        <ele>2134.7399999999998</ele>
        <time>2019-03-11T10:13:05Z</time>
      </trkpt>
      <trkpt lat="32.997429734095931" lon="-5.073584849014878">
        <ele>2133.7800000000002</ele>
        <time>2019-03-11T10:13:06Z</time>
      </trkpt>
      <trkpt lat="32.997266622260213" lon="-5.073532545939088">
        <ele>2132.8200000000002</ele>
        <time>2019-03-11T10:13:07Z</time>
      </trkpt>
      <trkpt lat="32.997107030823827" lon="-5.073442189022899">
        <ele>2131.8600000000001</ele>
        <time>2019-03-11T10:13:08Z</time>
      </trkpt>
      <trkpt lat="32.996791703626513" lon="-5.073235407471657">
        <ele>2131.3800000000001</ele>
        <time>2019-03-11T10:13:09Z</time>
      </trkpt>
      <trkpt lat="32.996619790792465" lon="-5.073169358074665">
        <ele>2130.9000000000001</ele>
        <time>2019-03-11T10:13:11Z</time>
      </trkpt>
      <trkpt lat="32.996436897665262" lon="-5.073138512670994">
        <ele>2130.4200000000001</ele>
        <time>2019-03-11T10:13:12Z</time>
      </trkpt>
      <trkpt lat="32.996247969567776" lon="-5.073127783834934">
        <ele>2128.5</ele>
        <time>2019-03-11T10:13:13Z</time>
      </trkpt>
      <trkpt lat="32.99605711363256" lon="-5.073128454387188">
        <ele>2128.02</ele>
        <time>2019-03-11T10:13:14Z</time>
      </trkpt>
      <trkpt lat="32.995676659047604" lon="-5.073110517114401">
        <ele>2127.5300000000002</ele>
        <time>2019-03-11T10:13:15Z</time>
      </trkpt>
      <trkpt lat="32.995501644909382" lon="-5.07305963896215">
        <ele>2126.5700000000002</ele>
        <time>2019-03-11T10:13:16Z</time>
      </trkpt>
      <trkpt lat="32.995342556387186" lon="-5.072972467169166">
        <ele>2125.6100000000001</ele>
        <time>2019-03-11T10:13:17Z</time>
      </trkpt>
      <trkpt lat="32.995205344632268" lon="-5.072852270677686">
        <ele>2124.1700000000001</ele>
        <time>2019-03-11T10:13:20Z</time>
      </trkpt>
      <trkpt lat="32.995093362405896" lon="-5.072706174105406">
        <ele>2124.1700000000001</ele>
        <time>2019-03-11T10:13:21Z</time>
      </trkpt>
      <trkpt lat="32.995002334937453" lon="-5.072537697851658">
        <ele>2123.6900000000001</ele>
        <time>2019-03-11T10:13:22Z</time>
      </trkpt>
      <trkpt lat="32.994923545047641" lon="-5.072354720905423">
        <ele>2123.21</ele>
        <time>2019-03-11T10:13:23Z</time>
      </trkpt>
      <trkpt lat="32.994684157893062" lon="-5.071786260232329">
        <ele>2122.73</ele>
        <time>2019-03-11T10:13:24Z</time>
      </trkpt>
      <trkpt lat="32.994581395760179" lon="-5.071618538349867">
        <ele>2121.29</ele>
        <time>2019-03-11T10:13:27Z</time>
      </trkpt>
      <trkpt lat="32.994463378563523" lon="-5.071459533646703">
        <ele>2120.8099999999999</ele>
        <time>2019-03-11T10:13:28Z</time>
      </trkpt>
      <trkpt lat="32.994335303083062" lon="-5.071305222809315">
        <ele>2120.8099999999999</ele>
        <time>2019-03-11T10:13:29Z</time>
      </trkpt>
      <trkpt lat="32.994196163490415" lon="-5.071154683828354">
        <ele>2115.52</ele>
        <time>2019-03-11T10:13:30Z</time>
      </trkpt>
      <trkpt lat="32.993752509355545" lon="-5.070745060220361">
        <ele>2104.46</ele>
        <time>2019-03-11T10:13:31Z</time>
      </trkpt>
      <trkpt lat="32.993582021445036" lon="-5.07064338773489">
        <ele>2103.98</ele>
        <time>2019-03-11T10:13:34Z</time>
      </trkpt>
      <trkpt lat="32.993396278470755" lon="-5.070561831817031">
        <ele>2103.02</ele>
        <time>2019-03-11T10:13:35Z</time>
      </trkpt>
      <trkpt lat="32.993201902136207" lon="-5.070495698601008">
        <ele>2102.0599999999999</ele>
        <time>2019-03-11T10:13:36Z</time>
      </trkpt>
      <trkpt lat="32.993005849421024" lon="-5.070437612012029">
        <ele>2100.1399999999999</ele>
        <time>2019-03-11T10:13:48Z</time>
      </trkpt>
      <trkpt lat="32.992428503930569" lon="-5.070294784381986">
        <ele>2097.73</ele>
        <time>2019-03-11T10:14:02Z</time>
      </trkpt>
      <trkpt lat="32.992234965786338" lon="-5.070286653935909">
        <ele>2096.29</ele>
        <time>2019-03-11T10:14:03Z</time>
      </trkpt>
      <trkpt lat="32.992038242518902" lon="-5.070306602865458">
        <ele>2094.3699999999999</ele>
        <time>2019-03-11T10:14:04Z</time>
      </trkpt>
      <trkpt lat="32.989857774227858" lon="-5.070761824026704">
        <ele>2091.9699999999998</ele>
        <time>2019-03-11T10:14:05Z</time>
      </trkpt>
      <trkpt lat="32.987506566569209" lon="-5.071239341050386">
        <ele>2085.7199999999998</ele>
        <time>2019-03-11T10:14:06Z</time>
      </trkpt>
      <trkpt lat="32.98737027682364" lon="-5.071243280544877">
        <ele>2084.2800000000002</ele>
        <time>2019-03-11T10:14:07Z</time>
      </trkpt>
      <trkpt lat="32.987241446971893" lon="-5.071220314130187">
        <ele>2076.5900000000001</ele>
        <time>2019-03-11T10:14:08Z</time>
      </trkpt>
      <trkpt lat="32.987121166661382" lon="-5.071168094873428">
        <ele>2075.6199999999999</ele>
        <time>2019-03-11T10:14:09Z</time>
      </trkpt>
      <trkpt lat="32.987011363729835" lon="-5.071088802069426">
        <ele>2074.6599999999999</ele>
        <time>2019-03-11T10:14:10Z</time>
      </trkpt>
      <trkpt lat="32.986908601596951" lon="-5.070991739630699">
        <ele>2071.7800000000002</ele>
        <time>2019-03-11T10:14:14Z</time>
      </trkpt>
      <trkpt lat="32.986813466995955" lon="-5.070876237004995">
        <ele>2070.8200000000002</ele>
        <time>2019-03-11T10:14:15Z</time>
      </trkpt>
      <trkpt lat="32.986728306859732" lon="-5.070734415203333">
        <ele>2069.8600000000001</ele>
        <time>2019-03-11T10:14:23Z</time>
      </trkpt>
      <trkpt lat="32.986649600788951" lon="-5.07057499140501">
        <ele>2068.4099999999999</ele>
        <time>2019-03-11T10:14:24Z</time>
      </trkpt>
      <trkpt lat="32.986333686858416" lon="-5.069923046976328">
        <ele>2067.4499999999998</ele>
        <time>2019-03-11T10:14:25Z</time>
      </trkpt>
      <trkpt lat="32.98622882924974" lon="-5.06976286880672">
        <ele>2066.9699999999998</ele>
        <time>2019-03-11T10:14:28Z</time>
      </trkpt>
      <trkpt lat="32.98529701307416" lon="-5.068402653560042">
        <ele>2066.4899999999998</ele>
        <time>2019-03-11T10:14:29Z</time>
      </trkpt>
      <trkpt lat="32.985148401930928" lon="-5.068274410441518">
        <ele>2066.0100000000002</ele>
        <time>2019-03-11T10:14:30Z</time>
      </trkpt>
      <trkpt lat="32.984980596229434" lon="-5.068171564489603">
        <ele>2065.0500000000002</ele>
        <time>2019-03-11T10:14:33Z</time>
      </trkpt>
      <trkpt lat="32.984448513016105" lon="-5.067886160686612">
        <ele>2064.5700000000002</ele>
        <time>2019-03-11T10:14:34Z</time>
      </trkpt>
      <trkpt lat="32.984289927408099" lon="-5.067764036357403">
        <ele>2063.6100000000001</ele>
        <time>2019-03-11T10:14:35Z</time>
      </trkpt>
      <trkpt lat="32.984148524701595" lon="-5.067623220384121">
        <ele>2062.6500000000001</ele>
        <time>2019-03-11T10:14:36Z</time>
      </trkpt>
      <trkpt lat="32.983796736225486" lon="-5.067245783284307">
        <ele>2060.7199999999998</ele>
        <time>2019-03-11T10:14:37Z</time>
      </trkpt>
      <trkpt lat="32.983683161437511" lon="-5.067186439409852">
        <ele>2059.7600000000002</ele>
        <time>2019-03-11T10:14:38Z</time>
      </trkpt>
      <trkpt lat="32.983558271080256" lon="-5.067164730280638">
        <ele>2059.2800000000002</ele>
        <time>2019-03-11T10:14:39Z</time>
      </trkpt>
      <trkpt lat="32.983426591381431" lon="-5.067171854898334">
        <ele>2058.3200000000002</ele>
        <time>2019-03-11T10:14:40Z</time>
      </trkpt>
      <trkpt lat="32.983291307464242" lon="-5.067187026143074">
        <ele>2057.3600000000001</ele>
        <time>2019-03-11T10:14:41Z</time>
      </trkpt>
      <trkpt lat="32.983154430985451" lon="-5.067184763029218">
        <ele>2054.4699999999998</ele>
        <time>2019-03-11T10:14:43Z</time>
      </trkpt>
      <trkpt lat="32.983009172603488" lon="-5.067158443853259">
        <ele>2053.9899999999998</ele>
        <time>2019-03-11T10:14:44Z</time>
      </trkpt>
      <trkpt lat="32.982856789603829" lon="-5.067105302587152">
        <ele>2053.0300000000002</ele>
        <time>2019-03-11T10:14:45Z</time>
      </trkpt>
      <trkpt lat="32.982698874548078" lon="-5.067034978419542">
        <ele>2052.5500000000002</ele>
        <time>2019-03-11T10:14:46Z</time>
      </trkpt>
      <trkpt lat="32.982398718595505" lon="-5.066878404468298">
        <ele>2051.5900000000001</ele>
        <time>2019-03-11T10:14:47Z</time>
      </trkpt>
      <trkpt lat="32.982275085523725" lon="-5.066778911277652">
        <ele>2051.1100000000001</ele>
        <time>2019-03-11T10:14:50Z</time>
      </trkpt>
      <trkpt lat="32.982170647010207" lon="-5.0666468963027">
        <ele>2050.1500000000001</ele>
        <time>2019-03-11T10:14:51Z</time>
      </trkpt>
      <trkpt lat="32.982079954817891" lon="-5.066486047580838">
        <ele>2044.8599999999999</ele>
        <time>2019-03-11T10:14:52Z</time>
      </trkpt>
      <trkpt lat="32.981992866843939" lon="-5.066306926310062">
        <ele>2043.9000000000001</ele>
        <time>2019-03-11T10:14:53Z</time>
      </trkpt>
      <trkpt lat="32.981700925156474" lon="-5.065832762047648">
        <ele>2043.4200000000001</ele>
        <time>2019-03-11T10:14:54Z</time>
      </trkpt>
      <trkpt lat="32.981596486642957" lon="-5.065728826448321">
        <ele>2041.98</ele>
        <time>2019-03-11T10:14:55Z</time>
      </trkpt>
      <trkpt lat="32.981481486931443" lon="-5.065657580271363">
        <ele>2041.5</ele>
        <time>2019-03-11T10:14:56Z</time>
      </trkpt>
      <trkpt lat="32.981348466128111" lon="-5.065623298287392">
        <ele>2034.77</ele>
        <time>2019-03-11T10:15:02Z</time>
      </trkpt>
      <trkpt lat="32.981200106441975" lon="-5.065620699897409">
        <ele>2034.29</ele>
        <time>2019-03-11T10:15:03Z</time>
      </trkpt>
      <trkpt lat="32.981040347367525" lon="-5.065644253045321">
        <ele>2033.8099999999999</ele>
        <time>2019-03-11T10:15:04Z</time>
      </trkpt>
      <trkpt lat="32.980867344886065" lon="-5.065678786486387">
        <ele>2030.4400000000001</ele>
        <time>2019-03-11T10:15:05Z</time>
      </trkpt>
      <trkpt lat="32.97981315292418" lon="-5.065794624388218">
        <ele>2029.48</ele>
        <time>2019-03-11T10:15:06Z</time>
      </trkpt>
      <trkpt lat="32.979674432426691" lon="-5.065751876682043">
        <ele>2029</ele>
        <time>2019-03-11T10:15:13Z</time>
      </trkpt>
      <trkpt lat="32.979548620060086" lon="-5.065661855041981">
        <ele>2029</ele>
        <time>2019-03-11T10:15:14Z</time>
      </trkpt>
      <trkpt lat="32.979437056928873" lon="-5.065528498962522">
        <ele>2029</ele>
        <time>2019-03-11T10:15:15Z</time>
      </trkpt>
      <trkpt lat="32.979328678920865" lon="-5.06537645123899">
        <ele>2028.52</ele>
        <time>2019-03-11T10:15:21Z</time>
      </trkpt>
      <trkpt lat="32.978458050638437" lon="-5.064199715852737">
        <ele>2024.1900000000001</ele>
        <time>2019-03-11T10:15:22Z</time>
      </trkpt>
      <trkpt lat="32.97833408229053" lon="-5.064076585695148">
        <ele>2023.23</ele>
        <time>2019-03-11T10:15:23Z</time>
      </trkpt>
      <trkpt lat="32.978190081194043" lon="-5.06397751159966">
        <ele>2022.27</ele>
        <time>2019-03-11T10:15:29Z</time>
      </trkpt>
      <trkpt lat="32.977250134572387" lon="-5.063359094783664">
        <ele>2021.3099999999999</ele>
        <time>2019-03-11T10:15:30Z</time>
      </trkpt>
      <trkpt lat="32.977148545905948" lon="-5.06321526132524">
        <ele>2019.8699999999999</ele>
        <time>2019-03-11T10:15:31Z</time>
      </trkpt>
      <trkpt lat="32.977066906169057" lon="-5.063046868890524">
        <ele>2013.1400000000001</ele>
        <time>2019-03-11T10:15:35Z</time>
      </trkpt>
      <trkpt lat="32.976656360551715" lon="-5.061886645853519">
        <ele>2012.1800000000001</ele>
        <time>2019-03-11T10:15:36Z</time>
      </trkpt>
      <trkpt lat="32.976562483236194" lon="-5.061705932021141">
        <ele>2011.22</ele>
        <time>2019-03-11T10:15:37Z</time>
      </trkpt>
      <trkpt lat="32.976444968953729" lon="-5.061528906226158">
        <ele>2010.25</ele>
        <time>2019-03-11T10:15:38Z</time>
      </trkpt>
      <trkpt lat="32.975924201309681" lon="-5.06086053326726">
        <ele>2009.29</ele>
        <time>2019-03-11T10:15:39Z</time>
      </trkpt>
      <trkpt lat="32.975772405043244" lon="-5.060730781406164">
        <ele>2008.3299999999999</ele>
        <time>2019-03-11T10:15:44Z</time>
      </trkpt>
      <trkpt lat="32.975596804171801" lon="-5.060625420883298">
        <ele>2006.4100000000001</ele>
        <time>2019-03-11T10:15:45Z</time>
      </trkpt>
      <trkpt lat="32.975405529141426" lon="-5.060540428385139">
        <ele>2005.45</ele>
        <time>2019-03-11T10:15:46Z</time>
      </trkpt>
      <trkpt lat="32.975210566073656" lon="-5.060456609353423">
        <ele>2004.49</ele>
        <time>2019-03-11T10:15:47Z</time>
      </trkpt>
      <trkpt lat="32.974385702982545" lon="-5.059976158663631">
        <ele>2003.52</ele>
        <time>2019-03-11T10:15:48Z</time>
      </trkpt>
      <trkpt lat="32.974284617230296" lon="-5.059864427894354">
        <ele>2002.5599999999999</ele>
        <time>2019-03-11T10:15:49Z</time>
      </trkpt>
      <trkpt lat="32.974216053262353" lon="-5.059728557243943">
        <ele>2001.5999999999999</ele>
        <time>2019-03-11T10:15:51Z</time>
      </trkpt>
      <trkpt lat="32.974187806248665" lon="-5.059570893645287">
        <ele>1994.8699999999999</ele>
        <time>2019-03-11T10:15:52Z</time>
      </trkpt>
      <trkpt lat="32.974190739914775" lon="-5.059400992468">
        <ele>1993.4300000000001</ele>
        <time>2019-03-11T10:15:53Z</time>
      </trkpt>
      <trkpt lat="32.974205324426293" lon="-5.059227235615253">
        <ele>1991.99</ele>
        <time>2019-03-11T10:15:54Z</time>
      </trkpt>
      <trkpt lat="32.974216639995575" lon="-5.058886678889394">
        <ele>1989.5899999999999</ele>
        <time>2019-03-11T10:15:55Z</time>
      </trkpt>
      <trkpt lat="32.974189147353172" lon="-5.05873991176486">
        <ele>1988.6199999999999</ele>
        <time>2019-03-11T10:15:56Z</time>
      </trkpt>
      <trkpt lat="32.974122762680054" lon="-5.05861627869308">
        <ele>1987.6600000000001</ele>
        <time>2019-03-11T10:16:02Z</time>
      </trkpt>
      <trkpt lat="32.974021844565868" lon="-5.058517204597592">
        <ele>1986.7</ele>
        <time>2019-03-11T10:16:03Z</time>
      </trkpt>
      <trkpt lat="32.973898043856025" lon="-5.058428691700101">
        <ele>1985.74</ele>
        <time>2019-03-11T10:16:04Z</time>
      </trkpt>
      <trkpt lat="32.973763011395931" lon="-5.058335233479738">
        <ele>1984.78</ele>
        <time>2019-03-11T10:16:06Z</time>
      </trkpt>
      <trkpt lat="32.972888443619013" lon="-5.05767029710114">
        <ele>1984.3</ele>
        <time>2019-03-11T10:16:07Z</time>
      </trkpt>
      <trkpt lat="32.97278962098062" lon="-5.057540377601981">
        <ele>1983.8199999999999</ele>
        <time>2019-03-11T10:16:08Z</time>
      </trkpt>
      <trkpt lat="32.972709825262427" lon="-5.057398974895477">
        <ele>1980.9300000000001</ele>
        <time>2019-03-11T10:16:09Z</time>
      </trkpt>
      <trkpt lat="32.972575044259429" lon="-5.057139052078128">
        <ele>1979.49</ele>
        <time>2019-03-11T10:16:10Z</time>
      </trkpt>
      <trkpt lat="32.97249449416995" lon="-5.057052383199334">
        <ele>1978.53</ele>
        <time>2019-03-11T10:16:11Z</time>
      </trkpt>
      <trkpt lat="32.972396090626717" lon="-5.057003935799003">
        <ele>1974.2</ele>
        <time>2019-03-11T10:16:12Z</time>
      </trkpt>
      <trkpt lat="32.97228192910552" lon="-5.056993709877133">
        <ele>1973.24</ele>
        <time>2019-03-11T10:16:13Z</time>
      </trkpt>
      <trkpt lat="32.972160978242755" lon="-5.05701307207346">
        <ele>1972.28</ele>
        <time>2019-03-11T10:16:16Z</time>
      </trkpt>
      <trkpt lat="32.972033489495516" lon="-5.057055987417698">
        <ele>1971.3199999999999</ele>
        <time>2019-03-11T10:16:17Z</time>
      </trkpt>
      <trkpt lat="32.971900720149279" lon="-5.057118264958262">
        <ele>1970.3599999999999</ele>
        <time>2019-03-11T10:16:18Z</time>
      </trkpt>
      <trkpt lat="32.971761077642441" lon="-5.057192109525204">
        <ele>1969.4000000000001</ele>
        <time>2019-03-11T10:16:22Z</time>
      </trkpt>
      <trkpt lat="32.97130367718637" lon="-5.057432418689132">
        <ele>1968.4400000000001</ele>
        <time>2019-03-11T10:16:23Z</time>
      </trkpt>
      <trkpt lat="32.971141571179032" lon="-5.057481871917844">
        <ele>1967.48</ele>
        <time>2019-03-11T10:16:24Z</time>
      </trkpt>
      <trkpt lat="32.970970664173365" lon="-5.057506430894136">
        <ele>1966.51</ele>
        <time>2019-03-11T10:16:25Z</time>
      </trkpt>
      <trkpt lat="32.970316456630826" lon="-5.057595362886787">
        <ele>1965.55</ele>
        <time>2019-03-11T10:16:26Z</time>
      </trkpt>
      <trkpt lat="32.970167426392436" lon="-5.057664765045047">
        <ele>1964.5899999999999</ele>
        <time>2019-03-11T10:16:27Z</time>
      </trkpt>
      <trkpt lat="32.970028202980757" lon="-5.05776509642601">
        <ele>1963.6300000000001</ele>
        <time>2019-03-11T10:16:28Z</time>
      </trkpt>
      <trkpt lat="32.969908006489277" lon="-5.057888142764568">
        <ele>1949.6900000000001</ele>
        <time>2019-03-11T10:16:29Z</time>
      </trkpt>
      <trkpt lat="32.969800466671586" lon="-5.058012278750539">
        <ele>1925.1800000000001</ele>
        <time>2019-03-11T10:16:30Z</time>
      </trkpt>
      <trkpt lat="32.969694854691625" lon="-5.058118226006627">
        <ele>1904.51</ele>
        <time>2019-03-11T10:16:31Z</time>
      </trkpt>
      <trkpt lat="32.969583794474602" lon="-5.058196932077408">
        <ele>1902.1099999999999</ele>
        <time>2019-03-11T10:16:32Z</time>
      </trkpt>
      <trkpt lat="32.969459742307663" lon="-5.058244206011295">
        <ele>1900.1800000000001</ele>
        <time>2019-03-11T10:16:33Z</time>
      </trkpt>
      <trkpt lat="32.969322362914681" lon="-5.058253593742847">
        <ele>1898.26</ele>
        <time>2019-03-11T10:16:44Z</time>
      </trkpt>
      <trkpt lat="32.969180205836892" lon="-5.058227693662047">
        <ele>1896.8199999999999</ele>
        <time>2019-03-11T10:16:56Z</time>
      </trkpt>
      <trkpt lat="32.969039473682642" lon="-5.058178491890431">
        <ele>1875.6700000000001</ele>
        <time>2019-03-11T10:17:05Z</time>
      </trkpt>
      <trkpt lat="32.968898741528392" lon="-5.058118561282754">
        <ele>1869.9000000000001</ele>
        <time>2019-03-11T10:17:06Z</time>
      </trkpt>
      <trkpt lat="32.967113982886076" lon="-5.057426886633039">
        <ele>1867.98</ele>
        <time>2019-03-11T10:17:07Z</time>
      </trkpt>
      <trkpt lat="32.964629251509905" lon="-5.05643698386848">
        <ele>1862.21</ele>
        <time>2019-03-11T10:17:08Z</time>
      </trkpt>
      <trkpt lat="32.962505947798491" lon="-5.055954521521926">
        <ele>1860.77</ele>
        <time>2019-03-11T10:17:09Z</time>
      </trkpt>
      <trkpt lat="32.962286844849586" lon="-5.055872797966003">
        <ele>1860.29</ele>
        <time>2019-03-11T10:17:21Z</time>
      </trkpt>
      <trkpt lat="32.962070675566792" lon="-5.055762492120266">
        <ele>1860.77</ele>
        <time>2019-03-11T10:17:27Z</time>
      </trkpt>
      <trkpt lat="32.961857272312045" lon="-5.05562829785049">
        <ele>1848.75</ele>
        <time>2019-03-11T10:17:33Z</time>
      </trkpt>
      <trkpt lat="32.961643198505044" lon="-5.055479016155005">
        <ele>1835.77</ele>
        <time>2019-03-11T10:17:40Z</time>
      </trkpt>
      <trkpt lat="32.959057129919529" lon="-5.053582694381475">
        <ele>1828.5599999999999</ele>
        <time>2019-03-11T10:17:44Z</time>
      </trkpt>
      <trkpt lat="32.958040572702885" lon="-5.053034853190184">
        <ele>1814.6300000000001</ele>
        <time>2019-03-11T10:17:45Z</time>
      </trkpt>
      <trkpt lat="32.956756465137005" lon="-5.052966875955463">
        <ele>1802.6099999999999</ele>
        <time>2019-03-11T10:17:54Z</time>
      </trkpt>
      <trkpt lat="32.955125765874982" lon="-5.053322603926063">
        <ele>1801.6500000000001</ele>
        <time>2019-03-11T10:18:08Z</time>
      </trkpt>
      <trkpt lat="32.95423049479723" lon="-5.053625190630555">
        <ele>1800.6900000000001</ele>
        <time>2019-03-11T10:18:24Z</time>
      </trkpt>
      <trkpt lat="32.954024216160178" lon="-5.053743124008179">
        <ele>1799.73</ele>
        <time>2019-03-11T10:18:33Z</time>
      </trkpt>
      <trkpt lat="32.952210372313857" lon="-5.054942909628153">
        <ele>1798.76</ele>
        <time>2019-03-11T10:18:47Z</time>
      </trkpt>
      <trkpt lat="32.949222307652235" lon="-5.056905280798674">
        <ele>1798.28</ele>
        <time>2019-03-11T10:18:57Z</time>
      </trkpt>
      <trkpt lat="32.946320408955216" lon="-5.058836555108428">
        <ele>1797.3199999999999</ele>
        <time>2019-03-11T10:18:58Z</time>
      </trkpt>
      <trkpt lat="32.944810325279832" lon="-5.059597380459309">
        <ele>1796.3599999999999</ele>
        <time>2019-03-11T10:18:59Z</time>
      </trkpt>
      <trkpt lat="32.942280415445566" lon="-5.060362983494997">
        <ele>1794.9200000000001</ele>
        <time>2019-03-11T10:19:00Z</time>
      </trkpt>
      <trkpt lat="32.940524071455002" lon="-5.060835555195808">
        <ele>1793.96</ele>
        <time>2019-03-11T10:19:01Z</time>
      </trkpt>
      <trkpt lat="32.940382082015276" lon="-5.060851899906993">
        <ele>1793</ele>
        <time>2019-03-11T10:19:02Z</time>
      </trkpt>
      <trkpt lat="32.940239841118455" lon="-5.060847541317344">
        <ele>1786.75</ele>
        <time>2019-03-11T10:19:03Z</time>
      </trkpt>
      <trkpt lat="32.940096007660031" lon="-5.060817617923021">
        <ele>1786.27</ele>
        <time>2019-03-11T10:19:04Z</time>
      </trkpt>
      <trkpt lat="32.939954940229654" lon="-5.060752741992474">
        <ele>1785.79</ele>
        <time>2019-03-11T10:19:05Z</time>
      </trkpt>
      <trkpt lat="32.93982183560729" lon="-5.060656182467938">
        <ele>1785.79</ele>
        <time>2019-03-11T10:19:06Z</time>
      </trkpt>
      <trkpt lat="32.939702896401286" lon="-5.060529112815857">
        <ele>1785.79</ele>
        <time>2019-03-11T10:19:07Z</time>
      </trkpt>
      <trkpt lat="32.939603654667735" lon="-5.060369437560439">
        <ele>1785.79</ele>
        <time>2019-03-11T10:19:15Z</time>
      </trkpt>
      <trkpt lat="32.939523020759225" lon="-5.06018134765327">
        <ele>1785.79</ele>
        <time>2019-03-11T10:19:16Z</time>
      </trkpt>
      <trkpt lat="32.939455043524504" lon="-5.059978673234582">
        <ele>1784.3399999999999</ele>
        <time>2019-03-11T10:19:17Z</time>
      </trkpt>
      <trkpt lat="32.939394442364573" lon="-5.059763509780169">
        <ele>1783.8599999999999</ele>
        <time>2019-03-11T10:19:18Z</time>
      </trkpt>
      <trkpt lat="32.938860598951578" lon="-5.058118226006627">
        <ele>1782.9000000000001</ele>
        <time>2019-03-11T10:19:19Z</time>
      </trkpt>
      <trkpt lat="32.938753897324204" lon="-5.057951509952545">
        <ele>1782.4200000000001</ele>
        <time>2019-03-11T10:19:20Z</time>
      </trkpt>
      <trkpt lat="32.938624732196331" lon="-5.057810610160232">
        <ele>1781.46</ele>
        <time>2019-03-11T10:19:21Z</time>
      </trkpt>
      <trkpt lat="32.938477797433734" lon="-5.057704830542207">
        <ele>1771.3699999999999</ele>
        <time>2019-03-11T10:19:25Z</time>
      </trkpt>
      <trkpt lat="32.938316445797682" lon="-5.057631488889456">
        <ele>1763.6800000000001</ele>
        <time>2019-03-11T10:19:26Z</time>
      </trkpt>
      <trkpt lat="32.938142688944936" lon="-5.057574491947889">
        <ele>1762.23</ele>
        <time>2019-03-11T10:19:27Z</time>
      </trkpt>
      <trkpt lat="32.93796306475997" lon="-5.057525206357241">
        <ele>1762.23</ele>
        <time>2019-03-11T10:19:28Z</time>
      </trkpt>
      <trkpt lat="32.937228055670857" lon="-5.057293698191643">
        <ele>1762.71</ele>
        <time>2019-03-11T10:19:29Z</time>
      </trkpt>
      <trkpt lat="32.937054131180048" lon="-5.057200826704502">
        <ele>1762.71</ele>
        <time>2019-03-11T10:19:40Z</time>
      </trkpt>
      <trkpt lat="32.936886744573712" lon="-5.057091107591987">
        <ele>1762.71</ele>
        <time>2019-03-11T10:19:52Z</time>
      </trkpt>
      <trkpt lat="32.936729080975056" lon="-5.056969486176968">
        <ele>1762.71</ele>
        <time>2019-03-11T10:19:57Z</time>
      </trkpt>
      <trkpt lat="32.936579547822475" lon="-5.056841829791665">
        <ele>1763.2</ele>
        <time>2019-03-11T10:19:58Z</time>
      </trkpt>
      <trkpt lat="32.934953877702355" lon="-5.055673643946648">
        <ele>1763.6800000000001</ele>
        <time>2019-03-11T10:19:59Z</time>
      </trkpt>
      <trkpt lat="32.933033751323819" lon="-5.054541500285268">
        <ele>1764.1600000000001</ele>
        <time>2019-03-11T10:20:00Z</time>
      </trkpt>
      <trkpt lat="32.932123141363263" lon="-5.054390542209148">
        <ele>1764.1600000000001</ele>
        <time>2019-03-11T10:20:01Z</time>
      </trkpt>
      <trkpt lat="32.931957179680467" lon="-5.054316613823175">
        <ele>1764.6400000000001</ele>
        <time>2019-03-11T10:20:02Z</time>
      </trkpt>
      <trkpt lat="32.93180244974792" lon="-5.054223658517003">
        <ele>1764.1600000000001</ele>
        <time>2019-03-11T10:20:03Z</time>
      </trkpt>
      <trkpt lat="32.931660292670131" lon="-5.05412139929831">
        <ele>1751.1800000000001</ele>
        <time>2019-03-11T10:20:04Z</time>
      </trkpt>
      <trkpt lat="32.931528864428401" lon="-5.05401193164289">
        <ele>1741.5699999999999</ele>
        <time>2019-03-11T10:20:05Z</time>
      </trkpt>
      <trkpt lat="32.931406237185001" lon="-5.053891986608505">
        <ele>1740.1199999999999</ele>
        <time>2019-03-11T10:20:06Z</time>
      </trkpt>
      <trkpt lat="32.931296266615391" lon="-5.053763575851917">
        <ele>1738.2</ele>
        <time>2019-03-11T10:20:07Z</time>
      </trkpt>
      <trkpt lat="32.931203981861472" lon="-5.053635248914361">
        <ele>1737.72</ele>
        <time>2019-03-11T10:20:08Z</time>
      </trkpt>
      <trkpt lat="32.931126700714231" lon="-5.053504658862948">
        <ele>1736.28</ele>
        <time>2019-03-11T10:20:21Z</time>
      </trkpt>
      <trkpt lat="32.931060483679175" lon="-5.053368955850601">
        <ele>1731.95</ele>
        <time>2019-03-11T10:20:34Z</time>
      </trkpt>
      <trkpt lat="32.931001810356975" lon="-5.053224787116051">
        <ele>1727.1500000000001</ele>
        <time>2019-03-11T10:20:42Z</time>
      </trkpt>
      <trkpt lat="32.930947663262486" lon="-5.053077265620232">
        <ele>1713.6900000000001</ele>
        <time>2019-03-11T10:20:54Z</time>
      </trkpt>
      <trkpt lat="32.930064294487238" lon="-5.051249759271741">
        <ele>1701.6700000000001</ele>
        <time>2019-03-11T10:21:06Z</time>
      </trkpt>
      <trkpt lat="32.928973054513335" lon="-5.050190286710858">
        <ele>1689.1700000000001</ele>
        <time>2019-03-11T10:21:16Z</time>
      </trkpt>
      <trkpt lat="32.92857114225626" lon="-5.049805641174316">
        <ele>1683.4100000000001</ele>
        <time>2019-03-11T10:21:25Z</time>
      </trkpt>
      <trkpt lat="32.928566699847579" lon="-5.049790721386671">
        <ele>1668.02</ele>
        <time>2019-03-11T10:21:33Z</time>
      </trkpt>
      <trkpt lat="32.928391937166452" lon="-5.049633728340268">
        <ele>1664.6600000000001</ele>
        <time>2019-03-11T10:21:49Z</time>
      </trkpt>
      <trkpt lat="32.927820794284344" lon="-5.049108183011413">
        <ele>1660.8099999999999</ele>
        <time>2019-03-11T10:22:02Z</time>
      </trkpt>
      <trkpt lat="32.926918650045991" lon="-5.048244008794427">
        <ele>1655.05</ele>
        <time>2019-03-11T10:22:15Z</time>
      </trkpt>
      <trkpt lat="32.925767730921507" lon="-5.047157714143395">
        <ele>1638.7</ele>
        <time>2019-03-11T10:22:26Z</time>
      </trkpt>
      <trkpt lat="32.923014108091593" lon="-5.044538704678416">
        <ele>1631.98</ele>
        <time>2019-03-11T10:22:39Z</time>
      </trkpt>
      <trkpt lat="32.920371796935797" lon="-5.042034108191729">
        <ele>1627.6500000000001</ele>
        <time>2019-03-11T10:22:44Z</time>
      </trkpt>
      <trkpt lat="32.917767455801368" lon="-5.039567900821567">
        <ele>1621.8800000000001</ele>
        <time>2019-03-11T10:22:53Z</time>
      </trkpt>
      <trkpt lat="32.915804414078593" lon="-5.037701418623328">
        <ele>1612.75</ele>
        <time>2019-03-11T10:23:05Z</time>
      </trkpt>
      <trkpt lat="32.913144920021296" lon="-5.035172598436475">
        <ele>1598.8099999999999</ele>
        <time>2019-03-11T10:23:21Z</time>
      </trkpt>
      <trkpt lat="32.912327349185944" lon="-5.034405738115311">
        <ele>1594</ele>
        <time>2019-03-11T10:23:32Z</time>
      </trkpt>
      <trkpt lat="32.910920446738601" lon="-5.033075278624892">
        <ele>1588.72</ele>
        <time>2019-03-11T10:23:45Z</time>
      </trkpt>
      <trkpt lat="32.908673593774438" lon="-5.030930265784264">
        <ele>1573.3299999999999</ele>
        <time>2019-03-11T10:23:52Z</time>
      </trkpt>
      <trkpt lat="32.905799690634012" lon="-5.028124172240496">
        <ele>1563.24</ele>
        <time>2019-03-11T10:24:02Z</time>
      </trkpt>
      <trkpt lat="32.903878893703222" lon="-5.026259869337082">
        <ele>1559.8800000000001</ele>
        <time>2019-03-11T10:24:20Z</time>
      </trkpt>
      <trkpt lat="32.901929263025522" lon="-5.024085436016321">
        <ele>1566.6099999999999</ele>
        <time>2019-03-11T10:24:33Z</time>
      </trkpt>
      <trkpt lat="32.901370357722044" lon="-5.022370247170329">
        <ele>1558.9200000000001</ele>
        <time>2019-03-11T10:24:47Z</time>
      </trkpt>
      <trkpt lat="32.900540381669998" lon="-5.01963347196579">
        <ele>1547.3800000000001</ele>
        <time>2019-03-11T10:25:06Z</time>
      </trkpt>
      <trkpt lat="32.898906748741865" lon="-5.014276346191764">
        <ele>1539.6900000000001</ele>
        <time>2019-03-11T10:25:23Z</time>
      </trkpt>
      <trkpt lat="32.897743843495846" lon="-5.010483115911484">
        <ele>1536.8</ele>
        <time>2019-03-11T10:25:39Z</time>
      </trkpt>
      <trkpt lat="32.896565767005086" lon="-5.006617214530706">
        <ele>1531.52</ele>
        <time>2019-03-11T10:25:57Z</time>
      </trkpt>
      <trkpt lat="32.894869353622198" lon="-5.001043165102601">
        <ele>1526.23</ele>
        <time>2019-03-11T10:26:14Z</time>
      </trkpt>
      <trkpt lat="32.893375614657998" lon="-4.996124831959605">
        <ele>1521.9000000000001</ele>
        <time>2019-03-11T10:26:29Z</time>
      </trkpt>
      <trkpt lat="32.891984051093459" lon="-4.991591479629278">
        <ele>1517.5799999999999</ele>
        <time>2019-03-11T10:26:42Z</time>
      </trkpt>
      <trkpt lat="32.890386544167995" lon="-4.9863510299474">
        <ele>1512.29</ele>
        <time>2019-03-11T10:26:52Z</time>
      </trkpt>
      <trkpt lat="32.888917028903961" lon="-4.981544930487871">
        <ele>1511.3299999999999</ele>
        <time>2019-03-11T10:27:02Z</time>
      </trkpt>
      <trkpt lat="32.887569973245263" lon="-4.977142419666052">
        <ele>1510.8499999999999</ele>
        <time>2019-03-11T10:27:11Z</time>
      </trkpt>
      <trkpt lat="32.886573951691389" lon="-4.973578015342355">
        <ele>1510.3699999999999</ele>
        <time>2019-03-11T10:27:21Z</time>
      </trkpt>
      <trkpt lat="32.886418215930462" lon="-4.970761528238654">
        <ele>1509.4100000000001</ele>
        <time>2019-03-11T10:27:33Z</time>
      </trkpt>
      <trkpt lat="32.886187043040991" lon="-4.968121564015746">
        <ele>1508.9300000000001</ele>
        <time>2019-03-11T10:27:45Z</time>
      </trkpt>
      <trkpt lat="32.885951260104775" lon="-4.966243179515004">
        <ele>1503.6400000000001</ele>
        <time>2019-03-11T10:27:46Z</time>
      </trkpt>
      <trkpt lat="32.885732324793935" lon="-4.964407039806247">
        <ele>1500.76</ele>
        <time>2019-03-11T10:27:47Z</time>
      </trkpt>
      <trkpt lat="32.885439293459058" lon="-4.962006881833077">
        <ele>1500.27</ele>
        <time>2019-03-11T10:27:48Z</time>
      </trkpt>
      <trkpt lat="32.885224800556898" lon="-4.960145009681583">
        <ele>1498.8299999999999</ele>
        <time>2019-03-11T10:27:49Z</time>
      </trkpt>
      <trkpt lat="32.885187584906816" lon="-4.959965972229838">
        <ele>1488.74</ele>
        <time>2019-03-11T10:27:50Z</time>
      </trkpt>
      <trkpt lat="32.885129330679774" lon="-4.959777463227511">
        <ele>1478.6500000000001</ele>
        <time>2019-03-11T10:27:56Z</time>
      </trkpt>
      <trkpt lat="32.885054731741548" lon="-4.959584847092629">
        <ele>1473.3599999999999</ele>
        <time>2019-03-11T10:28:00Z</time>
      </trkpt>
      <trkpt lat="32.884968649595976" lon="-4.959398433566093">
        <ele>1474.3199999999999</ele>
        <time>2019-03-11T10:28:01Z</time>
      </trkpt>
      <trkpt lat="32.884869910776615" lon="-4.95921696536243">
        <ele>1476.72</ele>
        <time>2019-03-11T10:28:02Z</time>
      </trkpt>
      <trkpt lat="32.884022248908877" lon="-4.958224045112729">
        <ele>1480.0899999999999</ele>
        <time>2019-03-11T10:28:11Z</time>
      </trkpt>
      <trkpt lat="32.883429815992713" lon="-4.957560366019607">
        <ele>1476.72</ele>
        <time>2019-03-11T10:28:21Z</time>
      </trkpt>
      <trkpt lat="32.883308362215757" lon="-4.957349393516779">
        <ele>1475.28</ele>
        <time>2019-03-11T10:28:28Z</time>
      </trkpt>
      <trkpt lat="32.883198894560337" lon="-4.957119477912784">
        <ele>1476.24</ele>
        <time>2019-03-11T10:28:38Z</time>
      </trkpt>
      <trkpt lat="32.882268754765391" lon="-4.954774640500546">
        <ele>1477.6800000000001</ele>
        <time>2019-03-11T10:28:51Z</time>
      </trkpt>
      <trkpt lat="32.881048768758774" lon="-4.952298291027546">
        <ele>1473.8399999999999</ele>
        <time>2019-03-11T10:28:59Z</time>
      </trkpt>
      <trkpt lat="32.880197502672672" lon="-4.950996581465006">
        <ele>1469.99</ele>
        <time>2019-03-11T10:29:06Z</time>
      </trkpt>
      <trkpt lat="32.879248252138495" lon="-4.949514493346214">
        <ele>1469.99</ele>
        <time>2019-03-11T10:29:21Z</time>
      </trkpt>
      <trkpt lat="32.877865741029382" lon="-4.947393704205751">
        <ele>1469.51</ele>
        <time>2019-03-11T10:29:31Z</time>
      </trkpt>
      <trkpt lat="32.876720689237118" lon="-4.946072213351727">
        <ele>1469.51</ele>
        <time>2019-03-11T10:29:42Z</time>
      </trkpt>
      <trkpt lat="32.875331388786435" lon="-4.945316836237907">
        <ele>1469.99</ele>
        <time>2019-03-11T10:29:55Z</time>
      </trkpt>
      <trkpt lat="32.871906710788608" lon="-4.944309499114752">
        <ele>1474.8</ele>
        <time>2019-03-11T10:30:06Z</time>
      </trkpt>
      <trkpt lat="32.869651727378368" lon="-4.943901216611266">
        <ele>1477.6800000000001</ele>
        <time>2019-03-11T10:30:09Z</time>
      </trkpt>
      <trkpt lat="32.867109077051282" lon="-4.94419508613646">
        <ele>1480.5699999999999</ele>
        <time>2019-03-11T10:30:10Z</time>
      </trkpt>
      <trkpt lat="32.864539856091142" lon="-4.944714596495032">
        <ele>1476.72</ele>
        <time>2019-03-11T10:30:13Z</time>
      </trkpt>
      <trkpt lat="32.862850483506918" lon="-4.945044508203864">
        <ele>1472.4000000000001</ele>
        <time>2019-03-11T10:30:16Z</time>
      </trkpt>
      <trkpt lat="32.862613946199417" lon="-4.945073174312711">
        <ele>1464.71</ele>
        <time>2019-03-11T10:30:25Z</time>
      </trkpt>
      <trkpt lat="32.862552590668201" lon="-4.945045597851276">
        <ele>1461.3399999999999</ele>
        <time>2019-03-11T10:30:29Z</time>
      </trkpt>
      <trkpt lat="32.862484864890575" lon="-4.944817777723074">
        <ele>1460.8599999999999</ele>
        <time>2019-03-11T10:30:39Z</time>
      </trkpt>
      <trkpt lat="32.8625095076859" lon="-4.94446037337184">
        <ele>1457.5</ele>
        <time>2019-03-11T10:30:49Z</time>
      </trkpt>
      <trkpt lat="32.862285962328315" lon="-4.942999659106135">
        <ele>1449.8099999999999</ele>
        <time>2019-03-11T10:30:58Z</time>
      </trkpt>
      <trkpt lat="32.86232041195035" lon="-4.942161552608013">
        <ele>1435.3900000000001</ele>
        <time>2019-03-11T10:31:10Z</time>
      </trkpt>
      <trkpt lat="32.862938828766346" lon="-4.93978469632566">
        <ele>1433.46</ele>
        <time>2019-03-11T10:31:22Z</time>
      </trkpt>
      <trkpt lat="32.863612985238433" lon="-4.936801828444004">
        <ele>1432.5</ele>
        <time>2019-03-11T10:31:29Z</time>
      </trkpt>
      <trkpt lat="32.863977681845427" lon="-4.934074273332954">
        <ele>1431.0599999999999</ele>
        <time>2019-03-11T10:31:38Z</time>
      </trkpt>
      <trkpt lat="32.863933593034744" lon="-4.930135365575552">
        <ele>1431.54</ele>
        <time>2019-03-11T10:31:48Z</time>
      </trkpt>
      <trkpt lat="32.863765032961965" lon="-4.926430061459541">
        <ele>1431.54</ele>
        <time>2019-03-11T10:32:01Z</time>
      </trkpt>
      <trkpt lat="32.863922528922558" lon="-4.924299633130431">
        <ele>1430.5799999999999</ele>
        <time>2019-03-11T10:32:06Z</time>
      </trkpt>
      <trkpt lat="32.864260822534561" lon="-4.921600827947259">
        <ele>1430.5799999999999</ele>
        <time>2019-03-11T10:32:11Z</time>
      </trkpt>
      <trkpt lat="32.864593919366598" lon="-4.918718542903662">
        <ele>1431.54</ele>
        <time>2019-03-11T10:32:18Z</time>
      </trkpt>
      <trkpt lat="32.865493968129158" lon="-4.914944171905518">
        <ele>1432.98</ele>
        <time>2019-03-11T10:32:21Z</time>
      </trkpt>
      <trkpt lat="32.865775264799595" lon="-4.91368655115366">
        <ele>1433.9400000000001</ele>
        <time>2019-03-11T10:32:25Z</time>
      </trkpt>
      <trkpt lat="32.866386556997895" lon="-4.912874177098274">
        <ele>1428.6600000000001</ele>
        <time>2019-03-11T10:32:34Z</time>
      </trkpt>
      <trkpt lat="32.867198344320059" lon="-4.911763574928045">
        <ele>1416.6400000000001</ele>
        <time>2019-03-11T10:32:45Z</time>
      </trkpt>
      <trkpt lat="32.867496320977807" lon="-4.911171728745103">
        <ele>1411.8299999999999</ele>
        <time>2019-03-11T10:32:53Z</time>
      </trkpt>
      <trkpt lat="32.867615511640906" lon="-4.910433618351817">
        <ele>1416.1600000000001</ele>
        <time>2019-03-11T10:33:02Z</time>
      </trkpt>
      <trkpt lat="32.867164397612214" lon="-4.908335795626044">
        <ele>1416.6400000000001</ele>
        <time>2019-03-11T10:33:14Z</time>
      </trkpt>
      <trkpt lat="32.866384377703071" lon="-4.905330631881952">
        <ele>1416.1600000000001</ele>
        <time>2019-03-11T10:33:22Z</time>
      </trkpt>
      <trkpt lat="32.86593678407371" lon="-4.903217134997249">
        <ele>1414.72</ele>
        <time>2019-03-11T10:33:39Z</time>
      </trkpt>
      <trkpt lat="32.865550210699439" lon="-4.900686051696539">
        <ele>1413.76</ele>
        <time>2019-03-11T10:33:49Z</time>
      </trkpt>
      <trkpt lat="32.864780416712165" lon="-4.897115025669336">
        <ele>1413.76</ele>
        <time>2019-03-11T10:33:57Z</time>
      </trkpt>
      <trkpt lat="32.864643540233374" lon="-4.894443713128567">
        <ele>1413.76</ele>
        <time>2019-03-11T10:34:06Z</time>
      </trkpt>
      <trkpt lat="32.864603893831372" lon="-4.888485604897142">
        <ele>1413.76</ele>
        <time>2019-03-11T10:34:12Z</time>
      </trkpt>
      <trkpt lat="32.864775555208325" lon="-4.885136531665921">
        <ele>1414.24</ele>
        <time>2019-03-11T10:34:27Z</time>
      </trkpt>
      <trkpt lat="32.865276876837015" lon="-4.88297819159925">
        <ele>1414.72</ele>
        <time>2019-03-11T10:34:37Z</time>
      </trkpt>
      <trkpt lat="32.86560938693583" lon="-4.880448114126921">
        <ele>1414.72</ele>
        <time>2019-03-11T10:34:38Z</time>
      </trkpt>
      <trkpt lat="32.865189369767904" lon="-4.878753628581762">
        <ele>1412.3099999999999</ele>
        <time>2019-03-11T10:34:39Z</time>
      </trkpt>
      <trkpt lat="32.863886570557952" lon="-4.874279787763953">
        <ele>1412.3099999999999</ele>
        <time>2019-03-11T10:34:40Z</time>
      </trkpt>
      <trkpt lat="32.863041087985039" lon="-4.871524656191468">
        <ele>1412.3099999999999</ele>
        <time>2019-03-11T10:34:41Z</time>
      </trkpt>
      <trkpt lat="32.863024743273854" lon="-4.871273869648576">
        <ele>1412.3099999999999</ele>
        <time>2019-03-11T10:34:49Z</time>
      </trkpt>
      <trkpt lat="32.863032035529613" lon="-4.871019059792161">
        <ele>1411.8299999999999</ele>
        <time>2019-03-11T10:34:58Z</time>
      </trkpt>
      <trkpt lat="32.863058773800731" lon="-4.870762992650271">
        <ele>1411.3499999999999</ele>
        <time>2019-03-11T10:35:16Z</time>
      </trkpt>
      <trkpt lat="32.863100515678525" lon="-4.870506757870317">
        <ele>1411.3499999999999</ele>
        <time>2019-03-11T10:35:22Z</time>
      </trkpt>
      <trkpt lat="32.863755393773317" lon="-4.868452018126845">
        <ele>1408.95</ele>
        <time>2019-03-11T10:35:23Z</time>
      </trkpt>
      <trkpt lat="32.865132372826338" lon="-4.866246823221445">
        <ele>1407.51</ele>
        <time>2019-03-11T10:35:24Z</time>
      </trkpt>
      <trkpt lat="32.867911225184798" lon="-4.861685810610652">
        <ele>1407.99</ele>
        <time>2019-03-11T10:35:25Z</time>
      </trkpt>
      <trkpt lat="32.868569288402796" lon="-4.86031997948885">
        <ele>1407.99</ele>
        <time>2019-03-11T10:35:27Z</time>
      </trkpt>
      <trkpt lat="32.868620250374079" lon="-4.860133063048124">
        <ele>1408.47</ele>
        <time>2019-03-11T10:35:37Z</time>
      </trkpt>
      <trkpt lat="32.868642713874578" lon="-4.859940446913242">
        <ele>1408.47</ele>
        <time>2019-03-11T10:35:44Z</time>
      </trkpt>
      <trkpt lat="32.868638522922993" lon="-4.859746741130948">
        <ele>1408.95</ele>
        <time>2019-03-11T10:35:49Z</time>
      </trkpt>
      <trkpt lat="32.86855386570096" lon="-4.859378607943654">
        <ele>1408.95</ele>
        <time>2019-03-11T10:35:50Z</time>
      </trkpt>
      <trkpt lat="32.867703773081303" lon="-4.85771119594574">
        <ele>1408.95</ele>
        <time>2019-03-11T10:35:59Z</time>
      </trkpt>
      <trkpt lat="32.866941606625915" lon="-4.85628736205399">
        <ele>1408.47</ele>
        <time>2019-03-11T10:36:01Z</time>
      </trkpt>
      <trkpt lat="32.866973457857966" lon="-4.855350852012634">
        <ele>1403.1800000000001</ele>
        <time>2019-03-11T10:36:02Z</time>
      </trkpt>
      <trkpt lat="32.867068341001868" lon="-4.855171144008637">
        <ele>1403.6600000000001</ele>
        <time>2019-03-11T10:36:03Z</time>
      </trkpt>
      <trkpt lat="32.867933688685298" lon="-4.853359563276172">
        <ele>1404.6199999999999</ele>
        <time>2019-03-11T10:36:04Z</time>
      </trkpt>
      <trkpt lat="32.8680320084095" lon="-4.852925715968013">
        <ele>1404.6199999999999</ele>
        <time>2019-03-11T10:36:05Z</time>
      </trkpt>
      <trkpt lat="32.868052879348397" lon="-4.852698901668191">
        <ele>1404.6199999999999</ele>
        <time>2019-03-11T10:36:06Z</time>
      </trkpt>
      <trkpt lat="32.868054388090968" lon="-4.852465214207768">
        <ele>1404.6199999999999</ele>
        <time>2019-03-11T10:36:16Z</time>
      </trkpt>
      <trkpt lat="32.86803150549531" lon="-4.852228090167046">
        <ele>1405.0999999999999</ele>
        <time>2019-03-11T10:36:23Z</time>
      </trkpt>
      <trkpt lat="32.867990098893642" lon="-4.851987613365054">
        <ele>1406.0699999999999</ele>
        <time>2019-03-11T10:36:30Z</time>
      </trkpt>
      <trkpt lat="32.867941232398152" lon="-4.851739928126335">
        <ele>1408.47</ele>
        <time>2019-03-11T10:36:31Z</time>
      </trkpt>
      <trkpt lat="32.867424990981817" lon="-4.848937019705772">
        <ele>1409.4300000000001</ele>
        <time>2019-03-11T10:36:32Z</time>
      </trkpt>
      <trkpt lat="32.867313344031572" lon="-4.846828803420067">
        <ele>1409.4300000000001</ele>
        <time>2019-03-11T10:36:33Z</time>
      </trkpt>
      <trkpt lat="32.867311332374811" lon="-4.844954609870911">
        <ele>1409.9100000000001</ele>
        <time>2019-03-11T10:36:34Z</time>
      </trkpt>
      <trkpt lat="32.867347290739417" lon="-4.844731735065579">
        <ele>1410.3900000000001</ele>
        <time>2019-03-11T10:36:43Z</time>
      </trkpt>
      <trkpt lat="32.867405964061618" lon="-4.844510369002819">
        <ele>1410.3900000000001</ele>
        <time>2019-03-11T10:36:49Z</time>
      </trkpt>
      <trkpt lat="32.867483999580145" lon="-4.844291266053915">
        <ele>1410.8699999999999</ele>
        <time>2019-03-11T10:36:51Z</time>
      </trkpt>
      <trkpt lat="32.867577290162444" lon="-4.844072163105011">
        <ele>1410.8699999999999</ele>
        <time>2019-03-11T10:36:52Z</time>
      </trkpt>
      <trkpt lat="32.868548082187772" lon="-4.841866297647357">
        <ele>1412.79</ele>
        <time>2019-03-11T10:36:53Z</time>
      </trkpt>
      <trkpt lat="32.86893155425787" lon="-4.840442296117544">
        <ele>1412.79</ele>
        <time>2019-03-11T10:36:54Z</time>
      </trkpt>
      <trkpt lat="32.868933565914631" lon="-4.839917253702879">
        <ele>1412.79</ele>
        <time>2019-03-11T10:36:55Z</time>
      </trkpt>
      <trkpt lat="32.868906240910292" lon="-4.839651798829436">
        <ele>1412.79</ele>
        <time>2019-03-11T10:36:56Z</time>
      </trkpt>
      <trkpt lat="32.868859050795436" lon="-4.839387098327279">
        <ele>1412.79</ele>
        <time>2019-03-11T10:36:57Z</time>
      </trkpt>
      <trkpt lat="32.868791576474905" lon="-4.839126085862517">
        <ele>1410.8699999999999</ele>
        <time>2019-03-11T10:37:04Z</time>
      </trkpt>
      <trkpt lat="32.868704069405794" lon="-4.838868342339993">
        <ele>1412.79</ele>
        <time>2019-03-11T10:37:05Z</time>
      </trkpt>
      <trkpt lat="32.86859929561615" lon="-4.838616047054529">
        <ele>1414.24</ele>
        <time>2019-03-11T10:37:06Z</time>
      </trkpt>
      <trkpt lat="32.868483122438192" lon="-4.838369283825159">
        <ele>1414.72</ele>
        <time>2019-03-11T10:37:07Z</time>
      </trkpt>
      <trkpt lat="32.867732020094991" lon="-4.836673876270652">
        <ele>1414.72</ele>
        <time>2019-03-11T10:37:08Z</time>
      </trkpt>
      <trkpt lat="32.867677453905344" lon="-4.836431387811899">
        <ele>1415.2</ele>
        <time>2019-03-11T10:37:18Z</time>
      </trkpt>
      <trkpt lat="32.86765281111002" lon="-4.836177751421928">
        <ele>1416.1600000000001</ele>
        <time>2019-03-11T10:37:26Z</time>
      </trkpt>
      <trkpt lat="32.867652308195829" lon="-4.835917241871357">
        <ele>1416.6400000000001</ele>
        <time>2019-03-11T10:37:34Z</time>
      </trkpt>
      <trkpt lat="32.867666138336062" lon="-4.835652289912105">
        <ele>1416.6400000000001</ele>
        <time>2019-03-11T10:37:35Z</time>
      </trkpt>
      <trkpt lat="32.867925390601158" lon="-4.832789869979024">
        <ele>1416.6400000000001</ele>
        <time>2019-03-11T10:37:36Z</time>
      </trkpt>
      <trkpt lat="32.868456300348043" lon="-4.830609736964107">
        <ele>1416.6400000000001</ele>
        <time>2019-03-11T10:37:37Z</time>
      </trkpt>
      <trkpt lat="32.869260208681226" lon="-4.828693466261029">
        <ele>1416.6400000000001</ele>
        <time>2019-03-11T10:37:44Z</time>
      </trkpt>
      <trkpt lat="32.869329862296581" lon="-4.828467993065715">
        <ele>1416.6400000000001</ele>
        <time>2019-03-11T10:37:48Z</time>
      </trkpt>
      <trkpt lat="32.869378896430135" lon="-4.828232210129499">
        <ele>1417.1199999999999</ele>
        <time>2019-03-11T10:37:49Z</time>
      </trkpt>
      <trkpt lat="32.869403203949332" lon="-4.827992068603635">
        <ele>1417.1199999999999</ele>
        <time>2019-03-11T10:37:56Z</time>
      </trkpt>
      <trkpt lat="32.869411334395409" lon="-4.826578544452786">
        <ele>1417.1199999999999</ele>
        <time>2019-03-11T10:37:57Z</time>
      </trkpt>
      <trkpt lat="32.869399767369032" lon="-4.826191384345293">
        <ele>1417.1199999999999</ele>
        <time>2019-03-11T10:37:58Z</time>
      </trkpt>
      <trkpt lat="32.869384428486228" lon="-4.826137823984027">
        <ele>1417.5999999999999</ele>
        <time>2019-03-11T10:37:59Z</time>
      </trkpt>
      <trkpt lat="32.869267920032144" lon="-4.82585065998137">
        <ele>1417.5999999999999</ele>
        <time>2019-03-11T10:38:00Z</time>
      </trkpt>
      <trkpt lat="32.869254928082228" lon="-4.825792238116264">
        <ele>1418.5599999999999</ele>
        <time>2019-03-11T10:38:03Z</time>
      </trkpt>
      <trkpt lat="32.86924671381712" lon="-4.825727194547653">
        <ele>1418.5599999999999</ele>
        <time>2019-03-11T10:38:04Z</time>
      </trkpt>
      <trkpt lat="32.8692442830652" lon="-4.825657708570361">
        <ele>1419.52</ele>
        <time>2019-03-11T10:38:05Z</time>
      </trkpt>
      <trkpt lat="32.869242941960692" lon="-4.825585205107927">
        <ele>1419.52</ele>
        <time>2019-03-11T10:38:06Z</time>
      </trkpt>
      <trkpt lat="32.869226764887571" lon="-4.825352020561695">
        <ele>1420.49</ele>
        <time>2019-03-11T10:38:17Z</time>
      </trkpt>
      <trkpt lat="32.86920421756804" lon="-4.825274404138327">
        <ele>1420.97</ele>
        <time>2019-03-11T10:38:20Z</time>
      </trkpt>
      <trkpt lat="32.869175467640162" lon="-4.825196200981736">
        <ele>1422.4100000000001</ele>
        <time>2019-03-11T10:38:24Z</time>
      </trkpt>
      <trkpt lat="32.869142023846507" lon="-4.825119087472558">
        <ele>1422.4100000000001</ele>
        <time>2019-03-11T10:38:28Z</time>
      </trkpt>
      <trkpt lat="32.868849663063884" lon="-4.824069757014513">
        <ele>1421.9300000000001</ele>
        <time>2019-03-11T10:38:35Z</time>
      </trkpt>
      <trkpt lat="32.868696358054876" lon="-4.823726182803512">
        <ele>1423.8499999999999</ele>
        <time>2019-03-11T10:38:39Z</time>
      </trkpt>
      <trkpt lat="32.868532994762063" lon="-4.823217568919063">
        <ele>1423.8499999999999</ele>
        <time>2019-03-11T10:38:42Z</time>
      </trkpt>
      <trkpt lat="32.868313724175096" lon="-4.822765616700053">
        <ele>1425.29</ele>
        <time>2019-03-11T10:38:52Z</time>
      </trkpt>
      <trkpt lat="32.867974508553743" lon="-4.821913260966539">
        <ele>1427.7</ele>
        <time>2019-03-11T10:39:01Z</time>
      </trkpt>
      <trkpt lat="32.867743587121367" lon="-4.821512522175908">
        <ele>1429.1400000000001</ele>
        <time>2019-03-11T10:39:04Z</time>
      </trkpt>
      <trkpt lat="32.867583325132728" lon="-4.821213036775589">
        <ele>1429.1400000000001</ele>
        <time>2019-03-11T10:39:12Z</time>
      </trkpt>
      <trkpt lat="32.867047050967813" lon="-4.820004617795348">
        <ele>1430.0999999999999</ele>
        <time>2019-03-11T10:39:13Z</time>
      </trkpt>
      <trkpt lat="32.866761647164822" lon="-4.819152345880866">
        <ele>1431.54</ele>
        <time>2019-03-11T10:39:25Z</time>
      </trkpt>
      <trkpt lat="32.866700543090701" lon="-4.818945061415434">
        <ele>1433.46</ele>
        <time>2019-03-11T10:39:34Z</time>
      </trkpt>
      <trkpt lat="32.866282537579536" lon="-4.818400824442506">
        <ele>1433.9400000000001</ele>
        <time>2019-03-11T10:39:42Z</time>
      </trkpt>
      <trkpt lat="32.86624800413847" lon="-4.818295631557703">
        <ele>1434.4200000000001</ele>
        <time>2019-03-11T10:39:54Z</time>
      </trkpt>
      <trkpt lat="32.865538811311126" lon="-4.81699526309967">
        <ele>1435.3900000000001</ele>
        <time>2019-03-11T10:40:02Z</time>
      </trkpt>
      <trkpt lat="32.864862727001309" lon="-4.815897401422262">
        <ele>1436.8299999999999</ele>
        <time>2019-03-11T10:40:11Z</time>
      </trkpt>
      <trkpt lat="32.86453046835959" lon="-4.815293066203594">
        <ele>1437.3099999999999</ele>
        <time>2019-03-11T10:40:18Z</time>
      </trkpt>
      <trkpt lat="32.864301558583975" lon="-4.814771041274071">
        <ele>1439.23</ele>
        <time>2019-03-11T10:40:19Z</time>
      </trkpt>
      <trkpt lat="32.864013221114874" lon="-4.814289417117834">
        <ele>1440.1900000000001</ele>
        <time>2019-03-11T10:40:22Z</time>
      </trkpt>
      <trkpt lat="32.863356834277511" lon="-4.813487771898508">
        <ele>1442.5999999999999</ele>
        <time>2019-03-11T10:40:27Z</time>
      </trkpt>
      <trkpt lat="32.863004961982369" lon="-4.81252720579505">
        <ele>1443.0799999999999</ele>
        <time>2019-03-11T10:40:31Z</time>
      </trkpt>
      <trkpt lat="32.862928016111255" lon="-4.81241337954998">
        <ele>1445</ele>
        <time>2019-03-11T10:40:33Z</time>
      </trkpt>
      <trkpt lat="32.862724168226123" lon="-4.812101908028126">
        <ele>1445.48</ele>
        <time>2019-03-11T10:40:41Z</time>
      </trkpt>
      <trkpt lat="32.862473633140326" lon="-4.811580888926983">
        <ele>1445</ele>
        <time>2019-03-11T10:40:45Z</time>
      </trkpt>
      <trkpt lat="32.862084796652198" lon="-4.811245864257217">
        <ele>1445.96</ele>
        <time>2019-03-11T10:40:51Z</time>
      </trkpt>
      <trkpt lat="32.861907938495278" lon="-4.811111334711313">
        <ele>1445.48</ele>
        <time>2019-03-11T10:40:52Z</time>
      </trkpt>
      <trkpt lat="32.86136319860816" lon="-4.810663070529699">
        <ele>1444.04</ele>
        <time>2019-03-11T10:40:59Z</time>
      </trkpt>
      <trkpt lat="32.861139485612512" lon="-4.810200473293662">
        <ele>1443.0799999999999</ele>
        <time>2019-03-11T10:41:04Z</time>
      </trkpt>
      <trkpt lat="32.860735896974802" lon="-4.809939377009869">
        <ele>1443.0799999999999</ele>
        <time>2019-03-11T10:41:10Z</time>
      </trkpt>
      <trkpt lat="32.860675379633904" lon="-4.809975922107697">
        <ele>1443.5599999999999</ele>
        <time>2019-03-11T10:41:14Z</time>
      </trkpt>
      <trkpt lat="32.860157797113061" lon="-4.810146996751428">
        <ele>1444.52</ele>
        <time>2019-03-11T10:41:16Z</time>
      </trkpt>
      <trkpt lat="32.859730571508408" lon="-4.810132747516036">
        <ele>1445.48</ele>
        <time>2019-03-11T10:41:26Z</time>
      </trkpt>
      <trkpt lat="32.859247690066695" lon="-4.810318322852254">
        <ele>1445.48</ele>
        <time>2019-03-11T10:41:34Z</time>
      </trkpt>
      <trkpt lat="32.859046943485737" lon="-4.810279682278633">
        <ele>1445.48</ele>
        <time>2019-03-11T10:41:38Z</time>
      </trkpt>
      <trkpt lat="32.858978547155857" lon="-4.810223607346416">
        <ele>1445.48</ele>
        <time>2019-03-11T10:41:43Z</time>
      </trkpt>
      <trkpt lat="32.858325764536858" lon="-4.809895874932408">
        <ele>1445.48</ele>
        <time>2019-03-11T10:41:46Z</time>
      </trkpt>
      <trkpt lat="32.857610872015357" lon="-4.809414502233267">
        <ele>1446.4400000000001</ele>
        <time>2019-03-11T10:41:55Z</time>
      </trkpt>
      <trkpt lat="32.857333933934569" lon="-4.809111580252647">
        <ele>1445.96</ele>
        <time>2019-03-11T10:42:01Z</time>
      </trkpt>
      <trkpt lat="32.857015840709209" lon="-4.808698184788227">
        <ele>1445</ele>
        <time>2019-03-11T10:42:10Z</time>
      </trkpt>
      <trkpt lat="32.856794307008386" lon="-4.808428706601262">
        <ele>1445</ele>
        <time>2019-03-11T10:42:15Z</time>
      </trkpt>
      <trkpt lat="32.856167340651155" lon="-4.807325145229697">
        <ele>1445</ele>
        <time>2019-03-11T10:42:17Z</time>
      </trkpt>
      <trkpt lat="32.855866681784391" lon="-4.806469352915883">
        <ele>1445</ele>
        <time>2019-03-11T10:42:23Z</time>
      </trkpt>
      <trkpt lat="32.855119938030839" lon="-4.805163620039821">
        <ele>1446.9200000000001</ele>
        <time>2019-03-11T10:42:28Z</time>
      </trkpt>
      <trkpt lat="32.854825900867581" lon="-4.804342277348042">
        <ele>1447.8800000000001</ele>
        <time>2019-03-11T10:42:31Z</time>
      </trkpt>
      <trkpt lat="32.854774268344045" lon="-4.804032566025853">
        <ele>1449.3199999999999</ele>
        <time>2019-03-11T10:42:33Z</time>
      </trkpt>
      <trkpt lat="32.854575701057911" lon="-4.803257742896676">
        <ele>1450.29</ele>
        <time>2019-03-11T10:42:37Z</time>
      </trkpt>
      <trkpt lat="32.854480398818851" lon="-4.80254402384162">
        <ele>1451.73</ele>
        <time>2019-03-11T10:42:42Z</time>
      </trkpt>
      <trkpt lat="32.85435332916677" lon="-4.802124677225947">
        <ele>1453.1700000000001</ele>
        <time>2019-03-11T10:42:47Z</time>
      </trkpt>
      <trkpt lat="32.854313934221864" lon="-4.801865005865693">
        <ele>1455.5699999999999</ele>
        <time>2019-03-11T10:42:51Z</time>
      </trkpt>
      <trkpt lat="32.854341426864266" lon="-4.801409617066383">
        <ele>1456.05</ele>
        <time>2019-03-11T10:42:59Z</time>
      </trkpt>
      <trkpt lat="32.854386856779456" lon="-4.80093888938427">
        <ele>1457.02</ele>
        <time>2019-03-11T10:43:01Z</time>
      </trkpt>
      <trkpt lat="32.854494480416179" lon="-4.800349976867437">
        <ele>1457.5</ele>
        <time>2019-03-11T10:43:08Z</time>
      </trkpt>
      <trkpt lat="32.85443102940917" lon="-4.799934150651097">
        <ele>1458.46</ele>
        <time>2019-03-11T10:43:11Z</time>
      </trkpt>
      <trkpt lat="32.854034062474966" lon="-4.798849113285542">
        <ele>1459.4200000000001</ele>
        <time>2019-03-11T10:43:24Z</time>
      </trkpt>
      <trkpt lat="32.853929372504354" lon="-4.798590363934636">
        <ele>1460.8599999999999</ele>
        <time>2019-03-11T10:43:28Z</time>
      </trkpt>
      <trkpt lat="32.853543972596526" lon="-4.797867843881249">
        <ele>1462.3</ele>
        <time>2019-03-11T10:43:37Z</time>
      </trkpt>
      <trkpt lat="32.853380693122745" lon="-4.797550085932016">
        <ele>1464.71</ele>
        <time>2019-03-11T10:43:41Z</time>
      </trkpt>
      <trkpt lat="32.852717516943812" lon="-4.796082582324743">
        <ele>1465.1900000000001</ele>
        <time>2019-03-11T10:43:47Z</time>
      </trkpt>
      <trkpt lat="32.85241543315351" lon="-4.795850655063987">
        <ele>1467.5899999999999</ele>
        <time>2019-03-11T10:43:51Z</time>
      </trkpt>
      <trkpt lat="32.851527035236359" lon="-4.79536660015583">
        <ele>1468.55</ele>
        <time>2019-03-11T10:43:58Z</time>
      </trkpt>
      <trkpt lat="32.851180694997311" lon="-4.795048674568534">
        <ele>1469.03</ele>
        <time>2019-03-11T10:44:07Z</time>
      </trkpt>
      <trkpt lat="32.850706111639738" lon="-4.794356497004628">
        <ele>1469.51</ele>
        <time>2019-03-11T10:44:17Z</time>
      </trkpt>
      <trkpt lat="32.850302439182997" lon="-4.794085090979934">
        <ele>1470.95</ele>
        <time>2019-03-11T10:44:20Z</time>
      </trkpt>
      <trkpt lat="32.849609758704901" lon="-4.793524341657758">
        <ele>1470.95</ele>
        <time>2019-03-11T10:44:29Z</time>
      </trkpt>
      <trkpt lat="32.849000310525298" lon="-4.792323801666498">
        <ele>1472.8800000000001</ele>
        <time>2019-03-11T10:44:31Z</time>
      </trkpt>
      <trkpt lat="32.848147368058562" lon="-4.790807850658894">
        <ele>1477.6800000000001</ele>
        <time>2019-03-11T10:44:34Z</time>
      </trkpt>
      <trkpt lat="32.847905047237873" lon="-4.790301164612174">
        <ele>1480.0899999999999</ele>
        <time>2019-03-11T10:44:37Z</time>
      </trkpt>
      <trkpt lat="32.847098037600517" lon="-4.788892082870007">
        <ele>1482.01</ele>
        <time>2019-03-11T10:44:43Z</time>
      </trkpt>
      <trkpt lat="32.846925789490342" lon="-4.788623107597232">
        <ele>1484.4100000000001</ele>
        <time>2019-03-11T10:44:44Z</time>
      </trkpt>
      <trkpt lat="32.846638038754463" lon="-4.788302667438984">
        <ele>1484.8900000000001</ele>
        <time>2019-03-11T10:44:53Z</time>
      </trkpt>
      <trkpt lat="32.846330171450973" lon="-4.788037380203605">
        <ele>1487.3</ele>
        <time>2019-03-11T10:45:06Z</time>
      </trkpt>
      <trkpt lat="32.845896491780877" lon="-4.787265742197633">
        <ele>1487.3</ele>
        <time>2019-03-11T10:45:13Z</time>
      </trkpt>
      <trkpt lat="32.845854414626956" lon="-4.787094919010997">
        <ele>1488.26</ele>
        <time>2019-03-11T10:45:20Z</time>
      </trkpt>
      <trkpt lat="32.845391146838665" lon="-4.7854576818645">
        <ele>1491.1400000000001</ele>
        <time>2019-03-11T10:45:26Z</time>
      </trkpt>
      <trkpt lat="32.844309881329536" lon="-4.782962137833238">
        <ele>1492.5799999999999</ele>
        <time>2019-03-11T10:45:30Z</time>
      </trkpt>
      <trkpt lat="32.843707976862788" lon="-4.781734189018607">
        <ele>1490.1800000000001</ele>
        <time>2019-03-11T10:45:41Z</time>
      </trkpt>
      <trkpt lat="32.843292569741607" lon="-4.780866075307131">
        <ele>1488.74</ele>
        <time>2019-03-11T10:45:42Z</time>
      </trkpt>
      <trkpt lat="32.84270835109055" lon="-4.780392581596971">
        <ele>1481.53</ele>
        <time>2019-03-11T10:45:52Z</time>
      </trkpt>
      <trkpt lat="32.842253716662526" lon="-4.780172137543559">
        <ele>1474.3199999999999</ele>
        <time>2019-03-11T10:45:59Z</time>
      </trkpt>
      <trkpt lat="32.840987797826529" lon="-4.779736613854766">
        <ele>1471.9200000000001</ele>
        <time>2019-03-11T10:46:08Z</time>
      </trkpt>
      <trkpt lat="32.840873384848237" lon="-4.779699230566621">
        <ele>1469.03</ele>
        <time>2019-03-11T10:46:15Z</time>
      </trkpt>
      <trkpt lat="32.839719783514738" lon="-4.779242500662804">
        <ele>1468.0699999999999</ele>
        <time>2019-03-11T10:46:17Z</time>
      </trkpt>
      <trkpt lat="32.839154172688723" lon="-4.778707651421428">
        <ele>1466.6300000000001</ele>
        <time>2019-03-11T10:46:27Z</time>
      </trkpt>
      <trkpt lat="32.838641032576561" lon="-4.777641221880913">
        <ele>1461.8199999999999</ele>
        <time>2019-03-11T10:46:41Z</time>
      </trkpt>
      <trkpt lat="32.838392509147525" lon="-4.777018865570426">
        <ele>1461.3399999999999</ele>
        <time>2019-03-11T10:46:47Z</time>
      </trkpt>
      <trkpt lat="32.838360238820314" lon="-4.776888694614172">
        <ele>1457.98</ele>
        <time>2019-03-11T10:46:59Z</time>
      </trkpt>
      <trkpt lat="32.838081959635019" lon="-4.776202300563455">
        <ele>1454.6099999999999</ele>
        <time>2019-03-11T10:58:45Z</time>
      </trkpt>
      <trkpt lat="32.837679795920849" lon="-4.775056159123778">
        <ele>1450.29</ele>
        <time>2019-03-11T10:58:56Z</time>
      </trkpt>
      <trkpt lat="32.837481563910842" lon="-4.774589538574219">
        <ele>1447.8800000000001</ele>
        <time>2019-03-11T10:59:10Z</time>
      </trkpt>
      <trkpt lat="32.837274949997663" lon="-4.773885458707809">
        <ele>1446.4400000000001</ele>
        <time>2019-03-11T10:59:12Z</time>
      </trkpt>
      <trkpt lat="32.837217869237065" lon="-4.77363333106041">
        <ele>1445.48</ele>
        <time>2019-03-11T10:59:25Z</time>
      </trkpt>
      <trkpt lat="32.836978314444423" lon="-4.773035617545247">
        <ele>1442.1099999999999</ele>
        <time>2019-03-11T10:59:35Z</time>
      </trkpt>
      <trkpt lat="32.836165521293879" lon="-4.772104723379016">
        <ele>1441.1500000000001</ele>
        <time>2019-03-11T10:59:50Z</time>
      </trkpt>
      <trkpt lat="32.836010372266173" lon="-4.771994249895215">
        <ele>1439.71</ele>
        <time>2019-03-11T10:59:58Z</time>
      </trkpt>
      <trkpt lat="32.834759457036853" lon="-4.771220432594419">
        <ele>1437.3099999999999</ele>
        <time>2019-03-11T11:00:36Z</time>
      </trkpt>
      <trkpt lat="32.833902994170785" lon="-4.770709807053208">
        <ele>1434.4200000000001</ele>
        <time>2019-03-11T11:00:58Z</time>
      </trkpt>
      <trkpt lat="32.833094140514731" lon="-4.770172275602818">
        <ele>1430.5799999999999</ele>
        <time>2019-03-11T11:01:17Z</time>
      </trkpt>
      <trkpt lat="32.832662472501397" lon="-4.769906317815185">
        <ele>1423.8499999999999</ele>
        <time>2019-03-11T11:01:29Z</time>
      </trkpt>
      <trkpt lat="32.832675212994218" lon="-4.769912688061595">
        <ele>1419.52</ele>
        <time>2019-03-11T11:01:43Z</time>
      </trkpt>
      <trkpt lat="32.83251604065299" lon="-4.769819062203169">
        <ele>1415.2</ele>
        <time>2019-03-11T11:01:52Z</time>
      </trkpt>
      <trkpt lat="32.831801064312458" lon="-4.769371971487999">
        <ele>1411.8299999999999</ele>
        <time>2019-03-11T11:02:05Z</time>
      </trkpt>
      <trkpt lat="32.831799974665046" lon="-4.769367277622223">
        <ele>1412.3099999999999</ele>
        <time>2019-03-11T11:02:16Z</time>
      </trkpt>
      <trkpt lat="32.831566287204623" lon="-4.769259318709374">
        <ele>1413.76</ele>
        <time>2019-03-11T11:02:30Z</time>
      </trkpt>
      <trkpt lat="32.830940997228026" lon="-4.768857071176171">
        <ele>1414.72</ele>
        <time>2019-03-11T11:02:42Z</time>
      </trkpt>
      <trkpt lat="32.830028794705868" lon="-4.7682926338166">
        <ele>1414.72</ele>
        <time>2019-03-11T11:02:53Z</time>
      </trkpt>
      <trkpt lat="32.829106282442808" lon="-4.767777482047677">
        <ele>1413.76</ele>
        <time>2019-03-11T11:03:02Z</time>
      </trkpt>
      <trkpt lat="32.827450772747397" lon="-4.767622835934162">
        <ele>1412.3099999999999</ele>
        <time>2019-03-11T11:03:09Z</time>
      </trkpt>
      <trkpt lat="32.826037500053644" lon="-4.767537424340844">
        <ele>1413.28</ele>
        <time>2019-03-11T11:03:15Z</time>
      </trkpt>
      <trkpt lat="32.824592795222998" lon="-4.76751085370779">
        <ele>1411.8299999999999</ele>
        <time>2019-03-11T11:03:18Z</time>
      </trkpt>
      <trkpt lat="32.823552684858441" lon="-4.767552092671394">
        <ele>1408.47</ele>
        <time>2019-03-11T11:03:28Z</time>
      </trkpt>
      <trkpt lat="32.82308547757566" lon="-4.767595762386918">
        <ele>1407.03</ele>
        <time>2019-03-11T11:03:32Z</time>
      </trkpt>
      <trkpt lat="32.822673004120588" lon="-4.767610598355532">
        <ele>1407.51</ele>
        <time>2019-03-11T11:03:42Z</time>
      </trkpt>
      <trkpt lat="32.822453649714589" lon="-4.767666757106781">
        <ele>1409.4300000000001</ele>
        <time>2019-03-11T11:03:52Z</time>
      </trkpt>
      <trkpt lat="32.821356123313308" lon="-4.767754767090082">
        <ele>1407.03</ele>
        <time>2019-03-11T11:04:01Z</time>
      </trkpt>
      <trkpt lat="32.820854969322681" lon="-4.767771447077394">
        <ele>1406.55</ele>
        <time>2019-03-11T11:04:13Z</time>
      </trkpt>
      <trkpt lat="32.819687873125076" lon="-4.76782894693315">
        <ele>1409.4300000000001</ele>
        <time>2019-03-11T11:04:21Z</time>
      </trkpt>
      <trkpt lat="32.81867315992713" lon="-4.767904384061694">
        <ele>1411.3499999999999</ele>
        <time>2019-03-11T11:04:29Z</time>
      </trkpt>
      <trkpt lat="32.817596336826682" lon="-4.76796573959291">
        <ele>1412.3099999999999</ele>
        <time>2019-03-11T11:04:40Z</time>
      </trkpt>
      <trkpt lat="32.816094802692533" lon="-4.767984263598919">
        <ele>1410.3900000000001</ele>
        <time>2019-03-11T11:04:50Z</time>
      </trkpt>
      <trkpt lat="32.8154057264328" lon="-4.768017958849669">
        <ele>1410.3900000000001</ele>
        <time>2019-03-11T11:04:57Z</time>
      </trkpt>
      <trkpt lat="32.814837098121643" lon="-4.768085181713104">
        <ele>1411.3499999999999</ele>
        <time>2019-03-11T11:05:05Z</time>
      </trkpt>
      <trkpt lat="32.813618453219533" lon="-4.768271008506417">
        <ele>1412.3099999999999</ele>
        <time>2019-03-11T11:05:11Z</time>
      </trkpt>
      <trkpt lat="32.812269302085042" lon="-4.768365472555161">
        <ele>1413.28</ele>
        <time>2019-03-11T11:05:19Z</time>
      </trkpt>
      <trkpt lat="32.811685334891081" lon="-4.768432024866343">
        <ele>1416.1600000000001</ele>
        <time>2019-03-11T11:05:28Z</time>
      </trkpt>
      <trkpt lat="32.810896513983607" lon="-4.768530931323767">
        <ele>1418.0799999999999</ele>
        <time>2019-03-11T11:05:32Z</time>
      </trkpt>
      <trkpt lat="32.810773383826017" lon="-4.768272265791893">
        <ele>1418.0799999999999</ele>
        <time>2019-03-11T11:05:36Z</time>
      </trkpt>
      <trkpt lat="32.810948733240366" lon="-4.767506327480078">
        <ele>1419.04</ele>
        <time>2019-03-11T11:05:40Z</time>
      </trkpt>
      <trkpt lat="32.811207650229335" lon="-4.766288520768285">
        <ele>1420</ele>
        <time>2019-03-11T11:05:45Z</time>
      </trkpt>
      <trkpt lat="32.81132617034018" lon="-4.765799352899194">
        <ele>1422.4100000000001</ele>
        <time>2019-03-11T11:05:55Z</time>
      </trkpt>
      <trkpt lat="32.811395572498441" lon="-4.765367768704891">
        <ele>1425.77</ele>
        <time>2019-03-11T11:06:03Z</time>
      </trkpt>
      <trkpt lat="32.811485761776567" lon="-4.764995444566011">
        <ele>1426.25</ele>
        <time>2019-03-11T11:06:04Z</time>
      </trkpt>
      <trkpt lat="32.811609897762537" lon="-4.764444837346673">
        <ele>1427.7</ele>
        <time>2019-03-11T11:06:08Z</time>
      </trkpt>
      <trkpt lat="32.811871999874711" lon="-4.763313783332706">
        <ele>1428.1800000000001</ele>
        <time>2019-03-11T11:06:13Z</time>
      </trkpt>
      <trkpt lat="32.812031172215939" lon="-4.762569051235914">
        <ele>1427.21</ele>
        <time>2019-03-11T11:06:23Z</time>
      </trkpt>
      <trkpt lat="32.812039805576205" lon="-4.762519346550107">
        <ele>1427.7</ele>
        <time>2019-03-11T11:06:35Z</time>
      </trkpt>
      <trkpt lat="32.812110632658005" lon="-4.762304350733757">
        <ele>1429.6199999999999</ele>
        <time>2019-03-11T11:06:38Z</time>
      </trkpt>
      <trkpt lat="32.812244994565845" lon="-4.761967901140451">
        <ele>1431.0599999999999</ele>
        <time>2019-03-11T11:06:48Z</time>
      </trkpt>
      <trkpt lat="32.812481196597219" lon="-4.761004485189915">
        <ele>1431.0599999999999</ele>
        <time>2019-03-11T11:06:56Z</time>
      </trkpt>
      <trkpt lat="32.81277590431273" lon="-4.759791539981961">
        <ele>1430.0999999999999</ele>
        <time>2019-03-11T11:07:27Z</time>
      </trkpt>
      <trkpt lat="32.812836840748787" lon="-4.759661369025707">
        <ele>1427.7</ele>
        <time>2019-03-11T11:07:30Z</time>
      </trkpt>
      <trkpt lat="32.813258282840252" lon="-4.75924126803875">
        <ele>1418.0799999999999</ele>
        <time>2019-03-11T11:07:39Z</time>
      </trkpt>
      <trkpt lat="32.813352579250932" lon="-4.759116796776652">
        <ele>1408.47</ele>
        <time>2019-03-11T11:07:47Z</time>
      </trkpt>
      <trkpt lat="32.813385771587491" lon="-4.759007999673486">
        <ele>1402.7</ele>
        <time>2019-03-11T11:08:00Z</time>
      </trkpt>
      <trkpt lat="32.813445283100009" lon="-4.758906159549952">
        <ele>1399.8199999999999</ele>
        <time>2019-03-11T11:08:17Z</time>
      </trkpt>
      <trkpt lat="32.814050288870931" lon="-4.758321102708578">
        <ele>1396.45</ele>
        <time>2019-03-11T11:08:32Z</time>
      </trkpt>
      <trkpt lat="32.81468010507524" lon="-4.757410828024149">
        <ele>1390.2</ele>
        <time>2019-03-11T11:08:43Z</time>
      </trkpt>
      <trkpt lat="32.815600018948317" lon="-4.755345107987523">
        <ele>1393.0899999999999</ele>
        <time>2019-03-11T11:08:53Z</time>
      </trkpt>
      <trkpt lat="32.817000467330217" lon="-4.752239277586341">
        <ele>1399.8199999999999</ele>
        <time>2019-03-11T11:08:59Z</time>
      </trkpt>
      <trkpt lat="32.818571655079722" lon="-4.749482972547412">
        <ele>1406.55</ele>
        <time>2019-03-11T11:09:03Z</time>
      </trkpt>
      <trkpt lat="32.819802118465304" lon="-4.7474355250597">
        <ele>1404.6199999999999</ele>
        <time>2019-03-11T11:09:09Z</time>
      </trkpt>
      <trkpt lat="32.821479756385088" lon="-4.746114956215024">
        <ele>1401.74</ele>
        <time>2019-03-11T11:09:19Z</time>
      </trkpt>
      <trkpt lat="32.822475275024772" lon="-4.745371649041772">
        <ele>1400.3</ele>
        <time>2019-03-11T11:09:31Z</time>
      </trkpt>
      <trkpt lat="32.823051614686847" lon="-4.745245836675167">
        <ele>1400.3</ele>
        <time>2019-03-11T11:09:38Z</time>
      </trkpt>
      <trkpt lat="32.8239606320858" lon="-4.745051125064492">
        <ele>1402.22</ele>
        <time>2019-03-11T11:09:48Z</time>
      </trkpt>
      <trkpt lat="32.825652351602912" lon="-4.743784703314304">
        <ele>1412.79</ele>
        <time>2019-03-11T11:09:52Z</time>
      </trkpt>
      <trkpt lat="32.827847069129348" lon="-4.741913275793195">
        <ele>1414.24</ele>
        <time>2019-03-11T11:10:03Z</time>
      </trkpt>
      <trkpt lat="32.829193035140634" lon="-4.740950111299753">
        <ele>1411.8299999999999</ele>
        <time>2019-03-11T11:10:19Z</time>
      </trkpt>
      <trkpt lat="32.831175690516829" lon="-4.739838084205985">
        <ele>1402.22</ele>
        <time>2019-03-11T11:10:38Z</time>
      </trkpt>
      <trkpt lat="32.831644909456372" lon="-4.739279262721539">
        <ele>1397.8900000000001</ele>
        <time>2019-03-11T11:11:00Z</time>
      </trkpt>
      <trkpt lat="32.832800103351474" lon="-4.737016232684255">
        <ele>1401.74</ele>
        <time>2019-03-11T11:11:21Z</time>
      </trkpt>
      <trkpt lat="32.834759959951043" lon="-4.733201628550887">
        <ele>1404.6199999999999</ele>
        <time>2019-03-11T11:11:29Z</time>
      </trkpt>
      <trkpt lat="32.836998347193003" lon="-4.728687973693013">
        <ele>1404.6199999999999</ele>
        <time>2019-03-11T11:11:39Z</time>
      </trkpt>
      <trkpt lat="32.839591959491372" lon="-4.723365465179086">
        <ele>1405.0999999999999</ele>
        <time>2019-03-11T11:11:57Z</time>
      </trkpt>
      <trkpt lat="32.84210879355669" lon="-4.718170529231429">
        <ele>1405.0999999999999</ele>
        <time>2019-03-11T11:12:14Z</time>
      </trkpt>
      <trkpt lat="32.842889819294214" lon="-4.716196842491627">
        <ele>1403.6600000000001</ele>
        <time>2019-03-11T11:12:24Z</time>
      </trkpt>
      <trkpt lat="32.843681154772639" lon="-4.713589148595929">
        <ele>1401.74</ele>
        <time>2019-03-11T11:12:33Z</time>
      </trkpt>
      <trkpt lat="32.845800016075373" lon="-4.709236174821854">
        <ele>1397.4100000000001</ele>
        <time>2019-03-11T11:12:36Z</time>
      </trkpt>
      <trkpt lat="32.847594665363431" lon="-4.70529031008482">
        <ele>1395.01</ele>
        <time>2019-03-11T11:12:40Z</time>
      </trkpt>
      <trkpt lat="32.848521117120981" lon="-4.70321855507791">
        <ele>1393.0899999999999</ele>
        <time>2019-03-11T11:12:51Z</time>
      </trkpt>
      <trkpt lat="32.84912696108222" lon="-4.701870661228895">
        <ele>1392.1300000000001</ele>
        <time>2019-03-11T11:13:02Z</time>
      </trkpt>
      <trkpt lat="32.849249253049493" lon="-4.701594393700361">
        <ele>1390.2</ele>
        <time>2019-03-11T11:13:13Z</time>
      </trkpt>
      <trkpt lat="32.849258556962013" lon="-4.701418709009886">
        <ele>1387.3199999999999</ele>
        <time>2019-03-11T11:13:29Z</time>
      </trkpt>
      <trkpt lat="32.849182030186057" lon="-4.70091755501926">
        <ele>1384.9200000000001</ele>
        <time>2019-03-11T11:13:39Z</time>
      </trkpt>
      <trkpt lat="32.848959993571043" lon="-4.699953887611628">
        <ele>1382.51</ele>
        <time>2019-03-11T11:13:45Z</time>
      </trkpt>
      <trkpt lat="32.848735023289919" lon="-4.698809925466776">
        <ele>1381.55</ele>
        <time>2019-03-11T11:13:48Z</time>
      </trkpt>
      <trkpt lat="32.848293045535684" lon="-4.696856942027807">
        <ele>1382.03</ele>
        <time>2019-03-11T11:13:56Z</time>
      </trkpt>
      <trkpt lat="32.848004288971424" lon="-4.695535534992814">
        <ele>1384.4400000000001</ele>
        <time>2019-03-11T11:14:04Z</time>
      </trkpt>
      <trkpt lat="32.847943771630526" lon="-4.694778984412551">
        <ele>1386.8399999999999</ele>
        <time>2019-03-11T11:14:10Z</time>
      </trkpt>
      <trkpt lat="32.847995068877935" lon="-4.694443708285689">
        <ele>1384.4400000000001</ele>
        <time>2019-03-11T11:14:17Z</time>
      </trkpt>
      <trkpt lat="32.848125072196126" lon="-4.693569643422961">
        <ele>1382.03</ele>
        <time>2019-03-11T11:14:21Z</time>
      </trkpt>
      <trkpt lat="32.848415169864893" lon="-4.692610837519169">
        <ele>1381.0699999999999</ele>
        <time>2019-03-11T11:14:30Z</time>
      </trkpt>
      <trkpt lat="32.848549364134669" lon="-4.691979261115193">
        <ele>1380.5899999999999</ele>
        <time>2019-03-11T11:14:40Z</time>
      </trkpt>
      <trkpt lat="32.848680457100272" lon="-4.691403675824404">
        <ele>1384.4400000000001</ele>
        <time>2019-03-11T11:14:50Z</time>
      </trkpt>
      <trkpt lat="32.848709123209119" lon="-4.691184489056468">
        <ele>1386.3599999999999</ele>
        <time>2019-03-11T11:15:03Z</time>
      </trkpt>
      <trkpt lat="32.84876050427556" lon="-4.690703535452485">
        <ele>1386.8399999999999</ele>
        <time>2019-03-11T11:15:12Z</time>
      </trkpt>
      <trkpt lat="32.849036268889904" lon="-4.689628891646862">
        <ele>1387.8</ele>
        <time>2019-03-11T11:15:24Z</time>
      </trkpt>
      <trkpt lat="32.849390739575028" lon="-4.68819759786129">
        <ele>1389.72</ele>
        <time>2019-03-11T11:15:31Z</time>
      </trkpt>
      <trkpt lat="32.850027596578002" lon="-4.686167584732175">
        <ele>1395.01</ele>
        <time>2019-03-11T11:15:40Z</time>
      </trkpt>
      <trkpt lat="32.850458174943924" lon="-4.684786666184664">
        <ele>1397.8900000000001</ele>
        <time>2019-03-11T11:15:46Z</time>
      </trkpt>
      <trkpt lat="32.850896045565605" lon="-4.68327859416604">
        <ele>1398.8599999999999</ele>
        <time>2019-03-11T11:15:48Z</time>
      </trkpt>
      <trkpt lat="32.851173486560583" lon="-4.682339737191796">
        <ele>1402.22</ele>
        <time>2019-03-11T11:15:51Z</time>
      </trkpt>
      <trkpt lat="32.851628456264734" lon="-4.681076584383845">
        <ele>1406.0699999999999</ele>
        <time>2019-03-11T11:16:01Z</time>
      </trkpt>
      <trkpt lat="32.851864490658045" lon="-4.680210398510099">
        <ele>1406.55</ele>
        <time>2019-03-11T11:16:12Z</time>
      </trkpt>
      <trkpt lat="32.851919392123818" lon="-4.679927676916122">
        <ele>1409.9100000000001</ele>
        <time>2019-03-11T11:16:19Z</time>
      </trkpt>
      <trkpt lat="32.852040678262711" lon="-4.679611092433333">
        <ele>1413.28</ele>
        <time>2019-03-11T11:16:22Z</time>
      </trkpt>
      <trkpt lat="32.852467065677047" lon="-4.678351208567619">
        <ele>1410.8699999999999</ele>
        <time>2019-03-11T11:16:31Z</time>
      </trkpt>
      <trkpt lat="32.853099228814244" lon="-4.67633368447423">
        <ele>1408.95</ele>
        <time>2019-03-11T11:16:41Z</time>
      </trkpt>
      <trkpt lat="32.853423524647951" lon="-4.675207659602165">
        <ele>1407.51</ele>
        <time>2019-03-11T11:16:43Z</time>
      </trkpt>
      <trkpt lat="32.853452526032925" lon="-4.674868527799845">
        <ele>1405.0999999999999</ele>
        <time>2019-03-11T11:16:53Z</time>
      </trkpt>
      <trkpt lat="32.853700127452612" lon="-4.673898322507739">
        <ele>1402.22</ele>
        <time>2019-03-11T11:17:07Z</time>
      </trkpt>
      <trkpt lat="32.854066835716367" lon="-4.672677079215646">
        <ele>1402.22</ele>
        <time>2019-03-11T11:17:16Z</time>
      </trkpt>
      <trkpt lat="32.854143278673291" lon="-4.67248672619462">
        <ele>1402.7</ele>
        <time>2019-03-11T11:17:22Z</time>
      </trkpt>
      <trkpt lat="32.854499677196145" lon="-4.671257352456451">
        <ele>1403.6600000000001</ele>
        <time>2019-03-11T11:17:25Z</time>
      </trkpt>
      <trkpt lat="32.855128655210137" lon="-4.669272601604462">
        <ele>1403.6600000000001</ele>
        <time>2019-03-11T11:17:33Z</time>
      </trkpt>
      <trkpt lat="32.855515731498599" lon="-4.667955972254276">
        <ele>1403.6600000000001</ele>
        <time>2019-03-11T11:17:41Z</time>
      </trkpt>
      <trkpt lat="32.85573810338974" lon="-4.667178634554148">
        <ele>1400.78</ele>
        <time>2019-03-11T11:17:47Z</time>
      </trkpt>
      <trkpt lat="32.855888055637479" lon="-4.666874036192894">
        <ele>1400.78</ele>
        <time>2019-03-11T11:17:53Z</time>
      </trkpt>
      <trkpt lat="32.856087796390057" lon="-4.666060991585255">
        <ele>1401.74</ele>
        <time>2019-03-11T11:17:58Z</time>
      </trkpt>
      <trkpt lat="32.856446793302894" lon="-4.664863971993327">
        <ele>1401.74</ele>
        <time>2019-03-11T11:18:00Z</time>
      </trkpt>
      <trkpt lat="32.856646701693535" lon="-4.664162322878838">
        <ele>1401.26</ele>
        <time>2019-03-11T11:18:03Z</time>
      </trkpt>
      <trkpt lat="32.856821464374661" lon="-4.66360199265182">
        <ele>1397.4100000000001</ele>
        <time>2019-03-11T11:18:11Z</time>
      </trkpt>
      <trkpt lat="32.856803862378001" lon="-4.663151046261191">
        <ele>1393.5699999999999</ele>
        <time>2019-03-11T11:18:15Z</time>
      </trkpt>
      <trkpt lat="32.856717612594366" lon="-4.662947114557028">
        <ele>1394.05</ele>
        <time>2019-03-11T11:18:24Z</time>
      </trkpt>
      <trkpt lat="32.856627004221082" lon="-4.662618041038513">
        <ele>1393.5699999999999</ele>
        <time>2019-03-11T11:18:25Z</time>
      </trkpt>
      <trkpt lat="32.85632005892694" lon="-4.66173199005425">
        <ele>1392.1300000000001</ele>
        <time>2019-03-11T11:18:29Z</time>
      </trkpt>
      <trkpt lat="32.856247639283538" lon="-4.661343572661281">
        <ele>1390.6800000000001</ele>
        <time>2019-03-11T11:18:38Z</time>
      </trkpt>
      <trkpt lat="32.855964247137308" lon="-4.66026658192277">
        <ele>1389.72</ele>
        <time>2019-03-11T11:18:45Z</time>
      </trkpt>
      <trkpt lat="32.855931725353003" lon="-4.660144038498402">
        <ele>1385.4000000000001</ele>
        <time>2019-03-11T11:18:53Z</time>
      </trkpt>
      <trkpt lat="32.855921499431133" lon="-4.659626120701432">
        <ele>1382.51</ele>
        <time>2019-03-11T11:18:56Z</time>
      </trkpt>
      <trkpt lat="32.856157198548317" lon="-4.658506130799651">
        <ele>1382.03</ele>
        <time>2019-03-11T11:19:02Z</time>
      </trkpt>
      <trkpt lat="32.856408907100558" lon="-4.657347416505218">
        <ele>1380.5899999999999</ele>
        <time>2019-03-11T11:19:06Z</time>
      </trkpt>
      <trkpt lat="32.856363644823432" lon="-4.656056603416801">
        <ele>1380.5899999999999</ele>
        <time>2019-03-11T11:19:11Z</time>
      </trkpt>
      <trkpt lat="32.856360543519258" lon="-4.655546396970749">
        <ele>1378.6700000000001</ele>
        <time>2019-03-11T11:19:21Z</time>
      </trkpt>
      <trkpt lat="32.856627004221082" lon="-4.65502705425024">
        <ele>1376.75</ele>
        <time>2019-03-11T11:19:31Z</time>
      </trkpt>
      <trkpt lat="32.857042578980327" lon="-4.654947593808174">
        <ele>1374.8199999999999</ele>
        <time>2019-03-11T11:19:32Z</time>
      </trkpt>
      <trkpt lat="32.857373328879476" lon="-4.654659926891327">
        <ele>1373.3800000000001</ele>
        <time>2019-03-11T11:19:36Z</time>
      </trkpt>
      <trkpt lat="32.857884038239717" lon="-4.653351595625281">
        <ele>1372.4200000000001</ele>
        <time>2019-03-11T11:19:40Z</time>
      </trkpt>
      <trkpt lat="32.858385695144534" lon="-4.652178715914488">
        <ele>1372.4200000000001</ele>
        <time>2019-03-11T11:19:49Z</time>
      </trkpt>
      <trkpt lat="32.858429700136185" lon="-4.65208450332284">
        <ele>1373.3800000000001</ele>
        <time>2019-03-11T11:19:59Z</time>
      </trkpt>
      <trkpt lat="32.858563307672739" lon="-4.651688793674111">
        <ele>1373.3800000000001</ele>
        <time>2019-03-11T11:20:03Z</time>
      </trkpt>
      <trkpt lat="32.858697837218642" lon="-4.65127288363874">
        <ele>1372.4200000000001</ele>
        <time>2019-03-11T11:20:06Z</time>
      </trkpt>
      <trkpt lat="32.859198320657015" lon="-4.650189690291882">
        <ele>1370.5</ele>
        <time>2019-03-11T11:20:15Z</time>
      </trkpt>
      <trkpt lat="32.859575506299734" lon="-4.648851687088609">
        <ele>1368.0899999999999</ele>
        <time>2019-03-11T11:20:23Z</time>
      </trkpt>
      <trkpt lat="32.859708443284035" lon="-4.648382551968098">
        <ele>1367.6099999999999</ele>
        <time>2019-03-11T11:20:31Z</time>
      </trkpt>
      <trkpt lat="32.859783796593547" lon="-4.648048281669617">
        <ele>1361.3599999999999</ele>
        <time>2019-03-11T11:20:33Z</time>
      </trkpt>
      <trkpt lat="32.860097615048289" lon="-4.646825110539794">
        <ele>1358</ele>
        <time>2019-03-11T11:20:35Z</time>
      </trkpt>
      <trkpt lat="32.860358376055956" lon="-4.645906370133162">
        <ele>1359.4400000000001</ele>
        <time>2019-03-11T11:20:40Z</time>
      </trkpt>
      <trkpt lat="32.860665572807193" lon="-4.644866930320859">
        <ele>1359.4400000000001</ele>
        <time>2019-03-11T11:20:52Z</time>
      </trkpt>
      <trkpt lat="32.860784512013197" lon="-4.644612707197666">
        <ele>1358.96</ele>
        <time>2019-03-11T11:21:00Z</time>
      </trkpt>
      <trkpt lat="32.860874617472291" lon="-4.644353454932571">
        <ele>1356.5599999999999</ele>
        <time>2019-03-11T11:21:09Z</time>
      </trkpt>
      <trkpt lat="32.861251132562757" lon="-4.64372799731791">
        <ele>1353.1900000000001</ele>
        <time>2019-03-11T11:21:18Z</time>
      </trkpt>
      <trkpt lat="32.862150007858872" lon="-4.642137531191111">
        <ele>1350.79</ele>
        <time>2019-03-11T11:21:23Z</time>
      </trkpt>
      <trkpt lat="32.862533060833812" lon="-4.641323732212186">
        <ele>1351.75</ele>
        <time>2019-03-11T11:21:29Z</time>
      </trkpt>
      <trkpt lat="32.863112753257155" lon="-4.640072984620929">
        <ele>1353.6700000000001</ele>
        <time>2019-03-11T11:21:30Z</time>
      </trkpt>
      <trkpt lat="32.863785149529576" lon="-4.638722157105804">
        <ele>1355.5999999999999</ele>
        <time>2019-03-11T11:21:34Z</time>
      </trkpt>
      <trkpt lat="32.864052532240748" lon="-4.638150846585631">
        <ele>1358.96</ele>
        <time>2019-03-11T11:21:41Z</time>
      </trkpt>
      <trkpt lat="32.863938622176647" lon="-4.63752580806613">
        <ele>1360.4000000000001</ele>
        <time>2019-03-11T11:21:46Z</time>
      </trkpt>
      <trkpt lat="32.863862849771976" lon="-4.637462859973311">
        <ele>1358</ele>
        <time>2019-03-11T11:21:54Z</time>
      </trkpt>
      <trkpt lat="32.863553976640105" lon="-4.637140408158302">
        <ele>1356.0799999999999</ele>
        <time>2019-03-11T11:22:05Z</time>
      </trkpt>
      <trkpt lat="32.862738417461514" lon="-4.636541018262506">
        <ele>1354.1500000000001</ele>
        <time>2019-03-11T11:22:14Z</time>
      </trkpt>
      <trkpt lat="32.861939119175076" lon="-4.636231306940317">
        <ele>1352.23</ele>
        <time>2019-03-11T11:22:23Z</time>
      </trkpt>
      <trkpt lat="32.860665572807193" lon="-4.635474253445864">
        <ele>1348.3900000000001</ele>
        <time>2019-03-11T11:22:31Z</time>
      </trkpt>
      <trkpt lat="32.858662214130163" lon="-4.634311934933066">
        <ele>1343.5799999999999</ele>
        <time>2019-03-11T11:22:39Z</time>
      </trkpt>
      <trkpt lat="32.857047272846103" lon="-4.633380034938455">
        <ele>1338.29</ele>
        <time>2019-03-11T11:22:46Z</time>
      </trkpt>
      <trkpt lat="32.85529050976038" lon="-4.632978290319443">
        <ele>1328.6800000000001</ele>
        <time>2019-03-11T11:22:50Z</time>
      </trkpt>
      <trkpt lat="32.853833315894008" lon="-4.632751140743494">
        <ele>1321.47</ele>
        <time>2019-03-11T11:22:55Z</time>
      </trkpt>
      <trkpt lat="32.85237587057054" lon="-4.632711745798588">
        <ele>1318.5899999999999</ele>
        <time>2019-03-11T11:22:59Z</time>
      </trkpt>
      <trkpt lat="32.851243307814002" lon="-4.632689533755183">
        <ele>1312.8199999999999</ele>
        <time>2019-03-11T11:23:04Z</time>
      </trkpt>
      <trkpt lat="32.850901577621698" lon="-4.632822806015611">
        <ele>1309.45</ele>
        <time>2019-03-11T11:23:10Z</time>
      </trkpt>
      <trkpt lat="32.850547442212701" lon="-4.632886173203588">
        <ele>1311.3800000000001</ele>
        <time>2019-03-11T11:23:19Z</time>
      </trkpt>
      <trkpt lat="32.85018534399569" lon="-4.632830768823624">
        <ele>1313.3</ele>
        <time>2019-03-11T11:23:25Z</time>
      </trkpt>
      <trkpt lat="32.84972257912159" lon="-4.632909977808595">
        <ele>1314.74</ele>
        <time>2019-03-11T11:23:28Z</time>
      </trkpt>
      <trkpt lat="32.849345225840807" lon="-4.63263756595552">
        <ele>1314.74</ele>
        <time>2019-03-11T11:23:33Z</time>
      </trkpt>
      <trkpt lat="32.848739800974727" lon="-4.631382459774613">
        <ele>1317.1400000000001</ele>
        <time>2019-03-11T11:23:38Z</time>
      </trkpt>
      <trkpt lat="32.848143260926008" lon="-4.630546700209379">
        <ele>1324.3499999999999</ele>
        <time>2019-03-11T11:23:44Z</time>
      </trkpt>
      <trkpt lat="32.847962463274598" lon="-4.630117127671838">
        <ele>1328.6800000000001</ele>
        <time>2019-03-11T11:23:50Z</time>
      </trkpt>
      <trkpt lat="32.847517384216189" lon="-4.629540452733636">
        <ele>1329.6400000000001</ele>
        <time>2019-03-11T11:23:55Z</time>
      </trkpt>
      <trkpt lat="32.846812549978495" lon="-4.629165111109614">
        <ele>1331.0799999999999</ele>
        <time>2019-03-11T11:23:56Z</time>
      </trkpt>
      <trkpt lat="32.84611358307302" lon="-4.629379017278552">
        <ele>1327.72</ele>
        <time>2019-03-11T11:24:02Z</time>
      </trkpt>
      <trkpt lat="32.845478150993586" lon="-4.630080750212073">
        <ele>1327.72</ele>
        <time>2019-03-11T11:24:12Z</time>
      </trkpt>
      <trkpt lat="32.844959227368236" lon="-4.630197426304221">
        <ele>1328.2</ele>
        <time>2019-03-11T11:24:20Z</time>
      </trkpt>
      <trkpt lat="32.844862751662731" lon="-4.63011528365314">
        <ele>1329.1600000000001</ele>
        <time>2019-03-11T11:24:24Z</time>
      </trkpt>
      <trkpt lat="32.84413754940033" lon="-4.629605580121279">
        <ele>1330.1199999999999</ele>
        <time>2019-03-11T11:24:32Z</time>
      </trkpt>
      <trkpt lat="32.842873306944966" lon="-4.628268079832196">
        <ele>1331.5599999999999</ele>
        <time>2019-03-11T11:24:40Z</time>
      </trkpt>
      <trkpt lat="32.841765638440847" lon="-4.627098049968481">
        <ele>1332.52</ele>
        <time>2019-03-11T11:24:47Z</time>
      </trkpt>
      <trkpt lat="32.841215534135699" lon="-4.626816501840949">
        <ele>1334.45</ele>
        <time>2019-03-11T11:24:48Z</time>
      </trkpt>
      <trkpt lat="32.840095544233918" lon="-4.626420540735126">
        <ele>1335.4100000000001</ele>
        <time>2019-03-11T11:24:49Z</time>
      </trkpt>
      <trkpt lat="32.838845383375883" lon="-4.625654183328152">
        <ele>1346.46</ele>
        <time>2019-03-11T11:24:50Z</time>
      </trkpt>
      <trkpt lat="32.83777266740799" lon="-4.625056302174926">
        <ele>1347.4300000000001</ele>
        <time>2019-03-11T11:24:51Z</time>
      </trkpt>
      <trkpt lat="32.837657416239381" lon="-4.624939793720841">
        <ele>1348.3900000000001</ele>
        <time>2019-03-11T11:24:52Z</time>
      </trkpt>
      <trkpt lat="32.837563371285796" lon="-4.624800570309162">
        <ele>1348.8699999999999</ele>
        <time>2019-03-11T11:24:53Z</time>
      </trkpt>
      <trkpt lat="32.837494723498821" lon="-4.624637039378285">
        <ele>1349.8299999999999</ele>
        <time>2019-03-11T11:24:54Z</time>
      </trkpt>
      <trkpt lat="32.83745164051652" lon="-4.624460181221366">
        <ele>1350.3099999999999</ele>
        <time>2019-03-11T11:25:03Z</time>
      </trkpt>
      <trkpt lat="32.837432362139225" lon="-4.624277204275131">
        <ele>1351.27</ele>
        <time>2019-03-11T11:25:04Z</time>
      </trkpt>
      <trkpt lat="32.837430937215686" lon="-4.624092215672135">
        <ele>1351.75</ele>
        <time>2019-03-11T11:25:05Z</time>
      </trkpt>
      <trkpt lat="32.837436636909842" lon="-4.62390873581171">
        <ele>1352.71</ele>
        <time>2019-03-11T11:25:06Z</time>
      </trkpt>
      <trkpt lat="32.83749564550817" lon="-4.622382055968046">
        <ele>1352.71</ele>
        <time>2019-03-11T11:25:07Z</time>
      </trkpt>
      <trkpt lat="32.837539231404662" lon="-4.622297817841172">
        <ele>1353.1900000000001</ele>
        <time>2019-03-11T11:25:08Z</time>
      </trkpt>
      <trkpt lat="32.837604945525527" lon="-4.6222532261163">
        <ele>1354.6300000000001</ele>
        <time>2019-03-11T11:25:09Z</time>
      </trkpt>
      <trkpt lat="32.837678706273437" lon="-4.622233277186751">
        <ele>1355.5999999999999</ele>
        <time>2019-03-11T11:25:10Z</time>
      </trkpt>
      <trkpt lat="32.837751461192966" lon="-4.622211735695601">
        <ele>1356.0799999999999</ele>
        <time>2019-03-11T11:25:11Z</time>
      </trkpt>
      <trkpt lat="32.837821450084448" lon="-4.622181141749024">
        <ele>1357.04</ele>
        <time>2019-03-11T11:25:12Z</time>
      </trkpt>
      <trkpt lat="32.837884146720171" lon="-4.622134622186422">
        <ele>1358</ele>
        <time>2019-03-11T11:25:13Z</time>
      </trkpt>
      <trkpt lat="32.837936952710152" lon="-4.622073769569397">
        <ele>1358.96</ele>
        <time>2019-03-11T11:25:16Z</time>
      </trkpt>
      <trkpt lat="32.837980538606644" lon="-4.622001852840185">
        <ele>1360.4000000000001</ele>
        <time>2019-03-11T11:25:17Z</time>
      </trkpt>
      <trkpt lat="32.838015407323837" lon="-4.621929433196783">
        <ele>1361.3599999999999</ele>
        <time>2019-03-11T11:25:18Z</time>
      </trkpt>
      <trkpt lat="32.838046671822667" lon="-4.621852235868573">
        <ele>1364.73</ele>
        <time>2019-03-11T11:25:19Z</time>
      </trkpt>
      <trkpt lat="32.838147673755884" lon="-4.621571358293295">
        <ele>1366.1700000000001</ele>
        <time>2019-03-11T11:25:20Z</time>
      </trkpt>
      <trkpt lat="32.838170556351542" lon="-4.621464237570763">
        <ele>1368.0899999999999</ele>
        <time>2019-03-11T11:25:21Z</time>
      </trkpt>
      <trkpt lat="32.838183213025331" lon="-4.62135074660182">
        <ele>1369.54</ele>
        <time>2019-03-11T11:25:22Z</time>
      </trkpt>
      <trkpt lat="32.838182877749205" lon="-4.621232729405165">
        <ele>1370.98</ele>
        <time>2019-03-11T11:25:23Z</time>
      </trkpt>
      <trkpt lat="32.838171310722828" lon="-4.621111024171114">
        <ele>1372.9000000000001</ele>
        <time>2019-03-11T11:25:27Z</time>
      </trkpt>
      <trkpt lat="32.838149350136518" lon="-4.620982110500336">
        <ele>1373.8599999999999</ele>
        <time>2019-03-11T11:25:28Z</time>
      </trkpt>
      <trkpt lat="32.838119762018323" lon="-4.620847329497337">
        <ele>1374.8199999999999</ele>
        <time>2019-03-11T11:25:30Z</time>
      </trkpt>
      <trkpt lat="32.838085563853383" lon="-4.62071699090302">
        <ele>1375.78</ele>
        <time>2019-03-11T11:25:31Z</time>
      </trkpt>
      <trkpt lat="32.837931420654058" lon="-4.620218435302377">
        <ele>1376.26</ele>
        <time>2019-03-11T11:25:32Z</time>
      </trkpt>
      <trkpt lat="32.837913148105145" lon="-4.620090862736106">
        <ele>1376.75</ele>
        <time>2019-03-11T11:25:34Z</time>
      </trkpt>
      <trkpt lat="32.837887164205313" lon="-4.619845692068338">
        <ele>1377.71</ele>
        <time>2019-03-11T11:25:35Z</time>
      </trkpt>
      <trkpt lat="32.83784843981266" lon="-4.619734883308411">
        <ele>1378.6700000000001</ele>
        <time>2019-03-11T11:25:36Z</time>
      </trkpt>
      <trkpt lat="32.837783982977271" lon="-4.619638491421938">
        <ele>1380.5899999999999</ele>
        <time>2019-03-11T11:25:37Z</time>
      </trkpt>
      <trkpt lat="32.837631851434708" lon="-4.619445037096739">
        <ele>1381.0699999999999</ele>
        <time>2019-03-11T11:25:38Z</time>
      </trkpt>
      <trkpt lat="32.837571417912841" lon="-4.619330456480384">
        <ele>1381.55</ele>
        <time>2019-03-11T11:25:39Z</time>
      </trkpt>
      <trkpt lat="32.837530514225364" lon="-4.619205733761191">
        <ele>1382.03</ele>
        <time>2019-03-11T11:25:40Z</time>
      </trkpt>
      <trkpt lat="32.837521713227034" lon="-4.619077909737825">
        <ele>1382.51</ele>
        <time>2019-03-11T11:25:41Z</time>
      </trkpt>
      <trkpt lat="32.837548619136214" lon="-4.618951342999935">
        <ele>1384.4400000000001</ele>
        <time>2019-03-11T11:25:43Z</time>
      </trkpt>
      <trkpt lat="32.837606118991971" lon="-4.61883332580328">
        <ele>1384.9200000000001</ele>
        <time>2019-03-11T11:25:44Z</time>
      </trkpt>
      <trkpt lat="32.837684992700815" lon="-4.61872436106205">
        <ele>1385.4000000000001</ele>
        <time>2019-03-11T11:25:45Z</time>
      </trkpt>
      <trkpt lat="32.837772248312831" lon="-4.618621934205294">
        <ele>1385.8800000000001</ele>
        <time>2019-03-11T11:25:46Z</time>
      </trkpt>
      <trkpt lat="32.83792220056057" lon="-4.618407525122166">
        <ele>1386.3599999999999</ele>
        <time>2019-03-11T11:25:47Z</time>
      </trkpt>
      <trkpt lat="32.837976180016994" lon="-4.618283556774259">
        <ele>1386.3599999999999</ele>
        <time>2019-03-11T11:25:52Z</time>
      </trkpt>
      <trkpt lat="32.838014820590615" lon="-4.618148943409324">
        <ele>1386.8399999999999</ele>
        <time>2019-03-11T11:25:53Z</time>
      </trkpt>
      <trkpt lat="32.838040720671415" lon="-4.618003433570266">
        <ele>1386.8399999999999</ele>
        <time>2019-03-11T11:25:54Z</time>
      </trkpt>
      <trkpt lat="32.838059579953551" lon="-4.617851385846734">
        <ele>1386.8399999999999</ele>
        <time>2019-03-11T11:25:55Z</time>
      </trkpt>
      <trkpt lat="32.838136358186603" lon="-4.617082430049777">
        <ele>1384.9200000000001</ele>
        <time>2019-03-11T11:25:56Z</time>
      </trkpt>
      <trkpt lat="32.838116073980927" lon="-4.616942368447781">
        <ele>1383.47</ele>
        <time>2019-03-11T11:25:57Z</time>
      </trkpt>
      <trkpt lat="32.838074080646038" lon="-4.616812616586685">
        <ele>1382.99</ele>
        <time>2019-03-11T11:26:00Z</time>
      </trkpt>
      <trkpt lat="32.838014401495457" lon="-4.616695018485189">
        <ele>1382.51</ele>
        <time>2019-03-11T11:26:01Z</time>
      </trkpt>
      <trkpt lat="32.837948184460402" lon="-4.61658513173461">
        <ele>1380.1099999999999</ele>
        <time>2019-03-11T11:26:02Z</time>
      </trkpt>
      <trkpt lat="32.837872747331858" lon="-4.616474490612745">
        <ele>1379.1500000000001</ele>
        <time>2019-03-11T11:26:11Z</time>
      </trkpt>
      <trkpt lat="32.83765884116292" lon="-4.616107111796737">
        <ele>1378.1900000000001</ele>
        <time>2019-03-11T11:26:14Z</time>
      </trkpt>
      <trkpt lat="32.837607879191637" lon="-4.615960260853171">
        <ele>1376.26</ele>
        <time>2019-03-11T11:26:15Z</time>
      </trkpt>
      <trkpt lat="32.837566304951906" lon="-4.6158033516258">
        <ele>1375.3</ele>
        <time>2019-03-11T11:26:16Z</time>
      </trkpt>
      <trkpt lat="32.837117034941912" lon="-4.614276168867946">
        <ele>1374.3399999999999</ele>
        <time>2019-03-11T11:26:19Z</time>
      </trkpt>
      <trkpt lat="32.836937075480819" lon="-4.613794879987836">
        <ele>1370.02</ele>
        <time>2019-03-11T11:26:20Z</time>
      </trkpt>
      <trkpt lat="32.836860800161958" lon="-4.613667642697692">
        <ele>1369.05</ele>
        <time>2019-03-11T11:26:21Z</time>
      </trkpt>
      <trkpt lat="32.836763821542263" lon="-4.613552056252956">
        <ele>1367.6099999999999</ele>
        <time>2019-03-11T11:26:23Z</time>
      </trkpt>
      <trkpt lat="32.836462827399373" lon="-4.613256761804223">
        <ele>1363.77</ele>
        <time>2019-03-11T11:26:24Z</time>
      </trkpt>
      <trkpt lat="32.83635419793427" lon="-4.613190544769168">
        <ele>1362.8099999999999</ele>
        <time>2019-03-11T11:26:25Z</time>
      </trkpt>
      <trkpt lat="32.836230900138617" lon="-4.613153412938118">
        <ele>1361.8399999999999</ele>
        <time>2019-03-11T11:26:29Z</time>
      </trkpt>
      <trkpt lat="32.835975838825107" lon="-4.613107312470675">
        <ele>1361.3599999999999</ele>
        <time>2019-03-11T11:26:30Z</time>
      </trkpt>
      <trkpt lat="32.835854636505246" lon="-4.613048806786537">
        <ele>1360.4000000000001</ele>
        <time>2019-03-11T11:26:31Z</time>
      </trkpt>
      <trkpt lat="32.835737289860845" lon="-4.612965323030949">
        <ele>1359.9200000000001</ele>
        <time>2019-03-11T11:26:34Z</time>
      </trkpt>
      <trkpt lat="32.83525868318975" lon="-4.612594004720449">
        <ele>1359.4400000000001</ele>
        <time>2019-03-11T11:26:35Z</time>
      </trkpt>
      <trkpt lat="32.835157597437501" lon="-4.612464420497417">
        <ele>1358.48</ele>
        <time>2019-03-11T11:26:36Z</time>
      </trkpt>
      <trkpt lat="32.835066150873899" lon="-4.612317988649011">
        <ele>1355.5999999999999</ele>
        <time>2019-03-11T11:26:37Z</time>
      </trkpt>
      <trkpt lat="32.834794577211142" lon="-4.61190115660429">
        <ele>1360.4000000000001</ele>
        <time>2019-03-11T11:26:38Z</time>
      </trkpt>
      <trkpt lat="32.834676308557391" lon="-4.611787917092443">
        <ele>1362.3299999999999</ele>
        <time>2019-03-11T11:26:39Z</time>
      </trkpt>
      <trkpt lat="32.834540940821171" lon="-4.611696973443031">
        <ele>1362.8099999999999</ele>
        <time>2019-03-11T11:26:40Z</time>
      </trkpt>
      <trkpt lat="32.83439283259213" lon="-4.611628158017993">
        <ele>1360.4000000000001</ele>
        <time>2019-03-11T11:26:41Z</time>
      </trkpt>
      <trkpt lat="32.834234749898314" lon="-4.611576357856393">
        <ele>1359.4400000000001</ele>
        <time>2019-03-11T11:26:49Z</time>
      </trkpt>
      <trkpt lat="32.834076499566436" lon="-4.61152346804738">
        <ele>1358</ele>
        <time>2019-03-11T11:26:59Z</time>
      </trkpt>
      <trkpt lat="32.83392378129065" lon="-4.611451216042042">
        <ele>1355.1199999999999</ele>
        <time>2019-03-11T11:27:01Z</time>
      </trkpt>
      <trkpt lat="32.833773158490658" lon="-4.611363960430026">
        <ele>1353.6700000000001</ele>
        <time>2019-03-11T11:27:02Z</time>
      </trkpt>
      <trkpt lat="32.832447392866015" lon="-4.610724505037069">
        <ele>1352.23</ele>
        <time>2019-03-11T11:27:06Z</time>
      </trkpt>
      <trkpt lat="32.830807724967599" lon="-4.609594121575356">
        <ele>1350.79</ele>
        <time>2019-03-11T11:27:07Z</time>
      </trkpt>
      <trkpt lat="32.830530535429716" lon="-4.609416760504246">
        <ele>1348.8699999999999</ele>
        <time>2019-03-11T11:27:08Z</time>
      </trkpt>
      <trkpt lat="32.830393156036735" lon="-4.609351884573698">
        <ele>1347.4300000000001</ele>
        <time>2019-03-11T11:27:10Z</time>
      </trkpt>
      <trkpt lat="32.829849673435092" lon="-4.609198495745659">
        <ele>1346.9400000000001</ele>
        <time>2019-03-11T11:27:11Z</time>
      </trkpt>
      <trkpt lat="32.829708019271493" lon="-4.609194053336978">
        <ele>1345.98</ele>
        <time>2019-03-11T11:27:12Z</time>
      </trkpt>
      <trkpt lat="32.829565443098545" lon="-4.609210314229131">
        <ele>1344.0599999999999</ele>
        <time>2019-03-11T11:27:13Z</time>
      </trkpt>
      <trkpt lat="32.829271825030446" lon="-4.609246021136642">
        <ele>1343.0999999999999</ele>
        <time>2019-03-11T11:27:14Z</time>
      </trkpt>
      <trkpt lat="32.829125141724944" lon="-4.60924006998539">
        <ele>1342.1400000000001</ele>
        <time>2019-03-11T11:27:15Z</time>
      </trkpt>
      <trkpt lat="32.828984577208757" lon="-4.609217187389731">
        <ele>1339.25</ele>
        <time>2019-03-11T11:27:16Z</time>
      </trkpt>
      <trkpt lat="32.828848706558347" lon="-4.609175194054842">
        <ele>1339.25</ele>
        <time>2019-03-11T11:27:17Z</time>
      </trkpt>
      <trkpt lat="32.828715015202761" lon="-4.609111491590738">
        <ele>1342.1400000000001</ele>
        <time>2019-03-11T11:27:20Z</time>
      </trkpt>
      <trkpt lat="32.828587526455522" lon="-4.609017781913281">
        <ele>1343.0999999999999</ele>
        <time>2019-03-11T11:27:21Z</time>
      </trkpt>
      <trkpt lat="32.828465402126312" lon="-4.608896328136325">
        <ele>1343.5799999999999</ele>
        <time>2019-03-11T11:27:22Z</time>
      </trkpt>
      <trkpt lat="32.828346882015467" lon="-4.60875341668725">
        <ele>1344.54</ele>
        <time>2019-03-11T11:27:28Z</time>
      </trkpt>
      <trkpt lat="32.82798889093101" lon="-4.608332645148039">
        <ele>1344.54</ele>
        <time>2019-03-11T11:27:29Z</time>
      </trkpt>
      <trkpt lat="32.827852182090282" lon="-4.608217896893621">
        <ele>1345.02</ele>
        <time>2019-03-11T11:27:32Z</time>
      </trkpt>
      <trkpt lat="32.827702481299639" lon="-4.608121253550053">
        <ele>1345.02</ele>
        <time>2019-03-11T11:27:33Z</time>
      </trkpt>
      <trkpt lat="32.826817017048597" lon="-4.607472075149417">
        <ele>1345.5</ele>
        <time>2019-03-11T11:27:34Z</time>
      </trkpt>
      <trkpt lat="32.826699418947101" lon="-4.607320614159107">
        <ele>1346.46</ele>
        <time>2019-03-11T11:27:35Z</time>
      </trkpt>
      <trkpt lat="32.826349223032594" lon="-4.606885006651282">
        <ele>1346.9400000000001</ele>
        <time>2019-03-11T11:27:36Z</time>
      </trkpt>
      <trkpt lat="32.826238498091698" lon="-4.606794230639935">
        <ele>1347.4300000000001</ele>
        <time>2019-03-11T11:27:37Z</time>
      </trkpt>
      <trkpt lat="32.826142944395542" lon="-4.606733042746782">
        <ele>1348.3900000000001</ele>
        <time>2019-03-11T11:27:38Z</time>
      </trkpt>
      <trkpt lat="32.826057532802224" lon="-4.606700520962477">
        <ele>1348.8699999999999</ele>
        <time>2019-03-11T11:27:39Z</time>
      </trkpt>
      <trkpt lat="32.825971953570843" lon="-4.606702197343111">
        <ele>1349.8299999999999</ele>
        <time>2019-03-11T11:27:40Z</time>
      </trkpt>
      <trkpt lat="32.825891403481364" lon="-4.606742430478334">
        <ele>1350.3099999999999</ele>
        <time>2019-03-11T11:27:41Z</time>
      </trkpt>
      <trkpt lat="32.825822671875358" lon="-4.606813425198197">
        <ele>1351.27</ele>
        <time>2019-03-11T11:27:42Z</time>
      </trkpt>
      <trkpt lat="32.825758550316095" lon="-4.606891125440598">
        <ele>1351.75</ele>
        <time>2019-03-11T11:27:43Z</time>
      </trkpt>
      <trkpt lat="32.825685292482376" lon="-4.606941333040595">
        <ele>1352.71</ele>
        <time>2019-03-11T11:27:44Z</time>
      </trkpt>
      <trkpt lat="32.825606167316437" lon="-4.606949798762798">
        <ele>1353.6700000000001</ele>
        <time>2019-03-11T11:27:45Z</time>
      </trkpt>
      <trkpt lat="32.825525868684053" lon="-4.606932699680328">
        <ele>1354.1500000000001</ele>
        <time>2019-03-11T11:27:46Z</time>
      </trkpt>
      <trkpt lat="32.825444396585226" lon="-4.606914427131414">
        <ele>1354.6300000000001</ele>
        <time>2019-03-11T11:27:48Z</time>
      </trkpt>
      <trkpt lat="32.825354123488069" lon="-4.606910068541765">
        <ele>1355.1199999999999</ele>
        <time>2019-03-11T11:27:49Z</time>
      </trkpt>
      <trkpt lat="32.82525840215385" lon="-4.606917193159461">
        <ele>1355.5999999999999</ele>
        <time>2019-03-11T11:27:50Z</time>
      </trkpt>
      <trkpt lat="32.825163519009948" lon="-4.606931358575821">
        <ele>1356.0799999999999</ele>
        <time>2019-03-11T11:27:51Z</time>
      </trkpt>
      <trkpt lat="32.824988923966885" lon="-4.606984248384833">
        <ele>1356.5599999999999</ele>
        <time>2019-03-11T11:27:52Z</time>
      </trkpt>
      <trkpt lat="32.824918515980244" lon="-4.607041832059622">
        <ele>1356.5599999999999</ele>
        <time>2019-03-11T11:27:53Z</time>
      </trkpt>
      <trkpt lat="32.82486311160028" lon="-4.607125399634242">
        <ele>1356.5599999999999</ele>
        <time>2019-03-11T11:27:54Z</time>
      </trkpt>
      <trkpt lat="32.824815418571234" lon="-4.607225982472301">
        <ele>1356.5599999999999</ele>
        <time>2019-03-11T11:27:55Z</time>
      </trkpt>
      <trkpt lat="32.824765713885427" lon="-4.60732514038682">
        <ele>1358</ele>
        <time>2019-03-11T11:27:56Z</time>
      </trkpt>
      <trkpt lat="32.824708633124828" lon="-4.60740476846695">
        <ele>1358.96</ele>
        <time>2019-03-11T11:27:57Z</time>
      </trkpt>
      <trkpt lat="32.824641913175583" lon="-4.607460927218199">
        <ele>1359.4400000000001</ele>
        <time>2019-03-11T11:27:58Z</time>
      </trkpt>
      <trkpt lat="32.824572091922164" lon="-4.607484396547079">
        <ele>1359.9200000000001</ele>
        <time>2019-03-11T11:27:59Z</time>
      </trkpt>
      <trkpt lat="32.824509898200631" lon="-4.607468051835895">
        <ele>1359.9200000000001</ele>
        <time>2019-03-11T11:28:00Z</time>
      </trkpt>
      <trkpt lat="32.824470670893788" lon="-4.607417089864612">
        <ele>1356.0799999999999</ele>
        <time>2019-03-11T11:28:05Z</time>
      </trkpt>
      <trkpt lat="32.824460109695792" lon="-4.607348358258605">
        <ele>1355.1199999999999</ele>
        <time>2019-03-11T11:28:06Z</time>
      </trkpt>
      <trkpt lat="32.824467988684773" lon="-4.607276190072298">
        <ele>1354.1500000000001</ele>
        <time>2019-03-11T11:28:07Z</time>
      </trkpt>
      <trkpt lat="32.824478633701801" lon="-4.607204776257277">
        <ele>1347.9100000000001</ele>
        <time>2019-03-11T11:28:08Z</time>
      </trkpt>
      <trkpt lat="32.824513586238027" lon="-4.606725834310055">
        <ele>1348.3900000000001</ele>
        <time>2019-03-11T11:28:09Z</time>
      </trkpt>
      <trkpt lat="32.824490116909146" lon="-4.606614354997873">
        <ele>1347.9100000000001</ele>
        <time>2019-03-11T11:28:14Z</time>
      </trkpt>
      <trkpt lat="32.824448961764574" lon="-4.606502624228597">
        <ele>1347.9100000000001</ele>
        <time>2019-03-11T11:28:15Z</time>
      </trkpt>
      <trkpt lat="32.824396993964911" lon="-4.606399107724428">
        <ele>1347.4300000000001</ele>
        <time>2019-03-11T11:28:16Z</time>
      </trkpt>
      <trkpt lat="32.824340332299471" lon="-4.606300536543131">
        <ele>1346.9400000000001</ele>
        <time>2019-03-11T11:28:26Z</time>
      </trkpt>
      <trkpt lat="32.823973959311843" lon="-4.605713216587901">
        <ele>1346.46</ele>
        <time>2019-03-11T11:28:35Z</time>
      </trkpt>
      <trkpt lat="32.823878824710846" lon="-4.605616824701428">
        <ele>1346.46</ele>
        <time>2019-03-11T11:28:36Z</time>
      </trkpt>
      <trkpt lat="32.823775894939899" lon="-4.60553920827806">
        <ele>1345.5</ele>
        <time>2019-03-11T11:28:38Z</time>
      </trkpt>
      <trkpt lat="32.822902835905552" lon="-4.605007208883762">
        <ele>1345.02</ele>
        <time>2019-03-11T11:28:39Z</time>
      </trkpt>
      <trkpt lat="32.822433449327946" lon="-4.604683248326182">
        <ele>1344.54</ele>
        <time>2019-03-11T11:28:40Z</time>
      </trkpt>
      <trkpt lat="32.822371087968349" lon="-4.604664389044046">
        <ele>1344.0599999999999</ele>
        <time>2019-03-11T11:28:41Z</time>
      </trkpt>
      <trkpt lat="32.822234630584717" lon="-4.604613007977605">
        <ele>1343.5799999999999</ele>
        <time>2019-03-11T11:28:42Z</time>
      </trkpt>
      <trkpt lat="32.822189535945654" lon="-4.604557938873768">
        <ele>1342.6199999999999</ele>
        <time>2019-03-11T11:28:43Z</time>
      </trkpt>
      <trkpt lat="32.822168413549662" lon="-4.604487363249064">
        <ele>1342.1400000000001</ele>
        <time>2019-03-11T11:28:44Z</time>
      </trkpt>
      <trkpt lat="32.822173442691565" lon="-4.604405472055078">
        <ele>1341.6600000000001</ele>
        <time>2019-03-11T11:28:45Z</time>
      </trkpt>
      <trkpt lat="32.822193810716271" lon="-4.604315953329206">
        <ele>1340.22</ele>
        <time>2019-03-11T11:28:46Z</time>
      </trkpt>
      <trkpt lat="32.822210993617773" lon="-4.60422333329916">
        <ele>1339.73</ele>
        <time>2019-03-11T11:28:47Z</time>
      </trkpt>
      <trkpt lat="32.822216944769025" lon="-4.604129875078797">
        <ele>1338.29</ele>
        <time>2019-03-11T11:28:48Z</time>
      </trkpt>
      <trkpt lat="32.822209317237139" lon="-4.60403373464942">
        <ele>1337.8099999999999</ele>
        <time>2019-03-11T11:28:49Z</time>
      </trkpt>
      <trkpt lat="32.822181405499578" lon="-4.603934660553932">
        <ele>1337.3299999999999</ele>
        <time>2019-03-11T11:28:50Z</time>
      </trkpt>
      <trkpt lat="32.822130108252168" lon="-4.60384120233357">
        <ele>1336.8499999999999</ele>
        <time>2019-03-11T11:28:52Z</time>
      </trkpt>
      <trkpt lat="32.822052659466863" lon="-4.603757048025727">
        <ele>1335.8900000000001</ele>
        <time>2019-03-11T11:28:53Z</time>
      </trkpt>
      <trkpt lat="32.82195626758039" lon="-4.603682868182659">
        <ele>1335.4100000000001</ele>
        <time>2019-03-11T11:28:55Z</time>
      </trkpt>
      <trkpt lat="32.821849314495921" lon="-4.603617405518889">
        <ele>1334.45</ele>
        <time>2019-03-11T11:28:56Z</time>
      </trkpt>
      <trkpt lat="32.821631720289588" lon="-4.603508608415723">
        <ele>1333.97</ele>
        <time>2019-03-11T11:28:57Z</time>
      </trkpt>
      <trkpt lat="32.821524851024151" lon="-4.603474829345942">
        <ele>1333.49</ele>
        <time>2019-03-11T11:28:58Z</time>
      </trkpt>
      <trkpt lat="32.821334833279252" lon="-4.603420346975327">
        <ele>1332.52</ele>
        <time>2019-03-11T11:28:59Z</time>
      </trkpt>
      <trkpt lat="32.821264592930675" lon="-4.603360332548618">
        <ele>1332.04</ele>
        <time>2019-03-11T11:29:00Z</time>
      </trkpt>
      <trkpt lat="32.821216313168406" lon="-4.60326855070889">
        <ele>1331.0799999999999</ele>
        <time>2019-03-11T11:29:01Z</time>
      </trkpt>
      <trkpt lat="32.821179013699293" lon="-4.603151204064488">
        <ele>1330.5999999999999</ele>
        <time>2019-03-11T11:29:02Z</time>
      </trkpt>
      <trkpt lat="32.821134841069579" lon="-4.603018518537283">
        <ele>1329.6400000000001</ele>
        <time>2019-03-11T11:29:03Z</time>
      </trkpt>
      <trkpt lat="32.821077089756727" lon="-4.602888515219092">
        <ele>1328.6800000000001</ele>
        <time>2019-03-11T11:29:04Z</time>
      </trkpt>
      <trkpt lat="32.82100785523653" lon="-4.602770665660501">
        <ele>1327.72</ele>
        <time>2019-03-11T11:29:05Z</time>
      </trkpt>
      <trkpt lat="32.820923617109656" lon="-4.602669244632125">
        <ele>1326.76</ele>
        <time>2019-03-11T11:29:06Z</time>
      </trkpt>
      <trkpt lat="32.820824040099978" lon="-4.60258693434298">
        <ele>1325.8</ele>
        <time>2019-03-11T11:29:07Z</time>
      </trkpt>
      <trkpt lat="32.820713147521019" lon="-4.602518873289228">
        <ele>1325.3099999999999</ele>
        <time>2019-03-11T11:29:08Z</time>
      </trkpt>
      <trkpt lat="32.820605859160423" lon="-4.60245500318706">
        <ele>1324.3499999999999</ele>
        <time>2019-03-11T11:29:10Z</time>
      </trkpt>
      <trkpt lat="32.820513406768441" lon="-4.602381829172373">
        <ele>1323.8699999999999</ele>
        <time>2019-03-11T11:29:11Z</time>
      </trkpt>
      <trkpt lat="32.820441490039229" lon="-4.60228736512363">
        <ele>1322.4300000000001</ele>
        <time>2019-03-11T11:29:12Z</time>
      </trkpt>
      <trkpt lat="32.820391617715359" lon="-4.602165995165706">
        <ele>1321.95</ele>
        <time>2019-03-11T11:29:13Z</time>
      </trkpt>
      <trkpt lat="32.820303691551089" lon="-4.601901629939675">
        <ele>1321.47</ele>
        <time>2019-03-11T11:29:14Z</time>
      </trkpt>
      <trkpt lat="32.820237642154098" lon="-4.601777326315641">
        <ele>1321.47</ele>
        <time>2019-03-11T11:29:15Z</time>
      </trkpt>
      <trkpt lat="32.820149045437574" lon="-4.601666936650872">
        <ele>1321.47</ele>
        <time>2019-03-11T11:29:16Z</time>
      </trkpt>
      <trkpt lat="32.820043182000518" lon="-4.601566605269909">
        <ele>1321.47</ele>
        <time>2019-03-11T11:29:18Z</time>
      </trkpt>
      <trkpt lat="32.819925667718053" lon="-4.601476332172751">
        <ele>1321.47</ele>
        <time>2019-03-11T11:29:19Z</time>
      </trkpt>
      <trkpt lat="32.819801867008209" lon="-4.601397458463907">
        <ele>1321.95</ele>
        <time>2019-03-11T11:29:20Z</time>
      </trkpt>
      <trkpt lat="32.81968217343092" lon="-4.601328643038869">
        <ele>1321.95</ele>
        <time>2019-03-11T11:29:21Z</time>
      </trkpt>
      <trkpt lat="32.819489724934101" lon="-4.60119042545557">
        <ele>1321.47</ele>
        <time>2019-03-11T11:29:22Z</time>
      </trkpt>
      <trkpt lat="32.81941051594913" lon="-4.601106606423855">
        <ele>1321.47</ele>
        <time>2019-03-11T11:29:23Z</time>
      </trkpt>
      <trkpt lat="32.819341029971838" lon="-4.601014573127031">
        <ele>1320.99</ele>
        <time>2019-03-11T11:29:24Z</time>
      </trkpt>
      <trkpt lat="32.819287050515413" lon="-4.600905273109675">
        <ele>1318.0999999999999</ele>
        <time>2019-03-11T11:29:32Z</time>
      </trkpt>
      <trkpt lat="32.819251762703061" lon="-4.600778203457594">
        <ele>1317.6199999999999</ele>
        <time>2019-03-11T11:29:33Z</time>
      </trkpt>
      <trkpt lat="32.819233071058989" lon="-4.600634034723043">
        <ele>1317.1400000000001</ele>
        <time>2019-03-11T11:29:34Z</time>
      </trkpt>
      <trkpt lat="32.819224102422595" lon="-4.600472934544087">
        <ele>1316.1800000000001</ele>
        <time>2019-03-11T11:29:35Z</time>
      </trkpt>
      <trkpt lat="32.819139612838626" lon="-4.599100481718779">
        <ele>1316.6600000000001</ele>
        <time>2019-03-11T11:29:36Z</time>
      </trkpt>
      <trkpt lat="32.819100804626942" lon="-4.598953630775213">
        <ele>1317.1400000000001</ele>
        <time>2019-03-11T11:29:41Z</time>
      </trkpt>
      <trkpt lat="32.819041963666677" lon="-4.598815245553851">
        <ele>1317.6199999999999</ele>
        <time>2019-03-11T11:29:42Z</time>
      </trkpt>
      <trkpt lat="32.818961916491389" lon="-4.598686331883073">
        <ele>1318.5899999999999</ele>
        <time>2019-03-11T11:29:43Z</time>
      </trkpt>
      <trkpt lat="32.818866111338139" lon="-4.598561022430658">
        <ele>1319.55</ele>
        <time>2019-03-11T11:29:48Z</time>
      </trkpt>
      <trkpt lat="32.81839270144701" lon="-4.597895834594965">
        <ele>1320.51</ele>
        <time>2019-03-11T11:29:49Z</time>
      </trkpt>
      <trkpt lat="32.81832329928875" lon="-4.597728028893471">
        <ele>1321.95</ele>
        <time>2019-03-11T11:29:50Z</time>
      </trkpt>
      <trkpt lat="32.81826320104301" lon="-4.597544129937887">
        <ele>1322.9100000000001</ele>
        <time>2019-03-11T11:29:51Z</time>
      </trkpt>
      <trkpt lat="32.81797444447875" lon="-4.596612146124244">
        <ele>1323.3900000000001</ele>
        <time>2019-03-11T11:29:52Z</time>
      </trkpt>
      <trkpt lat="32.817892469465733" lon="-4.596451967954636">
        <ele>1323.8699999999999</ele>
        <time>2019-03-11T11:29:53Z</time>
      </trkpt>
      <trkpt lat="32.81781611032784" lon="-4.596291035413742">
        <ele>1323.8699999999999</ele>
        <time>2019-03-11T11:29:54Z</time>
      </trkpt>
      <trkpt lat="32.817761208862066" lon="-4.596122726798058">
        <ele>1323.8699999999999</ele>
        <time>2019-03-11T11:29:56Z</time>
      </trkpt>
      <trkpt lat="32.817731788381934" lon="-4.595945617184043">
        <ele>1323.8699999999999</ele>
        <time>2019-03-11T11:29:57Z</time>
      </trkpt>
      <trkpt lat="32.817719718441367" lon="-4.595764148980379">
        <ele>1323.8699999999999</ele>
        <time>2019-03-11T11:29:58Z</time>
      </trkpt>
      <trkpt lat="32.817713432013988" lon="-4.59558435715735">
        <ele>1323.8699999999999</ele>
        <time>2019-03-11T11:29:59Z</time>
      </trkpt>
      <trkpt lat="32.817685436457396" lon="-4.595258720219135">
        <ele>1323.3900000000001</ele>
        <time>2019-03-11T11:30:00Z</time>
      </trkpt>
      <trkpt lat="32.817651741206646" lon="-4.59511237218976">
        <ele>1323.3900000000001</ele>
        <time>2019-03-11T11:30:01Z</time>
      </trkpt>
      <trkpt lat="32.817598264664412" lon="-4.594983542338014">
        <ele>1323.3900000000001</ele>
        <time>2019-03-11T11:30:02Z</time>
      </trkpt>
      <trkpt lat="32.817527437582612" lon="-4.594867704436183">
        <ele>1323.3900000000001</ele>
        <time>2019-03-11T11:30:03Z</time>
      </trkpt>
      <trkpt lat="32.817445965483785" lon="-4.594756811857224">
        <ele>1322.9100000000001</ele>
        <time>2019-03-11T11:30:04Z</time>
      </trkpt>
      <trkpt lat="32.817369354888797" lon="-4.594640135765076">
        <ele>1321.95</ele>
        <time>2019-03-11T11:30:05Z</time>
      </trkpt>
      <trkpt lat="32.817311687394977" lon="-4.594507114961743">
        <ele>1320.51</ele>
        <time>2019-03-11T11:30:06Z</time>
      </trkpt>
      <trkpt lat="32.81728059053421" lon="-4.594357246533036">
        <ele>1319.0699999999999</ele>
        <time>2019-03-11T11:30:07Z</time>
      </trkpt>
      <trkpt lat="32.817276315763593" lon="-4.594198996201158">
        <ele>1317.6199999999999</ele>
        <time>2019-03-11T11:30:08Z</time>
      </trkpt>
      <trkpt lat="32.817297270521522" lon="-4.594037141650915">
        <ele>1316.6600000000001</ele>
        <time>2019-03-11T11:30:09Z</time>
      </trkpt>
      <trkpt lat="32.817335659638047" lon="-4.593880567699671">
        <ele>1315.22</ele>
        <time>2019-03-11T11:30:10Z</time>
      </trkpt>
      <trkpt lat="32.817370947450399" lon="-4.593730196356773">
        <ele>1314.26</ele>
        <time>2019-03-11T11:30:11Z</time>
      </trkpt>
      <trkpt lat="32.817395087331533" lon="-4.593582004308701">
        <ele>1313.3</ele>
        <time>2019-03-11T11:30:12Z</time>
      </trkpt>
      <trkpt lat="32.817401792854071" lon="-4.59343733265996">
        <ele>1312.3399999999999</ele>
        <time>2019-03-11T11:30:13Z</time>
      </trkpt>
      <trkpt lat="32.817392153665423" lon="-4.593290565535426">
        <ele>1308.97</ele>
        <time>2019-03-11T11:30:14Z</time>
      </trkpt>
      <trkpt lat="32.817376479506493" lon="-4.593146648257971">
        <ele>1307.53</ele>
        <time>2019-03-11T11:30:15Z</time>
      </trkpt>
      <trkpt lat="32.817369773983955" lon="-4.593011448159814">
        <ele>1306.5699999999999</ele>
        <time>2019-03-11T11:30:16Z</time>
      </trkpt>
      <trkpt lat="32.81738025136292" lon="-4.592886893078685">
        <ele>1305.6099999999999</ele>
        <time>2019-03-11T11:30:17Z</time>
      </trkpt>
      <trkpt lat="32.817411599680781" lon="-4.592771474272013">
        <ele>1304.6500000000001</ele>
        <time>2019-03-11T11:30:18Z</time>
      </trkpt>
      <trkpt lat="32.817466333508492" lon="-4.592671478167176">
        <ele>1303.2</ele>
        <time>2019-03-11T11:30:21Z</time>
      </trkpt>
      <trkpt lat="32.817541854456067" lon="-4.592595286667347">
        <ele>1301.76</ele>
        <time>2019-03-11T11:30:22Z</time>
      </trkpt>
      <trkpt lat="32.81763288192451" lon="-4.59253535605967">
        <ele>1298.4000000000001</ele>
        <time>2019-03-11T11:30:23Z</time>
      </trkpt>
      <trkpt lat="32.817732710391283" lon="-4.592479281127453">
        <ele>1297.4400000000001</ele>
        <time>2019-03-11T11:30:24Z</time>
      </trkpt>
      <trkpt lat="32.818022221326828" lon="-4.592267302796245">
        <ele>1296.48</ele>
        <time>2019-03-11T11:30:25Z</time>
      </trkpt>
      <trkpt lat="32.818103274330497" lon="-4.592174766585231">
        <ele>1295.99</ele>
        <time>2019-03-11T11:30:26Z</time>
      </trkpt>
      <trkpt lat="32.818171251565218" lon="-4.59206772968173">
        <ele>1295.03</ele>
        <time>2019-03-11T11:30:27Z</time>
      </trkpt>
      <trkpt lat="32.818224979564548" lon="-4.591947617009282">
        <ele>1294.55</ele>
        <time>2019-03-11T11:30:30Z</time>
      </trkpt>
      <trkpt lat="32.818267811089754" lon="-4.591816440224648">
        <ele>1293.5899999999999</ele>
        <time>2019-03-11T11:30:31Z</time>
      </trkpt>
      <trkpt lat="32.818302595987916" lon="-4.591676881536841">
        <ele>1293.1099999999999</ele>
        <time>2019-03-11T11:30:32Z</time>
      </trkpt>
      <trkpt lat="32.818332435563207" lon="-4.59153413772583">
        <ele>1292.1500000000001</ele>
        <time>2019-03-11T11:30:33Z</time>
      </trkpt>
      <trkpt lat="32.818391863256693" lon="-4.591115461662412">
        <ele>1291.6700000000001</ele>
        <time>2019-03-11T11:30:34Z</time>
      </trkpt>
      <trkpt lat="32.818392533808947" lon="-4.59098688326776">
        <ele>1291.1900000000001</ele>
        <time>2019-03-11T11:30:35Z</time>
      </trkpt>
      <trkpt lat="32.818384151905775" lon="-4.590870290994644">
        <ele>1284.9400000000001</ele>
        <time>2019-03-11T11:30:36Z</time>
      </trkpt>
      <trkpt lat="32.818366382271051" lon="-4.590765181928873">
        <ele>1283.98</ele>
        <time>2019-03-11T11:30:37Z</time>
      </trkpt>
      <trkpt lat="32.818338386714458" lon="-4.590671975165606">
        <ele>1283.02</ele>
        <time>2019-03-11T11:30:38Z</time>
      </trkpt>
      <trkpt lat="32.818301590159535" lon="-4.590596118941903">
        <ele>1282.0599999999999</ele>
        <time>2019-03-11T11:30:39Z</time>
      </trkpt>
      <trkpt lat="32.818251550197601" lon="-4.59053828381002">
        <ele>1281.0899999999999</ele>
        <time>2019-03-11T11:30:40Z</time>
      </trkpt>
      <trkpt lat="32.818190949037671" lon="-4.590497631579638">
        <ele>1280.1300000000001</ele>
        <time>2019-03-11T11:30:48Z</time>
      </trkpt>
      <trkpt lat="32.818121546879411" lon="-4.590470306575298">
        <ele>1279.1700000000001</ele>
        <time>2019-03-11T11:30:49Z</time>
      </trkpt>
      <trkpt lat="32.818049713969231" lon="-4.590438706800342">
        <ele>1278.21</ele>
        <time>2019-03-11T11:30:50Z</time>
      </trkpt>
      <trkpt lat="32.817973103374243" lon="-4.59039805456996">
        <ele>1277.25</ele>
        <time>2019-03-11T11:30:51Z</time>
      </trkpt>
      <trkpt lat="32.817152934148908" lon="-4.590044589713216">
        <ele>1276.29</ele>
        <time>2019-03-11T11:30:52Z</time>
      </trkpt>
      <trkpt lat="32.817064756527543" lon="-4.590003686025739">
        <ele>1274.8499999999999</ele>
        <time>2019-03-11T11:30:53Z</time>
      </trkpt>
      <trkpt lat="32.816986972466111" lon="-4.589954987168312">
        <ele>1273.8800000000001</ele>
        <time>2019-03-11T11:30:54Z</time>
      </trkpt>
      <trkpt lat="32.816921090707183" lon="-4.589891955256462">
        <ele>1272.4400000000001</ele>
        <time>2019-03-11T11:30:55Z</time>
      </trkpt>
      <trkpt lat="32.816869039088488" lon="-4.589814087375999">
        <ele>1271</ele>
        <time>2019-03-11T11:30:56Z</time>
      </trkpt>
      <trkpt lat="32.816831404343247" lon="-4.5897276699543">
        <ele>1270.04</ele>
        <time>2019-03-11T11:30:57Z</time>
      </trkpt>
      <trkpt lat="32.816804246976972" lon="-4.589634295552969">
        <ele>1267.1600000000001</ele>
        <time>2019-03-11T11:30:58Z</time>
      </trkpt>
      <trkpt lat="32.816785974428058" lon="-4.589535808190703">
        <ele>1266.1900000000001</ele>
        <time>2019-03-11T11:30:59Z</time>
      </trkpt>
      <trkpt lat="32.816774742677808" lon="-4.589433548972011">
        <ele>1260.9100000000001</ele>
        <time>2019-03-11T11:31:00Z</time>
      </trkpt>
      <trkpt lat="32.816773653030396" lon="-4.589324332773686">
        <ele>1260.4300000000001</ele>
        <time>2019-03-11T11:31:01Z</time>
      </trkpt>
      <trkpt lat="32.816787483170629" lon="-4.589213440194726">
        <ele>1259.9400000000001</ele>
        <time>2019-03-11T11:31:02Z</time>
      </trkpt>
      <trkpt lat="32.816822100430727" lon="-4.58910807967186">
        <ele>1258.98</ele>
        <time>2019-03-11T11:31:06Z</time>
      </trkpt>
      <trkpt lat="32.816878343001008" lon="-4.589007329195738">
        <ele>1258.02</ele>
        <time>2019-03-11T11:31:07Z</time>
      </trkpt>
      <trkpt lat="32.816951097920537" lon="-4.588906494900584">
        <ele>1257.54</ele>
        <time>2019-03-11T11:31:12Z</time>
      </trkpt>
      <trkpt lat="32.817032486200333" lon="-4.588804487138987">
        <ele>1256.5799999999999</ele>
        <time>2019-03-11T11:31:13Z</time>
      </trkpt>
      <trkpt lat="32.817391818389297" lon="-4.588413555175066">
        <ele>1256.0999999999999</ele>
        <time>2019-03-11T11:31:14Z</time>
      </trkpt>
      <trkpt lat="32.817489886656404" lon="-4.588335854932666">
        <ele>1255.1400000000001</ele>
        <time>2019-03-11T11:31:18Z</time>
      </trkpt>
      <trkpt lat="32.817977461963892" lon="-4.587926231324673">
        <ele>1254.1800000000001</ele>
        <time>2019-03-11T11:31:19Z</time>
      </trkpt>
      <trkpt lat="32.818059688434005" lon="-4.587817769497633">
        <ele>1253.7</ele>
        <time>2019-03-11T11:31:20Z</time>
      </trkpt>
      <trkpt lat="32.818129761144519" lon="-4.587704529985786">
        <ele>1251.77</ele>
        <time>2019-03-11T11:31:21Z</time>
      </trkpt>
      <trkpt lat="32.818332770839334" lon="-4.587293229997158">
        <ele>1249.8499999999999</ele>
        <time>2019-03-11T11:31:22Z</time>
      </trkpt>
      <trkpt lat="32.818352971225977" lon="-4.587186025455594">
        <ele>1249.8499999999999</ele>
        <time>2019-03-11T11:31:23Z</time>
      </trkpt>
      <trkpt lat="32.81835556961596" lon="-4.587072031572461">
        <ele>1247.45</ele>
        <time>2019-03-11T11:31:24Z</time>
      </trkpt>
      <trkpt lat="32.818341655656695" lon="-4.58694932051003">
        <ele>1246.01</ele>
        <time>2019-03-11T11:31:25Z</time>
      </trkpt>
      <trkpt lat="32.818315671756864" lon="-4.586830297484994">
        <ele>1245.04</ele>
        <time>2019-03-11T11:31:36Z</time>
      </trkpt>
      <trkpt lat="32.8182861674577" lon="-4.586733654141426">
        <ele>1243.5999999999999</ele>
        <time>2019-03-11T11:32:03Z</time>
      </trkpt>
      <trkpt lat="32.818262111395597" lon="-4.58667129278183">
        <ele>1242.6400000000001</ele>
        <time>2019-03-11T11:32:19Z</time>
      </trkpt>
      <trkpt lat="32.818247359246016" lon="-4.586645057424903">
        <ele>1241.2</ele>
        <time>2019-03-11T11:32:24Z</time>
      </trkpt>
      <trkpt lat="32.818234451115131" lon="-4.586653942242265">
        <ele>1239.76</ele>
        <time>2019-03-11T11:32:25Z</time>
      </trkpt>
      <trkpt lat="32.818223470821977" lon="-4.586654528975487">
        <ele>1238.8</ele>
        <time>2019-03-11T11:32:26Z</time>
      </trkpt>
      <trkpt lat="32.818180220201612" lon="-4.58653399720788">
        <ele>1237.3499999999999</ele>
        <time>2019-03-11T11:32:27Z</time>
      </trkpt>
      <trkpt lat="32.818011995404959" lon="-4.58620173856616">
        <ele>1235.9100000000001</ele>
        <time>2019-03-11T11:32:28Z</time>
      </trkpt>
      <trkpt lat="32.817979557439685" lon="-4.58610400557518">
        <ele>1234.47</ele>
        <time>2019-03-11T11:32:29Z</time>
      </trkpt>
      <trkpt lat="32.817958770319819" lon="-4.585997136309743">
        <ele>1232.55</ele>
        <time>2019-03-11T11:32:30Z</time>
      </trkpt>
      <trkpt lat="32.817946281284094" lon="-4.585884148254991">
        <ele>1231.1099999999999</ele>
        <time>2019-03-11T11:32:31Z</time>
      </trkpt>
      <trkpt lat="32.817944018170238" lon="-4.585765460506082">
        <ele>1229.1800000000001</ele>
        <time>2019-03-11T11:32:32Z</time>
      </trkpt>
      <trkpt lat="32.817953489720821" lon="-4.585642330348492">
        <ele>1219.0899999999999</ele>
        <time>2019-03-11T11:32:33Z</time>
      </trkpt>
      <trkpt lat="32.817979138344526" lon="-4.585518445819616">
        <ele>1215.24</ele>
        <time>2019-03-11T11:32:34Z</time>
      </trkpt>
      <trkpt lat="32.818023143336177" lon="-4.585400344803929">
        <ele>1214.28</ele>
        <time>2019-03-11T11:32:35Z</time>
      </trkpt>
      <trkpt lat="32.818080894649029" lon="-4.585289033129811">
        <ele>1212.8399999999999</ele>
        <time>2019-03-11T11:32:36Z</time>
      </trkpt>
      <trkpt lat="32.818154403939843" lon="-4.58518099039793">
        <ele>1211.4000000000001</ele>
        <time>2019-03-11T11:32:37Z</time>
      </trkpt>
      <trkpt lat="32.818241827189922" lon="-4.585082838311791">
        <ele>1209.48</ele>
        <time>2019-03-11T11:32:47Z</time>
      </trkpt>
      <trkpt lat="32.818347774446011" lon="-4.584999019280076">
        <ele>1207.55</ele>
        <time>2019-03-11T11:32:51Z</time>
      </trkpt>
      <trkpt lat="32.818467384204268" lon="-4.584925509989262">
        <ele>1193.1300000000001</ele>
        <time>2019-03-11T11:32:52Z</time>
      </trkpt>
      <trkpt lat="32.818595627322793" lon="-4.584859544411302">
        <ele>1192.6500000000001</ele>
        <time>2019-03-11T11:32:53Z</time>
      </trkpt>
      <trkpt lat="32.819747636094689" lon="-4.584148256108165">
        <ele>1191.6900000000001</ele>
        <time>2019-03-11T11:32:54Z</time>
      </trkpt>
      <trkpt lat="32.820076793432236" lon="-4.583670571446419">
        <ele>1190.73</ele>
        <time>2019-03-11T11:32:55Z</time>
      </trkpt>
      <trkpt lat="32.820140831172466" lon="-4.583529252558947">
        <ele>1190.25</ele>
        <time>2019-03-11T11:32:56Z</time>
      </trkpt>
      <trkpt lat="32.820198498666286" lon="-4.583376199007034">
        <ele>1190.25</ele>
        <time>2019-03-11T11:33:09Z</time>
      </trkpt>
      <trkpt lat="32.820247868075967" lon="-4.583210991695523">
        <ele>1189.77</ele>
        <time>2019-03-11T11:33:10Z</time>
      </trkpt>
      <trkpt lat="32.820289023220539" lon="-4.583037905395031">
        <ele>1189.77</ele>
        <time>2019-03-11T11:33:11Z</time>
      </trkpt>
      <trkpt lat="32.820324478670955" lon="-4.582857945933938">
        <ele>1189.77</ele>
        <time>2019-03-11T11:33:12Z</time>
      </trkpt>
      <trkpt lat="32.820752123370767" lon="-4.58041931502521">
        <ele>1186.4000000000001</ele>
        <time>2019-03-11T11:33:13Z</time>
      </trkpt>
      <trkpt lat="32.820808030664921" lon="-4.580268943682313">
        <ele>1185.4400000000001</ele>
        <time>2019-03-11T11:33:14Z</time>
      </trkpt>
      <trkpt lat="32.820877516642213" lon="-4.580129887908697">
        <ele>1184.48</ele>
        <time>2019-03-11T11:33:15Z</time>
      </trkpt>
      <trkpt lat="32.820960665121675" lon="-4.580004662275314">
        <ele>1184</ele>
        <time>2019-03-11T11:33:16Z</time>
      </trkpt>
      <trkpt lat="32.821057392284274" lon="-4.579895781353116">
        <ele>1183.52</ele>
        <time>2019-03-11T11:33:17Z</time>
      </trkpt>
      <trkpt lat="32.82116811722517" lon="-4.579808777198196">
        <ele>1183.04</ele>
        <time>2019-03-11T11:33:21Z</time>
      </trkpt>
      <trkpt lat="32.821288732811809" lon="-4.57975085824728">
        <ele>1182.5599999999999</ele>
        <time>2019-03-11T11:33:22Z</time>
      </trkpt>
      <trkpt lat="32.821414293721318" lon="-4.579723030328751">
        <ele>1182.0799999999999</ele>
        <time>2019-03-11T11:33:23Z</time>
      </trkpt>
      <trkpt lat="32.821542955935001" lon="-4.579711714759469">
        <ele>1181.1199999999999</ele>
        <time>2019-03-11T11:33:24Z</time>
      </trkpt>
      <trkpt lat="32.822029106318951" lon="-4.579650107771158">
        <ele>1180.6400000000001</ele>
        <time>2019-03-11T11:33:25Z</time>
      </trkpt>
      <trkpt lat="32.822118038311601" lon="-4.579617250710726">
        <ele>1180.1600000000001</ele>
        <time>2019-03-11T11:33:26Z</time>
      </trkpt>
      <trkpt lat="32.822183668613434" lon="-4.579567210748792">
        <ele>1179.1900000000001</ele>
        <time>2019-03-11T11:33:27Z</time>
      </trkpt>
      <trkpt lat="32.822225326672196" lon="-4.579494120553136">
        <ele>1178.71</ele>
        <time>2019-03-11T11:33:28Z</time>
      </trkpt>
      <trkpt lat="32.822239911183715" lon="-4.579400662332773">
        <ele>1178.23</ele>
        <time>2019-03-11T11:33:29Z</time>
      </trkpt>
      <trkpt lat="32.82222842797637" lon="-4.579297313466668">
        <ele>1177.75</ele>
        <time>2019-03-11T11:33:30Z</time>
      </trkpt>
      <trkpt lat="32.82219716347754" lon="-4.579192958772183">
        <ele>1177.27</ele>
        <time>2019-03-11T11:33:31Z</time>
      </trkpt>
      <trkpt lat="32.822149386629462" lon="-4.579095812514424">
        <ele>1174.8699999999999</ele>
        <time>2019-03-11T11:33:34Z</time>
      </trkpt>
      <trkpt lat="32.822076044976711" lon="-4.579017776995897">
        <ele>1174.8699999999999</ele>
        <time>2019-03-11T11:33:35Z</time>
      </trkpt>
      <trkpt lat="32.821980407461524" lon="-4.578964132815599">
        <ele>1174.3900000000001</ele>
        <time>2019-03-11T11:33:37Z</time>
      </trkpt>
      <trkpt lat="32.821871442720294" lon="-4.57892213948071">
        <ele>1174.3900000000001</ele>
        <time>2019-03-11T11:33:38Z</time>
      </trkpt>
      <trkpt lat="32.821549912914634" lon="-4.578763637691736">
        <ele>1174.8699999999999</ele>
        <time>2019-03-11T11:33:39Z</time>
      </trkpt>
      <trkpt lat="32.821456789970398" lon="-4.578675040975213">
        <ele>1174.8699999999999</ele>
        <time>2019-03-11T11:33:45Z</time>
      </trkpt>
      <trkpt lat="32.821270627900958" lon="-4.578485358506441">
        <ele>1174.3900000000001</ele>
        <time>2019-03-11T11:33:46Z</time>
      </trkpt>
      <trkpt lat="32.821160992607474" lon="-4.578405898064375">
        <ele>1174.3900000000001</ele>
        <time>2019-03-11T11:33:47Z</time>
      </trkpt>
      <trkpt lat="32.821047669276595" lon="-4.578324258327484">
        <ele>1173.9100000000001</ele>
        <time>2019-03-11T11:33:48Z</time>
      </trkpt>
      <trkpt lat="32.820550622418523" lon="-4.577800640836358">
        <ele>1173.4300000000001</ele>
        <time>2019-03-11T11:33:49Z</time>
      </trkpt>
      <trkpt lat="32.82048893161118" lon="-4.577746074646711">
        <ele>1172.95</ele>
        <time>2019-03-11T11:33:50Z</time>
      </trkpt>
      <trkpt lat="32.820422295480967" lon="-4.577716570347548">
        <ele>1172.47</ele>
        <time>2019-03-11T11:33:51Z</time>
      </trkpt>
      <trkpt lat="32.82035356387496" lon="-4.57770986482501">
        <ele>1171.98</ele>
        <time>2019-03-11T11:33:52Z</time>
      </trkpt>
      <trkpt lat="32.820284077897668" lon="-4.577730568125844">
        <ele>1171.5</ele>
        <time>2019-03-11T11:33:53Z</time>
      </trkpt>
      <trkpt lat="32.820216100662947" lon="-4.57778169773519">
        <ele>1171.5</ele>
        <time>2019-03-11T11:33:54Z</time>
      </trkpt>
      <trkpt lat="32.820149464532733" lon="-4.577855290845037">
        <ele>1171.5</ele>
        <time>2019-03-11T11:33:55Z</time>
      </trkpt>
      <trkpt lat="32.820076458156109" lon="-4.577935757115483">
        <ele>1171.02</ele>
        <time>2019-03-11T11:33:56Z</time>
      </trkpt>
      <trkpt lat="32.81999196857214" lon="-4.57801035605371">
        <ele>1171.02</ele>
        <time>2019-03-11T11:33:57Z</time>
      </trkpt>
      <trkpt lat="32.819901192560792" lon="-4.578071795403957">
        <ele>1171.02</ele>
        <time>2019-03-11T11:33:58Z</time>
      </trkpt>
      <trkpt lat="32.819806728512049" lon="-4.578118063509464">
        <ele>1169.5799999999999</ele>
        <time>2019-03-11T11:33:59Z</time>
      </trkpt>
      <trkpt lat="32.819716706871986" lon="-4.578148825094104">
        <ele>1169.0999999999999</ele>
        <time>2019-03-11T11:34:00Z</time>
      </trkpt>
      <trkpt lat="32.819634564220905" lon="-4.57817011512816">
        <ele>1168.6199999999999</ele>
        <time>2019-03-11T11:34:01Z</time>
      </trkpt>
      <trkpt lat="32.819561557844281" lon="-4.578193752095103">
        <ele>1168.1400000000001</ele>
        <time>2019-03-11T11:34:02Z</time>
      </trkpt>
      <trkpt lat="32.819501208141446" lon="-4.578226357698441">
        <ele>1168.1400000000001</ele>
        <time>2019-03-11T11:34:03Z</time>
      </trkpt>
      <trkpt lat="32.819455191493034" lon="-4.578274469822645">
        <ele>1167.6600000000001</ele>
        <time>2019-03-11T11:34:06Z</time>
      </trkpt>
      <trkpt lat="32.819428285583854" lon="-4.578343704342842">
        <ele>1167.1800000000001</ele>
        <time>2019-03-11T11:34:07Z</time>
      </trkpt>
      <trkpt lat="32.819420490413904" lon="-4.578430373221636">
        <ele>1166.22</ele>
        <time>2019-03-11T11:34:08Z</time>
      </trkpt>
      <trkpt lat="32.819424429908395" lon="-4.578531878069043">
        <ele>1166.22</ele>
        <time>2019-03-11T11:34:09Z</time>
      </trkpt>
      <trkpt lat="32.819426106289029" lon="-4.578830860555172">
        <ele>1165.74</ele>
        <time>2019-03-11T11:34:10Z</time>
      </trkpt>
      <trkpt lat="32.819412359967828" lon="-4.578907638788223">
        <ele>1165.26</ele>
        <time>2019-03-11T11:34:11Z</time>
      </trkpt>
      <trkpt lat="32.819382017478347" lon="-4.578966982662678">
        <ele>1165.26</ele>
        <time>2019-03-11T11:34:12Z</time>
      </trkpt>
      <trkpt lat="32.819332145154476" lon="-4.579003946855664">
        <ele>1164.77</ele>
        <time>2019-03-11T11:34:15Z</time>
      </trkpt>
      <trkpt lat="32.819267939776182" lon="-4.57901299931109">
        <ele>1164.29</ele>
        <time>2019-03-11T11:34:16Z</time>
      </trkpt>
      <trkpt lat="32.819200213998556" lon="-4.578991960734129">
        <ele>1164.29</ele>
        <time>2019-03-11T11:34:17Z</time>
      </trkpt>
      <trkpt lat="32.819129973649979" lon="-4.578956086188555">
        <ele>1163.8099999999999</ele>
        <time>2019-03-11T11:34:18Z</time>
      </trkpt>
      <trkpt lat="32.818900309503078" lon="-4.578864388167858">
        <ele>1163.8099999999999</ele>
        <time>2019-03-11T11:34:19Z</time>
      </trkpt>
      <trkpt lat="32.818822860717773" lon="-4.57885567098856">
        <ele>1163.8099999999999</ele>
        <time>2019-03-11T11:34:20Z</time>
      </trkpt>
      <trkpt lat="32.818744154646993" lon="-4.578872267156839">
        <ele>1162.8499999999999</ele>
        <time>2019-03-11T11:34:21Z</time>
      </trkpt>
      <trkpt lat="32.818666202947497" lon="-4.578914847224951">
        <ele>1162.3699999999999</ele>
        <time>2019-03-11T11:34:22Z</time>
      </trkpt>
      <trkpt lat="32.818595627322793" lon="-4.57897050306201">
        <ele>1161.8900000000001</ele>
        <time>2019-03-11T11:34:23Z</time>
      </trkpt>
      <trkpt lat="32.818531086668372" lon="-4.579031523317099">
        <ele>1161.4100000000001</ele>
        <time>2019-03-11T11:34:24Z</time>
      </trkpt>
      <trkpt lat="32.818477442488074" lon="-4.579102601855993">
        <ele>1159.01</ele>
        <time>2019-03-11T11:34:25Z</time>
      </trkpt>
      <trkpt lat="32.818437712267041" lon="-4.579187175258994">
        <ele>1158.53</ele>
        <time>2019-03-11T11:34:26Z</time>
      </trkpt>
      <trkpt lat="32.818413991481066" lon="-4.579279627650976">
        <ele>1158.05</ele>
        <time>2019-03-11T11:34:27Z</time>
      </trkpt>
      <trkpt lat="32.818390773609281" lon="-4.579363027587533">
        <ele>1157.5599999999999</ele>
        <time>2019-03-11T11:34:28Z</time>
      </trkpt>
      <trkpt lat="32.818350959569216" lon="-4.579428406432271">
        <ele>1157.5599999999999</ele>
        <time>2019-03-11T11:34:29Z</time>
      </trkpt>
      <trkpt lat="32.818290609866381" lon="-4.579475848004222">
        <ele>1156.5999999999999</ele>
        <time>2019-03-11T11:34:33Z</time>
      </trkpt>
      <trkpt lat="32.818218022584915" lon="-4.579523289576173">
        <ele>1156.1199999999999</ele>
        <time>2019-03-11T11:34:34Z</time>
      </trkpt>
      <trkpt lat="32.818144680932164" lon="-4.579587494954467">
        <ele>1156.1199999999999</ele>
        <time>2019-03-11T11:34:35Z</time>
      </trkpt>
      <trkpt lat="32.818070752546191" lon="-4.57966092042625">
        <ele>1155.6400000000001</ele>
        <time>2019-03-11T11:34:36Z</time>
      </trkpt>
      <trkpt lat="32.817816277965903" lon="-4.579918244853616">
        <ele>1155.1600000000001</ele>
        <time>2019-03-11T11:34:37Z</time>
      </trkpt>
      <trkpt lat="32.817795155569911" lon="-4.57999711856246">
        <ele>1152.28</ele>
        <time>2019-03-11T11:34:38Z</time>
      </trkpt>
      <trkpt lat="32.817801777273417" lon="-4.580082446336746">
        <ele>1151.3199999999999</ele>
        <time>2019-03-11T11:34:39Z</time>
      </trkpt>
      <trkpt lat="32.817813931033015" lon="-4.580165343359113">
        <ele>1144.1099999999999</ele>
        <time>2019-03-11T11:34:40Z</time>
      </trkpt>
      <trkpt lat="32.817806471139193" lon="-4.58024337887764">
        <ele>1143.1400000000001</ele>
        <time>2019-03-11T11:34:41Z</time>
      </trkpt>
      <trkpt lat="32.817768836393952" lon="-4.580308673903346">
        <ele>1142.6600000000001</ele>
        <time>2019-03-11T11:34:42Z</time>
      </trkpt>
      <trkpt lat="32.817705804482102" lon="-4.580353936180472">
        <ele>1141.22</ele>
        <time>2019-03-11T11:34:47Z</time>
      </trkpt>
      <trkpt lat="32.817624416202307" lon="-4.580384949222207">
        <ele>1139.78</ele>
        <time>2019-03-11T11:34:48Z</time>
      </trkpt>
      <trkpt lat="32.817532466724515" lon="-4.580411436036229">
        <ele>1138.3399999999999</ele>
        <time>2019-03-11T11:34:56Z</time>
      </trkpt>
      <trkpt lat="32.817430039867759" lon="-4.580437587574124">
        <ele>1139.3</ele>
        <time>2019-03-11T11:34:59Z</time>
      </trkpt>
      <trkpt lat="32.816891251131892" lon="-4.580582091584802">
        <ele>1138.8199999999999</ele>
        <time>2019-03-11T11:35:00Z</time>
      </trkpt>
      <trkpt lat="32.816776670515537" lon="-4.58057907409966">
        <ele>1138.3399999999999</ele>
        <time>2019-03-11T11:35:07Z</time>
      </trkpt>
      <trkpt lat="32.816008385270834" lon="-4.580577481538057">
        <ele>1137.8599999999999</ele>
        <time>2019-03-11T11:35:14Z</time>
      </trkpt>
      <trkpt lat="32.815911574289203" lon="-4.580625426024199">
        <ele>1135.45</ele>
        <time>2019-03-11T11:35:24Z</time>
      </trkpt>
      <trkpt lat="32.815868742763996" lon="-4.580664820969105">
        <ele>1135.45</ele>
        <time>2019-03-11T11:35:50Z</time>
      </trkpt>
      <trkpt lat="32.815768662840128" lon="-4.580763392150402">
        <ele>1134.97</ele>
        <time>2019-03-11T11:35:59Z</time>
      </trkpt>
      <trkpt lat="32.815608736127615" lon="-4.580943016335368">
        <ele>1134.49</ele>
        <time>2019-03-11T11:36:00Z</time>
      </trkpt>
      <trkpt lat="32.815429866313934" lon="-4.58114443346858">
        <ele>1134.01</ele>
        <time>2019-03-11T11:36:01Z</time>
      </trkpt>
      <trkpt lat="32.815353088080883" lon="-4.581236047670245">
        <ele>1134.01</ele>
        <time>2019-03-11T11:36:14Z</time>
      </trkpt>
      <trkpt lat="32.815065421164036" lon="-4.581671487540007">
        <ele>1134.49</ele>
        <time>2019-03-11T11:36:15Z</time>
      </trkpt>
      <trkpt lat="32.815020913258195" lon="-4.581725550815463">
        <ele>1133.53</ele>
        <time>2019-03-11T11:36:16Z</time>
      </trkpt>
      <trkpt lat="32.814970789477229" lon="-4.581773998215795">
        <ele>1134.01</ele>
        <time>2019-03-11T11:36:20Z</time>
      </trkpt>
      <trkpt lat="32.814298225566745" lon="-4.582528369501233">
        <ele>1134.01</ele>
        <time>2019-03-11T11:36:24Z</time>
      </trkpt>
      <trkpt lat="32.814256902784109" lon="-4.582609506323934">
        <ele>1134.01</ele>
        <time>2019-03-11T11:36:25Z</time>
      </trkpt>
      <trkpt lat="32.814221950247884" lon="-4.582694666460156">
        <ele>1134.01</ele>
        <time>2019-03-11T11:36:26Z</time>
      </trkpt>
      <trkpt lat="32.814075602218509" lon="-4.583033630624414">
        <ele>1133.53</ele>
        <time>2019-03-11T11:36:35Z</time>
      </trkpt>
      <trkpt lat="32.813901007175446" lon="-4.583314089104533">
        <ele>1132.0899999999999</ele>
        <time>2019-03-11T11:36:36Z</time>
      </trkpt>
      <trkpt lat="32.813851134851575" lon="-4.583363709971309">
        <ele>1132.0899999999999</ele>
        <time>2019-03-11T11:36:37Z</time>
      </trkpt>
      <trkpt lat="32.813796987757087" lon="-4.583407631143928">
        <ele>1132.0899999999999</ele>
        <time>2019-03-11T11:36:38Z</time>
      </trkpt>
      <trkpt lat="32.813340090215206" lon="-4.58374491892755">
        <ele>1131.6099999999999</ele>
        <time>2019-03-11T11:36:39Z</time>
      </trkpt>
      <trkpt lat="32.813314022496343" lon="-4.583796551451087">
        <ele>1131.6099999999999</ele>
        <time>2019-03-11T11:36:50Z</time>
      </trkpt>
      <trkpt lat="32.813295079395175" lon="-4.583859331905842">
        <ele>1132.0899999999999</ele>
        <time>2019-03-11T11:36:59Z</time>
      </trkpt>
      <trkpt lat="32.813277980312705" lon="-4.583930745720863">
        <ele>1131.6099999999999</ele>
        <time>2019-03-11T11:37:00Z</time>
      </trkpt>
      <trkpt lat="32.813262222334743" lon="-4.584006099030376">
        <ele>1131.6099999999999</ele>
        <time>2019-03-11T11:37:01Z</time>
      </trkpt>
      <trkpt lat="32.813187288120389" lon="-4.584634155035019">
        <ele>1131.1300000000001</ele>
        <time>2019-03-11T11:37:02Z</time>
      </trkpt>
      <trkpt lat="32.813184689730406" lon="-4.585274448618293">
        <ele>1131.1300000000001</ele>
        <time>2019-03-11T11:37:03Z</time>
      </trkpt>
      <trkpt lat="32.813178906217217" lon="-4.585375199094415">
        <ele>1131.6099999999999</ele>
        <time>2019-03-11T11:37:12Z</time>
      </trkpt>
      <trkpt lat="32.813162645325065" lon="-4.585483074188232">
        <ele>1131.6099999999999</ele>
        <time>2019-03-11T11:37:13Z</time>
      </trkpt>
      <trkpt lat="32.813136242330074" lon="-4.585594469681382">
        <ele>1131.6099999999999</ele>
        <time>2019-03-11T11:37:14Z</time>
      </trkpt>
      <trkpt lat="32.813103049993515" lon="-4.585709134116769">
        <ele>1131.6099999999999</ele>
        <time>2019-03-11T11:37:15Z</time>
      </trkpt>
      <trkpt lat="32.812878163531423" lon="-4.586745221167803">
        <ele>1131.6099999999999</ele>
        <time>2019-03-11T11:37:16Z</time>
      </trkpt>
      <trkpt lat="32.812883779406548" lon="-4.586858879774809">
        <ele>1131.6099999999999</ele>
        <time>2019-03-11T11:37:20Z</time>
      </trkpt>
      <trkpt lat="32.812897693365812" lon="-4.586973460391164">
        <ele>1131.6099999999999</ele>
        <time>2019-03-11T11:37:21Z</time>
      </trkpt>
      <trkpt lat="32.812923090532422" lon="-4.587087789550424">
        <ele>1131.6099999999999</ele>
        <time>2019-03-11T11:37:22Z</time>
      </trkpt>
      <trkpt lat="32.812957623973489" lon="-4.587202873080969">
        <ele>1131.6099999999999</ele>
        <time>2019-03-11T11:37:23Z</time>
      </trkpt>
      <trkpt lat="32.813058039173484" lon="-4.587641162797809">
        <ele>1131.6099999999999</ele>
        <time>2019-03-11T11:37:24Z</time>
      </trkpt>
      <trkpt lat="32.813061391934752" lon="-4.587753396481276">
        <ele>1131.6099999999999</ele>
        <time>2019-03-11T11:37:25Z</time>
      </trkpt>
      <trkpt lat="32.813054686412215" lon="-4.587868731468916">
        <ele>1131.6099999999999</ele>
        <time>2019-03-11T11:37:26Z</time>
      </trkpt>
      <trkpt lat="32.813035743311048" lon="-4.587984317913652">
        <ele>1131.6099999999999</ele>
        <time>2019-03-11T11:37:27Z</time>
      </trkpt>
      <trkpt lat="32.813004814088345" lon="-4.588102418929339">
        <ele>1132.0899999999999</ele>
        <time>2019-03-11T11:37:28Z</time>
      </trkpt>
      <trkpt lat="32.812959384173155" lon="-4.588216245174408">
        <ele>1132.0899999999999</ele>
        <time>2019-03-11T11:37:29Z</time>
      </trkpt>
      <trkpt lat="32.812903393059969" lon="-4.588326634839177">
        <ele>1132.0899999999999</ele>
        <time>2019-03-11T11:37:39Z</time>
      </trkpt>
      <trkpt lat="32.812841618433595" lon="-4.588431073352695">
        <ele>1132.0899999999999</ele>
        <time>2019-03-11T11:37:40Z</time>
      </trkpt>
      <trkpt lat="32.812773138284683" lon="-4.588527800515294">
        <ele>1132.0899999999999</ele>
        <time>2019-03-11T11:37:41Z</time>
      </trkpt>
      <trkpt lat="32.812704322859645" lon="-4.588621342554689">
        <ele>1132.0899999999999</ele>
        <time>2019-03-11T11:37:42Z</time>
      </trkpt>
      <trkpt lat="32.812058413401246" lon="-4.589461460709572">
        <ele>1132.5699999999999</ele>
        <time>2019-03-11T11:37:43Z</time>
      </trkpt>
      <trkpt lat="32.811978282406926" lon="-4.589516529813409">
        <ele>1132.5699999999999</ele>
        <time>2019-03-11T11:37:44Z</time>
      </trkpt>
      <trkpt lat="32.811888763681054" lon="-4.589557265862823">
        <ele>1132.5699999999999</ele>
        <time>2019-03-11T11:37:45Z</time>
      </trkpt>
      <trkpt lat="32.811790946871042" lon="-4.58958643488586">
        <ele>1133.05</ele>
        <time>2019-03-11T11:37:46Z</time>
      </trkpt>
      <trkpt lat="32.811691537499428" lon="-4.589610574766994">
        <ele>1133.05</ele>
        <time>2019-03-11T11:37:47Z</time>
      </trkpt>
      <trkpt lat="32.811594223603606" lon="-4.589642928913236">
        <ele>1133.53</ele>
        <time>2019-03-11T11:37:48Z</time>
      </trkpt>
      <trkpt lat="32.811501855030656" lon="-4.589687772095203">
        <ele>1133.53</ele>
        <time>2019-03-11T11:37:49Z</time>
      </trkpt>
      <trkpt lat="32.811418790370226" lon="-4.589740745723248">
        <ele>1134.01</ele>
        <time>2019-03-11T11:37:50Z</time>
      </trkpt>
      <trkpt lat="32.811341760680079" lon="-4.589801263064146">
        <ele>1134.97</ele>
        <time>2019-03-11T11:37:51Z</time>
      </trkpt>
      <trkpt lat="32.811267580837011" lon="-4.589870078489184">
        <ele>1134.97</ele>
        <time>2019-03-11T11:37:52Z</time>
      </trkpt>
      <trkpt lat="32.811198094859719" lon="-4.589947527274489">
        <ele>1134.97</ele>
        <time>2019-03-11T11:37:53Z</time>
      </trkpt>
      <trkpt lat="32.811134476214647" lon="-4.590033693239093">
        <ele>1135.45</ele>
        <time>2019-03-11T11:37:54Z</time>
      </trkpt>
      <trkpt lat="32.811080496758223" lon="-4.590129163116217">
        <ele>1135.9400000000001</ele>
        <time>2019-03-11T11:38:03Z</time>
      </trkpt>
      <trkpt lat="32.811040431261063" lon="-4.590235026553273">
        <ele>1135.45</ele>
        <time>2019-03-11T11:38:07Z</time>
      </trkpt>
      <trkpt lat="32.811014195904136" lon="-4.59035212174058">
        <ele>1135.45</ele>
        <time>2019-03-11T11:38:08Z</time>
      </trkpt>
      <trkpt lat="32.810994414612651" lon="-4.59047676064074">
        <ele>1135.9400000000001</ele>
        <time>2019-03-11T11:38:09Z</time>
      </trkpt>
      <trkpt lat="32.810962647199631" lon="-4.591807974502444">
        <ele>1135.9400000000001</ele>
        <time>2019-03-11T11:38:19Z</time>
      </trkpt>
      <trkpt lat="32.811012100428343" lon="-4.592334609478712">
        <ele>1135.9400000000001</ele>
        <time>2019-03-11T11:38:27Z</time>
      </trkpt>
      <trkpt lat="32.811004389077425" lon="-4.592450698837638">
        <ele>1136.4200000000001</ele>
        <time>2019-03-11T11:38:28Z</time>
      </trkpt>
      <trkpt lat="32.810981255024672" lon="-4.592556897550821">
        <ele>1136.4200000000001</ele>
        <time>2019-03-11T11:38:29Z</time>
      </trkpt>
      <trkpt lat="32.810876816511154" lon="-4.593517798930407">
        <ele>1136.4200000000001</ele>
        <time>2019-03-11T11:38:38Z</time>
      </trkpt>
      <trkpt lat="32.81080624088645" lon="-4.594372417777777">
        <ele>1136.4200000000001</ele>
        <time>2019-03-11T11:38:45Z</time>
      </trkpt>
      <trkpt lat="32.810765588656068" lon="-4.594465624541044">
        <ele>1136.4200000000001</ele>
        <time>2019-03-11T11:38:46Z</time>
      </trkpt>
      <trkpt lat="32.810708759352565" lon="-4.59455044940114">
        <ele>1136.4200000000001</ele>
        <time>2019-03-11T11:38:47Z</time>
      </trkpt>
      <trkpt lat="32.809927817434072" lon="-4.595353351905942">
        <ele>1136.9000000000001</ele>
        <time>2019-03-11T11:38:48Z</time>
      </trkpt>
      <trkpt lat="32.809414677321911" lon="-4.595887111499906">
        <ele>1138.3399999999999</ele>
        <time>2019-03-11T11:38:49Z</time>
      </trkpt>
      <trkpt lat="32.809367571026087" lon="-4.595964560285211">
        <ele>1138.3399999999999</ele>
        <time>2019-03-11T11:38:50Z</time>
      </trkpt>
      <trkpt lat="32.809329852461815" lon="-4.596053995192051">
        <ele>1138.3399999999999</ele>
        <time>2019-03-11T11:38:51Z</time>
      </trkpt>
      <trkpt lat="32.8093047067523" lon="-4.596157595515251">
        <ele>1138.3399999999999</ele>
        <time>2019-03-11T11:38:52Z</time>
      </trkpt>
      <trkpt lat="32.809291714802384" lon="-4.59626991301775">
        <ele>1138.3399999999999</ele>
        <time>2019-03-11T11:38:53Z</time>
      </trkpt>
      <trkpt lat="32.809286434203386" lon="-4.596389690414071">
        <ele>1138.3399999999999</ele>
        <time>2019-03-11T11:39:01Z</time>
      </trkpt>
      <trkpt lat="32.809291714802384" lon="-4.596515167504549">
        <ele>1138.3399999999999</ele>
        <time>2019-03-11T11:39:02Z</time>
      </trkpt>
      <trkpt lat="32.80931300483644" lon="-4.596643997356296">
        <ele>1138.3399999999999</ele>
        <time>2019-03-11T11:39:03Z</time>
      </trkpt>
      <trkpt lat="32.80934083275497" lon="-4.596772324293852">
        <ele>1138.3399999999999</ele>
        <time>2019-03-11T11:39:04Z</time>
      </trkpt>
      <trkpt lat="32.809533784165978" lon="-4.59752812050283">
        <ele>1138.8199999999999</ele>
        <time>2019-03-11T11:39:05Z</time>
      </trkpt>
      <trkpt lat="32.80957049690187" lon="-4.597609676420689">
        <ele>1138.8199999999999</ele>
        <time>2019-03-11T11:39:06Z</time>
      </trkpt>
      <trkpt lat="32.809621375054121" lon="-4.597693914547563">
        <ele>1139.3</ele>
        <time>2019-03-11T11:39:07Z</time>
      </trkpt>
      <trkpt lat="32.80968583188951" lon="-4.597776392474771">
        <ele>1139.3</ele>
        <time>2019-03-11T11:39:08Z</time>
      </trkpt>
      <trkpt lat="32.809760933741927" lon="-4.597862977534533">
        <ele>1139.3</ele>
        <time>2019-03-11T11:39:09Z</time>
      </trkpt>
      <trkpt lat="32.809846848249435" lon="-4.597949394956231">
        <ele>1139.3</ele>
        <time>2019-03-11T11:39:12Z</time>
      </trkpt>
      <trkpt lat="32.809944581240416" lon="-4.598031202331185">
        <ele>1139.3</ele>
        <time>2019-03-11T11:39:13Z</time>
      </trkpt>
      <trkpt lat="32.81005279161036" lon="-4.598106974735856">
        <ele>1139.78</ele>
        <time>2019-03-11T11:39:14Z</time>
      </trkpt>
      <trkpt lat="32.810162007808685" lon="-4.598179645836353">
        <ele>1139.78</ele>
        <time>2019-03-11T11:39:15Z</time>
      </trkpt>
      <trkpt lat="32.81046467833221" lon="-4.598416350781918">
        <ele>1140.26</ele>
        <time>2019-03-11T11:39:16Z</time>
      </trkpt>
      <trkpt lat="32.810546737164259" lon="-4.598514419049025">
        <ele>1140.26</ele>
        <time>2019-03-11T11:39:17Z</time>
      </trkpt>
      <trkpt lat="32.810618318617344" lon="-4.598628329113126">
        <ele>1140.74</ele>
        <time>2019-03-11T11:39:18Z</time>
      </trkpt>
      <trkpt lat="32.810681266710162" lon="-4.59875606931746">
        <ele>1140.74</ele>
        <time>2019-03-11T11:39:19Z</time>
      </trkpt>
      <trkpt lat="32.810733066871762" lon="-4.59889336489141">
        <ele>1141.22</ele>
        <time>2019-03-11T11:39:20Z</time>
      </trkpt>
      <trkpt lat="32.810776988044381" lon="-4.599033007398248">
        <ele>1141.7</ele>
        <time>2019-03-11T11:39:21Z</time>
      </trkpt>
      <trkpt lat="32.810824848711491" lon="-4.599164519459009">
        <ele>1142.1800000000001</ele>
        <time>2019-03-11T11:39:22Z</time>
      </trkpt>
      <trkpt lat="32.810890646651387" lon="-4.599280944094062">
        <ele>1142.6600000000001</ele>
        <time>2019-03-11T11:39:23Z</time>
      </trkpt>
      <trkpt lat="32.810973208397627" lon="-4.599381694570184">
        <ele>1143.1400000000001</ele>
        <time>2019-03-11T11:39:24Z</time>
      </trkpt>
      <trkpt lat="32.811059039086103" lon="-4.599479176104069">
        <ele>1143.1400000000001</ele>
        <time>2019-03-11T11:39:25Z</time>
      </trkpt>
      <trkpt lat="32.811128441244364" lon="-4.599588559940457">
        <ele>1143.1400000000001</ele>
        <time>2019-03-11T11:39:26Z</time>
      </trkpt>
      <trkpt lat="32.81117269769311" lon="-4.59970842115581">
        <ele>1142.1800000000001</ele>
        <time>2019-03-11T11:39:27Z</time>
      </trkpt>
      <trkpt lat="32.8111991006881" lon="-4.599833311513066">
        <ele>1141.7</ele>
        <time>2019-03-11T11:39:28Z</time>
      </trkpt>
      <trkpt lat="32.811214523389935" lon="-4.599961470812559">
        <ele>1139.3</ele>
        <time>2019-03-11T11:39:29Z</time>
      </trkpt>
      <trkpt lat="32.81121720559895" lon="-4.600091306492686">
        <ele>1138.8199999999999</ele>
        <time>2019-03-11T11:39:30Z</time>
      </trkpt>
      <trkpt lat="32.811201112344861" lon="-4.600219549611211">
        <ele>1139.3</ele>
        <time>2019-03-11T11:39:31Z</time>
      </trkpt>
      <trkpt lat="32.811161298304796" lon="-4.600342595949769">
        <ele>1139.3</ele>
        <time>2019-03-11T11:39:32Z</time>
      </trkpt>
      <trkpt lat="32.811099356040359" lon="-4.600457511842251">
        <ele>1139.3</ele>
        <time>2019-03-11T11:39:33Z</time>
      </trkpt>
      <trkpt lat="32.811021907255054" lon="-4.600567733868957">
        <ele>1139.78</ele>
        <time>2019-03-11T11:39:36Z</time>
      </trkpt>
      <trkpt lat="32.810932639986277" lon="-4.600668735802174">
        <ele>1139.78</ele>
        <time>2019-03-11T11:39:44Z</time>
      </trkpt>
      <trkpt lat="32.810829877853394" lon="-4.600768145173788">
        <ele>1139.78</ele>
        <time>2019-03-11T11:39:45Z</time>
      </trkpt>
      <trkpt lat="32.810717644169927" lon="-4.600865626707673">
        <ele>1139.78</ele>
        <time>2019-03-11T11:39:46Z</time>
      </trkpt>
      <trkpt lat="32.810332328081131" lon="-4.60112102329731">
        <ele>1140.26</ele>
        <time>2019-03-11T11:39:47Z</time>
      </trkpt>
      <trkpt lat="32.809338988736272" lon="-4.601560737937689">
        <ele>1140.26</ele>
        <time>2019-03-11T11:39:48Z</time>
      </trkpt>
      <trkpt lat="32.809249553829432" lon="-4.601630391553044">
        <ele>1140.26</ele>
        <time>2019-03-11T11:39:49Z</time>
      </trkpt>
      <trkpt lat="32.809172859415412" lon="-4.601710103452206">
        <ele>1140.74</ele>
        <time>2019-03-11T11:39:50Z</time>
      </trkpt>
      <trkpt lat="32.809112509712577" lon="-4.601799370720983">
        <ele>1140.74</ele>
        <time>2019-03-11T11:39:51Z</time>
      </trkpt>
      <trkpt lat="32.809064900502563" lon="-4.601895678788424">
        <ele>1140.74</ele>
        <time>2019-03-11T11:39:52Z</time>
      </trkpt>
      <trkpt lat="32.809030450880527" lon="-4.601993579417467">
        <ele>1140.26</ele>
        <time>2019-03-11T11:39:53Z</time>
      </trkpt>
      <trkpt lat="32.809010166674852" lon="-4.602093491703272">
        <ele>1140.74</ele>
        <time>2019-03-11T11:39:54Z</time>
      </trkpt>
      <trkpt lat="32.809007400646806" lon="-4.602189129218459">
        <ele>1142.1800000000001</ele>
        <time>2019-03-11T11:39:55Z</time>
      </trkpt>
      <trkpt lat="32.809024499729276" lon="-4.602276887744665">
        <ele>1143.1400000000001</ele>
        <time>2019-03-11T11:39:56Z</time>
      </trkpt>
      <trkpt lat="32.809056853875518" lon="-4.602363975718617">
        <ele>1143.6300000000001</ele>
        <time>2019-03-11T11:39:57Z</time>
      </trkpt>
      <trkpt lat="32.809102199971676" lon="-4.602450476959348">
        <ele>1143.6300000000001</ele>
        <time>2019-03-11T11:39:58Z</time>
      </trkpt>
      <trkpt lat="32.80916154384613" lon="-4.602536140009761">
        <ele>1144.1099999999999</ele>
        <time>2019-03-11T11:40:07Z</time>
      </trkpt>
      <trkpt lat="32.809232454746962" lon="-4.602620461955667">
        <ele>1144.1099999999999</ele>
        <time>2019-03-11T11:40:21Z</time>
      </trkpt>
      <trkpt lat="32.80931644141674" lon="-4.602703107520938">
        <ele>1145.0699999999999</ele>
        <time>2019-03-11T11:40:25Z</time>
      </trkpt>
      <trkpt lat="32.809408893808722" lon="-4.602787597104907">
        <ele>1145.0699999999999</ele>
        <time>2019-03-11T11:40:26Z</time>
      </trkpt>
      <trkpt lat="32.810398545116186" lon="-4.603621680289507">
        <ele>1145.0699999999999</ele>
        <time>2019-03-11T11:40:27Z</time>
      </trkpt>
      <trkpt lat="32.811874430626631" lon="-4.60486488416791">
        <ele>1145.0699999999999</ele>
        <time>2019-03-11T11:40:35Z</time>
      </trkpt>
      <trkpt lat="32.812320599332452" lon="-4.605158921331167">
        <ele>1145.0699999999999</ele>
        <time>2019-03-11T11:40:36Z</time>
      </trkpt>
      <trkpt lat="32.812416655942798" lon="-4.605255480855703">
        <ele>1146.03</ele>
        <time>2019-03-11T11:40:39Z</time>
      </trkpt>
      <trkpt lat="32.812507934868336" lon="-4.605364613234997">
        <ele>1146.51</ele>
        <time>2019-03-11T11:40:40Z</time>
      </trkpt>
      <trkpt lat="32.813177146017551" lon="-4.606334399431944">
        <ele>1146.99</ele>
        <time>2019-03-11T11:40:41Z</time>
      </trkpt>
      <trkpt lat="32.813270604237914" lon="-4.606429031118751">
        <ele>1146.99</ele>
        <time>2019-03-11T11:40:43Z</time>
      </trkpt>
      <trkpt lat="32.813548212870955" lon="-4.606691049411893">
        <ele>1146.51</ele>
        <time>2019-03-11T11:40:44Z</time>
      </trkpt>
      <trkpt lat="32.813611915335059" lon="-4.606794314458966">
        <ele>1146.51</ele>
        <time>2019-03-11T11:40:48Z</time>
      </trkpt>
      <trkpt lat="32.813661033287644" lon="-4.606902441009879">
        <ele>1146.99</ele>
        <time>2019-03-11T11:40:49Z</time>
      </trkpt>
      <trkpt lat="32.813733201473951" lon="-4.607118861749768">
        <ele>1148.4300000000001</ele>
        <time>2019-03-11T11:40:51Z</time>
      </trkpt>
      <trkpt lat="32.813755748793483" lon="-4.60723327472806">
        <ele>1148.9100000000001</ele>
        <time>2019-03-11T11:40:52Z</time>
      </trkpt>
      <trkpt lat="32.81378835439682" lon="-4.6077527012676">
        <ele>1149.8699999999999</ele>
        <time>2019-03-11T11:40:53Z</time>
      </trkpt>
      <trkpt lat="32.813778966665268" lon="-4.60789586417377">
        <ele>1149.8699999999999</ele>
        <time>2019-03-11T11:40:54Z</time>
      </trkpt>
      <trkpt lat="32.81373898498714" lon="-4.608177831396461">
        <ele>1149.8699999999999</ele>
        <time>2019-03-11T11:40:55Z</time>
      </trkpt>
      <trkpt lat="32.813693135976791" lon="-4.608312947675586">
        <ele>1150.3499999999999</ele>
        <time>2019-03-11T11:40:59Z</time>
      </trkpt>
      <trkpt lat="32.813625745475292" lon="-4.608438760042191">
        <ele>1150.3499999999999</ele>
        <time>2019-03-11T11:41:00Z</time>
      </trkpt>
      <trkpt lat="32.813542261719704" lon="-4.608558705076575">
        <ele>1150.8399999999999</ele>
        <time>2019-03-11T11:41:01Z</time>
      </trkpt>
      <trkpt lat="32.813450898975134" lon="-4.608677141368389">
        <ele>1150.8399999999999</ele>
        <time>2019-03-11T11:41:02Z</time>
      </trkpt>
      <trkpt lat="32.813041694462299" lon="-4.609133871272206">
        <ele>1150.3499999999999</ele>
        <time>2019-03-11T11:41:03Z</time>
      </trkpt>
      <trkpt lat="32.812925102189183" lon="-4.609220875427127">
        <ele>1150.3499999999999</ele>
        <time>2019-03-11T11:41:04Z</time>
      </trkpt>
      <trkpt lat="32.812810856848955" lon="-4.609293378889561">
        <ele>1149.8699999999999</ele>
        <time>2019-03-11T11:41:05Z</time>
      </trkpt>
      <trkpt lat="32.812701808288693" lon="-4.609340904280543">
        <ele>1149.8699999999999</ele>
        <time>2019-03-11T11:41:06Z</time>
      </trkpt>
      <trkpt lat="32.812594855204225" lon="-4.609357668086886">
        <ele>1149.8699999999999</ele>
        <time>2019-03-11T11:41:07Z</time>
      </trkpt>
      <trkpt lat="32.812492344528437" lon="-4.609354147687554">
        <ele>1149.3900000000001</ele>
        <time>2019-03-11T11:41:08Z</time>
      </trkpt>
      <trkpt lat="32.81239477917552" lon="-4.609344759956002">
        <ele>1148.9100000000001</ele>
        <time>2019-03-11T11:41:09Z</time>
      </trkpt>
      <trkpt lat="32.812302829697728" lon="-4.609343921765685">
        <ele>1148.9100000000001</ele>
        <time>2019-03-11T11:41:10Z</time>
      </trkpt>
      <trkpt lat="32.812215741723776" lon="-4.609362864866853">
        <ele>1148.4300000000001</ele>
        <time>2019-03-11T11:41:11Z</time>
      </trkpt>
      <trkpt lat="32.812140388414264" lon="-4.609406786039472">
        <ele>1148.4300000000001</ele>
        <time>2019-03-11T11:41:12Z</time>
      </trkpt>
      <trkpt lat="32.812083307653666" lon="-4.609475769102573">
        <ele>1148.4300000000001</ele>
        <time>2019-03-11T11:41:13Z</time>
      </trkpt>
      <trkpt lat="32.812049360945821" lon="-4.609563108533621">
        <ele>1148.4300000000001</ele>
        <time>2019-03-11T11:41:14Z</time>
      </trkpt>
      <trkpt lat="32.812039973214269" lon="-4.609663859009743">
        <ele>1148.9100000000001</ele>
        <time>2019-03-11T11:41:15Z</time>
      </trkpt>
      <trkpt lat="32.812053132802248" lon="-4.609768381342292">
        <ele>1148.9100000000001</ele>
        <time>2019-03-11T11:41:16Z</time>
      </trkpt>
      <trkpt lat="32.812083559110761" lon="-4.609873155131936">
        <ele>1149.3900000000001</ele>
        <time>2019-03-11T11:41:17Z</time>
      </trkpt>
      <trkpt lat="32.812126306816936" lon="-4.609978096559644">
        <ele>1149.3900000000001</ele>
        <time>2019-03-11T11:41:18Z</time>
      </trkpt>
      <trkpt lat="32.812182884663343" lon="-4.610077505931258">
        <ele>1149.8699999999999</ele>
        <time>2019-03-11T11:41:19Z</time>
      </trkpt>
      <trkpt lat="32.812257064506412" lon="-4.610166186466813">
        <ele>1149.8699999999999</ele>
        <time>2019-03-11T11:41:20Z</time>
      </trkpt>
      <trkpt lat="32.812347589060664" lon="-4.610245227813721">
        <ele>1150.3499999999999</ele>
        <time>2019-03-11T11:41:28Z</time>
      </trkpt>
      <trkpt lat="32.812449596822262" lon="-4.610312199220061">
        <ele>1146.99</ele>
        <time>2019-03-11T11:41:38Z</time>
      </trkpt>
      <trkpt lat="32.81256384216249" lon="-4.610373051837087">
        <ele>1146.51</ele>
        <time>2019-03-11T11:41:39Z</time>
      </trkpt>
      <trkpt lat="32.812688313424587" lon="-4.610432898625732">
        <ele>1146.51</ele>
        <time>2019-03-11T11:41:40Z</time>
      </trkpt>
      <trkpt lat="32.813635217025876" lon="-4.611083837226033">
        <ele>1147.47</ele>
        <time>2019-03-11T11:41:41Z</time>
      </trkpt>
      <trkpt lat="32.814502995461226" lon="-4.611972654238343">
        <ele>1146.99</ele>
        <time>2019-03-11T11:41:48Z</time>
      </trkpt>
      <trkpt lat="32.814548090100288" lon="-4.612047001719475">
        <ele>1146.99</ele>
        <time>2019-03-11T11:42:16Z</time>
      </trkpt>
      <trkpt lat="32.814575079828501" lon="-4.612116320058703">
        <ele>1146.51</ele>
        <time>2019-03-11T11:42:30Z</time>
      </trkpt>
      <trkpt lat="32.814581952989101" lon="-4.612169461324811">
        <ele>1146.99</ele>
        <time>2019-03-11T11:42:31Z</time>
      </trkpt>
      <trkpt lat="32.814579689875245" lon="-4.612196115776897">
        <ele>1146.99</ele>
        <time>2019-03-11T11:42:40Z</time>
      </trkpt>
      <trkpt lat="32.814546581357718" lon="-4.612278509885073">
        <ele>1146.99</ele>
        <time>2019-03-11T11:42:44Z</time>
      </trkpt>
      <trkpt lat="32.814438622444868" lon="-4.612509431317449">
        <ele>1152.28</ele>
        <time>2019-03-11T11:42:45Z</time>
      </trkpt>
      <trkpt lat="32.81444507651031" lon="-4.612533738836646">
        <ele>1157.5599999999999</ele>
        <time>2019-03-11T11:42:46Z</time>
      </trkpt>
      <trkpt lat="32.814507689327002" lon="-4.612642619758844">
        <ele>1160.9300000000001</ele>
        <time>2019-03-11T11:42:47Z</time>
      </trkpt>
      <trkpt lat="32.814618330448866" lon="-4.612893993034959">
        <ele>1162.3699999999999</ele>
        <time>2019-03-11T11:42:48Z</time>
      </trkpt>
      <trkpt lat="32.814628221094608" lon="-4.612974459305406">
        <ele>1162.8499999999999</ele>
        <time>2019-03-11T11:42:49Z</time>
      </trkpt>
      <trkpt lat="32.814623191952705" lon="-4.613062469288707">
        <ele>1162.8499999999999</ele>
        <time>2019-03-11T11:42:59Z</time>
      </trkpt>
      <trkpt lat="32.814604584127665" lon="-4.613158944994211">
        <ele>1162.8499999999999</ele>
        <time>2019-03-11T11:43:05Z</time>
      </trkpt>
      <trkpt lat="32.814564350992441" lon="-4.613265478983522">
        <ele>1162.8499999999999</ele>
        <time>2019-03-11T11:43:09Z</time>
      </trkpt>
      <trkpt lat="32.81452177092433" lon="-4.613367235288024">
        <ele>1162.3699999999999</ele>
        <time>2019-03-11T11:43:11Z</time>
      </trkpt>
      <trkpt lat="32.813888769596815" lon="-4.61433450691402">
        <ele>1162.3699999999999</ele>
        <time>2019-03-11T11:43:12Z</time>
      </trkpt>
      <trkpt lat="32.813531784340739" lon="-4.614855106920004">
        <ele>1162.3699999999999</ele>
        <time>2019-03-11T11:43:13Z</time>
      </trkpt>
      <trkpt lat="32.81341209076345" lon="-4.615222737193108">
        <ele>1162.8499999999999</ele>
        <time>2019-03-11T11:43:14Z</time>
      </trkpt>
      <trkpt lat="32.813385101035237" lon="-4.615372773259878">
        <ele>1163.3299999999999</ele>
        <time>2019-03-11T11:43:15Z</time>
      </trkpt>
      <trkpt lat="32.813362805172801" lon="-4.61542759090662">
        <ele>1164.29</ele>
        <time>2019-03-11T11:43:16Z</time>
      </trkpt>
      <trkpt lat="32.813328020274639" lon="-4.615471931174398">
        <ele>1164.77</ele>
        <time>2019-03-11T11:43:18Z</time>
      </trkpt>
      <trkpt lat="32.81328309327364" lon="-4.615512164309621">
        <ele>1165.74</ele>
        <time>2019-03-11T11:43:19Z</time>
      </trkpt>
      <trkpt lat="32.81323129311204" lon="-4.61554829031229">
        <ele>1166.22</ele>
        <time>2019-03-11T11:43:20Z</time>
      </trkpt>
      <trkpt lat="32.813173960894346" lon="-4.615584500133991">
        <ele>1166.7</ele>
        <time>2019-03-11T11:43:21Z</time>
      </trkpt>
      <trkpt lat="32.813046975061297" lon="-4.615643760189414">
        <ele>1167.1800000000001</ele>
        <time>2019-03-11T11:43:22Z</time>
      </trkpt>
      <trkpt lat="32.812974555417895" lon="-4.615657171234489">
        <ele>1167.6600000000001</ele>
        <time>2019-03-11T11:43:23Z</time>
      </trkpt>
      <trkpt lat="32.81289953738451" lon="-4.6156513877213">
        <ele>1167.1800000000001</ele>
        <time>2019-03-11T11:43:24Z</time>
      </trkpt>
      <trkpt lat="32.812825022265315" lon="-4.615626325830817">
        <ele>1166.7</ele>
        <time>2019-03-11T11:43:25Z</time>
      </trkpt>
      <trkpt lat="32.812754446640611" lon="-4.615580979734659">
        <ele>1167.1800000000001</ele>
        <time>2019-03-11T11:43:26Z</time>
      </trkpt>
      <trkpt lat="32.812690157443285" lon="-4.615528425201774">
        <ele>1167.1800000000001</ele>
        <time>2019-03-11T11:43:27Z</time>
      </trkpt>
      <trkpt lat="32.81262394040823" lon="-4.615477798506618">
        <ele>1167.1800000000001</ele>
        <time>2019-03-11T11:43:28Z</time>
      </trkpt>
      <trkpt lat="32.812551939859986" lon="-4.615444857627153">
        <ele>1167.1800000000001</ele>
        <time>2019-03-11T11:43:36Z</time>
      </trkpt>
      <trkpt lat="32.812474574893713" lon="-4.615433374419808">
        <ele>1168.1400000000001</ele>
        <time>2019-03-11T11:43:37Z</time>
      </trkpt>
      <trkpt lat="32.81239427626133" lon="-4.61544519290328">
        <ele>1168.6199999999999</ele>
        <time>2019-03-11T11:43:38Z</time>
      </trkpt>
      <trkpt lat="32.812307942658663" lon="-4.615468997508287">
        <ele>1169.5799999999999</ele>
        <time>2019-03-11T11:43:39Z</time>
      </trkpt>
      <trkpt lat="32.81152306124568" lon="-4.615647364407778">
        <ele>1170.0599999999999</ele>
        <time>2019-03-11T11:43:40Z</time>
      </trkpt>
      <trkpt lat="32.811441756784916" lon="-4.615710563957691">
        <ele>1170.0599999999999</ele>
        <time>2019-03-11T11:43:41Z</time>
      </trkpt>
      <trkpt lat="32.811370929703116" lon="-4.615788515657187">
        <ele>1170.0599999999999</ele>
        <time>2019-03-11T11:43:44Z</time>
      </trkpt>
      <trkpt lat="32.811312340199947" lon="-4.615877531468868">
        <ele>1170.0599999999999</ele>
        <time>2019-03-11T11:43:45Z</time>
      </trkpt>
      <trkpt lat="32.811267077922821" lon="-4.615965876728296">
        <ele>1170.54</ele>
        <time>2019-03-11T11:43:47Z</time>
      </trkpt>
      <trkpt lat="32.811229526996613" lon="-4.616048606112599">
        <ele>1170.54</ele>
        <time>2019-03-11T11:43:55Z</time>
      </trkpt>
      <trkpt lat="32.811132548376918" lon="-4.616274666041136">
        <ele>1169.5799999999999</ele>
        <time>2019-03-11T11:43:56Z</time>
      </trkpt>
      <trkpt lat="32.811114527285099" lon="-4.616349264979363">
        <ele>1169.0999999999999</ele>
        <time>2019-03-11T11:43:57Z</time>
      </trkpt>
      <trkpt lat="32.81109357252717" lon="-4.616502989083529">
        <ele>1169.5799999999999</ele>
        <time>2019-03-11T11:43:58Z</time>
      </trkpt>
      <trkpt lat="32.811017129570246" lon="-4.616897357627749">
        <ele>1170.0599999999999</ele>
        <time>2019-03-11T11:43:59Z</time>
      </trkpt>
      <trkpt lat="32.810990558937192" lon="-4.616913618519902">
        <ele>1171.02</ele>
        <time>2019-03-11T11:44:00Z</time>
      </trkpt>
      <trkpt lat="32.810964742675424" lon="-4.616932980716229">
        <ele>1175.8299999999999</ele>
        <time>2019-03-11T11:44:09Z</time>
      </trkpt>
      <trkpt lat="32.810947140678763" lon="-4.616957623511553">
        <ele>1175.8299999999999</ele>
        <time>2019-03-11T11:44:12Z</time>
      </trkpt>
      <trkpt lat="32.81093624420464" lon="-4.616982936859131">
        <ele>1176.3099999999999</ele>
        <time>2019-03-11T11:44:13Z</time>
      </trkpt>
      <trkpt lat="32.81092937104404" lon="-4.617005065083504">
        <ele>1176.79</ele>
        <time>2019-03-11T11:44:14Z</time>
      </trkpt>
      <trkpt lat="32.81071437522769" lon="-4.617233723402023">
        <ele>1177.27</ele>
        <time>2019-03-11T11:44:16Z</time>
      </trkpt>
      <trkpt lat="32.810605494305491" lon="-4.617313351482153">
        <ele>1177.75</ele>
        <time>2019-03-11T11:44:24Z</time>
      </trkpt>
      <trkpt lat="32.810559393838048" lon="-4.617318883538246">
        <ele>1178.23</ele>
        <time>2019-03-11T11:44:25Z</time>
      </trkpt>
      <trkpt lat="32.810514299198985" lon="-4.617301616817713">
        <ele>1178.71</ele>
        <time>2019-03-11T11:44:26Z</time>
      </trkpt>
      <trkpt lat="32.810414051637053" lon="-4.617241267114878">
        <ele>1182.0799999999999</ele>
        <time>2019-03-11T11:44:27Z</time>
      </trkpt>
      <trkpt lat="32.809755150228739" lon="-4.616934238001704">
        <ele>1182.5599999999999</ele>
        <time>2019-03-11T11:44:28Z</time>
      </trkpt>
      <trkpt lat="32.809665044769645" lon="-4.616899872198701">
        <ele>1183.52</ele>
        <time>2019-03-11T11:44:29Z</time>
      </trkpt>
      <trkpt lat="32.809571335092187" lon="-4.616877241060138">
        <ele>1184</ele>
        <time>2019-03-11T11:44:30Z</time>
      </trkpt>
      <trkpt lat="32.809474775567651" lon="-4.616871625185013">
        <ele>1184</ele>
        <time>2019-03-11T11:44:31Z</time>
      </trkpt>
      <trkpt lat="32.809375282377005" lon="-4.616884868592024">
        <ele>1184.48</ele>
        <time>2019-03-11T11:44:39Z</time>
      </trkpt>
      <trkpt lat="32.809273861348629" lon="-4.61691839620471">
        <ele>1184.96</ele>
        <time>2019-03-11T11:44:40Z</time>
      </trkpt>
      <trkpt lat="32.809171183034778" lon="-4.616967849433422">
        <ele>1184.96</ele>
        <time>2019-03-11T11:44:41Z</time>
      </trkpt>
      <trkpt lat="32.809069091454148" lon="-4.61702736094594">
        <ele>1185.4400000000001</ele>
        <time>2019-03-11T11:44:42Z</time>
      </trkpt>
      <trkpt lat="32.808409351855516" lon="-4.617625828832388">
        <ele>1185.4400000000001</ele>
        <time>2019-03-11T11:44:43Z</time>
      </trkpt>
      <trkpt lat="32.808342967182398" lon="-4.61768014356494">
        <ele>1185.9200000000001</ele>
        <time>2019-03-11T11:44:44Z</time>
      </trkpt>
      <trkpt lat="32.80828052200377" lon="-4.617722220718861">
        <ele>1186.4000000000001</ele>
        <time>2019-03-11T11:44:45Z</time>
      </trkpt>
      <trkpt lat="32.808219669386744" lon="-4.617753736674786">
        <ele>1186.8800000000001</ele>
        <time>2019-03-11T11:44:46Z</time>
      </trkpt>
      <trkpt lat="32.808159738779068" lon="-4.617780642583966">
        <ele>1187.3699999999999</ele>
        <time>2019-03-11T11:44:47Z</time>
      </trkpt>
      <trkpt lat="32.808100143447518" lon="-4.617806794121862">
        <ele>1187.8499999999999</ele>
        <time>2019-03-11T11:44:48Z</time>
      </trkpt>
      <trkpt lat="32.808047672733665" lon="-4.617841662839055">
        <ele>1187.8499999999999</ele>
        <time>2019-03-11T11:44:49Z</time>
      </trkpt>
      <trkpt lat="32.808010289445519" lon="-4.617882315069437">
        <ele>1188.3299999999999</ele>
        <time>2019-03-11T11:44:50Z</time>
      </trkpt>
      <trkpt lat="32.807987909764051" lon="-4.617931349202991">
        <ele>1188.3299999999999</ele>
        <time>2019-03-11T11:44:51Z</time>
      </trkpt>
      <trkpt lat="32.807983299717307" lon="-4.617982981726527">
        <ele>1187.8499999999999</ele>
        <time>2019-03-11T11:44:52Z</time>
      </trkpt>
      <trkpt lat="32.80799369327724" lon="-4.618038302287459">
        <ele>1187.8499999999999</ele>
        <time>2019-03-11T11:44:53Z</time>
      </trkpt>
      <trkpt lat="32.808017833158374" lon="-4.618100076913834">
        <ele>1187.8499999999999</ele>
        <time>2019-03-11T11:44:54Z</time>
      </trkpt>
      <trkpt lat="32.808052869513631" lon="-4.618166629225016">
        <ele>1187.8499999999999</ele>
        <time>2019-03-11T11:44:57Z</time>
      </trkpt>
      <trkpt lat="32.808097377419472" lon="-4.618242736905813">
        <ele>1188.3299999999999</ele>
        <time>2019-03-11T11:44:58Z</time>
      </trkpt>
      <trkpt lat="32.808149764314294" lon="-4.618318844586611">
        <ele>1190.25</ele>
        <time>2019-03-11T11:44:59Z</time>
      </trkpt>
      <trkpt lat="32.808207264170051" lon="-4.618391264230013">
        <ele>1190.73</ele>
        <time>2019-03-11T11:45:00Z</time>
      </trkpt>
      <trkpt lat="32.808353947475553" lon="-4.618587484583259">
        <ele>1191.21</ele>
        <time>2019-03-11T11:45:01Z</time>
      </trkpt>
      <trkpt lat="32.808384038507938" lon="-4.618659904226661">
        <ele>1191.21</ele>
        <time>2019-03-11T11:45:02Z</time>
      </trkpt>
      <trkpt lat="32.808403819799423" lon="-4.618745232000947">
        <ele>1191.6900000000001</ele>
        <time>2019-03-11T11:45:03Z</time>
      </trkpt>
      <trkpt lat="32.808426870033145" lon="-4.618828296661377">
        <ele>1191.6900000000001</ele>
        <time>2019-03-11T11:45:07Z</time>
      </trkpt>
      <trkpt lat="32.808462660759687" lon="-4.618901805952191">
        <ele>1191.6900000000001</ele>
        <time>2019-03-11T11:45:08Z</time>
      </trkpt>
      <trkpt lat="32.808509515598416" lon="-4.618971208110452">
        <ele>1191.21</ele>
        <time>2019-03-11T11:45:09Z</time>
      </trkpt>
      <trkpt lat="32.808560142293572" lon="-4.619041532278061">
        <ele>1190.73</ele>
        <time>2019-03-11T11:45:10Z</time>
      </trkpt>
      <trkpt lat="32.808747477829456" lon="-4.619364738464356">
        <ele>1190.25</ele>
        <time>2019-03-11T11:45:11Z</time>
      </trkpt>
      <trkpt lat="32.808772455900908" lon="-4.619454005733132">
        <ele>1190.25</ele>
        <time>2019-03-11T11:45:12Z</time>
      </trkpt>
      <trkpt lat="32.80877748504281" lon="-4.619548721238971">
        <ele>1190.73</ele>
        <time>2019-03-11T11:45:13Z</time>
      </trkpt>
      <trkpt lat="32.808758206665516" lon="-4.619642682373524">
        <ele>1191.21</ele>
        <time>2019-03-11T11:45:15Z</time>
      </trkpt>
      <trkpt lat="32.808720069006085" lon="-4.619725160300732">
        <ele>1191.6900000000001</ele>
        <time>2019-03-11T11:45:16Z</time>
      </trkpt>
      <trkpt lat="32.808672208338976" lon="-4.61979883722961">
        <ele>1192.1700000000001</ele>
        <time>2019-03-11T11:45:18Z</time>
      </trkpt>
      <trkpt lat="32.808624180033803" lon="-4.619867820292711">
        <ele>1192.6500000000001</ele>
        <time>2019-03-11T11:45:19Z</time>
      </trkpt>
      <trkpt lat="32.808524100109935" lon="-4.619994722306728">
        <ele>1192.6500000000001</ele>
        <time>2019-03-11T11:45:20Z</time>
      </trkpt>
      <trkpt lat="32.808465845882893" lon="-4.620063537731767">
        <ele>1194.5799999999999</ele>
        <time>2019-03-11T11:45:21Z</time>
      </trkpt>
      <trkpt lat="32.808359647169709" lon="-4.620211813598871">
        <ele>1195.0599999999999</ele>
        <time>2019-03-11T11:45:22Z</time>
      </trkpt>
      <trkpt lat="32.808322431519628" lon="-4.620290603488684">
        <ele>1195.0599999999999</ele>
        <time>2019-03-11T11:45:23Z</time>
      </trkpt>
      <trkpt lat="32.808296950533986" lon="-4.620371991768479">
        <ele>1195.0599999999999</ele>
        <time>2019-03-11T11:45:24Z</time>
      </trkpt>
      <trkpt lat="32.808265769854188" lon="-4.620446003973484">
        <ele>1195.0599999999999</ele>
        <time>2019-03-11T11:45:25Z</time>
      </trkpt>
      <trkpt lat="32.808213718235493" lon="-4.620499480515719">
        <ele>1195.54</ele>
        <time>2019-03-11T11:45:34Z</time>
      </trkpt>
      <trkpt lat="32.808147417381406" lon="-4.620536444708705">
        <ele>1195.54</ele>
        <time>2019-03-11T11:45:40Z</time>
      </trkpt>
      <trkpt lat="32.808076003566384" lon="-4.620565865188837">
        <ele>1196.02</ele>
        <time>2019-03-11T11:45:41Z</time>
      </trkpt>
      <trkpt lat="32.808004086837173" lon="-4.620589837431908">
        <ele>1196.02</ele>
        <time>2019-03-11T11:45:42Z</time>
      </trkpt>
      <trkpt lat="32.807485414668918" lon="-4.620756218209863">
        <ele>1196.02</ele>
        <time>2019-03-11T11:45:43Z</time>
      </trkpt>
      <trkpt lat="32.807198585942388" lon="-4.620789997279644">
        <ele>1197.46</ele>
        <time>2019-03-11T11:45:44Z</time>
      </trkpt>
      <trkpt lat="32.807141086086631" lon="-4.620777256786823">
        <ele>1197.46</ele>
        <time>2019-03-11T11:45:45Z</time>
      </trkpt>
      <trkpt lat="32.807080904021859" lon="-4.620768874883652">
        <ele>1197.46</ele>
        <time>2019-03-11T11:45:46Z</time>
      </trkpt>
      <trkpt lat="32.807016531005502" lon="-4.620781615376473">
        <ele>1197.46</ele>
        <time>2019-03-11T11:45:47Z</time>
      </trkpt>
      <trkpt lat="32.80695341527462" lon="-4.620818663388491">
        <ele>1197.46</ele>
        <time>2019-03-11T11:45:51Z</time>
      </trkpt>
      <trkpt lat="32.806893484666944" lon="-4.620877001434565">
        <ele>1197.46</ele>
        <time>2019-03-11T11:45:57Z</time>
      </trkpt>
      <trkpt lat="32.806836403906345" lon="-4.620955875143409">
        <ele>1197.9400000000001</ele>
        <time>2019-03-11T11:45:58Z</time>
      </trkpt>
      <trkpt lat="32.806776305660605" lon="-4.621049165725708">
        <ele>1200.3399999999999</ele>
        <time>2019-03-11T11:45:59Z</time>
      </trkpt>
      <trkpt lat="32.806492829695344" lon="-4.621434481814504">
        <ele>1200.8199999999999</ele>
        <time>2019-03-11T11:46:00Z</time>
      </trkpt>
      <trkpt lat="32.805985221639276" lon="-4.621883668005467">
        <ele>1201.79</ele>
        <time>2019-03-11T11:46:01Z</time>
      </trkpt>
      <trkpt lat="32.805942306295037" lon="-4.621945526450872">
        <ele>1202.27</ele>
        <time>2019-03-11T11:46:02Z</time>
      </trkpt>
      <trkpt lat="32.805910287424922" lon="-4.622012246400118">
        <ele>1202.75</ele>
        <time>2019-03-11T11:46:03Z</time>
      </trkpt>
      <trkpt lat="32.805887069553137" lon="-4.622089192271233">
        <ele>1202.75</ele>
        <time>2019-03-11T11:46:06Z</time>
      </trkpt>
      <trkpt lat="32.805870641022921" lon="-4.622175693511963">
        <ele>1202.75</ele>
        <time>2019-03-11T11:46:07Z</time>
      </trkpt>
      <trkpt lat="32.805841891095042" lon="-4.622256830334663">
        <ele>1202.75</ele>
        <time>2019-03-11T11:46:08Z</time>
      </trkpt>
      <trkpt lat="32.805793443694711" lon="-4.622322879731655">
        <ele>1203.23</ele>
        <time>2019-03-11T11:46:09Z</time>
      </trkpt>
      <trkpt lat="32.80562094412744" lon="-4.622511472553015">
        <ele>1202.75</ele>
        <time>2019-03-11T11:46:10Z</time>
      </trkpt>
      <trkpt lat="32.805578531697392" lon="-4.622591519728303">
        <ele>1202.75</ele>
        <time>2019-03-11T11:46:11Z</time>
      </trkpt>
      <trkpt lat="32.805561600252986" lon="-4.622677685692906">
        <ele>1202.75</ele>
        <time>2019-03-11T11:46:12Z</time>
      </trkpt>
      <trkpt lat="32.805574927479029" lon="-4.622767539694905">
        <ele>1202.75</ele>
        <time>2019-03-11T11:46:13Z</time>
      </trkpt>
      <trkpt lat="32.805614909157157" lon="-4.622854543849826">
        <ele>1202.75</ele>
        <time>2019-03-11T11:46:14Z</time>
      </trkpt>
      <trkpt lat="32.805677773430943" lon="-4.622932327911258">
        <ele>1203.23</ele>
        <time>2019-03-11T11:46:15Z</time>
      </trkpt>
      <trkpt lat="32.805752288550138" lon="-4.623006591573358">
        <ele>1203.71</ele>
        <time>2019-03-11T11:46:16Z</time>
      </trkpt>
      <trkpt lat="32.805823031812906" lon="-4.623085297644138">
        <ele>1204.1900000000001</ele>
        <time>2019-03-11T11:46:17Z</time>
      </trkpt>
      <trkpt lat="32.805882543325424" lon="-4.623173978179693">
        <ele>1204.6700000000001</ele>
        <time>2019-03-11T11:46:18Z</time>
      </trkpt>
      <trkpt lat="32.805927218869328" lon="-4.623278668150306">
        <ele>1205.6300000000001</ele>
        <time>2019-03-11T11:46:19Z</time>
      </trkpt>
      <trkpt lat="32.805949850007892" lon="-4.623396014794707">
        <ele>1206.1099999999999</ele>
        <time>2019-03-11T11:46:20Z</time>
      </trkpt>
      <trkpt lat="32.805947251617908" lon="-4.62351780384779">
        <ele>1206.1099999999999</ele>
        <time>2019-03-11T11:46:21Z</time>
      </trkpt>
      <trkpt lat="32.805915148928761" lon="-4.623634647578001">
        <ele>1206.1099999999999</ele>
        <time>2019-03-11T11:46:22Z</time>
      </trkpt>
      <trkpt lat="32.805853290483356" lon="-4.623734978958964">
        <ele>1206.5899999999999</ele>
        <time>2019-03-11T11:46:26Z</time>
      </trkpt>
      <trkpt lat="32.805778523907065" lon="-4.623826090246439">
        <ele>1207.0699999999999</ele>
        <time>2019-03-11T11:46:27Z</time>
      </trkpt>
      <trkpt lat="32.80570694245398" lon="-4.623923152685165">
        <ele>1208.03</ele>
        <time>2019-03-11T11:46:28Z</time>
      </trkpt>
      <trkpt lat="32.805645922198892" lon="-4.624023735523224">
        <ele>1212.3599999999999</ele>
        <time>2019-03-11T11:46:29Z</time>
      </trkpt>
      <trkpt lat="32.805449450388551" lon="-4.62440175935626">
        <ele>1213.8</ele>
        <time>2019-03-11T11:46:30Z</time>
      </trkpt>
      <trkpt lat="32.805392369627953" lon="-4.624477364122868">
        <ele>1214.28</ele>
        <time>2019-03-11T11:46:31Z</time>
      </trkpt>
      <trkpt lat="32.805322296917439" lon="-4.624535283073783">
        <ele>1215.24</ele>
        <time>2019-03-11T11:46:32Z</time>
      </trkpt>
      <trkpt lat="32.805240238085389" lon="-4.624575851485133">
        <ele>1216.21</ele>
        <time>2019-03-11T11:46:33Z</time>
      </trkpt>
      <trkpt lat="32.805150132626295" lon="-4.624600745737553">
        <ele>1216.6900000000001</ele>
        <time>2019-03-11T11:46:38Z</time>
      </trkpt>
      <trkpt lat="32.805054327473044" lon="-4.624602003023028">
        <ele>1219.5699999999999</ele>
        <time>2019-03-11T11:46:39Z</time>
      </trkpt>
      <trkpt lat="32.804956426844001" lon="-4.624577611684799">
        <ele>1222.45</ele>
        <time>2019-03-11T11:46:40Z</time>
      </trkpt>
      <trkpt lat="32.804857352748513" lon="-4.624538216739893">
        <ele>1223.4200000000001</ele>
        <time>2019-03-11T11:46:41Z</time>
      </trkpt>
      <trkpt lat="32.804381093010306" lon="-4.62436655536294">
        <ele>1224.3800000000001</ele>
        <time>2019-03-11T11:46:42Z</time>
      </trkpt>
      <trkpt lat="32.804288305342197" lon="-4.624371584504843">
        <ele>1224.8599999999999</ele>
        <time>2019-03-11T11:46:43Z</time>
      </trkpt>
      <trkpt lat="32.804196691140532" lon="-4.62440469302237">
        <ele>1225.3399999999999</ele>
        <time>2019-03-11T11:46:52Z</time>
      </trkpt>
      <trkpt lat="32.804111614823341" lon="-4.624467138200998">
        <ele>1225.8199999999999</ele>
        <time>2019-03-11T11:46:55Z</time>
      </trkpt>
      <trkpt lat="32.80402896925807" lon="-4.624548442661762">
        <ele>1225.3399999999999</ele>
        <time>2019-03-11T11:46:56Z</time>
      </trkpt>
      <trkpt lat="32.803945485502481" lon="-4.624637961387634">
        <ele>1225.3399999999999</ele>
        <time>2019-03-11T11:46:57Z</time>
      </trkpt>
      <trkpt lat="32.803288931027055" lon="-4.625615039840341">
        <ele>1224.8599999999999</ele>
        <time>2019-03-11T11:46:58Z</time>
      </trkpt>
      <trkpt lat="32.803153982385993" lon="-4.625951070338488">
        <ele>1225.3399999999999</ele>
        <time>2019-03-11T11:46:59Z</time>
      </trkpt>
      <trkpt lat="32.803101595491171" lon="-4.626042013987899">
        <ele>1225.8199999999999</ele>
        <time>2019-03-11T11:47:00Z</time>
      </trkpt>
      <trkpt lat="32.80303755775094" lon="-4.626113763079047">
        <ele>1226.3</ele>
        <time>2019-03-11T11:47:01Z</time>
      </trkpt>
      <trkpt lat="32.80296036042273" lon="-4.626163803040981">
        <ele>1226.78</ele>
        <time>2019-03-11T11:47:02Z</time>
      </trkpt>
      <trkpt lat="32.802878301590681" lon="-4.626182494685054">
        <ele>1227.26</ele>
        <time>2019-03-11T11:47:03Z</time>
      </trkpt>
      <trkpt lat="32.802797667682171" lon="-4.626163467764854">
        <ele>1227.74</ele>
        <time>2019-03-11T11:47:04Z</time>
      </trkpt>
      <trkpt lat="32.802718626335263" lon="-4.626110326498747">
        <ele>1228.7</ele>
        <time>2019-03-11T11:47:05Z</time>
      </trkpt>
      <trkpt lat="32.80263883061707" lon="-4.626036481931806">
        <ele>1230.6199999999999</ele>
        <time>2019-03-11T11:47:06Z</time>
      </trkpt>
      <trkpt lat="32.80256406404078" lon="-4.625952579081059">
        <ele>1232.0699999999999</ele>
        <time>2019-03-11T11:47:07Z</time>
      </trkpt>
      <trkpt lat="32.802491057664156" lon="-4.625870352610946">
        <ele>1233.03</ele>
        <time>2019-03-11T11:47:08Z</time>
      </trkpt>
      <trkpt lat="32.802413273602724" lon="-4.625800615176559">
        <ele>1234.47</ele>
        <time>2019-03-11T11:47:09Z</time>
      </trkpt>
      <trkpt lat="32.802324006333947" lon="-4.625749653205276">
        <ele>1234.95</ele>
        <time>2019-03-11T11:47:10Z</time>
      </trkpt>
      <trkpt lat="32.802230715751648" lon="-4.625721490010619">
        <ele>1235.4300000000001</ele>
        <time>2019-03-11T11:47:12Z</time>
      </trkpt>
      <trkpt lat="32.802131390199065" lon="-4.625706570222974">
        <ele>1236.3900000000001</ele>
        <time>2019-03-11T11:47:13Z</time>
      </trkpt>
      <trkpt lat="32.802028376609087" lon="-4.625706067308784">
        <ele>1236.8699999999999</ele>
        <time>2019-03-11T11:47:14Z</time>
      </trkpt>
      <trkpt lat="32.801923351362348" lon="-4.625718388706446">
        <ele>1237.3499999999999</ele>
        <time>2019-03-11T11:47:15Z</time>
      </trkpt>
      <trkpt lat="32.801707098260522" lon="-4.625726854428649">
        <ele>1236.8699999999999</ele>
        <time>2019-03-11T11:47:16Z</time>
      </trkpt>
      <trkpt lat="32.801597295328975" lon="-4.625713527202606">
        <ele>1237.8299999999999</ele>
        <time>2019-03-11T11:47:17Z</time>
      </trkpt>
      <trkpt lat="32.801484894007444" lon="-4.625688130035996">
        <ele>1238.8</ele>
        <time>2019-03-11T11:47:18Z</time>
      </trkpt>
      <trkpt lat="32.801367715001106" lon="-4.625655775889754">
        <ele>1239.28</ele>
        <time>2019-03-11T11:47:19Z</time>
      </trkpt>
      <trkpt lat="32.801252463832498" lon="-4.625614788383246">
        <ele>1239.76</ele>
        <time>2019-03-11T11:47:20Z</time>
      </trkpt>
      <trkpt lat="32.801147187128663" lon="-4.625563155859709">
        <ele>1240.72</ele>
        <time>2019-03-11T11:47:21Z</time>
      </trkpt>
      <trkpt lat="32.801058841869235" lon="-4.625495262444019">
        <ele>1241.2</ele>
        <time>2019-03-11T11:47:25Z</time>
      </trkpt>
      <trkpt lat="32.800995642319322" lon="-4.625411862507463">
        <ele>1241.6800000000001</ele>
        <time>2019-03-11T11:47:26Z</time>
      </trkpt>
      <trkpt lat="32.800952391698956" lon="-4.625311950221658">
        <ele>1241.6800000000001</ele>
        <time>2019-03-11T11:47:27Z</time>
      </trkpt>
      <trkpt lat="32.800919869914651" lon="-4.625197369605303">
        <ele>1241.6800000000001</ele>
        <time>2019-03-11T11:47:28Z</time>
      </trkpt>
      <trkpt lat="32.800783077254891" lon="-4.624711219221354">
        <ele>1241.6800000000001</ele>
        <time>2019-03-11T11:47:29Z</time>
      </trkpt>
      <trkpt lat="32.800736641511321" lon="-4.624607199802995">
        <ele>1241.2</ele>
        <time>2019-03-11T11:47:30Z</time>
      </trkpt>
      <trkpt lat="32.800678052008152" lon="-4.624511059373617">
        <ele>1241.6800000000001</ele>
        <time>2019-03-11T11:47:31Z</time>
      </trkpt>
      <trkpt lat="32.800609152764082" lon="-4.624423468485475">
        <ele>1241.6800000000001</ele>
        <time>2019-03-11T11:47:32Z</time>
      </trkpt>
      <trkpt lat="32.800527596846223" lon="-4.624354653060436">
        <ele>1242.1600000000001</ele>
        <time>2019-03-11T11:47:33Z</time>
      </trkpt>
      <trkpt lat="32.800432043150067" lon="-4.624313581734896">
        <ele>1242.1600000000001</ele>
        <time>2019-03-11T11:47:34Z</time>
      </trkpt>
      <trkpt lat="32.800328610464931" lon="-4.62430402636528">
        <ele>1243.1199999999999</ele>
        <time>2019-03-11T11:47:35Z</time>
      </trkpt>
      <trkpt lat="32.800220651552081" lon="-4.624322215095162">
        <ele>1244.0799999999999</ele>
        <time>2019-03-11T11:47:39Z</time>
      </trkpt>
      <trkpt lat="32.800113195553422" lon="-4.624365214258432">
        <ele>1245.04</ele>
        <time>2019-03-11T11:47:40Z</time>
      </trkpt>
      <trkpt lat="32.800011606886983" lon="-4.62442179210484">
        <ele>1245.53</ele>
        <time>2019-03-11T11:47:41Z</time>
      </trkpt>
      <trkpt lat="32.79991278424859" lon="-4.624485662207007">
        <ele>1246.01</ele>
        <time>2019-03-11T11:47:42Z</time>
      </trkpt>
      <trkpt lat="32.799498634412885" lon="-4.624719182029367">
        <ele>1246.49</ele>
        <time>2019-03-11T11:47:43Z</time>
      </trkpt>
      <trkpt lat="32.799400566145778" lon="-4.624745585024357">
        <ele>1246.01</ele>
        <time>2019-03-11T11:47:44Z</time>
      </trkpt>
      <trkpt lat="32.799297720193863" lon="-4.624758157879114">
        <ele>1246.01</ele>
        <time>2019-03-11T11:47:45Z</time>
      </trkpt>
      <trkpt lat="32.799193700775504" lon="-4.624745082110167">
        <ele>1247.9300000000001</ele>
        <time>2019-03-11T11:47:46Z</time>
      </trkpt>
      <trkpt lat="32.799091273918748" lon="-4.624706860631704">
        <ele>1250.8099999999999</ele>
        <time>2019-03-11T11:47:47Z</time>
      </trkpt>
      <trkpt lat="32.798995720222592" lon="-4.624659502878785">
        <ele>1251.29</ele>
        <time>2019-03-11T11:47:48Z</time>
      </trkpt>
      <trkpt lat="32.79890913516283" lon="-4.62462404742837">
        <ele>1251.77</ele>
        <time>2019-03-11T11:47:49Z</time>
      </trkpt>
      <trkpt lat="32.798828082159162" lon="-4.624604852870107">
        <ele>1252.25</ele>
        <time>2019-03-11T11:47:50Z</time>
      </trkpt>
      <trkpt lat="32.798752058297396" lon="-4.624612648040056">
        <ele>1253.22</ele>
        <time>2019-03-11T11:47:53Z</time>
      </trkpt>
      <trkpt lat="32.798683578148484" lon="-4.624654809013009">
        <ele>1253.7</ele>
        <time>2019-03-11T11:47:58Z</time>
      </trkpt>
      <trkpt lat="32.798622809350491" lon="-4.624724546447396">
        <ele>1254.1800000000001</ele>
        <time>2019-03-11T11:47:59Z</time>
      </trkpt>
      <trkpt lat="32.798561621457338" lon="-4.624806689098477">
        <ele>1254.6600000000001</ele>
        <time>2019-03-11T11:48:00Z</time>
      </trkpt>
      <trkpt lat="32.798336651176214" lon="-4.625044567510486">
        <ele>1254.1800000000001</ele>
        <time>2019-03-11T11:48:01Z</time>
      </trkpt>
      <trkpt lat="32.797850919887424" lon="-4.625366684049368">
        <ele>1254.6600000000001</ele>
        <time>2019-03-11T11:48:02Z</time>
      </trkpt>
      <trkpt lat="32.797754108905792" lon="-4.62537799961865">
        <ele>1255.1400000000001</ele>
        <time>2019-03-11T11:48:03Z</time>
      </trkpt>
      <trkpt lat="32.797664338722825" lon="-4.625350087881088">
        <ele>1256.0999999999999</ele>
        <time>2019-03-11T11:48:05Z</time>
      </trkpt>
      <trkpt lat="32.797589236870408" lon="-4.62528177537024">
        <ele>1257.0599999999999</ele>
        <time>2019-03-11T11:48:06Z</time>
      </trkpt>
      <trkpt lat="32.797527126967907" lon="-4.62518697604537">
        <ele>1258.02</ele>
        <time>2019-03-11T11:48:07Z</time>
      </trkpt>
      <trkpt lat="32.797472728416324" lon="-4.625080777332187">
        <ele>1258.5</ele>
        <time>2019-03-11T11:48:08Z</time>
      </trkpt>
      <trkpt lat="32.797359740361571" lon="-4.62487131357193">
        <ele>1258.98</ele>
        <time>2019-03-11T11:48:09Z</time>
      </trkpt>
      <trkpt lat="32.79729712754488" lon="-4.624779280275106">
        <ele>1258.98</ele>
        <time>2019-03-11T11:48:11Z</time>
      </trkpt>
      <trkpt lat="32.797230826690793" lon="-4.624692779034376">
        <ele>1259.46</ele>
        <time>2019-03-11T11:48:12Z</time>
      </trkpt>
      <trkpt lat="32.797156143933535" lon="-4.624612899497151">
        <ele>1260.4300000000001</ele>
        <time>2019-03-11T11:48:13Z</time>
      </trkpt>
      <trkpt lat="32.79707626439631" lon="-4.624537294730544">
        <ele>1260.9100000000001</ele>
        <time>2019-03-11T11:48:14Z</time>
      </trkpt>
      <trkpt lat="32.796909967437387" lon="-4.624398909509182">
        <ele>1261.8699999999999</ele>
        <time>2019-03-11T11:48:15Z</time>
      </trkpt>
      <trkpt lat="32.796816509217024" lon="-4.624354401603341">
        <ele>1261.3900000000001</ele>
        <time>2019-03-11T11:48:16Z</time>
      </trkpt>
      <trkpt lat="32.796715423464775" lon="-4.624333614483476">
        <ele>1263.79</ele>
        <time>2019-03-11T11:48:17Z</time>
      </trkpt>
      <trkpt lat="32.796612912788987" lon="-4.624335039407015">
        <ele>1264.27</ele>
        <time>2019-03-11T11:48:18Z</time>
      </trkpt>
      <trkpt lat="32.79651484452188" lon="-4.624347947537899">
        <ele>1264.75</ele>
        <time>2019-03-11T11:48:19Z</time>
      </trkpt>
      <trkpt lat="32.796416692435741" lon="-4.624354401603341">
        <ele>1264.75</ele>
        <time>2019-03-11T11:48:20Z</time>
      </trkpt>
      <trkpt lat="32.796317534521222" lon="-4.624342583119869">
        <ele>1264.75</ele>
        <time>2019-03-11T11:48:21Z</time>
      </trkpt>
      <trkpt lat="32.796217035502195" lon="-4.624310648068786">
        <ele>1264.27</ele>
        <time>2019-03-11T11:48:28Z</time>
      </trkpt>
      <trkpt lat="32.796119134873152" lon="-4.624254237860441">
        <ele>1264.27</ele>
        <time>2019-03-11T11:48:29Z</time>
      </trkpt>
      <trkpt lat="32.796031460165977" lon="-4.624177124351263">
        <ele>1264.27</ele>
        <time>2019-03-11T11:48:30Z</time>
      </trkpt>
      <trkpt lat="32.795955436304212" lon="-4.624093724414706">
        <ele>1264.75</ele>
        <time>2019-03-11T11:48:31Z</time>
      </trkpt>
      <trkpt lat="32.795479092746973" lon="-4.623626349493861">
        <ele>1264.75</ele>
        <time>2019-03-11T11:48:32Z</time>
      </trkpt>
      <trkpt lat="32.795406589284539" lon="-4.623583601787686">
        <ele>1264.75</ele>
        <time>2019-03-11T11:48:33Z</time>
      </trkpt>
      <trkpt lat="32.795327715575695" lon="-4.623564910143614">
        <ele>1265.23</ele>
        <time>2019-03-11T11:48:34Z</time>
      </trkpt>
      <trkpt lat="32.795244064182043" lon="-4.623573208227754">
        <ele>1265.71</ele>
        <time>2019-03-11T11:48:35Z</time>
      </trkpt>
      <trkpt lat="32.795159909874201" lon="-4.623606819659472">
        <ele>1265.71</ele>
        <time>2019-03-11T11:48:36Z</time>
      </trkpt>
      <trkpt lat="32.795079946517944" lon="-4.623658871278167">
        <ele>1266.1900000000001</ele>
        <time>2019-03-11T11:48:37Z</time>
      </trkpt>
      <trkpt lat="32.795009454712272" lon="-4.6237279381603">
        <ele>1266.6700000000001</ele>
        <time>2019-03-11T11:48:38Z</time>
      </trkpt>
      <trkpt lat="32.794948685914278" lon="-4.623812427744269">
        <ele>1266.6700000000001</ele>
        <time>2019-03-11T11:48:39Z</time>
      </trkpt>
      <trkpt lat="32.79488967731595" lon="-4.623900353908539">
        <ele>1266.6700000000001</ele>
        <time>2019-03-11T11:48:40Z</time>
      </trkpt>
      <trkpt lat="32.794819604605436" lon="-4.623982831835747">
        <ele>1269.5599999999999</ele>
        <time>2019-03-11T11:48:41Z</time>
      </trkpt>
      <trkpt lat="32.794736875221133" lon="-4.624050725251436">
        <ele>1270.04</ele>
        <time>2019-03-11T11:48:42Z</time>
      </trkpt>
      <trkpt lat="32.794643249362707" lon="-4.624096574261785">
        <ele>1270.52</ele>
        <time>2019-03-11T11:48:43Z</time>
      </trkpt>
      <trkpt lat="32.794543588533998" lon="-4.624119875952601">
        <ele>1270.52</ele>
        <time>2019-03-11T11:48:44Z</time>
      </trkpt>
      <trkpt lat="32.794441413134336" lon="-4.624125324189663">
        <ele>1271</ele>
        <time>2019-03-11T11:48:45Z</time>
      </trkpt>
      <trkpt lat="32.794337477535009" lon="-4.624120043590665">
        <ele>1271.48</ele>
        <time>2019-03-11T11:48:52Z</time>
      </trkpt>
      <trkpt lat="32.794229937717319" lon="-4.62410512380302">
        <ele>1271.96</ele>
        <time>2019-03-11T11:48:53Z</time>
      </trkpt>
      <trkpt lat="32.794123068451881" lon="-4.624076876789331">
        <ele>1272.4400000000001</ele>
        <time>2019-03-11T11:48:54Z</time>
      </trkpt>
      <trkpt lat="32.794017205014825" lon="-4.624041588976979">
        <ele>1272.9200000000001</ele>
        <time>2019-03-11T11:48:55Z</time>
      </trkpt>
      <trkpt lat="32.79335143044591" lon="-4.623824330046773">
        <ele>1273.8800000000001</ele>
        <time>2019-03-11T11:48:56Z</time>
      </trkpt>
      <trkpt lat="32.793261911720037" lon="-4.623817121610045">
        <ele>1274.3599999999999</ele>
        <time>2019-03-11T11:48:57Z</time>
      </trkpt>
      <trkpt lat="32.79317163862288" lon="-4.623826090246439">
        <ele>1275.3299999999999</ele>
        <time>2019-03-11T11:48:58Z</time>
      </trkpt>
      <trkpt lat="32.793081197887659" lon="-4.623854672536254">
        <ele>1275.8099999999999</ele>
        <time>2019-03-11T11:49:00Z</time>
      </trkpt>
      <trkpt lat="32.792997462674975" lon="-4.623905634507537">
        <ele>1276.29</ele>
        <time>2019-03-11T11:49:01Z</time>
      </trkpt>
      <trkpt lat="32.792921019718051" lon="-4.623976964503527">
        <ele>1277.73</ele>
        <time>2019-03-11T11:49:02Z</time>
      </trkpt>
      <trkpt lat="32.792846169322729" lon="-4.624060615897179">
        <ele>1277.73</ele>
        <time>2019-03-11T11:49:03Z</time>
      </trkpt>
      <trkpt lat="32.792677944526076" lon="-4.624222302809358">
        <ele>1277.25</ele>
        <time>2019-03-11T11:49:04Z</time>
      </trkpt>
      <trkpt lat="32.792583731934428" lon="-4.624287849292159">
        <ele>1277.25</ele>
        <time>2019-03-11T11:49:05Z</time>
      </trkpt>
      <trkpt lat="32.792484657838941" lon="-4.624344259500504">
        <ele>1277.73</ele>
        <time>2019-03-11T11:49:06Z</time>
      </trkpt>
      <trkpt lat="32.792382901534438" lon="-4.624392790719867">
        <ele>1277.73</ele>
        <time>2019-03-11T11:49:10Z</time>
      </trkpt>
      <trkpt lat="32.792279217392206" lon="-4.624431766569614">
        <ele>1277.73</ele>
        <time>2019-03-11T11:49:11Z</time>
      </trkpt>
      <trkpt lat="32.792173689231277" lon="-4.624462779611349">
        <ele>1277.73</ele>
        <time>2019-03-11T11:49:13Z</time>
      </trkpt>
      <trkpt lat="32.792065227404237" lon="-4.624486165121198">
        <ele>1280.6099999999999</ele>
        <time>2019-03-11T11:49:14Z</time>
      </trkpt>
      <trkpt lat="32.791639929637313" lon="-4.624592112377286">
        <ele>1281.5699999999999</ele>
        <time>2019-03-11T11:49:15Z</time>
      </trkpt>
      <trkpt lat="32.791538927704096" lon="-4.624643241986632">
        <ele>1290.23</ele>
        <time>2019-03-11T11:49:16Z</time>
      </trkpt>
      <trkpt lat="32.791347233578563" lon="-4.624769138172269">
        <ele>1290.71</ele>
        <time>2019-03-11T11:49:17Z</time>
      </trkpt>
      <trkpt lat="32.7912572119385" lon="-4.624844240024686">
        <ele>1292.1500000000001</ele>
        <time>2019-03-11T11:49:18Z</time>
      </trkpt>
      <trkpt lat="32.791171800345182" lon="-4.624928059056401">
        <ele>1293.1099999999999</ele>
        <time>2019-03-11T11:49:22Z</time>
      </trkpt>
      <trkpt lat="32.791096698492765" lon="-4.625026127323508">
        <ele>1293.5899999999999</ele>
        <time>2019-03-11T11:49:23Z</time>
      </trkpt>
      <trkpt lat="32.791024781763554" lon="-4.625138193368912">
        <ele>1294.55</ele>
        <time>2019-03-11T11:49:33Z</time>
      </trkpt>
      <trkpt lat="32.790952362120152" lon="-4.625261323526502">
        <ele>1295.03</ele>
        <time>2019-03-11T11:49:34Z</time>
      </trkpt>
      <trkpt lat="32.790595795959234" lon="-4.625744707882404">
        <ele>1295.51</ele>
        <time>2019-03-11T11:49:38Z</time>
      </trkpt>
      <trkpt lat="32.790487837046385" lon="-4.625841937959194">
        <ele>1296.48</ele>
        <time>2019-03-11T11:49:39Z</time>
      </trkpt>
      <trkpt lat="32.789440434426069" lon="-4.62695823982358">
        <ele>1296.48</ele>
        <time>2019-03-11T11:49:40Z</time>
      </trkpt>
      <trkpt lat="32.789353765547276" lon="-4.627110119909048">
        <ele>1296.96</ele>
        <time>2019-03-11T11:49:41Z</time>
      </trkpt>
      <trkpt lat="32.789024189114571" lon="-4.627736750990152">
        <ele>1297.4400000000001</ele>
        <time>2019-03-11T11:49:42Z</time>
      </trkpt>
      <trkpt lat="32.788921259343624" lon="-4.62786708958447">
        <ele>1297.4400000000001</ele>
        <time>2019-03-11T11:49:43Z</time>
      </trkpt>
      <trkpt lat="32.788808271288872" lon="-4.627976976335049">
        <ele>1297.4400000000001</ele>
        <time>2019-03-11T11:49:44Z</time>
      </trkpt>
      <trkpt lat="32.788691259920597" lon="-4.628064651042223">
        <ele>1297.9200000000001</ele>
        <time>2019-03-11T11:49:45Z</time>
      </trkpt>
      <trkpt lat="32.788567375391722" lon="-4.628128772601485">
        <ele>1297.9200000000001</ele>
        <time>2019-03-11T11:49:46Z</time>
      </trkpt>
      <trkpt lat="32.788434354588389" lon="-4.628163054585457">
        <ele>1297.9200000000001</ele>
        <time>2019-03-11T11:49:47Z</time>
      </trkpt>
      <trkpt lat="32.78829856775701" lon="-4.628161629661918">
        <ele>1297.9200000000001</ele>
        <time>2019-03-11T11:49:51Z</time>
      </trkpt>
      <trkpt lat="32.788160936906934" lon="-4.628130868077278">
        <ele>1297.9200000000001</ele>
        <time>2019-03-11T11:49:52Z</time>
      </trkpt>
      <trkpt lat="32.788020288571715" lon="-4.628081163391471">
        <ele>1298.4000000000001</ele>
        <time>2019-03-11T11:49:53Z</time>
      </trkpt>
      <trkpt lat="32.787875197827816" lon="-4.628021400421858">
        <ele>1298.8800000000001</ele>
        <time>2019-03-11T11:49:54Z</time>
      </trkpt>
      <trkpt lat="32.787297936156392" lon="-4.627847978845239">
        <ele>1303.2</ele>
        <time>2019-03-11T11:49:55Z</time>
      </trkpt>
      <trkpt lat="32.787160472944379" lon="-4.627839932218194">
        <ele>1313.3</ele>
        <time>2019-03-11T11:49:56Z</time>
      </trkpt>
      <trkpt lat="32.787028374150395" lon="-4.627857450395823">
        <ele>1315.7</ele>
        <time>2019-03-11T11:49:57Z</time>
      </trkpt>
      <trkpt lat="32.786899963393807" lon="-4.627907825633884">
        <ele>1325.3099999999999</ele>
        <time>2019-03-11T11:49:58Z</time>
      </trkpt>
      <trkpt lat="32.786781694740057" lon="-4.627987202256918">
        <ele>1335.4100000000001</ele>
        <time>2019-03-11T11:49:59Z</time>
      </trkpt>
      <trkpt lat="32.786672981455922" lon="-4.628085605800152">
        <ele>1337.8099999999999</ele>
        <time>2019-03-11T11:50:08Z</time>
      </trkpt>
      <trkpt lat="32.786574913188815" lon="-4.628201611340046">
        <ele>1338.29</ele>
        <time>2019-03-11T11:50:19Z</time>
      </trkpt>
      <trkpt lat="32.786483382806182" lon="-4.62833228521049">
        <ele>1339.25</ele>
        <time>2019-03-11T11:50:27Z</time>
      </trkpt>
      <trkpt lat="32.786392439156771" lon="-4.628474693745375">
        <ele>1340.22</ele>
        <time>2019-03-11T11:50:36Z</time>
      </trkpt>
      <trkpt lat="32.785394489765167" lon="-4.629966169595718">
        <ele>1340.7</ele>
        <time>2019-03-11T11:50:46Z</time>
      </trkpt>
      <trkpt lat="32.784213814884424" lon="-4.632042618468404">
        <ele>1341.6600000000001</ele>
        <time>2019-03-11T11:50:49Z</time>
      </trkpt>
      <trkpt lat="32.78368684463203" lon="-4.633675161749125">
        <ele>1351.27</ele>
        <time>2019-03-11T11:50:50Z</time>
      </trkpt>
      <trkpt lat="32.782769864425063" lon="-4.635356655344367">
        <ele>1352.23</ele>
        <time>2019-03-11T11:50:51Z</time>
      </trkpt>
      <trkpt lat="32.781702512875199" lon="-4.637324307113886">
        <ele>1352.23</ele>
        <time>2019-03-11T11:50:52Z</time>
      </trkpt>
      <trkpt lat="32.781459856778383" lon="-4.637805093079805">
        <ele>1352.71</ele>
        <time>2019-03-11T11:50:53Z</time>
      </trkpt>
      <trkpt lat="32.781354077160358" lon="-4.637947753071785">
        <ele>1353.1900000000001</ele>
        <time>2019-03-11T11:50:54Z</time>
      </trkpt>
      <trkpt lat="32.781233629211783" lon="-4.638082450255752">
        <ele>1353.6700000000001</ele>
        <time>2019-03-11T11:51:04Z</time>
      </trkpt>
      <trkpt lat="32.781099518761039" lon="-4.638206250965595">
        <ele>1354.1500000000001</ele>
        <time>2019-03-11T11:51:07Z</time>
      </trkpt>
      <trkpt lat="32.780953254550695" lon="-4.63831446133554">
        <ele>1355.1199999999999</ele>
        <time>2019-03-11T11:51:08Z</time>
      </trkpt>
      <trkpt lat="32.780796764418483" lon="-4.638413283973932">
        <ele>1356.0799999999999</ele>
        <time>2019-03-11T11:51:09Z</time>
      </trkpt>
      <trkpt lat="32.779241586104035" lon="-4.639446688815951">
        <ele>1357.04</ele>
        <time>2019-03-11T11:51:10Z</time>
      </trkpt>
      <trkpt lat="32.778909830376506" lon="-4.639697642996907">
        <ele>1357.52</ele>
        <time>2019-03-11T11:51:11Z</time>
      </trkpt>
      <trkpt lat="32.778803128749132" lon="-4.639737876132131">
        <ele>1358</ele>
        <time>2019-03-11T11:51:12Z</time>
      </trkpt>
      <trkpt lat="32.778689218685031" lon="-4.639742905274034">
        <ele>1366.1700000000001</ele>
        <time>2019-03-11T11:51:13Z</time>
      </trkpt>
      <trkpt lat="32.778572291135788" lon="-4.639718597754836">
        <ele>1367.6099999999999</ele>
        <time>2019-03-11T11:51:14Z</time>
      </trkpt>
      <trkpt lat="32.778453603386879" lon="-4.639692446216941">
        <ele>1372.9000000000001</ele>
        <time>2019-03-11T11:51:15Z</time>
      </trkpt>
      <trkpt lat="32.77832955121994" lon="-4.639691943302751">
        <ele>1374.3399999999999</ele>
        <time>2019-03-11T11:51:16Z</time>
      </trkpt>
      <trkpt lat="32.778208935633302" lon="-4.639719603583217">
        <ele>1375.78</ele>
        <time>2019-03-11T11:51:17Z</time>
      </trkpt>
      <trkpt lat="32.778098294511437" lon="-4.63975883089006">
        <ele>1376.75</ele>
        <time>2019-03-11T11:51:25Z</time>
      </trkpt>
      <trkpt lat="32.777988743036985" lon="-4.639794873073697">
        <ele>1378.1900000000001</ele>
        <time>2019-03-11T11:51:26Z</time>
      </trkpt>
      <trkpt lat="32.777871731668711" lon="-4.63981356471777">
        <ele>1379.6300000000001</ele>
        <time>2019-03-11T11:51:31Z</time>
      </trkpt>
      <trkpt lat="32.777751283720136" lon="-4.639812977984548">
        <ele>1381.0699999999999</ele>
        <time>2019-03-11T11:51:32Z</time>
      </trkpt>
      <trkpt lat="32.776723243296146" lon="-4.639523047953844">
        <ele>1382.03</ele>
        <time>2019-03-11T11:51:33Z</time>
      </trkpt>
      <trkpt lat="32.776602543890476" lon="-4.639438055455685">
        <ele>1382.99</ele>
        <time>2019-03-11T11:51:34Z</time>
      </trkpt>
      <trkpt lat="32.77598949149251" lon="-4.63897705078125">
        <ele>1383.96</ele>
        <time>2019-03-11T11:51:35Z</time>
      </trkpt>
      <trkpt lat="32.775851609185338" lon="-4.638913851231337">
        <ele>1384.9200000000001</ele>
        <time>2019-03-11T11:51:36Z</time>
      </trkpt>
      <trkpt lat="32.775708278641105" lon="-4.63887738995254">
        <ele>1386.3599999999999</ele>
        <time>2019-03-11T11:51:37Z</time>
      </trkpt>
      <trkpt lat="32.775560840964317" lon="-4.638866325840354">
        <ele>1387.8</ele>
        <time>2019-03-11T11:51:38Z</time>
      </trkpt>
      <trkpt lat="32.775414576753974" lon="-4.638873366639018">
        <ele>1388.76</ele>
        <time>2019-03-11T11:51:39Z</time>
      </trkpt>
      <trkpt lat="32.775275688618422" lon="-4.638896752148867">
        <ele>1390.2</ele>
        <time>2019-03-11T11:51:40Z</time>
      </trkpt>
      <trkpt lat="32.775151804089546" lon="-4.638939164578915">
        <ele>1391.1700000000001</ele>
        <time>2019-03-11T11:51:41Z</time>
      </trkpt>
      <trkpt lat="32.775042839348316" lon="-4.63899121619761">
        <ele>1391.6500000000001</ele>
        <time>2019-03-11T11:51:42Z</time>
      </trkpt>
      <trkpt lat="32.774940831586719" lon="-4.639029102399945">
        <ele>1392.1300000000001</ele>
        <time>2019-03-11T11:51:43Z</time>
      </trkpt>
      <trkpt lat="32.774841338396072" lon="-4.639042681083083">
        <ele>1392.6099999999999</ele>
        <time>2019-03-11T11:51:44Z</time>
      </trkpt>
      <trkpt lat="32.77474544942379" lon="-4.639025582000613">
        <ele>1393.0899999999999</ele>
        <time>2019-03-11T11:51:45Z</time>
      </trkpt>
      <trkpt lat="32.774653248488903" lon="-4.638976128771901">
        <ele>1393.0899999999999</ele>
        <time>2019-03-11T11:51:46Z</time>
      </trkpt>
      <trkpt lat="32.774564735591412" lon="-4.638903290033341">
        <ele>1393.0899999999999</ele>
        <time>2019-03-11T11:51:47Z</time>
      </trkpt>
      <trkpt lat="32.774480162188411" lon="-4.638812011107802">
        <ele>1393.0899999999999</ele>
        <time>2019-03-11T11:51:48Z</time>
      </trkpt>
      <trkpt lat="32.774406652897596" lon="-4.638698855414987">
        <ele>1393.0899999999999</ele>
        <time>2019-03-11T11:51:49Z</time>
      </trkpt>
      <trkpt lat="32.77434915304184" lon="-4.638568013906479">
        <ele>1393.0899999999999</ele>
        <time>2019-03-11T11:51:53Z</time>
      </trkpt>
      <trkpt lat="32.774304645135999" lon="-4.638429461047053">
        <ele>1393.0899999999999</ele>
        <time>2019-03-11T11:51:54Z</time>
      </trkpt>
      <trkpt lat="32.77427245862782" lon="-4.638296021148562">
        <ele>1393.0899999999999</ele>
        <time>2019-03-11T11:51:55Z</time>
      </trkpt>
      <trkpt lat="32.774248318746686" lon="-4.63817079551518">
        <ele>1393.5699999999999</ele>
        <time>2019-03-11T11:51:56Z</time>
      </trkpt>
      <trkpt lat="32.774170702323318" lon="-4.637831412255764">
        <ele>1393.5699999999999</ele>
        <time>2019-03-11T11:51:57Z</time>
      </trkpt>
      <trkpt lat="32.774146059527993" lon="-4.637780366465449">
        <ele>1394.05</ele>
        <time>2019-03-11T11:51:58Z</time>
      </trkpt>
      <trkpt lat="32.774113537743688" lon="-4.637738959863782">
        <ele>1394.53</ele>
        <time>2019-03-11T11:51:59Z</time>
      </trkpt>
      <trkpt lat="32.774071460589767" lon="-4.637707024812698">
        <ele>1395.01</ele>
        <time>2019-03-11T11:52:00Z</time>
      </trkpt>
      <trkpt lat="32.774022594094276" lon="-4.637685148045421">
        <ele>1397.8900000000001</ele>
        <time>2019-03-11T11:52:01Z</time>
      </trkpt>
      <trkpt lat="32.773973308503628" lon="-4.637676514685154">
        <ele>1398.8599999999999</ele>
        <time>2019-03-11T11:52:02Z</time>
      </trkpt>
      <trkpt lat="32.773928130045533" lon="-4.637679699808359">
        <ele>1399.3399999999999</ele>
        <time>2019-03-11T11:52:03Z</time>
      </trkpt>
      <trkpt lat="32.773884627968073" lon="-4.63768950663507">
        <ele>1399.3399999999999</ele>
        <time>2019-03-11T11:52:04Z</time>
      </trkpt>
      <trkpt lat="32.773839952424169" lon="-4.637701157480478">
        <ele>1399.8199999999999</ele>
        <time>2019-03-11T11:52:05Z</time>
      </trkpt>
      <trkpt lat="32.773792594671249" lon="-4.637717669829726">
        <ele>1400.3</ele>
        <time>2019-03-11T11:52:09Z</time>
      </trkpt>
      <trkpt lat="32.773742219433188" lon="-4.637742564082146">
        <ele>1400.78</ele>
        <time>2019-03-11T11:52:10Z</time>
      </trkpt>
      <trkpt lat="32.773689161986113" lon="-4.63777894154191">
        <ele>1401.74</ele>
        <time>2019-03-11T11:52:11Z</time>
      </trkpt>
      <trkpt lat="32.773634931072593" lon="-4.637829987332225">
        <ele>1402.7</ele>
        <time>2019-03-11T11:52:12Z</time>
      </trkpt>
      <trkpt lat="32.773399231955409" lon="-4.638079181313515">
        <ele>1403.6600000000001</ele>
        <time>2019-03-11T11:52:13Z</time>
      </trkpt>
      <trkpt lat="32.773322956636548" lon="-4.638139950111508">
        <ele>1405.0999999999999</ele>
        <time>2019-03-11T11:52:14Z</time>
      </trkpt>
      <trkpt lat="32.773230252787471" lon="-4.638198036700487">
        <ele>1406.0699999999999</ele>
        <time>2019-03-11T11:52:15Z</time>
      </trkpt>
      <trkpt lat="32.773130424320698" lon="-4.638238605111837">
        <ele>1408.47</ele>
        <time>2019-03-11T11:52:16Z</time>
      </trkpt>
      <trkpt lat="32.773023974150419" lon="-4.638256877660751">
        <ele>1409.4300000000001</ele>
        <time>2019-03-11T11:52:17Z</time>
      </trkpt>
      <trkpt lat="32.772910315543413" lon="-4.638255033642054">
        <ele>1409.9100000000001</ele>
        <time>2019-03-11T11:52:18Z</time>
      </trkpt>
      <trkpt lat="32.772786263376474" lon="-4.638233073055744">
        <ele>1410.3900000000001</ele>
        <time>2019-03-11T11:52:19Z</time>
      </trkpt>
      <trkpt lat="32.772655673325062" lon="-4.63819426484406">
        <ele>1410.3900000000001</ele>
        <time>2019-03-11T11:52:20Z</time>
      </trkpt>
      <trkpt lat="32.772519215941429" lon="-4.63813609443605">
        <ele>1410.3900000000001</ele>
        <time>2019-03-11T11:52:25Z</time>
      </trkpt>
      <trkpt lat="32.772379824891686" lon="-4.638057388365269">
        <ele>1411.8299999999999</ele>
        <time>2019-03-11T11:52:26Z</time>
      </trkpt>
      <trkpt lat="32.772243618965149" lon="-4.637966025620699">
        <ele>1411.3499999999999</ele>
        <time>2019-03-11T11:52:27Z</time>
      </trkpt>
      <trkpt lat="32.772111184895039" lon="-4.637871310114861">
        <ele>1408.47</ele>
        <time>2019-03-11T11:52:28Z</time>
      </trkpt>
      <trkpt lat="32.771418755874038" lon="-4.637501919642091">
        <ele>1407.99</ele>
        <time>2019-03-11T11:52:29Z</time>
      </trkpt>
      <trkpt lat="32.771305264905095" lon="-4.637401588261128">
        <ele>1407.99</ele>
        <time>2019-03-11T11:52:30Z</time>
      </trkpt>
      <trkpt lat="32.771217003464699" lon="-4.637278793379664">
        <ele>1407.99</ele>
        <time>2019-03-11T11:52:39Z</time>
      </trkpt>
      <trkpt lat="32.771153720095754" lon="-4.637134959921241">
        <ele>1408.47</ele>
        <time>2019-03-11T11:52:48Z</time>
      </trkpt>
      <trkpt lat="32.771111140027642" lon="-4.63697318919003">
        <ele>1408.47</ele>
        <time>2019-03-11T11:52:54Z</time>
      </trkpt>
      <trkpt lat="32.771075768396258" lon="-4.636800605803728">
        <ele>1409.4300000000001</ele>
        <time>2019-03-11T11:52:55Z</time>
      </trkpt>
      <trkpt lat="32.77067368850112" lon="-4.634914845228195">
        <ele>1410.3900000000001</ele>
        <time>2019-03-11T11:52:56Z</time>
      </trkpt>
      <trkpt lat="32.770169852301478" lon="-4.633045010268688">
        <ele>1410.8699999999999</ele>
        <time>2019-03-11T11:52:57Z</time>
      </trkpt>
      <trkpt lat="32.769464012235403" lon="-4.631970869377255">
        <ele>1412.3099999999999</ele>
        <time>2019-03-11T11:52:58Z</time>
      </trkpt>
      <trkpt lat="32.769299307838082" lon="-4.631821755319834">
        <ele>1412.3099999999999</ele>
        <time>2019-03-11T11:52:59Z</time>
      </trkpt>
      <trkpt lat="32.769123120233417" lon="-4.631690829992294">
        <ele>1411.8299999999999</ele>
        <time>2019-03-11T11:53:00Z</time>
      </trkpt>
      <trkpt lat="32.768939305096865" lon="-4.631575075909495">
        <ele>1409.9100000000001</ele>
        <time>2019-03-11T11:53:01Z</time>
      </trkpt>
      <trkpt lat="32.768753813579679" lon="-4.631474828347564">
        <ele>1408.95</ele>
        <time>2019-03-11T11:53:02Z</time>
      </trkpt>
      <trkpt lat="32.768571423366666" lon="-4.631393104791641">
        <ele>1407.99</ele>
        <time>2019-03-11T11:53:05Z</time>
      </trkpt>
      <trkpt lat="32.768388949334621" lon="-4.631329402327538">
        <ele>1406.55</ele>
        <time>2019-03-11T11:53:06Z</time>
      </trkpt>
      <trkpt lat="32.768207816407084" lon="-4.631284223869443">
        <ele>1406.0699999999999</ele>
        <time>2019-03-11T11:53:07Z</time>
      </trkpt>
      <trkpt lat="32.768028359860182" lon="-4.631253546103835">
        <ele>1405.0999999999999</ele>
        <time>2019-03-11T11:53:11Z</time>
      </trkpt>
      <trkpt lat="32.76750985532999" lon="-4.631236027926207">
        <ele>1403.6600000000001</ele>
        <time>2019-03-11T11:53:12Z</time>
      </trkpt>
      <trkpt lat="32.767337188124657" lon="-4.631263604387641">
        <ele>1398.3699999999999</ele>
        <time>2019-03-11T11:53:13Z</time>
      </trkpt>
      <trkpt lat="32.767164101824164" lon="-4.631306938827038">
        <ele>1400.3</ele>
        <time>2019-03-11T11:53:21Z</time>
      </trkpt>
      <trkpt lat="32.766503859311342" lon="-4.631574070081115">
        <ele>1404.1400000000001</ele>
        <time>2019-03-11T11:53:27Z</time>
      </trkpt>
      <trkpt lat="32.766351057216525" lon="-4.631676664575934">
        <ele>1406.0699999999999</ele>
        <time>2019-03-11T11:53:38Z</time>
      </trkpt>
      <trkpt lat="32.766197584569454" lon="-4.631794765591621">
        <ele>1405.5799999999999</ele>
        <time>2019-03-11T11:53:46Z</time>
      </trkpt>
      <trkpt lat="32.765184296295047" lon="-4.632903020828962">
        <ele>1401.74</ele>
        <time>2019-03-11T11:53:55Z</time>
      </trkpt>
      <trkpt lat="32.764818761497736" lon="-4.633323708549142">
        <ele>1401.26</ele>
        <time>2019-03-11T11:54:03Z</time>
      </trkpt>
      <trkpt lat="32.7643405739218" lon="-4.633809858933091">
        <ele>1399.3399999999999</ele>
        <time>2019-03-11T11:54:10Z</time>
      </trkpt>
      <trkpt lat="32.763552339747548" lon="-4.63439759798348">
        <ele>1400.3</ele>
        <time>2019-03-11T11:54:22Z</time>
      </trkpt>
      <trkpt lat="32.762229759246111" lon="-4.635392529889941">
        <ele>1400.3</ele>
        <time>2019-03-11T11:54:23Z</time>
      </trkpt>
      <trkpt lat="32.761157462373376" lon="-4.636590303853154">
        <ele>1401.26</ele>
        <time>2019-03-11T11:54:28Z</time>
      </trkpt>
      <trkpt lat="32.760077118873596" lon="-4.637508289888501">
        <ele>1403.1800000000001</ele>
        <time>2019-03-11T11:54:29Z</time>
      </trkpt>
      <trkpt lat="32.75801433250308" lon="-4.638759708032012">
        <ele>1403.1800000000001</ele>
        <time>2019-03-11T11:54:37Z</time>
      </trkpt>
      <trkpt lat="32.757882317528129" lon="-4.638881664723158">
        <ele>1402.7</ele>
        <time>2019-03-11T11:54:50Z</time>
      </trkpt>
      <trkpt lat="32.757307067513466" lon="-4.639689428731799">
        <ele>1407.99</ele>
        <time>2019-03-11T11:54:51Z</time>
      </trkpt>
      <trkpt lat="32.757215956225991" lon="-4.639897467568517">
        <ele>1412.79</ele>
        <time>2019-03-11T11:55:01Z</time>
      </trkpt>
      <trkpt lat="32.756618661805987" lon="-4.641824467107654">
        <ele>1416.1600000000001</ele>
        <time>2019-03-11T11:55:09Z</time>
      </trkpt>
      <trkpt lat="32.755592046305537" lon="-4.644869361072779">
        <ele>1418.5599999999999</ele>
        <time>2019-03-11T11:55:18Z</time>
      </trkpt>
      <trkpt lat="32.755464725196362" lon="-4.645064659416676">
        <ele>1421.9300000000001</ele>
        <time>2019-03-11T11:55:25Z</time>
      </trkpt>
      <trkpt lat="32.754019852727652" lon="-4.647093499079347">
        <ele>1431.54</ele>
        <time>2019-03-11T11:55:35Z</time>
      </trkpt>
      <trkpt lat="32.753180656582117" lon="-4.648793851956725">
        <ele>1435.8699999999999</ele>
        <time>2019-03-11T11:55:45Z</time>
      </trkpt>
      <trkpt lat="32.752622170373797" lon="-4.650780949741602">
        <ele>1441.6300000000001</ele>
        <time>2019-03-11T11:55:56Z</time>
      </trkpt>
      <trkpt lat="32.752363421022892" lon="-4.651719806715846">
        <ele>1445</ele>
        <time>2019-03-11T11:56:03Z</time>
      </trkpt>
      <trkpt lat="32.751906523481011" lon="-4.653389062732458">
        <ele>1447.8800000000001</ele>
        <time>2019-03-11T11:56:12Z</time>
      </trkpt>
      <trkpt lat="32.751281149685383" lon="-4.655612111091614">
        <ele>1448.8399999999999</ele>
        <time>2019-03-11T11:56:29Z</time>
      </trkpt>
      <trkpt lat="32.750475145876408" lon="-4.65851585380733">
        <ele>1444.04</ele>
        <time>2019-03-11T11:56:44Z</time>
      </trkpt>
      <trkpt lat="32.749770898371935" lon="-4.660252332687378">
        <ele>1440.6700000000001</ele>
        <time>2019-03-11T11:57:00Z</time>
      </trkpt>
      <trkpt lat="32.748399870470166" lon="-4.662282429635525">
        <ele>1433.9400000000001</ele>
        <time>2019-03-11T11:57:12Z</time>
      </trkpt>
      <trkpt lat="32.745653204619884" lon="-4.666171967983246">
        <ele>1429.1400000000001</ele>
        <time>2019-03-11T11:57:19Z</time>
      </trkpt>
      <trkpt lat="32.74319713935256" lon="-4.669654984027147">
        <ele>1427.21</ele>
        <time>2019-03-11T11:57:27Z</time>
      </trkpt>
      <trkpt lat="32.74052289314568" lon="-4.673448381945491">
        <ele>1427.21</ele>
        <time>2019-03-11T11:57:41Z</time>
      </trkpt>
      <trkpt lat="32.738581225275993" lon="-4.676260259002447">
        <ele>1431.54</ele>
        <time>2019-03-11T11:57:52Z</time>
      </trkpt>
      <trkpt lat="32.73780707269907" lon="-4.678090279921889">
        <ele>1435.8699999999999</ele>
        <time>2019-03-11T11:58:10Z</time>
      </trkpt>
      <trkpt lat="32.736955638974905" lon="-4.680035803467035">
        <ele>1441.1500000000001</ele>
        <time>2019-03-11T11:58:26Z</time>
      </trkpt>
      <trkpt lat="32.735314629971981" lon="-4.683441454544663">
        <ele>1442.5999999999999</ele>
        <time>2019-03-11T11:58:34Z</time>
      </trkpt>
      <trkpt lat="32.733793817460537" lon="-4.686099272221327">
        <ele>1444.04</ele>
        <time>2019-03-11T11:58:45Z</time>
      </trkpt>
      <trkpt lat="32.73124823346734" lon="-4.690336408093572">
        <ele>1446.4400000000001</ele>
        <time>2019-03-11T11:58:55Z</time>
      </trkpt>
      <trkpt lat="32.728934828191996" lon="-4.69419895671308">
        <ele>1448.8399999999999</ele>
        <time>2019-03-11T11:59:06Z</time>
      </trkpt>
      <trkpt lat="32.728011980652809" lon="-4.695734018459916">
        <ele>1451.73</ele>
        <time>2019-03-11T11:59:18Z</time>
      </trkpt>
      <trkpt lat="32.726975893601775" lon="-4.697449207305908">
        <ele>1454.6099999999999</ele>
        <time>2019-03-11T11:59:34Z</time>
      </trkpt>
      <trkpt lat="32.725810222327709" lon="-4.699413171038032">
        <ele>1457.5</ele>
        <time>2019-03-11T11:59:46Z</time>
      </trkpt>
      <trkpt lat="32.724206848070025" lon="-4.701825398951769">
        <ele>1464.71</ele>
        <time>2019-03-11T12:00:02Z</time>
      </trkpt>
      <trkpt lat="32.722224863246083" lon="-4.704501153901219">
        <ele>1469.03</ele>
        <time>2019-03-11T12:00:15Z</time>
      </trkpt>
      <trkpt lat="32.719404185190797" lon="-4.708001939579845">
        <ele>1469.51</ele>
        <time>2019-03-11T12:00:29Z</time>
      </trkpt>
      <trkpt lat="32.717361766844988" lon="-4.710495052859187">
        <ele>1469.03</ele>
        <time>2019-03-11T12:00:37Z</time>
      </trkpt>
      <trkpt lat="32.714501610025764" lon="-4.714059541001916">
        <ele>1464.23</ele>
        <time>2019-03-11T12:00:44Z</time>
      </trkpt>
      <trkpt lat="32.712306641042233" lon="-4.716778211295605">
        <ele>1463.74</ele>
        <time>2019-03-11T12:00:53Z</time>
      </trkpt>
      <trkpt lat="32.710126005113125" lon="-4.719469808042049">
        <ele>1463.26</ele>
        <time>2019-03-11T12:01:00Z</time>
      </trkpt>
      <trkpt lat="32.708882465958595" lon="-4.720680490136147">
        <ele>1465.6700000000001</ele>
        <time>2019-03-11T12:01:01Z</time>
      </trkpt>
      <trkpt lat="32.707404484972358" lon="-4.721155827865005">
        <ele>1464.23</ele>
        <time>2019-03-11T12:01:09Z</time>
      </trkpt>
      <trkpt lat="32.705534733831882" lon="-4.721642900258303">
        <ele>1441.1500000000001</ele>
        <time>2019-03-11T12:01:16Z</time>
      </trkpt>
      <trkpt lat="32.704541897401214" lon="-4.72194716334343">
        <ele>1442.1099999999999</ele>
        <time>2019-03-11T12:01:17Z</time>
      </trkpt>
      <trkpt lat="32.704415246844292" lon="-4.72201170399785">
        <ele>1450.77</ele>
        <time>2019-03-11T12:01:18Z</time>
      </trkpt>
      <trkpt lat="32.70345208235085" lon="-4.72289121709764">
        <ele>1449.8099999999999</ele>
        <time>2019-03-11T12:01:27Z</time>
      </trkpt>
      <trkpt lat="32.70280608907342" lon="-4.724089913070202">
        <ele>1448.3599999999999</ele>
        <time>2019-03-11T12:01:36Z</time>
      </trkpt>
      <trkpt lat="32.702749678865075" lon="-4.724278338253498">
        <ele>1448.3599999999999</ele>
        <time>2019-03-11T12:01:52Z</time>
      </trkpt>
      <trkpt lat="32.702707769349217" lon="-4.724469278007746">
        <ele>1445.96</ele>
        <time>2019-03-11T12:02:01Z</time>
      </trkpt>
      <trkpt lat="32.702539376914501" lon="-4.725990425795317">
        <ele>1445.48</ele>
        <time>2019-03-11T12:02:09Z</time>
      </trkpt>
      <trkpt lat="32.702162694185972" lon="-4.727707291021943">
        <ele>1444.04</ele>
        <time>2019-03-11T12:02:19Z</time>
      </trkpt>
      <trkpt lat="32.701121997088194" lon="-4.7311788238585">
        <ele>1445.48</ele>
        <time>2019-03-11T12:02:28Z</time>
      </trkpt>
      <trkpt lat="32.700643474236131" lon="-4.73279426805675">
        <ele>1445.96</ele>
        <time>2019-03-11T12:02:42Z</time>
      </trkpt>
      <trkpt lat="32.69997401162982" lon="-4.734107041731477">
        <ele>1445.96</ele>
        <time>2019-03-11T12:02:56Z</time>
      </trkpt>
      <trkpt lat="32.698860140517354" lon="-4.735210435464978">
        <ele>1446.4400000000001</ele>
        <time>2019-03-11T12:03:06Z</time>
      </trkpt>
      <trkpt lat="32.698025135323405" lon="-4.735953407362104">
        <ele>1446.9200000000001</ele>
        <time>2019-03-11T12:03:19Z</time>
      </trkpt>
      <trkpt lat="32.696857368573546" lon="-4.737033750861883">
        <ele>1447.4000000000001</ele>
        <time>2019-03-11T12:03:28Z</time>
      </trkpt>
      <trkpt lat="32.695719944313169" lon="-4.738043854013085">
        <ele>1447.8800000000001</ele>
        <time>2019-03-11T12:03:33Z</time>
      </trkpt>
      <trkpt lat="32.6950638089329" lon="-4.73862455226481">
        <ele>1450.29</ele>
        <time>2019-03-11T12:03:34Z</time>
      </trkpt>
      <trkpt lat="32.694241125136614" lon="-4.739373223856092">
        <ele>1451.25</ele>
        <time>2019-03-11T12:03:35Z</time>
      </trkpt>
      <trkpt lat="32.694005006924272" lon="-4.739576820284128">
        <ele>1451.73</ele>
        <time>2019-03-11T12:03:38Z</time>
      </trkpt>
      <trkpt lat="32.693891935050488" lon="-4.739631889387965">
        <ele>1457.98</ele>
        <time>2019-03-11T12:03:39Z</time>
      </trkpt>
      <trkpt lat="32.693854216486216" lon="-4.739664914086461">
        <ele>1461.8199999999999</ele>
        <time>2019-03-11T12:03:40Z</time>
      </trkpt>
      <trkpt lat="32.693817252293229" lon="-4.739703889936209">
        <ele>1462.3</ele>
        <time>2019-03-11T12:03:46Z</time>
      </trkpt>
      <trkpt lat="32.693698732182384" lon="-4.739867337048054">
        <ele>1462.78</ele>
        <time>2019-03-11T12:03:47Z</time>
      </trkpt>
      <trkpt lat="32.693660845980048" lon="-4.739954005926848">
        <ele>1465.1900000000001</ele>
        <time>2019-03-11T12:03:48Z</time>
      </trkpt>
      <trkpt lat="32.693629497662187" lon="-4.740056768059731">
        <ele>1467.5899999999999</ele>
        <time>2019-03-11T12:03:58Z</time>
      </trkpt>
      <trkpt lat="32.693438306450844" lon="-4.740713071078062">
        <ele>1467.5899999999999</ele>
        <time>2019-03-11T12:04:07Z</time>
      </trkpt>
      <trkpt lat="32.693384494632483" lon="-4.740806361660361">
        <ele>1468.55</ele>
        <time>2019-03-11T12:04:14Z</time>
      </trkpt>
      <trkpt lat="32.693321043625474" lon="-4.740892192348838">
        <ele>1465.6700000000001</ele>
        <time>2019-03-11T12:04:17Z</time>
      </trkpt>
      <trkpt lat="32.692527445033193" lon="-4.741686629131436">
        <ele>1466.1500000000001</ele>
        <time>2019-03-11T12:04:26Z</time>
      </trkpt>
      <trkpt lat="32.692039534449577" lon="-4.742108322679997">
        <ele>1467.5899999999999</ele>
        <time>2019-03-11T12:04:40Z</time>
      </trkpt>
      <trkpt lat="32.691942555829883" lon="-4.74218325689435">
        <ele>1468.0699999999999</ele>
        <time>2019-03-11T12:04:48Z</time>
      </trkpt>
      <trkpt lat="32.691861167550087" lon="-4.742246037349105">
        <ele>1468.55</ele>
        <time>2019-03-11T12:04:59Z</time>
      </trkpt>
      <trkpt lat="32.691414495930076" lon="-4.742653230205178">
        <ele>1468.55</ele>
        <time>2019-03-11T12:05:11Z</time>
      </trkpt>
      <trkpt lat="32.690744865685701" lon="-4.743019938468933">
        <ele>1470.47</ele>
        <time>2019-03-11T12:05:21Z</time>
      </trkpt>
      <trkpt lat="32.690655011683702" lon="-4.743043659254909">
        <ele>1469.99</ele>
        <time>2019-03-11T12:05:31Z</time>
      </trkpt>
      <trkpt lat="32.690449990332127" lon="-4.743092441931367">
        <ele>1469.99</ele>
        <time>2019-03-11T12:05:34Z</time>
      </trkpt>
      <trkpt lat="32.690414702519774" lon="-4.743111887946725">
        <ele>1469.99</ele>
        <time>2019-03-11T12:05:35Z</time>
      </trkpt>
      <trkpt lat="32.690184535458684" lon="-4.743181122466922">
        <ele>1469.99</ele>
        <time>2019-03-11T12:05:36Z</time>
      </trkpt>
      <trkpt lat="32.689498392865062" lon="-4.743342390283942">
        <ele>1470.95</ele>
        <time>2019-03-11T12:05:45Z</time>
      </trkpt>
      <trkpt lat="32.689335364848375" lon="-4.743391508236527">
        <ele>1470.47</ele>
        <time>2019-03-11T12:05:51Z</time>
      </trkpt>
      <trkpt lat="32.689276523888111" lon="-4.743398046121001">
        <ele>1469.99</ele>
        <time>2019-03-11T12:05:52Z</time>
      </trkpt>
      <trkpt lat="32.689213324338198" lon="-4.743406511843205">
        <ele>1469.51</ele>
        <time>2019-03-11T12:05:53Z</time>
      </trkpt>
      <trkpt lat="32.688458701595664" lon="-4.743611868470907">
        <ele>1466.6300000000001</ele>
        <time>2019-03-11T12:06:04Z</time>
      </trkpt>
      <trkpt lat="32.687896694988012" lon="-4.743839353322983">
        <ele>1463.26</ele>
        <time>2016-03-15T22:57:09Z</time>
      </trkpt>
      <trkpt lat="32.687816144898534" lon="-4.743900876492262">
        <ele>1463.74</ele>
        <time>2016-03-15T22:57:10Z</time>
      </trkpt>
      <trkpt lat="32.687743222340941" lon="-4.743967093527317">
        <ele>1467.5899999999999</ele>
        <time>2016-03-15T22:57:11Z</time>
      </trkpt>
      <trkpt lat="32.687106365337968" lon="-4.744638819247484">
        <ele>1467.5899999999999</ele>
        <time>2016-03-15T22:57:12Z</time>
      </trkpt>
      <trkpt lat="32.686999412253499" lon="-4.744782233610749">
        <ele>1468.55</ele>
        <time>2016-03-15T22:57:20Z</time>
      </trkpt>
      <trkpt lat="32.687022881582379" lon="-4.744816012680531">
        <ele>1466.6300000000001</ele>
        <time>2016-03-15T22:57:33Z</time>
      </trkpt>
      <trkpt lat="32.687043668702245" lon="-4.744854066520929">
        <ele>1464.71</ele>
        <time>2016-03-15T22:57:53Z</time>
      </trkpt>
      <trkpt lat="32.687074011191726" lon="-4.744898239150643">
        <ele>1463.26</ele>
        <time>2016-03-15T22:58:11Z</time>
      </trkpt>
      <trkpt lat="32.68711575306952" lon="-4.744953056797385">
        <ele>1462.3</ele>
        <time>2016-03-15T22:58:21Z</time>
      </trkpt>
      <trkpt lat="32.687688237056136" lon="-4.745625201612711">
        <ele>1459.4200000000001</ele>
        <time>2016-03-15T22:58:30Z</time>
      </trkpt>
      <trkpt lat="32.688920712098479" lon="-4.747083401307464">
        <ele>1460.3800000000001</ele>
        <time>2016-03-15T22:58:42Z</time>
      </trkpt>
      <trkpt lat="32.690892219543457" lon="-4.749417174607515">
        <ele>1460.8599999999999</ele>
        <time>2016-03-15T22:58:49Z</time>
      </trkpt>
      <trkpt lat="32.692788625136018" lon="-4.751605102792382">
        <ele>1456.05</ele>
        <time>2016-03-15T22:58:57Z</time>
      </trkpt>
      <trkpt lat="32.694173566997051" lon="-4.752620905637741">
        <ele>1450.29</ele>
        <time>2016-03-15T22:59:10Z</time>
      </trkpt>
      <trkpt lat="32.695552306249738" lon="-4.753215601667762">
        <ele>1449.8099999999999</ele>
        <time>2016-03-15T22:59:23Z</time>
      </trkpt>
      <trkpt lat="32.697507301345468" lon="-4.753716085106134">
        <ele>1449.3199999999999</ele>
        <time>2016-03-15T22:59:30Z</time>
      </trkpt>
      <trkpt lat="32.698487397283316" lon="-4.75453776307404">
        <ele>1440.1900000000001</ele>
        <time>2016-03-15T22:59:45Z</time>
      </trkpt>
      <trkpt lat="32.699276469647884" lon="-4.755846094340086">
        <ele>1432.02</ele>
        <time>2016-03-15T22:59:54Z</time>
      </trkpt>
      <trkpt lat="32.700222535058856" lon="-4.758000914007425">
        <ele>1432.02</ele>
        <time>2016-03-15T23:00:13Z</time>
      </trkpt>
      <trkpt lat="32.701058462262154" lon="-4.760131426155567">
        <ele>1437.3099999999999</ele>
        <time>2016-03-15T23:00:32Z</time>
      </trkpt>
      <trkpt lat="32.701039016246796" lon="-4.761432213708758">
        <ele>1439.23</ele>
        <time>2016-03-15T23:00:33Z</time>
      </trkpt>
      <trkpt lat="32.700706170871854" lon="-4.764458667486906">
        <ele>1440.6700000000001</ele>
        <time>2016-03-15T23:00:44Z</time>
      </trkpt>
      <trkpt lat="32.701007416471839" lon="-4.766253149136901">
        <ele>1441.1500000000001</ele>
        <time>2016-03-15T23:00:59Z</time>
      </trkpt>
      <trkpt lat="32.701786179095507" lon="-4.770194320008159">
        <ele>1441.1500000000001</ele>
        <time>2016-03-15T23:01:06Z</time>
      </trkpt>
      <trkpt lat="32.70267273299396" lon="-4.774073632434011">
        <ele>1441.6300000000001</ele>
        <time>2016-03-15T23:01:22Z</time>
      </trkpt>
      <trkpt lat="32.702762586995959" lon="-4.774247305467725">
        <ele>1442.1099999999999</ele>
        <time>2016-03-15T23:01:38Z</time>
      </trkpt>
      <trkpt lat="32.703970922157168" lon="-4.776199785992503">
        <ele>1443.0799999999999</ele>
        <time>2016-03-15T23:01:44Z</time>
      </trkpt>
      <trkpt lat="32.705626850947738" lon="-4.778989953920245">
        <ele>1444.52</ele>
        <time>2016-03-15T23:01:48Z</time>
      </trkpt>
      <trkpt lat="32.705844445154071" lon="-4.780459553003311">
        <ele>1446.9200000000001</ele>
        <time>2016-03-15T23:01:49Z</time>
      </trkpt>
      <trkpt lat="32.705988781526685" lon="-4.783775098621845">
        <ele>1447.8800000000001</ele>
        <time>2016-03-15T23:02:01Z</time>
      </trkpt>
      <trkpt lat="32.70613756030798" lon="-4.786943206563592">
        <ele>1447.4000000000001</ele>
        <time>2016-03-15T23:02:02Z</time>
      </trkpt>
      <trkpt lat="32.706163544207811" lon="-4.787643598392606">
        <ele>1445.96</ele>
        <time>2016-03-15T23:02:07Z</time>
      </trkpt>
      <trkpt lat="32.706189528107643" lon="-4.787785084918141">
        <time>2016-03-15T23:02:16Z</time>
      </trkpt>
      <trkpt lat="32.706198915839195" lon="-4.78779380209744">
        <time>2016-03-15T23:02:23Z</time>
      </trkpt>
      <trkpt lat="32.706309808418155" lon="-4.787864712998271">
        <time>2016-03-15T23:02:28Z</time>
      </trkpt>
      <trkpt lat="32.706345431506634" lon="-4.787886003032327">
        <time>2016-03-15T23:02:40Z</time>
      </trkpt>
      <trkpt lat="32.706437464803457" lon="-4.788176352158189">
        <time>2016-03-15T23:03:00Z</time>
      </trkpt>
      <trkpt lat="32.706471998244524" lon="-4.789048153907061"/>
      <trkpt lat="32.706702332943678" lon="-4.789336994290352"/>
      <trkpt lat="32.70682948641479" lon="-4.789174301549792"/>
      <trkpt lat="32.70684557966888" lon="-4.78901881724596"/>
      <trkpt lat="32.706843735650182" lon="-4.789027869701386"/>
      <trkpt lat="32.70683778449893" lon="-4.788886215537787"/>
      <trkpt lat="32.706805011257529" lon="-4.78870801627636">
        <ele>1441.2611099999999</ele>
        <time>2017-03-28T22:21:51Z</time>
      </trkpt>
      <trkpt lat="32.706146026030183" lon="-4.787882566452026">
        <ele>1474.839111</ele>
        <time>2019-04-21T16:16:59Z</time>
      </trkpt>
      <trkpt lat="32.684706039726734" lon="-4.743491001427174">
        <ele>1598.365601</ele>
        <time>2019-03-11T13:02:07Z</time>
      </trkpt>
      <trkpt lat="32.640447998419404" lon="-4.767060996964574">
        <ele>1953.9632570000001</ele>
        <time>2019-03-11T13:11:03Z</time>
      </trkpt>
      <trkpt lat="32.540588015690446" lon="-4.897473687306047">
        <ele>1966.4882809999999</ele>
        <time>2019-04-15T11:41:15Z</time>
      </trkpt>
      <trkpt lat="32.529541002586484" lon="-4.99148896895349">
        <ele>1777.018188</ele>
        <time>2019-03-11T14:50:09Z</time>
      </trkpt>
      <trkpt lat="32.529906034469604" lon="-5.008195023983717">
        <ele>1919.1157229999999</ele>
        <time>2019-03-11T14:56:28Z</time>
      </trkpt>
      <trkpt lat="32.51763098873198" lon="-5.057636015117168">
        <ele>1908.189331</ele>
        <time>2019-03-11T15:50:53Z</time>
      </trkpt>
      <trkpt lat="32.512102033942938" lon="-5.150746973231435">
        <ele>2012.919678</ele>
        <time>2019-03-11T16:03:58Z</time>
      </trkpt>
      <trkpt lat="32.498386977240443" lon="-5.175476018339396">
        <ele>2352.9958499999998</ele>
        <time>2019-03-11T16:08:48Z</time>
      </trkpt>
      <trkpt lat="32.384016998112202" lon="-5.176749983802438">
        <ele>2916.977539</ele>
        <time>2019-03-11T16:49:09Z</time>
      </trkpt>
      <trkpt lat="32.008916018530726" lon="-5.489861005917192">
        <ele>2101.2102049999999</ele>
        <time>2019-03-12T08:52:56Z</time>
      </trkpt>
      <trkpt lat="31.91153297200799" lon="-5.662228977307677">
        <ele>1718.5986330000001</ele>
        <time>2019-03-12T09:48:50Z</time>
      </trkpt>
      <trkpt lat="31.835859976708889" lon="-5.740027036517859">
        <ele>1811.6213379999999</ele>
        <time>2019-03-12T10:30:31Z</time>
      </trkpt>
      <trkpt lat="31.556133991107345" lon="-5.908412011340261">
        <ele>1648.903564</ele>
        <time>2019-03-12T11:51:21Z</time>
      </trkpt>
      <trkpt lat="31.52978103607893" lon="-5.925209010019898">
        <ele>1578.4094239999999</ele>
        <time>2019-03-12T11:58:08Z</time>
      </trkpt>
      <trkpt lat="31.449391962960362" lon="-5.970415966585279">
        <ele>1574.126831</ele>
        <time>2019-03-12T12:14:16Z</time>
      </trkpt>
      <trkpt lat="31.366831976920366" lon="-5.968402968719602">
        <ele>1576.8082280000001</ele>
        <time>2019-03-12T13:27:27Z</time>
      </trkpt>
      <trkpt lat="31.366120018064976" lon="-5.953268017619848">
        <ele>1440.1900000000001</ele>
        <time>2019-03-12T13:29:48Z</time>
      </trkpt>
      <trkpt lat="31.313069025054574" lon="-5.907525038346648">
        <ele>1441.1500000000001</ele>
        <time>2019-03-12T14:00:09Z</time>
      </trkpt>
      <trkpt lat="32.706808699294925" lon="-4.788670968264341">
        <ele>1440.6700000000001</ele>
        <time>2017-03-16T17:45:58Z</time>
      </trkpt>
      <trkpt lat="32.706802748143673" lon="-4.788524536415935">
        <ele>1439.71</ele>
        <time>2017-03-16T17:46:25Z</time>
      </trkpt>
      <trkpt lat="32.706902241334319" lon="-4.787877956405282">
        <ele>1438.75</ele>
        <time>2017-03-16T17:46:36Z</time>
      </trkpt>
      <trkpt lat="32.706944989040494" lon="-4.787671426311135">
        <ele>1438.27</ele>
        <time>2017-03-16T17:46:39Z</time>
      </trkpt>
      <trkpt lat="32.706776512786746" lon="-4.787520300596952">
        <ele>1436.8299999999999</ele>
        <time>2017-03-16T17:46:44Z</time>
      </trkpt>
      <trkpt lat="32.706676181405783" lon="-4.787503955885768">
        <ele>1436.8299999999999</ele>
        <time>2017-03-16T17:46:46Z</time>
      </trkpt>
      <trkpt lat="32.706476943567395" lon="-4.78762180544436">
        <ele>1436.8299999999999</ele>
        <time>2017-03-16T17:46:50Z</time>
      </trkpt>
      <trkpt lat="32.706366721540689" lon="-4.787790281698108">
        <ele>1436.8299999999999</ele>
        <time>2017-03-16T17:46:53Z</time>
      </trkpt>
      <trkpt lat="32.706262115389109" lon="-4.787883404642344">
        <ele>1434.9100000000001</ele>
        <time>2017-03-16T17:46:56Z</time>
      </trkpt>
      <trkpt lat="32.706237807869911" lon="-4.787886086851358">
        <ele>1434.4200000000001</ele>
        <time>2017-03-16T17:46:57Z</time>
      </trkpt>
      <trkpt lat="32.706146026030183" lon="-4.787882566452026">
        <ele>1432.5</ele>
        <time>2017-03-16T17:47:32Z</time>
      </trkpt>
      <trkpt lat="32.706127502024174" lon="-4.787632199004293">
        <ele>1431.0599999999999</ele>
        <time>2017-03-16T17:47:33Z</time>
      </trkpt>
      <trkpt lat="32.706124903634191" lon="-4.787562461569905">
        <ele>1432.02</ele>
        <time>2017-03-16T17:47:46Z</time>
      </trkpt>
      <trkpt lat="32.706076288595796" lon="-4.786358820274472">
        <ele>1426.25</ele>
        <time>2017-03-16T17:47:57Z</time>
      </trkpt>
      <trkpt lat="32.70600613206625" lon="-4.784762738272548">
        <ele>1425.29</ele>
        <time>2017-03-16T17:48:12Z</time>
      </trkpt>
      <trkpt lat="32.705916110426188" lon="-4.782356461510062">
        <ele>1428.1800000000001</ele>
        <time>2017-03-16T17:48:24Z</time>
      </trkpt>
      <trkpt lat="32.705816030502319" lon="-4.780291998758912">
        <ele>1438.27</ele>
        <time>2017-03-16T17:48:33Z</time>
      </trkpt>
      <trkpt lat="32.705528615042567" lon="-4.778805384412408">
        <ele>1443.5599999999999</ele>
        <time>2017-03-16T17:48:43Z</time>
      </trkpt>
      <trkpt lat="32.704710122197866" lon="-4.777460424229503">
        <ele>1442.5999999999999</ele>
        <time>2017-03-16T17:49:03Z</time>
      </trkpt>
      <trkpt lat="32.703072549775243" lon="-4.774816855788231">
        <ele>1445.48</ele>
        <time>2017-03-16T17:49:14Z</time>
      </trkpt>
      <trkpt lat="32.702383222058415" lon="-4.773325631394982">
        <ele>1448.8399999999999</ele>
        <time>2017-03-16T17:49:27Z</time>
      </trkpt>
      <trkpt lat="32.701971586793661" lon="-4.771269215270877">
        <ele>1456.05</ele>
        <time>2017-03-16T17:49:41Z</time>
      </trkpt>
      <trkpt lat="32.701526843011379" lon="-4.769052704796195">
        <ele>1457.5</ele>
        <time>2017-03-16T17:49:57Z</time>
      </trkpt>
      <trkpt lat="32.701020073145628" lon="-4.766566129401326">
        <ele>1455.0899999999999</ele>
        <time>2017-03-16T17:50:14Z</time>
      </trkpt>
      <trkpt lat="32.70067029632628" lon="-4.764007553458214">
        <ele>1454.6099999999999</ele>
        <time>2017-03-16T17:50:28Z</time>
      </trkpt>
      <trkpt lat="32.700942624360323" lon="-4.761823816224933">
        <ele>1455.5699999999999</ele>
        <time>2017-03-16T17:50:39Z</time>
      </trkpt>
      <trkpt lat="32.70103239454329" lon="-4.760276768356562">
        <ele>1456.05</ele>
        <time>2017-03-16T17:50:48Z</time>
      </trkpt>
      <trkpt lat="32.700881520286202" lon="-4.759578639641404">
        <ele>1457.5</ele>
        <time>2017-03-16T17:50:57Z</time>
      </trkpt>
      <trkpt lat="32.700766436755657" lon="-4.759307401254773">
        <ele>1457.98</ele>
        <time>2017-03-16T17:51:07Z</time>
      </trkpt>
      <trkpt lat="32.700552027672529" lon="-4.758835081011057">
        <ele>1458.9400000000001</ele>
        <time>2017-03-16T17:51:18Z</time>
      </trkpt>
      <trkpt lat="32.700094375759363" lon="-4.75780276581645">
        <ele>1460.8599999999999</ele>
        <time>2017-03-16T17:51:29Z</time>
      </trkpt>
      <trkpt lat="32.699452824890614" lon="-4.756374573335052">
        <ele>1462.3</ele>
        <time>2017-03-16T17:51:43Z</time>
      </trkpt>
      <trkpt lat="32.698390670120716" lon="-4.754507588222623">
        <ele>1462.78</ele>
        <time>2017-03-16T17:51:53Z</time>
      </trkpt>
      <trkpt lat="32.697351817041636" lon="-4.753690185025334">
        <ele>1462.78</ele>
        <time>2017-03-16T17:52:04Z</time>
      </trkpt>
      <trkpt lat="32.696051448583603" lon="-4.753349293023348">
        <ele>1463.26</ele>
        <time>2017-03-16T17:52:17Z</time>
      </trkpt>
      <trkpt lat="32.694687964394689" lon="-4.753011083230376">
        <ele>1463.26</ele>
        <time>2017-03-16T17:52:29Z</time>
      </trkpt>
      <trkpt lat="32.693855725228786" lon="-4.752440694719553">
        <ele>1460.3800000000001</ele>
        <time>2017-03-16T17:52:41Z</time>
      </trkpt>
      <trkpt lat="32.693024910986423" lon="-4.751855973154306">
        <ele>1459.4200000000001</ele>
        <time>2017-03-16T17:52:53Z</time>
      </trkpt>
      <trkpt lat="32.69228495657444" lon="-4.751105038449168">
        <ele>1459.4200000000001</ele>
        <time>2017-03-16T17:53:07Z</time>
      </trkpt>
      <trkpt lat="32.691470235586166" lon="-4.750136760994792">
        <ele>1458.9400000000001</ele>
        <time>2017-03-16T17:53:22Z</time>
      </trkpt>
      <trkpt lat="32.690476644784212" lon="-4.748995397239924">
        <ele>1458.9400000000001</ele>
        <time>2017-03-16T17:53:32Z</time>
      </trkpt>
      <trkpt lat="32.690080935135484" lon="-4.748524501919746">
        <ele>1459.4200000000001</ele>
        <time>2017-03-16T17:53:43Z</time>
      </trkpt>
      <trkpt lat="32.689478863030672" lon="-4.747784966602922">
        <ele>1463.26</ele>
        <time>2017-03-16T17:53:53Z</time>
      </trkpt>
      <trkpt lat="32.689025737345219" lon="-4.747253470122814">
        <ele>1463.74</ele>
        <time>2017-03-16T17:54:09Z</time>
      </trkpt>
      <trkpt lat="32.688054861500859" lon="-4.746134066954255">
        <ele>1467.1099999999999</ele>
        <time>2017-03-16T17:54:24Z</time>
      </trkpt>
      <trkpt lat="32.687130253762007" lon="-4.745061099529266">
        <ele>1472.4000000000001</ele>
        <time>2018-03-25T10:04:57Z</time>
      </trkpt>
      <trkpt lat="32.686770502477884" lon="-4.74463471211493">
        <ele>1478.1600000000001</ele>
        <time>2018-03-25T10:05:06Z</time>
      </trkpt>
      <trkpt lat="32.686306731775403" lon="-4.744160966947675">
        <ele>1478.1600000000001</ele>
        <time>2018-03-25T10:05:16Z</time>
      </trkpt>
      <trkpt lat="32.685592928901315" lon="-4.743762575089932">
        <ele>1481.05</ele>
        <time>2018-03-25T10:05:28Z</time>
      </trkpt>
      <trkpt lat="32.684681145474315" lon="-4.743453450500965">
        <ele>1484.8900000000001</ele>
        <time>2019-03-11T13:02:22Z</time>
      </trkpt>
      <trkpt lat="32.68412877805531" lon="-4.743302492424846">
        <ele>1489.7</ele>
        <time>2019-03-11T13:02:33Z</time>
      </trkpt>
      <trkpt lat="32.683462416753173" lon="-4.743116665631533">
        <ele>1489.7</ele>
        <time>2019-03-11T13:02:42Z</time>
      </trkpt>
      <trkpt lat="32.683070059865713" lon="-4.743134686723352">
        <ele>1489.22</ele>
        <time>2019-03-11T13:02:55Z</time>
      </trkpt>
      <trkpt lat="32.682457510381937" lon="-4.743255469948053">
        <ele>1490.1800000000001</ele>
        <time>2019-03-11T13:02:57Z</time>
      </trkpt>
      <trkpt lat="32.682334380224347" lon="-4.743261421099305">
        <ele>1490.1800000000001</ele>
        <time>2019-03-11T13:03:06Z</time>
      </trkpt>
      <trkpt lat="32.681837165728211" lon="-4.743213476613164">
        <ele>1490.1800000000001</ele>
        <time>2019-03-11T13:03:15Z</time>
      </trkpt>
      <trkpt lat="32.681356547400355" lon="-4.743206268176436">
        <ele>1490.1800000000001</ele>
        <time>2019-03-11T13:03:16Z</time>
      </trkpt>
      <trkpt lat="32.681340454146266" lon="-4.743238873779774">
        <ele>1489.7</ele>
        <time>2019-03-11T13:03:17Z</time>
      </trkpt>
      <trkpt lat="32.681336179375648" lon="-4.74328463897109">
        <ele>1489.22</ele>
        <time>2019-03-11T13:03:18Z</time>
      </trkpt>
      <trkpt lat="32.681346824392676" lon="-4.743344904854894">
        <ele>1485.8499999999999</ele>
        <time>2019-03-11T13:03:19Z</time>
      </trkpt>
      <trkpt lat="32.68136702477932" lon="-4.743410786613822">
        <ele>1484.8900000000001</ele>
        <time>2019-03-11T13:03:20Z</time>
      </trkpt>
      <trkpt lat="32.681391835212708" lon="-4.743478931486607">
        <ele>1484.8900000000001</ele>
        <time>2019-03-11T13:03:30Z</time>
      </trkpt>
      <trkpt lat="32.681538937613368" lon="-4.744145460426807">
        <ele>1484.4100000000001</ele>
        <time>2019-03-11T13:03:31Z</time>
      </trkpt>
      <trkpt lat="32.681537009775639" lon="-4.744214694947004">
        <ele>1483.45</ele>
        <time>2019-03-11T13:03:32Z</time>
      </trkpt>
      <trkpt lat="32.681525442749262" lon="-4.744298765435815">
        <ele>1481.05</ele>
        <time>2019-03-11T13:03:33Z</time>
      </trkpt>
      <trkpt lat="32.6815199945122" lon="-4.744396666064858">
        <ele>1480.0899999999999</ele>
        <time>2019-03-11T13:03:34Z</time>
      </trkpt>
      <trkpt lat="32.681516641750932" lon="-4.744505044072866">
        <ele>1479.1300000000001</ele>
        <time>2019-03-11T13:03:38Z</time>
      </trkpt>
      <trkpt lat="32.681517144665122" lon="-4.744978286325932">
        <ele>1477.6800000000001</ele>
        <time>2019-03-11T13:03:39Z</time>
      </trkpt>
      <trkpt lat="32.681540781632066" lon="-4.745086077600718">
        <ele>1476.24</ele>
        <time>2019-03-11T13:03:40Z</time>
      </trkpt>
      <trkpt lat="32.68157422542572" lon="-4.745190432295203">
        <ele>1473.3599999999999</ele>
        <time>2019-03-11T13:03:41Z</time>
      </trkpt>
      <trkpt lat="32.68160892650485" lon="-4.745296966284514">
        <ele>1472.8800000000001</ele>
        <time>2019-03-11T13:03:42Z</time>
      </trkpt>
      <trkpt lat="32.681640023365617" lon="-4.745405428111553">
        <ele>1470.47</ele>
        <time>2019-03-11T13:03:45Z</time>
      </trkpt>
      <trkpt lat="32.681724177673459" lon="-4.745731735602021">
        <ele>1469.99</ele>
        <time>2019-03-11T13:03:46Z</time>
      </trkpt>
      <trkpt lat="32.68173691816628" lon="-4.745830893516541">
        <ele>1469.51</ele>
        <time>2019-03-11T13:03:57Z</time>
      </trkpt>
      <trkpt lat="32.681880919262767" lon="-4.746833620592952">
        <ele>1469.51</ele>
        <time>2019-03-11T13:04:10Z</time>
      </trkpt>
      <trkpt lat="32.682058699429035" lon="-4.747749846428633">
        <ele>1469.51</ele>
        <time>2019-03-11T13:04:17Z</time>
      </trkpt>
      <trkpt lat="32.682207142934203" lon="-4.748178413137794">
        <ele>1469.51</ele>
        <time>2019-03-11T13:04:18Z</time>
      </trkpt>
      <trkpt lat="32.682213680818677" lon="-4.748241947963834">
        <ele>1469.99</ele>
        <time>2019-03-11T13:04:19Z</time>
      </trkpt>
      <trkpt lat="32.68221233971417" lon="-4.748302716761828">
        <ele>1470.95</ele>
        <time>2019-03-11T13:04:20Z</time>
      </trkpt>
      <trkpt lat="32.682205466553569" lon="-4.748357953503728">
        <ele>1471.4400000000001</ele>
        <time>2019-03-11T13:04:21Z</time>
      </trkpt>
      <trkpt lat="32.682196581736207" lon="-4.748412435874343">
        <ele>1471.4400000000001</ele>
        <time>2019-03-11T13:04:25Z</time>
      </trkpt>
      <trkpt lat="32.682175626978278" lon="-4.748605722561479">
        <ele>1471.9200000000001</ele>
        <time>2019-03-11T13:04:26Z</time>
      </trkpt>
      <trkpt lat="32.682179482653737" lon="-4.748660204932094">
        <ele>1471.9200000000001</ele>
        <time>2019-03-11T13:04:27Z</time>
      </trkpt>
      <trkpt lat="32.682188367471099" lon="-4.748719884082675">
        <ele>1472.8800000000001</ele>
        <time>2019-03-11T13:04:28Z</time>
      </trkpt>
      <trkpt lat="32.682205801829696" lon="-4.748787358403206">
        <ele>1473.3599999999999</ele>
        <time>2019-03-11T13:04:29Z</time>
      </trkpt>
      <trkpt lat="32.682230696082115" lon="-4.748860029503703">
        <ele>1473.8399999999999</ele>
        <time>2019-03-11T13:04:31Z</time>
      </trkpt>
      <trkpt lat="32.682273359969258" lon="-4.749010233208537">
        <ele>1474.8</ele>
        <time>2019-03-11T13:04:32Z</time>
      </trkpt>
      <trkpt lat="32.682283334434032" lon="-4.749087765812874">
        <ele>1474.8</ele>
        <time>2019-03-11T13:04:33Z</time>
      </trkpt>
      <trkpt lat="32.68228274770081" lon="-4.74916378967464">
        <ele>1474.8</ele>
        <time>2019-03-11T13:04:36Z</time>
      </trkpt>
      <trkpt lat="32.682266989722848" lon="-4.749380629509687">
        <ele>1474.8</ele>
        <time>2019-03-11T13:04:37Z</time>
      </trkpt>
      <trkpt lat="32.682255590334535" lon="-4.749439302831888">
        <ele>1475.28</ele>
        <time>2019-03-11T13:04:38Z</time>
      </trkpt>
      <trkpt lat="32.68223631195724" lon="-4.749493533745408">
        <ele>1477.2</ele>
        <time>2019-03-11T13:04:39Z</time>
      </trkpt>
      <trkpt lat="32.682202281430364" lon="-4.749540723860264">
        <ele>1478.1600000000001</ele>
        <time>2019-03-11T13:04:40Z</time>
      </trkpt>
      <trkpt lat="32.68215224146843" lon="-4.749590596184135">
        <ele>1478.6500000000001</ele>
        <time>2019-03-11T13:04:44Z</time>
      </trkpt>
      <trkpt lat="32.681930037215352" lon="-4.749804418534041">
        <ele>1479.6099999999999</ele>
        <time>2019-03-11T13:04:45Z</time>
      </trkpt>
      <trkpt lat="32.681863317266107" lon="-4.749844064936042">
        <ele>1480.0899999999999</ele>
        <time>2019-03-11T13:04:46Z</time>
      </trkpt>
      <trkpt lat="32.681793244555593" lon="-4.749871138483286">
        <ele>1480.5699999999999</ele>
        <time>2019-03-11T13:04:47Z</time>
      </trkpt>
      <trkpt lat="32.681718058884144" lon="-4.749879268929362">
        <ele>1481.05</ele>
        <time>2019-03-11T13:04:48Z</time>
      </trkpt>
      <trkpt lat="32.681636502966285" lon="-4.749866276979446">
        <ele>1481.53</ele>
        <time>2019-03-11T13:04:49Z</time>
      </trkpt>
      <trkpt lat="32.68155368976295" lon="-4.749845741316676">
        <ele>1482.49</ele>
        <time>2019-03-11T13:04:50Z</time>
      </trkpt>
      <trkpt lat="32.681474732235074" lon="-4.749829396605492">
        <ele>1482.97</ele>
        <time>2019-03-11T13:04:51Z</time>
      </trkpt>
      <trkpt lat="32.68140222877264" lon="-4.749826211482287">
        <ele>1483.9300000000001</ele>
        <time>2019-03-11T13:04:52Z</time>
      </trkpt>
      <trkpt lat="32.681333916261792" lon="-4.74983861669898">
        <ele>1490.1800000000001</ele>
        <time>2019-03-11T13:04:53Z</time>
      </trkpt>
      <trkpt lat="32.681267531588674" lon="-4.749866612255573">
        <ele>1493.55</ele>
        <time>2019-03-11T13:04:54Z</time>
      </trkpt>
      <trkpt lat="32.681196201592684" lon="-4.749902989715338">
        <ele>1491.6199999999999</ele>
        <time>2019-03-11T13:05:04Z</time>
      </trkpt>
      <trkpt lat="32.680325992405415" lon="-4.750400623306632">
        <ele>1494.99</ele>
        <time>2019-03-11T13:05:20Z</time>
      </trkpt>
      <trkpt lat="32.67860971391201" lon="-4.751225067302585">
        <ele>1495.95</ele>
        <time>2019-03-11T13:05:31Z</time>
      </trkpt>
      <trkpt lat="32.677081692963839" lon="-4.751585489138961">
        <ele>1495.95</ele>
        <time>2019-03-11T13:05:42Z</time>
      </trkpt>
      <trkpt lat="32.675596252083778" lon="-4.752366850152612">
        <ele>1496.4300000000001</ele>
        <time>2019-03-11T13:05:48Z</time>
      </trkpt>
      <trkpt lat="32.67496501095593" lon="-4.752712603658438">
        <ele>1496.4300000000001</ele>
        <time>2019-03-11T13:05:49Z</time>
      </trkpt>
      <trkpt lat="32.674872642382979" lon="-4.752792567014694">
        <ele>1496.4300000000001</ele>
        <time>2019-03-11T13:05:50Z</time>
      </trkpt>
      <trkpt lat="32.674790499731898" lon="-4.752882169559598">
        <ele>1498.8299999999999</ele>
        <time>2019-03-11T13:05:51Z</time>
      </trkpt>
      <trkpt lat="32.674717660993338" lon="-4.752975292503834">
        <ele>1502.2</ele>
        <time>2019-03-11T13:05:52Z</time>
      </trkpt>
      <trkpt lat="32.674650605767965" lon="-4.753066236153245">
        <ele>1504.1199999999999</ele>
        <time>2019-03-11T13:06:03Z</time>
      </trkpt>
      <trkpt lat="32.67374494113028" lon="-4.753981707617641">
        <ele>1505.5599999999999</ele>
        <time>2019-03-11T13:06:14Z</time>
      </trkpt>
      <trkpt lat="32.67259418964386" lon="-4.75474345497787">
        <ele>1506.52</ele>
        <time>2019-03-11T13:06:24Z</time>
      </trkpt>
      <trkpt lat="32.671663044020534" lon="-4.755005473271012">
        <ele>1507</ele>
        <time>2019-03-11T13:06:37Z</time>
      </trkpt>
      <trkpt lat="32.670531906187534" lon="-4.755578879266977">
        <ele>1507</ele>
        <time>2019-03-11T13:06:44Z</time>
      </trkpt>
      <trkpt lat="32.669845260679722" lon="-4.755958747118712">
        <ele>1506.52</ele>
        <time>2019-03-11T13:06:48Z</time>
      </trkpt>
      <trkpt lat="32.669453490525484" lon="-4.75622646510601">
        <ele>1506.52</ele>
        <time>2019-03-11T13:06:49Z</time>
      </trkpt>
      <trkpt lat="32.669345196336508" lon="-4.756271140649915">
        <ele>1506.52</ele>
        <time>2019-03-11T13:06:50Z</time>
      </trkpt>
      <trkpt lat="32.669232962653041" lon="-4.756305254995823">
        <ele>1506.52</ele>
        <time>2019-03-11T13:06:51Z</time>
      </trkpt>
      <trkpt lat="32.669114442542195" lon="-4.756326712667942">
        <ele>1506.52</ele>
        <time>2019-03-11T13:06:52Z</time>
      </trkpt>
      <trkpt lat="32.668992150574923" lon="-4.756330316886306">
        <ele>1507</ele>
        <time>2019-03-11T13:06:53Z</time>
      </trkpt>
      <trkpt lat="32.668868098407984" lon="-4.756325287744403">
        <ele>1507</ele>
        <time>2019-03-11T13:06:55Z</time>
      </trkpt>
      <trkpt lat="32.668631644919515" lon="-4.756327047944069">
        <ele>1508.45</ele>
        <time>2019-03-11T13:06:56Z</time>
      </trkpt>
      <trkpt lat="32.668517734855413" lon="-4.756351858377457">
        <ele>1510.8499999999999</ele>
        <time>2019-03-11T13:06:57Z</time>
      </trkpt>
      <trkpt lat="32.668408686295152" lon="-4.756397707387805">
        <ele>1511.3299999999999</ele>
        <time>2019-03-11T13:07:08Z</time>
      </trkpt>
      <trkpt lat="32.667130865156651" lon="-4.757036659866571">
        <ele>1511.8099999999999</ele>
        <time>2019-03-11T13:07:16Z</time>
      </trkpt>
      <trkpt lat="32.666204497218132" lon="-4.757252158597112">
        <ele>1511.8099999999999</ele>
        <time>2019-03-11T13:07:17Z</time>
      </trkpt>
      <trkpt lat="32.666120259091258" lon="-4.757285686209798">
        <ele>1512.29</ele>
        <time>2019-03-11T13:07:18Z</time>
      </trkpt>
      <trkpt lat="32.666048426181078" lon="-4.757334468886256">
        <ele>1512.29</ele>
        <time>2019-03-11T13:07:19Z</time>
      </trkpt>
      <trkpt lat="32.665988998487592" lon="-4.757400266826153">
        <ele>1512.29</ele>
        <time>2019-03-11T13:07:20Z</time>
      </trkpt>
      <trkpt lat="32.665940467268229" lon="-4.757479559630156">
        <ele>1512.29</ele>
        <time>2019-03-11T13:07:21Z</time>
      </trkpt>
      <trkpt lat="32.665895121172071" lon="-4.757573436945677">
        <ele>1512.29</ele>
        <time>2019-03-11T13:07:22Z</time>
      </trkpt>
      <trkpt lat="32.665844997391105" lon="-4.75767326541245">
        <ele>1512.29</ele>
        <time>2019-03-11T13:07:23Z</time>
      </trkpt>
      <trkpt lat="32.665780037641525" lon="-4.75776462815702">
        <ele>1512.29</ele>
        <time>2019-03-11T13:07:24Z</time>
      </trkpt>
      <trkpt lat="32.665697811171412" lon="-4.757842076942325">
        <ele>1512.29</ele>
        <time>2019-03-11T13:07:25Z</time>
      </trkpt>
      <trkpt lat="32.665602592751384" lon="-4.757906282320619">
        <ele>1511.3299999999999</ele>
        <time>2019-03-11T13:07:26Z</time>
      </trkpt>
      <trkpt lat="32.665500836446881" lon="-4.757962273433805">
        <ele>1511.3299999999999</ele>
        <time>2019-03-11T13:07:27Z</time>
      </trkpt>
      <trkpt lat="32.66539866104722" lon="-4.758011810481548">
        <ele>1511.3299999999999</ele>
        <time>2019-03-11T13:07:37Z</time>
      </trkpt>
      <trkpt lat="32.66436961479485" lon="-4.75849318318069">
        <ele>1511.3299999999999</ele>
        <time>2019-03-11T13:07:38Z</time>
      </trkpt>
      <trkpt lat="32.664261655882001" lon="-4.758508522063494">
        <ele>1511.3299999999999</ele>
        <time>2019-03-11T13:07:39Z</time>
      </trkpt>
      <trkpt lat="32.664151769131422" lon="-4.758513299748302">
        <ele>1512.29</ele>
        <time>2019-03-11T13:07:40Z</time>
      </trkpt>
      <trkpt lat="32.664038194343448" lon="-4.75850441493094">
        <ele>1512.29</ele>
        <time>2019-03-11T13:07:41Z</time>
      </trkpt>
      <trkpt lat="32.663921099156141" lon="-4.758486477658153">
        <ele>1512.29</ele>
        <time>2019-03-11T13:07:45Z</time>
      </trkpt>
      <trkpt lat="32.6634431630373" lon="-4.758410956710577">
        <ele>1512.77</ele>
        <time>2019-03-11T13:07:46Z</time>
      </trkpt>
      <trkpt lat="32.663325229659677" lon="-4.758422104641795">
        <ele>1512.77</ele>
        <time>2019-03-11T13:07:47Z</time>
      </trkpt>
      <trkpt lat="32.663210397586226" lon="-4.758448675274849">
        <ele>1514.6900000000001</ele>
        <time>2019-03-11T13:07:48Z</time>
      </trkpt>
      <trkpt lat="32.663095397874713" lon="-4.758486645296216">
        <ele>1520.9400000000001</ele>
        <time>2019-03-11T13:07:49Z</time>
      </trkpt>
      <trkpt lat="32.66298140399158" lon="-4.758532661944628">
        <ele>1522.3900000000001</ele>
        <time>2019-03-11T13:08:00Z</time>
      </trkpt>
      <trkpt lat="32.661592941731215" lon="-4.759155604988337">
        <ele>1532.48</ele>
        <time>2019-03-11T13:08:12Z</time>
      </trkpt>
      <trkpt lat="32.659844644367695" lon="-4.759872006252408">
        <ele>1533.9200000000001</ele>
        <time>2019-03-11T13:08:13Z</time>
      </trkpt>
      <trkpt lat="32.659693518653512" lon="-4.759891284629703">
        <ele>1534.4000000000001</ele>
        <time>2019-03-11T13:08:20Z</time>
      </trkpt>
      <trkpt lat="32.658650726079941" lon="-4.76002992130816">
        <ele>1536.8</ele>
        <time>2019-03-11T13:08:21Z</time>
      </trkpt>
      <trkpt lat="32.658511083573103" lon="-4.760091779753566">
        <ele>1537.77</ele>
        <time>2019-03-11T13:08:22Z</time>
      </trkpt>
      <trkpt lat="32.658377224579453" lon="-4.760170318186283">
        <ele>1539.21</ele>
        <time>2019-03-11T13:08:26Z</time>
      </trkpt>
      <trkpt lat="32.657855115830898" lon="-4.760494949296117">
        <ele>1539.6900000000001</ele>
        <time>2019-03-11T13:08:27Z</time>
      </trkpt>
      <trkpt lat="32.657722095027566" lon="-4.760551191866398">
        <ele>1543.05</ele>
        <time>2019-03-11T13:08:37Z</time>
      </trkpt>
      <trkpt lat="32.656508395448327" lon="-4.760920414701104">
        <ele>1544.01</ele>
        <time>2019-03-11T13:08:38Z</time>
      </trkpt>
      <trkpt lat="32.656384259462357" lon="-4.760968191549182">
        <ele>1545.46</ele>
        <time>2019-03-11T13:08:48Z</time>
      </trkpt>
      <trkpt lat="32.655150946229696" lon="-4.761749301105738">
        <ele>1545.9400000000001</ele>
        <time>2019-03-11T13:08:49Z</time>
      </trkpt>
      <trkpt lat="32.655031587928534" lon="-4.761821553111076">
        <ele>1546.9000000000001</ele>
        <time>2019-03-11T13:08:50Z</time>
      </trkpt>
      <trkpt lat="32.654909212142229" lon="-4.761872850358486">
        <ele>1547.3800000000001</ele>
        <time>2019-03-11T13:08:51Z</time>
      </trkpt>
      <trkpt lat="32.654781471937895" lon="-4.761900091543794">
        <ele>1551.71</ele>
        <time>2019-03-11T13:08:52Z</time>
      </trkpt>
      <trkpt lat="32.654649540781975" lon="-4.761906210333109">
        <ele>1552.1900000000001</ele>
        <time>2019-03-11T13:08:53Z</time>
      </trkpt>
      <trkpt lat="32.654517441987991" lon="-4.761900259181857">
        <ele>1552.1900000000001</ele>
        <time>2019-03-11T13:08:58Z</time>
      </trkpt>
      <trkpt lat="32.653878908604383" lon="-4.761901516467333">
        <ele>1552.1900000000001</ele>
        <time>2019-03-11T13:08:59Z</time>
      </trkpt>
      <trkpt lat="32.653768938034773" lon="-4.761951137334108">
        <ele>1551.71</ele>
        <time>2019-03-11T13:09:00Z</time>
      </trkpt>
      <trkpt lat="32.653661482036114" lon="-4.762023640796542">
        <ele>1550.74</ele>
        <time>2019-03-11T13:09:03Z</time>
      </trkpt>
      <trkpt lat="32.653291169553995" lon="-4.762254226952791">
        <ele>1550.74</ele>
        <time>2019-03-11T13:09:04Z</time>
      </trkpt>
      <trkpt lat="32.653147587552667" lon="-4.762311978265643">
        <ele>1550.74</ele>
        <time>2019-03-11T13:09:07Z</time>
      </trkpt>
      <trkpt lat="32.652712818235159" lon="-4.762412058189511">
        <ele>1551.22</ele>
        <time>2019-03-11T13:09:08Z</time>
      </trkpt>
      <trkpt lat="32.652573930099607" lon="-4.762413231655955">
        <ele>1551.22</ele>
        <time>2019-03-11T13:09:17Z</time>
      </trkpt>
      <trkpt lat="32.651341455057263" lon="-4.762394791468978">
        <ele>1551.22</ele>
        <time>2019-03-11T13:09:26Z</time>
      </trkpt>
      <trkpt lat="32.650283239781857" lon="-4.762290939688683">
        <ele>1551.22</ele>
        <time>2019-03-11T13:09:27Z</time>
      </trkpt>
      <trkpt lat="32.650185590609908" lon="-4.762312062084675">
        <ele>1550.74</ele>
        <time>2019-03-11T13:09:28Z</time>
      </trkpt>
      <trkpt lat="32.65008794143796" lon="-4.762346092611551">
        <ele>1550.74</ele>
        <time>2019-03-11T13:09:29Z</time>
      </trkpt>
      <trkpt lat="32.649996830150485" lon="-4.762393618002534">
        <ele>1550.74</ele>
        <time>2019-03-11T13:09:30Z</time>
      </trkpt>
      <trkpt lat="32.649910999462008" lon="-4.762451620772481">
        <ele>1551.22</ele>
        <time>2019-03-11T13:09:31Z</time>
      </trkpt>
      <trkpt lat="32.649828940629959" lon="-4.762508617714047">
        <ele>1552.1900000000001</ele>
        <time>2019-03-11T13:09:32Z</time>
      </trkpt>
      <trkpt lat="32.649745456874371" lon="-4.762552957981825">
        <ele>1556.99</ele>
        <time>2019-03-11T13:09:33Z</time>
      </trkpt>
      <trkpt lat="32.649658704176545" lon="-4.762590928003192">
        <ele>1564.2</ele>
        <time>2019-03-11T13:09:43Z</time>
      </trkpt>
      <trkpt lat="32.64863577671349" lon="-4.762844312936068">
        <ele>1565.1600000000001</ele>
        <time>2019-03-11T13:09:54Z</time>
      </trkpt>
      <trkpt lat="32.647372120991349" lon="-4.762856466695666">
        <ele>1566.1199999999999</ele>
        <time>2019-03-11T13:10:03Z</time>
      </trkpt>
      <trkpt lat="32.646185997873545" lon="-4.762784633785486">
        <ele>1568.05</ele>
        <time>2019-03-11T13:10:04Z</time>
      </trkpt>
      <trkpt lat="32.646077955141664" lon="-4.762800894677639">
        <ele>1568.05</ele>
        <time>2019-03-11T13:10:05Z</time>
      </trkpt>
      <trkpt lat="32.645974941551685" lon="-4.762839283794165">
        <ele>1568.53</ele>
        <time>2019-03-11T13:10:15Z</time>
      </trkpt>
      <trkpt lat="32.644986212253571" lon="-4.763606647029519">
        <ele>1568.53</ele>
        <time>2019-03-11T13:10:16Z</time>
      </trkpt>
      <trkpt lat="32.644882360473275" lon="-4.763681665062904">
        <ele>1576.7</ele>
        <time>2019-03-11T13:10:17Z</time>
      </trkpt>
      <trkpt lat="32.644767025485635" lon="-4.763738410547376">
        <ele>1584.8699999999999</ele>
        <time>2019-03-11T13:10:18Z</time>
      </trkpt>
      <trkpt lat="32.644641464576125" lon="-4.763777302578092">
        <ele>1585.8299999999999</ele>
        <time>2019-03-11T13:10:29Z</time>
      </trkpt>
      <trkpt lat="32.643299354240298" lon="-4.764094473794103">
        <ele>1586.79</ele>
        <time>2019-03-11T13:10:37Z</time>
      </trkpt>
      <trkpt lat="32.642391677945852" lon="-4.764399491250515">
        <ele>1587.75</ele>
        <time>2019-03-11T13:10:38Z</time>
      </trkpt>
      <trkpt lat="32.642298471182585" lon="-4.764463445171714">
        <ele>1588.24</ele>
        <time>2019-03-11T13:10:39Z</time>
      </trkpt>
      <trkpt lat="32.642218256369233" lon="-4.764546258375049">
        <ele>1594.96</ele>
        <time>2019-03-11T13:10:40Z</time>
      </trkpt>
      <trkpt lat="32.642146842554212" lon="-4.764637537300587">
        <ele>1597.8499999999999</ele>
        <time>2019-03-11T13:10:41Z</time>
      </trkpt>
      <trkpt lat="32.642075764015317" lon="-4.764739545062184">
        <ele>1600.73</ele>
        <time>2019-03-11T13:10:51Z</time>
      </trkpt>
      <trkpt lat="32.641221061348915" lon="-4.765942515805364">
        <ele>1603.1400000000001</ele>
        <time>2019-03-11T13:11:00Z</time>
      </trkpt>
      <trkpt lat="32.640573475509882" lon="-4.766887072473764">
        <ele>1602.1700000000001</ele>
        <time>2019-03-11T13:11:11Z</time>
      </trkpt>
      <trkpt lat="32.640169886872172" lon="-4.767575645819306">
        <ele>1596.8900000000001</ele>
        <time>2019-03-11T13:11:20Z</time>
      </trkpt>
      <trkpt lat="32.639825893566012" lon="-4.768360443413258">
        <ele>1594.96</ele>
        <time>2019-03-11T13:11:33Z</time>
      </trkpt>
      <trkpt lat="32.639047550037503" lon="-4.769864408299327">
        <ele>1600.25</ele>
        <time>2019-03-11T13:11:44Z</time>
      </trkpt>
      <trkpt lat="32.63803350739181" lon="-4.771419586613774">
        <ele>1601.21</ele>
        <time>2019-03-11T13:11:57Z</time>
      </trkpt>
      <trkpt lat="32.636668933555484" lon="-4.773469883948565">
        <ele>1601.6900000000001</ele>
        <time>2019-03-11T13:12:05Z</time>
      </trkpt>
      <trkpt lat="32.635939456522465" lon="-4.774643266573548">
        <ele>1602.6600000000001</ele>
        <time>2019-03-11T13:12:06Z</time>
      </trkpt>
      <trkpt lat="32.635876843705773" lon="-4.774805372580886">
        <ele>1603.1400000000001</ele>
        <time>2019-03-11T13:12:07Z</time>
      </trkpt>
      <trkpt lat="32.635826468467712" lon="-4.774976195767522">
        <ele>1604.0999999999999</ele>
        <time>2019-03-11T13:12:08Z</time>
      </trkpt>
      <trkpt lat="32.635787827894092" lon="-4.775153305381537">
        <ele>1604.5799999999999</ele>
        <time>2019-03-11T13:12:09Z</time>
      </trkpt>
      <trkpt lat="32.635759748518467" lon="-4.775336952880025">
        <ele>1605.0599999999999</ele>
        <time>2019-03-11T13:12:10Z</time>
      </trkpt>
      <trkpt lat="32.635744661092758" lon="-4.775525210425258">
        <ele>1611.79</ele>
        <time>2019-03-11T13:12:11Z</time>
      </trkpt>
      <trkpt lat="32.635743236169219" lon="-4.775719586759806">
        <ele>1612.27</ele>
        <time>2019-03-11T13:12:12Z</time>
      </trkpt>
      <trkpt lat="32.635751282796264" lon="-4.775920249521732">
        <ele>1612.75</ele>
        <time>2019-03-11T13:12:23Z</time>
      </trkpt>
      <trkpt lat="32.635766454041004" lon="-4.778069872409105">
        <ele>1613.71</ele>
        <time>2019-03-11T13:12:24Z</time>
      </trkpt>
      <trkpt lat="32.635719012469053" lon="-4.7782445512712">
        <ele>1614.6700000000001</ele>
        <time>2019-03-11T13:12:25Z</time>
      </trkpt>
      <trkpt lat="32.63565531000495" lon="-4.778414284810424">
        <ele>1615.6300000000001</ele>
        <time>2019-03-11T13:12:26Z</time>
      </trkpt>
      <trkpt lat="32.635572580620646" lon="-4.77857337333262">
        <ele>1616.5899999999999</ele>
        <time>2019-03-11T13:12:27Z</time>
      </trkpt>
      <trkpt lat="32.63547602109611" lon="-4.778715446591377">
        <ele>1625.73</ele>
        <time>2019-03-11T13:12:28Z</time>
      </trkpt>
      <trkpt lat="32.635369235649705" lon="-4.778846791014075">
        <ele>1637.74</ele>
        <time>2019-03-11T13:12:29Z</time>
      </trkpt>
      <trkpt lat="32.635259600356221" lon="-4.778974363580346">
        <ele>1649.28</ele>
        <time>2019-03-11T13:12:42Z</time>
      </trkpt>
      <trkpt lat="32.633961997926235" lon="-4.780494840815663">
        <ele>1656.97</ele>
        <time>2019-03-11T13:12:59Z</time>
      </trkpt>
      <trkpt lat="32.632300453260541" lon="-4.782462576404214">
        <ele>1660.8099999999999</ele>
        <time>2019-03-11T13:13:11Z</time>
      </trkpt>
      <trkpt lat="32.631314909085631" lon="-4.783592373132706">
        <ele>1664.6600000000001</ele>
        <time>2019-03-11T13:13:24Z</time>
      </trkpt>
      <trkpt lat="32.630091989412904" lon="-4.784619491547346">
        <ele>1677.1600000000001</ele>
        <time>2019-03-11T13:13:35Z</time>
      </trkpt>
      <trkpt lat="32.628739569336176" lon="-4.785774098709226">
        <ele>1696.3800000000001</ele>
        <time>2019-03-11T13:13:49Z</time>
      </trkpt>
      <trkpt lat="32.626925557851791" lon="-4.787582661956549">
        <ele>1710.8</ele>
        <time>2019-03-11T13:14:10Z</time>
      </trkpt>
      <trkpt lat="32.624076968058944" lon="-4.79060098528862">
        <ele>1724.74</ele>
        <time>2019-03-11T13:14:31Z</time>
      </trkpt>
      <trkpt lat="32.621249333024025" lon="-4.793589301407337">
        <ele>1725.22</ele>
        <time>2019-03-11T13:14:46Z</time>
      </trkpt>
      <trkpt lat="32.619417300447822" lon="-4.795609591528773">
        <ele>1725.7</ele>
        <time>2019-03-11T13:15:02Z</time>
      </trkpt>
      <trkpt lat="32.617816859856248" lon="-4.797645974904299">
        <ele>1725.7</ele>
        <time>2019-03-11T13:15:03Z</time>
      </trkpt>
      <trkpt lat="32.617699597030878" lon="-4.79774865321815">
        <ele>1726.1800000000001</ele>
        <time>2019-03-11T13:15:04Z</time>
      </trkpt>
      <trkpt lat="32.617571773007512" lon="-4.797838004305959">
        <ele>1727.1500000000001</ele>
        <time>2019-03-11T13:15:05Z</time>
      </trkpt>
      <trkpt lat="32.617434812709689" lon="-4.797918302938342">
        <ele>1727.6300000000001</ele>
        <time>2019-03-11T13:15:06Z</time>
      </trkpt>
      <trkpt lat="32.617288213223219" lon="-4.797992398962379">
        <ele>1728.5899999999999</ele>
        <time>2019-03-11T13:15:10Z</time>
      </trkpt>
      <trkpt lat="32.616696367040277" lon="-4.798303451389074">
        <ele>1738.2</ele>
        <time>2019-03-11T13:15:11Z</time>
      </trkpt>
      <trkpt lat="32.616562424227595" lon="-4.798408560454845">
        <ele>1746.8499999999999</ele>
        <time>2019-03-11T13:15:12Z</time>
      </trkpt>
      <trkpt lat="32.616437450051308" lon="-4.798528170213103">
        <ele>1759.8299999999999</ele>
        <time>2019-03-11T13:15:25Z</time>
      </trkpt>
      <trkpt lat="32.61494530364871" lon="-4.800319382920861">
        <ele>1769.4400000000001</ele>
        <time>2019-03-11T13:15:34Z</time>
      </trkpt>
      <trkpt lat="32.614131085574627" lon="-4.801892749965191">
        <ele>1777.1300000000001</ele>
        <time>2019-03-11T13:15:45Z</time>
      </trkpt>
      <trkpt lat="32.612893665209413" lon="-4.803562005981803">
        <ele>1777.6099999999999</ele>
        <time>2019-03-11T13:15:55Z</time>
      </trkpt>
      <trkpt lat="32.612073244526982" lon="-4.805269986391068">
        <ele>1789.6300000000001</ele>
        <time>2019-03-11T13:16:02Z</time>
      </trkpt>
      <trkpt lat="32.611436806619167" lon="-4.806340271607041">
        <ele>1796.3599999999999</ele>
        <time>2019-03-11T13:16:03Z</time>
      </trkpt>
      <trkpt lat="32.611320046707988" lon="-4.806457785889506">
        <ele>1807.4200000000001</ele>
        <time>2019-03-11T13:16:18Z</time>
      </trkpt>
      <trkpt lat="32.609444009140134" lon="-4.808207089081407">
        <ele>1807.9000000000001</ele>
        <time>2019-03-11T13:16:26Z</time>
      </trkpt>
      <trkpt lat="32.60867178440094" lon="-4.809352559968829">
        <ele>1807.4200000000001</ele>
        <time>2019-03-11T13:16:40Z</time>
      </trkpt>
      <trkpt lat="32.607393879443407" lon="-4.811649285256863">
        <ele>1808.3800000000001</ele>
        <time>2019-03-11T13:16:53Z</time>
      </trkpt>
      <trkpt lat="32.605699393898249" lon="-4.81361199170351">
        <ele>1809.3399999999999</ele>
        <time>2019-03-11T13:16:56Z</time>
      </trkpt>
      <trkpt lat="32.605385072529316" lon="-4.814062351360917">
        <ele>1810.3</ele>
        <time>2019-03-11T13:16:57Z</time>
      </trkpt>
      <trkpt lat="32.605325141921639" lon="-4.814227223396301">
        <ele>1811.26</ele>
        <time>2019-03-11T13:16:58Z</time>
      </trkpt>
      <trkpt lat="32.605293206870556" lon="-4.814398214221001">
        <ele>1818.95</ele>
        <time>2019-03-11T13:16:59Z</time>
      </trkpt>
      <trkpt lat="32.605282142758369" lon="-4.814570965245366">
        <ele>1819.9100000000001</ele>
        <time>2019-03-11T13:17:00Z</time>
      </trkpt>
      <trkpt lat="32.605277867987752" lon="-4.814741536974907">
        <ele>1820.3900000000001</ele>
        <time>2019-03-11T13:17:09Z</time>
      </trkpt>
      <trkpt lat="32.605047868564725" lon="-4.816229995340109">
        <ele>1820.8699999999999</ele>
        <time>2019-03-11T13:17:13Z</time>
      </trkpt>
      <trkpt lat="32.604865897446871" lon="-4.816923765465617">
        <ele>1823.28</ele>
        <time>2019-03-11T13:17:14Z</time>
      </trkpt>
      <trkpt lat="32.604786520823836" lon="-4.817088721320033">
        <ele>1822.8</ele>
        <time>2019-03-11T13:17:15Z</time>
      </trkpt>
      <trkpt lat="32.604690548032522" lon="-4.817246552556753">
        <ele>1821.3499999999999</ele>
        <time>2019-03-11T13:17:22Z</time>
      </trkpt>
      <trkpt lat="32.604041369631886" lon="-4.818121958523989">
        <ele>1819.9100000000001</ele>
        <time>2019-03-11T13:17:28Z</time>
      </trkpt>
      <trkpt lat="32.603779016062617" lon="-4.81848556548357">
        <ele>1818.47</ele>
        <time>2019-03-11T13:17:48Z</time>
      </trkpt>
      <trkpt lat="32.603781027719378" lon="-4.818468298763037">
        <ele>1815.5899999999999</ele>
        <time>2019-03-11T13:18:12Z</time>
      </trkpt>
      <trkpt lat="32.603642893955112" lon="-4.818654293194413">
        <ele>1815.5899999999999</ele>
        <time>2019-03-11T13:18:18Z</time>
      </trkpt>
      <trkpt lat="32.603260343894362" lon="-4.819289809092879">
        <ele>1815.1099999999999</ele>
        <time>2019-03-11T13:18:26Z</time>
      </trkpt>
      <trkpt lat="32.602536985650659" lon="-4.820433435961604">
        <ele>1815.1099999999999</ele>
        <time>2019-03-11T13:18:27Z</time>
      </trkpt>
      <trkpt lat="32.602401869371533" lon="-4.820558242499828">
        <ele>1818.95</ele>
        <time>2019-03-11T13:18:28Z</time>
      </trkpt>
      <trkpt lat="32.602256275713444" lon="-4.82067609205842">
        <ele>1819.4300000000001</ele>
        <time>2019-03-11T13:18:40Z</time>
      </trkpt>
      <trkpt lat="32.600267585366964" lon="-4.821987776085734">
        <ele>1819.4300000000001</ele>
        <time>2019-03-11T13:18:48Z</time>
      </trkpt>
      <trkpt lat="32.599095040932298" lon="-4.823007099330425">
        <ele>1819.9100000000001</ele>
        <time>2019-03-11T13:18:49Z</time>
      </trkpt>
      <trkpt lat="32.599003342911601" lon="-4.823162667453289">
        <ele>1820.3900000000001</ele>
        <time>2019-03-11T13:18:50Z</time>
      </trkpt>
      <trkpt lat="32.598933186382055" lon="-4.823334412649274">
        <ele>1820.3900000000001</ele>
        <time>2019-03-11T13:18:51Z</time>
      </trkpt>
      <trkpt lat="32.598881889134645" lon="-4.823518563061953">
        <ele>1820.3900000000001</ele>
        <time>2019-03-11T13:18:52Z</time>
      </trkpt>
      <trkpt lat="32.598843416199088" lon="-4.823711682111025">
        <ele>1819.9100000000001</ele>
        <time>2019-03-11T13:18:53Z</time>
      </trkpt>
      <trkpt lat="32.598812654614449" lon="-4.823902873322368">
        <ele>1818.47</ele>
        <time>2019-03-11T13:18:55Z</time>
      </trkpt>
      <trkpt lat="32.598777702078223" lon="-4.82426798902452">
        <ele>1817.03</ele>
        <time>2019-03-11T13:18:56Z</time>
      </trkpt>
      <trkpt lat="32.598796561360359" lon="-4.824435794726014">
        <ele>1816.0699999999999</ele>
        <time>2019-03-11T13:18:57Z</time>
      </trkpt>
      <trkpt lat="32.598843583837152" lon="-4.824602929875255">
        <ele>1817.51</ele>
        <time>2019-03-11T13:18:58Z</time>
      </trkpt>
      <trkpt lat="32.598913740366697" lon="-4.824771154671907">
        <ele>1818.95</ele>
        <time>2019-03-11T13:18:59Z</time>
      </trkpt>
      <trkpt lat="32.599000576883554" lon="-4.824940804392099">
        <ele>1820.3900000000001</ele>
        <time>2019-03-11T13:19:04Z</time>
      </trkpt>
      <trkpt lat="32.599417995661497" lon="-4.825763069093227">
        <ele>1821.3499999999999</ele>
        <time>2019-03-11T13:19:05Z</time>
      </trkpt>
      <trkpt lat="32.59944842197001" lon="-4.825904639437795">
        <ele>1822.3199999999999</ele>
        <time>2019-03-11T13:19:06Z</time>
      </trkpt>
      <trkpt lat="32.599448505789042" lon="-4.826043946668506">
        <ele>1823.28</ele>
        <time>2019-03-11T13:19:07Z</time>
      </trkpt>
      <trkpt lat="32.59941665455699" lon="-4.826170178130269">
        <ele>1823.76</ele>
        <time>2019-03-11T13:19:08Z</time>
      </trkpt>
      <trkpt lat="32.599355131387711" lon="-4.826274113729596">
        <ele>1824.24</ele>
        <time>2019-03-11T13:19:09Z</time>
      </trkpt>
      <trkpt lat="32.599277598783374" lon="-4.826355585828424">
        <ele>1830.49</ele>
        <time>2019-03-11T13:19:10Z</time>
      </trkpt>
      <trkpt lat="32.599192941561341" lon="-4.826423563063145">
        <ele>1832.8900000000001</ele>
        <time>2019-03-11T13:19:11Z</time>
      </trkpt>
      <trkpt lat="32.599101578816772" lon="-4.82648785226047">
        <ele>1833.8499999999999</ele>
        <time>2019-03-11T13:19:20Z</time>
      </trkpt>
      <trkpt lat="32.598094493150711" lon="-4.827189752832055">
        <ele>1838.1800000000001</ele>
        <time>2019-03-11T13:19:24Z</time>
      </trkpt>
      <trkpt lat="32.597652515396476" lon="-4.827617229893804">
        <ele>1837.7</ele>
        <time>2019-03-11T13:19:25Z</time>
      </trkpt>
      <trkpt lat="32.597555285319686" lon="-4.827753435820341">
        <ele>1837.7</ele>
        <time>2019-03-11T13:19:37Z</time>
      </trkpt>
      <trkpt lat="32.596426662057638" lon="-4.829392936080694">
        <ele>1837.22</ele>
        <time>2019-03-11T13:19:38Z</time>
      </trkpt>
      <trkpt lat="32.596357678994536" lon="-4.829509276896715">
        <ele>1837.22</ele>
        <time>2019-03-11T13:19:39Z</time>
      </trkpt>
      <trkpt lat="32.596309315413237" lon="-4.829626036807895">
        <ele>1836.74</ele>
        <time>2019-03-11T13:19:40Z</time>
      </trkpt>
      <trkpt lat="32.596290875226259" lon="-4.829745311290026">
        <ele>1836.74</ele>
        <time>2019-03-11T13:19:41Z</time>
      </trkpt>
      <trkpt lat="32.596308896318078" lon="-4.829867435619235">
        <ele>1836.74</ele>
        <time>2019-03-11T13:19:42Z</time>
      </trkpt>
      <trkpt lat="32.596360696479678" lon="-4.829981597140431">
        <ele>1837.22</ele>
        <time>2019-03-11T13:19:43Z</time>
      </trkpt>
      <trkpt lat="32.596433870494366" lon="-4.830085532739759">
        <ele>1837.22</ele>
        <time>2019-03-11T13:19:44Z</time>
      </trkpt>
      <trkpt lat="32.596516096964478" lon="-4.830179996788502">
        <ele>1837.7</ele>
        <time>2019-03-11T13:19:45Z</time>
      </trkpt>
      <trkpt lat="32.596602430567145" lon="-4.830265156924725">
        <ele>1838.6600000000001</ele>
        <time>2019-03-11T13:19:46Z</time>
      </trkpt>
      <trkpt lat="32.596680717542768" lon="-4.830361548811197">
        <ele>1839.6199999999999</ele>
        <time>2019-03-11T13:19:47Z</time>
      </trkpt>
      <trkpt lat="32.596738720312715" lon="-4.830476380884647">
        <ele>1840.0999999999999</ele>
        <time>2019-03-11T13:19:48Z</time>
      </trkpt>
      <trkpt lat="32.596771577373147" lon="-4.830605126917362">
        <ele>1841.0599999999999</ele>
        <time>2019-03-11T13:19:49Z</time>
      </trkpt>
      <trkpt lat="32.596776774153113" lon="-4.830740410834551">
        <ele>1840.5799999999999</ele>
        <time>2019-03-11T13:19:50Z</time>
      </trkpt>
      <trkpt lat="32.596761602908373" lon="-4.830881729722023">
        <ele>1838.1800000000001</ele>
        <time>2019-03-11T13:19:51Z</time>
      </trkpt>
      <trkpt lat="32.596735451370478" lon="-4.831028580665588">
        <ele>1838.1800000000001</ele>
        <time>2019-03-11T13:20:01Z</time>
      </trkpt>
      <trkpt lat="32.596405288204551" lon="-4.832816859707236">
        <ele>1838.1800000000001</ele>
        <time>2019-03-11T13:20:08Z</time>
      </trkpt>
      <trkpt lat="32.596120806410909" lon="-4.834124688059092">
        <ele>1838.1800000000001</ele>
        <time>2019-03-11T13:20:09Z</time>
      </trkpt>
      <trkpt lat="32.596055343747139" lon="-4.834266845136881">
        <ele>1837.7</ele>
        <time>2019-03-11T13:20:15Z</time>
      </trkpt>
      <trkpt lat="32.595545221120119" lon="-4.835044853389263">
        <ele>1838.1800000000001</ele>
        <time>2019-03-11T13:20:16Z</time>
      </trkpt>
      <trkpt lat="32.595479674637318" lon="-4.835179634392262">
        <ele>1841.0599999999999</ele>
        <time>2019-03-11T13:20:17Z</time>
      </trkpt>
      <trkpt lat="32.595438603311777" lon="-4.835328161716461">
        <ele>1842.5</ele>
        <time>2019-03-11T13:20:18Z</time>
      </trkpt>
      <trkpt lat="32.595426365733147" lon="-4.835486831143498">
        <ele>1843.47</ele>
        <time>2019-03-11T13:20:22Z</time>
      </trkpt>
      <trkpt lat="32.595448158681393" lon="-4.836154785007238">
        <ele>1844.4300000000001</ele>
        <time>2019-03-11T13:20:23Z</time>
      </trkpt>
      <trkpt lat="32.595415636897087" lon="-4.836314544081688">
        <ele>1844.9100000000001</ele>
        <time>2019-03-11T13:20:24Z</time>
      </trkpt>
      <trkpt lat="32.595357466489077" lon="-4.836459215730429">
        <ele>1848.75</ele>
        <time>2019-03-11T13:20:25Z</time>
      </trkpt>
      <trkpt lat="32.595275826752186" lon="-4.836584692820907">
        <ele>1853.0799999999999</ele>
        <time>2019-03-11T13:20:26Z</time>
      </trkpt>
      <trkpt lat="32.595180440694094" lon="-4.836698602885008">
        <ele>1857.4000000000001</ele>
        <time>2019-03-11T13:20:34Z</time>
      </trkpt>
      <trkpt lat="32.594432774931192" lon="-4.837875505909324">
        <ele>1859.3299999999999</ele>
        <time>2019-03-11T13:20:43Z</time>
      </trkpt>
      <trkpt lat="32.593865655362606" lon="-4.839564710855484">
        <ele>1859.3299999999999</ele>
        <time>2019-03-11T13:20:56Z</time>
      </trkpt>
      <trkpt lat="32.593052946031094" lon="-4.8419279884547">
        <ele>1858.8499999999999</ele>
        <time>2019-03-11T13:21:00Z</time>
      </trkpt>
      <trkpt lat="32.592772822827101" lon="-4.84256811439991">
        <ele>1858.8499999999999</ele>
        <time>2019-03-11T13:21:01Z</time>
      </trkpt>
      <trkpt lat="32.592732422053814" lon="-4.842738267034292">
        <ele>1858.8499999999999</ele>
        <time>2019-03-11T13:21:02Z</time>
      </trkpt>
      <trkpt lat="32.592714568600059" lon="-4.84290967695415">
        <ele>1859.3299999999999</ele>
        <time>2019-03-11T13:21:03Z</time>
      </trkpt>
      <trkpt lat="32.592716915532947" lon="-4.843071028590202">
        <ele>1860.29</ele>
        <time>2019-03-11T13:21:04Z</time>
      </trkpt>
      <trkpt lat="32.592743402346969" lon="-4.843223998323083">
        <ele>1861.25</ele>
        <time>2019-03-11T13:21:05Z</time>
      </trkpt>
      <trkpt lat="32.592790508642793" lon="-4.843368669971824">
        <ele>1862.21</ele>
        <time>2019-03-11T13:21:06Z</time>
      </trkpt>
      <trkpt lat="32.592836106196046" lon="-4.843505546450615">
        <ele>1863.1700000000001</ele>
        <time>2019-03-11T13:21:08Z</time>
      </trkpt>
      <trkpt lat="32.592854127287865" lon="-4.843776952475309">
        <ele>1863.6500000000001</ele>
        <time>2019-03-11T13:21:09Z</time>
      </trkpt>
      <trkpt lat="32.592813726514578" lon="-4.843898741528392">
        <ele>1864.1300000000001</ele>
        <time>2019-03-11T13:21:10Z</time>
      </trkpt>
      <trkpt lat="32.592748431488872" lon="-4.843997480347753">
        <ele>1872.3</ele>
        <time>2019-03-11T13:21:11Z</time>
      </trkpt>
      <trkpt lat="32.59266478009522" lon="-4.84407308511436">
        <ele>1876.6300000000001</ele>
        <time>2019-03-11T13:21:12Z</time>
      </trkpt>
      <trkpt lat="32.592581799253821" lon="-4.844137877225876">
        <ele>1877.5899999999999</ele>
        <time>2019-03-11T13:21:21Z</time>
      </trkpt>
      <trkpt lat="32.591704716905951" lon="-4.844997860491276">
        <ele>1878.0699999999999</ele>
        <time>2019-03-11T13:21:25Z</time>
      </trkpt>
      <trkpt lat="32.591279251500964" lon="-4.84548032283783">
        <ele>1879.03</ele>
        <time>2019-03-11T13:21:26Z</time>
      </trkpt>
      <trkpt lat="32.591194342821836" lon="-4.845627760514617">
        <ele>1879.51</ele>
        <time>2019-03-11T13:21:27Z</time>
      </trkpt>
      <trkpt lat="32.591127036139369" lon="-4.84578819014132">
        <ele>1889.6099999999999</ele>
        <time>2019-03-11T13:21:28Z</time>
      </trkpt>
      <trkpt lat="32.591077582910657" lon="-4.845958761870861">
        <ele>1892.97</ele>
        <time>2019-03-11T13:21:29Z</time>
      </trkpt>
      <trkpt lat="32.5910391099751" lon="-4.846136374399066">
        <ele>1893.9300000000001</ele>
        <time>2019-03-11T13:21:43Z</time>
      </trkpt>
      <trkpt lat="32.590489340946078" lon="-4.848848087713122">
        <ele>1894.9000000000001</ele>
        <time>2019-03-11T13:21:49Z</time>
      </trkpt>
      <trkpt lat="32.59020552970469" lon="-4.849988361820579">
        <ele>1895.8599999999999</ele>
        <time>2019-03-11T13:21:50Z</time>
      </trkpt>
      <trkpt lat="32.590132355690002" lon="-4.850150551646948">
        <ele>1896.8199999999999</ele>
        <time>2019-03-11T13:21:51Z</time>
      </trkpt>
      <trkpt lat="32.590038394555449" lon="-4.850300922989845">
        <ele>1898.26</ele>
        <time>2019-03-11T13:21:52Z</time>
      </trkpt>
      <trkpt lat="32.589929262176156" lon="-4.850436206907034">
        <ele>1899.7</ele>
        <time>2019-03-11T13:21:53Z</time>
      </trkpt>
      <trkpt lat="32.589808478951454" lon="-4.850562186911702">
        <ele>1904.99</ele>
        <time>2019-03-11T13:21:54Z</time>
      </trkpt>
      <trkpt lat="32.589679816737771" lon="-4.850679114460945">
        <ele>1906.4300000000001</ele>
        <time>2019-03-11T13:21:55Z</time>
      </trkpt>
      <trkpt lat="32.589547215029597" lon="-4.850792437791824">
        <ele>1917.49</ele>
        <time>2019-03-11T13:21:59Z</time>
      </trkpt>
      <trkpt lat="32.589024603366852" lon="-4.851216478273273">
        <ele>1918.9300000000001</ele>
        <time>2019-03-11T13:22:00Z</time>
      </trkpt>
      <trkpt lat="32.588883116841316" lon="-4.851290658116341">
        <ele>1920.8499999999999</ele>
        <time>2019-03-11T13:22:07Z</time>
      </trkpt>
      <trkpt lat="32.587881311774254" lon="-4.851665832102299">
        <ele>1922.29</ele>
        <time>2019-03-11T13:22:08Z</time>
      </trkpt>
      <trkpt lat="32.58774041198194" lon="-4.851682428270578">
        <ele>1924.22</ele>
        <time>2019-03-11T13:22:09Z</time>
      </trkpt>
      <trkpt lat="32.587602445855737" lon="-4.851670442149043">
        <ele>1927.5799999999999</ele>
        <time>2019-03-11T13:22:10Z</time>
      </trkpt>
      <trkpt lat="32.587468167766929" lon="-4.85163850709796">
        <ele>1929.02</ele>
        <time>2019-03-11T13:22:11Z</time>
      </trkpt>
      <trkpt lat="32.587339337915182" lon="-4.851596849039197">
        <ele>1930.95</ele>
        <time>2019-03-11T13:22:13Z</time>
      </trkpt>
      <trkpt lat="32.587095005437732" lon="-4.851497774943709">
        <ele>1939.1199999999999</ele>
        <time>2019-03-11T13:22:14Z</time>
      </trkpt>
      <trkpt lat="32.586981682106853" lon="-4.851433653384447">
        <ele>1940.5599999999999</ele>
        <time>2019-03-11T13:22:15Z</time>
      </trkpt>
      <trkpt lat="32.586875064298511" lon="-4.851364754140377">
        <ele>1942</ele>
        <time>2019-03-11T13:22:20Z</time>
      </trkpt>
      <trkpt lat="32.586394529789686" lon="-4.850997040048242">
        <ele>1948.25</ele>
        <time>2019-03-11T13:22:21Z</time>
      </trkpt>
      <trkpt lat="32.586304759606719" lon="-4.850900061428547">
        <ele>1950.1700000000001</ele>
        <time>2019-03-11T13:22:22Z</time>
      </trkpt>
      <trkpt lat="32.586222281679511" lon="-4.850790174677968">
        <ele>1951.6099999999999</ele>
        <time>2019-03-11T13:22:26Z</time>
      </trkpt>
      <trkpt lat="32.585909720510244" lon="-4.850336126983166">
        <ele>1953.54</ele>
        <time>2019-03-11T13:22:27Z</time>
      </trkpt>
      <trkpt lat="32.585822129622102" lon="-4.850246272981167">
        <ele>1954.98</ele>
        <time>2019-03-11T13:22:28Z</time>
      </trkpt>
      <trkpt lat="32.585728839039803" lon="-4.850186845287681">
        <ele>1955.9400000000001</ele>
        <time>2019-03-11T13:22:29Z</time>
      </trkpt>
      <trkpt lat="32.585632530972362" lon="-4.850158346816897">
        <ele>1956.9000000000001</ele>
        <time>2019-03-11T13:22:30Z</time>
      </trkpt>
      <trkpt lat="32.585536809638143" lon="-4.85015750862658">
        <ele>1957.3800000000001</ele>
        <time>2019-03-11T13:22:31Z</time>
      </trkpt>
      <trkpt lat="32.585450140759349" lon="-4.850182821974158">
        <ele>1957.8599999999999</ele>
        <time>2019-03-11T13:22:32Z</time>
      </trkpt>
      <trkpt lat="32.585373278707266" lon="-4.850234622135758">
        <ele>1959.3</ele>
        <time>2019-03-11T13:22:33Z</time>
      </trkpt>
      <trkpt lat="32.585303541272879" lon="-4.850304108113051">
        <ele>1960.27</ele>
        <time>2019-03-11T13:22:34Z</time>
      </trkpt>
      <trkpt lat="32.585232127457857" lon="-4.850375773385167">
        <ele>1960.75</ele>
        <time>2019-03-11T13:22:36Z</time>
      </trkpt>
      <trkpt lat="32.585067339241505" lon="-4.85050150193274">
        <ele>1961.71</ele>
        <time>2019-03-11T13:22:37Z</time>
      </trkpt>
      <trkpt lat="32.584969522431493" lon="-4.850545674562454">
        <ele>1962.6700000000001</ele>
        <time>2019-03-11T13:22:38Z</time>
      </trkpt>
      <trkpt lat="32.584863323718309" lon="-4.850566545501351">
        <ele>1964.1099999999999</ele>
        <time>2019-03-11T13:22:39Z</time>
      </trkpt>
      <trkpt lat="32.584753436967731" lon="-4.850556068122387">
        <ele>1965.55</ele>
        <time>2019-03-11T13:22:40Z</time>
      </trkpt>
      <trkpt lat="32.58464690297842" lon="-4.850514326244593">
        <ele>1970.8399999999999</ele>
        <time>2019-03-11T13:22:41Z</time>
      </trkpt>
      <trkpt lat="32.584547158330679" lon="-4.850453054532409">
        <ele>1972.76</ele>
        <time>2019-03-11T13:22:42Z</time>
      </trkpt>
      <trkpt lat="32.58445093408227" lon="-4.850381473079324">
        <ele>1974.2</ele>
        <time>2019-03-11T13:22:45Z</time>
      </trkpt>
      <trkpt lat="32.584152119234204" lon="-4.850170835852623">
        <ele>1976.1300000000001</ele>
        <time>2019-03-11T13:22:46Z</time>
      </trkpt>
      <trkpt lat="32.584041645750403" lon="-4.850125992670655">
        <ele>1977.5699999999999</ele>
        <time>2019-03-11T13:22:47Z</time>
      </trkpt>
      <trkpt lat="32.583925556391478" lon="-4.850107133388519">
        <ele>1978.53</ele>
        <time>2019-03-11T13:22:48Z</time>
      </trkpt>
      <trkpt lat="32.583807120099664" lon="-4.85011694021523">
        <ele>1979.49</ele>
        <time>2019-03-11T13:22:49Z</time>
      </trkpt>
      <trkpt lat="32.583684660494328" lon="-4.85014921054244">
        <ele>1980.9300000000001</ele>
        <time>2019-03-11T13:22:50Z</time>
      </trkpt>
      <trkpt lat="32.583556836470962" lon="-4.850187348201871">
        <ele>1981.9000000000001</ele>
        <time>2019-03-11T13:22:51Z</time>
      </trkpt>
      <trkpt lat="32.583424653857946" lon="-4.850215595215559">
        <ele>1986.7</ele>
        <time>2019-03-11T13:22:52Z</time>
      </trkpt>
      <trkpt lat="32.583292974159122" lon="-4.850229844450951">
        <ele>1987.6600000000001</ele>
        <time>2019-03-11T13:22:53Z</time>
      </trkpt>
      <trkpt lat="32.583164311945438" lon="-4.850235711783171">
        <ele>1988.6199999999999</ele>
        <time>2019-03-11T13:22:58Z</time>
      </trkpt>
      <trkpt lat="32.582575818523765" lon="-4.850318441167474">
        <ele>1990.0699999999999</ele>
        <time>2019-03-11T13:22:59Z</time>
      </trkpt>
      <trkpt lat="32.582465680316091" lon="-4.850371666252613">
        <ele>1991.03</ele>
        <time>2019-03-11T13:23:00Z</time>
      </trkpt>
      <trkpt lat="32.582362247630954" lon="-4.850449282675982">
        <ele>1992.47</ele>
        <time>2019-03-11T13:23:01Z</time>
      </trkpt>
      <trkpt lat="32.582270549610257" lon="-4.850551206618547">
        <ele>1993.4300000000001</ele>
        <time>2019-03-11T13:23:02Z</time>
      </trkpt>
      <trkpt lat="32.582187233492732" lon="-4.850670397281647">
        <ele>1994.8699999999999</ele>
        <time>2019-03-11T13:23:03Z</time>
      </trkpt>
      <trkpt lat="32.582114394754171" lon="-4.850803753361106">
        <ele>1995.8299999999999</ele>
        <time>2019-03-11T13:23:04Z</time>
      </trkpt>
      <trkpt lat="32.582053290680051" lon="-4.850949849933386">
        <ele>2000.6400000000001</ele>
        <time>2019-03-11T13:23:05Z</time>
      </trkpt>
      <trkpt lat="32.582004340365529" lon="-4.851103825494647">
        <ele>2001.1199999999999</ele>
        <time>2019-03-11T13:23:06Z</time>
      </trkpt>
      <trkpt lat="32.581965532153845" lon="-4.85126324929297">
        <ele>2001.5999999999999</ele>
        <time>2019-03-11T13:23:14Z</time>
      </trkpt>
      <trkpt lat="32.581641655415297" lon="-4.852496478706598">
        <ele>2002.0799999999999</ele>
        <time>2019-03-11T13:23:15Z</time>
      </trkpt>
      <trkpt lat="32.581574013456702" lon="-4.852642994374037">
        <ele>2003.04</ele>
        <time>2019-03-11T13:23:16Z</time>
      </trkpt>
      <trkpt lat="32.581491535529494" lon="-4.852776350453496">
        <ele>2003.52</ele>
        <time>2019-03-11T13:23:17Z</time>
      </trkpt>
      <trkpt lat="32.581396400928497" lon="-4.852892272174358">
        <ele>2004.01</ele>
        <time>2019-03-11T13:23:18Z</time>
      </trkpt>
      <trkpt lat="32.581293806433678" lon="-4.852992771193385">
        <ele>2004.49</ele>
        <time>2019-03-11T13:23:19Z</time>
      </trkpt>
      <trkpt lat="32.581177381798625" lon="-4.853078098967671">
        <ele>2004.97</ele>
        <time>2019-03-11T13:23:20Z</time>
      </trkpt>
      <trkpt lat="32.581047127023339" lon="-4.853145740926266">
        <ele>2006.4100000000001</ele>
        <time>2019-03-11T13:23:21Z</time>
      </trkpt>
      <trkpt lat="32.580903293564916" lon="-4.853204917162657">
        <ele>2006.8900000000001</ele>
        <time>2019-03-11T13:23:22Z</time>
      </trkpt>
      <trkpt lat="32.580758202821016" lon="-4.853255460038781">
        <ele>2007.3699999999999</ele>
        <time>2019-03-11T13:23:24Z</time>
      </trkpt>
      <trkpt lat="32.580488556995988" lon="-4.853352103382349">
        <ele>2008.3299999999999</ele>
        <time>2019-03-11T13:23:25Z</time>
      </trkpt>
      <trkpt lat="32.580376323312521" lon="-4.853421421721578">
        <ele>2008.8099999999999</ele>
        <time>2019-03-11T13:23:26Z</time>
      </trkpt>
      <trkpt lat="32.580287475138903" lon="-4.853513287380338">
        <ele>2009.29</ele>
        <time>2019-03-11T13:23:27Z</time>
      </trkpt>
      <trkpt lat="32.58022477850318" lon="-4.853627448901534">
        <ele>2009.77</ele>
        <time>2019-03-11T13:23:28Z</time>
      </trkpt>
      <trkpt lat="32.58019108325243" lon="-4.853762229904532">
        <ele>2008.8099999999999</ele>
        <time>2019-03-11T13:23:29Z</time>
      </trkpt>
      <trkpt lat="32.580179097130895" lon="-4.853912768885493">
        <ele>2008.3299999999999</ele>
        <time>2019-03-11T13:23:30Z</time>
      </trkpt>
      <trkpt lat="32.580171385779977" lon="-4.854073030874133">
        <ele>2008.3299999999999</ele>
        <time>2019-03-11T13:23:35Z</time>
      </trkpt>
      <trkpt lat="32.580048171803355" lon="-4.854895463213325">
        <ele>2008.3299999999999</ele>
        <time>2019-03-11T13:23:36Z</time>
      </trkpt>
      <trkpt lat="32.579988995566964" lon="-4.855052540078759">
        <ele>2008.8099999999999</ele>
        <time>2019-03-11T13:23:37Z</time>
      </trkpt>
      <trkpt lat="32.579912804067135" lon="-4.855202995240688">
        <ele>2008.8099999999999</ele>
        <time>2019-03-11T13:23:38Z</time>
      </trkpt>
      <trkpt lat="32.579821106046438" lon="-4.855345487594605">
        <ele>2009.29</ele>
        <time>2019-03-11T13:23:39Z</time>
      </trkpt>
      <trkpt lat="32.579720607027411" lon="-4.855474904179573">
        <ele>2009.77</ele>
        <time>2019-03-11T13:23:40Z</time>
      </trkpt>
      <trkpt lat="32.579611474648118" lon="-4.855591580271721">
        <ele>2010.25</ele>
        <time>2019-03-11T13:23:41Z</time>
      </trkpt>
      <trkpt lat="32.579506281763315" lon="-4.855691995471716">
        <ele>2011.22</ele>
        <time>2019-03-11T13:23:42Z</time>
      </trkpt>
      <trkpt lat="32.579421205446124" lon="-4.855797355994582">
        <ele>2012.1800000000001</ele>
        <time>2019-03-11T13:23:43Z</time>
      </trkpt>
      <trkpt lat="32.579364543780684" lon="-4.855919983237982">
        <ele>2012.6600000000001</ele>
        <time>2019-03-11T13:23:44Z</time>
      </trkpt>
      <trkpt lat="32.579337637871504" lon="-4.856057027354837">
        <ele>2013.6199999999999</ele>
        <time>2019-03-11T13:23:45Z</time>
      </trkpt>
      <trkpt lat="32.57933696731925" lon="-4.856200106441975">
        <ele>2014.0999999999999</ele>
        <time>2019-03-11T13:23:46Z</time>
      </trkpt>
      <trkpt lat="32.579361526295543" lon="-4.856341844424605">
        <ele>2015.54</ele>
        <time>2019-03-11T13:23:47Z</time>
      </trkpt>
      <trkpt lat="32.579398071393371" lon="-4.856479559093714">
        <ele>2016.02</ele>
        <time>2019-03-11T13:23:48Z</time>
      </trkpt>
      <trkpt lat="32.579437298700213" lon="-4.856611238792539">
        <ele>2016.5</ele>
        <time>2019-03-11T13:23:50Z</time>
      </trkpt>
      <trkpt lat="32.579500498250127" lon="-4.856863701716065">
        <ele>2016.02</ele>
        <time>2019-03-11T13:23:51Z</time>
      </trkpt>
      <trkpt lat="32.579520028084517" lon="-4.856993369758129">
        <ele>2015.54</ele>
        <time>2019-03-11T13:23:52Z</time>
      </trkpt>
      <trkpt lat="32.579533522948623" lon="-4.857132341712713">
        <ele>2016.02</ele>
        <time>2019-03-11T13:24:00Z</time>
      </trkpt>
      <trkpt lat="32.57959445938468" lon="-4.85851694829762">
        <ele>2016.02</ele>
        <time>2019-03-11T13:24:01Z</time>
      </trkpt>
      <trkpt lat="32.579624801874161" lon="-4.858688274398446">
        <ele>2016.5</ele>
        <time>2019-03-11T13:24:04Z</time>
      </trkpt>
      <trkpt lat="32.579715410247445" lon="-4.859183309599757">
        <ele>2016.5</ele>
        <time>2019-03-11T13:24:05Z</time>
      </trkpt>
      <trkpt lat="32.579718846827745" lon="-4.859353629872203">
        <ele>2016.5</ele>
        <time>2019-03-11T13:24:06Z</time>
      </trkpt>
      <trkpt lat="32.579710716381669" lon="-4.859525542706251">
        <ele>2016.5</ele>
        <time>2019-03-11T13:24:08Z</time>
      </trkpt>
      <trkpt lat="32.579670567065477" lon="-4.859826872125268">
        <ele>2016.02</ele>
        <time>2019-03-11T13:24:09Z</time>
      </trkpt>
      <trkpt lat="32.579634105786681" lon="-4.859954444691539">
        <ele>2016.02</ele>
        <time>2019-03-11T13:24:10Z</time>
      </trkpt>
      <trkpt lat="32.579575181007385" lon="-4.860071456059814">
        <ele>2015.54</ele>
        <time>2019-03-11T13:24:11Z</time>
      </trkpt>
      <trkpt lat="32.579494714736938" lon="-4.860177990049124">
        <ele>2015.0599999999999</ele>
        <time>2019-03-11T13:24:12Z</time>
      </trkpt>
      <trkpt lat="32.57940779440105" lon="-4.860284775495529">
        <ele>2015.54</ele>
        <time>2019-03-11T13:24:13Z</time>
      </trkpt>
      <trkpt lat="32.579337134957314" lon="-4.860405810177326">
        <ele>2016.02</ele>
        <time>2019-03-11T13:24:14Z</time>
      </trkpt>
      <trkpt lat="32.579295393079519" lon="-4.860543692484498">
        <ele>2016.02</ele>
        <time>2019-03-11T13:24:15Z</time>
      </trkpt>
      <trkpt lat="32.579278042539954" lon="-4.860689453780651">
        <ele>2016.02</ele>
        <time>2019-03-11T13:24:16Z</time>
      </trkpt>
      <trkpt lat="32.579274773597717" lon="-4.860840076580644">
        <ele>2016.5</ele>
        <time>2019-03-11T13:24:17Z</time>
      </trkpt>
      <trkpt lat="32.579286592081189" lon="-4.860987178981304">
        <ele>2017.46</ele>
        <time>2019-03-11T13:24:18Z</time>
      </trkpt>
      <trkpt lat="32.579312911257148" lon="-4.861122043803334">
        <ele>2017.9400000000001</ele>
        <time>2019-03-11T13:24:20Z</time>
      </trkpt>
      <trkpt lat="32.5794483628124" lon="-4.861323293298483">
        <ele>2018.9100000000001</ele>
        <time>2019-03-11T13:24:21Z</time>
      </trkpt>
      <trkpt lat="32.579541653394699" lon="-4.861385654658079">
        <ele>2020.3499999999999</ele>
        <time>2019-03-11T13:24:22Z</time>
      </trkpt>
      <trkpt lat="32.579635446891189" lon="-4.861431671306491">
        <ele>2021.79</ele>
        <time>2019-03-11T13:24:23Z</time>
      </trkpt>
      <trkpt lat="32.579728569835424" lon="-4.861468635499477">
        <ele>2023.23</ele>
        <time>2019-03-11T13:24:24Z</time>
      </trkpt>
      <trkpt lat="32.579823285341263" lon="-4.861499480903149">
        <ele>2023.71</ele>
        <time>2019-03-11T13:24:26Z</time>
      </trkpt>
      <trkpt lat="32.579998215660453" lon="-4.861597130075097">
        <ele>2024.6700000000001</ele>
        <time>2019-03-11T13:24:27Z</time>
      </trkpt>
      <trkpt lat="32.580069713294506" lon="-4.861674411222339">
        <ele>2025.1500000000001</ele>
        <time>2019-03-11T13:24:28Z</time>
      </trkpt>
      <trkpt lat="32.580128638073802" lon="-4.861768204718828">
        <ele>2025.1500000000001</ele>
        <time>2019-03-11T13:24:29Z</time>
      </trkpt>
      <trkpt lat="32.580176582559943" lon="-4.861876666545868">
        <ele>2023.71</ele>
        <time>2019-03-11T13:24:30Z</time>
      </trkpt>
      <trkpt lat="32.580219330266118" lon="-4.861996024847031">
        <ele>2018.4300000000001</ele>
        <time>2019-03-11T13:24:31Z</time>
      </trkpt>
      <trkpt lat="32.580261658877134" lon="-4.862129548564553">
        <ele>2015.54</ele>
        <time>2019-03-11T13:24:40Z</time>
      </trkpt>
      <trkpt lat="32.580672707408667" lon="-4.863617587834597">
        <ele>2014.5799999999999</ele>
        <time>2019-03-11T13:24:48Z</time>
      </trkpt>
      <trkpt lat="32.580835483968258" lon="-4.865118032321334">
        <ele>2014.0999999999999</ele>
        <time>2019-03-11T13:24:52Z</time>
      </trkpt>
      <trkpt lat="32.580796172842383" lon="-4.865716584026814">
        <ele>2013.1400000000001</ele>
        <time>2019-03-11T13:24:53Z</time>
      </trkpt>
      <trkpt lat="32.580763902515173" lon="-4.865828482434154">
        <ele>2012.6600000000001</ele>
        <time>2019-03-11T13:24:54Z</time>
      </trkpt>
      <trkpt lat="32.580709755420685" lon="-4.865924371406436">
        <ele>2011.7</ele>
        <time>2019-03-11T13:24:55Z</time>
      </trkpt>
      <trkpt lat="32.58063280954957" lon="-4.866005340591073">
        <ele>2011.22</ele>
        <time>2019-03-11T13:24:56Z</time>
      </trkpt>
      <trkpt lat="32.580539435148239" lon="-4.866076586768031">
        <ele>2011.22</ele>
        <time>2019-03-11T13:24:57Z</time>
      </trkpt>
      <trkpt lat="32.580437930300832" lon="-4.866149174049497">
        <ele>2010.73</ele>
        <time>2019-03-11T13:24:58Z</time>
      </trkpt>
      <trkpt lat="32.580339442938566" lon="-4.866229891777039">
        <ele>2010.73</ele>
        <time>2019-03-11T13:24:59Z</time>
      </trkpt>
      <trkpt lat="32.580258306115866" lon="-4.866326116025448">
        <ele>2010.25</ele>
        <time>2019-03-11T13:25:00Z</time>
      </trkpt>
      <trkpt lat="32.580205835402012" lon="-4.86644396558404">
        <ele>2010.25</ele>
        <time>2019-03-11T13:25:01Z</time>
      </trkpt>
      <trkpt lat="32.580187981948256" lon="-4.86657002940774">
        <ele>2009.77</ele>
        <time>2019-03-11T13:25:02Z</time>
      </trkpt>
      <trkpt lat="32.580191167071462" lon="-4.86669416539371">
        <ele>2009.77</ele>
        <time>2019-03-11T13:25:03Z</time>
      </trkpt>
      <trkpt lat="32.580206925049424" lon="-4.866821235045791">
        <ele>2010.25</ele>
        <time>2019-03-11T13:25:04Z</time>
      </trkpt>
      <trkpt lat="32.580242715775967" lon="-4.866948137059808">
        <ele>2010.73</ele>
        <time>2019-03-11T13:25:05Z</time>
      </trkpt>
      <trkpt lat="32.58029418066144" lon="-4.867071770131588">
        <ele>2011.7</ele>
        <time>2019-03-11T13:25:06Z</time>
      </trkpt>
      <trkpt lat="32.58035427890718" lon="-4.8671920504421">
        <ele>2012.6600000000001</ele>
        <time>2019-03-11T13:25:07Z</time>
      </trkpt>
      <trkpt lat="32.580405492335558" lon="-4.86732104793191">
        <ele>2013.6199999999999</ele>
        <time>2019-03-11T13:25:08Z</time>
      </trkpt>
      <trkpt lat="32.580435080453753" lon="-4.867453817278147">
        <ele>2015.0599999999999</ele>
        <time>2019-03-11T13:25:09Z</time>
      </trkpt>
      <trkpt lat="32.580432901158929" lon="-4.86758541315794">
        <ele>2016.02</ele>
        <time>2019-03-11T13:25:10Z</time>
      </trkpt>
      <trkpt lat="32.580407671630383" lon="-4.867709632962942">
        <ele>2016.98</ele>
        <time>2019-03-11T13:25:11Z</time>
      </trkpt>
      <trkpt lat="32.58037774823606" lon="-4.867828572168946">
        <ele>2017.46</ele>
        <time>2019-03-11T13:25:12Z</time>
      </trkpt>
      <trkpt lat="32.580359391868114" lon="-4.867942063137889">
        <ele>2018.4300000000001</ele>
        <time>2019-03-11T13:25:13Z</time>
      </trkpt>
      <trkpt lat="32.58036257699132" lon="-4.868041053414345">
        <ele>2018.9100000000001</ele>
        <time>2019-03-11T13:25:14Z</time>
      </trkpt>
      <trkpt lat="32.580393506214023" lon="-4.868121519684792">
        <ele>2019.3900000000001</ele>
        <time>2019-03-11T13:25:15Z</time>
      </trkpt>
      <trkpt lat="32.580452682450414" lon="-4.868168039247394">
        <ele>2019.3900000000001</ele>
        <time>2019-03-11T13:25:16Z</time>
      </trkpt>
      <trkpt lat="32.580524934455752" lon="-4.868176588788629">
        <ele>2019.8699999999999</ele>
        <time>2019-03-11T13:25:17Z</time>
      </trkpt>
      <trkpt lat="32.58060053922236" lon="-4.868163010105491">
        <ele>2020.3499999999999</ele>
        <time>2019-03-11T13:25:18Z</time>
      </trkpt>
      <trkpt lat="32.580679077655077" lon="-4.868151191622019">
        <ele>2021.3099999999999</ele>
        <time>2019-03-11T13:25:19Z</time>
      </trkpt>
      <trkpt lat="32.580759124830365" lon="-4.868152868002653">
        <ele>2021.79</ele>
        <time>2019-03-11T13:25:20Z</time>
      </trkpt>
      <trkpt lat="32.580834394320846" lon="-4.868173319846392">
        <ele>2022.27</ele>
        <time>2019-03-11T13:25:21Z</time>
      </trkpt>
      <trkpt lat="32.580900946632028" lon="-4.86821673810482">
        <ele>2022.27</ele>
        <time>2019-03-11T13:25:22Z</time>
      </trkpt>
      <trkpt lat="32.580957524478436" lon="-4.868277003988624">
        <ele>2022.75</ele>
        <time>2019-03-11T13:25:23Z</time>
      </trkpt>
      <trkpt lat="32.58100613951683" lon="-4.868347160518169">
        <ele>2022.75</ele>
        <time>2019-03-11T13:25:24Z</time>
      </trkpt>
      <trkpt lat="32.581049222499132" lon="-4.868424190208316">
        <ele>2022.75</ele>
        <time>2019-03-11T13:25:25Z</time>
      </trkpt>
      <trkpt lat="32.581087192520499" lon="-4.868505410850048">
        <ele>2022.75</ele>
        <time>2019-03-11T13:25:26Z</time>
      </trkpt>
      <trkpt lat="32.581116361543536" lon="-4.868589984253049">
        <ele>2022.75</ele>
        <time>2019-03-11T13:25:27Z</time>
      </trkpt>
      <trkpt lat="32.581133292987943" lon="-4.868680173531175">
        <ele>2018.9100000000001</ele>
        <time>2019-03-11T13:25:28Z</time>
      </trkpt>
      <trkpt lat="32.581136142835021" lon="-4.868775894865394">
        <ele>2017.9400000000001</ele>
        <time>2019-03-11T13:25:29Z</time>
      </trkpt>
      <trkpt lat="32.581131029874086" lon="-4.868879579007626">
        <ele>2016.98</ele>
        <time>2019-03-11T13:25:37Z</time>
      </trkpt>
      <trkpt lat="32.580917123705149" lon="-4.869952881708741">
        <ele>2016.02</ele>
        <time>2019-03-11T13:25:38Z</time>
      </trkpt>
      <trkpt lat="32.580852918326855" lon="-4.870086908340454">
        <ele>2015.54</ele>
        <time>2019-03-11T13:25:39Z</time>
      </trkpt>
      <trkpt lat="32.580772871151567" lon="-4.870208445936441">
        <ele>2015.0599999999999</ele>
        <time>2019-03-11T13:25:41Z</time>
      </trkpt>
      <trkpt lat="32.580631133168936" lon="-4.87043316476047">
        <ele>2015.0599999999999</ele>
        <time>2019-03-11T13:25:42Z</time>
      </trkpt>
      <trkpt lat="32.580594085156918" lon="-4.870545146986842">
        <ele>2015.0599999999999</ele>
        <time>2019-03-11T13:25:43Z</time>
      </trkpt>
      <trkpt lat="32.580586457625031" lon="-4.870651345700026">
        <ele>2015.0599999999999</ele>
        <time>2019-03-11T13:25:44Z</time>
      </trkpt>
      <trkpt lat="32.580603891983628" lon="-4.870748491957784">
        <ele>2015.0599999999999</ele>
        <time>2019-03-11T13:25:45Z</time>
      </trkpt>
      <trkpt lat="32.580636665225029" lon="-4.870833400636911">
        <ele>2015.0599999999999</ele>
        <time>2019-03-11T13:25:46Z</time>
      </trkpt>
      <trkpt lat="32.580677904188633" lon="-4.870908334851265">
        <ele>2016.02</ele>
        <time>2019-03-11T13:25:47Z</time>
      </trkpt>
      <trkpt lat="32.580725345760584" lon="-4.870982766151428">
        <ele>2016.5</ele>
        <time>2019-03-11T13:25:48Z</time>
      </trkpt>
      <trkpt lat="32.580779911950231" lon="-4.871058454737067">
        <ele>2016.98</ele>
        <time>2019-03-11T13:25:53Z</time>
      </trkpt>
      <trkpt lat="32.581083839759231" lon="-4.871562877669931">
        <ele>2016.5</ele>
        <time>2019-03-11T13:25:54Z</time>
      </trkpt>
      <trkpt lat="32.581130610778928" lon="-4.871698077768087">
        <ele>2014.5799999999999</ele>
        <time>2019-03-11T13:25:55Z</time>
      </trkpt>
      <trkpt lat="32.5811683293432" lon="-4.871838977560401">
        <ele>2010.73</ele>
        <time>2019-03-11T13:26:04Z</time>
      </trkpt>
      <trkpt lat="32.581368824467063" lon="-4.873389462009072">
        <ele>2008.3299999999999</ele>
        <time>2019-03-11T13:26:18Z</time>
      </trkpt>
      <trkpt lat="32.581697143614292" lon="-4.87619262188673">
        <ele>2008.3299999999999</ele>
        <time>2019-03-11T13:26:31Z</time>
      </trkpt>
      <trkpt lat="32.581765791401267" lon="-4.879013216122985">
        <ele>2007.8499999999999</ele>
        <time>2019-03-11T13:26:39Z</time>
      </trkpt>
      <trkpt lat="32.581770904362202" lon="-4.880477199330926">
        <ele>2006.8900000000001</ele>
        <time>2019-03-11T13:26:40Z</time>
      </trkpt>
      <trkpt lat="32.581746010109782" lon="-4.880601838231087">
        <ele>2005.9300000000001</ele>
        <time>2019-03-11T13:26:41Z</time>
      </trkpt>
      <trkpt lat="32.581708123907447" lon="-4.880713652819395">
        <ele>2004.49</ele>
        <time>2019-03-11T13:26:42Z</time>
      </trkpt>
      <trkpt lat="32.581646181643009" lon="-4.880812810733914">
        <ele>2003.04</ele>
        <time>2019-03-11T13:26:43Z</time>
      </trkpt>
      <trkpt lat="32.58156219497323" lon="-4.880906771868467">
        <ele>2001.5999999999999</ele>
        <time>2019-03-11T13:26:44Z</time>
      </trkpt>
      <trkpt lat="32.581459181383252" lon="-4.88099972717464">
        <ele>1996.8</ele>
        <time>2019-03-11T13:26:45Z</time>
      </trkpt>
      <trkpt lat="32.581341164186597" lon="-4.881089078262448">
        <ele>1995.8299999999999</ele>
        <time>2019-03-11T13:26:46Z</time>
      </trkpt>
      <trkpt lat="32.581210238859057" lon="-4.881173986941576">
        <ele>1994.8699999999999</ele>
        <time>2019-03-11T13:26:50Z</time>
      </trkpt>
      <trkpt lat="32.580733979120851" lon="-4.88142728805542">
        <ele>1993.9100000000001</ele>
        <time>2019-03-11T13:26:51Z</time>
      </trkpt>
      <trkpt lat="32.580623254179955" lon="-4.88145905546844">
        <ele>1992.95</ele>
        <time>2019-03-11T13:26:52Z</time>
      </trkpt>
      <trkpt lat="32.580507835373282" lon="-4.881472131237388">
        <ele>1991.99</ele>
        <time>2019-03-11T13:26:53Z</time>
      </trkpt>
      <trkpt lat="32.580391662195325" lon="-4.881457965821028">
        <ele>1990.0699999999999</ele>
        <time>2019-03-11T13:26:54Z</time>
      </trkpt>
      <trkpt lat="32.58027222007513" lon="-4.881424689665437">
        <ele>1989.5899999999999</ele>
        <time>2019-03-11T13:26:55Z</time>
      </trkpt>
      <trkpt lat="32.580152861773968" lon="-4.881374565884471">
        <ele>1989.0999999999999</ele>
        <time>2019-03-11T13:26:57Z</time>
      </trkpt>
      <trkpt lat="32.579929316416383" lon="-4.881289573386312">
        <ele>1988.6199999999999</ele>
        <time>2019-03-11T13:26:58Z</time>
      </trkpt>
      <trkpt lat="32.579824710264802" lon="-4.881288064643741">
        <ele>1988.6199999999999</ele>
        <time>2019-03-11T13:26:59Z</time>
      </trkpt>
      <trkpt lat="32.579726139083505" lon="-4.881317066028714">
        <ele>1988.6199999999999</ele>
        <time>2019-03-11T13:27:00Z</time>
      </trkpt>
      <trkpt lat="32.579636117443442" lon="-4.881380684673786">
        <ele>1988.6199999999999</ele>
        <time>2019-03-11T13:27:01Z</time>
      </trkpt>
      <trkpt lat="32.579565290361643" lon="-4.881468107923865">
        <ele>1988.6199999999999</ele>
        <time>2019-03-11T13:27:02Z</time>
      </trkpt>
      <trkpt lat="32.579520111903548" lon="-4.881570199504495">
        <ele>1988.6199999999999</ele>
        <time>2019-03-11T13:27:03Z</time>
      </trkpt>
      <trkpt lat="32.579504353925586" lon="-4.881673716008663">
        <ele>1988.6199999999999</ele>
        <time>2019-03-11T13:27:04Z</time>
      </trkpt>
      <trkpt lat="32.579516507685184" lon="-4.881772538647056">
        <ele>1988.1400000000001</ele>
        <time>2019-03-11T13:27:05Z</time>
      </trkpt>
      <trkpt lat="32.579552801325917" lon="-4.881872031837702">
        <ele>1991.03</ele>
        <time>2019-03-11T13:27:06Z</time>
      </trkpt>
      <trkpt lat="32.57960326038301" lon="-4.881972279399633">
        <ele>1991.51</ele>
        <time>2019-03-11T13:27:07Z</time>
      </trkpt>
      <trkpt lat="32.579664196819067" lon="-4.882076298817992">
        <ele>1992.47</ele>
        <time>2019-03-11T13:27:13Z</time>
      </trkpt>
      <trkpt lat="32.580118412151933" lon="-4.882783815264702">
        <ele>1993.4300000000001</ele>
        <time>2019-03-11T13:27:14Z</time>
      </trkpt>
      <trkpt lat="32.580156801268458" lon="-4.882915411144495">
        <ele>1993.9100000000001</ele>
        <time>2019-03-11T13:27:15Z</time>
      </trkpt>
      <trkpt lat="32.580164344981313" lon="-4.883048515766859">
        <ele>1993.9100000000001</ele>
        <time>2019-03-11T13:27:16Z</time>
      </trkpt>
      <trkpt lat="32.58014858700335" lon="-4.883172987028956">
        <ele>1994.3900000000001</ele>
        <time>2019-03-11T13:27:17Z</time>
      </trkpt>
      <trkpt lat="32.580131236463785" lon="-4.883289579302073">
        <ele>1994.8699999999999</ele>
        <time>2019-03-11T13:27:18Z</time>
      </trkpt>
      <trkpt lat="32.580136768519878" lon="-4.883405165746808">
        <ele>1995.8299999999999</ele>
        <time>2019-03-11T13:27:19Z</time>
      </trkpt>
      <trkpt lat="32.580178929492831" lon="-4.883516142144799">
        <ele>1996.8</ele>
        <time>2019-03-11T13:27:20Z</time>
      </trkpt>
      <trkpt lat="32.58025118149817" lon="-4.883605074137449">
        <ele>2001.5999999999999</ele>
        <time>2019-03-11T13:27:21Z</time>
      </trkpt>
      <trkpt lat="32.580342376604676" lon="-4.883675817400217">
        <ele>2002.5599999999999</ele>
        <time>2019-03-11T13:27:22Z</time>
      </trkpt>
      <trkpt lat="32.580438852310181" lon="-4.883742872625589">
        <ele>2003.04</ele>
        <time>2019-03-11T13:27:26Z</time>
      </trkpt>
      <trkpt lat="32.58083263412118" lon="-4.884009500965476">
        <ele>2003.52</ele>
        <time>2019-03-11T13:27:27Z</time>
      </trkpt>
      <trkpt lat="32.580909496173263" lon="-4.884094828739762">
        <ele>2004.01</ele>
        <time>2019-03-11T13:27:28Z</time>
      </trkpt>
      <trkpt lat="32.580968085676432" lon="-4.884197423234582">
        <ele>2004.49</ele>
        <time>2019-03-11T13:27:29Z</time>
      </trkpt>
      <trkpt lat="32.581008737906814" lon="-4.884312422946096">
        <ele>2004.49</ele>
        <time>2019-03-11T13:27:30Z</time>
      </trkpt>
      <trkpt lat="32.581028519198298" lon="-4.884436726570129">
        <ele>2004.49</ele>
        <time>2019-03-11T13:27:31Z</time>
      </trkpt>
      <trkpt lat="32.581024244427681" lon="-4.884564215317369">
        <ele>2004.01</ele>
        <time>2019-03-11T13:27:32Z</time>
      </trkpt>
      <trkpt lat="32.580996667966247" lon="-4.884687848389149">
        <ele>2000.1600000000001</ele>
        <time>2019-03-11T13:27:33Z</time>
      </trkpt>
      <trkpt lat="32.580946795642376" lon="-4.884813660755754">
        <ele>2000.1600000000001</ele>
        <time>2019-03-11T13:27:34Z</time>
      </trkpt>
      <trkpt lat="32.580880746245384" lon="-4.884943999350071">
        <ele>2000.1600000000001</ele>
        <time>2019-03-11T13:27:41Z</time>
      </trkpt>
      <trkpt lat="32.580318907275796" lon="-4.886029036715627">
        <ele>2003.04</ele>
        <time>2019-03-11T13:27:42Z</time>
      </trkpt>
      <trkpt lat="32.580278757959604" lon="-4.886205056682229">
        <ele>2004.01</ele>
        <time>2019-03-11T13:27:43Z</time>
      </trkpt>
      <trkpt lat="32.580266855657101" lon="-4.886384848505259">
        <ele>2004.97</ele>
        <time>2019-03-11T13:27:46Z</time>
      </trkpt>
      <trkpt lat="32.580271465703845" lon="-4.886870160698891">
        <ele>2005.45</ele>
        <time>2019-03-11T13:27:47Z</time>
      </trkpt>
      <trkpt lat="32.580244895070791" lon="-4.887013239786029">
        <ele>2005.45</ele>
        <time>2019-03-11T13:27:48Z</time>
      </trkpt>
      <trkpt lat="32.580198459327221" lon="-4.887145170941949">
        <ele>2005.45</ele>
        <time>2019-03-11T13:27:49Z</time>
      </trkpt>
      <trkpt lat="32.580135343596339" lon="-4.887263104319572">
        <ele>2005.45</ele>
        <time>2019-03-11T13:27:50Z</time>
      </trkpt>
      <trkpt lat="32.580060493201017" lon="-4.887372069060803">
        <ele>2004.97</ele>
        <time>2019-03-11T13:27:51Z</time>
      </trkpt>
      <trkpt lat="32.579973991960287" lon="-4.8874740768224">
        <ele>2004.49</ele>
        <time>2019-03-11T13:27:52Z</time>
      </trkpt>
      <trkpt lat="32.579873744398355" lon="-4.887564349919558">
        <ele>2004.01</ele>
        <time>2019-03-11T13:27:53Z</time>
      </trkpt>
      <trkpt lat="32.579756313934922" lon="-4.887640457600355">
        <ele>2003.04</ele>
        <time>2019-03-11T13:27:54Z</time>
      </trkpt>
      <trkpt lat="32.579623125493526" lon="-4.887705249711871">
        <ele>2000.6400000000001</ele>
        <time>2019-03-11T13:27:55Z</time>
      </trkpt>
      <trkpt lat="32.579480884596705" lon="-4.887753361836076">
        <ele>2000.1600000000001</ele>
        <time>2019-03-11T13:27:56Z</time>
      </trkpt>
      <trkpt lat="32.579335290938616" lon="-4.887795187532902">
        <ele>1999.6800000000001</ele>
        <time>2019-03-11T13:28:00Z</time>
      </trkpt>
      <trkpt lat="32.578820139169693" lon="-4.887936338782311">
        <ele>1999.2</ele>
        <time>2019-03-11T13:28:01Z</time>
      </trkpt>
      <trkpt lat="32.578725088387728" lon="-4.887991575524211">
        <ele>1999.6800000000001</ele>
        <time>2019-03-11T13:28:02Z</time>
      </trkpt>
      <trkpt lat="32.578654261305928" lon="-4.88807070069015">
        <ele>1999.6800000000001</ele>
        <time>2019-03-11T13:28:03Z</time>
      </trkpt>
      <trkpt lat="32.578616794198751" lon="-4.888163655996323">
        <ele>1999.6800000000001</ele>
        <time>2019-03-11T13:28:04Z</time>
      </trkpt>
      <trkpt lat="32.578626349568367" lon="-4.888259125873447">
        <ele>2000.1600000000001</ele>
        <time>2019-03-11T13:28:05Z</time>
      </trkpt>
      <trkpt lat="32.578671360388398" lon="-4.88833992742002">
        <ele>2000.6400000000001</ele>
        <time>2019-03-11T13:28:06Z</time>
      </trkpt>
      <trkpt lat="32.57872617803514" lon="-4.888405641540885">
        <ele>2004.97</ele>
        <time>2019-03-11T13:28:07Z</time>
      </trkpt>
      <trkpt lat="32.578785186633468" lon="-4.888455430045724">
        <ele>2005.9300000000001</ele>
        <time>2019-03-11T13:28:08Z</time>
      </trkpt>
      <trkpt lat="32.578843021765351" lon="-4.888506140559912">
        <ele>2006.8900000000001</ele>
        <time>2019-03-11T13:28:16Z</time>
      </trkpt>
      <trkpt lat="32.579455319792032" lon="-4.889159677550197">
        <ele>2008.3299999999999</ele>
        <time>2019-03-11T13:28:17Z</time>
      </trkpt>
      <trkpt lat="32.579521033912897" lon="-4.889261517673731">
        <ele>2009.77</ele>
        <time>2019-03-11T13:28:18Z</time>
      </trkpt>
      <trkpt lat="32.57956369780004" lon="-4.889373416081071">
        <ele>2010.73</ele>
        <time>2019-03-11T13:28:19Z</time>
      </trkpt>
      <trkpt lat="32.579578701406717" lon="-4.889489756897092">
        <ele>2012.1800000000001</ele>
        <time>2019-03-11T13:28:20Z</time>
      </trkpt>
      <trkpt lat="32.579561853781343" lon="-4.889597967267036">
        <ele>2014.5799999999999</ele>
        <time>2019-03-11T13:28:21Z</time>
      </trkpt>
      <trkpt lat="32.579517429694533" lon="-4.889689581468701">
        <ele>2019.8699999999999</ele>
        <time>2019-03-11T13:28:22Z</time>
      </trkpt>
      <trkpt lat="32.579459846019745" lon="-4.889773149043322">
        <ele>2019.8699999999999</ele>
        <time>2019-03-11T13:28:25Z</time>
      </trkpt>
      <trkpt lat="32.579282149672508" lon="-4.89004815928638">
        <ele>2019.8699999999999</ele>
        <time>2019-03-11T13:28:35Z</time>
      </trkpt>
      <trkpt lat="32.578625679016113" lon="-4.891263116151094">
        <ele>2019.8699999999999</ele>
        <time>2019-03-11T13:28:36Z</time>
      </trkpt>
      <trkpt lat="32.57853758521378" lon="-4.891344839707017">
        <ele>2019.8699999999999</ele>
        <time>2019-03-11T13:28:37Z</time>
      </trkpt>
      <trkpt lat="32.578433733433485" lon="-4.891402842476964">
        <ele>2023.23</ele>
        <time>2019-03-11T13:28:38Z</time>
      </trkpt>
      <trkpt lat="32.578319739550352" lon="-4.891448859125376">
        <ele>2023.23</ele>
        <time>2019-03-11T13:28:39Z</time>
      </trkpt>
      <trkpt lat="32.578202895820141" lon="-4.891493869945407">
        <ele>2023.23</ele>
        <time>2019-03-11T13:28:50Z</time>
      </trkpt>
      <trkpt lat="32.576815020292997" lon="-4.892252516001463">
        <ele>2021.79</ele>
        <time>2019-03-11T13:28:53Z</time>
      </trkpt>
      <trkpt lat="32.576450910419226" lon="-4.892419734969735">
        <ele>2021.79</ele>
        <time>2019-03-11T13:28:54Z</time>
      </trkpt>
      <trkpt lat="32.576319398358464" lon="-4.892447646707296">
        <ele>2021.79</ele>
        <time>2019-03-11T13:29:01Z</time>
      </trkpt>
      <trkpt lat="32.575301416218281" lon="-4.892482934519649">
        <ele>2021.3099999999999</ele>
        <time>2019-03-11T13:29:02Z</time>
      </trkpt>
      <trkpt lat="32.575193205848336" lon="-4.892498021945357">
        <ele>2021.3099999999999</ele>
        <time>2019-03-11T13:29:03Z</time>
      </trkpt>
      <trkpt lat="32.575102178379893" lon="-4.892540434375405">
        <ele>2020.8299999999999</ele>
        <time>2019-03-11T13:29:04Z</time>
      </trkpt>
      <trkpt lat="32.575029591098428" lon="-4.892613189294934">
        <ele>2021.3099999999999</ele>
        <time>2019-03-11T13:29:05Z</time>
      </trkpt>
      <trkpt lat="32.574984580278397" lon="-4.89270974881947">
        <ele>2022.27</ele>
        <time>2019-03-11T13:29:06Z</time>
      </trkpt>
      <trkpt lat="32.574962619692087" lon="-4.892826592549682">
        <ele>2041.98</ele>
        <time>2019-03-11T13:29:07Z</time>
      </trkpt>
      <trkpt lat="32.574956752359867" lon="-4.892953410744667">
        <ele>2043.9000000000001</ele>
        <time>2019-03-11T13:29:08Z</time>
      </trkpt>
      <trkpt lat="32.574954740703106" lon="-4.893081486225128">
        <ele>2045.8199999999999</ele>
        <time>2019-03-11T13:29:20Z</time>
      </trkpt>
      <trkpt lat="32.574831694364548" lon="-4.894677987322211">
        <ele>2047.75</ele>
        <time>2019-03-11T13:29:21Z</time>
      </trkpt>
      <trkpt lat="32.574791042134166" lon="-4.894798267632723">
        <ele>2049.6700000000001</ele>
        <time>2019-03-11T13:29:22Z</time>
      </trkpt>
      <trkpt lat="32.574729938060045" lon="-4.894903125241399">
        <ele>2051.5900000000001</ele>
        <time>2019-03-11T13:29:23Z</time>
      </trkpt>
      <trkpt lat="32.574655087664723" lon="-4.894993482157588">
        <ele>2053.0300000000002</ele>
        <time>2019-03-11T13:29:24Z</time>
      </trkpt>
      <trkpt lat="32.574570430442691" lon="-4.89507369697094">
        <ele>2054.4699999999998</ele>
        <time>2019-03-11T13:29:25Z</time>
      </trkpt>
      <trkpt lat="32.574477894231677" lon="-4.895144188776612">
        <ele>2055.9200000000001</ele>
        <time>2019-03-11T13:29:26Z</time>
      </trkpt>
      <trkpt lat="32.574376557022333" lon="-4.895204287022352">
        <ele>2058.3200000000002</ele>
        <time>2019-03-11T13:29:27Z</time>
      </trkpt>
      <trkpt lat="32.574266083538532" lon="-4.89525692537427">
        <ele>2059.7600000000002</ele>
        <time>2019-03-11T13:29:28Z</time>
      </trkpt>
      <trkpt lat="32.574151251465082" lon="-4.895306881517172">
        <ele>2060.7199999999998</ele>
        <time>2019-03-11T13:29:30Z</time>
      </trkpt>
      <trkpt lat="32.573916474357247" lon="-4.895440405234695">
        <ele>2062.1700000000001</ele>
        <time>2019-03-11T13:29:31Z</time>
      </trkpt>
      <trkpt lat="32.573800217360258" lon="-4.895531097427011">
        <ele>2063.1300000000001</ele>
        <time>2019-03-11T13:29:32Z</time>
      </trkpt>
      <trkpt lat="32.573686307296157" lon="-4.895638218149543">
        <ele>2072.7399999999998</ele>
        <time>2019-03-11T13:29:33Z</time>
      </trkpt>
      <trkpt lat="32.573580779135227" lon="-4.895753972232342">
        <ele>2079.4699999999998</ele>
        <time>2019-03-11T13:29:34Z</time>
      </trkpt>
      <trkpt lat="32.573481453582644" lon="-4.895873414352536">
        <ele>2079.9499999999998</ele>
        <time>2019-03-11T13:29:44Z</time>
      </trkpt>
      <trkpt lat="32.57247663103044" lon="-4.897079737856984">
        <ele>2080.4299999999998</ele>
        <time>2019-03-11T13:29:51Z</time>
      </trkpt>
      <trkpt lat="32.571667861193419" lon="-4.897639565169811">
        <ele>2079.9499999999998</ele>
        <time>2019-03-11T13:29:52Z</time>
      </trkpt>
      <trkpt lat="32.571562416851521" lon="-4.897677870467305">
        <ele>2077.0700000000002</ele>
        <time>2019-03-11T13:29:59Z</time>
      </trkpt>
      <trkpt lat="32.570782396942377" lon="-4.898139461874962">
        <ele>2076.5900000000001</ele>
        <time>2019-03-11T13:30:00Z</time>
      </trkpt>
      <trkpt lat="32.570688771083951" lon="-4.89824783988297">
        <ele>2073.2199999999998</ele>
        <time>2019-03-11T13:30:08Z</time>
      </trkpt>
      <trkpt lat="32.570061469450593" lon="-4.899236150085926">
        <ele>2073.2199999999998</ele>
        <time>2019-03-11T13:30:09Z</time>
      </trkpt>
      <trkpt lat="32.569965664297342" lon="-4.899357687681913">
        <ele>2073.2199999999998</ele>
        <time>2019-03-11T13:30:19Z</time>
      </trkpt>
      <trkpt lat="32.568862354382873" lon="-4.900440713390708">
        <ele>2073.6999999999998</ele>
        <time>2019-03-11T13:30:23Z</time>
      </trkpt>
      <trkpt lat="32.568441331386566" lon="-4.900660654529929">
        <ele>2073.6999999999998</ele>
        <time>2019-03-11T13:30:24Z</time>
      </trkpt>
      <trkpt lat="32.568342927843332" lon="-4.90067875944078">
        <ele>2073.6999999999998</ele>
        <time>2019-03-11T13:30:25Z</time>
      </trkpt>
      <trkpt lat="32.568239998072386" lon="-4.90068412385881">
        <ele>2074.1799999999998</ele>
        <time>2019-03-11T13:30:26Z</time>
      </trkpt>
      <trkpt lat="32.568138744682074" lon="-4.900678927078843">
        <ele>2075.1399999999999</ele>
        <time>2019-03-11T13:30:27Z</time>
      </trkpt>
      <trkpt lat="32.568040089681745" lon="-4.900663672015071">
        <ele>2075.6199999999999</ele>
        <time>2019-03-11T13:30:28Z</time>
      </trkpt>
      <trkpt lat="32.567941602319479" lon="-4.900637939572334">
        <ele>2076.5900000000001</ele>
        <time>2019-03-11T13:30:29Z</time>
      </trkpt>
      <trkpt lat="32.567842863500118" lon="-4.900602484121919">
        <ele>2084.2800000000002</ele>
        <time>2019-03-11T13:30:30Z</time>
      </trkpt>
      <trkpt lat="32.567742699757218" lon="-4.900554539635778">
        <ele>2096.77</ele>
        <time>2019-03-11T13:30:31Z</time>
      </trkpt>
      <trkpt lat="32.567640608176589" lon="-4.900495950132608">
        <ele>2101.5799999999999</ele>
        <time>2019-03-11T13:30:39Z</time>
      </trkpt>
      <trkpt lat="32.566645927727222" lon="-4.899877198040485">
        <ele>2103.02</ele>
        <time>2019-03-11T13:30:47Z</time>
      </trkpt>
      <trkpt lat="32.565546808764338" lon="-4.899312425404787">
        <ele>2104.9400000000001</ele>
        <time>2019-03-11T13:30:50Z</time>
      </trkpt>
      <trkpt lat="32.565195690840483" lon="-4.899085611104965">
        <ele>2106.8699999999999</ele>
        <time>2019-03-11T13:30:51Z</time>
      </trkpt>
      <trkpt lat="32.565077422186732" lon="-4.899044372141361">
        <ele>2108.79</ele>
        <time>2019-03-11T13:30:52Z</time>
      </trkpt>
      <trkpt lat="32.564953621476889" lon="-4.899040684103966">
        <ele>2109.75</ele>
        <time>2019-03-11T13:30:53Z</time>
      </trkpt>
      <trkpt lat="32.564831664785743" lon="-4.899074044078589">
        <ele>2119.3600000000001</ele>
        <time>2019-03-11T13:30:54Z</time>
      </trkpt>
      <trkpt lat="32.564710713922977" lon="-4.899139255285263">
        <ele>2120.3200000000002</ele>
        <time>2019-03-11T13:30:55Z</time>
      </trkpt>
      <trkpt lat="32.564596217125654" lon="-4.899218548089266">
        <ele>2121.29</ele>
        <time>2019-03-11T13:31:06Z</time>
      </trkpt>
      <trkpt lat="32.563322251662612" lon="-4.900241643190384">
        <ele>2121.77</ele>
        <time>2019-03-11T13:31:07Z</time>
      </trkpt>
      <trkpt lat="32.563238348811865" lon="-4.900351949036121">
        <ele>2121.77</ele>
        <time>2019-03-11T13:31:08Z</time>
      </trkpt>
      <trkpt lat="32.563167354092002" lon="-4.900480611249805">
        <ele>2121.77</ele>
        <time>2019-03-11T13:31:09Z</time>
      </trkpt>
      <trkpt lat="32.563114212825894" lon="-4.900623690336943">
        <ele>2121.77</ele>
        <time>2019-03-11T13:31:10Z</time>
      </trkpt>
      <trkpt lat="32.563080936670303" lon="-4.900768781080842">
        <ele>2122.25</ele>
        <time>2019-03-11T13:31:11Z</time>
      </trkpt>
      <trkpt lat="32.563062077388167" lon="-4.900904400274158">
        <ele>2122.73</ele>
        <time>2019-03-11T13:31:12Z</time>
      </trkpt>
      <trkpt lat="32.563046822324395" lon="-4.901029793545604">
        <ele>2122.73</ele>
        <time>2019-03-11T13:31:14Z</time>
      </trkpt>
      <trkpt lat="32.56301287561655" lon="-4.901230623945594">
        <ele>2122.73</ele>
        <time>2019-03-11T13:31:15Z</time>
      </trkpt>
      <trkpt lat="32.562985215336084" lon="-4.901295332238078">
        <ele>2123.21</ele>
        <time>2019-03-11T13:31:16Z</time>
      </trkpt>
      <trkpt lat="32.562956800684333" lon="-4.901340343058109">
        <ele>2124.1700000000001</ele>
        <time>2019-03-11T13:31:17Z</time>
      </trkpt>
      <trkpt lat="32.562928972765803" lon="-4.901375379413366">
        <ele>2124.1700000000001</ele>
        <time>2019-03-11T13:31:18Z</time>
      </trkpt>
      <trkpt lat="32.56290684454143" lon="-4.901401028037071">
        <ele>2124.6500000000001</ele>
        <time>2019-03-11T13:31:21Z</time>
      </trkpt>
      <trkpt lat="32.562808860093355" lon="-4.901460791006684">
        <ele>2125.6100000000001</ele>
        <time>2019-03-11T13:31:22Z</time>
      </trkpt>
      <trkpt lat="32.562760580331087" lon="-4.901470262557268">
        <ele>2126.0900000000001</ele>
        <time>2019-03-11T13:31:23Z</time>
      </trkpt>
      <trkpt lat="32.562703499570489" lon="-4.901470430195332">
        <ele>2127.5300000000002</ele>
        <time>2019-03-11T13:31:24Z</time>
      </trkpt>
      <trkpt lat="32.562640132382512" lon="-4.901461713016033">
        <ele>2128.5</ele>
        <time>2019-03-11T13:31:25Z</time>
      </trkpt>
      <trkpt lat="32.562572993338108" lon="-4.901444613933563">
        <ele>2129.46</ele>
        <time>2019-03-11T13:31:26Z</time>
      </trkpt>
      <trkpt lat="32.562506105750799" lon="-4.90142147988081">
        <ele>2130.4200000000001</ele>
        <time>2019-03-11T13:31:27Z</time>
      </trkpt>
      <trkpt lat="32.562440978363156" lon="-4.901394657790661">
        <ele>2131.8600000000001</ele>
        <time>2019-03-11T13:31:28Z</time>
      </trkpt>
      <trkpt lat="32.562382891774178" lon="-4.901357861235738">
        <ele>2151.0900000000001</ele>
        <time>2019-03-11T13:31:29Z</time>
      </trkpt>
      <trkpt lat="32.56233612075448" lon="-4.901322908699513">
        <ele>2159.2600000000002</ele>
        <time>2019-03-11T13:31:30Z</time>
      </trkpt>
      <trkpt lat="32.562296725809574" lon="-4.90128661505878">
        <ele>2170.3099999999999</ele>
        <time>2019-03-11T13:31:45Z</time>
      </trkpt>
      <trkpt lat="32.56150396540761" lon="-4.900552192702889">
        <ele>2188.5799999999999</ele>
        <time>2019-03-11T13:31:53Z</time>
      </trkpt>
      <trkpt lat="32.56121814250946" lon="-4.900269052013755">
        <ele>2195.79</ele>
        <time>2019-03-11T13:32:03Z</time>
      </trkpt>
      <trkpt lat="32.56066451780498" lon="-4.89977384917438">
        <ele>2206.3600000000001</ele>
        <time>2019-03-11T13:32:21Z</time>
      </trkpt>
      <trkpt lat="32.559390384703875" lon="-4.899163395166397">
        <ele>2216.9400000000001</ele>
        <time>2019-03-11T13:32:29Z</time>
      </trkpt>
      <trkpt lat="32.558618327602744" lon="-4.898807583376765">
        <ele>2222.2199999999998</ele>
        <time>2019-03-11T13:32:39Z</time>
      </trkpt>
      <trkpt lat="32.557462295517325" lon="-4.898084811866283">
        <ele>2223.1900000000001</ele>
        <time>2019-03-11T13:32:49Z</time>
      </trkpt>
      <trkpt lat="32.556401817128062" lon="-4.897399675101042">
        <ele>2224.1500000000001</ele>
        <time>2019-03-11T13:32:53Z</time>
      </trkpt>
      <trkpt lat="32.556024044752121" lon="-4.897050736472011">
        <ele>2226.5500000000002</ele>
        <time>2019-03-11T13:32:54Z</time>
      </trkpt>
      <trkpt lat="32.55592773668468" lon="-4.896988794207573">
        <ele>2227.9899999999998</ele>
        <time>2019-03-11T13:32:55Z</time>
      </trkpt>
      <trkpt lat="32.555824387818575" lon="-4.896942358464003">
        <ele>2229.4299999999998</ele>
        <time>2019-03-11T13:32:57Z</time>
      </trkpt>
      <trkpt lat="32.555617606267333" lon="-4.896851666271687">
        <ele>2233.7600000000002</ele>
        <time>2019-03-11T13:32:58Z</time>
      </trkpt>
      <trkpt lat="32.555528338998556" lon="-4.896778659895062">
        <ele>2235.1999999999998</ele>
        <time>2019-03-11T13:32:59Z</time>
      </trkpt>
      <trkpt lat="32.555447872728109" lon="-4.896690063178539">
        <ele>2236.6399999999999</ele>
        <time>2019-03-11T13:33:02Z</time>
      </trkpt>
      <trkpt lat="32.555213598534465" lon="-4.896410945802927">
        <ele>2238.0900000000001</ele>
        <time>2019-03-11T13:33:03Z</time>
      </trkpt>
      <trkpt lat="32.555150985717773" lon="-4.896310195326805">
        <ele>2240.0100000000002</ele>
        <time>2019-03-11T13:33:04Z</time>
      </trkpt>
      <trkpt lat="32.555101197212934" lon="-4.896202571690083">
        <ele>2241.4499999999998</ele>
        <time>2019-03-11T13:33:05Z</time>
      </trkpt>
      <trkpt lat="32.555070519447327" lon="-4.896083800122142">
        <ele>2242.8899999999999</ele>
        <time>2019-03-11T13:33:06Z</time>
      </trkpt>
      <trkpt lat="32.555046798661351" lon="-4.895973410457373">
        <ele>2244.3299999999999</ele>
        <time>2019-03-11T13:33:07Z</time>
      </trkpt>
      <trkpt lat="32.555014444515109" lon="-4.895885232836008">
        <ele>2245.3000000000002</ele>
        <time>2019-03-11T13:33:08Z</time>
      </trkpt>
      <trkpt lat="32.554967505857348" lon="-4.895825134590268">
        <ele>2246.2600000000002</ele>
        <time>2019-03-11T13:33:09Z</time>
      </trkpt>
      <trkpt lat="32.554910006001592" lon="-4.895786494016647">
        <ele>2247.2199999999998</ele>
        <time>2019-03-11T13:33:10Z</time>
      </trkpt>
      <trkpt lat="32.554849404841661" lon="-4.89576218649745">
        <ele>2248.1799999999998</ele>
        <time>2019-03-11T13:33:11Z</time>
      </trkpt>
      <trkpt lat="32.554791569709778" lon="-4.895741315558553">
        <ele>2249.1399999999999</ele>
        <time>2019-03-11T13:33:12Z</time>
      </trkpt>
      <trkpt lat="32.554731806740165" lon="-4.895713236182928">
        <ele>2249.6199999999999</ele>
        <time>2019-03-11T13:33:13Z</time>
      </trkpt>
      <trkpt lat="32.554667433723807" lon="-4.895675182342529">
        <ele>2250.0999999999999</ele>
        <time>2019-03-11T13:33:14Z</time>
      </trkpt>
      <trkpt lat="32.554601216688752" lon="-4.895623717457056">
        <ele>2259.7199999999998</ele>
        <time>2019-03-11T13:33:15Z</time>
      </trkpt>
      <trkpt lat="32.554528042674065" lon="-4.895563116297126">
        <ele>2260.6799999999998</ele>
        <time>2019-03-11T13:33:16Z</time>
      </trkpt>
      <trkpt lat="32.554445900022984" lon="-4.895495474338532">
        <ele>2261.1599999999999</ele>
        <time>2019-03-11T13:33:28Z</time>
      </trkpt>
      <trkpt lat="32.553383661434054" lon="-4.894672874361277">
        <ele>2267.4099999999999</ele>
        <time>2019-03-11T13:33:29Z</time>
      </trkpt>
      <trkpt lat="32.553274529054761" lon="-4.894639262929559">
        <ele>2270.77</ele>
        <time>2019-03-11T13:33:30Z</time>
      </trkpt>
      <trkpt lat="32.553162882104516" lon="-4.89461830817163">
        <ele>2268.8499999999999</ele>
        <time>2019-03-11T13:33:39Z</time>
      </trkpt>
      <trkpt lat="32.552374312654138" lon="-4.894347405061126">
        <ele>2268.8499999999999</ele>
        <time>2019-03-11T13:33:49Z</time>
      </trkpt>
      <trkpt lat="32.552031744271517" lon="-4.894107431173325">
        <ele>2266.4499999999998</ele>
        <time>2019-03-11T13:34:12Z</time>
      </trkpt>
      <trkpt lat="32.552023446187377" lon="-4.894095193594694">
        <ele>2263.5599999999999</ele>
        <time>2019-03-11T13:34:34Z</time>
      </trkpt>
      <trkpt lat="32.551775677129626" lon="-4.893916826695204">
        <ele>2262.5999999999999</ele>
        <time>2019-03-11T13:34:44Z</time>
      </trkpt>
      <trkpt lat="32.551421290263534" lon="-4.89368699491024">
        <ele>2262.5999999999999</ele>
        <time>2019-03-11T13:34:49Z</time>
      </trkpt>
      <trkpt lat="32.551078721880913" lon="-4.893423300236464">
        <ele>2261.6399999999999</ele>
        <time>2019-03-11T13:34:50Z</time>
      </trkpt>
      <trkpt lat="32.551031615585089" lon="-4.893360938876867">
        <ele>2260.6799999999998</ele>
        <time>2019-03-11T13:34:51Z</time>
      </trkpt>
      <trkpt lat="32.550992136821151" lon="-4.893292207270861">
        <ele>2259.7199999999998</ele>
        <time>2019-03-11T13:34:52Z</time>
      </trkpt>
      <trkpt lat="32.55096422508359" lon="-4.893210148438811">
        <ele>2257.3099999999999</ele>
        <time>2019-03-11T13:34:53Z</time>
      </trkpt>
      <trkpt lat="32.550946958363056" lon="-4.893118115141988">
        <ele>2256.8299999999999</ele>
        <time>2019-03-11T13:34:54Z</time>
      </trkpt>
      <trkpt lat="32.550932792946696" lon="-4.893025411292911">
        <ele>2256.3499999999999</ele>
        <time>2019-03-11T13:34:57Z</time>
      </trkpt>
      <trkpt lat="32.55086800083518" lon="-4.892776301130652">
        <ele>2255.8699999999999</ele>
        <time>2019-03-11T13:34:58Z</time>
      </trkpt>
      <trkpt lat="32.550836484879255" lon="-4.892696924507618">
        <ele>2255.3899999999999</ele>
        <time>2019-03-11T13:34:59Z</time>
      </trkpt>
      <trkpt lat="32.550797006115317" lon="-4.892623666673899">
        <ele>2254.9099999999999</ele>
        <time>2019-03-11T13:35:00Z</time>
      </trkpt>
      <trkpt lat="32.55075073800981" lon="-4.892553593963385">
        <ele>2254.4299999999998</ele>
        <time>2019-03-11T13:35:01Z</time>
      </trkpt>
      <trkpt lat="32.550698602572083" lon="-4.892490729689598">
        <ele>2253.9499999999998</ele>
        <time>2019-03-11T13:35:02Z</time>
      </trkpt>
      <trkpt lat="32.550643617287278" lon="-4.892428368330002">
        <ele>2251.0599999999999</ele>
        <time>2019-03-11T13:35:03Z</time>
      </trkpt>
      <trkpt lat="32.550581591203809" lon="-4.892368437722325">
        <ele>2251.0599999999999</ele>
        <time>2019-03-11T13:35:04Z</time>
      </trkpt>
      <trkpt lat="32.550512608140707" lon="-4.892309261485934">
        <ele>2250.5799999999999</ele>
        <time>2019-03-11T13:35:09Z</time>
      </trkpt>
      <trkpt lat="32.550117066130042" lon="-4.892067527398467">
        <ele>2250.0999999999999</ele>
        <time>2019-03-11T13:35:10Z</time>
      </trkpt>
      <trkpt lat="32.550039365887642" lon="-4.892053529620171">
        <ele>2249.1399999999999</ele>
        <time>2019-03-11T13:35:11Z</time>
      </trkpt>
      <trkpt lat="32.54996795207262" lon="-4.892063336446881">
        <ele>2248.1799999999998</ele>
        <time>2019-03-11T13:35:12Z</time>
      </trkpt>
      <trkpt lat="32.54990978166461" lon="-4.892102228477597">
        <ele>2247.2199999999998</ele>
        <time>2019-03-11T13:35:13Z</time>
      </trkpt>
      <trkpt lat="32.549878936260939" lon="-4.892168780788779">
        <ele>2244.8200000000002</ele>
        <time>2019-03-11T13:35:14Z</time>
      </trkpt>
      <trkpt lat="32.549876002594829" lon="-4.892254024744034">
        <ele>2242.8899999999999</ele>
        <time>2019-03-11T13:35:15Z</time>
      </trkpt>
      <trkpt lat="32.549894358962774" lon="-4.892351422458887">
        <ele>2241.4499999999998</ele>
        <time>2019-03-11T13:35:16Z</time>
      </trkpt>
      <trkpt lat="32.549927718937397" lon="-4.892454855144024">
        <ele>2240.9699999999998</ele>
        <time>2019-03-11T13:35:17Z</time>
      </trkpt>
      <trkpt lat="32.549951858818531" lon="-4.89255728200078">
        <ele>2240.0100000000002</ele>
        <time>2019-03-11T13:35:18Z</time>
      </trkpt>
      <trkpt lat="32.549954960122705" lon="-4.892656188458204">
        <ele>2239.0500000000002</ele>
        <time>2019-03-11T13:35:19Z</time>
      </trkpt>
      <trkpt lat="32.549937358126044" lon="-4.892748724669218">
        <ele>2238.5700000000002</ele>
        <time>2019-03-11T13:35:20Z</time>
      </trkpt>
      <trkpt lat="32.549903327599168" lon="-4.892825167626143">
        <ele>2237.6100000000001</ele>
        <time>2019-03-11T13:35:21Z</time>
      </trkpt>
      <trkpt lat="32.549852784723043" lon="-4.892879985272884">
        <ele>2237.1300000000001</ele>
        <time>2019-03-11T13:35:22Z</time>
      </trkpt>
      <trkpt lat="32.549795033410192" lon="-4.892911165952683">
        <ele>2236.6399999999999</ele>
        <time>2019-03-11T13:35:23Z</time>
      </trkpt>
      <trkpt lat="32.549731079488993" lon="-4.892923990264535">
        <ele>2236.1599999999999</ele>
        <time>2019-03-11T13:35:24Z</time>
      </trkpt>
      <trkpt lat="32.549659414216876" lon="-4.892911333590746">
        <ele>2231.3600000000001</ele>
        <time>2019-03-11T13:35:25Z</time>
      </trkpt>
      <trkpt lat="32.549584060907364" lon="-4.892880572006106">
        <ele>2230.4000000000001</ele>
        <time>2019-03-11T13:35:26Z</time>
      </trkpt>
      <trkpt lat="32.54950569011271" lon="-4.892846792936325">
        <ele>2229.9200000000001</ele>
        <time>2019-03-11T13:35:34Z</time>
      </trkpt>
      <trkpt lat="32.548831785097718" lon="-4.892754424363375">
        <ele>2223.6700000000001</ele>
        <time>2019-03-11T13:35:35Z</time>
      </trkpt>
      <trkpt lat="32.548748888075352" lon="-4.892730871215463">
        <ele>2221.2600000000002</ele>
        <time>2019-03-11T13:35:36Z</time>
      </trkpt>
      <trkpt lat="32.548669595271349" lon="-4.892693068832159">
        <ele>2220.3000000000002</ele>
        <time>2019-03-11T13:35:46Z</time>
      </trkpt>
      <trkpt lat="32.547840038314462" lon="-4.892382938414812">
        <ele>2219.8200000000002</ele>
        <time>2019-03-11T13:35:49Z</time>
      </trkpt>
      <trkpt lat="32.547613559290767" lon="-4.892298365011811">
        <ele>2218.8600000000001</ele>
        <time>2019-03-11T13:35:50Z</time>
      </trkpt>
      <trkpt lat="32.547540804371238" lon="-4.892254946753383">
        <ele>2218.3800000000001</ele>
        <time>2019-03-11T13:35:51Z</time>
      </trkpt>
      <trkpt lat="32.547475593164563" lon="-4.892203146591783">
        <ele>2217.9000000000001</ele>
        <time>2019-03-11T13:35:52Z</time>
      </trkpt>
      <trkpt lat="32.547413902357221" lon="-4.892142880707979">
        <ele>2216.9400000000001</ele>
        <time>2019-03-11T13:35:53Z</time>
      </trkpt>
      <trkpt lat="32.547358330339193" lon="-4.892071466892958">
        <ele>2216.46</ele>
        <time>2019-03-11T13:35:54Z</time>
      </trkpt>
      <trkpt lat="32.547311810776591" lon="-4.891992257907987">
        <ele>2215.5</ele>
        <time>2019-03-11T13:35:55Z</time>
      </trkpt>
      <trkpt lat="32.547271074727178" lon="-4.891911204904318">
        <ele>2214.5300000000002</ele>
        <time>2019-03-11T13:35:56Z</time>
      </trkpt>
      <trkpt lat="32.547240229323506" lon="-4.89182336255908">
        <ele>2214.0500000000002</ele>
        <time>2019-03-11T13:35:57Z</time>
      </trkpt>
      <trkpt lat="32.54721843637526" lon="-4.891731413081288">
        <ele>2210.6900000000001</ele>
        <time>2019-03-11T13:35:58Z</time>
      </trkpt>
      <trkpt lat="32.547206366434693" lon="-4.891631081700325">
        <ele>2209.73</ele>
        <time>2019-03-11T13:35:59Z</time>
      </trkpt>
      <trkpt lat="32.547198571264744" lon="-4.891523709520698">
        <ele>2208.77</ele>
        <time>2019-03-11T13:36:04Z</time>
      </trkpt>
      <trkpt lat="32.547070579603314" lon="-4.890917697921395">
        <ele>2198.6700000000001</ele>
        <time>2019-03-11T13:36:05Z</time>
      </trkpt>
      <trkpt lat="32.547017438337207" lon="-4.890794400125742">
        <ele>2192.4200000000001</ele>
        <time>2019-03-11T13:36:06Z</time>
      </trkpt>
      <trkpt lat="32.546959016472101" lon="-4.89067948423326">
        <ele>2191.9400000000001</ele>
        <time>2019-03-11T13:36:18Z</time>
      </trkpt>
      <trkpt lat="32.546316711232066" lon="-4.889525296166539">
        <ele>2191.46</ele>
        <time>2019-03-11T13:36:25Z</time>
      </trkpt>
      <trkpt lat="32.546033738180995" lon="-4.888898665085435">
        <ele>2190.98</ele>
        <time>2019-03-11T13:36:26Z</time>
      </trkpt>
      <trkpt lat="32.545989649370313" lon="-4.888835297897458">
        <ele>2190.5</ele>
        <time>2019-03-11T13:36:27Z</time>
      </trkpt>
      <trkpt lat="32.545935586094856" lon="-4.888789281249046">
        <ele>2190.5</ele>
        <time>2019-03-11T13:36:28Z</time>
      </trkpt>
      <trkpt lat="32.545874733477831" lon="-4.888760447502136">
        <ele>2190.02</ele>
        <time>2019-03-11T13:36:29Z</time>
      </trkpt>
      <trkpt lat="32.545812204480171" lon="-4.888737900182605">
        <ele>2189.0599999999999</ele>
        <time>2019-03-11T13:36:30Z</time>
      </trkpt>
      <trkpt lat="32.545753950253129" lon="-4.888707054778934">
        <ele>2188.5799999999999</ele>
        <time>2019-03-11T13:36:31Z</time>
      </trkpt>
      <trkpt lat="32.545702317729592" lon="-4.888657350093126">
        <ele>2188.0999999999999</ele>
        <time>2019-03-11T13:36:32Z</time>
      </trkpt>
      <trkpt lat="32.545654205605388" lon="-4.888591719791293">
        <ele>2187.6199999999999</ele>
        <time>2019-03-11T13:36:33Z</time>
      </trkpt>
      <trkpt lat="32.545610284432769" lon="-4.888511756435037">
        <ele>2187.1399999999999</ele>
        <time>2019-03-11T13:36:34Z</time>
      </trkpt>
      <trkpt lat="32.545574409887195" lon="-4.88841762766242">
        <ele>2187.1399999999999</ele>
        <time>2019-03-11T13:36:35Z</time>
      </trkpt>
      <trkpt lat="32.545540546998382" lon="-4.888321403414011">
        <ele>2186.6599999999999</ele>
        <time>2019-03-11T13:36:36Z</time>
      </trkpt>
      <trkpt lat="32.545500565320253" lon="-4.8882270231843">
        <ele>2186.1799999999998</ele>
        <time>2019-03-11T13:36:37Z</time>
      </trkpt>
      <trkpt lat="32.545445244759321" lon="-4.888137588277459">
        <ele>2186.1799999999998</ele>
        <time>2019-03-11T13:36:38Z</time>
      </trkpt>
      <trkpt lat="32.545371735468507" lon="-4.888062318786979">
        <ele>2185.6900000000001</ele>
        <time>2019-03-11T13:36:39Z</time>
      </trkpt>
      <trkpt lat="32.545282803475857" lon="-4.887989982962608">
        <ele>2184.73</ele>
        <time>2019-03-11T13:36:40Z</time>
      </trkpt>
      <trkpt lat="32.54518867470324" lon="-4.88791580311954">
        <ele>2184.25</ele>
        <time>2019-03-11T13:36:42Z</time>
      </trkpt>
      <trkpt lat="32.545000668615103" lon="-4.887793511152268">
        <ele>2183.77</ele>
        <time>2019-03-11T13:36:43Z</time>
      </trkpt>
      <trkpt lat="32.544903019443154" lon="-4.88776040263474">
        <ele>2183.29</ele>
        <time>2019-03-11T13:36:44Z</time>
      </trkpt>
      <trkpt lat="32.544805957004428" lon="-4.887747745960951">
        <ele>2182.8099999999999</ele>
        <time>2019-03-11T13:36:45Z</time>
      </trkpt>
      <trkpt lat="32.54470881074667" lon="-4.88775746896863">
        <ele>2182.8099999999999</ele>
        <time>2019-03-11T13:36:46Z</time>
      </trkpt>
      <trkpt lat="32.54460914991796" lon="-4.887784626334906">
        <ele>2178.9699999999998</ele>
        <time>2019-03-11T13:36:47Z</time>
      </trkpt>
      <trkpt lat="32.54450605250895" lon="-4.887825613841415">
        <ele>2178.48</ele>
        <time>2019-03-11T13:36:48Z</time>
      </trkpt>
      <trkpt lat="32.544399937614799" lon="-4.887874145060778">
        <ele>2177.04</ele>
        <time>2019-03-11T13:36:53Z</time>
      </trkpt>
      <trkpt lat="32.543934239074588" lon="-4.888095930218697">
        <ele>2176.0799999999999</ele>
        <time>2019-03-11T13:36:54Z</time>
      </trkpt>
      <trkpt lat="32.543851090595126" lon="-4.88809559494257">
        <ele>2175.5999999999999</ele>
        <time>2019-03-11T13:36:55Z</time>
      </trkpt>
      <trkpt lat="32.543768947944045" lon="-4.888067431747913">
        <ele>2175.1199999999999</ele>
        <time>2019-03-11T13:36:56Z</time>
      </trkpt>
      <trkpt lat="32.54369392991066" lon="-4.888008842244744">
        <ele>2174.6399999999999</ele>
        <time>2019-03-11T13:36:57Z</time>
      </trkpt>
      <trkpt lat="32.543632993474603" lon="-4.887924017384648">
        <ele>2171.7600000000002</ele>
        <time>2019-03-11T13:36:58Z</time>
      </trkpt>
      <trkpt lat="32.543583288788795" lon="-4.88782586529851">
        <ele>2171.27</ele>
        <time>2019-03-11T13:36:59Z</time>
      </trkpt>
      <trkpt lat="32.543539451435208" lon="-4.887720756232739">
        <ele>2171.27</ele>
        <time>2019-03-11T13:37:05Z</time>
      </trkpt>
      <trkpt lat="32.543239966034889" lon="-4.887069230899215">
        <ele>2171.27</ele>
        <time>2019-03-11T13:37:06Z</time>
      </trkpt>
      <trkpt lat="32.543179364874959" lon="-4.887000164017081">
        <ele>2171.27</ele>
        <time>2019-03-11T13:37:07Z</time>
      </trkpt>
      <trkpt lat="32.543108956888318" lon="-4.886956829577684">
        <ele>2171.27</ele>
        <time>2019-03-11T13:37:08Z</time>
      </trkpt>
      <trkpt lat="32.543036537244916" lon="-4.886946100741625">
        <ele>2170.79</ele>
        <time>2019-03-11T13:37:09Z</time>
      </trkpt>
      <trkpt lat="32.542968476191163" lon="-4.886976359412074">
        <ele>2170.79</ele>
        <time>2019-03-11T13:37:10Z</time>
      </trkpt>
      <trkpt lat="32.542913239449263" lon="-4.887040564790368">
        <ele>2170.3099999999999</ele>
        <time>2019-03-11T13:37:11Z</time>
      </trkpt>
      <trkpt lat="32.542881974950433" lon="-4.887132849544287">
        <ele>2169.8299999999999</ele>
        <time>2019-03-11T13:37:12Z</time>
      </trkpt>
      <trkpt lat="32.542874347418547" lon="-4.887235444039106">
        <ele>2169.3499999999999</ele>
        <time>2019-03-11T13:37:13Z</time>
      </trkpt>
      <trkpt lat="32.542887674644589" lon="-4.887340469285846">
        <ele>2168.8699999999999</ele>
        <time>2019-03-11T13:37:14Z</time>
      </trkpt>
      <trkpt lat="32.542918268591166" lon="-4.887448512017727">
        <ele>2167.9099999999999</ele>
        <time>2019-03-11T13:37:15Z</time>
      </trkpt>
      <trkpt lat="32.542944420129061" lon="-4.887559823691845">
        <ele>2167.9099999999999</ele>
        <time>2019-03-11T13:37:16Z</time>
      </trkpt>
      <trkpt lat="32.542958417907357" lon="-4.887679601088166">
        <ele>2167.9099999999999</ele>
        <time>2019-03-11T13:37:17Z</time>
      </trkpt>
      <trkpt lat="32.542965626344085" lon="-4.887807257473469">
        <ele>2167.9099999999999</ele>
        <time>2019-03-11T13:37:19Z</time>
      </trkpt>
      <trkpt lat="32.542991861701012" lon="-4.888081010431051">
        <ele>2167.9099999999999</ele>
        <time>2019-03-11T13:37:20Z</time>
      </trkpt>
      <trkpt lat="32.543024802580476" lon="-4.888220485299826">
        <ele>2168.3899999999999</ele>
        <time>2019-03-11T13:37:21Z</time>
      </trkpt>
      <trkpt lat="32.543066125363111" lon="-4.888358786702156">
        <ele>2170.3099999999999</ele>
        <time>2019-03-11T13:37:22Z</time>
      </trkpt>
      <trkpt lat="32.543116165325046" lon="-4.888491053134203">
        <ele>2170.79</ele>
        <time>2019-03-11T13:37:23Z</time>
      </trkpt>
      <trkpt lat="32.543169893324375" lon="-4.88861745223403">
        <ele>2170.79</ele>
        <time>2019-03-11T13:37:26Z</time>
      </trkpt>
      <trkpt lat="32.543338537216187" lon="-4.888921966776252">
        <ele>2171.27</ele>
        <time>2019-03-11T13:37:27Z</time>
      </trkpt>
      <trkpt lat="32.54340710118413" lon="-4.889000002294779">
        <ele>2171.27</ele>
        <time>2019-03-11T13:37:28Z</time>
      </trkpt>
      <trkpt lat="32.543485974892974" lon="-4.889065632596612">
        <ele>2171.7600000000002</ele>
        <time>2019-03-11T13:37:29Z</time>
      </trkpt>
      <trkpt lat="32.543571218848228" lon="-4.889122461900115">
        <ele>2172.7199999999998</ele>
        <time>2019-03-11T13:37:30Z</time>
      </trkpt>
      <trkpt lat="32.543661324307323" lon="-4.889168897643685">
        <ele>2173.1999999999998</ele>
        <time>2019-03-11T13:37:31Z</time>
      </trkpt>
      <trkpt lat="32.543757297098637" lon="-4.889205107465386">
        <ele>2173.6799999999998</ele>
        <time>2019-03-11T13:37:32Z</time>
      </trkpt>
      <trkpt lat="32.543855113908648" lon="-4.889223715290427">
        <ele>2174.1599999999999</ele>
        <time>2019-03-11T13:37:33Z</time>
      </trkpt>
      <trkpt lat="32.54395242780447" lon="-4.889226900413632">
        <ele>2175.1199999999999</ele>
        <time>2019-03-11T13:37:34Z</time>
      </trkpt>
      <trkpt lat="32.54404672421515" lon="-4.889220362529159">
        <ele>2175.5999999999999</ele>
        <time>2019-03-11T13:37:35Z</time>
      </trkpt>
      <trkpt lat="32.544133560732007" lon="-4.88920770585537">
        <ele>2175.1199999999999</ele>
        <time>2019-03-11T13:37:37Z</time>
      </trkpt>
      <trkpt lat="32.544274795800447" lon="-4.889208041131496">
        <ele>2174.6399999999999</ele>
        <time>2019-03-11T13:37:38Z</time>
      </trkpt>
      <trkpt lat="32.544329278171062" lon="-4.889236036688089">
        <ele>2174.1599999999999</ele>
        <time>2019-03-11T13:37:39Z</time>
      </trkpt>
      <trkpt lat="32.544373534619808" lon="-4.889286244288087">
        <ele>2173.1999999999998</ele>
        <time>2019-03-11T13:37:40Z</time>
      </trkpt>
      <trkpt lat="32.544401697814465" lon="-4.889356065541506">
        <ele>2172.7199999999998</ele>
        <time>2019-03-11T13:37:41Z</time>
      </trkpt>
      <trkpt lat="32.544405972585082" lon="-4.889432759955525">
        <ele>2170.79</ele>
        <time>2019-03-11T13:37:42Z</time>
      </trkpt>
      <trkpt lat="32.544393064454198" lon="-4.889518842101097">
        <ele>2169.8299999999999</ele>
        <time>2019-03-11T13:37:43Z</time>
      </trkpt>
      <trkpt lat="32.544370014220476" lon="-4.889614647254348">
        <ele>2159.7399999999998</ele>
        <time>2019-03-11T13:37:46Z</time>
      </trkpt>
      <trkpt lat="32.544260714203119" lon="-4.88993039354682">
        <ele>2148.1999999999998</ele>
        <time>2019-03-11T13:37:47Z</time>
      </trkpt>
      <trkpt lat="32.544195335358381" lon="-4.89003935828805">
        <ele>2148.1999999999998</ele>
        <time>2019-03-11T13:37:56Z</time>
      </trkpt>
      <trkpt lat="32.543446077033877" lon="-4.891196647658944">
        <ele>2147.2399999999998</ele>
        <time>2019-03-11T13:38:07Z</time>
      </trkpt>
      <trkpt lat="32.542731603607535" lon="-4.892547726631165">
        <ele>2146.7600000000002</ele>
        <time>2019-03-11T13:38:08Z</time>
      </trkpt>
      <trkpt lat="32.542693465948105" lon="-4.892629953101277">
        <ele>2146.2800000000002</ele>
        <time>2019-03-11T13:38:09Z</time>
      </trkpt>
      <trkpt lat="32.54264778457582" lon="-4.89269214682281">
        <ele>2145.8000000000002</ele>
        <time>2019-03-11T13:38:10Z</time>
      </trkpt>
      <trkpt lat="32.542587853968143" lon="-4.892740091308951">
        <ele>2144.8400000000001</ele>
        <time>2019-03-11T13:38:11Z</time>
      </trkpt>
      <trkpt lat="32.54251342266798" lon="-4.892768505960703">
        <ele>2144.8400000000001</ele>
        <time>2019-03-11T13:38:12Z</time>
      </trkpt>
      <trkpt lat="32.542428262531757" lon="-4.892787616699934">
        <ele>2143.8800000000001</ele>
        <time>2019-03-11T13:38:13Z</time>
      </trkpt>
      <trkpt lat="32.542340671643615" lon="-4.892814019694924">
        <ele>2143.4000000000001</ele>
        <time>2019-03-11T13:38:14Z</time>
      </trkpt>
      <trkpt lat="32.542266910895705" lon="-4.892848134040833">
        <ele>2142.9200000000001</ele>
        <time>2019-03-11T13:38:15Z</time>
      </trkpt>
      <trkpt lat="32.542212679982185" lon="-4.892889708280563">
        <ele>2142.4400000000001</ele>
        <time>2019-03-11T13:38:16Z</time>
      </trkpt>
      <trkpt lat="32.542176721617579" lon="-4.892949722707272">
        <ele>2141.4699999999998</ele>
        <time>2019-03-11T13:38:17Z</time>
      </trkpt>
      <trkpt lat="32.542157527059317" lon="-4.893030105158687">
        <ele>2141.4699999999998</ele>
        <time>2019-03-11T13:38:18Z</time>
      </trkpt>
      <trkpt lat="32.542153252288699" lon="-4.893126161769033">
        <ele>2140.5100000000002</ele>
        <time>2019-03-11T13:38:19Z</time>
      </trkpt>
      <trkpt lat="32.542159371078014" lon="-4.893235210329294">
        <ele>2140.0300000000002</ele>
        <time>2019-03-11T13:38:20Z</time>
      </trkpt>
      <trkpt lat="32.542174123227596" lon="-4.893345180898905">
        <ele>2139.0700000000002</ele>
        <time>2019-03-11T13:38:21Z</time>
      </trkpt>
      <trkpt lat="32.542196083813906" lon="-4.893444171175361">
        <ele>2137.1500000000001</ele>
        <time>2019-03-11T13:38:22Z</time>
      </trkpt>
      <trkpt lat="32.542218714952469" lon="-4.893536036834121">
        <ele>2136.6700000000001</ele>
        <time>2019-03-11T13:38:23Z</time>
      </trkpt>
      <trkpt lat="32.542246207594872" lon="-4.893625387921929">
        <ele>2135.71</ele>
        <time>2019-03-11T13:38:26Z</time>
      </trkpt>
      <trkpt lat="32.542313765734434" lon="-4.893848514184356">
        <ele>2134.7399999999998</ele>
        <time>2019-03-11T13:38:27Z</time>
      </trkpt>
      <trkpt lat="32.542315274477005" lon="-4.893924035131931">
        <ele>2134.2600000000002</ele>
        <time>2019-03-11T13:38:28Z</time>
      </trkpt>
      <trkpt lat="32.542302450165153" lon="-4.894003663212061">
        <ele>2133.7800000000002</ele>
        <time>2019-03-11T13:38:29Z</time>
      </trkpt>
      <trkpt lat="32.54227596335113" lon="-4.894086224958301">
        <ele>2132.8200000000002</ele>
        <time>2019-03-11T13:38:30Z</time>
      </trkpt>
      <trkpt lat="32.542244782671332" lon="-4.8941536154598">
        <ele>2130.9000000000001</ele>
        <time>2019-03-11T13:38:31Z</time>
      </trkpt>
      <trkpt lat="32.542220642790198" lon="-4.894214468076825">
        <ele>2128.98</ele>
        <time>2019-03-11T13:38:32Z</time>
      </trkpt>
      <trkpt lat="32.542199520394206" lon="-4.894276326522231">
        <ele>2125.1300000000001</ele>
        <time>2019-03-11T13:38:37Z</time>
      </trkpt>
      <trkpt lat="32.542101200670004" lon="-4.894568100571632">
        <ele>2124.1700000000001</ele>
        <time>2019-03-11T13:38:40Z</time>
      </trkpt>
      <trkpt lat="32.542010676115751" lon="-4.894754095003009">
        <ele>2123.6900000000001</ele>
        <time>2019-03-11T13:38:49Z</time>
      </trkpt>
      <trkpt lat="32.541752345860004" lon="-4.895309396088123">
        <ele>2123.6900000000001</ele>
        <time>2019-03-11T13:38:50Z</time>
      </trkpt>
      <trkpt lat="32.541708424687386" lon="-4.89536446519196">
        <ele>2123.21</ele>
        <time>2019-03-11T13:38:51Z</time>
      </trkpt>
      <trkpt lat="32.541660647839308" lon="-4.895411152392626">
        <ele>2118.8800000000001</ele>
        <time>2019-03-11T13:38:52Z</time>
      </trkpt>
      <trkpt lat="32.541610188782215" lon="-4.895453564822674">
        <ele>2114.0799999999999</ele>
        <time>2019-03-11T13:38:53Z</time>
      </trkpt>
      <trkpt lat="32.541558723896742" lon="-4.895494971424341">
        <ele>2111.1900000000001</ele>
        <time>2019-03-11T13:39:01Z</time>
      </trkpt>
      <trkpt lat="32.541086068376899" lon="-4.895804012194276">
        <ele>2108.79</ele>
        <time>2019-03-11T13:39:08Z</time>
      </trkpt>
      <trkpt lat="32.540921112522483" lon="-4.896037364378572">
        <ele>2108.3099999999999</ele>
        <time>2019-03-11T13:39:11Z</time>
      </trkpt>
      <trkpt lat="32.5410773511976" lon="-4.896145323291421">
        <ele>2107.3499999999999</ele>
        <time>2019-03-11T13:39:14Z</time>
      </trkpt>
      <trkpt lat="32.54126644693315" lon="-4.89622687920928">
        <ele>2106.8699999999999</ele>
        <time>2019-03-11T13:39:15Z</time>
      </trkpt>
      <trkpt lat="32.541312966495752" lon="-4.896282451227307">
        <ele>2106.3899999999999</ele>
        <time>2019-03-11T13:39:16Z</time>
      </trkpt>
      <trkpt lat="32.541352696716785" lon="-4.896353362128139">
        <ele>2106.3899999999999</ele>
        <time>2019-03-11T13:39:17Z</time>
      </trkpt>
      <trkpt lat="32.541387230157852" lon="-4.896424859762192">
        <ele>2106.3899999999999</ele>
        <time>2019-03-11T13:39:19Z</time>
      </trkpt>
      <trkpt lat="32.541443640366197" lon="-4.896548911929131">
        <ele>2106.8699999999999</ele>
        <time>2019-03-11T13:39:20Z</time>
      </trkpt>
      <trkpt lat="32.541454453021288" lon="-4.896599119529128">
        <ele>2106.3899999999999</ele>
        <time>2019-03-11T13:39:21Z</time>
      </trkpt>
      <trkpt lat="32.541448082774878" lon="-4.896640609949827">
        <ele>2105.4200000000001</ele>
        <time>2019-03-11T13:39:22Z</time>
      </trkpt>
      <trkpt lat="32.541423104703426" lon="-4.896663073450327">
        <ele>2104.9400000000001</ele>
        <time>2019-03-11T13:39:23Z</time>
      </trkpt>
      <trkpt lat="32.541385134682059" lon="-4.896668354049325">
        <ele>2104.9400000000001</ele>
        <time>2019-03-11T13:39:24Z</time>
      </trkpt>
      <trkpt lat="32.541343979537487" lon="-4.896663744002581">
        <ele>2104.46</ele>
        <time>2019-03-11T13:39:25Z</time>
      </trkpt>
      <trkpt lat="32.541301567107439" lon="-4.896654104813933">
        <ele>2102.0599999999999</ele>
        <time>2019-03-11T13:39:26Z</time>
      </trkpt>
      <trkpt lat="32.541256221011281" lon="-4.896643627434969">
        <ele>2098.6999999999998</ele>
        <time>2019-03-11T13:39:27Z</time>
      </trkpt>
      <trkpt lat="32.541206432506442" lon="-4.896629964932799">
        <ele>2095.3299999999999</ele>
        <time>2019-03-11T13:39:31Z</time>
      </trkpt>
      <trkpt lat="32.541002249345183" lon="-4.896567603573203">
        <ele>2094.3699999999999</ele>
        <time>2019-03-11T13:39:35Z</time>
      </trkpt>
      <trkpt lat="32.540804101154208" lon="-4.896526783704758">
        <ele>2093.8899999999999</ele>
        <time>2019-03-11T13:39:39Z</time>
      </trkpt>
      <trkpt lat="32.540590194985271" lon="-4.896456459537149">
        <ele>2092.9299999999998</ele>
        <time>2019-03-11T13:39:40Z</time>
      </trkpt>
      <trkpt lat="32.540536299347878" lon="-4.896460901945829">
        <ele>2091.9699999999998</ele>
        <time>2019-03-11T13:39:41Z</time>
      </trkpt>
      <trkpt lat="32.540493970736861" lon="-4.896483030170202">
        <ele>2090.52</ele>
        <time>2019-03-11T13:39:42Z</time>
      </trkpt>
      <trkpt lat="32.540460024029016" lon="-4.896522676572204">
        <ele>2089.5599999999999</ele>
        <time>2019-03-11T13:39:43Z</time>
      </trkpt>
      <trkpt lat="32.540439907461405" lon="-4.896578248590231">
        <ele>2087.1599999999999</ele>
        <time>2019-03-11T13:39:44Z</time>
      </trkpt>
      <trkpt lat="32.540437644347548" lon="-4.896638598293066">
        <ele>2082.8299999999999</ele>
        <time>2019-03-11T13:39:45Z</time>
      </trkpt>
      <trkpt lat="32.540446277707815" lon="-4.896698025986552">
        <ele>2078.5100000000002</ele>
        <time>2019-03-11T13:39:47Z</time>
      </trkpt>
      <trkpt lat="32.540467735379934" lon="-4.896817468106747">
        <ele>2078.5100000000002</ele>
        <time>2019-03-11T13:39:56Z</time>
      </trkpt>
      <trkpt lat="32.540506962686777" lon="-4.897105386480689">
        <ele>2078.5100000000002</ele>
        <time>2019-03-11T13:40:04Z</time>
      </trkpt>
      <trkpt lat="32.540612490847707" lon="-4.897389784455299">
        <ele>2077.5500000000002</ele>
        <time>2019-03-11T13:40:05Z</time>
      </trkpt>
      <trkpt lat="32.540621375665069" lon="-4.897417025640607">
        <ele>2077.5500000000002</ele>
        <time>2019-03-11T13:40:06Z</time>
      </trkpt>
      <trkpt lat="32.540618861094117" lon="-4.897440914064646">
        <ele>2077.5500000000002</ele>
        <time>2019-03-11T13:41:21Z</time>
      </trkpt>
      <trkpt lat="32.540604695677757" lon="-4.897455414757133">
        <ele>2078.0300000000002</ele>
        <time>2019-03-11T13:41:23Z</time>
      </trkpt>
      <trkpt lat="32.540588015690446" lon="-4.897473687306047">
        <ele>2078.0300000000002</ele>
        <time>2019-03-11T13:41:24Z</time>
      </trkpt>
      <trkpt lat="32.54056865349412" lon="-4.897482907399535">
        <ele>2078.0300000000002</ele>
        <time>2019-03-11T13:41:25Z</time>
      </trkpt>
      <trkpt lat="32.540545267984271" lon="-4.897484667599201">
        <ele>2080.9099999999999</ele>
        <time>2019-03-11T13:41:26Z</time>
      </trkpt>
      <trkpt lat="32.540516601875424" lon="-4.897479470819235">
        <ele>2083.3099999999999</ele>
        <time>2019-03-11T13:41:27Z</time>
      </trkpt>
      <trkpt lat="32.540483912453055" lon="-4.897469999268651">
        <ele>2086.1999999999998</ele>
        <time>2019-03-11T13:41:41Z</time>
      </trkpt>
      <trkpt lat="32.540129190310836" lon="-4.89720756188035">
        <ele>2086.1999999999998</ele>
        <time>2019-03-11T13:41:51Z</time>
      </trkpt>
      <trkpt lat="32.539986530318856" lon="-4.896879997104406">
        <ele>2085.7199999999998</ele>
        <time>2019-03-11T13:41:57Z</time>
      </trkpt>
      <trkpt lat="32.539994744583964" lon="-4.8967111017555">
        <ele>2086.6799999999998</ele>
        <time>2019-03-11T13:42:03Z</time>
      </trkpt>
      <trkpt lat="32.539797686040401" lon="-4.896632311865687">
        <ele>2087.6399999999999</ele>
        <time>2019-03-11T13:42:05Z</time>
      </trkpt>
      <trkpt lat="32.5397062394768" lon="-4.896600963547826">
        <ele>2087.1599999999999</ele>
        <time>2019-03-11T13:42:13Z</time>
      </trkpt>
      <trkpt lat="32.539398120716214" lon="-4.896494429558516">
        <ele>2087.1599999999999</ele>
        <time>2019-03-11T13:42:17Z</time>
      </trkpt>
      <trkpt lat="32.539236349985003" lon="-4.896497614681721">
        <ele>2087.6399999999999</ele>
        <time>2019-03-11T13:42:18Z</time>
      </trkpt>
      <trkpt lat="32.539191674441099" lon="-4.89647414535284">
        <ele>2087.6399999999999</ele>
        <time>2019-03-11T13:42:19Z</time>
      </trkpt>
      <trkpt lat="32.539147837087512" lon="-4.896450256928802">
        <ele>2088.1199999999999</ele>
        <time>2019-03-11T13:42:20Z</time>
      </trkpt>
      <trkpt lat="32.539103161543608" lon="-4.896436091512442">
        <ele>2088.5999999999999</ele>
        <time>2019-03-11T13:42:21Z</time>
      </trkpt>
      <trkpt lat="32.539057144895196" lon="-4.896430224180222">
        <ele>2088.5999999999999</ele>
        <time>2019-03-11T13:42:23Z</time>
      </trkpt>
      <trkpt lat="32.538960501551628" lon="-4.896415304392576">
        <ele>2089.0799999999999</ele>
        <time>2019-03-11T13:42:24Z</time>
      </trkpt>
      <trkpt lat="32.538918843492866" lon="-4.896398456767201">
        <ele>2089.5599999999999</ele>
        <time>2019-03-11T13:42:25Z</time>
      </trkpt>
      <trkpt lat="32.538878777995706" lon="-4.896384710446">
        <ele>2089.5599999999999</ele>
        <time>2019-03-11T13:42:26Z</time>
      </trkpt>
      <trkpt lat="32.538841394707561" lon="-4.896384542807937">
        <ele>2090.04</ele>
        <time>2019-03-11T13:42:27Z</time>
      </trkpt>
      <trkpt lat="32.538807112723589" lon="-4.896399127319455">
        <ele>2090.52</ele>
        <time>2019-03-11T13:42:28Z</time>
      </trkpt>
      <trkpt lat="32.538772830739617" lon="-4.896421590819955">
        <ele>2091</ele>
        <time>2019-03-11T13:42:29Z</time>
      </trkpt>
      <trkpt lat="32.538737375289202" lon="-4.896442126482725">
        <ele>2092.9299999999998</ele>
        <time>2019-03-11T13:42:30Z</time>
      </trkpt>
      <trkpt lat="32.538697812706232" lon="-4.896454447880387">
        <ele>2092.9299999999998</ele>
        <time>2019-03-11T13:42:31Z</time>
      </trkpt>
      <trkpt lat="32.538655987009406" lon="-4.896459560841322">
        <ele>2093.4099999999999</ele>
        <time>2019-03-11T13:42:39Z</time>
      </trkpt>
      <trkpt lat="32.538387095555663" lon="-4.896515049040318">
        <ele>2093.4099999999999</ele>
        <time>2019-03-11T13:42:40Z</time>
      </trkpt>
      <trkpt lat="32.538388269022107" lon="-4.896540530025959">
        <ele>2093.8899999999999</ele>
        <time>2019-03-11T13:42:41Z</time>
      </trkpt>
      <trkpt lat="32.53840402700007" lon="-4.896569531410933">
        <ele>2093.8899999999999</ele>
        <time>2019-03-11T13:42:42Z</time>
      </trkpt>
      <trkpt lat="32.538432022556663" lon="-4.896597191691399">
        <ele>2093.8899999999999</ele>
        <time>2019-03-11T13:42:43Z</time>
      </trkpt>
      <trkpt lat="32.538469070568681" lon="-4.896619403734803">
        <ele>2094.3699999999999</ele>
        <time>2019-03-11T13:42:44Z</time>
      </trkpt>
      <trkpt lat="32.538512237370014" lon="-4.896635748445988">
        <ele>2094.3699999999999</ele>
        <time>2019-03-11T13:42:45Z</time>
      </trkpt>
      <trkpt lat="32.538554649800062" lon="-4.896659385412931">
        <ele>2094.3699999999999</ele>
        <time>2019-03-11T13:42:46Z</time>
      </trkpt>
      <trkpt lat="32.538591949269176" lon="-4.896694924682379">
        <ele>2094.8499999999999</ele>
        <time>2019-03-11T13:42:47Z</time>
      </trkpt>
      <trkpt lat="32.538618687540293" lon="-4.896741360425949">
        <ele>2095.3299999999999</ele>
        <time>2019-03-11T13:42:48Z</time>
      </trkpt>
      <trkpt lat="32.538639139384031" lon="-4.896793495863676">
        <ele>2097.25</ele>
        <time>2019-03-11T13:42:49Z</time>
      </trkpt>
      <trkpt lat="32.538655567914248" lon="-4.896847056224942">
        <ele>2097.25</ele>
        <time>2019-03-11T13:42:50Z</time>
      </trkpt>
      <trkpt lat="32.538669481873512" lon="-4.896904472261667">
        <ele>2097.73</ele>
        <time>2019-03-11T13:42:54Z</time>
      </trkpt>
      <trkpt lat="32.538708290085196" lon="-4.897144613787532">
        <ele>2098.6999999999998</ele>
        <time>2019-03-11T13:42:55Z</time>
      </trkpt>
      <trkpt lat="32.538697309792042" lon="-4.89720412530005">
        <ele>2098.6999999999998</ele>
        <time>2019-03-11T13:42:56Z</time>
      </trkpt>
      <trkpt lat="32.538674511015415" lon="-4.897257769480348">
        <ele>2099.1799999999998</ele>
        <time>2019-03-11T13:43:00Z</time>
      </trkpt>
      <trkpt lat="32.538564540445805" lon="-4.897462539374828">
        <ele>2102.54</ele>
        <time>2019-03-11T13:43:01Z</time>
      </trkpt>
      <trkpt lat="32.538541071116924" lon="-4.897515513002873">
        <ele>2103.5</ele>
        <time>2019-03-11T13:43:02Z</time>
      </trkpt>
      <trkpt lat="32.53852279856801" lon="-4.897566977888346">
        <ele>2103.98</ele>
        <time>2019-03-11T13:43:08Z</time>
      </trkpt>
      <trkpt lat="32.53845976665616" lon="-4.897895632311702">
        <ele>2104.46</ele>
        <time>2019-03-11T13:43:09Z</time>
      </trkpt>
      <trkpt lat="32.538462532684207" lon="-4.89794491790235">
        <ele>2104.46</ele>
        <time>2019-03-11T13:43:10Z</time>
      </trkpt>
      <trkpt lat="32.538466136902571" lon="-4.897988587617874">
        <ele>2104.9400000000001</ele>
        <time>2019-03-11T13:43:11Z</time>
      </trkpt>
      <trkpt lat="32.538472423329949" lon="-4.898025467991829">
        <ele>2105.4200000000001</ele>
        <time>2019-03-11T13:43:12Z</time>
      </trkpt>
      <trkpt lat="32.538479045033455" lon="-4.898060169070959">
        <ele>2105.9099999999999</ele>
        <time>2019-03-11T13:43:13Z</time>
      </trkpt>
      <trkpt lat="32.538479967042804" lon="-4.898099899291992">
        <ele>2105.9099999999999</ele>
        <time>2019-03-11T13:43:14Z</time>
      </trkpt>
      <trkpt lat="32.538468400016427" lon="-4.898137785494328">
        <ele>2106.3899999999999</ele>
        <time>2019-03-11T13:43:15Z</time>
      </trkpt>
      <trkpt lat="32.538451887667179" lon="-4.898165194317699">
        <ele>2107.8299999999999</ele>
        <time>2019-03-11T13:43:16Z</time>
      </trkpt>
      <trkpt lat="32.53842699341476" lon="-4.89818480797112">
        <ele>2107.8299999999999</ele>
        <time>2019-03-11T13:43:17Z</time>
      </trkpt>
      <trkpt lat="32.53838793374598" lon="-4.89820727147162">
        <ele>2108.3099999999999</ele>
        <time>2019-03-11T13:43:20Z</time>
      </trkpt>
      <trkpt lat="32.538269581273198" lon="-4.898289665579796">
        <ele>2110.71</ele>
        <time>2019-03-11T13:43:21Z</time>
      </trkpt>
      <trkpt lat="32.538237981498241" lon="-4.898325204849243">
        <ele>2111.1900000000001</ele>
        <time>2019-03-11T13:43:22Z</time>
      </trkpt>
      <trkpt lat="32.5382090639323" lon="-4.898366443812847">
        <ele>2111.6700000000001</ele>
        <time>2019-03-11T13:43:29Z</time>
      </trkpt>
      <trkpt lat="32.538049137219787" lon="-4.898714208975434">
        <ele>2112.6300000000001</ele>
        <time>2019-03-11T13:43:30Z</time>
      </trkpt>
      <trkpt lat="32.538033043965697" lon="-4.898773804306984">
        <ele>2112.6300000000001</ele>
        <time>2019-03-11T13:43:32Z</time>
      </trkpt>
      <trkpt lat="32.53801167011261" lon="-4.89887572824955">
        <ele>2113.5999999999999</ele>
        <time>2019-03-11T13:43:33Z</time>
      </trkpt>
      <trkpt lat="32.538014687597752" lon="-4.898922834545374">
        <ele>2113.5999999999999</ele>
        <time>2019-03-11T13:43:34Z</time>
      </trkpt>
      <trkpt lat="32.53802340477705" lon="-4.898963402956724">
        <ele>2114.0799999999999</ele>
        <time>2019-03-11T13:43:35Z</time>
      </trkpt>
      <trkpt lat="32.53804100677371" lon="-4.899000450968742">
        <ele>2114.0799999999999</ele>
        <time>2019-03-11T13:43:36Z</time>
      </trkpt>
      <trkpt lat="32.538065984845161" lon="-4.899029787629843">
        <ele>2114.0799999999999</ele>
        <time>2019-03-11T13:43:37Z</time>
      </trkpt>
      <trkpt lat="32.538096327334642" lon="-4.899045126512647">
        <ele>2114.0799999999999</ele>
        <time>2019-03-11T13:43:38Z</time>
      </trkpt>
      <trkpt lat="32.538121473044157" lon="-4.899045210331678">
        <ele>2114.5599999999999</ele>
        <time>2019-03-11T13:43:39Z</time>
      </trkpt>
      <trkpt lat="32.538139075040817" lon="-4.899031296372414">
        <ele>2114.5599999999999</ele>
        <time>2019-03-11T13:43:42Z</time>
      </trkpt>
      <trkpt lat="32.538155587390065" lon="-4.89899642765522">
        <ele>2114.5599999999999</ele>
        <time>2019-03-11T13:43:43Z</time>
      </trkpt>
      <trkpt lat="32.538153408095241" lon="-4.898981507867575">
        <ele>2114.5599999999999</ele>
        <time>2019-03-11T13:43:44Z</time>
      </trkpt>
      <trkpt lat="32.538148211315274" lon="-4.898966839537025">
        <ele>2114.5599999999999</ele>
        <time>2019-03-11T13:43:45Z</time>
      </trkpt>
      <trkpt lat="32.538146283477545" lon="-4.898952003568411">
        <ele>2114.5599999999999</ele>
        <time>2019-03-11T13:43:46Z</time>
      </trkpt>
      <trkpt lat="32.538146283477545" lon="-4.898933563381434">
        <ele>2114.0799999999999</ele>
        <time>2019-03-11T13:43:47Z</time>
      </trkpt>
      <trkpt lat="32.538148295134306" lon="-4.898916548117995">
        <ele>2113.1199999999999</ele>
        <time>2019-03-11T13:43:48Z</time>
      </trkpt>
      <trkpt lat="32.538150390610099" lon="-4.898902550339699">
        <ele>2116.96</ele>
        <time>2019-03-11T13:43:49Z</time>
      </trkpt>
      <trkpt lat="32.538155922666192" lon="-4.898890061303973">
        <ele>2117.4400000000001</ele>
        <time>2019-03-11T13:43:59Z</time>
      </trkpt>
      <trkpt lat="32.53830780275166" lon="-4.89869887009263">
        <ele>2118.8800000000001</ele>
        <time>2019-03-11T13:44:10Z</time>
      </trkpt>
      <trkpt lat="32.538652885705233" lon="-4.898708257824183">
        <ele>2118.8800000000001</ele>
        <time>2019-03-11T13:44:22Z</time>
      </trkpt>
      <trkpt lat="32.538954215124249" lon="-4.898585630580783">
        <ele>2119.3600000000001</ele>
        <time>2019-03-11T13:44:32Z</time>
      </trkpt>
      <trkpt lat="32.539248336106539" lon="-4.898627623915672">
        <ele>2119.8400000000001</ele>
        <time>2019-03-11T13:44:33Z</time>
      </trkpt>
      <trkpt lat="32.539254454895854" lon="-4.898679256439209">
        <ele>2120.3200000000002</ele>
        <time>2019-03-11T13:44:34Z</time>
      </trkpt>
      <trkpt lat="32.539254454895854" lon="-4.898735415190458">
        <ele>2120.8099999999999</ele>
        <time>2019-03-11T13:44:36Z</time>
      </trkpt>
      <trkpt lat="32.5392537843436" lon="-4.898838847875595">
        <ele>2121.29</ele>
        <time>2019-03-11T13:44:37Z</time>
      </trkpt>
      <trkpt lat="32.539258729666471" lon="-4.898892492055893">
        <ele>2121.29</ele>
        <time>2019-03-11T13:44:38Z</time>
      </trkpt>
      <trkpt lat="32.539272643625736" lon="-4.898945046588779">
        <ele>2121.29</ele>
        <time>2019-03-11T13:44:39Z</time>
      </trkpt>
      <trkpt lat="32.539299465715885" lon="-4.898998187854886">
        <ele>2122.25</ele>
        <time>2019-03-11T13:44:40Z</time>
      </trkpt>
      <trkpt lat="32.53933584317565" lon="-4.899041187018156">
        <ele>2122.73</ele>
        <time>2019-03-11T13:44:41Z</time>
      </trkpt>
      <trkpt lat="32.539382362738252" lon="-4.899078235030174">
        <ele>2123.21</ele>
        <time>2019-03-11T13:44:42Z</time>
      </trkpt>
      <trkpt lat="32.539430307224393" lon="-4.899117713794112">
        <ele>2123.6900000000001</ele>
        <time>2019-03-11T13:44:43Z</time>
      </trkpt>
      <trkpt lat="32.539463918656111" lon="-4.899173453450203">
        <ele>2123.6900000000001</ele>
        <time>2019-03-11T13:44:44Z</time>
      </trkpt>
      <trkpt lat="32.539473557844758" lon="-4.899237491190434">
        <ele>2124.6500000000001</ele>
        <time>2019-03-11T13:44:45Z</time>
      </trkpt>
      <trkpt lat="32.539446065202355" lon="-4.899295242503285">
        <ele>2125.1300000000001</ele>
        <time>2019-03-11T13:44:46Z</time>
      </trkpt>
      <trkpt lat="32.53939594142139" lon="-4.89933698438108">
        <ele>2125.6100000000001</ele>
        <time>2019-03-11T13:44:47Z</time>
      </trkpt>
      <trkpt lat="32.539338022470474" lon="-4.899369589984417">
        <ele>2126.0900000000001</ele>
        <time>2019-03-11T13:44:48Z</time>
      </trkpt>
      <trkpt lat="32.539281696081161" lon="-4.89939758554101">
        <ele>2126.5700000000002</ele>
        <time>2019-03-11T13:44:49Z</time>
      </trkpt>
      <trkpt lat="32.539229895919561" lon="-4.899418959394097">
        <ele>2127.0500000000002</ele>
        <time>2019-03-11T13:44:50Z</time>
      </trkpt>
      <trkpt lat="32.53918488509953" lon="-4.899427425116301">
        <ele>2127.5300000000002</ele>
        <time>2019-03-11T13:44:51Z</time>
      </trkpt>
      <trkpt lat="32.539149597287178" lon="-4.899423234164715">
        <ele>2127.5300000000002</ele>
        <time>2019-03-11T13:44:52Z</time>
      </trkpt>
      <trkpt lat="32.539126379415393" lon="-4.899412002414465">
        <ele>2128.02</ele>
        <time>2019-03-11T13:44:53Z</time>
      </trkpt>
      <trkpt lat="32.539110453799367" lon="-4.899395992979407">
        <ele>2128.02</ele>
        <time>2019-03-11T13:44:54Z</time>
      </trkpt>
      <trkpt lat="32.539098216220737" lon="-4.899367494508624">
        <ele>2128.02</ele>
        <time>2019-03-11T13:44:55Z</time>
      </trkpt>
      <trkpt lat="32.539091007784009" lon="-4.899322651326656">
        <ele>2128.98</ele>
        <time>2019-03-11T13:44:56Z</time>
      </trkpt>
      <trkpt lat="32.539089331403375" lon="-4.899270096793771">
        <ele>2128.98</ele>
        <time>2019-03-11T13:44:57Z</time>
      </trkpt>
      <trkpt lat="32.539085391908884" lon="-4.899216955527663">
        <ele>2129.46</ele>
        <time>2019-03-11T13:45:00Z</time>
      </trkpt>
      <trkpt lat="32.539051193743944" lon="-4.899045629426837">
        <ele>2129.46</ele>
        <time>2019-03-11T13:45:01Z</time>
      </trkpt>
      <trkpt lat="32.539025545120239" lon="-4.899000199511647">
        <ele>2129.9400000000001</ele>
        <time>2019-03-11T13:45:02Z</time>
      </trkpt>
      <trkpt lat="32.538986904546618" lon="-4.898969521746039">
        <ele>2130.4200000000001</ele>
        <time>2019-03-11T13:45:03Z</time>
      </trkpt>
      <trkpt lat="32.53894105553627" lon="-4.898960385471582">
        <ele>2130.9000000000001</ele>
        <time>2019-03-11T13:45:04Z</time>
      </trkpt>
      <trkpt lat="32.538894368335605" lon="-4.898969857022166">
        <ele>2131.3800000000001</ele>
        <time>2019-03-11T13:45:05Z</time>
      </trkpt>
      <trkpt lat="32.538848351687193" lon="-4.898990727961063">
        <ele>2131.8600000000001</ele>
        <time>2019-03-11T13:45:06Z</time>
      </trkpt>
      <trkpt lat="32.538803424686193" lon="-4.899015706032515">
        <ele>2132.3400000000001</ele>
        <time>2019-03-11T13:45:08Z</time>
      </trkpt>
      <trkpt lat="32.538707032799721" lon="-4.899066332727671">
        <ele>2133.3000000000002</ele>
        <time>2019-03-11T13:45:09Z</time>
      </trkpt>
      <trkpt lat="32.538665626198053" lon="-4.899101369082928">
        <ele>2133.7800000000002</ele>
        <time>2019-03-11T13:45:10Z</time>
      </trkpt>
      <trkpt lat="32.53864056430757" lon="-4.899150989949703">
        <ele>2134.2600000000002</ele>
        <time>2019-03-11T13:45:11Z</time>
      </trkpt>
      <trkpt lat="32.538639809936285" lon="-4.899209830909967">
        <ele>2134.7399999999998</ele>
        <time>2019-03-11T13:45:12Z</time>
      </trkpt>
      <trkpt lat="32.538657579571009" lon="-4.899270851165056">
        <ele>2135.23</ele>
        <time>2019-03-11T13:45:13Z</time>
      </trkpt>
      <trkpt lat="32.538686161860824" lon="-4.899336146190763">
        <ele>2135.71</ele>
        <time>2019-03-11T13:45:14Z</time>
      </trkpt>
      <trkpt lat="32.538710301741958" lon="-4.89940982311964">
        <ele>2136.1900000000001</ele>
        <time>2019-03-11T13:45:15Z</time>
      </trkpt>
      <trkpt lat="32.538717174902558" lon="-4.899488864466548">
        <ele>2136.6700000000001</ele>
        <time>2019-03-11T13:45:16Z</time>
      </trkpt>
      <trkpt lat="32.538712816312909" lon="-4.899566061794758">
        <ele>2137.1500000000001</ele>
        <time>2019-03-11T13:45:17Z</time>
      </trkpt>
      <trkpt lat="32.538704518228769" lon="-4.899638816714287">
        <ele>2138.1100000000001</ele>
        <time>2019-03-11T13:45:18Z</time>
      </trkpt>
      <trkpt lat="32.53868792206049" lon="-4.899709643796086">
        <ele>2139.0700000000002</ele>
        <time>2019-03-11T13:45:19Z</time>
      </trkpt>
      <trkpt lat="32.538666045293212" lon="-4.899781476706266">
        <ele>2139.5500000000002</ele>
        <time>2019-03-11T13:45:21Z</time>
      </trkpt>
      <trkpt lat="32.538619106635451" lon="-4.899910809472203">
        <ele>2140.0300000000002</ele>
        <time>2019-03-11T13:45:22Z</time>
      </trkpt>
      <trkpt lat="32.538588847965002" lon="-4.899970991536975">
        <ele>2140.5100000000002</ele>
        <time>2019-03-11T13:45:23Z</time>
      </trkpt>
      <trkpt lat="32.538555655628443" lon="-4.90002061240375">
        <ele>2142.4400000000001</ele>
        <time>2019-03-11T13:45:24Z</time>
      </trkpt>
      <trkpt lat="32.538526067510247" lon="-4.9000543076545">
        <ele>2145.3200000000002</ele>
        <time>2019-03-11T13:45:25Z</time>
      </trkpt>
      <trkpt lat="32.538507040590048" lon="-4.900073166936636">
        <ele>2145.3200000000002</ele>
        <time>2019-03-11T13:45:34Z</time>
      </trkpt>
      <trkpt lat="32.538187438622117" lon="-4.900237787514925">
        <ele>2145.8000000000002</ele>
        <time>2019-03-11T13:45:41Z</time>
      </trkpt>
      <trkpt lat="32.537794495001435" lon="-4.900414729490876">
        <ele>2146.2800000000002</ele>
        <time>2019-03-11T13:45:42Z</time>
      </trkpt>
      <trkpt lat="32.537746382877231" lon="-4.900418249890208">
        <ele>2146.7600000000002</ele>
        <time>2019-03-11T13:45:43Z</time>
      </trkpt>
      <trkpt lat="32.537694582715631" lon="-4.900421351194382">
        <ele>2147.2399999999998</ele>
        <time>2019-03-11T13:45:44Z</time>
      </trkpt>
      <trkpt lat="32.537640687078238" lon="-4.900425542145968">
        <ele>2149.1599999999999</ele>
        <time>2019-03-11T13:45:45Z</time>
      </trkpt>
      <trkpt lat="32.53758461214602" lon="-4.9004290625453">
        <ele>2149.6500000000001</ele>
        <time>2019-03-11T13:45:46Z</time>
      </trkpt>
      <trkpt lat="32.537527782842517" lon="-4.900438953191042">
        <ele>2151.0900000000001</ele>
        <time>2019-03-11T13:45:50Z</time>
      </trkpt>
      <trkpt lat="32.537343129515648" lon="-4.90049553103745">
        <ele>2152.0500000000002</ele>
        <time>2019-03-11T13:45:51Z</time>
      </trkpt>
      <trkpt lat="32.537299543619156" lon="-4.900514725595713">
        <ele>2152.5300000000002</ele>
        <time>2019-03-11T13:45:55Z</time>
      </trkpt>
      <trkpt lat="32.537099048495293" lon="-4.90059913136065">
        <ele>2153.4899999999998</ele>
        <time>2019-03-11T13:45:56Z</time>
      </trkpt>
      <trkpt lat="32.537051439285278" lon="-4.900614889338613">
        <ele>2153.9699999999998</ele>
        <time>2019-03-11T13:45:57Z</time>
      </trkpt>
      <trkpt lat="32.537014475092292" lon="-4.90063676610589">
        <ele>2153.9699999999998</ele>
        <time>2019-03-11T13:45:58Z</time>
      </trkpt>
      <trkpt lat="32.536987569183111" lon="-4.900661911815405">
        <ele>2155.8899999999999</ele>
        <time>2019-03-11T13:45:59Z</time>
      </trkpt>
      <trkpt lat="32.536965440958738" lon="-4.900686135515571">
        <ele>2156.8600000000001</ele>
        <time>2019-03-11T13:46:00Z</time>
      </trkpt>
      <trkpt lat="32.536944653838873" lon="-4.90071153268218">
        <ele>2155.4099999999999</ele>
        <time>2019-03-11T13:46:10Z</time>
      </trkpt>
      <trkpt lat="32.536730831488967" lon="-4.900921750813723">
        <ele>2156.3699999999999</ele>
        <time>2019-03-11T13:46:15Z</time>
      </trkpt>
      <trkpt lat="32.536779781803489" lon="-4.901116378605366">
        <ele>2156.3699999999999</ele>
        <time>2019-03-11T13:46:21Z</time>
      </trkpt>
      <trkpt lat="32.536937696859241" lon="-4.901076732203364">
        <ele>2156.8600000000001</ele>
        <time>2019-03-11T13:46:29Z</time>
      </trkpt>
      <trkpt lat="32.537091337144375" lon="-4.900814881548286">
        <ele>2156.8600000000001</ele>
        <time>2019-03-11T13:46:30Z</time>
      </trkpt>
      <trkpt lat="32.537126038223505" lon="-4.900792753323913">
        <ele>2156.3699999999999</ele>
        <time>2019-03-11T13:46:31Z</time>
      </trkpt>
      <trkpt lat="32.537162499502301" lon="-4.900783700868487">
        <ele>2156.8600000000001</ele>
        <time>2019-03-11T13:46:32Z</time>
      </trkpt>
      <trkpt lat="32.537192171439528" lon="-4.900779174640775">
        <ele>2156.8600000000001</ele>
        <time>2019-03-11T13:46:33Z</time>
      </trkpt>
      <trkpt lat="32.537222849205136" lon="-4.90077942609787">
        <ele>2157.3400000000001</ele>
        <time>2019-03-11T13:46:34Z</time>
      </trkpt>
      <trkpt lat="32.537252688780427" lon="-4.900781102478504">
        <ele>2161.1799999999998</ele>
        <time>2019-03-11T13:46:35Z</time>
      </trkpt>
      <trkpt lat="32.537285126745701" lon="-4.900781521573663">
        <ele>2161.1799999999998</ele>
        <time>2019-03-11T13:46:37Z</time>
      </trkpt>
      <trkpt lat="32.537357127293944" lon="-4.900775318965316">
        <ele>2161.1799999999998</ele>
        <time>2019-03-11T13:46:48Z</time>
      </trkpt>
      <trkpt lat="32.537881499156356" lon="-4.900793256238103">
        <ele>2162.1399999999999</ele>
        <time>2019-03-11T13:46:49Z</time>
      </trkpt>
      <trkpt lat="32.537927264347672" lon="-4.900808846578002">
        <ele>2162.6199999999999</ele>
        <time>2019-03-11T13:46:50Z</time>
      </trkpt>
      <trkpt lat="32.53796867094934" lon="-4.900830136612058">
        <ele>2162.6199999999999</ele>
        <time>2019-03-11T13:46:51Z</time>
      </trkpt>
      <trkpt lat="32.538004210218787" lon="-4.900858886539936">
        <ele>2162.6199999999999</ele>
        <time>2019-03-11T13:46:52Z</time>
      </trkpt>
      <trkpt lat="32.538031619042158" lon="-4.900897946208715">
        <ele>2163.0999999999999</ele>
        <time>2019-03-11T13:46:53Z</time>
      </trkpt>
      <trkpt lat="32.538047796115279" lon="-4.90094605833292">
        <ele>2163.0999999999999</ele>
        <time>2019-03-11T13:46:54Z</time>
      </trkpt>
      <trkpt lat="32.538055758923292" lon="-4.901003977283835">
        <ele>2163.0999999999999</ele>
        <time>2019-03-11T13:46:55Z</time>
      </trkpt>
      <trkpt lat="32.538063554093242" lon="-4.901067260652781">
        <ele>2163.0999999999999</ele>
        <time>2019-03-11T13:46:56Z</time>
      </trkpt>
      <trkpt lat="32.538074366748333" lon="-4.901131885126233">
        <ele>2163.5799999999999</ele>
        <time>2019-03-11T13:46:57Z</time>
      </trkpt>
      <trkpt lat="32.538093645125628" lon="-4.901188546791673">
        <ele>2163.5799999999999</ele>
        <time>2019-03-11T13:46:58Z</time>
      </trkpt>
      <trkpt lat="32.538124490529299" lon="-4.901236072182655">
        <ele>2163.0999999999999</ele>
        <time>2019-03-11T13:46:59Z</time>
      </trkpt>
      <trkpt lat="32.538162628188729" lon="-4.901264822110534">
        <ele>2163.5799999999999</ele>
        <time>2019-03-11T13:47:00Z</time>
      </trkpt>
      <trkpt lat="32.538197999820113" lon="-4.901275550946593">
        <ele>2167.4299999999998</ele>
        <time>2019-03-11T13:47:01Z</time>
      </trkpt>
      <trkpt lat="32.53822767175734" lon="-4.901276053860784">
        <ele>2169.3499999999999</ele>
        <time>2019-03-11T13:47:11Z</time>
      </trkpt>
      <trkpt lat="32.538619944825768" lon="-4.901258954778314">
        <ele>2175.1199999999999</ele>
        <time>2019-03-11T13:47:22Z</time>
      </trkpt>
      <trkpt lat="32.539175245910883" lon="-4.901185613125563">
        <ele>2180.8899999999999</ele>
        <time>2019-03-11T13:47:29Z</time>
      </trkpt>
      <trkpt lat="32.539448579773307" lon="-4.901106404140592">
        <ele>2182.8099999999999</ele>
        <time>2019-03-11T13:47:44Z</time>
      </trkpt>
      <trkpt lat="32.540199095383286" lon="-4.900852097198367">
        <ele>2185.21</ele>
        <time>2019-03-11T13:47:57Z</time>
      </trkpt>
      <trkpt lat="32.540869312360883" lon="-4.90079409442842">
        <ele>2185.6900000000001</ele>
        <time>2019-03-11T13:48:02Z</time>
      </trkpt>
      <trkpt lat="32.541152285411954" lon="-4.900804152712226">
        <ele>2185.6900000000001</ele>
        <time>2019-03-11T13:48:14Z</time>
      </trkpt>
      <trkpt lat="32.541673639789224" lon="-4.900868777185679">
        <ele>2185.6900000000001</ele>
        <time>2019-03-11T13:48:18Z</time>
      </trkpt>
      <trkpt lat="32.54181076772511" lon="-4.900917476043105">
        <ele>2185.21</ele>
        <time>2019-03-11T13:48:19Z</time>
      </trkpt>
      <trkpt lat="32.541823089122772" lon="-4.900964079424739">
        <ele>2185.21</ele>
        <time>2019-03-11T13:48:20Z</time>
      </trkpt>
      <trkpt lat="32.541816215962172" lon="-4.901018310338259">
        <ele>2184.73</ele>
        <time>2019-03-11T13:48:21Z</time>
      </trkpt>
      <trkpt lat="32.541795345023274" lon="-4.901070864871144">
        <ele>2184.73</ele>
        <time>2019-03-11T13:48:22Z</time>
      </trkpt>
      <trkpt lat="32.541766092181206" lon="-4.901127610355616">
        <ele>2184.25</ele>
        <time>2019-03-11T13:48:23Z</time>
      </trkpt>
      <trkpt lat="32.541732396930456" lon="-4.901191145181656">
        <ele>2184.73</ele>
        <time>2019-03-11T13:48:29Z</time>
      </trkpt>
      <trkpt lat="32.541585126891732" lon="-4.90157931111753">
        <ele>2185.21</ele>
        <time>2019-03-11T13:48:34Z</time>
      </trkpt>
      <trkpt lat="32.541462080553174" lon="-4.901858177036047">
        <ele>2185.21</ele>
        <time>2019-03-11T13:48:36Z</time>
      </trkpt>
      <trkpt lat="32.541413800790906" lon="-4.901992036029697">
        <ele>2185.6900000000001</ele>
        <time>2019-03-11T13:48:38Z</time>
      </trkpt>
      <trkpt lat="32.541366778314114" lon="-4.902114747092128">
        <ele>2185.6900000000001</ele>
        <time>2019-03-11T13:48:39Z</time>
      </trkpt>
      <trkpt lat="32.541356217116117" lon="-4.90216663107276">
        <ele>2185.6900000000001</ele>
        <time>2019-03-11T13:48:40Z</time>
      </trkpt>
      <trkpt lat="32.541363090276718" lon="-4.902208540588617">
        <ele>2185.21</ele>
        <time>2019-03-11T13:48:44Z</time>
      </trkpt>
      <trkpt lat="32.541488567367196" lon="-4.902242152020335">
        <ele>2185.21</ele>
        <time>2019-03-11T13:48:45Z</time>
      </trkpt>
      <trkpt lat="32.541530560702085" lon="-4.902228740975261">
        <ele>2185.21</ele>
        <time>2019-03-11T13:48:46Z</time>
      </trkpt>
      <trkpt lat="32.541575571522117" lon="-4.902209965512157">
        <ele>2185.21</ele>
        <time>2019-03-11T13:48:47Z</time>
      </trkpt>
      <trkpt lat="32.541624270379543" lon="-4.902189513668418">
        <ele>2185.6900000000001</ele>
        <time>2019-03-11T13:48:48Z</time>
      </trkpt>
      <trkpt lat="32.541671711951494" lon="-4.902174342423677">
        <ele>2185.6900000000001</ele>
        <time>2019-03-11T13:48:49Z</time>
      </trkpt>
      <trkpt lat="32.541716974228621" lon="-4.902166211977601">
        <ele>2185.6900000000001</ele>
        <time>2019-03-11T13:48:50Z</time>
      </trkpt>
      <trkpt lat="32.541761230677366" lon="-4.902166798710823">
        <ele>2186.1799999999998</ele>
        <time>2019-03-11T13:48:51Z</time>
      </trkpt>
      <trkpt lat="32.541806157678366" lon="-4.902180042117834">
        <ele>2185.6900000000001</ele>
        <time>2019-03-11T13:48:52Z</time>
      </trkpt>
      <trkpt lat="32.541853431612253" lon="-4.902201918885112">
        <ele>2185.6900000000001</ele>
        <time>2019-03-11T13:48:53Z</time>
      </trkpt>
      <trkpt lat="32.541905818507075" lon="-4.902226477861404">
        <ele>2185.6900000000001</ele>
        <time>2019-03-11T13:48:55Z</time>
      </trkpt>
      <trkpt lat="32.542015872895718" lon="-4.902262939140201">
        <ele>2185.6900000000001</ele>
        <time>2019-03-11T13:48:58Z</time>
      </trkpt>
      <trkpt lat="32.542185354977846" lon="-4.902317589148879">
        <ele>2185.6900000000001</ele>
        <time>2019-03-11T13:48:59Z</time>
      </trkpt>
      <trkpt lat="32.542236652225256" lon="-4.902348602190614">
        <ele>2185.6900000000001</ele>
        <time>2019-03-11T13:49:00Z</time>
      </trkpt>
      <trkpt lat="32.542287111282349" lon="-4.902386907488108">
        <ele>2185.6900000000001</ele>
        <time>2019-03-11T13:49:02Z</time>
      </trkpt>
      <trkpt lat="32.542387694120407" lon="-4.902476258575916">
        <ele>2185.6900000000001</ele>
        <time>2019-03-11T13:49:03Z</time>
      </trkpt>
      <trkpt lat="32.542431699112058" lon="-4.90253116004169">
        <ele>2185.21</ele>
        <time>2019-03-11T13:49:04Z</time>
      </trkpt>
      <trkpt lat="32.542469250038266" lon="-4.902592431753874">
        <ele>2185.21</ele>
        <time>2019-03-11T13:49:06Z</time>
      </trkpt>
      <trkpt lat="32.542540580034256" lon="-4.9027153942734">
        <ele>2185.6900000000001</ele>
        <time>2019-03-11T13:49:07Z</time>
      </trkpt>
      <trkpt lat="32.542580729350448" lon="-4.90276962518692">
        <ele>2185.6900000000001</ele>
        <time>2019-03-11T13:49:08Z</time>
      </trkpt>
      <trkpt lat="32.542620543390512" lon="-4.902818240225315">
        <ele>2185.21</ele>
        <time>2019-03-11T13:49:09Z</time>
      </trkpt>
      <trkpt lat="32.542645689100027" lon="-4.902868112549186">
        <ele>2185.21</ele>
        <time>2019-03-11T13:49:10Z</time>
      </trkpt>
      <trkpt lat="32.54265122115612" lon="-4.902926199138165">
        <ele>2185.21</ele>
        <time>2019-03-11T13:49:11Z</time>
      </trkpt>
      <trkpt lat="32.542639067396522" lon="-4.902991494163871">
        <ele>2184.73</ele>
        <time>2019-03-11T13:49:12Z</time>
      </trkpt>
      <trkpt lat="32.54261702299118" lon="-4.903062991797924">
        <ele>2184.73</ele>
        <time>2019-03-11T13:49:13Z</time>
      </trkpt>
      <trkpt lat="32.542593721300364" lon="-4.903135998174548">
        <ele>2184.73</ele>
        <time>2019-03-11T13:49:16Z</time>
      </trkpt>
      <trkpt lat="32.54253395833075" lon="-4.903339175507426">
        <ele>2184.25</ele>
        <time>2019-03-11T13:49:17Z</time>
      </trkpt>
      <trkpt lat="32.542508142068982" lon="-4.90339650772512">
        <ele>2184.25</ele>
        <time>2019-03-11T13:49:18Z</time>
      </trkpt>
      <trkpt lat="32.542477967217565" lon="-4.903446715325117">
        <ele>2184.25</ele>
        <time>2019-03-11T13:49:19Z</time>
      </trkpt>
      <trkpt lat="32.542445696890354" lon="-4.903491055592895">
        <ele>2184.25</ele>
        <time>2019-03-11T13:49:20Z</time>
      </trkpt>
      <trkpt lat="32.542408565059304" lon="-4.90352894179523">
        <ele>2183.77</ele>
        <time>2019-03-11T13:49:21Z</time>
      </trkpt>
      <trkpt lat="32.5423673260957" lon="-4.903559368103743">
        <ele>2182.8099999999999</ele>
        <time>2019-03-11T13:49:22Z</time>
      </trkpt>
      <trkpt lat="32.542327092960477" lon="-4.90358266979456">
        <ele>2182.8099999999999</ele>
        <time>2019-03-11T13:49:23Z</time>
      </trkpt>
      <trkpt lat="32.542286105453968" lon="-4.903603959828615">
        <ele>2182.3299999999999</ele>
        <time>2019-03-11T13:49:34Z</time>
      </trkpt>
      <trkpt lat="32.541782855987549" lon="-4.903953149914742">
        <ele>2180.8899999999999</ele>
        <time>2019-03-11T13:49:35Z</time>
      </trkpt>
      <trkpt lat="32.541726110503078" lon="-4.903975613415241">
        <ele>2180.8899999999999</ele>
        <time>2019-03-11T13:49:36Z</time>
      </trkpt>
      <trkpt lat="32.54166710190475" lon="-4.903993047773838">
        <ele>2179.4499999999998</ele>
        <time>2019-03-11T13:49:45Z</time>
      </trkpt>
      <trkpt lat="32.541157566010952" lon="-4.904095726087689">
        <ele>2177.04</ele>
        <time>2019-03-11T13:49:46Z</time>
      </trkpt>
      <trkpt lat="32.541123200207949" lon="-4.904126403853297">
        <ele>2175.5999999999999</ele>
        <time>2019-03-11T13:49:57Z</time>
      </trkpt>
      <trkpt lat="32.540938630700111" lon="-4.904440641403198">
        <ele>2175.5999999999999</ele>
        <time>2019-03-11T13:50:09Z</time>
      </trkpt>
      <trkpt lat="32.540841735899448" lon="-4.904918326064944">
        <ele>2175.5999999999999</ele>
        <time>2019-03-11T13:50:20Z</time>
      </trkpt>
      <trkpt lat="32.540563875809312" lon="-4.905271204188466">
        <ele>2176.0799999999999</ele>
        <time>2019-03-11T13:50:21Z</time>
      </trkpt>
      <trkpt lat="32.540523558855057" lon="-4.905286459252238">
        <ele>2175.5999999999999</ele>
        <time>2019-03-11T13:50:22Z</time>
      </trkpt>
      <trkpt lat="32.540485253557563" lon="-4.905311269685626">
        <ele>2175.5999999999999</ele>
        <time>2019-03-11T13:50:23Z</time>
      </trkpt>
      <trkpt lat="32.540449379011989" lon="-4.905344629660249">
        <ele>2175.1199999999999</ele>
        <time>2019-03-11T13:50:33Z</time>
      </trkpt>
      <trkpt lat="32.540258355438709" lon="-4.905658699572086">
        <ele>2173.6799999999998</ele>
        <time>2019-03-11T13:50:36Z</time>
      </trkpt>
      <trkpt lat="32.540259780362248" lon="-4.905758192762733">
        <ele>2172.7199999999998</ele>
        <time>2019-03-11T13:50:37Z</time>
      </trkpt>
      <trkpt lat="32.540281908586621" lon="-4.905785350129008">
        <ele>2172.7199999999998</ele>
        <time>2019-03-11T13:50:49Z</time>
      </trkpt>
      <trkpt lat="32.540401099249721" lon="-4.906186172738671">
        <ele>2172.2399999999998</ele>
        <time>2019-03-11T13:51:00Z</time>
      </trkpt>
      <trkpt lat="32.540459102019668" lon="-4.906621361151338">
        <ele>2172.2399999999998</ele>
        <time>2019-03-11T13:51:01Z</time>
      </trkpt>
      <trkpt lat="32.540471842512488" lon="-4.906671149656177">
        <ele>2171.7600000000002</ele>
        <time>2019-03-11T13:51:03Z</time>
      </trkpt>
      <trkpt lat="32.540484834462404" lon="-4.906775420531631">
        <ele>2171.27</ele>
        <time>2019-03-11T13:51:04Z</time>
      </trkpt>
      <trkpt lat="32.540483074262738" lon="-4.906826298683882">
        <ele>2171.27</ele>
        <time>2019-03-11T13:51:05Z</time>
      </trkpt>
      <trkpt lat="32.540476955473423" lon="-4.906874662265182">
        <ele>2170.3099999999999</ele>
        <time>2019-03-11T13:51:06Z</time>
      </trkpt>
      <trkpt lat="32.540465975180268" lon="-4.906920427456498">
        <ele>2170.3099999999999</ele>
        <time>2019-03-11T13:51:07Z</time>
      </trkpt>
      <trkpt lat="32.540450720116496" lon="-4.906969126313925">
        <ele>2169.8299999999999</ele>
        <time>2019-03-11T13:51:19Z</time>
      </trkpt>
      <trkpt lat="32.540194820612669" lon="-4.907566085457802">
        <ele>2169.8299999999999</ele>
        <time>2019-03-11T13:51:20Z</time>
      </trkpt>
      <trkpt lat="32.540162047371268" lon="-4.907616879791021">
        <ele>2169.8299999999999</ele>
        <time>2019-03-11T13:51:21Z</time>
      </trkpt>
      <trkpt lat="32.540127346292138" lon="-4.907662812620401">
        <ele>2169.8299999999999</ele>
        <time>2019-03-11T13:51:22Z</time>
      </trkpt>
      <trkpt lat="32.5400878675282" lon="-4.907700447365642">
        <ele>2168.8699999999999</ele>
        <time>2019-03-11T13:51:23Z</time>
      </trkpt>
      <trkpt lat="32.540043611079454" lon="-4.907731208950281">
        <ele>2168.8699999999999</ele>
        <time>2019-03-11T13:51:24Z</time>
      </trkpt>
      <trkpt lat="32.539995750412345" lon="-4.907759036868811">
        <ele>2168.3899999999999</ele>
        <time>2019-03-11T13:51:31Z</time>
      </trkpt>
      <trkpt lat="32.53968863748014" lon="-4.907923741266131">
        <ele>2168.3899999999999</ele>
        <time>2019-03-11T13:51:35Z</time>
      </trkpt>
      <trkpt lat="32.539709424600005" lon="-4.90806095302105">
        <ele>2167.9099999999999</ele>
        <time>2019-03-11T13:51:37Z</time>
      </trkpt>
      <trkpt lat="32.539744544774294" lon="-4.908149633556604">
        <ele>2168.3899999999999</ele>
        <time>2019-03-11T13:51:38Z</time>
      </trkpt>
      <trkpt lat="32.539746556431055" lon="-4.908202607184649">
        <ele>2168.3899999999999</ele>
        <time>2019-03-11T13:51:39Z</time>
      </trkpt>
      <trkpt lat="32.539740856736898" lon="-4.908251306042075">
        <ele>2168.3899999999999</ele>
        <time>2019-03-11T13:51:40Z</time>
      </trkpt>
      <trkpt lat="32.539726523682475" lon="-4.908296316862106">
        <ele>2168.8699999999999</ele>
        <time>2019-03-11T13:51:41Z</time>
      </trkpt>
      <trkpt lat="32.53970087505877" lon="-4.908340238034725">
        <ele>2168.8699999999999</ele>
        <time>2019-03-11T13:51:42Z</time>
      </trkpt>
      <trkpt lat="32.539670784026384" lon="-4.908381476998329">
        <ele>2169.3499999999999</ele>
        <time>2019-03-11T13:51:43Z</time>
      </trkpt>
      <trkpt lat="32.539636334404349" lon="-4.908421877771616">
        <ele>2169.8299999999999</ele>
        <time>2019-03-11T13:51:44Z</time>
      </trkpt>
      <trkpt lat="32.539606913924217" lon="-4.908464122563601">
        <ele>2169.8299999999999</ele>
        <time>2019-03-11T13:51:45Z</time>
      </trkpt>
      <trkpt lat="32.539590317755938" lon="-4.908507708460093">
        <ele>2169.8299999999999</ele>
        <time>2019-03-11T13:51:49Z</time>
      </trkpt>
      <trkpt lat="32.539669275283813" lon="-4.908626480028033">
        <ele>2169.8299999999999</ele>
        <time>2019-03-11T13:52:00Z</time>
      </trkpt>
      <trkpt lat="32.540096752345562" lon="-4.908695463091135">
        <ele>2169.3499999999999</ele>
        <time>2019-03-11T13:52:01Z</time>
      </trkpt>
      <trkpt lat="32.540145786479115" lon="-4.908689763396978">
        <ele>2169.3499999999999</ele>
        <time>2019-03-11T13:52:02Z</time>
      </trkpt>
      <trkpt lat="32.540191216394305" lon="-4.908675933256745">
        <ele>2169.3499999999999</ele>
        <time>2019-03-11T13:52:12Z</time>
      </trkpt>
      <trkpt lat="32.540551805868745" lon="-4.908624468371272">
        <ele>2169.8299999999999</ele>
        <time>2019-03-11T13:52:13Z</time>
      </trkpt>
      <trkpt lat="32.540595727041364" lon="-4.908610135316849">
        <ele>2169.8299999999999</ele>
        <time>2019-03-11T13:52:14Z</time>
      </trkpt>
      <trkpt lat="32.540643336251378" lon="-4.908593790605664">
        <ele>2169.8299999999999</ele>
        <time>2019-03-11T13:52:15Z</time>
      </trkpt>
      <trkpt lat="32.540695304051042" lon="-4.908581636846066">
        <ele>2169.3499999999999</ele>
        <time>2019-03-11T13:52:16Z</time>
      </trkpt>
      <trkpt lat="32.540750540792942" lon="-4.908575098961592">
        <ele>2169.3499999999999</ele>
        <time>2019-03-11T13:52:17Z</time>
      </trkpt>
      <trkpt lat="32.540807705372572" lon="-4.908571997657418">
        <ele>2168.8699999999999</ele>
        <time>2019-03-11T13:52:24Z</time>
      </trkpt>
      <trkpt lat="32.54112764261663" lon="-4.908522879704833">
        <ele>2168.8699999999999</ele>
        <time>2019-03-11T13:52:25Z</time>
      </trkpt>
      <trkpt lat="32.54117215052247" lon="-4.9085349496454">
        <ele>2168.8699999999999</ele>
        <time>2019-03-11T13:52:26Z</time>
      </trkpt>
      <trkpt lat="32.541218670085073" lon="-4.908556323498488">
        <ele>2167.4299999999998</ele>
        <time>2019-03-11T13:52:27Z</time>
      </trkpt>
      <trkpt lat="32.541266363114119" lon="-4.908584486693144">
        <ele>2167.4299999999998</ele>
        <time>2019-03-11T13:52:28Z</time>
      </trkpt>
      <trkpt lat="32.541312212124467" lon="-4.908618768677115">
        <ele>2166.9499999999998</ele>
        <time>2019-03-11T13:52:33Z</time>
      </trkpt>
      <trkpt lat="32.54153911024332" lon="-4.908765871077776">
        <ele>2166.9499999999998</ele>
        <time>2019-03-11T13:52:34Z</time>
      </trkpt>
      <trkpt lat="32.541588144376874" lon="-4.908782551065087">
        <ele>2166.9499999999998</ele>
        <time>2019-03-11T13:52:35Z</time>
      </trkpt>
      <trkpt lat="32.541634328663349" lon="-4.908797387033701">
        <ele>2166.9499999999998</ele>
        <time>2019-03-11T13:52:36Z</time>
      </trkpt>
      <trkpt lat="32.541673555970192" lon="-4.90881834179163">
        <ele>2166.4699999999998</ele>
        <time>2019-03-11T13:52:37Z</time>
      </trkpt>
      <trkpt lat="32.541706915944815" lon="-4.908848181366921">
        <ele>2166.4699999999998</ele>
        <time>2019-03-11T13:52:38Z</time>
      </trkpt>
      <trkpt lat="32.541735330596566" lon="-4.908885983750224">
        <ele>2166.4699999999998</ele>
        <time>2019-03-11T13:52:39Z</time>
      </trkpt>
      <trkpt lat="32.541758632287383" lon="-4.908928731456399">
        <ele>2166.4699999999998</ele>
        <time>2019-03-11T13:52:40Z</time>
      </trkpt>
      <trkpt lat="32.541778748854995" lon="-4.908976592123509">
        <ele>2165.9899999999998</ele>
        <time>2019-03-11T13:52:41Z</time>
      </trkpt>
      <trkpt lat="32.541796686127782" lon="-4.909024201333523">
        <ele>2165.0300000000002</ele>
        <time>2019-03-11T13:52:42Z</time>
      </trkpt>
      <trkpt lat="32.541810600087047" lon="-4.909070720896125">
        <ele>2164.5500000000002</ele>
        <time>2019-03-11T13:52:43Z</time>
      </trkpt>
      <trkpt lat="32.541821245104074" lon="-4.909118665382266">
        <ele>2164.5500000000002</ele>
        <time>2019-03-11T13:52:54Z</time>
      </trkpt>
      <trkpt lat="32.541916631162167" lon="-4.909654101356864">
        <ele>2164.5500000000002</ele>
        <time>2019-03-11T13:52:55Z</time>
      </trkpt>
      <trkpt lat="32.541919564828277" lon="-4.909706991165876">
        <ele>2164.5500000000002</ele>
        <time>2019-03-11T13:52:56Z</time>
      </trkpt>
      <trkpt lat="32.541914284229279" lon="-4.9097540974617">
        <ele>2164.5500000000002</ele>
        <time>2019-03-11T13:52:57Z</time>
      </trkpt>
      <trkpt lat="32.541898526251316" lon="-4.909793911501765">
        <ele>2164.5500000000002</ele>
        <time>2019-03-11T13:52:58Z</time>
      </trkpt>
      <trkpt lat="32.541872374713421" lon="-4.909825008362532">
        <ele>2164.5500000000002</ele>
        <time>2019-03-11T13:52:59Z</time>
      </trkpt>
      <trkpt lat="32.541837422177196" lon="-4.909849902614951">
        <ele>2164.5500000000002</ele>
        <time>2019-03-11T13:53:00Z</time>
      </trkpt>
      <trkpt lat="32.541798697784543" lon="-4.909872114658356">
        <ele>2164.0599999999999</ele>
        <time>2019-03-11T13:53:01Z</time>
      </trkpt>
      <trkpt lat="32.541754441335797" lon="-4.909902792423964">
        <ele>2163.5799999999999</ele>
        <time>2019-03-11T13:53:02Z</time>
      </trkpt>
      <trkpt lat="32.541710436344147" lon="-4.90994218736887">
        <ele>2163.0999999999999</ele>
        <time>2019-03-11T13:53:03Z</time>
      </trkpt>
      <trkpt lat="32.541669784113765" lon="-4.909985940903425">
        <ele>2163.0999999999999</ele>
        <time>2019-03-11T13:53:04Z</time>
      </trkpt>
      <trkpt lat="32.541628964245319" lon="-4.910030113533139">
        <ele>2162.6199999999999</ele>
        <time>2019-03-11T13:53:06Z</time>
      </trkpt>
      <trkpt lat="32.541541289538145" lon="-4.910107897594571">
        <ele>2162.6199999999999</ele>
        <time>2019-03-11T13:53:07Z</time>
      </trkpt>
      <trkpt lat="32.541501056402922" lon="-4.910126086324453">
        <ele>2162.6199999999999</ele>
        <time>2019-03-11T13:53:08Z</time>
      </trkpt>
      <trkpt lat="32.541456967592239" lon="-4.910129019990563">
        <ele>2162.6199999999999</ele>
        <time>2019-03-11T13:53:09Z</time>
      </trkpt>
      <trkpt lat="32.541407346725464" lon="-4.910120135173202">
        <ele>2162.6199999999999</ele>
        <time>2019-03-11T13:53:10Z</time>
      </trkpt>
      <trkpt lat="32.541349260136485" lon="-4.910105718299747">
        <ele>2162.1399999999999</ele>
        <time>2019-03-11T13:53:11Z</time>
      </trkpt>
      <trkpt lat="32.541286312043667" lon="-4.910096246749163">
        <ele>2162.1399999999999</ele>
        <time>2019-03-11T13:53:12Z</time>
      </trkpt>
      <trkpt lat="32.541219172999263" lon="-4.910098342224956">
        <ele>2161.6599999999999</ele>
        <time>2019-03-11T13:53:13Z</time>
      </trkpt>
      <trkpt lat="32.541148597374558" lon="-4.910111837089062">
        <ele>2160.6999999999998</ele>
        <time>2019-03-11T13:53:14Z</time>
      </trkpt>
      <trkpt lat="32.541079949587584" lon="-4.91013371385634">
        <ele>2159.7399999999998</ele>
        <time>2019-03-11T13:53:15Z</time>
      </trkpt>
      <trkpt lat="32.541015325114131" lon="-4.910154081881046">
        <ele>2159.2600000000002</ele>
        <time>2019-03-11T13:53:24Z</time>
      </trkpt>
      <trkpt lat="32.540541747584939" lon="-4.910290623083711">
        <ele>2159.2600000000002</ele>
        <time>2019-03-11T13:53:29Z</time>
      </trkpt>
      <trkpt lat="32.540513752028346" lon="-4.910446023568511">
        <ele>2159.2600000000002</ele>
        <time>2019-03-11T13:53:30Z</time>
      </trkpt>
      <trkpt lat="32.540513416752219" lon="-4.910482652485371">
        <ele>2159.2600000000002</ele>
        <time>2019-03-11T13:53:31Z</time>
      </trkpt>
      <trkpt lat="32.540510902181268" lon="-4.910516850650311">
        <ele>2159.7399999999998</ele>
        <time>2019-03-11T13:53:32Z</time>
      </trkpt>
      <trkpt lat="32.540506543591619" lon="-4.910548031330109">
        <ele>2159.7399999999998</ele>
        <time>2019-03-11T13:53:33Z</time>
      </trkpt>
      <trkpt lat="32.540497574955225" lon="-4.910579212009907">
        <ele>2159.7399999999998</ele>
        <time>2019-03-11T13:53:34Z</time>
      </trkpt>
      <trkpt lat="32.540488690137863" lon="-4.91061357781291">
        <ele>2158.3000000000002</ele>
        <time>2019-03-11T13:53:35Z</time>
      </trkpt>
      <trkpt lat="32.540480308234692" lon="-4.910647440701723">
        <ele>2158.3000000000002</ele>
        <time>2019-03-11T13:53:36Z</time>
      </trkpt>
      <trkpt lat="32.540470836684108" lon="-4.910682896152139">
        <ele>2158.3000000000002</ele>
        <time>2019-03-11T13:53:43Z</time>
      </trkpt>
      <trkpt lat="32.540461448952556" lon="-4.911011550575495">
        <ele>2158.3000000000002</ele>
        <time>2019-03-11T13:53:44Z</time>
      </trkpt>
      <trkpt lat="32.540467651560903" lon="-4.911065446212888">
        <ele>2158.3000000000002</ele>
        <time>2019-03-11T13:53:54Z</time>
      </trkpt>
      <trkpt lat="32.540579382330179" lon="-4.9114412907511">
        <ele>2157.8200000000002</ele>
        <time>2019-03-11T13:53:59Z</time>
      </trkpt>
      <trkpt lat="32.540596229955554" lon="-4.91167388856411">
        <ele>2157.3400000000001</ele>
        <time>2019-03-11T13:54:00Z</time>
      </trkpt>
      <trkpt lat="32.540613748133183" lon="-4.911718899384141">
        <ele>2157.3400000000001</ele>
        <time>2019-03-11T13:54:02Z</time>
      </trkpt>
      <trkpt lat="32.540660602971911" lon="-4.911815878003836">
        <ele>2156.8600000000001</ele>
        <time>2019-03-11T13:54:03Z</time>
      </trkpt>
      <trkpt lat="32.540673594921827" lon="-4.911870611831546">
        <ele>2156.3699999999999</ele>
        <time>2019-03-11T13:54:04Z</time>
      </trkpt>
      <trkpt lat="32.540676696226001" lon="-4.911924172192812">
        <ele>2156.3699999999999</ele>
        <time>2019-03-11T13:54:05Z</time>
      </trkpt>
      <trkpt lat="32.540674852207303" lon="-4.911971613764763">
        <ele>2156.3699999999999</ele>
        <time>2019-03-11T13:54:06Z</time>
      </trkpt>
      <trkpt lat="32.540671834722161" lon="-4.91201251745224">
        <ele>2156.8600000000001</ele>
        <time>2019-03-11T13:54:19Z</time>
      </trkpt>
      <trkpt lat="32.540572341531515" lon="-4.912376459687948">
        <ele>2156.8600000000001</ele>
        <time>2019-03-11T13:54:24Z</time>
      </trkpt>
      <trkpt lat="32.540534120053053" lon="-4.912513587623835">
        <ele>2156.8600000000001</ele>
        <time>2019-03-11T13:54:28Z</time>
      </trkpt>
      <trkpt lat="32.540627913549542" lon="-4.912605956196785">
        <ele>2156.8600000000001</ele>
        <time>2019-03-11T13:54:29Z</time>
      </trkpt>
      <trkpt lat="32.540648533031344" lon="-4.912640070542693">
        <ele>2156.8600000000001</ele>
        <time>2019-03-11T13:54:30Z</time>
      </trkpt>
      <trkpt lat="32.540660602971911" lon="-4.912675274536014">
        <ele>2156.8600000000001</ele>
        <time>2019-03-11T13:54:31Z</time>
      </trkpt>
      <trkpt lat="32.540663871914148" lon="-4.9127156753093">
        <ele>2156.3699999999999</ele>
        <time>2019-03-11T13:54:32Z</time>
      </trkpt>
      <trkpt lat="32.540656831115484" lon="-4.912756998091936">
        <ele>2156.3699999999999</ele>
        <time>2019-03-11T13:54:33Z</time>
      </trkpt>
      <trkpt lat="32.540638893842697" lon="-4.912795135751367">
        <ele>2156.3699999999999</ele>
        <time>2019-03-11T13:54:34Z</time>
      </trkpt>
      <trkpt lat="32.540616514161229" lon="-4.912829166278243">
        <ele>2156.3699999999999</ele>
        <time>2019-03-11T13:54:35Z</time>
      </trkpt>
      <trkpt lat="32.540589775890112" lon="-4.912859676405788">
        <ele>2156.8600000000001</ele>
        <time>2019-03-11T13:54:36Z</time>
      </trkpt>
      <trkpt lat="32.540561696514487" lon="-4.912885576486588">
        <ele>2156.8600000000001</ele>
        <time>2019-03-11T13:54:37Z</time>
      </trkpt>
      <trkpt lat="32.540532192215323" lon="-4.912909213453531">
        <ele>2155.8899999999999</ele>
        <time>2019-03-11T13:54:40Z</time>
      </trkpt>
      <trkpt lat="32.540480559691787" lon="-4.912984063848853">
        <ele>2155.4099999999999</ele>
        <time>2019-03-11T13:54:44Z</time>
      </trkpt>
      <trkpt lat="32.540503023192286" lon="-4.913060003891587">
        <ele>2155.4099999999999</ele>
        <time>2019-03-11T13:54:55Z</time>
      </trkpt>
      <trkpt lat="32.540837377309799" lon="-4.913157988339663">
        <ele>2154.9299999999998</ele>
        <time>2019-03-11T13:54:59Z</time>
      </trkpt>
      <trkpt lat="32.540972158312798" lon="-4.913242561742663">
        <ele>2154.9299999999998</ele>
        <time>2019-03-11T13:55:00Z</time>
      </trkpt>
      <trkpt lat="32.541016917675734" lon="-4.913278184831142">
        <ele>2154.9299999999998</ele>
        <time>2019-03-11T13:55:01Z</time>
      </trkpt>
      <trkpt lat="32.541063521057367" lon="-4.913305258378387">
        <ele>2154.4499999999998</ele>
        <time>2019-03-11T13:55:02Z</time>
      </trkpt>
      <trkpt lat="32.541111465543509" lon="-4.913321100175381">
        <ele>2153.9699999999998</ele>
        <time>2019-03-11T13:55:03Z</time>
      </trkpt>
      <trkpt lat="32.541155386716127" lon="-4.913332751020789">
        <ele>2153.0100000000002</ele>
        <time>2019-03-11T13:55:13Z</time>
      </trkpt>
      <trkpt lat="32.541378512978554" lon="-4.913634583353996">
        <ele>2152.0500000000002</ele>
        <time>2019-03-11T13:55:18Z</time>
      </trkpt>
      <trkpt lat="32.541444813832641" lon="-4.913735250011087">
        <ele>2151.5700000000002</ele>
        <time>2019-03-11T13:55:28Z</time>
      </trkpt>
      <trkpt lat="32.541704066097736" lon="-4.91390397772193">
        <ele>2151.5700000000002</ele>
        <time>2019-03-11T13:55:42Z</time>
      </trkpt>
      <trkpt lat="32.541902884840965" lon="-4.914268087595701">
        <ele>2150.6100000000001</ele>
        <time>2019-03-11T13:55:44Z</time>
      </trkpt>
      <trkpt lat="32.541948650032282" lon="-4.914336148649454">
        <ele>2150.1300000000001</ele>
        <time>2019-03-11T13:55:45Z</time>
      </trkpt>
      <trkpt lat="32.541968682780862" lon="-4.914379483088851">
        <ele>2149.1599999999999</ele>
        <time>2019-03-11T13:55:53Z</time>
      </trkpt>
      <trkpt lat="32.54211662337184" lon="-4.914629179984331">
        <ele>2148.6799999999998</ele>
        <time>2019-03-11T13:56:05Z</time>
      </trkpt>
      <trkpt lat="32.542296499013901" lon="-4.914680644869804">
        <ele>2148.6799999999998</ele>
        <time>2019-03-11T13:56:14Z</time>
      </trkpt>
      <trkpt lat="32.542433626949787" lon="-4.914956828579307">
        <ele>2149.6500000000001</ele>
        <time>2019-03-11T13:56:25Z</time>
      </trkpt>
      <trkpt lat="32.542630769312382" lon="-4.915308449417353">
        <ele>2149.1599999999999</ele>
        <time>2019-03-11T13:56:38Z</time>
      </trkpt>
      <trkpt lat="32.542767394334078" lon="-4.915689742192626">
        <ele>2150.1300000000001</ele>
        <time>2019-03-11T13:56:50Z</time>
      </trkpt>
      <trkpt lat="32.542722132056952" lon="-4.91605980321765">
        <ele>2150.1300000000001</ele>
        <time>2019-03-11T13:56:52Z</time>
      </trkpt>
      <trkpt lat="32.54273135215044" lon="-4.916126858443022">
        <ele>2149.6500000000001</ele>
        <time>2019-03-11T13:56:57Z</time>
      </trkpt>
      <trkpt lat="32.542888093739748" lon="-4.916219897568226">
        <ele>2149.6500000000001</ele>
        <time>2019-03-11T13:56:58Z</time>
      </trkpt>
      <trkpt lat="32.542932266369462" lon="-4.916246887296438">
        <ele>2149.6500000000001</ele>
        <time>2019-03-11T13:56:59Z</time>
      </trkpt>
      <trkpt lat="32.542972164228559" lon="-4.916286617517471">
        <ele>2149.6500000000001</ele>
        <time>2019-03-11T13:57:00Z</time>
      </trkpt>
      <trkpt lat="32.54300544038415" lon="-4.916337076574564">
        <ele>2149.1599999999999</ele>
        <time>2019-03-11T13:57:01Z</time>
      </trkpt>
      <trkpt lat="32.543031089007854" lon="-4.91639306768775">
        <ele>2148.6799999999998</ele>
        <time>2019-03-11T13:57:02Z</time>
      </trkpt>
      <trkpt lat="32.5430528819561" lon="-4.916438413783908">
        <ele>2148.1999999999998</ele>
        <time>2019-03-11T13:57:03Z</time>
      </trkpt>
      <trkpt lat="32.5430753454566" lon="-4.916467918083072">
        <ele>2146.7600000000002</ele>
        <time>2019-03-11T13:57:04Z</time>
      </trkpt>
      <trkpt lat="32.543103508651257" lon="-4.916482921689749">
        <ele>2146.7600000000002</ele>
        <time>2019-03-11T13:57:05Z</time>
      </trkpt>
      <trkpt lat="32.543139047920704" lon="-4.916491722688079">
        <ele>2146.7600000000002</ele>
        <time>2019-03-11T13:57:11Z</time>
      </trkpt>
      <trkpt lat="32.543296879157424" lon="-4.916594149544835">
        <ele>2146.7600000000002</ele>
        <time>2019-03-11T13:57:12Z</time>
      </trkpt>
      <trkpt lat="32.543322863057256" lon="-4.9166374001652">
        <ele>2146.2800000000002</ele>
        <time>2019-03-11T13:57:13Z</time>
      </trkpt>
      <trkpt lat="32.543341554701328" lon="-4.916692804545164">
        <ele>2146.2800000000002</ele>
        <time>2019-03-11T13:57:14Z</time>
      </trkpt>
      <trkpt lat="32.543351529166102" lon="-4.916759608313441">
        <ele>2146.2800000000002</ele>
        <time>2019-03-11T13:57:15Z</time>
      </trkpt>
      <trkpt lat="32.543352032080293" lon="-4.916829848662019">
        <ele>2146.7600000000002</ele>
        <time>2019-03-11T13:57:16Z</time>
      </trkpt>
      <trkpt lat="32.54334457218647" lon="-4.916898999363184">
        <ele>2146.7600000000002</ele>
        <time>2019-03-11T13:57:17Z</time>
      </trkpt>
      <trkpt lat="32.543330993503332" lon="-4.916966892778873">
        <ele>2146.7600000000002</ele>
        <time>2019-03-11T13:57:18Z</time>
      </trkpt>
      <trkpt lat="32.543313642963767" lon="-4.917028835043311">
        <ele>2146.7600000000002</ele>
        <time>2019-03-11T13:57:24Z</time>
      </trkpt>
      <trkpt lat="32.543190764263272" lon="-4.917391100898385">
        <ele>2148.1999999999998</ele>
        <time>2019-03-11T13:57:25Z</time>
      </trkpt>
      <trkpt lat="32.543158661574125" lon="-4.91745438426733">
        <ele>2147.2399999999998</ele>
        <time>2019-03-11T13:57:26Z</time>
      </trkpt>
      <trkpt lat="32.543121697381139" lon="-4.917518422007561">
        <ele>2147.2399999999998</ele>
        <time>2019-03-11T13:57:36Z</time>
      </trkpt>
      <trkpt lat="32.542864205315709" lon="-4.917959226295352">
        <ele>2147.7199999999998</ele>
        <time>2019-03-11T13:57:42Z</time>
      </trkpt>
      <trkpt lat="32.542829168960452" lon="-4.918090989813209">
        <ele>2147.2399999999998</ele>
        <time>2019-03-11T13:57:43Z</time>
      </trkpt>
      <trkpt lat="32.542810393497348" lon="-4.918136587366462">
        <ele>2147.2399999999998</ele>
        <time>2019-03-11T13:57:50Z</time>
      </trkpt>
      <trkpt lat="32.542750714346766" lon="-4.91831386461854">
        <ele>2147.2399999999998</ele>
        <time>2019-03-11T13:57:58Z</time>
      </trkpt>
      <trkpt lat="32.542783236131072" lon="-4.91858946159482">
        <ele>2147.7199999999998</ele>
        <time>2019-03-11T13:57:59Z</time>
      </trkpt>
      <trkpt lat="32.542777536436915" lon="-4.918638495728374">
        <ele>2147.7199999999998</ele>
        <time>2019-03-11T13:58:00Z</time>
      </trkpt>
      <trkpt lat="32.542757336050272" lon="-4.918687278404832">
        <ele>2147.2399999999998</ele>
        <time>2019-03-11T13:58:01Z</time>
      </trkpt>
      <trkpt lat="32.542729591950774" lon="-4.918731367215514">
        <ele>2146.7600000000002</ele>
        <time>2019-03-11T13:58:02Z</time>
      </trkpt>
      <trkpt lat="32.542701847851276" lon="-4.918769840151072">
        <ele>2146.2800000000002</ele>
        <time>2019-03-11T13:58:09Z</time>
      </trkpt>
      <trkpt lat="32.54269321449101" lon="-4.919008137658238">
        <ele>2146.2800000000002</ele>
        <time>2019-03-11T13:58:10Z</time>
      </trkpt>
      <trkpt lat="32.542696902528405" lon="-4.919060273095965">
        <ele>2146.2800000000002</ele>
        <time>2019-03-11T13:58:11Z</time>
      </trkpt>
      <trkpt lat="32.542689945548773" lon="-4.919111402705312">
        <ele>2146.2800000000002</ele>
        <time>2019-03-11T13:58:12Z</time>
      </trkpt>
      <trkpt lat="32.542676283046603" lon="-4.919161610305309">
        <ele>2146.2800000000002</ele>
        <time>2019-03-11T13:58:13Z</time>
      </trkpt>
      <trkpt lat="32.542653400450945" lon="-4.919213242828846">
        <ele>2146.2800000000002</ele>
        <time>2019-03-11T13:58:14Z</time>
      </trkpt>
      <trkpt lat="32.542629009112716" lon="-4.919264120981097">
        <ele>2146.2800000000002</ele>
        <time>2019-03-11T13:58:15Z</time>
      </trkpt>
      <trkpt lat="32.542609898373485" lon="-4.919321285560727">
        <ele>2146.2800000000002</ele>
        <time>2019-03-11T13:58:16Z</time>
      </trkpt>
      <trkpt lat="32.542598834261298" lon="-4.919381970539689">
        <ele>2146.2800000000002</ele>
        <time>2019-03-11T13:58:17Z</time>
      </trkpt>
      <trkpt lat="32.542596571147442" lon="-4.919442404061556">
        <ele>2145.8000000000002</ele>
        <time>2019-03-11T13:58:18Z</time>
      </trkpt>
      <trkpt lat="32.542602857574821" lon="-4.919500825926662">
        <ele>2145.8000000000002</ele>
        <time>2019-03-11T13:58:19Z</time>
      </trkpt>
      <trkpt lat="32.542614340782166" lon="-4.91956377401948">
        <ele>2145.8000000000002</ele>
        <time>2019-03-11T13:58:22Z</time>
      </trkpt>
      <trkpt lat="32.542643593624234" lon="-4.919774746522307">
        <ele>2145.8000000000002</ele>
        <time>2019-03-11T13:58:23Z</time>
      </trkpt>
      <trkpt lat="32.542644683271646" lon="-4.91984230466187">
        <ele>2145.8000000000002</ele>
        <time>2019-03-11T13:58:24Z</time>
      </trkpt>
      <trkpt lat="32.542634708806872" lon="-4.919912209734321">
        <ele>2145.8000000000002</ele>
        <time>2019-03-11T13:58:25Z</time>
      </trkpt>
      <trkpt lat="32.542612915858626" lon="-4.919986557215452">
        <ele>2145.8000000000002</ele>
        <time>2019-03-11T13:58:26Z</time>
      </trkpt>
      <trkpt lat="32.542591793462634" lon="-4.920068448409438">
        <ele>2146.2800000000002</ele>
        <time>2019-03-11T13:58:27Z</time>
      </trkpt>
      <trkpt lat="32.542578969150782" lon="-4.920152770355344">
        <ele>2146.2800000000002</ele>
        <time>2019-03-11T13:58:28Z</time>
      </trkpt>
      <trkpt lat="32.542583243921399" lon="-4.920228207483888">
        <ele>2146.2800000000002</ele>
        <time>2019-03-11T13:58:29Z</time>
      </trkpt>
      <trkpt lat="32.54260428249836" lon="-4.920292161405087">
        <ele>2146.2800000000002</ele>
        <time>2019-03-11T13:58:30Z</time>
      </trkpt>
      <trkpt lat="32.542638145387173" lon="-4.920347481966019">
        <ele>2145.3200000000002</ele>
        <time>2019-03-11T13:58:31Z</time>
      </trkpt>
      <trkpt lat="32.542680893093348" lon="-4.920392157509923">
        <ele>2145.3200000000002</ele>
        <time>2019-03-11T13:58:32Z</time>
      </trkpt>
      <trkpt lat="32.542723556980491" lon="-4.920432977378368">
        <ele>2145.8000000000002</ele>
        <time>2019-03-11T13:58:42Z</time>
      </trkpt>
      <trkpt lat="32.542898319661617" lon="-4.92079708725214">
        <ele>2145.8000000000002</ele>
        <time>2019-03-11T13:58:47Z</time>
      </trkpt>
      <trkpt lat="32.542747613042593" lon="-4.920915020629764">
        <ele>2145.8000000000002</ele>
        <time>2019-03-11T13:58:48Z</time>
      </trkpt>
      <trkpt lat="32.542713414877653" lon="-4.920951901003718">
        <ele>2146.2800000000002</ele>
        <time>2019-03-11T13:58:49Z</time>
      </trkpt>
      <trkpt lat="32.542689274996519" lon="-4.921000599861145">
        <ele>2146.2800000000002</ele>
        <time>2019-03-11T13:58:50Z</time>
      </trkpt>
      <trkpt lat="32.5426712539047" lon="-4.921056088060141">
        <ele>2146.2800000000002</ele>
        <time>2019-03-11T13:58:51Z</time>
      </trkpt>
      <trkpt lat="32.54265314899385" lon="-4.921113671734929">
        <ele>2146.2800000000002</ele>
        <time>2019-03-11T13:58:59Z</time>
      </trkpt>
      <trkpt lat="32.5425192900002" lon="-4.921421790495515">
        <ele>2145.8000000000002</ele>
        <time>2019-03-11T13:59:00Z</time>
      </trkpt>
      <trkpt lat="32.542532365769148" lon="-4.92145967669785">
        <ele>2145.8000000000002</ele>
        <time>2019-03-11T13:59:01Z</time>
      </trkpt>
      <trkpt lat="32.542558265849948" lon="-4.921497562900186">
        <ele>2145.8000000000002</ele>
        <time>2019-03-11T13:59:02Z</time>
      </trkpt>
      <trkpt lat="32.542589697986841" lon="-4.92153880186379">
        <ele>2145.8000000000002</ele>
        <time>2019-03-11T13:59:03Z</time>
      </trkpt>
      <trkpt lat="32.5426228903234" lon="-4.921584567055106">
        <ele>2145.8000000000002</ele>
        <time>2019-03-11T13:59:05Z</time>
      </trkpt>
      <trkpt lat="32.542678713798523" lon="-4.921673750504851">
        <ele>2145.3200000000002</ele>
        <time>2019-03-11T13:59:06Z</time>
      </trkpt>
      <trkpt lat="32.542692879214883" lon="-4.921716498211026">
        <ele>2145.3200000000002</ele>
        <time>2019-03-11T13:59:07Z</time>
      </trkpt>
      <trkpt lat="32.542697070166469" lon="-4.921755557879806">
        <ele>2145.3200000000002</ele>
        <time>2019-03-11T13:59:08Z</time>
      </trkpt>
      <trkpt lat="32.542695393785834" lon="-4.921796377748251">
        <ele>2145.3200000000002</ele>
        <time>2019-03-11T13:59:09Z</time>
      </trkpt>
      <trkpt lat="32.542689945548773" lon="-4.921845411881805">
        <ele>2145.3200000000002</ele>
        <time>2019-03-11T13:59:10Z</time>
      </trkpt>
      <trkpt lat="32.542681060731411" lon="-4.921901235356927">
        <ele>2146.2800000000002</ele>
        <time>2019-03-11T13:59:11Z</time>
      </trkpt>
      <trkpt lat="32.542670499533415" lon="-4.921948676928878">
        <ele>2146.7600000000002</ele>
        <time>2019-03-11T13:59:12Z</time>
      </trkpt>
      <trkpt lat="32.542658178135753" lon="-4.921986814588308">
        <ele>2147.2399999999998</ele>
        <time>2019-03-11T13:59:23Z</time>
      </trkpt>
      <trkpt lat="32.542454497888684" lon="-4.922296022996306">
        <ele>2147.2399999999998</ele>
        <time>2019-03-11T13:59:28Z</time>
      </trkpt>
      <trkpt lat="32.54240739159286" lon="-4.922397444024682">
        <ele>2147.2399999999998</ele>
        <time>2019-03-11T13:59:29Z</time>
      </trkpt>
      <trkpt lat="32.542407223954797" lon="-4.922420829534531">
        <ele>2147.2399999999998</ele>
        <time>2019-03-11T13:59:30Z</time>
      </trkpt>
      <trkpt lat="32.542410660535097" lon="-4.9224344920367">
        <ele>2147.7199999999998</ele>
        <time>2019-03-11T13:59:31Z</time>
      </trkpt>
      <trkpt lat="32.5424191262573" lon="-4.922446478158236">
        <ele>2147.7199999999998</ele>
        <time>2019-03-11T13:59:32Z</time>
      </trkpt>
      <trkpt lat="32.542434129863977" lon="-4.922456284984946">
        <ele>2147.2399999999998</ele>
        <time>2019-03-11T13:59:33Z</time>
      </trkpt>
      <trkpt lat="32.542449720203876" lon="-4.922461146488786">
        <ele>2145.3200000000002</ele>
        <time>2019-03-11T13:59:34Z</time>
      </trkpt>
      <trkpt lat="32.542466567829251" lon="-4.922463074326515">
        <ele>2140.9899999999998</ele>
        <time>2019-03-11T13:59:35Z</time>
      </trkpt>
      <trkpt lat="32.542488360777497" lon="-4.922463744878769">
        <ele>2140.9899999999998</ele>
        <time>2019-03-11T13:59:44Z</time>
      </trkpt>
      <trkpt lat="32.542747864499688" lon="-4.922525268048048">
        <ele>2140.9899999999998</ele>
        <time>2019-03-11T14:00:12Z</time>
      </trkpt>
      <trkpt lat="32.542736381292343" lon="-4.922513784840703">
        <ele>2143.4000000000001</ele>
        <time>2019-03-11T14:00:30Z</time>
      </trkpt>
      <trkpt lat="32.542833779007196" lon="-4.922523507848382">
        <ele>2143.8800000000001</ele>
        <time>2019-03-11T14:00:31Z</time>
      </trkpt>
      <trkpt lat="32.542875437065959" lon="-4.922541277483106">
        <ele>2142.4400000000001</ele>
        <time>2019-03-11T14:00:40Z</time>
      </trkpt>
      <trkpt lat="32.543248683214188" lon="-4.922676142305136">
        <ele>2143.4000000000001</ele>
        <time>2019-03-11T14:00:51Z</time>
      </trkpt>
      <trkpt lat="32.543256310746074" lon="-4.922681171447039">
        <ele>2143.4000000000001</ele>
        <time>2019-03-11T14:01:20Z</time>
      </trkpt>
      <trkpt lat="32.543316660448909" lon="-4.922700868919492">
        <ele>2143.8800000000001</ele>
        <time>2019-03-11T14:01:22Z</time>
      </trkpt>
      <trkpt lat="32.543390085920691" lon="-4.922738587483764">
        <ele>2146.2800000000002</ele>
        <time>2019-03-11T14:01:23Z</time>
      </trkpt>
      <trkpt lat="32.543429732322693" lon="-4.922757614403963">
        <ele>2146.7600000000002</ele>
        <time>2019-03-11T14:01:24Z</time>
      </trkpt>
      <trkpt lat="32.543472144752741" lon="-4.922782676294446">
        <ele>2146.7600000000002</ele>
        <time>2019-03-11T14:01:32Z</time>
      </trkpt>
      <trkpt lat="32.543852180242538" lon="-4.923105128109455">
        <ele>2146.7600000000002</ele>
        <time>2019-03-11T14:01:33Z</time>
      </trkpt>
      <trkpt lat="32.543883696198463" lon="-4.923151144757867">
        <ele>2146.7600000000002</ele>
        <time>2019-03-11T14:01:34Z</time>
      </trkpt>
      <trkpt lat="32.543895095586777" lon="-4.923204705119133">
        <ele>2147.2399999999998</ele>
        <time>2019-03-11T14:01:35Z</time>
      </trkpt>
      <trkpt lat="32.54388939589262" lon="-4.923259019851685">
        <ele>2147.2399999999998</ele>
        <time>2019-03-11T14:01:36Z</time>
      </trkpt>
      <trkpt lat="32.543864501640201" lon="-4.923309311270714">
        <ele>2147.7199999999998</ele>
        <time>2019-03-11T14:01:37Z</time>
      </trkpt>
      <trkpt lat="32.543832063674927" lon="-4.923352729529142">
        <ele>2148.1999999999998</ele>
        <time>2019-03-11T14:01:38Z</time>
      </trkpt>
      <trkpt lat="32.543793758377433" lon="-4.923392040655017">
        <ele>2148.6799999999998</ele>
        <time>2019-03-11T14:01:39Z</time>
      </trkpt>
      <trkpt lat="32.543749418109655" lon="-4.923433111980557">
        <ele>2149.1599999999999</ele>
        <time>2019-03-11T14:01:41Z</time>
      </trkpt>
      <trkpt lat="32.543659061193466" lon="-4.923524726182222">
        <ele>2149.1599999999999</ele>
        <time>2019-03-11T14:01:42Z</time>
      </trkpt>
      <trkpt lat="32.543625701218843" lon="-4.92357736453414">
        <ele>2149.1599999999999</ele>
        <time>2019-03-11T14:01:43Z</time>
      </trkpt>
      <trkpt lat="32.54360307008028" lon="-4.923633439466357">
        <ele>2149.1599999999999</ele>
        <time>2019-03-11T14:01:44Z</time>
      </trkpt>
      <trkpt lat="32.543592676520348" lon="-4.923684569075704">
        <ele>2148.6799999999998</ele>
        <time>2019-03-11T14:01:45Z</time>
      </trkpt>
      <trkpt lat="32.543592592701316" lon="-4.923732429742813">
        <ele>2150.6100000000001</ele>
        <time>2019-03-11T14:01:46Z</time>
      </trkpt>
      <trkpt lat="32.543596113100648" lon="-4.923773417249322">
        <ele>2151.0900000000001</ele>
        <time>2019-03-11T14:01:47Z</time>
      </trkpt>
      <trkpt lat="32.543601226061583" lon="-4.923816081136465">
        <ele>2151.0900000000001</ele>
        <time>2019-03-11T14:01:56Z</time>
      </trkpt>
      <trkpt lat="32.543594017624855" lon="-4.924184465780854">
        <ele>2151.0900000000001</ele>
        <time>2019-03-11T14:01:57Z</time>
      </trkpt>
      <trkpt lat="32.54356786608696" lon="-4.924222603440285">
        <ele>2151.0900000000001</ele>
        <time>2019-03-11T14:01:58Z</time>
      </trkpt>
      <trkpt lat="32.543543390929699" lon="-4.924250515177846">
        <ele>2151.0900000000001</ele>
        <time>2019-03-11T14:01:59Z</time>
      </trkpt>
      <trkpt lat="32.543528135865927" lon="-4.924262082204223">
        <ele>2151.0900000000001</ele>
        <time>2019-03-11T14:02:01Z</time>
      </trkpt>
      <trkpt lat="32.543509528040886" lon="-4.924274990335107">
        <ele>2152.0500000000002</ele>
        <time>2019-03-11T14:02:02Z</time>
      </trkpt>
      <trkpt lat="32.543500978499651" lon="-4.924291670322418">
        <ele>2152.0500000000002</ele>
        <time>2019-03-11T14:02:03Z</time>
      </trkpt>
      <trkpt lat="32.543496368452907" lon="-4.92432008497417">
        <ele>2152.0500000000002</ele>
        <time>2019-03-11T14:02:14Z</time>
      </trkpt>
      <trkpt lat="32.543507935479283" lon="-4.924668688327074">
        <ele>2152.0500000000002</ele>
        <time>2019-03-11T14:02:26Z</time>
      </trkpt>
      <trkpt lat="32.543776575475931" lon="-4.925086107105017">
        <ele>2152.0500000000002</ele>
        <time>2019-03-11T14:02:36Z</time>
      </trkpt>
      <trkpt lat="32.54397002980113" lon="-4.925464214757085">
        <ele>2151.5700000000002</ele>
        <time>2019-03-11T14:02:41Z</time>
      </trkpt>
      <trkpt lat="32.544010430574417" lon="-4.92569119669497">
        <ele>2153.4899999999998</ele>
        <time>2019-03-11T14:02:42Z</time>
      </trkpt>
      <trkpt lat="32.544007413089275" lon="-4.925742661580443">
        <ele>2153.4899999999998</ele>
        <time>2019-03-11T14:02:52Z</time>
      </trkpt>
      <trkpt lat="32.543902136385441" lon="-4.926111046224833">
        <ele>2153.9699999999998</ele>
        <time>2019-03-11T14:03:04Z</time>
      </trkpt>
      <trkpt lat="32.543582450598478" lon="-4.926382200792432">
        <ele>2154.4499999999998</ele>
        <time>2019-03-11T14:03:05Z</time>
      </trkpt>
      <trkpt lat="32.54355319775641" lon="-4.92641924880445">
        <ele>2153.9699999999998</ele>
        <time>2019-03-11T14:03:13Z</time>
      </trkpt>
      <trkpt lat="32.543343231081963" lon="-4.926656624302268">
        <ele>2153.9699999999998</ele>
        <time>2019-03-11T14:03:23Z</time>
      </trkpt>
      <trkpt lat="32.543031675741076" lon="-4.926891317591071">
        <ele>2153.9699999999998</ele>
        <time>2019-03-11T14:03:33Z</time>
      </trkpt>
      <trkpt lat="32.542795976623893" lon="-4.927079994231463">
        <ele>2153.9699999999998</ele>
        <time>2019-03-11T14:03:34Z</time>
      </trkpt>
      <trkpt lat="32.54278264939785" lon="-4.927096338942647">
        <ele>2153.9699999999998</ele>
        <time>2019-03-11T14:03:43Z</time>
      </trkpt>
      <trkpt lat="32.542907036840916" lon="-4.927176050841808">
        <ele>2155.4099999999999</ele>
        <time>2019-03-11T14:03:44Z</time>
      </trkpt>
      <trkpt lat="32.542933691293001" lon="-4.927176805213094">
        <ele>2153.0100000000002</ele>
        <time>2019-03-11T14:03:45Z</time>
      </trkpt>
      <trkpt lat="32.54295757971704" lon="-4.927175128832459">
        <ele>2152.0500000000002</ele>
        <time>2019-03-11T14:03:58Z</time>
      </trkpt>
      <trkpt lat="32.543326718732715" lon="-4.927109163254499">
        <ele>2152.0500000000002</ele>
        <time>2019-03-11T14:04:10Z</time>
      </trkpt>
      <trkpt lat="32.543669706210494" lon="-4.927233969792724">
        <ele>2153.0100000000002</ele>
        <time>2019-03-11T14:04:23Z</time>
      </trkpt>
      <trkpt lat="32.543805995956063" lon="-4.927661865949631">
        <ele>2153.0100000000002</ele>
        <time>2019-03-11T14:04:36Z</time>
      </trkpt>
      <trkpt lat="32.543730558827519" lon="-4.928098479285836">
        <ele>2153.0100000000002</ele>
        <time>2019-03-11T14:04:43Z</time>
      </trkpt>
      <trkpt lat="32.543545318767428" lon="-4.928236026316881">
        <ele>2152.0500000000002</ele>
        <time>2019-03-11T14:04:44Z</time>
      </trkpt>
      <trkpt lat="32.543497709557414" lon="-4.928241474553943">
        <ele>2153.0100000000002</ele>
        <time>2019-03-11T14:04:45Z</time>
      </trkpt>
      <trkpt lat="32.543449765071273" lon="-4.928247258067131">
        <ele>2153.4899999999998</ele>
        <time>2019-03-11T14:04:55Z</time>
      </trkpt>
      <trkpt lat="32.54298884421587" lon="-4.928255053237081">
        <ele>2153.9699999999998</ele>
        <time>2019-03-11T14:05:00Z</time>
      </trkpt>
      <trkpt lat="32.542846687138081" lon="-4.928323784843087">
        <ele>2153.4899999999998</ele>
        <time>2019-03-11T14:05:04Z</time>
      </trkpt>
      <trkpt lat="32.542854733765125" lon="-4.928428390994668">
        <ele>2154.4499999999998</ele>
        <time>2019-03-11T14:05:12Z</time>
      </trkpt>
      <trkpt lat="32.543027233332396" lon="-4.928595274686813">
        <ele>2154.4499999999998</ele>
        <time>2019-03-11T14:05:22Z</time>
      </trkpt>
      <trkpt lat="32.543286485597491" lon="-4.928857376798987">
        <ele>2154.4499999999998</ele>
        <time>2019-03-11T14:05:32Z</time>
      </trkpt>
      <trkpt lat="32.543697198852897" lon="-4.929000036790967">
        <ele>2154.9299999999998</ele>
        <time>2019-03-11T14:05:33Z</time>
      </trkpt>
      <trkpt lat="32.543734246864915" lon="-4.929029205814004">
        <ele>2155.4099999999999</ele>
        <time>2019-03-11T14:05:34Z</time>
      </trkpt>
      <trkpt lat="32.543767858296633" lon="-4.92906860075891">
        <ele>2155.4099999999999</ele>
        <time>2019-03-11T14:05:35Z</time>
      </trkpt>
      <trkpt lat="32.543800044804811" lon="-4.929112605750561">
        <ele>2157.8200000000002</ele>
        <time>2019-03-11T14:05:36Z</time>
      </trkpt>
      <trkpt lat="32.543827453628182" lon="-4.929156694561243">
        <ele>2159.7399999999998</ele>
        <time>2019-03-11T14:05:37Z</time>
      </trkpt>
      <trkpt lat="32.543852850794792" lon="-4.929199777543545">
        <ele>2160.2199999999998</ele>
        <time>2019-03-11T14:05:45Z</time>
      </trkpt>
      <trkpt lat="32.543957624584436" lon="-4.929560786113143">
        <ele>2160.6999999999998</ele>
        <time>2019-03-11T14:05:50Z</time>
      </trkpt>
      <trkpt lat="32.543978411704302" lon="-4.929831018671393">
        <ele>2161.1799999999998</ele>
        <time>2019-03-11T14:05:51Z</time>
      </trkpt>
      <trkpt lat="32.543990816920996" lon="-4.92989388294518">
        <ele>2161.6599999999999</ele>
        <time>2019-03-11T14:05:52Z</time>
      </trkpt>
      <trkpt lat="32.544007664546371" lon="-4.929952220991254">
        <ele>2161.6599999999999</ele>
        <time>2019-03-11T14:05:53Z</time>
      </trkpt>
      <trkpt lat="32.544030798599124" lon="-4.930009469389916">
        <ele>2162.1399999999999</ele>
        <time>2019-03-11T14:05:54Z</time>
      </trkpt>
      <trkpt lat="32.544053932651877" lon="-4.930073758587241">
        <ele>2162.6199999999999</ele>
        <time>2019-03-11T14:05:55Z</time>
      </trkpt>
      <trkpt lat="32.544076144695282" lon="-4.930146848782897">
        <ele>2163.5799999999999</ele>
        <time>2019-03-11T14:05:57Z</time>
      </trkpt>
      <trkpt lat="32.54411805421114" lon="-4.930304177105427">
        <ele>2164.0599999999999</ele>
        <time>2019-03-11T14:05:58Z</time>
      </trkpt>
      <trkpt lat="32.544142613187432" lon="-4.930373746901751">
        <ele>2164.5500000000002</ele>
        <time>2019-03-11T14:06:00Z</time>
      </trkpt>
      <trkpt lat="32.544190473854542" lon="-4.930500816553831">
        <ele>2164.5500000000002</ele>
        <time>2019-03-11T14:06:01Z</time>
      </trkpt>
      <trkpt lat="32.544208746403456" lon="-4.930565943941474">
        <ele>2165.0300000000002</ele>
        <time>2019-03-11T14:06:02Z</time>
      </trkpt>
      <trkpt lat="32.544222325086594" lon="-4.93063316680491">
        <ele>2165.5100000000002</ele>
        <time>2019-03-11T14:06:03Z</time>
      </trkpt>
      <trkpt lat="32.544228946790099" lon="-4.930700724944472">
        <ele>2165.9899999999998</ele>
        <time>2019-03-11T14:06:04Z</time>
      </trkpt>
      <trkpt lat="32.544225929304957" lon="-4.930766187608242">
        <ele>2165.9899999999998</ele>
        <time>2019-03-11T14:06:05Z</time>
      </trkpt>
      <trkpt lat="32.544210338965058" lon="-4.930830979719758">
        <ele>2166.4699999999998</ele>
        <time>2019-03-11T14:06:06Z</time>
      </trkpt>
      <trkpt lat="32.544182678684592" lon="-4.930888395756483">
        <ele>2167.9099999999999</ele>
        <time>2019-03-11T14:06:07Z</time>
      </trkpt>
      <trkpt lat="32.544145127758384" lon="-4.930941117927432">
        <ele>2168.3899999999999</ele>
        <time>2019-03-11T14:06:08Z</time>
      </trkpt>
      <trkpt lat="32.544101206585765" lon="-4.930993421003223">
        <ele>2168.3899999999999</ele>
        <time>2019-03-11T14:06:11Z</time>
      </trkpt>
      <trkpt lat="32.543973131105304" lon="-4.931170865893364">
        <ele>2168.3899999999999</ele>
        <time>2019-03-11T14:06:12Z</time>
      </trkpt>
      <trkpt lat="32.543945638462901" lon="-4.931229371577501">
        <ele>2168.8699999999999</ele>
        <time>2019-03-11T14:06:13Z</time>
      </trkpt>
      <trkpt lat="32.543935747817159" lon="-4.931277232244611">
        <ele>2168.8699999999999</ele>
        <time>2019-03-11T14:06:14Z</time>
      </trkpt>
      <trkpt lat="32.543942704796791" lon="-4.931311765685678">
        <ele>2168.8699999999999</ele>
        <time>2019-03-11T14:06:16Z</time>
      </trkpt>
      <trkpt lat="32.543987045064569" lon="-4.931355267763138">
        <ele>2168.3899999999999</ele>
        <time>2019-03-11T14:06:17Z</time>
      </trkpt>
      <trkpt lat="32.544021662324667" lon="-4.931364990770817">
        <ele>2168.3899999999999</ele>
        <time>2019-03-11T14:06:18Z</time>
      </trkpt>
      <trkpt lat="32.544063068926334" lon="-4.931369936093688">
        <ele>2168.3899999999999</ele>
        <time>2019-03-11T14:06:21Z</time>
      </trkpt>
      <trkpt lat="32.544203801080585" lon="-4.931390387937427">
        <ele>2168.3899999999999</ele>
        <time>2019-03-11T14:06:22Z</time>
      </trkpt>
      <trkpt lat="32.544257026165724" lon="-4.931409498676658">
        <ele>2168.8699999999999</ele>
        <time>2019-03-11T14:06:23Z</time>
      </trkpt>
      <trkpt lat="32.544311927631497" lon="-4.93143598549068">
        <ele>2169.3499999999999</ele>
        <time>2019-03-11T14:06:24Z</time>
      </trkpt>
      <trkpt lat="32.544364901259542" lon="-4.931468423455954">
        <ele>2169.3499999999999</ele>
        <time>2019-03-11T14:06:25Z</time>
      </trkpt>
      <trkpt lat="32.544414605945349" lon="-4.931501783430576">
        <ele>2169.8299999999999</ele>
        <time>2019-03-11T14:06:28Z</time>
      </trkpt>
      <trkpt lat="32.544532539322972" lon="-4.931599851697683">
        <ele>2169.8299999999999</ele>
        <time>2019-03-11T14:06:29Z</time>
      </trkpt>
      <trkpt lat="32.544562378898263" lon="-4.931638659909368">
        <ele>2170.3099999999999</ele>
        <time>2019-03-11T14:06:30Z</time>
      </trkpt>
      <trkpt lat="32.544590374454856" lon="-4.931684257462621">
        <ele>2170.79</ele>
        <time>2019-03-11T14:06:31Z</time>
      </trkpt>
      <trkpt lat="32.544619962573051" lon="-4.931733040139079">
        <ele>2173.1999999999998</ele>
        <time>2019-03-11T14:06:32Z</time>
      </trkpt>
      <trkpt lat="32.544653657823801" lon="-4.931780900806189">
        <ele>2173.1999999999998</ele>
        <time>2019-03-11T14:06:33Z</time>
      </trkpt>
      <trkpt lat="32.544690286740661" lon="-4.931830437853932">
        <ele>2174.6399999999999</ele>
        <time>2019-03-11T14:06:42Z</time>
      </trkpt>
      <trkpt lat="32.544955490157008" lon="-4.93226126767695">
        <ele>2174.6399999999999</ele>
        <time>2019-03-11T14:06:43Z</time>
      </trkpt>
      <trkpt lat="32.5449697393924" lon="-4.932301919907332">
        <ele>2174.6399999999999</ele>
        <time>2019-03-11T14:06:52Z</time>
      </trkpt>
      <trkpt lat="32.545142322778702" lon="-4.932671561837196">
        <ele>2174.6399999999999</ele>
        <time>2019-03-11T14:06:53Z</time>
      </trkpt>
      <trkpt lat="32.54515347070992" lon="-4.932719506323338">
        <ele>2174.6399999999999</ele>
        <time>2019-03-11T14:06:54Z</time>
      </trkpt>
      <trkpt lat="32.545160092413425" lon="-4.93276895955205">
        <ele>2174.6399999999999</ele>
        <time>2019-03-11T14:06:55Z</time>
      </trkpt>
      <trkpt lat="32.545162355527282" lon="-4.932819334790111">
        <ele>2174.6399999999999</ele>
        <time>2019-03-11T14:06:56Z</time>
      </trkpt>
      <trkpt lat="32.545162439346313" lon="-4.932874822989106">
        <ele>2175.1199999999999</ele>
        <time>2019-03-11T14:06:58Z</time>
      </trkpt>
      <trkpt lat="32.545173838734627" lon="-4.932988649234176">
        <ele>2174.6399999999999</ele>
        <time>2019-03-11T14:06:59Z</time>
      </trkpt>
      <trkpt lat="32.545187836512923" lon="-4.93303575553">
        <ele>2174.6399999999999</ele>
        <time>2019-03-11T14:07:02Z</time>
      </trkpt>
      <trkpt lat="32.545246426016092" lon="-4.933181097730994">
        <ele>2174.6399999999999</ele>
        <time>2019-03-11T14:07:03Z</time>
      </trkpt>
      <trkpt lat="32.545255729928613" lon="-4.933227114379406">
        <ele>2174.6399999999999</ele>
        <time>2019-03-11T14:07:04Z</time>
      </trkpt>
      <trkpt lat="32.545258915051818" lon="-4.933265754953027">
        <ele>2174.6399999999999</ele>
        <time>2019-03-11T14:07:05Z</time>
      </trkpt>
      <trkpt lat="32.545259753242135" lon="-4.933298360556364">
        <ele>2174.6399999999999</ele>
        <time>2019-03-11T14:07:06Z</time>
      </trkpt>
      <trkpt lat="32.545258244499564" lon="-4.933328870683909">
        <ele>2173.6799999999998</ele>
        <time>2019-03-11T14:07:07Z</time>
      </trkpt>
      <trkpt lat="32.545255059376359" lon="-4.933359380811453">
        <ele>2173.6799999999998</ele>
        <time>2019-03-11T14:07:08Z</time>
      </trkpt>
      <trkpt lat="32.545251371338964" lon="-4.933392154052854">
        <ele>2174.1599999999999</ele>
        <time>2019-03-11T14:07:20Z</time>
      </trkpt>
      <trkpt lat="32.545119021087885" lon="-4.933808650821447">
        <ele>2173.6799999999998</ele>
        <time>2019-03-11T14:07:21Z</time>
      </trkpt>
      <trkpt lat="32.545092115178704" lon="-4.933847710490227">
        <ele>2174.1599999999999</ele>
        <time>2019-03-11T14:07:22Z</time>
      </trkpt>
      <trkpt lat="32.545060934498906" lon="-4.933884171769023">
        <ele>2174.1599999999999</ele>
        <time>2019-03-11T14:07:31Z</time>
      </trkpt>
      <trkpt lat="32.544809225946665" lon="-4.934138394892216">
        <ele>2174.6399999999999</ele>
        <time>2019-03-11T14:07:33Z</time>
      </trkpt>
      <trkpt lat="32.544733537361026" lon="-4.934223722666502">
        <ele>2174.6399999999999</ele>
        <time>2019-03-11T14:07:43Z</time>
      </trkpt>
      <trkpt lat="32.544391471892595" lon="-4.934668382629752">
        <ele>2175.1199999999999</ele>
        <time>2019-03-11T14:07:44Z</time>
      </trkpt>
      <trkpt lat="32.54434771835804" lon="-4.93469562381506">
        <ele>2175.1199999999999</ele>
        <time>2019-03-11T14:07:45Z</time>
      </trkpt>
      <trkpt lat="32.544300444424152" lon="-4.934708531945944">
        <ele>2174.6399999999999</ele>
        <time>2019-03-11T14:07:46Z</time>
      </trkpt>
      <trkpt lat="32.544247470796108" lon="-4.934707274660468">
        <ele>2174.6399999999999</ele>
        <time>2019-03-11T14:07:47Z</time>
      </trkpt>
      <trkpt lat="32.544196089729667" lon="-4.934698473662138">
        <ele>2174.6399999999999</ele>
        <time>2019-03-11T14:07:48Z</time>
      </trkpt>
      <trkpt lat="32.544144708663225" lon="-4.934681290760636">
        <ele>2175.1199999999999</ele>
        <time>2019-03-11T14:07:49Z</time>
      </trkpt>
      <trkpt lat="32.544096512719989" lon="-4.934658408164978">
        <ele>2175.1199999999999</ele>
        <time>2019-03-11T14:07:50Z</time>
      </trkpt>
      <trkpt lat="32.544054267928004" lon="-4.934633681550622">
        <ele>2176.0799999999999</ele>
        <time>2019-03-11T14:08:00Z</time>
      </trkpt>
      <trkpt lat="32.543616397306323" lon="-4.934207210317254">
        <ele>2174.1599999999999</ele>
        <time>2019-03-11T14:08:05Z</time>
      </trkpt>
      <trkpt lat="32.543434342369437" lon="-4.934042086824775">
        <ele>2175.1199999999999</ele>
        <time>2019-03-11T14:08:12Z</time>
      </trkpt>
      <trkpt lat="32.543386230245233" lon="-4.934119451791048">
        <ele>2175.1199999999999</ele>
        <time>2019-03-11T14:08:24Z</time>
      </trkpt>
      <trkpt lat="32.543387822806835" lon="-4.934177370741963">
        <ele>2174.6399999999999</ele>
        <time>2019-03-11T14:08:39Z</time>
      </trkpt>
      <trkpt lat="32.543406849727035" lon="-4.93433210067451">
        <ele>2176.0799999999999</ele>
        <time>2019-03-11T14:08:57Z</time>
      </trkpt>
      <trkpt lat="32.543444652110338" lon="-4.934573080390692">
        <ele>2177.52</ele>
        <time>2019-03-11T14:09:11Z</time>
      </trkpt>
      <trkpt lat="32.543449262157083" lon="-4.93475429713726">
        <ele>2178</ele>
        <time>2019-03-11T14:09:31Z</time>
      </trkpt>
      <trkpt lat="32.543505504727364" lon="-4.935040539130569">
        <ele>2178.48</ele>
        <time>2019-03-11T14:09:46Z</time>
      </trkpt>
      <trkpt lat="32.543581277132034" lon="-4.935362236574292">
        <ele>2178.9699999999998</ele>
        <time>2019-03-11T14:10:01Z</time>
      </trkpt>
      <trkpt lat="32.543654199689627" lon="-4.935741852968931">
        <ele>2178</ele>
        <time>2019-03-11T14:10:20Z</time>
      </trkpt>
      <trkpt lat="32.543690912425518" lon="-4.936023065820336">
        <ele>2178</ele>
        <time>2019-03-11T14:10:35Z</time>
      </trkpt>
      <trkpt lat="32.543718907982111" lon="-4.936388600617647">
        <ele>2178.48</ele>
        <time>2019-03-11T14:10:50Z</time>
      </trkpt>
      <trkpt lat="32.543716980144382" lon="-4.936773832887411">
        <ele>2178.48</ele>
        <time>2019-03-11T14:10:58Z</time>
      </trkpt>
      <trkpt lat="32.543625114485621" lon="-4.93710994720459">
        <ele>2178</ele>
        <time>2019-03-11T14:10:59Z</time>
      </trkpt>
      <trkpt lat="32.543600471690297" lon="-4.937156047672033">
        <ele>2178</ele>
        <time>2019-03-11T14:11:00Z</time>
      </trkpt>
      <trkpt lat="32.543575325980783" lon="-4.937197789549828">
        <ele>2177.52</ele>
        <time>2019-03-11T14:11:01Z</time>
      </trkpt>
      <trkpt lat="32.543543223291636" lon="-4.937231065705419">
        <ele>2177.52</ele>
        <time>2019-03-11T14:11:02Z</time>
      </trkpt>
      <trkpt lat="32.543505169451237" lon="-4.937256630510092">
        <ele>2177.52</ele>
        <time>2019-03-11T14:11:03Z</time>
      </trkpt>
      <trkpt lat="32.543465355411172" lon="-4.937272304669023">
        <ele>2176.5599999999999</ele>
        <time>2019-03-11T14:11:04Z</time>
      </trkpt>
      <trkpt lat="32.543423278257251" lon="-4.937280686572194">
        <ele>2175.5999999999999</ele>
        <time>2019-03-11T14:11:05Z</time>
      </trkpt>
      <trkpt lat="32.543381284922361" lon="-4.937286050990224">
        <ele>2175.1199999999999</ele>
        <time>2019-03-11T14:11:18Z</time>
      </trkpt>
      <trkpt lat="32.54286864772439" lon="-4.937173314392567">
        <ele>2173.1999999999998</ele>
        <time>2019-03-11T14:11:31Z</time>
      </trkpt>
      <trkpt lat="32.542535550892353" lon="-4.937000563368201">
        <ele>2171.7600000000002</ele>
        <time>2019-03-11T14:11:46Z</time>
      </trkpt>
      <trkpt lat="32.542039677500725" lon="-4.9367312528193">
        <ele>2171.7600000000002</ele>
        <time>2019-03-11T14:11:58Z</time>
      </trkpt>
      <trkpt lat="32.541573811322451" lon="-4.936605356633663">
        <ele>2171.7600000000002</ele>
        <time>2019-03-11T14:12:03Z</time>
      </trkpt>
      <trkpt lat="32.541347835212946" lon="-4.936552131548524">
        <ele>2168.8699999999999</ele>
        <time>2019-03-11T14:12:04Z</time>
      </trkpt>
      <trkpt lat="32.541309865191579" lon="-4.936526985839009">
        <ele>2168.8699999999999</ele>
        <time>2019-03-11T14:12:05Z</time>
      </trkpt>
      <trkpt lat="32.54127960652113" lon="-4.936489351093769">
        <ele>2168.3899999999999</ele>
        <time>2019-03-11T14:12:12Z</time>
      </trkpt>
      <trkpt lat="32.541133174672723" lon="-4.936236552894115">
        <ele>2168.3899999999999</ele>
        <time>2019-03-11T14:12:13Z</time>
      </trkpt>
      <trkpt lat="32.541112471371889" lon="-4.936229847371578">
        <ele>2167.9099999999999</ele>
        <time>2019-03-11T14:12:14Z</time>
      </trkpt>
      <trkpt lat="32.541090426966548" lon="-4.936224399134517">
        <ele>2167.9099999999999</ele>
        <time>2019-03-11T14:12:15Z</time>
      </trkpt>
      <trkpt lat="32.541069723665714" lon="-4.936225656419992">
        <ele>2168.3899999999999</ele>
        <time>2019-03-11T14:12:16Z</time>
      </trkpt>
      <trkpt lat="32.541045164689422" lon="-4.936232445761561">
        <ele>2168.3899999999999</ele>
        <time>2019-03-11T14:12:17Z</time>
      </trkpt>
      <trkpt lat="32.541020270437002" lon="-4.936243761330843">
        <ele>2168.3899999999999</ele>
        <time>2019-03-11T14:12:18Z</time>
      </trkpt>
      <trkpt lat="32.540997723117471" lon="-4.936258513480425">
        <ele>2170.79</ele>
        <time>2019-03-11T14:12:19Z</time>
      </trkpt>
      <trkpt lat="32.540976852178574" lon="-4.936276031658053">
        <ele>2170.79</ele>
        <time>2019-03-11T14:12:20Z</time>
      </trkpt>
      <trkpt lat="32.540957825258374" lon="-4.936294304206967">
        <ele>2170.79</ele>
        <time>2019-03-11T14:12:31Z</time>
      </trkpt>
      <trkpt lat="32.540682228282094" lon="-4.936540396884084">
        <ele>2170.79</ele>
        <time>2019-03-11T14:12:32Z</time>
      </trkpt>
      <trkpt lat="32.540644509717822" lon="-4.936560094356537">
        <ele>2170.3099999999999</ele>
        <time>2019-03-11T14:12:33Z</time>
      </trkpt>
      <trkpt lat="32.540597906336188" lon="-4.936574175953865">
        <ele>2170.3099999999999</ele>
        <time>2019-03-11T14:12:34Z</time>
      </trkpt>
      <trkpt lat="32.540552811697125" lon="-4.936587000265718">
        <ele>2170.79</ele>
        <time>2019-03-11T14:12:35Z</time>
      </trkpt>
      <trkpt lat="32.540515931323171" lon="-4.936601417139173">
        <ele>2171.27</ele>
        <time>2019-03-11T14:12:36Z</time>
      </trkpt>
      <trkpt lat="32.540483241900802" lon="-4.936622874811292">
        <ele>2171.27</ele>
        <time>2019-03-11T14:12:37Z</time>
      </trkpt>
      <trkpt lat="32.540449127554893" lon="-4.936653636395931">
        <ele>2171.7600000000002</ele>
        <time>2019-03-11T14:12:38Z</time>
      </trkpt>
      <trkpt lat="32.540411241352558" lon="-4.936691522598267">
        <ele>2170.79</ele>
        <time>2019-03-11T14:12:50Z</time>
      </trkpt>
      <trkpt lat="32.540041180327535" lon="-4.937057560309768">
        <ele>2170.79</ele>
        <time>2019-03-11T14:13:01Z</time>
      </trkpt>
      <trkpt lat="32.539690062403679" lon="-4.936813646927476">
        <ele>2171.7600000000002</ele>
        <time>2019-03-11T14:13:09Z</time>
      </trkpt>
      <trkpt lat="32.539649913087487" lon="-4.937009532004595">
        <ele>2171.7600000000002</ele>
        <time>2019-03-11T14:13:20Z</time>
      </trkpt>
      <trkpt lat="32.539647482335567" lon="-4.93743734434247">
        <ele>2171.27</ele>
        <time>2019-03-11T14:13:34Z</time>
      </trkpt>
      <trkpt lat="32.539988541975617" lon="-4.937801035121083">
        <ele>2171.27</ele>
        <time>2019-03-11T14:13:37Z</time>
      </trkpt>
      <trkpt lat="32.54000480286777" lon="-4.93788099847734">
        <ele>2170.79</ele>
        <time>2019-03-11T14:13:38Z</time>
      </trkpt>
      <trkpt lat="32.539996253326535" lon="-4.937905473634601">
        <ele>2170.79</ele>
        <time>2019-03-11T14:13:39Z</time>
      </trkpt>
      <trkpt lat="32.539982590824366" lon="-4.93792986497283">
        <ele>2170.3099999999999</ele>
        <time>2019-03-11T14:13:40Z</time>
      </trkpt>
      <trkpt lat="32.539963060989976" lon="-4.937956351786852">
        <ele>2170.3099999999999</ele>
        <time>2019-03-11T14:13:41Z</time>
      </trkpt>
      <trkpt lat="32.539942776784301" lon="-4.937975965440273">
        <ele>2170.3099999999999</ele>
        <time>2019-03-11T14:13:42Z</time>
      </trkpt>
      <trkpt lat="32.539924085140228" lon="-4.937994405627251">
        <ele>2170.79</ele>
        <time>2019-03-11T14:13:43Z</time>
      </trkpt>
      <trkpt lat="32.539902962744236" lon="-4.938009912148118">
        <ele>2171.7600000000002</ele>
        <time>2019-03-11T14:13:44Z</time>
      </trkpt>
      <trkpt lat="32.539882007986307" lon="-4.938025921583176">
        <ele>2173.1999999999998</ele>
        <time>2019-03-11T14:13:58Z</time>
      </trkpt>
      <trkpt lat="32.539615463465452" lon="-4.938205126672983">
        <ele>2173.1999999999998</ele>
        <time>2019-03-11T14:14:10Z</time>
      </trkpt>
      <trkpt lat="32.539341542869806" lon="-4.938469575718045">
        <ele>2173.6799999999998</ele>
        <time>2019-03-11T14:14:20Z</time>
      </trkpt>
      <trkpt lat="32.539200475439429" lon="-4.93868331424892">
        <ele>2173.6799999999998</ele>
        <time>2019-03-11T14:14:21Z</time>
      </trkpt>
      <trkpt lat="32.539210114628077" lon="-4.938705442473292">
        <ele>2173.1999999999998</ele>
        <time>2019-03-11T14:14:22Z</time>
      </trkpt>
      <trkpt lat="32.539228303357959" lon="-4.938717177137733">
        <ele>2173.1999999999998</ele>
        <time>2019-03-11T14:14:23Z</time>
      </trkpt>
      <trkpt lat="32.539249258115888" lon="-4.938726648688316">
        <ele>2172.7199999999998</ele>
        <time>2019-03-11T14:14:24Z</time>
      </trkpt>
      <trkpt lat="32.539272727444768" lon="-4.938735533505678">
        <ele>2171.27</ele>
        <time>2019-03-11T14:14:25Z</time>
      </trkpt>
      <trkpt lat="32.539303153753281" lon="-4.938738383352757">
        <ele>2170.79</ele>
        <time>2019-03-11T14:14:26Z</time>
      </trkpt>
      <trkpt lat="32.539336178451777" lon="-4.938737209886313">
        <ele>2169.8299999999999</ele>
        <time>2019-03-11T14:14:40Z</time>
      </trkpt>
      <trkpt lat="32.539778910577297" lon="-4.938676524907351">
        <ele>2169.8299999999999</ele>
        <time>2019-03-11T14:14:53Z</time>
      </trkpt>
      <trkpt lat="32.540018716827035" lon="-4.938721368089318">
        <ele>2170.3099999999999</ele>
        <time>2019-03-11T14:15:13Z</time>
      </trkpt>
      <trkpt lat="32.54030286334455" lon="-4.938748106360436">
        <ele>2170.79</ele>
        <time>2019-03-11T14:15:26Z</time>
      </trkpt>
      <trkpt lat="32.540391543880105" lon="-4.938754225149751">
        <ele>2171.7600000000002</ele>
        <time>2019-03-11T14:15:41Z</time>
      </trkpt>
      <trkpt lat="32.54057209007442" lon="-4.938821196556091">
        <ele>2171.7600000000002</ele>
        <time>2019-03-11T14:15:49Z</time>
      </trkpt>
      <trkpt lat="32.540578963235021" lon="-4.939130740240216">
        <ele>2171.7600000000002</ele>
        <time>2019-03-11T14:15:56Z</time>
      </trkpt>
      <trkpt lat="32.540396489202976" lon="-4.939497280865908">
        <ele>2171.7600000000002</ele>
        <time>2019-03-11T14:15:57Z</time>
      </trkpt>
      <trkpt lat="32.540381485596299" lon="-4.939549751579762">
        <ele>2172.2399999999998</ele>
        <time>2019-03-11T14:15:58Z</time>
      </trkpt>
      <trkpt lat="32.540384335443377" lon="-4.939599707722664">
        <ele>2172.2399999999998</ele>
        <time>2019-03-11T14:15:59Z</time>
      </trkpt>
      <trkpt lat="32.540404368191957" lon="-4.939637426286936">
        <ele>2172.2399999999998</ele>
        <time>2019-03-11T14:16:00Z</time>
      </trkpt>
      <trkpt lat="32.540436806157231" lon="-4.939665757119656">
        <ele>2172.2399999999998</ele>
        <time>2019-03-11T14:16:01Z</time>
      </trkpt>
      <trkpt lat="32.540478548035026" lon="-4.939687047153711">
        <ele>2172.2399999999998</ele>
        <time>2019-03-11T14:16:02Z</time>
      </trkpt>
      <trkpt lat="32.540523055940866" lon="-4.939708672463894">
        <ele>2171.7600000000002</ele>
        <time>2019-03-11T14:16:04Z</time>
      </trkpt>
      <trkpt lat="32.540620705112815" lon="-4.939757287502289">
        <ele>2172.2399999999998</ele>
        <time>2019-03-11T14:16:05Z</time>
      </trkpt>
      <trkpt lat="32.540668146684766" lon="-4.939792659133673">
        <ele>2172.2399999999998</ele>
        <time>2019-03-11T14:16:06Z</time>
      </trkpt>
      <trkpt lat="32.540713157504797" lon="-4.939838005229831">
        <ele>2172.2399999999998</ele>
        <time>2019-03-11T14:16:07Z</time>
      </trkpt>
      <trkpt lat="32.540755234658718" lon="-4.939889470115304">
        <ele>2171.7600000000002</ele>
        <time>2019-03-11T14:16:08Z</time>
      </trkpt>
      <trkpt lat="32.540794629603624" lon="-4.9399483948946">
        <ele>2171.7600000000002</ele>
        <time>2019-03-11T14:16:09Z</time>
      </trkpt>
      <trkpt lat="32.540827738121152" lon="-4.940012767910957">
        <ele>2171.7600000000002</ele>
        <time>2019-03-11T14:16:10Z</time>
      </trkpt>
      <trkpt lat="32.540855817496777" lon="-4.940084433183074">
        <ele>2172.2399999999998</ele>
        <time>2019-03-11T14:16:11Z</time>
      </trkpt>
      <trkpt lat="32.540875598788261" lon="-4.940160289406776">
        <ele>2172.2399999999998</ele>
        <time>2019-03-11T14:16:12Z</time>
      </trkpt>
      <trkpt lat="32.54088825546205" lon="-4.940240168944001">
        <ele>2172.2399999999998</ele>
        <time>2019-03-11T14:16:13Z</time>
      </trkpt>
      <trkpt lat="32.540892865508795" lon="-4.940323149785399">
        <ele>2172.2399999999998</ele>
        <time>2019-03-11T14:16:14Z</time>
      </trkpt>
      <trkpt lat="32.54088968038559" lon="-4.940405124798417">
        <ele>2172.7199999999998</ele>
        <time>2019-03-11T14:16:16Z</time>
      </trkpt>
      <trkpt lat="32.540880879387259" lon="-4.940561279654503">
        <ele>2172.7199999999998</ele>
        <time>2019-03-11T14:16:17Z</time>
      </trkpt>
      <trkpt lat="32.540889428928494" lon="-4.940630095079541">
        <ele>2172.7199999999998</ele>
        <time>2019-03-11T14:16:18Z</time>
      </trkpt>
      <trkpt lat="32.540912395343184" lon="-4.940696060657501">
        <ele>2172.7199999999998</ele>
        <time>2019-03-11T14:16:19Z</time>
      </trkpt>
      <trkpt lat="32.540953299030662" lon="-4.940758589655161">
        <ele>2172.7199999999998</ele>
        <time>2019-03-11T14:16:20Z</time>
      </trkpt>
      <trkpt lat="32.541005853563547" lon="-4.940816760063171">
        <ele>2176.5599999999999</ele>
        <time>2019-03-11T14:16:21Z</time>
      </trkpt>
      <trkpt lat="32.541064862161875" lon="-4.940869230777025">
        <ele>2180.8899999999999</ele>
        <time>2019-03-11T14:16:22Z</time>
      </trkpt>
      <trkpt lat="32.541130660101771" lon="-4.940915834158659">
        <ele>2181.3699999999999</ele>
        <time>2019-03-11T14:16:35Z</time>
      </trkpt>
      <trkpt lat="32.541891904547811" lon="-4.941523941233754">
        <ele>2181.3699999999999</ele>
        <time>2019-03-11T14:16:49Z</time>
      </trkpt>
      <trkpt lat="32.542652394622564" lon="-4.942459277808666">
        <ele>2181.3699999999999</ele>
        <time>2019-03-11T14:16:51Z</time>
      </trkpt>
      <trkpt lat="32.542729089036584" lon="-4.942628927528858">
        <ele>2181.3699999999999</ele>
        <time>2019-03-11T14:16:52Z</time>
      </trkpt>
      <trkpt lat="32.542739314958453" lon="-4.942708136513829">
        <ele>2181.3699999999999</ele>
        <time>2019-03-11T14:16:53Z</time>
      </trkpt>
      <trkpt lat="32.542728502303362" lon="-4.942774772644043">
        <ele>2181.3699999999999</ele>
        <time>2019-03-11T14:16:54Z</time>
      </trkpt>
      <trkpt lat="32.542698075994849" lon="-4.942822381854057">
        <ele>2181.8499999999999</ele>
        <time>2019-03-11T14:16:55Z</time>
      </trkpt>
      <trkpt lat="32.542650885879993" lon="-4.94285230524838">
        <ele>2178.48</ele>
        <time>2019-03-11T14:16:56Z</time>
      </trkpt>
      <trkpt lat="32.542592715471983" lon="-4.942863117903471">
        <ele>2175.5999999999999</ele>
        <time>2019-03-11T14:16:57Z</time>
      </trkpt>
      <trkpt lat="32.542525660246611" lon="-4.942865632474423">
        <ele>2175.5999999999999</ele>
        <time>2019-03-11T14:17:07Z</time>
      </trkpt>
      <trkpt lat="32.541704904288054" lon="-4.942949367687106">
        <ele>2175.1199999999999</ele>
        <time>2019-03-11T14:17:17Z</time>
      </trkpt>
      <trkpt lat="32.540882220491767" lon="-4.943149108439684">
        <ele>2175.1199999999999</ele>
        <time>2019-03-11T14:17:18Z</time>
      </trkpt>
      <trkpt lat="32.54081298597157" lon="-4.943196550011635">
        <ele>2174.6399999999999</ele>
        <time>2019-03-11T14:17:19Z</time>
      </trkpt>
      <trkpt lat="32.540764957666397" lon="-4.943265281617641">
        <ele>2174.6399999999999</ele>
        <time>2019-03-11T14:17:20Z</time>
      </trkpt>
      <trkpt lat="32.540738387033343" lon="-4.943344909697771">
        <ele>2174.1599999999999</ele>
        <time>2019-03-11T14:17:21Z</time>
      </trkpt>
      <trkpt lat="32.540727574378252" lon="-4.943425292149186">
        <ele>2171.27</ele>
        <time>2019-03-11T14:17:22Z</time>
      </trkpt>
      <trkpt lat="32.540723886340857" lon="-4.943506428971887">
        <ele>2171.27</ele>
        <time>2019-03-11T14:17:23Z</time>
      </trkpt>
      <trkpt lat="32.540722880512476" lon="-4.943592762574554">
        <ele>2168.8699999999999</ele>
        <time>2019-03-11T14:17:30Z</time>
      </trkpt>
      <trkpt lat="32.540706032887101" lon="-4.944281419739127">
        <ele>2168.8699999999999</ele>
        <time>2019-03-11T14:17:31Z</time>
      </trkpt>
      <trkpt lat="32.540722461417317" lon="-4.944381332024932">
        <ele>2168.3899999999999</ele>
        <time>2019-03-11T14:17:36Z</time>
      </trkpt>
      <trkpt lat="32.540813991799951" lon="-4.944864800199866">
        <ele>2168.3899999999999</ele>
        <time>2019-03-11T14:17:37Z</time>
      </trkpt>
      <trkpt lat="32.540808292105794" lon="-4.944958677515388">
        <ele>2168.3899999999999</ele>
        <time>2019-03-11T14:17:38Z</time>
      </trkpt>
      <trkpt lat="32.540793791413307" lon="-4.945047274231911">
        <ele>2168.3899999999999</ele>
        <time>2019-03-11T14:17:40Z</time>
      </trkpt>
      <trkpt lat="32.54075774922967" lon="-4.945185324177146">
        <ele>2168.8699999999999</ele>
        <time>2019-03-11T14:17:41Z</time>
      </trkpt>
      <trkpt lat="32.540735201910138" lon="-4.945238381624222">
        <ele>2168.8699999999999</ele>
        <time>2019-03-11T14:17:42Z</time>
      </trkpt>
      <trkpt lat="32.540709301829338" lon="-4.945284565910697">
        <ele>2168.8699999999999</ele>
        <time>2019-03-11T14:17:43Z</time>
      </trkpt>
      <trkpt lat="32.540683820843697" lon="-4.945318093523383">
        <ele>2168.8699999999999</ele>
        <time>2019-03-11T14:17:44Z</time>
      </trkpt>
      <trkpt lat="32.540660770609975" lon="-4.945338545367122">
        <ele>2168.8699999999999</ele>
        <time>2019-03-11T14:17:45Z</time>
      </trkpt>
      <trkpt lat="32.540643587708473" lon="-4.945351704955101">
        <ele>2169.3499999999999</ele>
        <time>2019-03-11T14:17:46Z</time>
      </trkpt>
      <trkpt lat="32.54063168540597" lon="-4.945364445447922">
        <ele>2169.8299999999999</ele>
        <time>2019-03-11T14:17:47Z</time>
      </trkpt>
      <trkpt lat="32.540620286017656" lon="-4.945380873978138">
        <ele>2169.8299999999999</ele>
        <time>2019-03-11T14:17:48Z</time>
      </trkpt>
      <trkpt lat="32.540611820295453" lon="-4.945398308336735">
        <ele>2169.8299999999999</ele>
        <time>2019-03-11T14:17:49Z</time>
      </trkpt>
      <trkpt lat="32.54060871899128" lon="-4.945420017465949">
        <ele>2169.8299999999999</ele>
        <time>2019-03-11T14:17:50Z</time>
      </trkpt>
      <trkpt lat="32.54060729406774" lon="-4.945440972223878">
        <ele>2170.3099999999999</ele>
        <time>2019-03-11T14:17:51Z</time>
      </trkpt>
      <trkpt lat="32.540609138086438" lon="-4.945457484573126">
        <ele>2170.3099999999999</ele>
        <time>2019-03-11T14:17:52Z</time>
      </trkpt>
      <trkpt lat="32.540614083409309" lon="-4.945478774607182">
        <ele>2170.3099999999999</ele>
        <time>2019-03-11T14:17:53Z</time>
      </trkpt>
      <trkpt lat="32.540621627122164" lon="-4.945501405745745">
        <ele>2170.3099999999999</ele>
        <time>2019-03-11T14:17:54Z</time>
      </trkpt>
      <trkpt lat="32.540632523596287" lon="-4.945521857589483">
        <ele>2169.8299999999999</ele>
        <time>2019-03-11T14:17:55Z</time>
      </trkpt>
      <trkpt lat="32.540650460869074" lon="-4.945540213957429">
        <ele>2169.8299999999999</ele>
        <time>2019-03-11T14:17:56Z</time>
      </trkpt>
      <trkpt lat="32.540669655427337" lon="-4.945556307211518">
        <ele>2169.3499999999999</ele>
        <time>2019-03-11T14:17:57Z</time>
      </trkpt>
      <trkpt lat="32.540689688175917" lon="-4.945570388808847">
        <ele>2169.3499999999999</ele>
        <time>2019-03-11T14:18:10Z</time>
      </trkpt>
      <trkpt lat="32.540960926562548" lon="-4.945912957191467">
        <ele>2168.8699999999999</ele>
        <time>2019-03-11T14:18:19Z</time>
      </trkpt>
      <trkpt lat="32.541092354804277" lon="-4.946104064583778">
        <ele>2168.8699999999999</ele>
        <time>2019-03-11T14:18:20Z</time>
      </trkpt>
      <trkpt lat="32.541104760020971" lon="-4.946117643266916">
        <ele>2168.8699999999999</ele>
        <time>2019-03-11T14:18:21Z</time>
      </trkpt>
      <trkpt lat="32.541118841618299" lon="-4.94613591581583">
        <ele>2168.3899999999999</ele>
        <time>2019-03-11T14:18:22Z</time>
      </trkpt>
      <trkpt lat="32.541137197986245" lon="-4.946157373487949">
        <ele>2167.4299999999998</ele>
        <time>2019-03-11T14:18:23Z</time>
      </trkpt>
      <trkpt lat="32.541159577667713" lon="-4.946182770654559">
        <ele>2167.4299999999998</ele>
        <time>2019-03-11T14:18:27Z</time>
      </trkpt>
      <trkpt lat="32.541261082515121" lon="-4.946319814771414">
        <ele>2165.9899999999998</ele>
        <time>2019-03-11T14:18:40Z</time>
      </trkpt>
      <trkpt lat="32.541410280391574" lon="-4.946882072836161">
        <ele>2165.5100000000002</ele>
        <time>2019-03-11T14:18:50Z</time>
      </trkpt>
      <trkpt lat="32.541407765820622" lon="-4.947051554918289">
        <ele>2163.5799999999999</ele>
        <time>2019-03-11T14:19:02Z</time>
      </trkpt>
      <trkpt lat="32.5414071790874" lon="-4.947287924587727">
        <ele>2163.5799999999999</ele>
        <time>2019-03-11T14:19:14Z</time>
      </trkpt>
      <trkpt lat="32.541441796347499" lon="-4.947670139372349">
        <ele>2164.0599999999999</ele>
        <time>2019-03-11T14:19:18Z</time>
      </trkpt>
      <trkpt lat="32.541575068607926" lon="-4.947736607864499">
        <ele>2163.5799999999999</ele>
        <time>2019-03-11T14:19:19Z</time>
      </trkpt>
      <trkpt lat="32.541612032800913" lon="-4.947758903726935">
        <ele>2163.5799999999999</ele>
        <time>2019-03-11T14:19:20Z</time>
      </trkpt>
      <trkpt lat="32.541647907346487" lon="-4.947786564007402">
        <ele>2163.5799999999999</ele>
        <time>2019-03-11T14:19:26Z</time>
      </trkpt>
      <trkpt lat="32.541846726089716" lon="-4.947978006675839">
        <ele>2163.0999999999999</ele>
        <time>2019-03-11T14:19:27Z</time>
      </trkpt>
      <trkpt lat="32.541872290894389" lon="-4.948012372478843">
        <ele>2163.5799999999999</ele>
        <time>2019-03-11T14:19:28Z</time>
      </trkpt>
      <trkpt lat="32.541890647262335" lon="-4.948048749938607">
        <ele>2163.0999999999999</ele>
        <time>2019-03-11T14:19:29Z</time>
      </trkpt>
      <trkpt lat="32.541903639212251" lon="-4.94808747433126">
        <ele>2163.0999999999999</ele>
        <time>2019-03-11T14:19:30Z</time>
      </trkpt>
      <trkpt lat="32.541912691667676" lon="-4.948125947266817">
        <ele>2161.1799999999998</ele>
        <time>2019-03-11T14:19:31Z</time>
      </trkpt>
      <trkpt lat="32.541916966438293" lon="-4.948164252564311">
        <ele>2159.7399999999998</ele>
        <time>2019-03-11T14:19:32Z</time>
      </trkpt>
      <trkpt lat="32.541921241208911" lon="-4.948203144595027">
        <ele>2157.8200000000002</ele>
        <time>2019-03-11T14:19:44Z</time>
      </trkpt>
      <trkpt lat="32.541932892054319" lon="-4.948473377153277">
        <ele>2154.9299999999998</ele>
        <time>2019-03-11T14:20:00Z</time>
      </trkpt>
      <trkpt lat="32.541915457695723" lon="-4.94875056669116">
        <ele>2152.5300000000002</ele>
        <time>2019-03-11T14:20:19Z</time>
      </trkpt>
      <trkpt lat="32.541870614513755" lon="-4.949082741513848">
        <ele>2151.0900000000001</ele>
        <time>2019-03-11T14:20:32Z</time>
      </trkpt>
      <trkpt lat="32.541722925379872" lon="-4.949530083686113">
        <ele>2151.0900000000001</ele>
        <time>2019-03-11T14:20:46Z</time>
      </trkpt>
      <trkpt lat="32.54153760150075" lon="-4.949969546869397">
        <ele>2148.1999999999998</ele>
        <time>2019-03-11T14:20:56Z</time>
      </trkpt>
      <trkpt lat="32.541356300935149" lon="-4.950328795239329">
        <ele>2147.2399999999998</ele>
        <time>2019-03-11T14:20:57Z</time>
      </trkpt>
      <trkpt lat="32.541331993415952" lon="-4.950374476611614">
        <ele>2146.7600000000002</ele>
        <time>2019-03-11T14:21:08Z</time>
      </trkpt>
      <trkpt lat="32.540864618495107" lon="-4.950884347781539">
        <ele>2145.3200000000002</ele>
        <time>2019-03-11T14:21:09Z</time>
      </trkpt>
      <trkpt lat="32.540801418945193" lon="-4.950918210670352">
        <ele>2145.3200000000002</ele>
        <time>2019-03-11T14:21:10Z</time>
      </trkpt>
      <trkpt lat="32.540737297385931" lon="-4.950947547331452">
        <ele>2144.8400000000001</ele>
        <time>2019-03-11T14:21:14Z</time>
      </trkpt>
      <trkpt lat="32.540473602712154" lon="-4.951018961146474">
        <ele>2144.8400000000001</ele>
        <time>2019-03-11T14:21:15Z</time>
      </trkpt>
      <trkpt lat="32.540405122563243" lon="-4.951020553708077">
        <ele>2144.3600000000001</ele>
        <time>2019-03-11T14:21:16Z</time>
      </trkpt>
      <trkpt lat="32.540337480604649" lon="-4.951014686375856">
        <ele>2143.8800000000001</ele>
        <time>2019-03-11T14:21:17Z</time>
      </trkpt>
      <trkpt lat="32.54027159884572" lon="-4.951003789901733">
        <ele>2143.4000000000001</ele>
        <time>2019-03-11T14:21:18Z</time>
      </trkpt>
      <trkpt lat="32.540205465629697" lon="-4.950989624485374">
        <ele>2142.4400000000001</ele>
        <time>2019-03-11T14:21:20Z</time>
      </trkpt>
      <trkpt lat="32.540078312158585" lon="-4.950967160984874">
        <ele>2142.4400000000001</ele>
        <time>2019-03-11T14:21:21Z</time>
      </trkpt>
      <trkpt lat="32.540017375722528" lon="-4.950970681384206">
        <ele>2141.9499999999998</ele>
        <time>2019-03-11T14:21:25Z</time>
      </trkpt>
      <trkpt lat="32.539804726839066" lon="-4.95097286067903">
        <ele>2141.9499999999998</ele>
        <time>2019-03-11T14:21:26Z</time>
      </trkpt>
      <trkpt lat="32.539762230589986" lon="-4.950959365814924">
        <ele>2141.4699999999998</ele>
        <time>2019-03-11T14:21:27Z</time>
      </trkpt>
      <trkpt lat="32.539720488712192" lon="-4.950934387743473">
        <ele>2140.9899999999998</ele>
        <time>2019-03-11T14:21:28Z</time>
      </trkpt>
      <trkpt lat="32.539677657186985" lon="-4.950896836817265">
        <ele>2140.5100000000002</ele>
        <time>2019-03-11T14:21:31Z</time>
      </trkpt>
      <trkpt lat="32.53955477848649" lon="-4.950776221230626">
        <ele>2140.9899999999998</ele>
        <time>2019-03-11T14:21:32Z</time>
      </trkpt>
      <trkpt lat="32.539518736302853" lon="-4.950764654204249">
        <ele>2140.5100000000002</ele>
        <time>2019-03-11T14:21:33Z</time>
      </trkpt>
      <trkpt lat="32.539490405470133" lon="-4.950764905661345">
        <ele>2140.5100000000002</ele>
        <time>2019-03-11T14:21:39Z</time>
      </trkpt>
      <trkpt lat="32.539419075474143" lon="-4.950880073010922">
        <ele>2140.0300000000002</ele>
        <time>2019-03-11T14:21:43Z</time>
      </trkpt>
      <trkpt lat="32.539408765733242" lon="-4.951060619205236">
        <ele>2140.0300000000002</ele>
        <time>2019-03-11T14:21:44Z</time>
      </trkpt>
      <trkpt lat="32.53941748291254" lon="-4.951126417145133">
        <ele>2140.0300000000002</ele>
        <time>2019-03-11T14:21:45Z</time>
      </trkpt>
      <trkpt lat="32.539435252547264" lon="-4.951189029961824">
        <ele>2140.0300000000002</ele>
        <time>2019-03-11T14:21:46Z</time>
      </trkpt>
      <trkpt lat="32.53945997916162" lon="-4.951243177056313">
        <ele>2139.0700000000002</ele>
        <time>2019-03-11T14:21:47Z</time>
      </trkpt>
      <trkpt lat="32.539489986374974" lon="-4.951294222846627">
        <ele>2138.5900000000001</ele>
        <time>2019-03-11T14:21:48Z</time>
      </trkpt>
      <trkpt lat="32.539519658312201" lon="-4.951343843713403">
        <ele>2137.6300000000001</ele>
        <time>2019-03-11T14:21:51Z</time>
      </trkpt>
      <trkpt lat="32.539621079340577" lon="-4.951507039368153">
        <ele>2134.7399999999998</ele>
        <time>2019-03-11T14:21:52Z</time>
      </trkpt>
      <trkpt lat="32.539660222828388" lon="-4.951548278331757">
        <ele>2133.7800000000002</ele>
        <time>2019-03-11T14:21:53Z</time>
      </trkpt>
      <trkpt lat="32.539698276668787" lon="-4.951579375192523">
        <ele>2132.8200000000002</ele>
        <time>2019-03-11T14:22:04Z</time>
      </trkpt>
      <trkpt lat="32.540173949673772" lon="-4.952118583023548">
        <ele>2132.3400000000001</ele>
        <time>2019-03-11T14:22:06Z</time>
      </trkpt>
      <trkpt lat="32.540250476449728" lon="-4.952237354591489">
        <ele>2131.8600000000001</ele>
        <time>2019-03-11T14:22:07Z</time>
      </trkpt>
      <trkpt lat="32.540277633816004" lon="-4.952299883589149">
        <ele>2131.3800000000001</ele>
        <time>2019-03-11T14:22:08Z</time>
      </trkpt>
      <trkpt lat="32.540295319631696" lon="-4.952366519719362">
        <ele>2130.9000000000001</ele>
        <time>2019-03-11T14:22:09Z</time>
      </trkpt>
      <trkpt lat="32.540305629372597" lon="-4.952439526095986">
        <ele>2130.4200000000001</ele>
        <time>2019-03-11T14:22:10Z</time>
      </trkpt>
      <trkpt lat="32.540311999619007" lon="-4.95251496322453">
        <ele>2129.9400000000001</ele>
        <time>2019-03-11T14:22:12Z</time>
      </trkpt>
      <trkpt lat="32.540313173085451" lon="-4.952655863016844">
        <ele>2129.9400000000001</ele>
        <time>2019-03-11T14:22:13Z</time>
      </trkpt>
      <trkpt lat="32.540299510583282" lon="-4.952720738947392">
        <ele>2129.46</ele>
        <time>2019-03-11T14:22:14Z</time>
      </trkpt>
      <trkpt lat="32.540275286883116" lon="-4.952778490260243">
        <ele>2128.98</ele>
        <time>2019-03-11T14:22:15Z</time>
      </trkpt>
      <trkpt lat="32.540238741785288" lon="-4.952829033136368">
        <ele>2128.5</ele>
        <time>2019-03-11T14:22:16Z</time>
      </trkpt>
      <trkpt lat="32.540192222222686" lon="-4.952874965965748">
        <ele>2128.02</ele>
        <time>2019-03-11T14:22:17Z</time>
      </trkpt>
      <trkpt lat="32.540137153118849" lon="-4.952914025634527">
        <ele>2128.02</ele>
        <time>2019-03-11T14:22:18Z</time>
      </trkpt>
      <trkpt lat="32.540073869749904" lon="-4.95294394902885">
        <ele>2128.02</ele>
        <time>2019-03-11T14:22:19Z</time>
      </trkpt>
      <trkpt lat="32.540007149800658" lon="-4.952968172729015">
        <ele>2128.5</ele>
        <time>2019-03-11T14:22:20Z</time>
      </trkpt>
      <trkpt lat="32.539944872260094" lon="-4.952987367287278">
        <ele>2128.5</ele>
        <time>2019-03-11T14:22:25Z</time>
      </trkpt>
      <trkpt lat="32.539797853678465" lon="-4.953034641221166">
        <ele>2128.02</ele>
        <time>2019-03-11T14:22:29Z</time>
      </trkpt>
      <trkpt lat="32.539802379906178" lon="-4.953121561557055">
        <ele>2128.02</ele>
        <time>2019-03-11T14:22:30Z</time>
      </trkpt>
      <trkpt lat="32.539827609434724" lon="-4.953138157725334">
        <ele>2127.0500000000002</ele>
        <time>2019-03-11T14:22:31Z</time>
      </trkpt>
      <trkpt lat="32.539863735437393" lon="-4.953151820227504">
        <ele>2126.5700000000002</ele>
        <time>2019-03-11T14:22:32Z</time>
      </trkpt>
      <trkpt lat="32.539902376011014" lon="-4.953166823834181">
        <ele>2126.0900000000001</ele>
        <time>2019-03-11T14:22:36Z</time>
      </trkpt>
      <trkpt lat="32.540105804800987" lon="-4.953247122466564">
        <ele>2125.1300000000001</ele>
        <time>2019-03-11T14:22:37Z</time>
      </trkpt>
      <trkpt lat="32.540159113705158" lon="-4.953285092487931">
        <ele>2123.21</ele>
        <time>2019-03-11T14:22:38Z</time>
      </trkpt>
      <trkpt lat="32.540208650752902" lon="-4.953325660899282">
        <ele>2122.73</ele>
        <time>2019-03-11T14:22:40Z</time>
      </trkpt>
      <trkpt lat="32.540310742333531" lon="-4.953403444960713">
        <ele>2122.25</ele>
        <time>2019-03-11T14:22:44Z</time>
      </trkpt>
      <trkpt lat="32.540530264377594" lon="-4.953537471592426">
        <ele>2121.77</ele>
        <time>2019-03-11T14:22:45Z</time>
      </trkpt>
      <trkpt lat="32.540573347359896" lon="-4.953584410250187">
        <ele>2121.29</ele>
        <time>2019-03-11T14:22:46Z</time>
      </trkpt>
      <trkpt lat="32.540607880800962" lon="-4.953642832115293">
        <ele>2120.8099999999999</ele>
        <time>2019-03-11T14:22:47Z</time>
      </trkpt>
      <trkpt lat="32.540633780881763" lon="-4.953711898997426">
        <ele>2120.3200000000002</ele>
        <time>2019-03-11T14:22:48Z</time>
      </trkpt>
      <trkpt lat="32.540649455040693" lon="-4.953789683058858">
        <ele>2119.8400000000001</ele>
        <time>2019-03-11T14:22:49Z</time>
      </trkpt>
      <trkpt lat="32.540657836943865" lon="-4.953871993348002">
        <ele>2117.4400000000001</ele>
        <time>2019-03-11T14:22:50Z</time>
      </trkpt>
      <trkpt lat="32.540665380656719" lon="-4.953955980017781">
        <ele>2116.96</ele>
        <time>2019-03-11T14:22:51Z</time>
      </trkpt>
      <trkpt lat="32.540676109492779" lon="-4.95404046960175">
        <ele>2116.48</ele>
        <time>2019-03-11T14:22:57Z</time>
      </trkpt>
      <trkpt lat="32.540812566876411" lon="-4.954492086544633">
        <ele>2115.52</ele>
        <time>2019-03-11T14:22:58Z</time>
      </trkpt>
      <trkpt lat="32.540822960436344" lon="-4.954539779573679">
        <ele>2115.04</ele>
        <time>2019-03-11T14:22:59Z</time>
      </trkpt>
      <trkpt lat="32.540825475007296" lon="-4.954574145376682">
        <ele>2115.04</ele>
        <time>2019-03-11T14:23:11Z</time>
      </trkpt>
      <trkpt lat="32.540820110589266" lon="-4.954597530886531">
        <ele>2115.04</ele>
        <time>2019-03-11T14:23:16Z</time>
      </trkpt>
      <trkpt lat="32.540766801685095" lon="-4.954712614417076">
        <ele>2114.5599999999999</ele>
        <time>2019-03-11T14:23:17Z</time>
      </trkpt>
      <trkpt lat="32.540730591863394" lon="-4.954737592488527">
        <ele>2114.5599999999999</ele>
        <time>2019-03-11T14:23:18Z</time>
      </trkpt>
      <trkpt lat="32.540692621842027" lon="-4.954753015190363">
        <ele>2113.5999999999999</ele>
        <time>2019-03-11T14:23:19Z</time>
      </trkpt>
      <trkpt lat="32.540650041773915" lon="-4.954762570559979">
        <ele>2112.6300000000001</ele>
        <time>2019-03-11T14:23:20Z</time>
      </trkpt>
      <trkpt lat="32.540601762011647" lon="-4.954767767339945">
        <ele>2112.1500000000001</ele>
        <time>2019-03-11T14:23:33Z</time>
      </trkpt>
      <trkpt lat="32.54013866186142" lon="-4.954788219183683">
        <ele>2112.1500000000001</ele>
        <time>2019-03-11T14:23:45Z</time>
      </trkpt>
      <trkpt lat="32.539940010756254" lon="-4.954771287739277">
        <ele>2111.6700000000001</ele>
        <time>2019-03-11T14:23:58Z</time>
      </trkpt>
      <trkpt lat="32.539658211171627" lon="-4.954696521162987">
        <ele>2106.8699999999999</ele>
        <time>2019-03-11T14:24:04Z</time>
      </trkpt>
      <trkpt lat="32.539452938362956" lon="-4.954677745699883">
        <ele>2104.9400000000001</ele>
        <time>2019-03-11T14:24:05Z</time>
      </trkpt>
      <trkpt lat="32.539406921714544" lon="-4.954693000763655">
        <ele>2106.8699999999999</ele>
        <time>2019-03-11T14:24:15Z</time>
      </trkpt>
      <trkpt lat="32.539003835991025" lon="-4.954847395420075">
        <ele>2107.3499999999999</ele>
        <time>2019-03-11T14:24:24Z</time>
      </trkpt>
      <trkpt lat="32.538921693339944" lon="-4.954877905547619">
        <ele>2107.3499999999999</ele>
        <time>2019-03-11T14:24:31Z</time>
      </trkpt>
      <trkpt lat="32.53882672637701" lon="-4.954977985471487">
        <ele>2106.8699999999999</ele>
        <time>2019-03-11T14:24:32Z</time>
      </trkpt>
      <trkpt lat="32.538833934813738" lon="-4.955002125352621">
        <ele>2106.8699999999999</ele>
        <time>2019-03-11T14:24:33Z</time>
      </trkpt>
      <trkpt lat="32.538844663649797" lon="-4.955023834481835">
        <ele>2106.8699999999999</ele>
        <time>2019-03-11T14:24:34Z</time>
      </trkpt>
      <trkpt lat="32.538859583437443" lon="-4.955039341002703">
        <ele>2106.8699999999999</ele>
        <time>2019-03-11T14:24:35Z</time>
      </trkpt>
      <trkpt lat="32.538874000310898" lon="-4.955050069838762">
        <ele>2104.46</ele>
        <time>2019-03-11T14:24:36Z</time>
      </trkpt>
      <trkpt lat="32.538890596479177" lon="-4.955058032646775">
        <ele>2104.9400000000001</ele>
        <time>2019-03-11T14:24:37Z</time>
      </trkpt>
      <trkpt lat="32.538905935361981" lon="-4.955062139779329">
        <ele>2105.4200000000001</ele>
        <time>2019-03-11T14:24:48Z</time>
      </trkpt>
      <trkpt lat="32.53922687843442" lon="-4.955120058730245">
        <ele>2106.3899999999999</ele>
        <time>2019-03-11T14:24:49Z</time>
      </trkpt>
      <trkpt lat="32.53926208242774" lon="-4.955141181126237">
        <ele>2109.75</ele>
        <time>2019-03-11T14:24:50Z</time>
      </trkpt>
      <trkpt lat="32.539293011650443" lon="-4.955173283815384">
        <ele>2111.6700000000001</ele>
        <time>2019-03-11T14:24:52Z</time>
      </trkpt>
      <trkpt lat="32.539355540648103" lon="-4.955249475315213">
        <ele>2112.1500000000001</ele>
        <time>2019-03-11T14:25:02Z</time>
      </trkpt>
      <trkpt lat="32.539653098210692" lon="-4.955670917406678">
        <ele>2114.0799999999999</ele>
        <time>2019-03-11T14:25:09Z</time>
      </trkpt>
      <trkpt lat="32.539920564740896" lon="-4.956119768321514">
        <ele>2114.5599999999999</ele>
        <time>2019-03-11T14:25:10Z</time>
      </trkpt>
      <trkpt lat="32.539961133152246" lon="-4.956173580139875">
        <ele>2114.5599999999999</ele>
        <time>2019-03-11T14:25:13Z</time>
      </trkpt>
      <trkpt lat="32.540077390149236" lon="-4.956309869885445">
        <ele>2114.0799999999999</ele>
        <time>2019-03-11T14:25:14Z</time>
      </trkpt>
      <trkpt lat="32.540102200582623" lon="-4.956360077485442">
        <ele>2113.5999999999999</ele>
        <time>2019-03-11T14:25:15Z</time>
      </trkpt>
      <trkpt lat="32.540118880569935" lon="-4.956420846283436">
        <ele>2113.5999999999999</ele>
        <time>2019-03-11T14:25:16Z</time>
      </trkpt>
      <trkpt lat="32.540128184482455" lon="-4.956488152965903">
        <ele>2113.1199999999999</ele>
        <time>2019-03-11T14:25:17Z</time>
      </trkpt>
      <trkpt lat="32.540128855034709" lon="-4.956556046381593">
        <ele>2113.1199999999999</ele>
        <time>2019-03-11T14:25:18Z</time>
      </trkpt>
      <trkpt lat="32.540120054036379" lon="-4.956627544015646">
        <ele>2111.1900000000001</ele>
        <time>2019-03-11T14:25:19Z</time>
      </trkpt>
      <trkpt lat="32.54010546952486" lon="-4.956698035821319">
        <ele>2109.75</ele>
        <time>2019-03-11T14:25:20Z</time>
      </trkpt>
      <trkpt lat="32.540091387927532" lon="-4.956765091046691">
        <ele>2109.75</ele>
        <time>2019-03-11T14:25:32Z</time>
      </trkpt>
      <trkpt lat="32.539859544485807" lon="-4.957594061270356">
        <ele>2109.75</ele>
        <time>2019-03-11T14:25:41Z</time>
      </trkpt>
      <trkpt lat="32.539715962484479" lon="-4.958244245499373">
        <ele>2109.27</ele>
        <time>2019-03-11T14:25:44Z</time>
      </trkpt>
      <trkpt lat="32.539651589468122" lon="-4.958499306812882">
        <ele>2109.27</ele>
        <time>2019-03-11T14:25:45Z</time>
      </trkpt>
      <trkpt lat="32.539639938622713" lon="-4.958578934893012">
        <ele>2108.79</ele>
        <time>2019-03-11T14:25:46Z</time>
      </trkpt>
      <trkpt lat="32.539638010784984" lon="-4.958652444183826">
        <ele>2108.79</ele>
        <time>2019-03-11T14:25:47Z</time>
      </trkpt>
      <trkpt lat="32.539644967764616" lon="-4.958715811371803">
        <ele>2108.3099999999999</ele>
        <time>2019-03-11T14:25:48Z</time>
      </trkpt>
      <trkpt lat="32.539662318304181" lon="-4.958767024800181">
        <ele>2105.4200000000001</ele>
        <time>2019-03-11T14:25:49Z</time>
      </trkpt>
      <trkpt lat="32.539691319689155" lon="-4.958809437230229">
        <ele>2104.46</ele>
        <time>2019-03-11T14:25:50Z</time>
      </trkpt>
      <trkpt lat="32.539726356044412" lon="-4.958851262927055">
        <ele>2100.1399999999999</ele>
        <time>2019-03-11T14:26:04Z</time>
      </trkpt>
      <trkpt lat="32.540376372635365" lon="-4.959493316709995">
        <ele>2095.8099999999999</ele>
        <time>2019-03-11T14:26:11Z</time>
      </trkpt>
      <trkpt lat="32.540609473362565" lon="-4.959720298647881">
        <ele>2095.3299999999999</ele>
        <time>2019-03-11T14:26:26Z</time>
      </trkpt>
      <trkpt lat="32.541283126920462" lon="-4.960478274151683">
        <ele>2094.8499999999999</ele>
        <time>2019-03-11T14:26:37Z</time>
      </trkpt>
      <trkpt lat="32.541850162670016" lon="-4.960992503911257">
        <ele>2092.4499999999998</ele>
        <time>2019-03-11T14:26:40Z</time>
      </trkpt>
      <trkpt lat="32.542006149888039" lon="-4.961102809756994">
        <ele>2091.9699999999998</ele>
        <time>2019-03-11T14:26:41Z</time>
      </trkpt>
      <trkpt lat="32.542068678885698" lon="-4.961136169731617">
        <ele>2089.0799999999999</ele>
        <time>2019-03-11T14:26:47Z</time>
      </trkpt>
      <trkpt lat="32.54240102134645" lon="-4.961303221061826">
        <ele>2088.5999999999999</ele>
        <time>2019-03-11T14:26:48Z</time>
      </trkpt>
      <trkpt lat="32.542455922812223" lon="-4.96132543310523">
        <ele>2084.2800000000002</ele>
        <time>2019-03-11T14:26:56Z</time>
      </trkpt>
      <trkpt lat="32.543015582486987" lon="-4.96149885468185">
        <ele>2079.4699999999998</ele>
        <time>2019-03-11T14:26:57Z</time>
      </trkpt>
      <trkpt lat="32.543073752894998" lon="-4.96152282692492">
        <ele>2078.9899999999998</ele>
        <time>2019-03-11T14:27:11Z</time>
      </trkpt>
      <trkpt lat="32.543868692591786" lon="-4.961751736700535">
        <ele>2077.0700000000002</ele>
        <time>2019-03-11T14:27:26Z</time>
      </trkpt>
      <trkpt lat="32.54467117600143" lon="-4.96173438616097">
        <ele>2076.5900000000001</ele>
        <time>2019-03-11T14:27:27Z</time>
      </trkpt>
      <trkpt lat="32.544721215963364" lon="-4.961729273200035">
        <ele>2075.6199999999999</ele>
        <time>2019-03-11T14:27:32Z</time>
      </trkpt>
      <trkpt lat="32.544930260628462" lon="-4.961662972345948">
        <ele>2070.3400000000001</ele>
        <time>2019-03-11T14:27:33Z</time>
      </trkpt>
      <trkpt lat="32.544981725513935" lon="-4.961653584614396">
        <ele>2067.4499999999998</ele>
        <time>2019-03-11T14:27:36Z</time>
      </trkpt>
      <trkpt lat="32.545165624469519" lon="-4.961625086143613">
        <ele>2064.5700000000002</ele>
        <time>2019-03-11T14:27:48Z</time>
      </trkpt>
      <trkpt lat="32.545757051557302" lon="-4.961400870233774">
        <ele>2064.5700000000002</ele>
        <time>2019-03-11T14:28:00Z</time>
      </trkpt>
      <trkpt lat="32.546440092846751" lon="-4.961207248270512">
        <ele>2064.5700000000002</ele>
        <time>2019-03-11T14:28:07Z</time>
      </trkpt>
      <trkpt lat="32.546917609870434" lon="-4.961084621027112">
        <ele>2064.5700000000002</ele>
        <time>2019-03-11T14:28:08Z</time>
      </trkpt>
      <trkpt lat="32.54697360098362" lon="-4.961093002930284">
        <ele>2064.0900000000001</ele>
        <time>2019-03-11T14:28:09Z</time>
      </trkpt>
      <trkpt lat="32.547019701451063" lon="-4.961123345419765">
        <ele>2064.0900000000001</ele>
        <time>2019-03-11T14:28:10Z</time>
      </trkpt>
      <trkpt lat="32.547049792483449" lon="-4.961175061762333">
        <ele>2063.6100000000001</ele>
        <time>2019-03-11T14:28:11Z</time>
      </trkpt>
      <trkpt lat="32.547065215185285" lon="-4.961237255483866">
        <ele>2063.1300000000001</ele>
        <time>2019-03-11T14:28:12Z</time>
      </trkpt>
      <trkpt lat="32.54706596955657" lon="-4.961306070908904">
        <ele>2063.1300000000001</ele>
        <time>2019-03-11T14:28:13Z</time>
      </trkpt>
      <trkpt lat="32.547060856595635" lon="-4.961376478895545">
        <ele>2061.6799999999998</ele>
        <time>2019-03-11T14:28:14Z</time>
      </trkpt>
      <trkpt lat="32.547049289569259" lon="-4.96144562959671">
        <ele>2061.6799999999998</ele>
        <time>2019-03-11T14:28:15Z</time>
      </trkpt>
      <trkpt lat="32.547030597925186" lon="-4.961516540497541">
        <ele>2061.1999999999998</ele>
        <time>2019-03-11T14:28:20Z</time>
      </trkpt>
      <trkpt lat="32.546926159411669" lon="-4.961882410570979">
        <ele>2061.1999999999998</ele>
        <time>2019-03-11T14:28:21Z</time>
      </trkpt>
      <trkpt lat="32.546890955418348" lon="-4.961954327300191">
        <ele>2061.1999999999998</ele>
        <time>2019-03-11T14:28:22Z</time>
      </trkpt>
      <trkpt lat="32.5468485429883" lon="-4.962021047249436">
        <ele>2060.7199999999998</ele>
        <time>2019-03-11T14:28:23Z</time>
      </trkpt>
      <trkpt lat="32.546806298196316" lon="-4.962087934836745">
        <ele>2060.2399999999998</ele>
        <time>2019-03-11T14:28:24Z</time>
      </trkpt>
      <trkpt lat="32.546774446964264" lon="-4.962160857394338">
        <ele>2060.2399999999998</ele>
        <time>2019-03-11T14:28:25Z</time>
      </trkpt>
      <trkpt lat="32.546751983463764" lon="-4.962238054722548">
        <ele>2059.7600000000002</ele>
        <time>2019-03-11T14:28:26Z</time>
      </trkpt>
      <trkpt lat="32.54673857241869" lon="-4.962319862097502">
        <ele>2058.8000000000002</ele>
        <time>2019-03-11T14:28:27Z</time>
      </trkpt>
      <trkpt lat="32.546734046190977" lon="-4.962401753291488">
        <ele>2058.3200000000002</ele>
        <time>2019-03-11T14:28:28Z</time>
      </trkpt>
      <trkpt lat="32.546732621267438" lon="-4.962484315037727">
        <ele>2058.3200000000002</ele>
        <time>2019-03-11T14:28:31Z</time>
      </trkpt>
      <trkpt lat="32.546744775027037" lon="-4.962725546211004">
        <ele>2057.8400000000001</ele>
        <time>2019-03-11T14:28:32Z</time>
      </trkpt>
      <trkpt lat="32.546741003170609" lon="-4.962805258110166">
        <ele>2057.8400000000001</ele>
        <time>2019-03-11T14:28:33Z</time>
      </trkpt>
      <trkpt lat="32.546728681772947" lon="-4.962880359962583">
        <ele>2057.8400000000001</ele>
        <time>2019-03-11T14:28:34Z</time>
      </trkpt>
      <trkpt lat="32.546708984300494" lon="-4.96295403689146">
        <ele>2057.3600000000001</ele>
        <time>2019-03-11T14:28:35Z</time>
      </trkpt>
      <trkpt lat="32.546683754771948" lon="-4.963028803467751">
        <ele>2056.8800000000001</ele>
        <time>2019-03-11T14:28:36Z</time>
      </trkpt>
      <trkpt lat="32.546649891883135" lon="-4.963097367435694">
        <ele>2055.9200000000001</ele>
        <time>2019-03-11T14:28:37Z</time>
      </trkpt>
      <trkpt lat="32.546610999852419" lon="-4.963159477338195">
        <ele>2055.4400000000001</ele>
        <time>2019-03-11T14:28:38Z</time>
      </trkpt>
      <trkpt lat="32.546571185812354" lon="-4.963216306641698">
        <ele>2054.96</ele>
        <time>2019-03-11T14:28:39Z</time>
      </trkpt>
      <trkpt lat="32.546528438106179" lon="-4.963267855346203">
        <ele>2051.5900000000001</ele>
        <time>2019-03-11T14:28:40Z</time>
      </trkpt>
      <trkpt lat="32.546482170000672" lon="-4.963313704356551">
        <ele>2051.5900000000001</ele>
        <time>2019-03-11T14:28:41Z</time>
      </trkpt>
      <trkpt lat="32.546431208029389" lon="-4.963353853672743">
        <ele>2051.1100000000001</ele>
        <time>2019-03-11T14:28:52Z</time>
      </trkpt>
      <trkpt lat="32.545666275545955" lon="-4.963731709867716">
        <ele>2050.6300000000001</ele>
        <time>2019-03-11T14:28:53Z</time>
      </trkpt>
      <trkpt lat="32.545594107359648" lon="-4.963770769536495">
        <ele>2050.6300000000001</ele>
        <time>2019-03-11T14:28:54Z</time>
      </trkpt>
      <trkpt lat="32.545529315248132" lon="-4.96381938457489">
        <ele>2051.1100000000001</ele>
        <time>2019-03-11T14:28:56Z</time>
      </trkpt>
      <trkpt lat="32.545420015230775" lon="-4.963916447013617">
        <ele>2051.5900000000001</ele>
        <time>2019-03-11T14:28:57Z</time>
      </trkpt>
      <trkpt lat="32.545369891449809" lon="-4.963940586894751">
        <ele>2051.5900000000001</ele>
        <time>2019-03-11T14:28:58Z</time>
      </trkpt>
      <trkpt lat="32.545316834002733" lon="-4.963946202769876">
        <ele>2052.0700000000002</ele>
        <time>2019-03-11T14:28:59Z</time>
      </trkpt>
      <trkpt lat="32.54526243545115" lon="-4.96393371373415">
        <ele>2053.9899999999998</ele>
        <time>2019-03-11T14:29:00Z</time>
      </trkpt>
      <trkpt lat="32.545209378004074" lon="-4.96390831656754">
        <ele>2054.4699999999998</ele>
        <time>2019-03-11T14:29:01Z</time>
      </trkpt>
      <trkpt lat="32.545161182060838" lon="-4.963874537497759">
        <ele>2054.4699999999998</ele>
        <time>2019-03-11T14:29:08Z</time>
      </trkpt>
      <trkpt lat="32.544945515692234" lon="-4.96385307982564">
        <ele>2054.96</ele>
        <time>2019-03-11T14:29:10Z</time>
      </trkpt>
      <trkpt lat="32.544874520972371" lon="-4.963879231363535">
        <ele>2054.4699999999998</ele>
        <time>2019-03-11T14:29:11Z</time>
      </trkpt>
      <trkpt lat="32.544832695275545" lon="-4.963870262727141">
        <ele>2056.4000000000001</ele>
        <time>2019-03-11T14:29:12Z</time>
      </trkpt>
      <trkpt lat="32.544789863750339" lon="-4.963846039026976">
        <ele>2058.3200000000002</ele>
        <time>2019-03-11T14:29:14Z</time>
      </trkpt>
      <trkpt lat="32.544699758291245" lon="-4.963785437867045">
        <ele>2058.3200000000002</ele>
        <time>2019-03-11T14:29:21Z</time>
      </trkpt>
      <trkpt lat="32.544288290664554" lon="-4.963620230555534">
        <ele>2059.2800000000002</ele>
        <time>2019-03-11T14:29:34Z</time>
      </trkpt>
      <trkpt lat="32.5436504278332" lon="-4.963562814518809">
        <ele>2059.2800000000002</ele>
        <time>2019-03-11T14:29:35Z</time>
      </trkpt>
      <trkpt lat="32.543610110878944" lon="-4.963559377938509">
        <ele>2059.2800000000002</ele>
        <time>2019-03-11T14:29:46Z</time>
      </trkpt>
      <trkpt lat="32.543146507814527" lon="-4.9635374173522">
        <ele>2059.7600000000002</ele>
        <time>2019-03-11T14:29:47Z</time>
      </trkpt>
      <trkpt lat="32.543100994080305" lon="-4.963518222793937">
        <ele>2059.7600000000002</ele>
        <time>2019-03-11T14:29:48Z</time>
      </trkpt>
      <trkpt lat="32.543061263859272" lon="-4.963487461209297">
        <ele>2060.2399999999998</ele>
        <time>2019-03-11T14:29:49Z</time>
      </trkpt>
      <trkpt lat="32.543030753731728" lon="-4.963453095406294">
        <ele>2060.2399999999998</ele>
        <time>2019-03-11T14:29:50Z</time>
      </trkpt>
      <trkpt lat="32.543002758175135" lon="-4.963424345478416">
        <ele>2060.7199999999998</ele>
        <time>2019-03-11T14:29:51Z</time>
      </trkpt>
      <trkpt lat="32.542976271361113" lon="-4.963410431519151">
        <ele>2060.7199999999998</ele>
        <time>2019-03-11T14:29:52Z</time>
      </trkpt>
      <trkpt lat="32.542957998812199" lon="-4.963406911119819">
        <ele>2060.2399999999998</ele>
        <time>2019-03-11T14:29:53Z</time>
      </trkpt>
      <trkpt lat="32.542937630787492" lon="-4.963410263881087">
        <ele>2060.2399999999998</ele>
        <time>2019-03-11T14:29:54Z</time>
      </trkpt>
      <trkpt lat="32.542916089296341" lon="-4.963419400155544">
        <ele>2060.7199999999998</ele>
        <time>2019-03-11T14:29:55Z</time>
      </trkpt>
      <trkpt lat="32.542889686301351" lon="-4.963432559743524">
        <ele>2061.6799999999998</ele>
        <time>2019-03-11T14:30:07Z</time>
      </trkpt>
      <trkpt lat="32.542572431266308" lon="-4.963547978550196">
        <ele>2061.6799999999998</ele>
        <time>2019-03-11T14:30:18Z</time>
      </trkpt>
      <trkpt lat="32.542263306677341" lon="-4.963558539748192">
        <ele>2061.6799999999998</ele>
        <time>2019-03-11T14:30:24Z</time>
      </trkpt>
      <trkpt lat="32.541919816285372" lon="-4.963599778711796">
        <ele>2061.6799999999998</ele>
        <time>2019-03-11T14:30:25Z</time>
      </trkpt>
      <trkpt lat="32.54187916405499" lon="-4.963596006855369">
        <ele>2061.6799999999998</ele>
        <time>2019-03-11T14:30:26Z</time>
      </trkpt>
      <trkpt lat="32.541839014738798" lon="-4.96358335018158">
        <ele>2061.6799999999998</ele>
        <time>2019-03-11T14:30:27Z</time>
      </trkpt>
      <trkpt lat="32.541798111051321" lon="-4.963561976328492">
        <ele>2061.1999999999998</ele>
        <time>2019-03-11T14:30:28Z</time>
      </trkpt>
      <trkpt lat="32.541760979220271" lon="-4.96353842318058">
        <ele>2061.1999999999998</ele>
        <time>2019-03-11T14:30:29Z</time>
      </trkpt>
      <trkpt lat="32.541721165180206" lon="-4.963527107611299">
        <ele>2061.1999999999998</ele>
        <time>2019-03-11T14:30:30Z</time>
      </trkpt>
      <trkpt lat="32.541675148531795" lon="-4.963536160066724">
        <ele>2061.1999999999998</ele>
        <time>2019-03-11T14:30:31Z</time>
      </trkpt>
      <trkpt lat="32.541625527665019" lon="-4.963555438444018">
        <ele>2061.1999999999998</ele>
        <time>2019-03-11T14:30:32Z</time>
      </trkpt>
      <trkpt lat="32.541570961475372" lon="-4.963575471192598">
        <ele>2061.6799999999998</ele>
        <time>2019-03-11T14:30:33Z</time>
      </trkpt>
      <trkpt lat="32.5415073428303" lon="-4.963587457314134">
        <ele>2061.6799999999998</ele>
        <time>2019-03-11T14:30:34Z</time>
      </trkpt>
      <trkpt lat="32.541441461071372" lon="-4.96358728967607">
        <ele>2061.6799999999998</ele>
        <time>2019-03-11T14:30:35Z</time>
      </trkpt>
      <trkpt lat="32.54137541167438" lon="-4.963580751791596">
        <ele>2061.1999999999998</ele>
        <time>2019-03-11T14:30:43Z</time>
      </trkpt>
      <trkpt lat="32.540828743949533" lon="-4.963575974106789">
        <ele>2060.7199999999998</ele>
        <time>2019-03-11T14:30:44Z</time>
      </trkpt>
      <trkpt lat="32.54077585414052" lon="-4.963590390980244">
        <ele>2061.6799999999998</ele>
        <time>2019-03-11T14:30:50Z</time>
      </trkpt>
      <trkpt lat="32.540502436459064" lon="-4.963671527802944">
        <ele>2061.1999999999998</ele>
        <time>2019-03-11T14:30:51Z</time>
      </trkpt>
      <trkpt lat="32.5404401589185" lon="-4.963666331022978">
        <ele>2061.1999999999998</ele>
        <time>2019-03-11T14:31:01Z</time>
      </trkpt>
      <trkpt lat="32.53980590030551" lon="-4.963490478694439">
        <ele>2061.1999999999998</ele>
        <time>2019-03-11T14:31:02Z</time>
      </trkpt>
      <trkpt lat="32.539761308580637" lon="-4.963458711281419">
        <ele>2061.6799999999998</ele>
        <time>2019-03-11T14:31:03Z</time>
      </trkpt>
      <trkpt lat="32.539726523682475" lon="-4.963436415418983">
        <ele>2061.6799999999998</ele>
        <time>2019-03-11T14:31:04Z</time>
      </trkpt>
      <trkpt lat="32.539698025211692" lon="-4.963425099849701">
        <ele>2061.6799999999998</ele>
        <time>2019-03-11T14:31:05Z</time>
      </trkpt>
      <trkpt lat="32.53967790864408" lon="-4.963422333821654">
        <ele>2061.6799999999998</ele>
        <time>2019-03-11T14:31:06Z</time>
      </trkpt>
      <trkpt lat="32.539659971371293" lon="-4.96342652477324">
        <ele>2061.6799999999998</ele>
        <time>2019-03-11T14:31:07Z</time>
      </trkpt>
      <trkpt lat="32.53964270465076" lon="-4.963436247780919">
        <ele>2062.1700000000001</ele>
        <time>2019-03-11T14:31:08Z</time>
      </trkpt>
      <trkpt lat="32.539623007178307" lon="-4.963449155911803">
        <ele>2062.1700000000001</ele>
        <time>2019-03-11T14:31:09Z</time>
      </trkpt>
      <trkpt lat="32.539601046591997" lon="-4.963470865041018">
        <ele>2062.1700000000001</ele>
        <time>2019-03-11T14:31:10Z</time>
      </trkpt>
      <trkpt lat="32.539582187309861" lon="-4.963502883911133">
        <ele>2062.1700000000001</ele>
        <time>2019-03-11T14:31:11Z</time>
      </trkpt>
      <trkpt lat="32.539569782093167" lon="-4.963540770113468">
        <ele>2063.1300000000001</ele>
        <time>2019-03-11T14:31:12Z</time>
      </trkpt>
      <trkpt lat="32.539555868133903" lon="-4.963585278019309">
        <ele>2063.6100000000001</ele>
        <time>2019-03-11T14:31:13Z</time>
      </trkpt>
      <trkpt lat="32.539534326642752" lon="-4.963639425113797">
        <ele>2063.6100000000001</ele>
        <time>2019-03-11T14:31:20Z</time>
      </trkpt>
      <trkpt lat="32.539358055219054" lon="-4.964071931317449">
        <ele>2064.0900000000001</ele>
        <time>2019-03-11T14:31:21Z</time>
      </trkpt>
      <trkpt lat="32.539343638345599" lon="-4.964126162230969">
        <ele>2065.0500000000002</ele>
        <time>2019-03-11T14:31:22Z</time>
      </trkpt>
      <trkpt lat="32.539325449615717" lon="-4.964169496670365">
        <ele>2065.0500000000002</ele>
        <time>2019-03-11T14:31:32Z</time>
      </trkpt>
      <trkpt lat="32.539228722453117" lon="-4.964500078931451">
        <ele>2065.0500000000002</ele>
        <time>2019-03-11T14:31:38Z</time>
      </trkpt>
      <trkpt lat="32.539116404950619" lon="-4.964747009798884">
        <ele>2065.0500000000002</ele>
        <time>2019-03-11T14:31:39Z</time>
      </trkpt>
      <trkpt lat="32.539082793518901" lon="-4.964788584038615">
        <ele>2065.0500000000002</ele>
        <time>2019-03-11T14:31:40Z</time>
      </trkpt>
      <trkpt lat="32.539042644202709" lon="-4.96483183465898">
        <ele>2065.5300000000002</ele>
        <time>2019-03-11T14:31:41Z</time>
      </trkpt>
      <trkpt lat="32.539002494886518" lon="-4.964874666184187">
        <ele>2065.5300000000002</ele>
        <time>2019-03-11T14:31:42Z</time>
      </trkpt>
      <trkpt lat="32.538966117426753" lon="-4.96491632424295">
        <ele>2065.0500000000002</ele>
        <time>2019-03-11T14:31:45Z</time>
      </trkpt>
      <trkpt lat="32.538865953683853" lon="-4.965034341439605">
        <ele>2064.0900000000001</ele>
        <time>2019-03-11T14:31:46Z</time>
      </trkpt>
      <trkpt lat="32.538825636729598" lon="-4.965061498805881">
        <ele>2064.0900000000001</ele>
        <time>2019-03-11T14:31:47Z</time>
      </trkpt>
      <trkpt lat="32.538788840174675" lon="-4.965084213763475">
        <ele>2064.0900000000001</ele>
        <time>2019-03-11T14:31:59Z</time>
      </trkpt>
      <trkpt lat="32.538426071405411" lon="-4.965221174061298">
        <ele>2062.6500000000001</ele>
        <time>2019-03-11T14:32:08Z</time>
      </trkpt>
      <trkpt lat="32.538377121090889" lon="-4.965370120480657">
        <ele>2060.7199999999998</ele>
        <time>2019-03-11T14:32:20Z</time>
      </trkpt>
      <trkpt lat="32.538412408903241" lon="-4.965530801564455">
        <ele>2058.8000000000002</ele>
        <time>2019-03-11T14:32:40Z</time>
      </trkpt>
      <trkpt lat="32.538512740284204" lon="-4.96588921174407">
        <ele>2057.3600000000001</ele>
        <time>2019-03-11T14:32:52Z</time>
      </trkpt>
      <trkpt lat="32.538544591516256" lon="-4.966348959133029">
        <ele>2055.9200000000001</ele>
        <time>2019-03-11T14:33:03Z</time>
      </trkpt>
      <trkpt lat="32.538570407778025" lon="-4.966804012656212">
        <ele>2055.4400000000001</ele>
        <time>2019-03-11T14:33:16Z</time>
      </trkpt>
      <trkpt lat="32.538502598181367" lon="-4.967521838843823">
        <ele>2055.4400000000001</ele>
        <time>2019-03-11T14:33:21Z</time>
      </trkpt>
      <trkpt lat="32.53835272975266" lon="-4.967827945947647">
        <ele>2055.9200000000001</ele>
        <time>2019-03-11T14:33:23Z</time>
      </trkpt>
      <trkpt lat="32.538287015631795" lon="-4.967934563755989">
        <ele>2055.4400000000001</ele>
        <time>2019-03-11T14:33:24Z</time>
      </trkpt>
      <trkpt lat="32.538273772224784" lon="-4.96799323707819">
        <ele>2055.4400000000001</ele>
        <time>2019-03-11T14:33:26Z</time>
      </trkpt>
      <trkpt lat="32.538250051438808" lon="-4.96811150573194">
        <ele>2055.4400000000001</ele>
        <time>2019-03-11T14:33:27Z</time>
      </trkpt>
      <trkpt lat="32.538233371451497" lon="-4.968173950910568">
        <ele>2055.4400000000001</ele>
        <time>2019-03-11T14:33:28Z</time>
      </trkpt>
      <trkpt lat="32.538221385329962" lon="-4.968237737193704">
        <ele>2054.4699999999998</ele>
        <time>2019-03-11T14:33:29Z</time>
      </trkpt>
      <trkpt lat="32.538214679807425" lon="-4.968298003077507">
        <ele>2052.5500000000002</ele>
        <time>2019-03-11T14:33:30Z</time>
      </trkpt>
      <trkpt lat="32.538208896294236" lon="-4.968352317810059">
        <ele>2052.0700000000002</ele>
        <time>2019-03-11T14:33:39Z</time>
      </trkpt>
      <trkpt lat="32.538190707564354" lon="-4.968539318069816">
        <ele>2052.0700000000002</ele>
        <time>2019-03-11T14:34:10Z</time>
      </trkpt>
      <trkpt lat="32.538168746978045" lon="-4.968659346923232">
        <ele>2052.0700000000002</ele>
        <time>2019-03-11T14:34:14Z</time>
      </trkpt>
      <trkpt lat="32.538116946816444" lon="-4.968922371044755">
        <ele>2051.5900000000001</ele>
        <time>2019-03-11T14:34:15Z</time>
      </trkpt>
      <trkpt lat="32.538097500801086" lon="-4.968996802344918">
        <ele>2051.5900000000001</ele>
        <time>2019-03-11T14:34:16Z</time>
      </trkpt>
      <trkpt lat="32.538084089756012" lon="-4.969073077663779">
        <ele>2051.5900000000001</ele>
        <time>2019-03-11T14:34:17Z</time>
      </trkpt>
      <trkpt lat="32.538080150261521" lon="-4.969147760421038">
        <ele>2051.5900000000001</ele>
        <time>2019-03-11T14:34:18Z</time>
      </trkpt>
      <trkpt lat="32.538078557699919" lon="-4.969220766797662">
        <ele>2051.5900000000001</ele>
        <time>2019-03-11T14:34:19Z</time>
      </trkpt>
      <trkpt lat="32.538072355091572" lon="-4.969287738204002">
        <ele>2051.5900000000001</ele>
        <time>2019-03-11T14:34:20Z</time>
      </trkpt>
      <trkpt lat="32.53805860877037" lon="-4.969344818964601">
        <ele>2051.5900000000001</ele>
        <time>2019-03-11T14:34:21Z</time>
      </trkpt>
      <trkpt lat="32.53803270868957" lon="-4.969388404861093">
        <ele>2051.5900000000001</ele>
        <time>2019-03-11T14:34:22Z</time>
      </trkpt>
      <trkpt lat="32.537997253239155" lon="-4.969412796199322">
        <ele>2051.5900000000001</ele>
        <time>2019-03-11T14:34:23Z</time>
      </trkpt>
      <trkpt lat="32.537956181913614" lon="-4.969421764835715">
        <ele>2051.1100000000001</ele>
        <time>2019-03-11T14:34:24Z</time>
      </trkpt>
      <trkpt lat="32.537908153608441" lon="-4.969419501721859">
        <ele>2051.1100000000001</ele>
        <time>2019-03-11T14:34:25Z</time>
      </trkpt>
      <trkpt lat="32.537855263799429" lon="-4.969405168667436">
        <ele>2051.1100000000001</ele>
        <time>2019-03-11T14:34:26Z</time>
      </trkpt>
      <trkpt lat="32.537797093391418" lon="-4.969376502558589">
        <ele>2051.1100000000001</ele>
        <time>2019-03-11T14:34:27Z</time>
      </trkpt>
      <trkpt lat="32.537741018459201" lon="-4.969338867813349">
        <ele>2051.1100000000001</ele>
        <time>2019-03-11T14:34:28Z</time>
      </trkpt>
      <trkpt lat="32.537690475583076" lon="-4.969308022409678">
        <ele>2051.5900000000001</ele>
        <time>2019-03-11T14:34:29Z</time>
      </trkpt>
      <trkpt lat="32.537644794210792" lon="-4.969293354079127">
        <ele>2051.5900000000001</ele>
        <time>2019-03-11T14:34:30Z</time>
      </trkpt>
      <trkpt lat="32.537603806704283" lon="-4.969301484525204">
        <ele>2051.5900000000001</ele>
        <time>2019-03-11T14:34:31Z</time>
      </trkpt>
      <trkpt lat="32.537565417587757" lon="-4.969328725710511">
        <ele>2050.6300000000001</ele>
        <time>2019-03-11T14:34:32Z</time>
      </trkpt>
      <trkpt lat="32.537529710680246" lon="-4.969369797036052">
        <ele>2050.1500000000001</ele>
        <time>2019-03-11T14:34:33Z</time>
      </trkpt>
      <trkpt lat="32.537495009601116" lon="-4.969419501721859">
        <ele>2050.6300000000001</ele>
        <time>2019-03-11T14:34:38Z</time>
      </trkpt>
      <trkpt lat="32.537295185029507" lon="-4.96970834210515">
        <ele>2050.6300000000001</ele>
        <time>2019-03-11T14:34:39Z</time>
      </trkpt>
      <trkpt lat="32.537243301048875" lon="-4.969756957143545">
        <ele>2050.6300000000001</ele>
        <time>2019-03-11T14:34:40Z</time>
      </trkpt>
      <trkpt lat="32.537200301885605" lon="-4.969803728163242">
        <ele>2050.1500000000001</ele>
        <time>2019-03-11T14:34:41Z</time>
      </trkpt>
      <trkpt lat="32.53717708401382" lon="-4.969850834459066">
        <ele>2050.1500000000001</ele>
        <time>2019-03-11T14:34:42Z</time>
      </trkpt>
      <trkpt lat="32.537166606634855" lon="-4.969898192211986">
        <ele>2048.71</ele>
        <time>2019-03-11T14:34:43Z</time>
      </trkpt>
      <trkpt lat="32.537164259701967" lon="-4.969945717602968">
        <ele>2048.23</ele>
        <time>2019-03-11T14:34:44Z</time>
      </trkpt>
      <trkpt lat="32.537165600806475" lon="-4.969993829727173">
        <ele>2047.75</ele>
        <time>2019-03-11T14:34:55Z</time>
      </trkpt>
      <trkpt lat="32.537156715989113" lon="-4.970445027574897">
        <ele>2047.75</ele>
        <time>2019-03-11T14:34:56Z</time>
      </trkpt>
      <trkpt lat="32.537155542522669" lon="-4.970497833564878">
        <ele>2047.26</ele>
        <time>2019-03-11T14:34:57Z</time>
      </trkpt>
      <trkpt lat="32.537154536694288" lon="-4.970561033114791">
        <ele>2047.26</ele>
        <time>2019-03-11T14:34:58Z</time>
      </trkpt>
      <trkpt lat="32.537148417904973" lon="-4.97063378803432">
        <ele>2046.78</ele>
        <time>2019-03-11T14:35:00Z</time>
      </trkpt>
      <trkpt lat="32.537135677412152" lon="-4.970778208225966">
        <ele>2046.78</ele>
        <time>2019-03-11T14:35:01Z</time>
      </trkpt>
      <trkpt lat="32.537136515602469" lon="-4.97084098868072">
        <ele>2046.78</ele>
        <time>2019-03-11T14:35:02Z</time>
      </trkpt>
      <trkpt lat="32.537133162841201" lon="-4.970895471051335">
        <ele>2046.78</ele>
        <time>2019-03-11T14:35:03Z</time>
      </trkpt>
      <trkpt lat="32.537118745967746" lon="-4.970941822975874">
        <ele>2046.78</ele>
        <time>2019-03-11T14:35:04Z</time>
      </trkpt>
      <trkpt lat="32.537095192819834" lon="-4.970982223749161">
        <ele>2046.78</ele>
        <time>2019-03-11T14:35:05Z</time>
      </trkpt>
      <trkpt lat="32.537073316052556" lon="-4.971020612865686">
        <ele>2046.3</ele>
        <time>2019-03-11T14:35:06Z</time>
      </trkpt>
      <trkpt lat="32.537062084302306" lon="-4.971058247610927">
        <ele>2045.8199999999999</ele>
        <time>2019-03-11T14:35:07Z</time>
      </trkpt>
      <trkpt lat="32.53705789335072" lon="-4.971097055822611">
        <ele>2045.3399999999999</ele>
        <time>2019-03-11T14:35:08Z</time>
      </trkpt>
      <trkpt lat="32.537057725712657" lon="-4.971136702224612">
        <ele>2045.3399999999999</ele>
        <time>2019-03-11T14:35:09Z</time>
      </trkpt>
      <trkpt lat="32.53706082701683" lon="-4.971179701387882">
        <ele>2045.3399999999999</ele>
        <time>2019-03-11T14:35:12Z</time>
      </trkpt>
      <trkpt lat="32.537070047110319" lon="-4.971331246197224">
        <ele>2045.3399999999999</ele>
        <time>2019-03-11T14:35:13Z</time>
      </trkpt>
      <trkpt lat="32.537061246111989" lon="-4.97138480655849">
        <ele>2045.8199999999999</ele>
        <time>2019-03-11T14:35:14Z</time>
      </trkpt>
      <trkpt lat="32.537047583609819" lon="-4.971433086320758">
        <ele>2044.8599999999999</ele>
        <time>2019-03-11T14:35:16Z</time>
      </trkpt>
      <trkpt lat="32.537025539204478" lon="-4.971519084647298">
        <ele>2043.4200000000001</ele>
        <time>2019-03-11T14:35:17Z</time>
      </trkpt>
      <trkpt lat="32.537019839510322" lon="-4.971569795161486">
        <ele>2042.9400000000001</ele>
        <time>2019-03-11T14:35:26Z</time>
      </trkpt>
      <trkpt lat="32.536961333826184" lon="-4.971787221729755">
        <ele>2042.9400000000001</ele>
        <time>2019-03-11T14:35:39Z</time>
      </trkpt>
      <trkpt lat="32.536880951374769" lon="-4.971915297210217">
        <ele>2042.46</ele>
        <time>2019-03-11T14:35:41Z</time>
      </trkpt>
      <trkpt lat="32.536877933889627" lon="-4.971993081271648">
        <ele>2042.46</ele>
        <time>2019-03-11T14:35:42Z</time>
      </trkpt>
      <trkpt lat="32.536869551986456" lon="-4.972039936110377">
        <ele>2042.46</ele>
        <time>2019-03-11T14:35:43Z</time>
      </trkpt>
      <trkpt lat="32.536854716017842" lon="-4.972080839797854">
        <ele>2042.46</ele>
        <time>2019-03-11T14:35:44Z</time>
      </trkpt>
      <trkpt lat="32.536832923069596" lon="-4.972112439572811">
        <ele>2042.46</ele>
        <time>2019-03-11T14:35:45Z</time>
      </trkpt>
      <trkpt lat="32.536807358264923" lon="-4.972138088196516">
        <ele>2042.46</ele>
        <time>2019-03-11T14:35:46Z</time>
      </trkpt>
      <trkpt lat="32.536780284717679" lon="-4.972161641344428">
        <ele>2042.46</ele>
        <time>2019-03-11T14:35:47Z</time>
      </trkpt>
      <trkpt lat="32.536750864237547" lon="-4.97218519449234">
        <ele>2042.46</ele>
        <time>2019-03-11T14:35:59Z</time>
      </trkpt>
      <trkpt lat="32.536531426012516" lon="-4.97250965796411">
        <ele>2043.4200000000001</ele>
        <time>2019-03-11T14:36:13Z</time>
      </trkpt>
      <trkpt lat="32.536373091861606" lon="-4.972843257710338">
        <ele>2046.3</ele>
        <time>2019-03-11T14:36:29Z</time>
      </trkpt>
      <trkpt lat="32.536164131015539" lon="-4.973132265731692">
        <ele>2047.75</ele>
        <time>2019-03-11T14:36:45Z</time>
      </trkpt>
      <trkpt lat="32.53587101586163" lon="-4.973440719768405">
        <ele>2048.23</ele>
        <time>2019-03-11T14:36:59Z</time>
      </trkpt>
      <trkpt lat="32.53552358597517" lon="-4.973685303702951">
        <ele>2048.23</ele>
        <time>2019-03-11T14:37:08Z</time>
      </trkpt>
      <trkpt lat="32.535216305404902" lon="-4.973929552361369">
        <ele>2048.71</ele>
        <time>2019-03-11T14:37:09Z</time>
      </trkpt>
      <trkpt lat="32.535175401717424" lon="-4.9739486631006">
        <ele>2048.71</ele>
        <time>2019-03-11T14:37:10Z</time>
      </trkpt>
      <trkpt lat="32.535137515515089" lon="-4.97395696118474">
        <ele>2049.1900000000001</ele>
        <time>2019-03-11T14:37:11Z</time>
      </trkpt>
      <trkpt lat="32.535100635141134" lon="-4.973958302289248">
        <ele>2049.1900000000001</ele>
        <time>2019-03-11T14:37:12Z</time>
      </trkpt>
      <trkpt lat="32.535066772252321" lon="-4.973956122994423">
        <ele>2050.1500000000001</ele>
        <time>2019-03-11T14:37:13Z</time>
      </trkpt>
      <trkpt lat="32.535036513581872" lon="-4.973946986719966">
        <ele>2050.6300000000001</ele>
        <time>2019-03-11T14:37:14Z</time>
      </trkpt>
      <trkpt lat="32.535011200234294" lon="-4.973936844617128">
        <ele>2051.1100000000001</ele>
        <time>2019-03-11T14:37:23Z</time>
      </trkpt>
      <trkpt lat="32.53487516194582" lon="-4.973782366141677">
        <ele>2052.5500000000002</ele>
        <time>2019-03-11T14:37:30Z</time>
      </trkpt>
      <trkpt lat="32.534724706783891" lon="-4.973464021459222">
        <ele>2052.5500000000002</ele>
        <time>2019-03-11T14:37:31Z</time>
      </trkpt>
      <trkpt lat="32.534699393436313" lon="-4.97342093847692">
        <ele>2052.0700000000002</ele>
        <time>2019-03-11T14:37:36Z</time>
      </trkpt>
      <trkpt lat="32.534579448401928" lon="-4.973279871046543">
        <ele>2052.5500000000002</ele>
        <time>2019-03-11T14:37:39Z</time>
      </trkpt>
      <trkpt lat="32.53453359939158" lon="-4.973302502185106">
        <ele>2052.5500000000002</ele>
        <time>2019-03-11T14:37:42Z</time>
      </trkpt>
      <trkpt lat="32.534519014880061" lon="-4.973347345367074">
        <ele>2050.6300000000001</ele>
        <time>2019-03-11T14:37:44Z</time>
      </trkpt>
      <trkpt lat="32.534523457288742" lon="-4.973390595987439">
        <ele>2049.6700000000001</ele>
        <time>2019-03-11T14:37:45Z</time>
      </trkpt>
      <trkpt lat="32.534532006829977" lon="-4.97342043556273">
        <ele>2050.1500000000001</ele>
        <time>2019-03-11T14:37:55Z</time>
      </trkpt>
      <trkpt lat="32.5346948672086" lon="-4.973915386945009">
        <ele>2050.1500000000001</ele>
        <time>2019-03-11T14:38:05Z</time>
      </trkpt>
      <trkpt lat="32.534735770896077" lon="-4.974215123802424">
        <ele>2050.1500000000001</ele>
        <time>2019-03-11T14:38:06Z</time>
      </trkpt>
      <trkpt lat="32.534747757017612" lon="-4.974231887608767">
        <ele>2050.6300000000001</ele>
        <time>2019-03-11T14:38:07Z</time>
      </trkpt>
      <trkpt lat="32.534760748967528" lon="-4.974241191521287">
        <ele>2050.6300000000001</ele>
        <time>2019-03-11T14:38:08Z</time>
      </trkpt>
      <trkpt lat="32.534769801422954" lon="-4.974248148500919">
        <ele>2049.1900000000001</ele>
        <time>2019-03-11T14:38:09Z</time>
      </trkpt>
      <trkpt lat="32.534778853878379" lon="-4.974255356937647">
        <ele>2048.23</ele>
        <time>2019-03-11T14:38:10Z</time>
      </trkpt>
      <trkpt lat="32.534791678190231" lon="-4.97426382265985">
        <ele>2047.75</ele>
        <time>2019-03-11T14:38:16Z</time>
      </trkpt>
      <trkpt lat="32.534903660416603" lon="-4.974392987787724">
        <ele>2044.3800000000001</ele>
        <time>2019-03-11T14:38:18Z</time>
      </trkpt>
      <trkpt lat="32.534959316253662" lon="-4.974472280591726">
        <ele>2044.8599999999999</ele>
        <time>2019-03-11T14:38:29Z</time>
      </trkpt>
      <trkpt lat="32.535256454721093" lon="-4.974744189530611">
        <ele>2044.3800000000001</ele>
        <time>2019-03-11T14:38:41Z</time>
      </trkpt>
      <trkpt lat="32.535649901255965" lon="-4.974626759067178">
        <ele>2044.3800000000001</ele>
        <time>2019-03-11T14:38:42Z</time>
      </trkpt>
      <trkpt lat="32.535691391676664" lon="-4.974612928926945">
        <ele>2044.3800000000001</ele>
        <time>2019-03-11T14:38:43Z</time>
      </trkpt>
      <trkpt lat="32.53572735004127" lon="-4.974601026624441">
        <ele>2044.3800000000001</ele>
        <time>2019-03-11T14:38:44Z</time>
      </trkpt>
      <trkpt lat="32.535762386396527" lon="-4.974589962512255">
        <ele>2043.9000000000001</ele>
        <time>2019-03-11T14:38:45Z</time>
      </trkpt>
      <trkpt lat="32.535799266770482" lon="-4.974580323323607">
        <ele>2044.3800000000001</ele>
        <time>2019-03-11T14:38:46Z</time>
      </trkpt>
      <trkpt lat="32.535838829353452" lon="-4.974571522325277">
        <ele>2043.9000000000001</ele>
        <time>2019-03-11T14:38:58Z</time>
      </trkpt>
      <trkpt lat="32.536498568952084" lon="-4.97447932139039">
        <ele>2043.9000000000001</ele>
        <time>2019-03-11T14:39:13Z</time>
      </trkpt>
      <trkpt lat="32.537271631881595" lon="-4.974286537617445">
        <ele>2043.9000000000001</ele>
        <time>2019-03-11T14:39:27Z</time>
      </trkpt>
      <trkpt lat="32.537982668727636" lon="-4.974528942257166">
        <ele>2043.4200000000001</ele>
        <time>2019-03-11T14:39:28Z</time>
      </trkpt>
      <trkpt lat="32.538025751709938" lon="-4.974561966955662">
        <ele>2043.4200000000001</ele>
        <time>2019-03-11T14:39:29Z</time>
      </trkpt>
      <trkpt lat="32.538062632083893" lon="-4.974600104615092">
        <ele>2042.9400000000001</ele>
        <time>2019-03-11T14:39:30Z</time>
      </trkpt>
      <trkpt lat="32.538091968744993" lon="-4.974640086293221">
        <ele>2042.9400000000001</ele>
        <time>2019-03-11T14:39:31Z</time>
      </trkpt>
      <trkpt lat="32.53811283968389" lon="-4.97468844987452">
        <ele>2043.4200000000001</ele>
        <time>2019-03-11T14:39:32Z</time>
      </trkpt>
      <trkpt lat="32.538123903796077" lon="-4.974746033549309">
        <ele>2043.9000000000001</ele>
        <time>2019-03-11T14:39:33Z</time>
      </trkpt>
      <trkpt lat="32.538124909624457" lon="-4.974808394908905">
        <ele>2043.9000000000001</ele>
        <time>2019-03-11T14:39:34Z</time>
      </trkpt>
      <trkpt lat="32.538115102797747" lon="-4.974872348830104">
        <ele>2044.3800000000001</ele>
        <time>2019-03-11T14:39:35Z</time>
      </trkpt>
      <trkpt lat="32.538095321506262" lon="-4.974934458732605">
        <ele>2044.8599999999999</ele>
        <time>2019-03-11T14:39:36Z</time>
      </trkpt>
      <trkpt lat="32.538066487759352" lon="-4.974995059892535">
        <ele>2045.3399999999999</ele>
        <time>2019-03-11T14:39:37Z</time>
      </trkpt>
      <trkpt lat="32.538032876327634" lon="-4.975049709901214">
        <ele>2045.8199999999999</ele>
        <time>2019-03-11T14:39:38Z</time>
      </trkpt>
      <trkpt lat="32.537997756153345" lon="-4.975098744034767">
        <ele>2046.3</ele>
        <time>2019-03-11T14:39:39Z</time>
      </trkpt>
      <trkpt lat="32.537959618493915" lon="-4.975142078474164">
        <ele>2046.78</ele>
        <time>2019-03-11T14:39:40Z</time>
      </trkpt>
      <trkpt lat="32.537916367873549" lon="-4.975181557238102">
        <ele>2046.78</ele>
        <time>2019-03-11T14:39:41Z</time>
      </trkpt>
      <trkpt lat="32.537866327911615" lon="-4.975215336307883">
        <ele>2047.75</ele>
        <time>2019-03-11T14:39:42Z</time>
      </trkpt>
      <trkpt lat="32.537812348455191" lon="-4.975242745131254">
        <ele>2048.23</ele>
        <time>2019-03-11T14:39:43Z</time>
      </trkpt>
      <trkpt lat="32.537752920761704" lon="-4.975263280794025">
        <ele>2048.71</ele>
        <time>2019-03-11T14:39:44Z</time>
      </trkpt>
      <trkpt lat="32.537688380107284" lon="-4.975275686010718">
        <ele>2049.6700000000001</ele>
        <time>2019-03-11T14:39:45Z</time>
      </trkpt>
      <trkpt lat="32.537619983777404" lon="-4.975279625505209">
        <ele>2050.1500000000001</ele>
        <time>2019-03-11T14:39:46Z</time>
      </trkpt>
      <trkpt lat="32.537545384839177" lon="-4.975277530029416">
        <ele>2050.6300000000001</ele>
        <time>2019-03-11T14:39:49Z</time>
      </trkpt>
      <trkpt lat="32.537321588024497" lon="-4.975287672132254">
        <ele>2051.1100000000001</ele>
        <time>2019-03-11T14:39:50Z</time>
      </trkpt>
      <trkpt lat="32.537262747064233" lon="-4.975312482565641">
        <ele>2051.1100000000001</ele>
        <time>2019-03-11T14:39:51Z</time>
      </trkpt>
      <trkpt lat="32.537219747900963" lon="-4.975355062633753">
        <ele>2051.1100000000001</ele>
        <time>2019-03-11T14:39:52Z</time>
      </trkpt>
      <trkpt lat="32.537198374047875" lon="-4.975407030433416">
        <ele>2051.5900000000001</ele>
        <time>2019-03-11T14:39:53Z</time>
      </trkpt>
      <trkpt lat="32.537195608019829" lon="-4.975464195013046">
        <ele>2052.0700000000002</ele>
        <time>2019-03-11T14:39:54Z</time>
      </trkpt>
      <trkpt lat="32.537204576656222" lon="-4.975519012659788">
        <ele>2052.5500000000002</ele>
        <time>2019-03-11T14:39:55Z</time>
      </trkpt>
      <trkpt lat="32.537224274128675" lon="-4.975570309907198">
        <ele>2052.5500000000002</ele>
        <time>2019-03-11T14:39:56Z</time>
      </trkpt>
      <trkpt lat="32.537249587476254" lon="-4.975619679316878">
        <ele>2052.5500000000002</ele>
        <time>2019-03-11T14:39:58Z</time>
      </trkpt>
      <trkpt lat="32.537297531962395" lon="-4.975723279640079">
        <ele>2052.5500000000002</ele>
        <time>2019-03-11T14:39:59Z</time>
      </trkpt>
      <trkpt lat="32.537315469235182" lon="-4.975779941305518">
        <ele>2052.0700000000002</ele>
        <time>2019-03-11T14:40:00Z</time>
      </trkpt>
      <trkpt lat="32.5373266171664" lon="-4.97584062628448">
        <ele>2052.0700000000002</ele>
        <time>2019-03-11T14:40:01Z</time>
      </trkpt>
      <trkpt lat="32.537330556660891" lon="-4.975905166938901">
        <ele>2052.0700000000002</ele>
        <time>2019-03-11T14:40:02Z</time>
      </trkpt>
      <trkpt lat="32.537327958270907" lon="-4.975974904373288">
        <ele>2052.0700000000002</ele>
        <time>2019-03-11T14:40:03Z</time>
      </trkpt>
      <trkpt lat="32.537319241091609" lon="-4.976046904921532">
        <ele>2051.5900000000001</ele>
        <time>2019-03-11T14:40:04Z</time>
      </trkpt>
      <trkpt lat="32.537305410951376" lon="-4.976119743660092">
        <ele>2052.0700000000002</ele>
        <time>2019-03-11T14:40:05Z</time>
      </trkpt>
      <trkpt lat="32.537287976592779" lon="-4.976197108626366">
        <ele>2052.0700000000002</ele>
        <time>2019-03-11T14:40:16Z</time>
      </trkpt>
      <trkpt lat="32.537058228626847" lon="-4.976936811581254">
        <ele>2052.0700000000002</ele>
        <time>2019-03-11T14:40:22Z</time>
      </trkpt>
      <trkpt lat="32.536916825920343" lon="-4.977326737716794">
        <ele>2052.0700000000002</ele>
        <time>2019-03-11T14:40:23Z</time>
      </trkpt>
      <trkpt lat="32.536876760423183" lon="-4.977392619475722">
        <ele>2052.0700000000002</ele>
        <time>2019-03-11T14:40:24Z</time>
      </trkpt>
      <trkpt lat="32.536828564479947" lon="-4.977450035512447">
        <ele>2053.0300000000002</ele>
        <time>2019-03-11T14:40:25Z</time>
      </trkpt>
      <trkpt lat="32.536770980805159" lon="-4.977492783218622">
        <ele>2053.0300000000002</ele>
        <time>2019-03-11T14:40:26Z</time>
      </trkpt>
      <trkpt lat="32.536706691607833" lon="-4.97752832248807">
        <ele>2053.0300000000002</ele>
        <time>2019-03-11T14:40:29Z</time>
      </trkpt>
      <trkpt lat="32.536509884521365" lon="-4.977621277794242">
        <ele>2053.0300000000002</ele>
        <time>2019-03-11T14:40:30Z</time>
      </trkpt>
      <trkpt lat="32.536456659436226" lon="-4.977664863690734">
        <ele>2053.0300000000002</ele>
        <time>2019-03-11T14:40:31Z</time>
      </trkpt>
      <trkpt lat="32.536423215642571" lon="-4.977721106261015">
        <ele>2053.5100000000002</ele>
        <time>2019-03-11T14:40:32Z</time>
      </trkpt>
      <trkpt lat="32.536420617252588" lon="-4.977781791239977">
        <ele>2053.5100000000002</ele>
        <time>2019-03-11T14:40:33Z</time>
      </trkpt>
      <trkpt lat="32.536439392715693" lon="-4.977842895314097">
        <ele>2053.5100000000002</ele>
        <time>2019-03-11T14:40:34Z</time>
      </trkpt>
      <trkpt lat="32.536474009975791" lon="-4.977905508130789">
        <ele>2053.5100000000002</ele>
        <time>2019-03-11T14:40:35Z</time>
      </trkpt>
      <trkpt lat="32.536516422405839" lon="-4.977973066270351">
        <ele>2053.0300000000002</ele>
        <time>2019-03-11T14:40:37Z</time>
      </trkpt>
      <trkpt lat="32.536608958616853" lon="-4.978122180327773">
        <ele>2053.0300000000002</ele>
        <time>2019-03-11T14:40:38Z</time>
      </trkpt>
      <trkpt lat="32.536646090447903" lon="-4.978198623284698">
        <ele>2053.0300000000002</ele>
        <time>2019-03-11T14:40:39Z</time>
      </trkpt>
      <trkpt lat="32.536677606403828" lon="-4.978277999907732">
        <ele>2052.5500000000002</ele>
        <time>2019-03-11T14:40:40Z</time>
      </trkpt>
      <trkpt lat="32.536699986085296" lon="-4.978360310196877">
        <ele>2052.0700000000002</ele>
        <time>2019-03-11T14:40:41Z</time>
      </trkpt>
      <trkpt lat="32.536714067682624" lon="-4.978444213047624">
        <ele>2052.0700000000002</ele>
        <time>2019-03-11T14:40:42Z</time>
      </trkpt>
      <trkpt lat="32.536722030490637" lon="-4.978525098413229">
        <ele>2052.0700000000002</ele>
        <time>2019-03-11T14:40:43Z</time>
      </trkpt>
      <trkpt lat="32.536722617223859" lon="-4.978599445894361">
        <ele>2051.5900000000001</ele>
        <time>2019-03-11T14:40:44Z</time>
      </trkpt>
      <trkpt lat="32.536712726578116" lon="-4.978671697899699">
        <ele>2051.5900000000001</ele>
        <time>2019-03-11T14:40:45Z</time>
      </trkpt>
      <trkpt lat="32.53669235855341" lon="-4.978737747296691">
        <ele>2051.5900000000001</ele>
        <time>2019-03-11T14:40:46Z</time>
      </trkpt>
      <trkpt lat="32.536670230329037" lon="-4.978795666247606">
        <ele>2051.5900000000001</ele>
        <time>2019-03-11T14:40:48Z</time>
      </trkpt>
      <trkpt lat="32.536632092669606" lon="-4.978904966264963">
        <ele>2052.0700000000002</ele>
        <time>2019-03-11T14:40:49Z</time>
      </trkpt>
      <trkpt lat="32.536604097113013" lon="-4.978951318189502">
        <ele>2052.0700000000002</ele>
        <time>2019-03-11T14:40:50Z</time>
      </trkpt>
      <trkpt lat="32.536564702168107" lon="-4.978980990126729">
        <ele>2052.0700000000002</ele>
        <time>2019-03-11T14:40:51Z</time>
      </trkpt>
      <trkpt lat="32.53652036190033" lon="-4.978992808610201">
        <ele>2052.0700000000002</ele>
        <time>2019-03-11T14:40:52Z</time>
      </trkpt>
      <trkpt lat="32.536475518718362" lon="-4.978984091430903">
        <ele>2052.0700000000002</ele>
        <time>2019-03-11T14:40:53Z</time>
      </trkpt>
      <trkpt lat="32.53642899915576" lon="-4.978959448635578">
        <ele>2052.0700000000002</ele>
        <time>2019-03-11T14:40:54Z</time>
      </trkpt>
      <trkpt lat="32.536383150145411" lon="-4.978923657909036">
        <ele>2052.0700000000002</ele>
        <time>2019-03-11T14:40:55Z</time>
      </trkpt>
      <trkpt lat="32.536339731886983" lon="-4.978878563269973">
        <ele>2052.5500000000002</ele>
        <time>2019-03-11T14:40:56Z</time>
      </trkpt>
      <trkpt lat="32.536297822371125" lon="-4.978822404518724">
        <ele>2052.5500000000002</ele>
        <time>2019-03-11T14:40:57Z</time>
      </trkpt>
      <trkpt lat="32.536254739388824" lon="-4.978759121149778">
        <ele>2053.0300000000002</ele>
        <time>2019-03-11T14:41:01Z</time>
      </trkpt>
      <trkpt lat="32.536077713593841" lon="-4.978497857227922">
        <ele>2053.0300000000002</ele>
        <time>2019-03-11T14:41:02Z</time>
      </trkpt>
      <trkpt lat="32.536023315042257" lon="-4.978447314351797">
        <ele>2052.5500000000002</ele>
        <time>2019-03-11T14:41:03Z</time>
      </trkpt>
      <trkpt lat="32.535964725539088" lon="-4.978405656293035">
        <ele>2052.5500000000002</ele>
        <time>2019-03-11T14:41:04Z</time>
      </trkpt>
      <trkpt lat="32.535902112722397" lon="-4.978370619937778">
        <ele>2052.5500000000002</ele>
        <time>2019-03-11T14:41:05Z</time>
      </trkpt>
      <trkpt lat="32.535837404429913" lon="-4.978341953828931">
        <ele>2052.5500000000002</ele>
        <time>2019-03-11T14:41:06Z</time>
      </trkpt>
      <trkpt lat="32.53577034920454" lon="-4.978318568319082">
        <ele>2052.5500000000002</ele>
        <time>2019-03-11T14:41:07Z</time>
      </trkpt>
      <trkpt lat="32.535701198503375" lon="-4.978303732350469">
        <ele>2052.5500000000002</ele>
        <time>2019-03-11T14:41:08Z</time>
      </trkpt>
      <trkpt lat="32.5356359872967" lon="-4.9782969430089">
        <ele>2052.5500000000002</ele>
        <time>2019-03-11T14:41:09Z</time>
      </trkpt>
      <trkpt lat="32.535573374480009" lon="-4.978294428437948">
        <ele>2052.5500000000002</ele>
        <time>2019-03-11T14:41:17Z</time>
      </trkpt>
      <trkpt lat="32.53511069342494" lon="-4.97831211425364">
        <ele>2053.0300000000002</ele>
        <time>2019-03-11T14:41:18Z</time>
      </trkpt>
      <trkpt lat="32.535051852464676" lon="-4.978301301598549">
        <ele>2053.0300000000002</ele>
        <time>2019-03-11T14:41:19Z</time>
      </trkpt>
      <trkpt lat="32.534993095323443" lon="-4.978277245536447">
        <ele>2053.5100000000002</ele>
        <time>2019-03-11T14:41:20Z</time>
      </trkpt>
      <trkpt lat="32.53493526019156" lon="-4.978241706266999">
        <ele>2053.5100000000002</ele>
        <time>2019-03-11T14:41:21Z</time>
      </trkpt>
      <trkpt lat="32.534881616011262" lon="-4.978197198361158">
        <ele>2053.9899999999998</ele>
        <time>2019-03-11T14:41:22Z</time>
      </trkpt>
      <trkpt lat="32.534828307107091" lon="-4.978154953569174">
        <ele>2053.0300000000002</ele>
        <time>2019-03-11T14:41:29Z</time>
      </trkpt>
      <trkpt lat="32.534640049561858" lon="-4.978112792596221">
        <ele>2052.5500000000002</ele>
        <time>2019-03-11T14:41:36Z</time>
      </trkpt>
      <trkpt lat="32.534633846953511" lon="-4.978287555277348">
        <ele>2051.5900000000001</ele>
        <time>2019-03-11T14:41:37Z</time>
      </trkpt>
      <trkpt lat="32.534653712064028" lon="-4.978333655744791">
        <ele>2052.0700000000002</ele>
        <time>2019-03-11T14:41:38Z</time>
      </trkpt>
      <trkpt lat="32.534673828631639" lon="-4.978377325460315">
        <ele>2052.0700000000002</ele>
        <time>2019-03-11T14:41:42Z</time>
      </trkpt>
      <trkpt lat="32.534771477803588" lon="-4.978533312678337">
        <ele>2049.1900000000001</ele>
        <time>2019-03-11T14:41:53Z</time>
      </trkpt>
      <trkpt lat="32.535028969869018" lon="-4.978896249085665">
        <ele>2049.6700000000001</ele>
        <time>2019-03-11T14:42:05Z</time>
      </trkpt>
      <trkpt lat="32.535395342856646" lon="-4.979202775284648">
        <ele>2049.1900000000001</ele>
        <time>2019-03-11T14:42:17Z</time>
      </trkpt>
      <trkpt lat="32.535550575703382" lon="-4.979573925957084">
        <ele>2049.1900000000001</ele>
        <time>2019-03-11T14:42:26Z</time>
      </trkpt>
      <trkpt lat="32.535543199628592" lon="-4.979978939518333">
        <ele>2049.1900000000001</ele>
        <time>2019-03-11T14:42:27Z</time>
      </trkpt>
      <trkpt lat="32.535502798855305" lon="-4.979998385533691">
        <ele>2049.1900000000001</ele>
        <time>2019-03-11T14:42:28Z</time>
      </trkpt>
      <trkpt lat="32.535449573770165" lon="-4.980002325028181">
        <ele>2048.71</ele>
        <time>2019-03-11T14:42:29Z</time>
      </trkpt>
      <trkpt lat="32.535387380048633" lon="-4.979989668354392">
        <ele>2048.71</ele>
        <time>2019-03-11T14:42:30Z</time>
      </trkpt>
      <trkpt lat="32.535318648442626" lon="-4.979969887062907">
        <ele>2048.71</ele>
        <time>2019-03-11T14:42:36Z</time>
      </trkpt>
      <trkpt lat="32.534956885501742" lon="-4.979895371943712">
        <ele>2048.71</ele>
        <time>2019-03-11T14:42:37Z</time>
      </trkpt>
      <trkpt lat="32.534900894388556" lon="-4.979894198477268">
        <ele>2049.1900000000001</ele>
        <time>2019-03-11T14:42:38Z</time>
      </trkpt>
      <trkpt lat="32.534843143075705" lon="-4.979901574552059">
        <ele>2049.1900000000001</ele>
        <time>2019-03-11T14:42:39Z</time>
      </trkpt>
      <trkpt lat="32.534781871363521" lon="-4.979916159063578">
        <ele>2049.1900000000001</ele>
        <time>2019-03-11T14:42:40Z</time>
      </trkpt>
      <trkpt lat="32.53472127020359" lon="-4.979934263974428">
        <ele>2049.1900000000001</ele>
        <time>2019-03-11T14:42:41Z</time>
      </trkpt>
      <trkpt lat="32.534667793661356" lon="-4.979959074407816">
        <ele>2048.71</ele>
        <time>2019-03-11T14:42:43Z</time>
      </trkpt>
      <trkpt lat="32.534631500020623" lon="-4.980041803792119">
        <ele>2048.71</ele>
        <time>2019-03-11T14:42:44Z</time>
      </trkpt>
      <trkpt lat="32.5346396304667" lon="-4.980091592296958">
        <ele>2048.71</ele>
        <time>2019-03-11T14:42:45Z</time>
      </trkpt>
      <trkpt lat="32.534654214978218" lon="-4.980139955878258">
        <ele>2048.71</ele>
        <time>2019-03-11T14:42:46Z</time>
      </trkpt>
      <trkpt lat="32.534669889137149" lon="-4.98018354177475">
        <ele>2048.71</ele>
        <time>2019-03-11T14:42:47Z</time>
      </trkpt>
      <trkpt lat="32.534685982391238" lon="-4.980227462947369">
        <ele>2048.23</ele>
        <time>2019-03-11T14:42:48Z</time>
      </trkpt>
      <trkpt lat="32.534702159464359" lon="-4.980278005823493">
        <ele>2048.71</ele>
        <time>2019-03-11T14:42:49Z</time>
      </trkpt>
      <trkpt lat="32.534713894128799" lon="-4.98034087009728">
        <ele>2049.1900000000001</ele>
        <time>2019-03-11T14:42:52Z</time>
      </trkpt>
      <trkpt lat="32.534747840836644" lon="-4.980533653870225">
        <ele>2049.1900000000001</ele>
        <time>2019-03-11T14:42:53Z</time>
      </trkpt>
      <trkpt lat="32.534750690683722" lon="-4.980591824278235">
        <ele>2049.6700000000001</ele>
        <time>2019-03-11T14:42:59Z</time>
      </trkpt>
      <trkpt lat="32.534762928262353" lon="-4.980864906683564">
        <ele>2049.6700000000001</ele>
        <time>2019-03-11T14:43:00Z</time>
      </trkpt>
      <trkpt lat="32.534786062315106" lon="-4.98090572655201">
        <ele>2049.6700000000001</ele>
        <time>2019-03-11T14:43:07Z</time>
      </trkpt>
      <trkpt lat="32.534959651529789" lon="-4.981125164777041">
        <ele>2049.6700000000001</ele>
        <time>2019-03-11T14:43:08Z</time>
      </trkpt>
      <trkpt lat="32.534989826381207" lon="-4.98115886002779">
        <ele>2049.6700000000001</ele>
        <time>2019-03-11T14:43:09Z</time>
      </trkpt>
      <trkpt lat="32.535028215497732" lon="-4.981189705431461">
        <ele>2049.1900000000001</ele>
        <time>2019-03-11T14:43:13Z</time>
      </trkpt>
      <trkpt lat="32.535195099189878" lon="-4.981351811438799">
        <ele>2049.1900000000001</ele>
        <time>2019-03-11T14:43:14Z</time>
      </trkpt>
      <trkpt lat="32.535224268212914" lon="-4.981402857229114">
        <ele>2049.1900000000001</ele>
        <time>2019-03-11T14:43:15Z</time>
      </trkpt>
      <trkpt lat="32.53524505533278" lon="-4.981458596885204">
        <ele>2048.71</ele>
        <time>2019-03-11T14:43:16Z</time>
      </trkpt>
      <trkpt lat="32.53525678999722" lon="-4.981511067599058">
        <ele>2048.23</ele>
        <time>2019-03-11T14:43:17Z</time>
      </trkpt>
      <trkpt lat="32.535264668986201" lon="-4.981563286855817">
        <ele>2048.23</ele>
        <time>2019-03-11T14:43:18Z</time>
      </trkpt>
      <trkpt lat="32.535270033404231" lon="-4.981616847217083">
        <ele>2048.23</ele>
        <time>2019-03-11T14:43:31Z</time>
      </trkpt>
      <trkpt lat="32.535332730039954" lon="-4.982336685061455">
        <ele>2048.23</ele>
        <time>2019-03-11T14:43:38Z</time>
      </trkpt>
      <trkpt lat="32.535257795825601" lon="-4.982681013643742">
        <ele>2047.75</ele>
        <time>2019-03-11T14:43:42Z</time>
      </trkpt>
      <trkpt lat="32.535131648182869" lon="-4.982905313372612">
        <ele>2047.75</ele>
        <time>2019-03-11T14:43:43Z</time>
      </trkpt>
      <trkpt lat="32.535081440582871" lon="-4.982967171818018">
        <ele>2047.75</ele>
        <time>2019-03-11T14:43:44Z</time>
      </trkpt>
      <trkpt lat="32.535025281831622" lon="-4.983023414388299">
        <ele>2047.75</ele>
        <time>2019-03-11T14:43:45Z</time>
      </trkpt>
      <trkpt lat="32.534968536347151" lon="-4.983074543997645">
        <ele>2048.23</ele>
        <time>2019-03-11T14:43:46Z</time>
      </trkpt>
      <trkpt lat="32.534911120310426" lon="-4.983117040246725">
        <ele>2048.23</ele>
        <time>2019-03-11T14:43:47Z</time>
      </trkpt>
      <trkpt lat="32.534854710102081" lon="-4.983149394392967">
        <ele>2048.71</ele>
        <time>2019-03-11T14:43:48Z</time>
      </trkpt>
      <trkpt lat="32.534796623513103" lon="-4.983172444626689">
        <ele>2048.71</ele>
        <time>2019-03-11T14:43:49Z</time>
      </trkpt>
      <trkpt lat="32.534735938534141" lon="-4.983188202604652">
        <ele>2048.71</ele>
        <time>2019-03-11T14:43:50Z</time>
      </trkpt>
      <trkpt lat="32.534667709842324" lon="-4.983193567022681">
        <ele>2048.71</ele>
        <time>2019-03-11T14:43:51Z</time>
      </trkpt>
      <trkpt lat="32.53459713421762" lon="-4.9831856880337">
        <ele>2049.1900000000001</ele>
        <time>2019-03-11T14:43:52Z</time>
      </trkpt>
      <trkpt lat="32.53453167155385" lon="-4.983177557587624">
        <ele>2050.1500000000001</ele>
        <time>2019-03-11T14:43:53Z</time>
      </trkpt>
      <trkpt lat="32.534476518630981" lon="-4.983186274766922">
        <ele>2050.1500000000001</ele>
        <time>2019-03-11T14:43:54Z</time>
      </trkpt>
      <trkpt lat="32.534436034038663" lon="-4.983213013038039">
        <ele>2050.1500000000001</ele>
        <time>2019-03-11T14:44:01Z</time>
      </trkpt>
      <trkpt lat="32.534474423155189" lon="-4.983547870069742">
        <ele>2050.1500000000001</ele>
        <time>2019-03-11T14:44:02Z</time>
      </trkpt>
      <trkpt lat="32.534517673775554" lon="-4.983578212559223">
        <ele>2050.1500000000001</ele>
        <time>2019-03-11T14:44:03Z</time>
      </trkpt>
      <trkpt lat="32.534563522785902" lon="-4.983603525906801">
        <ele>2049.6700000000001</ele>
        <time>2019-03-11T14:44:04Z</time>
      </trkpt>
      <trkpt lat="32.534610712900758" lon="-4.983638310804963">
        <ele>2049.6700000000001</ele>
        <time>2019-03-11T14:44:05Z</time>
      </trkpt>
      <trkpt lat="32.534655388444662" lon="-4.983683321624994">
        <ele>2049.6700000000001</ele>
        <time>2019-03-11T14:44:07Z</time>
      </trkpt>
      <trkpt lat="32.534738285467029" lon="-4.983770744875073">
        <ele>2049.6700000000001</ele>
        <time>2019-03-11T14:44:08Z</time>
      </trkpt>
      <trkpt lat="32.534785810858011" lon="-4.983802512288094">
        <ele>2049.6700000000001</ele>
        <time>2019-03-11T14:44:09Z</time>
      </trkpt>
      <trkpt lat="32.534835264086723" lon="-4.983833944424987">
        <ele>2049.6700000000001</ele>
        <time>2019-03-11T14:44:10Z</time>
      </trkpt>
      <trkpt lat="32.534886812791228" lon="-4.983873590826988">
        <ele>2049.6700000000001</ele>
        <time>2019-03-11T14:44:11Z</time>
      </trkpt>
      <trkpt lat="32.534937271848321" lon="-4.983923882246018">
        <ele>2050.1500000000001</ele>
        <time>2019-03-11T14:44:12Z</time>
      </trkpt>
      <trkpt lat="32.534987814724445" lon="-4.983980460092425">
        <ele>2050.1500000000001</ele>
        <time>2019-03-11T14:44:17Z</time>
      </trkpt>
      <trkpt lat="32.535210773348808" lon="-4.984256979078054">
        <ele>2050.1500000000001</ele>
        <time>2019-03-11T14:44:18Z</time>
      </trkpt>
      <trkpt lat="32.535266932100058" lon="-4.984305007383227">
        <ele>2050.1500000000001</ele>
        <time>2019-03-11T14:44:19Z</time>
      </trkpt>
      <trkpt lat="32.535332478582859" lon="-4.984346497803927">
        <ele>2049.6700000000001</ele>
        <time>2019-03-11T14:44:20Z</time>
      </trkpt>
      <trkpt lat="32.535403138026595" lon="-4.984382875263691">
        <ele>2049.1900000000001</ele>
        <time>2019-03-11T14:44:21Z</time>
      </trkpt>
      <trkpt lat="32.535474803298712" lon="-4.984414307400584">
        <ele>2048.71</ele>
        <time>2019-03-11T14:44:25Z</time>
      </trkpt>
      <trkpt lat="32.535753166303039" lon="-4.984499886631966">
        <ele>2048.71</ele>
        <time>2019-03-11T14:44:26Z</time>
      </trkpt>
      <trkpt lat="32.535816198214889" lon="-4.98454456217587">
        <ele>2048.23</ele>
        <time>2019-03-11T14:44:27Z</time>
      </trkpt>
      <trkpt lat="32.535873362794518" lon="-4.984603570774198">
        <ele>2047.75</ele>
        <time>2019-03-11T14:44:28Z</time>
      </trkpt>
      <trkpt lat="32.535921055823565" lon="-4.984675319865346">
        <ele>2046.78</ele>
        <time>2019-03-11T14:44:29Z</time>
      </trkpt>
      <trkpt lat="32.535963468253613" lon="-4.984756456688047">
        <ele>2045.8199999999999</ele>
        <time>2019-03-11T14:44:30Z</time>
      </trkpt>
      <trkpt lat="32.536005545407534" lon="-4.984836000949144">
        <ele>2045.8199999999999</ele>
        <time>2019-03-11T14:44:36Z</time>
      </trkpt>
      <trkpt lat="32.536220122128725" lon="-4.985256940126419">
        <ele>2046.3</ele>
        <time>2019-03-11T14:44:48Z</time>
      </trkpt>
      <trkpt lat="32.536581298336387" lon="-4.986028661951423">
        <ele>2045.8199999999999</ele>
        <time>2019-03-11T14:44:55Z</time>
      </trkpt>
      <trkpt lat="32.536806687712669" lon="-4.986594188958406">
        <ele>2045.8199999999999</ele>
        <time>2019-03-11T14:44:56Z</time>
      </trkpt>
      <trkpt lat="32.536830911412835" lon="-4.986679097637534">
        <ele>2046.3</ele>
        <time>2019-03-11T14:45:00Z</time>
      </trkpt>
      <trkpt lat="32.536893272772431" lon="-4.987030299380422">
        <ele>2046.3</ele>
        <time>2019-03-11T14:45:01Z</time>
      </trkpt>
      <trkpt lat="32.536918250843883" lon="-4.987100036814809">
        <ele>2045.3399999999999</ele>
        <time>2019-03-11T14:45:02Z</time>
      </trkpt>
      <trkpt lat="32.536953873932362" lon="-4.987160386517644">
        <ele>2045.3399999999999</ele>
        <time>2019-03-11T14:45:05Z</time>
      </trkpt>
      <trkpt lat="32.537084883078933" lon="-4.987368928268552">
        <ele>2045.3399999999999</ele>
        <time>2019-03-11T14:45:12Z</time>
      </trkpt>
      <trkpt lat="32.537315301597118" lon="-4.987891539931297">
        <ele>2045.3399999999999</ele>
        <time>2019-03-11T14:45:13Z</time>
      </trkpt>
      <trkpt lat="32.537325108423829" lon="-4.987957086414099">
        <ele>2045.3399999999999</ele>
        <time>2019-03-11T14:45:14Z</time>
      </trkpt>
      <trkpt lat="32.537317983806133" lon="-4.988016597926617">
        <ele>2044.8599999999999</ele>
        <time>2019-03-11T14:45:15Z</time>
      </trkpt>
      <trkpt lat="32.537295771762729" lon="-4.988063452765346">
        <ele>2044.8599999999999</ele>
        <time>2019-03-11T14:45:16Z</time>
      </trkpt>
      <trkpt lat="32.537260567769408" lon="-4.988093208521605">
        <ele>2044.8599999999999</ele>
        <time>2019-03-11T14:45:17Z</time>
      </trkpt>
      <trkpt lat="32.537213126197457" lon="-4.988106787204742">
        <ele>2044.3800000000001</ele>
        <time>2019-03-11T14:45:18Z</time>
      </trkpt>
      <trkpt lat="32.537157302722335" lon="-4.988114079460502">
        <ele>2044.3800000000001</ele>
        <time>2019-03-11T14:45:19Z</time>
      </trkpt>
      <trkpt lat="32.537094354629517" lon="-4.988121539354324">
        <ele>2043.9000000000001</ele>
        <time>2019-03-11T14:45:20Z</time>
      </trkpt>
      <trkpt lat="32.537031657993793" lon="-4.988141991198063">
        <ele>2043.4200000000001</ele>
        <time>2019-03-11T14:45:21Z</time>
      </trkpt>
      <trkpt lat="32.536976588889956" lon="-4.988176859915257">
        <ele>2043.4200000000001</ele>
        <time>2019-03-11T14:45:22Z</time>
      </trkpt>
      <trkpt lat="32.536928979679942" lon="-4.988221200183034">
        <ele>2043.4200000000001</ele>
        <time>2019-03-11T14:45:23Z</time>
      </trkpt>
      <trkpt lat="32.536886902526021" lon="-4.988270737230778">
        <ele>2043.4200000000001</ele>
        <time>2019-03-11T14:45:24Z</time>
      </trkpt>
      <trkpt lat="32.536847507581115" lon="-4.988320441916585">
        <ele>2042.46</ele>
        <time>2019-03-11T14:45:25Z</time>
      </trkpt>
      <trkpt lat="32.536805933341384" lon="-4.988365452736616">
        <ele>2041.98</ele>
        <time>2019-03-11T14:45:26Z</time>
      </trkpt>
      <trkpt lat="32.536760251969099" lon="-4.988402165472508">
        <ele>2041.5</ele>
        <time>2019-03-11T14:45:28Z</time>
      </trkpt>
      <trkpt lat="32.53665816038847" lon="-4.988474501296878">
        <ele>2041.02</ele>
        <time>2019-03-11T14:45:29Z</time>
      </trkpt>
      <trkpt lat="32.536609545350075" lon="-4.988527055829763">
        <ele>2040.54</ele>
        <time>2019-03-11T14:45:30Z</time>
      </trkpt>
      <trkpt lat="32.536564618349075" lon="-4.988590339198709">
        <ele>2040.05</ele>
        <time>2019-03-11T14:45:31Z</time>
      </trkpt>
      <trkpt lat="32.536532431840897" lon="-4.988660160452128">
        <ele>2039.5699999999999</ele>
        <time>2019-03-11T14:45:32Z</time>
      </trkpt>
      <trkpt lat="32.536510890349746" lon="-4.98872964642942">
        <ele>2039.0899999999999</ele>
        <time>2019-03-11T14:45:33Z</time>
      </trkpt>
      <trkpt lat="32.536494797095656" lon="-4.988795192912221">
        <ele>2039.0899999999999</ele>
        <time>2019-03-11T14:45:35Z</time>
      </trkpt>
      <trkpt lat="32.536452636122704" lon="-4.988877754658461">
        <ele>2038.6099999999999</ele>
        <time>2019-03-11T14:45:36Z</time>
      </trkpt>
      <trkpt lat="32.536420030519366" lon="-4.988895608112216">
        <ele>2038.6099999999999</ele>
        <time>2019-03-11T14:45:37Z</time>
      </trkpt>
      <trkpt lat="32.53638650290668" lon="-4.988902984187007">
        <ele>2038.6099999999999</ele>
        <time>2019-03-11T14:45:38Z</time>
      </trkpt>
      <trkpt lat="32.536358591169119" lon="-4.988903403282166">
        <ele>2038.6099999999999</ele>
        <time>2019-03-11T14:45:39Z</time>
      </trkpt>
      <trkpt lat="32.53633126616478" lon="-4.988898206502199">
        <ele>2038.1300000000001</ele>
        <time>2019-03-11T14:45:40Z</time>
      </trkpt>
      <trkpt lat="32.536299582570791" lon="-4.988885801285505">
        <ele>2037.6500000000001</ele>
        <time>2019-03-11T14:45:41Z</time>
      </trkpt>
      <trkpt lat="32.536263791844249" lon="-4.988866439089179">
        <ele>2037.6500000000001</ele>
        <time>2019-03-11T14:45:42Z</time>
      </trkpt>
      <trkpt lat="32.536225654184818" lon="-4.988841293379664">
        <ele>2037.6500000000001</ele>
        <time>2019-03-11T14:45:43Z</time>
      </trkpt>
      <trkpt lat="32.536184582859278" lon="-4.988811202347279">
        <ele>2037.6500000000001</ele>
        <time>2019-03-11T14:45:44Z</time>
      </trkpt>
      <trkpt lat="32.536142589524388" lon="-4.988773232325912">
        <ele>2037.1700000000001</ele>
        <time>2019-03-11T14:45:45Z</time>
      </trkpt>
      <trkpt lat="32.536099338904023" lon="-4.988726293668151">
        <ele>2037.6500000000001</ele>
        <time>2019-03-11T14:45:46Z</time>
      </trkpt>
      <trkpt lat="32.536055669188499" lon="-4.988667704164982">
        <ele>2037.6500000000001</ele>
        <time>2019-03-11T14:45:47Z</time>
      </trkpt>
      <trkpt lat="32.536016441881657" lon="-4.988609114661813">
        <ele>2037.6500000000001</ele>
        <time>2019-03-11T14:45:48Z</time>
      </trkpt>
      <trkpt lat="32.535981656983495" lon="-4.988551195710897">
        <ele>2037.1700000000001</ele>
        <time>2019-03-11T14:45:49Z</time>
      </trkpt>
      <trkpt lat="32.53595307469368" lon="-4.988496797159314">
        <ele>2037.1700000000001</ele>
        <time>2019-03-11T14:45:50Z</time>
      </trkpt>
      <trkpt lat="32.535930862650275" lon="-4.988444913178682">
        <ele>2036.6900000000001</ele>
        <time>2019-03-11T14:45:51Z</time>
      </trkpt>
      <trkpt lat="32.535912422463298" lon="-4.988391185179353">
        <ele>2036.21</ele>
        <time>2019-03-11T14:45:52Z</time>
      </trkpt>
      <trkpt lat="32.535901525989175" lon="-4.988338714465499">
        <ele>2035.73</ele>
        <time>2019-03-11T14:45:53Z</time>
      </trkpt>
      <trkpt lat="32.535894401371479" lon="-4.988284902647138">
        <ele>2035.25</ele>
        <time>2019-03-11T14:45:54Z</time>
      </trkpt>
      <trkpt lat="32.535892054438591" lon="-4.988232851028442">
        <ele>2035.25</ele>
        <time>2019-03-11T14:45:56Z</time>
      </trkpt>
      <trkpt lat="32.535901693627238" lon="-4.988124640658498">
        <ele>2035.25</ele>
        <time>2019-03-11T14:45:57Z</time>
      </trkpt>
      <trkpt lat="32.535909404978156" lon="-4.988063536584377">
        <ele>2035.25</ele>
        <time>2019-03-11T14:45:59Z</time>
      </trkpt>
      <trkpt lat="32.535916781052947" lon="-4.987937808036804">
        <ele>2034.77</ele>
        <time>2019-03-11T14:46:00Z</time>
      </trkpt>
      <trkpt lat="32.535909991711378" lon="-4.987881314009428">
        <ele>2034.77</ele>
        <time>2019-03-11T14:46:01Z</time>
      </trkpt>
      <trkpt lat="32.535893311724067" lon="-4.98782766982913">
        <ele>2034.29</ele>
        <time>2019-03-11T14:46:02Z</time>
      </trkpt>
      <trkpt lat="32.535860538482666" lon="-4.987780479714274">
        <ele>2033.3299999999999</ele>
        <time>2019-03-11T14:46:03Z</time>
      </trkpt>
      <trkpt lat="32.535815527662635" lon="-4.987734714522958">
        <ele>2033.3299999999999</ele>
        <time>2019-03-11T14:46:04Z</time>
      </trkpt>
      <trkpt lat="32.535762218758464" lon="-4.987693224102259">
        <ele>2032.3599999999999</ele>
        <time>2019-03-11T14:46:05Z</time>
      </trkpt>
      <trkpt lat="32.535702623426914" lon="-4.987658271566033">
        <ele>2030.9200000000001</ele>
        <time>2019-03-11T14:46:06Z</time>
      </trkpt>
      <trkpt lat="32.535642944276333" lon="-4.987637903541327">
        <ele>2030.4400000000001</ele>
        <time>2019-03-11T14:46:08Z</time>
      </trkpt>
      <trkpt lat="32.535541271790862" lon="-4.987676879391074">
        <ele>2029.96</ele>
        <time>2019-03-11T14:46:11Z</time>
      </trkpt>
      <trkpt lat="32.535401796922088" lon="-4.987802859395742">
        <ele>2029</ele>
        <time>2019-03-11T14:46:12Z</time>
      </trkpt>
      <trkpt lat="32.535344213247299" lon="-4.98783253133297">
        <ele>2028.52</ele>
        <time>2019-03-11T14:46:13Z</time>
      </trkpt>
      <trkpt lat="32.535284198820591" lon="-4.987852983176708">
        <ele>2028.04</ele>
        <time>2019-03-11T14:46:15Z</time>
      </trkpt>
      <trkpt lat="32.535174982622266" lon="-4.987873015925288">
        <ele>2028.04</ele>
        <time>2019-03-11T14:46:16Z</time>
      </trkpt>
      <trkpt lat="32.535120667889714" lon="-4.987863712012768">
        <ele>2027.5599999999999</ele>
        <time>2019-03-11T14:46:17Z</time>
      </trkpt>
      <trkpt lat="32.535058641806245" lon="-4.98783596791327">
        <ele>2027.0799999999999</ele>
        <time>2019-03-11T14:46:18Z</time>
      </trkpt>
      <trkpt lat="32.534992173314095" lon="-4.987804032862186">
        <ele>2026.1199999999999</ele>
        <time>2019-03-11T14:46:19Z</time>
      </trkpt>
      <trkpt lat="32.534925118088722" lon="-4.987783413380384">
        <ele>2025.6400000000001</ele>
        <time>2019-03-11T14:46:20Z</time>
      </trkpt>
      <trkpt lat="32.534857895225286" lon="-4.987774780020118">
        <ele>2025.6400000000001</ele>
        <time>2019-03-11T14:46:22Z</time>
      </trkpt>
      <trkpt lat="32.534727305173874" lon="-4.987760614603758">
        <ele>2025.6400000000001</ele>
        <time>2019-03-11T14:46:23Z</time>
      </trkpt>
      <trkpt lat="32.534683048725128" lon="-4.987773271277547">
        <ele>2024.6700000000001</ele>
        <time>2019-03-11T14:46:24Z</time>
      </trkpt>
      <trkpt lat="32.534662177786231" lon="-4.987791124731302">
        <ele>2023.71</ele>
        <time>2019-03-11T14:46:25Z</time>
      </trkpt>
      <trkpt lat="32.534651784226298" lon="-4.987809816375375">
        <ele>2022.75</ele>
        <time>2019-03-11T14:46:27Z</time>
      </trkpt>
      <trkpt lat="32.534641977399588" lon="-4.987881565466523">
        <ele>2021.79</ele>
        <time>2019-03-11T14:46:28Z</time>
      </trkpt>
      <trkpt lat="32.534644994884729" lon="-4.987933365628123">
        <ele>2018.4300000000001</ele>
        <time>2019-03-11T14:46:29Z</time>
      </trkpt>
      <trkpt lat="32.534653376787901" lon="-4.987996816635132">
        <ele>2017.9400000000001</ele>
        <time>2019-03-11T14:46:30Z</time>
      </trkpt>
      <trkpt lat="32.534664524719119" lon="-4.988063871860504">
        <ele>2012.6600000000001</ele>
        <time>2019-03-11T14:46:37Z</time>
      </trkpt>
      <trkpt lat="32.534725712612271" lon="-4.988582544028759">
        <ele>2012.1800000000001</ele>
        <time>2019-03-11T14:46:38Z</time>
      </trkpt>
      <trkpt lat="32.534712888300419" lon="-4.988663764670491">
        <ele>2011.22</ele>
        <time>2019-03-11T14:46:49Z</time>
      </trkpt>
      <trkpt lat="32.534508369863033" lon="-4.989623576402664">
        <ele>2010.73</ele>
        <time>2019-03-11T14:46:50Z</time>
      </trkpt>
      <trkpt lat="32.534478446468711" lon="-4.989711586385965">
        <ele>2010.73</ele>
        <time>2019-03-11T14:46:52Z</time>
      </trkpt>
      <trkpt lat="32.534427233040333" lon="-4.989873357117176">
        <ele>2010.25</ele>
        <time>2019-03-11T14:46:53Z</time>
      </trkpt>
      <trkpt lat="32.534420192241669" lon="-4.989948207512498">
        <ele>2009.77</ele>
        <time>2019-03-11T14:46:54Z</time>
      </trkpt>
      <trkpt lat="32.53442463465035" lon="-4.990026662126184">
        <ele>2005.9300000000001</ele>
        <time>2019-03-11T14:46:55Z</time>
      </trkpt>
      <trkpt lat="32.534436788409948" lon="-4.990112911909819">
        <ele>2004.49</ele>
        <time>2019-03-11T14:46:56Z</time>
      </trkpt>
      <trkpt lat="32.534451289102435" lon="-4.990199999883771">
        <ele>2004.49</ele>
        <time>2019-03-11T14:47:05Z</time>
      </trkpt>
      <trkpt lat="32.534634182229638" lon="-4.99098613858223">
        <ele>2004.01</ele>
        <time>2019-03-11T14:47:09Z</time>
      </trkpt>
      <trkpt lat="32.534622615203261" lon="-4.991322252899408">
        <ele>2003.52</ele>
        <time>2019-03-11T14:47:10Z</time>
      </trkpt>
      <trkpt lat="32.53459713421762" lon="-4.991389727219939">
        <ele>2003.52</ele>
        <time>2019-03-11T14:47:11Z</time>
      </trkpt>
      <trkpt lat="32.534560589119792" lon="-4.991443622857332">
        <ele>2003.04</ele>
        <time>2019-03-11T14:47:12Z</time>
      </trkpt>
      <trkpt lat="32.534515410661697" lon="-4.991485197097063">
        <ele>2003.04</ele>
        <time>2019-03-11T14:47:13Z</time>
      </trkpt>
      <trkpt lat="32.534462604671717" lon="-4.991517132148147">
        <ele>2002.5599999999999</ele>
        <time>2019-03-11T14:47:14Z</time>
      </trkpt>
      <trkpt lat="32.534406362101436" lon="-4.99153926037252">
        <ele>2002.5599999999999</ele>
        <time>2019-03-11T14:47:15Z</time>
      </trkpt>
      <trkpt lat="32.534350706264377" lon="-4.991550240665674">
        <ele>2002.0799999999999</ele>
        <time>2019-03-11T14:47:16Z</time>
      </trkpt>
      <trkpt lat="32.534298822283745" lon="-4.991549989208579">
        <ele>2002.0799999999999</ele>
        <time>2019-03-11T14:47:17Z</time>
      </trkpt>
      <trkpt lat="32.534247692674398" lon="-4.991541858762503">
        <ele>2002.0799999999999</ele>
        <time>2019-03-11T14:47:18Z</time>
      </trkpt>
      <trkpt lat="32.534196395426989" lon="-4.991525011137128">
        <ele>2001.5999999999999</ele>
        <time>2019-03-11T14:47:19Z</time>
      </trkpt>
      <trkpt lat="32.534145349636674" lon="-4.991498775780201">
        <ele>2001.5999999999999</ele>
        <time>2019-03-11T14:47:20Z</time>
      </trkpt>
      <trkpt lat="32.534099752083421" lon="-4.99146499671042">
        <ele>2001.1199999999999</ele>
        <time>2019-03-11T14:47:21Z</time>
      </trkpt>
      <trkpt lat="32.534061279147863" lon="-4.991427613422275">
        <ele>2001.1199999999999</ele>
        <time>2019-03-11T14:47:22Z</time>
      </trkpt>
      <trkpt lat="32.534028505906463" lon="-4.991384781897068">
        <ele>2000.6400000000001</ele>
        <time>2019-03-11T14:47:23Z</time>
      </trkpt>
      <trkpt lat="32.533997409045696" lon="-4.991330802440643">
        <ele>2000.1600000000001</ele>
        <time>2019-03-11T14:47:24Z</time>
      </trkpt>
      <trkpt lat="32.53396874293685" lon="-4.991263579577208">
        <ele>2000.1600000000001</ele>
        <time>2019-03-11T14:47:25Z</time>
      </trkpt>
      <trkpt lat="32.53394577652216" lon="-4.991188645362854">
        <ele>1999.6800000000001</ele>
        <time>2019-03-11T14:47:26Z</time>
      </trkpt>
      <trkpt lat="32.533935215324163" lon="-4.991112621501088">
        <ele>1999.6800000000001</ele>
        <time>2019-03-11T14:47:27Z</time>
      </trkpt>
      <trkpt lat="32.533934041857719" lon="-4.991039698943496">
        <ele>1999.2</ele>
        <time>2019-03-11T14:47:28Z</time>
      </trkpt>
      <trkpt lat="32.533935215324163" lon="-4.990974655374885">
        <ele>1999.2</ele>
        <time>2019-03-11T14:47:29Z</time>
      </trkpt>
      <trkpt lat="32.533931108191609" lon="-4.990914892405272">
        <ele>1999.2</ele>
        <time>2019-03-11T14:47:30Z</time>
      </trkpt>
      <trkpt lat="32.533914595842361" lon="-4.990853285416961">
        <ele>1998.72</ele>
        <time>2019-03-11T14:47:31Z</time>
      </trkpt>
      <trkpt lat="32.533887522295117" lon="-4.990789918228984">
        <ele>1994.3900000000001</ele>
        <time>2019-03-11T14:47:32Z</time>
      </trkpt>
      <trkpt lat="32.533856341615319" lon="-4.990731161087751">
        <ele>1991.03</ele>
        <time>2019-03-11T14:47:33Z</time>
      </trkpt>
      <trkpt lat="32.533820131793618" lon="-4.990678103640676">
        <ele>1990.55</ele>
        <time>2019-03-11T14:47:43Z</time>
      </trkpt>
      <trkpt lat="32.53344789147377" lon="-4.990009479224682">
        <ele>1988.6199999999999</ele>
        <time>2019-03-11T14:47:50Z</time>
      </trkpt>
      <trkpt lat="32.533292574808002" lon="-4.989533890038729">
        <ele>1988.1400000000001</ele>
        <time>2019-03-11T14:47:52Z</time>
      </trkpt>
      <trkpt lat="32.533267848193645" lon="-4.989403299987316">
        <ele>1987.6600000000001</ele>
        <time>2019-03-11T14:47:56Z</time>
      </trkpt>
      <trkpt lat="32.533170869573951" lon="-4.989087302237749">
        <ele>1987.1800000000001</ele>
        <time>2019-03-11T14:47:57Z</time>
      </trkpt>
      <trkpt lat="32.533156201243401" lon="-4.989004991948605">
        <ele>1986.7</ele>
        <time>2019-03-11T14:47:58Z</time>
      </trkpt>
      <trkpt lat="32.53314983099699" lon="-4.988923268392682">
        <ele>1986.22</ele>
        <time>2019-03-11T14:47:59Z</time>
      </trkpt>
      <trkpt lat="32.533152932301164" lon="-4.988838108256459">
        <ele>1984.78</ele>
        <time>2019-03-11T14:48:00Z</time>
      </trkpt>
      <trkpt lat="32.533164080232382" lon="-4.988751774653792">
        <ele>1983.8199999999999</ele>
        <time>2019-03-11T14:48:01Z</time>
      </trkpt>
      <trkpt lat="32.533175563439727" lon="-4.988669715821743">
        <ele>1982.8599999999999</ele>
        <time>2019-03-11T14:48:05Z</time>
      </trkpt>
      <trkpt lat="32.533188052475452" lon="-4.988370565697551">
        <ele>1982.8599999999999</ele>
        <time>2019-03-11T14:48:12Z</time>
      </trkpt>
      <trkpt lat="32.533119153231382" lon="-4.988047610968351">
        <ele>1982.3800000000001</ele>
        <time>2019-03-11T14:48:16Z</time>
      </trkpt>
      <trkpt lat="32.532991748303175" lon="-4.988097064197063">
        <ele>1982.3800000000001</ele>
        <time>2019-03-11T14:48:17Z</time>
      </trkpt>
      <trkpt lat="32.53296266309917" lon="-4.988150205463171">
        <ele>1981.9000000000001</ele>
        <time>2019-03-11T14:48:18Z</time>
      </trkpt>
      <trkpt lat="32.532933661714196" lon="-4.988202759996057">
        <ele>1981.4100000000001</ele>
        <time>2019-03-11T14:48:19Z</time>
      </trkpt>
      <trkpt lat="32.532902732491493" lon="-4.988251039758325">
        <ele>1981.4100000000001</ele>
        <time>2019-03-11T14:48:20Z</time>
      </trkpt>
      <trkpt lat="32.532869204878807" lon="-4.988302504643798">
        <ele>1981.4100000000001</ele>
        <time>2019-03-11T14:48:22Z</time>
      </trkpt>
      <trkpt lat="32.532785385847092" lon="-4.988409960642457">
        <ele>1981.4100000000001</ele>
        <time>2019-03-11T14:48:23Z</time>
      </trkpt>
      <trkpt lat="32.532730400562286" lon="-4.988456228747964">
        <ele>1981.4100000000001</ele>
        <time>2019-03-11T14:48:24Z</time>
      </trkpt>
      <trkpt lat="32.532671643421054" lon="-4.988489672541618">
        <ele>1981.9000000000001</ele>
        <time>2019-03-11T14:48:25Z</time>
      </trkpt>
      <trkpt lat="32.532613221555948" lon="-4.988508028909564">
        <ele>1981.9000000000001</ele>
        <time>2019-03-11T14:48:26Z</time>
      </trkpt>
      <trkpt lat="32.532559409737587" lon="-4.988521691411734">
        <ele>1980.45</ele>
        <time>2019-03-11T14:48:27Z</time>
      </trkpt>
      <trkpt lat="32.532510962337255" lon="-4.988541221246123">
        <ele>1979.97</ele>
        <time>2019-03-11T14:48:28Z</time>
      </trkpt>
      <trkpt lat="32.532471148297191" lon="-4.988574162125588">
        <ele>1979.01</ele>
        <time>2019-03-11T14:48:31Z</time>
      </trkpt>
      <trkpt lat="32.532411385327578" lon="-4.988742303103209">
        <ele>1979.01</ele>
        <time>2019-03-11T14:48:32Z</time>
      </trkpt>
      <trkpt lat="32.532395459711552" lon="-4.988807011395693">
        <ele>1975.6500000000001</ele>
        <time>2019-03-11T14:48:37Z</time>
      </trkpt>
      <trkpt lat="32.532295631244779" lon="-4.989084284752607">
        <ele>1975.1700000000001</ele>
        <time>2019-03-11T14:48:39Z</time>
      </trkpt>
      <trkpt lat="32.532244501635432" lon="-4.989192076027393">
        <ele>1974.6900000000001</ele>
        <time>2019-03-11T14:48:46Z</time>
      </trkpt>
      <trkpt lat="32.531980723142624" lon="-4.989728266373277">
        <ele>1973.72</ele>
        <time>2019-03-11T14:48:47Z</time>
      </trkpt>
      <trkpt lat="32.531951973214746" lon="-4.989809487015009">
        <ele>1973.24</ele>
        <time>2019-03-11T14:48:48Z</time>
      </trkpt>
      <trkpt lat="32.531922720372677" lon="-4.989890959113836">
        <ele>1972.76</ele>
        <time>2019-03-11T14:48:49Z</time>
      </trkpt>
      <trkpt lat="32.531880643218756" lon="-4.98996346257627">
        <ele>1972.28</ele>
        <time>2019-03-11T14:48:50Z</time>
      </trkpt>
      <trkpt lat="32.53182758577168" lon="-4.990018615499139">
        <ele>1971.8</ele>
        <time>2019-03-11T14:48:51Z</time>
      </trkpt>
      <trkpt lat="32.531770588830113" lon="-4.99006362631917">
        <ele>1970.8399999999999</ele>
        <time>2019-03-11T14:48:52Z</time>
      </trkpt>
      <trkpt lat="32.531726080924273" lon="-4.990111906081438">
        <ele>1970.8399999999999</ele>
        <time>2019-03-11T14:48:53Z</time>
      </trkpt>
      <trkpt lat="32.531701857224107" lon="-4.990170830860734">
        <ele>1970.3599999999999</ele>
        <time>2019-03-11T14:48:54Z</time>
      </trkpt>
      <trkpt lat="32.531694816425443" lon="-4.990235706791282">
        <ele>1969.8800000000001</ele>
        <time>2019-03-11T14:48:55Z</time>
      </trkpt>
      <trkpt lat="32.531699258834124" lon="-4.990306869149208">
        <ele>1969.4000000000001</ele>
        <time>2019-03-11T14:48:56Z</time>
      </trkpt>
      <trkpt lat="32.531709484755993" lon="-4.990381887182593">
        <ele>1968.9200000000001</ele>
        <time>2019-03-11T14:48:57Z</time>
      </trkpt>
      <trkpt lat="32.531715435907245" lon="-4.990458665415645">
        <ele>1967.96</ele>
        <time>2019-03-11T14:48:58Z</time>
      </trkpt>
      <trkpt lat="32.531710406765342" lon="-4.990536365658045">
        <ele>1967.48</ele>
        <time>2019-03-11T14:48:59Z</time>
      </trkpt>
      <trkpt lat="32.53169615752995" lon="-4.990616831928492">
        <ele>1964.5899999999999</ele>
        <time>2019-03-11T14:49:00Z</time>
      </trkpt>
      <trkpt lat="32.531674364581704" lon="-4.99070031568408">
        <ele>1964.1099999999999</ele>
        <time>2019-03-11T14:49:01Z</time>
      </trkpt>
      <trkpt lat="32.531649554148316" lon="-4.990786230191588">
        <ele>1963.6300000000001</ele>
        <time>2019-03-11T14:49:05Z</time>
      </trkpt>
      <trkpt lat="32.531528854742646" lon="-4.99111077748239">
        <ele>1963.1500000000001</ele>
        <time>2019-03-11T14:49:06Z</time>
      </trkpt>
      <trkpt lat="32.531485771760345" lon="-4.991175318136811">
        <ele>1963.1500000000001</ele>
        <time>2019-03-11T14:49:07Z</time>
      </trkpt>
      <trkpt lat="32.531441515311599" lon="-4.991222592070699">
        <ele>1963.1500000000001</ele>
        <time>2019-03-11T14:49:08Z</time>
      </trkpt>
      <trkpt lat="32.531397258862853" lon="-4.991261148825288">
        <ele>1962.6700000000001</ele>
        <time>2019-03-11T14:49:09Z</time>
      </trkpt>
      <trkpt lat="32.531350320205092" lon="-4.99129107221961">
        <ele>1962.6700000000001</ele>
        <time>2019-03-11T14:49:10Z</time>
      </trkpt>
      <trkpt lat="32.531298436224461" lon="-4.99131990596652">
        <ele>1960.75</ele>
        <time>2019-03-11T14:49:11Z</time>
      </trkpt>
      <trkpt lat="32.531243115663528" lon="-4.991346811875701">
        <ele>1960.75</ele>
        <time>2019-03-11T14:49:12Z</time>
      </trkpt>
      <trkpt lat="32.531190561130643" lon="-4.991371370851994">
        <ele>1954.98</ele>
        <time>2019-03-11T14:49:18Z</time>
      </trkpt>
      <trkpt lat="32.530846316367388" lon="-4.99146549962461">
        <ele>1954.02</ele>
        <time>2019-03-11T14:49:19Z</time>
      </trkpt>
      <trkpt lat="32.530778087675571" lon="-4.991465918719769">
        <ele>1950.6500000000001</ele>
        <time>2019-03-11T14:49:30Z</time>
      </trkpt>
      <trkpt lat="32.530070571228862" lon="-4.991391655057669">
        <ele>1950.6500000000001</ele>
        <time>2019-03-11T14:49:32Z</time>
      </trkpt>
      <trkpt lat="32.529966719448566" lon="-4.991346811875701">
        <ele>1951.1300000000001</ele>
        <time>2019-03-11T14:49:41Z</time>
      </trkpt>
      <trkpt lat="32.529736803844571" lon="-4.991243798285723">
        <ele>1951.6099999999999</ele>
        <time>2019-03-11T14:49:42Z</time>
      </trkpt>
      <trkpt lat="32.529714424163103" lon="-4.991247737780213">
        <ele>1952.0899999999999</ele>
        <time>2019-03-11T14:49:43Z</time>
      </trkpt>
      <trkpt lat="32.529693720862269" lon="-4.99125930480659">
        <ele>1954.02</ele>
        <time>2019-03-11T14:49:46Z</time>
      </trkpt>
      <trkpt lat="32.529629934579134" lon="-4.991341112181544">
        <ele>1952.5699999999999</ele>
        <time>2019-03-11T14:49:47Z</time>
      </trkpt>
      <trkpt lat="32.529609482735395" lon="-4.991381177678704">
        <ele>1949.21</ele>
        <time>2019-03-11T14:49:56Z</time>
      </trkpt>
      <trkpt lat="32.529547875747085" lon="-4.991479748860002">
        <ele>1949.6900000000001</ele>
        <time>2019-03-11T14:50:39Z</time>
      </trkpt>
      <trkpt lat="32.529569920152426" lon="-4.991480587050319">
        <ele>1950.6500000000001</ele>
        <time>2019-03-11T14:51:19Z</time>
      </trkpt>
      <trkpt lat="32.529528178274632" lon="-4.991530878469348">
        <ele>1951.1300000000001</ele>
        <time>2019-03-11T14:51:21Z</time>
      </trkpt>
      <trkpt lat="32.529484508559108" lon="-4.991622492671013">
        <ele>1952.0899999999999</ele>
        <time>2019-03-11T14:51:22Z</time>
      </trkpt>
      <trkpt lat="32.529474031180143" lon="-4.991676472127438">
        <ele>1952.5699999999999</ele>
        <time>2019-03-11T14:51:23Z</time>
      </trkpt>
      <trkpt lat="32.529470175504684" lon="-4.991737743839622">
        <ele>1952.5699999999999</ele>
        <time>2019-03-11T14:51:24Z</time>
      </trkpt>
      <trkpt lat="32.529473528265953" lon="-4.99180362559855">
        <ele>1953.0599999999999</ele>
        <time>2019-03-11T14:51:25Z</time>
      </trkpt>
      <trkpt lat="32.529482245445251" lon="-4.991872692480683">
        <ele>1953.54</ele>
        <time>2019-03-11T14:51:26Z</time>
      </trkpt>
      <trkpt lat="32.529499428346753" lon="-4.991945195943117">
        <ele>1954.5</ele>
        <time>2019-03-11T14:51:27Z</time>
      </trkpt>
      <trkpt lat="32.5295280944556" lon="-4.992022477090359">
        <ele>1954.98</ele>
        <time>2019-03-11T14:51:28Z</time>
      </trkpt>
      <trkpt lat="32.529567070305347" lon="-4.992100680246949">
        <ele>1955.46</ele>
        <time>2019-03-11T14:51:29Z</time>
      </trkpt>
      <trkpt lat="32.52961702644825" lon="-4.99217594973743">
        <ele>1955.9400000000001</ele>
        <time>2019-03-11T14:51:30Z</time>
      </trkpt>
      <trkpt lat="32.529679303988814" lon="-4.992247195914388">
        <ele>1956.4200000000001</ele>
        <time>2019-03-11T14:51:31Z</time>
      </trkpt>
      <trkpt lat="32.529750047251582" lon="-4.992309808731079">
        <ele>1956.4200000000001</ele>
        <time>2019-03-11T14:51:32Z</time>
      </trkpt>
      <trkpt lat="32.529826238751411" lon="-4.992361608892679">
        <ele>1956.9000000000001</ele>
        <time>2019-03-11T14:51:33Z</time>
      </trkpt>
      <trkpt lat="32.529908800497651" lon="-4.992411229759455">
        <ele>1957.3800000000001</ele>
        <time>2019-03-11T14:51:37Z</time>
      </trkpt>
      <trkpt lat="32.530177356675267" lon="-4.992608036845923">
        <ele>1957.3800000000001</ele>
        <time>2019-03-11T14:51:39Z</time>
      </trkpt>
      <trkpt lat="32.530284728854895" lon="-4.992738794535399">
        <ele>1957.8599999999999</ele>
        <time>2019-03-11T14:51:41Z</time>
      </trkpt>
      <trkpt lat="32.530406517907977" lon="-4.992877766489983">
        <ele>1958.3399999999999</ele>
        <time>2019-03-11T14:51:42Z</time>
      </trkpt>
      <trkpt lat="32.530452534556389" lon="-4.992950605228543">
        <ele>1958.3399999999999</ele>
        <time>2019-03-11T14:51:43Z</time>
      </trkpt>
      <trkpt lat="32.530476758256555" lon="-4.993027802556753">
        <ele>1958.8199999999999</ele>
        <time>2019-03-11T14:51:44Z</time>
      </trkpt>
      <trkpt lat="32.530466532334685" lon="-4.993106760084629">
        <ele>1959.3</ele>
        <time>2019-03-11T14:51:45Z</time>
      </trkpt>
      <trkpt lat="32.530430909246206" lon="-4.993179850280285">
        <ele>1959.78</ele>
        <time>2019-03-11T14:51:46Z</time>
      </trkpt>
      <trkpt lat="32.530377097427845" lon="-4.993242379277945">
        <ele>1959.78</ele>
        <time>2019-03-11T14:51:47Z</time>
      </trkpt>
      <trkpt lat="32.530308617278934" lon="-4.9932861328125">
        <ele>1960.27</ele>
        <time>2019-03-11T14:51:48Z</time>
      </trkpt>
      <trkpt lat="32.530229659751058" lon="-4.993309015408158">
        <ele>1960.27</ele>
        <time>2019-03-11T14:51:49Z</time>
      </trkpt>
      <trkpt lat="32.530146511271596" lon="-4.993323516100645">
        <ele>1960.75</ele>
        <time>2019-03-11T14:51:51Z</time>
      </trkpt>
      <trkpt lat="32.529991026967764" lon="-4.993368862196803">
        <ele>1960.75</ele>
        <time>2019-03-11T14:51:52Z</time>
      </trkpt>
      <trkpt lat="32.529934952035546" lon="-4.993417728692293">
        <ele>1960.75</ele>
        <time>2019-03-11T14:51:53Z</time>
      </trkpt>
      <trkpt lat="32.529911063611507" lon="-4.993479251861572">
        <ele>1960.75</ele>
        <time>2019-03-11T14:51:54Z</time>
      </trkpt>
      <trkpt lat="32.529923301190138" lon="-4.993547229096293">
        <ele>1961.23</ele>
        <time>2019-03-11T14:51:55Z</time>
      </trkpt>
      <trkpt lat="32.529959762468934" lon="-4.993618223816156">
        <ele>1961.23</ele>
        <time>2019-03-11T14:51:56Z</time>
      </trkpt>
      <trkpt lat="32.530014747753739" lon="-4.993692738935351">
        <ele>1961.23</ele>
        <time>2019-03-11T14:51:57Z</time>
      </trkpt>
      <trkpt lat="32.530086748301983" lon="-4.993768343701959">
        <ele>1960.75</ele>
        <time>2019-03-11T14:51:58Z</time>
      </trkpt>
      <trkpt lat="32.530170399695635" lon="-4.993836572393775">
        <ele>1961.23</ele>
        <time>2019-03-11T14:51:59Z</time>
      </trkpt>
      <trkpt lat="32.530261259526014" lon="-4.993897173553705">
        <ele>1961.23</ele>
        <time>2019-03-11T14:52:01Z</time>
      </trkpt>
      <trkpt lat="32.530424455180764" lon="-4.994024243205786">
        <ele>1961.71</ele>
        <time>2019-03-11T14:52:02Z</time>
      </trkpt>
      <trkpt lat="32.530475752428174" lon="-4.994102781638503">
        <ele>1962.1900000000001</ele>
        <time>2019-03-11T14:52:03Z</time>
      </trkpt>
      <trkpt lat="32.530510202050209" lon="-4.99420034699142">
        <ele>1962.6700000000001</ele>
        <time>2019-03-11T14:52:04Z</time>
      </trkpt>
      <trkpt lat="32.530524116009474" lon="-4.99431031756103">
        <ele>1963.1500000000001</ele>
        <time>2019-03-11T14:52:05Z</time>
      </trkpt>
      <trkpt lat="32.530511626973748" lon="-4.994428586214781">
        <ele>1963.1500000000001</ele>
        <time>2019-03-11T14:52:06Z</time>
      </trkpt>
      <trkpt lat="32.530489079654217" lon="-4.994553979486227">
        <ele>1963.6300000000001</ele>
        <time>2019-03-11T14:52:07Z</time>
      </trkpt>
      <trkpt lat="32.530476171523333" lon="-4.994683982804418">
        <ele>1964.1099999999999</ele>
        <time>2019-03-11T14:52:08Z</time>
      </trkpt>
      <trkpt lat="32.530486229807138" lon="-4.994812477380037">
        <ele>1964.1099999999999</ele>
        <time>2019-03-11T14:52:09Z</time>
      </trkpt>
      <trkpt lat="32.530521769076586" lon="-4.994931416586042">
        <ele>1964.5899999999999</ele>
        <time>2019-03-11T14:52:11Z</time>
      </trkpt>
      <trkpt lat="32.530595362186432" lon="-4.995141634717584">
        <ele>1965.0699999999999</ele>
        <time>2019-03-11T14:52:12Z</time>
      </trkpt>
      <trkpt lat="32.530602486804128" lon="-4.995251689106226">
        <ele>1965.55</ele>
        <time>2019-03-11T14:52:13Z</time>
      </trkpt>
      <trkpt lat="32.530581196770072" lon="-4.99536668881774">
        <ele>1966.03</ele>
        <time>2019-03-11T14:52:14Z</time>
      </trkpt>
      <trkpt lat="32.530537778511643" lon="-4.995480682700872">
        <ele>1966.51</ele>
        <time>2019-03-11T14:52:15Z</time>
      </trkpt>
      <trkpt lat="32.530487151816487" lon="-4.995590150356293">
        <ele>1966.99</ele>
        <time>2019-03-11T14:52:16Z</time>
      </trkpt>
      <trkpt lat="32.530445996671915" lon="-4.995696935802698">
        <ele>1967.96</ele>
        <time>2019-03-11T14:52:17Z</time>
      </trkpt>
      <trkpt lat="32.530432250350714" lon="-4.995803972706199">
        <ele>1967.96</ele>
        <time>2019-03-11T14:52:18Z</time>
      </trkpt>
      <trkpt lat="32.530445996671915" lon="-4.995915116742253">
        <ele>1968.4400000000001</ele>
        <time>2019-03-11T14:52:20Z</time>
      </trkpt>
      <trkpt lat="32.530503831803799" lon="-4.99614997766912">
        <ele>1968.9200000000001</ele>
        <time>2019-03-11T14:52:21Z</time>
      </trkpt>
      <trkpt lat="32.530550686642528" lon="-4.996259864419699">
        <ele>1969.4000000000001</ele>
        <time>2019-03-11T14:52:22Z</time>
      </trkpt>
      <trkpt lat="32.530613886192441" lon="-4.996350640431047">
        <ele>1970.3599999999999</ele>
        <time>2019-03-11T14:52:23Z</time>
      </trkpt>
      <trkpt lat="32.53068177960813" lon="-4.996434124186635">
        <ele>1970.8399999999999</ele>
        <time>2019-03-11T14:52:24Z</time>
      </trkpt>
      <trkpt lat="32.530739195644855" lon="-4.996524816378951">
        <ele>1971.8</ele>
        <time>2019-03-11T14:52:25Z</time>
      </trkpt>
      <trkpt lat="32.530779428780079" lon="-4.996629087254405">
        <ele>1972.28</ele>
        <time>2019-03-11T14:52:26Z</time>
      </trkpt>
      <trkpt lat="32.530800215899944" lon="-4.996740398928523">
        <ele>1972.28</ele>
        <time>2019-03-11T14:52:27Z</time>
      </trkpt>
      <trkpt lat="32.530803568661213" lon="-4.996861852705479">
        <ele>1973.24</ele>
        <time>2019-03-11T14:52:28Z</time>
      </trkpt>
      <trkpt lat="32.530791582539678" lon="-4.996989844366908">
        <ele>1973.24</ele>
        <time>2019-03-11T14:52:29Z</time>
      </trkpt>
      <trkpt lat="32.53077020868659" lon="-4.997123787179589">
        <ele>1973.24</ele>
        <time>2019-03-11T14:52:33Z</time>
      </trkpt>
      <trkpt lat="32.530672140419483" lon="-4.9976603128016">
        <ele>1973.24</ele>
        <time>2019-03-11T14:52:34Z</time>
      </trkpt>
      <trkpt lat="32.530667446553707" lon="-4.997802637517452">
        <ele>1973.24</ele>
        <time>2019-03-11T14:52:35Z</time>
      </trkpt>
      <trkpt lat="32.530675744637847" lon="-4.997946638613939">
        <ele>1973.72</ele>
        <time>2019-03-11T14:52:36Z</time>
      </trkpt>
      <trkpt lat="32.530700555071235" lon="-4.998089298605919">
        <ele>1973.72</ele>
        <time>2019-03-11T14:52:37Z</time>
      </trkpt>
      <trkpt lat="32.530734585598111" lon="-4.99822860583663">
        <ele>1974.6900000000001</ele>
        <time>2019-03-11T14:52:40Z</time>
      </trkpt>
      <trkpt lat="32.530829468742013" lon="-4.998650383204222">
        <ele>1974.6900000000001</ele>
        <time>2019-03-11T14:52:41Z</time>
      </trkpt>
      <trkpt lat="32.530882190912962" lon="-4.998780637979507">
        <ele>1975.6500000000001</ele>
        <time>2019-03-11T14:52:43Z</time>
      </trkpt>
      <trkpt lat="32.530995598062873" lon="-4.99902849085629">
        <ele>1975.6500000000001</ele>
        <time>2019-03-11T14:52:44Z</time>
      </trkpt>
      <trkpt lat="32.531032729893923" lon="-4.999161344021559">
        <ele>1975.6500000000001</ele>
        <time>2019-03-11T14:52:47Z</time>
      </trkpt>
      <trkpt lat="32.53112300299108" lon="-4.999534841626883">
        <ele>1975.6500000000001</ele>
        <time>2019-03-11T14:52:48Z</time>
      </trkpt>
      <trkpt lat="32.531168768182397" lon="-4.999639950692654">
        <ele>1976.1300000000001</ele>
        <time>2019-03-11T14:52:49Z</time>
      </trkpt>
      <trkpt lat="32.531216377392411" lon="-4.999738354235888">
        <ele>1976.6099999999999</ele>
        <time>2019-03-11T14:52:50Z</time>
      </trkpt>
      <trkpt lat="32.531255101785064" lon="-4.999838769435883">
        <ele>1977.0899999999999</ele>
        <time>2019-03-11T14:52:51Z</time>
      </trkpt>
      <trkpt lat="32.531281420961022" lon="-4.99994077719748">
        <ele>1977.5699999999999</ele>
        <time>2019-03-11T14:52:52Z</time>
      </trkpt>
      <trkpt lat="32.531291227787733" lon="-5.000043287873268">
        <ele>1977.5699999999999</ele>
        <time>2019-03-11T14:52:53Z</time>
      </trkpt>
      <trkpt lat="32.531280415132642" lon="-5.000146552920342">
        <ele>1978.05</ele>
        <time>2019-03-11T14:52:54Z</time>
      </trkpt>
      <trkpt lat="32.531250324100256" lon="-5.000246297568083">
        <ele>1978.53</ele>
        <time>2019-03-11T14:52:55Z</time>
      </trkpt>
      <trkpt lat="32.531205229461193" lon="-5.000337492674589">
        <ele>1978.53</ele>
        <time>2019-03-11T14:52:56Z</time>
      </trkpt>
      <trkpt lat="32.531160302460194" lon="-5.000420054420829">
        <ele>1979.01</ele>
        <time>2019-03-11T14:52:57Z</time>
      </trkpt>
      <trkpt lat="32.531140772625804" lon="-5.000506723299623">
        <ele>1979.01</ele>
        <time>2019-03-11T14:52:58Z</time>
      </trkpt>
      <trkpt lat="32.531156865879893" lon="-5.000594817101955">
        <ele>1979.49</ele>
        <time>2019-03-11T14:52:59Z</time>
      </trkpt>
      <trkpt lat="32.531198356300592" lon="-5.000679474323988">
        <ele>1979.97</ele>
        <time>2019-03-11T14:53:00Z</time>
      </trkpt>
      <trkpt lat="32.531249402090907" lon="-5.000764885917306">
        <ele>1980.45</ele>
        <time>2019-03-11T14:53:01Z</time>
      </trkpt>
      <trkpt lat="32.531293909996748" lon="-5.000861864537001">
        <ele>1980.9300000000001</ele>
        <time>2019-03-11T14:53:02Z</time>
      </trkpt>
      <trkpt lat="32.531318552792072" lon="-5.000969488173723">
        <ele>1981.4100000000001</ele>
        <time>2019-03-11T14:53:03Z</time>
      </trkpt>
      <trkpt lat="32.531326431781054" lon="-5.001086331903935">
        <ele>1982.8599999999999</ele>
        <time>2019-03-11T14:53:04Z</time>
      </trkpt>
      <trkpt lat="32.531322659924626" lon="-5.001210048794746">
        <ele>1982.8599999999999</ele>
        <time>2019-03-11T14:53:05Z</time>
      </trkpt>
      <trkpt lat="32.531314780935645" lon="-5.001341225579381">
        <ele>1982.8599999999999</ele>
        <time>2019-03-11T14:53:08Z</time>
      </trkpt>
      <trkpt lat="32.531322240829468" lon="-5.001766020432115">
        <ele>1982.8599999999999</ele>
        <time>2019-03-11T14:53:09Z</time>
      </trkpt>
      <trkpt lat="32.531355014070868" lon="-5.001908261328936">
        <ele>1983.3399999999999</ele>
        <time>2019-03-11T14:53:10Z</time>
      </trkpt>
      <trkpt lat="32.531401617452502" lon="-5.002050083130598">
        <ele>1983.3399999999999</ele>
        <time>2019-03-11T14:53:11Z</time>
      </trkpt>
      <trkpt lat="32.531456602737308" lon="-5.002180421724916">
        <ele>1983.8199999999999</ele>
        <time>2019-03-11T14:53:12Z</time>
      </trkpt>
      <trkpt lat="32.531514102593064" lon="-5.002297181636095">
        <ele>1983.8199999999999</ele>
        <time>2019-03-11T14:53:13Z</time>
      </trkpt>
      <trkpt lat="32.531560873612761" lon="-5.00241125933826">
        <ele>1984.3</ele>
        <time>2019-03-11T14:53:14Z</time>
      </trkpt>
      <trkpt lat="32.531591048464179" lon="-5.002525839954615">
        <ele>1984.3</ele>
        <time>2019-03-11T14:53:15Z</time>
      </trkpt>
      <trkpt lat="32.531603202223778" lon="-5.002640169113874">
        <ele>1984.3</ele>
        <time>2019-03-11T14:53:16Z</time>
      </trkpt>
      <trkpt lat="32.531596580520272" lon="-5.002756342291832">
        <ele>1984.78</ele>
        <time>2019-03-11T14:53:17Z</time>
      </trkpt>
      <trkpt lat="32.531576883047819" lon="-5.002868492156267">
        <ele>1988.1400000000001</ele>
        <time>2019-03-11T14:53:18Z</time>
      </trkpt>
      <trkpt lat="32.531544361263514" lon="-5.002980390563607">
        <ele>1988.6199999999999</ele>
        <time>2019-03-11T14:53:19Z</time>
      </trkpt>
      <trkpt lat="32.531503038480878" lon="-5.003095222637057">
        <ele>1988.6199999999999</ele>
        <time>2019-03-11T14:53:28Z</time>
      </trkpt>
      <trkpt lat="32.530970871448517" lon="-5.004224767908454">
        <ele>1988.6199999999999</ele>
        <time>2019-03-11T14:53:29Z</time>
      </trkpt>
      <trkpt lat="32.530925190076232" lon="-5.004334403201938">
        <ele>1986.7</ele>
        <time>2019-03-11T14:53:30Z</time>
      </trkpt>
      <trkpt lat="32.530892416834831" lon="-5.00445082783699">
        <ele>1982.8599999999999</ele>
        <time>2019-03-11T14:53:35Z</time>
      </trkpt>
      <trkpt lat="32.5307956058532" lon="-5.004775626584888">
        <ele>1982.3800000000001</ele>
        <time>2019-03-11T14:53:42Z</time>
      </trkpt>
      <trkpt lat="32.530604247003794" lon="-5.005327574908733">
        <ele>1977.0899999999999</ele>
        <time>2019-03-11T14:53:48Z</time>
      </trkpt>
      <trkpt lat="32.530479272827506" lon="-5.006082030013204">
        <ele>1976.1300000000001</ele>
        <time>2019-03-11T14:53:49Z</time>
      </trkpt>
      <trkpt lat="32.530439458787441" lon="-5.006194598972797">
        <ele>1965.0699999999999</ele>
        <time>2019-03-11T14:53:55Z</time>
      </trkpt>
      <trkpt lat="32.530142236500978" lon="-5.006830617785454">
        <ele>1966.03</ele>
        <time>2019-03-11T14:53:56Z</time>
      </trkpt>
      <trkpt lat="32.530109630897641" lon="-5.006943186745048">
        <ele>1965.0699999999999</ele>
        <time>2019-03-11T14:54:07Z</time>
      </trkpt>
      <trkpt lat="32.529912488535047" lon="-5.008086143061519">
        <ele>1964.5899999999999</ele>
        <time>2019-03-11T14:56:33Z</time>
      </trkpt>
      <trkpt lat="32.529907124117017" lon="-5.008207848295569">
        <ele>1964.1099999999999</ele>
        <time>2019-03-11T14:56:42Z</time>
      </trkpt>
      <trkpt lat="32.529896311461926" lon="-5.008226037025452">
        <ele>1964.1099999999999</ele>
        <time>2019-03-11T14:56:44Z</time>
      </trkpt>
      <trkpt lat="32.529853396117687" lon="-5.008232491090894">
        <ele>1962.6700000000001</ele>
        <time>2019-03-11T14:56:45Z</time>
      </trkpt>
      <trkpt lat="32.529822383075953" lon="-5.008212039247155">
        <ele>1955.9400000000001</ele>
        <time>2019-03-11T14:56:46Z</time>
      </trkpt>
      <trkpt lat="32.529783826321363" lon="-5.008173063397408">
        <ele>1951.1300000000001</ele>
        <time>2019-03-11T14:56:48Z</time>
      </trkpt>
      <trkpt lat="32.52966639585793" lon="-5.008064182475209">
        <ele>1940.5599999999999</ele>
        <time>2019-03-11T14:56:56Z</time>
      </trkpt>
      <trkpt lat="32.529108915477991" lon="-5.007692612707615">
        <ele>1939.1199999999999</ele>
        <time>2019-03-11T14:57:00Z</time>
      </trkpt>
      <trkpt lat="32.528756372630596" lon="-5.00785119831562">
        <ele>1935.75</ele>
        <time>2019-03-11T14:57:11Z</time>
      </trkpt>
      <trkpt lat="32.527786670252681" lon="-5.008664326742292">
        <ele>1931.9100000000001</ele>
        <time>2019-03-11T14:57:12Z</time>
      </trkpt>
      <trkpt lat="32.527718273922801" lon="-5.008747559040785">
        <ele>1924.22</ele>
        <time>2019-03-11T14:57:15Z</time>
      </trkpt>
      <trkpt lat="32.527472684159875" lon="-5.008937744423747">
        <ele>1924.22</ele>
        <time>2019-03-11T14:57:19Z</time>
      </trkpt>
      <trkpt lat="32.527220975607634" lon="-5.009252401068807">
        <ele>1925.6600000000001</ele>
        <time>2019-03-11T14:57:25Z</time>
      </trkpt>
      <trkpt lat="32.526945797726512" lon="-5.009661102667451">
        <ele>1925.1800000000001</ele>
        <time>2019-03-11T14:57:33Z</time>
      </trkpt>
      <trkpt lat="32.52678788267076" lon="-5.010103499516845">
        <ele>1924.7</ele>
        <time>2019-03-11T14:57:44Z</time>
      </trkpt>
      <trkpt lat="32.526151528581977" lon="-5.010839598253369">
        <ele>1923.25</ele>
        <time>2019-03-11T14:57:49Z</time>
      </trkpt>
      <trkpt lat="32.526088915765285" lon="-5.010927608236671">
        <ele>1921.3299999999999</ele>
        <time>2019-03-11T14:58:12Z</time>
      </trkpt>
      <trkpt lat="32.525987746194005" lon="-5.011034812778235">
        <ele>1921.8099999999999</ele>
        <time>2019-03-11T14:58:21Z</time>
      </trkpt>
      <trkpt lat="32.525495225563645" lon="-5.011596819385886">
        <ele>1921.3299999999999</ele>
        <time>2019-03-11T14:58:29Z</time>
      </trkpt>
      <trkpt lat="32.525013769045472" lon="-5.012173829600215">
        <ele>1921.3299999999999</ele>
        <time>2019-03-11T14:58:37Z</time>
      </trkpt>
      <trkpt lat="32.524777231737971" lon="-5.012701386585832">
        <ele>1920.8499999999999</ele>
        <time>2019-03-11T14:58:42Z</time>
      </trkpt>
      <trkpt lat="32.524509178474545" lon="-5.013123666867614">
        <ele>1919.8900000000001</ele>
        <time>2019-03-11T14:58:49Z</time>
      </trkpt>
      <trkpt lat="32.524045575410128" lon="-5.01345039345324">
        <ele>1920.8499999999999</ele>
        <time>2019-03-11T14:58:52Z</time>
      </trkpt>
      <trkpt lat="32.523860922083259" lon="-5.013568578287959">
        <ele>1919.4100000000001</ele>
        <time>2019-03-11T14:58:56Z</time>
      </trkpt>
      <trkpt lat="32.523631928488612" lon="-5.013935035094619">
        <ele>1914.5999999999999</ele>
        <time>2019-03-11T14:59:02Z</time>
      </trkpt>
      <trkpt lat="32.523206546902657" lon="-5.014269389212132">
        <ele>1911.24</ele>
        <time>2019-03-11T14:59:05Z</time>
      </trkpt>
      <trkpt lat="32.523077381774783" lon="-5.014498801901937">
        <ele>1906.4300000000001</ele>
        <time>2019-03-11T14:59:11Z</time>
      </trkpt>
      <trkpt lat="32.522748559713364" lon="-5.015045218169689">
        <ele>1905.95</ele>
        <time>2019-03-11T14:59:14Z</time>
      </trkpt>
      <trkpt lat="32.522609168663621" lon="-5.015361467376351">
        <ele>1905.47</ele>
        <time>2019-03-11T14:59:23Z</time>
      </trkpt>
      <trkpt lat="32.522042719647288" lon="-5.016239555552602">
        <ele>1904.99</ele>
        <time>2019-03-11T14:59:26Z</time>
      </trkpt>
      <trkpt lat="32.521894108504057" lon="-5.016570556908846">
        <ele>1904.51</ele>
        <time>2019-03-11T14:59:32Z</time>
      </trkpt>
      <trkpt lat="32.521592443808913" lon="-5.017112279310823">
        <ele>1901.6300000000001</ele>
        <time>2019-03-11T14:59:39Z</time>
      </trkpt>
      <trkpt lat="32.521527064964175" lon="-5.017576217651367">
        <ele>1899.22</ele>
        <time>2019-03-11T14:59:41Z</time>
      </trkpt>
      <trkpt lat="32.521475264802575" lon="-5.017747962847352">
        <ele>1895.3800000000001</ele>
        <time>2019-03-11T14:59:47Z</time>
      </trkpt>
      <trkpt lat="32.521313410252333" lon="-5.018148701637983">
        <ele>1890.5699999999999</ele>
        <time>2019-03-11T14:59:50Z</time>
      </trkpt>
      <trkpt lat="32.521228082478046" lon="-5.01836109906435">
        <ele>1885.76</ele>
        <time>2019-03-11T14:59:55Z</time>
      </trkpt>
      <trkpt lat="32.521107215434313" lon="-5.018778601661325">
        <ele>1884.8</ele>
        <time>2019-03-11T15:00:03Z</time>
      </trkpt>
      <trkpt lat="32.520842766389251" lon="-5.019441023468971">
        <ele>1882.8800000000001</ele>
        <time>2019-03-11T15:00:11Z</time>
      </trkpt>
      <trkpt lat="32.520717540755868" lon="-5.020240070298314">
        <ele>1880.96</ele>
        <time>2019-03-11T15:00:17Z</time>
      </trkpt>
      <trkpt lat="32.520708404481411" lon="-5.020793108269572">
        <ele>1873.75</ele>
        <time>2019-03-11T15:00:23Z</time>
      </trkpt>
      <trkpt lat="32.520762970671058" lon="-5.021223938092589">
        <ele>1871.3399999999999</ele>
        <time>2019-03-11T15:00:29Z</time>
      </trkpt>
      <trkpt lat="32.520705470815301" lon="-5.02181762829423">
        <ele>1867.5</ele>
        <time>2019-03-11T15:00:40Z</time>
      </trkpt>
      <trkpt lat="32.52055149525404" lon="-5.023064520210028">
        <ele>1863.1700000000001</ele>
        <time>2019-03-11T15:00:45Z</time>
      </trkpt>
      <trkpt lat="32.520412607118487" lon="-5.02361579798162">
        <ele>1858.8499999999999</ele>
        <time>2019-03-11T15:00:54Z</time>
      </trkpt>
      <trkpt lat="32.520344462245703" lon="-5.024409228935838">
        <ele>1857.4000000000001</ele>
        <time>2019-03-11T15:01:05Z</time>
      </trkpt>
      <trkpt lat="32.520249243825674" lon="-5.025185979902744">
        <ele>1855.96</ele>
        <time>2019-03-11T15:01:16Z</time>
      </trkpt>
      <trkpt lat="32.520155617967248" lon="-5.025991564616561">
        <ele>1852.1199999999999</ele>
        <time>2019-03-11T15:01:20Z</time>
      </trkpt>
      <trkpt lat="32.520130472257733" lon="-5.02623924985528">
        <ele>1848.27</ele>
        <time>2019-03-11T15:01:25Z</time>
      </trkpt>
      <trkpt lat="32.520110355690122" lon="-5.026564132422209">
        <ele>1845.8699999999999</ele>
        <time>2019-03-11T15:01:29Z</time>
      </trkpt>
      <trkpt lat="32.520063249394298" lon="-5.026833275333047">
        <ele>1846.3499999999999</ele>
        <time>2019-03-11T15:01:34Z</time>
      </trkpt>
      <trkpt lat="32.520092250779271" lon="-5.027156732976437">
        <ele>1846.3499999999999</ele>
        <time>2019-03-11T15:01:43Z</time>
      </trkpt>
      <trkpt lat="32.520192079246044" lon="-5.027306349948049">
        <ele>1851.1600000000001</ele>
        <time>2019-03-11T15:01:45Z</time>
      </trkpt>
      <trkpt lat="32.520203562453389" lon="-5.027327975258231">
        <ele>1859.3299999999999</ele>
        <time>2019-03-11T15:01:49Z</time>
      </trkpt>
      <trkpt lat="32.520280927419662" lon="-5.027330908924341">
        <ele>1859.3299999999999</ele>
        <time>2019-03-11T15:01:58Z</time>
      </trkpt>
      <trkpt lat="32.520616119727492" lon="-5.027548838406801">
        <ele>1860.77</ele>
        <time>2019-03-11T15:02:08Z</time>
      </trkpt>
      <trkpt lat="32.520908983424306" lon="-5.027878666296601">
        <ele>1860.77</ele>
        <time>2019-03-11T15:02:12Z</time>
      </trkpt>
      <trkpt lat="32.520817872136831" lon="-5.027958378195763">
        <ele>1858.8499999999999</ele>
        <time>2019-03-11T15:02:23Z</time>
      </trkpt>
      <trkpt lat="32.520448230206966" lon="-5.028147138655186">
        <ele>1858.8499999999999</ele>
        <time>2019-03-11T15:02:34Z</time>
      </trkpt>
      <trkpt lat="32.52014447003603" lon="-5.028329947963357">
        <ele>1859.3299999999999</ele>
        <time>2019-03-11T15:02:43Z</time>
      </trkpt>
      <trkpt lat="32.519926875829697" lon="-5.028581321239471">
        <ele>1856.9200000000001</ele>
        <time>2019-03-11T15:02:44Z</time>
      </trkpt>
      <trkpt lat="32.519902652129531" lon="-5.028630355373025">
        <ele>1855.96</ele>
        <time>2019-03-11T15:02:49Z</time>
      </trkpt>
      <trkpt lat="32.519806176424026" lon="-5.028838980942965">
        <ele>1851.6400000000001</ele>
        <time>2019-03-11T15:02:59Z</time>
      </trkpt>
      <trkpt lat="32.519868789240718" lon="-5.029245922341943">
        <ele>1849.23</ele>
        <time>2019-03-11T15:03:03Z</time>
      </trkpt>
      <trkpt lat="32.51986350864172" lon="-5.029440214857459">
        <ele>1846.8299999999999</ele>
        <time>2019-03-11T15:03:11Z</time>
      </trkpt>
      <trkpt lat="32.519925283268094" lon="-5.029999120160937">
        <ele>1843.95</ele>
        <time>2019-03-11T15:03:15Z</time>
      </trkpt>
      <trkpt lat="32.519875075668097" lon="-5.030342191457748">
        <ele>1842.5</ele>
        <time>2019-03-11T15:03:18Z</time>
      </trkpt>
      <trkpt lat="32.519828304648399" lon="-5.030647125095129">
        <ele>1842.98</ele>
        <time>2019-03-11T15:03:27Z</time>
      </trkpt>
      <trkpt lat="32.519667372107506" lon="-5.031289933249354">
        <ele>1842.98</ele>
        <time>2019-03-11T15:03:32Z</time>
      </trkpt>
      <trkpt lat="32.519585061818361" lon="-5.031652702018619">
        <ele>1842.02</ele>
        <time>2019-03-11T15:03:35Z</time>
      </trkpt>
      <trkpt lat="32.519578356295824" lon="-5.031909188255668">
        <ele>1841.54</ele>
        <time>2019-03-11T15:03:40Z</time>
      </trkpt>
      <trkpt lat="32.519539715722203" lon="-5.032289307564497">
        <ele>1840.5799999999999</ele>
        <time>2019-03-11T15:03:49Z</time>
      </trkpt>
      <trkpt lat="32.519491938874125" lon="-5.032799262553453">
        <ele>1840.0999999999999</ele>
        <time>2019-03-11T15:03:50Z</time>
      </trkpt>
      <trkpt lat="32.51947307959199" lon="-5.032887859269977">
        <ele>1839.6199999999999</ele>
        <time>2019-03-11T15:03:53Z</time>
      </trkpt>
      <trkpt lat="32.519378280267119" lon="-5.033156331628561">
        <ele>1838.6600000000001</ele>
        <time>2019-03-11T15:03:58Z</time>
      </trkpt>
      <trkpt lat="32.519286079332232" lon="-5.033676093444228">
        <ele>1837.22</ele>
        <time>2019-03-11T15:04:02Z</time>
      </trkpt>
      <trkpt lat="32.519303346052766" lon="-5.034097535535693">
        <ele>1836.74</ele>
        <time>2019-03-11T15:04:07Z</time>
      </trkpt>
      <trkpt lat="32.519374927505851" lon="-5.034598102793098">
        <ele>1835.29</ele>
        <time>2019-03-11T15:04:14Z</time>
      </trkpt>
      <trkpt lat="32.519329162314534" lon="-5.035303942859173">
        <ele>1833.8499999999999</ele>
        <time>2019-03-11T15:04:16Z</time>
      </trkpt>
      <trkpt lat="32.519334191456437" lon="-5.035501923412085">
        <ele>1833.3699999999999</ele>
        <time>2019-03-11T15:04:22Z</time>
      </trkpt>
      <trkpt lat="32.519264202564955" lon="-5.036110868677497">
        <ele>1832.8900000000001</ele>
        <time>2019-03-11T15:04:26Z</time>
      </trkpt>
      <trkpt lat="32.519097905606031" lon="-5.03647648729384">
        <ele>1832.8900000000001</ele>
        <time>2019-03-11T15:04:30Z</time>
      </trkpt>
      <trkpt lat="32.518892800435424" lon="-5.036736577749252">
        <ele>1832.8900000000001</ele>
        <time>2019-03-11T15:04:34Z</time>
      </trkpt>
      <trkpt lat="32.518767490983009" lon="-5.036988621577621">
        <ele>1832.4100000000001</ele>
        <time>2019-03-11T15:04:36Z</time>
      </trkpt>
      <trkpt lat="32.518736142665148" lon="-5.03709021024406">
        <ele>1833.8499999999999</ele>
        <time>2019-03-11T15:04:38Z</time>
      </trkpt>
      <trkpt lat="32.518692724406719" lon="-5.037179058417678">
        <ele>1830.97</ele>
        <time>2019-03-11T15:04:40Z</time>
      </trkpt>
      <trkpt lat="32.518642600625753" lon="-5.037287352606654">
        <ele>1829.05</ele>
        <time>2019-03-11T15:06:43Z</time>
      </trkpt>
      <trkpt lat="32.518591722473502" lon="-5.03740394487977">
        <ele>1824.72</ele>
        <time>2019-03-11T15:06:50Z</time>
      </trkpt>
      <trkpt lat="32.518625920638442" lon="-5.037742909044027">
        <ele>1823.28</ele>
        <time>2019-03-11T15:06:55Z</time>
      </trkpt>
      <trkpt lat="32.518371278420091" lon="-5.038061253726482">
        <ele>1822.8</ele>
        <time>2019-03-11T15:07:09Z</time>
      </trkpt>
      <trkpt lat="32.517834333702922" lon="-5.03960176371038">
        <ele>1819.9100000000001</ele>
        <time>2019-03-11T15:07:14Z</time>
      </trkpt>
      <trkpt lat="32.517637526616454" lon="-5.040108785033226">
        <ele>1818.95</ele>
        <time>2019-03-11T15:07:16Z</time>
      </trkpt>
      <trkpt lat="32.51759092323482" lon="-5.040216660127044">
        <ele>1817.99</ele>
        <time>2019-03-11T15:07:24Z</time>
      </trkpt>
      <trkpt lat="32.517393361777067" lon="-5.040817139670253">
        <ele>1817.03</ele>
        <time>2019-03-11T15:07:30Z</time>
      </trkpt>
      <trkpt lat="32.517213318496943" lon="-5.041302284225822">
        <ele>1816.0699999999999</ele>
        <time>2019-03-11T15:07:39Z</time>
      </trkpt>
      <trkpt lat="32.516980050131679" lon="-5.041988510638475">
        <ele>1815.5899999999999</ele>
        <time>2019-03-11T15:07:42Z</time>
      </trkpt>
      <trkpt lat="32.516944762319326" lon="-5.04210501909256">
        <ele>1815.1099999999999</ele>
        <time>2019-03-11T15:07:48Z</time>
      </trkpt>
      <trkpt lat="32.516777459532022" lon="-5.042542051523924">
        <ele>1815.1099999999999</ele>
        <time>2019-03-11T15:07:54Z</time>
      </trkpt>
      <trkpt lat="32.51656187698245" lon="-5.042798789218068">
        <ele>1811.26</ele>
        <time>2019-03-11T15:07:59Z</time>
      </trkpt>
      <trkpt lat="32.516376134008169" lon="-5.043194415047765">
        <ele>1808.3800000000001</ele>
        <time>2019-03-11T15:08:01Z</time>
      </trkpt>
      <trkpt lat="32.51632290892303" lon="-5.043337410315871">
        <ele>1805.97</ele>
        <time>2019-03-11T15:08:11Z</time>
      </trkpt>
      <trkpt lat="32.515859054401517" lon="-5.04422371275723">
        <ele>1804.53</ele>
        <time>2019-03-11T15:08:20Z</time>
      </trkpt>
      <trkpt lat="32.515379190444946" lon="-5.044986130669713">
        <ele>1799.24</ele>
        <time>2019-03-11T15:08:28Z</time>
      </trkpt>
      <trkpt lat="32.515015583485365" lon="-5.045596919953823">
        <ele>1796.8399999999999</ele>
        <time>2019-03-11T15:08:31Z</time>
      </trkpt>
      <trkpt lat="32.51489169895649" lon="-5.045750895515084">
        <ele>1794.9200000000001</ele>
        <time>2019-03-11T15:08:39Z</time>
      </trkpt>
      <trkpt lat="32.514743423089385" lon="-5.046330504119396">
        <ele>1793.48</ele>
        <time>2019-03-11T15:08:44Z</time>
      </trkpt>
      <trkpt lat="32.514668153598905" lon="-5.046770889312029">
        <ele>1793</ele>
        <time>2019-03-11T15:08:53Z</time>
      </trkpt>
      <trkpt lat="32.514714170247316" lon="-5.047238180413842">
        <ele>1789.1500000000001</ele>
        <time>2019-03-11T15:09:03Z</time>
      </trkpt>
      <trkpt lat="32.514668824151158" lon="-5.047443704679608">
        <ele>1788.1900000000001</ele>
        <time>2019-03-11T15:09:06Z</time>
      </trkpt>
      <trkpt lat="32.514611491933465" lon="-5.047594243660569">
        <ele>1785.3099999999999</ele>
        <time>2019-03-11T15:09:17Z</time>
      </trkpt>
      <trkpt lat="32.514458270743489" lon="-5.0485925283283">
        <ele>1783.8599999999999</ele>
        <time>2019-03-11T15:09:21Z</time>
      </trkpt>
      <trkpt lat="32.514406302943826" lon="-5.048926714807749">
        <ele>1783.3800000000001</ele>
        <time>2019-03-11T15:09:27Z</time>
      </trkpt>
      <trkpt lat="32.514266325160861" lon="-5.049434909597039">
        <ele>1782.4200000000001</ele>
        <time>2019-03-11T15:09:31Z</time>
      </trkpt>
      <trkpt lat="32.514244448393583" lon="-5.049760043621063">
        <ele>1779.0599999999999</ele>
        <time>2019-03-11T15:09:35Z</time>
      </trkpt>
      <trkpt lat="32.514292895793915" lon="-5.050048800185323">
        <ele>1778.5799999999999</ele>
        <time>2019-03-11T15:09:40Z</time>
      </trkpt>
      <trkpt lat="32.514309911057353" lon="-5.050378795713186">
        <ele>1778.0999999999999</ele>
        <time>2019-03-11T15:09:49Z</time>
      </trkpt>
      <trkpt lat="32.514251489192247" lon="-5.050930073484778">
        <ele>1777.6099999999999</ele>
        <time>2019-03-11T15:10:02Z</time>
      </trkpt>
      <trkpt lat="32.51425894908607" lon="-5.051143560558558">
        <ele>1777.6099999999999</ele>
        <time>2019-03-11T15:10:03Z</time>
      </trkpt>
      <trkpt lat="32.514263056218624" lon="-5.051200138404965">
        <ele>1777.1300000000001</ele>
        <time>2019-03-11T15:10:06Z</time>
      </trkpt>
      <trkpt lat="32.514312341809273" lon="-5.051379008218646">
        <ele>1776.6500000000001</ele>
        <time>2019-03-11T15:10:10Z</time>
      </trkpt>
      <trkpt lat="32.514307061210275" lon="-5.051604062318802">
        <ele>1773.29</ele>
        <time>2019-03-11T15:10:16Z</time>
      </trkpt>
      <trkpt lat="32.514175716787577" lon="-5.051869684830308">
        <ele>1771.8499999999999</ele>
        <time>2019-03-11T15:10:21Z</time>
      </trkpt>
      <trkpt lat="32.514170268550515" lon="-5.05220303311944">
        <ele>1771.8499999999999</ele>
        <time>2019-03-11T15:10:31Z</time>
      </trkpt>
      <trkpt lat="32.514183344319463" lon="-5.052725560963154">
        <ele>1770.4100000000001</ele>
        <time>2019-03-11T15:10:38Z</time>
      </trkpt>
      <trkpt lat="32.514234390109777" lon="-5.053108865395188">
        <ele>1768.48</ele>
        <time>2019-03-11T15:10:41Z</time>
      </trkpt>
      <trkpt lat="32.514224164187908" lon="-5.053272312507033">
        <ele>1765.5999999999999</ele>
        <time>2019-03-11T15:10:48Z</time>
      </trkpt>
      <trkpt lat="32.514226259663701" lon="-5.053861225023866">
        <ele>1764.6400000000001</ele>
        <time>2019-03-11T15:10:57Z</time>
      </trkpt>
      <trkpt lat="32.51423061825335" lon="-5.05445022135973">
        <ele>1764.6400000000001</ele>
        <time>2019-03-11T15:11:05Z</time>
      </trkpt>
      <trkpt lat="32.514214776456356" lon="-5.054877949878573">
        <ele>1764.1600000000001</ele>
        <time>2019-03-11T15:11:10Z</time>
      </trkpt>
      <trkpt lat="32.514198683202267" lon="-5.055253962054849">
        <ele>1763.2</ele>
        <time>2019-03-11T15:11:16Z</time>
      </trkpt>
      <trkpt lat="32.514116624370217" lon="-5.055704656988382">
        <ele>1763.2</ele>
        <time>2019-03-11T15:11:20Z</time>
      </trkpt>
      <trkpt lat="32.514068679884076" lon="-5.056023336946964">
        <ele>1763.2</ele>
        <time>2019-03-11T15:11:25Z</time>
      </trkpt>
      <trkpt lat="32.514112265780568" lon="-5.056423991918564">
        <ele>1764.6400000000001</ele>
        <time>2019-03-11T15:11:29Z</time>
      </trkpt>
      <trkpt lat="32.5141123495996" lon="-5.056767649948597">
        <ele>1766.5599999999999</ele>
        <time>2019-03-11T15:11:32Z</time>
      </trkpt>
      <trkpt lat="32.514141015708447" lon="-5.056937467306852">
        <ele>1767.52</ele>
        <time>2019-03-11T15:11:38Z</time>
      </trkpt>
      <trkpt lat="32.514354838058352" lon="-5.057020364329219">
        <ele>1766.0799999999999</ele>
        <time>2019-03-11T15:11:42Z</time>
      </trkpt>
      <trkpt lat="32.514479979872704" lon="-5.056941909715533">
        <ele>1767.04</ele>
        <time>2019-03-11T15:11:51Z</time>
      </trkpt>
      <trkpt lat="32.514559272676706" lon="-5.057131089270115">
        <ele>1767.52</ele>
        <time>2019-03-11T15:11:57Z</time>
      </trkpt>
      <trkpt lat="32.514569414779544" lon="-5.057298643514514">
        <ele>1768.96</ele>
        <time>2019-03-11T15:12:01Z</time>
      </trkpt>
      <trkpt lat="32.514722552150488" lon="-5.057409116998315">
        <ele>1767.52</ele>
        <time>2019-03-11T15:12:06Z</time>
      </trkpt>
      <trkpt lat="32.515025222674012" lon="-5.057563427835703">
        <ele>1768.48</ele>
        <time>2019-03-11T15:12:14Z</time>
      </trkpt>
      <trkpt lat="32.515341052785516" lon="-5.057590836659074">
        <ele>1769.9200000000001</ele>
        <time>2019-03-11T15:12:22Z</time>
      </trkpt>
      <trkpt lat="32.515658978372812" lon="-5.057418001815677">
        <ele>1772.8099999999999</ele>
        <time>2019-03-11T15:12:27Z</time>
      </trkpt>
      <trkpt lat="32.515963409096003" lon="-5.057450523599982">
        <ele>1772.8099999999999</ele>
        <time>2019-03-11T15:12:30Z</time>
      </trkpt>
      <trkpt lat="32.516148816794157" lon="-5.057372571900487">
        <ele>1772.3299999999999</ele>
        <time>2019-03-11T15:12:39Z</time>
      </trkpt>
      <trkpt lat="32.516646282747388" lon="-5.057352622970939">
        <ele>1772.8099999999999</ele>
        <time>2019-03-11T15:12:40Z</time>
      </trkpt>
      <trkpt lat="32.51669623889029" lon="-5.057352036237717">
        <ele>1776.1700000000001</ele>
        <time>2019-03-11T15:12:48Z</time>
      </trkpt>
      <trkpt lat="32.51721809618175" lon="-5.057482793927193">
        <ele>1777.1300000000001</ele>
        <time>2019-03-11T15:12:53Z</time>
      </trkpt>
      <trkpt lat="32.517494279891253" lon="-5.057651353999972">
        <ele>1777.1300000000001</ele>
        <time>2019-03-11T15:50:51Z</time>
      </trkpt>
      <trkpt lat="32.517607267946005" lon="-5.05763366818428">
        <ele>1777.1300000000001</ele>
        <time>2019-03-11T15:50:52Z</time>
      </trkpt>
      <trkpt lat="32.517624534666538" lon="-5.057633752003312">
        <ele>1777.6099999999999</ele>
        <time>2019-03-11T15:50:53Z</time>
      </trkpt>
      <trkpt lat="32.517637861892581" lon="-5.057638362050057">
        <ele>1775.6900000000001</ele>
        <time>2019-03-11T15:50:54Z</time>
      </trkpt>
      <trkpt lat="32.517655463889241" lon="-5.05764489993453">
        <ele>1775.21</ele>
        <time>2019-03-11T15:51:06Z</time>
      </trkpt>
      <trkpt lat="32.517677927389741" lon="-5.057654958218336">
        <ele>1776.6500000000001</ele>
        <time>2019-03-11T15:51:36Z</time>
      </trkpt>
      <trkpt lat="32.517672395333648" lon="-5.057652443647385">
        <ele>1778.5799999999999</ele>
        <time>2019-03-11T15:51:49Z</time>
      </trkpt>
      <trkpt lat="32.517904909327626" lon="-5.057797534391284">
        <ele>1779.0599999999999</ele>
        <time>2019-03-11T15:51:57Z</time>
      </trkpt>
      <trkpt lat="32.518609324470162" lon="-5.058182766661048">
        <ele>1779.0599999999999</ele>
        <time>2019-03-11T15:52:06Z</time>
      </trkpt>
      <trkpt lat="32.519726129248738" lon="-5.058533046394587">
        <ele>1779.54</ele>
        <time>2019-03-11T15:52:17Z</time>
      </trkpt>
      <trkpt lat="32.521207127720118" lon="-5.059231342747808">
        <ele>1779.54</ele>
        <time>2019-03-11T15:52:26Z</time>
      </trkpt>
      <trkpt lat="32.522036768496037" lon="-5.059696454554796">
        <ele>1782.4200000000001</ele>
        <time>2019-03-11T15:52:34Z</time>
      </trkpt>
      <trkpt lat="32.522450750693679" lon="-5.060034999623895">
        <ele>1799.24</ele>
        <time>2019-03-11T15:52:37Z</time>
      </trkpt>
      <trkpt lat="32.522659795358777" lon="-5.06030447781086">
        <ele>1799.24</ele>
        <time>2019-03-11T15:52:42Z</time>
      </trkpt>
      <trkpt lat="32.52323311753571" lon="-5.060602454468608">
        <ele>1797.8</ele>
        <time>2019-03-11T15:52:55Z</time>
      </trkpt>
      <trkpt lat="32.52503371797502" lon="-5.060586864128709">
        <ele>1795.4000000000001</ele>
        <time>2019-03-11T15:52:56Z</time>
      </trkpt>
      <trkpt lat="32.525170091539621" lon="-5.060597341507673">
        <ele>1783.3800000000001</ele>
        <time>2019-03-11T15:53:03Z</time>
      </trkpt>
      <trkpt lat="32.525850869715214" lon="-5.061088772490621">
        <ele>1781.46</ele>
        <time>2019-03-11T15:53:06Z</time>
      </trkpt>
      <trkpt lat="32.525948686525226" lon="-5.061570815742016">
        <ele>1777.6099999999999</ele>
        <time>2019-03-11T15:53:21Z</time>
      </trkpt>
      <trkpt lat="32.526238197460771" lon="-5.064428625628352">
        <ele>1777.1300000000001</ele>
        <time>2019-03-11T15:53:23Z</time>
      </trkpt>
      <trkpt lat="32.526273988187313" lon="-5.064816875383258">
        <ele>1776.1700000000001</ele>
        <time>2019-03-11T15:53:32Z</time>
      </trkpt>
      <trkpt lat="32.52660172060132" lon="-5.066205421462655">
        <ele>1774.25</ele>
        <time>2019-03-11T15:53:38Z</time>
      </trkpt>
      <trkpt lat="32.526649413630366" lon="-5.066631808876991">
        <ele>1767.04</ele>
        <time>2019-03-11T15:53:45Z</time>
      </trkpt>
      <trkpt lat="32.526708757504821" lon="-5.066947219893336">
        <ele>1755.5</ele>
        <time>2019-03-11T15:53:51Z</time>
      </trkpt>
      <trkpt lat="32.527084853500128" lon="-5.067590028047562">
        <ele>1754.54</ele>
        <time>2019-03-11T15:54:00Z</time>
      </trkpt>
      <trkpt lat="32.527391547337174" lon="-5.068832812830806">
        <ele>1748.29</ele>
        <time>2019-03-11T15:54:08Z</time>
      </trkpt>
      <trkpt lat="32.527640489861369" lon="-5.070008039474487">
        <ele>1746.3699999999999</ele>
        <time>2019-03-11T15:54:09Z</time>
      </trkpt>
      <trkpt lat="32.527659013867378" lon="-5.070127230137587">
        <ele>1745.8900000000001</ele>
        <time>2019-03-11T15:54:15Z</time>
      </trkpt>
      <trkpt lat="32.528022201731801" lon="-5.070492932572961">
        <ele>1745.4100000000001</ele>
        <time>2019-03-11T15:54:19Z</time>
      </trkpt>
      <trkpt lat="32.528432831168175" lon="-5.070343483239412">
        <ele>1745.8900000000001</ele>
        <time>2019-03-11T15:54:25Z</time>
      </trkpt>
      <trkpt lat="32.528865672647953" lon="-5.070263771340251">
        <ele>1745.4100000000001</ele>
        <time>2019-03-11T15:54:30Z</time>
      </trkpt>
      <trkpt lat="32.528807669878006" lon="-5.070904148742557">
        <ele>1744.45</ele>
        <time>2019-03-11T15:54:32Z</time>
      </trkpt>
      <trkpt lat="32.528721420094371" lon="-5.071169603615999">
        <ele>1745.4100000000001</ele>
        <time>2019-03-11T15:54:36Z</time>
      </trkpt>
      <trkpt lat="32.52868521027267" lon="-5.071743009611964">
        <ele>1746.3699999999999</ele>
        <time>2019-03-11T15:54:43Z</time>
      </trkpt>
      <trkpt lat="32.528813285753131" lon="-5.072852186858654">
        <ele>1747.8099999999999</ele>
        <time>2019-03-11T15:54:48Z</time>
      </trkpt>
      <trkpt lat="32.529069939628243" lon="-5.073541179299355">
        <ele>1747.3299999999999</ele>
        <time>2019-03-11T15:54:50Z</time>
      </trkpt>
      <trkpt lat="32.529262471944094" lon="-5.073761371895671">
        <ele>1744.9300000000001</ele>
        <time>2019-03-11T15:54:56Z</time>
      </trkpt>
      <trkpt lat="32.529450310394168" lon="-5.074590593576431">
        <ele>1740.5999999999999</ele>
        <time>2019-03-11T15:54:57Z</time>
      </trkpt>
      <trkpt lat="32.529429104179144" lon="-5.07474347949028">
        <ele>1740.5999999999999</ele>
        <time>2019-03-11T15:54:59Z</time>
      </trkpt>
      <trkpt lat="32.529380992054939" lon="-5.075033577159047">
        <ele>1742.53</ele>
        <time>2019-03-11T15:55:04Z</time>
      </trkpt>
      <trkpt lat="32.529556676745415" lon="-5.075476141646504">
        <ele>1742.53</ele>
        <time>2019-03-11T15:55:10Z</time>
      </trkpt>
      <trkpt lat="32.529823556542397" lon="-5.07561519742012">
        <ele>1743.01</ele>
        <time>2019-03-11T15:55:22Z</time>
      </trkpt>
      <trkpt lat="32.530404673889279" lon="-5.076310141012073">
        <ele>1742.53</ele>
        <time>2019-03-11T15:55:28Z</time>
      </trkpt>
      <trkpt lat="32.530706590041518" lon="-5.07668724283576">
        <ele>1742.05</ele>
        <time>2019-03-11T15:55:39Z</time>
      </trkpt>
      <trkpt lat="32.53148166462779" lon="-5.07720910012722">
        <ele>1743.01</ele>
        <time>2019-03-11T15:55:43Z</time>
      </trkpt>
      <trkpt lat="32.53177092410624" lon="-5.077393250539899">
        <ele>1749.26</ele>
        <time>2019-03-11T15:55:48Z</time>
      </trkpt>
      <trkpt lat="32.531923893839121" lon="-5.077742608264089">
        <ele>1753.0999999999999</ele>
        <time>2019-03-11T15:55:52Z</time>
      </trkpt>
      <trkpt lat="32.531932778656483" lon="-5.078151393681765">
        <ele>1753.5799999999999</ele>
        <time>2019-03-11T15:55:58Z</time>
      </trkpt>
      <trkpt lat="32.532221283763647" lon="-5.078582810238004">
        <ele>1753.5799999999999</ele>
        <time>2019-03-11T15:56:02Z</time>
      </trkpt>
      <trkpt lat="32.532064625993371" lon="-5.078789591789246">
        <ele>1755.99</ele>
        <time>2019-03-11T15:56:03Z</time>
      </trkpt>
      <trkpt lat="32.531988937407732" lon="-5.078806774690747">
        <ele>1757.9100000000001</ele>
        <time>2019-03-11T15:56:07Z</time>
      </trkpt>
      <trkpt lat="32.531715268269181" lon="-5.078853461891413">
        <ele>1758.3900000000001</ele>
        <time>2019-03-11T15:56:14Z</time>
      </trkpt>
      <trkpt lat="32.531446125358343" lon="-5.079253194853663">
        <ele>1759.3499999999999</ele>
        <time>2019-03-11T15:56:19Z</time>
      </trkpt>
      <trkpt lat="32.531547378748655" lon="-5.079841688275337">
        <ele>1759.8299999999999</ele>
        <time>2019-03-11T15:56:21Z</time>
      </trkpt>
      <trkpt lat="32.531645195558667" lon="-5.080111334100366">
        <ele>1761.75</ele>
        <time>2019-03-11T15:56:27Z</time>
      </trkpt>
      <trkpt lat="32.531501278281212" lon="-5.080769648775458">
        <ele>1767.52</ele>
        <time>2019-03-11T15:56:28Z</time>
      </trkpt>
      <trkpt lat="32.531401198357344" lon="-5.080789346247912">
        <ele>1768</ele>
        <time>2019-03-11T15:56:32Z</time>
      </trkpt>
      <trkpt lat="32.530948156490922" lon="-5.08080929517746">
        <ele>1770.4100000000001</ele>
        <time>2019-03-11T15:56:38Z</time>
      </trkpt>
      <trkpt lat="32.53037927672267" lon="-5.081129316240549">
        <ele>1772.3299999999999</ele>
        <time>2019-03-11T15:56:39Z</time>
      </trkpt>
      <trkpt lat="32.530346587300301" lon="-5.081243142485619">
        <ele>1768.96</ele>
        <time>2019-03-11T15:56:42Z</time>
      </trkpt>
      <trkpt lat="32.530258577316999" lon="-5.081612281501293">
        <ele>1768.96</ele>
        <time>2019-03-11T15:56:46Z</time>
      </trkpt>
      <trkpt lat="32.530212728306651" lon="-5.082177305594087">
        <ele>1769.4400000000001</ele>
        <time>2019-03-11T15:56:51Z</time>
      </trkpt>
      <trkpt lat="32.529916008934379" lon="-5.082735205069184">
        <ele>1769.4400000000001</ele>
        <time>2019-03-11T15:56:52Z</time>
      </trkpt>
      <trkpt lat="32.529800338670611" lon="-5.082771331071854">
        <ele>1768.96</ele>
        <time>2019-03-11T15:56:56Z</time>
      </trkpt>
      <trkpt lat="32.529306979849935" lon="-5.082811145111918">
        <ele>1766.5599999999999</ele>
        <time>2019-03-11T15:57:01Z</time>
      </trkpt>
      <trkpt lat="32.529005398973823" lon="-5.083097973838449">
        <ele>1762.71</ele>
        <time>2019-03-11T15:57:02Z</time>
      </trkpt>
      <trkpt lat="32.528991485014558" lon="-5.083228228613734">
        <ele>1762.23</ele>
        <time>2019-03-11T15:57:04Z</time>
      </trkpt>
      <trkpt lat="32.528960136696696" lon="-5.083509692922235">
        <ele>1765.1199999999999</ele>
        <time>2019-03-11T15:57:09Z</time>
      </trkpt>
      <trkpt lat="32.528631817549467" lon="-5.083775231614709">
        <ele>1765.5999999999999</ele>
        <time>2019-03-11T15:57:10Z</time>
      </trkpt>
      <trkpt lat="32.528555542230606" lon="-5.08372250944376">
        <ele>1765.1199999999999</ele>
        <time>2019-03-11T15:57:16Z</time>
      </trkpt>
      <trkpt lat="32.528093196451664" lon="-5.083721503615379">
        <ele>1764.6400000000001</ele>
        <time>2019-03-11T15:57:18Z</time>
      </trkpt>
      <trkpt lat="32.528010550886393" lon="-5.083970027044416">
        <ele>1766.0799999999999</ele>
        <time>2019-03-11T15:57:23Z</time>
      </trkpt>
      <trkpt lat="32.527890941128135" lon="-5.084776785224676">
        <ele>1767.04</ele>
        <time>2019-03-11T15:57:27Z</time>
      </trkpt>
      <trkpt lat="32.527641747146845" lon="-5.085275592282414">
        <ele>1767.04</ele>
        <time>2019-03-11T15:57:37Z</time>
      </trkpt>
      <trkpt lat="32.52640382386744" lon="-5.086031472310424">
        <ele>1768.96</ele>
        <time>2019-03-11T15:57:39Z</time>
      </trkpt>
      <trkpt lat="32.526132920756936" lon="-5.086181508377194">
        <ele>1766.5599999999999</ele>
        <time>2019-03-11T15:57:43Z</time>
      </trkpt>
      <trkpt lat="32.52570753917098" lon="-5.086662713438273">
        <ele>1765.5999999999999</ele>
        <time>2019-03-11T15:57:53Z</time>
      </trkpt>
      <trkpt lat="32.524868678301573" lon="-5.088522741571069">
        <ele>1766.5599999999999</ele>
        <time>2019-03-11T15:58:01Z</time>
      </trkpt>
      <trkpt lat="32.523821610957384" lon="-5.089724287390709">
        <ele>1769.9200000000001</ele>
        <time>2019-03-11T15:58:07Z</time>
      </trkpt>
      <trkpt lat="32.522967662662268" lon="-5.090550743043423">
        <ele>1772.3299999999999</ele>
        <time>2019-03-11T15:58:13Z</time>
      </trkpt>
      <trkpt lat="32.522611012682319" lon="-5.091534443199635">
        <ele>1771.8499999999999</ele>
        <time>2019-03-11T15:58:19Z</time>
      </trkpt>
      <trkpt lat="32.522466173395514" lon="-5.092697432264686">
        <ele>1769.9200000000001</ele>
        <time>2019-03-11T15:58:24Z</time>
      </trkpt>
      <trkpt lat="32.522128634154797" lon="-5.093572670593858">
        <ele>1771.3699999999999</ele>
        <time>2019-03-11T15:58:32Z</time>
      </trkpt>
      <trkpt lat="32.521304525434971" lon="-5.094707664102316">
        <ele>1774.25</ele>
        <time>2019-03-11T15:58:39Z</time>
      </trkpt>
      <trkpt lat="32.520889202132821" lon="-5.095963692292571">
        <ele>1774.73</ele>
        <time>2019-03-11T15:58:49Z</time>
      </trkpt>
      <trkpt lat="32.520516375079751" lon="-5.098015079274774">
        <ele>1774.73</ele>
        <time>2019-03-11T15:59:01Z</time>
      </trkpt>
      <trkpt lat="32.520528864115477" lon="-5.100497882813215">
        <ele>1769.9200000000001</ele>
        <time>2019-03-11T15:59:11Z</time>
      </trkpt>
      <trkpt lat="32.520514950156212" lon="-5.1023671310395">
        <ele>1768.96</ele>
        <time>2019-03-11T15:59:13Z</time>
      </trkpt>
      <trkpt lat="32.520457785576582" lon="-5.102697126567364">
        <ele>1773.29</ele>
        <time>2019-03-11T15:59:21Z</time>
      </trkpt>
      <trkpt lat="32.519799303263426" lon="-5.103925494477153">
        <ele>1781.46</ele>
        <time>2019-03-11T15:59:25Z</time>
      </trkpt>
      <trkpt lat="32.519340561702847" lon="-5.104611050337553">
        <ele>1785.79</ele>
        <time>2019-03-11T15:59:29Z</time>
      </trkpt>
      <trkpt lat="32.519214414060116" lon="-5.105376988649368">
        <ele>1791.55</ele>
        <time>2019-03-11T15:59:36Z</time>
      </trkpt>
      <trkpt lat="32.519506355747581" lon="-5.106680793687701">
        <ele>1796.8399999999999</ele>
        <time>2019-03-11T15:59:43Z</time>
      </trkpt>
      <trkpt lat="32.519416082650423" lon="-5.108059868216515">
        <ele>1803.0899999999999</ele>
        <time>2019-03-11T15:59:56Z</time>
      </trkpt>
      <trkpt lat="32.518998831510544" lon="-5.110960090532899">
        <ele>1805.01</ele>
        <time>2019-03-11T16:00:03Z</time>
      </trkpt>
      <trkpt lat="32.518973434343934" lon="-5.112534044310451">
        <ele>1805.49</ele>
        <time>2019-03-11T16:00:15Z</time>
      </trkpt>
      <trkpt lat="32.51887452788651" lon="-5.115204686298966">
        <ele>1806.45</ele>
        <time>2019-03-11T16:00:18Z</time>
      </trkpt>
      <trkpt lat="32.518936805427074" lon="-5.11576090939343">
        <ele>1806.9400000000001</ele>
        <time>2019-03-11T16:00:19Z</time>
      </trkpt>
      <trkpt lat="32.518982654437423" lon="-5.115922763943672">
        <ele>1807.9000000000001</ele>
        <time>2019-03-11T16:00:22Z</time>
      </trkpt>
      <trkpt lat="32.51912958920002" lon="-5.116408662870526">
        <ele>1819.9100000000001</ele>
        <time>2019-03-11T16:00:23Z</time>
      </trkpt>
      <trkpt lat="32.519148532301188" lon="-5.116586359217763">
        <ele>1828.5599999999999</ele>
        <time>2019-03-11T16:00:24Z</time>
      </trkpt>
      <trkpt lat="32.519155070185661" lon="-5.116766318678856">
        <ele>1833.3699999999999</ele>
        <time>2019-03-11T16:00:38Z</time>
      </trkpt>
      <trkpt lat="32.519111065194011" lon="-5.119563275948167">
        <ele>1834.3299999999999</ele>
        <time>2019-03-11T16:00:49Z</time>
      </trkpt>
      <trkpt lat="32.518781824037433" lon="-5.121902413666248">
        <ele>1835.29</ele>
        <time>2019-03-11T16:00:56Z</time>
      </trkpt>
      <trkpt lat="32.518548723310232" lon="-5.123388022184372">
        <ele>1838.6600000000001</ele>
        <time>2019-03-11T16:00:57Z</time>
      </trkpt>
      <trkpt lat="32.518485859036446" lon="-5.123584996908903">
        <ele>1846.8299999999999</ele>
        <time>2019-03-11T16:00:58Z</time>
      </trkpt>
      <trkpt lat="32.518409248441458" lon="-5.123775769025087">
        <ele>1855</ele>
        <time>2019-03-11T16:01:08Z</time>
      </trkpt>
      <trkpt lat="32.517583463340998" lon="-5.125650968402624">
        <ele>1860.77</ele>
        <time>2019-03-11T16:01:21Z</time>
      </trkpt>
      <trkpt lat="32.516627255827188" lon="-5.12834943830967">
        <ele>1861.25</ele>
        <time>2019-03-11T16:01:34Z</time>
      </trkpt>
      <trkpt lat="32.515692170709372" lon="-5.131028965115547">
        <ele>1861.73</ele>
        <time>2019-03-11T16:01:48Z</time>
      </trkpt>
      <trkpt lat="32.514410996809602" lon="-5.133668426424265">
        <ele>1864.1300000000001</ele>
        <time>2019-03-11T16:01:49Z</time>
      </trkpt>
      <trkpt lat="32.514369338750839" lon="-5.133854672312737">
        <ele>1874.23</ele>
        <time>2019-03-11T16:01:50Z</time>
      </trkpt>
      <trkpt lat="32.514346456155181" lon="-5.134048797190189">
        <ele>1882.8800000000001</ele>
        <time>2019-03-11T16:01:54Z</time>
      </trkpt>
      <trkpt lat="32.514270935207605" lon="-5.134855471551418">
        <ele>1887.6900000000001</ele>
        <time>2019-03-11T16:02:06Z</time>
      </trkpt>
      <trkpt lat="32.513774558901787" lon="-5.137387225404382">
        <ele>1892.01</ele>
        <time>2019-03-11T16:02:19Z</time>
      </trkpt>
      <trkpt lat="32.513205595314503" lon="-5.139873800799251">
        <ele>1897.78</ele>
        <time>2019-03-11T16:02:33Z</time>
      </trkpt>
      <trkpt lat="32.512558931484818" lon="-5.14269707724452">
        <ele>1911.72</ele>
        <time>2019-03-11T16:02:41Z</time>
      </trkpt>
      <trkpt lat="32.512372517958283" lon="-5.144471609964967">
        <ele>1918.45</ele>
        <time>2019-03-11T16:02:52Z</time>
      </trkpt>
      <trkpt lat="32.512081330642104" lon="-5.146730113774538">
        <ele>1918.9300000000001</ele>
        <time>2019-03-11T16:03:03Z</time>
      </trkpt>
      <trkpt lat="32.511961217969656" lon="-5.149099845439196">
        <ele>1917.97</ele>
        <time>2019-03-11T16:03:12Z</time>
      </trkpt>
      <trkpt lat="32.512096166610718" lon="-5.150753678753972">
        <ele>1917.01</ele>
        <time>2019-03-11T16:04:05Z</time>
      </trkpt>
      <trkpt lat="32.512099016457796" lon="-5.150764072313905">
        <ele>1917.01</ele>
        <time>2019-03-11T16:04:13Z</time>
      </trkpt>
      <trkpt lat="32.511995499953628" lon="-5.151223987340927">
        <ele>1917.01</ele>
        <time>2019-03-11T16:04:25Z</time>
      </trkpt>
      <trkpt lat="32.511719148606062" lon="-5.152513878419995">
        <ele>1918.45</ele>
        <time>2019-03-11T16:04:33Z</time>
      </trkpt>
      <trkpt lat="32.511630970984697" lon="-5.153654906898737">
        <ele>1919.4100000000001</ele>
        <time>2019-03-11T16:04:34Z</time>
      </trkpt>
      <trkpt lat="32.511628288775682" lon="-5.153798321262002">
        <ele>1924.7</ele>
        <time>2019-03-11T16:04:37Z</time>
      </trkpt>
      <trkpt lat="32.511604148894548" lon="-5.154230743646622">
        <ele>1926.6199999999999</ele>
        <time>2019-03-11T16:04:40Z</time>
      </trkpt>
      <trkpt lat="32.511620912700891" lon="-5.154675235971808">
        <ele>1928.54</ele>
        <time>2019-03-11T16:04:51Z</time>
      </trkpt>
      <trkpt lat="32.511532986536622" lon="-5.156269809231162">
        <ele>1929.98</ele>
        <time>2019-03-11T16:05:03Z</time>
      </trkpt>
      <trkpt lat="32.511431984603405" lon="-5.15834835357964">
        <ele>1929.98</ele>
        <time>2019-03-11T16:05:11Z</time>
      </trkpt>
      <trkpt lat="32.5113320723176" lon="-5.159707143902779">
        <ele>1930.46</ele>
        <time>2019-03-11T16:05:16Z</time>
      </trkpt>
      <trkpt lat="32.511275745928288" lon="-5.160594871267676">
        <ele>1930.95</ele>
        <time>2019-03-11T16:05:17Z</time>
      </trkpt>
      <trkpt lat="32.51123970374465" lon="-5.160759324207902">
        <ele>1934.79</ele>
        <time>2019-03-11T16:05:19Z</time>
      </trkpt>
      <trkpt lat="32.511172145605087" lon="-5.161092588678002">
        <ele>1936.23</ele>
        <time>2019-03-11T16:05:20Z</time>
      </trkpt>
      <trkpt lat="32.511158902198076" lon="-5.161262657493353">
        <ele>1934.79</ele>
        <time>2019-03-11T16:05:30Z</time>
      </trkpt>
      <trkpt lat="32.510987995192409" lon="-5.162960411980748">
        <ele>1934.79</ele>
        <time>2019-03-11T16:05:38Z</time>
      </trkpt>
      <trkpt lat="32.510743411257863" lon="-5.164209315553308">
        <ele>1934.3099999999999</ele>
        <time>2019-03-11T16:05:43Z</time>
      </trkpt>
      <trkpt lat="32.510590273886919" lon="-5.164939295500517">
        <ele>1933.8299999999999</ele>
        <time>2019-03-11T16:05:44Z</time>
      </trkpt>
      <trkpt lat="32.510580299422145" lon="-5.165060162544251">
        <ele>1933.3499999999999</ele>
        <time>2019-03-11T16:05:48Z</time>
      </trkpt>
      <trkpt lat="32.510556327179074" lon="-5.165530303493142">
        <ele>1933.3499999999999</ele>
        <time>2019-03-11T16:05:49Z</time>
      </trkpt>
      <trkpt lat="32.510529421269894" lon="-5.165636083111167">
        <ele>1932.8699999999999</ele>
        <time>2019-03-11T16:05:50Z</time>
      </trkpt>
      <trkpt lat="32.510495390743017" lon="-5.165741443634033">
        <ele>1932.8699999999999</ele>
        <time>2019-03-11T16:05:51Z</time>
      </trkpt>
      <trkpt lat="32.510472508147359" lon="-5.165848899632692">
        <ele>1932.8699999999999</ele>
        <time>2019-03-11T16:05:52Z</time>
      </trkpt>
      <trkpt lat="32.51046085730195" lon="-5.165958283469081">
        <ele>1930.95</ele>
        <time>2019-03-11T16:05:53Z</time>
      </trkpt>
      <trkpt lat="32.510450463742018" lon="-5.16606280580163">
        <ele>1930.46</ele>
        <time>2019-03-11T16:05:54Z</time>
      </trkpt>
      <trkpt lat="32.51043638214469" lon="-5.166162718087435">
        <ele>1930.46</ele>
        <time>2019-03-11T16:06:06Z</time>
      </trkpt>
      <trkpt lat="32.510228930041194" lon="-5.167544391006231">
        <ele>1930.95</ele>
        <time>2019-03-11T16:06:10Z</time>
      </trkpt>
      <trkpt lat="32.510188110172749" lon="-5.167978154495359">
        <ele>1930.95</ele>
        <time>2019-03-11T16:06:11Z</time>
      </trkpt>
      <trkpt lat="32.510156091302633" lon="-5.168088292703033">
        <ele>1930.95</ele>
        <time>2019-03-11T16:06:12Z</time>
      </trkpt>
      <trkpt lat="32.510115774348378" lon="-5.168195245787501">
        <ele>1931.9100000000001</ele>
        <time>2019-03-11T16:06:17Z</time>
      </trkpt>
      <trkpt lat="32.509947381913662" lon="-5.168777368962765">
        <ele>1932.3900000000001</ele>
        <time>2019-03-11T16:06:18Z</time>
      </trkpt>
      <trkpt lat="32.509904131293297" lon="-5.168899912387133">
        <ele>1932.8699999999999</ele>
        <time>2019-03-11T16:06:27Z</time>
      </trkpt>
      <trkpt lat="32.509497525170445" lon="-5.170089974999428">
        <ele>1933.3499999999999</ele>
        <time>2019-03-11T16:06:28Z</time>
      </trkpt>
      <trkpt lat="32.509423680603504" lon="-5.170186366885901">
        <ele>1933.8299999999999</ele>
        <time>2019-03-11T16:06:29Z</time>
      </trkpt>
      <trkpt lat="32.509339945390821" lon="-5.170255936682224">
        <ele>1934.3099999999999</ele>
        <time>2019-03-11T16:06:30Z</time>
      </trkpt>
      <trkpt lat="32.509254282340407" lon="-5.170305138453841">
        <ele>1935.27</ele>
        <time>2019-03-11T16:06:31Z</time>
      </trkpt>
      <trkpt lat="32.509161410853267" lon="-5.170340845361352">
        <ele>1935.75</ele>
        <time>2019-03-11T16:06:32Z</time>
      </trkpt>
      <trkpt lat="32.509056385606527" lon="-5.170370182022452">
        <ele>1942</ele>
        <time>2019-03-11T16:06:33Z</time>
      </trkpt>
      <trkpt lat="32.508948678150773" lon="-5.170403039082885">
        <ele>1942.48</ele>
        <time>2019-03-11T16:06:34Z</time>
      </trkpt>
      <trkpt lat="32.508841138333082" lon="-5.170445283874869">
        <ele>1942.96</ele>
        <time>2019-03-11T16:06:41Z</time>
      </trkpt>
      <trkpt lat="32.50808953307569" lon="-5.170864630490542">
        <ele>1943.4400000000001</ele>
        <time>2019-03-11T16:06:42Z</time>
      </trkpt>
      <trkpt lat="32.507998673245311" lon="-5.170959513634443">
        <ele>1943.9200000000001</ele>
        <time>2019-03-11T16:06:43Z</time>
      </trkpt>
      <trkpt lat="32.507919799536467" lon="-5.171074094250798">
        <ele>1944.8800000000001</ele>
        <time>2019-03-11T16:06:44Z</time>
      </trkpt>
      <trkpt lat="32.507856599986553" lon="-5.171206528320909">
        <ele>1945.3599999999999</ele>
        <time>2019-03-11T16:06:45Z</time>
      </trkpt>
      <trkpt lat="32.507808823138475" lon="-5.171353965997696">
        <ele>1945.3599999999999</ele>
        <time>2019-03-11T16:06:46Z</time>
      </trkpt>
      <trkpt lat="32.507770853117108" lon="-5.171513725072146">
        <ele>1945.8499999999999</ele>
        <time>2019-03-11T16:06:47Z</time>
      </trkpt>
      <trkpt lat="32.507741851732135" lon="-5.171683961525559">
        <ele>1946.8099999999999</ele>
        <time>2019-03-11T16:06:48Z</time>
      </trkpt>
      <trkpt lat="32.507725171744823" lon="-5.171856628730893">
        <ele>1947.29</ele>
        <time>2019-03-11T16:06:49Z</time>
      </trkpt>
      <trkpt lat="32.507722824811935" lon="-5.172023260965943">
        <ele>1946.8099999999999</ele>
        <time>2019-03-11T16:06:50Z</time>
      </trkpt>
      <trkpt lat="32.507732631638646" lon="-5.172181343659759">
        <ele>1947.77</ele>
        <time>2019-03-11T16:06:51Z</time>
      </trkpt>
      <trkpt lat="32.507747551426291" lon="-5.172337079420686">
        <ele>1948.73</ele>
        <time>2019-03-11T16:06:54Z</time>
      </trkpt>
      <trkpt lat="32.50776557251811" lon="-5.172764053568244">
        <ele>1949.6900000000001</ele>
        <time>2019-03-11T16:06:58Z</time>
      </trkpt>
      <trkpt lat="32.507698098197579" lon="-5.173344751819968">
        <ele>1953.0599999999999</ele>
        <time>2019-03-11T16:06:59Z</time>
      </trkpt>
      <trkpt lat="32.507656859233975" lon="-5.173473665490747">
        <ele>1953.54</ele>
        <time>2019-03-11T16:07:00Z</time>
      </trkpt>
      <trkpt lat="32.507595336064696" lon="-5.173594448715448">
        <ele>1954.02</ele>
        <time>2019-03-11T16:07:05Z</time>
      </trkpt>
      <trkpt lat="32.50720851123333" lon="-5.174113791435957">
        <ele>1955.46</ele>
        <time>2019-03-11T16:07:06Z</time>
      </trkpt>
      <trkpt lat="32.507113125175238" lon="-5.174173973500729">
        <ele>1955.9400000000001</ele>
        <time>2019-03-11T16:07:07Z</time>
      </trkpt>
      <trkpt lat="32.507008267566562" lon="-5.174203058704734">
        <ele>1956.4200000000001</ele>
        <time>2019-03-11T16:07:09Z</time>
      </trkpt>
      <trkpt lat="32.506811628118157" lon="-5.174228539690375">
        <ele>1956.9000000000001</ele>
        <time>2019-03-11T16:07:10Z</time>
      </trkpt>
      <trkpt lat="32.506728395819664" lon="-5.17427715472877">
        <ele>1956.4200000000001</ele>
        <time>2019-03-11T16:07:11Z</time>
      </trkpt>
      <trkpt lat="32.506659580394626" lon="-5.174353681504726">
        <ele>1951.1300000000001</ele>
        <time>2019-03-11T16:07:12Z</time>
      </trkpt>
      <trkpt lat="32.506603840738535" lon="-5.174451917409897">
        <ele>1950.6500000000001</ele>
        <time>2019-03-11T16:07:13Z</time>
      </trkpt>
      <trkpt lat="32.506549023091793" lon="-5.174560211598873">
        <ele>1944.8800000000001</ele>
        <time>2019-03-11T16:07:22Z</time>
      </trkpt>
      <trkpt lat="32.505984418094158" lon="-5.175553886219859">
        <ele>1944.8800000000001</ele>
        <time>2019-03-11T16:07:23Z</time>
      </trkpt>
      <trkpt lat="32.50591023825109" lon="-5.175656396895647">
        <ele>1944.4000000000001</ele>
        <time>2019-03-11T16:07:31Z</time>
      </trkpt>
      <trkpt lat="32.505238512530923" lon="-5.176448570564389">
        <ele>1943.9200000000001</ele>
        <time>2019-03-11T16:07:32Z</time>
      </trkpt>
      <trkpt lat="32.505171624943614" lon="-5.176547728478909">
        <ele>1943.4400000000001</ele>
        <time>2019-03-11T16:07:33Z</time>
      </trkpt>
      <trkpt lat="32.505122674629092" lon="-5.176646634936333">
        <ele>1942.96</ele>
        <time>2019-03-11T16:07:35Z</time>
      </trkpt>
      <trkpt lat="32.505041705444455" lon="-5.176824918016791">
        <ele>1942.48</ele>
        <time>2019-03-11T16:07:36Z</time>
      </trkpt>
      <trkpt lat="32.504986887797713" lon="-5.176892895251513">
        <ele>1942</ele>
        <time>2019-03-11T16:07:37Z</time>
      </trkpt>
      <trkpt lat="32.504921508952975" lon="-5.176944024860859">
        <ele>1941.52</ele>
        <time>2019-03-11T16:07:38Z</time>
      </trkpt>
      <trkpt lat="32.504849340766668" lon="-5.176982246339321">
        <ele>1941.52</ele>
        <time>2019-03-11T16:07:39Z</time>
      </trkpt>
      <trkpt lat="32.504773316904902" lon="-5.177016612142324">
        <ele>1941.04</ele>
        <time>2019-03-11T16:07:43Z</time>
      </trkpt>
      <trkpt lat="32.504457822069526" lon="-5.177145441994071">
        <ele>1940.5599999999999</ele>
        <time>2019-03-11T16:07:44Z</time>
      </trkpt>
      <trkpt lat="32.504384396597743" lon="-5.17715759575367">
        <ele>1940.5599999999999</ele>
        <time>2019-03-11T16:07:47Z</time>
      </trkpt>
      <trkpt lat="32.504131011664867" lon="-5.177193554118276">
        <ele>1939.5999999999999</ele>
        <time>2019-03-11T16:07:48Z</time>
      </trkpt>
      <trkpt lat="32.504035206511617" lon="-5.177233368158341">
        <ele>1939.1199999999999</ele>
        <time>2019-03-11T16:07:49Z</time>
      </trkpt>
      <trkpt lat="32.503936048597097" lon="-5.177285838872194">
        <ele>1939.1199999999999</ele>
        <time>2019-03-11T16:07:51Z</time>
      </trkpt>
      <trkpt lat="32.503737397491932" lon="-5.177394719794393">
        <ele>1936.23</ele>
        <time>2019-03-11T16:07:52Z</time>
      </trkpt>
      <trkpt lat="32.503630192950368" lon="-5.177422966808081">
        <ele>1935.75</ele>
        <time>2019-03-11T16:07:53Z</time>
      </trkpt>
      <trkpt lat="32.503516869619489" lon="-5.177425732836127">
        <ele>1934.79</ele>
        <time>2019-03-11T16:08:00Z</time>
      </trkpt>
      <trkpt lat="32.502669962123036" lon="-5.177395725622773">
        <ele>1934.3099999999999</ele>
        <time>2019-03-11T16:08:01Z</time>
      </trkpt>
      <trkpt lat="32.502563763409853" lon="-5.17742782831192">
        <ele>1933.8299999999999</ele>
        <time>2019-03-11T16:08:02Z</time>
      </trkpt>
      <trkpt lat="32.502472903579473" lon="-5.177485747262836">
        <ele>1933.3499999999999</ele>
        <time>2019-03-11T16:08:03Z</time>
      </trkpt>
      <trkpt lat="32.50239604152739" lon="-5.177557915449143">
        <ele>1932.8699999999999</ele>
        <time>2019-03-11T16:08:04Z</time>
      </trkpt>
      <trkpt lat="32.502321023494005" lon="-5.177623126655817">
        <ele>1931.9100000000001</ele>
        <time>2019-03-11T16:08:05Z</time>
      </trkpt>
      <trkpt lat="32.502245754003525" lon="-5.177666964009404">
        <ele>1931.4300000000001</ele>
        <time>2019-03-11T16:08:06Z</time>
      </trkpt>
      <trkpt lat="32.502161934971809" lon="-5.177684398368001">
        <ele>1930.46</ele>
        <time>2019-03-11T16:08:07Z</time>
      </trkpt>
      <trkpt lat="32.50207057222724" lon="-5.177674172446132">
        <ele>1929.5</ele>
        <time>2019-03-11T16:08:08Z</time>
      </trkpt>
      <trkpt lat="32.501974180340767" lon="-5.177636370062828">
        <ele>1928.54</ele>
        <time>2019-03-11T16:08:09Z</time>
      </trkpt>
      <trkpt lat="32.501876866444945" lon="-5.177574846893549">
        <ele>1924.7</ele>
        <time>2019-03-11T16:08:10Z</time>
      </trkpt>
      <trkpt lat="32.501781564205885" lon="-5.177500247955322">
        <ele>1920.8499999999999</ele>
        <time>2019-03-11T16:08:11Z</time>
      </trkpt>
      <trkpt lat="32.501689698547125" lon="-5.177424307912588">
        <ele>1920.3699999999999</ele>
        <time>2019-03-11T16:08:17Z</time>
      </trkpt>
      <trkpt lat="32.50117882154882" lon="-5.177023485302925">
        <ele>1918.45</ele>
        <time>2019-03-11T16:08:22Z</time>
      </trkpt>
      <trkpt lat="32.500683618709445" lon="-5.176775883883238">
        <ele>1917.97</ele>
        <time>2019-03-11T16:08:23Z</time>
      </trkpt>
      <trkpt lat="32.500599715858698" lon="-5.176701452583075">
        <ele>1917.97</ele>
        <time>2019-03-11T16:08:25Z</time>
      </trkpt>
      <trkpt lat="32.50042880885303" lon="-5.176529958844185">
        <ele>1914.1199999999999</ele>
        <time>2019-03-11T16:08:26Z</time>
      </trkpt>
      <trkpt lat="32.500322610139847" lon="-5.176464160904288">
        <ele>1913.6400000000001</ele>
        <time>2019-03-11T16:08:27Z</time>
      </trkpt>
      <trkpt lat="32.50020157545805" lon="-5.176411103457212">
        <ele>1912.2</ele>
        <time>2019-03-11T16:08:35Z</time>
      </trkpt>
      <trkpt lat="32.499228436499834" lon="-5.175891760736704">
        <ele>1911.72</ele>
        <time>2019-03-11T16:08:36Z</time>
      </trkpt>
      <trkpt lat="32.499143863096833" lon="-5.175808863714337">
        <ele>1911.24</ele>
        <time>2019-03-11T16:08:38Z</time>
      </trkpt>
      <trkpt lat="32.498989719897509" lon="-5.175654552876949">
        <ele>1911.24</ele>
        <time>2019-03-11T16:08:39Z</time>
      </trkpt>
      <trkpt lat="32.498899111524224" lon="-5.175599567592144">
        <ele>1910.28</ele>
        <time>2019-03-11T16:08:40Z</time>
      </trkpt>
      <trkpt lat="32.498800456523895" lon="-5.17555539496243">
        <ele>1909.8</ele>
        <time>2019-03-11T16:08:41Z</time>
      </trkpt>
      <trkpt lat="32.498703226447105" lon="-5.17552656121552">
        <ele>1908.3499999999999</ele>
        <time>2019-03-11T16:08:42Z</time>
      </trkpt>
      <trkpt lat="32.498609181493521" lon="-5.175509881228209">
        <ele>1906.9100000000001</ele>
        <time>2019-03-11T16:08:43Z</time>
      </trkpt>
      <trkpt lat="32.498529637232423" lon="-5.175498314201832">
        <ele>1906.9100000000001</ele>
        <time>2019-03-11T16:08:48Z</time>
      </trkpt>
      <trkpt lat="32.498388066887856" lon="-5.175476605072618">
        <ele>1904.51</ele>
        <time>2019-03-11T16:09:00Z</time>
      </trkpt>
      <trkpt lat="32.498321095481515" lon="-5.175412567332387">
        <ele>1900.6600000000001</ele>
        <time>2019-03-11T16:09:01Z</time>
      </trkpt>
      <trkpt lat="32.498301146551967" lon="-5.175363700836897">
        <ele>1894.4200000000001</ele>
        <time>2019-03-11T16:09:08Z</time>
      </trkpt>
      <trkpt lat="32.498006438836455" lon="-5.174730867147446">
        <ele>1892.01</ele>
        <time>2019-03-11T16:09:16Z</time>
      </trkpt>
      <trkpt lat="32.497350722551346" lon="-5.173524124547839">
        <ele>1891.05</ele>
        <time>2019-03-11T16:09:31Z</time>
      </trkpt>
      <trkpt lat="32.496074913069606" lon="-5.171140981838107">
        <ele>1891.05</ele>
        <time>2019-03-11T16:09:40Z</time>
      </trkpt>
      <trkpt lat="32.495527071878314" lon="-5.169783448800445">
        <ele>1891.05</ele>
        <time>2019-03-11T16:09:47Z</time>
      </trkpt>
      <trkpt lat="32.495202189311385" lon="-5.16865499317646">
        <ele>1889.1300000000001</ele>
        <time>2019-03-11T16:09:48Z</time>
      </trkpt>
      <trkpt lat="32.495135301724076" lon="-5.168524654582143">
        <ele>1888.6500000000001</ele>
        <time>2019-03-11T16:09:49Z</time>
      </trkpt>
      <trkpt lat="32.495055506005883" lon="-5.168400015681982">
        <ele>1888.1700000000001</ele>
        <time>2019-03-11T16:09:59Z</time>
      </trkpt>
      <trkpt lat="32.494166688993573" lon="-5.166958495974541">
        <ele>1887.6900000000001</ele>
        <time>2019-03-11T16:10:01Z</time>
      </trkpt>
      <trkpt lat="32.493966948240995" lon="-5.166661608964205">
        <ele>1881.4400000000001</ele>
        <time>2019-03-11T16:10:02Z</time>
      </trkpt>
      <trkpt lat="32.493849182501435" lon="-5.166527163237333">
        <ele>1876.6300000000001</ele>
        <time>2019-03-11T16:10:03Z</time>
      </trkpt>
      <trkpt lat="32.49371699988842" lon="-5.166405458003283">
        <ele>1871.3399999999999</ele>
        <time>2019-03-11T16:10:14Z</time>
      </trkpt>
      <trkpt lat="32.492098873481154" lon="-5.165054714307189">
        <ele>1865.0899999999999</ele>
        <time>2019-03-11T16:10:24Z</time>
      </trkpt>
      <trkpt lat="32.490731785073876" lon="-5.163784855976701">
        <ele>1861.73</ele>
        <time>2019-03-11T16:10:35Z</time>
      </trkpt>
      <trkpt lat="32.489592684432864" lon="-5.162044856697321">
        <ele>1861.25</ele>
        <time>2019-03-11T16:10:43Z</time>
      </trkpt>
      <trkpt lat="32.488863961771131" lon="-5.160904414951801">
        <ele>1861.25</ele>
        <time>2019-03-11T16:10:48Z</time>
      </trkpt>
      <trkpt lat="32.488404968753457" lon="-5.160159096121788">
        <ele>1859.8099999999999</ele>
        <time>2019-03-11T16:10:49Z</time>
      </trkpt>
      <trkpt lat="32.488345038145781" lon="-5.16000235453248">
        <ele>1858.8499999999999</ele>
        <time>2019-03-11T16:10:50Z</time>
      </trkpt>
      <trkpt lat="32.488305810838938" lon="-5.159839494153857">
        <ele>1860.77</ele>
        <time>2019-03-11T16:10:53Z</time>
      </trkpt>
      <trkpt lat="32.488252837210894" lon="-5.159332053735852">
        <ele>1862.21</ele>
        <time>2019-03-11T16:11:00Z</time>
      </trkpt>
      <trkpt lat="32.488256525248289" lon="-5.158307617530227">
        <ele>1862.6900000000001</ele>
        <time>2019-03-11T16:14:31Z</time>
      </trkpt>
      <trkpt lat="32.488243952393532" lon="-5.158191109076142">
        <ele>1866.54</ele>
        <time>2019-03-11T16:14:39Z</time>
      </trkpt>
      <trkpt lat="32.488159462809563" lon="-5.157035747542977">
        <ele>1867.5</ele>
        <time>2019-03-11T16:14:48Z</time>
      </trkpt>
      <trkpt lat="32.487745229154825" lon="-5.155509738251567">
        <ele>1867.5</ele>
        <time>2019-03-11T16:14:58Z</time>
      </trkpt>
      <trkpt lat="32.487349519506097" lon="-5.153969479724765">
        <ele>1867.02</ele>
        <time>2019-03-11T16:15:01Z</time>
      </trkpt>
      <trkpt lat="32.487182887271047" lon="-5.153512833639979">
        <ele>1866.0599999999999</ele>
        <time>2019-03-11T16:15:02Z</time>
      </trkpt>
      <trkpt lat="32.487104432657361" lon="-5.153376795351505">
        <ele>1861.73</ele>
        <time>2019-03-11T16:15:05Z</time>
      </trkpt>
      <trkpt lat="32.486856495961547" lon="-5.152998939156532">
        <ele>1857.4000000000001</ele>
        <time>2019-03-11T16:15:06Z</time>
      </trkpt>
      <trkpt lat="32.486795224249363" lon="-5.152864325791597">
        <ele>1855</ele>
        <time>2019-03-11T16:15:15Z</time>
      </trkpt>
      <trkpt lat="32.486478136852384" lon="-5.151531854644418">
        <ele>1854.52</ele>
        <time>2019-03-11T16:15:23Z</time>
      </trkpt>
      <trkpt lat="32.48605283908546" lon="-5.150259900838137">
        <ele>1854.04</ele>
        <time>2019-03-11T16:15:26Z</time>
      </trkpt>
      <trkpt lat="32.485849997028708" lon="-5.149839548394084">
        <ele>1853.5599999999999</ele>
        <time>2019-03-11T16:15:27Z</time>
      </trkpt>
      <trkpt lat="32.48577187769115" lon="-5.149737792089582">
        <ele>1853.5599999999999</ele>
        <time>2019-03-11T16:15:28Z</time>
      </trkpt>
      <trkpt lat="32.485683197155595" lon="-5.149669563397765">
        <ele>1853.0799999999999</ele>
        <time>2019-03-11T16:15:29Z</time>
      </trkpt>
      <trkpt lat="32.48558672145009" lon="-5.149637628346682">
        <ele>1853.0799999999999</ele>
        <time>2019-03-11T16:15:30Z</time>
      </trkpt>
      <trkpt lat="32.485489239916205" lon="-5.14964341185987">
        <ele>1852.5999999999999</ele>
        <time>2019-03-11T16:15:31Z</time>
      </trkpt>
      <trkpt lat="32.485400643199682" lon="-5.14969571493566">
        <ele>1850.6800000000001</ele>
        <time>2019-03-11T16:15:32Z</time>
      </trkpt>
      <trkpt lat="32.485323781147599" lon="-5.149775175377727">
        <ele>1849.71</ele>
        <time>2019-03-11T16:15:33Z</time>
      </trkpt>
      <trkpt lat="32.485253037884831" lon="-5.14986477792263">
        <ele>1849.23</ele>
        <time>2019-03-11T16:15:36Z</time>
      </trkpt>
      <trkpt lat="32.48504726216197" lon="-5.150120761245489">
        <ele>1848.27</ele>
        <time>2019-03-11T16:15:37Z</time>
      </trkpt>
      <trkpt lat="32.484970986843109" lon="-5.150166274979711">
        <ele>1847.3099999999999</ele>
        <time>2019-03-11T16:15:38Z</time>
      </trkpt>
      <trkpt lat="32.484887922182679" lon="-5.15016526915133">
        <ele>1846.3499999999999</ele>
        <time>2019-03-11T16:15:39Z</time>
      </trkpt>
      <trkpt lat="32.484801085665822" lon="-5.150117659941316">
        <ele>1843.95</ele>
        <time>2019-03-11T16:15:40Z</time>
      </trkpt>
      <trkpt lat="32.484719529747963" lon="-5.150029566138983">
        <ele>1842.5</ele>
        <time>2019-03-11T16:15:41Z</time>
      </trkpt>
      <trkpt lat="32.48463336378336" lon="-5.14991900883615">
        <ele>1830.01</ele>
        <time>2019-03-11T16:15:43Z</time>
      </trkpt>
      <trkpt lat="32.484408896416426" lon="-5.149690853431821">
        <ele>1821.3499999999999</ele>
        <time>2019-03-11T16:15:44Z</time>
      </trkpt>
      <trkpt lat="32.484262967482209" lon="-5.14959798194468">
        <ele>1816.55</ele>
        <time>2019-03-11T16:15:52Z</time>
      </trkpt>
      <trkpt lat="32.483205171301961" lon="-5.148870348930359">
        <ele>1814.1500000000001</ele>
        <time>2019-03-11T16:16:02Z</time>
      </trkpt>
      <trkpt lat="32.482000691816211" lon="-5.148266181349754">
        <ele>1813.6600000000001</ele>
        <time>2019-03-11T16:16:10Z</time>
      </trkpt>
      <trkpt lat="32.481056889519095" lon="-5.14750761911273">
        <ele>1812.7</ele>
        <time>2019-03-11T16:16:20Z</time>
      </trkpt>
      <trkpt lat="32.479721400886774" lon="-5.14632074162364">
        <ele>1811.74</ele>
        <time>2019-03-11T16:16:21Z</time>
      </trkpt>
      <trkpt lat="32.479626936838031" lon="-5.146186463534832">
        <ele>1810.3</ele>
        <time>2019-03-11T16:16:22Z</time>
      </trkpt>
      <trkpt lat="32.479541441425681" lon="-5.146033577620983">
        <ele>1806.45</ele>
        <time>2019-03-11T16:16:23Z</time>
      </trkpt>
      <trkpt lat="32.479462986811996" lon="-5.145863592624664">
        <ele>1805.49</ele>
        <time>2019-03-11T16:16:24Z</time>
      </trkpt>
      <trkpt lat="32.479390148073435" lon="-5.14568648301065">
        <ele>1804.05</ele>
        <time>2019-03-11T16:16:27Z</time>
      </trkpt>
      <trkpt lat="32.479236591607332" lon="-5.145212486386299">
        <ele>1801.6500000000001</ele>
        <time>2019-03-11T16:16:28Z</time>
      </trkpt>
      <trkpt lat="32.479219492524862" lon="-5.145103521645069">
        <ele>1799.73</ele>
        <time>2019-03-11T16:21:46Z</time>
      </trkpt>
      <trkpt lat="32.479237094521523" lon="-5.144934123381972">
        <ele>1793.48</ele>
        <time>2019-03-11T16:21:48Z</time>
      </trkpt>
      <trkpt lat="32.479373971000314" lon="-5.144686102867127">
        <ele>1792.52</ele>
        <time>2019-03-11T16:21:49Z</time>
      </trkpt>
      <trkpt lat="32.479474805295467" lon="-5.144561463966966">
        <ele>1791.0699999999999</ele>
        <time>2019-03-11T16:21:53Z</time>
      </trkpt>
      <trkpt lat="32.479893565177917" lon="-5.14396995306015">
        <ele>1790.1099999999999</ele>
        <time>2019-03-11T16:21:54Z</time>
      </trkpt>
      <trkpt lat="32.480006385594606" lon="-5.143851097673178">
        <ele>1789.6300000000001</ele>
        <time>2019-03-11T16:21:55Z</time>
      </trkpt>
      <trkpt lat="32.480122810229659" lon="-5.143756633624435">
        <ele>1788.1900000000001</ele>
        <time>2019-03-11T16:21:56Z</time>
      </trkpt>
      <trkpt lat="32.480230266228318" lon="-5.143667114898562">
        <ele>1787.71</ele>
        <time>2019-03-11T16:21:57Z</time>
      </trkpt>
      <trkpt lat="32.480317689478397" lon="-5.143564185127616">
        <ele>1786.75</ele>
        <time>2019-03-11T16:21:58Z</time>
      </trkpt>
      <trkpt lat="32.480381894856691" lon="-5.143438288941979">
        <ele>1785.79</ele>
        <time>2019-03-11T16:21:59Z</time>
      </trkpt>
      <trkpt lat="32.480423469096422" lon="-5.143297472968698">
        <ele>1785.3099999999999</ele>
        <time>2019-03-11T16:22:00Z</time>
      </trkpt>
      <trkpt lat="32.480452721938491" lon="-5.143157579004765">
        <ele>1784.8199999999999</ele>
        <time>2019-03-11T16:22:02Z</time>
      </trkpt>
      <trkpt lat="32.480484321713448" lon="-5.142921712249517">
        <ele>1784.3399999999999</ele>
        <time>2019-03-11T16:22:03Z</time>
      </trkpt>
      <trkpt lat="32.480473006144166" lon="-5.142825488001108">
        <ele>1783.8599999999999</ele>
        <time>2019-03-11T16:22:04Z</time>
      </trkpt>
      <trkpt lat="32.480437969788909" lon="-5.142736891284585">
        <ele>1781.46</ele>
        <time>2019-03-11T16:22:05Z</time>
      </trkpt>
      <trkpt lat="32.480384912341833" lon="-5.142659861594439">
        <ele>1784.8199999999999</ele>
        <time>2019-03-11T16:22:06Z</time>
      </trkpt>
      <trkpt lat="32.480329256504774" lon="-5.142589034512639">
        <ele>1785.3099999999999</ele>
        <time>2019-03-11T16:22:14Z</time>
      </trkpt>
      <trkpt lat="32.480078721418977" lon="-5.142262307927012">
        <ele>1786.27</ele>
        <time>2019-03-11T16:22:27Z</time>
      </trkpt>
      <trkpt lat="32.47985702008009" lon="-5.141870370134711">
        <ele>1786.75</ele>
        <time>2019-03-11T16:22:28Z</time>
      </trkpt>
      <trkpt lat="32.479823241010308" lon="-5.14183072373271">
        <ele>1787.23</ele>
        <time>2019-03-11T16:22:29Z</time>
      </trkpt>
      <trkpt lat="32.479773368686438" lon="-5.14179015532136">
        <ele>1788.1900000000001</ele>
        <time>2019-03-11T16:22:30Z</time>
      </trkpt>
      <trkpt lat="32.47970949858427" lon="-5.141754113137722">
        <ele>1788.6700000000001</ele>
        <time>2019-03-11T16:22:31Z</time>
      </trkpt>
      <trkpt lat="32.479641521349549" lon="-5.141727793961763">
        <ele>1793.48</ele>
        <time>2019-03-11T16:22:32Z</time>
      </trkpt>
      <trkpt lat="32.479574298486114" lon="-5.141708767041564">
        <ele>1794.4400000000001</ele>
        <time>2019-03-11T16:22:33Z</time>
      </trkpt>
      <trkpt lat="32.47949886135757" lon="-5.141690662130714">
        <ele>1794.9200000000001</ele>
        <time>2019-03-11T16:22:40Z</time>
      </trkpt>
      <trkpt lat="32.478731162846088" lon="-5.141512043774128">
        <ele>1795.8800000000001</ele>
        <time>2019-03-11T16:22:42Z</time>
      </trkpt>
      <trkpt lat="32.478484567254782" lon="-5.141400815919042">
        <ele>1796.3599999999999</ele>
        <time>2019-03-11T16:22:43Z</time>
      </trkpt>
      <trkpt lat="32.478375853970647" lon="-5.141330240294337">
        <ele>1796.8399999999999</ele>
        <time>2019-03-11T16:22:44Z</time>
      </trkpt>
      <trkpt lat="32.478280132636428" lon="-5.141244577243924">
        <ele>1797.8</ele>
        <time>2019-03-11T16:22:45Z</time>
      </trkpt>
      <trkpt lat="32.478201845660806" lon="-5.141133517026901">
        <ele>1798.76</ele>
        <time>2019-03-11T16:22:46Z</time>
      </trkpt>
      <trkpt lat="32.478140071034431" lon="-5.141001334413886">
        <ele>1799.24</ele>
        <time>2019-03-11T16:22:47Z</time>
      </trkpt>
      <trkpt lat="32.478092964738607" lon="-5.140857249498367">
        <ele>1800.21</ele>
        <time>2019-03-11T16:22:48Z</time>
      </trkpt>
      <trkpt lat="32.478066980838776" lon="-5.14070495031774">
        <ele>1801.6500000000001</ele>
        <time>2019-03-11T16:22:49Z</time>
      </trkpt>
      <trkpt lat="32.478065053001046" lon="-5.140547035261989">
        <ele>1802.1300000000001</ele>
        <time>2019-03-11T16:22:50Z</time>
      </trkpt>
      <trkpt lat="32.47808625921607" lon="-5.140384426340461">
        <ele>1805.01</ele>
        <time>2019-03-11T16:22:51Z</time>
      </trkpt>
      <trkpt lat="32.478119283914566" lon="-5.140217458829284">
        <ele>1806.45</ele>
        <time>2019-03-11T16:22:52Z</time>
      </trkpt>
      <trkpt lat="32.478155577555299" lon="-5.140053005889058">
        <ele>1807.4200000000001</ele>
        <time>2019-03-11T16:22:55Z</time>
      </trkpt>
      <trkpt lat="32.478211652487516" lon="-5.139543386176229">
        <ele>1808.3800000000001</ele>
        <time>2019-03-11T16:22:56Z</time>
      </trkpt>
      <trkpt lat="32.478196145966649" lon="-5.139363761991262">
        <ele>1809.3399999999999</ele>
        <time>2019-03-11T16:22:57Z</time>
      </trkpt>
      <trkpt lat="32.478159684687853" lon="-5.139179527759552">
        <ele>1813.1800000000001</ele>
        <time>2019-03-11T16:22:58Z</time>
      </trkpt>
      <trkpt lat="32.47810821980238" lon="-5.138991437852383">
        <ele>1814.1500000000001</ele>
        <time>2019-03-11T16:22:59Z</time>
      </trkpt>
      <trkpt lat="32.478046445176005" lon="-5.138804353773594">
        <ele>1817.51</ele>
        <time>2019-03-11T16:23:03Z</time>
      </trkpt>
      <trkpt lat="32.477756096050143" lon="-5.13804093003273">
        <ele>1814.1500000000001</ele>
        <time>2019-03-11T16:23:04Z</time>
      </trkpt>
      <trkpt lat="32.477710079401731" lon="-5.137824844568968">
        <ele>1814.6300000000001</ele>
        <time>2019-03-11T16:23:12Z</time>
      </trkpt>
      <trkpt lat="32.47734940610826" lon="-5.136169167235494">
        <ele>1815.1099999999999</ele>
        <time>2019-03-11T16:23:20Z</time>
      </trkpt>
      <trkpt lat="32.476988481357694" lon="-5.134239904582501">
        <ele>1815.1099999999999</ele>
        <time>2019-03-11T16:23:24Z</time>
      </trkpt>
      <trkpt lat="32.476935004815459" lon="-5.133412946015596">
        <ele>1815.5899999999999</ele>
        <time>2019-03-11T16:23:25Z</time>
      </trkpt>
      <trkpt lat="32.476893179118633" lon="-5.133235165849328">
        <ele>1815.5899999999999</ele>
        <time>2019-03-11T16:23:26Z</time>
      </trkpt>
      <trkpt lat="32.47682654298842" lon="-5.1330656837672">
        <ele>1816.0699999999999</ele>
        <time>2019-03-11T16:23:28Z</time>
      </trkpt>
      <trkpt lat="32.476684134453535" lon="-5.132713643833995">
        <ele>1817.51</ele>
        <time>2019-03-11T16:23:29Z</time>
      </trkpt>
      <trkpt lat="32.476628562435508" lon="-5.132519267499447">
        <ele>1812.7</ele>
        <time>2019-03-11T16:23:30Z</time>
      </trkpt>
      <trkpt lat="32.476581959053874" lon="-5.13231324031949">
        <ele>1811.74</ele>
        <time>2019-03-11T16:23:38Z</time>
      </trkpt>
      <trkpt lat="32.476328741759062" lon="-5.130506856366992">
        <ele>1807.9000000000001</ele>
        <time>2019-03-11T16:23:44Z</time>
      </trkpt>
      <trkpt lat="32.476220363751054" lon="-5.129234148189426">
        <ele>1807.9000000000001</ele>
        <time>2019-03-11T16:23:45Z</time>
      </trkpt>
      <trkpt lat="32.476250119507313" lon="-5.129014458507299">
        <ele>1807.9000000000001</ele>
        <time>2019-03-11T16:23:53Z</time>
      </trkpt>
      <trkpt lat="32.476465282961726" lon="-5.127374539151788">
        <ele>1801.6500000000001</ele>
        <time>2019-03-11T16:23:54Z</time>
      </trkpt>
      <trkpt lat="32.47644399292767" lon="-5.127192568033934">
        <ele>1802.1300000000001</ele>
        <time>2019-03-11T16:23:55Z</time>
      </trkpt>
      <trkpt lat="32.47640929184854" lon="-5.127013111487031">
        <ele>1802.1300000000001</ele>
        <time>2019-03-11T16:24:04Z</time>
      </trkpt>
      <trkpt lat="32.475834041833878" lon="-5.125254588201642">
        <ele>1802.6099999999999</ele>
        <time>2019-03-11T16:24:15Z</time>
      </trkpt>
      <trkpt lat="32.475077994167805" lon="-5.123002035543323">
        <ele>1803.0899999999999</ele>
        <time>2019-03-11T16:24:16Z</time>
      </trkpt>
      <trkpt lat="32.475017057731748" lon="-5.122854011133313">
        <ele>1803.0899999999999</ele>
        <time>2019-03-11T16:24:17Z</time>
      </trkpt>
      <trkpt lat="32.47493751347065" lon="-5.122719816863537">
        <ele>1803.0899999999999</ele>
        <time>2019-03-11T16:24:18Z</time>
      </trkpt>
      <trkpt lat="32.474841540679336" lon="-5.122591741383076">
        <ele>1803.0899999999999</ele>
        <time>2019-03-11T16:24:19Z</time>
      </trkpt>
      <trkpt lat="32.474739030003548" lon="-5.122460061684251">
        <ele>1802.1300000000001</ele>
        <time>2019-03-11T16:24:20Z</time>
      </trkpt>
      <trkpt lat="32.47464045882225" lon="-5.122310277074575">
        <ele>1797.8</ele>
        <time>2019-03-11T16:24:21Z</time>
      </trkpt>
      <trkpt lat="32.474549766629934" lon="-5.122139118611813">
        <ele>1797.8</ele>
        <time>2019-03-11T16:24:22Z</time>
      </trkpt>
      <trkpt lat="32.474462930113077" lon="-5.12195035815239">
        <ele>1797.8</ele>
        <time>2019-03-11T16:24:30Z</time>
      </trkpt>
      <trkpt lat="32.473643515259027" lon="-5.120485620573163">
        <ele>1798.28</ele>
        <time>2019-03-11T16:24:31Z</time>
      </trkpt>
      <trkpt lat="32.473527928814292" lon="-5.120352851226926">
        <ele>1798.28</ele>
        <time>2019-03-11T16:24:32Z</time>
      </trkpt>
      <trkpt lat="32.473411504179239" lon="-5.120239527896047">
        <ele>1799.24</ele>
        <time>2019-03-11T16:24:33Z</time>
      </trkpt>
      <trkpt lat="32.473298516124487" lon="-5.120151182636619">
        <ele>1799.24</ele>
        <time>2019-03-11T16:24:34Z</time>
      </trkpt>
      <trkpt lat="32.473187372088432" lon="-5.120090916752815">
        <ele>1799.73</ele>
        <time>2019-03-11T16:24:35Z</time>
      </trkpt>
      <trkpt lat="32.47307731769979" lon="-5.120064346119762">
        <ele>1799.73</ele>
        <time>2019-03-11T16:24:36Z</time>
      </trkpt>
      <trkpt lat="32.472962569445372" lon="-5.120071051642299">
        <ele>1800.21</ele>
        <time>2019-03-11T16:24:37Z</time>
      </trkpt>
      <trkpt lat="32.472846228629351" lon="-5.120104495435953">
        <ele>1799.73</ele>
        <time>2019-03-11T16:24:38Z</time>
      </trkpt>
      <trkpt lat="32.472725948318839" lon="-5.120146069675684">
        <ele>1799.73</ele>
        <time>2019-03-11T16:24:39Z</time>
      </trkpt>
      <trkpt lat="32.472599297761917" lon="-5.120176915079355">
        <ele>1799.24</ele>
        <time>2019-03-11T16:24:40Z</time>
      </trkpt>
      <trkpt lat="32.472466612234712" lon="-5.120186386629939">
        <ele>1798.76</ele>
        <time>2019-03-11T16:24:41Z</time>
      </trkpt>
      <trkpt lat="32.472329400479794" lon="-5.120175406336784">
        <ele>1798.28</ele>
        <time>2019-03-11T16:24:42Z</time>
      </trkpt>
      <trkpt lat="32.4721909314394" lon="-5.120145231485367">
        <ele>1795.8800000000001</ele>
        <time>2019-03-11T16:24:43Z</time>
      </trkpt>
      <trkpt lat="32.472054557874799" lon="-5.120096784085035">
        <ele>1789.6300000000001</ele>
        <time>2019-03-11T16:24:44Z</time>
      </trkpt>
      <trkpt lat="32.471925476565957" lon="-5.120028387755156">
        <ele>1789.1500000000001</ele>
        <time>2019-03-11T16:24:48Z</time>
      </trkpt>
      <trkpt lat="32.471569748595357" lon="-5.119515080004931">
        <ele>1789.1500000000001</ele>
        <time>2019-03-11T16:24:56Z</time>
      </trkpt>
      <trkpt lat="32.471190970391035" lon="-5.118130473420024">
        <ele>1788.6700000000001</ele>
        <time>2019-03-11T16:24:57Z</time>
      </trkpt>
      <trkpt lat="32.471194742247462" lon="-5.117981191724539">
        <ele>1788.1900000000001</ele>
        <time>2019-03-11T16:24:58Z</time>
      </trkpt>
      <trkpt lat="32.471223743632436" lon="-5.117836855351925">
        <ele>1788.1900000000001</ele>
        <time>2019-03-11T16:24:59Z</time>
      </trkpt>
      <trkpt lat="32.471283003687859" lon="-5.117701990529895">
        <ele>1787.71</ele>
        <time>2019-03-11T16:25:00Z</time>
      </trkpt>
      <trkpt lat="32.47136908583343" lon="-5.117584308609366">
        <ele>1787.23</ele>
        <time>2019-03-11T16:25:01Z</time>
      </trkpt>
      <trkpt lat="32.471476793289185" lon="-5.117481714114547">
        <ele>1784.3399999999999</ele>
        <time>2019-03-11T16:25:02Z</time>
      </trkpt>
      <trkpt lat="32.47159430757165" lon="-5.117383059114218">
        <ele>1779.54</ele>
        <time>2019-03-11T16:25:06Z</time>
      </trkpt>
      <trkpt lat="32.472100239247084" lon="-5.116964550688863">
        <ele>1777.1300000000001</ele>
        <time>2019-03-11T16:25:12Z</time>
      </trkpt>
      <trkpt lat="32.472693594172597" lon="-5.116182938218117">
        <ele>1773.77</ele>
        <time>2019-03-11T16:25:17Z</time>
      </trkpt>
      <trkpt lat="32.472708430141211" lon="-5.115650519728661">
        <ele>1768.48</ele>
        <time>2019-03-11T16:25:20Z</time>
      </trkpt>
      <trkpt lat="32.472431743517518" lon="-5.115533256903291">
        <ele>1768.96</ele>
        <time>2019-03-11T16:25:24Z</time>
      </trkpt>
      <trkpt lat="32.471961937844753" lon="-5.115460501983762">
        <ele>1772.8099999999999</ele>
        <time>2019-03-11T16:25:33Z</time>
      </trkpt>
      <trkpt lat="32.471230616793036" lon="-5.115003101527691">
        <ele>1775.6900000000001</ele>
        <time>2019-03-11T16:25:39Z</time>
      </trkpt>
      <trkpt lat="32.470783442258835" lon="-5.114711998030543">
        <ele>1776.1700000000001</ele>
        <time>2019-03-11T16:25:46Z</time>
      </trkpt>
      <trkpt lat="32.470427798107266" lon="-5.114873349666596">
        <ele>1778.0999999999999</ele>
        <time>2019-03-11T16:25:54Z</time>
      </trkpt>
      <trkpt lat="32.469903761520982" lon="-5.115398056805134">
        <ele>1779.0599999999999</ele>
        <time>2019-03-11T16:26:00Z</time>
      </trkpt>
      <trkpt lat="32.469122568145394" lon="-5.115676838904619">
        <ele>1793.96</ele>
        <time>2019-03-11T16:26:05Z</time>
      </trkpt>
      <trkpt lat="32.468425193801522" lon="-5.115370396524668">
        <ele>1797.3199999999999</ele>
        <time>2019-03-11T16:26:06Z</time>
      </trkpt>
      <trkpt lat="32.468313798308372" lon="-5.115244584158063">
        <ele>1799.24</ele>
        <time>2019-03-11T16:26:17Z</time>
      </trkpt>
      <trkpt lat="32.46709750033915" lon="-5.113748665899038">
        <ele>1805.01</ele>
        <time>2019-03-11T16:26:20Z</time>
      </trkpt>
      <trkpt lat="32.466727104038" lon="-5.113441301509738">
        <ele>1803.0899999999999</ele>
        <time>2019-03-11T16:26:22Z</time>
      </trkpt>
      <trkpt lat="32.466451087966561" lon="-5.113276345655322">
        <ele>1802.6099999999999</ele>
        <time>2019-03-11T16:26:27Z</time>
      </trkpt>
      <trkpt lat="32.466039704158902" lon="-5.112703358754516">
        <ele>1805.01</ele>
        <time>2019-03-11T16:26:35Z</time>
      </trkpt>
      <trkpt lat="32.465445343405008" lon="-5.111392512917519">
        <ele>1806.9400000000001</ele>
        <time>2019-03-11T16:26:41Z</time>
      </trkpt>
      <trkpt lat="32.464788034558296" lon="-5.110951373353601">
        <ele>1816.0699999999999</ele>
        <time>2019-03-11T16:26:46Z</time>
      </trkpt>
      <trkpt lat="32.464323760941625" lon="-5.111092440783978">
        <ele>1820.8699999999999</ele>
        <time>2019-03-11T16:26:51Z</time>
      </trkpt>
      <trkpt lat="32.463971050456166" lon="-5.110699329525232">
        <ele>1824.72</ele>
        <time>2019-03-11T16:27:00Z</time>
      </trkpt>
      <trkpt lat="32.46348355896771" lon="-5.109373731538653">
        <ele>1826.1600000000001</ele>
        <time>2019-03-11T16:27:04Z</time>
      </trkpt>
      <trkpt lat="32.463151467964053" lon="-5.108872074633837">
        <ele>1824.72</ele>
        <time>2019-03-11T16:27:08Z</time>
      </trkpt>
      <trkpt lat="32.46303403750062" lon="-5.108361952006817">
        <ele>1824.24</ele>
        <time>2019-03-11T16:27:15Z</time>
      </trkpt>
      <trkpt lat="32.462830189615488" lon="-5.107832718640566">
        <ele>1820.3900000000001</ele>
        <time>2019-03-11T16:27:21Z</time>
      </trkpt>
      <trkpt lat="32.462264746427536" lon="-5.10808409191668">
        <ele>1817.03</ele>
        <time>2019-03-11T16:27:22Z</time>
      </trkpt>
      <trkpt lat="32.46222048997879" lon="-5.10820378549397">
        <ele>1811.74</ele>
        <time>2019-03-11T16:27:27Z</time>
      </trkpt>
      <trkpt lat="32.461874736472964" lon="-5.10857024230063">
        <ele>1809.8199999999999</ele>
        <time>2019-03-11T16:27:31Z</time>
      </trkpt>
      <trkpt lat="32.461333349347115" lon="-5.108705693855882">
        <ele>1808.3800000000001</ele>
        <time>2019-03-11T16:27:37Z</time>
      </trkpt>
      <trkpt lat="32.460442185401917" lon="-5.108555573970079">
        <ele>1807.4200000000001</ele>
        <time>2019-03-11T16:27:40Z</time>
      </trkpt>
      <trkpt lat="32.460025018081069" lon="-5.108244102448225">
        <ele>1807.4200000000001</ele>
        <time>2019-03-11T16:27:46Z</time>
      </trkpt>
      <trkpt lat="32.459606928750873" lon="-5.107350759208202">
        <ele>1807.9000000000001</ele>
        <time>2019-03-11T16:27:51Z</time>
      </trkpt>
      <trkpt lat="32.459170566871762" lon="-5.106571242213249">
        <ele>1809.3399999999999</ele>
        <time>2019-03-11T16:27:53Z</time>
      </trkpt>
      <trkpt lat="32.458904525265098" lon="-5.106376195326448">
        <ele>1809.8199999999999</ele>
        <time>2019-03-11T16:27:55Z</time>
      </trkpt>
      <trkpt lat="32.458632783964276" lon="-5.106223644688726">
        <ele>1808.8599999999999</ele>
        <time>2019-03-11T16:27:59Z</time>
      </trkpt>
      <trkpt lat="32.458372693508863" lon="-5.105747384950519">
        <ele>1808.8599999999999</ele>
        <time>2019-03-11T16:28:01Z</time>
      </trkpt>
      <trkpt lat="32.458364060148597" lon="-5.105439014732838">
        <ele>1809.8199999999999</ele>
        <time>2019-03-11T16:28:07Z</time>
      </trkpt>
      <trkpt lat="32.457935744896531" lon="-5.104869632050395">
        <ele>1811.26</ele>
        <time>2019-03-11T16:28:08Z</time>
      </trkpt>
      <trkpt lat="32.457811692729592" lon="-5.104873823001981">
        <ele>1810.78</ele>
        <time>2019-03-11T16:28:13Z</time>
      </trkpt>
      <trkpt lat="32.457149522379041" lon="-5.104992594569922">
        <ele>1811.26</ele>
        <time>2019-03-11T16:28:17Z</time>
      </trkpt>
      <trkpt lat="32.45660712942481" lon="-5.104855885729194">
        <ele>1812.22</ele>
        <time>2019-03-11T16:28:20Z</time>
      </trkpt>
      <trkpt lat="32.456194153055549" lon="-5.10453712195158">
        <ele>1812.22</ele>
        <time>2019-03-11T16:28:23Z</time>
      </trkpt>
      <trkpt lat="32.455726191401482" lon="-5.104316594079137">
        <ele>1812.7</ele>
        <time>2019-03-11T16:28:28Z</time>
      </trkpt>
      <trkpt lat="32.455383623018861" lon="-5.103884926065803">
        <ele>1812.22</ele>
        <time>2019-03-11T16:28:34Z</time>
      </trkpt>
      <trkpt lat="32.45517642237246" lon="-5.103424424305558">
        <ele>1808.3800000000001</ele>
        <time>2019-03-11T16:28:37Z</time>
      </trkpt>
      <trkpt lat="32.454977603629231" lon="-5.103612262755632">
        <ele>1804.05</ele>
        <time>2019-03-11T16:28:43Z</time>
      </trkpt>
      <trkpt lat="32.454443508759141" lon="-5.103877717629075">
        <ele>1804.53</ele>
        <time>2019-03-11T16:28:48Z</time>
      </trkpt>
      <trkpt lat="32.453675894066691" lon="-5.103699853643775">
        <ele>1806.45</ele>
        <time>2019-03-11T16:28:54Z</time>
      </trkpt>
      <trkpt lat="32.452715914696455" lon="-5.103038186207414">
        <ele>1807.4200000000001</ele>
        <time>2019-03-11T16:28:58Z</time>
      </trkpt>
      <trkpt lat="32.452291874215007" lon="-5.102420607581735">
        <ele>1808.3800000000001</ele>
        <time>2019-03-11T16:29:08Z</time>
      </trkpt>
      <trkpt lat="32.451371708884835" lon="-5.100596202537417">
        <ele>1810.78</ele>
        <time>2019-03-11T16:29:11Z</time>
      </trkpt>
      <trkpt lat="32.451074318960309" lon="-5.10028749704361">
        <ele>1811.26</ele>
        <time>2019-03-11T16:29:15Z</time>
      </trkpt>
      <trkpt lat="32.450679363682866" lon="-5.100168809294701">
        <ele>1811.74</ele>
        <time>2019-03-11T16:29:22Z</time>
      </trkpt>
      <trkpt lat="32.450106292963028" lon="-5.099792964756489">
        <ele>1816.0699999999999</ele>
        <time>2019-03-11T16:29:23Z</time>
      </trkpt>
      <trkpt lat="32.45007905177772" lon="-5.099669834598899">
        <ele>1819.4300000000001</ele>
        <time>2019-03-11T16:29:29Z</time>
      </trkpt>
      <trkpt lat="32.449686778709292" lon="-5.09921939112246">
        <ele>1821.8399999999999</ele>
        <time>2019-03-11T16:29:35Z</time>
      </trkpt>
      <trkpt lat="32.449254607781768" lon="-5.098996516317129">
        <ele>1821.3499999999999</ele>
        <time>2019-03-11T16:29:40Z</time>
      </trkpt>
      <trkpt lat="32.449227450415492" lon="-5.098417242988944">
        <ele>1818.95</ele>
        <time>2019-03-11T16:29:44Z</time>
      </trkpt>
      <trkpt lat="32.448879182338715" lon="-5.09840383194387">
        <ele>1818.95</ele>
        <time>2019-03-11T16:29:51Z</time>
      </trkpt>
      <trkpt lat="32.44811232201755" lon="-5.09883726015687">
        <ele>1820.3900000000001</ele>
        <time>2019-03-11T16:29:55Z</time>
      </trkpt>
      <trkpt lat="32.44761778973043" lon="-5.098864166066051">
        <ele>1820.3900000000001</ele>
        <time>2019-03-11T16:30:03Z</time>
      </trkpt>
      <trkpt lat="32.446824442595243" lon="-5.09867942892015">
        <ele>1816.0699999999999</ele>
        <time>2019-03-11T16:30:10Z</time>
      </trkpt>
      <trkpt lat="32.446485310792923" lon="-5.098578259348869">
        <ele>1816.55</ele>
        <time>2019-03-11T16:30:16Z</time>
      </trkpt>
      <trkpt lat="32.446218263357878" lon="-5.098681608214974">
        <ele>1819.4300000000001</ele>
        <time>2019-03-11T16:30:31Z</time>
      </trkpt>
      <trkpt lat="32.445863792672753" lon="-5.099106654524803">
        <ele>1821.8399999999999</ele>
        <time>2019-03-11T16:30:42Z</time>
      </trkpt>
      <trkpt lat="32.445508986711502" lon="-5.0991465523839">
        <ele>1823.76</ele>
        <time>2019-03-11T16:30:49Z</time>
      </trkpt>
      <trkpt lat="32.445073211565614" lon="-5.098987380042672">
        <ele>1825.2</ele>
        <time>2019-03-11T16:30:53Z</time>
      </trkpt>
      <trkpt lat="32.444785544648767" lon="-5.098846899345517">
        <ele>1826.1600000000001</ele>
        <time>2019-03-11T16:30:58Z</time>
      </trkpt>
      <trkpt lat="32.444473318755627" lon="-5.098572643473744">
        <ele>1828.0799999999999</ele>
        <time>2019-03-11T16:31:03Z</time>
      </trkpt>
      <trkpt lat="32.443973841145635" lon="-5.098253376781941">
        <ele>1829.53</ele>
        <time>2019-03-11T16:31:07Z</time>
      </trkpt>
      <trkpt lat="32.443592213094234" lon="-5.097835035994649">
        <ele>1832.4100000000001</ele>
        <time>2019-03-11T16:31:11Z</time>
      </trkpt>
      <trkpt lat="32.443264815956354" lon="-5.097242603078485">
        <ele>1832.8900000000001</ele>
        <time>2019-03-11T16:31:16Z</time>
      </trkpt>
      <trkpt lat="32.442667437717319" lon="-5.096727451309562">
        <ele>1832.8900000000001</ele>
        <time>2019-03-11T16:31:21Z</time>
      </trkpt>
      <trkpt lat="32.442210037261248" lon="-5.096717728301883">
        <ele>1833.8499999999999</ele>
        <time>2019-03-11T16:31:24Z</time>
      </trkpt>
      <trkpt lat="32.442128146067262" lon="-5.097050992771983">
        <ele>1835.29</ele>
        <time>2019-03-11T16:31:26Z</time>
      </trkpt>
      <trkpt lat="32.44213686324656" lon="-5.097327847033739">
        <ele>1835.77</ele>
        <time>2019-03-11T16:31:32Z</time>
      </trkpt>
      <trkpt lat="32.441831426694989" lon="-5.097962440922856">
        <ele>1837.22</ele>
        <time>2019-03-11T16:31:37Z</time>
      </trkpt>
      <trkpt lat="32.441167328506708" lon="-5.098021533340216">
        <ele>1837.7</ele>
        <time>2019-03-11T16:31:39Z</time>
      </trkpt>
      <trkpt lat="32.440881840884686" lon="-5.097897397354245">
        <ele>1838.1800000000001</ele>
        <time>2019-03-11T16:31:43Z</time>
      </trkpt>
      <trkpt lat="32.440370880067348" lon="-5.097911562770605">
        <ele>1838.1800000000001</ele>
        <time>2019-03-11T16:31:45Z</time>
      </trkpt>
      <trkpt lat="32.440125374123454" lon="-5.098056318238378">
        <ele>1839.6199999999999</ele>
        <time>2019-03-11T16:31:50Z</time>
      </trkpt>
      <trkpt lat="32.439575772732496" lon="-5.09792254306376">
        <ele>1844.4300000000001</ele>
        <time>2019-03-11T16:31:52Z</time>
      </trkpt>
      <trkpt lat="32.439367985352874" lon="-5.097698662430048">
        <ele>1846.3499999999999</ele>
        <time>2019-03-11T16:31:57Z</time>
      </trkpt>
      <trkpt lat="32.43888258934021" lon="-5.097675360739231">
        <ele>1846.8299999999999</ele>
        <time>2019-03-11T16:32:03Z</time>
      </trkpt>
      <trkpt lat="32.43839593604207" lon="-5.098323533311486">
        <ele>1846.8299999999999</ele>
        <time>2019-03-11T16:32:08Z</time>
      </trkpt>
      <trkpt lat="32.437735693529248" lon="-5.098432833328843">
        <ele>1847.3099999999999</ele>
        <time>2019-03-11T16:32:13Z</time>
      </trkpt>
      <trkpt lat="32.437337888404727" lon="-5.09794844314456">
        <ele>1848.75</ele>
        <time>2019-03-11T16:32:14Z</time>
      </trkpt>
      <trkpt lat="32.437297655269504" lon="-5.097802765667439">
        <ele>1849.71</ele>
        <time>2019-03-11T16:32:17Z</time>
      </trkpt>
      <trkpt lat="32.437208220362663" lon="-5.09736062027514">
        <ele>1849.71</ele>
        <time>2019-03-11T16:32:22Z</time>
      </trkpt>
      <trkpt lat="32.436791136860847" lon="-5.096903052181006">
        <ele>1850.6800000000001</ele>
        <time>2019-03-11T16:32:27Z</time>
      </trkpt>
      <trkpt lat="32.436145227402449" lon="-5.097150318324566">
        <ele>1848.75</ele>
        <time>2019-03-11T16:32:28Z</time>
      </trkpt>
      <trkpt lat="32.43602067232132" lon="-5.097259702160955">
        <ele>1848.75</ele>
        <time>2019-03-11T16:32:36Z</time>
      </trkpt>
      <trkpt lat="32.43479666300118" lon="-5.097829923033714">
        <ele>1852.1199999999999</ele>
        <time>2019-03-11T16:32:40Z</time>
      </trkpt>
      <trkpt lat="32.43416584096849" lon="-5.098061179742217">
        <ele>1857.4000000000001</ele>
        <time>2019-03-11T16:32:45Z</time>
      </trkpt>
      <trkpt lat="32.433797204867005" lon="-5.098561495542526">
        <ele>1858.3699999999999</ele>
        <time>2019-03-11T16:32:50Z</time>
      </trkpt>
      <trkpt lat="32.43354918435216" lon="-5.09932835586369">
        <ele>1865.5799999999999</ele>
        <time>2019-03-11T16:32:56Z</time>
      </trkpt>
      <trkpt lat="32.432906543835998" lon="-5.100113237276673">
        <ele>1867.98</ele>
        <time>2019-03-11T16:32:57Z</time>
      </trkpt>
      <trkpt lat="32.432751813903451" lon="-5.100176185369492">
        <ele>1869.9000000000001</ele>
        <time>2019-03-11T16:33:05Z</time>
      </trkpt>
      <trkpt lat="32.431553369387984" lon="-5.100725870579481">
        <ele>1865.5799999999999</ele>
        <time>2019-03-11T16:33:07Z</time>
      </trkpt>
      <trkpt lat="32.431355053558946" lon="-5.100869620218873">
        <ele>1861.25</ele>
        <time>2019-03-11T16:33:12Z</time>
      </trkpt>
      <trkpt lat="32.431225720793009" lon="-5.101286200806499">
        <ele>1864.1300000000001</ele>
        <time>2019-03-11T16:33:17Z</time>
      </trkpt>
      <trkpt lat="32.43133619427681" lon="-5.102060940116644">
        <ele>1868.9400000000001</ele>
        <time>2019-03-11T16:33:22Z</time>
      </trkpt>
      <trkpt lat="32.431186577305198" lon="-5.103059308603406">
        <ele>1870.3800000000001</ele>
        <time>2019-03-11T16:33:28Z</time>
      </trkpt>
      <trkpt lat="32.4312883336097" lon="-5.104140406474471">
        <ele>1885.76</ele>
        <time>2019-03-11T16:33:32Z</time>
      </trkpt>
      <trkpt lat="32.431070990860462" lon="-5.104608871042728">
        <ele>1891.53</ele>
        <time>2019-03-11T16:33:33Z</time>
      </trkpt>
      <trkpt lat="32.430972252041101" lon="-5.104670142754912">
        <ele>1894.4200000000001</ele>
        <time>2019-03-11T16:33:42Z</time>
      </trkpt>
      <trkpt lat="32.429893752560019" lon="-5.105063756927848">
        <ele>1894.4200000000001</ele>
        <time>2019-03-11T16:33:47Z</time>
      </trkpt>
      <trkpt lat="32.429410452023149" lon="-5.105429040268064">
        <ele>1895.8599999999999</ele>
        <time>2019-03-11T16:33:51Z</time>
      </trkpt>
      <trkpt lat="32.429004684090614" lon="-5.105576394125819">
        <ele>1909.8</ele>
        <time>2019-03-11T16:33:55Z</time>
      </trkpt>
      <trkpt lat="32.428573435172439" lon="-5.105830365791917">
        <ele>1921.3299999999999</ele>
        <time>2019-03-11T16:34:04Z</time>
      </trkpt>
      <trkpt lat="32.427609181031585" lon="-5.107237100601196">
        <ele>1931.4300000000001</ele>
        <time>2019-03-11T16:34:15Z</time>
      </trkpt>
      <trkpt lat="32.426322726532817" lon="-5.10953483171761">
        <ele>1935.75</ele>
        <time>2019-03-11T16:34:24Z</time>
      </trkpt>
      <trkpt lat="32.425220757722855" lon="-5.111442720517516">
        <ele>1942.96</ele>
        <time>2019-03-11T16:34:31Z</time>
      </trkpt>
      <trkpt lat="32.424703342840075" lon="-5.112916259095073">
        <ele>1945.3599999999999</ele>
        <time>2019-03-11T16:34:34Z</time>
      </trkpt>
      <trkpt lat="32.424563700333238" lon="-5.113605922088027">
        <ele>1946.8099999999999</ele>
        <time>2019-03-11T16:34:40Z</time>
      </trkpt>
      <trkpt lat="32.423986857756972" lon="-5.114648882299662">
        <ele>1946.8099999999999</ele>
        <time>2019-03-11T16:34:43Z</time>
      </trkpt>
      <trkpt lat="32.423612773418427" lon="-5.115020535886288">
        <ele>1947.29</ele>
        <time>2019-03-11T16:34:48Z</time>
      </trkpt>
      <trkpt lat="32.423492074012756" lon="-5.115525545552373">
        <ele>1964.1099999999999</ele>
        <time>2019-03-11T16:34:51Z</time>
      </trkpt>
      <trkpt lat="32.423575557768345" lon="-5.115952268242836">
        <ele>1991.51</ele>
        <time>2019-03-11T16:34:55Z</time>
      </trkpt>
      <trkpt lat="32.423542616888881" lon="-5.11671032756567">
        <ele>2004.49</ele>
        <time>2019-03-11T16:35:05Z</time>
      </trkpt>
      <trkpt lat="32.422989327460527" lon="-5.118785100057721">
        <ele>2019.3900000000001</ele>
        <time>2019-03-11T16:35:17Z</time>
      </trkpt>
      <trkpt lat="32.422648184001446" lon="-5.121110491454601">
        <ele>2037.1700000000001</ele>
        <time>2019-03-11T16:35:23Z</time>
      </trkpt>
      <trkpt lat="32.422247445210814" lon="-5.121876765042543">
        <ele>2039.5699999999999</ele>
        <time>2019-03-11T16:35:30Z</time>
      </trkpt>
      <trkpt lat="32.421488799154758" lon="-5.122469700872898">
        <ele>2046.78</ele>
        <time>2019-03-11T16:35:40Z</time>
      </trkpt>
      <trkpt lat="32.420598724856973" lon="-5.123886410146952">
        <ele>2053.0300000000002</ele>
        <time>2019-03-11T16:35:42Z</time>
      </trkpt>
      <trkpt lat="32.420408120378852" lon="-5.124117499217391">
        <ele>2056.8800000000001</ele>
        <time>2019-03-11T16:35:47Z</time>
      </trkpt>
      <trkpt lat="32.419830439612269" lon="-5.124374907463789">
        <ele>2056.8800000000001</ele>
        <time>2019-03-11T16:35:53Z</time>
      </trkpt>
      <trkpt lat="32.419222751632333" lon="-5.124391838908196">
        <ele>2059.7600000000002</ele>
        <time>2019-03-11T16:35:59Z</time>
      </trkpt>
      <trkpt lat="32.419019574299455" lon="-5.124074164777994">
        <ele>2061.6799999999998</ele>
        <time>2019-03-11T16:36:00Z</time>
      </trkpt>
      <trkpt lat="32.419050838798285" lon="-5.124010127037764">
        <ele>2064.5700000000002</ele>
        <time>2019-03-11T16:36:11Z</time>
      </trkpt>
      <trkpt lat="32.419211100786924" lon="-5.123453736305237">
        <ele>2068.8899999999999</ele>
        <time>2019-03-11T16:36:16Z</time>
      </trkpt>
      <trkpt lat="32.419149577617645" lon="-5.123225161805749">
        <ele>2072.2600000000002</ele>
        <time>2019-03-11T16:36:22Z</time>
      </trkpt>
      <trkpt lat="32.418937850743532" lon="-5.123005472123623">
        <ele>2081.3899999999999</ele>
        <time>2019-03-11T16:36:27Z</time>
      </trkpt>
      <trkpt lat="32.418602490797639" lon="-5.122898267582059">
        <ele>2090.04</ele>
        <time>2019-03-11T16:36:30Z</time>
      </trkpt>
      <trkpt lat="32.418321864679456" lon="-5.122904973104596">
        <ele>2096.77</ele>
        <time>2019-03-11T16:36:36Z</time>
      </trkpt>
      <trkpt lat="32.417855244129896" lon="-5.123325577005744">
        <ele>2101.0999999999999</ele>
        <time>2019-03-11T16:36:42Z</time>
      </trkpt>
      <trkpt lat="32.417455092072487" lon="-5.123798651620746">
        <ele>2105.9099999999999</ele>
        <time>2019-03-11T16:36:49Z</time>
      </trkpt>
      <trkpt lat="32.416934743523598" lon="-5.124200563877821">
        <ele>2110.23</ele>
        <time>2019-03-11T16:36:58Z</time>
      </trkpt>
      <trkpt lat="32.416582200676203" lon="-5.125582991167903">
        <ele>2119.8400000000001</ele>
        <time>2019-03-11T16:37:06Z</time>
      </trkpt>
      <trkpt lat="32.41615841165185" lon="-5.126908253878355">
        <ele>2133.3000000000002</ele>
        <time>2019-03-11T16:37:09Z</time>
      </trkpt>
      <trkpt lat="32.41607928648591" lon="-5.127572938799858">
        <ele>2138.1100000000001</ele>
        <time>2019-03-11T16:37:13Z</time>
      </trkpt>
      <trkpt lat="32.415803354233503" lon="-5.128377433866262">
        <ele>2141.9499999999998</ele>
        <time>2019-03-11T16:37:20Z</time>
      </trkpt>
      <trkpt lat="32.415221482515335" lon="-5.129583170637488">
        <ele>2141.9499999999998</ele>
        <time>2019-03-11T16:37:25Z</time>
      </trkpt>
      <trkpt lat="32.414784533903003" lon="-5.129816019907594">
        <ele>2143.4000000000001</ele>
        <time>2019-03-11T16:37:31Z</time>
      </trkpt>
      <trkpt lat="32.414423106238246" lon="-5.130048533901572">
        <ele>2143.4000000000001</ele>
        <time>2019-03-11T16:37:32Z</time>
      </trkpt>
      <trkpt lat="32.414392847567797" lon="-5.130133107304573">
        <ele>2146.2800000000002</ele>
        <time>2019-03-11T16:37:40Z</time>
      </trkpt>
      <trkpt lat="32.414052961394191" lon="-5.131259970366955">
        <ele>2147.2399999999998</ele>
        <time>2019-03-11T16:37:41Z</time>
      </trkpt>
      <trkpt lat="32.414001328870654" lon="-5.131424171850085">
        <ele>2153.0100000000002</ele>
        <time>2019-03-11T16:37:46Z</time>
      </trkpt>
      <trkpt lat="32.413583071902394" lon="-5.131690045818687">
        <ele>2165.9899999999998</ele>
        <time>2019-03-11T16:37:47Z</time>
      </trkpt>
      <trkpt lat="32.413489110767841" lon="-5.131645034998655">
        <ele>2170.79</ele>
        <time>2019-03-11T16:37:53Z</time>
      </trkpt>
      <trkpt lat="32.412992063909769" lon="-5.131717789918184">
        <ele>2175.1199999999999</ele>
        <time>2019-03-11T16:38:03Z</time>
      </trkpt>
      <trkpt lat="32.412402145564556" lon="-5.132596883922815">
        <ele>2178.48</ele>
        <time>2019-03-11T16:38:08Z</time>
      </trkpt>
      <trkpt lat="32.411963604390621" lon="-5.132810957729816">
        <ele>2181.8499999999999</ele>
        <time>2019-03-11T16:38:13Z</time>
      </trkpt>
      <trkpt lat="32.411356084048748" lon="-5.132914055138826">
        <ele>2182.3299999999999</ele>
        <time>2019-03-11T16:38:17Z</time>
      </trkpt>
      <trkpt lat="32.410941682755947" lon="-5.133191077038646">
        <ele>2183.77</ele>
        <time>2019-03-11T16:38:22Z</time>
      </trkpt>
      <trkpt lat="32.410484198480844" lon="-5.133199710398912">
        <ele>2188.0999999999999</ele>
        <time>2019-03-11T16:38:23Z</time>
      </trkpt>
      <trkpt lat="32.410427872091532" lon="-5.133100217208266">
        <ele>2190.5</ele>
        <time>2019-03-11T16:38:25Z</time>
      </trkpt>
      <trkpt lat="32.410314800217748" lon="-5.132880359888077">
        <ele>2194.8299999999999</ele>
        <time>2019-03-11T16:38:30Z</time>
      </trkpt>
      <trkpt lat="32.409797804430127" lon="-5.132509209215641">
        <ele>2195.79</ele>
        <time>2019-03-11T16:38:34Z</time>
      </trkpt>
      <trkpt lat="32.409144351258874" lon="-5.132499737665057">
        <ele>2197.71</ele>
        <time>2019-03-11T16:38:40Z</time>
      </trkpt>
      <trkpt lat="32.408402636647224" lon="-5.132095478475094">
        <ele>2201.0799999999999</ele>
        <time>2019-03-11T16:38:42Z</time>
      </trkpt>
      <trkpt lat="32.408415293321013" lon="-5.13184268027544">
        <ele>2199.1500000000001</ele>
        <time>2019-03-11T16:38:45Z</time>
      </trkpt>
      <trkpt lat="32.408520989120007" lon="-5.131446048617363">
        <ele>2196.27</ele>
        <time>2019-03-11T16:38:49Z</time>
      </trkpt>
      <trkpt lat="32.408430129289627" lon="-5.130895860493183">
        <ele>2190.02</ele>
        <time>2019-03-11T16:38:58Z</time>
      </trkpt>
      <trkpt lat="32.407739544287324" lon="-5.129661792889237">
        <ele>2181.8499999999999</ele>
        <time>2019-03-11T16:39:01Z</time>
      </trkpt>
      <trkpt lat="32.407567296177149" lon="-5.129183270037174">
        <ele>2174.6399999999999</ele>
        <time>2019-03-11T16:39:05Z</time>
      </trkpt>
      <trkpt lat="32.407544329762459" lon="-5.128457983955741">
        <ele>2173.1999999999998</ele>
        <time>2019-03-11T16:39:10Z</time>
      </trkpt>
      <trkpt lat="32.407663939520717" lon="-5.127649717032909">
        <ele>2169.3499999999999</ele>
        <time>2019-03-11T16:39:15Z</time>
      </trkpt>
      <trkpt lat="32.407441399991512" lon="-5.127292312681675">
        <ele>2160.6999999999998</ele>
        <time>2019-03-11T16:39:16Z</time>
      </trkpt>
      <trkpt lat="32.4073367100209" lon="-5.127251157537103">
        <ele>2156.8600000000001</ele>
        <time>2019-03-11T16:39:19Z</time>
      </trkpt>
      <trkpt lat="32.407014258205891" lon="-5.127068180590868">
        <ele>2152.0500000000002</ele>
        <time>2019-03-11T16:39:25Z</time>
      </trkpt>
      <trkpt lat="32.406756766140461" lon="-5.126450266689062">
        <ele>2148.6799999999998</ele>
        <time>2019-03-11T16:39:28Z</time>
      </trkpt>
      <trkpt lat="32.406940748915076" lon="-5.126129910349846">
        <ele>2145.8000000000002</ele>
        <time>2019-03-11T16:39:34Z</time>
      </trkpt>
      <trkpt lat="32.406972935423255" lon="-5.125598832964897">
        <ele>2143.4000000000001</ele>
        <time>2019-03-11T16:39:39Z</time>
      </trkpt>
      <trkpt lat="32.406424088403583" lon="-5.125322649255395">
        <ele>2138.5900000000001</ele>
        <time>2019-03-11T16:39:42Z</time>
      </trkpt>
      <trkpt lat="32.406168524175882" lon="-5.125039173290134">
        <ele>2133.3000000000002</ele>
        <time>2019-03-11T16:39:44Z</time>
      </trkpt>
      <trkpt lat="32.406033994629979" lon="-5.124770114198327">
        <ele>2129.9400000000001</ele>
        <time>2019-03-11T16:39:49Z</time>
      </trkpt>
      <trkpt lat="32.405638787895441" lon="-5.124517902731895">
        <ele>2123.6900000000001</ele>
        <time>2019-03-11T16:39:55Z</time>
      </trkpt>
      <trkpt lat="32.40502892062068" lon="-5.124589148908854">
        <ele>2114.5599999999999</ele>
        <time>2019-03-11T16:39:59Z</time>
      </trkpt>
      <trkpt lat="32.404690207913518" lon="-5.124121690168977">
        <ele>2102.0599999999999</ele>
        <time>2019-03-11T16:40:03Z</time>
      </trkpt>
      <trkpt lat="32.404433470219374" lon="-5.123416939750314">
        <ele>2094.8499999999999</ele>
        <time>2019-03-11T16:40:08Z</time>
      </trkpt>
      <trkpt lat="32.404009597375989" lon="-5.122783938422799">
        <ele>2091.9699999999998</ele>
        <time>2019-03-11T16:40:15Z</time>
      </trkpt>
      <trkpt lat="32.403131257742643" lon="-5.122205251827836">
        <ele>2078.9899999999998</ele>
        <time>2019-03-11T16:40:20Z</time>
      </trkpt>
      <trkpt lat="32.402562294155359" lon="-5.122246658429503">
        <ele>2064.5700000000002</ele>
        <time>2019-03-11T16:40:22Z</time>
      </trkpt>
      <trkpt lat="32.402351824566722" lon="-5.122479172423482">
        <ele>2063.6100000000001</ele>
        <time>2019-03-11T16:40:30Z</time>
      </trkpt>
      <trkpt lat="32.401370806619525" lon="-5.123942149803042">
        <ele>2064.0900000000001</ele>
        <time>2019-03-11T16:40:36Z</time>
      </trkpt>
      <trkpt lat="32.400635965168476" lon="-5.125139923766255">
        <ele>2066.0100000000002</ele>
        <time>2019-03-11T16:40:44Z</time>
      </trkpt>
      <trkpt lat="32.399987289682031" lon="-5.126797026023269">
        <ele>2066.9699999999998</ele>
        <time>2019-03-11T16:40:45Z</time>
      </trkpt>
      <trkpt lat="32.399899614974856" lon="-5.126960808411241">
        <ele>2065.5300000000002</ele>
        <time>2019-03-11T16:40:50Z</time>
      </trkpt>
      <trkpt lat="32.399736335501075" lon="-5.127866808325052">
        <ele>2051.1100000000001</ele>
        <time>2019-03-11T16:40:55Z</time>
      </trkpt>
      <trkpt lat="32.399473898112774" lon="-5.128275929018855">
        <ele>2034.29</ele>
        <time>2019-03-11T16:40:58Z</time>
      </trkpt>
      <trkpt lat="32.399146584793925" lon="-5.128183057531714">
        <ele>2029.48</ele>
        <time>2019-03-11T16:41:07Z</time>
      </trkpt>
      <trkpt lat="32.39778695628047" lon="-5.127746444195509">
        <ele>2028.52</ele>
        <time>2019-03-11T16:41:16Z</time>
      </trkpt>
      <trkpt lat="32.396545596420765" lon="-5.127452574670315">
        <ele>2029.96</ele>
        <time>2019-03-11T16:41:22Z</time>
      </trkpt>
      <trkpt lat="32.396077886223793" lon="-5.127716101706028">
        <ele>2035.25</ele>
        <time>2019-03-11T16:41:24Z</time>
      </trkpt>
      <trkpt lat="32.396063134074211" lon="-5.12791751883924">
        <ele>2039.5699999999999</ele>
        <time>2019-03-11T16:41:34Z</time>
      </trkpt>
      <trkpt lat="32.395975459367037" lon="-5.129153514280915">
        <ele>2047.75</ele>
        <time>2019-03-11T16:41:44Z</time>
      </trkpt>
      <trkpt lat="32.395892729982734" lon="-5.130915893241763">
        <ele>2046.78</ele>
        <time>2019-03-11T16:41:52Z</time>
      </trkpt>
      <trkpt lat="32.395684104412794" lon="-5.132546341046691">
        <ele>2042.9400000000001</ele>
        <time>2019-03-11T16:42:01Z</time>
      </trkpt>
      <trkpt lat="32.395359976217151" lon="-5.134617006406188">
        <ele>2039.5699999999999</ele>
        <time>2019-03-11T16:42:11Z</time>
      </trkpt>
      <trkpt lat="32.395021431148052" lon="-5.137085812166333">
        <ele>2038.1300000000001</ele>
        <time>2019-03-11T16:42:21Z</time>
      </trkpt>
      <trkpt lat="32.394892685115337" lon="-5.139634581282735">
        <ele>2032.8399999999999</ele>
        <time>2019-03-11T16:42:32Z</time>
      </trkpt>
      <trkpt lat="32.394497562199831" lon="-5.142483422532678">
        <ele>2030.9200000000001</ele>
        <time>2019-03-11T16:42:39Z</time>
      </trkpt>
      <trkpt lat="32.394553469493985" lon="-5.144145553931594">
        <ele>2023.23</ele>
        <time>2019-03-11T16:42:49Z</time>
      </trkpt>
      <trkpt lat="32.394476104527712" lon="-5.146537832915783">
        <ele>2012.6600000000001</ele>
        <time>2019-03-11T16:42:51Z</time>
      </trkpt>
      <trkpt lat="32.394470321014524" lon="-5.146933877840638">
        <ele>2002.0799999999999</ele>
        <time>2019-03-11T16:42:58Z</time>
      </trkpt>
      <trkpt lat="32.394186509773135" lon="-5.148441446945071">
        <ele>1994.8699999999999</ele>
        <time>2019-03-11T16:43:07Z</time>
      </trkpt>
      <trkpt lat="32.393955085426569" lon="-5.15062116086483">
        <ele>1989.5899999999999</ele>
        <time>2019-03-11T16:43:17Z</time>
      </trkpt>
      <trkpt lat="32.394158514216542" lon="-5.153119638562203">
        <ele>1985.74</ele>
        <time>2019-03-11T16:43:25Z</time>
      </trkpt>
      <trkpt lat="32.394216265529394" lon="-5.154770202934742">
        <ele>1980.9300000000001</ele>
        <time>2019-03-11T16:43:32Z</time>
      </trkpt>
      <trkpt lat="32.394514745101333" lon="-5.156014915555716">
        <ele>1974.6900000000001</ele>
        <time>2019-03-11T16:43:39Z</time>
      </trkpt>
      <trkpt lat="32.395196780562401" lon="-5.15693474560976">
        <ele>1973.24</ele>
        <time>2019-03-11T16:43:49Z</time>
      </trkpt>
      <trkpt lat="32.396533191204071" lon="-5.157962199300528">
        <ele>1970.8399999999999</ele>
        <time>2019-03-11T16:44:03Z</time>
      </trkpt>
      <trkpt lat="32.397700119763613" lon="-5.15903240069747">
        <ele>1970.8399999999999</ele>
        <time>2019-03-11T16:44:09Z</time>
      </trkpt>
      <trkpt lat="32.398120891302824" lon="-5.159660372883081">
        <ele>1970.8399999999999</ele>
        <time>2019-03-11T16:44:18Z</time>
      </trkpt>
      <trkpt lat="32.398251481354237" lon="-5.16038347966969">
        <ele>1971.3199999999999</ele>
        <time>2019-03-11T16:44:25Z</time>
      </trkpt>
      <trkpt lat="32.398327086120844" lon="-5.16083593480289">
        <ele>1972.76</ele>
        <time>2019-03-11T16:44:26Z</time>
      </trkpt>
      <trkpt lat="32.398326750844717" lon="-5.160903744399548">
        <ele>1973.24</ele>
        <time>2019-03-11T16:44:27Z</time>
      </trkpt>
      <trkpt lat="32.39831468090415" lon="-5.160972811281681">
        <ele>1973.24</ele>
        <time>2019-03-11T16:44:31Z</time>
      </trkpt>
      <trkpt lat="32.398252403363585" lon="-5.16128009185195">
        <ele>1974.6900000000001</ele>
        <time>2019-03-11T16:44:32Z</time>
      </trkpt>
      <trkpt lat="32.398251984268427" lon="-5.161368520930409">
        <ele>1975.1700000000001</ele>
        <time>2019-03-11T16:44:33Z</time>
      </trkpt>
      <trkpt lat="32.398263048380613" lon="-5.161462062969804">
        <ele>1975.6500000000001</ele>
        <time>2019-03-11T16:44:36Z</time>
      </trkpt>
      <trkpt lat="32.39829221740365" lon="-5.161778647452593">
        <ele>1978.05</ele>
        <time>2019-03-11T16:44:37Z</time>
      </trkpt>
      <trkpt lat="32.398272771388292" lon="-5.161901609972119">
        <ele>1978.53</ele>
        <time>2019-03-11T16:44:38Z</time>
      </trkpt>
      <trkpt lat="32.398229269310832" lon="-5.162029936909676">
        <ele>1979.01</ele>
        <time>2019-03-11T16:44:42Z</time>
      </trkpt>
      <trkpt lat="32.397934477776289" lon="-5.162568390369415">
        <ele>1979.97</ele>
        <time>2019-03-11T16:44:43Z</time>
      </trkpt>
      <trkpt lat="32.397839846089482" lon="-5.162680791690946">
        <ele>1980.45</ele>
        <time>2019-03-11T16:44:44Z</time>
      </trkpt>
      <trkpt lat="32.397734988480806" lon="-5.162776848301292">
        <ele>1980.9300000000001</ele>
        <time>2019-03-11T16:44:45Z</time>
      </trkpt>
      <trkpt lat="32.397618312388659" lon="-5.162853542715311">
        <ele>1981.4100000000001</ele>
        <time>2019-03-11T16:44:46Z</time>
      </trkpt>
      <trkpt lat="32.397488979622722" lon="-5.162906181067228">
        <ele>1982.3800000000001</ele>
        <time>2019-03-11T16:44:47Z</time>
      </trkpt>
      <trkpt lat="32.397349756211042" lon="-5.162941049784422">
        <ele>1982.3800000000001</ele>
        <time>2019-03-11T16:44:48Z</time>
      </trkpt>
      <trkpt lat="32.397209946066141" lon="-5.162970302626491">
        <ele>1982.3800000000001</ele>
        <time>2019-03-11T16:44:52Z</time>
      </trkpt>
      <trkpt lat="32.396728657186031" lon="-5.163022102788091">
        <ele>1982.8599999999999</ele>
        <time>2019-03-11T16:44:53Z</time>
      </trkpt>
      <trkpt lat="32.396622374653816" lon="-5.163006763905287">
        <ele>1983.3399999999999</ele>
        <time>2019-03-11T16:44:55Z</time>
      </trkpt>
      <trkpt lat="32.396426405757666" lon="-5.162990838289261">
        <ele>1985.26</ele>
        <time>2019-03-11T16:44:56Z</time>
      </trkpt>
      <trkpt lat="32.396332528442144" lon="-5.163013469427824">
        <ele>1985.74</ele>
        <time>2019-03-11T16:44:57Z</time>
      </trkpt>
      <trkpt lat="32.396240662783384" lon="-5.163060994818807">
        <ele>1986.22</ele>
        <time>2019-03-11T16:45:01Z</time>
      </trkpt>
      <trkpt lat="32.395862303674221" lon="-5.16335578635335">
        <ele>1986.7</ele>
        <time>2019-03-11T16:45:02Z</time>
      </trkpt>
      <trkpt lat="32.395796673372388" lon="-5.16344572417438">
        <ele>1987.1800000000001</ele>
        <time>2019-03-11T16:45:03Z</time>
      </trkpt>
      <trkpt lat="32.395754931494594" lon="-5.163542199879885">
        <ele>1987.6600000000001</ele>
        <time>2019-03-11T16:45:04Z</time>
      </trkpt>
      <trkpt lat="32.395738000050187" lon="-5.163642363622785">
        <ele>1988.6199999999999</ele>
        <time>2019-03-11T16:45:05Z</time>
      </trkpt>
      <trkpt lat="32.395751746371388" lon="-5.163745544850826">
        <ele>1989.5899999999999</ele>
        <time>2019-03-11T16:45:06Z</time>
      </trkpt>
      <trkpt lat="32.395781166851521" lon="-5.163848139345646">
        <ele>1990.0699999999999</ele>
        <time>2019-03-11T16:45:07Z</time>
      </trkpt>
      <trkpt lat="32.395814443007112" lon="-5.163951152935624">
        <ele>1991.03</ele>
        <time>2019-03-11T16:45:09Z</time>
      </trkpt>
      <trkpt lat="32.395868171006441" lon="-5.164152234792709">
        <ele>1991.51</ele>
        <time>2019-03-11T16:45:10Z</time>
      </trkpt>
      <trkpt lat="32.395878061652184" lon="-5.164250303059816">
        <ele>1991.99</ele>
        <time>2019-03-11T16:45:11Z</time>
      </trkpt>
      <trkpt lat="32.395875966176391" lon="-5.164339067414403">
        <ele>1992.95</ele>
        <time>2019-03-11T16:45:12Z</time>
      </trkpt>
      <trkpt lat="32.39586372859776" lon="-5.164415510371327">
        <ele>1993.4300000000001</ele>
        <time>2019-03-11T16:45:13Z</time>
      </trkpt>
      <trkpt lat="32.395844785496593" lon="-5.164479883387685">
        <ele>1993.9100000000001</ele>
        <time>2019-03-11T16:45:14Z</time>
      </trkpt>
      <trkpt lat="32.395823327824473" lon="-5.164540568366647">
        <ele>1994.8699999999999</ele>
        <time>2019-03-11T16:45:15Z</time>
      </trkpt>
      <trkpt lat="32.395795835182071" lon="-5.164602845907211">
        <ele>1995.3499999999999</ele>
        <time>2019-03-11T16:45:16Z</time>
      </trkpt>
      <trkpt lat="32.395760295912623" lon="-5.164666883647442">
        <ele>1995.8299999999999</ele>
        <time>2019-03-11T16:45:17Z</time>
      </trkpt>
      <trkpt lat="32.39571226760745" lon="-5.164727149531245">
        <ele>1996.3199999999999</ele>
        <time>2019-03-11T16:45:18Z</time>
      </trkpt>
      <trkpt lat="32.395652923732996" lon="-5.164776938036084">
        <ele>1996.8</ele>
        <time>2019-03-11T16:45:19Z</time>
      </trkpt>
      <trkpt lat="32.395580755546689" lon="-5.164813986048102">
        <ele>1997.28</ele>
        <time>2019-03-11T16:45:20Z</time>
      </trkpt>
      <trkpt lat="32.3954938352108" lon="-5.16483779065311">
        <ele>1997.76</ele>
        <time>2019-03-11T16:45:21Z</time>
      </trkpt>
      <trkpt lat="32.395395934581757" lon="-5.164848351851106">
        <ele>1998.24</ele>
        <time>2019-03-11T16:45:22Z</time>
      </trkpt>
      <trkpt lat="32.395291831344366" lon="-5.164850950241089">
        <ele>2000.6400000000001</ele>
        <time>2019-03-11T16:45:23Z</time>
      </trkpt>
      <trkpt lat="32.395184878259897" lon="-5.164863858371973">
        <ele>2002.5599999999999</ele>
        <time>2019-03-11T16:45:24Z</time>
      </trkpt>
      <trkpt lat="32.395079182460904" lon="-5.164892775937915">
        <ele>2003.04</ele>
        <time>2019-03-11T16:45:27Z</time>
      </trkpt>
      <trkpt lat="32.394786402583122" lon="-5.164989251643419">
        <ele>2003.52</ele>
        <time>2019-03-11T16:45:29Z</time>
      </trkpt>
      <trkpt lat="32.394627649337053" lon="-5.165036106482148">
        <ele>2004.01</ele>
        <time>2019-03-11T16:45:30Z</time>
      </trkpt>
      <trkpt lat="32.394565371796489" lon="-5.165088577196002">
        <ele>2004.01</ele>
        <time>2019-03-11T16:45:31Z</time>
      </trkpt>
      <trkpt lat="32.39451608620584" lon="-5.165158398449421">
        <ele>2002.5599999999999</ele>
        <time>2019-03-11T16:45:32Z</time>
      </trkpt>
      <trkpt lat="32.394479960203171" lon="-5.165234422311187">
        <ele>2002.0799999999999</ele>
        <time>2019-03-11T16:45:33Z</time>
      </trkpt>
      <trkpt lat="32.394446432590485" lon="-5.16530935652554">
        <ele>2002.0799999999999</ele>
        <time>2019-03-11T16:45:44Z</time>
      </trkpt>
      <trkpt lat="32.394143175333738" lon="-5.165918134152889">
        <ele>2002.0799999999999</ele>
        <time>2019-03-11T16:45:48Z</time>
      </trkpt>
      <trkpt lat="32.394021721556783" lon="-5.166113683953881">
        <ele>2001.5999999999999</ele>
        <time>2019-03-11T16:45:49Z</time>
      </trkpt>
      <trkpt lat="32.393978219479322" lon="-5.166146708652377">
        <ele>2002.0799999999999</ele>
        <time>2019-03-11T16:45:50Z</time>
      </trkpt>
      <trkpt lat="32.393927928060293" lon="-5.166164059191942">
        <ele>2001.5999999999999</ele>
        <time>2019-03-11T16:45:51Z</time>
      </trkpt>
      <trkpt lat="32.393872942775488" lon="-5.166165065020323">
        <ele>2001.1199999999999</ele>
        <time>2019-03-11T16:45:52Z</time>
      </trkpt>
      <trkpt lat="32.393813850358129" lon="-5.166152911260724">
        <ele>2000.6400000000001</ele>
        <time>2019-03-11T16:45:53Z</time>
      </trkpt>
      <trkpt lat="32.393755093216896" lon="-5.16612240113318">
        <ele>2000.6400000000001</ele>
        <time>2019-03-11T16:45:54Z</time>
      </trkpt>
      <trkpt lat="32.393696084618568" lon="-5.166080491617322">
        <ele>2001.1199999999999</ele>
        <time>2019-03-11T16:45:55Z</time>
      </trkpt>
      <trkpt lat="32.393636321648955" lon="-5.16603053547442">
        <ele>2000.6400000000001</ele>
        <time>2019-03-11T16:45:56Z</time>
      </trkpt>
      <trkpt lat="32.393574547022581" lon="-5.165975214913487">
        <ele>2000.6400000000001</ele>
        <time>2019-03-11T16:45:58Z</time>
      </trkpt>
      <trkpt lat="32.393441190943122" lon="-5.165845546871424">
        <ele>2000.6400000000001</ele>
        <time>2019-03-11T16:45:59Z</time>
      </trkpt>
      <trkpt lat="32.39338100887835" lon="-5.165761392563582">
        <ele>2000.6400000000001</ele>
        <time>2019-03-11T16:46:00Z</time>
      </trkpt>
      <trkpt lat="32.393331807106733" lon="-5.165663491934538">
        <ele>2001.5999999999999</ele>
        <time>2019-03-11T16:46:01Z</time>
      </trkpt>
      <trkpt lat="32.393293082714081" lon="-5.165557963773608">
        <ele>2002.0799999999999</ele>
        <time>2019-03-11T16:46:02Z</time>
      </trkpt>
      <trkpt lat="32.393259052187204" lon="-5.165452184155583">
        <ele>2002.5599999999999</ele>
        <time>2019-03-11T16:46:09Z</time>
      </trkpt>
      <trkpt lat="32.393021006137133" lon="-5.164909958839417">
        <ele>2003.04</ele>
        <time>2019-03-11T16:46:10Z</time>
      </trkpt>
      <trkpt lat="32.392991920933127" lon="-5.164873162284493">
        <ele>2003.04</ele>
        <time>2019-03-11T16:46:11Z</time>
      </trkpt>
      <trkpt lat="32.392956297844648" lon="-5.164843238890171">
        <ele>2002.5599999999999</ele>
        <time>2019-03-11T16:46:12Z</time>
      </trkpt>
      <trkpt lat="32.392911789938807" lon="-5.164821362122893">
        <ele>2002.5599999999999</ele>
        <time>2019-03-11T16:46:13Z</time>
      </trkpt>
      <trkpt lat="32.392857559025288" lon="-5.16481189057231">
        <ele>2002.0799999999999</ele>
        <time>2019-03-11T16:46:14Z</time>
      </trkpt>
      <trkpt lat="32.392795449122787" lon="-5.164815494790673">
        <ele>2002.0799999999999</ele>
        <time>2019-03-11T16:46:15Z</time>
      </trkpt>
      <trkpt lat="32.392731411382556" lon="-5.164827313274145">
        <ele>2001.5999999999999</ele>
        <time>2019-03-11T16:46:16Z</time>
      </trkpt>
      <trkpt lat="32.392670810222626" lon="-5.16484416089952">
        <ele>2001.5999999999999</ele>
        <time>2019-03-11T16:46:17Z</time>
      </trkpt>
      <trkpt lat="32.392617501318455" lon="-5.164864445105195">
        <ele>2000.1600000000001</ele>
        <time>2019-03-11T16:46:18Z</time>
      </trkpt>
      <trkpt lat="32.392571484670043" lon="-5.164886740967631">
        <ele>2000.1600000000001</ele>
        <time>2019-03-11T16:46:19Z</time>
      </trkpt>
      <trkpt lat="32.392530413344502" lon="-5.164910461753607">
        <ele>2000.1600000000001</ele>
        <time>2019-03-11T16:46:32Z</time>
      </trkpt>
      <trkpt lat="32.392161525785923" lon="-5.165222771465778">
        <ele>2000.6400000000001</ele>
        <time>2019-03-11T16:46:47Z</time>
      </trkpt>
      <trkpt lat="32.391737317666411" lon="-5.165636586025357">
        <ele>2002.5599999999999</ele>
        <time>2019-03-11T16:46:56Z</time>
      </trkpt>
      <trkpt lat="32.391587197780609" lon="-5.166190797463059">
        <ele>2002.5599999999999</ele>
        <time>2019-03-11T16:46:57Z</time>
      </trkpt>
      <trkpt lat="32.391564901918173" lon="-5.166247626766563">
        <ele>2002.5599999999999</ele>
        <time>2019-03-11T16:47:06Z</time>
      </trkpt>
      <trkpt lat="32.391259884461761" lon="-5.166815165430307">
        <ele>2002.0799999999999</ele>
        <time>2019-03-11T16:47:07Z</time>
      </trkpt>
      <trkpt lat="32.391237756237388" lon="-5.166878281161189">
        <ele>2002.0799999999999</ele>
        <time>2019-03-11T16:47:09Z</time>
      </trkpt>
      <trkpt lat="32.391193751245737" lon="-5.167018258944154">
        <ele>2002.0799999999999</ele>
        <time>2019-03-11T16:47:10Z</time>
      </trkpt>
      <trkpt lat="32.391163995489478" lon="-5.167085817083716">
        <ele>2001.5999999999999</ele>
        <time>2019-03-11T16:47:11Z</time>
      </trkpt>
      <trkpt lat="32.39112795330584" lon="-5.167146166786552">
        <ele>2001.5999999999999</ele>
        <time>2019-03-11T16:47:12Z</time>
      </trkpt>
      <trkpt lat="32.391083613038063" lon="-5.167197547852993">
        <ele>2000.1600000000001</ele>
        <time>2019-03-11T16:47:13Z</time>
      </trkpt>
      <trkpt lat="32.391031477600336" lon="-5.167245659977198">
        <ele>2000.1600000000001</ele>
        <time>2019-03-11T16:47:14Z</time>
      </trkpt>
      <trkpt lat="32.390972301363945" lon="-5.167294610291719">
        <ele>2000.1600000000001</ele>
        <time>2019-03-11T16:47:26Z</time>
      </trkpt>
      <trkpt lat="32.390266377478838" lon="-5.168064404278994">
        <ele>2000.1600000000001</ele>
        <time>2019-03-11T16:47:29Z</time>
      </trkpt>
      <trkpt lat="32.390174763277173" lon="-5.168235059827566">
        <ele>2000.1600000000001</ele>
        <time>2019-03-11T16:47:30Z</time>
      </trkpt>
      <trkpt lat="32.390152886509895" lon="-5.168300187215209">
        <ele>1999.6800000000001</ele>
        <time>2019-03-11T16:47:31Z</time>
      </trkpt>
      <trkpt lat="32.390134111046791" lon="-5.16837059520185">
        <ele>2000.6400000000001</ele>
        <time>2019-03-11T16:47:32Z</time>
      </trkpt>
      <trkpt lat="32.390120197087526" lon="-5.16844586469233">
        <ele>2001.5999999999999</ele>
        <time>2019-03-11T16:47:33Z</time>
      </trkpt>
      <trkpt lat="32.390109468251467" lon="-5.168527420610189">
        <ele>2003.04</ele>
        <time>2019-03-11T16:47:45Z</time>
      </trkpt>
      <trkpt lat="32.389873182401061" lon="-5.169720081612468">
        <ele>2005.45</ele>
        <time>2019-03-11T16:47:57Z</time>
      </trkpt>
      <trkpt lat="32.389279659837484" lon="-5.170943671837449">
        <ele>2009.29</ele>
        <time>2019-03-11T16:48:08Z</time>
      </trkpt>
      <trkpt lat="32.388438368216157" lon="-5.172193665057421">
        <ele>2011.22</ele>
        <time>2019-03-11T16:48:17Z</time>
      </trkpt>
      <trkpt lat="32.387734036892653" lon="-5.173036884516478">
        <ele>2011.22</ele>
        <time>2019-03-11T16:48:27Z</time>
      </trkpt>
      <trkpt lat="32.387143112719059" lon="-5.173917403444648">
        <ele>2011.7</ele>
        <time>2019-03-11T16:48:32Z</time>
      </trkpt>
      <trkpt lat="32.386980336159468" lon="-5.174391064792872">
        <ele>2011.7</ele>
        <time>2019-03-11T16:48:33Z</time>
      </trkpt>
      <trkpt lat="32.38692769780755" lon="-5.174476560205221">
        <ele>2011.7</ele>
        <time>2019-03-11T16:48:34Z</time>
      </trkpt>
      <trkpt lat="32.386861145496368" lon="-5.174555266276002">
        <ele>2011.7</ele>
        <time>2019-03-11T16:48:35Z</time>
      </trkpt>
      <trkpt lat="32.386786798015237" lon="-5.174626763910055">
        <ele>2012.1800000000001</ele>
        <time>2019-03-11T16:48:36Z</time>
      </trkpt>
      <trkpt lat="32.386705493554473" lon="-5.174692813307047">
        <ele>2012.1800000000001</ele>
        <time>2019-03-11T16:48:37Z</time>
      </trkpt>
      <trkpt lat="32.386618908494711" lon="-5.174756851047278">
        <ele>2012.1800000000001</ele>
        <time>2019-03-11T16:48:41Z</time>
      </trkpt>
      <trkpt lat="32.3862827103585" lon="-5.175012415274978">
        <ele>2012.6600000000001</ele>
        <time>2019-03-11T16:48:42Z</time>
      </trkpt>
      <trkpt lat="32.38621230237186" lon="-5.175099335610867">
        <ele>2012.6600000000001</ele>
        <time>2019-03-11T16:48:43Z</time>
      </trkpt>
      <trkpt lat="32.386152371764183" lon="-5.175198744982481">
        <ele>2012.6600000000001</ele>
        <time>2019-03-11T16:48:44Z</time>
      </trkpt>
      <trkpt lat="32.386095207184553" lon="-5.175309386104345">
        <ele>2012.6600000000001</ele>
        <time>2019-03-11T16:48:45Z</time>
      </trkpt>
      <trkpt lat="32.386037120595574" lon="-5.175427738577128">
        <ele>2012.6600000000001</ele>
        <time>2019-03-11T16:48:49Z</time>
      </trkpt>
      <trkpt lat="32.385762445628643" lon="-5.175852449610829">
        <ele>2012.1800000000001</ele>
        <time>2019-03-11T16:48:50Z</time>
      </trkpt>
      <trkpt lat="32.385673932731152" lon="-5.175927970558405">
        <ele>2013.6199999999999</ele>
        <time>2019-03-11T16:48:51Z</time>
      </trkpt>
      <trkpt lat="32.385577205568552" lon="-5.175986392423511">
        <ele>2013.6199999999999</ele>
        <time>2019-03-11T16:49:03Z</time>
      </trkpt>
      <trkpt lat="32.384395860135555" lon="-5.176608664914966">
        <ele>2013.1400000000001</ele>
        <time>2019-03-11T16:49:10Z</time>
      </trkpt>
      <trkpt lat="32.38397341221571" lon="-5.176758700981736">
        <ele>2013.1400000000001</ele>
        <time>2019-03-11T16:49:11Z</time>
      </trkpt>
      <trkpt lat="32.38394851796329" lon="-5.176743948832154">
        <ele>2012.6600000000001</ele>
        <time>2019-03-11T16:49:12Z</time>
      </trkpt>
      <trkpt lat="32.383931167423725" lon="-5.176712768152356">
        <ele>2012.1800000000001</ele>
        <time>2019-03-11T16:49:13Z</time>
      </trkpt>
      <trkpt lat="32.383921276777983" lon="-5.176672954112291">
        <ele>2011.7</ele>
        <time>2019-03-11T16:49:14Z</time>
      </trkpt>
      <trkpt lat="32.383913565427065" lon="-5.176628613844514">
        <ele>2011.22</ele>
        <time>2019-03-11T16:49:15Z</time>
      </trkpt>
      <trkpt lat="32.383908620104194" lon="-5.176578154787421">
        <ele>2010.25</ele>
        <time>2019-03-11T16:49:16Z</time>
      </trkpt>
      <trkpt lat="32.383910296484828" lon="-5.176522247493267">
        <ele>2010.25</ele>
        <time>2019-03-11T16:49:17Z</time>
      </trkpt>
      <trkpt lat="32.383921528235078" lon="-5.176464999094605">
        <ele>2009.77</ele>
        <time>2019-03-11T16:49:18Z</time>
      </trkpt>
      <trkpt lat="32.383939549326897" lon="-5.176402553915978">
        <ele>2009.29</ele>
        <time>2019-03-11T16:49:19Z</time>
      </trkpt>
      <trkpt lat="32.383955894038081" lon="-5.17633717507124">
        <ele>2009.29</ele>
        <time>2019-03-11T16:49:20Z</time>
      </trkpt>
      <trkpt lat="32.383969891816378" lon="-5.17626634798944">
        <ele>2009.29</ele>
        <time>2019-03-11T16:49:21Z</time>
      </trkpt>
      <trkpt lat="32.383981039747596" lon="-5.176188312470913">
        <ele>2009.29</ele>
        <time>2019-03-11T16:49:27Z</time>
      </trkpt>
      <trkpt lat="32.384044658392668" lon="-5.175655642524362">
        <ele>2009.29</ele>
        <time>2019-03-11T16:49:31Z</time>
      </trkpt>
      <trkpt lat="32.384012220427394" lon="-5.175364203751087">
        <ele>2009.29</ele>
        <time>2019-03-11T16:49:32Z</time>
      </trkpt>
      <trkpt lat="32.383985817432404" lon="-5.175289604812861">
        <ele>2010.25</ele>
        <time>2019-03-11T16:49:33Z</time>
      </trkpt>
      <trkpt lat="32.383947009220719" lon="-5.175210060551763">
        <ele>2010.25</ele>
        <time>2019-03-11T16:49:40Z</time>
      </trkpt>
      <trkpt lat="32.383507546037436" lon="-5.174432555213571">
        <ele>2010.25</ele>
        <time>2019-03-11T16:49:44Z</time>
      </trkpt>
      <trkpt lat="32.383281905204058" lon="-5.174037180840969">
        <ele>2010.73</ele>
        <time>2019-03-11T16:49:45Z</time>
      </trkpt>
      <trkpt lat="32.383226500824094" lon="-5.173995522782207">
        <ele>2010.73</ele>
        <time>2019-03-11T16:49:46Z</time>
      </trkpt>
      <trkpt lat="32.383163385093212" lon="-5.173983285203576">
        <ele>2011.22</ele>
        <time>2019-03-11T16:49:47Z</time>
      </trkpt>
      <trkpt lat="32.383094150573015" lon="-5.173994097858667">
        <ele>2011.22</ele>
        <time>2019-03-11T16:49:48Z</time>
      </trkpt>
      <trkpt lat="32.383021144196391" lon="-5.174015471711755">
        <ele>2013.1400000000001</ele>
        <time>2019-03-11T16:49:50Z</time>
      </trkpt>
      <trkpt lat="32.382859457284212" lon="-5.174058135598898">
        <ele>2013.6199999999999</ele>
        <time>2019-03-11T16:49:51Z</time>
      </trkpt>
      <trkpt lat="32.382768262177706" lon="-5.174065511673689">
        <ele>2015.0599999999999</ele>
        <time>2019-03-11T16:49:55Z</time>
      </trkpt>
      <trkpt lat="32.382372971624136" lon="-5.174087388440967">
        <ele>2015.54</ele>
        <time>2019-03-11T16:49:56Z</time>
      </trkpt>
      <trkpt lat="32.382273562252522" lon="-5.174065511673689">
        <ele>2016.5</ele>
        <time>2019-03-11T16:49:59Z</time>
      </trkpt>
      <trkpt lat="32.381936023011804" lon="-5.173953361809254">
        <ele>2022.27</ele>
        <time>2019-03-11T16:50:00Z</time>
      </trkpt>
      <trkpt lat="32.381808618083596" lon="-5.173941543325782">
        <ele>2024.1900000000001</ele>
        <time>2019-03-11T16:50:01Z</time>
      </trkpt>
      <trkpt lat="32.381676603108644" lon="-5.1739492546767">
        <ele>2024.1900000000001</ele>
        <time>2019-03-11T16:50:10Z</time>
      </trkpt>
      <trkpt lat="32.380569018423557" lon="-5.174227533861995">
        <ele>2024.1900000000001</ele>
        <time>2019-03-11T16:50:16Z</time>
      </trkpt>
      <trkpt lat="32.379771564155817" lon="-5.174573035910726">
        <ele>2024.1900000000001</ele>
        <time>2019-03-11T16:50:17Z</time>
      </trkpt>
      <trkpt lat="32.379641057923436" lon="-5.174581333994865">
        <ele>2024.1900000000001</ele>
        <time>2019-03-11T16:50:18Z</time>
      </trkpt>
      <trkpt lat="32.379511389881372" lon="-5.174562642350793">
        <ele>2024.1900000000001</ele>
        <time>2019-03-11T16:50:19Z</time>
      </trkpt>
      <trkpt lat="32.379387337714434" lon="-5.174526181071997">
        <ele>2024.1900000000001</ele>
        <time>2019-03-11T16:50:20Z</time>
      </trkpt>
      <trkpt lat="32.379269907251" lon="-5.17448234371841">
        <ele>2024.1900000000001</ele>
        <time>2019-03-11T16:50:22Z</time>
      </trkpt>
      <trkpt lat="32.37905633635819" lon="-5.174417467787862">
        <ele>2024.6700000000001</ele>
        <time>2019-03-11T16:50:23Z</time>
      </trkpt>
      <trkpt lat="32.378957262262702" lon="-5.174406571313739">
        <ele>2026.1199999999999</ele>
        <time>2019-03-11T16:50:25Z</time>
      </trkpt>
      <trkpt lat="32.378757186233997" lon="-5.174399865791202">
        <ele>2026.1199999999999</ele>
        <time>2019-03-11T16:50:26Z</time>
      </trkpt>
      <trkpt lat="32.378655765205622" lon="-5.174410678446293">
        <ele>2026.1199999999999</ele>
        <time>2019-03-11T16:50:31Z</time>
      </trkpt>
      <trkpt lat="32.378126112744212" lon="-5.1745312102139">
        <ele>2026.1199999999999</ele>
        <time>2019-03-11T16:50:32Z</time>
      </trkpt>
      <trkpt lat="32.378028128296137" lon="-5.174528863281012">
        <ele>2026.5999999999999</ele>
        <time>2019-03-11T16:50:33Z</time>
      </trkpt>
      <trkpt lat="32.377935005351901" lon="-5.174508076161146">
        <ele>2026.5999999999999</ele>
        <time>2019-03-11T16:50:34Z</time>
      </trkpt>
      <trkpt lat="32.377846240997314" lon="-5.174473710358143">
        <ele>2026.5999999999999</ele>
        <time>2019-03-11T16:50:35Z</time>
      </trkpt>
      <trkpt lat="32.377763008698821" lon="-5.174438087269664">
        <ele>2026.5999999999999</ele>
        <time>2019-03-11T16:50:36Z</time>
      </trkpt>
      <trkpt lat="32.377681117504835" lon="-5.1744085829705">
        <ele>2030.9200000000001</ele>
        <time>2019-03-11T16:50:37Z</time>
      </trkpt>
      <trkpt lat="32.377597214654088" lon="-5.17439341172576">
        <ele>2032.8399999999999</ele>
        <time>2019-03-11T16:50:38Z</time>
      </trkpt>
      <trkpt lat="32.377513395622373" lon="-5.174388382583857">
        <ele>2032.8399999999999</ele>
        <time>2019-03-11T16:50:47Z</time>
      </trkpt>
      <trkpt lat="32.376665063202381" lon="-5.174497682601214">
        <ele>2032.8399999999999</ele>
        <time>2019-03-11T16:50:53Z</time>
      </trkpt>
      <trkpt lat="32.375873811542988" lon="-5.174578819423914">
        <ele>2032.8399999999999</ele>
        <time>2019-03-11T16:50:54Z</time>
      </trkpt>
      <trkpt lat="32.375748585909605" lon="-5.174615615978837">
        <ele>2032.8399999999999</ele>
        <time>2019-03-11T16:50:55Z</time>
      </trkpt>
      <trkpt lat="32.375639537349343" lon="-5.174666913226247">
        <ele>2033.3299999999999</ele>
        <time>2019-03-11T16:50:56Z</time>
      </trkpt>
      <trkpt lat="32.375542894005775" lon="-5.174732627347112">
        <ele>2033.3299999999999</ele>
        <time>2019-03-11T16:50:57Z</time>
      </trkpt>
      <trkpt lat="32.375448681414127" lon="-5.174809154123068">
        <ele>2033.3299999999999</ele>
        <time>2019-03-11T16:50:58Z</time>
      </trkpt>
      <trkpt lat="32.375356731936336" lon="-5.174894481897354">
        <ele>2033.3299999999999</ele>
        <time>2019-03-11T16:50:59Z</time>
      </trkpt>
      <trkpt lat="32.375269392505288" lon="-5.174982994794846">
        <ele>2033.3299999999999</ele>
        <time>2019-03-11T16:51:01Z</time>
      </trkpt>
      <trkpt lat="32.375112315639853" lon="-5.175120206549764">
        <ele>2033.3299999999999</ele>
        <time>2019-03-11T16:51:02Z</time>
      </trkpt>
      <trkpt lat="32.375038219615817" lon="-5.175146861001849">
        <ele>2032.8399999999999</ele>
        <time>2019-03-11T16:51:03Z</time>
      </trkpt>
      <trkpt lat="32.374970829114318" lon="-5.1751459389925">
        <ele>2032.3599999999999</ele>
        <time>2019-03-11T16:51:04Z</time>
      </trkpt>
      <trkpt lat="32.374913832172751" lon="-5.175125570967794">
        <ele>2032.3599999999999</ele>
        <time>2019-03-11T16:51:05Z</time>
      </trkpt>
      <trkpt lat="32.374861612915993" lon="-5.175092965364456">
        <ele>2032.8399999999999</ele>
        <time>2019-03-11T16:51:06Z</time>
      </trkpt>
      <trkpt lat="32.37481651827693" lon="-5.175053989514709">
        <ele>2033.3299999999999</ele>
        <time>2019-03-11T16:51:07Z</time>
      </trkpt>
      <trkpt lat="32.374775195494294" lon="-5.175017025321722">
        <ele>2033.8099999999999</ele>
        <time>2019-03-11T16:51:16Z</time>
      </trkpt>
      <trkpt lat="32.37442466430366" lon="-5.174750480800867">
        <ele>2033.8099999999999</ele>
        <time>2019-03-11T16:51:17Z</time>
      </trkpt>
      <trkpt lat="32.374369679018855" lon="-5.174733214080334">
        <ele>2034.77</ele>
        <time>2019-03-11T16:51:18Z</time>
      </trkpt>
      <trkpt lat="32.374309664592147" lon="-5.174727598205209">
        <ele>2035.73</ele>
        <time>2019-03-11T16:51:19Z</time>
      </trkpt>
      <trkpt lat="32.374244118109345" lon="-5.17473254352808">
        <ele>2037.1700000000001</ele>
        <time>2019-03-11T16:51:20Z</time>
      </trkpt>
      <trkpt lat="32.374174045398831" lon="-5.174753246828914">
        <ele>2038.1300000000001</ele>
        <time>2019-03-11T16:51:21Z</time>
      </trkpt>
      <trkpt lat="32.374106654897332" lon="-5.17480043694377">
        <ele>2039.5699999999999</ele>
        <time>2019-03-11T16:51:22Z</time>
      </trkpt>
      <trkpt lat="32.374044125899673" lon="-5.174882495775819">
        <ele>2040.54</ele>
        <time>2019-03-11T16:51:23Z</time>
      </trkpt>
      <trkpt lat="32.373986458405852" lon="-5.174991125240922">
        <ele>2041.5</ele>
        <time>2019-03-11T16:51:24Z</time>
      </trkpt>
      <trkpt lat="32.373932311311364" lon="-5.175106460228562">
        <ele>2041.98</ele>
        <time>2019-03-11T16:51:25Z</time>
      </trkpt>
      <trkpt lat="32.373873386532068" lon="-5.17521726898849">
        <ele>2042.46</ele>
        <time>2019-03-11T16:51:26Z</time>
      </trkpt>
      <trkpt lat="32.37379820086062" lon="-5.175321036949754">
        <ele>2042.46</ele>
        <time>2019-03-11T16:51:27Z</time>
      </trkpt>
      <trkpt lat="32.373702060431242" lon="-5.175410807132721">
        <ele>2042.9400000000001</ele>
        <time>2019-03-11T16:51:28Z</time>
      </trkpt>
      <trkpt lat="32.373593682423234" lon="-5.175481801852584">
        <ele>2043.9000000000001</ele>
        <time>2019-03-11T16:51:29Z</time>
      </trkpt>
      <trkpt lat="32.373482454568148" lon="-5.175537876784802">
        <ele>2044.3800000000001</ele>
        <time>2019-03-11T16:51:30Z</time>
      </trkpt>
      <trkpt lat="32.373365778476" lon="-5.175587581470609">
        <ele>2044.3800000000001</ele>
        <time>2019-03-11T16:51:33Z</time>
      </trkpt>
      <trkpt lat="32.373037710785866" lon="-5.175729906186461">
        <ele>2044.8599999999999</ele>
        <time>2019-03-11T16:51:34Z</time>
      </trkpt>
      <trkpt lat="32.372959423810244" lon="-5.175789250060916">
        <ele>2045.3399999999999</ele>
        <time>2019-03-11T16:51:35Z</time>
      </trkpt>
      <trkpt lat="32.372899660840631" lon="-5.175866363570094">
        <ele>2045.3399999999999</ele>
        <time>2019-03-11T16:51:36Z</time>
      </trkpt>
      <trkpt lat="32.372858505696058" lon="-5.175960576161742">
        <ele>2047.75</ele>
        <time>2019-03-11T16:51:37Z</time>
      </trkpt>
      <trkpt lat="32.372827911749482" lon="-5.176069708541036">
        <ele>2051.1100000000001</ele>
        <time>2019-03-11T16:51:38Z</time>
      </trkpt>
      <trkpt lat="32.372801592573524" lon="-5.176187641918659">
        <ele>2051.5900000000001</ele>
        <time>2019-03-11T16:51:45Z</time>
      </trkpt>
      <trkpt lat="32.372650634497404" lon="-5.177287179976702">
        <ele>2052.0700000000002</ele>
        <time>2019-03-11T16:51:51Z</time>
      </trkpt>
      <trkpt lat="32.372718024998903" lon="-5.17833860591054">
        <ele>2052.5500000000002</ele>
        <time>2019-03-11T16:51:52Z</time>
      </trkpt>
      <trkpt lat="32.372718947008252" lon="-5.178503142669797">
        <ele>2052.5500000000002</ele>
        <time>2019-03-11T16:51:53Z</time>
      </trkpt>
      <trkpt lat="32.372699836269021" lon="-5.178653597831726">
        <ele>2052.5500000000002</ele>
        <time>2019-03-11T16:51:54Z</time>
      </trkpt>
      <trkpt lat="32.37266312353313" lon="-5.178777817636728">
        <ele>2052.5500000000002</ele>
        <time>2019-03-11T16:51:55Z</time>
      </trkpt>
      <trkpt lat="32.372608138248324" lon="-5.178881334140897">
        <ele>2052.0700000000002</ele>
        <time>2019-03-11T16:51:56Z</time>
      </trkpt>
      <trkpt lat="32.372533455491066" lon="-5.17896942794323">
        <ele>2053.9899999999998</ele>
        <time>2019-03-11T16:51:57Z</time>
      </trkpt>
      <trkpt lat="32.372440248727798" lon="-5.179040841758251">
        <ele>2054.4699999999998</ele>
        <time>2019-03-11T16:51:58Z</time>
      </trkpt>
      <trkpt lat="32.372340671718121" lon="-5.179101107642055">
        <ele>2054.4699999999998</ele>
        <time>2019-03-11T16:52:07Z</time>
      </trkpt>
      <trkpt lat="32.371316822245717" lon="-5.179803175851703">
        <ele>2055.4400000000001</ele>
        <time>2019-03-11T16:52:09Z</time>
      </trkpt>
      <trkpt lat="32.371044661849737" lon="-5.179960839450359">
        <ele>2055.9200000000001</ele>
        <time>2019-03-11T16:52:10Z</time>
      </trkpt>
      <trkpt lat="32.370900996029377" lon="-5.180008029565215">
        <ele>2056.4000000000001</ele>
        <time>2019-03-11T16:52:12Z</time>
      </trkpt>
      <trkpt lat="32.370630428195" lon="-5.180082209408283">
        <ele>2056.4000000000001</ele>
        <time>2019-03-11T16:52:13Z</time>
      </trkpt>
      <trkpt lat="32.370511908084154" lon="-5.18014264293015">
        <ele>2056.4000000000001</ele>
        <time>2019-03-11T16:52:14Z</time>
      </trkpt>
      <trkpt lat="32.370403865352273" lon="-5.180227048695087">
        <ele>2056.4000000000001</ele>
        <time>2019-03-11T16:52:15Z</time>
      </trkpt>
      <trkpt lat="32.370304204523563" lon="-5.180330816656351">
        <ele>2056.8800000000001</ele>
        <time>2019-03-11T16:52:16Z</time>
      </trkpt>
      <trkpt lat="32.370207561179996" lon="-5.18044020049274">
        <ele>2057.3600000000001</ele>
        <time>2019-03-11T16:52:18Z</time>
      </trkpt>
      <trkpt lat="32.370023326948285" lon="-5.180669613182545">
        <ele>2058.3200000000002</ele>
        <time>2019-03-11T16:52:19Z</time>
      </trkpt>
      <trkpt lat="32.36995073966682" lon="-5.180808333680034">
        <ele>2058.8000000000002</ele>
        <time>2019-03-11T16:52:20Z</time>
      </trkpt>
      <trkpt lat="32.369890809059143" lon="-5.180958788841963">
        <ele>2059.2800000000002</ele>
        <time>2019-03-11T16:52:21Z</time>
      </trkpt>
      <trkpt lat="32.369829788804054" lon="-5.181106561794877">
        <ele>2060.2399999999998</ele>
        <time>2019-03-11T16:52:22Z</time>
      </trkpt>
      <trkpt lat="32.369759296998382" lon="-5.181240253150463">
        <ele>2060.7199999999998</ele>
        <time>2019-03-11T16:52:23Z</time>
      </trkpt>
      <trkpt lat="32.369677824899554" lon="-5.181345697492361">
        <ele>2061.1999999999998</ele>
        <time>2019-03-11T16:52:24Z</time>
      </trkpt>
      <trkpt lat="32.369586545974016" lon="-5.181419206783176">
        <ele>2061.1999999999998</ele>
        <time>2019-03-11T16:52:25Z</time>
      </trkpt>
      <trkpt lat="32.36948411911726" lon="-5.181464720517397">
        <ele>2061.6799999999998</ele>
        <time>2019-03-11T16:52:26Z</time>
      </trkpt>
      <trkpt lat="32.369370209053159" lon="-5.181483831256628">
        <ele>2061.6799999999998</ele>
        <time>2019-03-11T16:52:27Z</time>
      </trkpt>
      <trkpt lat="32.369254119694233" lon="-5.181474359706044">
        <ele>2061.6799999999998</ele>
        <time>2019-03-11T16:52:28Z</time>
      </trkpt>
      <trkpt lat="32.369139371439815" lon="-5.181432282552123">
        <ele>2062.6500000000001</ele>
        <time>2019-03-11T16:52:29Z</time>
      </trkpt>
      <trkpt lat="32.369023114442825" lon="-5.181368580088019">
        <ele>2062.6500000000001</ele>
        <time>2019-03-11T16:52:30Z</time>
      </trkpt>
      <trkpt lat="32.368907360360026" lon="-5.181298591196537">
        <ele>2062.6500000000001</ele>
        <time>2019-03-11T16:52:36Z</time>
      </trkpt>
      <trkpt lat="32.368243765085936" lon="-5.180918555706739">
        <ele>2063.1300000000001</ele>
        <time>2019-03-11T16:52:37Z</time>
      </trkpt>
      <trkpt lat="32.368155755102634" lon="-5.180844040587544">
        <ele>2063.1300000000001</ele>
        <time>2019-03-11T16:52:38Z</time>
      </trkpt>
      <trkpt lat="32.368081323802471" lon="-5.18075879663229">
        <ele>2064.0900000000001</ele>
        <time>2019-03-11T16:52:39Z</time>
      </trkpt>
      <trkpt lat="32.368022901937366" lon="-5.180668272078037">
        <ele>2065.5300000000002</ele>
        <time>2019-03-11T16:52:40Z</time>
      </trkpt>
      <trkpt lat="32.367975544184446" lon="-5.180578166618943">
        <ele>2066.4899999999998</ele>
        <time>2019-03-11T16:52:41Z</time>
      </trkpt>
      <trkpt lat="32.36793321557343" lon="-5.180482864379883">
        <ele>2066.9699999999998</ele>
        <time>2019-03-11T16:52:43Z</time>
      </trkpt>
      <trkpt lat="32.367854509502649" lon="-5.180271221324801">
        <ele>2067.4499999999998</ele>
        <time>2019-03-11T16:52:44Z</time>
      </trkpt>
      <trkpt lat="32.367826765403152" lon="-5.180149683728814">
        <ele>2067.9299999999998</ele>
        <time>2019-03-11T16:52:45Z</time>
      </trkpt>
      <trkpt lat="32.367809331044555" lon="-5.180014902725816">
        <ele>2069.3800000000001</ele>
        <time>2019-03-11T16:52:46Z</time>
      </trkpt>
      <trkpt lat="32.367803966626525" lon="-5.179867129772902">
        <ele>2069.8600000000001</ele>
        <time>2019-03-11T16:52:47Z</time>
      </trkpt>
      <trkpt lat="32.367806565016508" lon="-5.179710555821657">
        <ele>2070.3400000000001</ele>
        <time>2019-03-11T16:52:50Z</time>
      </trkpt>
      <trkpt lat="32.367808409035206" lon="-5.17928559333086">
        <ele>2071.3000000000002</ele>
        <time>2019-03-11T16:52:51Z</time>
      </trkpt>
      <trkpt lat="32.367781670764089" lon="-5.179179394617677">
        <ele>2071.7800000000002</ele>
        <time>2019-03-11T16:52:52Z</time>
      </trkpt>
      <trkpt lat="32.367730541154742" lon="-5.179091719910502">
        <ele>2072.7399999999998</ele>
        <time>2019-03-11T16:52:53Z</time>
      </trkpt>
      <trkpt lat="32.367655355483294" lon="-5.179021144285798">
        <ele>2073.2199999999998</ele>
        <time>2019-03-11T16:52:54Z</time>
      </trkpt>
      <trkpt lat="32.367563992738724" lon="-5.178967081010342">
        <ele>2074.1799999999998</ele>
        <time>2019-03-11T16:52:55Z</time>
      </trkpt>
      <trkpt lat="32.367459638044238" lon="-5.178931625559926">
        <ele>2075.1399999999999</ele>
        <time>2019-03-11T16:52:56Z</time>
      </trkpt>
      <trkpt lat="32.367344051599503" lon="-5.178922740742564">
        <ele>2076.5900000000001</ele>
        <time>2019-03-11T16:52:57Z</time>
      </trkpt>
      <trkpt lat="32.367217652499676" lon="-5.178937157616019">
        <ele>2076.5900000000001</ele>
        <time>2019-03-11T16:52:58Z</time>
      </trkpt>
      <trkpt lat="32.367082620039582" lon="-5.1789675001055">
        <ele>2076.5900000000001</ele>
        <time>2019-03-11T16:53:02Z</time>
      </trkpt>
      <trkpt lat="32.366551794111729" lon="-5.179065484553576">
        <ele>2076.5900000000001</ele>
        <time>2019-03-11T16:53:03Z</time>
      </trkpt>
      <trkpt lat="32.366441320627928" lon="-5.179057689383626">
        <ele>2076.5900000000001</ele>
        <time>2019-03-11T16:53:04Z</time>
      </trkpt>
      <trkpt lat="32.366346186026931" lon="-5.179026089608669">
        <ele>2076.5900000000001</ele>
        <time>2019-03-11T16:53:05Z</time>
      </trkpt>
      <trkpt lat="32.366265216842294" lon="-5.178959369659424">
        <ele>2077.5500000000002</ele>
        <time>2019-03-11T16:53:06Z</time>
      </trkpt>
      <trkpt lat="32.366193300113082" lon="-5.17886339686811">
        <ele>2077.5500000000002</ele>
        <time>2019-03-11T16:53:07Z</time>
      </trkpt>
      <trkpt lat="32.366121718659997" lon="-5.178749151527882">
        <ele>2077.5500000000002</ele>
        <time>2019-03-11T16:53:10Z</time>
      </trkpt>
      <trkpt lat="32.365918792784214" lon="-5.178338857367635">
        <ele>2078.0300000000002</ele>
        <time>2019-03-11T16:53:11Z</time>
      </trkpt>
      <trkpt lat="32.36588342115283" lon="-5.178201394155622">
        <ele>2078.5100000000002</ele>
        <time>2019-03-11T16:53:12Z</time>
      </trkpt>
      <trkpt lat="32.365874703973532" lon="-5.178078347817063">
        <ele>2078.5100000000002</ele>
        <time>2019-03-11T16:53:13Z</time>
      </trkpt>
      <trkpt lat="32.365892557427287" lon="-5.17796435393393">
        <ele>2078.5100000000002</ele>
        <time>2019-03-11T16:53:14Z</time>
      </trkpt>
      <trkpt lat="32.365933461114764" lon="-5.177857149392366">
        <ele>2078.5100000000002</ele>
        <time>2019-03-11T16:53:15Z</time>
      </trkpt>
      <trkpt lat="32.365988530218601" lon="-5.177743071690202">
        <ele>2078.5100000000002</ele>
        <time>2019-03-11T16:53:16Z</time>
      </trkpt>
      <trkpt lat="32.366042509675026" lon="-5.177614912390709">
        <ele>2078.9899999999998</ele>
        <time>2019-03-11T16:53:17Z</time>
      </trkpt>
      <trkpt lat="32.366088610142469" lon="-5.177473006770015">
        <ele>2079.4699999999998</ele>
        <time>2019-03-11T16:53:18Z</time>
      </trkpt>
      <trkpt lat="32.366127837449312" lon="-5.177325904369354">
        <ele>2078.9899999999998</ele>
        <time>2019-03-11T16:53:21Z</time>
      </trkpt>
      <trkpt lat="32.366184750571847" lon="-5.176961794495583">
        <ele>2078.9899999999998</ele>
        <time>2019-03-11T16:53:22Z</time>
      </trkpt>
      <trkpt lat="32.366158682852983" lon="-5.176870096474886">
        <ele>2078.5100000000002</ele>
        <time>2019-03-11T16:53:23Z</time>
      </trkpt>
      <trkpt lat="32.366098249331117" lon="-5.176797173917294">
        <ele>2077.5500000000002</ele>
        <time>2019-03-11T16:53:24Z</time>
      </trkpt>
      <trkpt lat="32.366010826081038" lon="-5.176744116470218">
        <ele>2076.5900000000001</ele>
        <time>2019-03-11T16:53:25Z</time>
      </trkpt>
      <trkpt lat="32.365908231586218" lon="-5.17671343870461">
        <ele>2076.0999999999999</ele>
        <time>2019-03-11T16:53:26Z</time>
      </trkpt>
      <trkpt lat="32.3658003564924" lon="-5.176690723747015">
        <ele>2075.6199999999999</ele>
        <time>2019-03-11T16:53:27Z</time>
      </trkpt>
      <trkpt lat="32.365688709542155" lon="-5.176676977425814">
        <ele>2076.0999999999999</ele>
        <time>2019-03-11T16:53:28Z</time>
      </trkpt>
      <trkpt lat="32.365571027621627" lon="-5.176685694605112">
        <ele>2076.0999999999999</ele>
        <time>2019-03-11T16:53:29Z</time>
      </trkpt>
      <trkpt lat="32.365450747311115" lon="-5.176722155883908">
        <ele>2076.5900000000001</ele>
        <time>2019-03-11T16:53:30Z</time>
      </trkpt>
      <trkpt lat="32.365332897752523" lon="-5.176760880276561">
        <ele>2077.0700000000002</ele>
        <time>2019-03-11T16:53:31Z</time>
      </trkpt>
      <trkpt lat="32.365213874727488" lon="-5.176780326291919">
        <ele>2077.5500000000002</ele>
        <time>2019-03-11T16:53:32Z</time>
      </trkpt>
      <trkpt lat="32.365099713206291" lon="-5.176773285493255">
        <ele>2078.0300000000002</ele>
        <time>2019-03-11T16:53:33Z</time>
      </trkpt>
      <trkpt lat="32.364990413188934" lon="-5.176761886104941">
        <ele>2078.0300000000002</ele>
        <time>2019-03-11T16:53:34Z</time>
      </trkpt>
      <trkpt lat="32.364882538095117" lon="-5.176761299371719">
        <ele>2078.5100000000002</ele>
        <time>2019-03-11T16:53:35Z</time>
      </trkpt>
      <trkpt lat="32.364774160087109" lon="-5.176780326291919">
        <ele>2078.5100000000002</ele>
        <time>2019-03-11T16:53:36Z</time>
      </trkpt>
      <trkpt lat="32.364671900868416" lon="-5.176823744550347">
        <ele>2082.3499999999999</ele>
        <time>2019-03-11T16:53:37Z</time>
      </trkpt>
      <trkpt lat="32.364575508981943" lon="-5.176888620480895">
        <ele>2082.8299999999999</ele>
        <time>2019-03-11T16:53:38Z</time>
      </trkpt>
      <trkpt lat="32.364478865638375" lon="-5.1769660692662">
        <ele>2082.8299999999999</ele>
        <time>2019-03-11T16:53:44Z</time>
      </trkpt>
      <trkpt lat="32.363863466307521" lon="-5.177439898252487">
        <ele>2082.8299999999999</ele>
        <time>2019-03-11T16:53:45Z</time>
      </trkpt>
      <trkpt lat="32.363759446889162" lon="-5.177476359531283">
        <ele>2083.3099999999999</ele>
        <time>2019-03-11T16:53:46Z</time>
      </trkpt>
      <trkpt lat="32.363656349480152" lon="-5.177489519119263">
        <ele>2083.3099999999999</ele>
        <time>2019-03-11T16:53:47Z</time>
      </trkpt>
      <trkpt lat="32.363560711964965" lon="-5.177479209378362">
        <ele>2082.8299999999999</ele>
        <time>2019-03-11T16:53:48Z</time>
      </trkpt>
      <trkpt lat="32.363471193239093" lon="-5.177461775019765">
        <ele>2082.8299999999999</ele>
        <time>2019-03-11T16:53:49Z</time>
      </trkpt>
      <trkpt lat="32.363377567380667" lon="-5.177455740049481">
        <ele>2082.8299999999999</ele>
        <time>2019-03-11T16:53:50Z</time>
      </trkpt>
      <trkpt lat="32.363275894895196" lon="-5.1774737611413">
        <ele>2082.8299999999999</ele>
        <time>2019-03-11T16:53:51Z</time>
      </trkpt>
      <trkpt lat="32.363165756687522" lon="-5.177511898800731">
        <ele>2082.8299999999999</ele>
        <time>2019-03-11T16:53:52Z</time>
      </trkpt>
      <trkpt lat="32.363058719784021" lon="-5.177566297352314">
        <ele>2083.3099999999999</ele>
        <time>2019-03-11T16:53:53Z</time>
      </trkpt>
      <trkpt lat="32.362960735335946" lon="-5.177642153576016">
        <ele>2083.79</ele>
        <time>2019-03-11T16:53:54Z</time>
      </trkpt>
      <trkpt lat="32.362872892990708" lon="-5.17774055711925">
        <ele>2084.2800000000002</ele>
        <time>2019-03-11T16:53:55Z</time>
      </trkpt>
      <trkpt lat="32.362792761996388" lon="-5.177851701155305">
        <ele>2084.7600000000002</ele>
        <time>2019-03-11T16:53:56Z</time>
      </trkpt>
      <trkpt lat="32.362724198028445" lon="-5.177967622876167">
        <ele>2084.7600000000002</ele>
        <time>2019-03-11T16:53:57Z</time>
      </trkpt>
      <trkpt lat="32.362665692344308" lon="-5.1780816167593">
        <ele>2085.2399999999998</ele>
        <time>2019-03-11T16:53:58Z</time>
      </trkpt>
      <trkpt lat="32.362618586048484" lon="-5.178198209032416">
        <ele>2085.2399999999998</ele>
        <time>2019-03-11T16:53:59Z</time>
      </trkpt>
      <trkpt lat="32.362583046779037" lon="-5.178320584818721">
        <ele>2085.7199999999998</ele>
        <time>2019-03-11T16:54:00Z</time>
      </trkpt>
      <trkpt lat="32.3625573143363" lon="-5.178450169041753">
        <ele>2085.2399999999998</ele>
        <time>2019-03-11T16:54:01Z</time>
      </trkpt>
      <trkpt lat="32.362531246617436" lon="-5.178571538999677">
        <ele>2085.2399999999998</ele>
        <time>2019-03-11T16:54:02Z</time>
      </trkpt>
      <trkpt lat="32.362500485032797" lon="-5.178677150979638">
        <ele>2085.2399999999998</ele>
        <time>2019-03-11T16:54:10Z</time>
      </trkpt>
      <trkpt lat="32.362342989072204" lon="-5.179160702973604">
        <ele>2085.7199999999998</ele>
        <time>2019-03-11T16:54:15Z</time>
      </trkpt>
      <trkpt lat="32.362252213060856" lon="-5.179328005760908">
        <ele>2091.4899999999998</ele>
        <time>2019-03-11T16:54:16Z</time>
      </trkpt>
      <trkpt lat="32.36221969127655" lon="-5.179366059601307">
        <ele>2093.8899999999999</ele>
        <time>2019-03-11T16:54:17Z</time>
      </trkpt>
      <trkpt lat="32.362182224169374" lon="-5.179404364898801">
        <ele>2095.3299999999999</ele>
        <time>2019-03-11T16:54:26Z</time>
      </trkpt>
      <trkpt lat="32.36160303466022" lon="-5.179910799488425">
        <ele>2095.8099999999999</ele>
        <time>2019-03-11T16:54:30Z</time>
      </trkpt>
      <trkpt lat="32.361199026927352" lon="-5.180262923240662">
        <ele>2096.29</ele>
        <time>2019-03-11T16:54:35Z</time>
      </trkpt>
      <trkpt lat="32.360623776912689" lon="-5.180615298449993">
        <ele>2096.77</ele>
        <time>2019-03-11T16:54:36Z</time>
      </trkpt>
      <trkpt lat="32.360546244308352" lon="-5.180712444707751">
        <ele>2097.25</ele>
        <time>2019-03-11T16:54:37Z</time>
      </trkpt>
      <trkpt lat="32.360483631491661" lon="-5.180833311751485">
        <ele>2097.73</ele>
        <time>2019-03-11T16:54:38Z</time>
      </trkpt>
      <trkpt lat="32.360433423891664" lon="-5.180974714457989">
        <ele>2097.73</ele>
        <time>2019-03-11T16:54:39Z</time>
      </trkpt>
      <trkpt lat="32.360385814681649" lon="-5.181129109114409">
        <ele>2097.25</ele>
        <time>2019-03-11T16:54:41Z</time>
      </trkpt>
      <trkpt lat="32.360270479694009" lon="-5.181424906477332">
        <ele>2097.73</ele>
        <time>2019-03-11T16:54:42Z</time>
      </trkpt>
      <trkpt lat="32.360185738652945" lon="-5.181552479043603">
        <ele>2097.73</ele>
        <time>2019-03-11T16:54:43Z</time>
      </trkpt>
      <trkpt lat="32.360074846073985" lon="-5.181657504290342">
        <ele>2097.73</ele>
        <time>2019-03-11T16:54:47Z</time>
      </trkpt>
      <trkpt lat="32.359619289636612" lon="-5.182009544223547">
        <ele>2097.73</ele>
        <time>2019-03-11T16:54:48Z</time>
      </trkpt>
      <trkpt lat="32.359540248289704" lon="-5.18211230635643">
        <ele>2098.21</ele>
        <time>2019-03-11T16:54:49Z</time>
      </trkpt>
      <trkpt lat="32.359483670443296" lon="-5.182233843952417">
        <ele>2098.21</ele>
        <time>2019-03-11T16:54:50Z</time>
      </trkpt>
      <trkpt lat="32.359450478106737" lon="-5.182371642440558">
        <ele>2098.6999999999998</ele>
        <time>2019-03-11T16:54:51Z</time>
      </trkpt>
      <trkpt lat="32.359435893595219" lon="-5.182524528354406">
        <ele>2101.0999999999999</ele>
        <time>2019-03-11T16:54:52Z</time>
      </trkpt>
      <trkpt lat="32.359435390681028" lon="-5.182671379297972">
        <ele>2101.5799999999999</ele>
        <time>2019-03-11T16:54:56Z</time>
      </trkpt>
      <trkpt lat="32.359440503641963" lon="-5.183185609057546">
        <ele>2102.0599999999999</ele>
        <time>2019-03-11T16:55:03Z</time>
      </trkpt>
      <trkpt lat="32.359518120065331" lon="-5.18392464146018">
        <ele>2102.54</ele>
        <time>2019-03-11T16:55:04Z</time>
      </trkpt>
      <trkpt lat="32.359513761475682" lon="-5.183973675593734">
        <ele>2102.54</ele>
        <time>2019-03-11T16:55:05Z</time>
      </trkpt>
      <trkpt lat="32.359506469219923" lon="-5.184006365016103">
        <ele>2103.02</ele>
        <time>2019-03-11T16:55:06Z</time>
      </trkpt>
      <trkpt lat="32.359497332945466" lon="-5.184029163792729">
        <ele>2103.02</ele>
        <time>2019-03-11T16:55:07Z</time>
      </trkpt>
      <trkpt lat="32.359483921900392" lon="-5.184051627293229">
        <ele>2103.02</ele>
        <time>2019-03-11T16:55:08Z</time>
      </trkpt>
      <trkpt lat="32.359465816989541" lon="-5.184072582051158">
        <ele>2106.8699999999999</ele>
        <time>2019-03-11T16:55:09Z</time>
      </trkpt>
      <trkpt lat="32.35944326967001" lon="-5.184093620628119">
        <ele>2107.3499999999999</ele>
        <time>2019-03-11T16:55:10Z</time>
      </trkpt>
      <trkpt lat="32.359418543055654" lon="-5.184115748852491">
        <ele>2113.1199999999999</ele>
        <time>2019-03-11T16:55:20Z</time>
      </trkpt>
      <trkpt lat="32.35905091278255" lon="-5.184435434639454">
        <ele>2114.0799999999999</ele>
        <time>2019-03-11T16:55:21Z</time>
      </trkpt>
      <trkpt lat="32.359008248895407" lon="-5.184484217315912">
        <ele>2115.04</ele>
        <time>2019-03-11T16:55:27Z</time>
      </trkpt>
      <trkpt lat="32.358712451532483" lon="-5.184945976361632">
        <ele>2116</ele>
        <time>2019-03-11T16:55:28Z</time>
      </trkpt>
      <trkpt lat="32.358673140406609" lon="-5.18505577929318">
        <ele>2116.48</ele>
        <time>2019-03-11T16:55:29Z</time>
      </trkpt>
      <trkpt lat="32.35865319147706" lon="-5.185173628851771">
        <ele>2116.96</ele>
        <time>2019-03-11T16:55:30Z</time>
      </trkpt>
      <trkpt lat="32.358653107658029" lon="-5.185302961617708">
        <ele>2117.4400000000001</ele>
        <time>2019-03-11T16:55:31Z</time>
      </trkpt>
      <trkpt lat="32.358667021617293" lon="-5.185446543619037">
        <ele>2117.4400000000001</ele>
        <time>2019-03-11T16:55:32Z</time>
      </trkpt>
      <trkpt lat="32.358682779595256" lon="-5.185598256066442">
        <ele>2117.4400000000001</ele>
        <time>2019-03-11T16:55:33Z</time>
      </trkpt>
      <trkpt lat="32.358689485117793" lon="-5.185754830017686">
        <ele>2116.96</ele>
        <time>2019-03-11T16:55:34Z</time>
      </trkpt>
      <trkpt lat="32.358682947233319" lon="-5.185924144461751">
        <ele>2116.96</ele>
        <time>2019-03-11T16:55:35Z</time>
      </trkpt>
      <trkpt lat="32.358660735189915" lon="-5.18610586412251">
        <ele>2117.4400000000001</ele>
        <time>2019-03-11T16:55:36Z</time>
      </trkpt>
      <trkpt lat="32.358624609187245" lon="-5.186288757249713">
        <ele>2117.9200000000001</ele>
        <time>2019-03-11T16:55:37Z</time>
      </trkpt>
      <trkpt lat="32.358578341081738" lon="-5.186462849378586">
        <ele>2117.9200000000001</ele>
        <time>2019-03-11T16:55:38Z</time>
      </trkpt>
      <trkpt lat="32.358528804033995" lon="-5.186628475785255">
        <ele>2118.4000000000001</ele>
        <time>2019-03-11T16:55:40Z</time>
      </trkpt>
      <trkpt lat="32.358452863991261" lon="-5.18695754930377">
        <ele>2118.4000000000001</ele>
        <time>2019-03-11T16:55:41Z</time>
      </trkpt>
      <trkpt lat="32.358436184003949" lon="-5.187133904546499">
        <ele>2118.4000000000001</ele>
        <time>2019-03-11T16:55:42Z</time>
      </trkpt>
      <trkpt lat="32.358436184003949" lon="-5.187320485711098">
        <ele>2118.8800000000001</ele>
        <time>2019-03-11T16:55:43Z</time>
      </trkpt>
      <trkpt lat="32.3584542889148" lon="-5.187516203150153">
        <ele>2118.8800000000001</ele>
        <time>2019-03-11T16:55:44Z</time>
      </trkpt>
      <trkpt lat="32.35849242657423" lon="-5.187714770436287">
        <ele>2119.3600000000001</ele>
        <time>2019-03-11T16:55:45Z</time>
      </trkpt>
      <trkpt lat="32.358548501506448" lon="-5.187914930284023">
        <ele>2120.3200000000002</ele>
        <time>2019-03-11T16:55:46Z</time>
      </trkpt>
      <trkpt lat="32.358609102666378" lon="-5.188110060989857">
        <ele>2121.77</ele>
        <time>2019-03-11T16:55:48Z</time>
      </trkpt>
      <trkpt lat="32.358688395470381" lon="-5.188483223319054">
        <ele>2121.77</ele>
        <time>2019-03-11T16:55:49Z</time>
      </trkpt>
      <trkpt lat="32.35868982039392" lon="-5.188664020970464">
        <ele>2122.25</ele>
        <time>2019-03-11T16:55:52Z</time>
      </trkpt>
      <trkpt lat="32.358680097386241" lon="-5.1891612354666">
        <ele>2122.73</ele>
        <time>2019-03-11T16:55:53Z</time>
      </trkpt>
      <trkpt lat="32.358701722696424" lon="-5.189297525212169">
        <ele>2122.73</ele>
        <time>2019-03-11T16:55:54Z</time>
      </trkpt>
      <trkpt lat="32.358739692717791" lon="-5.189401963725686">
        <ele>2123.21</ele>
        <time>2019-03-11T16:55:55Z</time>
      </trkpt>
      <trkpt lat="32.358793755993247" lon="-5.189481591805816">
        <ele>2123.6900000000001</ele>
        <time>2019-03-11T16:55:56Z</time>
      </trkpt>
      <trkpt lat="32.358861062675714" lon="-5.189552502706647">
        <ele>2123.6900000000001</ele>
        <time>2019-03-11T16:55:58Z</time>
      </trkpt>
      <trkpt lat="32.358994670212269" lon="-5.18972123041749">
        <ele>2124.1700000000001</ele>
        <time>2019-03-11T16:55:59Z</time>
      </trkpt>
      <trkpt lat="32.3590431176126" lon="-5.189817203208804">
        <ele>2124.6500000000001</ele>
        <time>2019-03-11T16:56:00Z</time>
      </trkpt>
      <trkpt lat="32.359077734872699" lon="-5.189917702227831">
        <ele>2125.1300000000001</ele>
        <time>2019-03-11T16:56:01Z</time>
      </trkpt>
      <trkpt lat="32.359091648831964" lon="-5.190022643655539">
        <ele>2126.0900000000001</ele>
        <time>2019-03-11T16:56:02Z</time>
      </trkpt>
      <trkpt lat="32.359079495072365" lon="-5.190131021663547">
        <ele>2126.0900000000001</ele>
        <time>2019-03-11T16:56:03Z</time>
      </trkpt>
      <trkpt lat="32.359061306342483" lon="-5.190242668613792">
        <ele>2126.5700000000002</ele>
        <time>2019-03-11T16:56:04Z</time>
      </trkpt>
      <trkpt lat="32.359057031571865" lon="-5.190356243401766">
        <ele>2128.5</ele>
        <time>2019-03-11T16:56:05Z</time>
      </trkpt>
      <trkpt lat="32.359082261100411" lon="-5.190464789047837">
        <ele>2128.98</ele>
        <time>2019-03-11T16:56:06Z</time>
      </trkpt>
      <trkpt lat="32.359140934422612" lon="-5.190563024953008">
        <ele>2129.46</ele>
        <time>2019-03-11T16:56:09Z</time>
      </trkpt>
      <trkpt lat="32.359381746500731" lon="-5.190875921398401">
        <ele>2129.9400000000001</ele>
        <time>2019-03-11T16:56:10Z</time>
      </trkpt>
      <trkpt lat="32.359447544440627" lon="-5.19099947065115">
        <ele>2130.4200000000001</ele>
        <time>2019-03-11T16:56:11Z</time>
      </trkpt>
      <trkpt lat="32.359491549432278" lon="-5.191123690456152">
        <ele>2130.9000000000001</ele>
        <time>2019-03-11T16:56:12Z</time>
      </trkpt>
      <trkpt lat="32.359507558867335" lon="-5.191255202516913">
        <ele>2130.9000000000001</ele>
        <time>2019-03-11T16:56:13Z</time>
      </trkpt>
      <trkpt lat="32.359492387622595" lon="-5.191389732062817">
        <ele>2130.4200000000001</ele>
        <time>2019-03-11T16:56:14Z</time>
      </trkpt>
      <trkpt lat="32.359458105638623" lon="-5.191515209153295">
        <ele>2130.4200000000001</ele>
        <time>2019-03-11T16:56:15Z</time>
      </trkpt>
      <trkpt lat="32.35941837541759" lon="-5.19162685610354">
        <ele>2130.4200000000001</ele>
        <time>2019-03-11T16:56:17Z</time>
      </trkpt>
      <trkpt lat="32.359332293272018" lon="-5.191814191639423">
        <ele>2129.9400000000001</ele>
        <time>2019-03-11T16:56:18Z</time>
      </trkpt>
      <trkpt lat="32.359278732910752" lon="-5.191887030377984">
        <ele>2129.46</ele>
        <time>2019-03-11T16:56:19Z</time>
      </trkpt>
      <trkpt lat="32.35921704210341" lon="-5.191939249634743">
        <ele>2129.46</ele>
        <time>2019-03-11T16:56:20Z</time>
      </trkpt>
      <trkpt lat="32.359153758734465" lon="-5.191969592124224">
        <ele>2128.98</ele>
        <time>2019-03-11T16:56:21Z</time>
      </trkpt>
      <trkpt lat="32.359085446223617" lon="-5.191975040361285">
        <ele>2128.02</ele>
        <time>2019-03-11T16:56:22Z</time>
      </trkpt>
      <trkpt lat="32.359011517837644" lon="-5.191957270726562">
        <ele>2128.02</ele>
        <time>2019-03-11T16:56:23Z</time>
      </trkpt>
      <trkpt lat="32.358930883929133" lon="-5.191929023712874">
        <ele>2128.02</ele>
        <time>2019-03-11T16:56:26Z</time>
      </trkpt>
      <trkpt lat="32.35867272131145" lon="-5.19185408949852">
        <ele>2128.02</ele>
        <time>2019-03-11T16:56:27Z</time>
      </trkpt>
      <trkpt lat="32.358589572831988" lon="-5.191851407289505">
        <ele>2128.02</ele>
        <time>2019-03-11T16:56:28Z</time>
      </trkpt>
      <trkpt lat="32.35850902274251" lon="-5.191872864961624">
        <ele>2128.5</ele>
        <time>2019-03-11T16:56:29Z</time>
      </trkpt>
      <trkpt lat="32.358437608927488" lon="-5.191917540505529">
        <ele>2128.5</ele>
        <time>2019-03-11T16:56:30Z</time>
      </trkpt>
      <trkpt lat="32.358384886756539" lon="-5.19198845140636">
        <ele>2128.5</ele>
        <time>2019-03-11T16:56:31Z</time>
      </trkpt>
      <trkpt lat="32.35835119150579" lon="-5.192083166912198">
        <ele>2128.98</ele>
        <time>2019-03-11T16:56:32Z</time>
      </trkpt>
      <trkpt lat="32.358336858451366" lon="-5.19219221547246">
        <ele>2129.46</ele>
        <time>2019-03-11T16:56:33Z</time>
      </trkpt>
      <trkpt lat="32.358332751318812" lon="-5.192311489954591">
        <ele>2129.9400000000001</ele>
        <time>2019-03-11T16:56:36Z</time>
      </trkpt>
      <trkpt lat="32.358302241191268" lon="-5.192658836022019">
        <ele>2129.9400000000001</ele>
        <time>2019-03-11T16:56:37Z</time>
      </trkpt>
      <trkpt lat="32.358268043026328" lon="-5.192755814641714">
        <ele>2129.9400000000001</ele>
        <time>2019-03-11T16:56:38Z</time>
      </trkpt>
      <trkpt lat="32.358215488493443" lon="-5.192833933979273">
        <ele>2129.9400000000001</ele>
        <time>2019-03-11T16:56:39Z</time>
      </trkpt>
      <trkpt lat="32.358143655583262" lon="-5.192887494340539">
        <ele>2129.9400000000001</ele>
        <time>2019-03-11T16:56:40Z</time>
      </trkpt>
      <trkpt lat="32.358057489618659" lon="-5.192912640050054">
        <ele>2129.9400000000001</ele>
        <time>2019-03-11T16:56:41Z</time>
      </trkpt>
      <trkpt lat="32.357962355017662" lon="-5.192911382764578">
        <ele>2129.9400000000001</ele>
        <time>2019-03-11T16:56:42Z</time>
      </trkpt>
      <trkpt lat="32.357859425246716" lon="-5.19289243966341">
        <ele>2131.8600000000001</ele>
        <time>2019-03-11T16:56:43Z</time>
      </trkpt>
      <trkpt lat="32.35774870030582" lon="-5.192859247326851">
        <ele>2132.3400000000001</ele>
        <time>2019-03-11T16:56:44Z</time>
      </trkpt>
      <trkpt lat="32.35763730481267" lon="-5.192815745249391">
        <ele>2132.8200000000002</ele>
        <time>2019-03-11T16:56:48Z</time>
      </trkpt>
      <trkpt lat="32.357208151370287" lon="-5.192624721676111">
        <ele>2133.3000000000002</ele>
        <time>2019-03-11T16:56:49Z</time>
      </trkpt>
      <trkpt lat="32.357110418379307" lon="-5.192611059173942">
        <ele>2133.7800000000002</ele>
        <time>2019-03-11T16:56:50Z</time>
      </trkpt>
      <trkpt lat="32.357019726186991" lon="-5.1926339417696">
        <ele>2134.7399999999998</ele>
        <time>2019-03-11T16:56:51Z</time>
      </trkpt>
      <trkpt lat="32.356945043429732" lon="-5.192695464938879">
        <ele>2135.23</ele>
        <time>2019-03-11T16:56:52Z</time>
      </trkpt>
      <trkpt lat="32.3568897228688" lon="-5.19278833642602">
        <ele>2137.6300000000001</ele>
        <time>2019-03-11T16:56:53Z</time>
      </trkpt>
      <trkpt lat="32.356853764504194" lon="-5.192904258146882">
        <ele>2138.1100000000001</ele>
        <time>2019-03-11T16:56:54Z</time>
      </trkpt>
      <trkpt lat="32.35682719387114" lon="-5.193036608397961">
        <ele>2138.1100000000001</ele>
        <time>2019-03-11T16:56:59Z</time>
      </trkpt>
      <trkpt lat="32.356703979894519" lon="-5.193822747096419">
        <ele>2142.4400000000001</ele>
        <time>2019-03-11T16:57:00Z</time>
      </trkpt>
      <trkpt lat="32.35671479254961" lon="-5.193980326876044">
        <ele>2142.9200000000001</ele>
        <time>2019-03-11T16:57:01Z</time>
      </trkpt>
      <trkpt lat="32.356749409809709" lon="-5.194143606349826">
        <ele>2143.8800000000001</ele>
        <time>2019-03-11T16:57:09Z</time>
      </trkpt>
      <trkpt lat="32.357233045622706" lon="-5.195615300908685">
        <ele>2147.7199999999998</ele>
        <time>2019-03-11T16:57:10Z</time>
      </trkpt>
      <trkpt lat="32.357276547700167" lon="-5.195801379159093">
        <ele>2148.1999999999998</ele>
        <time>2019-03-11T16:57:11Z</time>
      </trkpt>
      <trkpt lat="32.357306722551584" lon="-5.195984523743391">
        <ele>2148.6799999999998</ele>
        <time>2019-03-11T16:57:20Z</time>
      </trkpt>
      <trkpt lat="32.357641495764256" lon="-5.197631400078535">
        <ele>2148.6799999999998</ele>
        <time>2019-03-11T16:57:21Z</time>
      </trkpt>
      <trkpt lat="32.35765197314322" lon="-5.197842288762331">
        <ele>2148.6799999999998</ele>
        <time>2019-03-11T16:57:29Z</time>
      </trkpt>
      <trkpt lat="32.357756830751896" lon="-5.199281461536884">
        <ele>2148.6799999999998</ele>
        <time>2019-03-11T16:57:34Z</time>
      </trkpt>
      <trkpt lat="32.357827993109822" lon="-5.199855118989945">
        <ele>2149.1599999999999</ele>
        <time>2019-03-11T16:57:35Z</time>
      </trkpt>
      <trkpt lat="32.357837213203311" lon="-5.199963161721826">
        <ele>2148.6799999999998</ele>
        <time>2019-03-11T16:57:36Z</time>
      </trkpt>
      <trkpt lat="32.3578498698771" lon="-5.20005326718092">
        <ele>2148.6799999999998</ele>
        <time>2019-03-11T16:57:37Z</time>
      </trkpt>
      <trkpt lat="32.357856323942542" lon="-5.200128955766559">
        <ele>2148.6799999999998</ele>
        <time>2019-03-11T16:57:38Z</time>
      </trkpt>
      <trkpt lat="32.357847271487117" lon="-5.200199782848358">
        <ele>2148.6799999999998</ele>
        <time>2019-03-11T16:57:39Z</time>
      </trkpt>
      <trkpt lat="32.357825394719839" lon="-5.20026633515954">
        <ele>2149.1599999999999</ele>
        <time>2019-03-11T16:57:40Z</time>
      </trkpt>
      <trkpt lat="32.357798153534532" lon="-5.200331965461373">
        <ele>2149.1599999999999</ele>
        <time>2019-03-11T16:57:41Z</time>
      </trkpt>
      <trkpt lat="32.357765212655067" lon="-5.20040019415319">
        <ele>2151.5700000000002</ele>
        <time>2019-03-11T16:57:42Z</time>
      </trkpt>
      <trkpt lat="32.357729086652398" lon="-5.200467668473721">
        <ele>2152.0500000000002</ele>
        <time>2019-03-11T16:57:43Z</time>
      </trkpt>
      <trkpt lat="32.357688853517175" lon="-5.200534136965871">
        <ele>2154.9299999999998</ele>
        <time>2019-03-11T16:57:50Z</time>
      </trkpt>
      <trkpt lat="32.357310662046075" lon="-5.201190104708076">
        <ele>2155.4099999999999</ele>
        <time>2019-03-11T16:57:51Z</time>
      </trkpt>
      <trkpt lat="32.357267495244741" lon="-5.201298063620925">
        <ele>2156.8600000000001</ele>
        <time>2019-03-11T16:57:56Z</time>
      </trkpt>
      <trkpt lat="32.357037495821714" lon="-5.201925113797188">
        <ele>2157.3400000000001</ele>
        <time>2019-03-11T16:57:57Z</time>
      </trkpt>
      <trkpt lat="32.35696105286479" lon="-5.202060649171472">
        <ele>2157.8200000000002</ele>
        <time>2019-03-11T16:58:00Z</time>
      </trkpt>
      <trkpt lat="32.356721414253116" lon="-5.202457364648581">
        <ele>2158.7800000000002</ele>
        <time>2019-03-11T16:58:01Z</time>
      </trkpt>
      <trkpt lat="32.356664333492517" lon="-5.202597007155418">
        <ele>2159.2600000000002</ele>
        <time>2019-03-11T16:58:02Z</time>
      </trkpt>
      <trkpt lat="32.356631057336926" lon="-5.202749473974109">
        <ele>2160.2199999999998</ele>
        <time>2019-03-11T16:58:03Z</time>
      </trkpt>
      <trkpt lat="32.356623178347945" lon="-5.20291862078011">
        <ele>2160.6999999999998</ele>
        <time>2019-03-11T16:58:04Z</time>
      </trkpt>
      <trkpt lat="32.356636673212051" lon="-5.203097825869918">
        <ele>2165.5100000000002</ele>
        <time>2019-03-11T16:58:05Z</time>
      </trkpt>
      <trkpt lat="32.35666936263442" lon="-5.203285915777087">
        <ele>2166.4699999999998</ele>
        <time>2019-03-11T16:58:06Z</time>
      </trkpt>
      <trkpt lat="32.356714708730578" lon="-5.203483980149031">
        <ele>2167.9099999999999</ele>
        <time>2019-03-11T16:58:10Z</time>
      </trkpt>
      <trkpt lat="32.356871450319886" lon="-5.204253355041146">
        <ele>2168.3899999999999</ele>
        <time>2019-03-11T16:58:11Z</time>
      </trkpt>
      <trkpt lat="32.356874635443091" lon="-5.204434739425778">
        <ele>2168.3899999999999</ele>
        <time>2019-03-11T16:58:13Z</time>
      </trkpt>
      <trkpt lat="32.356870109215379" lon="-5.204797005280852">
        <ele>2170.79</ele>
        <time>2019-03-11T16:58:14Z</time>
      </trkpt>
      <trkpt lat="32.356887375935912" lon="-5.204974450170994">
        <ele>2177.04</ele>
        <time>2019-03-11T16:58:15Z</time>
      </trkpt>
      <trkpt lat="32.356916293501854" lon="-5.20514820702374">
        <ele>2182.8099999999999</ele>
        <time>2019-03-11T16:58:23Z</time>
      </trkpt>
      <trkpt lat="32.357110418379307" lon="-5.206635324284434">
        <ele>2183.29</ele>
        <time>2019-03-11T16:58:30Z</time>
      </trkpt>
      <trkpt lat="32.357113938778639" lon="-5.208017751574516">
        <ele>2183.77</ele>
        <time>2019-03-11T16:58:37Z</time>
      </trkpt>
      <trkpt lat="32.357256263494492" lon="-5.209221141412854">
        <ele>2184.25</ele>
        <time>2019-03-11T16:58:38Z</time>
      </trkpt>
      <trkpt lat="32.357268752530217" lon="-5.209351647645235">
        <ele>2184.73</ele>
        <time>2019-03-11T16:58:39Z</time>
      </trkpt>
      <trkpt lat="32.357255928218365" lon="-5.20946865901351">
        <ele>2185.21</ele>
        <time>2019-03-11T16:58:40Z</time>
      </trkpt>
      <trkpt lat="32.3572195507586" lon="-5.209571253508329">
        <ele>2185.6900000000001</ele>
        <time>2019-03-11T16:58:41Z</time>
      </trkpt>
      <trkpt lat="32.357168002054095" lon="-5.209662364795804">
        <ele>2185.6900000000001</ele>
        <time>2019-03-11T16:58:42Z</time>
      </trkpt>
      <trkpt lat="32.357111675664783" lon="-5.209742747247219">
        <ele>2186.1799999999998</ele>
        <time>2019-03-11T16:58:44Z</time>
      </trkpt>
      <trkpt lat="32.357026264071465" lon="-5.209897728636861">
        <ele>2186.6599999999999</ele>
        <time>2019-03-11T16:58:45Z</time>
      </trkpt>
      <trkpt lat="32.357005057856441" lon="-5.209978614002466">
        <ele>2187.1399999999999</ele>
        <time>2019-03-11T16:58:46Z</time>
      </trkpt>
      <trkpt lat="32.357000028714538" lon="-5.210068384185433">
        <ele>2190.02</ele>
        <time>2019-03-11T16:58:47Z</time>
      </trkpt>
      <trkpt lat="32.357002794742584" lon="-5.210167206823826">
        <ele>2197.71</ele>
        <time>2019-03-11T16:58:48Z</time>
      </trkpt>
      <trkpt lat="32.357011176645756" lon="-5.210274998098612">
        <ele>2203</ele>
        <time>2019-03-11T16:58:57Z</time>
      </trkpt>
      <trkpt lat="32.35710714943707" lon="-5.211416110396385">
        <ele>2205.8800000000001</ele>
        <time>2019-03-11T16:59:06Z</time>
      </trkpt>
      <trkpt lat="32.357113100588322" lon="-5.212287157773972">
        <ele>2205.4000000000001</ele>
        <time>2019-03-11T16:59:18Z</time>
      </trkpt>
      <trkpt lat="32.357133468613029" lon="-5.213056281208992">
        <ele>2204.9200000000001</ele>
        <time>2019-03-11T16:59:29Z</time>
      </trkpt>
      <trkpt lat="32.357128858566284" lon="-5.213860524818301">
        <ele>2204.9200000000001</ele>
        <time>2019-03-11T16:59:30Z</time>
      </trkpt>
      <trkpt lat="32.357115028426051" lon="-5.213941913098097">
        <ele>2203.96</ele>
        <time>2019-03-11T16:59:31Z</time>
      </trkpt>
      <trkpt lat="32.357091642916203" lon="-5.2140212059021">
        <ele>2200.1100000000001</ele>
        <time>2019-03-11T16:59:32Z</time>
      </trkpt>
      <trkpt lat="32.357058702036738" lon="-5.214099157601595">
        <ele>2200.1100000000001</ele>
        <time>2019-03-11T16:59:33Z</time>
      </trkpt>
      <trkpt lat="32.357020732015371" lon="-5.214175349101424">
        <ele>2203</ele>
        <time>2019-03-11T16:59:40Z</time>
      </trkpt>
      <trkpt lat="32.35669668763876" lon="-5.214792089536786">
        <ele>2203.48</ele>
        <time>2019-03-11T16:59:41Z</time>
      </trkpt>
      <trkpt lat="32.35666785389185" lon="-5.214883787557483">
        <ele>2203.48</ele>
        <time>2019-03-11T16:59:53Z</time>
      </trkpt>
      <trkpt lat="32.356411283835769" lon="-5.215891962870956">
        <ele>2203.48</ele>
        <time>2019-03-11T16:59:55Z</time>
      </trkpt>
      <trkpt lat="32.356367195025086" lon="-5.216051386669278">
        <ele>2203.96</ele>
        <time>2019-03-11T16:59:56Z</time>
      </trkpt>
      <trkpt lat="32.356354286894202" lon="-5.216129925101996">
        <ele>2203.96</ele>
        <time>2019-03-11T17:00:02Z</time>
      </trkpt>
      <trkpt lat="32.356358813121915" lon="-5.216662595048547">
        <ele>2203.48</ele>
        <time>2019-03-11T17:00:03Z</time>
      </trkpt>
      <trkpt lat="32.356392256915569" lon="-5.216764099895954">
        <ele>2203.48</ele>
        <time>2019-03-11T17:00:04Z</time>
      </trkpt>
      <trkpt lat="32.356440033763647" lon="-5.216866945847869">
        <ele>2203.48</ele>
        <time>2019-03-11T17:00:06Z</time>
      </trkpt>
      <trkpt lat="32.356539024040103" lon="-5.217068362981081">
        <ele>2203.48</ele>
        <time>2019-03-11T17:00:07Z</time>
      </trkpt>
      <trkpt lat="32.356573473662138" lon="-5.21717581897974">
        <ele>2203.96</ele>
        <time>2019-03-11T17:00:08Z</time>
      </trkpt>
      <trkpt lat="32.356593506410718" lon="-5.217295931652188">
        <ele>2204.4400000000001</ele>
        <time>2019-03-11T17:00:09Z</time>
      </trkpt>
      <trkpt lat="32.356600882485509" lon="-5.21742451004684">
        <ele>2204.9200000000001</ele>
        <time>2019-03-11T17:00:10Z</time>
      </trkpt>
      <trkpt lat="32.356598200276494" lon="-5.217562224715948">
        <ele>2205.4000000000001</ele>
        <time>2019-03-11T17:00:11Z</time>
      </trkpt>
      <trkpt lat="32.356584202498198" lon="-5.217701699584723">
        <ele>2205.8800000000001</ele>
        <time>2019-03-11T17:00:12Z</time>
      </trkpt>
      <trkpt lat="32.356560816988349" lon="-5.217843102291226">
        <ele>2205.8800000000001</ele>
        <time>2019-03-11T17:00:13Z</time>
      </trkpt>
      <trkpt lat="32.356524607166648" lon="-5.217981822788715">
        <ele>2204.9200000000001</ele>
        <time>2019-03-11T17:00:14Z</time>
      </trkpt>
      <trkpt lat="32.356481943279505" lon="-5.218119202181697">
        <ele>2204.4400000000001</ele>
        <time>2019-03-11T17:00:15Z</time>
      </trkpt>
      <trkpt lat="32.356434501707554" lon="-5.218255072832108">
        <ele>2204.4400000000001</ele>
        <time>2019-03-11T17:00:17Z</time>
      </trkpt>
      <trkpt lat="32.356361830607057" lon="-5.218510050326586">
        <ele>2203.96</ele>
        <time>2019-03-11T17:00:18Z</time>
      </trkpt>
      <trkpt lat="32.356354203075171" lon="-5.218629240989685">
        <ele>2203.96</ele>
        <time>2019-03-11T17:00:19Z</time>
      </trkpt>
      <trkpt lat="32.356368619948626" lon="-5.218741893768311">
        <ele>2203.96</ele>
        <time>2019-03-11T17:00:21Z</time>
      </trkpt>
      <trkpt lat="32.356409942731261" lon="-5.218953117728233">
        <ele>2204.4400000000001</ele>
        <time>2019-03-11T17:00:22Z</time>
      </trkpt>
      <trkpt lat="32.356408098712564" lon="-5.219050850719214">
        <ele>2204.9200000000001</ele>
        <time>2019-03-11T17:00:23Z</time>
      </trkpt>
      <trkpt lat="32.356391754001379" lon="-5.219142884016037">
        <ele>2209.25</ele>
        <time>2019-03-11T17:00:31Z</time>
      </trkpt>
      <trkpt lat="32.356264432892203" lon="-5.219610342755914">
        <ele>2210.6900000000001</ele>
        <time>2019-03-11T17:00:41Z</time>
      </trkpt>
      <trkpt lat="32.355835530906916" lon="-5.220388099551201">
        <ele>2211.1700000000001</ele>
        <time>2019-03-11T17:00:49Z</time>
      </trkpt>
      <trkpt lat="32.355289533734322" lon="-5.221315808594227">
        <ele>2211.6500000000001</ele>
        <time>2019-03-11T17:00:57Z</time>
      </trkpt>
      <trkpt lat="32.355025336146355" lon="-5.222054421901703">
        <ele>2211.6500000000001</ele>
        <time>2019-03-11T17:00:58Z</time>
      </trkpt>
      <trkpt lat="32.355004800483584" lon="-5.222112843766809">
        <ele>2212.1300000000001</ele>
        <time>2019-03-11T17:00:59Z</time>
      </trkpt>
      <trkpt lat="32.354978146031499" lon="-5.222168499603868">
        <ele>2211.6500000000001</ele>
        <time>2019-03-11T17:01:00Z</time>
      </trkpt>
      <trkpt lat="32.354941265657544" lon="-5.22221795283258">
        <ele>2211.6500000000001</ele>
        <time>2019-03-11T17:01:01Z</time>
      </trkpt>
      <trkpt lat="32.354898769408464" lon="-5.2222565934062">
        <ele>2211.1700000000001</ele>
        <time>2019-03-11T17:01:02Z</time>
      </trkpt>
      <trkpt lat="32.354853255674243" lon="-5.222285343334079">
        <ele>2210.6900000000001</ele>
        <time>2019-03-11T17:01:03Z</time>
      </trkpt>
      <trkpt lat="32.354803467169404" lon="-5.222312249243259">
        <ele>2211.1700000000001</ele>
        <time>2019-03-11T17:01:04Z</time>
      </trkpt>
      <trkpt lat="32.354748230427504" lon="-5.222336389124394">
        <ele>2211.6500000000001</ele>
        <time>2019-03-11T17:01:09Z</time>
      </trkpt>
      <trkpt lat="32.354513788595796" lon="-5.222450383007526">
        <ele>2211.6500000000001</ele>
        <time>2019-03-11T17:01:10Z</time>
      </trkpt>
      <trkpt lat="32.354479171335697" lon="-5.22248181514442">
        <ele>2211.6500000000001</ele>
        <time>2019-03-11T17:01:11Z</time>
      </trkpt>
      <trkpt lat="32.35444899648428" lon="-5.222519533708692">
        <ele>2212.6100000000001</ele>
        <time>2019-03-11T17:01:12Z</time>
      </trkpt>
      <trkpt lat="32.354422006756067" lon="-5.222564041614533">
        <ele>2212.6100000000001</ele>
        <time>2019-03-11T17:01:13Z</time>
      </trkpt>
      <trkpt lat="32.354395184665918" lon="-5.222612153738737">
        <ele>2212.1300000000001</ele>
        <time>2019-03-11T17:01:24Z</time>
      </trkpt>
      <trkpt lat="32.354250932112336" lon="-5.22305890917778">
        <ele>2211.6500000000001</ele>
        <time>2019-03-11T17:01:25Z</time>
      </trkpt>
      <trkpt lat="32.354243975132704" lon="-5.223112469539046">
        <ele>2211.1700000000001</ele>
        <time>2019-03-11T17:01:26Z</time>
      </trkpt>
      <trkpt lat="32.354233246296644" lon="-5.223167287185788">
        <ele>2210.6900000000001</ele>
        <time>2019-03-11T17:01:28Z</time>
      </trkpt>
      <trkpt lat="32.354198712855577" lon="-5.223281197249889">
        <ele>2210.6900000000001</ele>
        <time>2019-03-11T17:01:29Z</time>
      </trkpt>
      <trkpt lat="32.354173986241221" lon="-5.223337691277266">
        <ele>2210.21</ele>
        <time>2019-03-11T17:01:30Z</time>
      </trkpt>
      <trkpt lat="32.354144062846899" lon="-5.223392173647881">
        <ele>2210.21</ele>
        <time>2019-03-11T17:01:31Z</time>
      </trkpt>
      <trkpt lat="32.354106511920691" lon="-5.223440453410149">
        <ele>2210.21</ele>
        <time>2019-03-11T17:01:32Z</time>
      </trkpt>
      <trkpt lat="32.354058064520359" lon="-5.223473561927676">
        <ele>2210.21</ele>
        <time>2019-03-11T17:01:33Z</time>
      </trkpt>
      <trkpt lat="32.35399997793138" lon="-5.223489655181766">
        <ele>2210.21</ele>
        <time>2019-03-11T17:01:34Z</time>
      </trkpt>
      <trkpt lat="32.35393644310534" lon="-5.22348546423018">
        <ele>2211.1700000000001</ele>
        <time>2019-03-11T17:01:35Z</time>
      </trkpt>
      <trkpt lat="32.353866873309016" lon="-5.223468784242868">
        <ele>2212.1300000000001</ele>
        <time>2019-03-11T17:01:36Z</time>
      </trkpt>
      <trkpt lat="32.353790011256933" lon="-5.223444392904639">
        <ele>2212.6100000000001</ele>
        <time>2019-03-11T17:01:41Z</time>
      </trkpt>
      <trkpt lat="32.35345515422523" lon="-5.223306426778436">
        <ele>2213.0900000000001</ele>
        <time>2019-03-11T17:01:42Z</time>
      </trkpt>
      <trkpt lat="32.353398492559791" lon="-5.223316065967083">
        <ele>2214.0500000000002</ele>
        <time>2019-03-11T17:01:43Z</time>
      </trkpt>
      <trkpt lat="32.353339400142431" lon="-5.223342720419169">
        <ele>2214.5300000000002</ele>
        <time>2019-03-11T17:01:44Z</time>
      </trkpt>
      <trkpt lat="32.353276032954454" lon="-5.223379097878933">
        <ele>2215.0100000000002</ele>
        <time>2019-03-11T17:01:45Z</time>
      </trkpt>
      <trkpt lat="32.353204786777496" lon="-5.223424360156059">
        <ele>2215.5</ele>
        <time>2019-03-11T17:01:46Z</time>
      </trkpt>
      <trkpt lat="32.353134378790855" lon="-5.223475657403469">
        <ele>2215.98</ele>
        <time>2019-03-11T17:01:47Z</time>
      </trkpt>
      <trkpt lat="32.353073274716735" lon="-5.223533324897289">
        <ele>2215.98</ele>
        <time>2019-03-11T17:01:48Z</time>
      </trkpt>
      <trkpt lat="32.353025665506721" lon="-5.223603146150708">
        <ele>2216.46</ele>
        <time>2019-03-11T17:01:49Z</time>
      </trkpt>
      <trkpt lat="32.352989120408893" lon="-5.223676823079586">
        <ele>2217.4200000000001</ele>
        <time>2019-03-11T17:01:50Z</time>
      </trkpt>
      <trkpt lat="32.352956682443619" lon="-5.223746141418815">
        <ele>2217.9000000000001</ele>
        <time>2019-03-11T17:01:51Z</time>
      </trkpt>
      <trkpt lat="32.352920053526759" lon="-5.223809257149696">
        <ele>2217.9000000000001</ele>
        <time>2019-03-11T17:01:52Z</time>
      </trkpt>
      <trkpt lat="32.352875964716077" lon="-5.223862063139677">
        <ele>2218.3800000000001</ele>
        <time>2019-03-11T17:01:53Z</time>
      </trkpt>
      <trkpt lat="32.35282483510673" lon="-5.223905397579074">
        <ele>2218.3800000000001</ele>
        <time>2019-03-11T17:01:54Z</time>
      </trkpt>
      <trkpt lat="32.352765826508403" lon="-5.223941104486585">
        <ele>2218.8600000000001</ele>
        <time>2019-03-11T17:01:55Z</time>
      </trkpt>
      <trkpt lat="32.352699693292379" lon="-5.223968848586083">
        <ele>2218.8600000000001</ele>
        <time>2019-03-11T17:01:56Z</time>
      </trkpt>
      <trkpt lat="32.352626770734787" lon="-5.22399072535336">
        <ele>2219.8200000000002</ele>
        <time>2019-03-11T17:01:57Z</time>
      </trkpt>
      <trkpt lat="32.352548567578197" lon="-5.224006902426481">
        <ele>2223.1900000000001</ele>
        <time>2019-03-11T17:01:58Z</time>
      </trkpt>
      <trkpt lat="32.352461060509086" lon="-5.224022660404444">
        <ele>2223.1900000000001</ele>
        <time>2019-03-11T17:02:02Z</time>
      </trkpt>
      <trkpt lat="32.352052694186568" lon="-5.224170768633485">
        <ele>2224.1500000000001</ele>
        <time>2019-03-11T17:02:11Z</time>
      </trkpt>
      <trkpt lat="32.351136216893792" lon="-5.224733864888549">
        <ele>2224.1500000000001</ele>
        <time>2019-03-11T17:02:12Z</time>
      </trkpt>
      <trkpt lat="32.351051224395633" lon="-5.224818019196391">
        <ele>2224.6300000000001</ele>
        <time>2019-03-11T17:02:16Z</time>
      </trkpt>
      <trkpt lat="32.350684767588973" lon="-5.22516536526382">
        <ele>2224.6300000000001</ele>
        <time>2019-03-11T17:02:17Z</time>
      </trkpt>
      <trkpt lat="32.350577898323536" lon="-5.22523183375597">
        <ele>2224.6300000000001</ele>
        <time>2019-03-11T17:02:24Z</time>
      </trkpt>
      <trkpt lat="32.349807182326913" lon="-5.22548446431756">
        <ele>2224.6300000000001</ele>
        <time>2019-03-11T17:02:25Z</time>
      </trkpt>
      <trkpt lat="32.349699726328254" lon="-5.225473064929247">
        <ele>2225.1100000000001</ele>
        <time>2019-03-11T17:02:26Z</time>
      </trkpt>
      <trkpt lat="32.349591348320246" lon="-5.225442973896861">
        <ele>2225.1100000000001</ele>
        <time>2019-03-11T17:02:27Z</time>
      </trkpt>
      <trkpt lat="32.349491268396378" lon="-5.22540039382875">
        <ele>2225.1100000000001</ele>
        <time>2019-03-11T17:02:28Z</time>
      </trkpt>
      <trkpt lat="32.349399235099554" lon="-5.225351778790355">
        <ele>2225.5900000000001</ele>
        <time>2019-03-11T17:02:29Z</time>
      </trkpt>
      <trkpt lat="32.349316002801061" lon="-5.225316490978003">
        <ele>2226.0700000000002</ele>
        <time>2019-03-11T17:02:30Z</time>
      </trkpt>
      <trkpt lat="32.349238134920597" lon="-5.225310120731592">
        <ele>2226.0700000000002</ele>
        <time>2019-03-11T17:02:31Z</time>
      </trkpt>
      <trkpt lat="32.349163871258497" lon="-5.225337613373995">
        <ele>2226.5500000000002</ele>
        <time>2019-03-11T17:02:32Z</time>
      </trkpt>
      <trkpt lat="32.349093798547983" lon="-5.225394358858466">
        <ele>2226.5500000000002</ele>
        <time>2019-03-11T17:02:33Z</time>
      </trkpt>
      <trkpt lat="32.349021546542645" lon="-5.225464096292853">
        <ele>2227.0300000000002</ele>
        <time>2019-03-11T17:02:36Z</time>
      </trkpt>
      <trkpt lat="32.348792469128966" lon="-5.225709350779653">
        <ele>2227.0300000000002</ele>
        <time>2019-03-11T17:02:37Z</time>
      </trkpt>
      <trkpt lat="32.348734382539988" lon="-5.225821919739246">
        <ele>2227.5100000000002</ele>
        <time>2019-03-11T17:02:38Z</time>
      </trkpt>
      <trkpt lat="32.34869247302413" lon="-5.225957287475467">
        <ele>2227.9899999999998</ele>
        <time>2019-03-11T17:02:39Z</time>
      </trkpt>
      <trkpt lat="32.348666237667203" lon="-5.226114112883806">
        <ele>2230.8800000000001</ele>
        <time>2019-03-11T17:02:40Z</time>
      </trkpt>
      <trkpt lat="32.348650982603431" lon="-5.22628627717495">
        <ele>2233.2800000000002</ele>
        <time>2019-03-11T17:02:41Z</time>
      </trkpt>
      <trkpt lat="32.348639164119959" lon="-5.226469002664089">
        <ele>2233.7600000000002</ele>
        <time>2019-03-11T17:02:48Z</time>
      </trkpt>
      <trkpt lat="32.348604798316956" lon="-5.227747745811939">
        <ele>2234.2399999999998</ele>
        <time>2019-03-11T17:02:54Z</time>
      </trkpt>
      <trkpt lat="32.348617957904935" lon="-5.228565316647291">
        <ele>2233.7600000000002</ele>
        <time>2019-03-11T17:02:55Z</time>
      </trkpt>
      <trkpt lat="32.34860354103148" lon="-5.228628264740109">
        <ele>2233.2800000000002</ele>
        <time>2019-03-11T17:02:56Z</time>
      </trkpt>
      <trkpt lat="32.348586190491915" lon="-5.228660954162478">
        <ele>2232.8000000000002</ele>
        <time>2019-03-11T17:02:57Z</time>
      </trkpt>
      <trkpt lat="32.348567163571715" lon="-5.228683585301042">
        <ele>2232.8000000000002</ele>
        <time>2019-03-11T17:02:58Z</time>
      </trkpt>
      <trkpt lat="32.348539922386408" lon="-5.228706384077668">
        <ele>2232.3200000000002</ele>
        <time>2019-03-11T17:02:59Z</time>
      </trkpt>
      <trkpt lat="32.348503209650517" lon="-5.228731362149119">
        <ele>2232.3200000000002</ele>
        <time>2019-03-11T17:03:00Z</time>
      </trkpt>
      <trkpt lat="32.34845794737339" lon="-5.228761537000537">
        <ele>2232.3200000000002</ele>
        <time>2019-03-11T17:03:09Z</time>
      </trkpt>
      <trkpt lat="32.348044887185097" lon="-5.229069907218218">
        <ele>2235.1999999999998</ele>
        <time>2019-03-11T17:03:11Z</time>
      </trkpt>
      <trkpt lat="32.34793215058744" lon="-5.229133861139417">
        <ele>2237.1300000000001</ele>
        <time>2019-03-11T17:03:12Z</time>
      </trkpt>
      <trkpt lat="32.34787062741816" lon="-5.229159761220217">
        <ele>2237.6100000000001</ele>
        <time>2019-03-11T17:03:19Z</time>
      </trkpt>
      <trkpt lat="32.347245002165437" lon="-5.22937391884625">
        <ele>2238.0900000000001</ele>
        <time>2019-03-11T17:03:25Z</time>
      </trkpt>
      <trkpt lat="32.346558356657624" lon="-5.229621771723032">
        <ele>2239.0500000000002</ele>
        <time>2019-03-11T17:03:26Z</time>
      </trkpt>
      <trkpt lat="32.346452996134758" lon="-5.22962998598814">
        <ele>2239.5300000000002</ele>
        <time>2019-03-11T17:03:27Z</time>
      </trkpt>
      <trkpt lat="32.346342438831925" lon="-5.229619089514017">
        <ele>2240.0100000000002</ele>
        <time>2019-03-11T17:03:28Z</time>
      </trkpt>
      <trkpt lat="32.346225427463651" lon="-5.229587741196156">
        <ele>2240.4899999999998</ele>
        <time>2019-03-11T17:03:29Z</time>
      </trkpt>
      <trkpt lat="32.346114031970501" lon="-5.229539712890983">
        <ele>2243.3699999999999</ele>
        <time>2019-03-11T17:03:30Z</time>
      </trkpt>
      <trkpt lat="32.346010599285364" lon="-5.229477938264608">
        <ele>2243.8499999999999</ele>
        <time>2019-03-11T17:03:31Z</time>
      </trkpt>
      <trkpt lat="32.345910100266337" lon="-5.229409290477634">
        <ele>2244.3299999999999</ele>
        <time>2019-03-11T17:03:36Z</time>
      </trkpt>
      <trkpt lat="32.345401318743825" lon="-5.229059932753444">
        <ele>2244.8200000000002</ele>
        <time>2019-03-11T17:03:37Z</time>
      </trkpt>
      <trkpt lat="32.345319595187902" lon="-5.229033948853612">
        <ele>2245.3000000000002</ele>
        <time>2019-03-11T17:03:38Z</time>
      </trkpt>
      <trkpt lat="32.345242314040661" lon="-5.229028584435582">
        <ele>2246.2600000000002</ele>
        <time>2019-03-11T17:03:39Z</time>
      </trkpt>
      <trkpt lat="32.345168385654688" lon="-5.229040570557118">
        <ele>2246.2600000000002</ele>
        <time>2019-03-11T17:03:40Z</time>
      </trkpt>
      <trkpt lat="32.345102084800601" lon="-5.229066219180822">
        <ele>2246.7399999999998</ele>
        <time>2019-03-11T17:03:41Z</time>
      </trkpt>
      <trkpt lat="32.345046848058701" lon="-5.229103770107031">
        <ele>2247.2199999999998</ele>
        <time>2019-03-11T17:03:42Z</time>
      </trkpt>
      <trkpt lat="32.34500234015286" lon="-5.229153139516711">
        <ele>2247.2199999999998</ele>
        <time>2019-03-11T17:03:43Z</time>
      </trkpt>
      <trkpt lat="32.34497157856822" lon="-5.229217261075974">
        <ele>2247.6999999999998</ele>
        <time>2019-03-11T17:03:44Z</time>
      </trkpt>
      <trkpt lat="32.344953054562211" lon="-5.229289932176471">
        <ele>2248.1799999999998</ele>
        <time>2019-03-11T17:03:45Z</time>
      </trkpt>
      <trkpt lat="32.344947103410959" lon="-5.22936855442822">
        <ele>2248.6599999999999</ele>
        <time>2019-03-11T17:03:46Z</time>
      </trkpt>
      <trkpt lat="32.344949617981911" lon="-5.229452960193157">
        <ele>2250.0999999999999</ele>
        <time>2019-03-11T17:03:47Z</time>
      </trkpt>
      <trkpt lat="32.344956826418638" lon="-5.229543317109346">
        <ele>2250.5799999999999</ele>
        <time>2019-03-11T17:03:48Z</time>
      </trkpt>
      <trkpt lat="32.344966884702444" lon="-5.229639122262597">
        <ele>2251.0599999999999</ele>
        <time>2019-03-11T17:03:51Z</time>
      </trkpt>
      <trkpt lat="32.344975266605616" lon="-5.229957550764084">
        <ele>2251.0599999999999</ele>
        <time>2019-03-11T17:03:52Z</time>
      </trkpt>
      <trkpt lat="32.344958754256368" lon="-5.230071628466249">
        <ele>2251.54</ele>
        <time>2019-03-11T17:03:53Z</time>
      </trkpt>
      <trkpt lat="32.344927992671728" lon="-5.230181263759732">
        <ele>2251.54</ele>
        <time>2019-03-11T17:03:54Z</time>
      </trkpt>
      <trkpt lat="32.34488214366138" lon="-5.230281427502632">
        <ele>2252.0300000000002</ele>
        <time>2019-03-11T17:03:55Z</time>
      </trkpt>
      <trkpt lat="32.344819782301784" lon="-5.23036734201014">
        <ele>2252.5100000000002</ele>
        <time>2019-03-11T17:03:56Z</time>
      </trkpt>
      <trkpt lat="32.344745686277747" lon="-5.23043179884553">
        <ele>2252.9899999999998</ele>
        <time>2019-03-11T17:03:57Z</time>
      </trkpt>
      <trkpt lat="32.344663878902793" lon="-5.230476474389434">
        <ele>2253.9499999999998</ele>
        <time>2019-03-11T17:03:58Z</time>
      </trkpt>
      <trkpt lat="32.344577880576253" lon="-5.23051343858242">
        <ele>2254.9099999999999</ele>
        <time>2019-03-11T17:03:59Z</time>
      </trkpt>
      <trkpt lat="32.344493390992284" lon="-5.230564819648862">
        <ele>2255.3899999999999</ele>
        <time>2019-03-11T17:04:00Z</time>
      </trkpt>
      <trkpt lat="32.344418708235025" lon="-5.230637155473232">
        <ele>2256.3499999999999</ele>
        <time>2019-03-11T17:04:01Z</time>
      </trkpt>
      <trkpt lat="32.344358023256063" lon="-5.230726674199104">
        <ele>2257.3099999999999</ele>
        <time>2019-03-11T17:04:02Z</time>
      </trkpt>
      <trkpt lat="32.344307899475098" lon="-5.230831615626812">
        <ele>2257.79</ele>
        <time>2019-03-11T17:04:03Z</time>
      </trkpt>
      <trkpt lat="32.344266660511494" lon="-5.230949381366372">
        <ele>2258.75</ele>
        <time>2019-03-11T17:04:04Z</time>
      </trkpt>
      <trkpt lat="32.344233384355903" lon="-5.23107728920877">
        <ele>2263.0799999999999</ele>
        <time>2019-03-11T17:04:05Z</time>
      </trkpt>
      <trkpt lat="32.344205640256405" lon="-5.231215339154005">
        <ele>2263.5599999999999</ele>
        <time>2019-03-11T17:04:06Z</time>
      </trkpt>
      <trkpt lat="32.344180159270763" lon="-5.231362944468856">
        <ele>2264.04</ele>
        <time>2019-03-11T17:04:13Z</time>
      </trkpt>
      <trkpt lat="32.344092903658748" lon="-5.232455860823393">
        <ele>2264.04</ele>
        <time>2019-03-11T17:04:14Z</time>
      </trkpt>
      <trkpt lat="32.344049150124192" lon="-5.232588965445757">
        <ele>2264.52</ele>
        <time>2019-03-11T17:04:15Z</time>
      </trkpt>
      <trkpt lat="32.343985950574279" lon="-5.232716118916869">
        <ele>2265.48</ele>
        <time>2019-03-11T17:04:16Z</time>
      </trkpt>
      <trkpt lat="32.343915542587638" lon="-5.232829274609685">
        <ele>2265.48</ele>
        <time>2019-03-11T17:04:17Z</time>
      </trkpt>
      <trkpt lat="32.343850247561932" lon="-5.232929941266775">
        <ele>2266.9299999999998</ele>
        <time>2019-03-11T17:04:21Z</time>
      </trkpt>
      <trkpt lat="32.343638017773628" lon="-5.23336261510849">
        <ele>2266.9299999999998</ele>
        <time>2019-03-11T17:04:22Z</time>
      </trkpt>
      <trkpt lat="32.343601724132895" lon="-5.233480129390955">
        <ele>2267.4099999999999</ele>
        <time>2019-03-11T17:04:26Z</time>
      </trkpt>
      <trkpt lat="32.343501895666122" lon="-5.233867457136512">
        <ele>2267.4099999999999</ele>
        <time>2019-03-11T17:04:27Z</time>
      </trkpt>
      <trkpt lat="32.343475576490164" lon="-5.233938870951533">
        <ele>2267.8899999999999</ele>
        <time>2019-03-11T17:04:31Z</time>
      </trkpt>
      <trkpt lat="32.343343980610371" lon="-5.234242882579565">
        <ele>2267.8899999999999</ele>
        <time>2019-03-11T17:04:32Z</time>
      </trkpt>
      <trkpt lat="32.343294192105532" lon="-5.234324857592583">
        <ele>2268.3699999999999</ele>
        <time>2019-03-11T17:04:33Z</time>
      </trkpt>
      <trkpt lat="32.343234345316887" lon="-5.234407754614949">
        <ele>2268.3699999999999</ele>
        <time>2019-03-11T17:04:34Z</time>
      </trkpt>
      <trkpt lat="32.343158153817058" lon="-5.234488220885396">
        <ele>2268.8499999999999</ele>
        <time>2019-03-11T17:04:35Z</time>
      </trkpt>
      <trkpt lat="32.343064695596695" lon="-5.234557623043656">
        <ele>2270.29</ele>
        <time>2019-03-11T17:04:36Z</time>
      </trkpt>
      <trkpt lat="32.342954305931926" lon="-5.234614536166191">
        <ele>2270.77</ele>
        <time>2019-03-11T17:04:37Z</time>
      </trkpt>
      <trkpt lat="32.342833522707224" lon="-5.234667174518108">
        <ele>2271.25</ele>
        <time>2019-03-11T17:04:40Z</time>
      </trkpt>
      <trkpt lat="32.342500844970345" lon="-5.234804973006249">
        <ele>2271.73</ele>
        <time>2019-03-11T17:04:41Z</time>
      </trkpt>
      <trkpt lat="32.342424066737294" lon="-5.234858198091388">
        <ele>2272.21</ele>
        <time>2019-03-11T17:04:42Z</time>
      </trkpt>
      <trkpt lat="32.342363214120269" lon="-5.234923576936126">
        <ele>2272.21</ele>
        <time>2019-03-11T17:04:43Z</time>
      </trkpt>
      <trkpt lat="32.342313677072525" lon="-5.234999433159828">
        <ele>2274.1399999999999</ele>
        <time>2019-03-11T17:04:44Z</time>
      </trkpt>
      <trkpt lat="32.342273108661175" lon="-5.23508601821959">
        <ele>2277.5</ele>
        <time>2019-03-11T17:04:45Z</time>
      </trkpt>
      <trkpt lat="32.342235641553998" lon="-5.235181069001555">
        <ele>2278.46</ele>
        <time>2019-03-11T17:04:48Z</time>
      </trkpt>
      <trkpt lat="32.34208962880075" lon="-5.235494468361139">
        <ele>2279.9000000000001</ele>
        <time>2019-03-11T17:04:52Z</time>
      </trkpt>
      <trkpt lat="32.34181160107255" lon="-5.235953712835908">
        <ele>2282.79</ele>
        <time>2019-03-11T17:04:53Z</time>
      </trkpt>
      <trkpt lat="32.341764662414789" lon="-5.236091846600175">
        <ele>2284.23</ele>
        <time>2019-03-11T17:04:54Z</time>
      </trkpt>
      <trkpt lat="32.341736331582069" lon="-5.236244145780802">
        <ele>2285.6700000000001</ele>
        <time>2019-03-11T17:04:57Z</time>
      </trkpt>
      <trkpt lat="32.34165770933032" lon="-5.236728452146053">
        <ele>2286.1500000000001</ele>
        <time>2019-03-11T17:04:58Z</time>
      </trkpt>
      <trkpt lat="32.341608591377735" lon="-5.236873459070921">
        <ele>2288.0799999999999</ele>
        <time>2019-03-11T17:05:00Z</time>
      </trkpt>
      <trkpt lat="32.341501973569393" lon="-5.237157270312309">
        <ele>2288.0799999999999</ele>
        <time>2019-03-11T17:05:01Z</time>
      </trkpt>
      <trkpt lat="32.341461908072233" lon="-5.237310826778412">
        <ele>2288.5599999999999</ele>
        <time>2019-03-11T17:05:06Z</time>
      </trkpt>
      <trkpt lat="32.341355374082923" lon="-5.238121272996068">
        <ele>2289.04</ele>
        <time>2019-03-11T17:05:07Z</time>
      </trkpt>
      <trkpt lat="32.341317739337683" lon="-5.238277930766344">
        <ele>2291.4400000000001</ele>
        <time>2019-03-11T17:05:15Z</time>
      </trkpt>
      <trkpt lat="32.340876515954733" lon="-5.23947536945343">
        <ele>2291.9200000000001</ele>
        <time>2019-03-11T17:05:16Z</time>
      </trkpt>
      <trkpt lat="32.340791523456573" lon="-5.239618280902505">
        <ele>2292.4000000000001</ele>
        <time>2019-03-11T17:05:21Z</time>
      </trkpt>
      <trkpt lat="32.340404614806175" lon="-5.24024055339396">
        <ele>2293.3600000000001</ele>
        <time>2019-03-11T17:05:22Z</time>
      </trkpt>
      <trkpt lat="32.340362034738064" lon="-5.240352619439364">
        <ele>2294.3200000000002</ele>
        <time>2019-03-11T17:05:23Z</time>
      </trkpt>
      <trkpt lat="32.340329345315695" lon="-5.240468792617321">
        <ele>2294.3200000000002</ele>
        <time>2019-03-11T17:05:32Z</time>
      </trkpt>
      <trkpt lat="32.34013270586729" lon="-5.241568582132459">
        <ele>2294.3200000000002</ele>
        <time>2019-03-11T17:05:37Z</time>
      </trkpt>
      <trkpt lat="32.339951237663627" lon="-5.242104604840279">
        <ele>2294.8000000000002</ele>
        <time>2019-03-11T17:05:38Z</time>
      </trkpt>
      <trkpt lat="32.339902203530073" lon="-5.242208288982511">
        <ele>2294.8000000000002</ele>
        <time>2019-03-11T17:05:39Z</time>
      </trkpt>
      <trkpt lat="32.339846296235919" lon="-5.242310967296362">
        <ele>2295.2800000000002</ele>
        <time>2019-03-11T17:05:40Z</time>
      </trkpt>
      <trkpt lat="32.339784186333418" lon="-5.242412807419896">
        <ele>2296.25</ele>
        <time>2019-03-11T17:05:41Z</time>
      </trkpt>
      <trkpt lat="32.339717047289014" lon="-5.24250827729702">
        <ele>2299.1300000000001</ele>
        <time>2019-03-11T17:05:42Z</time>
      </trkpt>
      <trkpt lat="32.339644627645612" lon="-5.242597628384829">
        <ele>2307.7800000000002</ele>
        <time>2019-03-11T17:05:43Z</time>
      </trkpt>
      <trkpt lat="32.339570615440607" lon="-5.242677088826895">
        <ele>2318.8400000000001</ele>
        <time>2019-03-11T17:05:46Z</time>
      </trkpt>
      <trkpt lat="32.339377161115408" lon="-5.242861490696669">
        <ele>2323.1599999999999</ele>
        <time>2019-03-11T17:05:56Z</time>
      </trkpt>
      <trkpt lat="32.338487254455686" lon="-5.243438500910997">
        <ele>2323.6399999999999</ele>
        <time>2019-03-11T17:06:06Z</time>
      </trkpt>
      <trkpt lat="32.337561389431357" lon="-5.24419161491096">
        <ele>2324.1199999999999</ele>
        <time>2019-03-11T17:06:11Z</time>
      </trkpt>
      <trkpt lat="32.337227119132876" lon="-5.244513731449843">
        <ele>2324.6100000000001</ele>
        <time>2019-03-11T17:06:12Z</time>
      </trkpt>
      <trkpt lat="32.33720239251852" lon="-5.244562933221459">
        <ele>2325.0900000000001</ele>
        <time>2019-03-11T17:06:13Z</time>
      </trkpt>
      <trkpt lat="32.337183030322194" lon="-5.244616493582726">
        <ele>2325.5700000000002</ele>
        <time>2019-03-11T17:06:14Z</time>
      </trkpt>
      <trkpt lat="32.337170876562595" lon="-5.244675083085895">
        <ele>2326.5300000000002</ele>
        <time>2019-03-11T17:06:15Z</time>
      </trkpt>
      <trkpt lat="32.337166182696819" lon="-5.244740629568696">
        <ele>2327.0100000000002</ele>
        <time>2019-03-11T17:06:16Z</time>
      </trkpt>
      <trkpt lat="32.33716526068747" lon="-5.24481556378305">
        <ele>2327.4899999999998</ele>
        <time>2019-03-11T17:06:18Z</time>
      </trkpt>
      <trkpt lat="32.337157130241394" lon="-5.244973814114928">
        <ele>2327.4899999999998</ele>
        <time>2019-03-11T17:06:19Z</time>
      </trkpt>
      <trkpt lat="32.337135085836053" lon="-5.245047993957996">
        <ele>2327.4899999999998</ele>
        <time>2019-03-11T17:06:20Z</time>
      </trkpt>
      <trkpt lat="32.337090745568275" lon="-5.245106834918261">
        <ele>2327.9699999999998</ele>
        <time>2019-03-11T17:06:21Z</time>
      </trkpt>
      <trkpt lat="32.337031736969948" lon="-5.245145559310913">
        <ele>2331.8099999999999</ele>
        <time>2019-03-11T17:06:22Z</time>
      </trkpt>
      <trkpt lat="32.336966609582305" lon="-5.245174141600728">
        <ele>2335.6599999999999</ele>
        <time>2019-03-11T17:06:24Z</time>
      </trkpt>
      <trkpt lat="32.336853286251426" lon="-5.24523532949388">
        <ele>2336.6199999999999</ele>
        <time>2019-03-11T17:06:31Z</time>
      </trkpt>
      <trkpt lat="32.336261188611388" lon="-5.24552752263844">
        <ele>2337.5799999999999</ele>
        <time>2019-03-11T17:06:36Z</time>
      </trkpt>
      <trkpt lat="32.335796663537621" lon="-5.245764898136258">
        <ele>2338.0599999999999</ele>
        <time>2019-03-11T17:06:37Z</time>
      </trkpt>
      <trkpt lat="32.335736732929945" lon="-5.245810160413384">
        <ele>2338.54</ele>
        <time>2019-03-11T17:06:38Z</time>
      </trkpt>
      <trkpt lat="32.335692644119263" lon="-5.245858104899526">
        <ele>2339.02</ele>
        <time>2019-03-11T17:06:39Z</time>
      </trkpt>
      <trkpt lat="32.335667330771685" lon="-5.245904289186001">
        <ele>2339.5100000000002</ele>
        <time>2019-03-11T17:06:40Z</time>
      </trkpt>
      <trkpt lat="32.335654590278864" lon="-5.245954915881157">
        <ele>2339.5100000000002</ele>
        <time>2019-03-11T17:06:41Z</time>
      </trkpt>
      <trkpt lat="32.335646962746978" lon="-5.246013337746263">
        <ele>2339.9899999999998</ele>
        <time>2019-03-11T17:06:42Z</time>
      </trkpt>
      <trkpt lat="32.335643777623773" lon="-5.246077626943588">
        <ele>2339.9899999999998</ele>
        <time>2019-03-11T17:06:43Z</time>
      </trkpt>
      <trkpt lat="32.335635144263506" lon="-5.246138228103519">
        <ele>2340.4699999999998</ele>
        <time>2019-03-11T17:06:44Z</time>
      </trkpt>
      <trkpt lat="32.335615195333958" lon="-5.246188854798675">
        <ele>2340.4699999999998</ele>
        <time>2019-03-11T17:06:45Z</time>
      </trkpt>
      <trkpt lat="32.335578901693225" lon="-5.24622623808682">
        <ele>2340.4699999999998</ele>
        <time>2019-03-11T17:06:46Z</time>
      </trkpt>
      <trkpt lat="32.335530454292893" lon="-5.246244678273797">
        <ele>2340.9499999999998</ele>
        <time>2019-03-11T17:06:47Z</time>
      </trkpt>
      <trkpt lat="32.335474044084549" lon="-5.246247695758939">
        <ele>2340.9499999999998</ele>
        <time>2019-03-11T17:06:48Z</time>
      </trkpt>
      <trkpt lat="32.335416544228792" lon="-5.246248533949256">
        <ele>2341.4299999999998</ele>
        <time>2019-03-11T17:06:50Z</time>
      </trkpt>
      <trkpt lat="32.335313530638814" lon="-5.246262447908521">
        <ele>2341.9099999999999</ele>
        <time>2019-03-11T17:06:51Z</time>
      </trkpt>
      <trkpt lat="32.335273800417781" lon="-5.246286168694496">
        <ele>2342.3899999999999</ele>
        <time>2019-03-11T17:06:52Z</time>
      </trkpt>
      <trkpt lat="32.33524295501411" lon="-5.246323803439736">
        <ele>2342.8699999999999</ele>
        <time>2019-03-11T17:06:53Z</time>
      </trkpt>
      <trkpt lat="32.335219066590071" lon="-5.246367389336228">
        <ele>2343.3499999999999</ele>
        <time>2019-03-11T17:06:54Z</time>
      </trkpt>
      <trkpt lat="32.335202805697918" lon="-5.246419524773955">
        <ele>2343.3499999999999</ele>
        <time>2019-03-11T17:06:55Z</time>
      </trkpt>
      <trkpt lat="32.335193501785398" lon="-5.246477695181966">
        <ele>2348.6399999999999</ele>
        <time>2019-03-11T17:06:56Z</time>
      </trkpt>
      <trkpt lat="32.335189897567034" lon="-5.246541313827038">
        <ele>2351.04</ele>
        <time>2019-03-11T17:06:57Z</time>
      </trkpt>
      <trkpt lat="32.33518872410059" lon="-5.246612392365933">
        <ele>2352</ele>
        <time>2019-03-11T17:07:06Z</time>
      </trkpt>
      <trkpt lat="32.335060313344002" lon="-5.247452845796943">
        <ele>2353.9299999999998</ele>
        <time>2019-03-11T17:07:09Z</time>
      </trkpt>
      <trkpt lat="32.334970291703939" lon="-5.247764149680734">
        <ele>2354.8899999999999</ele>
        <time>2019-03-11T17:07:10Z</time>
      </trkpt>
      <trkpt lat="32.334955707192421" lon="-5.247864313423634">
        <ele>2355.3699999999999</ele>
        <time>2019-03-11T17:07:12Z</time>
      </trkpt>
      <trkpt lat="32.334929220378399" lon="-5.248056929558516">
        <ele>2356.3299999999999</ele>
        <time>2019-03-11T17:07:13Z</time>
      </trkpt>
      <trkpt lat="32.334906924515963" lon="-5.248138317838311">
        <ele>2356.8099999999999</ele>
        <time>2019-03-11T17:07:14Z</time>
      </trkpt>
      <trkpt lat="32.334883119910955" lon="-5.248206295073032">
        <ele>2357.77</ele>
        <time>2019-03-11T17:07:15Z</time>
      </trkpt>
      <trkpt lat="32.334856130182743" lon="-5.248265471309423">
        <ele>2358.25</ele>
        <time>2019-03-11T17:07:16Z</time>
      </trkpt>
      <trkpt lat="32.33482419513166" lon="-5.248323557898402">
        <ele>2358.73</ele>
        <time>2019-03-11T17:07:17Z</time>
      </trkpt>
      <trkpt lat="32.334785722196102" lon="-5.248383153229952">
        <ele>2359.6900000000001</ele>
        <time>2019-03-11T17:07:18Z</time>
      </trkpt>
      <trkpt lat="32.334737526252866" lon="-5.24844367057085">
        <ele>2360.1700000000001</ele>
        <time>2019-03-11T17:07:19Z</time>
      </trkpt>
      <trkpt lat="32.334677428007126" lon="-5.248503098264337">
        <ele>2364.5</ele>
        <time>2019-03-11T17:07:20Z</time>
      </trkpt>
      <trkpt lat="32.334605008363724" lon="-5.248561184853315">
        <ele>2365.46</ele>
        <time>2019-03-11T17:07:21Z</time>
      </trkpt>
      <trkpt lat="32.334521189332008" lon="-5.248616924509406">
        <ele>2365.9400000000001</ele>
        <time>2019-03-11T17:07:26Z</time>
      </trkpt>
      <trkpt lat="32.334091197699308" lon="-5.248982962220907">
        <ele>2366.4200000000001</ele>
        <time>2019-03-11T17:07:27Z</time>
      </trkpt>
      <trkpt lat="32.334024310112" lon="-5.249074157327414">
        <ele>2366.4200000000001</ele>
        <time>2019-03-11T17:07:28Z</time>
      </trkpt>
      <trkpt lat="32.333956165239215" lon="-5.249165184795857">
        <ele>2366.9000000000001</ele>
        <time>2019-03-11T17:07:29Z</time>
      </trkpt>
      <trkpt lat="32.333882991224527" lon="-5.249251015484333">
        <ele>2366.9000000000001</ele>
        <time>2019-03-11T17:07:30Z</time>
      </trkpt>
      <trkpt lat="32.33380445279181" lon="-5.249335337430239">
        <ele>2367.3800000000001</ele>
        <time>2019-03-11T17:07:31Z</time>
      </trkpt>
      <trkpt lat="32.333730943500996" lon="-5.249431477859616">
        <ele>2367.8600000000001</ele>
        <time>2019-03-11T17:07:32Z</time>
      </trkpt>
      <trkpt lat="32.333672270178795" lon="-5.249544968828559">
        <ele>2368.3499999999999</ele>
        <time>2019-03-11T17:07:33Z</time>
      </trkpt>
      <trkpt lat="32.333630193024874" lon="-5.249668182805181">
        <ele>2368.8299999999999</ele>
        <time>2019-03-11T17:07:34Z</time>
      </trkpt>
      <trkpt lat="32.33359289355576" lon="-5.249789301306009">
        <ele>2369.3099999999999</ele>
        <time>2019-03-11T17:07:35Z</time>
      </trkpt>
      <trkpt lat="32.333545032888651" lon="-5.24989927187562">
        <ele>2369.79</ele>
        <time>2019-03-11T17:07:36Z</time>
      </trkpt>
      <trkpt lat="32.33348535373807" lon="-5.25000186637044">
        <ele>2370.27</ele>
        <time>2019-03-11T17:07:37Z</time>
      </trkpt>
      <trkpt lat="32.33342869207263" lon="-5.250109322369099">
        <ele>2370.75</ele>
        <time>2019-03-11T17:07:38Z</time>
      </trkpt>
      <trkpt lat="32.333383848890662" lon="-5.250233290717006">
        <ele>2371.23</ele>
        <time>2019-03-11T17:07:39Z</time>
      </trkpt>
      <trkpt lat="32.333352332934737" lon="-5.250364551320672">
        <ele>2371.71</ele>
        <time>2019-03-11T17:07:40Z</time>
      </trkpt>
      <trkpt lat="32.333329617977142" lon="-5.250494387000799">
        <ele>2371.71</ele>
        <time>2019-03-11T17:07:41Z</time>
      </trkpt>
      <trkpt lat="32.333304388448596" lon="-5.250620534643531">
        <ele>2373.1500000000001</ele>
        <time>2019-03-11T17:07:42Z</time>
      </trkpt>
      <trkpt lat="32.333266334608197" lon="-5.250744167715311">
        <ele>2374.1100000000001</ele>
        <time>2019-03-11T17:07:43Z</time>
      </trkpt>
      <trkpt lat="32.333216713741422" lon="-5.250868638977408">
        <ele>2384.21</ele>
        <time>2019-03-11T17:07:46Z</time>
      </trkpt>
      <trkpt lat="32.333063241094351" lon="-5.251280190423131">
        <ele>2389.0100000000002</ele>
        <time>2019-03-11T17:07:47Z</time>
      </trkpt>
      <trkpt lat="32.333026695996523" lon="-5.251433495432138">
        <ele>2389.9699999999998</ele>
        <time>2019-03-11T17:07:59Z</time>
      </trkpt>
      <trkpt lat="32.332784291356802" lon="-5.253171818330884">
        <ele>2390.46</ele>
        <time>2019-03-11T17:08:04Z</time>
      </trkpt>
      <trkpt lat="32.332750428467989" lon="-5.25384932756424">
        <ele>2391.4200000000001</ele>
        <time>2019-03-11T17:08:05Z</time>
      </trkpt>
      <trkpt lat="32.332724612206221" lon="-5.253964327275753">
        <ele>2391.9000000000001</ele>
        <time>2019-03-11T17:08:06Z</time>
      </trkpt>
      <trkpt lat="32.332681864500046" lon="-5.254073794931173">
        <ele>2392.3800000000001</ele>
        <time>2019-03-11T17:08:07Z</time>
      </trkpt>
      <trkpt lat="32.332623526453972" lon="-5.254180915653706">
        <ele>2390.46</ele>
        <time>2019-03-11T17:08:08Z</time>
      </trkpt>
      <trkpt lat="32.332559823989868" lon="-5.254289042204619">
        <ele>2387.5700000000002</ele>
        <time>2019-03-11T17:08:13Z</time>
      </trkpt>
      <trkpt lat="32.332264445722103" lon="-5.254801344126463">
        <ele>2386.6100000000001</ele>
        <time>2019-03-11T17:08:23Z</time>
      </trkpt>
      <trkpt lat="32.331845434382558" lon="-5.25578286498785">
        <ele>2384.21</ele>
        <time>2019-03-11T17:08:32Z</time>
      </trkpt>
      <trkpt lat="32.331267585977912" lon="-5.256902603432536">
        <ele>2380.3600000000001</ele>
        <time>2019-03-11T17:08:37Z</time>
      </trkpt>
      <trkpt lat="32.331054685637355" lon="-5.257393028587103">
        <ele>2377.48</ele>
        <time>2019-03-11T17:08:45Z</time>
      </trkpt>
      <trkpt lat="32.330706166103482" lon="-5.258374214172363">
        <ele>2373.1500000000001</ele>
        <time>2019-03-11T17:08:55Z</time>
      </trkpt>
      <trkpt lat="32.330080037936568" lon="-5.259756054729223">
        <ele>2368.8299999999999</ele>
        <time>2019-03-11T17:09:02Z</time>
      </trkpt>
      <trkpt lat="32.32967896386981" lon="-5.260553928092122">
        <ele>2364.02</ele>
        <time>2019-03-11T17:09:12Z</time>
      </trkpt>
      <trkpt lat="32.328913696110249" lon="-5.261730076745153">
        <ele>2364.02</ele>
        <time>2019-03-11T17:09:20Z</time>
      </trkpt>
      <trkpt lat="32.328313468024135" lon="-5.262769348919392">
        <ele>2365.9400000000001</ele>
        <time>2019-03-11T17:09:28Z</time>
      </trkpt>
      <trkpt lat="32.327467063441873" lon="-5.263698566704989">
        <ele>2365.9400000000001</ele>
        <time>2019-03-11T17:09:36Z</time>
      </trkpt>
      <trkpt lat="32.326748985797167" lon="-5.26451270096004">
        <ele>2365.9400000000001</ele>
        <time>2019-03-11T17:09:46Z</time>
      </trkpt>
      <trkpt lat="32.326037613674998" lon="-5.265033971518278">
        <ele>2365.46</ele>
        <time>2019-03-11T17:09:51Z</time>
      </trkpt>
      <trkpt lat="32.325670905411243" lon="-5.265259528532624">
        <ele>2364.02</ele>
        <time>2019-03-11T17:09:52Z</time>
      </trkpt>
      <trkpt lat="32.325592786073685" lon="-5.26527444832027">
        <ele>2363.54</ele>
        <time>2019-03-11T17:09:53Z</time>
      </trkpt>
      <trkpt lat="32.325512235984206" lon="-5.265282243490219">
        <ele>2363.0599999999999</ele>
        <time>2019-03-11T17:09:57Z</time>
      </trkpt>
      <trkpt lat="32.325181486085057" lon="-5.265329517424107">
        <ele>2362.5799999999999</ele>
        <time>2019-03-11T17:09:58Z</time>
      </trkpt>
      <trkpt lat="32.325117699801922" lon="-5.265360027551651">
        <ele>2362.5799999999999</ele>
        <time>2019-03-11T17:09:59Z</time>
      </trkpt>
      <trkpt lat="32.32506925240159" lon="-5.265406547114253">
        <ele>2362.0999999999999</ele>
        <time>2019-03-11T17:10:00Z</time>
      </trkpt>
      <trkpt lat="32.32504041865468" lon="-5.265474021434784">
        <ele>2361.6199999999999</ele>
        <time>2019-03-11T17:10:01Z</time>
      </trkpt>
      <trkpt lat="32.325029438361526" lon="-5.265553817152977">
        <ele>2361.6199999999999</ele>
        <time>2019-03-11T17:10:02Z</time>
      </trkpt>
      <trkpt lat="32.325024912133813" lon="-5.265646521002054">
        <ele>2361.6199999999999</ele>
        <time>2019-03-11T17:10:04Z</time>
      </trkpt>
      <trkpt lat="32.325000185519457" lon="-5.265837963670492">
        <ele>2360.1700000000001</ele>
        <time>2019-03-11T17:10:05Z</time>
      </trkpt>
      <trkpt lat="32.324967496097088" lon="-5.265927733853459">
        <ele>2359.6900000000001</ele>
        <time>2019-03-11T17:10:06Z</time>
      </trkpt>
      <trkpt lat="32.324920641258359" lon="-5.266016162931919">
        <ele>2358.73</ele>
        <time>2019-03-11T17:10:09Z</time>
      </trkpt>
      <trkpt lat="32.324776807799935" lon="-5.266286814585328">
        <ele>2358.25</ele>
        <time>2019-03-11T17:10:10Z</time>
      </trkpt>
      <trkpt lat="32.324745459482074" lon="-5.266386643052101">
        <ele>2357.29</ele>
        <time>2019-03-11T17:10:11Z</time>
      </trkpt>
      <trkpt lat="32.324721654877067" lon="-5.266502816230059">
        <ele>2356.8099999999999</ele>
        <time>2019-03-11T17:10:12Z</time>
      </trkpt>
      <trkpt lat="32.324705561622977" lon="-5.266630472615361">
        <ele>2355.8499999999999</ele>
        <time>2019-03-11T17:10:13Z</time>
      </trkpt>
      <trkpt lat="32.324699610471725" lon="-5.266761649399996">
        <ele>2355.8499999999999</ele>
        <time>2019-03-11T17:10:14Z</time>
      </trkpt>
      <trkpt lat="32.324701035395265" lon="-5.266885282471776">
        <ele>2355.8499999999999</ele>
        <time>2019-03-11T17:10:15Z</time>
      </trkpt>
      <trkpt lat="32.32470665127039" lon="-5.267001120373607">
        <ele>2355.3699999999999</ele>
        <time>2019-03-11T17:10:18Z</time>
      </trkpt>
      <trkpt lat="32.324755182489753" lon="-5.267296331003308">
        <ele>2355.3699999999999</ele>
        <time>2019-03-11T17:10:19Z</time>
      </trkpt>
      <trkpt lat="32.32479658909142" lon="-5.267376629635692">
        <ele>2355.3699999999999</ele>
        <time>2019-03-11T17:10:20Z</time>
      </trkpt>
      <trkpt lat="32.324853669852018" lon="-5.267445025965571">
        <ele>2355.3699999999999</ele>
        <time>2019-03-11T17:10:21Z</time>
      </trkpt>
      <trkpt lat="32.324918629601598" lon="-5.267505794763565">
        <ele>2355.3699999999999</ele>
        <time>2019-03-11T17:10:22Z</time>
      </trkpt>
      <trkpt lat="32.324984008446336" lon="-5.267563126981258">
        <ele>2355.3699999999999</ele>
        <time>2019-03-11T17:10:23Z</time>
      </trkpt>
      <trkpt lat="32.325043184682727" lon="-5.267624314874411">
        <ele>2355.3699999999999</ele>
        <time>2019-03-11T17:10:24Z</time>
      </trkpt>
      <trkpt lat="32.325088363140821" lon="-5.267690531909466">
        <ele>2355.3699999999999</ele>
        <time>2019-03-11T17:10:25Z</time>
      </trkpt>
      <trkpt lat="32.325116945430636" lon="-5.267760520800948">
        <ele>2355.8499999999999</ele>
        <time>2019-03-11T17:10:26Z</time>
      </trkpt>
      <trkpt lat="32.32512884773314" lon="-5.267828917130828">
        <ele>2355.8499999999999</ele>
        <time>2019-03-11T17:10:27Z</time>
      </trkpt>
      <trkpt lat="32.325122645124793" lon="-5.26789060793817">
        <ele>2355.8499999999999</ele>
        <time>2019-03-11T17:10:28Z</time>
      </trkpt>
      <trkpt lat="32.325094398111105" lon="-5.267941486090422">
        <ele>2355.3699999999999</ele>
        <time>2019-03-11T17:10:29Z</time>
      </trkpt>
      <trkpt lat="32.325047710910439" lon="-5.26797803118825">
        <ele>2354.4099999999999</ele>
        <time>2019-03-11T17:10:30Z</time>
      </trkpt>
      <trkpt lat="32.324987696483731" lon="-5.268004182726145">
        <ele>2351.04</ele>
        <time>2019-03-11T17:10:31Z</time>
      </trkpt>
      <trkpt lat="32.324918126687407" lon="-5.268026981502771">
        <ele>2350.0799999999999</ele>
        <time>2019-03-11T17:10:32Z</time>
      </trkpt>
      <trkpt lat="32.324838833883405" lon="-5.268048774451017">
        <ele>2348.1599999999999</ele>
        <time>2019-03-11T17:10:36Z</time>
      </trkpt>
      <trkpt lat="32.324537420645356" lon="-5.268123289570212">
        <ele>2347.6799999999998</ele>
        <time>2019-03-11T17:10:37Z</time>
      </trkpt>
      <trkpt lat="32.324463408440351" lon="-5.26811976917088">
        <ele>2346.7199999999998</ele>
        <time>2019-03-11T17:10:39Z</time>
      </trkpt>
      <trkpt lat="32.324322760105133" lon="-5.268111387267709">
        <ele>2346.23</ele>
        <time>2019-03-11T17:10:40Z</time>
      </trkpt>
      <trkpt lat="32.324263751506805" lon="-5.268128402531147">
        <ele>2345.27</ele>
        <time>2019-03-11T17:10:41Z</time>
      </trkpt>
      <trkpt lat="32.324215639382601" lon="-5.268167462199926">
        <ele>2344.3099999999999</ele>
        <time>2019-03-11T17:10:42Z</time>
      </trkpt>
      <trkpt lat="32.324174903333187" lon="-5.268227560445666">
        <ele>2343.3499999999999</ele>
        <time>2019-03-11T17:10:43Z</time>
      </trkpt>
      <trkpt lat="32.324147410690784" lon="-5.26831179857254">
        <ele>2340.4699999999998</ele>
        <time>2019-03-11T17:10:44Z</time>
      </trkpt>
      <trkpt lat="32.324132993817329" lon="-5.268415482714772">
        <ele>2339.5100000000002</ele>
        <time>2019-03-11T17:10:45Z</time>
      </trkpt>
      <trkpt lat="32.324120840057731" lon="-5.268535511568189">
        <ele>2338.0599999999999</ele>
        <time>2019-03-11T17:10:48Z</time>
      </trkpt>
      <trkpt lat="32.3240533657372" lon="-5.268890988081694">
        <ele>2337.0999999999999</ele>
        <time>2019-03-11T17:10:49Z</time>
      </trkpt>
      <trkpt lat="32.324002822861075" lon="-5.268977489322424">
        <ele>2336.1399999999999</ele>
        <time>2019-03-11T17:10:50Z</time>
      </trkpt>
      <trkpt lat="32.323928810656071" lon="-5.269040856510401">
        <ele>2333.7399999999998</ele>
        <time>2019-03-11T17:10:51Z</time>
      </trkpt>
      <trkpt lat="32.323838286101818" lon="-5.269085699692369">
        <ele>2332.7800000000002</ele>
        <time>2019-03-11T17:10:52Z</time>
      </trkpt>
      <trkpt lat="32.323739882558584" lon="-5.269122999161482">
        <ele>2331.8099999999999</ele>
        <time>2019-03-11T17:10:54Z</time>
      </trkpt>
      <trkpt lat="32.323553971946239" lon="-5.269211092963815">
        <ele>2331.3299999999999</ele>
        <time>2019-03-11T17:10:55Z</time>
      </trkpt>
      <trkpt lat="32.323477528989315" lon="-5.269284602254629">
        <ele>2330.3699999999999</ele>
        <time>2019-03-11T17:10:56Z</time>
      </trkpt>
      <trkpt lat="32.323409216478467" lon="-5.269385436549783">
        <ele>2321.2399999999998</ele>
        <time>2019-03-11T17:10:57Z</time>
      </trkpt>
      <trkpt lat="32.32335121370852" lon="-5.269507225602865">
        <ele>2317.8800000000001</ele>
        <time>2019-03-11T17:10:58Z</time>
      </trkpt>
      <trkpt lat="32.323295725509524" lon="-5.269644185900688">
        <ele>2317.8800000000001</ele>
        <time>2019-03-11T17:11:09Z</time>
      </trkpt>
      <trkpt lat="32.322616456076503" lon="-5.271223420277238">
        <ele>2317.4000000000001</ele>
        <time>2019-03-11T17:11:14Z</time>
      </trkpt>
      <trkpt lat="32.3224335629493" lon="-5.271894810721278">
        <ele>2313.0700000000002</ele>
        <time>2019-03-11T17:11:15Z</time>
      </trkpt>
      <trkpt lat="32.322378158569336" lon="-5.272014504298568">
        <ele>2312.1100000000001</ele>
        <time>2019-03-11T17:11:16Z</time>
      </trkpt>
      <trkpt lat="32.322311690077186" lon="-5.272134952247143">
        <ele>2310.6700000000001</ele>
        <time>2019-03-11T17:11:21Z</time>
      </trkpt>
      <trkpt lat="32.321873065084219" lon="-5.272673489525914">
        <ele>2310.6700000000001</ele>
        <time>2019-03-11T17:11:22Z</time>
      </trkpt>
      <trkpt lat="32.321759490296245" lon="-5.272760912775993">
        <ele>2309.6999999999998</ele>
        <time>2019-03-11T17:11:24Z</time>
      </trkpt>
      <trkpt lat="32.321524545550346" lon="-5.272937770932913">
        <ele>2308.7399999999998</ele>
        <time>2019-03-11T17:11:25Z</time>
      </trkpt>
      <trkpt lat="32.321417508646846" lon="-5.27305000461638">
        <ele>2307.7800000000002</ele>
        <time>2019-03-11T17:11:26Z</time>
      </trkpt>
      <trkpt lat="32.321321032941341" lon="-5.273179421201348">
        <ele>2306.8200000000002</ele>
        <time>2019-03-11T17:11:28Z</time>
      </trkpt>
      <trkpt lat="32.321125734597445" lon="-5.273439176380634">
        <ele>2306.3400000000001</ele>
        <time>2019-03-11T17:11:29Z</time>
      </trkpt>
      <trkpt lat="32.321019871160388" lon="-5.273546883836389">
        <ele>2306.3400000000001</ele>
        <time>2019-03-11T17:11:31Z</time>
      </trkpt>
      <trkpt lat="32.320832535624504" lon="-5.273725334554911">
        <ele>2305.8600000000001</ele>
        <time>2019-03-11T17:11:32Z</time>
      </trkpt>
      <trkpt lat="32.320767072960734" lon="-5.273815942928195">
        <ele>2305.8600000000001</ele>
        <time>2019-03-11T17:11:33Z</time>
      </trkpt>
      <trkpt lat="32.32071309350431" lon="-5.273917866870761">
        <ele>2303.9400000000001</ele>
        <time>2019-03-11T17:11:34Z</time>
      </trkpt>
      <trkpt lat="32.320667412132025" lon="-5.274031441658735">
        <ele>2303.46</ele>
        <time>2019-03-11T17:11:35Z</time>
      </trkpt>
      <trkpt lat="32.320623910054564" lon="-5.274154236540198">
        <ele>2302.4899999999998</ele>
        <time>2019-03-11T17:11:40Z</time>
      </trkpt>
      <trkpt lat="32.320410422980785" lon="-5.274785896763206">
        <ele>2302.4899999999998</ele>
        <time>2019-03-11T17:11:41Z</time>
      </trkpt>
      <trkpt lat="32.320396089926362" lon="-5.274884551763535">
        <ele>2302.0100000000002</ele>
        <time>2019-03-11T17:11:42Z</time>
      </trkpt>
      <trkpt lat="32.320398520678282" lon="-5.274967113509774">
        <ele>2302.0100000000002</ele>
        <time>2019-03-11T17:11:43Z</time>
      </trkpt>
      <trkpt lat="32.320409920066595" lon="-5.275041963905096">
        <ele>2301.5300000000002</ele>
        <time>2019-03-11T17:11:44Z</time>
      </trkpt>
      <trkpt lat="32.320430036634207" lon="-5.27511497028172">
        <ele>2301.5300000000002</ele>
        <time>2019-03-11T17:11:45Z</time>
      </trkpt>
      <trkpt lat="32.320454679429531" lon="-5.275187809020281">
        <ele>2301.0500000000002</ele>
        <time>2019-03-11T17:11:46Z</time>
      </trkpt>
      <trkpt lat="32.320481082424521" lon="-5.275265341624618">
        <ele>2300.5700000000002</ele>
        <time>2019-03-11T17:11:47Z</time>
      </trkpt>
      <trkpt lat="32.320503294467926" lon="-5.275351842865348">
        <ele>2300.5700000000002</ele>
        <time>2019-03-11T17:11:48Z</time>
      </trkpt>
      <trkpt lat="32.320510502904654" lon="-5.275444127619267">
        <ele>2300.0900000000001</ele>
        <time>2019-03-11T17:11:49Z</time>
      </trkpt>
      <trkpt lat="32.320497930049896" lon="-5.275539765134454">
        <ele>2298.6500000000001</ele>
        <time>2019-03-11T17:11:50Z</time>
      </trkpt>
      <trkpt lat="32.320469934493303" lon="-5.275637246668339">
        <ele>2298.6500000000001</ele>
        <time>2019-03-11T17:11:51Z</time>
      </trkpt>
      <trkpt lat="32.320434814319015" lon="-5.275732381269336">
        <ele>2295.2800000000002</ele>
        <time>2019-03-11T17:11:53Z</time>
      </trkpt>
      <trkpt lat="32.320379912853241" lon="-5.275918040424585">
        <ele>2294.3200000000002</ele>
        <time>2019-03-11T17:11:54Z</time>
      </trkpt>
      <trkpt lat="32.32036423869431" lon="-5.276020299643278">
        <ele>2292.4000000000001</ele>
        <time>2019-03-11T17:11:58Z</time>
      </trkpt>
      <trkpt lat="32.320291819050908" lon="-5.276568895205855">
        <ele>2291.4400000000001</ele>
        <time>2019-03-11T17:11:59Z</time>
      </trkpt>
      <trkpt lat="32.320291651412845" lon="-5.276725888252258">
        <ele>2290.48</ele>
        <time>2019-03-11T17:12:01Z</time>
      </trkpt>
      <trkpt lat="32.320283437147737" lon="-5.277014896273613">
        <ele>2290</ele>
        <time>2019-03-11T17:12:02Z</time>
      </trkpt>
      <trkpt lat="32.320256447419524" lon="-5.277134506031871">
        <ele>2289.52</ele>
        <time>2019-03-11T17:12:03Z</time>
      </trkpt>
      <trkpt lat="32.320213364437222" lon="-5.277234334498644">
        <ele>2288.5599999999999</ele>
        <time>2019-03-11T17:12:04Z</time>
      </trkpt>
      <trkpt lat="32.320161396637559" lon="-5.27732209302485">
        <ele>2288.0799999999999</ele>
        <time>2019-03-11T17:12:05Z</time>
      </trkpt>
      <trkpt lat="32.320100124925375" lon="-5.2774075884372">
        <ele>2287.5900000000001</ele>
        <time>2019-03-11T17:12:06Z</time>
      </trkpt>
      <trkpt lat="32.320023346692324" lon="-5.277486126869917">
        <ele>2286.6300000000001</ele>
        <time>2019-03-11T17:12:07Z</time>
      </trkpt>
      <trkpt lat="32.319930056110024" lon="-5.277548152953386">
        <ele>2286.1500000000001</ele>
        <time>2019-03-11T17:12:08Z</time>
      </trkpt>
      <trkpt lat="32.319825114682317" lon="-5.277592996135354">
        <ele>2285.6700000000001</ele>
        <time>2019-03-11T17:12:09Z</time>
      </trkpt>
      <trkpt lat="32.319721346721053" lon="-5.277624763548374">
        <ele>2285.1900000000001</ele>
        <time>2019-03-11T17:12:10Z</time>
      </trkpt>
      <trkpt lat="32.319625122472644" lon="-5.277658207342029">
        <ele>2284.71</ele>
        <time>2019-03-11T17:12:11Z</time>
      </trkpt>
      <trkpt lat="32.319541471078992" lon="-5.277699194848537">
        <ele>2284.23</ele>
        <time>2019-03-11T17:12:12Z</time>
      </trkpt>
      <trkpt lat="32.319467794150114" lon="-5.277745211496949">
        <ele>2283.75</ele>
        <time>2019-03-11T17:12:13Z</time>
      </trkpt>
      <trkpt lat="32.319406270980835" lon="-5.277802208438516">
        <ele>2283.27</ele>
        <time>2019-03-11T17:12:14Z</time>
      </trkpt>
      <trkpt lat="32.319364529103041" lon="-5.277870688587427">
        <ele>2283.27</ele>
        <time>2019-03-11T17:12:15Z</time>
      </trkpt>
      <trkpt lat="32.31935765594244" lon="-5.277950065210462">
        <ele>2282.3099999999999</ele>
        <time>2019-03-11T17:12:16Z</time>
      </trkpt>
      <trkpt lat="32.319387244060636" lon="-5.278032459318638">
        <ele>2281.8299999999999</ele>
        <time>2019-03-11T17:12:17Z</time>
      </trkpt>
      <trkpt lat="32.31944315135479" lon="-5.278109069913626">
        <ele>2279.4200000000001</ele>
        <time>2019-03-11T17:12:18Z</time>
      </trkpt>
      <trkpt lat="32.319513726979494" lon="-5.278179813176394">
        <ele>2278.9400000000001</ele>
        <time>2019-03-11T17:12:19Z</time>
      </trkpt>
      <trkpt lat="32.319592935964465" lon="-5.278249382972717">
        <ele>2278.9400000000001</ele>
        <time>2019-03-11T17:12:25Z</time>
      </trkpt>
      <trkpt lat="32.320102890953422" lon="-5.278762187808752">
        <ele>2278.46</ele>
        <time>2019-03-11T17:12:27Z</time>
      </trkpt>
      <trkpt lat="32.320211185142398" lon="-5.278924880549312">
        <ele>2277.5</ele>
        <time>2019-03-11T17:12:28Z</time>
      </trkpt>
      <trkpt lat="32.320235073566437" lon="-5.279011046513915">
        <ele>2277.5</ele>
        <time>2019-03-11T17:12:29Z</time>
      </trkpt>
      <trkpt lat="32.320225350558758" lon="-5.27912562713027">
        <ele>2277.02</ele>
        <time>2019-03-11T17:12:31Z</time>
      </trkpt>
      <trkpt lat="32.320185620337725" lon="-5.279384041205049">
        <ele>2276.54</ele>
        <time>2019-03-11T17:12:32Z</time>
      </trkpt>
      <trkpt lat="32.320177657529712" lon="-5.27952678501606">
        <ele>2276.54</ele>
        <time>2019-03-11T17:12:33Z</time>
      </trkpt>
      <trkpt lat="32.320180842652917" lon="-5.279677910730243">
        <ele>2276.0599999999999</ele>
        <time>2019-03-11T17:12:35Z</time>
      </trkpt>
      <trkpt lat="32.320183776319027" lon="-5.279995836317539">
        <ele>2276.0599999999999</ele>
        <time>2019-03-11T17:12:36Z</time>
      </trkpt>
      <trkpt lat="32.320157876238227" lon="-5.280151152983308">
        <ele>2276.0599999999999</ele>
        <time>2019-03-11T17:12:37Z</time>
      </trkpt>
      <trkpt lat="32.32011697255075" lon="-5.280302781611681">
        <ele>2275.5799999999999</ele>
        <time>2019-03-11T17:12:40Z</time>
      </trkpt>
      <trkpt lat="32.320038517937064" lon="-5.280691366642714">
        <ele>2275.0999999999999</ele>
        <time>2019-03-11T17:12:41Z</time>
      </trkpt>
      <trkpt lat="32.320061232894659" lon="-5.280813071876764">
        <ele>2274.1399999999999</ele>
        <time>2019-03-11T17:12:42Z</time>
      </trkpt>
      <trkpt lat="32.320112194865942" lon="-5.280933938920498">
        <ele>2268.8499999999999</ele>
        <time>2019-03-11T17:12:43Z</time>
      </trkpt>
      <trkpt lat="32.320181094110012" lon="-5.281053213402629">
        <ele>2268.3699999999999</ele>
        <time>2019-03-11T17:12:44Z</time>
      </trkpt>
      <trkpt lat="32.320261979475617" lon="-5.281177265569568">
        <ele>2266.4499999999998</ele>
        <time>2019-03-11T17:12:49Z</time>
      </trkpt>
      <trkpt lat="32.320663304999471" lon="-5.281948065385222">
        <ele>2265.48</ele>
        <time>2019-03-11T17:12:50Z</time>
      </trkpt>
      <trkpt lat="32.320708148181438" lon="-5.282121989876032">
        <ele>2265.48</ele>
        <time>2019-03-11T17:12:56Z</time>
      </trkpt>
      <trkpt lat="32.320895316079259" lon="-5.283284140750766">
        <ele>2265</ele>
        <time>2019-03-11T17:12:57Z</time>
      </trkpt>
      <trkpt lat="32.32089682482183" lon="-5.283452868461609">
        <ele>2264.52</ele>
        <time>2019-03-11T17:12:58Z</time>
      </trkpt>
      <trkpt lat="32.320887269452214" lon="-5.283615728840232">
        <ele>2264.04</ele>
        <time>2019-03-11T17:12:59Z</time>
      </trkpt>
      <trkpt lat="32.320868326351047" lon="-5.283761909231544">
        <ele>2263.0799999999999</ele>
        <time>2019-03-11T17:13:00Z</time>
      </trkpt>
      <trkpt lat="32.32084795832634" lon="-5.283899791538715">
        <ele>2263.0799999999999</ele>
        <time>2019-03-11T17:13:01Z</time>
      </trkpt>
      <trkpt lat="32.320842426270247" lon="-5.284039685502648">
        <ele>2261.6399999999999</ele>
        <time>2019-03-11T17:13:02Z</time>
      </trkpt>
      <trkpt lat="32.320845946669579" lon="-5.284183602780104">
        <ele>2261.6399999999999</ele>
        <time>2019-03-11T17:13:03Z</time>
      </trkpt>
      <trkpt lat="32.320844689384103" lon="-5.284328777343035">
        <ele>2261.1599999999999</ele>
        <time>2019-03-11T17:13:08Z</time>
      </trkpt>
      <trkpt lat="32.320745950564742" lon="-5.285114664584398">
        <ele>2260.6799999999998</ele>
        <time>2019-03-11T17:13:09Z</time>
      </trkpt>
      <trkpt lat="32.320700855925679" lon="-5.285273585468531">
        <ele>2260.1999999999998</ele>
        <time>2019-03-11T17:13:11Z</time>
      </trkpt>
      <trkpt lat="32.320600524544716" lon="-5.285554211586714">
        <ele>2259.7199999999998</ele>
        <time>2019-03-11T17:13:12Z</time>
      </trkpt>
      <trkpt lat="32.320540174841881" lon="-5.285665355622768">
        <ele>2259.7199999999998</ele>
        <time>2019-03-11T17:13:13Z</time>
      </trkpt>
      <trkpt lat="32.320473622530699" lon="-5.285760825499892">
        <ele>2259.2399999999998</ele>
        <time>2019-03-11T17:13:14Z</time>
      </trkpt>
      <trkpt lat="32.320396844297647" lon="-5.285845901817083">
        <ele>2259.2399999999998</ele>
        <time>2019-03-11T17:13:15Z</time>
      </trkpt>
      <trkpt lat="32.320315707474947" lon="-5.285926703363657">
        <ele>2259.2399999999998</ele>
        <time>2019-03-11T17:13:16Z</time>
      </trkpt>
      <trkpt lat="32.320248233154416" lon="-5.286008343100548">
        <ele>2259.2399999999998</ele>
        <time>2019-03-11T17:13:17Z</time>
      </trkpt>
      <trkpt lat="32.320200372487307" lon="-5.2860919944942">
        <ele>2259.2399999999998</ele>
        <time>2019-03-11T17:13:18Z</time>
      </trkpt>
      <trkpt lat="32.32016927562654" lon="-5.286181680858135">
        <ele>2259.2399999999998</ele>
        <time>2019-03-11T17:13:19Z</time>
      </trkpt>
      <trkpt lat="32.320153852924705" lon="-5.286279330030084">
        <ele>2259.2399999999998</ele>
        <time>2019-03-11T17:13:20Z</time>
      </trkpt>
      <trkpt lat="32.32014873996377" lon="-5.286377565935254">
        <ele>2258.75</ele>
        <time>2019-03-11T17:13:21Z</time>
      </trkpt>
      <trkpt lat="32.320141112431884" lon="-5.28645895421505">
        <ele>2257.79</ele>
        <time>2019-03-11T17:13:22Z</time>
      </trkpt>
      <trkpt lat="32.32012334279716" lon="-5.286527937278152">
        <ele>2255.3899999999999</ele>
        <time>2019-03-11T17:13:23Z</time>
      </trkpt>
      <trkpt lat="32.32009643688798" lon="-5.286592813208699">
        <ele>2254.4299999999998</ele>
        <time>2019-03-11T17:13:33Z</time>
      </trkpt>
      <trkpt lat="32.319547003135085" lon="-5.287356236949563">
        <ele>2253.9499999999998</ele>
        <time>2019-03-11T17:13:37Z</time>
      </trkpt>
      <trkpt lat="32.319234190508723" lon="-5.287767872214317">
        <ele>2252.9899999999998</ele>
        <time>2019-03-11T17:13:38Z</time>
      </trkpt>
      <trkpt lat="32.319188006222248" lon="-5.287875076755881">
        <ele>2252.9899999999998</ele>
        <time>2019-03-11T17:13:39Z</time>
      </trkpt>
      <trkpt lat="32.319171410053968" lon="-5.287990244105458">
        <ele>2252.5100000000002</ele>
        <time>2019-03-11T17:13:40Z</time>
      </trkpt>
      <trkpt lat="32.319185407832265" lon="-5.288109770044684">
        <ele>2252.0300000000002</ele>
        <time>2019-03-11T17:13:41Z</time>
      </trkpt>
      <trkpt lat="32.319223713129759" lon="-5.288231391459703">
        <ele>2251.54</ele>
        <time>2019-03-11T17:13:42Z</time>
      </trkpt>
      <trkpt lat="32.319274842739105" lon="-5.288355192169547">
        <ele>2251.0599999999999</ele>
        <time>2019-03-11T17:13:45Z</time>
      </trkpt>
      <trkpt lat="32.319400487467647" lon="-5.288699017837644">
        <ele>2250.5799999999999</ele>
        <time>2019-03-11T17:13:46Z</time>
      </trkpt>
      <trkpt lat="32.319412138313055" lon="-5.288801193237305">
        <ele>2250.0999999999999</ele>
        <time>2019-03-11T17:13:47Z</time>
      </trkpt>
      <trkpt lat="32.319396547973156" lon="-5.28890454210341">
        <ele>2247.2199999999998</ele>
        <time>2019-03-11T17:13:48Z</time>
      </trkpt>
      <trkpt lat="32.31936695985496" lon="-5.289008896797895">
        <ele>2246.2600000000002</ele>
        <time>2019-03-11T17:13:49Z</time>
      </trkpt>
      <trkpt lat="32.319333013147116" lon="-5.289117190986872">
        <ele>2245.3000000000002</ele>
        <time>2019-03-11T17:13:58Z</time>
      </trkpt>
      <trkpt lat="32.319018607959151" lon="-5.290318820625544">
        <ele>2244.8200000000002</ele>
        <time>2019-03-11T17:13:59Z</time>
      </trkpt>
      <trkpt lat="32.31899119913578" lon="-5.290458630770445">
        <ele>2239.0500000000002</ele>
        <time>2019-03-11T17:14:00Z</time>
      </trkpt>
      <trkpt lat="32.318989858031273" lon="-5.290606822818518">
        <ele>2234.2399999999998</ele>
        <time>2019-03-11T17:14:01Z</time>
      </trkpt>
      <trkpt lat="32.319020703434944" lon="-5.290759708732367">
        <ele>2234.2399999999998</ele>
        <time>2019-03-11T17:14:08Z</time>
      </trkpt>
      <trkpt lat="32.319370396435261" lon="-5.29213291592896">
        <ele>2234.2399999999998</ele>
        <time>2019-03-11T17:14:17Z</time>
      </trkpt>
      <trkpt lat="32.319953944534063" lon="-5.294033931568265">
        <ele>2236.6399999999999</ele>
        <time>2019-03-11T17:14:20Z</time>
      </trkpt>
      <trkpt lat="32.32008520513773" lon="-5.294614378362894">
        <ele>2237.1300000000001</ele>
        <time>2019-03-11T17:14:21Z</time>
      </trkpt>
      <trkpt lat="32.320100795477629" lon="-5.294799450784922">
        <ele>2238.0900000000001</ele>
        <time>2019-03-11T17:14:25Z</time>
      </trkpt>
      <trkpt lat="32.320099286735058" lon="-5.295437481254339">
        <ele>2239.0500000000002</ele>
        <time>2019-03-11T17:14:26Z</time>
      </trkpt>
      <trkpt lat="32.320071626454592" lon="-5.295569663867354">
        <ele>2240.4899999999998</ele>
        <time>2019-03-11T17:14:27Z</time>
      </trkpt>
      <trkpt lat="32.320029465481639" lon="-5.295692458748817">
        <ele>2241.4499999999998</ele>
        <time>2019-03-11T17:14:28Z</time>
      </trkpt>
      <trkpt lat="32.319979006424546" lon="-5.295806368812919">
        <ele>2254.9099999999999</ele>
        <time>2019-03-11T17:14:29Z</time>
      </trkpt>
      <trkpt lat="32.319921506568789" lon="-5.295916758477688">
        <ele>2256.3499999999999</ele>
        <time>2019-03-11T17:14:30Z</time>
      </trkpt>
      <trkpt lat="32.319855457171798" lon="-5.29602681286633">
        <ele>2257.3099999999999</ele>
        <time>2019-03-11T17:14:40Z</time>
      </trkpt>
      <trkpt lat="32.319071497768164" lon="-5.297254426404834">
        <ele>2258.75</ele>
        <time>2019-03-11T17:14:41Z</time>
      </trkpt>
      <trkpt lat="32.319026906043291" lon="-5.297365821897984">
        <ele>2259.7199999999998</ele>
        <time>2019-03-11T17:14:42Z</time>
      </trkpt>
      <trkpt lat="32.319010477513075" lon="-5.297461962327361">
        <ele>2260.6799999999998</ele>
        <time>2019-03-11T17:14:43Z</time>
      </trkpt>
      <trkpt lat="32.319025481119752" lon="-5.297533795237541">
        <ele>2261.1599999999999</ele>
        <time>2019-03-11T17:14:44Z</time>
      </trkpt>
      <trkpt lat="32.319066049531102" lon="-5.297582242637873">
        <ele>2262.1199999999999</ele>
        <time>2019-03-11T17:14:45Z</time>
      </trkpt>
      <trkpt lat="32.319118101149797" lon="-5.297605963423848">
        <ele>2263.5599999999999</ele>
        <time>2019-03-11T17:14:46Z</time>
      </trkpt>
      <trkpt lat="32.319169314578176" lon="-5.297613590955734">
        <ele>2264.52</ele>
        <time>2019-03-11T17:14:47Z</time>
      </trkpt>
      <trkpt lat="32.31921935454011" lon="-5.297615686431527">
        <ele>2265.48</ele>
        <time>2019-03-11T17:14:49Z</time>
      </trkpt>
      <trkpt lat="32.319317758083344" lon="-5.297617362812161">
        <ele>2265.96</ele>
        <time>2019-03-11T17:14:50Z</time>
      </trkpt>
      <trkpt lat="32.319363187998533" lon="-5.297629432752729">
        <ele>2266.9299999999998</ele>
        <time>2019-03-11T17:14:51Z</time>
      </trkpt>
      <trkpt lat="32.319398811087012" lon="-5.297657009214163">
        <ele>2267.4099999999999</ele>
        <time>2019-03-11T17:14:52Z</time>
      </trkpt>
      <trkpt lat="32.319422364234924" lon="-5.297697074711323">
        <ele>2267.8899999999999</ele>
        <time>2019-03-11T17:14:54Z</time>
      </trkpt>
      <trkpt lat="32.319431835785508" lon="-5.297775277867913">
        <ele>2268.3699999999999</ele>
        <time>2019-03-11T17:14:55Z</time>
      </trkpt>
      <trkpt lat="32.319425297901034" lon="-5.297805620357394">
        <ele>2268.8499999999999</ele>
        <time>2019-03-11T17:14:56Z</time>
      </trkpt>
      <trkpt lat="32.319412138313055" lon="-5.297835795208812">
        <ele>2272.6900000000001</ele>
        <time>2019-03-11T17:14:57Z</time>
      </trkpt>
      <trkpt lat="32.319395961239934" lon="-5.297871585935354">
        <ele>2273.1700000000001</ele>
        <time>2019-03-11T17:14:58Z</time>
      </trkpt>
      <trkpt lat="32.319369474425912" lon="-5.297921542078257">
        <ele>2281.8299999999999</ele>
        <time>2019-03-11T17:15:04Z</time>
      </trkpt>
      <trkpt lat="32.319135116413236" lon="-5.298284310847521">
        <ele>2282.79</ele>
        <time>2019-03-11T17:15:05Z</time>
      </trkpt>
      <trkpt lat="32.319081472232938" lon="-5.29834046959877">
        <ele>2283.75</ele>
        <time>2019-03-11T17:15:13Z</time>
      </trkpt>
      <trkpt lat="32.318475879728794" lon="-5.298917563632131">
        <ele>2283.75</ele>
        <time>2019-03-11T17:15:14Z</time>
      </trkpt>
      <trkpt lat="32.318385019898415" lon="-5.298974057659507">
        <ele>2284.23</ele>
        <time>2019-03-11T17:15:15Z</time>
      </trkpt>
      <trkpt lat="32.318283012136817" lon="-5.299011608585715">
        <ele>2284.71</ele>
        <time>2019-03-11T17:15:16Z</time>
      </trkpt>
      <trkpt lat="32.318174298852682" lon="-5.29903432354331">
        <ele>2285.6700000000001</ele>
        <time>2019-03-11T17:15:17Z</time>
      </trkpt>
      <trkpt lat="32.318069105967879" lon="-5.299055445939302">
        <ele>2286.1500000000001</ele>
        <time>2019-03-11T17:15:18Z</time>
      </trkpt>
      <trkpt lat="32.317971624433994" lon="-5.299090314656496">
        <ele>2286.6300000000001</ele>
        <time>2019-03-11T17:15:19Z</time>
      </trkpt>
      <trkpt lat="32.317880680784583" lon="-5.299146724864841">
        <ele>2287.5900000000001</ele>
        <time>2019-03-11T17:15:20Z</time>
      </trkpt>
      <trkpt lat="32.317804992198944" lon="-5.299234818667173">
        <ele>2297.21</ele>
        <time>2019-03-11T17:15:21Z</time>
      </trkpt>
      <trkpt lat="32.31774422340095" lon="-5.299348309636116">
        <ele>2298.6500000000001</ele>
        <time>2019-03-11T17:15:22Z</time>
      </trkpt>
      <trkpt lat="32.317684041336179" lon="-5.299472864717245">
        <ele>2299.6100000000001</ele>
        <time>2019-03-11T17:15:29Z</time>
      </trkpt>
      <trkpt lat="32.317023379728198" lon="-5.300343660637736">
        <ele>2300.0900000000001</ele>
        <time>2019-03-11T17:15:30Z</time>
      </trkpt>
      <trkpt lat="32.316907709464431" lon="-5.300431586802006">
        <ele>2300.5700000000002</ele>
        <time>2019-03-11T17:15:31Z</time>
      </trkpt>
      <trkpt lat="32.316792206838727" lon="-5.300496546551585">
        <ele>2300.5700000000002</ele>
        <time>2019-03-11T17:15:32Z</time>
      </trkpt>
      <trkpt lat="32.316677626222372" lon="-5.300533678382635">
        <ele>2301.0500000000002</ele>
        <time>2019-03-11T17:15:33Z</time>
      </trkpt>
      <trkpt lat="32.316571678966284" lon="-5.300533594563603">
        <ele>2301.0500000000002</ele>
        <time>2019-03-11T17:15:34Z</time>
      </trkpt>
      <trkpt lat="32.316477131098509" lon="-5.300499983131886">
        <ele>2294.3200000000002</ele>
        <time>2019-03-11T17:15:35Z</time>
      </trkpt>
      <trkpt lat="32.316391048952937" lon="-5.300437705591321">
        <ele>2293.3600000000001</ele>
        <time>2019-03-11T17:15:36Z</time>
      </trkpt>
      <trkpt lat="32.316302368417382" lon="-5.300355227664113">
        <ele>2292.4000000000001</ele>
        <time>2019-03-11T17:15:43Z</time>
      </trkpt>
      <trkpt lat="32.315571969375014" lon="-5.299650561064482">
        <ele>2291.4400000000001</ele>
        <time>2019-03-11T17:15:44Z</time>
      </trkpt>
      <trkpt lat="32.315484127029777" lon="-5.299586523324251">
        <ele>2290.96</ele>
        <time>2019-03-11T17:15:45Z</time>
      </trkpt>
      <trkpt lat="32.315401816740632" lon="-5.299551151692867">
        <ele>2290.96</ele>
        <time>2019-03-11T17:15:46Z</time>
      </trkpt>
      <trkpt lat="32.315330654382706" lon="-5.29954494908452">
        <ele>2290.96</ele>
        <time>2019-03-11T17:15:47Z</time>
      </trkpt>
      <trkpt lat="32.315273238345981" lon="-5.299575962126255">
        <ele>2290.96</ele>
        <time>2019-03-11T17:15:48Z</time>
      </trkpt>
      <trkpt lat="32.315230574458838" lon="-5.299634551629424">
        <ele>2298.6500000000001</ele>
        <time>2019-03-11T17:15:49Z</time>
      </trkpt>
      <trkpt lat="32.315198723226786" lon="-5.299704791978002">
        <ele>2299.6100000000001</ele>
        <time>2019-03-11T17:15:50Z</time>
      </trkpt>
      <trkpt lat="32.315172320231795" lon="-5.299781151115894">
        <ele>2300.0900000000001</ele>
        <time>2019-03-11T17:16:04Z</time>
      </trkpt>
      <trkpt lat="32.314620288088918" lon="-5.30082662589848">
        <ele>2300.0900000000001</ele>
        <time>2019-03-11T17:16:06Z</time>
      </trkpt>
      <trkpt lat="32.314472682774067" lon="-5.300990073010325">
        <ele>2300.0900000000001</ele>
        <time>2019-03-11T17:16:07Z</time>
      </trkpt>
      <trkpt lat="32.314393473789096" lon="-5.301049835979939">
        <ele>2299.6100000000001</ele>
        <time>2019-03-11T17:16:08Z</time>
      </trkpt>
      <trkpt lat="32.314298506826162" lon="-5.301091074943543">
        <ele>2293.3600000000001</ele>
        <time>2019-03-11T17:16:09Z</time>
      </trkpt>
      <trkpt lat="32.314188033342361" lon="-5.301105491816998">
        <ele>2281.3499999999999</ele>
        <time>2019-03-11T17:16:10Z</time>
      </trkpt>
      <trkpt lat="32.314069848507643" lon="-5.301100295037031">
        <ele>2280.3800000000001</ele>
        <time>2019-03-11T17:16:17Z</time>
      </trkpt>
      <trkpt lat="32.313015321269631" lon="-5.301167517900467">
        <ele>2279.9000000000001</ele>
        <time>2019-03-11T17:16:27Z</time>
      </trkpt>
      <trkpt lat="32.311648903414607" lon="-5.301406737416983">
        <ele>2279.4200000000001</ele>
        <time>2019-03-11T17:16:28Z</time>
      </trkpt>
      <trkpt lat="32.311549410223961" lon="-5.301456525921822">
        <ele>2279.4200000000001</ele>
        <time>2019-03-11T17:16:29Z</time>
      </trkpt>
      <trkpt lat="32.311462489888072" lon="-5.301525257527828">
        <ele>2279.4200000000001</ele>
        <time>2019-03-11T17:16:30Z</time>
      </trkpt>
      <trkpt lat="32.311391495168209" lon="-5.301616452634335">
        <ele>2279.4200000000001</ele>
        <time>2019-03-11T17:16:31Z</time>
      </trkpt>
      <trkpt lat="32.31133634224534" lon="-5.301727512851358">
        <ele>2278.9400000000001</ele>
        <time>2019-03-11T17:16:32Z</time>
      </trkpt>
      <trkpt lat="32.311288062483072" lon="-5.301848966628313">
        <ele>2278.9400000000001</ele>
        <time>2019-03-11T17:16:33Z</time>
      </trkpt>
      <trkpt lat="32.311244811862707" lon="-5.301976874470711">
        <ele>2278.9400000000001</ele>
        <time>2019-03-11T17:16:42Z</time>
      </trkpt>
      <trkpt lat="32.310746842995286" lon="-5.303115723654628">
        <ele>2278.46</ele>
        <time>2019-03-11T17:16:43Z</time>
      </trkpt>
      <trkpt lat="32.310732007026672" lon="-5.303207589313388">
        <ele>2277.5</ele>
        <time>2019-03-11T17:16:44Z</time>
      </trkpt>
      <trkpt lat="32.310746088624001" lon="-5.303300628438592">
        <ele>2275.0999999999999</ele>
        <time>2019-03-11T17:16:45Z</time>
      </trkpt>
      <trkpt lat="32.310789590701461" lon="-5.303389644250274">
        <ele>2274.6199999999999</ele>
        <time>2019-03-11T17:16:46Z</time>
      </trkpt>
      <trkpt lat="32.310849940404296" lon="-5.303478240966797">
        <ele>2274.6199999999999</ele>
        <time>2019-03-11T17:16:49Z</time>
      </trkpt>
      <trkpt lat="32.311034509912133" lon="-5.303806979209185">
        <ele>2274.6199999999999</ele>
        <time>2019-03-11T17:16:50Z</time>
      </trkpt>
      <trkpt lat="32.311071055009961" lon="-5.30394209548831">
        <ele>2274.6199999999999</ele>
        <time>2019-03-11T17:16:51Z</time>
      </trkpt>
      <trkpt lat="32.311084801331162" lon="-5.304094310849905">
        <ele>2274.6199999999999</ele>
        <time>2019-03-11T17:16:52Z</time>
      </trkpt>
      <trkpt lat="32.311076670885086" lon="-5.304253650829196">
        <ele>2274.6199999999999</ele>
        <time>2019-03-11T17:16:53Z</time>
      </trkpt>
      <trkpt lat="32.311046328395605" lon="-5.304409889504314">
        <ele>2273.6599999999999</ele>
        <time>2019-03-11T17:16:54Z</time>
      </trkpt>
      <trkpt lat="32.310997545719147" lon="-5.304563026875258">
        <ele>2272.6900000000001</ele>
        <time>2019-03-11T17:16:55Z</time>
      </trkpt>
      <trkpt lat="32.310926467180252" lon="-5.304713733494282">
        <ele>2263.5599999999999</ele>
        <time>2019-03-11T17:16:56Z</time>
      </trkpt>
      <trkpt lat="32.310836277902126" lon="-5.304853208363056">
        <ele>2262.1199999999999</ele>
        <time>2019-03-11T17:16:57Z</time>
      </trkpt>
      <trkpt lat="32.310737203806639" lon="-5.304985893890262">
        <ele>2260.6799999999998</ele>
        <time>2019-03-11T17:17:03Z</time>
      </trkpt>
      <trkpt lat="32.310195565223694" lon="-5.305716544389725">
        <ele>2259.7199999999998</ele>
        <time>2019-03-11T17:17:04Z</time>
      </trkpt>
      <trkpt lat="32.310129515826702" lon="-5.305772200226784">
        <ele>2258.75</ele>
        <time>2019-03-11T17:17:05Z</time>
      </trkpt>
      <trkpt lat="32.310066735371947" lon="-5.30579692684114">
        <ele>2257.79</ele>
        <time>2019-03-11T17:17:06Z</time>
      </trkpt>
      <trkpt lat="32.310006385669112" lon="-5.305787455290556">
        <ele>2256.3499999999999</ele>
        <time>2019-03-11T17:17:07Z</time>
      </trkpt>
      <trkpt lat="32.309962213039398" lon="-5.305746216326952">
        <ele>2255.3899999999999</ele>
        <time>2019-03-11T17:17:08Z</time>
      </trkpt>
      <trkpt lat="32.309939581900835" lon="-5.305680837482214">
        <ele>2252.9899999999998</ele>
        <time>2019-03-11T17:17:09Z</time>
      </trkpt>
      <trkpt lat="32.309934133663774" lon="-5.305603891611099">
        <ele>2252.0300000000002</ele>
        <time>2019-03-11T17:17:10Z</time>
      </trkpt>
      <trkpt lat="32.309940671548247" lon="-5.305518228560686">
        <ele>2251.54</ele>
        <time>2019-03-11T17:17:13Z</time>
      </trkpt>
      <trkpt lat="32.30995743535459" lon="-5.305238859727979">
        <ele>2251.0599999999999</ele>
        <time>2019-03-11T17:17:14Z</time>
      </trkpt>
      <trkpt lat="32.309941677376628" lon="-5.305156633257866">
        <ele>2250.0999999999999</ele>
        <time>2019-03-11T17:17:15Z</time>
      </trkpt>
      <trkpt lat="32.309907311573625" lon="-5.305092427879572">
        <ele>2248.6599999999999</ele>
        <time>2019-03-11T17:17:16Z</time>
      </trkpt>
      <trkpt lat="32.309851823374629" lon="-5.305061582475901">
        <ele>2247.2199999999998</ele>
        <time>2019-03-11T17:17:17Z</time>
      </trkpt>
      <trkpt lat="32.309784851968288" lon="-5.305078933015466">
        <ele>2245.7800000000002</ele>
        <time>2019-03-11T17:17:18Z</time>
      </trkpt>
      <trkpt lat="32.309718132019043" lon="-5.305145066231489">
        <ele>2243.8499999999999</ele>
        <time>2019-03-11T17:17:19Z</time>
      </trkpt>
      <trkpt lat="32.309651495888829" lon="-5.305238189175725">
        <ele>2241.9299999999998</ele>
        <time>2019-03-11T17:17:20Z</time>
      </trkpt>
      <trkpt lat="32.30958360247314" lon="-5.305342627689242">
        <ele>2240.0100000000002</ele>
        <time>2019-03-11T17:17:21Z</time>
      </trkpt>
      <trkpt lat="32.309517553076148" lon="-5.305455531924963">
        <ele>2238.0900000000001</ele>
        <time>2019-03-11T17:17:22Z</time>
      </trkpt>
      <trkpt lat="32.309459131211042" lon="-5.305578745901585">
        <ele>2235.1999999999998</ele>
        <time>2019-03-11T17:17:23Z</time>
      </trkpt>
      <trkpt lat="32.309410097077489" lon="-5.305705983191729">
        <ele>2234.2399999999998</ele>
        <time>2019-03-11T17:17:24Z</time>
      </trkpt>
      <trkpt lat="32.30936961248517" lon="-5.305826598778367">
        <ele>2232.8000000000002</ele>
        <time>2019-03-11T17:17:26Z</time>
      </trkpt>
      <trkpt lat="32.309291996061802" lon="-5.30600898899138">
        <ele>2231.8400000000001</ele>
        <time>2019-03-11T17:17:27Z</time>
      </trkpt>
      <trkpt lat="32.309240028262138" lon="-5.306053832173348">
        <ele>2230.4000000000001</ele>
        <time>2019-03-11T17:17:28Z</time>
      </trkpt>
      <trkpt lat="32.309174481779337" lon="-5.306058274582028">
        <ele>2228.9499999999998</ele>
        <time>2019-03-11T17:17:29Z</time>
      </trkpt>
      <trkpt lat="32.309103151783347" lon="-5.306017873808742">
        <ele>2227.5100000000002</ele>
        <time>2019-03-11T17:17:30Z</time>
      </trkpt>
      <trkpt lat="32.30903391726315" lon="-5.305935898795724">
        <ele>2226.5500000000002</ele>
        <time>2019-03-11T17:17:31Z</time>
      </trkpt>
      <trkpt lat="32.30895864777267" lon="-5.30582576058805">
        <ele>2226.5500000000002</ele>
        <time>2019-03-11T17:17:32Z</time>
      </trkpt>
      <trkpt lat="32.3088707216084" lon="-5.305709838867188">
        <ele>2226.0700000000002</ele>
        <time>2019-03-11T17:17:33Z</time>
      </trkpt>
      <trkpt lat="32.308769216760993" lon="-5.305598191916943">
        <ele>2226.0700000000002</ele>
        <time>2019-03-11T17:17:34Z</time>
      </trkpt>
      <trkpt lat="32.30865865945816" lon="-5.305500626564026">
        <ele>2225.5900000000001</ele>
        <time>2019-03-11T17:17:36Z</time>
      </trkpt>
      <trkpt lat="32.308444585651159" lon="-5.305302813649178">
        <ele>2225.1100000000001</ele>
        <time>2019-03-11T17:17:37Z</time>
      </trkpt>
      <trkpt lat="32.308354983106256" lon="-5.30517247505486">
        <ele>2224.1500000000001</ele>
        <time>2019-03-11T17:17:38Z</time>
      </trkpt>
      <trkpt lat="32.308280970901251" lon="-5.305027803406119">
        <ele>2224.1500000000001</ele>
        <time>2019-03-11T17:17:39Z</time>
      </trkpt>
      <trkpt lat="32.308220285922289" lon="-5.304876007139683">
        <ele>2224.1500000000001</ele>
        <time>2019-03-11T17:17:40Z</time>
      </trkpt>
      <trkpt lat="32.308167228475213" lon="-5.304722534492612">
        <ele>2223.6700000000001</ele>
        <time>2019-03-11T17:17:41Z</time>
      </trkpt>
      <trkpt lat="32.308119619265199" lon="-5.304566798731685">
        <ele>2223.6700000000001</ele>
        <time>2019-03-11T17:17:42Z</time>
      </trkpt>
      <trkpt lat="32.308061281219125" lon="-5.304416678845882">
        <ele>2219.3400000000001</ele>
        <time>2019-03-11T17:17:43Z</time>
      </trkpt>
      <trkpt lat="32.307978803291917" lon="-5.304286759346724">
        <ele>2218.3800000000001</ele>
        <time>2019-03-11T17:17:44Z</time>
      </trkpt>
      <trkpt lat="32.307871347293258" lon="-5.304177291691303">
        <ele>2217.4200000000001</ele>
        <time>2019-03-11T17:17:51Z</time>
      </trkpt>
      <trkpt lat="32.307058302685618" lon="-5.303599024191499">
        <ele>2215.98</ele>
        <time>2019-03-11T17:17:52Z</time>
      </trkpt>
      <trkpt lat="32.306976998224854" lon="-5.303573962301016">
        <ele>2214.5300000000002</ele>
        <time>2019-03-11T17:17:53Z</time>
      </trkpt>
      <trkpt lat="32.306894771754742" lon="-5.303590977564454">
        <ele>2213.0900000000001</ele>
        <time>2019-03-11T17:17:54Z</time>
      </trkpt>
      <trkpt lat="32.306815562769771" lon="-5.303653758019209">
        <ele>2211.6500000000001</ele>
        <time>2019-03-11T17:17:55Z</time>
      </trkpt>
      <trkpt lat="32.306743059307337" lon="-5.303748557344079">
        <ele>2210.6900000000001</ele>
        <time>2019-03-11T17:17:56Z</time>
      </trkpt>
      <trkpt lat="32.306665107607841" lon="-5.303855007514358">
        <ele>2209.25</ele>
        <time>2019-03-11T17:17:57Z</time>
      </trkpt>
      <trkpt lat="32.306574666872621" lon="-5.303952237591147">
        <ele>2207.8099999999999</ele>
        <time>2019-03-11T17:17:58Z</time>
      </trkpt>
      <trkpt lat="32.306475006043911" lon="-5.30403396114707">
        <ele>2206.8400000000001</ele>
        <time>2019-03-11T17:17:59Z</time>
      </trkpt>
      <trkpt lat="32.306368974968791" lon="-5.304101686924696">
        <ele>2205.4000000000001</ele>
        <time>2019-03-11T17:18:00Z</time>
      </trkpt>
      <trkpt lat="32.306253639981151" lon="-5.30415172688663">
        <ele>2203.96</ele>
        <time>2019-03-11T17:18:01Z</time>
      </trkpt>
      <trkpt lat="32.306132102385163" lon="-5.304174777120352">
        <ele>2203</ele>
        <time>2019-03-11T17:18:02Z</time>
      </trkpt>
      <trkpt lat="32.306009810417891" lon="-5.304164048284292">
        <ele>2201.5599999999999</ele>
        <time>2019-03-11T17:18:03Z</time>
      </trkpt>
      <trkpt lat="32.305889697745442" lon="-5.304127251729369">
        <ele>2200.1100000000001</ele>
        <time>2019-03-11T17:18:04Z</time>
      </trkpt>
      <trkpt lat="32.305767992511392" lon="-5.304096154868603">
        <ele>2199.1500000000001</ele>
        <time>2019-03-11T17:18:05Z</time>
      </trkpt>
      <trkpt lat="32.305638575926423" lon="-5.304084252566099">
        <ele>2197.23</ele>
        <time>2019-03-11T17:18:06Z</time>
      </trkpt>
      <trkpt lat="32.30551234446466" lon="-5.304082743823528">
        <ele>2196.27</ele>
        <time>2019-03-11T17:18:07Z</time>
      </trkpt>
      <trkpt lat="32.305400278419256" lon="-5.304071344435215">
        <ele>2195.79</ele>
        <time>2019-03-11T17:18:09Z</time>
      </trkpt>
      <trkpt lat="32.305218139663339" lon="-5.304069332778454">
        <ele>2195.3099999999999</ele>
        <time>2019-03-11T17:18:10Z</time>
      </trkpt>
      <trkpt lat="32.305142367258668" lon="-5.304108308628202">
        <ele>2194.8299999999999</ele>
        <time>2019-03-11T17:18:11Z</time>
      </trkpt>
      <trkpt lat="32.305077407509089" lon="-5.304180644452572">
        <ele>2194.3499999999999</ele>
        <time>2019-03-11T17:18:12Z</time>
      </trkpt>
      <trkpt lat="32.305018650367856" lon="-5.30427535995841">
        <ele>2191.9400000000001</ele>
        <time>2019-03-11T17:18:13Z</time>
      </trkpt>
      <trkpt lat="32.3049645870924" lon="-5.304387509822846">
        <ele>2191.46</ele>
        <time>2019-03-11T17:18:14Z</time>
      </trkpt>
      <trkpt lat="32.304912200197577" lon="-5.304505443200469">
        <ele>2190.5</ele>
        <time>2019-03-11T17:18:17Z</time>
      </trkpt>
      <trkpt lat="32.304762750864029" lon="-5.304795289412141">
        <ele>2190.02</ele>
        <time>2019-03-11T17:18:18Z</time>
      </trkpt>
      <trkpt lat="32.304710280150175" lon="-5.304861757904291">
        <ele>2189.0599999999999</ele>
        <time>2019-03-11T17:18:19Z</time>
      </trkpt>
      <trkpt lat="32.304655546322465" lon="-5.304921437054873">
        <ele>2188.5799999999999</ele>
        <time>2019-03-11T17:18:20Z</time>
      </trkpt>
      <trkpt lat="32.304598884657025" lon="-5.304971225559712">
        <ele>2187.6199999999999</ele>
        <time>2019-03-11T17:18:21Z</time>
      </trkpt>
      <trkpt lat="32.304534427821636" lon="-5.305009866133332">
        <ele>2186.6599999999999</ele>
        <time>2019-03-11T17:18:22Z</time>
      </trkpt>
      <trkpt lat="32.304462008178234" lon="-5.305022606626153">
        <ele>2184.25</ele>
        <time>2019-03-11T17:18:23Z</time>
      </trkpt>
      <trkpt lat="32.30438556522131" lon="-5.305012548342347">
        <ele>2184.25</ele>
        <time>2019-03-11T17:18:24Z</time>
      </trkpt>
      <trkpt lat="32.304307362064719" lon="-5.304991090670228">
        <ele>2184.25</ele>
        <time>2019-03-11T17:18:29Z</time>
      </trkpt>
      <trkpt lat="32.303903186693788" lon="-5.304900901392102">
        <ele>2184.73</ele>
        <time>2019-03-11T17:18:30Z</time>
      </trkpt>
      <trkpt lat="32.303819702938199" lon="-5.304906601086259">
        <ele>2185.21</ele>
        <time>2019-03-11T17:18:31Z</time>
      </trkpt>
      <trkpt lat="32.303732531145215" lon="-5.304926298558712">
        <ele>2189.54</ele>
        <time>2019-03-11T17:18:32Z</time>
      </trkpt>
      <trkpt lat="32.303642090409994" lon="-5.3049579821527">
        <ele>2190.98</ele>
        <time>2019-03-11T17:18:33Z</time>
      </trkpt>
      <trkpt lat="32.303546788170934" lon="-5.304994862526655">
        <ele>2195.3099999999999</ele>
        <time>2019-03-11T17:18:39Z</time>
      </trkpt>
      <trkpt lat="32.30284933000803" lon="-5.305206505581737">
        <ele>2196.27</ele>
        <time>2019-03-11T17:18:40Z</time>
      </trkpt>
      <trkpt lat="32.302725110203028" lon="-5.305266687646508">
        <ele>2197.71</ele>
        <time>2019-03-11T17:18:43Z</time>
      </trkpt>
      <trkpt lat="32.302406514063478" lon="-5.305416639894247">
        <ele>2198.6700000000001</ele>
        <time>2019-03-11T17:18:44Z</time>
      </trkpt>
      <trkpt lat="32.302323114126921" lon="-5.305413287132978">
        <ele>2199.1500000000001</ele>
        <time>2019-03-11T17:18:45Z</time>
      </trkpt>
      <trkpt lat="32.302249437198043" lon="-5.305373389273882">
        <ele>2200.1100000000001</ele>
        <time>2019-03-11T17:18:46Z</time>
      </trkpt>
      <trkpt lat="32.30218724347651" lon="-5.305305076763034">
        <ele>2200.5900000000001</ele>
        <time>2019-03-11T17:18:47Z</time>
      </trkpt>
      <trkpt lat="32.302128989249468" lon="-5.305222515016794">
        <ele>2201.5599999999999</ele>
        <time>2019-03-11T17:18:52Z</time>
      </trkpt>
      <trkpt lat="32.301786756142974" lon="-5.304660592228174">
        <ele>2202.04</ele>
        <time>2019-03-11T17:18:53Z</time>
      </trkpt>
      <trkpt lat="32.301727663725615" lon="-5.304517345502973">
        <ele>2202.52</ele>
        <time>2019-03-11T17:18:55Z</time>
      </trkpt>
      <trkpt lat="32.301626997068524" lon="-5.30423135496676">
        <ele>2203.48</ele>
        <time>2019-03-11T17:18:56Z</time>
      </trkpt>
      <trkpt lat="32.301556840538979" lon="-5.304108476266265">
        <ele>2204.4400000000001</ele>
        <time>2019-03-11T17:18:57Z</time>
      </trkpt>
      <trkpt lat="32.301469165831804" lon="-5.303999176248908">
        <ele>2204.9200000000001</ele>
        <time>2019-03-11T17:18:59Z</time>
      </trkpt>
      <trkpt lat="32.30129205621779" lon="-5.303772781044245">
        <ele>2205.4000000000001</ele>
        <time>2019-03-11T17:19:00Z</time>
      </trkpt>
      <trkpt lat="32.301221899688244" lon="-5.303637078031898">
        <ele>2205.8800000000001</ele>
        <time>2019-03-11T17:19:01Z</time>
      </trkpt>
      <trkpt lat="32.301171356812119" lon="-5.303481426090002">
        <ele>2206.8400000000001</ele>
        <time>2019-03-11T17:19:02Z</time>
      </trkpt>
      <trkpt lat="32.30114059522748" lon="-5.303309680894017">
        <ele>2208.29</ele>
        <time>2019-03-11T17:19:03Z</time>
      </trkpt>
      <trkpt lat="32.301112348213792" lon="-5.303132990375161">
        <ele>2208.77</ele>
        <time>2019-03-11T17:19:05Z</time>
      </trkpt>
      <trkpt lat="32.301029535010457" lon="-5.302802659571171">
        <ele>2208.77</ele>
        <time>2019-03-11T17:19:08Z</time>
      </trkpt>
      <trkpt lat="32.30090313591063" lon="-5.30237409286201">
        <ele>2209.73</ele>
        <time>2019-03-11T17:19:09Z</time>
      </trkpt>
      <trkpt lat="32.300895843654871" lon="-5.302232941612601">
        <ele>2209.73</ele>
        <time>2019-03-11T17:19:10Z</time>
      </trkpt>
      <trkpt lat="32.300906237214804" lon="-5.302089778706431">
        <ele>2209.73</ele>
        <time>2019-03-11T17:19:13Z</time>
      </trkpt>
      <trkpt lat="32.300957702100277" lon="-5.301696415990591">
        <ele>2210.21</ele>
        <time>2019-03-11T17:19:14Z</time>
      </trkpt>
      <trkpt lat="32.300934232771397" lon="-5.301589882001281">
        <ele>2210.21</ele>
        <time>2019-03-11T17:19:15Z</time>
      </trkpt>
      <trkpt lat="32.30087916366756" lon="-5.301501285284758">
        <ele>2210.6900000000001</ele>
        <time>2019-03-11T17:19:16Z</time>
      </trkpt>
      <trkpt lat="32.300800960510969" lon="-5.301429703831673">
        <ele>2211.1700000000001</ele>
        <time>2019-03-11T17:19:17Z</time>
      </trkpt>
      <trkpt lat="32.300711357966065" lon="-5.301373628899455">
        <ele>2212.1300000000001</ele>
        <time>2019-03-11T17:19:18Z</time>
      </trkpt>
      <trkpt lat="32.300623180344701" lon="-5.301332222297788">
        <ele>2212.6100000000001</ele>
        <time>2019-03-11T17:19:19Z</time>
      </trkpt>
      <trkpt lat="32.300539612770081" lon="-5.301309758797288">
        <ele>2213.5700000000002</ele>
        <time>2019-03-11T17:19:20Z</time>
      </trkpt>
      <trkpt lat="32.300459649413824" lon="-5.301315542310476">
        <ele>2214.5300000000002</ele>
        <time>2019-03-11T17:19:21Z</time>
      </trkpt>
      <trkpt lat="32.300384966656566" lon="-5.301351249217987">
        <ele>2215.0100000000002</ele>
        <time>2019-03-11T17:19:22Z</time>
      </trkpt>
      <trkpt lat="32.300324952229857" lon="-5.301414364948869">
        <ele>2216.9400000000001</ele>
        <time>2019-03-11T17:19:23Z</time>
      </trkpt>
      <trkpt lat="32.300279522314668" lon="-5.30149307101965">
        <ele>2217.9000000000001</ele>
        <time>2019-03-11T17:19:24Z</time>
      </trkpt>
      <trkpt lat="32.300235768780112" lon="-5.301569933071733">
        <ele>2218.8600000000001</ele>
        <time>2019-03-11T17:19:26Z</time>
      </trkpt>
      <trkpt lat="32.300143903121352" lon="-5.301709156483412">
        <ele>2219.3400000000001</ele>
        <time>2019-03-11T17:19:27Z</time>
      </trkpt>
      <trkpt lat="32.300090929493308" lon="-5.301752239465714">
        <ele>2219.8200000000002</ele>
        <time>2019-03-11T17:19:28Z</time>
      </trkpt>
      <trkpt lat="32.300035776570439" lon="-5.301768751814961">
        <ele>2220.3000000000002</ele>
        <time>2019-03-11T17:19:29Z</time>
      </trkpt>
      <trkpt lat="32.299984646961093" lon="-5.301764057949185">
        <ele>2221.2600000000002</ele>
        <time>2019-03-11T17:19:30Z</time>
      </trkpt>
      <trkpt lat="32.299936283379793" lon="-5.301744109019637">
        <ele>2222.2199999999998</ele>
        <time>2019-03-11T17:19:31Z</time>
      </trkpt>
      <trkpt lat="32.299891775473952" lon="-5.301713431254029">
        <ele>2222.71</ele>
        <time>2019-03-11T17:19:32Z</time>
      </trkpt>
      <trkpt lat="32.299850787967443" lon="-5.301673952490091">
        <ele>2227.0300000000002</ele>
        <time>2019-03-11T17:19:33Z</time>
      </trkpt>
      <trkpt lat="32.299810890108347" lon="-5.301629109308124">
        <ele>2227.9899999999998</ele>
        <time>2019-03-11T17:19:34Z</time>
      </trkpt>
      <trkpt lat="32.299771578982472" lon="-5.301582338288426">
        <ele>2231.3600000000001</ele>
        <time>2019-03-11T17:19:40Z</time>
      </trkpt>
      <trkpt lat="32.299476033076644" lon="-5.301182605326176">
        <ele>2232.3200000000002</ele>
        <time>2019-03-11T17:19:41Z</time>
      </trkpt>
      <trkpt lat="32.299422640353441" lon="-5.301074562594295">
        <ele>2233.7600000000002</ele>
        <time>2019-03-11T17:19:44Z</time>
      </trkpt>
      <trkpt lat="32.299254415556788" lon="-5.300728306174278">
        <ele>2234.7199999999998</ele>
        <time>2019-03-11T17:19:45Z</time>
      </trkpt>
      <trkpt lat="32.299187779426575" lon="-5.300628142431378">
        <ele>2235.6799999999998</ele>
        <time>2019-03-11T17:19:46Z</time>
      </trkpt>
      <trkpt lat="32.299110582098365" lon="-5.300533594563603">
        <ele>2249.6199999999999</ele>
        <time>2019-03-11T17:19:47Z</time>
      </trkpt>
      <trkpt lat="32.299022991210222" lon="-5.300444075837731">
        <ele>2250.5799999999999</ele>
        <time>2019-03-11T17:19:48Z</time>
      </trkpt>
      <trkpt lat="32.298927437514067" lon="-5.300354976207018">
        <ele>2251.54</ele>
        <time>2019-03-11T17:19:58Z</time>
      </trkpt>
      <trkpt lat="32.298027304932475" lon="-5.299185030162334">
        <ele>2252.5100000000002</ele>
        <time>2019-03-11T17:19:59Z</time>
      </trkpt>
      <trkpt lat="32.297979276627302" lon="-5.299042034894228">
        <ele>2255.3899999999999</ele>
        <time>2019-03-11T17:20:00Z</time>
      </trkpt>
      <trkpt lat="32.297951700165868" lon="-5.298887053504586">
        <ele>2255.8699999999999</ele>
        <time>2019-03-11T17:20:01Z</time>
      </trkpt>
      <trkpt lat="32.297941725701094" lon="-5.298728132620454">
        <ele>2256.8299999999999</ele>
        <time>2019-03-11T17:20:04Z</time>
      </trkpt>
      <trkpt lat="32.29794985614717" lon="-5.298285568132997">
        <ele>2257.3099999999999</ele>
        <time>2019-03-11T17:20:05Z</time>
      </trkpt>
      <trkpt lat="32.297938205301762" lon="-5.298170484602451">
        <ele>2257.79</ele>
        <time>2019-03-11T17:20:06Z</time>
      </trkpt>
      <trkpt lat="32.297906270250678" lon="-5.298077445477247">
        <ele>2258.27</ele>
        <time>2019-03-11T17:20:07Z</time>
      </trkpt>
      <trkpt lat="32.297849608585238" lon="-5.298010557889938">
        <ele>2258.27</ele>
        <time>2019-03-11T17:20:08Z</time>
      </trkpt>
      <trkpt lat="32.297775512561202" lon="-5.297980131581426">
        <ele>2258.75</ele>
        <time>2019-03-11T17:20:09Z</time>
      </trkpt>
      <trkpt lat="32.297702170908451" lon="-5.297980131581426">
        <ele>2259.2399999999998</ele>
        <time>2019-03-11T17:20:10Z</time>
      </trkpt>
      <trkpt lat="32.297630924731493" lon="-5.298001421615481">
        <ele>2259.7199999999998</ele>
        <time>2019-03-11T17:20:11Z</time>
      </trkpt>
      <trkpt lat="32.297563115134835" lon="-5.298028746619821">
        <ele>2260.1999999999998</ele>
        <time>2019-03-11T17:20:12Z</time>
      </trkpt>
      <trkpt lat="32.297495808452368" lon="-5.298047689720988">
        <ele>2261.1599999999999</ele>
        <time>2019-03-11T17:20:13Z</time>
      </trkpt>
      <trkpt lat="32.29743042960763" lon="-5.29805414378643">
        <ele>2261.6399999999999</ele>
        <time>2019-03-11T17:20:14Z</time>
      </trkpt>
      <trkpt lat="32.297368068248034" lon="-5.298045426607132">
        <ele>2262.5999999999999</ele>
        <time>2019-03-11T17:20:15Z</time>
      </trkpt>
      <trkpt lat="32.297316435724497" lon="-5.298023214563727">
        <ele>2263.0799999999999</ele>
        <time>2019-03-11T17:20:16Z</time>
      </trkpt>
      <trkpt lat="32.297276370227337" lon="-5.297993710264564">
        <ele>2263.5599999999999</ele>
        <time>2019-03-11T17:20:17Z</time>
      </trkpt>
      <trkpt lat="32.297241669148207" lon="-5.297958422452211">
        <ele>2263.5599999999999</ele>
        <time>2019-03-11T17:20:18Z</time>
      </trkpt>
      <trkpt lat="32.297211913391948" lon="-5.297918189316988">
        <ele>2269.3299999999999</ele>
        <time>2019-03-11T17:20:19Z</time>
      </trkpt>
      <trkpt lat="32.297184504568577" lon="-5.297875944525003">
        <ele>2273.1700000000001</ele>
        <time>2019-03-11T17:20:20Z</time>
      </trkpt>
      <trkpt lat="32.297160951420665" lon="-5.297832945361733">
        <ele>2274.1399999999999</ele>
        <time>2019-03-11T17:20:32Z</time>
      </trkpt>
      <trkpt lat="32.29680547490716" lon="-5.297028617933393">
        <ele>2275.5799999999999</ele>
        <time>2019-03-11T17:20:37Z</time>
      </trkpt>
      <trkpt lat="32.296566171571612" lon="-5.296527128666639">
        <ele>2276.54</ele>
        <time>2019-03-11T17:20:38Z</time>
      </trkpt>
      <trkpt lat="32.296490399166942" lon="-5.296440543606877">
        <ele>2277.98</ele>
        <time>2019-03-11T17:20:39Z</time>
      </trkpt>
      <trkpt lat="32.296396605670452" lon="-5.296365022659302">
        <ele>2282.79</ele>
        <time>2019-03-11T17:20:40Z</time>
      </trkpt>
      <trkpt lat="32.296291077509522" lon="-5.296300565823913">
        <ele>2284.23</ele>
        <time>2019-03-11T17:20:41Z</time>
      </trkpt>
      <trkpt lat="32.296181609854102" lon="-5.296245161443949">
        <ele>2285.1900000000001</ele>
        <time>2019-03-11T17:20:45Z</time>
      </trkpt>
      <trkpt lat="32.295799311250448" lon="-5.296038798987865">
        <ele>2286.1500000000001</ele>
        <time>2019-03-11T17:20:46Z</time>
      </trkpt>
      <trkpt lat="32.295720353722572" lon="-5.295967804268003">
        <ele>2287.5900000000001</ele>
        <time>2019-03-11T17:20:47Z</time>
      </trkpt>
      <trkpt lat="32.295649694278836" lon="-5.295876357704401">
        <ele>2288.5599999999999</ele>
        <time>2019-03-11T17:20:48Z</time>
      </trkpt>
      <trkpt lat="32.295587500557303" lon="-5.295764543116093">
        <ele>2292.4000000000001</ele>
        <time>2019-03-11T17:20:49Z</time>
      </trkpt>
      <trkpt lat="32.295528491958976" lon="-5.295636048540473">
        <ele>2292.8800000000001</ele>
        <time>2019-03-11T17:20:50Z</time>
      </trkpt>
      <trkpt lat="32.295477110892534" lon="-5.295504033565521">
        <ele>2293.8400000000001</ele>
        <time>2019-03-11T17:20:55Z</time>
      </trkpt>
      <trkpt lat="32.295225821435452" lon="-5.294871451333165">
        <ele>2294.8000000000002</ele>
        <time>2019-03-11T17:20:56Z</time>
      </trkpt>
      <trkpt lat="32.295153234153986" lon="-5.294758044183254">
        <ele>2294.8000000000002</ele>
        <time>2019-03-11T17:20:57Z</time>
      </trkpt>
      <trkpt lat="32.295065224170685" lon="-5.29465913772583">
        <ele>2294.8000000000002</ele>
        <time>2019-03-11T17:21:00Z</time>
      </trkpt>
      <trkpt lat="32.294790130108595" lon="-5.294392174109817">
        <ele>2293.8400000000001</ele>
        <time>2019-03-11T17:21:01Z</time>
      </trkpt>
      <trkpt lat="32.294720392674208" lon="-5.294276755303145">
        <ele>2293.8400000000001</ele>
        <time>2019-03-11T17:21:02Z</time>
      </trkpt>
      <trkpt lat="32.294660964980721" lon="-5.294147171080113">
        <ele>2293.3600000000001</ele>
        <time>2019-03-11T17:21:06Z</time>
      </trkpt>
      <trkpt lat="32.294465247541666" lon="-5.293637132272124">
        <ele>2292.8800000000001</ele>
        <time>2019-03-11T17:21:07Z</time>
      </trkpt>
      <trkpt lat="32.294413447380066" lon="-5.293543841689825">
        <ele>2292.4000000000001</ele>
        <time>2019-03-11T17:21:08Z</time>
      </trkpt>
      <trkpt lat="32.294348739087582" lon="-5.293482067063451">
        <ele>2291.9200000000001</ele>
        <time>2019-03-11T17:21:09Z</time>
      </trkpt>
      <trkpt lat="32.294275984168053" lon="-5.293451556935906">
        <ele>2291.9200000000001</ele>
        <time>2019-03-11T17:21:10Z</time>
      </trkpt>
      <trkpt lat="32.29420549236238" lon="-5.293449042364955">
        <ele>2291.4400000000001</ele>
        <time>2019-03-11T17:21:11Z</time>
      </trkpt>
      <trkpt lat="32.294139862060547" lon="-5.293479468673468">
        <ele>2291.4400000000001</ele>
        <time>2019-03-11T17:21:12Z</time>
      </trkpt>
      <trkpt lat="32.294082948938012" lon="-5.293537806719542">
        <ele>2291.4400000000001</ele>
        <time>2019-03-11T17:21:13Z</time>
      </trkpt>
      <trkpt lat="32.294042045250535" lon="-5.293619446456432">
        <ele>2291.4400000000001</ele>
        <time>2019-03-11T17:21:14Z</time>
      </trkpt>
      <trkpt lat="32.29401296004653" lon="-5.293715419247747">
        <ele>2291.4400000000001</ele>
        <time>2019-03-11T17:21:15Z</time>
      </trkpt>
      <trkpt lat="32.293990748003125" lon="-5.293815666809678">
        <ele>2290.96</ele>
        <time>2019-03-11T17:21:16Z</time>
      </trkpt>
      <trkpt lat="32.293965267017484" lon="-5.293910801410675">
        <ele>2290.48</ele>
        <time>2019-03-11T17:21:17Z</time>
      </trkpt>
      <trkpt lat="32.293928135186434" lon="-5.293999398127198">
        <ele>2289.52</ele>
        <time>2019-03-11T17:21:18Z</time>
      </trkpt>
      <trkpt lat="32.293873149901628" lon="-5.294083133339882">
        <ele>2289.04</ele>
        <time>2019-03-11T17:21:19Z</time>
      </trkpt>
      <trkpt lat="32.293798215687275" lon="-5.294162593781948">
        <ele>2287.5900000000001</ele>
        <time>2019-03-11T17:21:20Z</time>
      </trkpt>
      <trkpt lat="32.29371297173202" lon="-5.294243479147553">
        <ele>2286.1500000000001</ele>
        <time>2019-03-11T17:21:21Z</time>
      </trkpt>
      <trkpt lat="32.293629571795464" lon="-5.294332327321172">
        <ele>2285.1900000000001</ele>
        <time>2019-03-11T17:21:22Z</time>
      </trkpt>
      <trkpt lat="32.293558912351727" lon="-5.294432071968913">
        <ele>2283.75</ele>
        <time>2019-03-11T17:21:23Z</time>
      </trkpt>
      <trkpt lat="32.293502418324351" lon="-5.294547826051712">
        <ele>2280.8699999999999</ele>
        <time>2019-03-11T17:21:24Z</time>
      </trkpt>
      <trkpt lat="32.293462520465255" lon="-5.294675398617983">
        <ele>2279.4200000000001</ele>
        <time>2019-03-11T17:21:25Z</time>
      </trkpt>
      <trkpt lat="32.293431423604488" lon="-5.294806826859713">
        <ele>2278.46</ele>
        <time>2019-03-11T17:21:27Z</time>
      </trkpt>
      <trkpt lat="32.293370235711336" lon="-5.295028947293758">
        <ele>2276.54</ele>
        <time>2019-03-11T17:21:28Z</time>
      </trkpt>
      <trkpt lat="32.293324219062924" lon="-5.295102121308446">
        <ele>2275.5799999999999</ele>
        <time>2019-03-11T17:21:29Z</time>
      </trkpt>
      <trkpt lat="32.293262863531709" lon="-5.295140258967876">
        <ele>2274.1399999999999</ele>
        <time>2019-03-11T17:21:30Z</time>
      </trkpt>
      <trkpt lat="32.293187258765101" lon="-5.295137157663703">
        <ele>2273.1700000000001</ele>
        <time>2019-03-11T17:21:31Z</time>
      </trkpt>
      <trkpt lat="32.293104780837893" lon="-5.295097678899765">
        <ele>2271.73</ele>
        <time>2019-03-11T17:21:32Z</time>
      </trkpt>
      <trkpt lat="32.293015429750085" lon="-5.295024672523141">
        <ele>2270.29</ele>
        <time>2019-03-11T17:21:33Z</time>
      </trkpt>
      <trkpt lat="32.292926665395498" lon="-5.294921826571226">
        <ele>2269.3299999999999</ele>
        <time>2019-03-11T17:21:34Z</time>
      </trkpt>
      <trkpt lat="32.292843265458941" lon="-5.294805318117142">
        <ele>2268.3699999999999</ele>
        <time>2019-03-11T17:21:35Z</time>
      </trkpt>
      <trkpt lat="32.292772103101015" lon="-5.294690234586597">
        <ele>2267.8899999999999</ele>
        <time>2019-03-11T17:21:36Z</time>
      </trkpt>
      <trkpt lat="32.292710328474641" lon="-5.294588729739189">
        <ele>2266.9299999999998</ele>
        <time>2019-03-11T17:21:37Z</time>
      </trkpt>
      <trkpt lat="32.292646709829569" lon="-5.294512873515487">
        <ele>2265.48</ele>
        <time>2019-03-11T17:21:38Z</time>
      </trkpt>
      <trkpt lat="32.292569428682327" lon="-5.294471802189946">
        <ele>2264.52</ele>
        <time>2019-03-11T17:21:39Z</time>
      </trkpt>
      <trkpt lat="32.292481502518058" lon="-5.294476579874754">
        <ele>2263.5599999999999</ele>
        <time>2019-03-11T17:21:40Z</time>
      </trkpt>
      <trkpt lat="32.292392151430249" lon="-5.294528296217322">
        <ele>2262.5999999999999</ele>
        <time>2019-03-11T17:21:41Z</time>
      </trkpt>
      <trkpt lat="32.292298441752791" lon="-5.294603481888771">
        <ele>2261.6399999999999</ele>
        <time>2019-03-11T17:21:42Z</time>
      </trkpt>
      <trkpt lat="32.292186794802547" lon="-5.29466693289578">
        <ele>2260.1999999999998</ele>
        <time>2019-03-11T17:21:43Z</time>
      </trkpt>
      <trkpt lat="32.292054193094373" lon="-5.294709345325828">
        <ele>2260.6799999999998</ele>
        <time>2019-03-11T17:21:44Z</time>
      </trkpt>
      <trkpt lat="32.291910778731108" lon="-5.294742118567228">
        <ele>2260.6799999999998</ele>
        <time>2019-03-11T17:21:48Z</time>
      </trkpt>
      <trkpt lat="32.291360506787896" lon="-5.294899446889758">
        <ele>2260.6799999999998</ele>
        <time>2019-03-11T17:21:49Z</time>
      </trkpt>
      <trkpt lat="32.291228491812944" lon="-5.294912438839674">
        <ele>2260.6799999999998</ele>
        <time>2019-03-11T17:21:50Z</time>
      </trkpt>
      <trkpt lat="32.291096141561866" lon="-5.294911349192262">
        <ele>2260.6799999999998</ele>
        <time>2019-03-11T17:21:51Z</time>
      </trkpt>
      <trkpt lat="32.290981141850352" lon="-5.294885030016303">
        <ele>2261.1599999999999</ele>
        <time>2019-03-11T17:21:52Z</time>
      </trkpt>
      <trkpt lat="32.290873266756535" lon="-5.294861476868391">
        <ele>2261.1599999999999</ele>
        <time>2019-03-11T17:21:53Z</time>
      </trkpt>
      <trkpt lat="32.29076161980629" lon="-5.294863153249025">
        <ele>2261.6399999999999</ele>
        <time>2019-03-11T17:21:54Z</time>
      </trkpt>
      <trkpt lat="32.290647625923157" lon="-5.294886454939842">
        <ele>2262.1199999999999</ele>
        <time>2019-03-11T17:21:55Z</time>
      </trkpt>
      <trkpt lat="32.290532039478421" lon="-5.294930962845683">
        <ele>2262.5999999999999</ele>
        <time>2019-03-11T17:21:56Z</time>
      </trkpt>
      <trkpt lat="32.290419302880764" lon="-5.294990390539169">
        <ele>2263.0799999999999</ele>
        <time>2019-03-11T17:21:57Z</time>
      </trkpt>
      <trkpt lat="32.290314277634025" lon="-5.295068426057696">
        <ele>2263.5599999999999</ele>
        <time>2019-03-11T17:21:58Z</time>
      </trkpt>
      <trkpt lat="32.290218807756901" lon="-5.295163309201598">
        <ele>2264.52</ele>
        <time>2019-03-11T17:21:59Z</time>
      </trkpt>
      <trkpt lat="32.290128618478775" lon="-5.295261712744832">
        <ele>2264.52</ele>
        <time>2019-03-11T17:22:00Z</time>
      </trkpt>
      <trkpt lat="32.290031891316175" lon="-5.295354751870036">
        <ele>2264.52</ele>
        <time>2019-03-11T17:22:01Z</time>
      </trkpt>
      <trkpt lat="32.289924016222358" lon="-5.295432535931468">
        <ele>2264.52</ele>
        <time>2019-03-11T17:22:02Z</time>
      </trkpt>
      <trkpt lat="32.28980490937829" lon="-5.295481318607926">
        <ele>2264.52</ele>
        <time>2019-03-11T17:22:03Z</time>
      </trkpt>
      <trkpt lat="32.28967884555459" lon="-5.295501183718443">
        <ele>2265</ele>
        <time>2019-03-11T17:22:04Z</time>
      </trkpt>
      <trkpt lat="32.289553955197334" lon="-5.295504201203585">
        <ele>2265.48</ele>
        <time>2019-03-11T17:22:05Z</time>
      </trkpt>
      <trkpt lat="32.289430322125554" lon="-5.295496908947825">
        <ele>2266.4499999999998</ele>
        <time>2019-03-11T17:22:09Z</time>
      </trkpt>
      <trkpt lat="32.288964036852121" lon="-5.29545365832746">
        <ele>2267.4099999999999</ele>
        <time>2019-03-11T17:22:10Z</time>
      </trkpt>
      <trkpt lat="32.288847109302878" lon="-5.29546975158155">
        <ele>2267.8899999999999</ele>
        <time>2019-03-11T17:22:11Z</time>
      </trkpt>
      <trkpt lat="32.288731019943953" lon="-5.295506045222282">
        <ele>2268.8499999999999</ele>
        <time>2019-03-11T17:22:12Z</time>
      </trkpt>
      <trkpt lat="32.288619456812739" lon="-5.295559018850327">
        <ele>2269.3299999999999</ele>
        <time>2019-03-11T17:22:13Z</time>
      </trkpt>
      <trkpt lat="32.288515688851476" lon="-5.295619200915098">
        <ele>2270.29</ele>
        <time>2019-03-11T17:22:14Z</time>
      </trkpt>
      <trkpt lat="32.288418291136622" lon="-5.295675108209252">
        <ele>2270.29</ele>
        <time>2019-03-11T17:22:15Z</time>
      </trkpt>
      <trkpt lat="32.288322821259499" lon="-5.295708384364843">
        <ele>2270.77</ele>
        <time>2019-03-11T17:22:16Z</time>
      </trkpt>
      <trkpt lat="32.288229363039136" lon="-5.295711485669017">
        <ele>2270.77</ele>
        <time>2019-03-11T17:22:17Z</time>
      </trkpt>
      <trkpt lat="32.288142023608088" lon="-5.295680304989219">
        <ele>2271.25</ele>
        <time>2019-03-11T17:22:18Z</time>
      </trkpt>
      <trkpt lat="32.288066335022449" lon="-5.295615512877703">
        <ele>2271.73</ele>
        <time>2019-03-11T17:22:19Z</time>
      </trkpt>
      <trkpt lat="32.288001459091902" lon="-5.295529766008258">
        <ele>2272.21</ele>
        <time>2019-03-11T17:22:20Z</time>
      </trkpt>
      <trkpt lat="32.287937672808766" lon="-5.295441504567862">
        <ele>2272.21</ele>
        <time>2019-03-11T17:22:21Z</time>
      </trkpt>
      <trkpt lat="32.287868354469538" lon="-5.295357434079051">
        <ele>2272.6900000000001</ele>
        <time>2019-03-11T17:22:22Z</time>
      </trkpt>
      <trkpt lat="32.287788055837154" lon="-5.295285601168871">
        <ele>2272.6900000000001</ele>
        <time>2019-03-11T17:22:23Z</time>
      </trkpt>
      <trkpt lat="32.287695100530982" lon="-5.295222233980894">
        <ele>2272.6900000000001</ele>
        <time>2019-03-11T17:22:24Z</time>
      </trkpt>
      <trkpt lat="32.287591584026814" lon="-5.295168505981565">
        <ele>2272.21</ele>
        <time>2019-03-11T17:22:25Z</time>
      </trkpt>
      <trkpt lat="32.287482870742679" lon="-5.295122656971216">
        <ele>2272.21</ele>
        <time>2019-03-11T17:22:26Z</time>
      </trkpt>
      <trkpt lat="32.287372229620814" lon="-5.295089296996594">
        <ele>2272.6900000000001</ele>
        <time>2019-03-11T17:22:29Z</time>
      </trkpt>
      <trkpt lat="32.287088502198458" lon="-5.295000616461039">
        <ele>2272.6900000000001</ele>
        <time>2019-03-11T17:22:30Z</time>
      </trkpt>
      <trkpt lat="32.287015663459897" lon="-5.294952923431993">
        <ele>2272.6900000000001</ele>
        <time>2019-03-11T17:22:31Z</time>
      </trkpt>
      <trkpt lat="32.286959253251553" lon="-5.294879833236337">
        <ele>2273.1700000000001</ele>
        <time>2019-03-11T17:22:32Z</time>
      </trkpt>
      <trkpt lat="32.286918601021171" lon="-5.294789643958211">
        <ele>2273.6599999999999</ele>
        <time>2019-03-11T17:22:33Z</time>
      </trkpt>
      <trkpt lat="32.286883564665914" lon="-5.294691240414977">
        <ele>2273.6599999999999</ele>
        <time>2019-03-11T17:22:34Z</time>
      </trkpt>
      <trkpt lat="32.286841655150056" lon="-5.294595351442695">
        <ele>2274.1399999999999</ele>
        <time>2019-03-11T17:22:35Z</time>
      </trkpt>
      <trkpt lat="32.286790609359741" lon="-5.294507006183267">
        <ele>2274.1399999999999</ele>
        <time>2019-03-11T17:22:36Z</time>
      </trkpt>
      <trkpt lat="32.286727828904986" lon="-5.294430898502469">
        <ele>2274.6199999999999</ele>
        <time>2019-03-11T17:22:37Z</time>
      </trkpt>
      <trkpt lat="32.286659684032202" lon="-5.294367279857397">
        <ele>2274.6199999999999</ele>
        <time>2019-03-11T17:22:38Z</time>
      </trkpt>
      <trkpt lat="32.286590281873941" lon="-5.29432293958962">
        <ele>2275.0999999999999</ele>
        <time>2019-03-11T17:22:39Z</time>
      </trkpt>
      <trkpt lat="32.286516353487968" lon="-5.294297793880105">
        <ele>2275.0999999999999</ele>
        <time>2019-03-11T17:22:40Z</time>
      </trkpt>
      <trkpt lat="32.286445358768106" lon="-5.294291591271758">
        <ele>2275.5799999999999</ele>
        <time>2019-03-11T17:22:41Z</time>
      </trkpt>
      <trkpt lat="32.286378890275955" lon="-5.294304415583611">
        <ele>2276.0599999999999</ele>
        <time>2019-03-11T17:22:42Z</time>
      </trkpt>
      <trkpt lat="32.286318792030215" lon="-5.294341547414661">
        <ele>2276.54</ele>
        <time>2019-03-11T17:22:43Z</time>
      </trkpt>
      <trkpt lat="32.28627260774374" lon="-5.294405501335859">
        <ele>2277.02</ele>
        <time>2019-03-11T17:22:44Z</time>
      </trkpt>
      <trkpt lat="32.286241175606847" lon="-5.294487476348877">
        <ele>2277.5</ele>
        <time>2019-03-11T17:22:45Z</time>
      </trkpt>
      <trkpt lat="32.286220723763108" lon="-5.294581269845367">
        <ele>2278.46</ele>
        <time>2019-03-11T17:22:46Z</time>
      </trkpt>
      <trkpt lat="32.286210246384144" lon="-5.294679841026664">
        <ele>2278.9400000000001</ele>
        <time>2019-03-11T17:22:47Z</time>
      </trkpt>
      <trkpt lat="32.286213263869286" lon="-5.294781010597944">
        <ele>2286.6300000000001</ele>
        <time>2019-03-11T17:22:48Z</time>
      </trkpt>
      <trkpt lat="32.286230530589819" lon="-5.29488586820662">
        <ele>2288.0799999999999</ele>
        <time>2019-03-11T17:22:49Z</time>
      </trkpt>
      <trkpt lat="32.286257185041904" lon="-5.294992234557867">
        <ele>2288.5599999999999</ele>
        <time>2019-03-11T17:22:56Z</time>
      </trkpt>
      <trkpt lat="32.28651249781251" lon="-5.295804524794221">
        <ele>2289.04</ele>
        <time>2019-03-11T17:22:57Z</time>
      </trkpt>
      <trkpt lat="32.286533201113343" lon="-5.295932097360492">
        <ele>2289.52</ele>
        <time>2019-03-11T17:22:58Z</time>
      </trkpt>
      <trkpt lat="32.286537308245897" lon="-5.296061681583524">
        <ele>2289.52</ele>
        <time>2019-03-11T17:22:59Z</time>
      </trkpt>
      <trkpt lat="32.286526160314679" lon="-5.296187745407224">
        <ele>2289.52</ele>
        <time>2019-03-11T17:23:00Z</time>
      </trkpt>
      <trkpt lat="32.286496739834547" lon="-5.296300984919071">
        <ele>2290</ele>
        <time>2019-03-11T17:23:01Z</time>
      </trkpt>
      <trkpt lat="32.286451393738389" lon="-5.296407686546445">
        <ele>2290.48</ele>
        <time>2019-03-11T17:23:02Z</time>
      </trkpt>
      <trkpt lat="32.286389535292983" lon="-5.296504748985171">
        <ele>2290.96</ele>
        <time>2019-03-11T17:23:03Z</time>
      </trkpt>
      <trkpt lat="32.286316780373454" lon="-5.29658772982657">
        <ele>2291.9200000000001</ele>
        <time>2019-03-11T17:23:04Z</time>
      </trkpt>
      <trkpt lat="32.286253580823541" lon="-5.296662328764796">
        <ele>2292.8800000000001</ele>
        <time>2019-03-11T17:23:05Z</time>
      </trkpt>
      <trkpt lat="32.286211168393493" lon="-5.296737095341086">
        <ele>2293.8400000000001</ele>
        <time>2019-03-11T17:23:06Z</time>
      </trkpt>
      <trkpt lat="32.286189626902342" lon="-5.296815633773804">
        <ele>2294.8000000000002</ele>
        <time>2019-03-11T17:23:07Z</time>
      </trkpt>
      <trkpt lat="32.286192225292325" lon="-5.296898698434234">
        <ele>2295.77</ele>
        <time>2019-03-11T17:23:08Z</time>
      </trkpt>
      <trkpt lat="32.286224160343409" lon="-5.296980505809188">
        <ele>2296.73</ele>
        <time>2019-03-11T17:23:09Z</time>
      </trkpt>
      <trkpt lat="32.28628140874207" lon="-5.297050997614861">
        <ele>2298.1700000000001</ele>
        <time>2019-03-11T17:23:10Z</time>
      </trkpt>
      <trkpt lat="32.286358857527375" lon="-5.297098606824875">
        <ele>2299.6100000000001</ele>
        <time>2019-03-11T17:23:11Z</time>
      </trkpt>
      <trkpt lat="32.286447873339057" lon="-5.297128530219197">
        <ele>2301.0500000000002</ele>
        <time>2019-03-11T17:23:12Z</time>
      </trkpt>
      <trkpt lat="32.286538816988468" lon="-5.297158705070615">
        <ele>2302.4899999999998</ele>
        <time>2019-03-11T17:23:13Z</time>
      </trkpt>
      <trkpt lat="32.28662297129631" lon="-5.297207152470946">
        <ele>2304.4200000000001</ele>
        <time>2019-03-11T17:23:14Z</time>
      </trkpt>
      <trkpt lat="32.286693211644888" lon="-5.297281667590141">
        <ele>2306.3400000000001</ele>
        <time>2019-03-11T17:23:15Z</time>
      </trkpt>
      <trkpt lat="32.286748783662915" lon="-5.297380993142724">
        <ele>2308.2600000000002</ele>
        <time>2019-03-11T17:23:16Z</time>
      </trkpt>
      <trkpt lat="32.2867910284549" lon="-5.297497501596808">
        <ele>2310.1900000000001</ele>
        <time>2019-03-11T17:23:17Z</time>
      </trkpt>
      <trkpt lat="32.286821873858571" lon="-5.29762708581984">
        <ele>2312.1100000000001</ele>
        <time>2019-03-11T17:23:18Z</time>
      </trkpt>
      <trkpt lat="32.28683746419847" lon="-5.29776144772768">
        <ele>2313.5500000000002</ele>
        <time>2019-03-11T17:23:19Z</time>
      </trkpt>
      <trkpt lat="32.286835620179772" lon="-5.297892205417156">
        <ele>2315.4699999999998</ele>
        <time>2019-03-11T17:23:20Z</time>
      </trkpt>
      <trkpt lat="32.28681500069797" lon="-5.29801550321281">
        <ele>2316.9099999999999</ele>
        <time>2019-03-11T17:23:21Z</time>
      </trkpt>
      <trkpt lat="32.286771917715669" lon="-5.298125809058547">
        <ele>2318.3600000000001</ele>
        <time>2019-03-11T17:23:22Z</time>
      </trkpt>
      <trkpt lat="32.286710981279612" lon="-5.298225302249193">
        <ele>2321.2399999999998</ele>
        <time>2019-03-11T17:23:23Z</time>
      </trkpt>
      <trkpt lat="32.286640657112002" lon="-5.298310210928321">
        <ele>2322.6799999999998</ele>
        <time>2019-03-11T17:23:24Z</time>
      </trkpt>
      <trkpt lat="32.28657653555274" lon="-5.298380367457867">
        <ele>2324.1199999999999</ele>
        <time>2019-03-11T17:23:26Z</time>
      </trkpt>
      <trkpt lat="32.286486513912678" lon="-5.298493104055524">
        <ele>2325.0900000000001</ele>
        <time>2019-03-11T17:23:27Z</time>
      </trkpt>
      <trkpt lat="32.286473102867603" lon="-5.298553872853518">
        <ele>2326.0500000000002</ele>
        <time>2019-03-11T17:23:28Z</time>
      </trkpt>
      <trkpt lat="32.286483244970441" lon="-5.29861313290894">
        <ele>2327.0100000000002</ele>
        <time>2019-03-11T17:23:29Z</time>
      </trkpt>
      <trkpt lat="32.286510234698653" lon="-5.29866736382246">
        <ele>2327.9699999999998</ele>
        <time>2019-03-11T17:23:30Z</time>
      </trkpt>
      <trkpt lat="32.286546444520354" lon="-5.298714470118284">
        <ele>2334.2199999999998</ele>
        <time>2019-03-11T17:23:31Z</time>
      </trkpt>
      <trkpt lat="32.286589862778783" lon="-5.298758894205093">
        <ele>2335.6599999999999</ele>
        <time>2019-03-11T17:23:32Z</time>
      </trkpt>
      <trkpt lat="32.286640405654907" lon="-5.298801977187395">
        <ele>2337.0999999999999</ele>
        <time>2019-03-11T17:23:39Z</time>
      </trkpt>
      <trkpt lat="32.28716192767024" lon="-5.299173044040799">
        <ele>2338.54</ele>
        <time>2019-03-11T17:23:40Z</time>
      </trkpt>
      <trkpt lat="32.287225797772408" lon="-5.299237919971347">
        <ele>2339.9899999999998</ele>
        <time>2019-03-11T17:23:41Z</time>
      </trkpt>
      <trkpt lat="32.287268042564392" lon="-5.29932115226984">
        <ele>2341.4299999999998</ele>
        <time>2019-03-11T17:23:42Z</time>
      </trkpt>
      <trkpt lat="32.287280363962054" lon="-5.299416119232774">
        <ele>2342.3899999999999</ele>
        <time>2019-03-11T17:23:43Z</time>
      </trkpt>
      <trkpt lat="32.287268545478582" lon="-5.299513349309564">
        <ele>2343.3499999999999</ele>
        <time>2019-03-11T17:23:44Z</time>
      </trkpt>
      <trkpt lat="32.287239879369736" lon="-5.299608232453466">
        <ele>2347.1999999999998</ele>
        <time>2019-03-11T17:23:45Z</time>
      </trkpt>
      <trkpt lat="32.287194365635514" lon="-5.299703534692526">
        <ele>2348.1599999999999</ele>
        <time>2019-03-11T17:23:46Z</time>
      </trkpt>
      <trkpt lat="32.287138039246202" lon="-5.299801183864474">
        <ele>2367.3800000000001</ele>
        <time>2019-03-11T17:23:49Z</time>
      </trkpt>
      <trkpt lat="32.286975346505642" lon="-5.300139142200351">
        <ele>2368.8299999999999</ele>
        <time>2019-03-11T17:23:50Z</time>
      </trkpt>
      <trkpt lat="32.286931928247213" lon="-5.30027006752789">
        <ele>2370.27</ele>
        <time>2019-03-11T17:24:01Z</time>
      </trkpt>
      <trkpt lat="32.286533704027534" lon="-5.30176573432982">
        <ele>2371.71</ele>
        <time>2019-03-11T17:24:02Z</time>
      </trkpt>
      <trkpt lat="32.286475952714682" lon="-5.301867825910449">
        <ele>2373.1500000000001</ele>
        <time>2019-03-11T17:24:03Z</time>
      </trkpt>
      <trkpt lat="32.286400180310011" lon="-5.301957512274385">
        <ele>2378.9200000000001</ele>
        <time>2019-03-11T17:24:04Z</time>
      </trkpt>
      <trkpt lat="32.286308566108346" lon="-5.302035799250007">
        <ele>2379.8800000000001</ele>
        <time>2019-03-11T17:24:05Z</time>
      </trkpt>
      <trkpt lat="32.286207815632224" lon="-5.302107967436314">
        <ele>2380.8400000000001</ele>
        <time>2019-03-11T17:24:10Z</time>
      </trkpt>
      <trkpt lat="32.285745134577155" lon="-5.302403010427952">
        <ele>2382.2800000000002</ele>
        <time>2019-03-11T17:24:11Z</time>
      </trkpt>
      <trkpt lat="32.285680593922734" lon="-5.302483476698399">
        <ele>2383.73</ele>
        <time>2019-03-11T17:24:12Z</time>
      </trkpt>
      <trkpt lat="32.285636169835925" lon="-5.30257685109973">
        <ele>2385.1700000000001</ele>
        <time>2019-03-11T17:24:13Z</time>
      </trkpt>
      <trkpt lat="32.285608593374491" lon="-5.302682798355818">
        <ele>2392.8600000000001</ele>
        <time>2019-03-11T17:24:14Z</time>
      </trkpt>
      <trkpt lat="32.285591242834926" lon="-5.302793690934777">
        <ele>2394.7800000000002</ele>
        <time>2019-03-11T17:24:15Z</time>
      </trkpt>
      <trkpt lat="32.285576071590185" lon="-5.302900895476341">
        <ele>2395.2600000000002</ele>
        <time>2019-03-11T17:24:23Z</time>
      </trkpt>
      <trkpt lat="32.28548688814044" lon="-5.303402720019221">
        <ele>2395.7399999999998</ele>
        <time>2019-03-11T17:24:27Z</time>
      </trkpt>
      <trkpt lat="32.28546735830605" lon="-5.303553678095341">
        <ele>2395.7399999999998</ele>
        <time>2019-03-11T17:24:28Z</time>
      </trkpt>
      <trkpt lat="32.285474818199873" lon="-5.303609166294336">
        <ele>2396.2199999999998</ele>
        <time>2019-03-11T17:24:29Z</time>
      </trkpt>
      <trkpt lat="32.285500466823578" lon="-5.30366163700819">
        <ele>2396.6999999999998</ele>
        <time>2019-03-11T17:24:30Z</time>
      </trkpt>
      <trkpt lat="32.28554354980588" lon="-5.303701451048255">
        <ele>2397.1799999999998</ele>
        <time>2019-03-11T17:24:31Z</time>
      </trkpt>
      <trkpt lat="32.285604402422905" lon="-5.303724417462945">
        <ele>2397.1799999999998</ele>
        <time>2019-03-11T17:24:32Z</time>
      </trkpt>
      <trkpt lat="32.28566718287766" lon="-5.303737660869956">
        <ele>2397.6700000000001</ele>
        <time>2019-03-11T17:24:33Z</time>
      </trkpt>
      <trkpt lat="32.285732226446271" lon="-5.303748641163111">
        <ele>2398.1500000000001</ele>
        <time>2019-03-11T17:24:34Z</time>
      </trkpt>
      <trkpt lat="32.285795342177153" lon="-5.3037681709975">
        <ele>2398.6300000000001</ele>
        <time>2019-03-11T17:24:35Z</time>
      </trkpt>
      <trkpt lat="32.285849153995514" lon="-5.303804464638233">
        <ele>2399.1100000000001</ele>
        <time>2019-03-11T17:24:36Z</time>
      </trkpt>
      <trkpt lat="32.28589198552072" lon="-5.303854336962104">
        <ele>2399.5900000000001</ele>
        <time>2019-03-11T17:24:37Z</time>
      </trkpt>
      <trkpt lat="32.285922830924392" lon="-5.303922481834889">
        <ele>2399.5900000000001</ele>
        <time>2019-03-11T17:24:38Z</time>
      </trkpt>
      <trkpt lat="32.285940097644925" lon="-5.304007893428206">
        <ele>2400.0700000000002</ele>
        <time>2019-03-11T17:24:39Z</time>
      </trkpt>
      <trkpt lat="32.285943869501352" lon="-5.304107218980789">
        <ele>2400.5500000000002</ele>
        <time>2019-03-11T17:24:40Z</time>
      </trkpt>
      <trkpt lat="32.285940768197179" lon="-5.304218446835876">
        <ele>2401.0300000000002</ele>
        <time>2019-03-11T17:24:42Z</time>
      </trkpt>
      <trkpt lat="32.285916041582823" lon="-5.304444171488285">
        <ele>2401.5100000000002</ele>
        <time>2019-03-11T17:24:43Z</time>
      </trkpt>
      <trkpt lat="32.285885699093342" lon="-5.304552130401135">
        <ele>2401.9899999999998</ele>
        <time>2019-03-11T17:24:44Z</time>
      </trkpt>
      <trkpt lat="32.285846387967467" lon="-5.304656233638525">
        <ele>2402.9499999999998</ele>
        <time>2019-03-11T17:24:45Z</time>
      </trkpt>
      <trkpt lat="32.285791570320725" lon="-5.304754888638854">
        <ele>2403.9099999999999</ele>
        <time>2019-03-11T17:24:46Z</time>
      </trkpt>
      <trkpt lat="32.285717474296689" lon="-5.304842311888933">
        <ele>2404.8800000000001</ele>
        <time>2019-03-11T17:24:47Z</time>
      </trkpt>
      <trkpt lat="32.285623094066978" lon="-5.304918838664889">
        <ele>2407.7600000000002</ele>
        <time>2019-03-11T17:24:48Z</time>
      </trkpt>
      <trkpt lat="32.285513794049621" lon="-5.304988911375403">
        <ele>2408.2399999999998</ele>
        <time>2019-03-11T17:24:49Z</time>
      </trkpt>
      <trkpt lat="32.285401476547122" lon="-5.305050769820809">
        <ele>2408.2399999999998</ele>
        <time>2019-03-11T17:24:54Z</time>
      </trkpt>
      <trkpt lat="32.284937705844641" lon="-5.305364252999425">
        <ele>2408.2399999999998</ele>
        <time>2019-03-11T17:24:55Z</time>
      </trkpt>
      <trkpt lat="32.284876350313425" lon="-5.305431140586734">
        <ele>2408.7199999999998</ele>
        <time>2019-03-11T17:24:56Z</time>
      </trkpt>
      <trkpt lat="32.284840559586883" lon="-5.30550129711628">
        <ele>2408.7199999999998</ele>
        <time>2019-03-11T17:24:57Z</time>
      </trkpt>
      <trkpt lat="32.284831255674362" lon="-5.305575225502253">
        <ele>2408.7199999999998</ele>
        <time>2019-03-11T17:24:58Z</time>
      </trkpt>
      <trkpt lat="32.284848354756832" lon="-5.305646639317274">
        <ele>2408.7199999999998</ele>
        <time>2019-03-11T17:24:59Z</time>
      </trkpt>
      <trkpt lat="32.28488833643496" lon="-5.305709922686219">
        <ele>2408.7199999999998</ele>
        <time>2019-03-11T17:25:00Z</time>
      </trkpt>
      <trkpt lat="32.284945920109749" lon="-5.305759543552995">
        <ele>2409.1999999999998</ele>
        <time>2019-03-11T17:25:01Z</time>
      </trkpt>
      <trkpt lat="32.285011718049645" lon="-5.305800195783377">
        <ele>2415.9299999999998</ele>
        <time>2019-03-11T17:25:02Z</time>
      </trkpt>
      <trkpt lat="32.285080868750811" lon="-5.305835818871856">
        <ele>2416.4099999999999</ele>
        <time>2019-03-11T17:25:03Z</time>
      </trkpt>
      <trkpt lat="32.285152785480022" lon="-5.30586825683713">
        <ele>2416.8899999999999</ele>
        <time>2019-03-11T17:25:13Z</time>
      </trkpt>
      <trkpt lat="32.285980079323053" lon="-5.30624988488853">
        <ele>2417.8499999999999</ele>
        <time>2019-03-11T17:25:14Z</time>
      </trkpt>
      <trkpt lat="32.286047805100679" lon="-5.306311827152968">
        <ele>2418.3299999999999</ele>
        <time>2019-03-11T17:25:15Z</time>
      </trkpt>
      <trkpt lat="32.286096001043916" lon="-5.306392209604383">
        <ele>2418.8099999999999</ele>
        <time>2019-03-11T17:25:16Z</time>
      </trkpt>
      <trkpt lat="32.286125337705016" lon="-5.306485248729587">
        <ele>2420.2600000000002</ele>
        <time>2019-03-11T17:25:17Z</time>
      </trkpt>
      <trkpt lat="32.28614017367363" lon="-5.306588597595692">
        <ele>2420.7399999999998</ele>
        <time>2019-03-11T17:25:18Z</time>
      </trkpt>
      <trkpt lat="32.286147465929389" lon="-5.306699322536588">
        <ele>2420.7399999999998</ele>
        <time>2019-03-11T17:25:22Z</time>
      </trkpt>
      <trkpt lat="32.286194320768118" lon="-5.307156136259437">
        <ele>2420.7399999999998</ele>
        <time>2019-03-11T17:25:23Z</time>
      </trkpt>
      <trkpt lat="32.286231201142073" lon="-5.307248253375292">
        <ele>2420.2600000000002</ele>
        <time>2019-03-11T17:25:24Z</time>
      </trkpt>
      <trkpt lat="32.286281073465943" lon="-5.307325702160597">
        <ele>2420.2600000000002</ele>
        <time>2019-03-11T17:25:25Z</time>
      </trkpt>
      <trkpt lat="32.28634150698781" lon="-5.307378256693482">
        <ele>2420.2600000000002</ele>
        <time>2019-03-11T17:25:26Z</time>
      </trkpt>
      <trkpt lat="32.286413088440895" lon="-5.307396529242396">
        <ele>2420.2600000000002</ele>
        <time>2019-03-11T17:25:27Z</time>
      </trkpt>
      <trkpt lat="32.286490369588137" lon="-5.307379765436053">
        <ele>2420.2600000000002</ele>
        <time>2019-03-11T17:25:28Z</time>
      </trkpt>
      <trkpt lat="32.286573266610503" lon="-5.307342549785972">
        <ele>2420.2600000000002</ele>
        <time>2019-03-11T17:25:29Z</time>
      </trkpt>
      <trkpt lat="32.286661360412836" lon="-5.307299047708511">
        <ele>2420.2600000000002</ele>
        <time>2019-03-11T17:25:33Z</time>
      </trkpt>
      <trkpt lat="32.287082970142365" lon="-5.307138366624713">
        <ele>2419.7800000000002</ele>
        <time>2019-03-11T17:25:34Z</time>
      </trkpt>
      <trkpt lat="32.287189420312643" lon="-5.307136187329888">
        <ele>2418.8099999999999</ele>
        <time>2019-03-11T17:25:35Z</time>
      </trkpt>
      <trkpt lat="32.287288494408131" lon="-5.307167954742909">
        <ele>2418.3299999999999</ele>
        <time>2019-03-11T17:25:36Z</time>
      </trkpt>
      <trkpt lat="32.287363847717643" lon="-5.307237692177296">
        <ele>2417.3699999999999</ele>
        <time>2019-03-11T17:25:37Z</time>
      </trkpt>
      <trkpt lat="32.287413636222482" lon="-5.307342549785972">
        <ele>2416.8899999999999</ele>
        <time>2019-03-11T17:25:38Z</time>
      </trkpt>
      <trkpt lat="32.287441799417138" lon="-5.307472720742226">
        <ele>2416.8899999999999</ele>
        <time>2019-03-11T17:25:39Z</time>
      </trkpt>
      <trkpt lat="32.287454288452864" lon="-5.307625103741884">
        <ele>2410.6399999999999</ele>
        <time>2019-03-11T17:25:40Z</time>
      </trkpt>
      <trkpt lat="32.287457138299942" lon="-5.307789891958237">
        <ele>2408.7199999999998</ele>
        <time>2019-03-11T17:25:41Z</time>
      </trkpt>
      <trkpt lat="32.287452947348356" lon="-5.307956775650382">
        <ele>2406.8000000000002</ele>
        <time>2019-03-11T17:25:48Z</time>
      </trkpt>
      <trkpt lat="32.287328476086259" lon="-5.309097468852997">
        <ele>2404.8800000000001</ele>
        <time>2019-03-11T17:25:49Z</time>
      </trkpt>
      <trkpt lat="32.287266785278916" lon="-5.309188412502408">
        <ele>2402.9499999999998</ele>
        <time>2019-03-11T17:25:50Z</time>
      </trkpt>
      <trkpt lat="32.287176763638854" lon="-5.30924909748137">
        <ele>2401.0300000000002</ele>
        <time>2019-03-11T17:25:51Z</time>
      </trkpt>
      <trkpt lat="32.287062685936689" lon="-5.309283882379532">
        <ele>2399.1100000000001</ele>
        <time>2019-03-11T17:25:52Z</time>
      </trkpt>
      <trkpt lat="32.286935951560736" lon="-5.309301484376192">
        <ele>2397.1799999999998</ele>
        <time>2019-03-11T17:25:53Z</time>
      </trkpt>
      <trkpt lat="32.286807121708989" lon="-5.309319589287043">
        <ele>2391.4200000000001</ele>
        <time>2019-03-11T17:25:54Z</time>
      </trkpt>
      <trkpt lat="32.286679800599813" lon="-5.3093546256423">
        <ele>2389.4899999999998</ele>
        <time>2019-03-11T17:25:55Z</time>
      </trkpt>
      <trkpt lat="32.286553233861923" lon="-5.3094132989645">
        <ele>2387.5700000000002</ele>
        <time>2019-03-11T17:25:58Z</time>
      </trkpt>
      <trkpt lat="32.286215191707015" lon="-5.309632318094373">
        <ele>2385.6500000000001</ele>
        <time>2019-03-11T17:25:59Z</time>
      </trkpt>
      <trkpt lat="32.286127852275968" lon="-5.309716304764152">
        <ele>2383.73</ele>
        <time>2019-03-11T17:26:00Z</time>
      </trkpt>
      <trkpt lat="32.286055348813534" lon="-5.3098173905164">
        <ele>2382.2800000000002</ele>
        <time>2019-03-11T17:26:01Z</time>
      </trkpt>
      <trkpt lat="32.285997932776809" lon="-5.3099365811795">
        <ele>2380.8400000000001</ele>
        <time>2019-03-11T17:26:02Z</time>
      </trkpt>
      <trkpt lat="32.285953257232904" lon="-5.310066919773817">
        <ele>2378.9200000000001</ele>
        <time>2019-03-11T17:26:03Z</time>
      </trkpt>
      <trkpt lat="32.285909419879317" lon="-5.310193654149771">
        <ele>2377.96</ele>
        <time>2019-03-11T17:26:04Z</time>
      </trkpt>
      <trkpt lat="32.285859296098351" lon="-5.310301361605525">
        <ele>2376.52</ele>
        <time>2019-03-11T17:26:05Z</time>
      </trkpt>
      <trkpt lat="32.285795258358121" lon="-5.310382163152099">
        <ele>2375.0700000000002</ele>
        <time>2019-03-11T17:26:06Z</time>
      </trkpt>
      <trkpt lat="32.285706829279661" lon="-5.310431029647589">
        <ele>2373.1500000000001</ele>
        <time>2019-03-11T17:26:07Z</time>
      </trkpt>
      <trkpt lat="32.285599876195192" lon="-5.310449134558439">
        <ele>2370.27</ele>
        <time>2019-03-11T17:26:08Z</time>
      </trkpt>
      <trkpt lat="32.28548345156014" lon="-5.310448044911027">
        <ele>2368.8299999999999</ele>
        <time>2019-03-11T17:26:09Z</time>
      </trkpt>
      <trkpt lat="32.285372139886022" lon="-5.310440920293331">
        <ele>2367.3800000000001</ele>
        <time>2019-03-11T17:26:11Z</time>
      </trkpt>
      <trkpt lat="32.285185307264328" lon="-5.3104442730546">
        <ele>2365.9400000000001</ele>
        <time>2019-03-11T17:26:12Z</time>
      </trkpt>
      <trkpt lat="32.285105679184198" lon="-5.310479141771793">
        <ele>2364.5</ele>
        <time>2019-03-11T17:26:13Z</time>
      </trkpt>
      <trkpt lat="32.285039126873016" lon="-5.3105513099581">
        <ele>2363.0599999999999</ele>
        <time>2019-03-11T17:26:14Z</time>
      </trkpt>
      <trkpt lat="32.284989925101399" lon="-5.310652982443571">
        <ele>2347.1999999999998</ele>
        <time>2019-03-11T17:26:15Z</time>
      </trkpt>
      <trkpt lat="32.284952038899064" lon="-5.310777956619859">
        <ele>2344.3099999999999</ele>
        <time>2019-03-11T17:26:16Z</time>
      </trkpt>
      <trkpt lat="32.284918846562505" lon="-5.310919946059585">
        <ele>2341.9099999999999</ele>
        <time>2019-03-11T17:26:23Z</time>
      </trkpt>
      <trkpt lat="32.284605447202921" lon="-5.312088131904602">
        <ele>2339.5100000000002</ele>
        <time>2019-03-11T17:26:24Z</time>
      </trkpt>
      <trkpt lat="32.284600082784891" lon="-5.312276557087898">
        <ele>2337.0999999999999</ele>
        <time>2019-03-11T17:26:25Z</time>
      </trkpt>
      <trkpt lat="32.284611901268363" lon="-5.312468418851495">
        <ele>2334.6999999999998</ele>
        <time>2019-03-11T17:26:26Z</time>
      </trkpt>
      <trkpt lat="32.284643417224288" lon="-5.312654161825776">
        <ele>2332.3000000000002</ele>
        <time>2019-03-11T17:26:27Z</time>
      </trkpt>
      <trkpt lat="32.28469236753881" lon="-5.312835378572345">
        <ele>2329.8899999999999</ele>
        <time>2019-03-11T17:26:28Z</time>
      </trkpt>
      <trkpt lat="32.284758249297738" lon="-5.313010811805725">
        <ele>2327.0100000000002</ele>
        <time>2019-03-11T17:26:29Z</time>
      </trkpt>
      <trkpt lat="32.284844079986215" lon="-5.313176605850458">
        <ele>2324.6100000000001</ele>
        <time>2019-03-11T17:26:30Z</time>
      </trkpt>
      <trkpt lat="32.284951284527779" lon="-5.313330916687846">
        <ele>2321.7199999999998</ele>
        <time>2019-03-11T17:26:31Z</time>
      </trkpt>
      <trkpt lat="32.285075504332781" lon="-5.313476426526904">
        <ele>2306.8200000000002</ele>
        <time>2019-03-11T17:26:32Z</time>
      </trkpt>
      <trkpt lat="32.285208608955145" lon="-5.313608022406697">
        <ele>2305.3800000000001</ele>
        <time>2019-03-11T17:26:33Z</time>
      </trkpt>
      <trkpt lat="32.285350766032934" lon="-5.313728386536241">
        <ele>2303.9400000000001</ele>
        <time>2019-03-11T17:26:40Z</time>
      </trkpt>
      <trkpt lat="32.286431193351746" lon="-5.314365746453404">
        <ele>2302.4899999999998</ele>
        <time>2019-03-11T17:26:41Z</time>
      </trkpt>
      <trkpt lat="32.286546695977449" lon="-5.314458282664418">
        <ele>2301.0500000000002</ele>
        <time>2019-03-11T17:26:42Z</time>
      </trkpt>
      <trkpt lat="32.286646859720349" lon="-5.314566157758236">
        <ele>2299.1300000000001</ele>
        <time>2019-03-11T17:26:43Z</time>
      </trkpt>
      <trkpt lat="32.286728918552399" lon="-5.314689874649048">
        <ele>2297.6900000000001</ele>
        <time>2019-03-11T17:26:44Z</time>
      </trkpt>
      <trkpt lat="32.286791866645217" lon="-5.314830522984266">
        <ele>2296.25</ele>
        <time>2019-03-11T17:26:45Z</time>
      </trkpt>
      <trkpt lat="32.286830507218838" lon="-5.314986761659384">
        <ele>2285.6700000000001</ele>
        <time>2019-03-11T17:26:46Z</time>
      </trkpt>
      <trkpt lat="32.286846013739705" lon="-5.315158674493432">
        <ele>2283.75</ele>
        <time>2019-03-11T17:26:47Z</time>
      </trkpt>
      <trkpt lat="32.286849869415164" lon="-5.315342573449016">
        <ele>2281.8299999999999</ele>
        <time>2019-03-11T17:26:53Z</time>
      </trkpt>
      <trkpt lat="32.28690292686224" lon="-5.316477483138442">
        <ele>2266.9299999999998</ele>
        <time>2019-03-11T17:26:54Z</time>
      </trkpt>
      <trkpt lat="32.286951625719666" lon="-5.316644115373492">
        <ele>2265.48</ele>
        <time>2019-03-11T17:26:55Z</time>
      </trkpt>
      <trkpt lat="32.287023290991783" lon="-5.316812507808209">
        <ele>2252.5100000000002</ele>
        <time>2019-03-11T17:27:03Z</time>
      </trkpt>
      <trkpt lat="32.287524696439505" lon="-5.318226534873247">
        <ele>2251.0599999999999</ele>
        <time>2019-03-11T17:27:04Z</time>
      </trkpt>
      <trkpt lat="32.287547327578068" lon="-5.318424012511969">
        <ele>2238.0900000000001</ele>
        <time>2019-03-11T17:27:10Z</time>
      </trkpt>
      <trkpt lat="32.287620585411787" lon="-5.319705856963992">
        <ele>2227.5100000000002</ele>
        <time>2019-03-11T17:27:11Z</time>
      </trkpt>
      <trkpt lat="32.287598876282573" lon="-5.319924456998706">
        <ele>2221.7399999999998</ele>
        <time>2019-03-11T17:27:20Z</time>
      </trkpt>
      <trkpt lat="32.287163101136684" lon="-5.321836117655039">
        <ele>2215.5</ele>
        <time>2019-03-11T17:27:28Z</time>
      </trkpt>
      <trkpt lat="32.286686925217509" lon="-5.323137072846293">
        <ele>2213.5700000000002</ele>
        <time>2019-03-11T17:27:36Z</time>
      </trkpt>
      <trkpt lat="32.286317953839898" lon="-5.32404231838882">
        <ele>2213.0900000000001</ele>
        <time>2019-03-11T17:27:43Z</time>
      </trkpt>
      <trkpt lat="32.285927189514041" lon="-5.325198015198112">
        <ele>2212.1300000000001</ele>
        <time>2019-03-11T17:27:46Z</time>
      </trkpt>
      <trkpt lat="32.285768017172813" lon="-5.325649213045836">
        <ele>2212.1300000000001</ele>
        <time>2019-03-11T17:27:47Z</time>
      </trkpt>
      <trkpt lat="32.285697190091014" lon="-5.325774103403091">
        <ele>2212.1300000000001</ele>
        <time>2019-03-11T17:27:51Z</time>
      </trkpt>
      <trkpt lat="32.285399716347456" lon="-5.326274000108242">
        <ele>2211.1700000000001</ele>
        <time>2019-03-11T17:27:52Z</time>
      </trkpt>
      <trkpt lat="32.285345233976841" lon="-5.3264195099473">
        <ele>2210.21</ele>
        <time>2019-03-11T17:27:53Z</time>
      </trkpt>
      <trkpt lat="32.285298462957144" lon="-5.326582370325923">
        <ele>2210.21</ele>
        <time>2019-03-11T17:28:00Z</time>
      </trkpt>
      <trkpt lat="32.285089837387204" lon="-5.327940071001649">
        <ele>2210.21</ele>
        <time>2019-03-11T17:28:04Z</time>
      </trkpt>
      <trkpt lat="32.285105846822262" lon="-5.328516243025661">
        <ele>2210.21</ele>
        <time>2019-03-11T17:28:05Z</time>
      </trkpt>
      <trkpt lat="32.285083802416921" lon="-5.328606432303786">
        <ele>2209.73</ele>
        <time>2019-03-11T17:28:06Z</time>
      </trkpt>
      <trkpt lat="32.285052035003901" lon="-5.328691173344851">
        <ele>2211.1700000000001</ele>
        <time>2019-03-11T17:28:07Z</time>
      </trkpt>
      <trkpt lat="32.285014064982533" lon="-5.3287766687572">
        <ele>2211.6500000000001</ele>
        <time>2019-03-11T17:28:08Z</time>
      </trkpt>
      <trkpt lat="32.284973999485373" lon="-5.328863421455026">
        <ele>2211.6500000000001</ele>
        <time>2019-03-11T17:28:18Z</time>
      </trkpt>
      <trkpt lat="32.28447980247438" lon="-5.329757602885366">
        <ele>2212.1300000000001</ele>
        <time>2019-03-11T17:28:19Z</time>
      </trkpt>
      <trkpt lat="32.284456081688404" lon="-5.329871010035276">
        <ele>2212.1300000000001</ele>
        <time>2019-03-11T17:28:20Z</time>
      </trkpt>
      <trkpt lat="32.284450381994247" lon="-5.329991793259978">
        <ele>2210.6900000000001</ele>
        <time>2019-03-11T17:28:21Z</time>
      </trkpt>
      <trkpt lat="32.284459099173546" lon="-5.330120539292693">
        <ele>2210.21</ele>
        <time>2019-03-11T17:28:22Z</time>
      </trkpt>
      <trkpt lat="32.284477036446333" lon="-5.330259008333087">
        <ele>2209.73</ele>
        <time>2019-03-11T17:28:25Z</time>
      </trkpt>
      <trkpt lat="32.284523388370872" lon="-5.330666368827224">
        <ele>2209.25</ele>
        <time>2019-03-11T17:28:26Z</time>
      </trkpt>
      <trkpt lat="32.284512994810939" lon="-5.330767873674631">
        <ele>2209.25</ele>
        <time>2019-03-11T17:28:27Z</time>
      </trkpt>
      <trkpt lat="32.284480640664697" lon="-5.330852782353759">
        <ele>2209.25</ele>
        <time>2019-03-11T17:28:28Z</time>
      </trkpt>
      <trkpt lat="32.284430516883731" lon="-5.330928303301334">
        <ele>2208.77</ele>
        <time>2019-03-11T17:28:29Z</time>
      </trkpt>
      <trkpt lat="32.284375112503767" lon="-5.331002902239561">
        <ele>2208.77</ele>
        <time>2019-03-11T17:28:31Z</time>
      </trkpt>
      <trkpt lat="32.284271344542503" lon="-5.331168361008167">
        <ele>2208.77</ele>
        <time>2019-03-11T17:28:32Z</time>
      </trkpt>
      <trkpt lat="32.284229937940836" lon="-5.331266261637211">
        <ele>2207.8099999999999</ele>
        <time>2019-03-11T17:28:33Z</time>
      </trkpt>
      <trkpt lat="32.284197919070721" lon="-5.331377573311329">
        <ele>2206.3600000000001</ele>
        <time>2019-03-11T17:28:34Z</time>
      </trkpt>
      <trkpt lat="32.28416807949543" lon="-5.331495087593794">
        <ele>2204.9200000000001</ele>
        <time>2019-03-11T17:28:35Z</time>
      </trkpt>
      <trkpt lat="32.284124912694097" lon="-5.3316087462008">
        <ele>2203.96</ele>
        <time>2019-03-11T17:28:36Z</time>
      </trkpt>
      <trkpt lat="32.284061629325151" lon="-5.331714944913983">
        <ele>2203</ele>
        <time>2019-03-11T17:28:37Z</time>
      </trkpt>
      <trkpt lat="32.283977894112468" lon="-5.331804715096951">
        <ele>2202.04</ele>
        <time>2019-03-11T17:28:38Z</time>
      </trkpt>
      <trkpt lat="32.283878484740853" lon="-5.331872021779418">
        <ele>2200.5900000000001</ele>
        <time>2019-03-11T17:28:39Z</time>
      </trkpt>
      <trkpt lat="32.283779662102461" lon="-5.331927090883255">
        <ele>2199.6300000000001</ele>
        <time>2019-03-11T17:28:40Z</time>
      </trkpt>
      <trkpt lat="32.283693328499794" lon="-5.331999761983752">
        <ele>2198.6700000000001</ele>
        <time>2019-03-11T17:28:41Z</time>
      </trkpt>
      <trkpt lat="32.283626943826675" lon="-5.33210420049727">
        <ele>2197.23</ele>
        <time>2019-03-11T17:28:42Z</time>
      </trkpt>
      <trkpt lat="32.283581597730517" lon="-5.332239232957363">
        <ele>2195.79</ele>
        <time>2019-03-11T17:28:43Z</time>
      </trkpt>
      <trkpt lat="32.283552512526512" lon="-5.332395387813449">
        <ele>2193.8699999999999</ele>
        <time>2019-03-11T17:28:44Z</time>
      </trkpt>
      <trkpt lat="32.283534742891788" lon="-5.332563109695911">
        <ele>2191.9400000000001</ele>
        <time>2019-03-11T17:28:45Z</time>
      </trkpt>
      <trkpt lat="32.283511105924845" lon="-5.332725886255503">
        <ele>2190.02</ele>
        <time>2019-03-11T17:28:46Z</time>
      </trkpt>
      <trkpt lat="32.28346936404705" lon="-5.332881789654493">
        <ele>2187.6199999999999</ele>
        <time>2019-03-11T17:28:47Z</time>
      </trkpt>
      <trkpt lat="32.283398704603314" lon="-5.333031825721264">
        <ele>2185.6900000000001</ele>
        <time>2019-03-11T17:28:48Z</time>
      </trkpt>
      <trkpt lat="32.283303737640381" lon="-5.333181358873844">
        <ele>2183.29</ele>
        <time>2019-03-11T17:28:49Z</time>
      </trkpt>
      <trkpt lat="32.283202819526196" lon="-5.333341201767325">
        <ele>2169.8299999999999</ele>
        <time>2019-03-11T17:28:50Z</time>
      </trkpt>
      <trkpt lat="32.283115815371275" lon="-5.333519065752626">
        <ele>2166.9499999999998</ele>
        <time>2019-03-11T17:28:51Z</time>
      </trkpt>
      <trkpt lat="32.283038198947906" lon="-5.333706568926573">
        <ele>2164.5500000000002</ele>
        <time>2019-03-11T17:28:57Z</time>
      </trkpt>
      <trkpt lat="32.282595885917544" lon="-5.334767885506153">
        <ele>2157.3400000000001</ele>
        <time>2019-03-11T17:28:58Z</time>
      </trkpt>
      <trkpt lat="32.282569985836744" lon="-5.334918759763241">
        <ele>2154.9299999999998</ele>
        <time>2019-03-11T17:28:59Z</time>
      </trkpt>
      <trkpt lat="32.282565627247095" lon="-5.335073154419661">
        <ele>2152.5300000000002</ele>
        <time>2019-03-11T17:29:02Z</time>
      </trkpt>
      <trkpt lat="32.282573170959949" lon="-5.335573051124811">
        <ele>2150.6100000000001</ele>
        <time>2019-03-11T17:29:03Z</time>
      </trkpt>
      <trkpt lat="32.28254484012723" lon="-5.335747310891748">
        <ele>2148.6799999999998</ele>
        <time>2019-03-11T17:29:04Z</time>
      </trkpt>
      <trkpt lat="32.282497230917215" lon="-5.335910925641656">
        <ele>2146.7600000000002</ele>
        <time>2019-03-11T17:29:05Z</time>
      </trkpt>
      <trkpt lat="32.282440820708871" lon="-5.336059201508761">
        <ele>2144.8400000000001</ele>
        <time>2019-03-11T17:29:06Z</time>
      </trkpt>
      <trkpt lat="32.282387260347605" lon="-5.336189456284046">
        <ele>2142.9200000000001</ele>
        <time>2019-03-11T17:29:07Z</time>
      </trkpt>
      <trkpt lat="32.282347865402699" lon="-5.336313843727112">
        <ele>2140.9899999999998</ele>
        <time>2019-03-11T17:29:08Z</time>
      </trkpt>
      <trkpt lat="32.282339315861464" lon="-5.336439991369844">
        <ele>2138.5900000000001</ele>
        <time>2019-03-11T17:29:09Z</time>
      </trkpt>
      <trkpt lat="32.282360270619392" lon="-5.336571419611573">
        <ele>2127.5300000000002</ele>
        <time>2019-03-11T17:29:10Z</time>
      </trkpt>
      <trkpt lat="32.282400000840425" lon="-5.336713828146458">
        <ele>2126.0900000000001</ele>
        <time>2019-03-11T17:29:11Z</time>
      </trkpt>
      <trkpt lat="32.282447442412376" lon="-5.33686688169837">
        <ele>2125.1300000000001</ele>
        <time>2019-03-11T17:29:17Z</time>
      </trkpt>
      <trkpt lat="32.282693451270461" lon="-5.33779333345592">
        <ele>2124.1700000000001</ele>
        <time>2019-03-11T17:29:18Z</time>
      </trkpt>
      <trkpt lat="32.282695211470127" lon="-5.3379169665277">
        <ele>2122.73</ele>
        <time>2019-03-11T17:29:19Z</time>
      </trkpt>
      <trkpt lat="32.28266797028482" lon="-5.338035821914673">
        <ele>2121.77</ele>
        <time>2019-03-11T17:29:20Z</time>
      </trkpt>
      <trkpt lat="32.282613152638078" lon="-5.338152078911662">
        <ele>2119.8400000000001</ele>
        <time>2019-03-11T17:29:21Z</time>
      </trkpt>
      <trkpt lat="32.282538134604692" lon="-5.338267832994461">
        <ele>2119.3600000000001</ele>
        <time>2019-03-11T17:29:22Z</time>
      </trkpt>
      <trkpt lat="32.282454231753945" lon="-5.338386101648212">
        <ele>2118.4000000000001</ele>
        <time>2019-03-11T17:29:24Z</time>
      </trkpt>
      <trkpt lat="32.282298915088177" lon="-5.33863278105855">
        <ele>2117.4400000000001</ele>
        <time>2019-03-11T17:29:25Z</time>
      </trkpt>
      <trkpt lat="32.282235631719232" lon="-5.338770747184753">
        <ele>2116</ele>
        <time>2019-03-11T17:29:26Z</time>
      </trkpt>
      <trkpt lat="32.282188441604376" lon="-5.338919693604112">
        <ele>2115.04</ele>
        <time>2019-03-11T17:29:27Z</time>
      </trkpt>
      <trkpt lat="32.282155333086848" lon="-5.339078949764371">
        <ele>2110.23</ele>
        <time>2019-03-11T17:29:28Z</time>
      </trkpt>
      <trkpt lat="32.282130271196365" lon="-5.339248431846499">
        <ele>2108.3099999999999</ele>
        <time>2019-03-11T17:29:29Z</time>
      </trkpt>
      <trkpt lat="32.282111747190356" lon="-5.339424200356007">
        <ele>2106.3899999999999</ele>
        <time>2019-03-11T17:29:32Z</time>
      </trkpt>
      <trkpt lat="32.282045111060143" lon="-5.339940441772342">
        <ele>2095.8099999999999</ele>
        <time>2019-03-11T17:29:33Z</time>
      </trkpt>
      <trkpt lat="32.281995406374335" lon="-5.340097937732935">
        <ele>2094.8499999999999</ele>
        <time>2019-03-11T17:29:34Z</time>
      </trkpt>
      <trkpt lat="32.281927345320582" lon="-5.340245543047786">
        <ele>2093.8899999999999</ele>
        <time>2019-03-11T17:29:41Z</time>
      </trkpt>
      <trkpt lat="32.281368104740977" lon="-5.341137545183301">
        <ele>2092.9299999999998</ele>
        <time>2019-03-11T17:29:42Z</time>
      </trkpt>
      <trkpt lat="32.281317478045821" lon="-5.341250617057085">
        <ele>2092.4499999999998</ele>
        <time>2019-03-11T17:29:43Z</time>
      </trkpt>
      <trkpt lat="32.281287889927626" lon="-5.341371987015009">
        <ele>2091.4899999999998</ele>
        <time>2019-03-11T17:29:44Z</time>
      </trkpt>
      <trkpt lat="32.28127783164382" lon="-5.341496374458075">
        <ele>2091</ele>
        <time>2019-03-11T17:29:45Z</time>
      </trkpt>
      <trkpt lat="32.281273221597075" lon="-5.341623863205314">
        <ele>2090.04</ele>
        <time>2019-03-11T17:29:46Z</time>
      </trkpt>
      <trkpt lat="32.28126316331327" lon="-5.341743724420667">
        <ele>2089.5599999999999</ele>
        <time>2019-03-11T17:29:47Z</time>
      </trkpt>
      <trkpt lat="32.281241370365024" lon="-5.341846235096455">
        <ele>2089.0799999999999</ele>
        <time>2019-03-11T17:29:48Z</time>
      </trkpt>
      <trkpt lat="32.281201556324959" lon="-5.341930305585265">
        <ele>2088.5999999999999</ele>
        <time>2019-03-11T17:29:49Z</time>
      </trkpt>
      <trkpt lat="32.281137267127633" lon="-5.341996271163225">
        <ele>2088.5999999999999</ele>
        <time>2019-03-11T17:29:50Z</time>
      </trkpt>
      <trkpt lat="32.281053783372045" lon="-5.342044299468398">
        <ele>2088.1199999999999</ele>
        <time>2019-03-11T17:29:51Z</time>
      </trkpt>
      <trkpt lat="32.280964516103268" lon="-5.34209324978292">
        <ele>2087.6399999999999</ele>
        <time>2019-03-11T17:29:52Z</time>
      </trkpt>
      <trkpt lat="32.280883966013789" lon="-5.342163993045688">
        <ele>2087.1599999999999</ele>
        <time>2019-03-11T17:29:53Z</time>
      </trkpt>
      <trkpt lat="32.280819173902273" lon="-5.342259630560875">
        <ele>2085.7199999999998</ele>
        <time>2019-03-11T17:29:54Z</time>
      </trkpt>
      <trkpt lat="32.280766787007451" lon="-5.342371193692088">
        <ele>2085.7199999999998</ele>
        <time>2019-03-11T17:29:55Z</time>
      </trkpt>
      <trkpt lat="32.280719261616468" lon="-5.342491054907441">
        <ele>2085.7199999999998</ele>
        <time>2019-03-11T17:29:59Z</time>
      </trkpt>
      <trkpt lat="32.280505858361721" lon="-5.342936050146818">
        <ele>2086.1999999999998</ele>
        <time>2019-03-11T17:30:00Z</time>
      </trkpt>
      <trkpt lat="32.28043301962316" lon="-5.343020036816597">
        <ele>2085.7199999999998</ele>
        <time>2019-03-11T17:30:01Z</time>
      </trkpt>
      <trkpt lat="32.280349787324667" lon="-5.343079548329115">
        <ele>2085.7199999999998</ele>
        <time>2019-03-11T17:30:02Z</time>
      </trkpt>
      <trkpt lat="32.28025465272367" lon="-5.34310863353312">
        <ele>2085.7199999999998</ele>
        <time>2019-03-11T17:30:03Z</time>
      </trkpt>
      <trkpt lat="32.280156668275595" lon="-5.343104610219598">
        <ele>2085.2399999999998</ele>
        <time>2019-03-11T17:30:04Z</time>
      </trkpt>
      <trkpt lat="32.280061198398471" lon="-5.343067646026611">
        <ele>2085.2399999999998</ele>
        <time>2019-03-11T17:30:05Z</time>
      </trkpt>
      <trkpt lat="32.279976038262248" lon="-5.343011990189552">
        <ele>2085.2399999999998</ele>
        <time>2019-03-11T17:30:06Z</time>
      </trkpt>
      <trkpt lat="32.279903786256909" lon="-5.342961782589555">
        <ele>2085.2399999999998</ele>
        <time>2019-03-11T17:30:07Z</time>
      </trkpt>
      <trkpt lat="32.279834132641554" lon="-5.342935044318438">
        <ele>2084.2800000000002</ele>
        <time>2019-03-11T17:30:08Z</time>
      </trkpt>
      <trkpt lat="32.27976213209331" lon="-5.342945354059339">
        <ele>2083.79</ele>
        <time>2019-03-11T17:30:09Z</time>
      </trkpt>
      <trkpt lat="32.279688958078623" lon="-5.342994974926114">
        <ele>2083.3099999999999</ele>
        <time>2019-03-11T17:30:10Z</time>
      </trkpt>
      <trkpt lat="32.279613353312016" lon="-5.34307049587369">
        <ele>2082.3499999999999</ele>
        <time>2019-03-11T17:30:11Z</time>
      </trkpt>
      <trkpt lat="32.279545040801167" lon="-5.343167306855321">
        <ele>2081.8699999999999</ele>
        <time>2019-03-11T17:30:12Z</time>
      </trkpt>
      <trkpt lat="32.279496258124709" lon="-5.343282390385866">
        <ele>2081.3899999999999</ele>
        <time>2019-03-11T17:30:13Z</time>
      </trkpt>
      <trkpt lat="32.279467340558767" lon="-5.343407364562154">
        <ele>2080.9099999999999</ele>
        <time>2019-03-11T17:30:14Z</time>
      </trkpt>
      <trkpt lat="32.279446804895997" lon="-5.343531332910061">
        <ele>2080.4299999999998</ele>
        <time>2019-03-11T17:30:15Z</time>
      </trkpt>
      <trkpt lat="32.279414283111691" lon="-5.343637447804213">
        <ele>2080.4299999999998</ele>
        <time>2019-03-11T17:30:16Z</time>
      </trkpt>
      <trkpt lat="32.279362482950091" lon="-5.343718836084008">
        <ele>2079.9499999999998</ele>
        <time>2019-03-11T17:30:17Z</time>
      </trkpt>
      <trkpt lat="32.279291655868292" lon="-5.343775246292353">
        <ele>2079.4699999999998</ele>
        <time>2019-03-11T17:30:18Z</time>
      </trkpt>
      <trkpt lat="32.279205238446593" lon="-5.343802403658629">
        <ele>2079.4699999999998</ele>
        <time>2019-03-11T17:30:19Z</time>
      </trkpt>
      <trkpt lat="32.279108259826899" lon="-5.343808438628912">
        <ele>2079.4699999999998</ele>
        <time>2019-03-11T17:30:20Z</time>
      </trkpt>
      <trkpt lat="32.279006922617555" lon="-5.3438073489815">
        <ele>2079.4699999999998</ele>
        <time>2019-03-11T17:30:22Z</time>
      </trkpt>
      <trkpt lat="32.278811037540436" lon="-5.343818664550781">
        <ele>2079.9499999999998</ele>
        <time>2019-03-11T17:30:23Z</time>
      </trkpt>
      <trkpt lat="32.278720764443278" lon="-5.343849090859294">
        <ele>2079.9499999999998</ele>
        <time>2019-03-11T17:30:24Z</time>
      </trkpt>
      <trkpt lat="32.278632335364819" lon="-5.343902399763465">
        <ele>2079.9499999999998</ele>
        <time>2019-03-11T17:30:25Z</time>
      </trkpt>
      <trkpt lat="32.27854591794312" lon="-5.343977836892009">
        <ele>2079.9499999999998</ele>
        <time>2019-03-11T17:30:26Z</time>
      </trkpt>
      <trkpt lat="32.278463775292039" lon="-5.344073809683323">
        <ele>2079.9499999999998</ele>
        <time>2019-03-11T17:30:27Z</time>
      </trkpt>
      <trkpt lat="32.278378866612911" lon="-5.344178080558777">
        <ele>2079.4699999999998</ele>
        <time>2019-03-11T17:30:28Z</time>
      </trkpt>
      <trkpt lat="32.278283396735787" lon="-5.344270532950759">
        <ele>2078.5100000000002</ele>
        <time>2019-03-11T17:30:29Z</time>
      </trkpt>
      <trkpt lat="32.278169989585876" lon="-5.344346221536398">
        <ele>2075.6199999999999</ele>
        <time>2019-03-11T17:30:31Z</time>
      </trkpt>
      <trkpt lat="32.27792926132679" lon="-5.344499442726374">
        <ele>2073.6999999999998</ele>
        <time>2019-03-11T17:30:32Z</time>
      </trkpt>
      <trkpt lat="32.277812836691737" lon="-5.34460136666894">
        <ele>2073.2199999999998</ele>
        <time>2019-03-11T17:30:35Z</time>
      </trkpt>
      <trkpt lat="32.277466999366879" lon="-5.344908814877272">
        <ele>2072.2600000000002</ele>
        <time>2019-03-11T17:30:37Z</time>
      </trkpt>
      <trkpt lat="32.277251752093434" lon="-5.345084583386779">
        <ele>2071.7800000000002</ele>
        <time>2019-03-11T17:30:38Z</time>
      </trkpt>
      <trkpt lat="32.277173297479749" lon="-5.345198074355722">
        <ele>2071.3000000000002</ele>
        <time>2019-03-11T17:30:39Z</time>
      </trkpt>
      <trkpt lat="32.277111858129501" lon="-5.345326904207468">
        <ele>2070.3400000000001</ele>
        <time>2019-03-11T17:30:40Z</time>
      </trkpt>
      <trkpt lat="32.277064919471741" lon="-5.345462691038847">
        <ele>2069.8600000000001</ele>
        <time>2019-03-11T17:30:41Z</time>
      </trkpt>
      <trkpt lat="32.277029464021325" lon="-5.345609458163381">
        <ele>2068.8899999999999</ele>
        <time>2019-03-11T17:30:42Z</time>
      </trkpt>
      <trkpt lat="32.277004150673747" lon="-5.345764607191086">
        <ele>2067.9299999999998</ele>
        <time>2019-03-11T17:30:43Z</time>
      </trkpt>
      <trkpt lat="32.276989733800292" lon="-5.345927970483899">
        <ele>2066.9699999999998</ele>
        <time>2019-03-11T17:30:44Z</time>
      </trkpt>
      <trkpt lat="32.276987135410309" lon="-5.346098709851503">
        <ele>2066.0100000000002</ele>
        <time>2019-03-11T17:30:45Z</time>
      </trkpt>
      <trkpt lat="32.276997864246368" lon="-5.346275065094233">
        <ele>2065.0500000000002</ele>
        <time>2019-03-11T17:30:46Z</time>
      </trkpt>
      <trkpt lat="32.277022507041693" lon="-5.346449241042137">
        <ele>2064.5700000000002</ele>
        <time>2019-03-11T17:30:47Z</time>
      </trkpt>
      <trkpt lat="32.277058381587267" lon="-5.346613945439458">
        <ele>2064.0900000000001</ele>
        <time>2019-03-11T17:30:48Z</time>
      </trkpt>
      <trkpt lat="32.27708294056356" lon="-5.346769513562322">
        <ele>2063.6100000000001</ele>
        <time>2019-03-11T17:30:49Z</time>
      </trkpt>
      <trkpt lat="32.277078749611974" lon="-5.34691896289587">
        <ele>2062.6500000000001</ele>
        <time>2019-03-11T17:30:50Z</time>
      </trkpt>
      <trkpt lat="32.277054861187935" lon="-5.347059611231089">
        <ele>2062.6500000000001</ele>
        <time>2019-03-11T17:30:51Z</time>
      </trkpt>
      <trkpt lat="32.277027955278754" lon="-5.347198834642768">
        <ele>2062.6500000000001</ele>
        <time>2019-03-11T17:30:53Z</time>
      </trkpt>
      <trkpt lat="32.276993002742529" lon="-5.347491949796677">
        <ele>2062.6500000000001</ele>
        <time>2019-03-11T17:30:54Z</time>
      </trkpt>
      <trkpt lat="32.276991996914148" lon="-5.347645087167621">
        <ele>2062.1700000000001</ele>
        <time>2019-03-11T17:30:55Z</time>
      </trkpt>
      <trkpt lat="32.277007419615984" lon="-5.347795793786645">
        <ele>2062.1700000000001</ele>
        <time>2019-03-11T17:30:56Z</time>
      </trkpt>
      <trkpt lat="32.277039019390941" lon="-5.347945410758257">
        <ele>2059.2800000000002</ele>
        <time>2019-03-11T17:30:57Z</time>
      </trkpt>
      <trkpt lat="32.277081934735179" lon="-5.348093016073108">
        <ele>2058.3200000000002</ele>
        <time>2019-03-11T17:30:58Z</time>
      </trkpt>
      <trkpt lat="32.277130885049701" lon="-5.348239783197641">
        <ele>2057.8400000000001</ele>
        <time>2019-03-11T17:31:03Z</time>
      </trkpt>
      <trkpt lat="32.277386784553528" lon="-5.348920980468392">
        <ele>2056.4000000000001</ele>
        <time>2019-03-11T17:31:04Z</time>
      </trkpt>
      <trkpt lat="32.277448810636997" lon="-5.349018881097436">
        <ele>2055.9200000000001</ele>
        <time>2019-03-11T17:31:05Z</time>
      </trkpt>
      <trkpt lat="32.277516620233655" lon="-5.34909968264401">
        <ele>2055.4400000000001</ele>
        <time>2019-03-11T17:31:07Z</time>
      </trkpt>
      <trkpt lat="32.277643354609609" lon="-5.34924142062664">
        <ele>2055.4400000000001</ele>
        <time>2019-03-11T17:31:08Z</time>
      </trkpt>
      <trkpt lat="32.277690963819623" lon="-5.349319372326136">
        <ele>2055.4400000000001</ele>
        <time>2019-03-11T17:31:09Z</time>
      </trkpt>
      <trkpt lat="32.27771962992847" lon="-5.349404364824295">
        <ele>2054.96</ele>
        <time>2019-03-11T17:31:10Z</time>
      </trkpt>
      <trkpt lat="32.277722395956516" lon="-5.349493799731135">
        <ele>2054.4699999999998</ele>
        <time>2019-03-11T17:31:11Z</time>
      </trkpt>
      <trkpt lat="32.277695992961526" lon="-5.349581642076373">
        <ele>2054.4699999999998</ele>
        <time>2019-03-11T17:31:12Z</time>
      </trkpt>
      <trkpt lat="32.277642851695418" lon="-5.349660599604249">
        <ele>2054.4699999999998</ele>
        <time>2019-03-11T17:31:13Z</time>
      </trkpt>
      <trkpt lat="32.277565402910113" lon="-5.349724302068353">
        <ele>2049.1900000000001</ele>
        <time>2019-03-11T17:31:14Z</time>
      </trkpt>
      <trkpt lat="32.277474794536829" lon="-5.349780628457665">
        <ele>2048.71</ele>
        <time>2019-03-11T17:31:15Z</time>
      </trkpt>
      <trkpt lat="32.277374044060707" lon="-5.349835027009249">
        <ele>2047.75</ele>
        <time>2019-03-11T17:31:25Z</time>
      </trkpt>
      <trkpt lat="32.276270650327206" lon="-5.350407008081675">
        <ele>2046.78</ele>
        <time>2019-03-11T17:31:26Z</time>
      </trkpt>
      <trkpt lat="32.276192614808679" lon="-5.350453108549118">
        <ele>2046.3</ele>
        <time>2019-03-11T17:31:27Z</time>
      </trkpt>
      <trkpt lat="32.27613260038197" lon="-5.350511698052287">
        <ele>2045.8199999999999</ele>
        <time>2019-03-11T17:31:28Z</time>
      </trkpt>
      <trkpt lat="32.27609446272254" lon="-5.350588141009212">
        <ele>2045.3399999999999</ele>
        <time>2019-03-11T17:31:29Z</time>
      </trkpt>
      <trkpt lat="32.276080045849085" lon="-5.350681850686669">
        <ele>2044.8599999999999</ele>
        <time>2019-03-11T17:31:30Z</time>
      </trkpt>
      <trkpt lat="32.276091277599335" lon="-5.350788552314043">
        <ele>2043.4200000000001</ele>
        <time>2019-03-11T17:31:31Z</time>
      </trkpt>
      <trkpt lat="32.276118937879801" lon="-5.350902127102017">
        <ele>2042.46</ele>
        <time>2019-03-11T17:31:32Z</time>
      </trkpt>
      <trkpt lat="32.27614969946444" lon="-5.351026514545083">
        <ele>2041.98</ele>
        <time>2019-03-11T17:31:34Z</time>
      </trkpt>
      <trkpt lat="32.276194877922535" lon="-5.351304290816188">
        <ele>2041.02</ele>
        <time>2019-03-11T17:31:35Z</time>
      </trkpt>
      <trkpt lat="32.276193201541901" lon="-5.351455584168434">
        <ele>2040.54</ele>
        <time>2019-03-11T17:31:36Z</time>
      </trkpt>
      <trkpt lat="32.276170570403337" lon="-5.351610900834203">
        <ele>2040.05</ele>
        <time>2019-03-11T17:31:38Z</time>
      </trkpt>
      <trkpt lat="32.276112735271454" lon="-5.351918684318662">
        <ele>2039.5699999999999</ele>
        <time>2019-03-11T17:31:39Z</time>
      </trkpt>
      <trkpt lat="32.276103598996997" lon="-5.352068301290274">
        <ele>2039.0899999999999</ele>
        <time>2019-03-11T17:31:40Z</time>
      </trkpt>
      <trkpt lat="32.276114579290152" lon="-5.352214397862554">
        <ele>2039.0899999999999</ele>
        <time>2019-03-11T17:31:41Z</time>
      </trkpt>
      <trkpt lat="32.27613846771419" lon="-5.352357057854533">
        <ele>2039.0899999999999</ele>
        <time>2019-03-11T17:31:42Z</time>
      </trkpt>
      <trkpt lat="32.276163613423705" lon="-5.35250005312264">
        <ele>2038.6099999999999</ele>
        <time>2019-03-11T17:31:43Z</time>
      </trkpt>
      <trkpt lat="32.276174761354923" lon="-5.352647826075554">
        <ele>2034.77</ele>
        <time>2019-03-11T17:31:44Z</time>
      </trkpt>
      <trkpt lat="32.276170738041401" lon="-5.35279375500977">
        <ele>2034.77</ele>
        <time>2019-03-11T17:31:45Z</time>
      </trkpt>
      <trkpt lat="32.276160595938563" lon="-5.352937001734972">
        <ele>2034.29</ele>
        <time>2019-03-11T17:31:51Z</time>
      </trkpt>
      <trkpt lat="32.27615405805409" lon="-5.353822633624077">
        <ele>2033.3299999999999</ele>
        <time>2019-03-11T17:31:52Z</time>
      </trkpt>
      <trkpt lat="32.276142491027713" lon="-5.353970406576991">
        <ele>2032.8399999999999</ele>
        <time>2019-03-11T17:31:53Z</time>
      </trkpt>
      <trkpt lat="32.276122206822038" lon="-5.354119604453445">
        <ele>2032.3599999999999</ele>
        <time>2019-03-11T17:31:59Z</time>
      </trkpt>
      <trkpt lat="32.276025395840406" lon="-5.355041529983282">
        <ele>2029.48</ele>
        <time>2019-03-11T17:32:00Z</time>
      </trkpt>
      <trkpt lat="32.27605146355927" lon="-5.355185447260737">
        <ele>2027.0799999999999</ele>
        <time>2019-03-11T17:32:01Z</time>
      </trkpt>
      <trkpt lat="32.276093624532223" lon="-5.355329196900129">
        <ele>2026.1199999999999</ele>
        <time>2019-03-11T17:32:07Z</time>
      </trkpt>
      <trkpt lat="32.276345165446401" lon="-5.356215499341488">
        <ele>2026.1199999999999</ele>
        <time>2019-03-11T17:32:12Z</time>
      </trkpt>
      <trkpt lat="32.27641356177628" lon="-5.357048911973834">
        <ele>2025.6400000000001</ele>
        <time>2019-03-11T17:32:15Z</time>
      </trkpt>
      <trkpt lat="32.276367042213678" lon="-5.357560040429235">
        <ele>2025.6400000000001</ele>
        <time>2019-03-11T17:32:16Z</time>
      </trkpt>
      <trkpt lat="32.276373328641057" lon="-5.357730863615871">
        <ele>2025.1500000000001</ele>
        <time>2019-03-11T17:32:17Z</time>
      </trkpt>
      <trkpt lat="32.27639545686543" lon="-5.357893807813525">
        <ele>2024.6700000000001</ele>
        <time>2019-03-11T17:32:19Z</time>
      </trkpt>
      <trkpt lat="32.276429822668433" lon="-5.358184408396483">
        <ele>2024.6700000000001</ele>
        <time>2019-03-11T17:32:20Z</time>
      </trkpt>
      <trkpt lat="32.276402749121189" lon="-5.358327571302652">
        <ele>2024.6700000000001</ele>
        <time>2019-03-11T17:32:23Z</time>
      </trkpt>
      <trkpt lat="32.276279786601663" lon="-5.358767956495285">
        <ele>2024.1900000000001</ele>
        <time>2019-03-11T17:32:24Z</time>
      </trkpt>
      <trkpt lat="32.276263693347573" lon="-5.358911203220487">
        <ele>2024.1900000000001</ele>
        <time>2019-03-11T17:32:25Z</time>
      </trkpt>
      <trkpt lat="32.276264866814017" lon="-5.359058808535337">
        <ele>2024.1900000000001</ele>
        <time>2019-03-11T17:32:26Z</time>
      </trkpt>
      <trkpt lat="32.276284899562597" lon="-5.359212448820472">
        <ele>2019.8699999999999</ele>
        <time>2019-03-11T17:32:27Z</time>
      </trkpt>
      <trkpt lat="32.276321779936552" lon="-5.35937069915235">
        <ele>2016.98</ele>
        <time>2019-03-11T17:32:28Z</time>
      </trkpt>
      <trkpt lat="32.276367461308837" lon="-5.35953875631094">
        <ele>2014.0999999999999</ele>
        <time>2019-03-11T17:32:36Z</time>
      </trkpt>
      <trkpt lat="32.27671891450882" lon="-5.36097482778132">
        <ele>2013.1400000000001</ele>
        <time>2019-03-11T17:32:44Z</time>
      </trkpt>
      <trkpt lat="32.276952601969242" lon="-5.362361865118146">
        <ele>2013.1400000000001</ele>
        <time>2019-03-11T17:32:54Z</time>
      </trkpt>
      <trkpt lat="32.277280921116471" lon="-5.364425992593169">
        <ele>2013.1400000000001</ele>
        <time>2019-03-11T17:32:58Z</time>
      </trkpt>
      <trkpt lat="32.277482338249683" lon="-5.364928906783462">
        <ele>2013.1400000000001</ele>
        <time>2019-03-11T17:32:59Z</time>
      </trkpt>
      <trkpt lat="32.277512261644006" lon="-5.365036362782121">
        <ele>2013.1400000000001</ele>
        <time>2019-03-11T17:33:00Z</time>
      </trkpt>
      <trkpt lat="32.277513016015291" lon="-5.365151446312666">
        <ele>2013.1400000000001</ele>
        <time>2019-03-11T17:33:01Z</time>
      </trkpt>
      <trkpt lat="32.277485523372889" lon="-5.365271475166082">
        <ele>2012.6600000000001</ele>
        <time>2019-03-11T17:33:02Z</time>
      </trkpt>
      <trkpt lat="32.277447385713458" lon="-5.365393934771419">
        <ele>2012.1800000000001</ele>
        <time>2019-03-11T17:33:04Z</time>
      </trkpt>
      <trkpt lat="32.277378402650356" lon="-5.365637680515647">
        <ele>2011.7</ele>
        <time>2019-03-11T17:33:05Z</time>
      </trkpt>
      <trkpt lat="32.277368260547519" lon="-5.365764414891601">
        <ele>2011.22</ele>
        <time>2019-03-11T17:33:06Z</time>
      </trkpt>
      <trkpt lat="32.277378821745515" lon="-5.365896513685584">
        <ele>2010.25</ele>
        <time>2019-03-11T17:33:07Z</time>
      </trkpt>
      <trkpt lat="32.277403715997934" lon="-5.36603263579309">
        <ele>2009.29</ele>
        <time>2019-03-11T17:33:08Z</time>
      </trkpt>
      <trkpt lat="32.27743967436254" lon="-5.366172445937991">
        <ele>2008.8099999999999</ele>
        <time>2019-03-11T17:33:09Z</time>
      </trkpt>
      <trkpt lat="32.277483260259032" lon="-5.366299347952008">
        <ele>2007.8499999999999</ele>
        <time>2019-03-11T17:33:10Z</time>
      </trkpt>
      <trkpt lat="32.277536233887076" lon="-5.36641082726419">
        <ele>2007.8499999999999</ele>
        <time>2019-03-11T17:33:11Z</time>
      </trkpt>
      <trkpt lat="32.27760043926537" lon="-5.366501351818442">
        <ele>2007.3699999999999</ele>
        <time>2019-03-11T17:33:13Z</time>
      </trkpt>
      <trkpt lat="32.27771719917655" lon="-5.366663290187717">
        <ele>2007.3699999999999</ele>
        <time>2019-03-11T17:33:14Z</time>
      </trkpt>
      <trkpt lat="32.277746452018619" lon="-5.366767309606075">
        <ele>2007.3699999999999</ele>
        <time>2019-03-11T17:33:15Z</time>
      </trkpt>
      <trkpt lat="32.277746703475714" lon="-5.366880465298891">
        <ele>2008.3299999999999</ele>
        <time>2019-03-11T17:33:16Z</time>
      </trkpt>
      <trkpt lat="32.27772600017488" lon="-5.366994207724929">
        <ele>2008.8099999999999</ele>
        <time>2019-03-11T17:33:17Z</time>
      </trkpt>
      <trkpt lat="32.277699848636985" lon="-5.367107698693872">
        <ele>2008.8099999999999</ele>
        <time>2019-03-11T17:33:22Z</time>
      </trkpt>
      <trkpt lat="32.277602031826973" lon="-5.367741202935576">
        <ele>2006.8900000000001</ele>
        <time>2019-03-11T17:33:23Z</time>
      </trkpt>
      <trkpt lat="32.277609743177891" lon="-5.367900207638741">
        <ele>2006.8900000000001</ele>
        <time>2019-03-11T17:33:24Z</time>
      </trkpt>
      <trkpt lat="32.277639247477055" lon="-5.368070947006345">
        <ele>2006.8900000000001</ele>
        <time>2019-03-11T17:33:32Z</time>
      </trkpt>
      <trkpt lat="32.2780392318964" lon="-5.369572481140494">
        <ele>2006.4100000000001</ele>
        <time>2019-03-11T17:33:33Z</time>
      </trkpt>
      <trkpt lat="32.278108298778534" lon="-5.369682032614946">
        <ele>2006.4100000000001</ele>
        <time>2019-03-11T17:33:34Z</time>
      </trkpt>
      <trkpt lat="32.278199074789882" lon="-5.369756380096078">
        <ele>2005.9300000000001</ele>
        <time>2019-03-11T17:33:35Z</time>
      </trkpt>
      <trkpt lat="32.278310386464" lon="-5.369801893830299">
        <ele>2005.45</ele>
        <time>2019-03-11T17:33:36Z</time>
      </trkpt>
      <trkpt lat="32.278429996222258" lon="-5.369825614616275">
        <ele>2004.97</ele>
        <time>2019-03-11T17:33:37Z</time>
      </trkpt>
      <trkpt lat="32.278543571010232" lon="-5.369843216612935">
        <ele>2004.97</ele>
        <time>2019-03-11T17:33:38Z</time>
      </trkpt>
      <trkpt lat="32.278647338971496" lon="-5.369873978197575">
        <ele>2004.49</ele>
        <time>2019-03-11T17:33:39Z</time>
      </trkpt>
      <trkpt lat="32.278731744736433" lon="-5.369936758652329">
        <ele>2004.49</ele>
        <time>2019-03-11T17:33:40Z</time>
      </trkpt>
      <trkpt lat="32.278787400573492" lon="-5.370034575462341">
        <ele>2004.01</ele>
        <time>2019-03-11T17:33:41Z</time>
      </trkpt>
      <trkpt lat="32.27880927734077" lon="-5.370156364515424">
        <ele>2004.01</ele>
        <time>2019-03-11T17:33:42Z</time>
      </trkpt>
      <trkpt lat="32.278813049197197" lon="-5.370287457481027">
        <ele>2000.6400000000001</ele>
        <time>2019-03-11T17:33:47Z</time>
      </trkpt>
      <trkpt lat="32.278842888772488" lon="-5.371000841259956">
        <ele>1998.72</ele>
        <time>2019-03-11T17:33:48Z</time>
      </trkpt>
      <trkpt lat="32.278876919299364" lon="-5.371137131005526">
        <ele>1998.72</ele>
        <time>2019-03-11T17:33:56Z</time>
      </trkpt>
      <trkpt lat="32.279288219287992" lon="-5.372478989884257">
        <ele>1998.72</ele>
        <time>2019-03-11T17:34:02Z</time>
      </trkpt>
      <trkpt lat="32.279585693031549" lon="-5.373417511582375">
        <ele>1998.24</ele>
        <time>2019-03-11T17:34:03Z</time>
      </trkpt>
      <trkpt lat="32.279656436294317" lon="-5.373535109683871">
        <ele>1998.24</ele>
        <time>2019-03-11T17:34:04Z</time>
      </trkpt>
      <trkpt lat="32.279740255326033" lon="-5.373630495741963">
        <ele>1998.24</ele>
        <time>2019-03-11T17:34:05Z</time>
      </trkpt>
      <trkpt lat="32.279830276966095" lon="-5.373702412471175">
        <ele>1997.76</ele>
        <time>2019-03-11T17:34:06Z</time>
      </trkpt>
      <trkpt lat="32.279913676902652" lon="-5.373763768002391">
        <ele>1997.28</ele>
        <time>2019-03-11T17:34:07Z</time>
      </trkpt>
      <trkpt lat="32.279980396851897" lon="-5.373837444931269">
        <ele>1996.8</ele>
        <time>2019-03-11T17:34:08Z</time>
      </trkpt>
      <trkpt lat="32.280022390186787" lon="-5.373934088274837">
        <ele>1996.3199999999999</ele>
        <time>2019-03-11T17:34:09Z</time>
      </trkpt>
      <trkpt lat="32.280030520632863" lon="-5.374046908691526">
        <ele>1995.8299999999999</ele>
        <time>2019-03-11T17:34:10Z</time>
      </trkpt>
      <trkpt lat="32.280007554218173" lon="-5.374169033020735">
        <ele>1995.3499999999999</ele>
        <time>2019-03-11T17:34:11Z</time>
      </trkpt>
      <trkpt lat="32.279958268627524" lon="-5.374290402978659">
        <ele>1995.3499999999999</ele>
        <time>2019-03-11T17:34:12Z</time>
      </trkpt>
      <trkpt lat="32.27989699691534" lon="-5.374417724087834">
        <ele>1995.3499999999999</ele>
        <time>2019-03-11T17:34:13Z</time>
      </trkpt>
      <trkpt lat="32.279845615848899" lon="-5.374560467898846">
        <ele>1995.3499999999999</ele>
        <time>2019-03-11T17:34:14Z</time>
      </trkpt>
      <trkpt lat="32.279812758788466" lon="-5.374719388782978">
        <ele>1995.3499999999999</ele>
        <time>2019-03-11T17:34:15Z</time>
      </trkpt>
      <trkpt lat="32.279802868142724" lon="-5.374888116493821">
        <ele>1994.3900000000001</ele>
        <time>2019-03-11T17:34:16Z</time>
      </trkpt>
      <trkpt lat="32.279811669141054" lon="-5.375057514756918">
        <ele>1993.9100000000001</ele>
        <time>2019-03-11T17:34:17Z</time>
      </trkpt>
      <trkpt lat="32.279832791537046" lon="-5.375221716240048">
        <ele>1992.95</ele>
        <time>2019-03-11T17:34:18Z</time>
      </trkpt>
      <trkpt lat="32.279860954731703" lon="-5.375381140038371">
        <ele>1992.47</ele>
        <time>2019-03-11T17:34:19Z</time>
      </trkpt>
      <trkpt lat="32.279905127361417" lon="-5.375531511381269">
        <ele>1991.03</ele>
        <time>2019-03-11T17:34:20Z</time>
      </trkpt>
      <trkpt lat="32.279971512034535" lon="-5.375670064240694">
        <ele>1990.55</ele>
        <time>2019-03-11T17:34:21Z</time>
      </trkpt>
      <trkpt lat="32.280055163428187" lon="-5.375793781131506">
        <ele>1990.0699999999999</ele>
        <time>2019-03-11T17:34:23Z</time>
      </trkpt>
      <trkpt lat="32.280223555862904" lon="-5.376043058931828">
        <ele>1990.0699999999999</ele>
        <time>2019-03-11T17:34:24Z</time>
      </trkpt>
      <trkpt lat="32.280275523662567" lon="-5.376182114705443">
        <ele>1990.0699999999999</ele>
        <time>2019-03-11T17:34:25Z</time>
      </trkpt>
      <trkpt lat="32.280321875587106" lon="-5.376317063346505">
        <ele>1990.0699999999999</ele>
        <time>2019-03-11T17:34:26Z</time>
      </trkpt>
      <trkpt lat="32.280391780659556" lon="-5.376433907076716">
        <ele>1990.0699999999999</ele>
        <time>2019-03-11T17:34:27Z</time>
      </trkpt>
      <trkpt lat="32.280489262193441" lon="-5.376527113839984">
        <ele>1990.0699999999999</ele>
        <time>2019-03-11T17:34:28Z</time>
      </trkpt>
      <trkpt lat="32.280604178085923" lon="-5.37660900503397">
        <ele>1992.47</ele>
        <time>2019-03-11T17:34:30Z</time>
      </trkpt>
      <trkpt lat="32.280865358188748" lon="-5.376761639490724">
        <ele>1993.4300000000001</ele>
        <time>2019-03-11T17:34:31Z</time>
      </trkpt>
      <trkpt lat="32.281015310436487" lon="-5.37682349793613">
        <ele>1993.9100000000001</ele>
        <time>2019-03-11T17:34:37Z</time>
      </trkpt>
      <trkpt lat="32.281858362257481" lon="-5.37726522423327">
        <ele>1995.8299999999999</ele>
        <time>2019-03-11T17:34:38Z</time>
      </trkpt>
      <trkpt lat="32.281947629526258" lon="-5.377378044649959">
        <ele>1997.28</ele>
        <time>2019-03-11T17:34:39Z</time>
      </trkpt>
      <trkpt lat="32.282026167958975" lon="-5.377511819824576">
        <ele>2007.3699999999999</ele>
        <time>2019-03-11T17:34:47Z</time>
      </trkpt>
      <trkpt lat="32.28278087452054" lon="-5.378699451684952">
        <ele>2008.8099999999999</ele>
        <time>2019-03-11T17:34:54Z</time>
      </trkpt>
      <trkpt lat="32.283555110916495" lon="-5.379998814314604">
        <ele>2009.29</ele>
        <time>2019-03-11T17:35:02Z</time>
      </trkpt>
      <trkpt lat="32.284189704805613" lon="-5.381582072004676">
        <ele>2008.8099999999999</ele>
        <time>2019-03-11T17:35:04Z</time>
      </trkpt>
      <trkpt lat="32.284286264330149" lon="-5.381860015913844">
        <ele>2007.8499999999999</ele>
        <time>2019-03-11T17:35:07Z</time>
      </trkpt>
      <trkpt lat="32.284351056441665" lon="-5.38230836391449">
        <ele>1993.4300000000001</ele>
        <time>2019-03-11T17:35:08Z</time>
      </trkpt>
      <trkpt lat="32.284339321777225" lon="-5.382467284798622">
        <ele>1977.5699999999999</ele>
        <time>2019-03-11T17:35:09Z</time>
      </trkpt>
      <trkpt lat="32.284310404211283" lon="-5.38262989372015">
        <ele>1975.1700000000001</ele>
        <time>2019-03-11T17:35:17Z</time>
      </trkpt>
      <trkpt lat="32.284005889669061" lon="-5.384200746193528">
        <ele>1974.6900000000001</ele>
        <time>2019-03-11T17:35:24Z</time>
      </trkpt>
      <trkpt lat="32.283979989588261" lon="-5.385537492111325">
        <ele>1973.72</ele>
        <time>2019-03-11T17:35:26Z</time>
      </trkpt>
      <trkpt lat="32.283964902162552" lon="-5.385772520676255">
        <ele>1972.76</ele>
        <time>2019-03-11T17:35:27Z</time>
      </trkpt>
      <trkpt lat="32.283935397863388" lon="-5.38585290312767">
        <ele>1972.28</ele>
        <time>2019-03-11T17:35:28Z</time>
      </trkpt>
      <trkpt lat="32.28388418443501" lon="-5.385918281972408">
        <ele>1971.8</ele>
        <time>2019-03-11T17:35:29Z</time>
      </trkpt>
      <trkpt lat="32.283826768398285" lon="-5.385973686352372">
        <ele>1971.3199999999999</ele>
        <time>2019-03-11T17:35:30Z</time>
      </trkpt>
      <trkpt lat="32.283785110339522" lon="-5.386038227006793">
        <ele>1970.8399999999999</ele>
        <time>2019-03-11T17:35:31Z</time>
      </trkpt>
      <trkpt lat="32.283769771456718" lon="-5.386113412678242">
        <ele>1969.4000000000001</ele>
        <time>2019-03-11T17:35:32Z</time>
      </trkpt>
      <trkpt lat="32.283782511949539" lon="-5.386198153719306">
        <ele>1968.4400000000001</ele>
        <time>2019-03-11T17:35:33Z</time>
      </trkpt>
      <trkpt lat="32.283815369009972" lon="-5.386290606111288">
        <ele>1967.96</ele>
        <time>2019-03-11T17:35:39Z</time>
      </trkpt>
      <trkpt lat="32.284054001793265" lon="-5.38698697462678">
        <ele>1967.48</ele>
        <time>2019-03-11T17:35:40Z</time>
      </trkpt>
      <trkpt lat="32.284111585468054" lon="-5.387086803093553">
        <ele>1966.99</ele>
        <time>2019-03-11T17:35:41Z</time>
      </trkpt>
      <trkpt lat="32.284169504418969" lon="-5.387178501114249">
        <ele>1966.03</ele>
        <time>2019-03-11T17:35:42Z</time>
      </trkpt>
      <trkpt lat="32.28421644307673" lon="-5.387269612401724">
        <ele>1965.55</ele>
        <time>2019-03-11T17:35:43Z</time>
      </trkpt>
      <trkpt lat="32.28424770757556" lon="-5.387365501374006">
        <ele>1965.0699999999999</ele>
        <time>2019-03-11T17:35:44Z</time>
      </trkpt>
      <trkpt lat="32.284256340935826" lon="-5.387468095868826">
        <ele>1964.5899999999999</ele>
        <time>2019-03-11T17:35:45Z</time>
      </trkpt>
      <trkpt lat="32.284245025366545" lon="-5.387568846344948">
        <ele>1964.1099999999999</ele>
        <time>2019-03-11T17:35:46Z</time>
      </trkpt>
      <trkpt lat="32.284227926284075" lon="-5.387668255716562">
        <ele>1963.1500000000001</ele>
        <time>2019-03-11T17:35:47Z</time>
      </trkpt>
      <trkpt lat="32.284221304580569" lon="-5.387766407802701">
        <ele>1962.6700000000001</ele>
        <time>2019-03-11T17:35:48Z</time>
      </trkpt>
      <trkpt lat="32.28423647582531" lon="-5.387867661193013">
        <ele>1962.1900000000001</ele>
        <time>2019-03-11T17:35:49Z</time>
      </trkpt>
      <trkpt lat="32.284271847456694" lon="-5.38796816021204">
        <ele>1961.23</ele>
        <time>2019-03-11T17:35:50Z</time>
      </trkpt>
      <trkpt lat="32.284317277371883" lon="-5.388065222650766">
        <ele>1961.23</ele>
        <time>2019-03-11T17:35:51Z</time>
      </trkpt>
      <trkpt lat="32.284355582669377" lon="-5.388160943984985">
        <ele>1959.78</ele>
        <time>2019-03-11T17:35:52Z</time>
      </trkpt>
      <trkpt lat="32.284370250999928" lon="-5.388258090242744">
        <ele>1959.78</ele>
        <time>2019-03-11T17:35:53Z</time>
      </trkpt>
      <trkpt lat="32.284362791106105" lon="-5.388360936194658">
        <ele>1959.78</ele>
        <time>2019-03-11T17:35:56Z</time>
      </trkpt>
      <trkpt lat="32.284319121390581" lon="-5.388686321675777">
        <ele>1959.78</ele>
        <time>2019-03-11T17:35:57Z</time>
      </trkpt>
      <trkpt lat="32.284322557970881" lon="-5.388776008039713">
        <ele>1959.78</ele>
        <time>2019-03-11T17:35:58Z</time>
      </trkpt>
      <trkpt lat="32.284342758357525" lon="-5.38885161280632">
        <ele>1959.78</ele>
        <time>2019-03-11T17:35:59Z</time>
      </trkpt>
      <trkpt lat="32.284379135817289" lon="-5.388912465423346">
        <ele>1960.27</ele>
        <time>2019-03-11T17:36:00Z</time>
      </trkpt>
      <trkpt lat="32.284431019797921" lon="-5.388950016349554">
        <ele>1960.27</ele>
        <time>2019-03-11T17:36:01Z</time>
      </trkpt>
      <trkpt lat="32.284494554623961" lon="-5.388965019956231">
        <ele>1960.27</ele>
        <time>2019-03-11T17:36:02Z</time>
      </trkpt>
      <trkpt lat="32.284563789144158" lon="-5.388962170109153">
        <ele>1962.1900000000001</ele>
        <time>2019-03-11T17:36:03Z</time>
      </trkpt>
      <trkpt lat="32.284635789692402" lon="-5.388950938358903">
        <ele>1962.1900000000001</ele>
        <time>2019-03-11T17:36:04Z</time>
      </trkpt>
      <trkpt lat="32.284712316468358" lon="-5.388935850933194">
        <ele>1962.1900000000001</ele>
        <time>2019-03-11T17:36:09Z</time>
      </trkpt>
      <trkpt lat="32.285162173211575" lon="-5.388950351625681">
        <ele>1960.27</ele>
        <time>2019-03-11T17:36:10Z</time>
      </trkpt>
      <trkpt lat="32.285245070233941" lon="-5.388984968885779">
        <ele>1959.78</ele>
        <time>2019-03-11T17:36:11Z</time>
      </trkpt>
      <trkpt lat="32.285319501534104" lon="-5.389029309153557">
        <ele>1959.3</ele>
        <time>2019-03-11T17:36:16Z</time>
      </trkpt>
      <trkpt lat="32.285577747970819" lon="-5.389229888096452">
        <ele>1959.3</ele>
        <time>2019-03-11T17:36:17Z</time>
      </trkpt>
      <trkpt lat="32.28561345487833" lon="-5.389275569468737">
        <ele>1958.8199999999999</ele>
        <time>2019-03-11T17:36:18Z</time>
      </trkpt>
      <trkpt lat="32.285645138472319" lon="-5.389327788725495">
        <ele>1958.8199999999999</ele>
        <time>2019-03-11T17:36:19Z</time>
      </trkpt>
      <trkpt lat="32.285673385486007" lon="-5.389389144256711">
        <ele>1958.3399999999999</ele>
        <time>2019-03-11T17:36:20Z</time>
      </trkpt>
      <trkpt lat="32.28569651953876" lon="-5.389462653547525">
        <ele>1958.3399999999999</ele>
        <time>2019-03-11T17:36:21Z</time>
      </trkpt>
      <trkpt lat="32.285712026059628" lon="-5.389545382931829">
        <ele>1957.8599999999999</ele>
        <time>2019-03-11T17:36:22Z</time>
      </trkpt>
      <trkpt lat="32.285725520923734" lon="-5.389629872515798">
        <ele>1957.8599999999999</ele>
        <time>2019-03-11T17:36:23Z</time>
      </trkpt>
      <trkpt lat="32.285742955282331" lon="-5.389707740396261">
        <ele>1957.3800000000001</ele>
        <time>2019-03-11T17:36:24Z</time>
      </trkpt>
      <trkpt lat="32.285770531743765" lon="-5.389777896925807">
        <ele>1957.3800000000001</ele>
        <time>2019-03-11T17:36:25Z</time>
      </trkpt>
      <trkpt lat="32.285807328298688" lon="-5.389834307134152">
        <ele>1956.9000000000001</ele>
        <time>2019-03-11T17:36:26Z</time>
      </trkpt>
      <trkpt lat="32.2858533449471" lon="-5.389871522784233">
        <ele>1955.46</ele>
        <time>2019-03-11T17:36:27Z</time>
      </trkpt>
      <trkpt lat="32.285901624709368" lon="-5.389890465885401">
        <ele>1954.98</ele>
        <time>2019-03-11T17:36:28Z</time>
      </trkpt>
      <trkpt lat="32.285943869501352" lon="-5.389901613816619">
        <ele>1954.5</ele>
        <time>2019-03-11T17:36:36Z</time>
      </trkpt>
      <trkpt lat="32.286380147561431" lon="-5.390044106170535">
        <ele>1954.02</ele>
        <time>2019-03-11T17:36:37Z</time>
      </trkpt>
      <trkpt lat="32.286431612446904" lon="-5.390077382326126">
        <ele>1953.54</ele>
        <time>2019-03-11T17:36:38Z</time>
      </trkpt>
      <trkpt lat="32.286478048190475" lon="-5.39011761546135">
        <ele>1952.5699999999999</ele>
        <time>2019-03-11T17:36:39Z</time>
      </trkpt>
      <trkpt lat="32.286517694592476" lon="-5.390162291005254">
        <ele>1952.5699999999999</ele>
        <time>2019-03-11T17:36:40Z</time>
      </trkpt>
      <trkpt lat="32.286555580794811" lon="-5.390206715092063">
        <ele>1952.5699999999999</ele>
        <time>2019-03-11T17:36:43Z</time>
      </trkpt>
      <trkpt lat="32.286677872762084" lon="-5.390340406447649">
        <ele>1952.0899999999999</ele>
        <time>2019-03-11T17:36:44Z</time>
      </trkpt>
      <trkpt lat="32.286718776449561" lon="-5.39039614610374">
        <ele>1952.0899999999999</ele>
        <time>2019-03-11T17:36:45Z</time>
      </trkpt>
      <trkpt lat="32.286753561347723" lon="-5.3904621116817">
        <ele>1951.6099999999999</ele>
        <time>2019-03-11T17:36:46Z</time>
      </trkpt>
      <trkpt lat="32.286780551075935" lon="-5.390531430020928">
        <ele>1951.6099999999999</ele>
        <time>2019-03-11T17:36:47Z</time>
      </trkpt>
      <trkpt lat="32.28679932653904" lon="-5.390601586550474">
        <ele>1951.1300000000001</ele>
        <time>2019-03-11T17:36:48Z</time>
      </trkpt>
      <trkpt lat="32.28680863045156" lon="-5.390672665089369">
        <ele>1951.1300000000001</ele>
        <time>2019-03-11T17:36:49Z</time>
      </trkpt>
      <trkpt lat="32.286810390651226" lon="-5.390745922923088">
        <ele>1952.0899999999999</ele>
        <time>2019-03-11T17:36:50Z</time>
      </trkpt>
      <trkpt lat="32.286805780604482" lon="-5.390823120251298">
        <ele>1953.0599999999999</ele>
        <time>2019-03-11T17:36:51Z</time>
      </trkpt>
      <trkpt lat="32.286795051768422" lon="-5.39090140722692">
        <ele>1956.9000000000001</ele>
        <time>2019-03-11T17:37:02Z</time>
      </trkpt>
      <trkpt lat="32.286677453666925" lon="-5.391554944217205">
        <ele>1957.3800000000001</ele>
        <time>2019-03-11T17:37:09Z</time>
      </trkpt>
      <trkpt lat="32.286499170586467" lon="-5.392027515918016">
        <ele>1957.3800000000001</ele>
        <time>2019-03-11T17:37:21Z</time>
      </trkpt>
      <trkpt lat="32.286335472017527" lon="-5.39309780113399">
        <ele>1957.8599999999999</ele>
        <time>2019-03-11T17:37:31Z</time>
      </trkpt>
      <trkpt lat="32.286572093144059" lon="-5.394186191260815">
        <ele>1958.3399999999999</ele>
        <time>2019-03-11T17:37:35Z</time>
      </trkpt>
      <trkpt lat="32.286717100068927" lon="-5.394505290314555">
        <ele>1958.3399999999999</ele>
        <time>2019-03-11T17:37:36Z</time>
      </trkpt>
      <trkpt lat="32.286740737035871" lon="-5.394578296691179">
        <ele>1958.8199999999999</ele>
        <time>2019-03-11T17:37:37Z</time>
      </trkpt>
      <trkpt lat="32.286752639338374" lon="-5.394656918942928">
        <ele>1958.8199999999999</ele>
        <time>2019-03-11T17:37:38Z</time>
      </trkpt>
      <trkpt lat="32.286746772006154" lon="-5.394739396870136">
        <ele>1958.8199999999999</ele>
        <time>2019-03-11T17:37:39Z</time>
      </trkpt>
      <trkpt lat="32.286716094240546" lon="-5.394818941131234">
        <ele>1958.8199999999999</ele>
        <time>2019-03-11T17:37:40Z</time>
      </trkpt>
      <trkpt lat="32.286664294078946" lon="-5.394892282783985">
        <ele>1956.4200000000001</ele>
        <time>2019-03-11T17:37:41Z</time>
      </trkpt>
      <trkpt lat="32.286599669605494" lon="-5.394964870065451">
        <ele>1952.5699999999999</ele>
        <time>2019-03-11T17:37:42Z</time>
      </trkpt>
      <trkpt lat="32.286529513075948" lon="-5.395039133727551">
        <ele>1950.1700000000001</ele>
        <time>2019-03-11T17:37:47Z</time>
      </trkpt>
      <trkpt lat="32.286244528368115" lon="-5.395412798970938">
        <ele>1950.1700000000001</ele>
        <time>2019-03-11T17:37:52Z</time>
      </trkpt>
      <trkpt lat="32.286069933325052" lon="-5.395912863314152">
        <ele>1950.6500000000001</ele>
        <time>2019-03-11T17:37:57Z</time>
      </trkpt>
      <trkpt lat="32.286022659391165" lon="-5.396487442776561">
        <ele>1950.6500000000001</ele>
        <time>2019-03-11T17:37:58Z</time>
      </trkpt>
      <trkpt lat="32.286033220589161" lon="-5.396583583205938">
        <ele>1951.1300000000001</ele>
        <time>2019-03-11T17:37:59Z</time>
      </trkpt>
      <trkpt lat="32.286050990223885" lon="-5.396669497713447">
        <ele>1952.5699999999999</ele>
        <time>2019-03-11T17:38:00Z</time>
      </trkpt>
      <trkpt lat="32.286070352420211" lon="-5.396744096651673">
        <ele>1953.54</ele>
        <time>2019-03-11T17:38:01Z</time>
      </trkpt>
      <trkpt lat="32.286090217530727" lon="-5.396806625649333">
        <ele>1954.5</ele>
        <time>2019-03-11T17:38:03Z</time>
      </trkpt>
      <trkpt lat="32.286121482029557" lon="-5.396909639239311">
        <ele>1954.98</ele>
        <time>2019-03-11T17:38:04Z</time>
      </trkpt>
      <trkpt lat="32.286124331876636" lon="-5.396961774677038">
        <ele>1954.98</ele>
        <time>2019-03-11T17:38:05Z</time>
      </trkpt>
      <trkpt lat="32.28611427359283" lon="-5.397007958963513">
        <ele>1955.46</ele>
        <time>2019-03-11T17:38:06Z</time>
      </trkpt>
      <trkpt lat="32.286093151196837" lon="-5.39704542607069">
        <ele>1958.3399999999999</ele>
        <time>2019-03-11T17:38:07Z</time>
      </trkpt>
      <trkpt lat="32.286066077649593" lon="-5.397075433284044">
        <ele>1958.8199999999999</ele>
        <time>2019-03-11T17:38:08Z</time>
      </trkpt>
      <trkpt lat="32.286035483703017" lon="-5.397102171555162">
        <ele>1964.5899999999999</ele>
        <time>2019-03-11T17:38:15Z</time>
      </trkpt>
      <trkpt lat="32.285810764878988" lon="-5.397378271445632">
        <ele>1967.48</ele>
        <time>2019-03-11T17:38:16Z</time>
      </trkpt>
      <trkpt lat="32.285778997465968" lon="-5.397442309185863">
        <ele>1971.8</ele>
        <time>2019-03-11T17:38:25Z</time>
      </trkpt>
      <trkpt lat="32.285399045795202" lon="-5.398290390148759">
        <ele>1972.76</ele>
        <time>2019-03-11T17:38:30Z</time>
      </trkpt>
      <trkpt lat="32.28516292758286" lon="-5.398697080090642">
        <ele>1972.76</ele>
        <time>2019-03-11T17:38:41Z</time>
      </trkpt>
      <trkpt lat="32.284580301493406" lon="-5.399525295943022">
        <ele>1973.24</ele>
        <time>2019-03-11T17:38:46Z</time>
      </trkpt>
      <trkpt lat="32.284478880465031" lon="-5.399631578475237">
        <ele>1973.24</ele>
        <time>2019-03-11T17:38:47Z</time>
      </trkpt>
      <trkpt lat="32.284437641501427" lon="-5.399662926793098">
        <ele>1973.72</ele>
        <time>2019-03-11T17:38:55Z</time>
      </trkpt>
      <trkpt lat="32.283981833606958" lon="-5.399982612580061">
        <ele>1973.72</ele>
        <time>2019-03-11T17:38:56Z</time>
      </trkpt>
      <trkpt lat="32.283935649320483" lon="-5.400042962282896">
        <ele>1973.72</ele>
        <time>2019-03-11T17:38:59Z</time>
      </trkpt>
      <trkpt lat="32.283823918551207" lon="-5.400214036926627">
        <ele>1973.72</ele>
        <time>2019-03-11T17:39:00Z</time>
      </trkpt>
      <trkpt lat="32.283780081197619" lon="-5.400259466841817">
        <ele>1973.72</ele>
        <time>2019-03-11T17:39:01Z</time>
      </trkpt>
      <trkpt lat="32.283727694302797" lon="-5.400294503197074">
        <ele>1973.72</ele>
        <time>2019-03-11T17:39:02Z</time>
      </trkpt>
      <trkpt lat="32.283669272437692" lon="-5.400316966697574">
        <ele>1974.2</ele>
        <time>2019-03-11T17:39:03Z</time>
      </trkpt>
      <trkpt lat="32.283604647964239" lon="-5.400321576744318">
        <ele>1974.6900000000001</ele>
        <time>2019-03-11T17:39:04Z</time>
      </trkpt>
      <trkpt lat="32.283535748720169" lon="-5.400317218154669">
        <ele>1974.6900000000001</ele>
        <time>2019-03-11T17:39:08Z</time>
      </trkpt>
      <trkpt lat="32.283239113166928" lon="-5.400338005274534">
        <ele>1975.1700000000001</ele>
        <time>2019-03-11T17:39:09Z</time>
      </trkpt>
      <trkpt lat="32.283165100961924" lon="-5.400366084650159">
        <ele>1975.1700000000001</ele>
        <time>2019-03-11T17:39:10Z</time>
      </trkpt>
      <trkpt lat="32.283092262223363" lon="-5.400409167632461">
        <ele>1975.1700000000001</ele>
        <time>2019-03-11T17:39:11Z</time>
      </trkpt>
      <trkpt lat="32.283024955540895" lon="-5.400471109896898">
        <ele>1979.01</ele>
        <time>2019-03-11T17:39:12Z</time>
      </trkpt>
      <trkpt lat="32.282962175086141" lon="-5.400549815967679">
        <ele>1979.49</ele>
        <time>2019-03-11T17:39:13Z</time>
      </trkpt>
      <trkpt lat="32.282903585582972" lon="-5.400639921426773">
        <ele>1979.97</ele>
        <time>2019-03-11T17:39:22Z</time>
      </trkpt>
      <trkpt lat="32.282277038320899" lon="-5.401647845283151">
        <ele>1980.45</ele>
        <time>2019-03-11T17:39:24Z</time>
      </trkpt>
      <trkpt lat="32.282141502946615" lon="-5.4019112046808">
        <ele>1981.4100000000001</ele>
        <time>2019-03-11T17:39:25Z</time>
      </trkpt>
      <trkpt lat="32.282058270648122" lon="-5.402029138058424">
        <ele>1981.4100000000001</ele>
        <time>2019-03-11T17:39:26Z</time>
      </trkpt>
      <trkpt lat="32.281971015036106" lon="-5.402134247124195">
        <ele>1982.3800000000001</ele>
        <time>2019-03-11T17:39:29Z</time>
      </trkpt>
      <trkpt lat="32.281721904873848" lon="-5.402422165498138">
        <ele>1982.8599999999999</ele>
        <time>2019-03-11T17:39:30Z</time>
      </trkpt>
      <trkpt lat="32.281651077792048" lon="-5.402527023106813">
        <ele>1983.3399999999999</ele>
        <time>2019-03-11T17:39:40Z</time>
      </trkpt>
      <trkpt lat="32.28119719773531" lon="-5.403629746288061">
        <ele>1983.8199999999999</ele>
        <time>2019-03-11T17:39:41Z</time>
      </trkpt>
      <trkpt lat="32.281144140288234" lon="-5.403753714635968">
        <ele>1984.78</ele>
        <time>2019-03-11T17:39:42Z</time>
      </trkpt>
      <trkpt lat="32.281076498329639" lon="-5.403878018260002">
        <ele>1984.78</ele>
        <time>2019-03-11T17:39:43Z</time>
      </trkpt>
      <trkpt lat="32.280995445325971" lon="-5.404002908617258">
        <ele>1984.78</ele>
        <time>2019-03-11T17:39:51Z</time>
      </trkpt>
      <trkpt lat="32.28037778288126" lon="-5.404800781980157">
        <ele>1985.26</ele>
        <time>2019-03-11T17:39:52Z</time>
      </trkpt>
      <trkpt lat="32.280305195599794" lon="-5.404883595183492">
        <ele>1985.26</ele>
        <time>2019-03-11T17:39:53Z</time>
      </trkpt>
      <trkpt lat="32.280219700187445" lon="-5.40495433844626">
        <ele>1985.26</ele>
        <time>2019-03-11T17:39:54Z</time>
      </trkpt>
      <trkpt lat="32.280122302472591" lon="-5.405008904635906">
        <ele>1985.26</ele>
        <time>2019-03-11T17:39:55Z</time>
      </trkpt>
      <trkpt lat="32.280016019940376" lon="-5.405052406713367">
        <ele>1985.74</ele>
        <time>2019-03-11T17:39:56Z</time>
      </trkpt>
      <trkpt lat="32.279909234493971" lon="-5.405094567686319">
        <ele>1985.74</ele>
        <time>2019-03-11T17:40:03Z</time>
      </trkpt>
      <trkpt lat="32.279242957010865" lon="-5.405400758609176">
        <ele>1986.22</ele>
        <time>2019-03-11T17:40:04Z</time>
      </trkpt>
      <trkpt lat="32.279169196262956" lon="-5.405459934845567">
        <ele>1986.7</ele>
        <time>2019-03-11T17:40:05Z</time>
      </trkpt>
      <trkpt lat="32.279100716114044" lon="-5.405529504641891">
        <ele>1986.7</ele>
        <time>2019-03-11T17:40:06Z</time>
      </trkpt>
      <trkpt lat="32.279033241793513" lon="-5.40560812689364">
        <ele>1987.6600000000001</ele>
        <time>2019-03-11T17:40:07Z</time>
      </trkpt>
      <trkpt lat="32.278968282043934" lon="-5.405698483809829">
        <ele>1988.1400000000001</ele>
        <time>2019-03-11T17:40:08Z</time>
      </trkpt>
      <trkpt lat="32.278903657570481" lon="-5.405798060819507">
        <ele>1988.6199999999999</ele>
        <time>2019-03-11T17:40:11Z</time>
      </trkpt>
      <trkpt lat="32.278704168274999" lon="-5.406095534563065">
        <ele>1989.0999999999999</ele>
        <time>2019-03-11T17:40:12Z</time>
      </trkpt>
      <trkpt lat="32.27862655185163" lon="-5.406177677214146">
        <ele>1989.5899999999999</ele>
        <time>2019-03-11T17:40:13Z</time>
      </trkpt>
      <trkpt lat="32.278543571010232" lon="-5.406249342486262">
        <ele>1990.0699999999999</ele>
        <time>2019-03-11T17:40:14Z</time>
      </trkpt>
      <trkpt lat="32.278455058112741" lon="-5.406309943646193">
        <ele>1990.55</ele>
        <time>2019-03-11T17:40:15Z</time>
      </trkpt>
      <trkpt lat="32.278364701196551" lon="-5.40635914541781">
        <ele>1991.03</ele>
        <time>2019-03-11T17:40:16Z</time>
      </trkpt>
      <trkpt lat="32.278270488604903" lon="-5.406398540362716">
        <ele>1991.03</ele>
        <time>2019-03-11T17:40:17Z</time>
      </trkpt>
      <trkpt lat="32.278176359832287" lon="-5.406433828175068">
        <ele>1991.51</ele>
        <time>2019-03-11T17:40:18Z</time>
      </trkpt>
      <trkpt lat="32.278085583820939" lon="-5.40647741407156">
        <ele>1991.99</ele>
        <time>2019-03-11T17:40:19Z</time>
      </trkpt>
      <trkpt lat="32.277997909113765" lon="-5.406531225889921">
        <ele>1992.47</ele>
        <time>2019-03-11T17:40:20Z</time>
      </trkpt>
      <trkpt lat="32.277916017919779" lon="-5.406593754887581">
        <ele>1992.47</ele>
        <time>2019-03-11T17:40:21Z</time>
      </trkpt>
      <trkpt lat="32.27784133516252" lon="-5.406663157045841">
        <ele>1992.95</ele>
        <time>2019-03-11T17:40:22Z</time>
      </trkpt>
      <trkpt lat="32.277778554707766" lon="-5.406736833974719">
        <ele>1993.4300000000001</ele>
        <time>2019-03-11T17:40:23Z</time>
      </trkpt>
      <trkpt lat="32.277727257460356" lon="-5.40681847371161">
        <ele>1993.9100000000001</ele>
        <time>2019-03-11T17:40:24Z</time>
      </trkpt>
      <trkpt lat="32.277687443420291" lon="-5.40690740570426">
        <ele>1994.8699999999999</ele>
        <time>2019-03-11T17:40:25Z</time>
      </trkpt>
      <trkpt lat="32.277658442035317" lon="-5.407005390152335">
        <ele>1995.3499999999999</ele>
        <time>2019-03-11T17:40:26Z</time>
      </trkpt>
      <trkpt lat="32.277638493105769" lon="-5.40711167268455">
        <ele>1996.3199999999999</ele>
        <time>2019-03-11T17:40:27Z</time>
      </trkpt>
      <trkpt lat="32.277625082060695" lon="-5.407223235815764">
        <ele>1996.8</ele>
        <time>2019-03-11T17:40:28Z</time>
      </trkpt>
      <trkpt lat="32.277616783976555" lon="-5.407340582460165">
        <ele>1997.28</ele>
        <time>2019-03-11T17:40:30Z</time>
      </trkpt>
      <trkpt lat="32.277588620781898" lon="-5.40758709423244">
        <ele>1997.76</ele>
        <time>2019-03-11T17:40:31Z</time>
      </trkpt>
      <trkpt lat="32.277558362111449" lon="-5.407710475847125">
        <ele>1997.76</ele>
        <time>2019-03-11T17:40:32Z</time>
      </trkpt>
      <trkpt lat="32.277514357119799" lon="-5.407830839976668">
        <ele>1998.24</ele>
        <time>2019-03-11T17:40:33Z</time>
      </trkpt>
      <trkpt lat="32.277450654655695" lon="-5.407944582402706">
        <ele>1998.72</ele>
        <time>2019-03-11T17:40:34Z</time>
      </trkpt>
      <trkpt lat="32.277362225577235" lon="-5.408049104735255">
        <ele>1999.2</ele>
        <time>2019-03-11T17:40:35Z</time>
      </trkpt>
      <trkpt lat="32.277254015207291" lon="-5.408143904060125">
        <ele>1999.6800000000001</ele>
        <time>2019-03-11T17:40:36Z</time>
      </trkpt>
      <trkpt lat="32.277132393792272" lon="-5.408232165500522">
        <ele>2001.5999999999999</ele>
        <time>2019-03-11T17:40:37Z</time>
      </trkpt>
      <trkpt lat="32.277006497606635" lon="-5.408312128856778">
        <ele>2001.5999999999999</ele>
        <time>2019-03-11T17:40:38Z</time>
      </trkpt>
      <trkpt lat="32.276878589764237" lon="-5.40838404558599">
        <ele>2001.5999999999999</ele>
        <time>2019-03-11T17:40:43Z</time>
      </trkpt>
      <trkpt lat="32.276351703330874" lon="-5.408743126317859">
        <ele>2002.0799999999999</ele>
        <time>2019-03-11T17:40:44Z</time>
      </trkpt>
      <trkpt lat="32.276288587599993" lon="-5.40882870554924">
        <ele>2002.5599999999999</ele>
        <time>2019-03-11T17:40:45Z</time>
      </trkpt>
      <trkpt lat="32.276237960904837" lon="-5.408932976424694">
        <ele>2003.52</ele>
        <time>2019-03-11T17:40:46Z</time>
      </trkpt>
      <trkpt lat="32.276203846558928" lon="-5.409055519849062">
        <ele>2005.9300000000001</ele>
        <time>2019-03-11T17:40:47Z</time>
      </trkpt>
      <trkpt lat="32.276181383058429" lon="-5.409192983061075">
        <ele>2006.4100000000001</ele>
        <time>2019-03-11T17:40:48Z</time>
      </trkpt>
      <trkpt lat="32.276158835738897" lon="-5.409340839833021">
        <ele>2006.8900000000001</ele>
        <time>2019-03-11T17:40:51Z</time>
      </trkpt>
      <trkpt lat="32.276074178516865" lon="-5.409782314673066">
        <ele>2006.8900000000001</ele>
        <time>2019-03-11T17:40:52Z</time>
      </trkpt>
      <trkpt lat="32.276034113019705" lon="-5.409900583326817">
        <ele>2006.8900000000001</ele>
        <time>2019-03-11T17:40:53Z</time>
      </trkpt>
      <trkpt lat="32.275978457182646" lon="-5.410010805353522">
        <ele>2006.8900000000001</ele>
        <time>2019-03-11T17:40:54Z</time>
      </trkpt>
      <trkpt lat="32.275906540453434" lon="-5.410115076228976">
        <ele>2006.8900000000001</ele>
        <time>2019-03-11T17:40:55Z</time>
      </trkpt>
      <trkpt lat="32.27581450715661" lon="-5.410209959372878">
        <ele>2004.49</ele>
        <time>2019-03-11T17:40:56Z</time>
      </trkpt>
      <trkpt lat="32.275701854377985" lon="-5.410297382622957">
        <ele>2004.49</ele>
        <time>2019-03-11T17:40:57Z</time>
      </trkpt>
      <trkpt lat="32.275576293468475" lon="-5.410381201654673">
        <ele>2004.49</ele>
        <time>2019-03-11T17:41:06Z</time>
      </trkpt>
      <trkpt lat="32.274403749033809" lon="-5.410871710628271">
        <ele>2004.49</ele>
        <time>2019-03-11T17:41:09Z</time>
      </trkpt>
      <trkpt lat="32.274045674130321" lon="-5.410991068929434">
        <ele>2005.45</ele>
        <time>2019-03-11T17:41:10Z</time>
      </trkpt>
      <trkpt lat="32.273936457931995" lon="-5.411048904061317">
        <ele>2005.9300000000001</ele>
        <time>2019-03-11T17:41:11Z</time>
      </trkpt>
      <trkpt lat="32.273832354694605" lon="-5.411121156066656">
        <ele>2005.9300000000001</ele>
        <time>2019-03-11T17:41:15Z</time>
      </trkpt>
      <trkpt lat="32.273454749956727" lon="-5.411455426365137">
        <ele>2006.4100000000001</ele>
        <time>2019-03-11T17:41:16Z</time>
      </trkpt>
      <trkpt lat="32.273379229009151" lon="-5.41155818849802">
        <ele>2006.8900000000001</ele>
        <time>2019-03-11T17:41:17Z</time>
      </trkpt>
      <trkpt lat="32.273309491574764" lon="-5.411674110218883">
        <ele>2006.8900000000001</ele>
        <time>2019-03-11T17:41:18Z</time>
      </trkpt>
      <trkpt lat="32.273245118558407" lon="-5.41179807856679">
        <ele>2007.8499999999999</ele>
        <time>2019-03-11T17:41:19Z</time>
      </trkpt>
      <trkpt lat="32.27318954654038" lon="-5.411922801285982">
        <ele>2008.3299999999999</ele>
        <time>2019-03-11T17:41:20Z</time>
      </trkpt>
      <trkpt lat="32.273142775520682" lon="-5.412047859281302">
        <ele>2012.6600000000001</ele>
        <time>2019-03-11T17:41:21Z</time>
      </trkpt>
      <trkpt lat="32.273103129118681" lon="-5.412181047722697">
        <ele>2013.6199999999999</ele>
        <time>2019-03-11T17:41:22Z</time>
      </trkpt>
      <trkpt lat="32.273067338392138" lon="-5.412318091839552">
        <ele>2014.5799999999999</ele>
        <time>2019-03-11T17:41:28Z</time>
      </trkpt>
      <trkpt lat="32.272793585434556" lon="-5.412968192249537">
        <ele>2015.54</ele>
        <time>2019-03-11T17:41:29Z</time>
      </trkpt>
      <trkpt lat="32.272719740867615" lon="-5.413061147555709">
        <ele>2016.5</ele>
        <time>2019-03-11T17:41:30Z</time>
      </trkpt>
      <trkpt lat="32.272630725055933" lon="-5.413139937445521">
        <ele>2017.46</ele>
        <time>2019-03-11T17:41:31Z</time>
      </trkpt>
      <trkpt lat="32.272524777799845" lon="-5.413203472271562">
        <ele>2018.4300000000001</ele>
        <time>2019-03-11T17:41:32Z</time>
      </trkpt>
      <trkpt lat="32.272405587136745" lon="-5.413243873044848">
        <ele>2019.3900000000001</ele>
        <time>2019-03-11T17:41:33Z</time>
      </trkpt>
      <trkpt lat="32.27227633818984" lon="-5.413271868601441">
        <ele>2020.8299999999999</ele>
        <time>2019-03-11T17:41:34Z</time>
      </trkpt>
      <trkpt lat="32.272140299901366" lon="-5.413290979340673">
        <ele>2021.79</ele>
        <time>2019-03-11T17:41:35Z</time>
      </trkpt>
      <trkpt lat="32.272002166137099" lon="-5.413297433406115">
        <ele>2023.71</ele>
        <time>2019-03-11T17:41:36Z</time>
      </trkpt>
      <trkpt lat="32.27187124080956" lon="-5.413289554417133">
        <ele>2024.1900000000001</ele>
        <time>2019-03-11T17:41:37Z</time>
      </trkpt>
      <trkpt lat="32.271749284118414" lon="-5.413273209705949">
        <ele>2024.6700000000001</ele>
        <time>2019-03-11T17:41:39Z</time>
      </trkpt>
      <trkpt lat="32.271531438454986" lon="-5.413250327110291">
        <ele>2025.6400000000001</ele>
        <time>2019-03-11T17:41:40Z</time>
      </trkpt>
      <trkpt lat="32.271426999941468" lon="-5.413270443677902">
        <ele>2026.1199999999999</ele>
        <time>2019-03-11T17:41:41Z</time>
      </trkpt>
      <trkpt lat="32.271321974694729" lon="-5.413321405649185">
        <ele>2028.52</ele>
        <time>2019-03-11T17:41:42Z</time>
      </trkpt>
      <trkpt lat="32.271214770153165" lon="-5.413396339863539">
        <ele>2029</ele>
        <time>2019-03-11T17:41:43Z</time>
      </trkpt>
      <trkpt lat="32.271103374660015" lon="-5.413489127531648">
        <ele>2029.96</ele>
        <time>2019-03-11T17:41:47Z</time>
      </trkpt>
      <trkpt lat="32.270647147670388" lon="-5.413840999826789">
        <ele>2031.4000000000001</ele>
        <time>2019-03-11T17:41:48Z</time>
      </trkpt>
      <trkpt lat="32.270539691671729" lon="-5.413891542702913">
        <ele>2032.3599999999999</ele>
        <time>2019-03-11T17:41:49Z</time>
      </trkpt>
      <trkpt lat="32.270433660596609" lon="-5.413916856050491">
        <ele>2033.8099999999999</ele>
        <time>2019-03-11T17:41:50Z</time>
      </trkpt>
      <trkpt lat="32.270336179062724" lon="-5.413918951526284">
        <ele>2034.29</ele>
        <time>2019-03-11T17:41:51Z</time>
      </trkpt>
      <trkpt lat="32.270248336717486" lon="-5.413907216861844">
        <ele>2035.25</ele>
        <time>2019-03-11T17:41:52Z</time>
      </trkpt>
      <trkpt lat="32.270174659788609" lon="-5.413909563794732">
        <ele>2035.73</ele>
        <time>2019-03-11T17:41:53Z</time>
      </trkpt>
      <trkpt lat="32.270120680332184" lon="-5.413938816636801">
        <ele>2036.21</ele>
        <time>2019-03-11T17:41:54Z</time>
      </trkpt>
      <trkpt lat="32.270092098042369" lon="-5.413991203531623">
        <ele>2036.6900000000001</ele>
        <time>2019-03-11T17:41:55Z</time>
      </trkpt>
      <trkpt lat="32.270092768594623" lon="-5.414052559062839">
        <ele>2037.1700000000001</ele>
        <time>2019-03-11T17:41:56Z</time>
      </trkpt>
      <trkpt lat="32.27011414244771" lon="-5.414115507155657">
        <ele>2037.1700000000001</ele>
        <time>2019-03-11T17:41:57Z</time>
      </trkpt>
      <trkpt lat="32.270146999508142" lon="-5.414177281782031">
        <ele>2037.6500000000001</ele>
        <time>2019-03-11T17:41:58Z</time>
      </trkpt>
      <trkpt lat="32.270193183794618" lon="-5.414234613999724">
        <ele>2038.6099999999999</ele>
        <time>2019-03-11T17:41:59Z</time>
      </trkpt>
      <trkpt lat="32.270248336717486" lon="-5.414283145219088">
        <ele>2039.0899999999999</ele>
        <time>2019-03-11T17:42:00Z</time>
      </trkpt>
      <trkpt lat="32.270307680591941" lon="-5.414326563477516">
        <ele>2039.0899999999999</ele>
        <time>2019-03-11T17:42:03Z</time>
      </trkpt>
      <trkpt lat="32.270471965894103" lon="-5.414460506290197">
        <ele>2039.0899999999999</ele>
        <time>2019-03-11T17:42:04Z</time>
      </trkpt>
      <trkpt lat="32.270500045269728" lon="-5.414505433291197">
        <ele>2039.5699999999999</ele>
        <time>2019-03-11T17:42:05Z</time>
      </trkpt>
      <trkpt lat="32.270513540133834" lon="-5.414552623406053">
        <ele>2040.05</ele>
        <time>2019-03-11T17:42:06Z</time>
      </trkpt>
      <trkpt lat="32.270516725257039" lon="-5.414602244272828">
        <ele>2040.05</ele>
        <time>2019-03-11T17:42:07Z</time>
      </trkpt>
      <trkpt lat="32.270505577325821" lon="-5.414653792977333">
        <ele>2040.05</ele>
        <time>2019-03-11T17:42:08Z</time>
      </trkpt>
      <trkpt lat="32.270481018349528" lon="-5.414704252034426">
        <ele>2040.54</ele>
        <time>2019-03-11T17:42:09Z</time>
      </trkpt>
      <trkpt lat="32.270439695566893" lon="-5.414750184863806">
        <ele>2040.54</ele>
        <time>2019-03-11T17:42:10Z</time>
      </trkpt>
      <trkpt lat="32.270388230681419" lon="-5.414793016389012">
        <ele>2040.54</ele>
        <time>2019-03-11T17:42:11Z</time>
      </trkpt>
      <trkpt lat="32.270335424691439" lon="-5.414838446304202">
        <ele>2041.02</ele>
        <time>2019-03-11T17:42:12Z</time>
      </trkpt>
      <trkpt lat="32.270288234576583" lon="-5.414886139333248">
        <ele>2041.02</ele>
        <time>2019-03-11T17:42:13Z</time>
      </trkpt>
      <trkpt lat="32.270249845460057" lon="-5.414941040799022">
        <ele>2041.02</ele>
        <time>2019-03-11T17:42:14Z</time>
      </trkpt>
      <trkpt lat="32.270219167694449" lon="-5.415008096024394">
        <ele>2041.02</ele>
        <time>2019-03-11T17:42:15Z</time>
      </trkpt>
      <trkpt lat="32.270203661173582" lon="-5.41508948430419">
        <ele>2040.54</ele>
        <time>2019-03-11T17:42:16Z</time>
      </trkpt>
      <trkpt lat="32.270205086097121" lon="-5.415183864533901">
        <ele>2040.54</ele>
        <time>2019-03-11T17:42:17Z</time>
      </trkpt>
      <trkpt lat="32.270219838246703" lon="-5.415286961942911">
        <ele>2040.05</ele>
        <time>2019-03-11T17:42:18Z</time>
      </trkpt>
      <trkpt lat="32.270241882652044" lon="-5.415394334122539">
        <ele>2039.5699999999999</ele>
        <time>2019-03-11T17:42:19Z</time>
      </trkpt>
      <trkpt lat="32.270273147150874" lon="-5.415498856455088">
        <ele>2039.0899999999999</ele>
        <time>2019-03-11T17:42:20Z</time>
      </trkpt>
      <trkpt lat="32.270306842401624" lon="-5.415597259998322">
        <ele>2038.6099999999999</ele>
        <time>2019-03-11T17:42:21Z</time>
      </trkpt>
      <trkpt lat="32.270333832129836" lon="-5.415693484246731">
        <ele>2038.1300000000001</ele>
        <time>2019-03-11T17:42:22Z</time>
      </trkpt>
      <trkpt lat="32.270344309508801" lon="-5.415787529200316">
        <ele>2037.6500000000001</ele>
        <time>2019-03-11T17:42:23Z</time>
      </trkpt>
      <trkpt lat="32.270327294245362" lon="-5.415877131745219">
        <ele>2037.1700000000001</ele>
        <time>2019-03-11T17:42:24Z</time>
      </trkpt>
      <trkpt lat="32.270286474376917" lon="-5.41596757248044">
        <ele>2036.6900000000001</ele>
        <time>2019-03-11T17:42:25Z</time>
      </trkpt>
      <trkpt lat="32.270236685872078" lon="-5.416058851405978">
        <ele>2036.6900000000001</ele>
        <time>2019-03-11T17:42:26Z</time>
      </trkpt>
      <trkpt lat="32.270195111632347" lon="-5.41615373454988">
        <ele>2036.21</ele>
        <time>2019-03-11T17:42:27Z</time>
      </trkpt>
      <trkpt lat="32.270170468837023" lon="-5.416257586330175">
        <ele>2036.21</ele>
        <time>2019-03-11T17:42:28Z</time>
      </trkpt>
      <trkpt lat="32.270161751657724" lon="-5.416369149461389">
        <ele>2035.25</ele>
        <time>2019-03-11T17:42:29Z</time>
      </trkpt>
      <trkpt lat="32.270166613161564" lon="-5.416486831381917">
        <ele>2035.25</ele>
        <time>2019-03-11T17:42:30Z</time>
      </trkpt>
      <trkpt lat="32.270179186016321" lon="-5.416604680940509">
        <ele>2035.25</ele>
        <time>2019-03-11T17:42:33Z</time>
      </trkpt>
      <trkpt lat="32.27022260427475" lon="-5.416995109990239">
        <ele>2035.73</ele>
        <time>2019-03-11T17:42:34Z</time>
      </trkpt>
      <trkpt lat="32.270220760256052" lon="-5.417138356715441">
        <ele>2035.73</ele>
        <time>2019-03-11T17:42:35Z</time>
      </trkpt>
      <trkpt lat="32.270207433030009" lon="-5.417285962030292">
        <ele>2036.21</ele>
        <time>2019-03-11T17:42:36Z</time>
      </trkpt>
      <trkpt lat="32.270184298977256" lon="-5.417440608143807">
        <ele>2036.6900000000001</ele>
        <time>2019-03-11T17:42:37Z</time>
      </trkpt>
      <trkpt lat="32.270148927345872" lon="-5.417598858475685">
        <ele>2037.6500000000001</ele>
        <time>2019-03-11T17:42:38Z</time>
      </trkpt>
      <trkpt lat="32.270100312307477" lon="-5.417750151827931">
        <ele>2038.6099999999999</ele>
        <time>2019-03-11T17:42:39Z</time>
      </trkpt>
      <trkpt lat="32.270037615671754" lon="-5.417890464887023">
        <ele>2039.5699999999999</ele>
        <time>2019-03-11T17:42:40Z</time>
      </trkpt>
      <trkpt lat="32.269959077239037" lon="-5.418015522882342">
        <ele>2040.54</ele>
        <time>2019-03-11T17:42:41Z</time>
      </trkpt>
      <trkpt lat="32.269869055598974" lon="-5.418124739080668">
        <ele>2041.5</ele>
        <time>2019-03-11T17:42:42Z</time>
      </trkpt>
      <trkpt lat="32.269772244617343" lon="-5.418219957500696">
        <ele>2041.98</ele>
        <time>2019-03-11T17:42:43Z</time>
      </trkpt>
      <trkpt lat="32.2696777805686" lon="-5.418304111808538">
        <ele>2042.9400000000001</ele>
        <time>2019-03-11T17:42:45Z</time>
      </trkpt>
      <trkpt lat="32.269511986523867" lon="-5.41848499327898">
        <ele>2052.5500000000002</ele>
        <time>2019-03-11T17:42:46Z</time>
      </trkpt>
      <trkpt lat="32.269438561052084" lon="-5.418591946363449">
        <ele>2053.9899999999998</ele>
        <time>2019-03-11T17:42:47Z</time>
      </trkpt>
      <trkpt lat="32.269369158893824" lon="-5.418706694617868">
        <ele>2054.96</ele>
        <time>2019-03-11T17:42:57Z</time>
      </trkpt>
      <trkpt lat="32.26875769905746" lon="-5.420009326189756">
        <ele>2055.9200000000001</ele>
        <time>2019-03-11T17:42:58Z</time>
      </trkpt>
      <trkpt lat="32.268727943301201" lon="-5.420140754431486">
        <ele>2056.8800000000001</ele>
        <time>2019-03-11T17:42:59Z</time>
      </trkpt>
      <trkpt lat="32.268708413466811" lon="-5.420277044177055">
        <ele>2059.2800000000002</ele>
        <time>2019-03-11T17:43:00Z</time>
      </trkpt>
      <trkpt lat="32.268699863925576" lon="-5.420415848493576">
        <ele>2060.2399999999998</ele>
        <time>2019-03-11T17:43:01Z</time>
      </trkpt>
      <trkpt lat="32.268697516992688" lon="-5.420558424666524">
        <ele>2061.1999999999998</ele>
        <time>2019-03-11T17:43:03Z</time>
      </trkpt>
      <trkpt lat="32.268681759014726" lon="-5.4208377096802">
        <ele>2063.1300000000001</ele>
        <time>2019-03-11T17:43:04Z</time>
      </trkpt>
      <trkpt lat="32.268648650497198" lon="-5.420970814302564">
        <ele>2064.0900000000001</ele>
        <time>2019-03-11T17:43:05Z</time>
      </trkpt>
      <trkpt lat="32.268596012145281" lon="-5.421100063249469">
        <ele>2065.0500000000002</ele>
        <time>2019-03-11T17:43:07Z</time>
      </trkpt>
      <trkpt lat="32.268472043797374" lon="-5.421368703246117">
        <ele>2067.4499999999998</ele>
        <time>2019-03-11T17:43:08Z</time>
      </trkpt>
      <trkpt lat="32.268428709357977" lon="-5.421516140922904">
        <ele>2068.4099999999999</ele>
        <time>2019-03-11T17:43:09Z</time>
      </trkpt>
      <trkpt lat="32.268402641639113" lon="-5.421665841713548">
        <ele>2069.8600000000001</ele>
        <time>2019-03-11T17:43:11Z</time>
      </trkpt>
      <trkpt lat="32.268350338563323" lon="-5.421958118677139">
        <ele>2075.1399999999999</ele>
        <time>2019-03-11T17:43:12Z</time>
      </trkpt>
      <trkpt lat="32.268295185640454" lon="-5.422103712335229">
        <ele>2076.5900000000001</ele>
        <time>2019-03-11T17:43:13Z</time>
      </trkpt>
      <trkpt lat="32.268226621672511" lon="-5.422250060364604">
        <ele>2078.0300000000002</ele>
        <time>2019-03-11T17:43:17Z</time>
      </trkpt>
      <trkpt lat="32.267950437963009" lon="-5.422759428620338">
        <ele>2079.4699999999998</ele>
        <time>2019-03-11T17:43:18Z</time>
      </trkpt>
      <trkpt lat="32.267867121845484" lon="-5.422844840213656">
        <ele>2080.9099999999999</ele>
        <time>2019-03-11T17:43:19Z</time>
      </trkpt>
      <trkpt lat="32.267770143225789" lon="-5.422907033935189">
        <ele>2081.8699999999999</ele>
        <time>2019-03-11T17:43:20Z</time>
      </trkpt>
      <trkpt lat="32.267670398578048" lon="-5.422948440536857">
        <ele>2082.8299999999999</ele>
        <time>2019-03-11T17:43:21Z</time>
      </trkpt>
      <trkpt lat="32.267578197643161" lon="-5.42298037558794">
        <ele>2083.79</ele>
        <time>2019-03-11T17:43:22Z</time>
      </trkpt>
      <trkpt lat="32.267494965344667" lon="-5.423019351437688">
        <ele>2084.7600000000002</ele>
        <time>2019-03-11T17:43:23Z</time>
      </trkpt>
      <trkpt lat="32.26741936057806" lon="-5.423071570694447">
        <ele>2085.7199999999998</ele>
        <time>2019-03-11T17:43:24Z</time>
      </trkpt>
      <trkpt lat="32.267350796610117" lon="-5.423140050843358">
        <ele>2086.6799999999998</ele>
        <time>2019-03-11T17:43:25Z</time>
      </trkpt>
      <trkpt lat="32.267293883487582" lon="-5.423224708065391">
        <ele>2089.5599999999999</ele>
        <time>2019-03-11T17:43:26Z</time>
      </trkpt>
      <trkpt lat="32.267245939001441" lon="-5.423319926485419">
        <ele>2091</ele>
        <time>2019-03-11T17:43:27Z</time>
      </trkpt>
      <trkpt lat="32.267198665067554" lon="-5.423420174047351">
        <ele>2092.4499999999998</ele>
        <time>2019-03-11T17:43:30Z</time>
      </trkpt>
      <trkpt lat="32.267043180763721" lon="-5.423711445182562">
        <ele>2093.4099999999999</ele>
        <time>2019-03-11T17:43:31Z</time>
      </trkpt>
      <trkpt lat="32.26697419770062" lon="-5.423781601712108">
        <ele>2094.8499999999999</ele>
        <time>2019-03-11T17:43:32Z</time>
      </trkpt>
      <trkpt lat="32.266891216859221" lon="-5.423829294741154">
        <ele>2095.8099999999999</ele>
        <time>2019-03-11T17:43:33Z</time>
      </trkpt>
      <trkpt lat="32.26679977029562" lon="-5.423861732706428">
        <ele>2096.77</ele>
        <time>2019-03-11T17:43:34Z</time>
      </trkpt>
      <trkpt lat="32.266705641523004" lon="-5.423891823738813">
        <ele>2097.73</ele>
        <time>2019-03-11T17:43:35Z</time>
      </trkpt>
      <trkpt lat="32.266611680388451" lon="-5.423931553959847">
        <ele>2098.6999999999998</ele>
        <time>2019-03-11T17:43:36Z</time>
      </trkpt>
      <trkpt lat="32.266522413119674" lon="-5.423984527587891">
        <ele>2099.6599999999999</ele>
        <time>2019-03-11T17:43:37Z</time>
      </trkpt>
      <trkpt lat="32.266436666250229" lon="-5.424053510650992">
        <ele>2102.0599999999999</ele>
        <time>2019-03-11T17:43:38Z</time>
      </trkpt>
      <trkpt lat="32.266357121989131" lon="-5.424138838425279">
        <ele>2103.02</ele>
        <time>2019-03-11T17:43:39Z</time>
      </trkpt>
      <trkpt lat="32.266279924660921" lon="-5.424231374636293">
        <ele>2106.8699999999999</ele>
        <time>2019-03-11T17:43:43Z</time>
      </trkpt>
      <trkpt lat="32.265975074842572" lon="-5.424672598019242">
        <ele>2107.3499999999999</ele>
        <time>2019-03-11T17:43:44Z</time>
      </trkpt>
      <trkpt lat="32.265913803130388" lon="-5.424801511690021">
        <ele>2107.3499999999999</ele>
        <time>2019-03-11T17:43:50Z</time>
      </trkpt>
      <trkpt lat="32.265591770410538" lon="-5.425553536042571">
        <ele>2107.8299999999999</ele>
        <time>2019-03-11T17:43:51Z</time>
      </trkpt>
      <trkpt lat="32.265522954985499" lon="-5.425646491348743">
        <ele>2107.8299999999999</ele>
        <time>2019-03-11T17:43:52Z</time>
      </trkpt>
      <trkpt lat="32.265437878668308" lon="-5.425724610686302">
        <ele>2108.3099999999999</ele>
        <time>2019-03-11T17:43:53Z</time>
      </trkpt>
      <trkpt lat="32.26533536799252" lon="-5.425785211846232">
        <ele>2108.79</ele>
        <time>2019-03-11T17:43:54Z</time>
      </trkpt>
      <trkpt lat="32.265227828174829" lon="-5.425843466073275">
        <ele>2108.79</ele>
        <time>2019-03-11T17:44:03Z</time>
      </trkpt>
      <trkpt lat="32.264456273987889" lon="-5.426433468237519">
        <ele>2109.27</ele>
        <time>2019-03-11T17:44:04Z</time>
      </trkpt>
      <trkpt lat="32.264403635635972" lon="-5.426481245085597">
        <ele>2109.75</ele>
        <time>2019-03-11T17:44:05Z</time>
      </trkpt>
      <trkpt lat="32.26435367949307" lon="-5.426513683050871">
        <ele>2109.75</ele>
        <time>2019-03-11T17:44:06Z</time>
      </trkpt>
      <trkpt lat="32.264302298426628" lon="-5.426529943943024">
        <ele>2109.75</ele>
        <time>2019-03-11T17:44:07Z</time>
      </trkpt>
      <trkpt lat="32.264247061684728" lon="-5.426524914801121">
        <ele>2109.75</ele>
        <time>2019-03-11T17:44:08Z</time>
      </trkpt>
      <trkpt lat="32.26418755017221" lon="-5.42649851180613">
        <ele>2109.75</ele>
        <time>2019-03-11T17:44:09Z</time>
      </trkpt>
      <trkpt lat="32.264123847708106" lon="-5.426455764099956">
        <ele>2109.75</ele>
        <time>2019-03-11T17:44:10Z</time>
      </trkpt>
      <trkpt lat="32.264060480520129" lon="-5.426402203738689">
        <ele>2109.27</ele>
        <time>2019-03-11T17:44:11Z</time>
      </trkpt>
      <trkpt lat="32.263998035341501" lon="-5.426350487396121">
        <ele>2109.75</ele>
        <time>2019-03-11T17:44:12Z</time>
      </trkpt>
      <trkpt lat="32.263925699517131" lon="-5.426310421898961">
        <ele>2109.75</ele>
        <time>2019-03-11T17:44:13Z</time>
      </trkpt>
      <trkpt lat="32.263839701190591" lon="-5.426285527646542">
        <ele>2109.27</ele>
        <time>2019-03-11T17:44:14Z</time>
      </trkpt>
      <trkpt lat="32.263747919350863" lon="-5.426276978105307">
        <ele>2109.27</ele>
        <time>2019-03-11T17:44:15Z</time>
      </trkpt>
      <trkpt lat="32.263650773093104" lon="-5.426286449655891">
        <ele>2108.79</ele>
        <time>2019-03-11T17:44:16Z</time>
      </trkpt>
      <trkpt lat="32.263547675684094" lon="-5.426318719983101">
        <ele>2108.79</ele>
        <time>2019-03-11T17:44:17Z</time>
      </trkpt>
      <trkpt lat="32.263449607416987" lon="-5.426364820450544">
        <ele>2108.79</ele>
        <time>2019-03-11T17:44:18Z</time>
      </trkpt>
      <trkpt lat="32.263358663767576" lon="-5.426419554278255">
        <ele>2108.79</ele>
        <time>2019-03-11T17:44:19Z</time>
      </trkpt>
      <trkpt lat="32.263275096192956" lon="-5.426481664180756">
        <ele>2108.79</ele>
        <time>2019-03-11T17:44:20Z</time>
      </trkpt>
      <trkpt lat="32.263198401778936" lon="-5.426554167643189">
        <ele>2108.3099999999999</ele>
        <time>2019-03-11T17:44:21Z</time>
      </trkpt>
      <trkpt lat="32.26312673650682" lon="-5.426639411598444">
        <ele>2108.3099999999999</ele>
        <time>2019-03-11T17:44:22Z</time>
      </trkpt>
      <trkpt lat="32.263056999072433" lon="-5.426736390218139">
        <ele>2108.3099999999999</ele>
        <time>2019-03-11T17:44:23Z</time>
      </trkpt>
      <trkpt lat="32.262991787865758" lon="-5.426831524819136">
        <ele>2108.3099999999999</ele>
        <time>2019-03-11T17:44:25Z</time>
      </trkpt>
      <trkpt lat="32.262861113995314" lon="-5.42699639685452">
        <ele>2107.8299999999999</ele>
        <time>2019-03-11T17:44:26Z</time>
      </trkpt>
      <trkpt lat="32.262777714058757" lon="-5.427061272785068">
        <ele>2107.3499999999999</ele>
        <time>2019-03-11T17:44:27Z</time>
      </trkpt>
      <trkpt lat="32.262679226696491" lon="-5.427112989127636">
        <ele>2106.8699999999999</ele>
        <time>2019-03-11T17:44:31Z</time>
      </trkpt>
      <trkpt lat="32.262268345803022" lon="-5.427298229187727">
        <ele>2106.3899999999999</ele>
        <time>2019-03-11T17:44:32Z</time>
      </trkpt>
      <trkpt lat="32.262170277535915" lon="-5.42735849507153">
        <ele>2106.3899999999999</ele>
        <time>2019-03-11T17:44:33Z</time>
      </trkpt>
      <trkpt lat="32.262080255895853" lon="-5.427429154515266">
        <ele>2106.3899999999999</ele>
        <time>2019-03-11T17:44:34Z</time>
      </trkpt>
      <trkpt lat="32.261999538168311" lon="-5.427500316873193">
        <ele>2109.75</ele>
        <time>2019-03-11T17:44:35Z</time>
      </trkpt>
      <trkpt lat="32.26192913018167" lon="-5.427568461745977">
        <ele>2114.5599999999999</ele>
        <time>2019-03-11T17:44:43Z</time>
      </trkpt>
      <trkpt lat="32.261538784950972" lon="-5.427937349304557">
        <ele>2116</ele>
        <time>2019-03-11T17:44:52Z</time>
      </trkpt>
      <trkpt lat="32.260877871885896" lon="-5.428518215194345">
        <ele>2117.4400000000001</ele>
        <time>2019-03-11T17:44:56Z</time>
      </trkpt>
      <trkpt lat="32.260442096740007" lon="-5.428890623152256">
        <ele>2130.4200000000001</ele>
        <time>2019-03-11T17:44:57Z</time>
      </trkpt>
      <trkpt lat="32.260339669883251" lon="-5.429025404155254">
        <ele>2133.7800000000002</ele>
        <time>2019-03-11T17:44:58Z</time>
      </trkpt>
      <trkpt lat="32.260241014882922" lon="-5.429172925651074">
        <ele>2135.23</ele>
        <time>2019-03-11T17:45:05Z</time>
      </trkpt>
      <trkpt lat="32.259484212845564" lon="-5.430138688534498">
        <ele>2136.1900000000001</ele>
        <time>2019-03-11T17:45:07Z</time>
      </trkpt>
      <trkpt lat="32.259345157071948" lon="-5.430321414023638">
        <ele>2138.5900000000001</ele>
        <time>2019-03-11T17:45:08Z</time>
      </trkpt>
      <trkpt lat="32.259305762127042" lon="-5.430419314652681">
        <ele>2139.5500000000002</ele>
        <time>2019-03-11T17:45:09Z</time>
      </trkpt>
      <trkpt lat="32.259287154302001" lon="-5.430519729852676">
        <ele>2140.9899999999998</ele>
        <time>2019-03-11T17:45:11Z</time>
      </trkpt>
      <trkpt lat="32.259267037734389" lon="-5.43070656247437">
        <ele>2141.9499999999998</ele>
        <time>2019-03-11T17:45:12Z</time>
      </trkpt>
      <trkpt lat="32.259245915338397" lon="-5.430797338485718">
        <ele>2142.9200000000001</ele>
        <time>2019-03-11T17:45:13Z</time>
      </trkpt>
      <trkpt lat="32.259215656667948" lon="-5.430887695401907">
        <ele>2143.8800000000001</ele>
        <time>2019-03-11T17:45:14Z</time>
      </trkpt>
      <trkpt lat="32.259175926446915" lon="-5.430978136137128">
        <ele>2145.3200000000002</ele>
        <time>2019-03-11T17:45:15Z</time>
      </trkpt>
      <trkpt lat="32.259125886484981" lon="-5.4310710914433">
        <ele>2146.2800000000002</ele>
        <time>2019-03-11T17:45:16Z</time>
      </trkpt>
      <trkpt lat="32.25906427949667" lon="-5.431166393682361">
        <ele>2146.7600000000002</ele>
        <time>2019-03-11T17:45:17Z</time>
      </trkpt>
      <trkpt lat="32.258986076340079" lon="-5.431260522454977">
        <ele>2147.7199999999998</ele>
        <time>2019-03-11T17:45:18Z</time>
      </trkpt>
      <trkpt lat="32.258884990587831" lon="-5.431345012038946">
        <ele>2149.1599999999999</ele>
        <time>2019-03-11T17:45:19Z</time>
      </trkpt>
      <trkpt lat="32.258763201534748" lon="-5.431415168568492">
        <ele>2150.1300000000001</ele>
        <time>2019-03-11T17:45:20Z</time>
      </trkpt>
      <trkpt lat="32.25862892344594" lon="-5.431475434452295">
        <ele>2150.6100000000001</ele>
        <time>2019-03-11T17:45:23Z</time>
      </trkpt>
      <trkpt lat="32.258233297616243" lon="-5.43166670948267">
        <ele>2150.6100000000001</ele>
        <time>2019-03-11T17:45:26Z</time>
      </trkpt>
      <trkpt lat="32.257884526625276" lon="-5.431876257061958">
        <ele>2150.6100000000001</ele>
        <time>2019-03-11T17:45:27Z</time>
      </trkpt>
      <trkpt lat="32.257759384810925" lon="-5.431921854615212">
        <ele>2150.6100000000001</ele>
        <time>2019-03-11T17:45:28Z</time>
      </trkpt>
      <trkpt lat="32.25762820802629" lon="-5.431953622028232">
        <ele>2150.6100000000001</ele>
        <time>2019-03-11T17:45:29Z</time>
      </trkpt>
      <trkpt lat="32.257492421194911" lon="-5.431972229853272">
        <ele>2150.6100000000001</ele>
        <time>2019-03-11T17:45:30Z</time>
      </trkpt>
      <trkpt lat="32.257361244410276" lon="-5.431977845728397">
        <ele>2150.1300000000001</ele>
        <time>2019-03-11T17:45:31Z</time>
      </trkpt>
      <trkpt lat="32.257238700985909" lon="-5.431978432461619">
        <ele>2149.1599999999999</ele>
        <time>2019-03-11T17:45:32Z</time>
      </trkpt>
      <trkpt lat="32.257127054035664" lon="-5.431986982002854">
        <ele>2148.6799999999998</ele>
        <time>2019-03-11T17:45:33Z</time>
      </trkpt>
      <trkpt lat="32.257022028788924" lon="-5.432015480473638">
        <ele>2148.1999999999998</ele>
        <time>2019-03-11T17:45:34Z</time>
      </trkpt>
      <trkpt lat="32.256919601932168" lon="-5.432064179331064">
        <ele>2148.1999999999998</ele>
        <time>2019-03-11T17:45:35Z</time>
      </trkpt>
      <trkpt lat="32.256823796778917" lon="-5.43214070610702">
        <ele>2148.6799999999998</ele>
        <time>2019-03-11T17:45:36Z</time>
      </trkpt>
      <trkpt lat="32.256737127900124" lon="-5.432236175984144">
        <ele>2148.6799999999998</ele>
        <time>2019-03-11T17:45:37Z</time>
      </trkpt>
      <trkpt lat="32.256655739620328" lon="-5.432327203452587">
        <ele>2148.6799999999998</ele>
        <time>2019-03-11T17:45:38Z</time>
      </trkpt>
      <trkpt lat="32.256566137075424" lon="-5.432394510135055">
        <ele>2148.6799999999998</ele>
        <time>2019-03-11T17:45:39Z</time>
      </trkpt>
      <trkpt lat="32.256462452933192" lon="-5.432431558147073">
        <ele>2148.1999999999998</ele>
        <time>2019-03-11T17:45:40Z</time>
      </trkpt>
      <trkpt lat="32.256345693022013" lon="-5.432439018040896">
        <ele>2148.1999999999998</ele>
        <time>2019-03-11T17:45:41Z</time>
      </trkpt>
      <trkpt lat="32.256220132112503" lon="-5.432416889816523">
        <ele>2147.7199999999998</ele>
        <time>2019-03-11T17:45:42Z</time>
      </trkpt>
      <trkpt lat="32.256094990298152" lon="-5.432372717186809">
        <ele>2147.7199999999998</ele>
        <time>2019-03-11T17:45:43Z</time>
      </trkpt>
      <trkpt lat="32.25597613491118" lon="-5.432318653911352">
        <ele>2147.2399999999998</ele>
        <time>2019-03-11T17:45:44Z</time>
      </trkpt>
      <trkpt lat="32.255867253988981" lon="-5.432262243703008">
        <ele>2146.7600000000002</ele>
        <time>2019-03-11T17:45:45Z</time>
      </trkpt>
      <trkpt lat="32.255766000598669" lon="-5.432222597301006">
        <ele>2146.7600000000002</ele>
        <time>2019-03-11T17:45:46Z</time>
      </trkpt>
      <trkpt lat="32.255670698359609" lon="-5.432220082730055">
        <ele>2146.7600000000002</ele>
        <time>2019-03-11T17:45:47Z</time>
      </trkpt>
      <trkpt lat="32.255586879327893" lon="-5.432255538180471">
        <ele>2146.7600000000002</ele>
        <time>2019-03-11T17:45:48Z</time>
      </trkpt>
      <trkpt lat="32.255528960376978" lon="-5.432328293099999">
        <ele>2146.7600000000002</ele>
        <time>2019-03-11T17:45:49Z</time>
      </trkpt>
      <trkpt lat="32.255500964820385" lon="-5.432423930615187">
        <ele>2147.2399999999998</ele>
        <time>2019-03-11T17:45:50Z</time>
      </trkpt>
      <trkpt lat="32.255494762212038" lon="-5.432530799880624">
        <ele>2148.6799999999998</ele>
        <time>2019-03-11T17:45:51Z</time>
      </trkpt>
      <trkpt lat="32.255500378087163" lon="-5.432645296677947">
        <ele>2149.6500000000001</ele>
        <time>2019-03-11T17:45:52Z</time>
      </trkpt>
      <trkpt lat="32.255509598180652" lon="-5.43276465497911">
        <ele>2150.1300000000001</ele>
        <time>2019-03-11T17:45:55Z</time>
      </trkpt>
      <trkpt lat="32.255531726405025" lon="-5.43316874653101">
        <ele>2150.6100000000001</ele>
        <time>2019-03-11T17:45:56Z</time>
      </trkpt>
      <trkpt lat="32.255515046417713" lon="-5.433315765112639">
        <ele>2151.0900000000001</ele>
        <time>2019-03-11T17:45:57Z</time>
      </trkpt>
      <trkpt lat="32.255474058911204" lon="-5.433465801179409">
        <ele>2152.0500000000002</ele>
        <time>2019-03-11T17:45:58Z</time>
      </trkpt>
      <trkpt lat="32.255408344790339" lon="-5.43361047282815">
        <ele>2152.5300000000002</ele>
        <time>2019-03-11T17:45:59Z</time>
      </trkpt>
      <trkpt lat="32.255319245159626" lon="-5.433739805594087">
        <ele>2153.4899999999998</ele>
        <time>2019-03-11T17:46:00Z</time>
      </trkpt>
      <trkpt lat="32.255210280418396" lon="-5.433850530534983">
        <ele>2154.4499999999998</ele>
        <time>2019-03-11T17:46:01Z</time>
      </trkpt>
      <trkpt lat="32.255086814984679" lon="-5.433944324031472">
        <ele>2155.4099999999999</ele>
        <time>2019-03-11T17:46:02Z</time>
      </trkpt>
      <trkpt lat="32.254960080608726" lon="-5.434031747281551">
        <ele>2156.3699999999999</ele>
        <time>2019-03-11T17:46:04Z</time>
      </trkpt>
      <trkpt lat="32.254708874970675" lon="-5.43416946195066">
        <ele>2156.8600000000001</ele>
        <time>2019-03-11T17:46:05Z</time>
      </trkpt>
      <trkpt lat="32.254585912451148" lon="-5.434213047847152">
        <ele>2157.3400000000001</ele>
        <time>2019-03-11T17:46:07Z</time>
      </trkpt>
      <trkpt lat="32.254357673227787" lon="-5.434286473318934">
        <ele>2157.8200000000002</ele>
        <time>2019-03-11T17:46:08Z</time>
      </trkpt>
      <trkpt lat="32.25426010787487" lon="-5.434342045336962">
        <ele>2158.7800000000002</ele>
        <time>2019-03-11T17:46:09Z</time>
      </trkpt>
      <trkpt lat="32.254180144518614" lon="-5.434421170502901">
        <ele>2159.2600000000002</ele>
        <time>2019-03-11T17:46:10Z</time>
      </trkpt>
      <trkpt lat="32.254121722653508" lon="-5.434525441378355">
        <ele>2159.7399999999998</ele>
        <time>2019-03-11T17:46:11Z</time>
      </trkpt>
      <trkpt lat="32.254082746803761" lon="-5.434649493545294">
        <ele>2161.6599999999999</ele>
        <time>2019-03-11T17:46:12Z</time>
      </trkpt>
      <trkpt lat="32.25404804572463" lon="-5.434787124395371">
        <ele>2164.5500000000002</ele>
        <time>2019-03-11T17:46:13Z</time>
      </trkpt>
      <trkpt lat="32.254003537818789" lon="-5.434933723881841">
        <ele>2165.0300000000002</ele>
        <time>2019-03-11T17:46:18Z</time>
      </trkpt>
      <trkpt lat="32.25367764942348" lon="-5.435663368552923">
        <ele>2165.0300000000002</ele>
        <time>2019-03-11T17:46:24Z</time>
      </trkpt>
      <trkpt lat="32.253199042752385" lon="-5.436448249965906">
        <ele>2165.0300000000002</ele>
        <time>2019-03-11T17:46:25Z</time>
      </trkpt>
      <trkpt lat="32.25311522372067" lon="-5.436533996835351">
        <ele>2165.5100000000002</ele>
        <time>2019-03-11T17:46:26Z</time>
      </trkpt>
      <trkpt lat="32.253018664196134" lon="-5.436591748148203">
        <ele>2165.5100000000002</ele>
        <time>2019-03-11T17:46:27Z</time>
      </trkpt>
      <trkpt lat="32.252909196540713" lon="-5.436626197770238">
        <ele>2165.5100000000002</ele>
        <time>2019-03-11T17:46:28Z</time>
      </trkpt>
      <trkpt lat="32.252790424972773" lon="-5.43664438650012">
        <ele>2165.5100000000002</ele>
        <time>2019-03-11T17:46:29Z</time>
      </trkpt>
      <trkpt lat="32.252670899033546" lon="-5.436653774231672">
        <ele>2165.9899999999998</ele>
        <time>2019-03-11T17:46:30Z</time>
      </trkpt>
      <trkpt lat="32.252550786361098" lon="-5.436672968789935">
        <ele>2166.4699999999998</ele>
        <time>2019-03-11T17:46:31Z</time>
      </trkpt>
      <trkpt lat="32.252429500222206" lon="-5.436711441725493">
        <ele>2166.4699999999998</ele>
        <time>2019-03-11T17:46:32Z</time>
      </trkpt>
      <trkpt lat="32.252311147749424" lon="-5.436765169724822">
        <ele>2166.4699999999998</ele>
        <time>2019-03-11T17:46:35Z</time>
      </trkpt>
      <trkpt lat="32.252008225768805" lon="-5.436894251033664">
        <ele>2166.4699999999998</ele>
        <time>2019-03-11T17:46:36Z</time>
      </trkpt>
      <trkpt lat="32.251928094774485" lon="-5.436881678178906">
        <ele>2166.4699999999998</ele>
        <time>2019-03-11T17:46:37Z</time>
      </trkpt>
      <trkpt lat="32.251857686787844" lon="-5.43682518415153">
        <ele>2166.4699999999998</ele>
        <time>2019-03-11T17:46:38Z</time>
      </trkpt>
      <trkpt lat="32.251809407025576" lon="-5.436732145026326">
        <ele>2166.4699999999998</ele>
        <time>2019-03-11T17:46:39Z</time>
      </trkpt>
      <trkpt lat="32.251766910776496" lon="-5.436620833352208">
        <ele>2166.4699999999998</ele>
        <time>2019-03-11T17:46:40Z</time>
      </trkpt>
      <trkpt lat="32.251710249111056" lon="-5.436506168916822">
        <ele>2166.4699999999998</ele>
        <time>2019-03-11T17:46:41Z</time>
      </trkpt>
      <trkpt lat="32.251635147258639" lon="-5.436387648805976">
        <ele>2166.9499999999998</ele>
        <time>2019-03-11T17:46:42Z</time>
      </trkpt>
      <trkpt lat="32.251545460894704" lon="-5.436266362667084">
        <ele>2166.9499999999998</ele>
        <time>2019-03-11T17:46:43Z</time>
      </trkpt>
      <trkpt lat="32.251441944390535" lon="-5.436148177832365">
        <ele>2167.4299999999998</ele>
        <time>2019-03-11T17:46:44Z</time>
      </trkpt>
      <trkpt lat="32.251336667686701" lon="-5.436040889471769">
        <ele>2167.4299999999998</ele>
        <time>2019-03-11T17:46:45Z</time>
      </trkpt>
      <trkpt lat="32.25123985670507" lon="-5.435932176187635">
        <ele>2167.4299999999998</ele>
        <time>2019-03-11T17:46:46Z</time>
      </trkpt>
      <trkpt lat="32.251157127320766" lon="-5.435812398791313">
        <ele>2167.4299999999998</ele>
        <time>2019-03-11T17:46:48Z</time>
      </trkpt>
      <trkpt lat="32.251012874767184" lon="-5.435574939474464">
        <ele>2167.9099999999999</ele>
        <time>2019-03-11T17:46:49Z</time>
      </trkpt>
      <trkpt lat="32.250940119847655" lon="-5.435489863157272">
        <ele>2167.9099999999999</ele>
        <time>2019-03-11T17:46:50Z</time>
      </trkpt>
      <trkpt lat="32.250864850357175" lon="-5.435430938377976">
        <ele>2167.9099999999999</ele>
        <time>2019-03-11T17:46:51Z</time>
      </trkpt>
      <trkpt lat="32.250776924192905" lon="-5.435399925336242">
        <ele>2167.9099999999999</ele>
        <time>2019-03-11T17:46:52Z</time>
      </trkpt>
      <trkpt lat="32.250681454315782" lon="-5.435395231470466">
        <ele>2168.3899999999999</ele>
        <time>2019-03-11T17:46:53Z</time>
      </trkpt>
      <trkpt lat="32.250585984438658" lon="-5.43541107326746">
        <ele>2170.79</ele>
        <time>2019-03-11T17:46:54Z</time>
      </trkpt>
      <trkpt lat="32.25050400942564" lon="-5.435433704406023">
        <ele>2176.5599999999999</ele>
        <time>2019-03-11T17:47:00Z</time>
      </trkpt>
      <trkpt lat="32.250273171812296" lon="-5.435517942532897">
        <ele>2178</ele>
        <time>2019-03-11T17:47:09Z</time>
      </trkpt>
      <trkpt lat="32.249674620106816" lon="-5.435682227835059">
        <ele>2178.48</ele>
        <time>2019-03-11T17:47:19Z</time>
      </trkpt>
      <trkpt lat="32.248528394848108" lon="-5.435768980532885">
        <ele>2178.48</ele>
        <time>2019-03-11T17:47:23Z</time>
      </trkpt>
      <trkpt lat="32.248317925259471" lon="-5.435709552839398">
        <ele>2178.9699999999998</ele>
        <time>2019-03-11T17:47:24Z</time>
      </trkpt>
      <trkpt lat="32.248263275250793" lon="-5.43567786924541">
        <ele>2178.9699999999998</ele>
        <time>2019-03-11T17:47:25Z</time>
      </trkpt>
      <trkpt lat="32.248197142034769" lon="-5.435637217015028">
        <ele>2180.8899999999999</ele>
        <time>2019-03-11T17:47:28Z</time>
      </trkpt>
      <trkpt lat="32.247953396290541" lon="-5.435448121279478">
        <ele>2181.3699999999999</ele>
        <time>2019-03-11T17:47:29Z</time>
      </trkpt>
      <trkpt lat="32.247863542288542" lon="-5.435355165973306">
        <ele>2181.8499999999999</ele>
        <time>2019-03-11T17:47:33Z</time>
      </trkpt>
      <trkpt lat="32.24753019399941" lon="-5.434983428567648">
        <ele>2189.54</ele>
        <time>2019-03-11T17:47:34Z</time>
      </trkpt>
      <trkpt lat="32.247440591454506" lon="-5.434926934540272">
        <ele>2190.98</ele>
        <time>2019-03-11T17:47:35Z</time>
      </trkpt>
      <trkpt lat="32.247340008616447" lon="-5.434898771345615">
        <ele>2191.46</ele>
        <time>2019-03-11T17:47:43Z</time>
      </trkpt>
      <trkpt lat="32.246432919055223" lon="-5.434788130223751">
        <ele>2191.46</ele>
        <time>2019-03-11T17:47:44Z</time>
      </trkpt>
      <trkpt lat="32.246333174407482" lon="-5.434751836583018">
        <ele>2191.46</ele>
        <time>2019-03-11T17:47:45Z</time>
      </trkpt>
      <trkpt lat="32.246240554377437" lon="-5.434685032814741">
        <ele>2191.9400000000001</ele>
        <time>2019-03-11T17:47:46Z</time>
      </trkpt>
      <trkpt lat="32.24615665152669" lon="-5.434592328965664">
        <ele>2192.4200000000001</ele>
        <time>2019-03-11T17:47:47Z</time>
      </trkpt>
      <trkpt lat="32.246077107265592" lon="-5.4344851244241">
        <ele>2199.1500000000001</ele>
        <time>2019-03-11T17:47:48Z</time>
      </trkpt>
      <trkpt lat="32.245989684015512" lon="-5.434379009529948">
        <ele>2203.48</ele>
        <time>2019-03-11T17:47:49Z</time>
      </trkpt>
      <trkpt lat="32.245887760072947" lon="-5.434277504682541">
        <ele>2204.9200000000001</ele>
        <time>2019-03-11T17:47:57Z</time>
      </trkpt>
      <trkpt lat="32.244933731853962" lon="-5.433354238048196">
        <ele>2206.3600000000001</ele>
        <time>2019-03-11T17:48:00Z</time>
      </trkpt>
      <trkpt lat="32.244599796831608" lon="-5.433090794831514">
        <ele>2207.8099999999999</ele>
        <time>2019-03-11T17:48:01Z</time>
      </trkpt>
      <trkpt lat="32.244515810161829" lon="-5.432985099032521">
        <ele>2209.25</ele>
        <time>2019-03-11T17:48:02Z</time>
      </trkpt>
      <trkpt lat="32.244452107697725" lon="-5.432859538123012">
        <ele>2210.6900000000001</ele>
        <time>2019-03-11T17:48:03Z</time>
      </trkpt>
      <trkpt lat="32.244412126019597" lon="-5.43271872214973">
        <ele>2212.1300000000001</ele>
        <time>2019-03-11T17:48:04Z</time>
      </trkpt>
      <trkpt lat="32.244395865127444" lon="-5.432568015530706">
        <ele>2213.0900000000001</ele>
        <time>2019-03-11T17:48:05Z</time>
      </trkpt>
      <trkpt lat="32.244404749944806" lon="-5.432417057454586">
        <ele>2213.5700000000002</ele>
        <time>2019-03-11T17:48:06Z</time>
      </trkpt>
      <trkpt lat="32.244428303092718" lon="-5.43227800168097">
        <ele>2214.5300000000002</ele>
        <time>2019-03-11T17:48:07Z</time>
      </trkpt>
      <trkpt lat="32.244446240365505" lon="-5.432152440771461">
        <ele>2215.5</ele>
        <time>2019-03-11T17:48:08Z</time>
      </trkpt>
      <trkpt lat="32.24444598890841" lon="-5.432037524878979">
        <ele>2216.46</ele>
        <time>2019-03-11T17:48:09Z</time>
      </trkpt>
      <trkpt lat="32.244421094655991" lon="-5.431930907070637">
        <ele>2217.9000000000001</ele>
        <time>2019-03-11T17:48:10Z</time>
      </trkpt>
      <trkpt lat="32.244370300322771" lon="-5.431838873773813">
        <ele>2219.3400000000001</ele>
        <time>2019-03-11T17:48:11Z</time>
      </trkpt>
      <trkpt lat="32.244298467412591" lon="-5.431765448302031">
        <ele>2220.7800000000002</ele>
        <time>2019-03-11T17:48:12Z</time>
      </trkpt>
      <trkpt lat="32.244212049990892" lon="-5.431708199903369">
        <ele>2221.7399999999998</ele>
        <time>2019-03-11T17:48:13Z</time>
      </trkpt>
      <trkpt lat="32.244120351970196" lon="-5.43166771531105">
        <ele>2223.1900000000001</ele>
        <time>2019-03-11T17:48:14Z</time>
      </trkpt>
      <trkpt lat="32.244024882093072" lon="-5.431650029495359">
        <ele>2224.1500000000001</ele>
        <time>2019-03-11T17:48:15Z</time>
      </trkpt>
      <trkpt lat="32.243927987292409" lon="-5.431656986474991">
        <ele>2225.1100000000001</ele>
        <time>2019-03-11T17:48:16Z</time>
      </trkpt>
      <trkpt lat="32.243831092491746" lon="-5.431680539622903">
        <ele>2226.0700000000002</ele>
        <time>2019-03-11T17:48:17Z</time>
      </trkpt>
      <trkpt lat="32.243732018396258" lon="-5.431707194074988">
        <ele>2227.0300000000002</ele>
        <time>2019-03-11T17:48:18Z</time>
      </trkpt>
      <trkpt lat="32.24362364038825" lon="-5.431720856577158">
        <ele>2231.3600000000001</ele>
        <time>2019-03-11T17:48:19Z</time>
      </trkpt>
      <trkpt lat="32.243511406704783" lon="-5.431719850748777">
        <ele>2232.8000000000002</ele>
        <time>2019-03-11T17:48:20Z</time>
      </trkpt>
      <trkpt lat="32.243397245183587" lon="-5.431710630655289">
        <ele>2233.7600000000002</ele>
        <time>2019-03-11T17:48:24Z</time>
      </trkpt>
      <trkpt lat="32.243034224957228" lon="-5.431667463853955">
        <ele>2235.1999999999998</ele>
        <time>2019-03-11T17:48:25Z</time>
      </trkpt>
      <trkpt lat="32.24297278560698" lon="-5.431694621220231">
        <ele>2235.6799999999998</ele>
        <time>2019-03-11T17:48:26Z</time>
      </trkpt>
      <trkpt lat="32.242910927161574" lon="-5.43173904530704">
        <ele>2236.6399999999999</ele>
        <time>2019-03-11T17:48:33Z</time>
      </trkpt>
      <trkpt lat="32.242345483973622" lon="-5.432199882343411">
        <ele>2237.1300000000001</ele>
        <time>2019-03-11T17:48:34Z</time>
      </trkpt>
      <trkpt lat="32.242270465940237" lon="-5.432263417169452">
        <ele>2238.0900000000001</ele>
        <time>2019-03-11T17:48:35Z</time>
      </trkpt>
      <trkpt lat="32.242190837860107" lon="-5.432305913418531">
        <ele>2238.5700000000002</ele>
        <time>2019-03-11T17:48:36Z</time>
      </trkpt>
      <trkpt lat="32.242101654410362" lon="-5.432323347777128">
        <ele>2239.0500000000002</ele>
        <time>2019-03-11T17:48:37Z</time>
      </trkpt>
      <trkpt lat="32.242009453475475" lon="-5.432309098541737">
        <ele>2239.0500000000002</ele>
        <time>2019-03-11T17:48:38Z</time>
      </trkpt>
      <trkpt lat="32.241915408521891" lon="-5.432276660576463">
        <ele>2239.5300000000002</ele>
        <time>2019-03-11T17:48:40Z</time>
      </trkpt>
      <trkpt lat="32.241707956418395" lon="-5.43222377076745">
        <ele>2240.0100000000002</ele>
        <time>2019-03-11T17:48:41Z</time>
      </trkpt>
      <trkpt lat="32.241596477106214" lon="-5.432220585644245">
        <ele>2240.0100000000002</ele>
        <time>2019-03-11T17:48:42Z</time>
      </trkpt>
      <trkpt lat="32.241485081613064" lon="-5.432239361107349">
        <ele>2240.4899999999998</ele>
        <time>2019-03-11T17:48:43Z</time>
      </trkpt>
      <trkpt lat="32.241377038881183" lon="-5.432281522080302">
        <ele>2240.9699999999998</ele>
        <time>2019-03-11T17:48:44Z</time>
      </trkpt>
      <trkpt lat="32.241279473528266" lon="-5.43233759701252">
        <ele>2241.9299999999998</ele>
        <time>2019-03-11T17:48:45Z</time>
      </trkpt>
      <trkpt lat="32.241193642839789" lon="-5.432402975857258">
        <ele>2242.4099999999999</ele>
        <time>2019-03-11T17:48:46Z</time>
      </trkpt>
      <trkpt lat="32.241120217368007" lon="-5.432479754090309">
        <ele>2242.8899999999999</ele>
        <time>2019-03-11T17:48:47Z</time>
      </trkpt>
      <trkpt lat="32.241060035303235" lon="-5.4325613938272">
        <ele>2243.3699999999999</ele>
        <time>2019-03-11T17:48:48Z</time>
      </trkpt>
      <trkpt lat="32.241004128009081" lon="-5.432641608640552">
        <ele>2243.8499999999999</ele>
        <time>2019-03-11T17:48:49Z</time>
      </trkpt>
      <trkpt lat="32.240950148552656" lon="-5.432710340246558">
        <ele>2244.3299999999999</ele>
        <time>2019-03-11T17:48:50Z</time>
      </trkpt>
      <trkpt lat="32.240895247086883" lon="-5.432761134579778">
        <ele>2244.3299999999999</ele>
        <time>2019-03-11T17:48:51Z</time>
      </trkpt>
      <trkpt lat="32.240833723917603" lon="-5.432787369936705">
        <ele>2244.8200000000002</ele>
        <time>2019-03-11T17:48:52Z</time>
      </trkpt>
      <trkpt lat="32.240771194919944" lon="-5.432781083509326">
        <ele>2245.3000000000002</ele>
        <time>2019-03-11T17:48:53Z</time>
      </trkpt>
      <trkpt lat="32.240712521597743" lon="-5.432744538411498">
        <ele>2245.3000000000002</ele>
        <time>2019-03-11T17:48:54Z</time>
      </trkpt>
      <trkpt lat="32.240660469979048" lon="-5.432691816240549">
        <ele>2246.2600000000002</ele>
        <time>2019-03-11T17:48:55Z</time>
      </trkpt>
      <trkpt lat="32.240611100569367" lon="-5.432636747136712">
        <ele>2246.7399999999998</ele>
        <time>2019-03-11T17:48:56Z</time>
      </trkpt>
      <trkpt lat="32.240558294579387" lon="-5.432589305564761">
        <ele>2247.2199999999998</ele>
        <time>2019-03-11T17:48:57Z</time>
      </trkpt>
      <trkpt lat="32.240503560751677" lon="-5.432553933933377">
        <ele>2248.1799999999998</ele>
        <time>2019-03-11T17:48:58Z</time>
      </trkpt>
      <trkpt lat="32.240447988733649" lon="-5.432534236460924">
        <ele>2249.6199999999999</ele>
        <time>2019-03-11T17:48:59Z</time>
      </trkpt>
      <trkpt lat="32.240395015105605" lon="-5.432526776567102">
        <ele>2250.5799999999999</ele>
        <time>2019-03-11T17:49:00Z</time>
      </trkpt>
      <trkpt lat="32.240336257964373" lon="-5.432525267824531">
        <ele>2251.54</ele>
        <time>2019-03-11T17:49:03Z</time>
      </trkpt>
      <trkpt lat="32.240125956013799" lon="-5.432499367743731">
        <ele>2252.5100000000002</ele>
        <time>2019-03-11T17:49:04Z</time>
      </trkpt>
      <trkpt lat="32.240049010142684" lon="-5.432455530390143">
        <ele>2253.4699999999998</ele>
        <time>2019-03-11T17:49:05Z</time>
      </trkpt>
      <trkpt lat="32.239973656833172" lon="-5.432387804612517">
        <ele>2258.27</ele>
        <time>2019-03-11T17:49:06Z</time>
      </trkpt>
      <trkpt lat="32.239903835579753" lon="-5.432302309200168">
        <ele>2259.2399999999998</ele>
        <time>2019-03-11T17:49:07Z</time>
      </trkpt>
      <trkpt lat="32.239835187792778" lon="-5.432211197912693">
        <ele>2259.7199999999998</ele>
        <time>2019-03-11T17:49:13Z</time>
      </trkpt>
      <trkpt lat="32.239501588046551" lon="-5.431804927065969">
        <ele>2260.6799999999998</ele>
        <time>2019-03-11T17:49:14Z</time>
      </trkpt>
      <trkpt lat="32.239448865875602" lon="-5.431771064177156">
        <ele>2262.1199999999999</ele>
        <time>2019-03-11T17:49:15Z</time>
      </trkpt>
      <trkpt lat="32.239390444010496" lon="-5.431761173531413">
        <ele>2263.5599999999999</ele>
        <time>2019-03-11T17:49:16Z</time>
      </trkpt>
      <trkpt lat="32.239328837022185" lon="-5.431772908195853">
        <ele>2265</ele>
        <time>2019-03-11T17:49:17Z</time>
      </trkpt>
      <trkpt lat="32.239268403500319" lon="-5.431811213493347">
        <ele>2272.21</ele>
        <time>2019-03-11T17:49:18Z</time>
      </trkpt>
      <trkpt lat="32.239211071282625" lon="-5.431870305910707">
        <ele>2273.1700000000001</ele>
        <time>2019-03-11T17:49:19Z</time>
      </trkpt>
      <trkpt lat="32.239150302484632" lon="-5.431938953697681">
        <ele>2274.1399999999999</ele>
        <time>2019-03-11T17:49:25Z</time>
      </trkpt>
      <trkpt lat="32.238673539832234" lon="-5.432346565648913">
        <ele>2275.5799999999999</ele>
        <time>2019-03-11T17:49:26Z</time>
      </trkpt>
      <trkpt lat="32.238597348332405" lon="-5.432387134060264">
        <ele>2276.54</ele>
        <time>2019-03-11T17:49:27Z</time>
      </trkpt>
      <trkpt lat="32.238514954224229" lon="-5.432405238971114">
        <ele>2277.5</ele>
        <time>2019-03-11T17:49:28Z</time>
      </trkpt>
      <trkpt lat="32.238428788259625" lon="-5.43239719234407">
        <ele>2278.46</ele>
        <time>2019-03-11T17:49:29Z</time>
      </trkpt>
      <trkpt lat="32.238340107724071" lon="-5.432378416880965">
        <ele>2279.4200000000001</ele>
        <time>2019-03-11T17:49:30Z</time>
      </trkpt>
      <trkpt lat="32.238248074427247" lon="-5.432375902310014">
        <ele>2280.3800000000001</ele>
        <time>2019-03-11T17:49:31Z</time>
      </trkpt>
      <trkpt lat="32.238154364749789" lon="-5.43240163475275">
        <ele>2281.8299999999999</ele>
        <time>2019-03-11T17:49:32Z</time>
      </trkpt>
      <trkpt lat="32.238060990348458" lon="-5.432451339438558">
        <ele>2283.27</ele>
        <time>2019-03-11T17:49:33Z</time>
      </trkpt>
      <trkpt lat="32.237969627603889" lon="-5.432514287531376">
        <ele>2284.71</ele>
        <time>2019-03-11T17:49:34Z</time>
      </trkpt>
      <trkpt lat="32.237875666469336" lon="-5.432583773508668">
        <ele>2286.1500000000001</ele>
        <time>2019-03-11T17:49:35Z</time>
      </trkpt>
      <trkpt lat="32.237775754183531" lon="-5.432652840390801">
        <ele>2288.5599999999999</ele>
        <time>2019-03-11T17:49:36Z</time>
      </trkpt>
      <trkpt lat="32.237668382003903" lon="-5.432714279741049">
        <ele>2290</ele>
        <time>2019-03-11T17:49:37Z</time>
      </trkpt>
      <trkpt lat="32.237555226311088" lon="-5.432767337188125">
        <ele>2291.4400000000001</ele>
        <time>2019-03-11T17:49:40Z</time>
      </trkpt>
      <trkpt lat="32.237216094508767" lon="-5.432896250858903">
        <ele>2292.4000000000001</ele>
        <time>2019-03-11T17:49:41Z</time>
      </trkpt>
      <trkpt lat="32.237107129767537" lon="-5.43291125446558">
        <ele>2293.3600000000001</ele>
        <time>2019-03-11T17:49:42Z</time>
      </trkpt>
      <trkpt lat="32.236996991559863" lon="-5.432914020493627">
        <ele>2294.3200000000002</ele>
        <time>2019-03-11T17:49:43Z</time>
      </trkpt>
      <trkpt lat="32.236890289932489" lon="-5.432919804006815">
        <ele>2295.2800000000002</ele>
        <time>2019-03-11T17:49:44Z</time>
      </trkpt>
      <trkpt lat="32.236790964379907" lon="-5.432936567813158">
        <ele>2295.77</ele>
        <time>2019-03-11T17:49:45Z</time>
      </trkpt>
      <trkpt lat="32.23669926635921" lon="-5.432973699644208">
        <ele>2296.73</ele>
        <time>2019-03-11T17:49:46Z</time>
      </trkpt>
      <trkpt lat="32.236615195870399" lon="-5.43303681537509">
        <ele>2297.6900000000001</ele>
        <time>2019-03-11T17:49:47Z</time>
      </trkpt>
      <trkpt lat="32.236539088189602" lon="-5.433126166462898">
        <ele>2298.6500000000001</ele>
        <time>2019-03-11T17:49:48Z</time>
      </trkpt>
      <trkpt lat="32.236467925831676" lon="-5.433227084577084">
        <ele>2299.6100000000001</ele>
        <time>2019-03-11T17:49:49Z</time>
      </trkpt>
      <trkpt lat="32.236397350206971" lon="-5.433319034054875">
        <ele>2306.3400000000001</ele>
        <time>2019-03-11T17:49:50Z</time>
      </trkpt>
      <trkpt lat="32.236323924735188" lon="-5.433391872793436">
        <ele>2307.3000000000002</ele>
        <time>2019-03-11T17:49:51Z</time>
      </trkpt>
      <trkpt lat="32.236251756548882" lon="-5.433450462296605">
        <ele>2307.7800000000002</ele>
        <time>2019-03-11T17:49:58Z</time>
      </trkpt>
      <trkpt lat="32.235759738832712" lon="-5.43381767347455">
        <ele>2314.9899999999998</ele>
        <time>2019-03-11T17:49:59Z</time>
      </trkpt>
      <trkpt lat="32.235674913972616" lon="-5.43384307064116">
        <ele>2315.9499999999998</ele>
        <time>2019-03-11T17:50:00Z</time>
      </trkpt>
      <trkpt lat="32.235585059970617" lon="-5.433855643495917">
        <ele>2317.4000000000001</ele>
        <time>2019-03-11T17:50:06Z</time>
      </trkpt>
      <trkpt lat="32.234963038936257" lon="-5.434008780866861">
        <ele>2318.3600000000001</ele>
        <time>2019-03-11T17:50:07Z</time>
      </trkpt>
      <trkpt lat="32.234865305945277" lon="-5.434066029265523">
        <ele>2319.3200000000002</ele>
        <time>2019-03-11T17:50:08Z</time>
      </trkpt>
      <trkpt lat="32.234785342589021" lon="-5.434139119461179">
        <ele>2320.2800000000002</ele>
        <time>2019-03-11T17:50:09Z</time>
      </trkpt>
      <trkpt lat="32.234724154695868" lon="-5.434219501912594">
        <ele>2321.2399999999998</ele>
        <time>2019-03-11T17:50:10Z</time>
      </trkpt>
      <trkpt lat="32.234663972631097" lon="-5.434281527996063">
        <ele>2321.7199999999998</ele>
        <time>2019-03-11T17:50:11Z</time>
      </trkpt>
      <trkpt lat="32.234597085043788" lon="-5.43431019410491">
        <ele>2322.6799999999998</ele>
        <time>2019-03-11T17:50:12Z</time>
      </trkpt>
      <trkpt lat="32.234529359266162" lon="-5.434301644563675">
        <ele>2323.6399999999999</ele>
        <time>2019-03-11T17:50:13Z</time>
      </trkpt>
      <trkpt lat="32.234469512477517" lon="-5.434256382286549">
        <ele>2324.1199999999999</ele>
        <time>2019-03-11T17:50:14Z</time>
      </trkpt>
      <trkpt lat="32.234421148896217" lon="-5.434195529669523">
        <ele>2325.5700000000002</ele>
        <time>2019-03-11T17:50:15Z</time>
      </trkpt>
      <trkpt lat="32.234383011236787" lon="-5.434127971529961">
        <ele>2326.0500000000002</ele>
        <time>2019-03-11T17:50:16Z</time>
      </trkpt>
      <trkpt lat="32.234349818900228" lon="-5.434065945446491">
        <ele>2327.0100000000002</ele>
        <time>2019-03-11T17:50:18Z</time>
      </trkpt>
      <trkpt lat="32.234269855543971" lon="-5.433940887451172">
        <ele>2327.4899999999998</ele>
        <time>2019-03-11T17:50:19Z</time>
      </trkpt>
      <trkpt lat="32.234210763126612" lon="-5.433884477242827">
        <ele>2327.9699999999998</ele>
        <time>2019-03-11T17:50:20Z</time>
      </trkpt>
      <trkpt lat="32.234136834740639" lon="-5.433843154460192">
        <ele>2328.4499999999998</ele>
        <time>2019-03-11T17:50:21Z</time>
      </trkpt>
      <trkpt lat="32.234053434804082" lon="-5.433819266036153">
        <ele>2328.9299999999998</ele>
        <time>2019-03-11T17:50:22Z</time>
      </trkpt>
      <trkpt lat="32.233968190848827" lon="-5.433811135590076">
        <ele>2329.4099999999999</ele>
        <time>2019-03-11T17:50:23Z</time>
      </trkpt>
      <trkpt lat="32.233888227492571" lon="-5.43382060714066">
        <ele>2329.4099999999999</ele>
        <time>2019-03-11T17:50:24Z</time>
      </trkpt>
      <trkpt lat="32.233812538906932" lon="-5.433850195258856">
        <ele>2330.8499999999999</ele>
        <time>2019-03-11T17:50:25Z</time>
      </trkpt>
      <trkpt lat="32.233737856149673" lon="-5.433896379545331">
        <ele>2330.8499999999999</ele>
        <time>2019-03-11T17:50:26Z</time>
      </trkpt>
      <trkpt lat="32.233662502840161" lon="-5.433954382315278">
        <ele>2330.8499999999999</ele>
        <time>2019-03-11T17:50:31Z</time>
      </trkpt>
      <trkpt lat="32.233309373259544" lon="-5.434234337881208">
        <ele>2331.3299999999999</ele>
        <time>2019-03-11T17:50:32Z</time>
      </trkpt>
      <trkpt lat="32.233236702159047" lon="-5.434262165799737">
        <ele>2331.3299999999999</ele>
        <time>2019-03-11T17:50:33Z</time>
      </trkpt>
      <trkpt lat="32.233161013573408" lon="-5.434256717562676">
        <ele>2331.3299999999999</ele>
        <time>2019-03-11T17:50:34Z</time>
      </trkpt>
      <trkpt lat="32.233091108500957" lon="-5.434206509962678">
        <ele>2331.3299999999999</ele>
        <time>2019-03-11T17:50:35Z</time>
      </trkpt>
      <trkpt lat="32.233031261712313" lon="-5.43412160128355">
        <ele>2331.3299999999999</ele>
        <time>2019-03-11T17:50:36Z</time>
      </trkpt>
      <trkpt lat="32.232978539541364" lon="-5.434010373428464">
        <ele>2331.3299999999999</ele>
        <time>2019-03-11T17:50:37Z</time>
      </trkpt>
      <trkpt lat="32.232926487922668" lon="-5.433882130309939">
        <ele>2331.3299999999999</ele>
        <time>2019-03-11T17:50:38Z</time>
      </trkpt>
      <trkpt lat="32.232878794893622" lon="-5.433741398155689">
        <ele>2331.3299999999999</ele>
        <time>2019-03-11T17:50:39Z</time>
      </trkpt>
      <trkpt lat="32.232846189290285" lon="-5.433598151430488">
        <ele>2331.3299999999999</ele>
        <time>2019-03-11T17:50:40Z</time>
      </trkpt>
      <trkpt lat="32.232823222875595" lon="-5.433448869735003">
        <ele>2331.3299999999999</ele>
        <time>2019-03-11T17:50:41Z</time>
      </trkpt>
      <trkpt lat="32.232808638364077" lon="-5.433298582211137">
        <ele>2331.3299999999999</ele>
        <time>2019-03-11T17:50:42Z</time>
      </trkpt>
      <trkpt lat="32.232808135449886" lon="-5.433148881420493">
        <ele>2331.3299999999999</ele>
        <time>2019-03-11T17:50:43Z</time>
      </trkpt>
      <trkpt lat="32.232825988903642" lon="-5.433009071275592">
        <ele>2330.8499999999999</ele>
        <time>2019-03-11T17:50:44Z</time>
      </trkpt>
      <trkpt lat="32.232848284766078" lon="-5.432885522022843">
        <ele>2330.8499999999999</ele>
        <time>2019-03-11T17:50:45Z</time>
      </trkpt>
      <trkpt lat="32.232861528173089" lon="-5.432782173156738">
        <ele>2330.8499999999999</ele>
        <time>2019-03-11T17:50:46Z</time>
      </trkpt>
      <trkpt lat="32.232854906469584" lon="-5.432688547298312">
        <ele>2330.8499999999999</ele>
        <time>2019-03-11T17:50:47Z</time>
      </trkpt>
      <trkpt lat="32.23282590508461" lon="-5.43260682374239">
        <ele>2330.8499999999999</ele>
        <time>2019-03-11T17:50:48Z</time>
      </trkpt>
      <trkpt lat="32.232769578695297" lon="-5.432542869821191">
        <ele>2330.3699999999999</ele>
        <time>2019-03-11T17:50:49Z</time>
      </trkpt>
      <trkpt lat="32.232690453529358" lon="-5.432499619200826">
        <ele>2329.8899999999999</ele>
        <time>2019-03-11T17:50:50Z</time>
      </trkpt>
      <trkpt lat="32.232599845156074" lon="-5.43246952816844">
        <ele>2328.9299999999998</ele>
        <time>2019-03-11T17:50:51Z</time>
      </trkpt>
      <trkpt lat="32.232509572058916" lon="-5.432447483763099">
        <ele>2328.9299999999998</ele>
        <time>2019-03-11T17:50:52Z</time>
      </trkpt>
      <trkpt lat="32.232426758855581" lon="-5.432441532611847">
        <ele>2328.4499999999998</ele>
        <time>2019-03-11T17:50:53Z</time>
      </trkpt>
      <trkpt lat="32.232356686145067" lon="-5.432467684149742">
        <ele>2327.9699999999998</ele>
        <time>2019-03-11T17:50:54Z</time>
      </trkpt>
      <trkpt lat="32.23229918628931" lon="-5.432530716061592">
        <ele>2327.9699999999998</ele>
        <time>2019-03-11T17:50:55Z</time>
      </trkpt>
      <trkpt lat="32.232258282601833" lon="-5.432623084634543">
        <ele>2327.4899999999998</ele>
        <time>2019-03-11T17:50:56Z</time>
      </trkpt>
      <trkpt lat="32.232232047244906" lon="-5.432736575603485">
        <ele>2327.4899999999998</ele>
        <time>2019-03-11T17:50:57Z</time>
      </trkpt>
      <trkpt lat="32.232221402227879" lon="-5.432859789580107">
        <ele>2327.4899999999998</ele>
        <time>2019-03-11T17:50:58Z</time>
      </trkpt>
      <trkpt lat="32.232221318408847" lon="-5.432976130396128">
        <ele>2327.4899999999998</ele>
        <time>2019-03-11T17:51:00Z</time>
      </trkpt>
      <trkpt lat="32.23220874555409" lon="-5.433150557801127">
        <ele>2327.9699999999998</ele>
        <time>2019-03-11T17:51:01Z</time>
      </trkpt>
      <trkpt lat="32.232179157435894" lon="-5.433209734037519">
        <ele>2327.9699999999998</ele>
        <time>2019-03-11T17:51:02Z</time>
      </trkpt>
      <trkpt lat="32.23213154822588" lon="-5.433239238336682">
        <ele>2327.9699999999998</ele>
        <time>2019-03-11T17:51:03Z</time>
      </trkpt>
      <trkpt lat="32.232073713093996" lon="-5.433233622461557">
        <ele>2327.9699999999998</ele>
        <time>2019-03-11T17:51:04Z</time>
      </trkpt>
      <trkpt lat="32.232023421674967" lon="-5.433186264708638">
        <ele>2327.9699999999998</ele>
        <time>2019-03-11T17:51:05Z</time>
      </trkpt>
      <trkpt lat="32.23198645748198" lon="-5.433107977733016">
        <ele>2328.4499999999998</ele>
        <time>2019-03-11T17:51:06Z</time>
      </trkpt>
      <trkpt lat="32.231944967061281" lon="-5.433016363531351">
        <ele>2328.4499999999998</ele>
        <time>2019-03-11T17:51:07Z</time>
      </trkpt>
      <trkpt lat="32.231888892129064" lon="-5.432921396568418">
        <ele>2328.4499999999998</ele>
        <time>2019-03-11T17:51:08Z</time>
      </trkpt>
      <trkpt lat="32.231819573789835" lon="-5.43282768689096">
        <ele>2328.9299999999998</ele>
        <time>2019-03-11T17:51:09Z</time>
      </trkpt>
      <trkpt lat="32.231732318177819" lon="-5.432745460420847">
        <ele>2328.9299999999998</ele>
        <time>2019-03-11T17:51:10Z</time>
      </trkpt>
      <trkpt lat="32.231624023988843" lon="-5.43268159031868">
        <ele>2328.9299999999998</ele>
        <time>2019-03-11T17:51:11Z</time>
      </trkpt>
      <trkpt lat="32.231502486392856" lon="-5.432632304728031">
        <ele>2328.9299999999998</ele>
        <time>2019-03-11T17:51:12Z</time>
      </trkpt>
      <trkpt lat="32.231380110606551" lon="-5.432586623355746">
        <ele>2328.9299999999998</ele>
        <time>2019-03-11T17:51:14Z</time>
      </trkpt>
      <trkpt lat="32.231150278821588" lon="-5.43251789174974">
        <ele>2328.9299999999998</ele>
        <time>2019-03-11T17:51:15Z</time>
      </trkpt>
      <trkpt lat="32.231039134785533" lon="-5.432519232854247">
        <ele>2328.9299999999998</ele>
        <time>2019-03-11T17:51:16Z</time>
      </trkpt>
      <trkpt lat="32.230936037376523" lon="-5.432527363300324">
        <ele>2328.9299999999998</ele>
        <time>2019-03-11T17:51:17Z</time>
      </trkpt>
      <trkpt lat="32.230838472023606" lon="-5.432520238682628">
        <ele>2328.4499999999998</ele>
        <time>2019-03-11T17:51:18Z</time>
      </trkpt>
      <trkpt lat="32.230744929984212" lon="-5.432476066052914">
        <ele>2328.4499999999998</ele>
        <time>2019-03-11T17:51:19Z</time>
      </trkpt>
      <trkpt lat="32.23066421225667" lon="-5.43239476159215">
        <ele>2328.9299999999998</ele>
        <time>2019-03-11T17:51:20Z</time>
      </trkpt>
      <trkpt lat="32.23059045150876" lon="-5.432302393019199">
        <ele>2328.9299999999998</ele>
        <time>2019-03-11T17:51:21Z</time>
      </trkpt>
      <trkpt lat="32.23051224835217" lon="-5.432227374985814">
        <ele>2328.9299999999998</ele>
        <time>2019-03-11T17:51:22Z</time>
      </trkpt>
      <trkpt lat="32.230418287217617" lon="-5.432178173214197">
        <ele>2329.4099999999999</ele>
        <time>2019-03-11T17:51:23Z</time>
      </trkpt>
      <trkpt lat="32.230314267799258" lon="-5.432147579267621">
        <ele>2329.4099999999999</ele>
        <time>2019-03-11T17:51:24Z</time>
      </trkpt>
      <trkpt lat="32.230199603363872" lon="-5.432129222899675">
        <ele>2328.9299999999998</ele>
        <time>2019-03-11T17:51:27Z</time>
      </trkpt>
      <trkpt lat="32.229816550388932" lon="-5.432077338919044">
        <ele>2327.9699999999998</ele>
        <time>2019-03-11T17:51:28Z</time>
      </trkpt>
      <trkpt lat="32.229675985872746" lon="-5.432081446051598">
        <ele>2326.5300000000002</ele>
        <time>2019-03-11T17:51:34Z</time>
      </trkpt>
      <trkpt lat="32.228926392272115" lon="-5.432176077738404">
        <ele>2326.0500000000002</ele>
        <time>2019-03-11T17:51:35Z</time>
      </trkpt>
      <trkpt lat="32.228831760585308" lon="-5.432217316702008">
        <ele>2326.5300000000002</ele>
        <time>2019-03-11T17:51:36Z</time>
      </trkpt>
      <trkpt lat="32.228747857734561" lon="-5.432271296158433">
        <ele>2327.0100000000002</ele>
        <time>2019-03-11T17:51:37Z</time>
      </trkpt>
      <trkpt lat="32.22868231125176" lon="-5.432336507365108">
        <ele>2328.9299999999998</ele>
        <time>2019-03-11T17:51:38Z</time>
      </trkpt>
      <trkpt lat="32.228634785860777" lon="-5.432405406609178">
        <ele>2328.9299999999998</ele>
        <time>2019-03-11T17:51:39Z</time>
      </trkpt>
      <trkpt lat="32.228593965992332" lon="-5.432475814595819">
        <ele>2329.4099999999999</ele>
        <time>2019-03-11T17:51:43Z</time>
      </trkpt>
      <trkpt lat="32.228454574942589" lon="-5.432701790705323">
        <ele>2329.8899999999999</ele>
        <time>2019-03-11T17:51:44Z</time>
      </trkpt>
      <trkpt lat="32.228413168340921" lon="-5.432747304439545">
        <ele>2330.3699999999999</ele>
        <time>2019-03-11T17:51:45Z</time>
      </trkpt>
      <trkpt lat="32.228368492797017" lon="-5.432788962498307">
        <ele>2335.6599999999999</ele>
        <time>2019-03-11T17:51:46Z</time>
      </trkpt>
      <trkpt lat="32.228317363187671" lon="-5.432827519252896">
        <ele>2336.6199999999999</ele>
        <time>2019-03-11T17:51:47Z</time>
      </trkpt>
      <trkpt lat="32.228259695693851" lon="-5.432864148169756">
        <ele>2337.0999999999999</ele>
        <time>2019-03-11T17:51:55Z</time>
      </trkpt>
      <trkpt lat="32.227664664387703" lon="-5.433127256110311">
        <ele>2338.0599999999999</ele>
        <time>2019-03-11T17:51:56Z</time>
      </trkpt>
      <trkpt lat="32.227596854791045" lon="-5.433168075978756">
        <ele>2338.54</ele>
        <time>2019-03-11T17:51:57Z</time>
      </trkpt>
      <trkpt lat="32.227536588907242" lon="-5.433209482580423">
        <ele>2343.8299999999999</ele>
        <time>2019-03-11T17:51:58Z</time>
      </trkpt>
      <trkpt lat="32.227487387135625" lon="-5.433250805363059">
        <ele>2344.79</ele>
        <time>2019-03-11T17:51:59Z</time>
      </trkpt>
      <trkpt lat="32.227446567267179" lon="-5.433291206136346">
        <ele>2346.7199999999998</ele>
        <time>2019-03-11T17:52:07Z</time>
      </trkpt>
      <trkpt lat="32.227318324148655" lon="-5.433465717360377">
        <ele>2347.1999999999998</ele>
        <time>2019-03-11T17:52:10Z</time>
      </trkpt>
      <trkpt lat="32.227226793766022" lon="-5.433591278269887">
        <ele>2347.6799999999998</ele>
        <time>2019-03-11T17:52:13Z</time>
      </trkpt>
      <trkpt lat="32.227119924500585" lon="-5.43373360298574">
        <ele>2349.1199999999999</ele>
        <time>2019-03-11T17:52:14Z</time>
      </trkpt>
      <trkpt lat="32.227087989449501" lon="-5.433791941031814">
        <ele>2350.0799999999999</ele>
        <time>2019-03-11T17:52:15Z</time>
      </trkpt>
      <trkpt lat="32.227058736607432" lon="-5.433855894953013">
        <ele>2350.5599999999999</ele>
        <time>2019-03-11T17:52:18Z</time>
      </trkpt>
      <trkpt lat="32.226968463510275" lon="-5.434089917689562">
        <ele>2351.52</ele>
        <time>2019-03-11T17:52:19Z</time>
      </trkpt>
      <trkpt lat="32.226922027766705" lon="-5.434176251292229">
        <ele>2352.48</ele>
        <time>2019-03-11T17:52:20Z</time>
      </trkpt>
      <trkpt lat="32.22686561755836" lon="-5.434260321781039">
        <ele>2353.4400000000001</ele>
        <time>2019-03-11T17:52:21Z</time>
      </trkpt>
      <trkpt lat="32.226800741627812" lon="-5.434337267652154">
        <ele>2354.4099999999999</ele>
        <time>2019-03-11T17:52:22Z</time>
      </trkpt>
      <trkpt lat="32.226728992536664" lon="-5.434407759457827">
        <ele>2354.4099999999999</ele>
        <time>2019-03-11T17:52:23Z</time>
      </trkpt>
      <trkpt lat="32.226658165454865" lon="-5.434478083625436">
        <ele>2354.4099999999999</ele>
        <time>2019-03-11T17:52:24Z</time>
      </trkpt>
      <trkpt lat="32.226599575951695" lon="-5.434553604573011">
        <ele>2354.8899999999999</ele>
        <time>2019-03-11T17:52:25Z</time>
      </trkpt>
      <trkpt lat="32.226557834073901" lon="-5.434641111642122">
        <ele>2354.8899999999999</ele>
        <time>2019-03-11T17:52:26Z</time>
      </trkpt>
      <trkpt lat="32.226531766355038" lon="-5.43473825789988">
        <ele>2355.3699999999999</ele>
        <time>2019-03-11T17:52:27Z</time>
      </trkpt>
      <trkpt lat="32.226511482149363" lon="-5.434842025861144">
        <ele>2356.3299999999999</ele>
        <time>2019-03-11T17:52:28Z</time>
      </trkpt>
      <trkpt lat="32.226485833525658" lon="-5.4349410161376">
        <ele>2356.8099999999999</ele>
        <time>2019-03-11T17:52:29Z</time>
      </trkpt>
      <trkpt lat="32.226451886817813" lon="-5.435031205415726">
        <ele>2357.29</ele>
        <time>2019-03-11T17:52:33Z</time>
      </trkpt>
      <trkpt lat="32.226296653971076" lon="-5.435303701087833">
        <ele>2357.77</ele>
        <time>2019-03-11T17:52:34Z</time>
      </trkpt>
      <trkpt lat="32.226250385865569" lon="-5.435339156538248">
        <ele>2357.77</ele>
        <time>2019-03-11T17:52:35Z</time>
      </trkpt>
      <trkpt lat="32.226206632331014" lon="-5.435353070497513">
        <ele>2357.77</ele>
        <time>2019-03-11T17:52:36Z</time>
      </trkpt>
      <trkpt lat="32.226168997585773" lon="-5.435355501249433">
        <ele>2357.77</ele>
        <time>2019-03-11T17:52:37Z</time>
      </trkpt>
      <trkpt lat="32.226135637611151" lon="-5.435347706079483">
        <ele>2358.25</ele>
        <time>2019-03-11T17:52:38Z</time>
      </trkpt>
      <trkpt lat="32.226109066978097" lon="-5.435334127396345">
        <ele>2362.0999999999999</ele>
        <time>2019-03-11T17:52:39Z</time>
      </trkpt>
      <trkpt lat="32.226081825792789" lon="-5.435312334448099">
        <ele>2366.9000000000001</ele>
        <time>2019-03-11T17:52:40Z</time>
      </trkpt>
      <trkpt lat="32.226049555465579" lon="-5.435285093262792">
        <ele>2367.8600000000001</ele>
        <time>2019-03-11T17:52:52Z</time>
      </trkpt>
      <trkpt lat="32.225472293794155" lon="-5.434937831014395">
        <ele>2368.3499999999999</ele>
        <time>2019-03-11T17:53:00Z</time>
      </trkpt>
      <trkpt lat="32.224873658269644" lon="-5.434755021706224">
        <ele>2370.27</ele>
        <time>2019-03-11T17:53:01Z</time>
      </trkpt>
      <trkpt lat="32.224797131493688" lon="-5.434749908745289">
        <ele>2370.75</ele>
        <time>2019-03-11T17:53:02Z</time>
      </trkpt>
      <trkpt lat="32.224720604717731" lon="-5.434759547933936">
        <ele>2371.71</ele>
        <time>2019-03-11T17:53:05Z</time>
      </trkpt>
      <trkpt lat="32.224493958055973" lon="-5.434783268719912">
        <ele>2375.5500000000002</ele>
        <time>2019-03-11T17:53:06Z</time>
      </trkpt>
      <trkpt lat="32.224417682737112" lon="-5.434760805219412">
        <ele>2376.04</ele>
        <time>2019-03-11T17:53:07Z</time>
      </trkpt>
      <trkpt lat="32.224346855655313" lon="-5.434718308970332">
        <ele>2376.04</ele>
        <time>2019-03-11T17:53:12Z</time>
      </trkpt>
      <trkpt lat="32.224007891491055" lon="-5.434465846046805">
        <ele>2376.52</ele>
        <time>2019-03-11T17:53:13Z</time>
      </trkpt>
      <trkpt lat="32.223942847922444" lon="-5.434446902945638">
        <ele>2377.48</ele>
        <time>2019-03-11T17:53:14Z</time>
      </trkpt>
      <trkpt lat="32.223879732191563" lon="-5.434460146352649">
        <ele>2377.96</ele>
        <time>2019-03-11T17:53:15Z</time>
      </trkpt>
      <trkpt lat="32.223823321983218" lon="-5.434503899887204">
        <ele>2378.9200000000001</ele>
        <time>2019-03-11T17:53:16Z</time>
      </trkpt>
      <trkpt lat="32.223773365840316" lon="-5.434572044759989">
        <ele>2382.2800000000002</ele>
        <time>2019-03-11T17:53:17Z</time>
      </trkpt>
      <trkpt lat="32.223730031400919" lon="-5.434654941782355">
        <ele>2383.25</ele>
        <time>2019-03-11T17:53:18Z</time>
      </trkpt>
      <trkpt lat="32.223688457161188" lon="-5.434744376689196">
        <ele>2386.6100000000001</ele>
        <time>2019-03-11T17:53:21Z</time>
      </trkpt>
      <trkpt lat="32.223543366417289" lon="-5.435024499893189">
        <ele>2387.5700000000002</ele>
        <time>2019-03-11T17:53:22Z</time>
      </trkpt>
      <trkpt lat="32.223481340333819" lon="-5.435109408572316">
        <ele>2388.5300000000002</ele>
        <time>2019-03-11T17:53:25Z</time>
      </trkpt>
      <trkpt lat="32.223288305103779" lon="-5.435333205386996">
        <ele>2389.0100000000002</ele>
        <time>2019-03-11T17:53:26Z</time>
      </trkpt>
      <trkpt lat="32.223213454708457" lon="-5.43538567610085">
        <ele>2389.0100000000002</ele>
        <time>2019-03-11T17:53:27Z</time>
      </trkpt>
      <trkpt lat="32.223124941810966" lon="-5.435413252562285">
        <ele>2391.4200000000001</ele>
        <time>2019-03-11T17:53:28Z</time>
      </trkpt>
      <trkpt lat="32.223023604601622" lon="-5.435421802103519">
        <ele>2392.3800000000001</ele>
        <time>2019-03-11T17:53:29Z</time>
      </trkpt>
      <trkpt lat="32.222913047298789" lon="-5.43542473576963">
        <ele>2392.8600000000001</ele>
        <time>2019-03-11T17:53:34Z</time>
      </trkpt>
      <trkpt lat="32.222400829195976" lon="-5.435556918382645">
        <ele>2392.8600000000001</ele>
        <time>2019-03-11T17:53:35Z</time>
      </trkpt>
      <trkpt lat="32.22232136875391" lon="-5.435610646381974">
        <ele>2393.3400000000001</ele>
        <time>2019-03-11T17:53:36Z</time>
      </trkpt>
      <trkpt lat="32.222259342670441" lon="-5.435665799304843">
        <ele>2392.8600000000001</ele>
        <time>2019-03-11T17:53:37Z</time>
      </trkpt>
      <trkpt lat="32.222217097878456" lon="-5.435728915035725">
        <ele>2392.8600000000001</ele>
        <time>2019-03-11T17:53:38Z</time>
      </trkpt>
      <trkpt lat="32.222195137292147" lon="-5.435804184526205">
        <ele>2389.9699999999998</ele>
        <time>2019-03-11T17:53:39Z</time>
      </trkpt>
      <trkpt lat="32.222186168655753" lon="-5.435890350490809">
        <ele>2389.4899999999998</ele>
        <time>2019-03-11T17:53:40Z</time>
      </trkpt>
      <trkpt lat="32.222182564437389" lon="-5.435989424586296">
        <ele>2389.4899999999998</ele>
        <time>2019-03-11T17:53:48Z</time>
      </trkpt>
      <trkpt lat="32.222125735133886" lon="-5.436921995133162">
        <ele>2389.4899999999998</ele>
        <time>2019-03-11T17:53:49Z</time>
      </trkpt>
      <trkpt lat="32.222090698778629" lon="-5.437003551051021">
        <ele>2389.4899999999998</ele>
        <time>2019-03-11T17:53:50Z</time>
      </trkpt>
      <trkpt lat="32.222035881131887" lon="-5.437065158039331">
        <ele>2389.9699999999998</ele>
        <time>2019-03-11T17:53:51Z</time>
      </trkpt>
      <trkpt lat="32.221962371841073" lon="-5.437089549377561">
        <ele>2390.46</ele>
        <time>2019-03-11T17:53:52Z</time>
      </trkpt>
      <trkpt lat="32.221882827579975" lon="-5.437079574912787">
        <ele>2390.46</ele>
        <time>2019-03-11T17:53:53Z</time>
      </trkpt>
      <trkpt lat="32.221805546432734" lon="-5.437044287100434">
        <ele>2390.9400000000001</ele>
        <time>2019-03-11T17:53:54Z</time>
      </trkpt>
      <trkpt lat="32.221731031313539" lon="-5.436991481110454">
        <ele>2392.3800000000001</ele>
        <time>2019-03-11T17:53:55Z</time>
      </trkpt>
      <trkpt lat="32.221657941117883" lon="-5.436930628493428">
        <ele>2392.8600000000001</ele>
        <time>2019-03-11T17:53:56Z</time>
      </trkpt>
      <trkpt lat="32.221579905599356" lon="-5.436863824725151">
        <ele>2393.3400000000001</ele>
        <time>2019-03-11T17:54:02Z</time>
      </trkpt>
      <trkpt lat="32.221098281443119" lon="-5.436416314914823">
        <ele>2393.8200000000002</ele>
        <time>2019-03-11T17:54:03Z</time>
      </trkpt>
      <trkpt lat="32.221011193469167" lon="-5.436363006010652">
        <ele>2393.8200000000002</ele>
        <time>2019-03-11T17:54:04Z</time>
      </trkpt>
      <trkpt lat="32.220916645601392" lon="-5.436325371265411">
        <ele>2394.3000000000002</ele>
        <time>2019-03-11T17:54:05Z</time>
      </trkpt>
      <trkpt lat="32.220818493515253" lon="-5.436307517811656">
        <ele>2394.7800000000002</ele>
        <time>2019-03-11T17:54:06Z</time>
      </trkpt>
      <trkpt lat="32.220721933990717" lon="-5.436307936906815">
        <ele>2394.7800000000002</ele>
        <time>2019-03-11T17:54:07Z</time>
      </trkpt>
      <trkpt lat="32.220627386122942" lon="-5.436329897493124">
        <ele>2395.2600000000002</ele>
        <time>2019-03-11T17:54:08Z</time>
      </trkpt>
      <trkpt lat="32.220534598454833" lon="-5.436377255246043">
        <ele>2395.2600000000002</ele>
        <time>2019-03-11T17:54:09Z</time>
      </trkpt>
      <trkpt lat="32.220447259023786" lon="-5.436443975195289">
        <ele>2395.2600000000002</ele>
        <time>2019-03-11T17:54:10Z</time>
      </trkpt>
      <trkpt lat="32.220367714762688" lon="-5.436511868610978">
        <ele>2395.7399999999998</ele>
        <time>2019-03-11T17:54:11Z</time>
      </trkpt>
      <trkpt lat="32.220302419736981" lon="-5.43658034875989">
        <ele>2395.2600000000002</ele>
        <time>2019-03-11T17:54:12Z</time>
      </trkpt>
      <trkpt lat="32.220249697566032" lon="-5.436657126992941">
        <ele>2395.7399999999998</ele>
        <time>2019-03-11T17:54:13Z</time>
      </trkpt>
      <trkpt lat="32.220211727544665" lon="-5.436744801700115">
        <ele>2395.7399999999998</ele>
        <time>2019-03-11T17:54:14Z</time>
      </trkpt>
      <trkpt lat="32.220182055607438" lon="-5.436835242435336">
        <ele>2396.2199999999998</ele>
        <time>2019-03-11T17:54:15Z</time>
      </trkpt>
      <trkpt lat="32.220161939039826" lon="-5.436928030103445">
        <ele>2396.2199999999998</ele>
        <time>2019-03-11T17:54:16Z</time>
      </trkpt>
      <trkpt lat="32.220146851614118" lon="-5.437020566314459">
        <ele>2396.6999999999998</ele>
        <time>2019-03-11T17:54:17Z</time>
      </trkpt>
      <trkpt lat="32.220126399770379" lon="-5.437107151374221">
        <ele>2397.6700000000001</ele>
        <time>2019-03-11T17:54:18Z</time>
      </trkpt>
      <trkpt lat="32.220098823308945" lon="-5.437191976234317">
        <ele>2398.1500000000001</ele>
        <time>2019-03-11T17:54:19Z</time>
      </trkpt>
      <trkpt lat="32.220066804438829" lon="-5.437276633456349">
        <ele>2398.6300000000001</ele>
        <time>2019-03-11T17:54:22Z</time>
      </trkpt>
      <trkpt lat="32.219945518299937" lon="-5.437555834650993">
        <ele>2399.1100000000001</ele>
        <time>2019-03-11T17:54:23Z</time>
      </trkpt>
      <trkpt lat="32.219885671511292" lon="-5.437653651461005">
        <ele>2399.5900000000001</ele>
        <time>2019-03-11T17:54:24Z</time>
      </trkpt>
      <trkpt lat="32.219814509153366" lon="-5.437756665050983">
        <ele>2407.7600000000002</ele>
        <time>2019-03-11T17:54:25Z</time>
      </trkpt>
      <trkpt lat="32.219731276854873" lon="-5.437862612307072">
        <ele>2415.4499999999998</ele>
        <time>2019-03-11T17:54:26Z</time>
      </trkpt>
      <trkpt lat="32.219638070091605" lon="-5.437969146296382">
        <ele>2416.4099999999999</ele>
        <time>2019-03-11T17:54:35Z</time>
      </trkpt>
      <trkpt lat="32.21876366995275" lon="-5.438821837306023">
        <ele>2417.3699999999999</ele>
        <time>2019-03-11T17:54:42Z</time>
      </trkpt>
      <trkpt lat="32.21821348182857" lon="-5.439488450065255">
        <ele>2418.3299999999999</ele>
        <time>2019-03-11T17:54:43Z</time>
      </trkpt>
      <trkpt lat="32.21815774217248" lon="-5.439592218026519">
        <ele>2419.3000000000002</ele>
        <time>2019-03-11T17:54:44Z</time>
      </trkpt>
      <trkpt lat="32.21811231225729" lon="-5.439705541357398">
        <ele>2426.02</ele>
        <time>2019-03-11T17:54:45Z</time>
      </trkpt>
      <trkpt lat="32.218077694997191" lon="-5.439830264076591">
        <ele>2426.5</ele>
        <time>2019-03-11T17:54:46Z</time>
      </trkpt>
      <trkpt lat="32.218049028888345" lon="-5.439962195232511">
        <ele>2426.5</ele>
        <time>2019-03-11T17:54:55Z</time>
      </trkpt>
      <trkpt lat="32.217764547094703" lon="-5.441127447411418">
        <ele>2426.9899999999998</ele>
        <time>2019-03-11T17:54:56Z</time>
      </trkpt>
      <trkpt lat="32.217759434133768" lon="-5.441221911460161">
        <ele>2428.4299999999998</ele>
        <time>2019-03-11T17:54:57Z</time>
      </trkpt>
      <trkpt lat="32.217768738046288" lon="-5.44131369329989">
        <ele>2429.3899999999999</ele>
        <time>2019-03-11T17:54:58Z</time>
      </trkpt>
      <trkpt lat="32.217787094414234" lon="-5.441405307501555">
        <ele>2429.8699999999999</ele>
        <time>2019-03-11T17:55:00Z</time>
      </trkpt>
      <trkpt lat="32.217835290357471" lon="-5.441588116809726">
        <ele>2430.8299999999999</ele>
        <time>2019-03-11T17:55:01Z</time>
      </trkpt>
      <trkpt lat="32.217849036678672" lon="-5.44168165884912">
        <ele>2431.3099999999999</ele>
        <time>2019-03-11T17:55:02Z</time>
      </trkpt>
      <trkpt lat="32.21785381436348" lon="-5.441775787621737">
        <ele>2432.27</ele>
        <time>2019-03-11T17:55:03Z</time>
      </trkpt>
      <trkpt lat="32.217850293964148" lon="-5.441867904737592">
        <ele>2433.23</ele>
        <time>2019-03-11T17:55:04Z</time>
      </trkpt>
      <trkpt lat="32.217836547642946" lon="-5.441954070702195">
        <ele>2434.1999999999998</ele>
        <time>2019-03-11T17:55:05Z</time>
      </trkpt>
      <trkpt lat="32.217813329771161" lon="-5.442030765116215">
        <ele>2434.6799999999998</ele>
        <time>2019-03-11T17:55:06Z</time>
      </trkpt>
      <trkpt lat="32.217784076929092" lon="-5.442099077627063">
        <ele>2435.6399999999999</ele>
        <time>2019-03-11T17:55:07Z</time>
      </trkpt>
      <trkpt lat="32.21775071695447" lon="-5.442158840596676">
        <ele>2437.5599999999999</ele>
        <time>2019-03-11T17:55:08Z</time>
      </trkpt>
      <trkpt lat="32.217717105522752" lon="-5.442209132015705">
        <ele>2436.5999999999999</ele>
        <time>2019-03-11T17:55:09Z</time>
      </trkpt>
      <trkpt lat="32.217686427757144" lon="-5.442251628264785">
        <ele>2436.5999999999999</ele>
        <time>2019-03-11T17:55:16Z</time>
      </trkpt>
      <trkpt lat="32.217605961486697" lon="-5.442375596612692">
        <ele>2437.0799999999999</ele>
        <time>2019-03-11T17:55:27Z</time>
      </trkpt>
      <trkpt lat="32.217546785250306" lon="-5.442582881078124">
        <ele>2437.5599999999999</ele>
        <time>2019-03-11T17:55:29Z</time>
      </trkpt>
      <trkpt lat="32.217570003122091" lon="-5.442664520815015">
        <ele>2438.04</ele>
        <time>2019-03-11T17:55:30Z</time>
      </trkpt>
      <trkpt lat="32.217591376975179" lon="-5.442712297663093">
        <ele>2438.04</ele>
        <time>2019-03-11T17:55:31Z</time>
      </trkpt>
      <trkpt lat="32.217623647302389" lon="-5.442762337625027">
        <ele>2440.4400000000001</ele>
        <time>2019-03-11T17:55:32Z</time>
      </trkpt>
      <trkpt lat="32.217660779133439" lon="-5.442810449749231">
        <ele>2440.4400000000001</ele>
        <time>2019-03-11T17:55:33Z</time>
      </trkpt>
      <trkpt lat="32.217700090259314" lon="-5.44285386800766">
        <ele>2440.9200000000001</ele>
        <time>2019-03-11T17:55:40Z</time>
      </trkpt>
      <trkpt lat="32.218097979202867" lon="-5.443210350349546">
        <ele>2441.4099999999999</ele>
        <time>2019-03-11T17:55:41Z</time>
      </trkpt>
      <trkpt lat="32.218143409118056" lon="-5.443274052813649">
        <ele>2441.8899999999999</ele>
        <time>2019-03-11T17:55:42Z</time>
      </trkpt>
      <trkpt lat="32.218172494322062" lon="-5.443343538790941">
        <ele>2442.3699999999999</ele>
        <time>2019-03-11T17:55:43Z</time>
      </trkpt>
      <trkpt lat="32.218182384967804" lon="-5.44341922737658">
        <ele>2442.8499999999999</ele>
        <time>2019-03-11T17:55:44Z</time>
      </trkpt>
      <trkpt lat="32.21817534416914" lon="-5.443498436361551">
        <ele>2443.8099999999999</ele>
        <time>2019-03-11T17:55:45Z</time>
      </trkpt>
      <trkpt lat="32.218153802677989" lon="-5.443577310070396">
        <ele>2444.29</ele>
        <time>2019-03-11T17:55:46Z</time>
      </trkpt>
      <trkpt lat="32.218118011951447" lon="-5.443653585389257">
        <ele>2444.77</ele>
        <time>2019-03-11T17:55:47Z</time>
      </trkpt>
      <trkpt lat="32.218080963939428" lon="-5.443725250661373">
        <ele>2450.0599999999999</ele>
        <time>2019-03-11T17:55:49Z</time>
      </trkpt>
      <trkpt lat="32.218025643378496" lon="-5.443857433274388">
        <ele>2450.54</ele>
        <time>2019-03-11T17:55:50Z</time>
      </trkpt>
      <trkpt lat="32.218010472133756" lon="-5.44392641633749">
        <ele>2451.02</ele>
        <time>2019-03-11T17:55:58Z</time>
      </trkpt>
      <trkpt lat="32.218036707490683" lon="-5.44466813094914">
        <ele>2451.5</ele>
        <time>2019-03-11T17:55:59Z</time>
      </trkpt>
      <trkpt lat="32.218067049980164" lon="-5.444756895303726">
        <ele>2451.98</ele>
        <time>2019-03-11T17:56:00Z</time>
      </trkpt>
      <trkpt lat="32.218111557886004" lon="-5.444833757355809">
        <ele>2452.46</ele>
        <time>2019-03-11T17:56:01Z</time>
      </trkpt>
      <trkpt lat="32.218174925073981" lon="-5.444898549467325">
        <ele>2452.9400000000001</ele>
        <time>2019-03-11T17:56:02Z</time>
      </trkpt>
      <trkpt lat="32.218256145715714" lon="-5.444948589429259">
        <ele>2455.3400000000001</ele>
        <time>2019-03-11T17:56:03Z</time>
      </trkpt>
      <trkpt lat="32.218353124335408" lon="-5.444988738745451">
        <ele>2455.8200000000002</ele>
        <time>2019-03-11T17:56:04Z</time>
      </trkpt>
      <trkpt lat="32.218452617526054" lon="-5.445022517815232">
        <ele>2456.79</ele>
        <time>2019-03-11T17:56:07Z</time>
      </trkpt>
      <trkpt lat="32.218740535899997" lon="-5.445132907480001">
        <ele>2457.27</ele>
        <time>2019-03-11T17:56:08Z</time>
      </trkpt>
      <trkpt lat="32.218831060454249" lon="-5.445187808945775">
        <ele>2457.75</ele>
        <time>2019-03-11T17:56:09Z</time>
      </trkpt>
      <trkpt lat="32.218911023810506" lon="-5.445260312408209">
        <ele>2458.71</ele>
        <time>2019-03-11T17:56:10Z</time>
      </trkpt>
      <trkpt lat="32.218970786780119" lon="-5.445352848619223">
        <ele>2459.1900000000001</ele>
        <time>2019-03-11T17:56:11Z</time>
      </trkpt>
      <trkpt lat="32.219008840620518" lon="-5.445459885522723">
        <ele>2459.6700000000001</ele>
        <time>2019-03-11T17:56:12Z</time>
      </trkpt>
      <trkpt lat="32.219028705731034" lon="-5.445575639605522">
        <ele>2461.1100000000001</ele>
        <time>2019-03-11T17:56:13Z</time>
      </trkpt>
      <trkpt lat="32.21903482452035" lon="-5.445699356496334">
        <ele>2463.52</ele>
        <time>2019-03-11T17:56:14Z</time>
      </trkpt>
      <trkpt lat="32.219033818691969" lon="-5.445831622928381">
        <ele>2464.48</ele>
        <time>2019-03-11T17:56:16Z</time>
      </trkpt>
      <trkpt lat="32.219042452052236" lon="-5.446100682020187">
        <ele>2465.4400000000001</ele>
        <time>2019-03-11T17:56:19Z</time>
      </trkpt>
      <trkpt lat="32.21908955834806" lon="-5.446490608155727">
        <ele>2466.4000000000001</ele>
        <time>2019-03-11T17:56:20Z</time>
      </trkpt>
      <trkpt lat="32.219086876139045" lon="-5.446614911779761">
        <ele>2467.3600000000001</ele>
        <time>2019-03-11T17:56:21Z</time>
      </trkpt>
      <trkpt lat="32.219065083190799" lon="-5.446737371385098">
        <ele>2467.8400000000001</ele>
        <time>2019-03-11T17:56:22Z</time>
      </trkpt>
      <trkpt lat="32.219025772064924" lon="-5.446853460744023">
        <ele>2468.8000000000002</ele>
        <time>2019-03-11T17:56:23Z</time>
      </trkpt>
      <trkpt lat="32.218975815922022" lon="-5.446965862065554">
        <ele>2469.2800000000002</ele>
        <time>2019-03-11T17:56:24Z</time>
      </trkpt>
      <trkpt lat="32.218934074044228" lon="-5.447078431025147">
        <ele>2470.2399999999998</ele>
        <time>2019-03-11T17:56:25Z</time>
      </trkpt>
      <trkpt lat="32.218909095972776" lon="-5.447183204814792">
        <ele>2471.21</ele>
        <time>2019-03-11T17:56:26Z</time>
      </trkpt>
      <trkpt lat="32.218897109851241" lon="-5.447273226454854">
        <ele>2470.2399999999998</ele>
        <time>2019-03-11T17:56:27Z</time>
      </trkpt>
      <trkpt lat="32.218894008547068" lon="-5.447345897555351">
        <ele>2468.3200000000002</ele>
        <time>2019-03-11T17:56:28Z</time>
      </trkpt>
      <trkpt lat="32.218893673270941" lon="-5.447399793192744">
        <ele>2472.1700000000001</ele>
        <time>2019-03-11T17:56:35Z</time>
      </trkpt>
      <trkpt lat="32.218898199498653" lon="-5.447460729628801">
        <ele>2473.1300000000001</ele>
        <time>2019-03-11T17:57:00Z</time>
      </trkpt>
      <trkpt lat="32.218895014375448" lon="-5.44749928638339">
        <ele>2473.6100000000001</ele>
        <time>2019-03-11T17:57:08Z</time>
      </trkpt>
      <trkpt lat="32.219013953581452" lon="-5.447928439825773">
        <ele>2474.0900000000001</ele>
        <time>2019-03-11T17:57:10Z</time>
      </trkpt>
      <trkpt lat="32.219046978279948" lon="-5.448101023212075">
        <ele>2475.0500000000002</ele>
        <time>2019-03-11T17:57:11Z</time>
      </trkpt>
      <trkpt lat="32.219046056270599" lon="-5.44818576425314">
        <ele>2475.5300000000002</ele>
        <time>2019-03-11T17:57:12Z</time>
      </trkpt>
      <trkpt lat="32.21902946010232" lon="-5.448268661275506">
        <ele>2476.4899999999998</ele>
        <time>2019-03-11T17:57:13Z</time>
      </trkpt>
      <trkpt lat="32.21899333409965" lon="-5.448348373174667">
        <ele>2477.4499999999998</ele>
        <time>2019-03-11T17:57:14Z</time>
      </trkpt>
      <trkpt lat="32.218940444290638" lon="-5.448417104780674">
        <ele>2478.9000000000001</ele>
        <time>2019-03-11T17:57:15Z</time>
      </trkpt>
      <trkpt lat="32.218874311074615" lon="-5.448477873578668">
        <ele>2479.8600000000001</ele>
        <time>2019-03-11T17:57:16Z</time>
      </trkpt>
      <trkpt lat="32.218800550326705" lon="-5.44853562489152">
        <ele>2480.3400000000001</ele>
        <time>2019-03-11T17:57:18Z</time>
      </trkpt>
      <trkpt lat="32.218657052144408" lon="-5.448668980970979">
        <ele>2480.8200000000002</ele>
        <time>2019-03-11T17:57:19Z</time>
      </trkpt>
      <trkpt lat="32.218595864251256" lon="-5.448750117793679">
        <ele>2481.3000000000002</ele>
        <time>2019-03-11T17:57:20Z</time>
      </trkpt>
      <trkpt lat="32.218545321375132" lon="-5.448836870491505">
        <ele>2481.3000000000002</ele>
        <time>2019-03-11T17:57:21Z</time>
      </trkpt>
      <trkpt lat="32.218511458486319" lon="-5.448927730321884">
        <ele>2481.7800000000002</ele>
        <time>2019-03-11T17:57:22Z</time>
      </trkpt>
      <trkpt lat="32.218498298898339" lon="-5.449022529646754">
        <ele>2482.2600000000002</ele>
        <time>2019-03-11T17:57:23Z</time>
      </trkpt>
      <trkpt lat="32.218497209250927" lon="-5.449113976210356">
        <ele>2482.7399999999998</ele>
        <time>2019-03-11T17:57:24Z</time>
      </trkpt>
      <trkpt lat="32.218494694679976" lon="-5.449197459965944">
        <ele>2483.6999999999998</ele>
        <time>2019-03-11T17:57:25Z</time>
      </trkpt>
      <trkpt lat="32.218476673588157" lon="-5.449277674779296">
        <ele>2484.1799999999998</ele>
        <time>2019-03-11T17:57:26Z</time>
      </trkpt>
      <trkpt lat="32.218436440452933" lon="-5.449348334223032">
        <ele>2485.1500000000001</ele>
        <time>2019-03-11T17:57:27Z</time>
      </trkpt>
      <trkpt lat="32.218374330550432" lon="-5.449399882927537">
        <ele>2485.6300000000001</ele>
        <time>2019-03-11T17:57:28Z</time>
      </trkpt>
      <trkpt lat="32.218300988897681" lon="-5.449436008930206">
        <ele>2486.5900000000001</ele>
        <time>2019-03-11T17:57:29Z</time>
      </trkpt>
      <trkpt lat="32.218221612274647" lon="-5.449469787999988">
        <ele>2487.5500000000002</ele>
        <time>2019-03-11T17:57:30Z</time>
      </trkpt>
      <trkpt lat="32.21814164891839" lon="-5.449514044448733">
        <ele>2488.0300000000002</ele>
        <time>2019-03-11T17:57:31Z</time>
      </trkpt>
      <trkpt lat="32.218063864856958" lon="-5.449569951742888">
        <ele>2488.9899999999998</ele>
        <time>2019-03-11T17:57:32Z</time>
      </trkpt>
      <trkpt lat="32.217994965612888" lon="-5.44963943772018">
        <ele>2489.4699999999998</ele>
        <time>2019-03-11T17:57:33Z</time>
      </trkpt>
      <trkpt lat="32.21793788485229" lon="-5.449717976152897">
        <ele>2489.9499999999998</ele>
        <time>2019-03-11T17:57:34Z</time>
      </trkpt>
      <trkpt lat="32.217885497957468" lon="-5.449796179309487">
        <ele>2490.4299999999998</ele>
        <time>2019-03-11T17:57:35Z</time>
      </trkpt>
      <trkpt lat="32.21782498061657" lon="-5.449856529012322">
        <ele>2491.3899999999999</ele>
        <time>2019-03-11T17:57:36Z</time>
      </trkpt>
      <trkpt lat="32.217746945098042" lon="-5.449886284768581">
        <ele>2494.7600000000002</ele>
        <time>2019-03-11T17:57:37Z</time>
      </trkpt>
      <trkpt lat="32.217655163258314" lon="-5.449885278940201">
        <ele>2495.7199999999998</ele>
        <time>2019-03-11T17:57:38Z</time>
      </trkpt>
      <trkpt lat="32.217558017000556" lon="-5.449873208999634">
        <ele>2496.1999999999998</ele>
        <time>2019-03-11T17:57:43Z</time>
      </trkpt>
      <trkpt lat="32.217078488320112" lon="-5.449813697487116">
        <ele>2497.1599999999999</ele>
        <time>2019-03-11T17:57:44Z</time>
      </trkpt>
      <trkpt lat="32.217001626268029" lon="-5.449823252856731">
        <ele>2498.1199999999999</ele>
        <time>2019-03-11T17:57:45Z</time>
      </trkpt>
      <trkpt lat="32.216932140290737" lon="-5.449849823489785">
        <ele>2498.5999999999999</ele>
        <time>2019-03-11T17:57:46Z</time>
      </trkpt>
      <trkpt lat="32.21687170676887" lon="-5.449900617823005">
        <ele>2499.0799999999999</ele>
        <time>2019-03-11T17:57:47Z</time>
      </trkpt>
      <trkpt lat="32.216828456148505" lon="-5.44997219927609">
        <ele>2499.5700000000002</ele>
        <time>2019-03-11T17:57:48Z</time>
      </trkpt>
      <trkpt lat="32.216806411743164" lon="-5.450059957802296">
        <ele>2500.0500000000002</ele>
        <time>2019-03-11T17:57:49Z</time>
      </trkpt>
      <trkpt lat="32.216804148629308" lon="-5.450157439336181">
        <ele>2509.1799999999998</ele>
        <time>2019-03-11T17:57:50Z</time>
      </trkpt>
      <trkpt lat="32.216819655150175" lon="-5.450261374935508">
        <ele>2510.1399999999999</ele>
        <time>2019-03-11T17:57:51Z</time>
      </trkpt>
      <trkpt lat="32.216843627393246" lon="-5.450370172038674">
        <ele>2511.0999999999999</ele>
        <time>2019-03-11T17:58:02Z</time>
      </trkpt>
      <trkpt lat="32.217127438634634" lon="-5.451719742268324">
        <ele>2518.79</ele>
        <time>2019-03-11T17:58:03Z</time>
      </trkpt>
      <trkpt lat="32.217136826366186" lon="-5.451861815527082">
        <ele>2519.75</ele>
        <time>2019-03-11T17:58:04Z</time>
      </trkpt>
      <trkpt lat="32.217134395614266" lon="-5.452012605965138">
        <ele>2520.23</ele>
        <time>2019-03-11T17:58:11Z</time>
      </trkpt>
      <trkpt lat="32.217044206336141" lon="-5.452998317778111">
        <ele>2521.1900000000001</ele>
        <time>2019-03-11T17:58:12Z</time>
      </trkpt>
      <trkpt lat="32.21701093018055" lon="-5.453097810968757">
        <ele>2521.6799999999998</ele>
        <time>2019-03-11T17:58:13Z</time>
      </trkpt>
      <trkpt lat="32.216958710923791" lon="-5.453185150399804">
        <ele>2522.1599999999999</ele>
        <time>2019-03-11T17:58:14Z</time>
      </trkpt>
      <trkpt lat="32.216887045651674" lon="-5.453254384920001">
        <ele>2523.1199999999999</ele>
        <time>2019-03-11T17:58:15Z</time>
      </trkpt>
      <trkpt lat="32.216799035668373" lon="-5.453299731016159">
        <ele>2523.5999999999999</ele>
        <time>2019-03-11T17:58:16Z</time>
      </trkpt>
      <trkpt lat="32.216701805591583" lon="-5.453328145667911">
        <ele>2524.5599999999999</ele>
        <time>2019-03-11T17:58:17Z</time>
      </trkpt>
      <trkpt lat="32.216604994609952" lon="-5.453356225043535">
        <ele>2525.04</ele>
        <time>2019-03-11T17:58:18Z</time>
      </trkpt>
      <trkpt lat="32.216518661007285" lon="-5.453401319682598">
        <ele>2525.04</ele>
        <time>2019-03-11T17:58:19Z</time>
      </trkpt>
      <trkpt lat="32.216449426487088" lon="-5.453469464555383">
        <ele>2525.04</ele>
        <time>2019-03-11T17:58:20Z</time>
      </trkpt>
      <trkpt lat="32.216399302706122" lon="-5.453557055443525">
        <ele>2525.52</ele>
        <time>2019-03-11T17:58:21Z</time>
      </trkpt>
      <trkpt lat="32.216365607455373" lon="-5.453656045719981">
        <ele>2525.52</ele>
        <time>2019-03-11T17:58:22Z</time>
      </trkpt>
      <trkpt lat="32.216341383755207" lon="-5.45376350171864">
        <ele>2526</ele>
        <time>2019-03-11T17:58:23Z</time>
      </trkpt>
      <trkpt lat="32.216317746788263" lon="-5.453875567764044">
        <ele>2526</ele>
        <time>2019-03-11T17:58:24Z</time>
      </trkpt>
      <trkpt lat="32.216286398470402" lon="-5.45398922637105">
        <ele>2526.48</ele>
        <time>2019-03-11T17:58:25Z</time>
      </trkpt>
      <trkpt lat="32.216251781210303" lon="-5.454095173627138">
        <ele>2526.96</ele>
        <time>2019-03-11T17:58:26Z</time>
      </trkpt>
      <trkpt lat="32.216204674914479" lon="-5.454186536371708">
        <ele>2527.4400000000001</ele>
        <time>2019-03-11T17:58:27Z</time>
      </trkpt>
      <trkpt lat="32.216143067926168" lon="-5.454256357625127">
        <ele>2527.9200000000001</ele>
        <time>2019-03-11T17:58:28Z</time>
      </trkpt>
      <trkpt lat="32.216068133711815" lon="-5.454294998198748">
        <ele>2528.4000000000001</ele>
        <time>2019-03-11T17:58:29Z</time>
      </trkpt>
      <trkpt lat="32.215985655784607" lon="-5.454293237999082">
        <ele>2528.8899999999999</ele>
        <time>2019-03-11T17:58:30Z</time>
      </trkpt>
      <trkpt lat="32.215902674943209" lon="-5.454242946580052">
        <ele>2529.3699999999999</ele>
        <time>2019-03-11T17:58:31Z</time>
      </trkpt>
      <trkpt lat="32.215823465958238" lon="-5.454173544421792">
        <ele>2529.8499999999999</ele>
        <time>2019-03-11T17:58:32Z</time>
      </trkpt>
      <trkpt lat="32.215746100991964" lon="-5.45412702485919">
        <ele>2530.3299999999999</ele>
        <time>2019-03-11T17:58:33Z</time>
      </trkpt>
      <trkpt lat="32.215673429891467" lon="-5.454120403155685">
        <ele>2530.8099999999999</ele>
        <time>2019-03-11T17:58:34Z</time>
      </trkpt>
      <trkpt lat="32.215617522597313" lon="-5.454153930768371">
        <ele>2530.8099999999999</ele>
        <time>2019-03-11T17:58:35Z</time>
      </trkpt>
      <trkpt lat="32.215585503727198" lon="-5.454212771728635">
        <ele>2530.8099999999999</ele>
        <time>2019-03-11T17:58:36Z</time>
      </trkpt>
      <trkpt lat="32.215573349967599" lon="-5.454277480021119">
        <ele>2531.77</ele>
        <time>2019-03-11T17:58:37Z</time>
      </trkpt>
      <trkpt lat="32.215575277805328" lon="-5.454335063695908">
        <ele>2532.25</ele>
        <time>2019-03-11T17:58:38Z</time>
      </trkpt>
      <trkpt lat="32.215582570061088" lon="-5.454390970990062">
        <ele>2532.73</ele>
        <time>2019-03-11T17:58:39Z</time>
      </trkpt>
      <trkpt lat="32.215589694678783" lon="-5.45444855466485">
        <ele>2533.6900000000001</ele>
        <time>2019-03-11T17:58:40Z</time>
      </trkpt>
      <trkpt lat="32.21559002995491" lon="-5.454510413110256">
        <ele>2534.1700000000001</ele>
        <time>2019-03-11T17:58:41Z</time>
      </trkpt>
      <trkpt lat="32.215583827346563" lon="-5.454574534669519">
        <ele>2535.1300000000001</ele>
        <time>2019-03-11T17:58:42Z</time>
      </trkpt>
      <trkpt lat="32.215562704950571" lon="-5.454640416428447">
        <ele>2535.6100000000001</ele>
        <time>2019-03-11T17:58:43Z</time>
      </trkpt>
      <trkpt lat="32.215531272813678" lon="-5.454704789444804">
        <ele>2536.0999999999999</ele>
        <time>2019-03-11T17:58:44Z</time>
      </trkpt>
      <trkpt lat="32.215487519279122" lon="-5.454765139147639">
        <ele>2537.0599999999999</ele>
        <time>2019-03-11T17:58:45Z</time>
      </trkpt>
      <trkpt lat="32.215437646955252" lon="-5.454831775277853">
        <ele>2537.54</ele>
        <time>2019-03-11T17:58:46Z</time>
      </trkpt>
      <trkpt lat="32.215395653620362" lon="-5.454909140244126">
        <ele>2538.02</ele>
        <time>2019-03-11T17:58:47Z</time>
      </trkpt>
      <trkpt lat="32.215369837358594" lon="-5.454993881285191">
        <ele>2538.98</ele>
        <time>2019-03-11T17:58:48Z</time>
      </trkpt>
      <trkpt lat="32.215372519567609" lon="-5.455079041421413">
        <ele>2538.98</ele>
        <time>2019-03-11T17:58:49Z</time>
      </trkpt>
      <trkpt lat="32.215404622256756" lon="-5.455158250406385">
        <ele>2539.9400000000001</ele>
        <time>2019-03-11T17:58:50Z</time>
      </trkpt>
      <trkpt lat="32.215461283922195" lon="-5.455216588452458">
        <ele>2540.9000000000001</ele>
        <time>2019-03-11T17:58:51Z</time>
      </trkpt>
      <trkpt lat="32.215533787384629" lon="-5.455259587615728">
        <ele>2540.9000000000001</ele>
        <time>2019-03-11T17:58:52Z</time>
      </trkpt>
      <trkpt lat="32.215611906722188" lon="-5.455308789387345">
        <ele>2541.8600000000001</ele>
        <time>2019-03-11T17:58:53Z</time>
      </trkpt>
      <trkpt lat="32.215671753510833" lon="-5.455383136868477">
        <ele>2542.3400000000001</ele>
        <time>2019-03-11T17:58:54Z</time>
      </trkpt>
      <trkpt lat="32.215710645541549" lon="-5.4554751701653">
        <ele>2542.8200000000002</ele>
        <time>2019-03-11T17:58:55Z</time>
      </trkpt>
      <trkpt lat="32.215725732967257" lon="-5.455578099936247">
        <ele>2543.79</ele>
        <time>2019-03-11T17:58:56Z</time>
      </trkpt>
      <trkpt lat="32.215709974989295" lon="-5.455686897039414">
        <ele>2544.75</ele>
        <time>2019-03-11T17:58:57Z</time>
      </trkpt>
      <trkpt lat="32.215671502053738" lon="-5.455794855952263">
        <ele>2545.23</ele>
        <time>2019-03-11T17:58:58Z</time>
      </trkpt>
      <trkpt lat="32.215620372444391" lon="-5.455904994159937">
        <ele>2546.1900000000001</ele>
        <time>2019-03-11T17:58:59Z</time>
      </trkpt>
      <trkpt lat="32.215565638616681" lon="-5.456008426845074">
        <ele>2547.1500000000001</ele>
        <time>2019-03-11T17:59:00Z</time>
      </trkpt>
      <trkpt lat="32.215511994436383" lon="-5.456101968884468">
        <ele>2547.6300000000001</ele>
        <time>2019-03-11T17:59:01Z</time>
      </trkpt>
      <trkpt lat="32.215470420196652" lon="-5.456196600571275">
        <ele>2548.5900000000001</ele>
        <time>2019-03-11T17:59:02Z</time>
      </trkpt>
      <trkpt lat="32.215451477095485" lon="-5.456295004114509">
        <ele>2549.0700000000002</ele>
        <time>2019-03-11T17:59:03Z</time>
      </trkpt>
      <trkpt lat="32.215457679703832" lon="-5.456394497305155">
        <ele>2553.8800000000001</ele>
        <time>2019-03-11T17:59:04Z</time>
      </trkpt>
      <trkpt lat="32.215489530935884" lon="-5.456497594714165">
        <ele>2554.8400000000001</ele>
        <time>2019-03-11T17:59:05Z</time>
      </trkpt>
      <trkpt lat="32.215533284470439" lon="-5.456604463979602">
        <ele>2555.8000000000002</ele>
        <time>2019-03-11T17:59:11Z</time>
      </trkpt>
      <trkpt lat="32.215749369934201" lon="-5.457300078123808">
        <ele>2557.2399999999998</ele>
        <time>2019-03-11T17:59:12Z</time>
      </trkpt>
      <trkpt lat="32.215741574764252" lon="-5.45740183442831">
        <ele>2558.21</ele>
        <time>2019-03-11T17:59:13Z</time>
      </trkpt>
      <trkpt lat="32.21570192836225" lon="-5.45748925767839">
        <ele>2559.1700000000001</ele>
        <time>2019-03-11T17:59:14Z</time>
      </trkpt>
      <trkpt lat="32.215639483183622" lon="-5.457551451399922">
        <ele>2560.1300000000001</ele>
        <time>2019-03-11T17:59:15Z</time>
      </trkpt>
      <trkpt lat="32.215560525655746" lon="-5.457586739212275">
        <ele>2561.0900000000001</ele>
        <time>2019-03-11T17:59:16Z</time>
      </trkpt>
      <trkpt lat="32.21547712571919" lon="-5.457615070044994">
        <ele>2562.0500000000002</ele>
        <time>2019-03-11T17:59:17Z</time>
      </trkpt>
      <trkpt lat="32.215395485982299" lon="-5.457661002874374">
        <ele>2565.4200000000001</ele>
        <time>2019-03-11T17:59:18Z</time>
      </trkpt>
      <trkpt lat="32.215319881215692" lon="-5.457724705338478">
        <ele>2566.3800000000001</ele>
        <time>2019-03-11T17:59:19Z</time>
      </trkpt>
      <trkpt lat="32.215247796848416" lon="-5.457797208800912">
        <ele>2567.3400000000001</ele>
        <time>2019-03-11T17:59:23Z</time>
      </trkpt>
      <trkpt lat="32.21493573859334" lon="-5.458137514069676">
        <ele>2568.3000000000002</ele>
        <time>2019-03-11T17:59:24Z</time>
      </trkpt>
      <trkpt lat="32.214862229302526" lon="-5.458240862935782">
        <ele>2569.2600000000002</ele>
        <time>2019-03-11T17:59:25Z</time>
      </trkpt>
      <trkpt lat="32.214797101914883" lon="-5.458356952294707">
        <ele>2570.2199999999998</ele>
        <time>2019-03-11T17:59:26Z</time>
      </trkpt>
      <trkpt lat="32.214745217934251" lon="-5.458483770489693">
        <ele>2571.1799999999998</ele>
        <time>2019-03-11T17:59:27Z</time>
      </trkpt>
      <trkpt lat="32.214710349217057" lon="-5.45861997641623">
        <ele>2572.1399999999999</ele>
        <time>2019-03-11T17:59:28Z</time>
      </trkpt>
      <trkpt lat="32.214690316468477" lon="-5.458761462941766">
        <ele>2572.6300000000001</ele>
        <time>2019-03-11T17:59:29Z</time>
      </trkpt>
      <trkpt lat="32.21468118019402" lon="-5.458904374390841">
        <ele>2572.6300000000001</ele>
        <time>2019-03-11T17:59:30Z</time>
      </trkpt>
      <trkpt lat="32.214680090546608" lon="-5.459038568660617">
        <ele>2573.1100000000001</ele>
        <time>2019-03-11T17:59:32Z</time>
      </trkpt>
      <trkpt lat="32.214673049747944" lon="-5.45929622836411">
        <ele>2573.1100000000001</ele>
        <time>2019-03-11T17:59:34Z</time>
      </trkpt>
      <trkpt lat="32.214634660631418" lon="-5.459525054320693">
        <ele>2573.1100000000001</ele>
        <time>2019-03-11T17:59:35Z</time>
      </trkpt>
      <trkpt lat="32.21459224820137" lon="-5.459615327417851">
        <ele>2573.1100000000001</ele>
        <time>2019-03-11T17:59:36Z</time>
      </trkpt>
      <trkpt lat="32.21453407779336" lon="-5.459678694605827">
        <ele>2573.5900000000001</ele>
        <time>2019-03-11T17:59:37Z</time>
      </trkpt>
      <trkpt lat="32.21446031704545" lon="-5.45970568433404">
        <ele>2574.0700000000002</ele>
        <time>2019-03-11T17:59:38Z</time>
      </trkpt>
      <trkpt lat="32.214383706450462" lon="-5.459689423441887">
        <ele>2575.0300000000002</ele>
        <time>2019-03-11T17:59:39Z</time>
      </trkpt>
      <trkpt lat="32.214317070320249" lon="-5.459636114537716">
        <ele>2575.0300000000002</ele>
        <time>2019-03-11T17:59:40Z</time>
      </trkpt>
      <trkpt lat="32.214257726445794" lon="-5.459563191980124">
        <ele>2575.5100000000002</ele>
        <time>2019-03-11T17:59:44Z</time>
      </trkpt>
      <trkpt lat="32.213995037600398" lon="-5.459270244464278">
        <ele>2575.9899999999998</ele>
        <time>2019-03-11T17:59:45Z</time>
      </trkpt>
      <trkpt lat="32.213939297944307" lon="-5.459178211167455">
        <ele>2576.9499999999998</ele>
        <time>2019-03-11T17:59:46Z</time>
      </trkpt>
      <trkpt lat="32.213902585208416" lon="-5.45907243154943">
        <ele>2577.4299999999998</ele>
        <time>2019-03-11T17:59:47Z</time>
      </trkpt>
      <trkpt lat="32.213882720097899" lon="-5.458962377160788">
        <ele>2578.3899999999999</ele>
        <time>2019-03-11T17:59:48Z</time>
      </trkpt>
      <trkpt lat="32.213866459205747" lon="-5.458854250609875">
        <ele>2578.8699999999999</ele>
        <time>2019-03-11T17:59:49Z</time>
      </trkpt>
      <trkpt lat="32.213839972391725" lon="-5.458753332495689">
        <ele>2579.8400000000001</ele>
        <time>2019-03-11T17:59:50Z</time>
      </trkpt>
      <trkpt lat="32.213796973228455" lon="-5.458660377189517">
        <ele>2580.8000000000002</ele>
        <time>2019-03-11T17:59:51Z</time>
      </trkpt>
      <trkpt lat="32.213738802820444" lon="-5.45857940800488">
        <ele>2582.7199999999998</ele>
        <time>2019-03-11T17:59:52Z</time>
      </trkpt>
      <trkpt lat="32.213666466996074" lon="-5.458509083837271">
        <ele>2583.1999999999998</ele>
        <time>2019-03-11T17:59:53Z</time>
      </trkpt>
      <trkpt lat="32.213586503639817" lon="-5.458444962278009">
        <ele>2583.1999999999998</ele>
        <time>2019-03-11T17:59:55Z</time>
      </trkpt>
      <trkpt lat="32.213425152003765" lon="-5.458303727209568">
        <ele>2583.6799999999998</ele>
        <time>2019-03-11T17:59:56Z</time>
      </trkpt>
      <trkpt lat="32.213350385427475" lon="-5.458213035017252">
        <ele>2584.1599999999999</ele>
        <time>2019-03-11T17:59:57Z</time>
      </trkpt>
      <trkpt lat="32.213278133422136" lon="-5.458108261227608">
        <ele>2588.9699999999998</ele>
        <time>2019-03-11T17:59:58Z</time>
      </trkpt>
      <trkpt lat="32.213209569454193" lon="-5.457990160211921">
        <ele>2589.9299999999998</ele>
        <time>2019-03-11T17:59:59Z</time>
      </trkpt>
      <trkpt lat="32.213145028799772" lon="-5.45786602422595">
        <ele>2590.8899999999999</ele>
        <time>2019-03-11T18:00:05Z</time>
      </trkpt>
      <trkpt lat="32.212737081572413" lon="-5.457116682082415">
        <ele>2591.8499999999999</ele>
        <time>2019-03-11T18:00:06Z</time>
      </trkpt>
      <trkpt lat="32.212641695514321" lon="-5.457010567188263">
        <ele>2593.29</ele>
        <time>2019-03-11T18:00:07Z</time>
      </trkpt>
      <trkpt lat="32.212534407153726" lon="-5.456915181130171">
        <ele>2594.25</ele>
        <time>2019-03-11T18:00:08Z</time>
      </trkpt>
      <trkpt lat="32.212418736889958" lon="-5.456832619383931">
        <ele>2595.6999999999998</ele>
        <time>2019-03-11T18:00:09Z</time>
      </trkpt>
      <trkpt lat="32.212297450751066" lon="-5.456761624664068">
        <ele>2597.1399999999999</ele>
        <time>2019-03-11T18:00:10Z</time>
      </trkpt>
      <trkpt lat="32.212168956175447" lon="-5.456706555560231">
        <ele>2598.0999999999999</ele>
        <time>2019-03-11T18:00:11Z</time>
      </trkpt>
      <trkpt lat="32.21203769557178" lon="-5.4566649813205">
        <ele>2599.54</ele>
        <time>2019-03-11T18:00:12Z</time>
      </trkpt>
      <trkpt lat="32.211907273158431" lon="-5.456634722650051">
        <ele>2600.98</ele>
        <time>2019-03-11T18:00:13Z</time>
      </trkpt>
      <trkpt lat="32.211779113858938" lon="-5.456619467586279">
        <ele>2601.9499999999998</ele>
        <time>2019-03-11T18:00:14Z</time>
      </trkpt>
      <trkpt lat="32.211652882397175" lon="-5.456615863367915">
        <ele>2603.3899999999999</ele>
        <time>2019-03-11T18:00:15Z</time>
      </trkpt>
      <trkpt lat="32.211529752239585" lon="-5.456627598032355">
        <ele>2604.8299999999999</ele>
        <time>2019-03-11T18:00:16Z</time>
      </trkpt>
      <trkpt lat="32.211414081975818" lon="-5.456659784540534">
        <ele>2606.27</ele>
        <time>2019-03-11T18:00:17Z</time>
      </trkpt>
      <trkpt lat="32.21130570396781" lon="-5.456712925806642">
        <ele>2607.71</ele>
        <time>2019-03-11T18:00:18Z</time>
      </trkpt>
      <trkpt lat="32.211204366758466" lon="-5.456783669069409">
        <ele>2611.0799999999999</ele>
        <time>2019-03-11T18:00:19Z</time>
      </trkpt>
      <trkpt lat="32.211107639595866" lon="-5.456874025985599">
        <ele>2612.52</ele>
        <time>2019-03-11T18:00:20Z</time>
      </trkpt>
      <trkpt lat="32.21101594157517" lon="-5.456970082595944">
        <ele>2613</ele>
        <time>2019-03-11T18:00:23Z</time>
      </trkpt>
      <trkpt lat="32.210765406489372" lon="-5.457207961007953">
        <ele>2613</ele>
        <time>2019-03-11T18:00:24Z</time>
      </trkpt>
      <trkpt lat="32.210680665448308" lon="-5.457246601581574">
        <ele>2613.48</ele>
        <time>2019-03-11T18:00:25Z</time>
      </trkpt>
      <trkpt lat="32.210588632151484" lon="-5.457247523590922">
        <ele>2613.48</ele>
        <time>2019-03-11T18:00:26Z</time>
      </trkpt>
      <trkpt lat="32.210496934130788" lon="-5.457204440608621">
        <ele>2613.48</ele>
        <time>2019-03-11T18:00:27Z</time>
      </trkpt>
      <trkpt lat="32.210414120927453" lon="-5.457133613526821">
        <ele>2614.9200000000001</ele>
        <time>2019-03-11T18:00:28Z</time>
      </trkpt>
      <trkpt lat="32.210341785103083" lon="-5.457042250782251">
        <ele>2615.4000000000001</ele>
        <time>2019-03-11T18:00:29Z</time>
      </trkpt>
      <trkpt lat="32.210272969678044" lon="-5.456935884431005">
        <ele>2615.8800000000001</ele>
        <time>2019-03-11T18:00:33Z</time>
      </trkpt>
      <trkpt lat="32.209945321083069" lon="-5.456497091799974">
        <ele>2616.3699999999999</ele>
        <time>2019-03-11T18:00:34Z</time>
      </trkpt>
      <trkpt lat="32.209899220615625" lon="-5.456366837024689">
        <ele>2617.3299999999999</ele>
        <time>2019-03-11T18:00:35Z</time>
      </trkpt>
      <trkpt lat="32.209879439324141" lon="-5.456220991909504">
        <ele>2618.29</ele>
        <time>2019-03-11T18:00:36Z</time>
      </trkpt>
      <trkpt lat="32.209865776821971" lon="-5.456071123480797">
        <ele>2619.25</ele>
        <time>2019-03-11T18:00:37Z</time>
      </trkpt>
      <trkpt lat="32.209833757951856" lon="-5.455925026908517">
        <ele>2620.21</ele>
        <time>2019-03-11T18:00:38Z</time>
      </trkpt>
      <trkpt lat="32.209780616685748" lon="-5.455782115459442">
        <ele>2621.1700000000001</ele>
        <time>2019-03-11T18:00:39Z</time>
      </trkpt>
      <trkpt lat="32.209718842059374" lon="-5.455643562600017">
        <ele>2622.1300000000001</ele>
        <time>2019-03-11T18:00:40Z</time>
      </trkpt>
      <trkpt lat="32.209667796269059" lon="-5.455508446320891">
        <ele>2623.5799999999999</ele>
        <time>2019-03-11T18:00:41Z</time>
      </trkpt>
      <trkpt lat="32.209642063826323" lon="-5.455374084413052">
        <ele>2624.54</ele>
        <time>2019-03-11T18:00:42Z</time>
      </trkpt>
      <trkpt lat="32.209633095189929" lon="-5.455242991447449">
        <ele>2625.98</ele>
        <time>2019-03-11T18:00:43Z</time>
      </trkpt>
      <trkpt lat="32.209617253392935" lon="-5.455119693651795">
        <ele>2634.1500000000001</ele>
        <time>2019-03-11T18:00:44Z</time>
      </trkpt>
      <trkpt lat="32.209578696638346" lon="-5.455003855749965">
        <ele>2635.5900000000001</ele>
        <time>2019-03-11T18:00:45Z</time>
      </trkpt>
      <trkpt lat="32.209526393562555" lon="-5.454888856038451">
        <ele>2636.5500000000002</ele>
        <time>2019-03-11T18:00:52Z</time>
      </trkpt>
      <trkpt lat="32.209117859601974" lon="-5.453989980742335">
        <ele>2637.5100000000002</ele>
        <time>2019-03-11T18:00:53Z</time>
      </trkpt>
      <trkpt lat="32.209049630910158" lon="-5.453885961323977">
        <ele>2638.96</ele>
        <time>2019-03-11T18:00:54Z</time>
      </trkpt>
      <trkpt lat="32.208966733887792" lon="-5.453793928027153">
        <ele>2639.9200000000001</ele>
        <time>2019-03-11T18:00:55Z</time>
      </trkpt>
      <trkpt lat="32.208875706419349" lon="-5.453721424564719">
        <ele>2641.3600000000001</ele>
        <time>2019-03-11T18:00:56Z</time>
      </trkpt>
      <trkpt lat="32.208782667294145" lon="-5.453675827011466">
        <ele>2642.3200000000002</ele>
        <time>2019-03-11T18:00:57Z</time>
      </trkpt>
      <trkpt lat="32.208690885454416" lon="-5.45365646481514">
        <ele>2643.7600000000002</ele>
        <time>2019-03-11T18:00:58Z</time>
      </trkpt>
      <trkpt lat="32.208601282909513" lon="-5.45366233214736">
        <ele>2644.7199999999998</ele>
        <time>2019-03-11T18:00:59Z</time>
      </trkpt>
      <trkpt lat="32.20851662568748" lon="-5.453698374330998">
        <ele>2645.6900000000001</ele>
        <time>2019-03-11T18:01:00Z</time>
      </trkpt>
      <trkpt lat="32.208440350368619" lon="-5.453760903328657">
        <ele>2646.6500000000001</ele>
        <time>2019-03-11T18:01:01Z</time>
      </trkpt>
      <trkpt lat="32.208372456952929" lon="-5.453841956332326">
        <ele>2650.4899999999998</ele>
        <time>2019-03-11T18:01:02Z</time>
      </trkpt>
      <trkpt lat="32.208314454182982" lon="-5.453936839476228">
        <ele>2651.4499999999998</ele>
        <time>2019-03-11T18:01:03Z</time>
      </trkpt>
      <trkpt lat="32.208260139450431" lon="-5.454041780903935">
        <ele>2653.3800000000001</ele>
        <time>2019-03-11T18:01:06Z</time>
      </trkpt>
      <trkpt lat="32.208084287121892" lon="-5.454404298216105">
        <ele>2658.6599999999999</ele>
        <time>2019-03-11T18:01:07Z</time>
      </trkpt>
      <trkpt lat="32.208004407584667" lon="-5.454522566869855">
        <ele>2659.1399999999999</ele>
        <time>2019-03-11T18:01:08Z</time>
      </trkpt>
      <trkpt lat="32.207912625744939" lon="-5.4546342138201">
        <ele>2659.1399999999999</ele>
        <time>2019-03-11T18:01:13Z</time>
      </trkpt>
      <trkpt lat="32.207498224452138" lon="-5.455120028927922">
        <ele>2654.8200000000002</ele>
        <time>2019-03-11T18:01:14Z</time>
      </trkpt>
      <trkpt lat="32.207453045994043" lon="-5.455221449956298">
        <ele>2652.4200000000001</ele>
        <time>2019-03-11T18:01:15Z</time>
      </trkpt>
      <trkpt lat="32.207421781495214" lon="-5.455332761630416">
        <ele>2651.4499999999998</ele>
        <time>2019-03-11T18:01:22Z</time>
      </trkpt>
      <trkpt lat="32.207131180912256" lon="-5.456297686323524">
        <ele>2650.4899999999998</ele>
        <time>2019-03-11T18:01:25Z</time>
      </trkpt>
      <trkpt lat="32.206917442381382" lon="-5.456681409850717">
        <ele>2650.0100000000002</ele>
        <time>2019-03-11T18:01:26Z</time>
      </trkpt>
      <trkpt lat="32.206834377720952" lon="-5.456782830879092">
        <ele>2649.5300000000002</ele>
        <time>2019-03-11T18:01:27Z</time>
      </trkpt>
      <trkpt lat="32.206744439899921" lon="-5.456857178360224">
        <ele>2649.0500000000002</ele>
        <time>2019-03-11T18:01:28Z</time>
      </trkpt>
      <trkpt lat="32.206648215651512" lon="-5.456902105361223">
        <ele>2648.0900000000001</ele>
        <time>2019-03-11T18:01:29Z</time>
      </trkpt>
      <trkpt lat="32.206546207889915" lon="-5.456924065947533">
        <ele>2647.6100000000001</ele>
        <time>2019-03-11T18:01:30Z</time>
      </trkpt>
      <trkpt lat="32.206444451585412" lon="-5.456931609660387">
        <ele>2647.1300000000001</ele>
        <time>2019-03-11T18:01:31Z</time>
      </trkpt>
      <trkpt lat="32.20634956844151" lon="-5.456944266334176">
        <ele>2646.6500000000001</ele>
        <time>2019-03-11T18:01:32Z</time>
      </trkpt>
      <trkpt lat="32.206262312829494" lon="-5.456974441185594">
        <ele>2645.6900000000001</ele>
        <time>2019-03-11T18:01:33Z</time>
      </trkpt>
      <trkpt lat="32.206186205148697" lon="-5.457029594108462">
        <ele>2644.7199999999998</ele>
        <time>2019-03-11T18:01:34Z</time>
      </trkpt>
      <trkpt lat="32.206127950921655" lon="-5.457108551636338">
        <ele>2643.7600000000002</ele>
        <time>2019-03-11T18:01:35Z</time>
      </trkpt>
      <trkpt lat="32.20608813688159" lon="-5.457204189151526">
        <ele>2642.8000000000002</ele>
        <time>2019-03-11T18:01:36Z</time>
      </trkpt>
      <trkpt lat="32.206065841019154" lon="-5.457308040931821">
        <ele>2642.3200000000002</ele>
        <time>2019-03-11T18:01:37Z</time>
      </trkpt>
      <trkpt lat="32.206053351983428" lon="-5.457413233816624">
        <ele>2641.8400000000001</ele>
        <time>2019-03-11T18:01:38Z</time>
      </trkpt>
      <trkpt lat="32.206028457731009" lon="-5.457509374246001">
        <ele>2641.8400000000001</ele>
        <time>2019-03-11T18:01:39Z</time>
      </trkpt>
      <trkpt lat="32.205981435254216" lon="-5.457589421421289">
        <ele>2641.8400000000001</ele>
        <time>2019-03-11T18:01:40Z</time>
      </trkpt>
      <trkpt lat="32.205916894599795" lon="-5.457635186612606">
        <ele>2641.3600000000001</ele>
        <time>2019-03-11T18:01:41Z</time>
      </trkpt>
      <trkpt lat="32.205838775262237" lon="-5.457642562687397">
        <ele>2639.9200000000001</ele>
        <time>2019-03-11T18:01:42Z</time>
      </trkpt>
      <trkpt lat="32.205752693116665" lon="-5.457628229632974">
        <ele>2639.4400000000001</ele>
        <time>2019-03-11T18:01:43Z</time>
      </trkpt>
      <trkpt lat="32.205657390877604" lon="-5.457597132772207">
        <ele>2638.48</ele>
        <time>2019-03-11T18:01:45Z</time>
      </trkpt>
      <trkpt lat="32.205443819984794" lon="-5.457551535218954">
        <ele>2637.9899999999998</ele>
        <time>2019-03-11T18:01:46Z</time>
      </trkpt>
      <trkpt lat="32.205339381471276" lon="-5.457549188286066">
        <ele>2637.0300000000002</ele>
        <time>2019-03-11T18:01:47Z</time>
      </trkpt>
      <trkpt lat="32.205238798633218" lon="-5.457567041739821">
        <ele>2636.0700000000002</ele>
        <time>2019-03-11T18:01:48Z</time>
      </trkpt>
      <trkpt lat="32.205143915489316" lon="-5.457617416977882">
        <ele>2635.1100000000001</ele>
        <time>2019-03-11T18:01:49Z</time>
      </trkpt>
      <trkpt lat="32.205064035952091" lon="-5.457700733095408">
        <ele>2634.6300000000001</ele>
        <time>2019-03-11T18:01:50Z</time>
      </trkpt>
      <trkpt lat="32.204998154193163" lon="-5.45779712498188">
        <ele>2634.1500000000001</ele>
        <time>2019-03-11T18:01:51Z</time>
      </trkpt>
      <trkpt lat="32.204924644902349" lon="-5.457880608737469">
        <ele>2631.75</ele>
        <time>2019-03-11T18:01:52Z</time>
      </trkpt>
      <trkpt lat="32.204831941053271" lon="-5.457942383363843">
        <ele>2631.75</ele>
        <time>2019-03-11T18:01:53Z</time>
      </trkpt>
      <trkpt lat="32.2047199588269" lon="-5.457980688661337">
        <ele>2630.79</ele>
        <time>2019-03-11T18:01:58Z</time>
      </trkpt>
      <trkpt lat="32.204134231433272" lon="-5.458080768585205">
        <ele>2629.8200000000002</ele>
        <time>2019-03-11T18:01:59Z</time>
      </trkpt>
      <trkpt lat="32.204041024670005" lon="-5.458117732778192">
        <ele>2628.8600000000001</ele>
        <time>2019-03-11T18:02:00Z</time>
      </trkpt>
      <trkpt lat="32.203958546742797" lon="-5.458172634243965">
        <ele>2627.4200000000001</ele>
        <time>2019-03-11T18:02:01Z</time>
      </trkpt>
      <trkpt lat="32.203891910612583" lon="-5.458245724439621">
        <ele>2626.46</ele>
        <time>2019-03-11T18:02:02Z</time>
      </trkpt>
      <trkpt lat="32.2038409486413" lon="-5.458337171003223">
        <ele>2625.02</ele>
        <time>2019-03-11T18:02:03Z</time>
      </trkpt>
      <trkpt lat="32.203814880922437" lon="-5.458445884287357">
        <ele>2624.0599999999999</ele>
        <time>2019-03-11T18:02:04Z</time>
      </trkpt>
      <trkpt lat="32.203817144036293" lon="-5.458563566207886">
        <ele>2623.0900000000001</ele>
        <time>2019-03-11T18:02:05Z</time>
      </trkpt>
      <trkpt lat="32.203840110450983" lon="-5.458685271441937">
        <ele>2621.6500000000001</ele>
        <time>2019-03-11T18:02:06Z</time>
      </trkpt>
      <trkpt lat="32.203876907005906" lon="-5.45880957506597">
        <ele>2620.6900000000001</ele>
        <time>2019-03-11T18:02:07Z</time>
      </trkpt>
      <trkpt lat="32.203922588378191" lon="-5.458930358290672">
        <ele>2619.73</ele>
        <time>2019-03-11T18:02:08Z</time>
      </trkpt>
      <trkpt lat="32.20398067496717" lon="-5.459035383537412">
        <ele>2618.29</ele>
        <time>2019-03-11T18:02:09Z</time>
      </trkpt>
      <trkpt lat="32.204047478735447" lon="-5.459122387692332">
        <ele>2617.3299999999999</ele>
        <time>2019-03-11T18:02:10Z</time>
      </trkpt>
      <trkpt lat="32.204117132350802" lon="-5.459195394068956">
        <ele>2616.8499999999999</ele>
        <time>2019-03-11T18:02:11Z</time>
      </trkpt>
      <trkpt lat="32.204177565872669" lon="-5.459270160645247">
        <ele>2615.8800000000001</ele>
        <time>2019-03-11T18:02:12Z</time>
      </trkpt>
      <trkpt lat="32.204216793179512" lon="-5.459359847009182">
        <ele>2615.8800000000001</ele>
        <time>2019-03-11T18:02:13Z</time>
      </trkpt>
      <trkpt lat="32.2042225766927" lon="-5.459462190046907">
        <ele>2615.4000000000001</ele>
        <time>2019-03-11T18:02:14Z</time>
      </trkpt>
      <trkpt lat="32.204195251688361" lon="-5.459567969664931">
        <ele>2614.9200000000001</ele>
        <time>2019-03-11T18:02:15Z</time>
      </trkpt>
      <trkpt lat="32.204141607508063" lon="-5.4596714861691">
        <ele>2614.4400000000001</ele>
        <time>2019-03-11T18:02:16Z</time>
      </trkpt>
      <trkpt lat="32.204068349674344" lon="-5.459763519465923">
        <ele>2614.4400000000001</ele>
        <time>2019-03-11T18:02:17Z</time>
      </trkpt>
      <trkpt lat="32.203982518985868" lon="-5.459836190566421">
        <ele>2613.96</ele>
        <time>2019-03-11T18:02:18Z</time>
      </trkpt>
      <trkpt lat="32.203888390213251" lon="-5.459886817261577">
        <ele>2613.48</ele>
        <time>2019-03-11T18:02:19Z</time>
      </trkpt>
      <trkpt lat="32.203786885365844" lon="-5.459906179457903">
        <ele>2612.52</ele>
        <time>2019-03-11T18:02:20Z</time>
      </trkpt>
      <trkpt lat="32.203680938109756" lon="-5.459884637966752">
        <ele>2611.5599999999999</ele>
        <time>2019-03-11T18:02:21Z</time>
      </trkpt>
      <trkpt lat="32.203575829043984" lon="-5.459828982129693">
        <ele>2610.5999999999999</ele>
        <time>2019-03-11T18:02:22Z</time>
      </trkpt>
      <trkpt lat="32.203473905101418" lon="-5.459763268008828">
        <ele>2609.1599999999999</ele>
        <time>2019-03-11T18:02:23Z</time>
      </trkpt>
      <trkpt lat="32.203375333920121" lon="-5.459705851972103">
        <ele>2608.1900000000001</ele>
        <time>2019-03-11T18:02:24Z</time>
      </trkpt>
      <trkpt lat="32.203271901234984" lon="-5.459667295217514">
        <ele>2607.23</ele>
        <time>2019-03-11T18:02:25Z</time>
      </trkpt>
      <trkpt lat="32.203161595389247" lon="-5.459652375429869">
        <ele>2606.27</ele>
        <time>2019-03-11T18:02:26Z</time>
      </trkpt>
      <trkpt lat="32.203041315078735" lon="-5.459663607180119">
        <ele>2601.46</ele>
        <time>2019-03-11T18:02:27Z</time>
      </trkpt>
      <trkpt lat="32.202912401407957" lon="-5.459694284945726">
        <ele>2600.02</ele>
        <time>2019-03-11T18:02:28Z</time>
      </trkpt>
      <trkpt lat="32.202777536585927" lon="-5.459735188633204">
        <ele>2599.54</ele>
        <time>2019-03-11T18:02:32Z</time>
      </trkpt>
      <trkpt lat="32.202290296554565" lon="-5.459897881373763">
        <ele>2598.5799999999999</ele>
        <time>2019-03-11T18:02:33Z</time>
      </trkpt>
      <trkpt lat="32.202179823070765" lon="-5.45990651473403">
        <ele>2597.6199999999999</ele>
        <time>2019-03-11T18:02:34Z</time>
      </trkpt>
      <trkpt lat="32.202065493911505" lon="-5.459879525005817">
        <ele>2596.6599999999999</ele>
        <time>2019-03-11T18:02:35Z</time>
      </trkpt>
      <trkpt lat="32.201953260228038" lon="-5.45981272123754">
        <ele>2596.1799999999998</ele>
        <time>2019-03-11T18:02:36Z</time>
      </trkpt>
      <trkpt lat="32.201848402619362" lon="-5.45971255749464">
        <ele>2595.2199999999998</ele>
        <time>2019-03-11T18:02:37Z</time>
      </trkpt>
      <trkpt lat="32.201754609122872" lon="-5.459593366831541">
        <ele>2594.7399999999998</ele>
        <time>2019-03-11T18:02:38Z</time>
      </trkpt>
      <trkpt lat="32.201676489785314" lon="-5.459460094571114">
        <ele>2594.25</ele>
        <time>2019-03-11T18:02:39Z</time>
      </trkpt>
      <trkpt lat="32.201613122597337" lon="-5.459325900301337">
        <ele>2593.77</ele>
        <time>2019-03-11T18:02:40Z</time>
      </trkpt>
      <trkpt lat="32.201554113999009" lon="-5.459210062399507">
        <ele>2593.29</ele>
        <time>2019-03-11T18:02:41Z</time>
      </trkpt>
      <trkpt lat="32.201488651335239" lon="-5.459116101264954">
        <ele>2592.3299999999999</ele>
        <time>2019-03-11T18:02:42Z</time>
      </trkpt>
      <trkpt lat="32.201407346874475" lon="-5.459041921421886">
        <ele>2591.8499999999999</ele>
        <time>2019-03-11T18:02:43Z</time>
      </trkpt>
      <trkpt lat="32.201310954988003" lon="-5.458988780155778">
        <ele>2591.3699999999999</ele>
        <time>2019-03-11T18:02:44Z</time>
      </trkpt>
      <trkpt lat="32.201201235875487" lon="-5.458960281684995">
        <ele>2587.04</ele>
        <time>2019-03-11T18:02:45Z</time>
      </trkpt>
      <trkpt lat="32.201079949736595" lon="-5.458954079076648">
        <ele>2586.0799999999999</ele>
        <time>2019-03-11T18:02:46Z</time>
      </trkpt>
      <trkpt lat="32.200946090742946" lon="-5.458959359675646">
        <ele>2585.1199999999999</ele>
        <time>2019-03-11T18:02:50Z</time>
      </trkpt>
      <trkpt lat="32.20036044716835" lon="-5.459041753783822">
        <ele>2584.6399999999999</ele>
        <time>2019-03-11T18:02:51Z</time>
      </trkpt>
      <trkpt lat="32.200223403051496" lon="-5.459094140678644">
        <ele>2583.6799999999998</ele>
        <time>2019-03-11T18:02:52Z</time>
      </trkpt>
      <trkpt lat="32.200084934011102" lon="-5.459168823435903">
        <ele>2573.5900000000001</ele>
        <time>2019-03-11T18:02:53Z</time>
      </trkpt>
      <trkpt lat="32.199948225170374" lon="-5.459259431809187">
        <ele>2565.4200000000001</ele>
        <time>2019-03-11T18:02:54Z</time>
      </trkpt>
      <trkpt lat="32.199814366176724" lon="-5.459362361580133">
        <ele>2559.6500000000001</ele>
        <time>2019-03-11T18:03:03Z</time>
      </trkpt>
      <trkpt lat="32.198436548933387" lon="-5.460448740050197">
        <ele>2558.6900000000001</ele>
        <time>2019-03-11T18:03:11Z</time>
      </trkpt>
      <trkpt lat="32.197181778028607" lon="-5.461399080231786">
        <ele>2557.73</ele>
        <time>2019-03-11T18:03:17Z</time>
      </trkpt>
      <trkpt lat="32.196397567167878" lon="-5.462033590301871">
        <ele>2550.5100000000002</ele>
        <time>2019-03-11T18:03:18Z</time>
      </trkpt>
      <trkpt lat="32.196310479193926" lon="-5.462152780964971">
        <ele>2538.98</ele>
        <time>2019-03-11T18:03:19Z</time>
      </trkpt>
      <trkpt lat="32.196234203875065" lon="-5.462286723777652">
        <ele>2536.0999999999999</ele>
        <time>2019-03-11T18:03:25Z</time>
      </trkpt>
      <trkpt lat="32.195801110938191" lon="-5.463142096996307">
        <ele>2535.1300000000001</ele>
        <time>2019-03-11T18:03:34Z</time>
      </trkpt>
      <trkpt lat="32.194866864010692" lon="-5.464256471022964">
        <ele>2533.6900000000001</ele>
        <time>2019-03-11T18:03:37Z</time>
      </trkpt>
      <trkpt lat="32.194598391652107" lon="-5.464532738551498">
        <ele>2532.73</ele>
        <time>2019-03-11T18:03:38Z</time>
      </trkpt>
      <trkpt lat="32.194496635347605" lon="-5.46459199860692">
        <ele>2531.77</ele>
        <time>2019-03-11T18:03:39Z</time>
      </trkpt>
      <trkpt lat="32.194381384178996" lon="-5.464635416865349">
        <ele>2530.8099999999999</ele>
        <time>2019-03-11T18:03:40Z</time>
      </trkpt>
      <trkpt lat="32.194252302870154" lon="-5.464664837345481">
        <ele>2530.3299999999999</ele>
        <time>2019-03-11T18:03:41Z</time>
      </trkpt>
      <trkpt lat="32.194121209904552" lon="-5.464681936427951">
        <ele>2525.04</ele>
        <time>2019-03-11T18:03:42Z</time>
      </trkpt>
      <trkpt lat="32.193988692015409" lon="-5.464686630293727">
        <ele>2524.5599999999999</ele>
        <time>2019-03-11T18:03:43Z</time>
      </trkpt>
      <trkpt lat="32.193849803879857" lon="-5.464673303067684">
        <ele>2524.5599999999999</ele>
        <time>2019-03-11T18:03:51Z</time>
      </trkpt>
      <trkpt lat="32.192704165354371" lon="-5.464514717459679">
        <ele>2524.5599999999999</ele>
        <time>2019-03-11T18:03:52Z</time>
      </trkpt>
      <trkpt lat="32.19256829470396" lon="-5.464532738551498">
        <ele>2524.0799999999999</ele>
        <time>2019-03-11T18:03:53Z</time>
      </trkpt>
      <trkpt lat="32.19243049621582" lon="-5.464570121839643">
        <ele>2523.5999999999999</ele>
        <time>2019-03-11T18:03:54Z</time>
      </trkpt>
      <trkpt lat="32.192290099337697" lon="-5.464622424915433">
        <ele>2523.5999999999999</ele>
        <time>2019-03-11T18:03:55Z</time>
      </trkpt>
      <trkpt lat="32.192146014422178" lon="-5.464680176228285">
        <ele>2520.71</ele>
        <time>2019-03-11T18:04:00Z</time>
      </trkpt>
      <trkpt lat="32.191415531560779" lon="-5.464932974427939">
        <ele>2519.75</ele>
        <time>2019-03-11T18:04:01Z</time>
      </trkpt>
      <trkpt lat="32.191275134682655" lon="-5.464950492605567">
        <ele>2517.8299999999999</ele>
        <time>2019-03-11T18:04:08Z</time>
      </trkpt>
      <trkpt lat="32.190356981009245" lon="-5.4650938231498">
        <ele>2517.3499999999999</ele>
        <time>2019-03-11T18:04:09Z</time>
      </trkpt>
      <trkpt lat="32.190232928842306" lon="-5.465147634968162">
        <ele>2516.3899999999999</ele>
        <time>2019-03-11T18:04:12Z</time>
      </trkpt>
      <trkpt lat="32.189858509227633" lon="-5.465337317436934">
        <ele>2515.4299999999998</ele>
        <time>2019-03-11T18:04:13Z</time>
      </trkpt>
      <trkpt lat="32.189749460667372" lon="-5.46536548063159">
        <ele>2513.98</ele>
        <time>2019-03-11T18:04:14Z</time>
      </trkpt>
      <trkpt lat="32.189641250297427" lon="-5.465356009081006">
        <ele>2512.0599999999999</ele>
        <time>2019-03-11T18:04:15Z</time>
      </trkpt>
      <trkpt lat="32.189536057412624" lon="-5.465321140363812">
        <ele>2509.6599999999999</ele>
        <time>2019-03-11T18:04:16Z</time>
      </trkpt>
      <trkpt lat="32.189440587535501" lon="-5.465277973562479">
        <ele>2507.7399999999998</ele>
        <time>2019-03-11T18:04:17Z</time>
      </trkpt>
      <trkpt lat="32.189337909221649" lon="-5.465253833681345">
        <ele>2505.3299999999999</ele>
        <time>2019-03-11T18:04:18Z</time>
      </trkpt>
      <trkpt lat="32.189230704680085" lon="-5.465254839509726">
        <ele>2503.4099999999999</ele>
        <time>2019-03-11T18:04:19Z</time>
      </trkpt>
      <trkpt lat="32.189119979739189" lon="-5.465284511446953">
        <ele>2501.4899999999998</ele>
        <time>2019-03-11T18:04:20Z</time>
      </trkpt>
      <trkpt lat="32.18900908716023" lon="-5.465343687683344">
        <ele>2499.0799999999999</ele>
        <time>2019-03-11T18:04:21Z</time>
      </trkpt>
      <trkpt lat="32.188909677788615" lon="-5.465415269136429">
        <ele>2497.1599999999999</ele>
        <time>2019-03-11T18:04:22Z</time>
      </trkpt>
      <trkpt lat="32.188828038051724" lon="-5.465497327968478">
        <ele>2495.2399999999998</ele>
        <time>2019-03-11T18:04:23Z</time>
      </trkpt>
      <trkpt lat="32.188764251768589" lon="-5.465595899149776">
        <ele>2492.3600000000001</ele>
        <time>2019-03-11T18:04:24Z</time>
      </trkpt>
      <trkpt lat="32.18871446326375" lon="-5.465707210823894">
        <ele>2490.4299999999998</ele>
        <time>2019-03-11T18:04:25Z</time>
      </trkpt>
      <trkpt lat="32.188675068318844" lon="-5.465817851945758">
        <ele>2489.9499999999998</ele>
        <time>2019-03-11T18:04:27Z</time>
      </trkpt>
      <trkpt lat="32.188595859333873" lon="-5.466001583263278">
        <ele>2488.5100000000002</ele>
        <time>2019-03-11T18:04:28Z</time>
      </trkpt>
      <trkpt lat="32.188542801886797" lon="-5.466070733964443">
        <ele>2487.5500000000002</ele>
        <time>2019-03-11T18:04:29Z</time>
      </trkpt>
      <trkpt lat="32.188480859622359" lon="-5.46610769815743">
        <ele>2486.1100000000001</ele>
        <time>2019-03-11T18:04:30Z</time>
      </trkpt>
      <trkpt lat="32.18841246329248" lon="-5.466118426993489">
        <ele>2484.6599999999999</ele>
        <time>2019-03-11T18:04:31Z</time>
      </trkpt>
      <trkpt lat="32.188341217115521" lon="-5.466100741177797">
        <ele>2483.2199999999998</ele>
        <time>2019-03-11T18:04:32Z</time>
      </trkpt>
      <trkpt lat="32.188274161890149" lon="-5.466055814176798">
        <ele>2481.7800000000002</ele>
        <time>2019-03-11T18:04:33Z</time>
      </trkpt>
      <trkpt lat="32.188211465254426" lon="-5.46599680557847">
        <ele>2480.3400000000001</ele>
        <time>2019-03-11T18:04:34Z</time>
      </trkpt>
      <trkpt lat="32.188155641779304" lon="-5.465920949354768">
        <ele>2479.3800000000001</ele>
        <time>2019-03-11T18:04:35Z</time>
      </trkpt>
      <trkpt lat="32.188102332875133" lon="-5.465836711227894">
        <ele>2477.4499999999998</ele>
        <time>2019-03-11T18:04:36Z</time>
      </trkpt>
      <trkpt lat="32.188053131103516" lon="-5.465748533606529">
        <ele>2476.4899999999998</ele>
        <time>2019-03-11T18:04:37Z</time>
      </trkpt>
      <trkpt lat="32.188008790835738" lon="-5.465669827535749">
        <ele>2475.0500000000002</ele>
        <time>2019-03-11T18:04:39Z</time>
      </trkpt>
      <trkpt lat="32.187921032309532" lon="-5.465551977977157">
        <ele>2474.0900000000001</ele>
        <time>2019-03-11T18:04:40Z</time>
      </trkpt>
      <trkpt lat="32.187874345108867" lon="-5.465519540011883">
        <ele>2473.6100000000001</ele>
        <time>2019-03-11T18:04:41Z</time>
      </trkpt>
      <trkpt lat="32.187827993184328" lon="-5.465514091774821">
        <ele>2472.1700000000001</ele>
        <time>2019-03-11T18:04:42Z</time>
      </trkpt>
      <trkpt lat="32.187781892716885" lon="-5.465539405122399">
        <ele>2471.21</ele>
        <time>2019-03-11T18:04:43Z</time>
      </trkpt>
      <trkpt lat="32.187743755057454" lon="-5.465590953826904">
        <ele>2470.2399999999998</ele>
        <time>2019-03-11T18:04:44Z</time>
      </trkpt>
      <trkpt lat="32.187723303213716" lon="-5.465661194175482">
        <ele>2468.8000000000002</ele>
        <time>2019-03-11T18:04:45Z</time>
      </trkpt>
      <trkpt lat="32.187713664025068" lon="-5.465744510293007">
        <ele>2467.8400000000001</ele>
        <time>2019-03-11T18:04:46Z</time>
      </trkpt>
      <trkpt lat="32.187715675681829" lon="-5.465835621580482">
        <ele>2458.23</ele>
        <time>2019-03-11T18:04:47Z</time>
      </trkpt>
      <trkpt lat="32.187725817784667" lon="-5.465932516381145">
        <ele>2451.98</ele>
        <time>2019-03-11T18:04:48Z</time>
      </trkpt>
      <trkpt lat="32.187743419781327" lon="-5.466042570769787">
        <ele>2450.54</ele>
        <time>2019-03-11T18:04:55Z</time>
      </trkpt>
      <trkpt lat="32.187733445316553" lon="-5.467032138258219">
        <ele>2450.0599999999999</ele>
        <time>2019-03-11T18:05:01Z</time>
      </trkpt>
      <trkpt lat="32.187707126140594" lon="-5.467709647491574">
        <ele>2449.0999999999999</ele>
        <time>2019-03-11T18:05:02Z</time>
      </trkpt>
      <trkpt lat="32.187726320698857" lon="-5.467798579484224">
        <ele>2448.1300000000001</ele>
        <time>2019-03-11T18:05:03Z</time>
      </trkpt>
      <trkpt lat="32.187754400074482" lon="-5.467883655801415">
        <ele>2446.6900000000001</ele>
        <time>2019-03-11T18:05:04Z</time>
      </trkpt>
      <trkpt lat="32.187792705371976" lon="-5.467964122071862">
        <ele>2445.73</ele>
        <time>2019-03-11T18:05:05Z</time>
      </trkpt>
      <trkpt lat="32.187837045639753" lon="-5.468039475381374">
        <ele>2444.77</ele>
        <time>2019-03-11T18:05:06Z</time>
      </trkpt>
      <trkpt lat="32.187888007611036" lon="-5.468114241957665">
        <ele>2443.8099999999999</ele>
        <time>2019-03-11T18:05:07Z</time>
      </trkpt>
      <trkpt lat="32.187952380627394" lon="-5.468172747641802">
        <ele>2442.3699999999999</ele>
        <time>2019-03-11T18:05:08Z</time>
      </trkpt>
      <trkpt lat="32.188025889918208" lon="-5.468214824795723">
        <ele>2441.4099999999999</ele>
        <time>2019-03-11T18:05:09Z</time>
      </trkpt>
      <trkpt lat="32.188110882416368" lon="-5.468243155628443">
        <ele>2440.9200000000001</ele>
        <time>2019-03-11T18:05:10Z</time>
      </trkpt>
      <trkpt lat="32.188200317323208" lon="-5.468269055709243">
        <ele>2440.9200000000001</ele>
        <time>2019-03-11T18:05:12Z</time>
      </trkpt>
      <trkpt lat="32.188370134681463" lon="-5.468340218067169">
        <ele>2440.4400000000001</ele>
        <time>2019-03-11T18:05:13Z</time>
      </trkpt>
      <trkpt lat="32.188443141058087" lon="-5.468386569991708">
        <ele>2439.96</ele>
        <time>2019-03-11T18:05:14Z</time>
      </trkpt>
      <trkpt lat="32.188495360314846" lon="-5.468445578590035">
        <ele>2439.48</ele>
        <time>2019-03-11T18:05:15Z</time>
      </trkpt>
      <trkpt lat="32.188526960089803" lon="-5.468515064567328">
        <ele>2439</ele>
        <time>2019-03-11T18:05:16Z</time>
      </trkpt>
      <trkpt lat="32.188525618985295" lon="-5.46859729103744">
        <ele>2438.52</ele>
        <time>2019-03-11T18:05:17Z</time>
      </trkpt>
      <trkpt lat="32.188489995896816" lon="-5.468677338212729">
        <ele>2438.52</ele>
        <time>2019-03-11T18:05:18Z</time>
      </trkpt>
      <trkpt lat="32.188421599566936" lon="-5.468743303790689">
        <ele>2438.52</ele>
        <time>2019-03-11T18:05:19Z</time>
      </trkpt>
      <trkpt lat="32.188333170488477" lon="-5.468782614916563">
        <ele>2439</ele>
        <time>2019-03-11T18:05:20Z</time>
      </trkpt>
      <trkpt lat="32.188235688954592" lon="-5.468802647665143">
        <ele>2439</ele>
        <time>2019-03-11T18:05:21Z</time>
      </trkpt>
      <trkpt lat="32.188135273754597" lon="-5.468824943527579">
        <ele>2439.96</ele>
        <time>2019-03-11T18:05:22Z</time>
      </trkpt>
      <trkpt lat="32.188039217144251" lon="-5.468855537474155">
        <ele>2440.4400000000001</ele>
        <time>2019-03-11T18:05:23Z</time>
      </trkpt>
      <trkpt lat="32.187949530780315" lon="-5.468897027894855">
        <ele>2440.4400000000001</ele>
        <time>2019-03-11T18:05:24Z</time>
      </trkpt>
      <trkpt lat="32.187863029539585" lon="-5.468951845541596">
        <ele>2440.4400000000001</ele>
        <time>2019-03-11T18:05:25Z</time>
      </trkpt>
      <trkpt lat="32.187783988192677" lon="-5.469018146395683">
        <ele>2440.4400000000001</ele>
        <time>2019-03-11T18:05:26Z</time>
      </trkpt>
      <trkpt lat="32.187715927138925" lon="-5.469096265733242">
        <ele>2439.96</ele>
        <time>2019-03-11T18:05:27Z</time>
      </trkpt>
      <trkpt lat="32.18765901401639" lon="-5.469182683154941">
        <ele>2438.52</ele>
        <time>2019-03-11T18:05:28Z</time>
      </trkpt>
      <trkpt lat="32.187609141692519" lon="-5.469278823584318">
        <ele>2438.52</ele>
        <time>2019-03-11T18:05:29Z</time>
      </trkpt>
      <trkpt lat="32.187558431178331" lon="-5.469380496069789">
        <ele>2438.04</ele>
        <time>2019-03-11T18:05:32Z</time>
      </trkpt>
      <trkpt lat="32.187379477545619" lon="-5.469675539061427">
        <ele>2438.04</ele>
        <time>2019-03-11T18:05:38Z</time>
      </trkpt>
      <trkpt lat="32.186862314119935" lon="-5.470275264233351">
        <ele>2437.5599999999999</ele>
        <time>2019-03-11T18:05:39Z</time>
      </trkpt>
      <trkpt lat="32.186759216710925" lon="-5.470354724675417">
        <ele>2438.04</ele>
        <time>2019-03-11T18:05:40Z</time>
      </trkpt>
      <trkpt lat="32.186646312475204" lon="-5.470422869548202">
        <ele>2438.04</ele>
        <time>2019-03-11T18:05:44Z</time>
      </trkpt>
      <trkpt lat="32.186181284487247" lon="-5.47067005187273">
        <ele>2437.5599999999999</ele>
        <time>2019-03-11T18:05:45Z</time>
      </trkpt>
      <trkpt lat="32.186068799346685" lon="-5.470715565606952">
        <ele>2436.5999999999999</ele>
        <time>2019-03-11T18:05:49Z</time>
      </trkpt>
      <trkpt lat="32.185681723058224" lon="-5.470799300819635">
        <ele>2435.6399999999999</ele>
        <time>2019-03-11T18:05:50Z</time>
      </trkpt>
      <trkpt lat="32.185593461617827" lon="-5.470784045755863">
        <ele>2435.1599999999999</ele>
        <time>2019-03-11T18:05:51Z</time>
      </trkpt>
      <trkpt lat="32.185505786910653" lon="-5.470742136240006">
        <ele>2434.1999999999998</ele>
        <time>2019-03-11T18:05:52Z</time>
      </trkpt>
      <trkpt lat="32.185417022556067" lon="-5.470678182318807">
        <ele>2433.71</ele>
        <time>2019-03-11T18:05:53Z</time>
      </trkpt>
      <trkpt lat="32.185329180210829" lon="-5.470597129315138">
        <ele>2431.3099999999999</ele>
        <time>2019-03-11T18:05:54Z</time>
      </trkpt>
      <trkpt lat="32.185248797759414" lon="-5.470500066876411">
        <ele>2430.3499999999999</ele>
        <time>2019-03-11T18:05:55Z</time>
      </trkpt>
      <trkpt lat="32.185169337317348" lon="-5.470392275601625">
        <ele>2425.54</ele>
        <time>2019-03-11T18:05:59Z</time>
      </trkpt>
      <trkpt lat="32.184833139181137" lon="-5.469946777448058">
        <ele>2425.0599999999999</ele>
        <time>2019-03-11T18:06:00Z</time>
      </trkpt>
      <trkpt lat="32.184728616848588" lon="-5.469847368076444">
        <ele>2424.0999999999999</ele>
        <time>2019-03-11T18:06:06Z</time>
      </trkpt>
      <trkpt lat="32.184176752343774" lon="-5.469456436112523">
        <ele>2423.6199999999999</ele>
        <time>2019-03-11T18:06:07Z</time>
      </trkpt>
      <trkpt lat="32.184119336307049" lon="-5.469455765560269">
        <ele>2422.6599999999999</ele>
        <time>2019-03-11T18:06:08Z</time>
      </trkpt>
      <trkpt lat="32.184069212526083" lon="-5.46948459930718">
        <ele>2422.1799999999998</ele>
        <time>2019-03-11T18:06:09Z</time>
      </trkpt>
      <trkpt lat="32.184031577780843" lon="-5.469543943181634">
        <ele>2421.2199999999998</ele>
        <time>2019-03-11T18:06:10Z</time>
      </trkpt>
      <trkpt lat="32.184017999097705" lon="-5.469627091661096">
        <ele>2420.2600000000002</ele>
        <time>2019-03-11T18:06:11Z</time>
      </trkpt>
      <trkpt lat="32.184021351858974" lon="-5.469722812995315">
        <ele>2419.7800000000002</ele>
        <time>2019-03-11T18:06:12Z</time>
      </trkpt>
      <trkpt lat="32.184032835066319" lon="-5.46981886960566">
        <ele>2419.3000000000002</ele>
        <time>2019-03-11T18:06:13Z</time>
      </trkpt>
      <trkpt lat="32.184033840894699" lon="-5.469909897074103">
        <ele>2419.3000000000002</ele>
        <time>2019-03-11T18:06:14Z</time>
      </trkpt>
      <trkpt lat="32.184012802317739" lon="-5.469991033896804">
        <ele>2419.3000000000002</ele>
        <time>2019-03-11T18:06:15Z</time>
      </trkpt>
      <trkpt lat="32.183965025469661" lon="-5.470052557066083">
        <ele>2418.8099999999999</ele>
        <time>2019-03-11T18:06:16Z</time>
      </trkpt>
      <trkpt lat="32.183900317177176" lon="-5.470083234831691">
        <ele>2418.8099999999999</ele>
        <time>2019-03-11T18:06:17Z</time>
      </trkpt>
      <trkpt lat="32.183825802057981" lon="-5.470094215124846">
        <ele>2418.3299999999999</ele>
        <time>2019-03-11T18:06:18Z</time>
      </trkpt>
      <trkpt lat="32.183748101815581" lon="-5.470092706382275">
        <ele>2417.3699999999999</ele>
        <time>2019-03-11T18:06:19Z</time>
      </trkpt>
      <trkpt lat="32.183666881173849" lon="-5.4700792953372">
        <ele>2417.3699999999999</ele>
        <time>2019-03-11T18:06:20Z</time>
      </trkpt>
      <trkpt lat="32.183581721037626" lon="-5.470058089122176">
        <ele>2417.3699999999999</ele>
        <time>2019-03-11T18:06:24Z</time>
      </trkpt>
      <trkpt lat="32.183209899812937" lon="-5.469961110502482">
        <ele>2417.3699999999999</ele>
        <time>2019-03-11T18:06:25Z</time>
      </trkpt>
      <trkpt lat="32.183104287832975" lon="-5.469959015026689">
        <ele>2417.3699999999999</ele>
        <time>2019-03-11T18:06:26Z</time>
      </trkpt>
      <trkpt lat="32.182998675853014" lon="-5.469964044168592">
        <ele>2416.8899999999999</ele>
        <time>2019-03-11T18:06:29Z</time>
      </trkpt>
      <trkpt lat="32.182704973965883" lon="-5.469997404143214">
        <ele>2416.4099999999999</ele>
        <time>2019-03-11T18:06:36Z</time>
      </trkpt>
      <trkpt lat="32.182117318734527" lon="-5.470035960897803">
        <ele>2415.9299999999998</ele>
        <time>2019-03-11T18:06:37Z</time>
      </trkpt>
      <trkpt lat="32.18203685246408" lon="-5.470010731369257">
        <ele>2415.4499999999998</ele>
        <time>2019-03-11T18:06:38Z</time>
      </trkpt>
      <trkpt lat="32.18195722438395" lon="-5.469974186271429">
        <ele>2415.4499999999998</ele>
        <time>2019-03-11T18:06:39Z</time>
      </trkpt>
      <trkpt lat="32.181881116703153" lon="-5.469925655052066">
        <ele>2414.9699999999998</ele>
        <time>2019-03-11T18:06:40Z</time>
      </trkpt>
      <trkpt lat="32.181812217459083" lon="-5.469866562634707">
        <ele>2414.0100000000002</ele>
        <time>2019-03-11T18:06:41Z</time>
      </trkpt>
      <trkpt lat="32.18175052665174" lon="-5.469801016151905">
        <ele>2414.0100000000002</ele>
        <time>2019-03-11T18:06:42Z</time>
      </trkpt>
      <trkpt lat="32.181690260767937" lon="-5.469734128564596">
        <ele>2413.5300000000002</ele>
        <time>2019-03-11T18:06:47Z</time>
      </trkpt>
      <trkpt lat="32.18142019584775" lon="-5.469480575993657">
        <ele>2413.5300000000002</ele>
        <time>2019-03-11T18:06:48Z</time>
      </trkpt>
      <trkpt lat="32.181377783417702" lon="-5.469459621235728">
        <ele>2413.5300000000002</ele>
        <time>2019-03-11T18:06:49Z</time>
      </trkpt>
      <trkpt lat="32.181343333795667" lon="-5.469442270696163">
        <ele>2413.0500000000002</ele>
        <time>2019-03-11T18:06:50Z</time>
      </trkpt>
      <trkpt lat="32.181319696828723" lon="-5.469424920156598">
        <ele>2413.0500000000002</ele>
        <time>2019-03-11T18:06:51Z</time>
      </trkpt>
      <trkpt lat="32.181304609403014" lon="-5.469411006197333">
        <ele>2411.1199999999999</ele>
        <time>2019-03-11T18:06:52Z</time>
      </trkpt>
      <trkpt lat="32.181290192529559" lon="-5.469396505504847">
        <ele>2410.6399999999999</ele>
        <time>2019-03-11T18:06:53Z</time>
      </trkpt>
      <trkpt lat="32.181273344904184" lon="-5.469378400593996">
        <ele>2410.6399999999999</ele>
        <time>2019-03-11T18:07:01Z</time>
      </trkpt>
      <trkpt lat="32.180957598611712" lon="-5.469052512198687">
        <ele>2410.6399999999999</ele>
        <time>2019-03-11T18:07:05Z</time>
      </trkpt>
      <trkpt lat="32.180758696049452" lon="-5.468830894678831">
        <ele>2410.6399999999999</ele>
        <time>2019-03-11T18:07:06Z</time>
      </trkpt>
      <trkpt lat="32.180732544511557" lon="-5.468773730099201">
        <ele>2410.6399999999999</ele>
        <time>2019-03-11T18:07:07Z</time>
      </trkpt>
      <trkpt lat="32.18071804381907" lon="-5.468712206929922">
        <ele>2410.6399999999999</ele>
        <time>2019-03-11T18:07:08Z</time>
      </trkpt>
      <trkpt lat="32.180709410458803" lon="-5.46864758245647">
        <ele>2410.1599999999999</ele>
        <time>2019-03-11T18:07:09Z</time>
      </trkpt>
      <trkpt lat="32.180707985535264" lon="-5.468574743717909">
        <ele>2410.1599999999999</ele>
        <time>2019-03-11T18:07:10Z</time>
      </trkpt>
      <trkpt lat="32.180706979706883" lon="-5.468496875837445">
        <ele>2410.1599999999999</ele>
        <time>2019-03-11T18:07:13Z</time>
      </trkpt>
      <trkpt lat="32.18068334273994" lon="-5.468199737370014">
        <ele>2409.1999999999998</ele>
        <time>2019-03-11T18:07:14Z</time>
      </trkpt>
      <trkpt lat="32.180656688287854" lon="-5.468085408210754">
        <ele>2408.7199999999998</ele>
        <time>2019-03-11T18:07:15Z</time>
      </trkpt>
      <trkpt lat="32.180629530921578" lon="-5.467961858958006">
        <ele>2407.2800000000002</ele>
        <time>2019-03-11T18:07:19Z</time>
      </trkpt>
      <trkpt lat="32.180522745475173" lon="-5.467483336105943">
        <ele>2406.8000000000002</ele>
        <time>2019-03-11T18:07:20Z</time>
      </trkpt>
      <trkpt lat="32.180476142093539" lon="-5.467381160706282">
        <ele>2405.8400000000001</ele>
        <time>2019-03-11T18:07:21Z</time>
      </trkpt>
      <trkpt lat="32.180420989170671" lon="-5.467288959771395">
        <ele>2404.8800000000001</ele>
        <time>2019-03-11T18:07:22Z</time>
      </trkpt>
      <trkpt lat="32.180355442687869" lon="-5.467209499329329">
        <ele>2404.3899999999999</ele>
        <time>2019-03-11T18:07:23Z</time>
      </trkpt>
      <trkpt lat="32.180280089378357" lon="-5.467139091342688">
        <ele>2403.4299999999998</ele>
        <time>2019-03-11T18:07:24Z</time>
      </trkpt>
      <trkpt lat="32.180198784917593" lon="-5.467078993096948">
        <ele>2402.9499999999998</ele>
        <time>2019-03-11T18:07:25Z</time>
      </trkpt>
      <trkpt lat="32.180113457143307" lon="-5.467035155743361">
        <ele>2402.4699999999998</ele>
        <time>2019-03-11T18:07:26Z</time>
      </trkpt>
      <trkpt lat="32.180033326148987" lon="-5.467004645615816">
        <ele>2401.9899999999998</ele>
        <time>2019-03-11T18:07:27Z</time>
      </trkpt>
      <trkpt lat="32.179957218468189" lon="-5.466991905122995">
        <ele>2401.5100000000002</ele>
        <time>2019-03-11T18:07:28Z</time>
      </trkpt>
      <trkpt lat="32.179892342537642" lon="-5.466992072761059">
        <ele>2401.0300000000002</ele>
        <time>2019-03-11T18:07:29Z</time>
      </trkpt>
      <trkpt lat="32.179830651730299" lon="-5.467015793547034">
        <ele>2400.5500000000002</ele>
        <time>2019-03-11T18:07:30Z</time>
      </trkpt>
      <trkpt lat="32.179771140217781" lon="-5.467057200148702">
        <ele>2399.5900000000001</ele>
        <time>2019-03-11T18:07:31Z</time>
      </trkpt>
      <trkpt lat="32.179718920961022" lon="-5.467118220403791">
        <ele>2397.1799999999998</ele>
        <time>2019-03-11T18:07:32Z</time>
      </trkpt>
      <trkpt lat="32.179675251245499" lon="-5.467192232608795">
        <ele>2397.1799999999998</ele>
        <time>2019-03-11T18:07:33Z</time>
      </trkpt>
      <trkpt lat="32.179639209061861" lon="-5.467270519584417">
        <ele>2395.7399999999998</ele>
        <time>2019-03-11T18:07:38Z</time>
      </trkpt>
      <trkpt lat="32.179503003135324" lon="-5.467625828459859">
        <ele>2395.7399999999998</ele>
        <time>2019-03-11T18:07:39Z</time>
      </trkpt>
      <trkpt lat="32.179505182430148" lon="-5.467687603086233">
        <ele>2395.2600000000002</ele>
        <time>2019-03-11T18:07:43Z</time>
      </trkpt>
      <trkpt lat="32.179527394473553" lon="-5.467876195907593">
        <ele>2395.2600000000002</ele>
        <time>2019-03-11T18:07:44Z</time>
      </trkpt>
      <trkpt lat="32.179524628445506" lon="-5.467923888936639">
        <ele>2395.2600000000002</ele>
        <time>2019-03-11T18:07:45Z</time>
      </trkpt>
      <trkpt lat="32.179517168551683" lon="-5.46797376126051">
        <ele>2394.7800000000002</ele>
        <time>2019-03-11T18:07:46Z</time>
      </trkpt>
      <trkpt lat="32.179503925144672" lon="-5.46803193166852">
        <ele>2394.7800000000002</ele>
        <time>2019-03-11T18:07:47Z</time>
      </trkpt>
      <trkpt lat="32.17947986908257" lon="-5.468097142875195">
        <ele>2394.3000000000002</ele>
        <time>2019-03-11T18:07:48Z</time>
      </trkpt>
      <trkpt lat="32.179448520764709" lon="-5.468166712671518">
        <ele>2394.3000000000002</ele>
        <time>2019-03-11T18:07:49Z</time>
      </trkpt>
      <trkpt lat="32.179411137476563" lon="-5.468240473419428">
        <ele>2394.3000000000002</ele>
        <time>2019-03-11T18:07:58Z</time>
      </trkpt>
      <trkpt lat="32.179183820262551" lon="-5.468842377886176">
        <ele>2394.7800000000002</ele>
        <time>2019-03-11T18:08:02Z</time>
      </trkpt>
      <trkpt lat="32.179171750321984" lon="-5.469054356217384">
        <ele>2393.8200000000002</ele>
        <time>2019-03-11T18:08:03Z</time>
      </trkpt>
      <trkpt lat="32.179183904081583" lon="-5.469111353158951">
        <ele>2393.8200000000002</ele>
        <time>2019-03-11T18:08:09Z</time>
      </trkpt>
      <trkpt lat="32.179288091138005" lon="-5.469408240169287">
        <ele>2393.3400000000001</ele>
        <time>2019-03-11T18:08:12Z</time>
      </trkpt>
      <trkpt lat="32.179348105564713" lon="-5.469532459974289">
        <ele>2390.9400000000001</ele>
        <time>2019-03-11T18:08:13Z</time>
      </trkpt>
      <trkpt lat="32.17934844084084" lon="-5.469574118033052">
        <ele>2391.4200000000001</ele>
        <time>2019-03-11T18:08:14Z</time>
      </trkpt>
      <trkpt lat="32.179340897127986" lon="-5.469615608453751">
        <ele>2390.9400000000001</ele>
        <time>2019-03-11T18:08:47Z</time>
      </trkpt>
      <trkpt lat="32.17932446859777" lon="-5.469695907086134">
        <ele>2387.0900000000001</ele>
        <time>2019-03-11T18:09:04Z</time>
      </trkpt>
      <trkpt lat="32.179265292361379" lon="-5.469974270090461">
        <ele>2386.6100000000001</ele>
        <time>2019-03-11T18:09:15Z</time>
      </trkpt>
      <trkpt lat="32.17959956265986" lon="-5.470184152945876">
        <ele>2386.6100000000001</ele>
        <time>2019-03-11T18:09:25Z</time>
      </trkpt>
      <trkpt lat="32.180017568171024" lon="-5.470455391332507">
        <ele>2386.1300000000001</ele>
        <time>2019-03-11T18:09:26Z</time>
      </trkpt>
      <trkpt lat="32.180037936195731" lon="-5.470501994714141">
        <ele>2386.1300000000001</ele>
        <time>2019-03-11T18:09:27Z</time>
      </trkpt>
      <trkpt lat="32.180048329755664" lon="-5.470552621409297">
        <ele>2385.6500000000001</ele>
        <time>2019-03-11T18:09:28Z</time>
      </trkpt>
      <trkpt lat="32.180043132975698" lon="-5.470614396035671">
        <ele>2385.6500000000001</ele>
        <time>2019-03-11T18:09:29Z</time>
      </trkpt>
      <trkpt lat="32.180021675303578" lon="-5.470685390755534">
        <ele>2385.6500000000001</ele>
        <time>2019-03-11T18:09:30Z</time>
      </trkpt>
      <trkpt lat="32.179982364177704" lon="-5.470757139846683">
        <ele>2385.6500000000001</ele>
        <time>2019-03-11T18:09:31Z</time>
      </trkpt>
      <trkpt lat="32.179930144920945" lon="-5.470826458185911">
        <ele>2385.1700000000001</ele>
        <time>2019-03-11T18:09:32Z</time>
      </trkpt>
      <trkpt lat="32.179866442456841" lon="-5.470882365480065">
        <ele>2384.6900000000001</ele>
        <time>2019-03-11T18:09:33Z</time>
      </trkpt>
      <trkpt lat="32.179792933166027" lon="-5.470925783738494">
        <ele>2385.1700000000001</ele>
        <time>2019-03-11T18:09:34Z</time>
      </trkpt>
      <trkpt lat="32.179712802171707" lon="-5.470958892256022">
        <ele>2384.6900000000001</ele>
        <time>2019-03-11T18:09:35Z</time>
      </trkpt>
      <trkpt lat="32.179629486054182" lon="-5.470986468717456">
        <ele>2384.21</ele>
        <time>2019-03-11T18:09:37Z</time>
      </trkpt>
      <trkpt lat="32.179457321763039" lon="-5.471026115119457">
        <ele>2381.3200000000002</ele>
        <time>2019-03-11T18:09:38Z</time>
      </trkpt>
      <trkpt lat="32.179359840229154" lon="-5.471021253615618">
        <ele>2380.8400000000001</ele>
        <time>2019-03-11T18:09:39Z</time>
      </trkpt>
      <trkpt lat="32.179259005934" lon="-5.471006501466036">
        <ele>2379.8800000000001</ele>
        <time>2019-03-11T18:09:45Z</time>
      </trkpt>
      <trkpt lat="32.178664728999138" lon="-5.470840791240335">
        <ele>2379.4000000000001</ele>
        <time>2019-03-11T18:09:46Z</time>
      </trkpt>
      <trkpt lat="32.178575210273266" lon="-5.470841461792588">
        <ele>2378.9200000000001</ele>
        <time>2019-03-11T18:09:47Z</time>
      </trkpt>
      <trkpt lat="32.17848552390933" lon="-5.470867613330483">
        <ele>2377.96</ele>
        <time>2019-03-11T18:09:48Z</time>
      </trkpt>
      <trkpt lat="32.178395669907331" lon="-5.470925532281399">
        <ele>2374.5900000000001</ele>
        <time>2019-03-11T18:09:49Z</time>
      </trkpt>
      <trkpt lat="32.178306989371777" lon="-5.471005579456687">
        <ele>2374.1100000000001</ele>
        <time>2019-03-11T18:09:50Z</time>
      </trkpt>
      <trkpt lat="32.178213279694319" lon="-5.471097612753511">
        <ele>2374.1100000000001</ele>
        <time>2019-03-11T18:09:56Z</time>
      </trkpt>
      <trkpt lat="32.177694691345096" lon="-5.471725249662995">
        <ele>2373.6300000000001</ele>
        <time>2019-03-11T18:09:57Z</time>
      </trkpt>
      <trkpt lat="32.177632413804531" lon="-5.471846116706729">
        <ele>2373.1500000000001</ele>
        <time>2019-03-11T18:09:58Z</time>
      </trkpt>
      <trkpt lat="32.17757960781455" lon="-5.471968576312065">
        <ele>2372.6700000000001</ele>
        <time>2019-03-11T18:09:59Z</time>
      </trkpt>
      <trkpt lat="32.177537027746439" lon="-5.472087515518069">
        <ele>2372.6700000000001</ele>
        <time>2019-03-11T18:10:00Z</time>
      </trkpt>
      <trkpt lat="32.177505344152451" lon="-5.472196312621236">
        <ele>2372.6700000000001</ele>
        <time>2019-03-11T18:10:02Z</time>
      </trkpt>
      <trkpt lat="32.177431583404541" lon="-5.472394376993179">
        <ele>2372.6700000000001</ele>
        <time>2019-03-11T18:10:03Z</time>
      </trkpt>
      <trkpt lat="32.177372658625245" lon="-5.472479285672307">
        <ele>2372.1900000000001</ele>
        <time>2019-03-11T18:10:04Z</time>
      </trkpt>
      <trkpt lat="32.177302502095699" lon="-5.472555141896009">
        <ele>2372.1900000000001</ele>
        <time>2019-03-11T18:10:06Z</time>
      </trkpt>
      <trkpt lat="32.177166631445289" lon="-5.472696712240577">
        <ele>2372.1900000000001</ele>
        <time>2019-03-11T18:10:07Z</time>
      </trkpt>
      <trkpt lat="32.177111562341452" lon="-5.472787152975798">
        <ele>2371.71</ele>
        <time>2019-03-11T18:10:08Z</time>
      </trkpt>
      <trkpt lat="32.177067473530769" lon="-5.472894189879298">
        <ele>2369.3099999999999</ele>
        <time>2019-03-11T18:10:09Z</time>
      </trkpt>
      <trkpt lat="32.177031682804227" lon="-5.473007094115019">
        <ele>2369.3099999999999</ele>
        <time>2019-03-11T18:10:10Z</time>
      </trkpt>
      <trkpt lat="32.177001088857651" lon="-5.47311270609498">
        <ele>2368.8299999999999</ele>
        <time>2019-03-11T18:10:18Z</time>
      </trkpt>
      <trkpt lat="32.176826158538461" lon="-5.473946454003453">
        <ele>2368.8299999999999</ele>
        <time>2019-03-11T18:10:19Z</time>
      </trkpt>
      <trkpt lat="32.17682708054781" lon="-5.474027674645186">
        <ele>2367.8600000000001</ele>
        <time>2019-03-11T18:10:20Z</time>
      </trkpt>
      <trkpt lat="32.176838563755155" lon="-5.474106213077903">
        <ele>2366.9000000000001</ele>
        <time>2019-03-11T18:10:21Z</time>
      </trkpt>
      <trkpt lat="32.176861194893718" lon="-5.474187936633825">
        <ele>2366.4200000000001</ele>
        <time>2019-03-11T18:10:22Z</time>
      </trkpt>
      <trkpt lat="32.176894387230277" lon="-5.474272761493921">
        <ele>2366.9000000000001</ele>
        <time>2019-03-11T18:10:34Z</time>
      </trkpt>
      <trkpt lat="32.17724340967834" lon="-5.475233076140285">
        <ele>2366.9000000000001</ele>
        <time>2019-03-11T18:10:44Z</time>
      </trkpt>
      <trkpt lat="32.177643142640591" lon="-5.476052239537239">
        <ele>2366.9000000000001</ele>
        <time>2019-03-11T18:10:45Z</time>
      </trkpt>
      <trkpt lat="32.177672563120723" lon="-5.476148379966617">
        <ele>2367.3800000000001</ele>
        <time>2019-03-11T18:10:46Z</time>
      </trkpt>
      <trkpt lat="32.177692847326398" lon="-5.476251309737563">
        <ele>2367.3800000000001</ele>
        <time>2019-03-11T18:10:47Z</time>
      </trkpt>
      <trkpt lat="32.177702402696013" lon="-5.476362369954586">
        <ele>2367.3800000000001</ele>
        <time>2019-03-11T18:10:48Z</time>
      </trkpt>
      <trkpt lat="32.17769980430603" lon="-5.476481895893812">
        <ele>2367.3800000000001</ele>
        <time>2019-03-11T18:10:49Z</time>
      </trkpt>
      <trkpt lat="32.177690165117383" lon="-5.476602092385292">
        <ele>2367.3800000000001</ele>
        <time>2019-03-11T18:10:50Z</time>
      </trkpt>
      <trkpt lat="32.177676418796182" lon="-5.476715499535203">
        <ele>2366.9000000000001</ele>
        <time>2019-03-11T18:10:53Z</time>
      </trkpt>
      <trkpt lat="32.177623445168138" lon="-5.477005681023002">
        <ele>2367.3800000000001</ele>
        <time>2019-03-11T18:10:54Z</time>
      </trkpt>
      <trkpt lat="32.177587319165468" lon="-5.477083967998624">
        <ele>2366.9000000000001</ele>
        <time>2019-03-11T18:10:55Z</time>
      </trkpt>
      <trkpt lat="32.177536860108376" lon="-5.477153118699789">
        <ele>2366.9000000000001</ele>
        <time>2019-03-11T18:10:56Z</time>
      </trkpt>
      <trkpt lat="32.177474498748779" lon="-5.477217407897115">
        <ele>2366.9000000000001</ele>
        <time>2019-03-11T18:10:57Z</time>
      </trkpt>
      <trkpt lat="32.177408449351788" lon="-5.477276416495442">
        <ele>2366.9000000000001</ele>
        <time>2019-03-11T18:11:03Z</time>
      </trkpt>
      <trkpt lat="32.177046267315745" lon="-5.477578919380903">
        <ele>2366.4200000000001</ele>
        <time>2019-03-11T18:11:04Z</time>
      </trkpt>
      <trkpt lat="32.177000753581524" lon="-5.477627031505108">
        <ele>2365.9400000000001</ele>
        <time>2019-03-11T18:11:05Z</time>
      </trkpt>
      <trkpt lat="32.176961023360491" lon="-5.477679166942835">
        <ele>2365.46</ele>
        <time>2019-03-11T18:11:06Z</time>
      </trkpt>
      <trkpt lat="32.176926238462329" lon="-5.477738678455353">
        <ele>2363.0599999999999</ele>
        <time>2019-03-11T18:11:07Z</time>
      </trkpt>
      <trkpt lat="32.176892710849643" lon="-5.47780497930944">
        <ele>2363.0599999999999</ele>
        <time>2019-03-11T18:11:08Z</time>
      </trkpt>
      <trkpt lat="32.176858009770513" lon="-5.477881841361523">
        <ele>2363.0599999999999</ele>
        <time>2019-03-11T18:11:18Z</time>
      </trkpt>
      <trkpt lat="32.176458360627294" lon="-5.478825895115733">
        <ele>2363.0599999999999</ele>
        <time>2019-03-11T18:11:19Z</time>
      </trkpt>
      <trkpt lat="32.176418881863356" lon="-5.478916252031922">
        <ele>2363.0599999999999</ele>
        <time>2019-03-11T18:11:20Z</time>
      </trkpt>
      <trkpt lat="32.176373703405261" lon="-5.478998981416225">
        <ele>2363.0599999999999</ele>
        <time>2019-03-11T18:11:21Z</time>
      </trkpt>
      <trkpt lat="32.176323998719454" lon="-5.479073747992516">
        <ele>2363.0599999999999</ele>
        <time>2019-03-11T18:11:22Z</time>
      </trkpt>
      <trkpt lat="32.176276389509439" lon="-5.479144072160125">
        <ele>2362.5799999999999</ele>
        <time>2019-03-11T18:11:23Z</time>
      </trkpt>
      <trkpt lat="32.176241688430309" lon="-5.479211965575814">
        <ele>2362.0999999999999</ele>
        <time>2019-03-11T18:11:24Z</time>
      </trkpt>
      <trkpt lat="32.176219979301095" lon="-5.479286564514041">
        <ele>2361.6199999999999</ele>
        <time>2019-03-11T18:11:25Z</time>
      </trkpt>
      <trkpt lat="32.176213357597589" lon="-5.479369126260281">
        <ele>2360.1700000000001</ele>
        <time>2019-03-11T18:11:26Z</time>
      </trkpt>
      <trkpt lat="32.176220314577222" lon="-5.479450263082981">
        <ele>2357.29</ele>
        <time>2019-03-11T18:11:27Z</time>
      </trkpt>
      <trkpt lat="32.17623389326036" lon="-5.479530310258269">
        <ele>2356.8099999999999</ele>
        <time>2019-03-11T18:11:30Z</time>
      </trkpt>
      <trkpt lat="32.176258871331811" lon="-5.479796687141061">
        <ele>2356.3299999999999</ele>
        <time>2019-03-11T18:11:38Z</time>
      </trkpt>
      <trkpt lat="32.17633212916553" lon="-5.480646109208465">
        <ele>2354.4099999999999</ele>
        <time>2019-03-11T18:11:39Z</time>
      </trkpt>
      <trkpt lat="32.176332548260689" lon="-5.480759767815471">
        <ele>2352.96</ele>
        <time>2019-03-11T18:11:40Z</time>
      </trkpt>
      <trkpt lat="32.176320478320122" lon="-5.480869570747018">
        <ele>2352.48</ele>
        <time>2019-03-11T18:11:51Z</time>
      </trkpt>
      <trkpt lat="32.175961984321475" lon="-5.482021914795041">
        <ele>2352</ele>
        <time>2019-03-11T18:11:59Z</time>
      </trkpt>
      <trkpt lat="32.175599886104465" lon="-5.482874941080809">
        <ele>2351.52</ele>
        <time>2019-03-11T18:12:00Z</time>
      </trkpt>
      <trkpt lat="32.175578428432345" lon="-5.482992874458432">
        <ele>2351.04</ele>
        <time>2019-03-11T18:12:01Z</time>
      </trkpt>
      <trkpt lat="32.175567699596286" lon="-5.483116256073117">
        <ele>2350.0799999999999</ele>
        <time>2019-03-11T18:12:02Z</time>
      </trkpt>
      <trkpt lat="32.175564263015985" lon="-5.483243661001325">
        <ele>2349.1199999999999</ele>
        <time>2019-03-11T18:12:03Z</time>
      </trkpt>
      <trkpt lat="32.175563257187605" lon="-5.483371149748564">
        <ele>2345.75</ele>
        <time>2019-03-11T18:12:11Z</time>
      </trkpt>
      <trkpt lat="32.175424955785275" lon="-5.484186122193933">
        <ele>2342.8699999999999</ele>
        <time>2019-03-11T18:12:22Z</time>
      </trkpt>
      <trkpt lat="32.175023630261421" lon="-5.485396301373839">
        <ele>2339.02</ele>
        <time>2019-03-11T18:12:30Z</time>
      </trkpt>
      <trkpt lat="32.174720708280802" lon="-5.486534228548408">
        <ele>2335.1799999999998</ele>
        <time>2019-03-11T18:12:39Z</time>
      </trkpt>
      <trkpt lat="32.17456036247313" lon="-5.487768463790417">
        <ele>2335.6599999999999</ele>
        <time>2019-03-11T18:12:48Z</time>
      </trkpt>
      <trkpt lat="32.174532702192664" lon="-5.489596389234066">
        <ele>2335.6599999999999</ele>
        <time>2019-03-11T18:12:57Z</time>
      </trkpt>
      <trkpt lat="32.174377301707864" lon="-5.491347033530474">
        <ele>2336.1399999999999</ele>
        <time>2019-03-11T18:13:00Z</time>
      </trkpt>
      <trkpt lat="32.174393394961953" lon="-5.491809295490384">
        <ele>2336.1399999999999</ele>
        <time>2019-03-11T18:13:01Z</time>
      </trkpt>
      <trkpt lat="32.174416864290833" lon="-5.491951536387205">
        <ele>2336.6199999999999</ele>
        <time>2019-03-11T18:13:02Z</time>
      </trkpt>
      <trkpt lat="32.174451481550932" lon="-5.492082796990871">
        <ele>2337.0999999999999</ele>
        <time>2019-03-11T18:13:03Z</time>
      </trkpt>
      <trkpt lat="32.17449682764709" lon="-5.492206262424588">
        <ele>2337.0999999999999</ele>
        <time>2019-03-11T18:13:04Z</time>
      </trkpt>
      <trkpt lat="32.174548711627722" lon="-5.492328470572829">
        <ele>2337.0999999999999</ele>
        <time>2019-03-11T18:13:11Z</time>
      </trkpt>
      <trkpt lat="32.174917766824365" lon="-5.493299681693316">
        <ele>2337.0999999999999</ele>
        <time>2019-03-11T18:13:12Z</time>
      </trkpt>
      <trkpt lat="32.174945427104831" lon="-5.493443096056581">
        <ele>2336.6199999999999</ele>
        <time>2019-03-11T18:13:13Z</time>
      </trkpt>
      <trkpt lat="32.174962693825364" lon="-5.49358332529664">
        <ele>2336.1399999999999</ele>
        <time>2019-03-11T18:13:14Z</time>
      </trkpt>
      <trkpt lat="32.174966214224696" lon="-5.493720537051559">
        <ele>2335.6599999999999</ele>
        <time>2019-03-11T18:13:15Z</time>
      </trkpt>
      <trkpt lat="32.174953892827034" lon="-5.493853557854891">
        <ele>2335.1799999999998</ele>
        <time>2019-03-11T18:13:16Z</time>
      </trkpt>
      <trkpt lat="32.174932518973947" lon="-5.49398104660213">
        <ele>2331.3299999999999</ele>
        <time>2019-03-11T18:13:20Z</time>
      </trkpt>
      <trkpt lat="32.174816345795989" lon="-5.494536180049181">
        <ele>2331.3299999999999</ele>
        <time>2019-03-11T18:13:21Z</time>
      </trkpt>
      <trkpt lat="32.174759935587645" lon="-5.494680348783732">
        <ele>2331.3299999999999</ele>
        <time>2019-03-11T18:13:30Z</time>
      </trkpt>
      <trkpt lat="32.174023250117898" lon="-5.496158078312874">
        <ele>2331.3299999999999</ele>
        <time>2019-03-11T18:13:33Z</time>
      </trkpt>
      <trkpt lat="32.173781767487526" lon="-5.496618244796991">
        <ele>2331.3299999999999</ele>
        <time>2019-03-11T18:13:41Z</time>
      </trkpt>
      <trkpt lat="32.173351943492889" lon="-5.497692301869392">
        <ele>2330.8499999999999</ele>
        <time>2019-03-11T18:13:43Z</time>
      </trkpt>
      <trkpt lat="32.17321515083313" lon="-5.497989105060697">
        <ele>2330.8499999999999</ele>
        <time>2019-03-11T18:13:44Z</time>
      </trkpt>
      <trkpt lat="32.173133762553334" lon="-5.498131429776549">
        <ele>2330.3699999999999</ele>
        <time>2019-03-11T18:13:49Z</time>
      </trkpt>
      <trkpt lat="32.172794379293919" lon="-5.498705338686705">
        <ele>2330.3699999999999</ele>
        <time>2019-03-11T18:13:50Z</time>
      </trkpt>
      <trkpt lat="32.17276806011796" lon="-5.498794186860323">
        <ele>2330.3699999999999</ele>
        <time>2019-03-11T18:13:51Z</time>
      </trkpt>
      <trkpt lat="32.172751631587744" lon="-5.498887561261654">
        <ele>2329.4099999999999</ele>
        <time>2019-03-11T18:13:52Z</time>
      </trkpt>
      <trkpt lat="32.172746602445841" lon="-5.49898655153811">
        <ele>2326.5300000000002</ele>
        <time>2019-03-11T18:13:53Z</time>
      </trkpt>
      <trkpt lat="32.172745680436492" lon="-5.499091073870659">
        <ele>2324.1199999999999</ele>
        <time>2019-03-11T18:14:02Z</time>
      </trkpt>
      <trkpt lat="32.17278029769659" lon="-5.500264037400484">
        <ele>2323.6399999999999</ele>
        <time>2019-03-11T18:14:10Z</time>
      </trkpt>
      <trkpt lat="32.172844251617789" lon="-5.501713184639812">
        <ele>2321.7199999999998</ele>
        <time>2019-03-11T18:14:18Z</time>
      </trkpt>
      <trkpt lat="32.172784153372049" lon="-5.503297364339232">
        <ele>2321.7199999999998</ele>
        <time>2019-03-11T18:14:20Z</time>
      </trkpt>
      <trkpt lat="32.172741824761033" lon="-5.50360850058496">
        <ele>2321.7199999999998</ele>
        <time>2019-03-11T18:14:26Z</time>
      </trkpt>
      <trkpt lat="32.172644259408116" lon="-5.504327416419983">
        <ele>2322.1999999999998</ele>
        <time>2019-03-11T18:14:27Z</time>
      </trkpt>
      <trkpt lat="32.172597991302609" lon="-5.504409559071064">
        <ele>2322.1999999999998</ele>
        <time>2019-03-11T18:14:28Z</time>
      </trkpt>
      <trkpt lat="32.172533618286252" lon="-5.504469908773899">
        <ele>2322.1999999999998</ele>
        <time>2019-03-11T18:14:29Z</time>
      </trkpt>
      <trkpt lat="32.172457929700613" lon="-5.504505364224315">
        <ele>2322.6799999999998</ele>
        <time>2019-03-11T18:14:30Z</time>
      </trkpt>
      <trkpt lat="32.172380816191435" lon="-5.504533527418971">
        <ele>2322.6799999999998</ele>
        <time>2019-03-11T18:14:31Z</time>
      </trkpt>
      <trkpt lat="32.172304457053542" lon="-5.504569904878736">
        <ele>2322.1999999999998</ele>
        <time>2019-03-11T18:14:32Z</time>
      </trkpt>
      <trkpt lat="32.172229690477252" lon="-5.504614831879735">
        <ele>2322.1999999999998</ele>
        <time>2019-03-11T18:14:33Z</time>
      </trkpt>
      <trkpt lat="32.172156181186438" lon="-5.504670487716794">
        <ele>2321.2399999999998</ele>
        <time>2019-03-11T18:14:34Z</time>
      </trkpt>
      <trkpt lat="32.172080911695957" lon="-5.504734106361866">
        <ele>2321.2399999999998</ele>
        <time>2019-03-11T18:14:35Z</time>
      </trkpt>
      <trkpt lat="32.17200580984354" lon="-5.504805017262697">
        <ele>2321.2399999999998</ele>
        <time>2019-03-11T18:14:38Z</time>
      </trkpt>
      <trkpt lat="32.171780671924353" lon="-5.505062928423286">
        <ele>2321.2399999999998</ele>
        <time>2019-03-11T18:14:39Z</time>
      </trkpt>
      <trkpt lat="32.171721579506993" lon="-5.505162170156837">
        <ele>2320.7600000000002</ele>
        <time>2019-03-11T18:14:40Z</time>
      </trkpt>
      <trkpt lat="32.171674473211169" lon="-5.505264094099402">
        <ele>2320.7600000000002</ele>
        <time>2019-03-11T18:14:41Z</time>
      </trkpt>
      <trkpt lat="32.171644046902657" lon="-5.505370460450649">
        <ele>2319.8000000000002</ele>
        <time>2019-03-11T18:14:42Z</time>
      </trkpt>
      <trkpt lat="32.171619739383459" lon="-5.50547749735415">
        <ele>2319.8000000000002</ele>
        <time>2019-03-11T18:14:43Z</time>
      </trkpt>
      <trkpt lat="32.171590067446232" lon="-5.505585540086031">
        <ele>2319.8000000000002</ele>
        <time>2019-03-11T18:14:48Z</time>
      </trkpt>
      <trkpt lat="32.171484204009175" lon="-5.506191300228238">
        <ele>2319.3200000000002</ele>
        <time>2019-03-11T18:14:49Z</time>
      </trkpt>
      <trkpt lat="32.171457633376122" lon="-5.506286518648267">
        <ele>2319.3200000000002</ele>
        <time>2019-03-11T18:14:50Z</time>
      </trkpt>
      <trkpt lat="32.171428380534053" lon="-5.506373103708029">
        <ele>2317.8800000000001</ele>
        <time>2019-03-11T18:14:51Z</time>
      </trkpt>
      <trkpt lat="32.171403486281633" lon="-5.50646354444325">
        <ele>2315.9499999999998</ele>
        <time>2019-03-11T18:14:52Z</time>
      </trkpt>
      <trkpt lat="32.171382196247578" lon="-5.506559852510691">
        <ele>2314.9899999999998</ele>
        <time>2019-03-11T18:15:02Z</time>
      </trkpt>
      <trkpt lat="32.171178432181478" lon="-5.507819568738341">
        <ele>2313.0700000000002</ele>
        <time>2019-03-11T18:15:11Z</time>
      </trkpt>
      <trkpt lat="32.170868553221226" lon="-5.50948916003108">
        <ele>2313.0700000000002</ele>
        <time>2019-03-11T18:15:16Z</time>
      </trkpt>
      <trkpt lat="32.17075489461422" lon="-5.51028267480433">
        <ele>2312.1100000000001</ele>
        <time>2019-03-11T18:15:25Z</time>
      </trkpt>
      <trkpt lat="32.170747015625238" lon="-5.511501654982567">
        <ele>2312.5900000000001</ele>
        <time>2019-03-11T18:15:26Z</time>
      </trkpt>
      <trkpt lat="32.170735280960798" lon="-5.511642219498754">
        <ele>2312.1100000000001</ele>
        <time>2019-03-11T18:15:30Z</time>
      </trkpt>
      <trkpt lat="32.170660011470318" lon="-5.512064667418599">
        <ele>2312.5900000000001</ele>
        <time>2019-03-11T18:15:31Z</time>
      </trkpt>
      <trkpt lat="32.170625645667315" lon="-5.512140775099397">
        <ele>2312.5900000000001</ele>
        <time>2019-03-11T18:15:32Z</time>
      </trkpt>
      <trkpt lat="32.170578371733427" lon="-5.512203387916088">
        <ele>2312.5900000000001</ele>
        <time>2019-03-11T18:15:33Z</time>
      </trkpt>
      <trkpt lat="32.17051986604929" lon="-5.512256445363164">
        <ele>2312.5900000000001</ele>
        <time>2019-03-11T18:15:34Z</time>
      </trkpt>
      <trkpt lat="32.17045390047133" lon="-5.512307742610574">
        <ele>2312.1100000000001</ele>
        <time>2019-03-11T18:15:35Z</time>
      </trkpt>
      <trkpt lat="32.170384163036942" lon="-5.512364823371172">
        <ele>2311.6300000000001</ele>
        <time>2019-03-11T18:15:36Z</time>
      </trkpt>
      <trkpt lat="32.170315850526094" lon="-5.51243506371975">
        <ele>2311.6300000000001</ele>
        <time>2019-03-11T18:15:37Z</time>
      </trkpt>
      <trkpt lat="32.170246448367834" lon="-5.512516451999545">
        <ele>2311.6300000000001</ele>
        <time>2019-03-11T18:15:42Z</time>
      </trkpt>
      <trkpt lat="32.169853756204247" lon="-5.51288022659719">
        <ele>2311.6300000000001</ele>
        <time>2019-03-11T18:15:43Z</time>
      </trkpt>
      <trkpt lat="32.169772367924452" lon="-5.512921633198857">
        <ele>2311.6300000000001</ele>
        <time>2019-03-11T18:15:44Z</time>
      </trkpt>
      <trkpt lat="32.169691063463688" lon="-5.512955412268639">
        <ele>2311.6300000000001</ele>
        <time>2019-03-11T18:15:45Z</time>
      </trkpt>
      <trkpt lat="32.169605735689402" lon="-5.512983072549105">
        <ele>2311.6300000000001</ele>
        <time>2019-03-11T18:15:46Z</time>
      </trkpt>
      <trkpt lat="32.169519066810608" lon="-5.513006960973144">
        <ele>2310.6700000000001</ele>
        <time>2019-03-11T18:15:47Z</time>
      </trkpt>
      <trkpt lat="32.169431475922465" lon="-5.513021126389504">
        <ele>2310.6700000000001</ele>
        <time>2019-03-11T18:15:48Z</time>
      </trkpt>
      <trkpt lat="32.169345393776894" lon="-5.513029675930738">
        <ele>2311.1500000000001</ele>
        <time>2019-03-11T18:15:51Z</time>
      </trkpt>
      <trkpt lat="32.169112293049693" lon="-5.513071333989501">
        <ele>2311.1500000000001</ele>
        <time>2019-03-11T18:15:52Z</time>
      </trkpt>
      <trkpt lat="32.169033922255039" lon="-5.513112070038915">
        <ele>2308.2600000000002</ele>
        <time>2019-03-11T18:15:53Z</time>
      </trkpt>
      <trkpt lat="32.168957395479083" lon="-5.513175185769796">
        <ele>2308.2600000000002</ele>
        <time>2019-03-11T18:15:55Z</time>
      </trkpt>
      <trkpt lat="32.168806185945868" lon="-5.513311810791493">
        <ele>2307.7800000000002</ele>
        <time>2019-03-11T18:16:03Z</time>
      </trkpt>
      <trkpt lat="32.168242838233709" lon="-5.513999545946717">
        <ele>2304.9000000000001</ele>
        <time>2019-03-11T18:16:04Z</time>
      </trkpt>
      <trkpt lat="32.168200090527534" lon="-5.514093255624175">
        <ele>2304.4200000000001</ele>
        <time>2019-03-11T18:16:05Z</time>
      </trkpt>
      <trkpt lat="32.168171759694815" lon="-5.514204818755388">
        <ele>2300.5700000000002</ele>
        <time>2019-03-11T18:16:13Z</time>
      </trkpt>
      <trkpt lat="32.167932372540236" lon="-5.51532237790525">
        <ele>2299.6100000000001</ele>
        <time>2019-03-11T18:16:23Z</time>
      </trkpt>
      <trkpt lat="32.167559880763292" lon="-5.516859786584973">
        <ele>2296.73</ele>
        <time>2019-03-11T18:16:32Z</time>
      </trkpt>
      <trkpt lat="32.167185125872493" lon="-5.518610263243318">
        <ele>2296.73</ele>
        <time>2019-03-11T18:16:33Z</time>
      </trkpt>
      <trkpt lat="32.167119411751628" lon="-5.518793156370521">
        <ele>2296.73</ele>
        <time>2019-03-11T18:16:40Z</time>
      </trkpt>
      <trkpt lat="32.166607948020101" lon="-5.519879115745425">
        <ele>2296.73</ele>
        <time>2019-03-11T18:16:41Z</time>
      </trkpt>
      <trkpt lat="32.166542150080204" lon="-5.519969137385488">
        <ele>2296.25</ele>
        <time>2019-03-11T18:16:42Z</time>
      </trkpt>
      <trkpt lat="32.166465455666184" lon="-5.520043065771461">
        <ele>2295.77</ele>
        <time>2019-03-11T18:16:43Z</time>
      </trkpt>
      <trkpt lat="32.166375769302249" lon="-5.520107271149755">
        <ele>2294.8000000000002</ele>
        <time>2019-03-11T18:16:45Z</time>
      </trkpt>
      <trkpt lat="32.16618038713932" lon="-5.520248841494322">
        <ele>2294.8000000000002</ele>
        <time>2019-03-11T18:16:46Z</time>
      </trkpt>
      <trkpt lat="32.166090365499258" lon="-5.520344311371446">
        <ele>2294.8000000000002</ele>
        <time>2019-03-11T18:16:48Z</time>
      </trkpt>
      <trkpt lat="32.165932701900601" lon="-5.520541286095977">
        <ele>2294.3200000000002</ele>
        <time>2019-03-11T18:16:49Z</time>
      </trkpt>
      <trkpt lat="32.165843853726983" lon="-5.520611191168428">
        <ele>2294.3200000000002</ele>
        <time>2019-03-11T18:16:50Z</time>
      </trkpt>
      <trkpt lat="32.165741007775068" lon="-5.520648155361414">
        <ele>2293.8400000000001</ele>
        <time>2019-03-11T18:16:51Z</time>
      </trkpt>
      <trkpt lat="32.165627852082253" lon="-5.520666092634201">
        <ele>2293.3600000000001</ele>
        <time>2019-03-11T18:16:52Z</time>
      </trkpt>
      <trkpt lat="32.165514109656215" lon="-5.520676821470261">
        <ele>2293.3600000000001</ele>
        <time>2019-03-11T18:16:53Z</time>
      </trkpt>
      <trkpt lat="32.16540489345789" lon="-5.520692663267255">
        <ele>2292.8800000000001</ele>
        <time>2019-03-11T18:16:54Z</time>
      </trkpt>
      <trkpt lat="32.165303388610482" lon="-5.520724095404148">
        <ele>2292.8800000000001</ele>
        <time>2019-03-11T18:16:55Z</time>
      </trkpt>
      <trkpt lat="32.165214624255896" lon="-5.520785115659237">
        <ele>2292.8800000000001</ele>
        <time>2019-03-11T18:16:56Z</time>
      </trkpt>
      <trkpt lat="32.165148155763745" lon="-5.520878322422504">
        <ele>2292.8800000000001</ele>
        <time>2019-03-11T18:16:57Z</time>
      </trkpt>
      <trkpt lat="32.165109431371093" lon="-5.520993992686272">
        <ele>2292.8800000000001</ele>
        <time>2019-03-11T18:16:58Z</time>
      </trkpt>
      <trkpt lat="32.165092499926686" lon="-5.521124666556716">
        <ele>2292.8800000000001</ele>
        <time>2019-03-11T18:16:59Z</time>
      </trkpt>
      <trkpt lat="32.16508436948061" lon="-5.521263973787427">
        <ele>2292.8800000000001</ele>
        <time>2019-03-11T18:17:02Z</time>
      </trkpt>
      <trkpt lat="32.165066180750728" lon="-5.521714920178056">
        <ele>2291.9200000000001</ele>
        <time>2019-03-11T18:17:03Z</time>
      </trkpt>
      <trkpt lat="32.165038269013166" lon="-5.521863112226129">
        <ele>2291.4400000000001</ele>
        <time>2019-03-11T18:17:04Z</time>
      </trkpt>
      <trkpt lat="32.164985714480281" lon="-5.522008454427123">
        <ele>2290.48</ele>
        <time>2019-03-11T18:17:12Z</time>
      </trkpt>
      <trkpt lat="32.164316587150097" lon="-5.523390211164951">
        <ele>2290.48</ele>
        <time>2019-03-11T18:17:14Z</time>
      </trkpt>
      <trkpt lat="32.164134196937084" lon="-5.523680644109845">
        <ele>2290</ele>
        <time>2019-03-11T18:17:18Z</time>
      </trkpt>
      <trkpt lat="32.163777379319072" lon="-5.524138966575265">
        <ele>2289.04</ele>
        <time>2019-03-11T18:17:19Z</time>
      </trkpt>
      <trkpt lat="32.163714682683349" lon="-5.524266958236694">
        <ele>2288.5599999999999</ele>
        <time>2019-03-11T18:17:20Z</time>
      </trkpt>
      <trkpt lat="32.16366590000689" lon="-5.524410540238023">
        <ele>2288.0799999999999</ele>
        <time>2019-03-11T18:17:29Z</time>
      </trkpt>
      <trkpt lat="32.163245379924774" lon="-5.525906123220921">
        <ele>2288.0799999999999</ele>
        <time>2019-03-11T18:17:39Z</time>
      </trkpt>
      <trkpt lat="32.162749506533146" lon="-5.527592645958066">
        <ele>2288.0799999999999</ele>
        <time>2019-03-11T18:17:49Z</time>
      </trkpt>
      <trkpt lat="32.162224464118481" lon="-5.529126282781363">
        <ele>2287.5900000000001</ele>
        <time>2019-03-11T18:17:50Z</time>
      </trkpt>
      <trkpt lat="32.162182806059718" lon="-5.529257459565997">
        <ele>2287.5900000000001</ele>
        <time>2019-03-11T18:17:51Z</time>
      </trkpt>
      <trkpt lat="32.162154139950871" lon="-5.529395928606391">
        <ele>2287.1100000000001</ele>
        <time>2019-03-11T18:17:52Z</time>
      </trkpt>
      <trkpt lat="32.162144836038351" lon="-5.529541103169322">
        <ele>2286.1500000000001</ele>
        <time>2019-03-11T18:17:53Z</time>
      </trkpt>
      <trkpt lat="32.162157911807299" lon="-5.529688792303205">
        <ele>2285.1900000000001</ele>
        <time>2019-03-11T18:17:54Z</time>
      </trkpt>
      <trkpt lat="32.162187751382589" lon="-5.529835810884833">
        <ele>2284.71</ele>
        <time>2019-03-11T18:17:55Z</time>
      </trkpt>
      <trkpt lat="32.162224967032671" lon="-5.529981069266796">
        <ele>2283.75</ele>
        <time>2019-03-11T18:17:57Z</time>
      </trkpt>
      <trkpt lat="32.162268469110131" lon="-5.530298911035061">
        <ele>2277.5</ele>
        <time>2019-03-11T18:17:58Z</time>
      </trkpt>
      <trkpt lat="32.162270145490766" lon="-5.53046696819365">
        <ele>2275.5799999999999</ele>
        <time>2019-03-11T18:17:59Z</time>
      </trkpt>
      <trkpt lat="32.162255812436342" lon="-5.530635276809335">
        <ele>2275.0999999999999</ele>
        <time>2019-03-11T18:18:09Z</time>
      </trkpt>
      <trkpt lat="32.161779217422009" lon="-5.532241752371192">
        <ele>2275.0999999999999</ele>
        <time>2019-03-11T18:18:18Z</time>
      </trkpt>
      <trkpt lat="32.161389878019691" lon="-5.533602386713028">
        <ele>2274.6199999999999</ele>
        <time>2019-03-11T18:18:19Z</time>
      </trkpt>
      <trkpt lat="32.161347800865769" lon="-5.533731551840901">
        <ele>2273.6599999999999</ele>
        <time>2019-03-11T18:18:20Z</time>
      </trkpt>
      <trkpt lat="32.161288792267442" lon="-5.533847389742732">
        <ele>2273.1700000000001</ele>
        <time>2019-03-11T18:18:21Z</time>
      </trkpt>
      <trkpt lat="32.161211678758264" lon="-5.533955600112677">
        <ele>2272.21</ele>
        <time>2019-03-11T18:18:24Z</time>
      </trkpt>
      <trkpt lat="32.160932896658778" lon="-5.5342997610569">
        <ele>2271.73</ele>
        <time>2019-03-11T18:18:25Z</time>
      </trkpt>
      <trkpt lat="32.160852765664458" lon="-5.534436972811818">
        <ele>2271.73</ele>
        <time>2019-03-11T18:18:26Z</time>
      </trkpt>
      <trkpt lat="32.160788811743259" lon="-5.534589271992445">
        <ele>2267.4099999999999</ele>
        <time>2019-03-11T18:18:27Z</time>
      </trkpt>
      <trkpt lat="32.160740112885833" lon="-5.534757999703288">
        <ele>2265.96</ele>
        <time>2019-03-11T18:18:28Z</time>
      </trkpt>
      <trkpt lat="32.160696275532246" lon="-5.534943491220474">
        <ele>2265.96</ele>
        <time>2019-03-11T18:18:39Z</time>
      </trkpt>
      <trkpt lat="32.160209119319916" lon="-5.537275420501828">
        <ele>2265.48</ele>
        <time>2019-03-11T18:18:48Z</time>
      </trkpt>
      <trkpt lat="32.15989806689322" lon="-5.539089599624276">
        <ele>2265</ele>
        <time>2019-03-11T18:18:49Z</time>
      </trkpt>
      <trkpt lat="32.159910723567009" lon="-5.539246760308743">
        <ele>2264.52</ele>
        <time>2019-03-11T18:18:50Z</time>
      </trkpt>
      <trkpt lat="32.159944083541632" lon="-5.539404004812241">
        <ele>2265</ele>
        <time>2019-03-11T18:18:53Z</time>
      </trkpt>
      <trkpt lat="32.160071320831776" lon="-5.539894429966807">
        <ele>2265</ele>
        <time>2019-03-11T18:18:54Z</time>
      </trkpt>
      <trkpt lat="32.160092610865831" lon="-5.540067935362458">
        <ele>2259.7199999999998</ele>
        <time>2019-03-11T18:19:01Z</time>
      </trkpt>
      <trkpt lat="32.160395532846451" lon="-5.541411554440856">
        <ele>2255.3899999999999</ele>
        <time>2019-03-11T18:19:09Z</time>
      </trkpt>
      <trkpt lat="32.160812448710203" lon="-5.543163707479835">
        <ele>2254.9099999999999</ele>
        <time>2019-03-11T18:19:16Z</time>
      </trkpt>
      <trkpt lat="32.161198183894157" lon="-5.544786360114813">
        <ele>2254.9099999999999</ele>
        <time>2019-03-11T18:19:24Z</time>
      </trkpt>
      <trkpt lat="32.16153890825808" lon="-5.546642113476992">
        <ele>2254.9099999999999</ele>
        <time>2019-03-11T18:19:25Z</time>
      </trkpt>
      <trkpt lat="32.16153547167778" lon="-5.546831963583827">
        <ele>2254.4299999999998</ele>
        <time>2019-03-11T18:19:26Z</time>
      </trkpt>
      <trkpt lat="32.161524072289467" lon="-5.547023238614202">
        <ele>2254.4299999999998</ele>
        <time>2019-03-11T18:19:27Z</time>
      </trkpt>
      <trkpt lat="32.161503788083792" lon="-5.547216022387147">
        <ele>2254.4299999999998</ele>
        <time>2019-03-11T18:19:28Z</time>
      </trkpt>
      <trkpt lat="32.161475038155913" lon="-5.547408554702997">
        <ele>2254.4299999999998</ele>
        <time>2019-03-11T18:19:29Z</time>
      </trkpt>
      <trkpt lat="32.161434721201658" lon="-5.547593124210835">
        <ele>2252.5100000000002</ele>
        <time>2019-03-11T18:19:30Z</time>
      </trkpt>
      <trkpt lat="32.161373617127538" lon="-5.54777123965323">
        <ele>2251.0599999999999</ele>
        <time>2019-03-11T18:19:31Z</time>
      </trkpt>
      <trkpt lat="32.161289295181632" lon="-5.5479437392205">
        <ele>2251.0599999999999</ele>
        <time>2019-03-11T18:19:39Z</time>
      </trkpt>
      <trkpt lat="32.160382708534598" lon="-5.549478884786367">
        <ele>2250.5799999999999</ele>
        <time>2019-03-11T18:19:43Z</time>
      </trkpt>
      <trkpt lat="32.160053215920925" lon="-5.550034604966641">
        <ele>2250.0999999999999</ele>
        <time>2019-03-11T18:19:44Z</time>
      </trkpt>
      <trkpt lat="32.160016084089875" lon="-5.550148682668805">
        <ele>2249.6199999999999</ele>
        <time>2019-03-11T18:19:45Z</time>
      </trkpt>
      <trkpt lat="32.16000116430223" lon="-5.550266029313207">
        <ele>2249.6199999999999</ele>
        <time>2019-03-11T18:19:46Z</time>
      </trkpt>
      <trkpt lat="32.160007199272513" lon="-5.550387231633067">
        <ele>2249.1399999999999</ele>
        <time>2019-03-11T18:19:47Z</time>
      </trkpt>
      <trkpt lat="32.160025639459491" lon="-5.550513379275799">
        <ele>2249.1399999999999</ele>
        <time>2019-03-11T18:19:48Z</time>
      </trkpt>
      <trkpt lat="32.160047180950642" lon="-5.550644556060433">
        <ele>2249.1399999999999</ele>
        <time>2019-03-11T18:19:56Z</time>
      </trkpt>
      <trkpt lat="32.16041162610054" lon="-5.551863955333829">
        <ele>2249.6199999999999</ele>
        <time>2019-03-11T18:19:57Z</time>
      </trkpt>
      <trkpt lat="32.160463174805045" lon="-5.551998820155859">
        <ele>2250.0999999999999</ele>
        <time>2019-03-11T18:19:58Z</time>
      </trkpt>
      <trkpt lat="32.160480609163642" lon="-5.552131673321128">
        <ele>2250.0999999999999</ele>
        <time>2019-03-11T18:19:59Z</time>
      </trkpt>
      <trkpt lat="32.160458564758301" lon="-5.552260000258684">
        <ele>2250.5799999999999</ele>
        <time>2019-03-11T18:20:00Z</time>
      </trkpt>
      <trkpt lat="32.160405591130257" lon="-5.55238095112145">
        <ele>2250.5799999999999</ele>
        <time>2019-03-11T18:20:01Z</time>
      </trkpt>
      <trkpt lat="32.160335853695869" lon="-5.552495364099741">
        <ele>2250.0999999999999</ele>
        <time>2019-03-11T18:20:02Z</time>
      </trkpt>
      <trkpt lat="32.160259578377008" lon="-5.552609441801906">
        <ele>2250.0999999999999</ele>
        <time>2019-03-11T18:20:09Z</time>
      </trkpt>
      <trkpt lat="32.159781642258167" lon="-5.553657850250602">
        <ele>2249.6199999999999</ele>
        <time>2019-03-11T18:20:10Z</time>
      </trkpt>
      <trkpt lat="32.159744761884212" lon="-5.553805371746421">
        <ele>2249.1399999999999</ele>
        <time>2019-03-11T18:20:11Z</time>
      </trkpt>
      <trkpt lat="32.159727914258838" lon="-5.553951468318701">
        <ele>2248.6599999999999</ele>
        <time>2019-03-11T18:20:12Z</time>
      </trkpt>
      <trkpt lat="32.159738475456834" lon="-5.55409261956811">
        <ele>2247.6999999999998</ele>
        <time>2019-03-11T18:20:13Z</time>
      </trkpt>
      <trkpt lat="32.159785749390721" lon="-5.554229160770774">
        <ele>2247.2199999999998</ele>
        <time>2019-03-11T18:20:14Z</time>
      </trkpt>
      <trkpt lat="32.159854983910918" lon="-5.55436578579247">
        <ele>2246.7399999999998</ele>
        <time>2019-03-11T18:20:15Z</time>
      </trkpt>
      <trkpt lat="32.159917429089546" lon="-5.554513391107321">
        <ele>2246.2600000000002</ele>
        <time>2019-03-11T18:20:16Z</time>
      </trkpt>
      <trkpt lat="32.159952549263835" lon="-5.554676335304976">
        <ele>2245.7800000000002</ele>
        <time>2019-03-11T18:20:17Z</time>
      </trkpt>
      <trkpt lat="32.159963613376021" lon="-5.554851097986102">
        <ele>2244.8200000000002</ele>
        <time>2019-03-11T18:20:18Z</time>
      </trkpt>
      <trkpt lat="32.159963110461831" lon="-5.555035667493939">
        <ele>2244.8200000000002</ele>
        <time>2019-03-11T18:20:19Z</time>
      </trkpt>
      <trkpt lat="32.159959925338626" lon="-5.555225517600775">
        <ele>2244.3299999999999</ele>
        <time>2019-03-11T18:20:22Z</time>
      </trkpt>
      <trkpt lat="32.159941988065839" lon="-5.555783919990063">
        <ele>2244.3299999999999</ele>
        <time>2019-03-11T18:20:23Z</time>
      </trkpt>
      <trkpt lat="32.159896222874522" lon="-5.555955078452826">
        <ele>2244.3299999999999</ele>
        <time>2019-03-11T18:20:24Z</time>
      </trkpt>
      <trkpt lat="32.159823887050152" lon="-5.556117938831449">
        <ele>2243.8499999999999</ele>
        <time>2019-03-11T18:20:27Z</time>
      </trkpt>
      <trkpt lat="32.159528341144323" lon="-5.556573998183012">
        <ele>2243.8499999999999</ele>
        <time>2019-03-11T18:20:29Z</time>
      </trkpt>
      <trkpt lat="32.159328684210777" lon="-5.556835178285837">
        <ele>2243.3699999999999</ele>
        <time>2019-03-11T18:20:30Z</time>
      </trkpt>
      <trkpt lat="32.159256180748343" lon="-5.556979011744261">
        <ele>2242.8899999999999</ele>
        <time>2019-03-11T18:20:31Z</time>
      </trkpt>
      <trkpt lat="32.1592066437006" lon="-5.557135166600347">
        <ele>2241.9299999999998</ele>
        <time>2019-03-11T18:20:32Z</time>
      </trkpt>
      <trkpt lat="32.159186443313956" lon="-5.557299284264445">
        <ele>2240.9699999999998</ele>
        <time>2019-03-11T18:20:33Z</time>
      </trkpt>
      <trkpt lat="32.159189376980066" lon="-5.557465748861432">
        <ele>2240.0100000000002</ele>
        <time>2019-03-11T18:20:34Z</time>
      </trkpt>
      <trkpt lat="32.159214857965708" lon="-5.557637242600322">
        <ele>2234.2399999999998</ele>
        <time>2019-03-11T18:20:35Z</time>
      </trkpt>
      <trkpt lat="32.15926087461412" lon="-5.557817621156573">
        <ele>2233.7600000000002</ele>
        <time>2019-03-11T18:20:36Z</time>
      </trkpt>
      <trkpt lat="32.159314686432481" lon="-5.558009231463075">
        <ele>2233.7600000000002</ele>
        <time>2019-03-11T18:20:42Z</time>
      </trkpt>
      <trkpt lat="32.159610483795404" lon="-5.559018161147833">
        <ele>2233.2800000000002</ele>
        <time>2019-03-11T18:20:43Z</time>
      </trkpt>
      <trkpt lat="32.159612160176039" lon="-5.559142967686057">
        <ele>2233.2800000000002</ele>
        <time>2019-03-11T18:20:44Z</time>
      </trkpt>
      <trkpt lat="32.159593049436808" lon="-5.559268612414599">
        <ele>2233.2800000000002</ele>
        <time>2019-03-11T18:20:45Z</time>
      </trkpt>
      <trkpt lat="32.159556169062853" lon="-5.559395682066679">
        <ele>2233.2800000000002</ele>
        <time>2019-03-11T18:20:46Z</time>
      </trkpt>
      <trkpt lat="32.159506883472204" lon="-5.559521578252316">
        <ele>2233.2800000000002</ele>
        <time>2019-03-11T18:20:47Z</time>
      </trkpt>
      <trkpt lat="32.159443097189069" lon="-5.559644121676683">
        <ele>2233.2800000000002</ele>
        <time>2019-03-11T18:20:48Z</time>
      </trkpt>
      <trkpt lat="32.159360870718956" lon="-5.559761049225926">
        <ele>2233.2800000000002</ele>
        <time>2019-03-11T18:20:49Z</time>
      </trkpt>
      <trkpt lat="32.15926967561245" lon="-5.559873199090362">
        <ele>2233.2800000000002</ele>
        <time>2019-03-11T18:20:51Z</time>
      </trkpt>
      <trkpt lat="32.159104384481907" lon="-5.560120213776827">
        <ele>2233.7600000000002</ele>
        <time>2019-03-11T18:20:52Z</time>
      </trkpt>
      <trkpt lat="32.159040682017803" lon="-5.560260359197855">
        <ele>2233.2800000000002</ele>
        <time>2019-03-11T18:20:53Z</time>
      </trkpt>
      <trkpt lat="32.158990558236837" lon="-5.560409389436245">
        <ele>2233.7600000000002</ele>
        <time>2019-03-11T18:20:56Z</time>
      </trkpt>
      <trkpt lat="32.158835660666227" lon="-5.560811720788479">
        <ele>2233.7600000000002</ele>
        <time>2019-03-11T18:20:57Z</time>
      </trkpt>
      <trkpt lat="32.158767096698284" lon="-5.56091339327395">
        <ele>2233.7600000000002</ele>
        <time>2019-03-11T18:20:58Z</time>
      </trkpt>
      <trkpt lat="32.15868772007525" lon="-5.561003917828202">
        <ele>2233.7600000000002</ele>
        <time>2019-03-11T18:20:59Z</time>
      </trkpt>
      <trkpt lat="32.158596944063902" lon="-5.561087233945727">
        <ele>2233.7600000000002</ele>
        <time>2019-03-11T18:21:00Z</time>
      </trkpt>
      <trkpt lat="32.158493595197797" lon="-5.561157893389463">
        <ele>2233.2800000000002</ele>
        <time>2019-03-11T18:21:01Z</time>
      </trkpt>
      <trkpt lat="32.158380607143044" lon="-5.561218997463584">
        <ele>2233.2800000000002</ele>
        <time>2019-03-11T18:21:02Z</time>
      </trkpt>
      <trkpt lat="32.158262673765421" lon="-5.561285968869925">
        <ele>2232.8000000000002</ele>
        <time>2019-03-11T18:21:05Z</time>
      </trkpt>
      <trkpt lat="32.157898144796491" lon="-5.561517560854554">
        <ele>2231.8400000000001</ele>
        <time>2019-03-11T18:21:06Z</time>
      </trkpt>
      <trkpt lat="32.157766548916698" lon="-5.561550501734018">
        <ele>2231.3600000000001</ele>
        <time>2019-03-11T18:21:07Z</time>
      </trkpt>
      <trkpt lat="32.157629337161779" lon="-5.561541952192783">
        <ele>2231.3600000000001</ele>
        <time>2019-03-11T18:21:09Z</time>
      </trkpt>
      <trkpt lat="32.157358014956117" lon="-5.561506832018495">
        <ele>2230.8800000000001</ele>
        <time>2019-03-11T18:21:10Z</time>
      </trkpt>
      <trkpt lat="32.157240081578493" lon="-5.561516471207142">
        <ele>2230.4000000000001</ele>
        <time>2019-03-11T18:21:11Z</time>
      </trkpt>
      <trkpt lat="32.157140169292688" lon="-5.561548741534352">
        <ele>2229.9200000000001</ele>
        <time>2019-03-11T18:21:12Z</time>
      </trkpt>
      <trkpt lat="32.157058026641607" lon="-5.561606995761395">
        <ele>2229.9200000000001</ele>
        <time>2019-03-11T18:21:13Z</time>
      </trkpt>
      <trkpt lat="32.15699365362525" lon="-5.561688551679254">
        <ele>2229.9200000000001</ele>
        <time>2019-03-11T18:21:14Z</time>
      </trkpt>
      <trkpt lat="32.156941685825586" lon="-5.56178754195571">
        <ele>2229.4299999999998</ele>
        <time>2019-03-11T18:21:15Z</time>
      </trkpt>
      <trkpt lat="32.156897932291031" lon="-5.561897680163384">
        <ele>2229.4299999999998</ele>
        <time>2019-03-11T18:21:16Z</time>
      </trkpt>
      <trkpt lat="32.156855268403888" lon="-5.562015697360039">
        <ele>2229.4299999999998</ele>
        <time>2019-03-11T18:21:18Z</time>
      </trkpt>
      <trkpt lat="32.156770778819919" lon="-5.562277883291245">
        <ele>2228.9499999999998</ele>
        <time>2019-03-11T18:21:19Z</time>
      </trkpt>
      <trkpt lat="32.156745214015245" lon="-5.562428422272205">
        <ele>2228.4699999999998</ele>
        <time>2019-03-11T18:21:20Z</time>
      </trkpt>
      <trkpt lat="32.156741777434945" lon="-5.562590612098575">
        <ele>2228.4699999999998</ele>
        <time>2019-03-11T18:21:21Z</time>
      </trkpt>
      <trkpt lat="32.156754769384861" lon="-5.562756909057498">
        <ele>2227.9899999999998</ele>
        <time>2019-03-11T18:21:22Z</time>
      </trkpt>
      <trkpt lat="32.156764408573508" lon="-5.562920272350311">
        <ele>2227.5100000000002</ele>
        <time>2019-03-11T18:21:23Z</time>
      </trkpt>
      <trkpt lat="32.156762313097715" lon="-5.563088497146964">
        <ele>2227.0300000000002</ele>
        <time>2019-03-11T18:21:24Z</time>
      </trkpt>
      <trkpt lat="32.156747058033943" lon="-5.56325638666749">
        <ele>2227.0300000000002</ele>
        <time>2019-03-11T18:21:25Z</time>
      </trkpt>
      <trkpt lat="32.156716715544462" lon="-5.563424192368984">
        <ele>2226.5500000000002</ele>
        <time>2019-03-11T18:21:26Z</time>
      </trkpt>
      <trkpt lat="32.156671872362494" lon="-5.563586885109544">
        <ele>2226.5500000000002</ele>
        <time>2019-03-11T18:21:27Z</time>
      </trkpt>
      <trkpt lat="32.156619569286704" lon="-5.563743626698852">
        <ele>2226.0700000000002</ele>
        <time>2019-03-11T18:21:30Z</time>
      </trkpt>
      <trkpt lat="32.156505323946476" lon="-5.564205469563603">
        <ele>2225.1100000000001</ele>
        <time>2019-03-11T18:21:31Z</time>
      </trkpt>
      <trkpt lat="32.156494092196226" lon="-5.564356008544564">
        <ele>2224.6300000000001</ele>
        <time>2019-03-11T18:21:32Z</time>
      </trkpt>
      <trkpt lat="32.156497025862336" lon="-5.564510487020016">
        <ele>2224.1500000000001</ele>
        <time>2019-03-11T18:21:34Z</time>
      </trkpt>
      <trkpt lat="32.156508173793554" lon="-5.564795807003975">
        <ele>2224.1500000000001</ele>
        <time>2019-03-11T18:21:35Z</time>
      </trkpt>
      <trkpt lat="32.156486632302403" lon="-5.564913488924503">
        <ele>2223.6700000000001</ele>
        <time>2019-03-11T18:21:36Z</time>
      </trkpt>
      <trkpt lat="32.156434496864676" lon="-5.565014993771911">
        <ele>2223.6700000000001</ele>
        <time>2019-03-11T18:21:37Z</time>
      </trkpt>
      <trkpt lat="32.156356712803245" lon="-5.565097639337182">
        <ele>2224.1500000000001</ele>
        <time>2019-03-11T18:21:38Z</time>
      </trkpt>
      <trkpt lat="32.156263757497072" lon="-5.565165197476745">
        <ele>2223.6700000000001</ele>
        <time>2019-03-11T18:21:39Z</time>
      </trkpt>
      <trkpt lat="32.156164599582553" lon="-5.565228061750531">
        <ele>2223.6700000000001</ele>
        <time>2019-03-11T18:21:41Z</time>
      </trkpt>
      <trkpt lat="32.155969636514783" lon="-5.565347755327821">
        <ele>2223.1900000000001</ele>
        <time>2019-03-11T18:21:42Z</time>
      </trkpt>
      <trkpt lat="32.155883805826306" lon="-5.565421348437667">
        <ele>2223.1900000000001</ele>
        <time>2019-03-11T18:21:43Z</time>
      </trkpt>
      <trkpt lat="32.155812475830317" lon="-5.565517069771886">
        <ele>2222.71</ele>
        <time>2019-03-11T18:21:44Z</time>
      </trkpt>
      <trkpt lat="32.155759837478399" lon="-5.565631315112114">
        <ele>2222.71</ele>
        <time>2019-03-11T18:21:45Z</time>
      </trkpt>
      <trkpt lat="32.155728153884411" lon="-5.565758300945163">
        <ele>2222.2199999999998</ele>
        <time>2019-03-11T18:21:46Z</time>
      </trkpt>
      <trkpt lat="32.155719017609954" lon="-5.565895428881049">
        <ele>2221.7399999999998</ele>
        <time>2019-03-11T18:21:47Z</time>
      </trkpt>
      <trkpt lat="32.155726980417967" lon="-5.566036161035299">
        <ele>2221.7399999999998</ele>
        <time>2019-03-11T18:21:48Z</time>
      </trkpt>
      <trkpt lat="32.155740140005946" lon="-5.56617496535182">
        <ele>2221.7399999999998</ele>
        <time>2019-03-11T18:21:52Z</time>
      </trkpt>
      <trkpt lat="32.155770063400269" lon="-5.566674107685685">
        <ele>2221.2600000000002</ele>
        <time>2019-03-11T18:21:53Z</time>
      </trkpt>
      <trkpt lat="32.155757155269384" lon="-5.566752310842276">
        <ele>2220.7800000000002</ele>
        <time>2019-03-11T18:21:54Z</time>
      </trkpt>
      <trkpt lat="32.155739134177566" lon="-5.566808050498366">
        <ele>2219.8200000000002</ele>
        <time>2019-03-11T18:21:55Z</time>
      </trkpt>
      <trkpt lat="32.155721615999937" lon="-5.566843757405877">
        <ele>2219.3400000000001</ele>
        <time>2019-03-11T18:21:56Z</time>
      </trkpt>
      <trkpt lat="32.155705858021975" lon="-5.566861527040601">
        <ele>2219.3400000000001</ele>
        <time>2019-03-11T18:22:11Z</time>
      </trkpt>
      <trkpt lat="32.155687836930156" lon="-5.566865717992187">
        <ele>2219.8200000000002</ele>
        <time>2019-03-11T18:24:22Z</time>
      </trkpt>
      <trkpt lat="32.155560851097107" lon="-5.566897820681334">
        <ele>2219.8200000000002</ele>
        <time>2019-03-11T18:24:23Z</time>
      </trkpt>
      <trkpt lat="32.155510894954205" lon="-5.566899077966809">
        <ele>2219.8200000000002</ele>
        <time>2019-03-11T18:24:24Z</time>
      </trkpt>
      <trkpt lat="32.155450461432338" lon="-5.566891534253955">
        <ele>2219.8200000000002</ele>
        <time>2019-03-11T18:24:34Z</time>
      </trkpt>
      <trkpt lat="32.154610678553581" lon="-5.566655080765486">
        <ele>2219.8200000000002</ele>
        <time>2019-03-11T18:24:35Z</time>
      </trkpt>
      <trkpt lat="32.154522333294153" lon="-5.566641669720411">
        <ele>2219.3400000000001</ele>
        <time>2019-03-11T18:24:36Z</time>
      </trkpt>
      <trkpt lat="32.154436502605677" lon="-5.566639993339777">
        <ele>2219.3400000000001</ele>
        <time>2019-03-11T18:24:37Z</time>
      </trkpt>
      <trkpt lat="32.154357880353928" lon="-5.566654661670327">
        <ele>2218.8600000000001</ele>
        <time>2019-03-11T18:24:38Z</time>
      </trkpt>
      <trkpt lat="32.154288562014699" lon="-5.566688440740109">
        <ele>2218.8600000000001</ele>
        <time>2019-03-11T18:24:39Z</time>
      </trkpt>
      <trkpt lat="32.154229301959276" lon="-5.566743928939104">
        <ele>2219.3400000000001</ele>
        <time>2019-03-11T18:24:40Z</time>
      </trkpt>
      <trkpt lat="32.154180435463786" lon="-5.566817857325077">
        <ele>2219.3400000000001</ele>
        <time>2019-03-11T18:24:41Z</time>
      </trkpt>
      <trkpt lat="32.154149590060115" lon="-5.566909639164805">
        <ele>2219.8200000000002</ele>
        <time>2019-03-11T18:24:42Z</time>
      </trkpt>
      <trkpt lat="32.154134251177311" lon="-5.567011395469308">
        <ele>2220.3000000000002</ele>
        <time>2019-03-11T18:24:43Z</time>
      </trkpt>
      <trkpt lat="32.15412737801671" lon="-5.567115833982825">
        <ele>2219.8200000000002</ele>
        <time>2019-03-11T18:24:44Z</time>
      </trkpt>
      <trkpt lat="32.154122935608029" lon="-5.567229157313705">
        <ele>2217.9000000000001</ele>
        <time>2019-03-11T18:24:47Z</time>
      </trkpt>
      <trkpt lat="32.154133077710867" lon="-5.567614808678627">
        <ele>2217.4200000000001</ele>
        <time>2019-03-11T18:24:48Z</time>
      </trkpt>
      <trkpt lat="32.15415914542973" lon="-5.567751349881291">
        <ele>2214.5300000000002</ele>
        <time>2019-03-11T18:24:54Z</time>
      </trkpt>
      <trkpt lat="32.154416972771287" lon="-5.568576632067561">
        <ele>2214.5300000000002</ele>
        <time>2019-03-11T18:24:55Z</time>
      </trkpt>
      <trkpt lat="32.154487548395991" lon="-5.568695235997438">
        <ele>2214.5300000000002</ele>
        <time>2019-03-11T18:25:04Z</time>
      </trkpt>
      <trkpt lat="32.155201938003302" lon="-5.569803575053811">
        <ele>2215.0100000000002</ele>
        <time>2019-03-11T18:25:05Z</time>
      </trkpt>
      <trkpt lat="32.155245188623667" lon="-5.569935087114573">
        <ele>2215.5</ele>
        <time>2019-03-11T18:25:06Z</time>
      </trkpt>
      <trkpt lat="32.155270837247372" lon="-5.570075232535601">
        <ele>2215.5</ele>
        <time>2019-03-11T18:25:07Z</time>
      </trkpt>
      <trkpt lat="32.155282739549875" lon="-5.570220490917563">
        <ele>2215.0100000000002</ele>
        <time>2019-03-11T18:25:08Z</time>
      </trkpt>
      <trkpt lat="32.155287517234683" lon="-5.570369521155953">
        <ele>2215.0100000000002</ele>
        <time>2019-03-11T18:25:09Z</time>
      </trkpt>
      <trkpt lat="32.155290115624666" lon="-5.570518299937248">
        <ele>2214.5300000000002</ele>
        <time>2019-03-11T18:25:11Z</time>
      </trkpt>
      <trkpt lat="32.15526538901031" lon="-5.570791130885482">
        <ele>2214.5300000000002</ele>
        <time>2019-03-11T18:25:12Z</time>
      </trkpt>
      <trkpt lat="32.155220462009311" lon="-5.570913003757596">
        <ele>2214.5300000000002</ele>
        <time>2019-03-11T18:25:13Z</time>
      </trkpt>
      <trkpt lat="32.155151311308146" lon="-5.571024985983968">
        <ele>2214.0500000000002</ele>
        <time>2019-03-11T18:25:14Z</time>
      </trkpt>
      <trkpt lat="32.155060032382607" lon="-5.571127580478787">
        <ele>2214.0500000000002</ele>
        <time>2019-03-11T18:25:15Z</time>
      </trkpt>
      <trkpt lat="32.154960539191961" lon="-5.571230677887797">
        <ele>2214.0500000000002</ele>
        <time>2019-03-11T18:25:17Z</time>
      </trkpt>
      <trkpt lat="32.154782759025693" lon="-5.571438632905483">
        <ele>2214.5300000000002</ele>
        <time>2019-03-11T18:25:18Z</time>
      </trkpt>
      <trkpt lat="32.154722409322858" lon="-5.57154793292284">
        <ele>2214.5300000000002</ele>
        <time>2019-03-11T18:25:19Z</time>
      </trkpt>
      <trkpt lat="32.154683098196983" lon="-5.571669638156891">
        <ele>2214.5300000000002</ele>
        <time>2019-03-11T18:25:20Z</time>
      </trkpt>
      <trkpt lat="32.154664825648069" lon="-5.571804167702794">
        <ele>2214.5300000000002</ele>
        <time>2019-03-11T18:25:21Z</time>
      </trkpt>
      <trkpt lat="32.154653342440724" lon="-5.571944480761886">
        <ele>2215.0100000000002</ele>
        <time>2019-03-11T18:25:23Z</time>
      </trkpt>
      <trkpt lat="32.154614198952913" lon="-5.572224436327815">
        <ele>2215.0100000000002</ele>
        <time>2019-03-11T18:25:28Z</time>
      </trkpt>
      <trkpt lat="32.154388893395662" lon="-5.572851737961173">
        <ele>2214.5300000000002</ele>
        <time>2019-03-11T18:25:29Z</time>
      </trkpt>
      <trkpt lat="32.154316725209355" lon="-5.572955925017595">
        <ele>2214.5300000000002</ele>
        <time>2019-03-11T18:25:30Z</time>
      </trkpt>
      <trkpt lat="32.15423583984375" lon="-5.573047623038292">
        <ele>2214.5300000000002</ele>
        <time>2019-03-11T18:25:31Z</time>
      </trkpt>
      <trkpt lat="32.154147913679481" lon="-5.573116941377521">
        <ele>2214.5300000000002</ele>
        <time>2019-03-11T18:25:32Z</time>
      </trkpt>
      <trkpt lat="32.154049258679152" lon="-5.573163460940123">
        <ele>2214.5300000000002</ele>
        <time>2019-03-11T18:25:33Z</time>
      </trkpt>
      <trkpt lat="32.1539397072047" lon="-5.573191288858652">
        <ele>2215.5</ele>
        <time>2019-03-11T18:25:34Z</time>
      </trkpt>
      <trkpt lat="32.153820851817727" lon="-5.573203274980187">
        <ele>2215.5</ele>
        <time>2019-03-11T18:25:35Z</time>
      </trkpt>
      <trkpt lat="32.153698643669486" lon="-5.573209645226598">
        <ele>2215.98</ele>
        <time>2019-03-11T18:25:40Z</time>
      </trkpt>
      <trkpt lat="32.15305482968688" lon="-5.57330209761858">
        <ele>2215.98</ele>
        <time>2019-03-11T18:25:41Z</time>
      </trkpt>
      <trkpt lat="32.152932705357671" lon="-5.573357585817576">
        <ele>2215.98</ele>
        <time>2019-03-11T18:25:44Z</time>
      </trkpt>
      <trkpt lat="32.152609918266535" lon="-5.57357526384294">
        <ele>2215.5</ele>
        <time>2019-03-11T18:25:45Z</time>
      </trkpt>
      <trkpt lat="32.152518555521965" lon="-5.573663106188178">
        <ele>2215.5</ele>
        <time>2019-03-11T18:25:46Z</time>
      </trkpt>
      <trkpt lat="32.152442112565041" lon="-5.573760420084">
        <ele>2215.5</ele>
        <time>2019-03-11T18:25:47Z</time>
      </trkpt>
      <trkpt lat="32.152383606880903" lon="-5.573868378996849">
        <ele>2215.5</ele>
        <time>2019-03-11T18:25:48Z</time>
      </trkpt>
      <trkpt lat="32.152342032641172" lon="-5.573988743126392">
        <ele>2215.0100000000002</ele>
        <time>2019-03-11T18:25:49Z</time>
      </trkpt>
      <trkpt lat="32.152317892760038" lon="-5.5741161480546">
        <ele>2214.5300000000002</ele>
        <time>2019-03-11T18:25:50Z</time>
      </trkpt>
      <trkpt lat="32.152314623817801" lon="-5.574242379516363">
        <ele>2214.0500000000002</ele>
        <time>2019-03-11T18:25:51Z</time>
      </trkpt>
      <trkpt lat="32.152333818376064" lon="-5.574364671483636">
        <ele>2213.5700000000002</ele>
        <time>2019-03-11T18:25:52Z</time>
      </trkpt>
      <trkpt lat="32.152370698750019" lon="-5.57448704726994">
        <ele>2213.0900000000001</ele>
        <time>2019-03-11T18:25:53Z</time>
      </trkpt>
      <trkpt lat="32.152411518618464" lon="-5.574604477733374">
        <ele>2212.6100000000001</ele>
        <time>2019-03-11T18:25:54Z</time>
      </trkpt>
      <trkpt lat="32.152442699298263" lon="-5.574722997844219">
        <ele>2212.1300000000001</ele>
        <time>2019-03-11T18:25:55Z</time>
      </trkpt>
      <trkpt lat="32.152458960190415" lon="-5.574837746098638">
        <ele>2211.1700000000001</ele>
        <time>2019-03-11T18:25:56Z</time>
      </trkpt>
      <trkpt lat="32.152462732046843" lon="-5.574941765516996">
        <ele>2210.6900000000001</ele>
        <time>2019-03-11T18:25:57Z</time>
      </trkpt>
      <trkpt lat="32.152456026524305" lon="-5.575034385547042">
        <ele>2210.21</ele>
        <time>2019-03-11T18:25:58Z</time>
      </trkpt>
      <trkpt lat="32.152442447841167" lon="-5.575117282569408">
        <ele>2209.25</ele>
        <time>2019-03-11T18:25:59Z</time>
      </trkpt>
      <trkpt lat="32.15242400765419" lon="-5.575187271460891">
        <ele>2208.77</ele>
        <time>2019-03-11T18:26:00Z</time>
      </trkpt>
      <trkpt lat="32.152405735105276" lon="-5.575239323079586">
        <ele>2208.29</ele>
        <time>2019-03-11T18:26:01Z</time>
      </trkpt>
      <trkpt lat="32.15238444507122" lon="-5.575278466567397">
        <ele>2208.29</ele>
        <time>2019-03-11T18:26:02Z</time>
      </trkpt>
      <trkpt lat="32.152352845296264" lon="-5.575313502922654">
        <ele>2208.29</ele>
        <time>2019-03-11T18:26:03Z</time>
      </trkpt>
      <trkpt lat="32.152306325733662" lon="-5.57534309104085">
        <ele>2209.25</ele>
        <time>2019-03-11T18:26:04Z</time>
      </trkpt>
      <trkpt lat="32.152250166982412" lon="-5.575363542884588">
        <ele>2208.77</ele>
        <time>2019-03-11T18:26:05Z</time>
      </trkpt>
      <trkpt lat="32.152181435376406" lon="-5.575378378853202">
        <ele>2209.25</ele>
        <time>2019-03-11T18:26:12Z</time>
      </trkpt>
      <trkpt lat="32.151448270305991" lon="-5.575604690238833">
        <ele>2209.25</ele>
        <time>2019-03-11T18:26:20Z</time>
      </trkpt>
      <trkpt lat="32.150418972596526" lon="-5.575975673273206">
        <ele>2208.77</ele>
        <time>2019-03-11T18:26:21Z</time>
      </trkpt>
      <trkpt lat="32.150304643437266" lon="-5.575995622202754">
        <ele>2208.77</ele>
        <time>2019-03-11T18:26:22Z</time>
      </trkpt>
      <trkpt lat="32.150189308449626" lon="-5.576001238077879">
        <ele>2207.8099999999999</ele>
        <time>2019-03-11T18:26:23Z</time>
      </trkpt>
      <trkpt lat="32.150070704519749" lon="-5.57599738240242">
        <ele>2207.8099999999999</ele>
        <time>2019-03-11T18:26:24Z</time>
      </trkpt>
      <trkpt lat="32.149948831647635" lon="-5.575984809547663">
        <ele>2207.8099999999999</ele>
        <time>2019-03-11T18:26:27Z</time>
      </trkpt>
      <trkpt lat="32.149582793936133" lon="-5.575913144275546">
        <ele>2208.77</ele>
        <time>2019-03-11T18:26:28Z</time>
      </trkpt>
      <trkpt lat="32.149470476433635" lon="-5.575869390740991">
        <ele>2208.77</ele>
        <time>2019-03-11T18:26:29Z</time>
      </trkpt>
      <trkpt lat="32.149364361539483" lon="-5.575814908370376">
        <ele>2209.25</ele>
        <time>2019-03-11T18:26:39Z</time>
      </trkpt>
      <trkpt lat="32.148298099637032" lon="-5.575179979205132">
        <ele>2209.25</ele>
        <time>2019-03-11T18:26:40Z</time>
      </trkpt>
      <trkpt lat="32.148194750770926" lon="-5.57511736638844">
        <ele>2209.73</ele>
        <time>2019-03-11T18:26:41Z</time>
      </trkpt>
      <trkpt lat="32.14808402583003" lon="-5.575066991150379">
        <ele>2209.73</ele>
        <time>2019-03-11T18:26:42Z</time>
      </trkpt>
      <trkpt lat="32.14796575717628" lon="-5.575032290071249">
        <ele>2211.1700000000001</ele>
        <time>2019-03-11T18:26:43Z</time>
      </trkpt>
      <trkpt lat="32.147844806313515" lon="-5.575012341141701">
        <ele>2211.6500000000001</ele>
        <time>2019-03-11T18:26:44Z</time>
      </trkpt>
      <trkpt lat="32.147724777460098" lon="-5.575001360848546">
        <ele>2211.1700000000001</ele>
        <time>2019-03-11T18:26:56Z</time>
      </trkpt>
      <trkpt lat="32.146259620785713" lon="-5.574894910678268">
        <ele>2211.1700000000001</ele>
        <time>2019-03-11T18:27:05Z</time>
      </trkpt>
      <trkpt lat="32.145323194563389" lon="-5.574708329513669">
        <ele>2209.73</ele>
        <time>2019-03-11T18:27:09Z</time>
      </trkpt>
      <trkpt lat="32.144923713058233" lon="-5.574760297313333">
        <ele>2209.25</ele>
        <time>2019-03-11T18:27:10Z</time>
      </trkpt>
      <trkpt lat="32.144816592335701" lon="-5.574802542105317">
        <ele>2209.25</ele>
        <time>2019-03-11T18:27:17Z</time>
      </trkpt>
      <trkpt lat="32.14405870065093" lon="-5.575158605352044">
        <ele>2209.25</ele>
        <time>2019-03-11T18:27:18Z</time>
      </trkpt>
      <trkpt lat="32.143966499716043" lon="-5.575226079672575">
        <ele>2209.73</ele>
        <time>2019-03-11T18:27:19Z</time>
      </trkpt>
      <trkpt lat="32.143880585208535" lon="-5.575305372476578">
        <ele>2209.73</ele>
        <time>2019-03-11T18:27:20Z</time>
      </trkpt>
      <trkpt lat="32.143801711499691" lon="-5.575393550097942">
        <ele>2209.73</ele>
        <time>2019-03-11T18:27:21Z</time>
      </trkpt>
      <trkpt lat="32.143725771456957" lon="-5.575483907014132">
        <ele>2209.73</ele>
        <time>2019-03-11T18:27:22Z</time>
      </trkpt>
      <trkpt lat="32.143646562471986" lon="-5.575565798208118">
        <ele>2209.73</ele>
        <time>2019-03-11T18:27:23Z</time>
      </trkpt>
      <trkpt lat="32.143560312688351" lon="-5.575633440166712">
        <ele>2210.21</ele>
        <time>2019-03-11T18:27:24Z</time>
      </trkpt>
      <trkpt lat="32.143464088439941" lon="-5.575688341632485">
        <ele>2215.0100000000002</ele>
        <time>2019-03-11T18:27:25Z</time>
      </trkpt>
      <trkpt lat="32.143361745402217" lon="-5.575732095167041">
        <ele>2215.98</ele>
        <time>2019-03-11T18:27:26Z</time>
      </trkpt>
      <trkpt lat="32.143253115937114" lon="-5.575774172320962">
        <ele>2216.46</ele>
        <time>2019-03-11T18:27:36Z</time>
      </trkpt>
      <trkpt lat="32.142249885946512" lon="-5.576114561408758">
        <ele>2216.9400000000001</ele>
        <time>2019-03-11T18:27:37Z</time>
      </trkpt>
      <trkpt lat="32.142186015844345" lon="-5.576131325215101">
        <ele>2217.4200000000001</ele>
        <time>2019-03-11T18:27:38Z</time>
      </trkpt>
      <trkpt lat="32.142125498503447" lon="-5.576140126213431">
        <ele>2217.4200000000001</ele>
        <time>2019-03-11T18:27:39Z</time>
      </trkpt>
      <trkpt lat="32.142068836838007" lon="-5.57613275013864">
        <ele>2217.4200000000001</ele>
        <time>2019-03-11T18:27:40Z</time>
      </trkpt>
      <trkpt lat="32.142008068040013" lon="-5.576105006039143">
        <ele>2217.4200000000001</ele>
        <time>2019-03-11T18:27:41Z</time>
      </trkpt>
      <trkpt lat="32.141943778842688" lon="-5.576061923056841">
        <ele>2216.9400000000001</ele>
        <time>2019-03-11T18:27:42Z</time>
      </trkpt>
      <trkpt lat="32.141877058893442" lon="-5.576007859781385">
        <ele>2216.9400000000001</ele>
        <time>2019-03-11T18:27:43Z</time>
      </trkpt>
      <trkpt lat="32.141813021153212" lon="-5.575954467058182">
        <ele>2216.9400000000001</ele>
        <time>2019-03-11T18:27:44Z</time>
      </trkpt>
      <trkpt lat="32.141756610944867" lon="-5.575908031314611">
        <ele>2216.9400000000001</ele>
        <time>2019-03-11T18:27:45Z</time>
      </trkpt>
      <trkpt lat="32.141703385859728" lon="-5.575874419882894">
        <ele>2211.6500000000001</ele>
        <time>2019-03-11T18:27:46Z</time>
      </trkpt>
      <trkpt lat="32.141652759164572" lon="-5.575840724632144">
        <ele>2212.1300000000001</ele>
        <time>2019-03-11T18:27:47Z</time>
      </trkpt>
      <trkpt lat="32.141606491059065" lon="-5.575797222554684">
        <ele>2212.6100000000001</ele>
        <time>2019-03-11T18:27:58Z</time>
      </trkpt>
      <trkpt lat="32.141179852187634" lon="-5.574981411918998">
        <ele>2212.6100000000001</ele>
        <time>2019-03-11T18:28:07Z</time>
      </trkpt>
      <trkpt lat="32.140757655724883" lon="-5.574133833870292">
        <ele>2212.6100000000001</ele>
        <time>2019-03-11T18:28:08Z</time>
      </trkpt>
      <trkpt lat="32.14072865433991" lon="-5.574025874957442">
        <ele>2212.6100000000001</ele>
        <time>2019-03-11T18:28:09Z</time>
      </trkpt>
      <trkpt lat="32.140710884705186" lon="-5.573909031227231">
        <ele>2212.6100000000001</ele>
        <time>2019-03-11T18:28:10Z</time>
      </trkpt>
      <trkpt lat="32.140699736773968" lon="-5.573788918554783">
        <ele>2212.6100000000001</ele>
        <time>2019-03-11T18:28:11Z</time>
      </trkpt>
      <trkpt lat="32.140694791451097" lon="-5.573668638244271">
        <ele>2213.0900000000001</ele>
        <time>2019-03-11T18:28:12Z</time>
      </trkpt>
      <trkpt lat="32.140699988231063" lon="-5.573545172810555">
        <ele>2213.0900000000001</ele>
        <time>2019-03-11T18:28:13Z</time>
      </trkpt>
      <trkpt lat="32.140710800886154" lon="-5.573420869186521">
        <ele>2213.5700000000002</ele>
        <time>2019-03-11T18:28:17Z</time>
      </trkpt>
      <trkpt lat="32.140784393996" lon="-5.572955338284373">
        <ele>2213.5700000000002</ele>
        <time>2019-03-11T18:28:18Z</time>
      </trkpt>
      <trkpt lat="32.140818340703845" lon="-5.572856348007917">
        <ele>2214.5300000000002</ele>
        <time>2019-03-11T18:28:19Z</time>
      </trkpt>
      <trkpt lat="32.140859831124544" lon="-5.572762973606587">
        <ele>2216.46</ele>
        <time>2019-03-11T18:28:25Z</time>
      </trkpt>
      <trkpt lat="32.141112126410007" lon="-5.572169786319137">
        <ele>2216.46</ele>
        <time>2019-03-11T18:28:38Z</time>
      </trkpt>
      <trkpt lat="32.141489060595632" lon="-5.570728350430727">
        <ele>2216.46</ele>
        <time>2019-03-11T18:28:48Z</time>
      </trkpt>
      <trkpt lat="32.141399793326855" lon="-5.569665357470512">
        <ele>2216.46</ele>
        <time>2019-03-11T18:28:56Z</time>
      </trkpt>
      <trkpt lat="32.141150431707501" lon="-5.568751813843846">
        <ele>2216.46</ele>
        <time>2019-03-11T18:28:57Z</time>
      </trkpt>
      <trkpt lat="32.141097877174616" lon="-5.568643854930997">
        <ele>2216.46</ele>
        <time>2019-03-11T18:28:58Z</time>
      </trkpt>
      <trkpt lat="32.141031241044402" lon="-5.568543104454875">
        <ele>2216.9400000000001</ele>
        <time>2019-03-11T18:28:59Z</time>
      </trkpt>
      <trkpt lat="32.140953959897161" lon="-5.568449646234512">
        <ele>2216.46</ele>
        <time>2019-03-11T18:29:00Z</time>
      </trkpt>
      <trkpt lat="32.140868883579969" lon="-5.568360630422831">
        <ele>2215.5</ele>
        <time>2019-03-11T18:29:02Z</time>
      </trkpt>
      <trkpt lat="32.140678279101849" lon="-5.568200452253223">
        <ele>2215.5</ele>
        <time>2019-03-11T18:29:03Z</time>
      </trkpt>
      <trkpt lat="32.140570487827063" lon="-5.568137252703309">
        <ele>2215.5</ele>
        <time>2019-03-11T18:29:13Z</time>
      </trkpt>
      <trkpt lat="32.139382855966687" lon="-5.56776056997478">
        <ele>2215.98</ele>
        <time>2019-03-11T18:29:17Z</time>
      </trkpt>
      <trkpt lat="32.138935178518295" lon="-5.567627297714353">
        <ele>2215.98</ele>
        <time>2019-03-11T18:29:18Z</time>
      </trkpt>
      <trkpt lat="32.138849850744009" lon="-5.567561751231551">
        <ele>2215.98</ele>
        <time>2019-03-11T18:29:19Z</time>
      </trkpt>
      <trkpt lat="32.138781202957034" lon="-5.567478351294994">
        <ele>2217.4200000000001</ele>
        <time>2019-03-11T18:29:20Z</time>
      </trkpt>
      <trkpt lat="32.138727894052863" lon="-5.567377852275968">
        <ele>2227.0300000000002</ele>
        <time>2019-03-11T18:29:21Z</time>
      </trkpt>
      <trkpt lat="32.1386827994138" lon="-5.567265367135406">
        <ele>2229.9200000000001</ele>
        <time>2019-03-11T18:29:31Z</time>
      </trkpt>
      <trkpt lat="32.138112829998136" lon="-5.565903056412935">
        <ele>2230.4000000000001</ele>
        <time>2019-03-11T18:29:45Z</time>
      </trkpt>
      <trkpt lat="32.137237843126059" lon="-5.563961556181312">
        <ele>2230.8800000000001</ele>
        <time>2019-03-11T18:29:51Z</time>
      </trkpt>
      <trkpt lat="32.136789914220572" lon="-5.563289327546954">
        <ele>2233.2800000000002</ele>
        <time>2019-03-11T18:29:52Z</time>
      </trkpt>
      <trkpt lat="32.136745490133762" lon="-5.563171058893204">
        <ele>2233.2800000000002</ele>
        <time>2019-03-11T18:29:53Z</time>
      </trkpt>
      <trkpt lat="32.136713303625584" lon="-5.563044240698218">
        <ele>2233.2800000000002</ele>
        <time>2019-03-11T18:30:03Z</time>
      </trkpt>
      <trkpt lat="32.136403508484364" lon="-5.56161847896874">
        <ele>2232.8000000000002</ele>
        <time>2019-03-11T18:30:04Z</time>
      </trkpt>
      <trkpt lat="32.136341482400894" lon="-5.561515213921666">
        <ele>2232.3200000000002</ele>
        <time>2019-03-11T18:30:05Z</time>
      </trkpt>
      <trkpt lat="32.136267051100731" lon="-5.5614391900599">
        <ele>2231.8400000000001</ele>
        <time>2019-03-11T18:30:06Z</time>
      </trkpt>
      <trkpt lat="32.136184321716428" lon="-5.561382360756397">
        <ele>2230.8800000000001</ele>
        <time>2019-03-11T18:30:07Z</time>
      </trkpt>
      <trkpt lat="32.136104525998235" lon="-5.561328213661909">
        <ele>2229.9200000000001</ele>
        <time>2019-03-11T18:30:08Z</time>
      </trkpt>
      <trkpt lat="32.136037638410926" lon="-5.561272641643882">
        <ele>2228.9499999999998</ele>
        <time>2019-03-11T18:30:09Z</time>
      </trkpt>
      <trkpt lat="32.13598751462996" lon="-5.561204915866256">
        <ele>2227.9899999999998</ele>
        <time>2019-03-11T18:30:10Z</time>
      </trkpt>
      <trkpt lat="32.13595331646502" lon="-5.561119420453906">
        <ele>2224.1500000000001</ele>
        <time>2019-03-11T18:30:11Z</time>
      </trkpt>
      <trkpt lat="32.135931858792901" lon="-5.561018669977784">
        <ele>2223.6700000000001</ele>
        <time>2019-03-11T18:30:12Z</time>
      </trkpt>
      <trkpt lat="32.135917693376541" lon="-5.560905681923032">
        <ele>2223.6700000000001</ele>
        <time>2019-03-11T18:30:16Z</time>
      </trkpt>
      <trkpt lat="32.135828342288733" lon="-5.560411736369133">
        <ele>2223.6700000000001</ele>
        <time>2019-03-11T18:30:17Z</time>
      </trkpt>
      <trkpt lat="32.135781990364194" lon="-5.560313835740089">
        <ele>2223.1900000000001</ele>
        <time>2019-03-11T18:30:18Z</time>
      </trkpt>
      <trkpt lat="32.135717198252678" lon="-5.560240410268307">
        <ele>2223.1900000000001</ele>
        <time>2019-03-11T18:30:19Z</time>
      </trkpt>
      <trkpt lat="32.135636648163199" lon="-5.56018341332674">
        <ele>2222.71</ele>
        <time>2019-03-11T18:30:20Z</time>
      </trkpt>
      <trkpt lat="32.135548554360867" lon="-5.560136139392853">
        <ele>2222.71</ele>
        <time>2019-03-11T18:30:21Z</time>
      </trkpt>
      <trkpt lat="32.135455096140504" lon="-5.560093894600868">
        <ele>2222.71</ele>
        <time>2019-03-11T18:30:23Z</time>
      </trkpt>
      <trkpt lat="32.135260216891766" lon="-5.55999088101089">
        <ele>2223.1900000000001</ele>
        <time>2019-03-11T18:30:24Z</time>
      </trkpt>
      <trkpt lat="32.135167848318815" lon="-5.559925837442279">
        <ele>2223.1900000000001</ele>
        <time>2019-03-11T18:30:25Z</time>
      </trkpt>
      <trkpt lat="32.135080508887768" lon="-5.559854926541448">
        <ele>2223.1900000000001</ele>
        <time>2019-03-11T18:30:33Z</time>
      </trkpt>
      <trkpt lat="32.134409788995981" lon="-5.559386964887381">
        <ele>2223.6700000000001</ele>
        <time>2019-03-11T18:30:34Z</time>
      </trkpt>
      <trkpt lat="32.134316749870777" lon="-5.559360226616263">
        <ele>2223.6700000000001</ele>
        <time>2019-03-11T18:30:35Z</time>
      </trkpt>
      <trkpt lat="32.134218346327543" lon="-5.559350922703743">
        <ele>2223.1900000000001</ele>
        <time>2019-03-11T18:30:36Z</time>
      </trkpt>
      <trkpt lat="32.134119356051087" lon="-5.559358885511756">
        <ele>2223.1900000000001</ele>
        <time>2019-03-11T18:30:37Z</time>
      </trkpt>
      <trkpt lat="32.134018186479807" lon="-5.559379169717431">
        <ele>2223.1900000000001</ele>
        <time>2019-03-11T18:30:38Z</time>
      </trkpt>
      <trkpt lat="32.133915843442082" lon="-5.559406829997897">
        <ele>2223.6700000000001</ele>
        <time>2019-03-11T18:30:49Z</time>
      </trkpt>
      <trkpt lat="32.13271563872695" lon="-5.559620400890708">
        <ele>2223.6700000000001</ele>
        <time>2019-03-11T18:30:51Z</time>
      </trkpt>
      <trkpt lat="32.13249477557838" lon="-5.559581089764834">
        <ele>2224.1500000000001</ele>
        <time>2019-03-11T18:30:52Z</time>
      </trkpt>
      <trkpt lat="32.132393606007099" lon="-5.559543622657657">
        <ele>2224.1500000000001</ele>
        <time>2019-03-11T18:30:53Z</time>
      </trkpt>
      <trkpt lat="32.132301572710276" lon="-5.559487296268344">
        <ele>2224.1500000000001</ele>
        <time>2019-03-11T18:30:54Z</time>
      </trkpt>
      <trkpt lat="32.132214736193419" lon="-5.559415966272354">
        <ele>2224.6300000000001</ele>
        <time>2019-03-11T18:30:55Z</time>
      </trkpt>
      <trkpt lat="32.132132258266211" lon="-5.559332733973861">
        <ele>2224.6300000000001</ele>
        <time>2019-03-11T18:30:56Z</time>
      </trkpt>
      <trkpt lat="32.132050450891256" lon="-5.559243801981211">
        <ele>2225.1100000000001</ele>
        <time>2019-03-11T18:30:59Z</time>
      </trkpt>
      <trkpt lat="32.131809135898948" lon="-5.558994524180889">
        <ele>2225.5900000000001</ele>
        <time>2019-03-11T18:31:00Z</time>
      </trkpt>
      <trkpt lat="32.131726574152708" lon="-5.558947417885065">
        <ele>2225.5900000000001</ele>
        <time>2019-03-11T18:31:01Z</time>
      </trkpt>
      <trkpt lat="32.131639318540692" lon="-5.558924032375217">
        <ele>2225.5900000000001</ele>
        <time>2019-03-11T18:31:02Z</time>
      </trkpt>
      <trkpt lat="32.131549464538693" lon="-5.558922188356519">
        <ele>2225.5900000000001</ele>
        <time>2019-03-11T18:31:03Z</time>
      </trkpt>
      <trkpt lat="32.131458856165409" lon="-5.558936102315784">
        <ele>2225.5900000000001</ele>
        <time>2019-03-11T18:31:04Z</time>
      </trkpt>
      <trkpt lat="32.131365733221173" lon="-5.558957811444998">
        <ele>2225.5900000000001</ele>
        <time>2019-03-11T18:31:05Z</time>
      </trkpt>
      <trkpt lat="32.131270263344049" lon="-5.558984884992242">
        <ele>2225.5900000000001</ele>
        <time>2019-03-11T18:31:17Z</time>
      </trkpt>
      <trkpt lat="32.129869312047958" lon="-5.55931119248271">
        <ele>2225.5900000000001</ele>
        <time>2019-03-11T18:31:24Z</time>
      </trkpt>
      <trkpt lat="32.129018884152174" lon="-5.559510430321097">
        <ele>2225.1100000000001</ele>
        <time>2019-03-11T18:31:25Z</time>
      </trkpt>
      <trkpt lat="32.128900280222297" lon="-5.559501210227609">
        <ele>2225.1100000000001</ele>
        <time>2019-03-11T18:31:26Z</time>
      </trkpt>
      <trkpt lat="32.128780754283071" lon="-5.559478579089046">
        <ele>2225.1100000000001</ele>
        <time>2019-03-11T18:31:28Z</time>
      </trkpt>
      <trkpt lat="32.128569362685084" lon="-5.559424934908748">
        <ele>2224.6300000000001</ele>
        <time>2019-03-11T18:31:29Z</time>
      </trkpt>
      <trkpt lat="32.128464924171567" lon="-5.559421498328447">
        <ele>2224.1500000000001</ele>
        <time>2019-03-11T18:31:30Z</time>
      </trkpt>
      <trkpt lat="32.128354869782925" lon="-5.559439519420266">
        <ele>2224.6300000000001</ele>
        <time>2019-03-11T18:31:31Z</time>
      </trkpt>
      <trkpt lat="32.128240624442697" lon="-5.559476902708411">
        <ele>2224.6300000000001</ele>
        <time>2019-03-11T18:31:32Z</time>
      </trkpt>
      <trkpt lat="32.128122188150883" lon="-5.55952275171876">
        <ele>2224.6300000000001</ele>
        <time>2019-03-11T18:31:35Z</time>
      </trkpt>
      <trkpt lat="32.127782972529531" lon="-5.559637416154146">
        <ele>2225.1100000000001</ele>
        <time>2019-03-11T18:31:36Z</time>
      </trkpt>
      <trkpt lat="32.127676773816347" lon="-5.55964345112443">
        <ele>2225.1100000000001</ele>
        <time>2019-03-11T18:31:37Z</time>
      </trkpt>
      <trkpt lat="32.127567725256085" lon="-5.559625262394548">
        <ele>2225.1100000000001</ele>
        <time>2019-03-11T18:31:38Z</time>
      </trkpt>
      <trkpt lat="32.127455743029714" lon="-5.559591399505734">
        <ele>2225.5900000000001</ele>
        <time>2019-03-11T18:31:39Z</time>
      </trkpt>
      <trkpt lat="32.127339569851756" lon="-5.559549909085035">
        <ele>2225.5900000000001</ele>
        <time>2019-03-11T18:31:43Z</time>
      </trkpt>
      <trkpt lat="32.12686138227582" lon="-5.559357460588217">
        <ele>2225.5900000000001</ele>
        <time>2019-03-11T18:31:44Z</time>
      </trkpt>
      <trkpt lat="32.126749735325575" lon="-5.559283616021276">
        <ele>2225.5900000000001</ele>
        <time>2019-03-11T18:31:45Z</time>
      </trkpt>
      <trkpt lat="32.126643033698201" lon="-5.559200635179877">
        <ele>2225.5900000000001</ele>
        <time>2019-03-11T18:31:46Z</time>
      </trkpt>
      <trkpt lat="32.126547899097204" lon="-5.559107596054673">
        <ele>2225.5900000000001</ele>
        <time>2019-03-11T18:31:47Z</time>
      </trkpt>
      <trkpt lat="32.126461649313569" lon="-5.558996116742492">
        <ele>2225.5900000000001</ele>
        <time>2019-03-11T18:31:48Z</time>
      </trkpt>
      <trkpt lat="32.126381350681186" lon="-5.55887340568006">
        <ele>2226.5500000000002</ele>
        <time>2019-03-11T18:31:54Z</time>
      </trkpt>
      <trkpt lat="32.126020593568683" lon="-5.558039154857397">
        <ele>2226.5500000000002</ele>
        <time>2019-03-11T18:32:04Z</time>
      </trkpt>
      <trkpt lat="32.125595044344664" lon="-5.55653284303844">
        <ele>2227.0300000000002</ele>
        <time>2019-03-11T18:32:14Z</time>
      </trkpt>
      <trkpt lat="32.125100260600448" lon="-5.555173633620143">
        <ele>2227.5100000000002</ele>
        <time>2019-03-11T18:32:15Z</time>
      </trkpt>
      <trkpt lat="32.125080479308963" lon="-5.555056957527995">
        <ele>2227.5100000000002</ele>
        <time>2019-03-11T18:32:16Z</time>
      </trkpt>
      <trkpt lat="32.125068912282586" lon="-5.554935419932008">
        <ele>2227.5100000000002</ele>
        <time>2019-03-11T18:32:23Z</time>
      </trkpt>
      <trkpt lat="32.124928180128336" lon="-5.553982816636562">
        <ele>2227.9899999999998</ele>
        <time>2019-03-11T18:32:24Z</time>
      </trkpt>
      <trkpt lat="32.124877218157053" lon="-5.553855830803514">
        <ele>2228.4699999999998</ele>
        <time>2019-03-11T18:32:25Z</time>
      </trkpt>
      <trkpt lat="32.124816616997123" lon="-5.55374133400619">
        <ele>2228.9499999999998</ele>
        <time>2019-03-11T18:32:26Z</time>
      </trkpt>
      <trkpt lat="32.124744700267911" lon="-5.553638907149434">
        <ele>2228.4699999999998</ele>
        <time>2019-03-11T18:32:27Z</time>
      </trkpt>
      <trkpt lat="32.124659707769752" lon="-5.55355173535645">
        <ele>2228.9499999999998</ele>
        <time>2019-03-11T18:32:28Z</time>
      </trkpt>
      <trkpt lat="32.124565914273262" lon="-5.553469927981496">
        <ele>2230.4000000000001</ele>
        <time>2019-03-11T18:32:34Z</time>
      </trkpt>
      <trkpt lat="32.123959064483643" lon="-5.552914878353477">
        <ele>2230.4000000000001</ele>
        <time>2019-03-11T18:32:35Z</time>
      </trkpt>
      <trkpt lat="32.123844064772129" lon="-5.552842291072011">
        <ele>2230.4000000000001</ele>
        <time>2019-03-11T18:32:41Z</time>
      </trkpt>
      <trkpt lat="32.123157251626253" lon="-5.552524281665683">
        <ele>2230.8800000000001</ele>
        <time>2019-03-11T18:32:42Z</time>
      </trkpt>
      <trkpt lat="32.123059518635273" lon="-5.552453370764852">
        <ele>2230.8800000000001</ele>
        <time>2019-03-11T18:32:43Z</time>
      </trkpt>
      <trkpt lat="32.12297041900456" lon="-5.552363181486726">
        <ele>2231.8400000000001</ele>
        <time>2019-03-11T18:32:44Z</time>
      </trkpt>
      <trkpt lat="32.122890539467335" lon="-5.552255725488067">
        <ele>2232.3200000000002</ele>
        <time>2019-03-11T18:32:45Z</time>
      </trkpt>
      <trkpt lat="32.122818203642964" lon="-5.552139049395919">
        <ele>2232.3200000000002</ele>
        <time>2019-03-11T18:32:48Z</time>
      </trkpt>
      <trkpt lat="32.122595747932792" lon="-5.551872001960874">
        <ele>2232.3200000000002</ele>
        <time>2019-03-11T18:32:49Z</time>
      </trkpt>
      <trkpt lat="32.12250086478889" lon="-5.551824476569891">
        <ele>2232.3200000000002</ele>
        <time>2019-03-11T18:32:52Z</time>
      </trkpt>
      <trkpt lat="32.122187716886401" lon="-5.551696820184588">
        <ele>2232.3200000000002</ele>
        <time>2019-03-11T18:32:53Z</time>
      </trkpt>
      <trkpt lat="32.122081853449345" lon="-5.551627837121487">
        <ele>2232.8000000000002</ele>
        <time>2019-03-11T18:33:01Z</time>
      </trkpt>
      <trkpt lat="32.121095471084118" lon="-5.551013443619013">
        <ele>2234.7199999999998</ele>
        <time>2019-03-11T18:33:08Z</time>
      </trkpt>
      <trkpt lat="32.120239427313209" lon="-5.550565933808684">
        <ele>2234.7199999999998</ele>
        <time>2019-03-11T18:33:09Z</time>
      </trkpt>
      <trkpt lat="32.120129121467471" lon="-5.550478929653764">
        <ele>2235.1999999999998</ele>
        <time>2019-03-11T18:33:15Z</time>
      </trkpt>
      <trkpt lat="32.119468627497554" lon="-5.549988001585007">
        <ele>2235.6799999999998</ele>
        <time>2019-03-11T18:33:16Z</time>
      </trkpt>
      <trkpt lat="32.119355052709579" lon="-5.549944499507546">
        <ele>2235.6799999999998</ele>
        <time>2019-03-11T18:33:17Z</time>
      </trkpt>
      <trkpt lat="32.119239382445812" lon="-5.549915917217732">
        <ele>2236.6399999999999</ele>
        <time>2019-03-11T18:33:18Z</time>
      </trkpt>
      <trkpt lat="32.119119688868523" lon="-5.549904014915228">
        <ele>2236.6399999999999</ele>
        <time>2019-03-11T18:33:19Z</time>
      </trkpt>
      <trkpt lat="32.11899546906352" lon="-5.549902003258467">
        <ele>2236.6399999999999</ele>
        <time>2019-03-11T18:33:22Z</time>
      </trkpt>
      <trkpt lat="32.118626078590751" lon="-5.549954054877162">
        <ele>2236.6399999999999</ele>
        <time>2019-03-11T18:33:23Z</time>
      </trkpt>
      <trkpt lat="32.118516359478235" lon="-5.5499969702214">
        <ele>2236.6399999999999</ele>
        <time>2019-03-11T18:33:24Z</time>
      </trkpt>
      <trkpt lat="32.118415692821145" lon="-5.550057403743267">
        <ele>2236.6399999999999</ele>
        <time>2019-03-11T18:33:25Z</time>
      </trkpt>
      <trkpt lat="32.118320390582085" lon="-5.550135103985667">
        <ele>2236.6399999999999</ele>
        <time>2019-03-11T18:33:26Z</time>
      </trkpt>
      <trkpt lat="32.118223244324327" lon="-5.550220180302858">
        <ele>2237.1300000000001</ele>
        <time>2019-03-11T18:33:27Z</time>
      </trkpt>
      <trkpt lat="32.118119560182095" lon="-5.550296874716878">
        <ele>2237.6100000000001</ele>
        <time>2019-03-11T18:33:28Z</time>
      </trkpt>
      <trkpt lat="32.118005733937025" lon="-5.550364684313536">
        <ele>2238.5700000000002</ele>
        <time>2019-03-11T18:33:30Z</time>
      </trkpt>
      <trkpt lat="32.11778168566525" lon="-5.550494687631726">
        <ele>2240.9699999999998</ele>
        <time>2019-03-11T18:33:31Z</time>
      </trkpt>
      <trkpt lat="32.117681186646223" lon="-5.550580099225044">
        <ele>2236.6399999999999</ele>
        <time>2019-03-11T18:33:37Z</time>
      </trkpt>
      <trkpt lat="32.117148265242577" lon="-5.551144452765584">
        <ele>2235.6799999999998</ele>
        <time>2019-03-11T18:33:47Z</time>
      </trkpt>
      <trkpt lat="32.116126762703061" lon="-5.552127901464701">
        <ele>2235.6799999999998</ele>
        <time>2019-03-11T18:33:55Z</time>
      </trkpt>
      <trkpt lat="32.115114312618971" lon="-5.552673395723105">
        <ele>2236.1599999999999</ele>
        <time>2019-03-11T18:34:01Z</time>
      </trkpt>
      <trkpt lat="32.114353068172932" lon="-5.552757130935788">
        <ele>2236.6399999999999</ele>
        <time>2019-03-11T18:34:02Z</time>
      </trkpt>
      <trkpt lat="32.114246282726526" lon="-5.552738355472684">
        <ele>2236.6399999999999</ele>
        <time>2019-03-11T18:34:03Z</time>
      </trkpt>
      <trkpt lat="32.114149890840054" lon="-5.552687728777528">
        <ele>2236.6399999999999</ele>
        <time>2019-03-11T18:34:04Z</time>
      </trkpt>
      <trkpt lat="32.114068083465099" lon="-5.552602484822273">
        <ele>2235.6799999999998</ele>
        <time>2019-03-11T18:34:05Z</time>
      </trkpt>
      <trkpt lat="32.114001950249076" lon="-5.552494022995234">
        <ele>2235.6799999999998</ele>
        <time>2019-03-11T18:34:06Z</time>
      </trkpt>
      <trkpt lat="32.113942187279463" lon="-5.552371731027961">
        <ele>2236.1599999999999</ele>
        <time>2019-03-11T18:34:12Z</time>
      </trkpt>
      <trkpt lat="32.113571874797344" lon="-5.551588190719485">
        <ele>2236.6399999999999</ele>
        <time>2019-03-11T18:34:13Z</time>
      </trkpt>
      <trkpt lat="32.113494509831071" lon="-5.551493978127837">
        <ele>2236.1599999999999</ele>
        <time>2019-03-11T18:34:14Z</time>
      </trkpt>
      <trkpt lat="32.113406835123897" lon="-5.551407895982266">
        <ele>2236.1599999999999</ele>
        <time>2019-03-11T18:34:15Z</time>
      </trkpt>
      <trkpt lat="32.113308347761631" lon="-5.551340170204639">
        <ele>2236.6399999999999</ele>
        <time>2019-03-11T18:34:16Z</time>
      </trkpt>
      <trkpt lat="32.113202232867479" lon="-5.551292980089784">
        <ele>2240.4899999999998</ele>
        <time>2019-03-11T18:34:17Z</time>
      </trkpt>
      <trkpt lat="32.113089999184012" lon="-5.55126154795289">
        <ele>2246.2600000000002</ele>
        <time>2019-03-11T18:34:18Z</time>
      </trkpt>
      <trkpt lat="32.112973239272833" lon="-5.551235564053059">
        <ele>2246.2600000000002</ele>
        <time>2019-03-11T18:34:31Z</time>
      </trkpt>
      <trkpt lat="32.111313370987773" lon="-5.550849242135882">
        <ele>2246.7399999999998</ele>
        <time>2019-03-11T18:34:40Z</time>
      </trkpt>
      <trkpt lat="32.110059102997184" lon="-5.550883607938886">
        <ele>2246.7399999999998</ele>
        <time>2019-03-11T18:34:41Z</time>
      </trkpt>
      <trkpt lat="32.109935889020562" lon="-5.550864161923528">
        <ele>2246.7399999999998</ele>
        <time>2019-03-11T18:34:42Z</time>
      </trkpt>
      <trkpt lat="32.109821811318398" lon="-5.550823928788304">
        <ele>2246.2600000000002</ele>
        <time>2019-03-11T18:34:43Z</time>
      </trkpt>
      <trkpt lat="32.1097232401371" lon="-5.550765255466104">
        <ele>2245.7800000000002</ele>
        <time>2019-03-11T18:34:44Z</time>
      </trkpt>
      <trkpt lat="32.10964017547667" lon="-5.550688728690147">
        <ele>2244.3299999999999</ele>
        <time>2019-03-11T18:34:45Z</time>
      </trkpt>
      <trkpt lat="32.109575551003218" lon="-5.550592420622706">
        <ele>2243.3699999999999</ele>
        <time>2019-03-11T18:34:46Z</time>
      </trkpt>
      <trkpt lat="32.109533557668328" lon="-5.55047482252121">
        <ele>2242.4099999999999</ele>
        <time>2019-03-11T18:34:47Z</time>
      </trkpt>
      <trkpt lat="32.10951847024262" lon="-5.55032973177731">
        <ele>2241.4499999999998</ele>
        <time>2019-03-11T18:34:48Z</time>
      </trkpt>
      <trkpt lat="32.109520984813571" lon="-5.550177097320557">
        <ele>2240.9699999999998</ele>
        <time>2019-03-11T18:34:49Z</time>
      </trkpt>
      <trkpt lat="32.109540682286024" lon="-5.550021361559629">
        <ele>2240.4899999999998</ele>
        <time>2019-03-11T18:34:50Z</time>
      </trkpt>
      <trkpt lat="32.109579406678677" lon="-5.549857076257467">
        <ele>2240.0100000000002</ele>
        <time>2019-03-11T18:34:51Z</time>
      </trkpt>
      <trkpt lat="32.109630536288023" lon="-5.549690611660481">
        <ele>2239.5300000000002</ele>
        <time>2019-03-11T18:34:52Z</time>
      </trkpt>
      <trkpt lat="32.109691556543112" lon="-5.549528170377016">
        <ele>2240.4899999999998</ele>
        <time>2019-03-11T18:34:53Z</time>
      </trkpt>
      <trkpt lat="32.109760120511055" lon="-5.549370674416423">
        <ele>2241.9299999999998</ele>
        <time>2019-03-11T18:34:54Z</time>
      </trkpt>
      <trkpt lat="32.109835306182504" lon="-5.54921904578805">
        <ele>2243.3699999999999</ele>
        <time>2019-03-11T18:35:05Z</time>
      </trkpt>
      <trkpt lat="32.110760500654578" lon="-5.547559261322022">
        <ele>2243.8499999999999</ele>
        <time>2019-03-11T18:35:11Z</time>
      </trkpt>
      <trkpt lat="32.111114552244544" lon="-5.546671450138092">
        <ele>2244.3299999999999</ele>
        <time>2019-03-11T18:35:21Z</time>
      </trkpt>
      <trkpt lat="32.111313873901963" lon="-5.545036476105452">
        <ele>2244.3299999999999</ele>
        <time>2019-03-11T18:35:22Z</time>
      </trkpt>
      <trkpt lat="32.111299876123667" lon="-5.544871687889099">
        <ele>2244.8200000000002</ele>
        <time>2019-03-11T18:35:25Z</time>
      </trkpt>
      <trkpt lat="32.111223852261901" lon="-5.544407162815332">
        <ele>2245.3000000000002</ele>
        <time>2019-03-11T18:35:26Z</time>
      </trkpt>
      <trkpt lat="32.111180182546377" lon="-5.544275566935539">
        <ele>2245.7800000000002</ele>
        <time>2019-03-11T18:35:27Z</time>
      </trkpt>
      <trkpt lat="32.11111824028194" lon="-5.54415293969214">
        <ele>2246.2600000000002</ele>
        <time>2019-03-11T18:35:28Z</time>
      </trkpt>
      <trkpt lat="32.111039115116" lon="-5.544043052941561">
        <ele>2246.2600000000002</ele>
        <time>2019-03-11T18:35:29Z</time>
      </trkpt>
      <trkpt lat="32.110952949151397" lon="-5.543935764580965">
        <ele>2246.7399999999998</ele>
        <time>2019-03-11T18:35:30Z</time>
      </trkpt>
      <trkpt lat="32.110873321071267" lon="-5.543814981356263">
        <ele>2252.0300000000002</ele>
        <time>2019-03-11T18:35:31Z</time>
      </trkpt>
      <trkpt lat="32.110811965540051" lon="-5.543675757944584">
        <ele>2260.1999999999998</ele>
        <time>2019-03-11T18:35:32Z</time>
      </trkpt>
      <trkpt lat="32.110765026882291" lon="-5.543521447107196">
        <ele>2259.2399999999998</ele>
        <time>2019-03-11T18:35:42Z</time>
      </trkpt>
      <trkpt lat="32.110134791582823" lon="-5.54191212169826">
        <ele>2261.6399999999999</ele>
        <time>2019-03-11T18:35:52Z</time>
      </trkpt>
      <trkpt lat="32.109534312039614" lon="-5.540468087419868">
        <ele>2262.5999999999999</ele>
        <time>2019-03-11T18:36:04Z</time>
      </trkpt>
      <trkpt lat="32.108998792245984" lon="-5.538761615753174">
        <ele>2265.48</ele>
        <time>2019-03-11T18:36:10Z</time>
      </trkpt>
      <trkpt lat="32.108902651816607" lon="-5.538453748449683">
        <ele>2279.4200000000001</ele>
        <time>2019-03-11T18:36:19Z</time>
      </trkpt>
      <trkpt lat="32.108824281021953" lon="-5.53820732049644">
        <ele>2280.8699999999999</ele>
        <time>2019-03-11T18:36:26Z</time>
      </trkpt>
      <trkpt lat="32.108493866398931" lon="-5.537532325834036">
        <ele>2281.8299999999999</ele>
        <time>2019-03-11T18:36:40Z</time>
      </trkpt>
      <trkpt lat="32.107518967241049" lon="-5.535791404545307">
        <ele>2283.27</ele>
        <time>2019-03-11T18:36:41Z</time>
      </trkpt>
      <trkpt lat="32.107478650286794" lon="-5.535650504752994">
        <ele>2284.23</ele>
        <time>2019-03-11T18:36:42Z</time>
      </trkpt>
      <trkpt lat="32.107448894530535" lon="-5.53550424054265">
        <ele>2285.1900000000001</ele>
        <time>2019-03-11T18:36:43Z</time>
      </trkpt>
      <trkpt lat="32.107432885095477" lon="-5.535356132313609">
        <ele>2286.1500000000001</ele>
        <time>2019-03-11T18:36:44Z</time>
      </trkpt>
      <trkpt lat="32.107438500970602" lon="-5.535201653838158">
        <ele>2286.6300000000001</ele>
        <time>2019-03-11T18:36:45Z</time>
      </trkpt>
      <trkpt lat="32.107464484870434" lon="-5.535046253353357">
        <ele>2287.5900000000001</ele>
        <time>2019-03-11T18:36:46Z</time>
      </trkpt>
      <trkpt lat="32.107512848451734" lon="-5.53488758392632">
        <ele>2293.3600000000001</ele>
        <time>2019-03-11T18:36:47Z</time>
      </trkpt>
      <trkpt lat="32.107579233124852" lon="-5.534722963348031">
        <ele>2294.3200000000002</ele>
        <time>2019-03-11T18:36:48Z</time>
      </trkpt>
      <trkpt lat="32.107652742415667" lon="-5.534556917846203">
        <ele>2295.2800000000002</ele>
        <time>2019-03-11T18:36:53Z</time>
      </trkpt>
      <trkpt lat="32.107996148988605" lon="-5.533783687278628">
        <ele>2295.77</ele>
        <time>2019-03-11T18:36:54Z</time>
      </trkpt>
      <trkpt lat="32.108026407659054" lon="-5.533648235723376">
        <ele>2295.2800000000002</ele>
        <time>2019-03-11T18:36:55Z</time>
      </trkpt>
      <trkpt lat="32.108028251677752" lon="-5.533509347587824">
        <ele>2295.2800000000002</ele>
        <time>2019-03-11T18:36:56Z</time>
      </trkpt>
      <trkpt lat="32.108001094311476" lon="-5.533371213823557">
        <ele>2290.48</ele>
        <time>2019-03-11T18:36:57Z</time>
      </trkpt>
      <trkpt lat="32.107948623597622" lon="-5.533235007897019">
        <ele>2289.52</ele>
        <time>2019-03-11T18:36:58Z</time>
      </trkpt>
      <trkpt lat="32.107886765152216" lon="-5.533091006800532">
        <ele>2289.04</ele>
        <time>2019-03-11T18:37:07Z</time>
      </trkpt>
      <trkpt lat="32.107186624780297" lon="-5.531649570912123">
        <ele>2288.0799999999999</ele>
        <time>2019-03-11T18:37:08Z</time>
      </trkpt>
      <trkpt lat="32.10707682184875" lon="-5.531514370813966">
        <ele>2287.1100000000001</ele>
        <time>2019-03-11T18:37:09Z</time>
      </trkpt>
      <trkpt lat="32.10695419460535" lon="-5.531387384980917">
        <ele>2286.1500000000001</ele>
        <time>2019-03-11T18:37:10Z</time>
      </trkpt>
      <trkpt lat="32.106821089982986" lon="-5.531276073306799">
        <ele>2285.1900000000001</ele>
        <time>2019-03-11T18:37:11Z</time>
      </trkpt>
      <trkpt lat="32.106682034209371" lon="-5.531182195991278">
        <ele>2284.23</ele>
        <time>2019-03-11T18:37:12Z</time>
      </trkpt>
      <trkpt lat="32.106536272913218" lon="-5.531112542375922">
        <ele>2279.4200000000001</ele>
        <time>2019-03-11T18:37:13Z</time>
      </trkpt>
      <trkpt lat="32.106383386999369" lon="-5.531069710850716">
        <ele>2278.9400000000001</ele>
        <time>2019-03-11T18:37:14Z</time>
      </trkpt>
      <trkpt lat="32.106227902695537" lon="-5.531044900417328">
        <ele>2277.98</ele>
        <time>2019-03-11T18:37:19Z</time>
      </trkpt>
      <trkpt lat="32.105518458411098" lon="-5.530888913199306">
        <ele>2277.98</ele>
        <time>2019-03-11T18:37:20Z</time>
      </trkpt>
      <trkpt lat="32.105395412072539" lon="-5.530825294554234">
        <ele>2277.5</ele>
        <time>2019-03-11T18:37:21Z</time>
      </trkpt>
      <trkpt lat="32.10528451949358" lon="-5.530747761949897">
        <ele>2277.02</ele>
        <time>2019-03-11T18:37:22Z</time>
      </trkpt>
      <trkpt lat="32.105189217254519" lon="-5.530650531873107">
        <ele>2276.0599999999999</ele>
        <time>2019-03-11T18:37:23Z</time>
      </trkpt>
      <trkpt lat="32.105111097916961" lon="-5.530532849952579">
        <ele>2275.5799999999999</ele>
        <time>2019-03-11T18:37:24Z</time>
      </trkpt>
      <trkpt lat="32.105050580576062" lon="-5.530399577692151">
        <ele>2270.77</ele>
        <time>2019-03-11T18:37:25Z</time>
      </trkpt>
      <trkpt lat="32.104999199509621" lon="-5.530258677899838">
        <ele>2270.29</ele>
        <time>2019-03-11T18:37:26Z</time>
      </trkpt>
      <trkpt lat="32.104953685775399" lon="-5.530106797814369">
        <ele>2267.8899999999999</ele>
        <time>2019-03-11T18:37:34Z</time>
      </trkpt>
      <trkpt lat="32.104643471539021" lon="-5.528807938098908">
        <ele>2267.8899999999999</ele>
        <time>2019-03-11T18:37:35Z</time>
      </trkpt>
      <trkpt lat="32.104650512337685" lon="-5.528645161539316">
        <ele>2267.8899999999999</ele>
        <time>2019-03-11T18:37:45Z</time>
      </trkpt>
      <trkpt lat="32.104884283617139" lon="-5.52699769847095">
        <ele>2267.4099999999999</ele>
        <time>2019-03-11T18:37:47Z</time>
      </trkpt>
      <trkpt lat="32.104882271960378" lon="-5.526747917756438">
        <ele>2266.9299999999998</ele>
        <time>2019-03-11T18:37:48Z</time>
      </trkpt>
      <trkpt lat="32.104862574487925" lon="-5.526632498949766">
        <ele>2266.9299999999998</ele>
        <time>2019-03-11T18:37:49Z</time>
      </trkpt>
      <trkpt lat="32.104826783761382" lon="-5.526527389883995">
        <ele>2266.9299999999998</ele>
        <time>2019-03-11T18:37:50Z</time>
      </trkpt>
      <trkpt lat="32.104777917265892" lon="-5.526433177292347">
        <ele>2266.4499999999998</ele>
        <time>2019-03-11T18:37:51Z</time>
      </trkpt>
      <trkpt lat="32.104718238115311" lon="-5.526349609717727">
        <ele>2266.4499999999998</ele>
        <time>2019-03-11T18:37:52Z</time>
      </trkpt>
      <trkpt lat="32.104649590328336" lon="-5.526273418217897">
        <ele>2265.96</ele>
        <time>2019-03-11T18:37:53Z</time>
      </trkpt>
      <trkpt lat="32.104572476819158" lon="-5.526201417669654">
        <ele>2265</ele>
        <time>2019-03-11T18:37:54Z</time>
      </trkpt>
      <trkpt lat="32.104485807940364" lon="-5.526134613901377">
        <ele>2268.3699999999999</ele>
        <time>2019-03-11T18:38:04Z</time>
      </trkpt>
      <trkpt lat="32.103572683408856" lon="-5.525379655882716">
        <ele>2268.8499999999999</ele>
        <time>2019-03-11T18:38:15Z</time>
      </trkpt>
      <trkpt lat="32.102721249684691" lon="-5.524484887719154">
        <ele>2268.8499999999999</ele>
        <time>2019-03-11T18:38:23Z</time>
      </trkpt>
      <trkpt lat="32.10227943956852" lon="-5.52372389473021">
        <ele>2268.8499999999999</ele>
        <time>2019-03-11T18:38:24Z</time>
      </trkpt>
      <trkpt lat="32.102262089028955" lon="-5.5236432608217">
        <ele>2268.8499999999999</ele>
        <time>2019-03-11T18:38:25Z</time>
      </trkpt>
      <trkpt lat="32.102252701297402" lon="-5.523567404597998">
        <ele>2269.3299999999999</ele>
        <time>2019-03-11T18:38:26Z</time>
      </trkpt>
      <trkpt lat="32.102245157584548" lon="-5.523494649678469">
        <ele>2269.3299999999999</ele>
        <time>2019-03-11T18:38:27Z</time>
      </trkpt>
      <trkpt lat="32.102242140099406" lon="-5.523420218378305">
        <ele>2270.29</ele>
        <time>2019-03-11T18:38:28Z</time>
      </trkpt>
      <trkpt lat="32.102245911955833" lon="-5.523340171203017">
        <ele>2273.6599999999999</ele>
        <time>2019-03-11T18:38:29Z</time>
      </trkpt>
      <trkpt lat="32.102252952754498" lon="-5.523254340514541">
        <ele>2275.0999999999999</ele>
        <time>2019-03-11T18:38:37Z</time>
      </trkpt>
      <trkpt lat="32.102274829521775" lon="-5.522241722792387">
        <ele>2277.98</ele>
        <time>2019-03-11T18:38:47Z</time>
      </trkpt>
      <trkpt lat="32.102283043786883" lon="-5.520500969141722">
        <ele>2286.1500000000001</ele>
        <time>2019-03-11T18:38:57Z</time>
      </trkpt>
      <trkpt lat="32.102152621373534" lon="-5.518636414781213">
        <ele>2287.1100000000001</ele>
        <time>2019-03-11T18:39:10Z</time>
      </trkpt>
      <trkpt lat="32.101977355778217" lon="-5.516083706170321">
        <ele>2287.1100000000001</ele>
        <time>2019-03-11T18:39:22Z</time>
      </trkpt>
      <trkpt lat="32.101796558126807" lon="-5.513705760240555">
        <ele>2282.79</ele>
        <time>2019-03-11T18:39:23Z</time>
      </trkpt>
      <trkpt lat="32.101755402982235" lon="-5.513524375855923">
        <ele>2281.8299999999999</ele>
        <time>2019-03-11T18:39:30Z</time>
      </trkpt>
      <trkpt lat="32.101271683350205" lon="-5.512397596612573">
        <ele>2280.8699999999999</ele>
        <time>2019-03-11T18:39:39Z</time>
      </trkpt>
      <trkpt lat="32.100397618487477" lon="-5.511209880933166">
        <ele>2281.3499999999999</ele>
        <time>2019-03-11T18:39:46Z</time>
      </trkpt>
      <trkpt lat="32.09976545535028" lon="-5.510347969830036">
        <ele>2281.3499999999999</ele>
        <time>2019-03-11T18:39:54Z</time>
      </trkpt>
      <trkpt lat="32.099194647744298" lon="-5.50965185277164">
        <ele>2280.8699999999999</ele>
        <time>2019-03-11T18:39:55Z</time>
      </trkpt>
      <trkpt lat="32.099110409617424" lon="-5.509579936042428">
        <ele>2280.8699999999999</ele>
        <time>2019-03-11T18:39:56Z</time>
      </trkpt>
      <trkpt lat="32.099014604464173" lon="-5.509517155587673">
        <ele>2280.8699999999999</ele>
        <time>2019-03-11T18:39:57Z</time>
      </trkpt>
      <trkpt lat="32.098908238112926" lon="-5.509464517235756">
        <ele>2279.4200000000001</ele>
        <time>2019-03-11T18:39:58Z</time>
      </trkpt>
      <trkpt lat="32.098798602819443" lon="-5.50940752029419">
        <ele>2279.9000000000001</ele>
        <time>2019-03-11T18:40:07Z</time>
      </trkpt>
      <trkpt lat="32.097699148580432" lon="-5.508668404072523">
        <ele>2279.9000000000001</ele>
        <time>2019-03-11T18:40:14Z</time>
      </trkpt>
      <trkpt lat="32.096865568310022" lon="-5.508071025833488">
        <ele>2279.4200000000001</ele>
        <time>2019-03-11T18:40:15Z</time>
      </trkpt>
      <trkpt lat="32.096770349889994" lon="-5.507961306720972">
        <ele>2279.4200000000001</ele>
        <time>2019-03-11T18:40:16Z</time>
      </trkpt>
      <trkpt lat="32.096684854477644" lon="-5.507836919277906">
        <ele>2278.9400000000001</ele>
        <time>2019-03-11T18:40:17Z</time>
      </trkpt>
      <trkpt lat="32.096608746796846" lon="-5.50769979134202">
        <ele>2277.02</ele>
        <time>2019-03-11T18:40:18Z</time>
      </trkpt>
      <trkpt lat="32.096541859209538" lon="-5.507548833265901">
        <ele>2277.5</ele>
        <time>2019-03-11T18:40:19Z</time>
      </trkpt>
      <trkpt lat="32.096483185887337" lon="-5.507387146353722">
        <ele>2276.54</ele>
        <time>2019-03-11T18:40:25Z</time>
      </trkpt>
      <trkpt lat="32.096095439046621" lon="-5.506390621885657">
        <ele>2276.0599999999999</ele>
        <time>2019-03-11T18:40:26Z</time>
      </trkpt>
      <trkpt lat="32.095997035503387" lon="-5.506238238885999">
        <ele>2275.0999999999999</ele>
        <time>2019-03-11T18:40:32Z</time>
      </trkpt>
      <trkpt lat="32.095396220684052" lon="-5.505475150421262">
        <ele>2274.6199999999999</ele>
        <time>2019-03-11T18:40:33Z</time>
      </trkpt>
      <trkpt lat="32.095275605097413" lon="-5.505376746878028">
        <ele>2274.6199999999999</ele>
        <time>2019-03-11T18:40:34Z</time>
      </trkpt>
      <trkpt lat="32.095145434141159" lon="-5.505303824320436">
        <ele>2274.6199999999999</ele>
        <time>2019-03-11T18:40:35Z</time>
      </trkpt>
      <trkpt lat="32.095013754442334" lon="-5.505254957824945">
        <ele>2275.0999999999999</ele>
        <time>2019-03-11T18:40:36Z</time>
      </trkpt>
      <trkpt lat="32.094886349514127" lon="-5.505214054137468">
        <ele>2275.5799999999999</ele>
        <time>2019-03-11T18:40:37Z</time>
      </trkpt>
      <trkpt lat="32.094769505783916" lon="-5.505156135186553">
        <ele>2275.5799999999999</ele>
        <time>2019-03-11T18:40:38Z</time>
      </trkpt>
      <trkpt lat="32.094662971794605" lon="-5.505068795755506">
        <ele>2275.5799999999999</ele>
        <time>2019-03-11T18:40:39Z</time>
      </trkpt>
      <trkpt lat="32.094564232975245" lon="-5.504961842671037">
        <ele>2275.5799999999999</ele>
        <time>2019-03-11T18:40:40Z</time>
      </trkpt>
      <trkpt lat="32.094466164708138" lon="-5.504847094416618">
        <ele>2275.0999999999999</ele>
        <time>2019-03-11T18:40:41Z</time>
      </trkpt>
      <trkpt lat="32.094363234937191" lon="-5.504736118018627">
        <ele>2275.0999999999999</ele>
        <time>2019-03-11T18:40:42Z</time>
      </trkpt>
      <trkpt lat="32.094248989596963" lon="-5.504647102206945">
        <ele>2274.6199999999999</ele>
        <time>2019-03-11T18:40:43Z</time>
      </trkpt>
      <trkpt lat="32.094118483364582" lon="-5.504587674513459">
        <ele>2274.6199999999999</ele>
        <time>2019-03-11T18:40:44Z</time>
      </trkpt>
      <trkpt lat="32.09397716447711" lon="-5.504561942070723">
        <ele>2275.0999999999999</ele>
        <time>2019-03-11T18:40:45Z</time>
      </trkpt>
      <trkpt lat="32.093830900266767" lon="-5.504559008404613">
        <ele>2275.0999999999999</ele>
        <time>2019-03-11T18:40:46Z</time>
      </trkpt>
      <trkpt lat="32.093685893341899" lon="-5.50456814467907">
        <ele>2275.5799999999999</ele>
        <time>2019-03-11T18:40:47Z</time>
      </trkpt>
      <trkpt lat="32.093546334654093" lon="-5.504589350894094">
        <ele>2276.0599999999999</ele>
        <time>2019-03-11T18:40:48Z</time>
      </trkpt>
      <trkpt lat="32.093414654955268" lon="-5.504625057801604">
        <ele>2276.0599999999999</ele>
        <time>2019-03-11T18:40:49Z</time>
      </trkpt>
      <trkpt lat="32.093298230320215" lon="-5.504667302593589">
        <ele>2276.0599999999999</ele>
        <time>2019-03-11T18:40:51Z</time>
      </trkpt>
      <trkpt lat="32.093116762116551" lon="-5.504721784964204">
        <ele>2276.0599999999999</ele>
        <time>2019-03-11T18:40:52Z</time>
      </trkpt>
      <trkpt lat="32.093040989711881" lon="-5.504726311191917">
        <ele>2276.0599999999999</ele>
        <time>2019-03-11T18:40:53Z</time>
      </trkpt>
      <trkpt lat="32.092964965850115" lon="-5.504710301756859">
        <ele>2276.0599999999999</ele>
        <time>2019-03-11T18:40:54Z</time>
      </trkpt>
      <trkpt lat="32.092889696359634" lon="-5.50467467866838">
        <ele>2276.0599999999999</ele>
        <time>2019-03-11T18:40:55Z</time>
      </trkpt>
      <trkpt lat="32.092817695811391" lon="-5.504628662019968">
        <ele>2276.0599999999999</ele>
        <time>2019-03-11T18:40:56Z</time>
      </trkpt>
      <trkpt lat="32.09275072440505" lon="-5.50457795150578">
        <ele>2276.54</ele>
        <time>2019-03-11T18:40:57Z</time>
      </trkpt>
      <trkpt lat="32.092690793797374" lon="-5.504512321203947">
        <ele>2276.54</ele>
        <time>2019-03-11T18:40:58Z</time>
      </trkpt>
      <trkpt lat="32.092635305598378" lon="-5.504432441666722">
        <ele>2277.02</ele>
        <time>2019-03-11T18:40:59Z</time>
      </trkpt>
      <trkpt lat="32.092581577599049" lon="-5.504345521330833">
        <ele>2275.0999999999999</ele>
        <time>2019-03-11T18:41:00Z</time>
      </trkpt>
      <trkpt lat="32.092532878741622" lon="-5.504257427528501">
        <ele>2275.0999999999999</ele>
        <time>2019-03-11T18:41:01Z</time>
      </trkpt>
      <trkpt lat="32.092487448826432" lon="-5.504165226593614">
        <ele>2275.0999999999999</ele>
        <time>2019-03-11T18:41:07Z</time>
      </trkpt>
      <trkpt lat="32.092189388349652" lon="-5.503705311566591">
        <ele>2275.0999999999999</ele>
        <time>2019-03-11T18:41:08Z</time>
      </trkpt>
      <trkpt lat="32.092120740562677" lon="-5.503631802275777">
        <ele>2275.0999999999999</ele>
        <time>2019-03-11T18:41:09Z</time>
      </trkpt>
      <trkpt lat="32.092043124139309" lon="-5.503582265228033">
        <ele>2275.0999999999999</ele>
        <time>2019-03-11T18:41:10Z</time>
      </trkpt>
      <trkpt lat="32.091961400583386" lon="-5.503541193902493">
        <ele>2275.0999999999999</ele>
        <time>2019-03-11T18:41:11Z</time>
      </trkpt>
      <trkpt lat="32.091880179941654" lon="-5.503504564985633">
        <ele>2274.6199999999999</ele>
        <time>2019-03-11T18:41:12Z</time>
      </trkpt>
      <trkpt lat="32.091805497184396" lon="-5.503456285223365">
        <ele>2274.6199999999999</ele>
        <time>2019-03-11T18:41:13Z</time>
      </trkpt>
      <trkpt lat="32.091745147481561" lon="-5.503386883065105">
        <ele>2274.1399999999999</ele>
        <time>2019-03-11T18:41:14Z</time>
      </trkpt>
      <trkpt lat="32.091702483594418" lon="-5.503298537805677">
        <ele>2274.1399999999999</ele>
        <time>2019-03-11T18:41:15Z</time>
      </trkpt>
      <trkpt lat="32.091673733666539" lon="-5.503196027129889">
        <ele>2274.1399999999999</ele>
        <time>2019-03-11T18:41:16Z</time>
      </trkpt>
      <trkpt lat="32.091654958203435" lon="-5.503082703799009">
        <ele>2274.6199999999999</ele>
        <time>2019-03-11T18:41:18Z</time>
      </trkpt>
      <trkpt lat="32.091601230204105" lon="-5.502853039652109">
        <ele>2275.0999999999999</ele>
        <time>2019-03-11T18:41:19Z</time>
      </trkpt>
      <trkpt lat="32.091558482497931" lon="-5.502751367166638">
        <ele>2275.5799999999999</ele>
        <time>2019-03-11T18:41:20Z</time>
      </trkpt>
      <trkpt lat="32.091502239927649" lon="-5.50266444683075">
        <ele>2275.5799999999999</ele>
        <time>2019-03-11T18:41:21Z</time>
      </trkpt>
      <trkpt lat="32.09143090993166" lon="-5.502586746588349">
        <ele>2275.5799999999999</ele>
        <time>2019-03-11T18:41:22Z</time>
      </trkpt>
      <trkpt lat="32.091349940747023" lon="-5.502516506239772">
        <ele>2275.0999999999999</ele>
        <time>2019-03-11T18:41:23Z</time>
      </trkpt>
      <trkpt lat="32.091267881914973" lon="-5.502460515126586">
        <ele>2275.0999999999999</ele>
        <time>2019-03-11T18:41:24Z</time>
      </trkpt>
      <trkpt lat="32.091180961579084" lon="-5.502428412437439">
        <ele>2275.0999999999999</ele>
        <time>2019-03-11T18:41:25Z</time>
      </trkpt>
      <trkpt lat="32.091093454509974" lon="-5.502404859289527">
        <ele>2275.0999999999999</ele>
        <time>2019-03-11T18:41:26Z</time>
      </trkpt>
      <trkpt lat="32.09101558662951" lon="-5.50236202776432">
        <ele>2274.6199999999999</ele>
        <time>2019-03-11T18:41:27Z</time>
      </trkpt>
      <trkpt lat="32.09095305763185" lon="-5.502289021387696">
        <ele>2274.6199999999999</ele>
        <time>2019-03-11T18:41:28Z</time>
      </trkpt>
      <trkpt lat="32.0909090526402" lon="-5.502188606187701">
        <ele>2274.6199999999999</ele>
        <time>2019-03-11T18:41:29Z</time>
      </trkpt>
      <trkpt lat="32.090880386531353" lon="-5.502068493515253">
        <ele>2275.0999999999999</ele>
        <time>2019-03-11T18:41:30Z</time>
      </trkpt>
      <trkpt lat="32.090862281620502" lon="-5.501933628693223">
        <ele>2275.0999999999999</ele>
        <time>2019-03-11T18:41:32Z</time>
      </trkpt>
      <trkpt lat="32.090805200859904" lon="-5.501658702269197">
        <ele>2274.6199999999999</ele>
        <time>2019-03-11T18:41:33Z</time>
      </trkpt>
      <trkpt lat="32.090744264423847" lon="-5.501533476635814">
        <ele>2274.6199999999999</ele>
        <time>2019-03-11T18:41:34Z</time>
      </trkpt>
      <trkpt lat="32.090664887800813" lon="-5.501417638733983">
        <ele>2274.6199999999999</ele>
        <time>2019-03-11T18:41:35Z</time>
      </trkpt>
      <trkpt lat="32.090571345761418" lon="-5.501316552981734">
        <ele>2274.6199999999999</ele>
        <time>2019-03-11T18:41:36Z</time>
      </trkpt>
      <trkpt lat="32.090461794286966" lon="-5.50122837536037">
        <ele>2274.1399999999999</ele>
        <time>2019-03-11T18:41:37Z</time>
      </trkpt>
      <trkpt lat="32.090343441814184" lon="-5.501154027879238">
        <ele>2274.1399999999999</ele>
        <time>2019-03-11T18:41:38Z</time>
      </trkpt>
      <trkpt lat="32.090224334970117" lon="-5.501080770045519">
        <ele>2274.1399999999999</ele>
        <time>2019-03-11T18:41:41Z</time>
      </trkpt>
      <trkpt lat="32.089872043579817" lon="-5.500845825299621">
        <ele>2274.1399999999999</ele>
        <time>2019-03-11T18:41:42Z</time>
      </trkpt>
      <trkpt lat="32.089747991412878" lon="-5.50079251639545">
        <ele>2274.1399999999999</ele>
        <time>2019-03-11T18:41:43Z</time>
      </trkpt>
      <trkpt lat="32.089629555121064" lon="-5.500759072601795">
        <ele>2274.1399999999999</ele>
        <time>2019-03-11T18:41:44Z</time>
      </trkpt>
      <trkpt lat="32.089524865150452" lon="-5.500731244683266">
        <ele>2274.1399999999999</ele>
        <time>2019-03-11T18:41:45Z</time>
      </trkpt>
      <trkpt lat="32.089430652558804" lon="-5.500688580796123">
        <ele>2275.0999999999999</ele>
        <time>2019-03-11T18:41:46Z</time>
      </trkpt>
      <trkpt lat="32.089341888204217" lon="-5.500626806169748">
        <ele>2275.5799999999999</ele>
        <time>2019-03-11T18:41:47Z</time>
      </trkpt>
      <trkpt lat="32.089257398620248" lon="-5.500556649640203">
        <ele>2275.0999999999999</ele>
        <time>2019-03-11T18:41:55Z</time>
      </trkpt>
      <trkpt lat="32.088323989883065" lon="-5.499894563108683">
        <ele>2275.0999999999999</ele>
        <time>2019-03-11T18:41:56Z</time>
      </trkpt>
      <trkpt lat="32.088217539712787" lon="-5.499804206192493">
        <ele>2274.6199999999999</ele>
        <time>2019-03-11T18:41:57Z</time>
      </trkpt>
      <trkpt lat="32.088137995451689" lon="-5.499700522050262">
        <ele>2275.0999999999999</ele>
        <time>2019-03-11T18:41:58Z</time>
      </trkpt>
      <trkpt lat="32.088087955489755" lon="-5.499574793502688">
        <ele>2275.0999999999999</ele>
        <time>2019-03-11T18:42:00Z</time>
      </trkpt>
      <trkpt lat="32.088017547503114" lon="-5.499314200133085">
        <ele>2275.0999999999999</ele>
        <time>2019-03-11T18:42:01Z</time>
      </trkpt>
      <trkpt lat="32.087944457307458" lon="-5.499212527647615">
        <ele>2275.5799999999999</ele>
        <time>2019-03-11T18:42:02Z</time>
      </trkpt>
      <trkpt lat="32.087847227230668" lon="-5.499139940366149">
        <ele>2275.5799999999999</ele>
        <time>2019-03-11T18:42:03Z</time>
      </trkpt>
      <trkpt lat="32.087733820080757" lon="-5.499090906232595">
        <ele>2275.5799999999999</ele>
        <time>2019-03-11T18:42:04Z</time>
      </trkpt>
      <trkpt lat="32.087618485093117" lon="-5.49903491511941">
        <ele>2276.0599999999999</ele>
        <time>2019-03-11T18:42:05Z</time>
      </trkpt>
      <trkpt lat="32.087503904476762" lon="-5.498965596780181">
        <ele>2277.5</ele>
        <time>2019-03-11T18:42:06Z</time>
      </trkpt>
      <trkpt lat="32.087390664964914" lon="-5.49888102337718">
        <ele>2277.5</ele>
        <time>2019-03-11T18:42:07Z</time>
      </trkpt>
      <trkpt lat="32.087276838719845" lon="-5.498790582641959">
        <ele>2278.46</ele>
        <time>2019-03-11T18:42:18Z</time>
      </trkpt>
      <trkpt lat="32.085979571565986" lon="-5.497489795088768">
        <ele>2278.46</ele>
        <time>2019-03-11T18:42:31Z</time>
      </trkpt>
      <trkpt lat="32.084569316357374" lon="-5.495711574330926">
        <ele>2278.46</ele>
        <time>2019-03-11T18:42:38Z</time>
      </trkpt>
      <trkpt lat="32.08382592536509" lon="-5.494841784238815">
        <ele>2278.46</ele>
        <time>2019-03-11T18:42:39Z</time>
      </trkpt>
      <trkpt lat="32.083748141303658" lon="-5.494699124246836">
        <ele>2277.98</ele>
        <time>2019-03-11T18:42:40Z</time>
      </trkpt>
      <trkpt lat="32.083683181554079" lon="-5.494545483961701">
        <ele>2279.9000000000001</ele>
        <time>2019-03-11T18:42:41Z</time>
      </trkpt>
      <trkpt lat="32.083631213754416" lon="-5.494385305792093">
        <ele>2283.27</ele>
        <time>2019-03-11T18:42:42Z</time>
      </trkpt>
      <trkpt lat="32.083587376400828" lon="-5.494217667728663">
        <ele>2284.71</ele>
        <time>2019-03-11T18:42:52Z</time>
      </trkpt>
      <trkpt lat="32.083044145256281" lon="-5.492613958194852">
        <ele>2284.71</ele>
        <time>2019-03-11T18:43:00Z</time>
      </trkpt>
      <trkpt lat="32.082731164991856" lon="-5.491249803453684">
        <ele>2285.1900000000001</ele>
        <time>2019-03-11T18:43:03Z</time>
      </trkpt>
      <trkpt lat="32.082724710926414" lon="-5.490776896476746">
        <ele>2286.1500000000001</ele>
        <time>2019-03-11T18:43:04Z</time>
      </trkpt>
      <trkpt lat="32.082743905484676" lon="-5.490633733570576">
        <ele>2286.1500000000001</ele>
        <time>2019-03-11T18:43:05Z</time>
      </trkpt>
      <trkpt lat="32.082777516916394" lon="-5.490491660311818">
        <ele>2286.1500000000001</ele>
        <time>2019-03-11T18:43:09Z</time>
      </trkpt>
      <trkpt lat="32.082904502749443" lon="-5.489901741966605">
        <ele>2286.1500000000001</ele>
        <time>2019-03-11T18:43:10Z</time>
      </trkpt>
      <trkpt lat="32.082911795005202" lon="-5.489745754748583">
        <ele>2286.1500000000001</ele>
        <time>2019-03-11T18:43:11Z</time>
      </trkpt>
      <trkpt lat="32.082903832197189" lon="-5.489586163312197">
        <ele>2286.6300000000001</ele>
        <time>2019-03-11T18:43:21Z</time>
      </trkpt>
      <trkpt lat="32.082630163058639" lon="-5.48804028891027">
        <ele>2286.6300000000001</ele>
        <time>2019-03-11T18:43:22Z</time>
      </trkpt>
      <trkpt lat="32.082581715658307" lon="-5.487915398553014">
        <ele>2286.1500000000001</ele>
        <time>2019-03-11T18:43:23Z</time>
      </trkpt>
      <trkpt lat="32.082514744251966" lon="-5.487808780744672">
        <ele>2286.6300000000001</ele>
        <time>2019-03-11T18:43:24Z</time>
      </trkpt>
      <trkpt lat="32.082426566630602" lon="-5.487717250362039">
        <ele>2287.1100000000001</ele>
        <time>2019-03-11T18:43:25Z</time>
      </trkpt>
      <trkpt lat="32.082327492535114" lon="-5.48763720318675">
        <ele>2291.4400000000001</ele>
        <time>2019-03-11T18:43:26Z</time>
      </trkpt>
      <trkpt lat="32.082227915525436" lon="-5.487553970888257">
        <ele>2291.4400000000001</ele>
        <time>2019-03-11T18:43:27Z</time>
      </trkpt>
      <trkpt lat="32.082130769267678" lon="-5.487466380000114">
        <ele>2291.9200000000001</ele>
        <time>2019-03-11T18:43:33Z</time>
      </trkpt>
      <trkpt lat="32.081685941666365" lon="-5.487004788592458">
        <ele>2291.9200000000001</ele>
        <time>2019-03-11T18:43:34Z</time>
      </trkpt>
      <trkpt lat="32.081645540893078" lon="-5.486940164119005">
        <ele>2291.9200000000001</ele>
        <time>2019-03-11T18:43:35Z</time>
      </trkpt>
      <trkpt lat="32.081610420718789" lon="-5.486867828294635">
        <ele>2291.9200000000001</ele>
        <time>2019-03-11T18:43:36Z</time>
      </trkpt>
      <trkpt lat="32.081587621942163" lon="-5.486783422529697">
        <ele>2290.96</ele>
        <time>2019-03-11T18:43:37Z</time>
      </trkpt>
      <trkpt lat="32.081578066572547" lon="-5.486687114462256">
        <ele>2290</ele>
        <time>2019-03-11T18:43:38Z</time>
      </trkpt>
      <trkpt lat="32.081578653305769" lon="-5.486580831930041">
        <ele>2289.52</ele>
        <time>2019-03-11T18:43:46Z</time>
      </trkpt>
      <trkpt lat="32.081721229478717" lon="-5.485684303566814">
        <ele>2288.5599999999999</ele>
        <time>2019-03-11T18:43:47Z</time>
      </trkpt>
      <trkpt lat="32.081729611381888" lon="-5.485574081540108">
        <ele>2287.5900000000001</ele>
        <time>2019-03-11T18:43:48Z</time>
      </trkpt>
      <trkpt lat="32.081718211993575" lon="-5.485457656905055">
        <ele>2287.1100000000001</ele>
        <time>2019-03-11T18:43:49Z</time>
      </trkpt>
      <trkpt lat="32.081683427095413" lon="-5.485341819003224">
        <ele>2286.6300000000001</ele>
        <time>2019-03-11T18:43:50Z</time>
      </trkpt>
      <trkpt lat="32.081625843420625" lon="-5.485230758786202">
        <ele>2286.6300000000001</ele>
        <time>2019-03-11T18:43:51Z</time>
      </trkpt>
      <trkpt lat="32.081558704376221" lon="-5.485123973339796">
        <ele>2286.1500000000001</ele>
        <time>2019-03-11T18:43:52Z</time>
      </trkpt>
      <trkpt lat="32.081485111266375" lon="-5.485020624473691">
        <ele>2286.1500000000001</ele>
        <time>2019-03-11T18:43:53Z</time>
      </trkpt>
      <trkpt lat="32.081402549520135" lon="-5.484925070777535">
        <ele>2285.1900000000001</ele>
        <time>2019-03-11T18:43:54Z</time>
      </trkpt>
      <trkpt lat="32.081317389383912" lon="-5.484843431040645">
        <ele>2285.1900000000001</ele>
        <time>2019-03-11T18:43:55Z</time>
      </trkpt>
      <trkpt lat="32.081237258389592" lon="-5.484778890386224">
        <ele>2285.1900000000001</ele>
        <time>2019-03-11T18:43:58Z</time>
      </trkpt>
      <trkpt lat="32.081021089106798" lon="-5.484620472416282">
        <ele>2285.6700000000001</ele>
        <time>2019-03-11T18:43:59Z</time>
      </trkpt>
      <trkpt lat="32.080938192084432" lon="-5.48458518460393">
        <ele>2285.6700000000001</ele>
        <time>2019-03-11T18:44:00Z</time>
      </trkpt>
      <trkpt lat="32.080847667530179" lon="-5.484569007530808">
        <ele>2286.1500000000001</ele>
        <time>2019-03-11T18:44:03Z</time>
      </trkpt>
      <trkpt lat="32.080567041411996" lon="-5.484574791043997">
        <ele>2286.6300000000001</ele>
        <time>2019-03-11T18:44:04Z</time>
      </trkpt>
      <trkpt lat="32.080472074449062" lon="-5.484601361677051">
        <ele>2286.6300000000001</ele>
        <time>2019-03-11T18:44:05Z</time>
      </trkpt>
      <trkpt lat="32.08037274889648" lon="-5.48464385792613">
        <ele>2288.0799999999999</ele>
        <time>2019-03-11T18:44:06Z</time>
      </trkpt>
      <trkpt lat="32.080271663144231" lon="-5.484696915373206">
        <ele>2288.5599999999999</ele>
        <time>2019-03-11T18:44:07Z</time>
      </trkpt>
      <trkpt lat="32.08017292432487" lon="-5.484756426885724">
        <ele>2289.04</ele>
        <time>2019-03-11T18:44:10Z</time>
      </trkpt>
      <trkpt lat="32.079888610169291" lon="-5.484910737723112">
        <ele>2289.52</ele>
        <time>2019-03-11T18:44:11Z</time>
      </trkpt>
      <trkpt lat="32.079791547730565" lon="-5.48493504524231">
        <ele>2290</ele>
        <time>2019-03-11T18:44:12Z</time>
      </trkpt>
      <trkpt lat="32.079695910215378" lon="-5.484935631975532">
        <ele>2290</ele>
        <time>2019-03-11T18:44:13Z</time>
      </trkpt>
      <trkpt lat="32.079604547470808" lon="-5.484912330284715">
        <ele>2290.48</ele>
        <time>2019-03-11T18:44:14Z</time>
      </trkpt>
      <trkpt lat="32.079520057886839" lon="-5.48486664891243">
        <ele>2292.8800000000001</ele>
        <time>2019-03-11T18:44:15Z</time>
      </trkpt>
      <trkpt lat="32.079440345987678" lon="-5.484805544838309">
        <ele>2290.96</ele>
        <time>2019-03-11T18:44:16Z</time>
      </trkpt>
      <trkpt lat="32.079358957707882" lon="-5.484738489612937">
        <ele>2290.96</ele>
        <time>2019-03-11T18:44:28Z</time>
      </trkpt>
      <trkpt lat="32.078323205932975" lon="-5.483723441138864">
        <ele>2290.96</ele>
        <time>2019-03-11T18:44:37Z</time>
      </trkpt>
      <trkpt lat="32.077454505488276" lon="-5.483075268566608">
        <ele>2290.96</ele>
        <time>2019-03-11T18:44:38Z</time>
      </trkpt>
      <trkpt lat="32.077346630394459" lon="-5.483004441484809">
        <ele>2290.96</ele>
        <time>2019-03-11T18:44:39Z</time>
      </trkpt>
      <trkpt lat="32.077244287356734" lon="-5.48291802406311">
        <ele>2290.48</ele>
        <time>2019-03-11T18:44:40Z</time>
      </trkpt>
      <trkpt lat="32.077147895470262" lon="-5.4828149266541">
        <ele>2290.48</ele>
        <time>2019-03-11T18:44:41Z</time>
      </trkpt>
      <trkpt lat="32.07705938257277" lon="-5.482695149257779">
        <ele>2290.48</ele>
        <time>2019-03-11T18:44:42Z</time>
      </trkpt>
      <trkpt lat="32.076981263235211" lon="-5.482560954988003">
        <ele>2290</ele>
        <time>2019-03-11T18:44:43Z</time>
      </trkpt>
      <trkpt lat="32.076914124190807" lon="-5.482414606958628">
        <ele>2289.52</ele>
        <time>2019-03-11T18:44:44Z</time>
      </trkpt>
      <trkpt lat="32.076857294887304" lon="-5.482260631397367">
        <ele>2290.48</ele>
        <time>2019-03-11T18:44:45Z</time>
      </trkpt>
      <trkpt lat="32.076810356229544" lon="-5.482096094638109">
        <ele>2290.48</ele>
        <time>2019-03-11T18:44:53Z</time>
      </trkpt>
      <trkpt lat="32.076256144791842" lon="-5.480754068121314">
        <ele>2290.96</ele>
        <time>2019-03-11T18:44:57Z</time>
      </trkpt>
      <trkpt lat="32.075922293588519" lon="-5.480152079835534">
        <ele>2292.8800000000001</ele>
        <time>2019-03-11T18:44:58Z</time>
      </trkpt>
      <trkpt lat="32.075865045189857" lon="-5.479992739856243">
        <ele>2292.8800000000001</ele>
        <time>2019-03-11T18:44:59Z</time>
      </trkpt>
      <trkpt lat="32.075824225321412" lon="-5.479823844507337">
        <ele>2293.3600000000001</ele>
        <time>2019-03-11T18:45:07Z</time>
      </trkpt>
      <trkpt lat="32.075710231438279" lon="-5.478243017569184">
        <ele>2293.3600000000001</ele>
        <time>2019-03-11T18:45:13Z</time>
      </trkpt>
      <trkpt lat="32.075703693553805" lon="-5.477013643831015">
        <ele>2294.3200000000002</ele>
        <time>2019-03-11T18:45:14Z</time>
      </trkpt>
      <trkpt lat="32.07566337659955" lon="-5.476810885593295">
        <ele>2294.8000000000002</ele>
        <time>2019-03-11T18:45:15Z</time>
      </trkpt>
      <trkpt lat="32.075601769611239" lon="-5.476613827049732">
        <ele>2294.8000000000002</ele>
        <time>2019-03-11T18:45:22Z</time>
      </trkpt>
      <trkpt lat="32.075165491551161" lon="-5.475204829126597">
        <ele>2295.2800000000002</ele>
        <time>2019-03-11T18:45:23Z</time>
      </trkpt>
      <trkpt lat="32.075146632269025" lon="-5.475022941827774">
        <ele>2294.8000000000002</ele>
        <time>2019-03-11T18:45:24Z</time>
      </trkpt>
      <trkpt lat="32.075151409953833" lon="-5.474845580756664">
        <ele>2294.8000000000002</ele>
        <time>2019-03-11T18:45:26Z</time>
      </trkpt>
      <trkpt lat="32.075183931738138" lon="-5.474516339600086">
        <ele>2294.8000000000002</ele>
        <time>2019-03-11T18:45:27Z</time>
      </trkpt>
      <trkpt lat="32.075177477672696" lon="-5.474360771477222">
        <ele>2294.8000000000002</ele>
        <time>2019-03-11T18:45:28Z</time>
      </trkpt>
      <trkpt lat="32.075144033879042" lon="-5.474216602742672">
        <ele>2294.8000000000002</ele>
        <time>2019-03-11T18:45:29Z</time>
      </trkpt>
      <trkpt lat="32.075085444375873" lon="-5.474085258319974">
        <ele>2294.8000000000002</ele>
        <time>2019-03-11T18:45:30Z</time>
      </trkpt>
      <trkpt lat="32.075009252876043" lon="-5.473960284143686">
        <ele>2294.8000000000002</ele>
        <time>2019-03-11T18:45:31Z</time>
      </trkpt>
      <trkpt lat="32.074931468814611" lon="-5.473831705749035">
        <ele>2294.8000000000002</ele>
        <time>2019-03-11T18:45:32Z</time>
      </trkpt>
      <trkpt lat="32.074862653389573" lon="-5.473695751279593">
        <ele>2294.8000000000002</ele>
        <time>2019-03-11T18:45:33Z</time>
      </trkpt>
      <trkpt lat="32.074804063886404" lon="-5.473549654707313">
        <ele>2294.3200000000002</ele>
        <time>2019-03-11T18:45:34Z</time>
      </trkpt>
      <trkpt lat="32.074755700305104" lon="-5.473398109897971">
        <ele>2294.3200000000002</ele>
        <time>2019-03-11T18:45:35Z</time>
      </trkpt>
      <trkpt lat="32.074718233197927" lon="-5.473239105194807">
        <ele>2294.3200000000002</ele>
        <time>2019-03-11T18:45:36Z</time>
      </trkpt>
      <trkpt lat="32.074694763869047" lon="-5.473080100491643">
        <ele>2294.3200000000002</ele>
        <time>2019-03-11T18:45:37Z</time>
      </trkpt>
      <trkpt lat="32.074679173529148" lon="-5.472931740805507">
        <ele>2293.8400000000001</ele>
        <time>2019-03-11T18:45:39Z</time>
      </trkpt>
      <trkpt lat="32.07464262843132" lon="-5.472658239305019">
        <ele>2294.3200000000002</ele>
        <time>2019-03-11T18:45:40Z</time>
      </trkpt>
      <trkpt lat="32.074609687551856" lon="-5.472529409453273">
        <ele>2294.3200000000002</ele>
        <time>2019-03-11T18:45:41Z</time>
      </trkpt>
      <trkpt lat="32.074560066685081" lon="-5.472405022010207">
        <ele>2294.8000000000002</ele>
        <time>2019-03-11T18:45:42Z</time>
      </trkpt>
      <trkpt lat="32.074497956782579" lon="-5.472283065319061">
        <ele>2294.8000000000002</ele>
        <time>2019-03-11T18:45:43Z</time>
      </trkpt>
      <trkpt lat="32.074428303167224" lon="-5.472161946818233">
        <ele>2295.2800000000002</ele>
        <time>2019-03-11T18:45:44Z</time>
      </trkpt>
      <trkpt lat="32.074348255991936" lon="-5.472046192735434">
        <ele>2296.25</ele>
        <time>2019-03-11T18:45:45Z</time>
      </trkpt>
      <trkpt lat="32.07426049746573" lon="-5.471935216337442">
        <ele>2296.25</ele>
        <time>2019-03-11T18:45:46Z</time>
      </trkpt>
      <trkpt lat="32.074166033416986" lon="-5.471824742853642">
        <ele>2296.73</ele>
        <time>2019-03-11T18:45:57Z</time>
      </trkpt>
      <trkpt lat="32.073167329654098" lon="-5.470355814322829">
        <ele>2296.73</ele>
        <time>2019-03-11T18:46:02Z</time>
      </trkpt>
      <trkpt lat="32.072774386033416" lon="-5.469676628708839">
        <ele>2296.73</ele>
        <time>2019-03-11T18:46:03Z</time>
      </trkpt>
      <trkpt lat="32.072688722983003" lon="-5.469586523249745">
        <ele>2296.73</ele>
        <time>2019-03-11T18:46:04Z</time>
      </trkpt>
      <trkpt lat="32.072590151801705" lon="-5.469533801078796">
        <ele>2296.25</ele>
        <time>2019-03-11T18:46:05Z</time>
      </trkpt>
      <trkpt lat="32.072482947260141" lon="-5.469520473852754">
        <ele>2296.25</ele>
        <time>2019-03-11T18:46:06Z</time>
      </trkpt>
      <trkpt lat="32.072372306138277" lon="-5.469547379761934">
        <ele>2296.73</ele>
        <time>2019-03-11T18:46:07Z</time>
      </trkpt>
      <trkpt lat="32.072259150445461" lon="-5.469601610675454">
        <ele>2297.21</ele>
        <time>2019-03-11T18:46:08Z</time>
      </trkpt>
      <trkpt lat="32.072143396362662" lon="-5.469672018662095">
        <ele>2297.21</ele>
        <time>2019-03-11T18:46:09Z</time>
      </trkpt>
      <trkpt lat="32.072026301175356" lon="-5.469752317294478">
        <ele>2297.6900000000001</ele>
        <time>2019-03-11T18:46:13Z</time>
      </trkpt>
      <trkpt lat="32.071593292057514" lon="-5.470078876242042">
        <ele>2297.6900000000001</ele>
        <time>2019-03-11T18:46:14Z</time>
      </trkpt>
      <trkpt lat="32.071495056152344" lon="-5.470115588977933">
        <ele>2297.6900000000001</ele>
        <time>2019-03-11T18:46:15Z</time>
      </trkpt>
      <trkpt lat="32.071403609588742" lon="-5.470120199024677">
        <ele>2297.6900000000001</ele>
        <time>2019-03-11T18:46:16Z</time>
      </trkpt>
      <trkpt lat="32.071318365633488" lon="-5.470091365277767">
        <ele>2297.6900000000001</ele>
        <time>2019-03-11T18:46:17Z</time>
      </trkpt>
      <trkpt lat="32.071243850514293" lon="-5.470031937584281">
        <ele>2297.6900000000001</ele>
        <time>2019-03-11T18:46:18Z</time>
      </trkpt>
      <trkpt lat="32.071177382022142" lon="-5.469950549304485">
        <ele>2297.21</ele>
        <time>2019-03-11T18:46:19Z</time>
      </trkpt>
      <trkpt lat="32.071114517748356" lon="-5.469859521836042">
        <ele>2297.21</ele>
        <time>2019-03-11T18:46:20Z</time>
      </trkpt>
      <trkpt lat="32.071042265743017" lon="-5.469770757481456">
        <ele>2296.73</ele>
        <time>2019-03-11T18:46:21Z</time>
      </trkpt>
      <trkpt lat="32.070949729532003" lon="-5.46970060095191">
        <ele>2296.73</ele>
        <time>2019-03-11T18:46:22Z</time>
      </trkpt>
      <trkpt lat="32.070840010419488" lon="-5.469653410837054">
        <ele>2296.73</ele>
        <time>2019-03-11T18:46:23Z</time>
      </trkpt>
      <trkpt lat="32.070721993222833" lon="-5.469634970650077">
        <ele>2296.73</ele>
        <time>2019-03-11T18:46:24Z</time>
      </trkpt>
      <trkpt lat="32.070600874722004" lon="-5.469638826325536">
        <ele>2296.73</ele>
        <time>2019-03-11T18:46:25Z</time>
      </trkpt>
      <trkpt lat="32.07049023360014" lon="-5.469663720577955">
        <ele>2296.25</ele>
        <time>2019-03-11T18:46:26Z</time>
      </trkpt>
      <trkpt lat="32.070400463417172" lon="-5.469706887379289">
        <ele>2296.25</ele>
        <time>2019-03-11T18:46:27Z</time>
      </trkpt>
      <trkpt lat="32.070320164784789" lon="-5.469765393063426">
        <ele>2296.25</ele>
        <time>2019-03-11T18:46:28Z</time>
      </trkpt>
      <trkpt lat="32.070244140923023" lon="-5.469839153811336">
        <ele>2295.77</ele>
        <time>2019-03-11T18:46:29Z</time>
      </trkpt>
      <trkpt lat="32.070175157859921" lon="-5.469930516555905">
        <ele>2295.77</ele>
        <time>2019-03-11T18:46:30Z</time>
      </trkpt>
      <trkpt lat="32.070119166746736" lon="-5.47003822401166">
        <ele>2295.2800000000002</ele>
        <time>2019-03-11T18:46:31Z</time>
      </trkpt>
      <trkpt lat="32.070071222260594" lon="-5.470161102712154">
        <ele>2295.2800000000002</ele>
        <time>2019-03-11T18:46:32Z</time>
      </trkpt>
      <trkpt lat="32.070034509524703" lon="-5.470294710248709">
        <ele>2295.2800000000002</ele>
        <time>2019-03-11T18:46:33Z</time>
      </trkpt>
      <trkpt lat="32.07000995054841" lon="-5.470440723001957">
        <ele>2295.77</ele>
        <time>2019-03-11T18:46:34Z</time>
      </trkpt>
      <trkpt lat="32.069989163428545" lon="-5.470590591430664">
        <ele>2295.77</ele>
        <time>2019-03-11T18:46:41Z</time>
      </trkpt>
      <trkpt lat="32.069963682442904" lon="-5.471460381522775">
        <ele>2295.77</ele>
        <time>2019-03-11T18:46:43Z</time>
      </trkpt>
      <trkpt lat="32.069959826767445" lon="-5.471613770350814">
        <ele>2296.25</ele>
        <time>2019-03-11T18:46:44Z</time>
      </trkpt>
      <trkpt lat="32.0699483435601" lon="-5.471680155023933">
        <ele>2296.25</ele>
        <time>2019-03-11T18:46:45Z</time>
      </trkpt>
      <trkpt lat="32.069929149001837" lon="-5.471743270754814">
        <ele>2296.73</ele>
        <time>2019-03-11T18:46:46Z</time>
      </trkpt>
      <trkpt lat="32.069904590025544" lon="-5.471799345687032">
        <ele>2296.73</ele>
        <time>2019-03-11T18:46:47Z</time>
      </trkpt>
      <trkpt lat="32.069876175373793" lon="-5.47184812836349">
        <ele>2296.25</ele>
        <time>2019-03-11T18:46:48Z</time>
      </trkpt>
      <trkpt lat="32.069844072684646" lon="-5.471894983202219">
        <ele>2296.25</ele>
        <time>2019-03-11T18:46:50Z</time>
      </trkpt>
      <trkpt lat="32.069765785709023" lon="-5.471999421715736">
        <ele>2296.25</ele>
        <time>2019-03-11T18:46:51Z</time>
      </trkpt>
      <trkpt lat="32.069715242832899" lon="-5.472048204392195">
        <ele>2296.25</ele>
        <time>2019-03-11T18:46:52Z</time>
      </trkpt>
      <trkpt lat="32.069658832624555" lon="-5.472094807773829">
        <ele>2296.25</ele>
        <time>2019-03-11T18:46:53Z</time>
      </trkpt>
      <trkpt lat="32.069594375789165" lon="-5.472130430862308">
        <ele>2296.73</ele>
        <time>2019-03-11T18:46:54Z</time>
      </trkpt>
      <trkpt lat="32.0695217885077" lon="-5.472151217982173">
        <ele>2296.73</ele>
        <time>2019-03-11T18:46:55Z</time>
      </trkpt>
      <trkpt lat="32.069444339722395" lon="-5.472161862999201">
        <ele>2297.21</ele>
        <time>2019-03-11T18:46:56Z</time>
      </trkpt>
      <trkpt lat="32.069364124909043" lon="-5.472158845514059">
        <ele>2297.6900000000001</ele>
        <time>2019-03-11T18:46:57Z</time>
      </trkpt>
      <trkpt lat="32.069280976429582" lon="-5.472136633470655">
        <ele>2297.6900000000001</ele>
        <time>2019-03-11T18:46:58Z</time>
      </trkpt>
      <trkpt lat="32.069196403026581" lon="-5.472095059230924">
        <ele>2298.1700000000001</ele>
        <time>2019-03-11T18:46:59Z</time>
      </trkpt>
      <trkpt lat="32.069109650328755" lon="-5.472035212442279">
        <ele>2298.1700000000001</ele>
        <time>2019-03-11T18:47:00Z</time>
      </trkpt>
      <trkpt lat="32.069020047783852" lon="-5.471958518028259">
        <ele>2298.1700000000001</ele>
        <time>2019-03-11T18:47:01Z</time>
      </trkpt>
      <trkpt lat="32.068929690867662" lon="-5.47186715528369">
        <ele>2298.1700000000001</ele>
        <time>2019-03-11T18:47:02Z</time>
      </trkpt>
      <trkpt lat="32.068842016160488" lon="-5.471769003197551">
        <ele>2298.1700000000001</ele>
        <time>2019-03-11T18:47:08Z</time>
      </trkpt>
      <trkpt lat="32.068275986239314" lon="-5.471176570281386">
        <ele>2298.1700000000001</ele>
        <time>2019-03-11T18:47:09Z</time>
      </trkpt>
      <trkpt lat="32.068165512755513" lon="-5.471108676865697">
        <ele>2298.6500000000001</ele>
        <time>2019-03-11T18:47:10Z</time>
      </trkpt>
      <trkpt lat="32.068052608519793" lon="-5.471057882532477">
        <ele>2298.1700000000001</ele>
        <time>2019-03-11T18:47:11Z</time>
      </trkpt>
      <trkpt lat="32.067935261875391" lon="-5.471017314121127">
        <ele>2297.6900000000001</ele>
        <time>2019-03-11T18:47:12Z</time>
      </trkpt>
      <trkpt lat="32.067814646288753" lon="-5.470987893640995">
        <ele>2297.6900000000001</ele>
        <time>2019-03-11T18:47:13Z</time>
      </trkpt>
      <trkpt lat="32.067692270502448" lon="-5.4709651786834">
        <ele>2298.1700000000001</ele>
        <time>2019-03-11T18:47:19Z</time>
      </trkpt>
      <trkpt lat="32.067005205899477" lon="-5.470935422927141">
        <ele>2298.1700000000001</ele>
        <time>2019-03-11T18:47:20Z</time>
      </trkpt>
      <trkpt lat="32.066890122368932" lon="-5.470963167026639">
        <ele>2298.1700000000001</ele>
        <time>2019-03-11T18:47:23Z</time>
      </trkpt>
      <trkpt lat="32.066519893705845" lon="-5.471101887524128">
        <ele>2298.1700000000001</ele>
        <time>2019-03-11T18:47:24Z</time>
      </trkpt>
      <trkpt lat="32.066389471292496" lon="-5.471179336309433">
        <ele>2298.1700000000001</ele>
        <time>2019-03-11T18:47:25Z</time>
      </trkpt>
      <trkpt lat="32.066260306164622" lon="-5.471274051815271">
        <ele>2302.4899999999998</ele>
        <time>2019-03-11T18:47:26Z</time>
      </trkpt>
      <trkpt lat="32.066133068874478" lon="-5.471381423994899">
        <ele>2302.98</ele>
        <time>2019-03-11T18:47:27Z</time>
      </trkpt>
      <trkpt lat="32.066007927060127" lon="-5.471499273553491">
        <ele>2302.98</ele>
        <time>2019-03-11T18:47:35Z</time>
      </trkpt>
      <trkpt lat="32.064896486699581" lon="-5.47222338616848">
        <ele>2303.46</ele>
        <time>2019-03-11T18:47:37Z</time>
      </trkpt>
      <trkpt lat="32.06465701572597" lon="-5.472287843003869">
        <ele>2304.4200000000001</ele>
        <time>2019-03-11T18:47:38Z</time>
      </trkpt>
      <trkpt lat="32.064534556120634" lon="-5.472298488020897">
        <ele>2304.4200000000001</ele>
        <time>2019-03-11T18:47:47Z</time>
      </trkpt>
      <trkpt lat="32.063212646171451" lon="-5.472431341186166">
        <ele>2304.4200000000001</ele>
        <time>2019-03-11T18:47:57Z</time>
      </trkpt>
      <trkpt lat="32.061747154220939" lon="-5.472484230995178">
        <ele>2304.4200000000001</ele>
        <time>2019-03-11T18:47:58Z</time>
      </trkpt>
      <trkpt lat="32.061601644381881" lon="-5.472517088055611">
        <ele>2304.4200000000001</ele>
        <time>2019-03-11T18:47:59Z</time>
      </trkpt>
      <trkpt lat="32.061460576951504" lon="-5.472577689215541">
        <ele>2304.4200000000001</ele>
        <time>2019-03-11T18:48:00Z</time>
      </trkpt>
      <trkpt lat="32.061330657452345" lon="-5.472666118294001">
        <ele>2304.9000000000001</ele>
        <time>2019-03-11T18:48:01Z</time>
      </trkpt>
      <trkpt lat="32.061209371313453" lon="-5.472778603434563">
        <ele>2304.9000000000001</ele>
        <time>2019-03-11T18:48:02Z</time>
      </trkpt>
      <trkpt lat="32.061091773211956" lon="-5.472898548468947">
        <ele>2305.3800000000001</ele>
        <time>2019-03-11T18:48:04Z</time>
      </trkpt>
      <trkpt lat="32.060872167348862" lon="-5.473101558163762">
        <ele>2305.3800000000001</ele>
        <time>2019-03-11T18:48:05Z</time>
      </trkpt>
      <trkpt lat="32.060774182900786" lon="-5.473163835704327">
        <ele>2305.3800000000001</ele>
        <time>2019-03-11T18:48:06Z</time>
      </trkpt>
      <trkpt lat="32.060686927288771" lon="-5.473195686936379">
        <ele>2305.3800000000001</ele>
        <time>2019-03-11T18:48:07Z</time>
      </trkpt>
      <trkpt lat="32.060607634484768" lon="-5.473193591460586">
        <ele>2305.3800000000001</ele>
        <time>2019-03-11T18:48:08Z</time>
      </trkpt>
      <trkpt lat="32.060538735240698" lon="-5.473154950886965">
        <ele>2305.3800000000001</ele>
        <time>2019-03-11T18:48:09Z</time>
      </trkpt>
      <trkpt lat="32.060486935079098" lon="-5.473083117976785">
        <ele>2304.9000000000001</ele>
        <time>2019-03-11T18:48:10Z</time>
      </trkpt>
      <trkpt lat="32.060456676408648" lon="-5.472992677241564">
        <ele>2304.9000000000001</ele>
        <time>2019-03-11T18:48:11Z</time>
      </trkpt>
      <trkpt lat="32.060441756621003" lon="-5.472890418022871">
        <ele>2304.9000000000001</ele>
        <time>2019-03-11T18:48:12Z</time>
      </trkpt>
      <trkpt lat="32.060435889288783" lon="-5.472777681425214">
        <ele>2304.9000000000001</ele>
        <time>2019-03-11T18:48:13Z</time>
      </trkpt>
      <trkpt lat="32.060420801863074" lon="-5.47265874221921">
        <ele>2304.9000000000001</ele>
        <time>2019-03-11T18:48:14Z</time>
      </trkpt>
      <trkpt lat="32.060391632840037" lon="-5.472536450251937">
        <ele>2304.9000000000001</ele>
        <time>2019-03-11T18:48:15Z</time>
      </trkpt>
      <trkpt lat="32.060343185439706" lon="-5.472410302609205">
        <ele>2304.9000000000001</ele>
        <time>2019-03-11T18:48:16Z</time>
      </trkpt>
      <trkpt lat="32.060273699462414" lon="-5.47228348441422">
        <ele>2304.4200000000001</ele>
        <time>2019-03-11T18:48:17Z</time>
      </trkpt>
      <trkpt lat="32.060189209878445" lon="-5.472165299579501">
        <ele>2304.4200000000001</ele>
        <time>2019-03-11T18:48:18Z</time>
      </trkpt>
      <trkpt lat="32.060096086934209" lon="-5.472058346495032">
        <ele>2303.46</ele>
        <time>2019-03-11T18:48:19Z</time>
      </trkpt>
      <trkpt lat="32.059993157163262" lon="-5.471955500543118">
        <ele>2303.46</ele>
        <time>2019-03-11T18:48:26Z</time>
      </trkpt>
      <trkpt lat="32.059035357087851" lon="-5.471309339627624">
        <ele>2304.9000000000001</ele>
        <time>2019-03-11T18:48:36Z</time>
      </trkpt>
      <trkpt lat="32.057498451322317" lon="-5.470551028847694">
        <ele>2305.3800000000001</ele>
        <time>2019-03-11T18:48:37Z</time>
      </trkpt>
      <trkpt lat="32.057352103292942" lon="-5.470513142645359">
        <ele>2306.8200000000002</ele>
        <time>2019-03-11T18:48:42Z</time>
      </trkpt>
      <trkpt lat="32.056613992899656" lon="-5.47047458589077">
        <ele>2309.6999999999998</ele>
        <time>2019-03-11T18:48:43Z</time>
      </trkpt>
      <trkpt lat="32.056475272402167" lon="-5.470505096018314">
        <ele>2309.6999999999998</ele>
        <time>2019-03-11T18:48:52Z</time>
      </trkpt>
      <trkpt lat="32.055173814296722" lon="-5.470744650810957">
        <ele>2309.2199999999998</ele>
        <time>2019-03-11T18:49:00Z</time>
      </trkpt>
      <trkpt lat="32.053967826068401" lon="-5.470421025529504">
        <ele>2309.2199999999998</ele>
        <time>2019-03-11T18:49:01Z</time>
      </trkpt>
      <trkpt lat="32.053854670375586" lon="-5.470366878435016">
        <ele>2309.2199999999998</ele>
        <time>2019-03-11T18:49:02Z</time>
      </trkpt>
      <trkpt lat="32.053761798888445" lon="-5.470305941998959">
        <ele>2309.2199999999998</ele>
        <time>2019-03-11T18:49:03Z</time>
      </trkpt>
      <trkpt lat="32.05368384718895" lon="-5.470231594517827">
        <ele>2309.2199999999998</ele>
        <time>2019-03-11T18:49:04Z</time>
      </trkpt>
      <trkpt lat="32.053618803620338" lon="-5.470144674181938">
        <ele>2309.2199999999998</ele>
        <time>2019-03-11T18:49:05Z</time>
      </trkpt>
      <trkpt lat="32.053566752001643" lon="-5.470040570944548">
        <ele>2309.2199999999998</ele>
        <time>2019-03-11T18:49:06Z</time>
      </trkpt>
      <trkpt lat="32.053528698161244" lon="-5.469927918165922">
        <ele>2309.2199999999998</ele>
        <time>2019-03-11T18:49:07Z</time>
      </trkpt>
      <trkpt lat="32.053494416177273" lon="-5.469823060557246">
        <ele>2309.2199999999998</ele>
        <time>2019-03-11T18:49:09Z</time>
      </trkpt>
      <trkpt lat="32.053429707884789" lon="-5.469617117196322">
        <ele>2308.7399999999998</ele>
        <time>2019-03-11T18:49:10Z</time>
      </trkpt>
      <trkpt lat="32.053411938250065" lon="-5.469507649540901">
        <ele>2309.2199999999998</ele>
        <time>2019-03-11T18:49:12Z</time>
      </trkpt>
      <trkpt lat="32.053380003198981" lon="-5.469276644289494">
        <ele>2309.2199999999998</ele>
        <time>2019-03-11T18:49:13Z</time>
      </trkpt>
      <trkpt lat="32.053339602425694" lon="-5.46916357241571">
        <ele>2309.6999999999998</ele>
        <time>2019-03-11T18:49:14Z</time>
      </trkpt>
      <trkpt lat="32.05327782779932" lon="-5.469063995406032">
        <ele>2309.6999999999998</ele>
        <time>2019-03-11T18:49:15Z</time>
      </trkpt>
      <trkpt lat="32.05319476313889" lon="-5.468979422003031">
        <ele>2310.1900000000001</ele>
        <time>2019-03-11T18:49:16Z</time>
      </trkpt>
      <trkpt lat="32.053095940500498" lon="-5.468907421454787">
        <ele>2310.6700000000001</ele>
        <time>2019-03-11T18:49:17Z</time>
      </trkpt>
      <trkpt lat="32.052988149225712" lon="-5.468844892457128">
        <ele>2310.6700000000001</ele>
        <time>2019-03-11T18:49:18Z</time>
      </trkpt>
      <trkpt lat="32.052873903885484" lon="-5.468789068982005">
        <ele>2310.1900000000001</ele>
        <time>2019-03-11T18:49:25Z</time>
      </trkpt>
      <trkpt lat="32.052185665816069" lon="-5.46860852278769">
        <ele>2312.1100000000001</ele>
        <time>2019-03-11T18:49:27Z</time>
      </trkpt>
      <trkpt lat="32.051986344158649" lon="-5.468546580523253">
        <ele>2311.1500000000001</ele>
        <time>2019-03-11T18:49:35Z</time>
      </trkpt>
      <trkpt lat="32.051155278459191" lon="-5.467904359102249">
        <ele>2311.1500000000001</ele>
        <time>2019-03-11T18:49:45Z</time>
      </trkpt>
      <trkpt lat="32.050246596336365" lon="-5.466857627034187">
        <ele>2310.6700000000001</ele>
        <time>2019-03-11T18:49:51Z</time>
      </trkpt>
      <trkpt lat="32.049732366576791" lon="-5.466441297903657">
        <ele>2310.6700000000001</ele>
        <time>2019-03-11T18:49:52Z</time>
      </trkpt>
      <trkpt lat="32.049663551151752" lon="-5.466411458328366">
        <ele>2310.6700000000001</ele>
        <time>2019-03-11T18:49:54Z</time>
      </trkpt>
      <trkpt lat="32.049534218385816" lon="-5.466366447508335">
        <ele>2311.1500000000001</ele>
        <time>2019-03-11T18:49:55Z</time>
      </trkpt>
      <trkpt lat="32.049480825662613" lon="-5.466330405324698">
        <ele>2311.6300000000001</ele>
        <time>2019-03-11T18:49:56Z</time>
      </trkpt>
      <trkpt lat="32.049433384090662" lon="-5.46628556214273">
        <ele>2313.0700000000002</ele>
        <time>2019-03-11T18:49:59Z</time>
      </trkpt>
      <trkpt lat="32.049292149022222" lon="-5.466126808896661">
        <ele>2313.5500000000002</ele>
        <time>2019-03-11T18:50:00Z</time>
      </trkpt>
      <trkpt lat="32.049237247556448" lon="-5.466082049533725">
        <ele>2315.9499999999998</ele>
        <time>2019-03-11T18:50:04Z</time>
      </trkpt>
      <trkpt lat="32.048992328345776" lon="-5.465909382328391">
        <ele>2315.9499999999998</ele>
        <time>2019-03-11T18:50:05Z</time>
      </trkpt>
      <trkpt lat="32.048923261463642" lon="-5.465873340144754">
        <ele>2315.9499999999998</ele>
        <time>2019-03-11T18:50:14Z</time>
      </trkpt>
      <trkpt lat="32.048424119129777" lon="-5.465679131448269">
        <ele>2315.9499999999998</ele>
        <time>2019-03-11T18:50:15Z</time>
      </trkpt>
      <trkpt lat="32.048368966206908" lon="-5.465666810050607">
        <ele>2316.4299999999998</ele>
        <time>2019-03-11T18:50:18Z</time>
      </trkpt>
      <trkpt lat="32.048203591257334" lon="-5.465631689876318">
        <ele>2316.4299999999998</ele>
        <time>2019-03-11T18:50:19Z</time>
      </trkpt>
      <trkpt lat="32.048142654821277" lon="-5.465604616329074">
        <ele>2316.4299999999998</ele>
        <time>2019-03-11T18:50:20Z</time>
      </trkpt>
      <trkpt lat="32.048076605424285" lon="-5.465567735955119">
        <ele>2316.9099999999999</ele>
        <time>2019-03-11T18:50:21Z</time>
      </trkpt>
      <trkpt lat="32.048009298741817" lon="-5.465522725135088">
        <ele>2316.9099999999999</ele>
        <time>2019-03-11T18:50:22Z</time>
      </trkpt>
      <trkpt lat="32.047943584620953" lon="-5.465470673516393">
        <ele>2316.9099999999999</ele>
        <time>2019-03-11T18:50:23Z</time>
      </trkpt>
      <trkpt lat="32.047879546880722" lon="-5.465418538078666">
        <ele>2316.4299999999998</ele>
        <time>2019-03-11T18:50:24Z</time>
      </trkpt>
      <trkpt lat="32.047814168035984" lon="-5.465375119820237">
        <ele>2315.4699999999998</ele>
        <time>2019-03-11T18:50:25Z</time>
      </trkpt>
      <trkpt lat="32.047746945172548" lon="-5.465346788987517">
        <ele>2314.9899999999998</ele>
        <time>2019-03-11T18:50:26Z</time>
      </trkpt>
      <trkpt lat="32.047679806128144" lon="-5.465328935533762">
        <ele>2315.4699999999998</ele>
        <time>2019-03-11T18:50:34Z</time>
      </trkpt>
      <trkpt lat="32.047278815880418" lon="-5.465306220576167">
        <ele>2315.4699999999998</ele>
        <time>2019-03-11T18:50:42Z</time>
      </trkpt>
      <trkpt lat="32.046578507870436" lon="-5.465473439544439">
        <ele>2315.4699999999998</ele>
        <time>2019-03-11T18:50:47Z</time>
      </trkpt>
      <trkpt lat="32.046063272282481" lon="-5.465687261894345">
        <ele>2315.4699999999998</ele>
        <time>2019-03-11T18:50:48Z</time>
      </trkpt>
      <trkpt lat="32.045962354168296" lon="-5.465756496414542">
        <ele>2315.9499999999998</ele>
        <time>2019-03-11T18:50:49Z</time>
      </trkpt>
      <trkpt lat="32.045869985595345" lon="-5.465849954634905">
        <ele>2315.9499999999998</ele>
        <time>2019-03-11T18:50:50Z</time>
      </trkpt>
      <trkpt lat="32.045786418020725" lon="-5.465958081185818">
        <ele>2315.9499999999998</ele>
        <time>2019-03-11T18:50:51Z</time>
      </trkpt>
      <trkpt lat="32.045713746920228" lon="-5.466060088947415">
        <ele>2316.4299999999998</ele>
        <time>2019-03-11T18:50:52Z</time>
      </trkpt>
      <trkpt lat="32.045646607875824" lon="-5.466144159436226">
        <ele>2318.8400000000001</ele>
        <time>2019-03-11T18:50:54Z</time>
      </trkpt>
      <trkpt lat="32.045512748882174" lon="-5.46630073338747">
        <ele>2319.3200000000002</ele>
        <time>2019-03-11T18:50:55Z</time>
      </trkpt>
      <trkpt lat="32.045455919578671" lon="-5.466390084475279">
        <ele>2319.3200000000002</ele>
        <time>2019-03-11T18:51:02Z</time>
      </trkpt>
      <trkpt lat="32.045062305405736" lon="-5.46710355207324">
        <ele>2319.3200000000002</ele>
        <time>2019-03-11T18:51:03Z</time>
      </trkpt>
      <trkpt lat="32.044975720345974" lon="-5.467207320034504">
        <ele>2319.8000000000002</ele>
        <time>2019-03-11T18:51:04Z</time>
      </trkpt>
      <trkpt lat="32.044870862737298" lon="-5.467299185693264">
        <ele>2321.2399999999998</ele>
        <time>2019-03-11T18:51:05Z</time>
      </trkpt>
      <trkpt lat="32.044756449759007" lon="-5.467379735782743">
        <ele>2321.7199999999998</ele>
        <time>2019-03-11T18:51:06Z</time>
      </trkpt>
      <trkpt lat="32.044639606028795" lon="-5.467455508187413">
        <ele>2322.1999999999998</ele>
        <time>2019-03-11T18:51:16Z</time>
      </trkpt>
      <trkpt lat="32.043519113212824" lon="-5.468259248882532">
        <ele>2322.1999999999998</ele>
        <time>2019-03-11T18:51:18Z</time>
      </trkpt>
      <trkpt lat="32.043281737715006" lon="-5.468409117311239">
        <ele>2322.1999999999998</ele>
        <time>2019-03-11T18:51:19Z</time>
      </trkpt>
      <trkpt lat="32.043152740225196" lon="-5.468465527519584">
        <ele>2322.1999999999998</ele>
        <time>2019-03-11T18:51:20Z</time>
      </trkpt>
      <trkpt lat="32.043021395802498" lon="-5.468509029597044">
        <ele>2322.1999999999998</ele>
        <time>2019-03-11T18:51:21Z</time>
      </trkpt>
      <trkpt lat="32.042886447161436" lon="-5.468538952991366">
        <ele>2320.7600000000002</ele>
        <time>2019-03-11T18:51:22Z</time>
      </trkpt>
      <trkpt lat="32.042743535712361" lon="-5.468554962426424">
        <ele>2321.2399999999998</ele>
        <time>2019-03-11T18:51:23Z</time>
      </trkpt>
      <trkpt lat="32.042591907083988" lon="-5.468559907749295">
        <ele>2322.6799999999998</ele>
        <time>2019-03-11T18:51:33Z</time>
      </trkpt>
      <trkpt lat="32.041017115116119" lon="-5.468672895804048">
        <ele>2322.6799999999998</ele>
        <time>2019-03-11T18:51:43Z</time>
      </trkpt>
      <trkpt lat="32.039475431665778" lon="-5.468852603808045">
        <ele>2322.6799999999998</ele>
        <time>2019-03-11T18:51:47Z</time>
      </trkpt>
      <trkpt lat="32.03889993019402" lon="-5.468673231080174">
        <ele>2322.6799999999998</ele>
        <time>2019-03-11T18:51:48Z</time>
      </trkpt>
      <trkpt lat="32.038765903562307" lon="-5.468593100085855">
        <ele>2322.6799999999998</ele>
        <time>2019-03-11T18:51:49Z</time>
      </trkpt>
      <trkpt lat="32.038631038740277" lon="-5.468499474227428">
        <ele>2322.6799999999998</ele>
        <time>2019-03-11T18:51:50Z</time>
      </trkpt>
      <trkpt lat="32.038499778136611" lon="-5.468388497829437">
        <ele>2323.1599999999999</ele>
        <time>2019-03-11T18:51:51Z</time>
      </trkpt>
      <trkpt lat="32.038378491997719" lon="-5.468271486461163">
        <ele>2323.1599999999999</ele>
        <time>2019-03-11T18:51:54Z</time>
      </trkpt>
      <trkpt lat="32.038098871707916" lon="-5.467997398227453">
        <ele>2324.6100000000001</ele>
        <time>2019-03-11T18:51:56Z</time>
      </trkpt>
      <trkpt lat="32.037939364090562" lon="-5.467807212844491">
        <ele>2325.5700000000002</ele>
        <time>2019-03-11T18:51:57Z</time>
      </trkpt>
      <trkpt lat="32.037842217832804" lon="-5.467723729088903">
        <ele>2326.0500000000002</ele>
        <time>2019-03-11T18:52:06Z</time>
      </trkpt>
      <trkpt lat="32.036700854077935" lon="-5.46700338833034">
        <ele>2326.5300000000002</ele>
        <time>2019-03-11T18:52:09Z</time>
      </trkpt>
      <trkpt lat="32.036281758919358" lon="-5.466824183240533">
        <ele>2327.0100000000002</ele>
        <time>2019-03-11T18:52:10Z</time>
      </trkpt>
      <trkpt lat="32.036133483052254" lon="-5.466804150491953">
        <ele>2327.4899999999998</ele>
        <time>2019-03-11T18:52:11Z</time>
      </trkpt>
      <trkpt lat="32.035982944071293" lon="-5.466807670891285">
        <ele>2327.9699999999998</ele>
        <time>2019-03-11T18:52:12Z</time>
      </trkpt>
      <trkpt lat="32.035841038450599" lon="-5.466832565143704">
        <ele>2328.4499999999998</ele>
        <time>2019-03-11T18:52:13Z</time>
      </trkpt>
      <trkpt lat="32.035709023475647" lon="-5.466880677267909">
        <ele>2328.9299999999998</ele>
        <time>2019-03-11T18:52:14Z</time>
      </trkpt>
      <trkpt lat="32.035587402060628" lon="-5.46695401892066">
        <ele>2329.8899999999999</ele>
        <time>2019-03-11T18:52:15Z</time>
      </trkpt>
      <trkpt lat="32.035478688776493" lon="-5.467044208198786">
        <ele>2330.3699999999999</ele>
        <time>2019-03-11T18:52:16Z</time>
      </trkpt>
      <trkpt lat="32.035383554175496" lon="-5.467150239273906">
        <ele>2330.3699999999999</ele>
        <time>2019-03-11T18:52:17Z</time>
      </trkpt>
      <trkpt lat="32.035301914438605" lon="-5.467272782698274">
        <ele>2330.3699999999999</ele>
        <time>2019-03-11T18:52:18Z</time>
      </trkpt>
      <trkpt lat="32.035224968567491" lon="-5.467405971139669">
        <ele>2329.8899999999999</ele>
        <time>2019-03-11T18:52:25Z</time>
      </trkpt>
      <trkpt lat="32.034794893115759" lon="-5.468444908037782">
        <ele>2329.4099999999999</ele>
        <time>2019-03-11T18:52:33Z</time>
      </trkpt>
      <trkpt lat="32.03413381241262" lon="-5.469523910433054">
        <ele>2329.4099999999999</ele>
        <time>2019-03-11T18:52:42Z</time>
      </trkpt>
      <trkpt lat="32.033240888267756" lon="-5.470573492348194">
        <ele>2328.9299999999998</ele>
        <time>2019-03-11T18:52:45Z</time>
      </trkpt>
      <trkpt lat="32.032851213589311" lon="-5.470810951665044">
        <ele>2328.9299999999998</ele>
        <time>2019-03-11T18:52:46Z</time>
      </trkpt>
      <trkpt lat="32.032709056511521" lon="-5.470866188406944">
        <ele>2328.4499999999998</ele>
        <time>2019-03-11T18:52:47Z</time>
      </trkpt>
      <trkpt lat="32.032560529187322" lon="-5.470909103751183">
        <ele>2328.4499999999998</ele>
        <time>2019-03-11T18:52:48Z</time>
      </trkpt>
      <trkpt lat="32.032406637445092" lon="-5.470935003831983">
        <ele>2327.9699999999998</ele>
        <time>2019-03-11T18:52:49Z</time>
      </trkpt>
      <trkpt lat="32.032249979674816" lon="-5.470940032973886">
        <ele>2327.9699999999998</ele>
        <time>2019-03-11T18:52:50Z</time>
      </trkpt>
      <trkpt lat="32.032095668837428" lon="-5.470933075994253">
        <ele>2327.4899999999998</ele>
        <time>2019-03-11T18:52:51Z</time>
      </trkpt>
      <trkpt lat="32.031941190361977" lon="-5.47091530635953">
        <ele>2327.4899999999998</ele>
        <time>2019-03-11T18:52:52Z</time>
      </trkpt>
      <trkpt lat="32.031788639724255" lon="-5.470893597230315">
        <ele>2327.4899999999998</ele>
        <time>2019-03-11T18:52:57Z</time>
      </trkpt>
      <trkpt lat="32.031064443290234" lon="-5.470741549506784">
        <ele>2327.9699999999998</ele>
        <time>2019-03-11T18:52:58Z</time>
      </trkpt>
      <trkpt lat="32.030937625095248" lon="-5.470683965831995">
        <ele>2327.9699999999998</ele>
        <time>2019-03-11T18:52:59Z</time>
      </trkpt>
      <trkpt lat="32.030820362269878" lon="-5.470603499561548">
        <ele>2328.4499999999998</ele>
        <time>2019-03-11T18:53:00Z</time>
      </trkpt>
      <trkpt lat="32.030712403357029" lon="-5.470501994714141">
        <ele>2328.9299999999998</ele>
        <time>2019-03-11T18:53:01Z</time>
      </trkpt>
      <trkpt lat="32.030617017298937" lon="-5.47038028948009">
        <ele>2329.4099999999999</ele>
        <time>2019-03-11T18:53:02Z</time>
      </trkpt>
      <trkpt lat="32.030532779172063" lon="-5.470245592296124">
        <ele>2329.4099999999999</ele>
        <time>2019-03-11T18:53:03Z</time>
      </trkpt>
      <trkpt lat="32.030447786673903" lon="-5.47010812908411">
        <ele>2329.4099999999999</ele>
        <time>2019-03-11T18:53:10Z</time>
      </trkpt>
      <trkpt lat="32.029765332117677" lon="-5.469234315678477">
        <ele>2329.4099999999999</ele>
        <time>2019-03-11T18:53:11Z</time>
      </trkpt>
      <trkpt lat="32.029650416225195" lon="-5.469176145270467">
        <ele>2329.4099999999999</ele>
        <time>2019-03-11T18:53:12Z</time>
      </trkpt>
      <trkpt lat="32.029525525867939" lon="-5.46915921382606">
        <ele>2329.4099999999999</ele>
        <time>2019-03-11T18:53:13Z</time>
      </trkpt>
      <trkpt lat="32.029394935816526" lon="-5.469170361757278">
        <ele>2329.4099999999999</ele>
        <time>2019-03-11T18:53:14Z</time>
      </trkpt>
      <trkpt lat="32.029261998832226" lon="-5.469193411991">
        <ele>2329.8899999999999</ele>
        <time>2019-03-11T18:53:16Z</time>
      </trkpt>
      <trkpt lat="32.028987826779485" lon="-5.469243368133903">
        <ele>2330.3699999999999</ele>
        <time>2019-03-11T18:53:17Z</time>
      </trkpt>
      <trkpt lat="32.028842065483332" lon="-5.469244290143251">
        <ele>2330.8499999999999</ele>
        <time>2019-03-11T18:53:18Z</time>
      </trkpt>
      <trkpt lat="32.028691610321403" lon="-5.469230124726892">
        <ele>2331.3299999999999</ele>
        <time>2019-03-11T18:53:26Z</time>
      </trkpt>
      <trkpt lat="32.027405155822635" lon="-5.46935610473156">
        <ele>2332.3000000000002</ele>
        <time>2019-03-11T18:53:29Z</time>
      </trkpt>
      <trkpt lat="32.026971559971571" lon="-5.469509409740567">
        <ele>2333.2600000000002</ele>
        <time>2019-03-11T18:53:30Z</time>
      </trkpt>
      <trkpt lat="32.026844993233681" lon="-5.469587109982967">
        <ele>2333.7399999999998</ele>
        <time>2019-03-11T18:53:31Z</time>
      </trkpt>
      <trkpt lat="32.026739800348878" lon="-5.469680987298489">
        <ele>2334.6999999999998</ele>
        <time>2019-03-11T18:53:32Z</time>
      </trkpt>
      <trkpt lat="32.026677774265409" lon="-5.469783330336213">
        <ele>2336.1399999999999</ele>
        <time>2019-03-11T18:53:33Z</time>
      </trkpt>
      <trkpt lat="32.026661178097129" lon="-5.469887517392635">
        <ele>2336.6199999999999</ele>
        <time>2019-03-11T18:53:34Z</time>
      </trkpt>
      <trkpt lat="32.026662770658731" lon="-5.469990195706487">
        <ele>2337.0999999999999</ele>
        <time>2019-03-11T18:53:36Z</time>
      </trkpt>
      <trkpt lat="32.026658412069082" lon="-5.470183817669749">
        <ele>2337.5799999999999</ele>
        <time>2019-03-11T18:53:37Z</time>
      </trkpt>
      <trkpt lat="32.026645420119166" lon="-5.470284903421998">
        <ele>2337.5799999999999</ele>
        <time>2019-03-11T18:53:39Z</time>
      </trkpt>
      <trkpt lat="32.026628823950887" lon="-5.470518507063389">
        <ele>2337.5799999999999</ele>
        <time>2019-03-11T18:53:40Z</time>
      </trkpt>
      <trkpt lat="32.026653131470084" lon="-5.470639457926154">
        <ele>2338.0599999999999</ele>
        <time>2019-03-11T18:53:41Z</time>
      </trkpt>
      <trkpt lat="32.026703841984272" lon="-5.470751272514463">
        <ele>2338.0599999999999</ele>
        <time>2019-03-11T18:53:42Z</time>
      </trkpt>
      <trkpt lat="32.026780201122165" lon="-5.470846826210618">
        <ele>2339.5100000000002</ele>
        <time>2019-03-11T18:53:43Z</time>
      </trkpt>
      <trkpt lat="32.026873659342527" lon="-5.47092997469008">
        <ele>2340.9499999999998</ele>
        <time>2019-03-11T18:53:44Z</time>
      </trkpt>
      <trkpt lat="32.026974661275744" lon="-5.471006836742163">
        <ele>2341.9099999999999</ele>
        <time>2019-03-11T18:53:54Z</time>
      </trkpt>
      <trkpt lat="32.028173608705401" lon="-5.471832705661655">
        <ele>2341.9099999999999</ele>
        <time>2019-03-11T18:54:04Z</time>
      </trkpt>
      <trkpt lat="32.02925537712872" lon="-5.473024109378457">
        <ele>2341.9099999999999</ele>
        <time>2019-03-11T18:54:11Z</time>
      </trkpt>
      <trkpt lat="32.029760973528028" lon="-5.474129430949688">
        <ele>2342.3899999999999</ele>
        <time>2019-03-11T18:54:12Z</time>
      </trkpt>
      <trkpt lat="32.029800619930029" lon="-5.474304780364037">
        <ele>2342.3899999999999</ele>
        <time>2019-03-11T18:54:13Z</time>
      </trkpt>
      <trkpt lat="32.029826939105988" lon="-5.474483063444495">
        <ele>2343.8299999999999</ele>
        <time>2019-03-11T18:54:14Z</time>
      </trkpt>
      <trkpt lat="32.029842613264918" lon="-5.474663944914937">
        <ele>2344.3099999999999</ele>
        <time>2019-03-11T18:54:15Z</time>
      </trkpt>
      <trkpt lat="32.029850324615836" lon="-5.474846251308918">
        <ele>2344.3099999999999</ele>
        <time>2019-03-11T18:54:26Z</time>
      </trkpt>
      <trkpt lat="32.02988033182919" lon="-5.476739555597305">
        <ele>2343.8299999999999</ele>
        <time>2019-03-11T18:54:27Z</time>
      </trkpt>
      <trkpt lat="32.029861891642213" lon="-5.476850448176265">
        <ele>2342.8699999999999</ele>
        <time>2019-03-11T18:54:28Z</time>
      </trkpt>
      <trkpt lat="32.029817970469594" lon="-5.476942481473088">
        <ele>2342.3899999999999</ele>
        <time>2019-03-11T18:54:29Z</time>
      </trkpt>
      <trkpt lat="32.029749657958746" lon="-5.477012135088444">
        <ele>2339.5100000000002</ele>
        <time>2019-03-11T18:54:30Z</time>
      </trkpt>
      <trkpt lat="32.02966483309865" lon="-5.477068293839693">
        <ele>2339.02</ele>
        <time>2019-03-11T18:54:31Z</time>
      </trkpt>
      <trkpt lat="32.029567686840892" lon="-5.47712286002934">
        <ele>2339.02</ele>
        <time>2019-03-11T18:54:42Z</time>
      </trkpt>
      <trkpt lat="32.028305204585195" lon="-5.477917296811938">
        <ele>2339.02</ele>
        <time>2019-03-11T18:54:47Z</time>
      </trkpt>
      <trkpt lat="32.027631802484393" lon="-5.478237820789218">
        <ele>2339.02</ele>
        <time>2019-03-11T18:54:48Z</time>
      </trkpt>
      <trkpt lat="32.027479335665703" lon="-5.47826187685132">
        <ele>2339.02</ele>
        <time>2019-03-11T18:54:49Z</time>
      </trkpt>
      <trkpt lat="32.02732284553349" lon="-5.47827067784965">
        <ele>2337.5799999999999</ele>
        <time>2019-03-11T18:54:50Z</time>
      </trkpt>
      <trkpt lat="32.027160823345184" lon="-5.47826380468905">
        <ele>2336.6199999999999</ele>
        <time>2019-03-11T18:54:51Z</time>
      </trkpt>
      <trkpt lat="32.026994610205293" lon="-5.478243688121438">
        <ele>2339.9899999999998</ele>
        <time>2019-03-11T18:55:01Z</time>
      </trkpt>
      <trkpt lat="32.025366090238094" lon="-5.477817971259356">
        <ele>2339.9899999999998</ele>
        <time>2019-03-11T18:55:10Z</time>
      </trkpt>
      <trkpt lat="32.024043258279562" lon="-5.477542541921139">
        <ele>2339.9899999999998</ele>
        <time>2019-03-11T18:55:16Z</time>
      </trkpt>
      <trkpt lat="32.023241361603141" lon="-5.477672209963203">
        <ele>2339.9899999999998</ele>
        <time>2019-03-11T18:55:17Z</time>
      </trkpt>
      <trkpt lat="32.023095432668924" lon="-5.477674137800932">
        <ele>2339.9899999999998</ele>
        <time>2019-03-11T18:55:24Z</time>
      </trkpt>
      <trkpt lat="32.022008551284671" lon="-5.477585289627314">
        <ele>2340.9499999999998</ele>
        <time>2019-03-11T18:55:25Z</time>
      </trkpt>
      <trkpt lat="32.021850300952792" lon="-5.477604987099767">
        <ele>2341.4299999999998</ele>
        <time>2019-03-11T18:55:26Z</time>
      </trkpt>
      <trkpt lat="32.021689284592867" lon="-5.477645806968212">
        <ele>2347.1999999999998</ele>
        <time>2019-03-11T18:55:36Z</time>
      </trkpt>
      <trkpt lat="32.020193701609969" lon="-5.478242095559835">
        <ele>2351.52</ele>
        <time>2019-03-11T18:55:50Z</time>
      </trkpt>
      <trkpt lat="32.018190007656813" lon="-5.479036197066307">
        <ele>2351.52</ele>
        <time>2019-03-11T18:56:01Z</time>
      </trkpt>
      <trkpt lat="32.016760976985097" lon="-5.480074966326356">
        <ele>2349.5999999999999</ele>
        <time>2019-03-11T18:56:09Z</time>
      </trkpt>
      <trkpt lat="32.016149684786797" lon="-5.480529684573412">
        <ele>2355.8499999999999</ele>
        <time>2019-03-11T18:56:14Z</time>
      </trkpt>
      <trkpt lat="32.015824383124709" lon="-5.480983480811119">
        <ele>2356.3299999999999</ele>
        <time>2019-03-11T18:56:25Z</time>
      </trkpt>
      <trkpt lat="32.015227256342769" lon="-5.482313688844442">
        <ele>2356.3299999999999</ele>
        <time>2019-03-11T18:56:35Z</time>
      </trkpt>
      <trkpt lat="32.014608001336455" lon="-5.483199907466769">
        <ele>2356.8099999999999</ele>
        <time>2019-03-11T18:56:36Z</time>
      </trkpt>
      <trkpt lat="32.014560643583536" lon="-5.483282217755914">
        <ele>2357.29</ele>
        <time>2019-03-11T18:56:37Z</time>
      </trkpt>
      <trkpt lat="32.014525271952152" lon="-5.483364695683122">
        <ele>2357.77</ele>
        <time>2019-03-11T18:56:38Z</time>
      </trkpt>
      <trkpt lat="32.014501802623272" lon="-5.483445329591632">
        <ele>2358.25</ele>
        <time>2019-03-11T18:56:39Z</time>
      </trkpt>
      <trkpt lat="32.01448705047369" lon="-5.483525292947888">
        <ele>2358.73</ele>
        <time>2019-03-11T18:56:40Z</time>
      </trkpt>
      <trkpt lat="32.014480428770185" lon="-5.483606345951557">
        <ele>0</ele>
        <time>2019-03-11T18:56:41Z</time>
      </trkpt>
      <trkpt lat="32.014480261132121" lon="-5.483690332621336">
        <ele>0</ele>
        <time>2019-03-11T18:56:42Z</time>
      </trkpt>
      <trkpt lat="32.014484703540802" lon="-5.483777252957225">
        <ele>0</ele>
        <time>2019-03-12T08:51:29Z</time>
      </trkpt>
      <trkpt lat="32.014484703540802" lon="-5.483839614316821">
        <ele>0</ele>
        <time>2019-03-12T08:51:38Z</time>
      </trkpt>
      <trkpt lat="32.014492498710752" lon="-5.484169023111463">
        <ele>0</ele>
        <time>2019-03-12T08:51:54Z</time>
      </trkpt>
      <trkpt lat="32.014474729076028" lon="-5.484533719718456">
        <ele>0</ele>
        <time>2019-03-12T08:52:06Z</time>
      </trkpt>
      <trkpt lat="32.014394095167518" lon="-5.484822057187557">
        <ele>0</ele>
        <time>2019-03-12T08:52:07Z</time>
      </trkpt>
      <trkpt lat="32.014273479580879" lon="-5.485099498182535">
        <ele>0</ele>
        <time>2019-03-12T08:52:20Z</time>
      </trkpt>
      <trkpt lat="32.014119001105428" lon="-5.485326312482357">
        <ele>0</ele>
        <time>2019-03-12T08:52:21Z</time>
      </trkpt>
      <trkpt lat="32.013877769932151" lon="-5.485616577789187">
        <ele>0</ele>
        <time>2019-03-12T08:52:22Z</time>
      </trkpt>
      <trkpt lat="32.013456663116813" lon="-5.486037349328399">
        <ele>2352.96</ele>
        <time>2019-03-12T08:52:23Z</time>
      </trkpt>
      <trkpt lat="32.012855932116508" lon="-5.486663142219186">
        <ele>2352</ele>
        <time>2019-03-12T08:52:24Z</time>
      </trkpt>
      <trkpt lat="32.012277496978641" lon="-5.487287761643529">
        <ele>2352</ele>
        <time>2019-03-12T08:52:25Z</time>
      </trkpt>
      <trkpt lat="32.012150092050433" lon="-5.487431595101953">
        <ele>2354.4099999999999</ele>
        <time>2019-03-12T08:52:26Z</time>
      </trkpt>
      <trkpt lat="32.011956386268139" lon="-5.487626893445849">
        <ele>2354.8899999999999</ele>
        <time>2019-03-12T08:52:27Z</time>
      </trkpt>
      <trkpt lat="32.011351631954312" lon="-5.488267103210092">
        <ele>2360.6500000000001</ele>
        <time>2019-03-12T08:52:28Z</time>
      </trkpt>
      <trkpt lat="32.010797252878547" lon="-5.488991048187017">
        <ele>2361.1399999999999</ele>
        <time>2019-03-12T08:52:38Z</time>
      </trkpt>
      <trkpt lat="32.010768251493573" lon="-5.489076292142272">
        <ele>2362.0999999999999</ele>
        <time>2019-03-12T08:52:52Z</time>
      </trkpt>
      <trkpt lat="32.010485110804439" lon="-5.490146996453404">
        <ele>2362.5799999999999</ele>
        <time>2019-03-12T08:53:00Z</time>
      </trkpt>
      <trkpt lat="32.01045585796237" lon="-5.490214638411999">
        <ele>2363.54</ele>
        <time>2019-03-12T08:58:02Z</time>
      </trkpt>
      <trkpt lat="32.010419648140669" lon="-5.490274485200644">
        <ele>2364.02</ele>
        <time>2019-03-12T08:58:29Z</time>
      </trkpt>
      <trkpt lat="32.010375475510955" lon="-5.490323435515165">
        <ele>2364.5</ele>
        <time>2019-03-12T08:59:03Z</time>
      </trkpt>
      <trkpt lat="32.010328201577067" lon="-5.490358304232359">
        <ele>2364.02</ele>
        <time>2019-03-12T08:59:19Z</time>
      </trkpt>
      <trkpt lat="32.010278915986419" lon="-5.490376073867083">
        <ele>2363.54</ele>
        <time>2019-03-12T08:59:33Z</time>
      </trkpt>
      <trkpt lat="32.010231893509626" lon="-5.490380767732859">
        <ele>2357.77</ele>
        <time>2019-03-12T08:59:47Z</time>
      </trkpt>
      <trkpt lat="32.010182859376073" lon="-5.490379007533193">
        <ele>2353.9299999999998</ele>
        <time>2019-03-12T09:00:05Z</time>
      </trkpt>
      <trkpt lat="32.010124269872904" lon="-5.490372972562909">
        <ele>2352.48</ele>
        <time>2019-03-12T09:00:12Z</time>
      </trkpt>
      <trkpt lat="32.009658068418503" lon="-5.490237437188625">
        <ele>2348.1599999999999</ele>
        <time>2019-03-12T09:00:13Z</time>
      </trkpt>
      <trkpt lat="32.009013080969453" lon="-5.489920852705836">
        <ele>2347.6799999999998</ele>
        <time>2019-03-12T09:00:29Z</time>
      </trkpt>
      <trkpt lat="32.008892465382814" lon="-5.489865448325872">
        <ele>2347.6799999999998</ele>
        <time>2019-03-12T09:00:40Z</time>
      </trkpt>
      <trkpt lat="32.008810238912702" lon="-5.489931497722864">
        <ele>2349.1199999999999</ele>
        <time>2019-03-12T09:00:56Z</time>
      </trkpt>
      <trkpt lat="32.008812082931399" lon="-5.489934263750911">
        <ele>2350.0799999999999</ele>
        <time>2019-03-12T09:01:08Z</time>
      </trkpt>
      <trkpt lat="32.008811244741082" lon="-5.489937029778957">
        <ele>2351.52</ele>
        <time>2019-03-12T09:01:10Z</time>
      </trkpt>
      <trkpt lat="32.008624328300357" lon="-5.490217823535204">
        <ele>2351.04</ele>
        <time>2019-03-12T09:01:21Z</time>
      </trkpt>
      <trkpt lat="32.008369937539101" lon="-5.490497276186943">
        <ele>2351.04</ele>
        <time>2019-03-12T09:01:22Z</time>
      </trkpt>
      <trkpt lat="32.00799367390573" lon="-5.490761138498783">
        <ele>2351.04</ele>
        <time>2019-03-12T09:01:33Z</time>
      </trkpt>
      <trkpt lat="32.007489167153835" lon="-5.491200098767877">
        <ele>2353.4400000000001</ele>
        <time>2019-03-12T09:01:42Z</time>
      </trkpt>
      <trkpt lat="32.007255060598254" lon="-5.491351140663028">
        <ele>2354.4099999999999</ele>
        <time>2019-03-12T09:01:53Z</time>
      </trkpt>
      <trkpt lat="32.007221868261695" lon="-5.491378214210272">
        <ele>2354.4099999999999</ele>
        <time>2019-03-12T09:02:00Z</time>
      </trkpt>
      <trkpt lat="32.006701184436679" lon="-5.4916703235358">
        <ele>2355.3699999999999</ele>
        <time>2019-03-12T09:02:01Z</time>
      </trkpt>
      <trkpt lat="32.006544275209308" lon="-5.491877691820264">
        <ele>2355.3699999999999</ele>
        <time>2019-03-12T09:02:02Z</time>
      </trkpt>
      <trkpt lat="32.006284520030022" lon="-5.492259236052632">
        <ele>2355.8499999999999</ele>
        <time>2019-03-12T09:02:03Z</time>
      </trkpt>
      <trkpt lat="32.006101040169597" lon="-5.492657292634249">
        <ele>2356.3299999999999</ele>
        <time>2019-03-12T09:02:04Z</time>
      </trkpt>
      <trkpt lat="32.006044881418347" lon="-5.492719570174813">
        <ele>2356.3299999999999</ele>
        <time>2019-03-12T09:02:11Z</time>
      </trkpt>
      <trkpt lat="32.005757549777627" lon="-5.493253832682967">
        <ele>2355.8499999999999</ele>
        <time>2019-03-12T09:02:13Z</time>
      </trkpt>
      <trkpt lat="32.005740534514189" lon="-5.493297250941396">
        <ele>2355.8499999999999</ele>
        <time>2019-03-12T09:02:14Z</time>
      </trkpt>
      <trkpt lat="32.00558421202004" lon="-5.493591791018844">
        <ele>2356.3299999999999</ele>
        <time>2019-03-12T09:02:22Z</time>
      </trkpt>
      <trkpt lat="32.00542445294559" lon="-5.493805026635528">
        <ele>2356.3299999999999</ele>
        <time>2019-03-12T09:02:23Z</time>
      </trkpt>
      <trkpt lat="32.005205182358623" lon="-5.494228983297944">
        <ele>2356.8099999999999</ele>
        <time>2019-03-12T09:02:27Z</time>
      </trkpt>
      <trkpt lat="32.005256982520223" lon="-5.494589740410447">
        <ele>2357.29</ele>
        <time>2019-03-12T09:02:28Z</time>
      </trkpt>
      <trkpt lat="32.005278104916215" lon="-5.494641456753016">
        <ele>2357.77</ele>
        <time>2019-03-12T09:02:29Z</time>
      </trkpt>
      <trkpt lat="32.005310459062457" lon="-5.494693173095584">
        <ele>2360.1700000000001</ele>
        <time>2019-03-12T09:02:38Z</time>
      </trkpt>
      <trkpt lat="32.005354883149266" lon="-5.494738351553679">
        <ele>2360.6500000000001</ele>
        <time>2019-03-12T09:02:50Z</time>
      </trkpt>
      <trkpt lat="32.005406264215708" lon="-5.494781769812107">
        <ele>2361.1399999999999</ele>
        <time>2019-03-12T09:02:54Z</time>
      </trkpt>
      <trkpt lat="32.005723686888814" lon="-5.495150573551655">
        <ele>2363.0599999999999</ele>
        <time>2019-03-12T09:02:55Z</time>
      </trkpt>
      <trkpt lat="32.005780097097158" lon="-5.495271189138293">
        <ele>2363.54</ele>
        <time>2019-03-12T09:03:06Z</time>
      </trkpt>
      <trkpt lat="32.005809349939227" lon="-5.495319217443466">
        <ele>2364.98</ele>
        <time>2019-03-12T09:03:10Z</time>
      </trkpt>
      <trkpt lat="32.005993081256747" lon="-5.495651727542281">
        <ele>2365.46</ele>
        <time>2019-03-12T09:03:11Z</time>
      </trkpt>
      <trkpt lat="32.005994506180286" lon="-5.495685422793031">
        <ele>2365.46</ele>
        <time>2019-03-12T09:03:12Z</time>
      </trkpt>
      <trkpt lat="32.005974389612675" lon="-5.495843924582005">
        <ele>2366.4200000000001</ele>
        <time>2019-03-12T09:03:26Z</time>
      </trkpt>
      <trkpt lat="32.005958799272776" lon="-5.495894886553288">
        <ele>2366.4200000000001</ele>
        <time>2019-03-12T09:03:30Z</time>
      </trkpt>
      <trkpt lat="32.005952093750238" lon="-5.495949368923903">
        <ele>2366.4200000000001</ele>
        <time>2019-03-12T09:03:31Z</time>
      </trkpt>
      <trkpt lat="32.005798872560263" lon="-5.496409116312861">
        <ele>2366.4200000000001</ele>
        <time>2019-03-12T09:03:32Z</time>
      </trkpt>
      <trkpt lat="32.005605166777968" lon="-5.497068604454398">
        <ele>2366.4200000000001</ele>
        <time>2019-03-12T09:03:35Z</time>
      </trkpt>
      <trkpt lat="32.005560491234064" lon="-5.497313942760229">
        <ele>2367.8600000000001</ele>
        <time>2019-03-12T09:03:36Z</time>
      </trkpt>
      <trkpt lat="32.005540207028389" lon="-5.497369766235352">
        <ele>2368.3499999999999</ele>
        <time>2019-03-12T09:03:43Z</time>
      </trkpt>
      <trkpt lat="32.005401821807027" lon="-5.497856335714459">
        <ele>2368.3499999999999</ele>
        <time>2019-03-12T09:03:44Z</time>
      </trkpt>
      <trkpt lat="32.005368210375309" lon="-5.498053645715118">
        <ele>2372.1900000000001</ele>
        <time>2019-03-12T09:03:53Z</time>
      </trkpt>
      <trkpt lat="32.005345495417714" lon="-5.498108547180891">
        <ele>2370.75</ele>
        <time>2019-03-12T09:03:54Z</time>
      </trkpt>
      <trkpt lat="32.005314482375979" lon="-5.498162861913443">
        <ele>2370.27</ele>
        <time>2019-03-12T09:03:57Z</time>
      </trkpt>
      <trkpt lat="32.004819447174668" lon="-5.498986383900046">
        <ele>2369.3099999999999</ele>
        <time>2019-03-12T09:03:58Z</time>
      </trkpt>
      <trkpt lat="32.004670584574342" lon="-5.499283019453287">
        <ele>2366.9000000000001</ele>
        <time>2019-03-12T09:03:59Z</time>
      </trkpt>
      <trkpt lat="32.004620460793376" lon="-5.49935451708734">
        <ele>2366.4200000000001</ele>
        <time>2019-03-12T09:04:00Z</time>
      </trkpt>
      <trkpt lat="32.004562541842461" lon="-5.499417381361127">
        <ele>2366.4200000000001</ele>
        <time>2019-03-12T09:04:01Z</time>
      </trkpt>
      <trkpt lat="32.004412924870849" lon="-5.499575883150101">
        <ele>2366.4200000000001</ele>
        <time>2019-03-12T09:04:02Z</time>
      </trkpt>
      <trkpt lat="32.004381325095892" lon="-5.499628940597177">
        <ele>2365.9400000000001</ele>
        <time>2019-03-12T09:04:03Z</time>
      </trkpt>
      <trkpt lat="32.004193654283881" lon="-5.499972011893988">
        <ele>2365.9400000000001</ele>
        <time>2019-03-12T09:04:04Z</time>
      </trkpt>
      <trkpt lat="32.004158701747656" lon="-5.500008137896657">
        <ele>2366.9000000000001</ele>
        <time>2019-03-12T09:04:05Z</time>
      </trkpt>
      <trkpt lat="32.00389944948256" lon="-5.500299241393805">
        <ele>2367.3800000000001</ele>
        <time>2019-03-12T09:04:06Z</time>
      </trkpt>
      <trkpt lat="32.0038525108248" lon="-5.500333942472935">
        <ele>2367.3800000000001</ele>
        <time>2019-03-12T09:04:09Z</time>
      </trkpt>
      <trkpt lat="32.003709767013788" lon="-5.500444667413831">
        <ele>2367.8600000000001</ele>
        <time>2019-03-12T09:04:10Z</time>
      </trkpt>
      <trkpt lat="32.003670874983072" lon="-5.500490851700306">
        <ele>2367.8600000000001</ele>
        <time>2019-03-12T09:04:11Z</time>
      </trkpt>
      <trkpt lat="32.003640281036496" lon="-5.50054332241416">
        <ele>2367.8600000000001</ele>
        <time>2019-03-12T09:04:12Z</time>
      </trkpt>
      <trkpt lat="32.003613458946347" lon="-5.500597720965743">
        <ele>2368.3499999999999</ele>
        <time>2019-03-12T09:04:13Z</time>
      </trkpt>
      <trkpt lat="32.003591414541006" lon="-5.500655639916658">
        <ele>2368.3499999999999</ele>
        <time>2019-03-12T09:04:14Z</time>
      </trkpt>
      <trkpt lat="32.003573644906282" lon="-5.500717079266906">
        <ele>2368.8299999999999</ele>
        <time>2019-03-12T09:04:15Z</time>
      </trkpt>
      <trkpt lat="32.003558473661542" lon="-5.500779943540692">
        <ele>2368.8299999999999</ele>
        <time>2019-03-12T09:04:21Z</time>
      </trkpt>
      <trkpt lat="32.00353785417974" lon="-5.500839035958052">
        <ele>2368.8299999999999</ele>
        <time>2019-03-12T09:04:28Z</time>
      </trkpt>
      <trkpt lat="32.003504326567054" lon="-5.500888489186764">
        <ele>2369.3099999999999</ele>
        <time>2019-03-12T09:04:29Z</time>
      </trkpt>
      <trkpt lat="32.003458645194769" lon="-5.500930901616812">
        <ele>2369.79</ele>
        <time>2019-03-12T09:04:30Z</time>
      </trkpt>
      <trkpt lat="32.003308860585093" lon="-5.501049673184753">
        <ele>2369.79</ele>
        <time>2019-03-12T09:04:32Z</time>
      </trkpt>
      <trkpt lat="32.0032705552876" lon="-5.501101138070226">
        <ele>2370.27</ele>
        <time>2019-03-12T09:04:33Z</time>
      </trkpt>
      <trkpt lat="32.003239206969738" lon="-5.501157380640507">
        <ele>2370.75</ele>
        <time>2019-03-12T09:04:34Z</time>
      </trkpt>
      <trkpt lat="32.003211798146367" lon="-5.501217395067215">
        <ele>2370.75</ele>
        <time>2019-03-12T09:04:35Z</time>
      </trkpt>
      <trkpt lat="32.00318849645555" lon="-5.50128067843616">
        <ele>2371.71</ele>
        <time>2019-03-12T09:04:36Z</time>
      </trkpt>
      <trkpt lat="32.003168798983097" lon="-5.501344967633486">
        <ele>2371.71</ele>
        <time>2019-03-12T09:04:37Z</time>
      </trkpt>
      <trkpt lat="32.003150191158056" lon="-5.501409340649843">
        <ele>2371.23</ele>
        <time>2019-03-12T09:04:38Z</time>
      </trkpt>
      <trkpt lat="32.00305706821382" lon="-5.501830112189055">
        <ele>2370.75</ele>
        <time>2019-03-12T09:04:39Z</time>
      </trkpt>
      <trkpt lat="32.002904266119003" lon="-5.50227309577167">
        <ele>2370.75</ele>
        <time>2019-03-12T09:04:40Z</time>
      </trkpt>
      <trkpt lat="32.002877527847886" lon="-5.502330930903554">
        <ele>2370.27</ele>
        <time>2019-03-12T09:04:41Z</time>
      </trkpt>
      <trkpt lat="32.002845341339707" lon="-5.502389520406723">
        <ele>2370.27</ele>
        <time>2019-03-12T09:04:42Z</time>
      </trkpt>
      <trkpt lat="32.002780381590128" lon="-5.502515584230423">
        <ele>2370.27</ele>
        <time>2019-03-12T09:04:43Z</time>
      </trkpt>
      <trkpt lat="32.002757331356406" lon="-5.50258481875062">
        <ele>2370.27</ele>
        <time>2019-03-12T09:04:44Z</time>
      </trkpt>
      <trkpt lat="32.002745931968093" lon="-5.502654891461134">
        <ele>2370.27</ele>
        <time>2019-03-12T09:04:45Z</time>
      </trkpt>
      <trkpt lat="32.002742914482951" lon="-5.502724042162299">
        <ele>2370.27</ele>
        <time>2019-03-12T09:04:57Z</time>
      </trkpt>
      <trkpt lat="32.002736963331699" lon="-5.502788247540593">
        <ele>2369.79</ele>
        <time>2019-03-12T09:04:58Z</time>
      </trkpt>
      <trkpt lat="32.002723719924688" lon="-5.502846669405699">
        <ele>2369.3099999999999</ele>
        <time>2019-03-12T09:04:59Z</time>
      </trkpt>
      <trkpt lat="32.002698574215174" lon="-5.50289997830987">
        <ele>2368.8299999999999</ele>
        <time>2019-03-12T09:05:02Z</time>
      </trkpt>
      <trkpt lat="32.002662196755409" lon="-5.502946581691504">
        <ele>2368.3499999999999</ele>
        <time>2019-03-12T09:05:08Z</time>
      </trkpt>
      <trkpt lat="32.00261970050633" lon="-5.502995615825057">
        <ele>2368.3499999999999</ele>
        <time>2019-03-12T09:05:14Z</time>
      </trkpt>
      <trkpt lat="32.002578712999821" lon="-5.503053534775972">
        <ele>2367.8600000000001</ele>
        <time>2019-03-12T09:05:20Z</time>
      </trkpt>
      <trkpt lat="32.002541664987803" lon="-5.503121763467789">
        <ele>2367.8600000000001</ele>
        <time>2019-03-12T09:05:21Z</time>
      </trkpt>
      <trkpt lat="32.002512915059924" lon="-5.503199128434062">
        <ele>2367.8600000000001</ele>
        <time>2019-03-12T09:05:22Z</time>
      </trkpt>
      <trkpt lat="32.00249221175909" lon="-5.503282025456429">
        <ele>2367.8600000000001</ele>
        <time>2019-03-12T09:05:28Z</time>
      </trkpt>
      <trkpt lat="32.002475867047906" lon="-5.5033646710217">
        <ele>2367.8600000000001</ele>
        <time>2019-03-12T09:05:29Z</time>
      </trkpt>
      <trkpt lat="32.002263218164444" lon="-5.504383910447359">
        <ele>2367.8600000000001</ele>
        <time>2019-03-12T09:05:35Z</time>
      </trkpt>
      <trkpt lat="32.002241676673293" lon="-5.504473429173231">
        <ele>2368.8299999999999</ele>
        <time>2019-03-12T09:05:38Z</time>
      </trkpt>
      <trkpt lat="32.002211082726717" lon="-5.504558421671391">
        <ele>2369.3099999999999</ele>
        <time>2019-03-12T09:05:39Z</time>
      </trkpt>
      <trkpt lat="32.002121144905686" lon="-5.504826307296753">
        <ele>2368.8299999999999</ele>
        <time>2019-03-12T09:05:49Z</time>
      </trkpt>
      <trkpt lat="32.001999523490667" lon="-5.505341039970517">
        <ele>2368.8299999999999</ele>
        <time>2019-03-12T09:05:54Z</time>
      </trkpt>
      <trkpt lat="32.001753179356456" lon="-5.505820317193866">
        <ele>2368.8299999999999</ele>
        <time>2019-03-12T09:05:55Z</time>
      </trkpt>
      <trkpt lat="32.001438606530428" lon="-5.506280986592174">
        <ele>2368.8299999999999</ele>
        <time>2019-03-12T09:06:03Z</time>
      </trkpt>
      <trkpt lat="32.001402983441949" lon="-5.506365979090333">
        <ele>2369.3099999999999</ele>
        <time>2019-03-12T09:06:05Z</time>
      </trkpt>
      <trkpt lat="32.001375071704388" lon="-5.506429681554437">
        <ele>2370.75</ele>
        <time>2019-03-12T09:06:06Z</time>
      </trkpt>
      <trkpt lat="32.001224532723427" lon="-5.50666680559516">
        <ele>2370.27</ele>
        <time>2019-03-12T09:06:11Z</time>
      </trkpt>
      <trkpt lat="32.001202153041959" lon="-5.506714833900333">
        <ele>2370.27</ele>
        <time>2019-03-12T09:06:12Z</time>
      </trkpt>
      <trkpt lat="32.001081956550479" lon="-5.50692773424089">
        <ele>2368.8299999999999</ele>
        <time>2019-03-12T09:06:13Z</time>
      </trkpt>
      <trkpt lat="32.000965448096395" lon="-5.507032591849566">
        <ele>2369.79</ele>
        <time>2019-03-12T09:06:14Z</time>
      </trkpt>
      <trkpt lat="32.000912725925446" lon="-5.507057821378112">
        <ele>2369.79</ele>
        <time>2019-03-12T09:06:15Z</time>
      </trkpt>
      <trkpt lat="32.000304954126477" lon="-5.50738069228828">
        <ele>2369.3099999999999</ele>
        <time>2019-03-12T09:06:16Z</time>
      </trkpt>
      <trkpt lat="32.000004881992936" lon="-5.507524944841862">
        <ele>2369.3099999999999</ele>
        <time>2019-03-12T09:06:19Z</time>
      </trkpt>
      <trkpt lat="31.999946041032672" lon="-5.507539277896285">
        <ele>2369.3099999999999</ele>
        <time>2019-03-12T09:06:21Z</time>
      </trkpt>
      <trkpt lat="31.999315386638045" lon="-5.507715716958046">
        <ele>2369.3099999999999</ele>
        <time>2019-03-12T09:06:22Z</time>
      </trkpt>
      <trkpt lat="31.999136516824365" lon="-5.507779335603118">
        <ele>2369.3099999999999</ele>
        <time>2019-03-12T09:06:23Z</time>
      </trkpt>
      <trkpt lat="31.999049931764603" lon="-5.50782585516572">
        <ele>2369.3099999999999</ele>
        <time>2019-03-12T09:06:24Z</time>
      </trkpt>
      <trkpt lat="31.998667549341917" lon="-5.508053004741669">
        <ele>2369.3099999999999</ele>
        <time>2019-03-12T09:06:25Z</time>
      </trkpt>
      <trkpt lat="31.998608959838748" lon="-5.508095920085907">
        <ele>2369.79</ele>
        <time>2019-03-12T09:06:26Z</time>
      </trkpt>
      <trkpt lat="31.99856118299067" lon="-5.508131207898259">
        <ele>2370.27</ele>
        <time>2019-03-12T09:06:27Z</time>
      </trkpt>
      <trkpt lat="31.998516423627734" lon="-5.508148474618793">
        <ele>2370.27</ele>
        <time>2019-03-12T09:06:35Z</time>
      </trkpt>
      <trkpt lat="31.99847124516964" lon="-5.508152917027473">
        <ele>2369.79</ele>
        <time>2019-03-12T09:06:36Z</time>
      </trkpt>
      <trkpt lat="31.998425060883164" lon="-5.508154341951013">
        <ele>2369.79</ele>
        <time>2019-03-12T09:06:37Z</time>
      </trkpt>
      <trkpt lat="31.998282819986343" lon="-5.508168507367373">
        <ele>2369.3099999999999</ele>
        <time>2019-03-12T09:06:41Z</time>
      </trkpt>
      <trkpt lat="31.998168658465147" lon="-5.508195664733648">
        <ele>2369.3099999999999</ele>
        <time>2019-03-12T09:06:42Z</time>
      </trkpt>
      <trkpt lat="31.998109146952629" lon="-5.508219972252846">
        <ele>2369.3099999999999</ele>
        <time>2019-03-12T09:06:44Z</time>
      </trkpt>
      <trkpt lat="31.998048964887857" lon="-5.508248973637819">
        <ele>2369.79</ele>
        <time>2019-03-12T09:06:54Z</time>
      </trkpt>
      <trkpt lat="31.997991548851132" lon="-5.508282585069537">
        <ele>2369.79</ele>
        <time>2019-03-12T09:06:55Z</time>
      </trkpt>
      <trkpt lat="31.997940586879849" lon="-5.508317789062858">
        <ele>2369.3099999999999</ele>
        <time>2019-03-12T09:06:56Z</time>
      </trkpt>
      <trkpt lat="31.997893648222089" lon="-5.50835844129324">
        <ele>2369.3099999999999</ele>
        <time>2019-03-12T09:06:58Z</time>
      </trkpt>
      <trkpt lat="31.997844781726599" lon="-5.508409151807427">
        <ele>2369.3099999999999</ele>
        <time>2019-03-12T09:06:59Z</time>
      </trkpt>
      <trkpt lat="31.997376149520278" lon="-5.50889597274363">
        <ele>2368.8299999999999</ele>
        <time>2019-03-12T09:07:05Z</time>
      </trkpt>
      <trkpt lat="31.99732250533998" lon="-5.508980127051473">
        <ele>2369.3099999999999</ele>
        <time>2019-03-12T09:07:06Z</time>
      </trkpt>
      <trkpt lat="31.997272716835141" lon="-5.509074255824089">
        <ele>2369.3099999999999</ele>
        <time>2019-03-12T09:07:07Z</time>
      </trkpt>
      <trkpt lat="31.997085632756352" lon="-5.509440461173654">
        <ele>2369.79</ele>
        <time>2019-03-12T09:07:11Z</time>
      </trkpt>
      <trkpt lat="31.997027043253183" lon="-5.509511539712548">
        <ele>2369.79</ele>
        <time>2019-03-12T09:07:12Z</time>
      </trkpt>
      <trkpt lat="31.996886227279902" lon="-5.509643387049437">
        <ele>2370.27</ele>
        <time>2019-03-12T09:07:13Z</time>
      </trkpt>
      <trkpt lat="31.996136633679271" lon="-5.510375713929534">
        <ele>2370.75</ele>
        <time>2019-03-12T09:07:14Z</time>
      </trkpt>
      <trkpt lat="31.996072260662913" lon="-5.510464813560247">
        <ele>2370.75</ele>
        <time>2019-03-12T09:07:15Z</time>
      </trkpt>
      <trkpt lat="31.996013084426522" lon="-5.510562462732196">
        <ele>2371.71</ele>
        <time>2019-03-12T09:07:18Z</time>
      </trkpt>
      <trkpt lat="31.995893893763423" lon="-5.5107556656003">
        <ele>2372.1900000000001</ele>
        <time>2019-03-12T09:07:28Z</time>
      </trkpt>
      <trkpt lat="31.995820635929704" lon="-5.51083386875689">
        <ele>2372.6700000000001</ele>
        <time>2019-03-12T09:07:31Z</time>
      </trkpt>
      <trkpt lat="31.995306825265288" lon="-5.511249527335167">
        <ele>2374.1100000000001</ele>
        <time>2019-03-12T09:07:32Z</time>
      </trkpt>
      <trkpt lat="31.995234908536077" lon="-5.511328149586916">
        <ele>2374.1100000000001</ele>
        <time>2019-03-12T09:07:33Z</time>
      </trkpt>
      <trkpt lat="31.995167937129736" lon="-5.511420099064708">
        <ele>2373.6300000000001</ele>
        <time>2019-03-12T09:07:35Z</time>
      </trkpt>
      <trkpt lat="31.994913881644607" lon="-5.511795356869698">
        <ele>2373.6300000000001</ele>
        <time>2019-03-12T09:07:36Z</time>
      </trkpt>
      <trkpt lat="31.994834924116731" lon="-5.511873979121447">
        <ele>2373.6300000000001</ele>
        <time>2019-03-12T09:07:37Z</time>
      </trkpt>
      <trkpt lat="31.994744902476668" lon="-5.511942291632295">
        <ele>2373.6300000000001</ele>
        <time>2019-03-12T09:07:38Z</time>
      </trkpt>
      <trkpt lat="31.994648678228259" lon="-5.511999204754829">
        <ele>2374.1100000000001</ele>
        <time>2019-03-12T09:07:39Z</time>
      </trkpt>
      <trkpt lat="31.994557231664658" lon="-5.512045724317431">
        <ele>2374.5900000000001</ele>
        <time>2019-03-12T09:07:40Z</time>
      </trkpt>
      <trkpt lat="31.994340224191546" lon="-5.512184528633952">
        <ele>2375.0700000000002</ele>
        <time>2019-03-12T09:07:41Z</time>
      </trkpt>
      <trkpt lat="31.993771931156516" lon="-5.512780733406544">
        <ele>2375.0700000000002</ele>
        <time>2019-03-12T09:07:42Z</time>
      </trkpt>
      <trkpt lat="31.993590630590916" lon="-5.513020120561123">
        <ele>2376.04</ele>
        <time>2019-03-12T09:07:43Z</time>
      </trkpt>
      <trkpt lat="31.993554756045341" lon="-5.513109974563122">
        <ele>2375.5500000000002</ele>
        <time>2019-03-12T09:07:44Z</time>
      </trkpt>
      <trkpt lat="31.993541847914457" lon="-5.513204019516707">
        <ele>2375.5500000000002</ele>
        <time>2019-03-12T09:07:45Z</time>
      </trkpt>
      <trkpt lat="31.993534890934825" lon="-5.513381212949753">
        <ele>2375.0700000000002</ele>
        <time>2019-03-12T09:07:50Z</time>
      </trkpt>
      <trkpt lat="31.993508487939835" lon="-5.513463774695993">
        <ele>2375.0700000000002</ele>
        <time>2019-03-12T09:07:51Z</time>
      </trkpt>
      <trkpt lat="31.993457693606615" lon="-5.513531332835555">
        <ele>2375.0700000000002</ele>
        <time>2019-03-12T09:07:52Z</time>
      </trkpt>
      <trkpt lat="31.993392147123814" lon="-5.513584641739726">
        <ele>2375.0700000000002</ele>
        <time>2019-03-12T09:07:53Z</time>
      </trkpt>
      <trkpt lat="31.993324840441346" lon="-5.513636693358421">
        <ele>2375.5500000000002</ele>
        <time>2019-03-12T09:07:54Z</time>
      </trkpt>
      <trkpt lat="31.993264239281416" lon="-5.513696540147066">
        <ele>2376.04</ele>
        <time>2019-03-12T09:07:55Z</time>
      </trkpt>
      <trkpt lat="31.993212355300784" lon="-5.513769295066595">
        <ele>2376.04</ele>
        <time>2019-03-12T09:07:59Z</time>
      </trkpt>
      <trkpt lat="31.993169691413641" lon="-5.513853533193469">
        <ele>2376.04</ele>
        <time>2019-03-12T09:08:00Z</time>
      </trkpt>
      <trkpt lat="31.993137504905462" lon="-5.513947242870927">
        <ele>2376.52</ele>
        <time>2019-03-12T09:08:02Z</time>
      </trkpt>
      <trkpt lat="31.993113700300455" lon="-5.514049082994461">
        <ele>2376.52</ele>
        <time>2019-03-12T09:08:03Z</time>
      </trkpt>
      <trkpt lat="31.993092410266399" lon="-5.514157377183437">
        <ele>2377</ele>
        <time>2019-03-12T09:08:04Z</time>
      </trkpt>
      <trkpt lat="31.992971207946539" lon="-5.514693399891257">
        <ele>2377</ele>
        <time>2019-03-12T09:08:12Z</time>
      </trkpt>
      <trkpt lat="31.992927119135857" lon="-5.514777218922973">
        <ele>2377.48</ele>
        <time>2019-03-12T09:08:13Z</time>
      </trkpt>
      <trkpt lat="31.992879007011652" lon="-5.514862881973386">
        <ele>2377.48</ele>
        <time>2019-03-12T09:08:14Z</time>
      </trkpt>
      <trkpt lat="31.992839025333524" lon="-5.514958184212446">
        <ele>2378.4400000000001</ele>
        <time>2019-03-12T09:08:15Z</time>
      </trkpt>
      <trkpt lat="31.992811197414994" lon="-5.515061784535646">
        <ele>2378.4400000000001</ele>
        <time>2019-03-12T09:08:16Z</time>
      </trkpt>
      <trkpt lat="31.992793092504144" lon="-5.515170330181718">
        <ele>2377.96</ele>
        <time>2019-03-12T09:08:19Z</time>
      </trkpt>
      <trkpt lat="31.992733664810658" lon="-5.515593783929944">
        <ele>2377.96</ele>
        <time>2019-03-12T09:08:24Z</time>
      </trkpt>
      <trkpt lat="31.992693934589624" lon="-5.515692438930273">
        <ele>2377.96</ele>
        <time>2019-03-12T09:08:25Z</time>
      </trkpt>
      <trkpt lat="31.992590920999646" lon="-5.515887904912233">
        <ele>2379.4000000000001</ele>
        <time>2019-03-12T09:08:26Z</time>
      </trkpt>
      <trkpt lat="31.992532163858414" lon="-5.515979770570993">
        <ele>2379.4000000000001</ele>
        <time>2019-03-12T09:08:32Z</time>
      </trkpt>
      <trkpt lat="31.992466449737549" lon="-5.516061829403043">
        <ele>2379.8800000000001</ele>
        <time>2019-03-12T09:08:33Z</time>
      </trkpt>
      <trkpt lat="31.99190067127347" lon="-5.516693824902177">
        <ele>2380.8400000000001</ele>
        <time>2019-03-12T09:08:34Z</time>
      </trkpt>
      <trkpt lat="31.991826826706529" lon="-5.516753252595663">
        <ele>2381.3200000000002</ele>
        <time>2019-03-12T09:08:35Z</time>
      </trkpt>
      <trkpt lat="31.991744516417384" lon="-5.516794743016362">
        <ele>2383.25</ele>
        <time>2019-03-12T09:08:36Z</time>
      </trkpt>
      <trkpt lat="31.991660613566637" lon="-5.516819469630718">
        <ele>2383.25</ele>
        <time>2019-03-12T09:08:37Z</time>
      </trkpt>
      <trkpt lat="31.991586182266474" lon="-5.516836736351252">
        <ele>2383.25</ele>
        <time>2019-03-12T09:08:38Z</time>
      </trkpt>
      <trkpt lat="31.991455592215061" lon="-5.516893733292818">
        <ele>2382.7600000000002</ele>
        <time>2019-03-12T09:08:42Z</time>
      </trkpt>
      <trkpt lat="31.991245290264487" lon="-5.517070004716516">
        <ele>2382.2800000000002</ele>
        <time>2019-03-12T09:08:53Z</time>
      </trkpt>
      <trkpt lat="31.991186114028096" lon="-5.517095904797316">
        <ele>2382.2800000000002</ele>
        <time>2019-03-12T09:08:56Z</time>
      </trkpt>
      <trkpt lat="31.991113359108567" lon="-5.517106633633375">
        <ele>2382.2800000000002</ele>
        <time>2019-03-12T09:08:57Z</time>
      </trkpt>
      <trkpt lat="31.990570211783051" lon="-5.517126079648733">
        <ele>2382.2800000000002</ele>
        <time>2019-03-12T09:08:58Z</time>
      </trkpt>
      <trkpt lat="31.990488320589066" lon="-5.517114428803325">
        <ele>2381.3200000000002</ele>
        <time>2019-03-12T09:08:59Z</time>
      </trkpt>
      <trkpt lat="31.990405172109604" lon="-5.51710051484406">
        <ele>2381.3200000000002</ele>
        <time>2019-03-12T09:09:00Z</time>
      </trkpt>
      <trkpt lat="31.990323448553681" lon="-5.517099006101489">
        <ele>2380.8400000000001</ele>
        <time>2019-03-12T09:09:01Z</time>
      </trkpt>
      <trkpt lat="31.990242730826139" lon="-5.5171088129282">
        <ele>2380.3600000000001</ele>
        <time>2019-03-12T09:09:02Z</time>
      </trkpt>
      <trkpt lat="31.99016553349793" lon="-5.517128678038716">
        <ele>2380.8400000000001</ele>
        <time>2019-03-12T09:09:03Z</time>
      </trkpt>
      <trkpt lat="31.990097388625145" lon="-5.517153320834041">
        <ele>2380.8400000000001</ele>
        <time>2019-03-12T09:09:04Z</time>
      </trkpt>
      <trkpt lat="31.989855570718646" lon="-5.517298243939877">
        <ele>2380.8400000000001</ele>
        <time>2019-03-12T09:09:05Z</time>
      </trkpt>
      <trkpt lat="31.989142773672938" lon="-5.517941722646356">
        <ele>2380.8400000000001</ele>
        <time>2019-03-12T09:09:06Z</time>
      </trkpt>
      <trkpt lat="31.98891076259315" lon="-5.518150515854359">
        <ele>2381.3200000000002</ele>
        <time>2019-03-12T09:09:07Z</time>
      </trkpt>
      <trkpt lat="31.988838007673621" lon="-5.518233412876725">
        <ele>2380.8400000000001</ele>
        <time>2019-03-12T09:09:08Z</time>
      </trkpt>
      <trkpt lat="31.98877640068531" lon="-5.518329720944166">
        <ele>2380.8400000000001</ele>
        <time>2019-03-12T09:09:12Z</time>
      </trkpt>
      <trkpt lat="31.988727198913693" lon="-5.518438266590238">
        <ele>2380.8400000000001</ele>
        <time>2019-03-12T09:09:14Z</time>
      </trkpt>
      <trkpt lat="31.988677745684981" lon="-5.51854882389307">
        <ele>2381.3200000000002</ele>
        <time>2019-03-12T09:09:15Z</time>
      </trkpt>
      <trkpt lat="31.988619491457939" lon="-5.518656363710761">
        <ele>2381.8000000000002</ele>
        <time>2019-03-12T09:09:17Z</time>
      </trkpt>
      <trkpt lat="31.988561321049929" lon="-5.518763400614262">
        <ele>2382.2800000000002</ele>
        <time>2019-03-12T09:09:18Z</time>
      </trkpt>
      <trkpt lat="31.988511364907026" lon="-5.518872952088714">
        <ele>2382.7600000000002</ele>
        <time>2019-03-12T09:09:19Z</time>
      </trkpt>
      <trkpt lat="31.988470712676644" lon="-5.518986275419593">
        <ele>2383.25</ele>
        <time>2019-03-12T09:09:20Z</time>
      </trkpt>
      <trkpt lat="31.98843827471137" lon="-5.519100688397884">
        <ele>2383.73</ele>
        <time>2019-03-12T09:09:21Z</time>
      </trkpt>
      <trkpt lat="31.988416314125061" lon="-5.519215352833271">
        <ele>2383.73</ele>
        <time>2019-03-12T09:09:22Z</time>
      </trkpt>
      <trkpt lat="31.988400220870972" lon="-5.519321970641613">
        <ele>2384.21</ele>
        <time>2019-03-12T09:09:23Z</time>
      </trkpt>
      <trkpt lat="31.988375745713711" lon="-5.519422134384513">
        <ele>2384.6900000000001</ele>
        <time>2019-03-12T09:09:24Z</time>
      </trkpt>
      <trkpt lat="31.988236606121063" lon="-5.519821867346764">
        <ele>2385.6500000000001</ele>
        <time>2019-03-12T09:09:25Z</time>
      </trkpt>
      <trkpt lat="31.98814851231873" lon="-5.520017081871629">
        <ele>2385.1700000000001</ele>
        <time>2019-03-12T09:09:26Z</time>
      </trkpt>
      <trkpt lat="31.988119427114725" lon="-5.520123532041907">
        <ele>2385.1700000000001</ele>
        <time>2019-03-12T09:09:27Z</time>
      </trkpt>
      <trkpt lat="31.988070979714394" lon="-5.520334420725703">
        <ele>2385.1700000000001</ele>
        <time>2019-03-12T09:09:28Z</time>
      </trkpt>
      <trkpt lat="31.988026304170489" lon="-5.52043441683054">
        <ele>2385.1700000000001</ele>
        <time>2019-03-12T09:09:29Z</time>
      </trkpt>
      <trkpt lat="31.987981041893363" lon="-5.52054095081985">
        <ele>2384.6900000000001</ele>
        <time>2019-03-12T09:09:30Z</time>
      </trkpt>
      <trkpt lat="31.987942988052964" lon="-5.520656369626522">
        <ele>2384.21</ele>
        <time>2019-03-12T09:09:36Z</time>
      </trkpt>
      <trkpt lat="31.987916585057974" lon="-5.520780505612493">
        <ele>2383.73</ele>
        <time>2019-03-12T09:09:37Z</time>
      </trkpt>
      <trkpt lat="31.987891690805554" lon="-5.520901205018163">
        <ele>2383.73</ele>
        <time>2019-03-12T09:09:39Z</time>
      </trkpt>
      <trkpt lat="31.987858079373837" lon="-5.521002793684602">
        <ele>2383.73</ele>
        <time>2019-03-12T09:09:40Z</time>
      </trkpt>
      <trkpt lat="31.9878098834306" lon="-5.52108527161181">
        <ele>2383.73</ele>
        <time>2019-03-12T09:09:41Z</time>
      </trkpt>
      <trkpt lat="31.987745929509401" lon="-5.521160708740354">
        <ele>2383.73</ele>
        <time>2019-03-12T09:09:50Z</time>
      </trkpt>
      <trkpt lat="31.98767401278019" lon="-5.521237151697278">
        <ele>2383.73</ele>
        <time>2019-03-12T09:09:54Z</time>
      </trkpt>
      <trkpt lat="31.987597150728106" lon="-5.521316695958376">
        <ele>2384.21</ele>
        <time>2019-03-12T09:09:55Z</time>
      </trkpt>
      <trkpt lat="31.987524731084704" lon="-5.521407974883914">
        <ele>2385.6500000000001</ele>
        <time>2019-03-12T09:09:56Z</time>
      </trkpt>
      <trkpt lat="31.987463124096394" lon="-5.521513586863875">
        <ele>2385.6500000000001</ele>
        <time>2019-03-12T09:10:07Z</time>
      </trkpt>
      <trkpt lat="31.987411743029952" lon="-5.52162665873766">
        <ele>2386.6100000000001</ele>
        <time>2019-03-12T09:10:08Z</time>
      </trkpt>
      <trkpt lat="31.98710085824132" lon="-5.522283548489213">
        <ele>2386.6100000000001</ele>
        <time>2019-03-12T09:10:09Z</time>
      </trkpt>
      <trkpt lat="31.987059786915779" lon="-5.522379018366337">
        <ele>2386.6100000000001</ele>
        <time>2019-03-12T09:10:10Z</time>
      </trkpt>
      <trkpt lat="31.986972447484732" lon="-5.522550763562322">
        <ele>2386.1300000000001</ele>
        <time>2019-03-12T09:10:19Z</time>
      </trkpt>
      <trkpt lat="31.986907236278057" lon="-5.522614885121584">
        <ele>2387.5700000000002</ele>
        <time>2019-03-12T09:10:22Z</time>
      </trkpt>
      <trkpt lat="31.986835319548845" lon="-5.522680683061481">
        <ele>2387.5700000000002</ele>
        <time>2019-03-12T09:10:23Z</time>
      </trkpt>
      <trkpt lat="31.986117325723171" lon="-5.523397335782647">
        <ele>2387.5700000000002</ele>
        <time>2019-03-12T09:10:24Z</time>
      </trkpt>
      <trkpt lat="31.985863354057074" lon="-5.52368676289916">
        <ele>2389.0100000000002</ele>
        <time>2019-03-12T09:10:26Z</time>
      </trkpt>
      <trkpt lat="31.98582848533988" lon="-5.523776281625032">
        <ele>2389.0100000000002</ele>
        <time>2019-03-12T09:10:27Z</time>
      </trkpt>
      <trkpt lat="31.985811134800315" lon="-5.523877199739218">
        <ele>2389.0100000000002</ele>
        <time>2019-03-12T09:10:28Z</time>
      </trkpt>
      <trkpt lat="31.985778529196978" lon="-5.525156110525131">
        <ele>2389.0100000000002</ele>
        <time>2019-03-12T09:10:29Z</time>
      </trkpt>
      <trkpt lat="31.985779367387295" lon="-5.525278318673372">
        <ele>2390.46</ele>
        <time>2019-03-12T09:10:30Z</time>
      </trkpt>
      <trkpt lat="31.985759167000651" lon="-5.525397174060345">
        <ele>2392.3800000000001</ele>
        <time>2019-03-12T09:10:31Z</time>
      </trkpt>
      <trkpt lat="31.985718514770269" lon="-5.525509240105748">
        <ele>2392.8600000000001</ele>
        <time>2019-03-12T09:10:32Z</time>
      </trkpt>
      <trkpt lat="31.985136726871133" lon="-5.526365451514721">
        <ele>2393.8200000000002</ele>
        <time>2019-03-12T09:10:33Z</time>
      </trkpt>
      <trkpt lat="31.984941344708204" lon="-5.526609113439918">
        <ele>2394.7800000000002</ele>
        <time>2019-03-12T09:10:35Z</time>
      </trkpt>
      <trkpt lat="31.984896836802363" lon="-5.526703828945756">
        <ele>2394.7800000000002</ele>
        <time>2019-03-12T09:10:36Z</time>
      </trkpt>
      <trkpt lat="31.984868422150612" lon="-5.526805920526385">
        <ele>2395.2600000000002</ele>
        <time>2019-03-12T09:10:37Z</time>
      </trkpt>
      <trkpt lat="31.984829194843769" lon="-5.5269830301404">
        <ele>2395.2600000000002</ele>
        <time>2019-03-12T09:10:38Z</time>
      </trkpt>
      <trkpt lat="31.98479700833559" lon="-5.527051845565438">
        <ele>2395.7399999999998</ele>
        <time>2019-03-12T09:10:39Z</time>
      </trkpt>
      <trkpt lat="31.984765827655792" lon="-5.527111776173115">
        <ele>2395.7399999999998</ele>
        <time>2019-03-12T09:10:43Z</time>
      </trkpt>
      <trkpt lat="31.984731210395694" lon="-5.527161480858922">
        <ele>2396.2199999999998</ele>
        <time>2019-03-12T09:10:44Z</time>
      </trkpt>
      <trkpt lat="31.98469583876431" lon="-5.527212023735046">
        <ele>2396.2199999999998</ele>
        <time>2019-03-12T09:10:45Z</time>
      </trkpt>
      <trkpt lat="31.984661389142275" lon="-5.527267344295979">
        <ele>2396.6999999999998</ele>
        <time>2019-03-12T09:10:46Z</time>
      </trkpt>
      <trkpt lat="31.984635321423411" lon="-5.527332723140717">
        <ele>2397.1799999999998</ele>
        <time>2019-03-12T09:10:47Z</time>
      </trkpt>
      <trkpt lat="31.984597267583013" lon="-5.527390725910664">
        <ele>2397.1799999999998</ele>
        <time>2019-03-12T09:10:57Z</time>
      </trkpt>
      <trkpt lat="31.984514957293868" lon="-5.527513185516">
        <ele>2396.6999999999998</ele>
        <time>2019-03-12T09:11:07Z</time>
      </trkpt>
      <trkpt lat="31.984487716108561" lon="-5.527592729777098">
        <ele>2396.6999999999998</ele>
        <time>2019-03-12T09:11:10Z</time>
      </trkpt>
      <trkpt lat="31.984472461044788" lon="-5.527681745588779">
        <ele>2396.2199999999998</ele>
        <time>2019-03-12T09:11:11Z</time>
      </trkpt>
      <trkpt lat="31.984467515721917" lon="-5.527778975665569">
        <ele>2396.6999999999998</ele>
        <time>2019-03-12T09:11:12Z</time>
      </trkpt>
      <trkpt lat="31.984468353912234" lon="-5.527880564332008">
        <ele>2397.1799999999998</ele>
        <time>2019-03-12T09:11:13Z</time>
      </trkpt>
      <trkpt lat="31.984471790492535" lon="-5.528289768844843">
        <ele>2397.6700000000001</ele>
        <time>2019-03-12T09:11:14Z</time>
      </trkpt>
      <trkpt lat="31.984455781057477" lon="-5.528391357511282">
        <ele>2398.1500000000001</ele>
        <time>2019-03-12T09:11:15Z</time>
      </trkpt>
      <trkpt lat="31.984425354748964" lon="-5.528482971712947">
        <ele>2399.1100000000001</ele>
        <time>2019-03-12T09:11:19Z</time>
      </trkpt>
      <trkpt lat="31.984388390555978" lon="-5.528566539287567">
        <ele>2400.5500000000002</ele>
        <time>2019-03-12T09:11:20Z</time>
      </trkpt>
      <trkpt lat="31.984347235411406" lon="-5.528650274500251">
        <ele>2400.5500000000002</ele>
        <time>2019-03-12T09:11:21Z</time>
      </trkpt>
      <trkpt lat="31.984062334522605" lon="-5.529716787859798">
        <ele>2400.5500000000002</ele>
        <time>2019-03-12T09:11:22Z</time>
      </trkpt>
      <trkpt lat="31.983712054789066" lon="-5.530768046155572">
        <ele>2400.0700000000002</ele>
        <time>2019-03-12T09:11:23Z</time>
      </trkpt>
      <trkpt lat="31.983601916581392" lon="-5.530959405004978">
        <ele>2400.0700000000002</ele>
        <time>2019-03-12T09:11:24Z</time>
      </trkpt>
      <trkpt lat="31.983560509979725" lon="-5.531000308692455">
        <ele>2399.5900000000001</ele>
        <time>2019-03-12T09:11:27Z</time>
      </trkpt>
      <trkpt lat="31.983508542180061" lon="-5.531037859618664">
        <ele>2399.5900000000001</ele>
        <time>2019-03-12T09:11:30Z</time>
      </trkpt>
      <trkpt lat="31.983447019010782" lon="-5.531074153259397">
        <ele>2400.0700000000002</ele>
        <time>2019-03-12T09:11:31Z</time>
      </trkpt>
      <trkpt lat="31.983382478356361" lon="-5.531113548204303">
        <ele>2400.0700000000002</ele>
        <time>2019-03-12T09:11:40Z</time>
      </trkpt>
      <trkpt lat="31.983314165845513" lon="-5.531157972291112">
        <ele>2400.0700000000002</ele>
        <time>2019-03-12T09:11:44Z</time>
      </trkpt>
      <trkpt lat="31.983038652688265" lon="-5.531349750235677">
        <ele>2399.5900000000001</ele>
        <time>2019-03-12T09:11:52Z</time>
      </trkpt>
      <trkpt lat="31.982984337955713" lon="-5.531419655308127">
        <ele>2399.5900000000001</ele>
        <time>2019-03-12T09:11:53Z</time>
      </trkpt>
      <trkpt lat="31.982937064021826" lon="-5.53149844519794">
        <ele>2399.5900000000001</ele>
        <time>2019-03-12T09:11:54Z</time>
      </trkpt>
      <trkpt lat="31.982894400134683" lon="-5.531580671668053">
        <ele>2399.5900000000001</ele>
        <time>2019-03-12T09:11:55Z</time>
      </trkpt>
      <trkpt lat="31.982864895835519" lon="-5.531660048291087">
        <ele>2400.0700000000002</ele>
        <time>2019-03-12T09:11:56Z</time>
      </trkpt>
      <trkpt lat="31.9828468747437" lon="-5.531729618087411">
        <ele>2400.5500000000002</ele>
        <time>2019-03-12T09:11:57Z</time>
      </trkpt>
      <trkpt lat="31.982799600809813" lon="-5.531900357455015">
        <ele>2401.9899999999998</ele>
        <time>2019-03-12T09:11:58Z</time>
      </trkpt>
      <trkpt lat="31.982751823961735" lon="-5.53208283148706">
        <ele>2402.9499999999998</ele>
        <time>2019-03-12T09:11:59Z</time>
      </trkpt>
      <trkpt lat="31.982743442058563" lon="-5.532158436253667">
        <ele>2405.3600000000001</ele>
        <time>2019-03-12T09:12:00Z</time>
      </trkpt>
      <trkpt lat="31.982718128710985" lon="-5.533125288784504">
        <ele>2405.8400000000001</ele>
        <time>2019-03-12T09:12:03Z</time>
      </trkpt>
      <trkpt lat="31.982701867818832" lon="-5.533586796373129">
        <ele>2406.3200000000002</ele>
        <time>2019-03-12T09:12:04Z</time>
      </trkpt>
      <trkpt lat="31.982750399038196" lon="-5.534501764923334">
        <ele>2406.3200000000002</ele>
        <time>2019-03-12T09:12:05Z</time>
      </trkpt>
      <trkpt lat="31.982768923044205" lon="-5.534601341933012">
        <ele>2406.8000000000002</ele>
        <time>2019-03-12T09:12:06Z</time>
      </trkpt>
      <trkpt lat="31.982794320210814" lon="-5.534698069095612">
        <ele>2406.8000000000002</ele>
        <time>2019-03-12T09:12:07Z</time>
      </trkpt>
      <trkpt lat="31.982830194756389" lon="-5.534788258373737">
        <ele>2406.8000000000002</ele>
        <time>2019-03-12T09:12:08Z</time>
      </trkpt>
      <trkpt lat="31.982873613014817" lon="-5.534875765442848">
        <ele>2406.8000000000002</ele>
        <time>2019-03-12T09:12:09Z</time>
      </trkpt>
      <trkpt lat="31.982925748452544" lon="-5.534958327189088">
        <ele>2406.3200000000002</ele>
        <time>2019-03-12T09:12:10Z</time>
      </trkpt>
      <trkpt lat="31.982980985194445" lon="-5.535024963319302">
        <ele>2406.3200000000002</ele>
        <time>2019-03-12T09:12:11Z</time>
      </trkpt>
      <trkpt lat="31.983034042641521" lon="-5.535069555044174">
        <ele>2405.8400000000001</ele>
        <time>2019-03-12T09:12:15Z</time>
      </trkpt>
      <trkpt lat="31.983086261898279" lon="-5.535104423761368">
        <ele>2405.3600000000001</ele>
        <time>2019-03-12T09:12:16Z</time>
      </trkpt>
      <trkpt lat="31.983234873041511" lon="-5.535247419029474">
        <ele>2405.3600000000001</ele>
        <time>2019-03-12T09:12:18Z</time>
      </trkpt>
      <trkpt lat="31.983272256329656" lon="-5.535306176170707">
        <ele>2404.3899999999999</ele>
        <time>2019-03-12T09:12:19Z</time>
      </trkpt>
      <trkpt lat="31.983320284634829" lon="-5.535373147577047">
        <ele>2403.9099999999999</ele>
        <time>2019-03-12T09:12:20Z</time>
      </trkpt>
      <trkpt lat="31.983386417850852" lon="-5.535437939688563">
        <ele>2403.4299999999998</ele>
        <time>2019-03-12T09:12:23Z</time>
      </trkpt>
      <trkpt lat="31.983467722311616" lon="-5.53549837321043">
        <ele>2403.4299999999998</ele>
        <time>2019-03-12T09:12:24Z</time>
      </trkpt>
      <trkpt lat="31.983550284057856" lon="-5.535558639094234">
        <ele>2403.4299999999998</ele>
        <time>2019-03-12T09:12:26Z</time>
      </trkpt>
      <trkpt lat="31.983624212443829" lon="-5.535632483661175">
        <ele>2403.9099999999999</ele>
        <time>2019-03-12T09:12:28Z</time>
      </trkpt>
      <trkpt lat="31.983685148879886" lon="-5.535720828920603">
        <ele>2403.9099999999999</ele>
        <time>2019-03-12T09:12:30Z</time>
      </trkpt>
      <trkpt lat="31.983739882707596" lon="-5.535814119502902">
        <ele>2404.3899999999999</ele>
        <time>2019-03-12T09:12:31Z</time>
      </trkpt>
      <trkpt lat="31.983960159122944" lon="-5.536198681220412">
        <ele>2404.3899999999999</ele>
        <time>2019-03-12T09:12:32Z</time>
      </trkpt>
      <trkpt lat="31.984004164114594" lon="-5.536308316513896">
        <ele>2404.8800000000001</ele>
        <time>2019-03-12T09:12:33Z</time>
      </trkpt>
      <trkpt lat="31.984071554616094" lon="-5.536530185490847">
        <ele>2406.3200000000002</ele>
        <time>2019-03-12T09:12:34Z</time>
      </trkpt>
      <trkpt lat="31.984088066965342" lon="-5.536645269021392">
        <ele>2406.8000000000002</ele>
        <time>2019-03-12T09:12:35Z</time>
      </trkpt>
      <trkpt lat="31.984089240431786" lon="-5.536763789132237">
        <ele>2407.2800000000002</ele>
        <time>2019-03-12T09:12:36Z</time>
      </trkpt>
      <trkpt lat="31.984051857143641" lon="-5.537109207361937">
        <ele>2407.7600000000002</ele>
        <time>2019-03-12T09:12:37Z</time>
      </trkpt>
      <trkpt lat="31.984023191034794" lon="-5.537215825170279">
        <ele>2408.7199999999998</ele>
        <time>2019-03-12T09:12:38Z</time>
      </trkpt>
      <trkpt lat="31.983965858817101" lon="-5.537389498203993">
        <ele>2408.2399999999998</ele>
        <time>2019-03-12T09:12:39Z</time>
      </trkpt>
      <trkpt lat="31.983898803591728" lon="-5.537545317783952">
        <ele>2408.2399999999998</ele>
        <time>2019-03-12T09:12:40Z</time>
      </trkpt>
      <trkpt lat="31.983874244615436" lon="-5.537690659984946">
        <ele>2408.7199999999998</ele>
        <time>2019-03-12T09:12:41Z</time>
      </trkpt>
      <trkpt lat="31.983861336484551" lon="-5.537744555622339">
        <ele>2408.7199999999998</ele>
        <time>2019-03-12T09:12:42Z</time>
      </trkpt>
      <trkpt lat="31.983833843842149" lon="-5.537775903940201">
        <ele>2409.1999999999998</ele>
        <time>2019-03-12T09:12:43Z</time>
      </trkpt>
      <trkpt lat="31.983796041458845" lon="-5.537797780707479">
        <ele>2409.6799999999998</ele>
        <time>2019-03-12T09:12:46Z</time>
      </trkpt>
      <trkpt lat="31.983751617372036" lon="-5.537810688838363">
        <ele>2409.6799999999998</ele>
        <time>2019-03-12T09:12:49Z</time>
      </trkpt>
      <trkpt lat="31.983703337609768" lon="-5.537827787920833">
        <ele>2409.6799999999998</ele>
        <time>2019-03-12T09:12:50Z</time>
      </trkpt>
      <trkpt lat="31.98365455493331" lon="-5.537856034934521">
        <ele>2409.6799999999998</ele>
        <time>2019-03-12T09:12:51Z</time>
      </trkpt>
      <trkpt lat="31.983608035370708" lon="-5.537888472899795">
        <ele>2409.6799999999998</ele>
        <time>2019-03-12T09:12:52Z</time>
      </trkpt>
      <trkpt lat="31.983556067571044" lon="-5.537908505648375">
        <ele>2409.6799999999998</ele>
        <time>2019-03-12T09:12:53Z</time>
      </trkpt>
      <trkpt lat="31.983490688726306" lon="-5.537911355495453">
        <ele>2409.1999999999998</ele>
        <time>2019-03-12T09:12:58Z</time>
      </trkpt>
      <trkpt lat="31.983414413407445" lon="-5.53790582343936">
        <ele>2408.7199999999998</ele>
        <time>2019-03-12T09:13:00Z</time>
      </trkpt>
      <trkpt lat="31.983330259099603" lon="-5.537909343838692">
        <ele>2408.7199999999998</ele>
        <time>2019-03-12T09:13:01Z</time>
      </trkpt>
      <trkpt lat="31.983235208317637" lon="-5.537929544225335">
        <ele>2409.1999999999998</ele>
        <time>2019-03-12T09:13:02Z</time>
      </trkpt>
      <trkpt lat="31.983130183070898" lon="-5.537961982190609">
        <ele>2409.1999999999998</ele>
        <time>2019-03-12T09:13:07Z</time>
      </trkpt>
      <trkpt lat="31.98282147757709" lon="-5.538060469552875">
        <ele>2409.6799999999998</ele>
        <time>2019-03-12T09:13:08Z</time>
      </trkpt>
      <trkpt lat="31.982564991340041" lon="-5.538110174238682">
        <ele>2409.6799999999998</ele>
        <time>2019-03-12T09:13:14Z</time>
      </trkpt>
      <trkpt lat="31.982491062954068" lon="-5.538146886974573">
        <ele>2410.1599999999999</ele>
        <time>2019-03-12T09:13:17Z</time>
      </trkpt>
      <trkpt lat="31.982424594461918" lon="-5.538196340203285">
        <ele>2411.1199999999999</ele>
        <time>2019-03-12T09:13:20Z</time>
      </trkpt>
      <trkpt lat="31.982370028272271" lon="-5.538249313831329">
        <ele>2411.1199999999999</ele>
        <time>2019-03-12T09:13:28Z</time>
      </trkpt>
      <trkpt lat="31.982330214232206" lon="-5.538298180326819">
        <ele>2411.1199999999999</ele>
        <time>2019-03-12T09:13:29Z</time>
      </trkpt>
      <trkpt lat="31.982179591432214" lon="-5.538447797298431">
        <ele>2411.1199999999999</ele>
        <time>2019-03-12T09:13:31Z</time>
      </trkpt>
      <trkpt lat="31.982111446559429" lon="-5.538522396236658">
        <ele>2412.5700000000002</ele>
        <time>2019-03-12T09:13:32Z</time>
      </trkpt>
      <trkpt lat="31.982079846784472" lon="-5.538572855293751">
        <ele>2412.5700000000002</ele>
        <time>2019-03-12T09:13:35Z</time>
      </trkpt>
      <trkpt lat="31.982051515951753" lon="-5.538629014045">
        <ele>2414.0100000000002</ele>
        <time>2019-03-12T09:13:36Z</time>
      </trkpt>
      <trkpt lat="31.981874238699675" lon="-5.539008965715766">
        <ele>2414.0100000000002</ele>
        <time>2019-03-12T09:13:42Z</time>
      </trkpt>
      <trkpt lat="31.981845321133733" lon="-5.539104603230953">
        <ele>2413.5300000000002</ele>
        <time>2019-03-12T09:14:06Z</time>
      </trkpt>
      <trkpt lat="31.98173669166863" lon="-5.539751602336764">
        <ele>2414.4899999999998</ele>
        <time>2019-03-12T09:14:13Z</time>
      </trkpt>
      <trkpt lat="31.981631414964795" lon="-5.540065839886665">
        <ele>2414.9699999999998</ele>
        <time>2019-03-12T09:14:15Z</time>
      </trkpt>
      <trkpt lat="31.981471572071314" lon="-5.540351578965783">
        <ele>2415.4499999999998</ele>
        <time>2019-03-12T09:14:18Z</time>
      </trkpt>
      <trkpt lat="31.980964215472341" lon="-5.54111517034471">
        <ele>2415.4499999999998</ele>
        <time>2019-03-12T09:14:28Z</time>
      </trkpt>
      <trkpt lat="31.980924652889371" lon="-5.541220614686608">
        <ele>2414.9699999999998</ele>
        <time>2019-03-12T09:14:29Z</time>
      </trkpt>
      <trkpt lat="31.98085717856884" lon="-5.54140199907124">
        <ele>2414.9699999999998</ele>
        <time>2019-03-12T09:14:30Z</time>
      </trkpt>
      <trkpt lat="31.980801606550813" lon="-5.541471317410469">
        <ele>2414.0100000000002</ele>
        <time>2019-03-12T09:14:31Z</time>
      </trkpt>
      <trkpt lat="31.980627262964845" lon="-5.541632082313299">
        <ele>2412.5700000000002</ele>
        <time>2019-03-12T09:14:32Z</time>
      </trkpt>
      <trkpt lat="31.980569930747151" lon="-5.541661754250526">
        <ele>2413.0500000000002</ele>
        <time>2019-03-12T09:14:33Z</time>
      </trkpt>
      <trkpt lat="31.980415200814605" lon="-5.541725540533662">
        <ele>2414.0100000000002</ele>
        <time>2019-03-12T09:14:34Z</time>
      </trkpt>
      <trkpt lat="31.980375722050667" lon="-5.541748087853193">
        <ele>2416.8899999999999</ele>
        <time>2019-03-12T09:14:35Z</time>
      </trkpt>
      <trkpt lat="31.97985989972949" lon="-5.542032569646835">
        <ele>2423.1399999999999</ele>
        <time>2019-03-12T09:14:36Z</time>
      </trkpt>
      <trkpt lat="31.979683712124825" lon="-5.542145641520619">
        <ele>2423.6199999999999</ele>
        <time>2019-03-12T09:14:37Z</time>
      </trkpt>
      <trkpt lat="31.97944306768477" lon="-5.542342867702246">
        <ele>2424.0999999999999</ele>
        <time>2019-03-12T09:14:38Z</time>
      </trkpt>
      <trkpt lat="31.978648211807013" lon="-5.542947873473167">
        <ele>2424.5799999999999</ele>
        <time>2019-03-12T09:14:39Z</time>
      </trkpt>
      <trkpt lat="31.978598339483142" lon="-5.543037476018071">
        <ele>2425.0599999999999</ele>
        <time>2019-03-12T09:14:40Z</time>
      </trkpt>
      <trkpt lat="31.978559028357267" lon="-5.543129676952958">
        <ele>2425.54</ele>
        <time>2019-03-12T09:14:46Z</time>
      </trkpt>
      <trkpt lat="31.978519465774298" lon="-5.543212490156293">
        <ele>2426.02</ele>
        <time>2019-03-12T09:14:47Z</time>
      </trkpt>
      <trkpt lat="31.978464312851429" lon="-5.543276527896524">
        <ele>2426.02</ele>
        <time>2019-03-12T09:14:48Z</time>
      </trkpt>
      <trkpt lat="31.97839398868382" lon="-5.543327322229743">
        <ele>2426.5</ele>
        <time>2019-03-12T09:14:50Z</time>
      </trkpt>
      <trkpt lat="31.978323999792337" lon="-5.543380966410041">
        <ele>2426.9899999999998</ele>
        <time>2019-03-12T09:14:51Z</time>
      </trkpt>
      <trkpt lat="31.978265075013041" lon="-5.543447434902191">
        <ele>2427.4699999999998</ele>
        <time>2019-03-12T09:14:52Z</time>
      </trkpt>
      <trkpt lat="31.978213023394346" lon="-5.543529242277145">
        <ele>2427.9499999999998</ele>
        <time>2019-03-12T09:14:53Z</time>
      </trkpt>
      <trkpt lat="31.978169940412045" lon="-5.543624879792333">
        <ele>2428.4299999999998</ele>
        <time>2019-03-12T09:14:54Z</time>
      </trkpt>
      <trkpt lat="31.978138508275151" lon="-5.543733676895499">
        <ele>2430.3499999999999</ele>
        <time>2019-03-12T09:14:55Z</time>
      </trkpt>
      <trkpt lat="31.97812425903976" lon="-5.543849347159267">
        <ele>2430.3499999999999</ele>
        <time>2019-03-12T09:14:56Z</time>
      </trkpt>
      <trkpt lat="31.978117553517222" lon="-5.543964430689812">
        <ele>2429.8699999999999</ele>
        <time>2019-03-12T09:15:04Z</time>
      </trkpt>
      <trkpt lat="31.978121995925903" lon="-5.544627523049712">
        <ele>2429.8699999999999</ele>
        <time>2019-03-12T09:15:07Z</time>
      </trkpt>
      <trkpt lat="31.978144124150276" lon="-5.54472902789712">
        <ele>2429.3899999999999</ele>
        <time>2019-03-12T09:15:08Z</time>
      </trkpt>
      <trkpt lat="31.97817899286747" lon="-5.544823659583926">
        <ele>2429.3899999999999</ele>
        <time>2019-03-12T09:15:13Z</time>
      </trkpt>
      <trkpt lat="31.978240767493844" lon="-5.54497973062098">
        <ele>2428.9099999999999</ele>
        <time>2019-03-12T09:15:14Z</time>
      </trkpt>
      <trkpt lat="31.978256860747933" lon="-5.545055167749524">
        <ele>2428.9099999999999</ele>
        <time>2019-03-12T09:15:19Z</time>
      </trkpt>
      <trkpt lat="31.978275468572974" lon="-5.545131023973227">
        <ele>2428.4299999999998</ele>
        <time>2019-03-12T09:15:21Z</time>
      </trkpt>
      <trkpt lat="31.978298434987664" lon="-5.545199755579233">
        <ele>2427.9499999999998</ele>
        <time>2019-03-12T09:15:22Z</time>
      </trkpt>
      <trkpt lat="31.97831972502172" lon="-5.545253148302436">
        <ele>2426.02</ele>
        <time>2019-03-12T09:15:23Z</time>
      </trkpt>
      <trkpt lat="31.978337410837412" lon="-5.545289777219296">
        <ele>2426.02</ele>
        <time>2019-03-12T09:15:24Z</time>
      </trkpt>
      <trkpt lat="31.978350235149264" lon="-5.545314252376556">
        <ele>2426.02</ele>
        <time>2019-03-12T09:15:25Z</time>
      </trkpt>
      <trkpt lat="31.97856405749917" lon="-5.545653970912099">
        <ele>2426.02</ele>
        <time>2019-03-12T09:15:26Z</time>
      </trkpt>
      <trkpt lat="31.978752817958593" lon="-5.545892184600234">
        <ele>2426.02</ele>
        <time>2019-03-12T09:15:27Z</time>
      </trkpt>
      <trkpt lat="31.978831272572279" lon="-5.545965023338795">
        <ele>2426.9899999999998</ele>
        <time>2019-03-12T09:15:35Z</time>
      </trkpt>
      <trkpt lat="31.979193538427353" lon="-5.546365426853299">
        <ele>2427.9499999999998</ele>
        <time>2019-03-12T09:15:38Z</time>
      </trkpt>
      <trkpt lat="31.979243075475097" lon="-5.54645637050271">
        <ele>2428.4299999999998</ele>
        <time>2019-03-12T09:15:45Z</time>
      </trkpt>
      <trkpt lat="31.979430159553885" lon="-5.546911172568798">
        <ele>2428.9099999999999</ele>
        <time>2019-03-12T09:15:47Z</time>
      </trkpt>
      <trkpt lat="31.97949537076056" lon="-5.547067411243916">
        <ele>2428.9099999999999</ele>
        <time>2019-03-12T09:15:50Z</time>
      </trkpt>
      <trkpt lat="31.979505345225334" lon="-5.547145362943411">
        <ele>2429.3899999999999</ele>
        <time>2019-03-12T09:15:56Z</time>
      </trkpt>
      <trkpt lat="31.979504087939858" lon="-5.547227589413524">
        <ele>2429.8699999999999</ele>
        <time>2019-03-12T09:16:01Z</time>
      </trkpt>
      <trkpt lat="31.979500986635685" lon="-5.547313084825873">
        <ele>2430.3499999999999</ele>
        <time>2019-03-12T09:16:05Z</time>
      </trkpt>
      <trkpt lat="31.979506267234683" lon="-5.547398999333382">
        <ele>2431.79</ele>
        <time>2019-03-12T09:16:06Z</time>
      </trkpt>
      <trkpt lat="31.979520851746202" lon="-5.547488769516349">
        <ele>2432.27</ele>
        <time>2019-03-12T09:16:07Z</time>
      </trkpt>
      <trkpt lat="31.979538286104798" lon="-5.547583065927029">
        <ele>2432.27</ele>
        <time>2019-03-12T09:16:08Z</time>
      </trkpt>
      <trkpt lat="31.979671893641353" lon="-5.548372054472566">
        <ele>2433.23</ele>
        <time>2019-03-12T09:16:09Z</time>
      </trkpt>
      <trkpt lat="31.979703158140182" lon="-5.548641448840499">
        <ele>2433.71</ele>
        <time>2019-03-12T09:16:10Z</time>
      </trkpt>
      <trkpt lat="31.979836514219642" lon="-5.548949902877212">
        <ele>2435.1599999999999</ele>
        <time>2019-03-12T09:16:11Z</time>
      </trkpt>
      <trkpt lat="31.979902479797602" lon="-5.54900212213397">
        <ele>2434.6799999999998</ele>
        <time>2019-03-12T09:16:12Z</time>
      </trkpt>
      <trkpt lat="31.980028878897429" lon="-5.549085522070527">
        <ele>2434.6799999999998</ele>
        <time>2019-03-12T09:16:13Z</time>
      </trkpt>
      <trkpt lat="31.98041494935751" lon="-5.549063058570027">
        <ele>2434.6799999999998</ele>
        <time>2019-03-12T09:16:14Z</time>
      </trkpt>
      <trkpt lat="31.980673782527447" lon="-5.549269840121269">
        <ele>2434.6799999999998</ele>
        <time>2019-03-12T09:16:15Z</time>
      </trkpt>
      <trkpt lat="31.980792973190546" lon="-5.549585167318583">
        <ele>2435.1599999999999</ele>
        <time>2019-03-12T09:16:16Z</time>
      </trkpt>
      <trkpt lat="31.980805965140462" lon="-5.549665298312903">
        <ele>2435.1599999999999</ele>
        <time>2019-03-12T09:16:17Z</time>
      </trkpt>
      <trkpt lat="31.9808005169034" lon="-5.549751464277506">
        <ele>2435.6399999999999</ele>
        <time>2019-03-12T09:16:18Z</time>
      </trkpt>
      <trkpt lat="31.980788866057992" lon="-5.549838049337268">
        <ele>2435.6399999999999</ele>
        <time>2019-03-12T09:16:19Z</time>
      </trkpt>
      <trkpt lat="31.980788530781865" lon="-5.549925221130252">
        <ele>2435.6399999999999</ele>
        <time>2019-03-12T09:16:20Z</time>
      </trkpt>
      <trkpt lat="31.980805797502398" lon="-5.550006106495857">
        <ele>2435.6399999999999</ele>
        <time>2019-03-12T09:16:21Z</time>
      </trkpt>
      <trkpt lat="31.980832284316421" lon="-5.550085986033082">
        <ele>2435.6399999999999</ele>
        <time>2019-03-12T09:16:22Z</time>
      </trkpt>
      <trkpt lat="31.98086204007268" lon="-5.550169888883829">
        <ele>2435.6399999999999</ele>
        <time>2019-03-12T09:16:23Z</time>
      </trkpt>
      <trkpt lat="31.980903279036283" lon="-5.550248846411705">
        <ele>2435.6399999999999</ele>
        <time>2019-03-12T09:16:24Z</time>
      </trkpt>
      <trkpt lat="31.980953989550471" lon="-5.550312716513872">
        <ele>2435.6399999999999</ele>
        <time>2019-03-12T09:16:25Z</time>
      </trkpt>
      <trkpt lat="31.981012998148799" lon="-5.550355212762952">
        <ele>2435.6399999999999</ele>
        <time>2019-03-12T09:16:26Z</time>
      </trkpt>
      <trkpt lat="31.981080723926425" lon="-5.550383375957608">
        <ele>2435.6399999999999</ele>
        <time>2019-03-12T09:16:28Z</time>
      </trkpt>
      <trkpt lat="31.98114744387567" lon="-5.550412628799677">
        <ele>2436.1199999999999</ele>
        <time>2019-03-12T09:16:31Z</time>
      </trkpt>
      <trkpt lat="31.981206284835935" lon="-5.550448754802346">
        <ele>2436.1199999999999</ele>
        <time>2019-03-12T09:16:32Z</time>
      </trkpt>
      <trkpt lat="31.981258084997535" lon="-5.550481108948588">
        <ele>2436.1199999999999</ele>
        <time>2019-03-12T09:16:33Z</time>
      </trkpt>
      <trkpt lat="31.981314579024911" lon="-5.550499297678471">
        <ele>2436.5999999999999</ele>
        <time>2019-03-12T09:16:35Z</time>
      </trkpt>
      <trkpt lat="31.981376186013222" lon="-5.550517067313194">
        <ele>2437.0799999999999</ele>
        <time>2019-03-12T09:16:36Z</time>
      </trkpt>
      <trkpt lat="31.981439888477325" lon="-5.550550762563944">
        <ele>2437.5599999999999</ele>
        <time>2019-03-12T09:16:37Z</time>
      </trkpt>
      <trkpt lat="31.981502082198858" lon="-5.550604155287147">
        <ele>2437.5599999999999</ele>
        <time>2019-03-12T09:16:38Z</time>
      </trkpt>
      <trkpt lat="31.981565533205867" lon="-5.550654781982303">
        <ele>2438.52</ele>
        <time>2019-03-12T09:16:39Z</time>
      </trkpt>
      <trkpt lat="31.981637785211205" lon="-5.550686800852418">
        <ele>2439.48</ele>
        <time>2019-03-12T09:16:40Z</time>
      </trkpt>
      <trkpt lat="31.98171766474843" lon="-5.550698200240731">
        <ele>2439.96</ele>
        <time>2019-03-12T09:16:41Z</time>
      </trkpt>
      <trkpt lat="31.981891086325049" lon="-5.550680933520198">
        <ele>2440.4400000000001</ele>
        <time>2019-03-12T09:16:42Z</time>
      </trkpt>
      <trkpt lat="31.982149332761765" lon="-5.550648244097829">
        <ele>2440.9200000000001</ele>
        <time>2019-03-12T09:16:43Z</time>
      </trkpt>
      <trkpt lat="31.98222435079515" lon="-5.550656961277127">
        <ele>2441.8899999999999</ele>
        <time>2019-03-12T09:16:44Z</time>
      </trkpt>
      <trkpt lat="31.982294004410505" lon="-5.550684286281467">
        <ele>2441.8899999999999</ele>
        <time>2019-03-12T09:16:45Z</time>
      </trkpt>
      <trkpt lat="31.982432305812836" lon="-5.550744635984302">
        <ele>2441.8899999999999</ele>
        <time>2019-03-12T09:16:46Z</time>
      </trkpt>
      <trkpt lat="31.982506820932031" lon="-5.550764501094818">
        <ele>2441.8899999999999</ele>
        <time>2019-03-12T09:16:47Z</time>
      </trkpt>
      <trkpt lat="31.982579156756401" lon="-5.550793837755919">
        <ele>2442.3699999999999</ele>
        <time>2019-03-12T09:16:48Z</time>
      </trkpt>
      <trkpt lat="31.9826465472579" lon="-5.550832478329539">
        <ele>2442.8499999999999</ele>
        <time>2019-03-12T09:16:49Z</time>
      </trkpt>
      <trkpt lat="31.98270320892334" lon="-5.550882518291473">
        <ele>2442.8499999999999</ele>
        <time>2019-03-12T09:16:53Z</time>
      </trkpt>
      <trkpt lat="31.982758529484272" lon="-5.550929037854075">
        <ele>2443.3299999999999</ele>
        <time>2019-03-12T09:16:57Z</time>
      </trkpt>
      <trkpt lat="31.982813933864236" lon="-5.550970863550901">
        <ele>2443.3299999999999</ele>
        <time>2019-03-12T09:17:00Z</time>
      </trkpt>
      <trkpt lat="31.982862213626504" lon="-5.551020819693804">
        <ele>2443.8099999999999</ele>
        <time>2019-03-12T09:17:01Z</time>
      </trkpt>
      <trkpt lat="31.9828986749053" lon="-5.551086952909827">
        <ele>2443.8099999999999</ele>
        <time>2019-03-12T09:17:06Z</time>
      </trkpt>
      <trkpt lat="31.982922898605466" lon="-5.5511608812958">
        <ele>2444.29</ele>
        <time>2019-03-12T09:17:07Z</time>
      </trkpt>
      <trkpt lat="31.9829436019063" lon="-5.551238832995296">
        <ele>2444.29</ele>
        <time>2019-03-12T09:17:09Z</time>
      </trkpt>
      <trkpt lat="31.982958940789104" lon="-5.551315527409315">
        <ele>2444.29</ele>
        <time>2019-03-12T09:17:16Z</time>
      </trkpt>
      <trkpt lat="31.98296464048326" lon="-5.551385181024671">
        <ele>2444.77</ele>
        <time>2019-03-12T09:17:17Z</time>
      </trkpt>
      <trkpt lat="31.982950894162059" lon="-5.551449554041028">
        <ele>2446.21</ele>
        <time>2019-03-12T09:17:18Z</time>
      </trkpt>
      <trkpt lat="31.982927089557052" lon="-5.551508814096451">
        <ele>2447.1700000000001</ele>
        <time>2019-03-12T09:17:21Z</time>
      </trkpt>
      <trkpt lat="31.982813514769077" lon="-5.551747363060713">
        <ele>2447.6500000000001</ele>
        <time>2019-03-12T09:17:22Z</time>
      </trkpt>
      <trkpt lat="31.982724331319332" lon="-5.552061852067709">
        <ele>2449.0999999999999</ele>
        <time>2019-03-12T09:17:29Z</time>
      </trkpt>
      <trkpt lat="31.982671525329351" lon="-5.552333677187562">
        <ele>2449.0999999999999</ele>
        <time>2019-03-12T09:17:30Z</time>
      </trkpt>
      <trkpt lat="31.982635147869587" lon="-5.55242688395083">
        <ele>2449.5799999999999</ele>
        <time>2019-03-12T09:17:31Z</time>
      </trkpt>
      <trkpt lat="31.98250531218946" lon="-5.552843296900392">
        <ele>2451.02</ele>
        <time>2019-03-12T09:17:32Z</time>
      </trkpt>
      <trkpt lat="31.982485027983785" lon="-5.552885038778186">
        <ele>2451.02</ele>
        <time>2019-03-12T09:17:33Z</time>
      </trkpt>
      <trkpt lat="31.982437334954739" lon="-5.552964918315411">
        <ele>2451.02</ele>
        <time>2019-03-12T09:17:34Z</time>
      </trkpt>
      <trkpt lat="31.98234505020082" lon="-5.553478058427572">
        <ele>2451.98</ele>
        <time>2019-03-12T09:17:39Z</time>
      </trkpt>
      <trkpt lat="31.982352593913674" lon="-5.553562128916383">
        <ele>2451.98</ele>
        <time>2019-03-12T09:17:43Z</time>
      </trkpt>
      <trkpt lat="31.982361227273941" lon="-5.553644187748432">
        <ele>2453.4200000000001</ele>
        <time>2019-03-12T09:17:44Z</time>
      </trkpt>
      <trkpt lat="31.982367010787129" lon="-5.553883071988821">
        <ele>2453.4200000000001</ele>
        <time>2019-03-12T09:17:46Z</time>
      </trkpt>
      <trkpt lat="31.982356701046228" lon="-5.553959095850587">
        <ele>2453.9000000000001</ele>
        <time>2019-03-12T09:17:49Z</time>
      </trkpt>
      <trkpt lat="31.982282353565097" lon="-5.554375844076276">
        <ele>2454.3800000000001</ele>
        <time>2019-03-12T09:17:55Z</time>
      </trkpt>
      <trkpt lat="31.982261063531041" lon="-5.554426722228527">
        <ele>2454.8600000000001</ele>
        <time>2019-03-12T09:18:06Z</time>
      </trkpt>
      <trkpt lat="31.982236001640558" lon="-5.554473493248224">
        <ele>2454.8600000000001</ele>
        <time>2019-03-12T09:18:20Z</time>
      </trkpt>
      <trkpt lat="31.982217980548739" lon="-5.554527137428522">
        <ele>2455.8200000000002</ele>
        <time>2019-03-12T09:18:21Z</time>
      </trkpt>
      <trkpt lat="31.982207838445902" lon="-5.554591175168753">
        <ele>2456.79</ele>
        <time>2019-03-12T09:18:24Z</time>
      </trkpt>
      <trkpt lat="31.982199372723699" lon="-5.554664181545377">
        <ele>2457.27</ele>
        <time>2019-03-12T09:18:26Z</time>
      </trkpt>
      <trkpt lat="31.982165928930044" lon="-5.555045893415809">
        <ele>2457.27</ele>
        <time>2019-03-12T09:18:27Z</time>
      </trkpt>
      <trkpt lat="31.982146231457591" lon="-5.555323418229818">
        <ele>2457.75</ele>
        <time>2019-03-12T09:18:28Z</time>
      </trkpt>
      <trkpt lat="31.982127372175455" lon="-5.55538360029459">
        <ele>2458.23</ele>
        <time>2019-03-12T09:18:29Z</time>
      </trkpt>
      <trkpt lat="31.982100298628211" lon="-5.555462809279561">
        <ele>2456.79</ele>
        <time>2019-03-12T09:18:30Z</time>
      </trkpt>
      <trkpt lat="31.982082026079297" lon="-5.55559080094099">
        <ele>2457.27</ele>
        <time>2019-03-12T09:18:31Z</time>
      </trkpt>
      <trkpt lat="31.982235163450241" lon="-5.555718541145325">
        <ele>2457.27</ele>
        <time>2019-03-12T09:18:32Z</time>
      </trkpt>
      <trkpt lat="31.982352929189801" lon="-5.55579942651093">
        <ele>2458.23</ele>
        <time>2019-03-12T09:18:33Z</time>
      </trkpt>
      <trkpt lat="31.982414200901985" lon="-5.555900847539306">
        <ele>2459.1900000000001</ele>
        <time>2019-03-12T09:18:36Z</time>
      </trkpt>
      <trkpt lat="31.982436999678612" lon="-5.555951558053494">
        <ele>2459.1900000000001</ele>
        <time>2019-03-12T09:18:39Z</time>
      </trkpt>
      <trkpt lat="31.982501875609159" lon="-5.55613998323679">
        <ele>2459.6700000000001</ele>
        <time>2019-03-12T09:18:40Z</time>
      </trkpt>
      <trkpt lat="31.982539929449558" lon="-5.556274428963661">
        <ele>2460.1500000000001</ele>
        <time>2019-03-12T09:18:41Z</time>
      </trkpt>
      <trkpt lat="31.982564320787787" lon="-5.556336119771004">
        <ele>2460.1500000000001</ele>
        <time>2019-03-12T09:18:42Z</time>
      </trkpt>
      <trkpt lat="31.982572367414832" lon="-5.556400241330266">
        <ele>2460.1500000000001</ele>
        <time>2019-03-12T09:18:43Z</time>
      </trkpt>
      <trkpt lat="31.982559291645885" lon="-5.556465787813067">
        <ele>2460.1500000000001</ele>
        <time>2019-03-12T09:18:44Z</time>
      </trkpt>
      <trkpt lat="31.982542360201478" lon="-5.556529155001044">
        <ele>2459.6700000000001</ele>
        <time>2019-03-12T09:18:45Z</time>
      </trkpt>
      <trkpt lat="31.982531044632196" lon="-5.556592186912894">
        <ele>2459.6700000000001</ele>
        <time>2019-03-12T09:18:46Z</time>
      </trkpt>
      <trkpt lat="31.982515538111329" lon="-5.556654715910554">
        <ele>2459.6700000000001</ele>
        <time>2019-03-12T09:18:47Z</time>
      </trkpt>
      <trkpt lat="31.982488883659244" lon="-5.556712383404374">
        <ele>2459.6700000000001</ele>
        <time>2019-03-12T09:18:48Z</time>
      </trkpt>
      <trkpt lat="31.982406741008162" lon="-5.556906424462795">
        <ele>2459.6700000000001</ele>
        <time>2019-03-12T09:18:49Z</time>
      </trkpt>
      <trkpt lat="31.982356952503324" lon="-5.55714949965477">
        <ele>2459.6700000000001</ele>
        <time>2019-03-12T09:18:53Z</time>
      </trkpt>
      <trkpt lat="31.982353515923023" lon="-5.557234240695834">
        <ele>2459.6700000000001</ele>
        <time>2019-03-12T09:18:54Z</time>
      </trkpt>
      <trkpt lat="31.982356952503324" lon="-5.557318395003676">
        <ele>2459.6700000000001</ele>
        <time>2019-03-12T09:18:55Z</time>
      </trkpt>
      <trkpt lat="31.982368184253573" lon="-5.55739919655025">
        <ele>2459.6700000000001</ele>
        <time>2019-03-12T09:18:56Z</time>
      </trkpt>
      <trkpt lat="31.982382014393806" lon="-5.557479998096824">
        <ele>2459.6700000000001</ele>
        <time>2019-03-12T09:18:57Z</time>
      </trkpt>
      <trkpt lat="31.982388636097312" lon="-5.557556357234716">
        <ele>2459.6700000000001</ele>
        <time>2019-03-12T09:18:58Z</time>
      </trkpt>
      <trkpt lat="31.98237388394773" lon="-5.557626765221357">
        <ele>2460.1500000000001</ele>
        <time>2019-03-12T09:19:07Z</time>
      </trkpt>
      <trkpt lat="31.982347229495645" lon="-5.557695915922523">
        <ele>2460.1500000000001</ele>
        <time>2019-03-12T09:19:13Z</time>
      </trkpt>
      <trkpt lat="31.982327532023191" lon="-5.557774202898145">
        <ele>2460.6300000000001</ele>
        <time>2019-03-12T09:19:16Z</time>
      </trkpt>
      <trkpt lat="31.982318395748734" lon="-5.557860368862748">
        <ele>2460.6300000000001</ele>
        <time>2019-03-12T09:19:18Z</time>
      </trkpt>
      <trkpt lat="31.982312109321356" lon="-5.557948211207986">
        <ele>2460.6300000000001</ele>
        <time>2019-03-12T09:19:19Z</time>
      </trkpt>
      <trkpt lat="31.982275731861591" lon="-5.558293629437685">
        <ele>2460.6300000000001</ele>
        <time>2019-03-12T09:19:20Z</time>
      </trkpt>
      <trkpt lat="31.982269361615181" lon="-5.558370659127832">
        <ele>2460.6300000000001</ele>
        <time>2019-03-12T09:19:21Z</time>
      </trkpt>
      <trkpt lat="31.98225268162787" lon="-5.558432517573237">
        <ele>2461.1100000000001</ele>
        <time>2019-03-12T09:19:22Z</time>
      </trkpt>
      <trkpt lat="31.98222242295742" lon="-5.558473924174905">
        <ele>2461.5900000000001</ele>
        <time>2019-03-12T09:19:23Z</time>
      </trkpt>
      <trkpt lat="31.982183279469609" lon="-5.558497896417975">
        <ele>2463.52</ele>
        <time>2019-03-12T09:19:24Z</time>
      </trkpt>
      <trkpt lat="31.982143884524703" lon="-5.558514827862382">
        <ele>2464.48</ele>
        <time>2019-03-12T09:19:34Z</time>
      </trkpt>
      <trkpt lat="31.981911035254598" lon="-5.558714400976896">
        <ele>2464.96</ele>
        <time>2019-03-12T09:19:44Z</time>
      </trkpt>
      <trkpt lat="31.981731243431568" lon="-5.559091586619616">
        <ele>2464.96</ele>
        <time>2019-03-12T09:19:46Z</time>
      </trkpt>
      <trkpt lat="31.981655303388834" lon="-5.559330973774195">
        <ele>2464.96</ele>
        <time>2019-03-12T09:19:53Z</time>
      </trkpt>
      <trkpt lat="31.981596210971475" lon="-5.559472208842635">
        <ele>2465.4400000000001</ele>
        <time>2019-03-12T09:19:54Z</time>
      </trkpt>
      <trkpt lat="31.981592439115047" lon="-5.55953155271709">
        <ele>2465.4400000000001</ele>
        <time>2019-03-12T09:19:56Z</time>
      </trkpt>
      <trkpt lat="31.981600653380156" lon="-5.559580503031611">
        <ele>2465.9200000000001</ele>
        <time>2019-03-12T09:19:59Z</time>
      </trkpt>
      <trkpt lat="31.981615237891674" lon="-5.55962341837585">
        <ele>2465.9200000000001</ele>
        <time>2019-03-12T09:20:00Z</time>
      </trkpt>
      <trkpt lat="31.981635354459286" lon="-5.559668010100722">
        <ele>2467.3600000000001</ele>
        <time>2019-03-12T09:20:01Z</time>
      </trkpt>
      <trkpt lat="31.981653040274978" lon="-5.559722911566496">
        <ele>2466.4000000000001</ele>
        <time>2019-03-12T09:20:06Z</time>
      </trkpt>
      <trkpt lat="31.981666116043925" lon="-5.559782423079014">
        <ele>2466.8800000000001</ele>
        <time>2019-03-12T09:20:07Z</time>
      </trkpt>
      <trkpt lat="31.981845991685987" lon="-5.560407796874642">
        <ele>2466.8800000000001</ele>
        <time>2019-03-12T09:20:08Z</time>
      </trkpt>
      <trkpt lat="31.981953447684646" lon="-5.560726979747415">
        <ele>2466.8800000000001</ele>
        <time>2019-03-12T09:20:09Z</time>
      </trkpt>
      <trkpt lat="31.981953112408519" lon="-5.560766961425543">
        <ele>2467.3600000000001</ele>
        <time>2019-03-12T09:20:10Z</time>
      </trkpt>
      <trkpt lat="31.981821935623884" lon="-5.560992434620857">
        <ele>2467.8400000000001</ele>
        <time>2019-03-12T09:20:11Z</time>
      </trkpt>
      <trkpt lat="31.981786983087659" lon="-5.561023950576782">
        <ele>2467.8400000000001</ele>
        <time>2019-03-12T09:20:12Z</time>
      </trkpt>
      <trkpt lat="31.981704253703356" lon="-5.561089916154742">
        <ele>2468.3200000000002</ele>
        <time>2019-03-12T09:20:13Z</time>
      </trkpt>
      <trkpt lat="31.981580452993512" lon="-5.561218243092299">
        <ele>2470.2399999999998</ele>
        <time>2019-03-12T09:20:14Z</time>
      </trkpt>
      <trkpt lat="31.981546841561794" lon="-5.561266355216503">
        <ele>2470.73</ele>
        <time>2019-03-12T09:20:15Z</time>
      </trkpt>
      <trkpt lat="31.981514068320394" lon="-5.561313880607486">
        <ele>2470.73</ele>
        <time>2019-03-12T09:20:16Z</time>
      </trkpt>
      <trkpt lat="31.98133553378284" lon="-5.56161311455071">
        <ele>2471.21</ele>
        <time>2019-03-12T09:20:17Z</time>
      </trkpt>
      <trkpt lat="31.981296306475997" lon="-5.561672793701291">
        <ele>2471.6900000000001</ele>
        <time>2019-03-12T09:20:24Z</time>
      </trkpt>
      <trkpt lat="31.981265461072326" lon="-5.561739932745695">
        <ele>2472.1700000000001</ele>
        <time>2019-03-12T09:20:26Z</time>
      </trkpt>
      <trkpt lat="31.981235537678003" lon="-5.561805814504623">
        <ele>2472.1700000000001</ele>
        <time>2019-03-12T09:20:27Z</time>
      </trkpt>
      <trkpt lat="31.981202932074666" lon="-5.56186817586422">
        <ele>2472.6500000000001</ele>
        <time>2019-03-12T09:20:31Z</time>
      </trkpt>
      <trkpt lat="31.981165716424584" lon="-5.561923077329993">
        <ele>2473.1300000000001</ele>
        <time>2019-03-12T09:20:33Z</time>
      </trkpt>
      <trkpt lat="31.981119364500046" lon="-5.561970267444849">
        <ele>2473.1300000000001</ele>
        <time>2019-03-12T09:20:37Z</time>
      </trkpt>
      <trkpt lat="31.981066139414907" lon="-5.562009578570724">
        <ele>2473.6100000000001</ele>
        <time>2019-03-12T09:20:38Z</time>
      </trkpt>
      <trkpt lat="31.981008974835277" lon="-5.562046626582742">
        <ele>2473.6100000000001</ele>
        <time>2019-03-12T09:20:40Z</time>
      </trkpt>
      <trkpt lat="31.980956168845296" lon="-5.562089374288917">
        <ele>2475.5300000000002</ele>
        <time>2019-03-12T09:20:41Z</time>
      </trkpt>
      <trkpt lat="31.980913588777184" lon="-5.562142599374056">
        <ele>2476.0100000000002</ele>
        <time>2019-03-12T09:20:42Z</time>
      </trkpt>
      <trkpt lat="31.980875702574849" lon="-5.56220781058073">
        <ele>2476.4899999999998</ele>
        <time>2019-03-12T09:20:43Z</time>
      </trkpt>
      <trkpt lat="31.980566410347819" lon="-5.562672168016434">
        <ele>2477.9400000000001</ele>
        <time>2019-03-12T09:20:44Z</time>
      </trkpt>
      <trkpt lat="31.980470856651664" lon="-5.562820779159665">
        <ele>2478.9000000000001</ele>
        <time>2019-03-12T09:20:45Z</time>
      </trkpt>
      <trkpt lat="31.980411848053336" lon="-5.562891941517592">
        <ele>2480.3400000000001</ele>
        <time>2019-03-12T09:20:50Z</time>
      </trkpt>
      <trkpt lat="31.980151506140828" lon="-5.563181955367327">
        <ele>2480.8200000000002</ele>
        <time>2019-03-12T09:20:51Z</time>
      </trkpt>
      <trkpt lat="31.980042206123471" lon="-5.563353868201375">
        <ele>2482.2600000000002</ele>
        <time>2019-03-12T09:20:52Z</time>
      </trkpt>
      <trkpt lat="31.979785552248359" lon="-5.563688138499856">
        <ele>2482.7399999999998</ele>
        <time>2019-03-12T09:20:53Z</time>
      </trkpt>
      <trkpt lat="31.979707181453705" lon="-5.563748488202691">
        <ele>2483.2199999999998</ele>
        <time>2019-03-12T09:20:54Z</time>
      </trkpt>
      <trkpt lat="31.979553205892444" lon="-5.563834654167295">
        <ele>2484.1799999999998</ele>
        <time>2019-03-12T09:20:55Z</time>
      </trkpt>
      <trkpt lat="31.979486150667071" lon="-5.563869187608361">
        <ele>2484.6599999999999</ele>
        <time>2019-03-12T09:20:56Z</time>
      </trkpt>
      <trkpt lat="31.979428064078093" lon="-5.563910845667124">
        <ele>2485.1500000000001</ele>
        <time>2019-03-12T09:20:57Z</time>
      </trkpt>
      <trkpt lat="31.979379868134856" lon="-5.563962897285819">
        <ele>2488.0300000000002</ele>
        <time>2019-03-12T09:20:58Z</time>
      </trkpt>
      <trkpt lat="31.979340389370918" lon="-5.564021151512861">
        <ele>2488.9899999999998</ele>
        <time>2019-03-12T09:20:59Z</time>
      </trkpt>
      <trkpt lat="31.979306861758232" lon="-5.56408460251987">
        <ele>2489.4699999999998</ele>
        <time>2019-03-12T09:21:00Z</time>
      </trkpt>
      <trkpt lat="31.979166381061077" lon="-5.564482910558581">
        <ele>2490.4299999999998</ele>
        <time>2019-03-12T09:21:08Z</time>
      </trkpt>
      <trkpt lat="31.979156993329525" lon="-5.564582822844386">
        <ele>2491.8699999999999</ele>
        <time>2019-03-12T09:21:09Z</time>
      </trkpt>
      <trkpt lat="31.979159340262413" lon="-5.564680555835366">
        <ele>2492.8400000000001</ele>
        <time>2019-03-12T09:21:10Z</time>
      </trkpt>
      <trkpt lat="31.979171242564917" lon="-5.564777282997966">
        <ele>2493.8000000000002</ele>
        <time>2019-03-12T09:21:19Z</time>
      </trkpt>
      <trkpt lat="31.979179289191961" lon="-5.564870154485107">
        <ele>2494.7600000000002</ele>
        <time>2019-03-12T09:21:23Z</time>
      </trkpt>
      <trkpt lat="31.979178870096803" lon="-5.564958164468408">
        <ele>2495.2399999999998</ele>
        <time>2019-03-12T09:21:24Z</time>
      </trkpt>
      <trkpt lat="31.979173086583614" lon="-5.56503301486373">
        <ele>2495.7199999999998</ele>
        <time>2019-03-12T09:21:32Z</time>
      </trkpt>
      <trkpt lat="31.979160597547889" lon="-5.565099231898785">
        <ele>2496.6799999999998</ele>
        <time>2019-03-12T09:21:33Z</time>
      </trkpt>
      <trkpt lat="31.979140900075436" lon="-5.565158911049366">
        <ele>2500.5300000000002</ele>
        <time>2019-03-12T09:21:34Z</time>
      </trkpt>
      <trkpt lat="31.979113155975938" lon="-5.565213477239013">
        <ele>2501.0100000000002</ele>
        <time>2019-03-12T09:21:35Z</time>
      </trkpt>
      <trkpt lat="31.979079712182283" lon="-5.565270725637674">
        <ele>2501.4899999999998</ele>
        <time>2019-03-12T09:21:36Z</time>
      </trkpt>
      <trkpt lat="31.978811658918858" lon="-5.565675739198923">
        <ele>2503.4099999999999</ele>
        <time>2019-03-12T09:21:40Z</time>
      </trkpt>
      <trkpt lat="31.978784753009677" lon="-5.565729634836316">
        <ele>2504.3699999999999</ele>
        <time>2019-03-12T09:21:41Z</time>
      </trkpt>
      <trkpt lat="31.978761116042733" lon="-5.565790235996246">
        <ele>2504.3699999999999</ele>
        <time>2019-03-12T09:21:42Z</time>
      </trkpt>
      <trkpt lat="31.978475376963615" lon="-5.5665990896523">
        <ele>2508.2199999999998</ele>
        <time>2019-03-12T09:21:43Z</time>
      </trkpt>
      <trkpt lat="31.978322071954608" lon="-5.566970407962799">
        <ele>2508.6999999999998</ele>
        <time>2019-03-12T09:21:44Z</time>
      </trkpt>
      <trkpt lat="31.978274211287498" lon="-5.567063866183162">
        <ele>2508.6999999999998</ele>
        <time>2019-03-12T09:21:45Z</time>
      </trkpt>
      <trkpt lat="31.977949496358633" lon="-5.567622939124703">
        <ele>2508.6999999999998</ele>
        <time>2019-03-12T09:21:46Z</time>
      </trkpt>
      <trkpt lat="31.977934408932924" lon="-5.567671218886972">
        <ele>2509.1799999999998</ele>
        <time>2019-03-12T09:21:47Z</time>
      </trkpt>
      <trkpt lat="31.977926697582006" lon="-5.567719750106335">
        <ele>2511.0999999999999</ele>
        <time>2019-03-12T09:21:48Z</time>
      </trkpt>
      <trkpt lat="31.977924266830087" lon="-5.567770628258586">
        <ele>2511.5799999999999</ele>
        <time>2019-03-12T09:21:49Z</time>
      </trkpt>
      <trkpt lat="31.977924099192023" lon="-5.567823182791472">
        <ele>2512.0599999999999</ele>
        <time>2019-03-12T09:21:50Z</time>
      </trkpt>
      <trkpt lat="31.977923009544611" lon="-5.568073131144047">
        <ele>2512.54</ele>
        <time>2019-03-12T09:21:51Z</time>
      </trkpt>
      <trkpt lat="31.977912364527583" lon="-5.568147730082274">
        <ele>2512.54</ele>
        <time>2019-03-12T09:21:52Z</time>
      </trkpt>
      <trkpt lat="31.977904988452792" lon="-5.568226687610149">
        <ele>2513.02</ele>
        <time>2019-03-12T09:21:53Z</time>
      </trkpt>
      <trkpt lat="31.977911777794361" lon="-5.568304471671581">
        <ele>2513.5</ele>
        <time>2019-03-12T09:21:54Z</time>
      </trkpt>
      <trkpt lat="31.977936672046781" lon="-5.568375801667571">
        <ele>2514.4699999999998</ele>
        <time>2019-03-12T09:21:55Z</time>
      </trkpt>
      <trkpt lat="31.977973803877831" lon="-5.568435899913311">
        <ele>2514.9499999999998</ele>
        <time>2019-03-12T09:22:05Z</time>
      </trkpt>
      <trkpt lat="31.978007582947612" lon="-5.568491723388434">
        <ele>2515.4299999999998</ele>
        <time>2019-03-12T09:22:06Z</time>
      </trkpt>
      <trkpt lat="31.978028537705541" lon="-5.568547714501619">
        <ele>2515.9099999999999</ele>
        <time>2019-03-12T09:22:07Z</time>
      </trkpt>
      <trkpt lat="31.978033818304539" lon="-5.568599011749029">
        <ele>2516.3899999999999</ele>
        <time>2019-03-12T09:22:08Z</time>
      </trkpt>
      <trkpt lat="31.978020155802369" lon="-5.568647291511297">
        <ele>2516.8699999999999</ele>
        <time>2019-03-12T09:22:09Z</time>
      </trkpt>
      <trkpt lat="31.977987634018064" lon="-5.568686937913299">
        <ele>2516.8699999999999</ele>
        <time>2019-03-12T09:22:10Z</time>
      </trkpt>
      <trkpt lat="31.977951340377331" lon="-5.568729350343347">
        <ele>2517.3499999999999</ele>
        <time>2019-03-12T09:22:11Z</time>
      </trkpt>
      <trkpt lat="31.977919237688184" lon="-5.56878911331296">
        <ele>2517.3499999999999</ele>
        <time>2019-03-12T09:22:14Z</time>
      </trkpt>
      <trkpt lat="31.977897109463811" lon="-5.568868573755026">
        <ele>2526</ele>
        <time>2019-03-12T09:22:15Z</time>
      </trkpt>
      <trkpt lat="31.977889062836766" lon="-5.568961445242167">
        <ele>2526.48</ele>
        <time>2019-03-12T09:22:16Z</time>
      </trkpt>
      <trkpt lat="31.977889481931925" lon="-5.569059764966369">
        <ele>2526.96</ele>
        <time>2019-03-12T09:22:17Z</time>
      </trkpt>
      <trkpt lat="31.977924853563309" lon="-5.569991916418076">
        <ele>2527.9200000000001</ele>
        <time>2019-03-12T09:22:18Z</time>
      </trkpt>
      <trkpt lat="31.977910436689854" lon="-5.570048494264484">
        <ele>2528.4000000000001</ele>
        <time>2019-03-12T09:22:26Z</time>
      </trkpt>
      <trkpt lat="31.977879088371992" lon="-5.57008059695363">
        <ele>2528.8899999999999</ele>
        <time>2019-03-12T09:22:27Z</time>
      </trkpt>
      <trkpt lat="31.977837765589356" lon="-5.570089146494865">
        <ele>2529.3699999999999</ele>
        <time>2019-03-12T09:22:28Z</time>
      </trkpt>
      <trkpt lat="31.977796442806721" lon="-5.570077747106552">
        <ele>2531.77</ele>
        <time>2019-03-12T09:22:29Z</time>
      </trkpt>
      <trkpt lat="31.977760316804051" lon="-5.570051930844784">
        <ele>2532.25</ele>
        <time>2019-03-12T09:22:30Z</time>
      </trkpt>
      <trkpt lat="31.977728717029095" lon="-5.570022342726588">
        <ele>2532.73</ele>
        <time>2019-03-12T09:22:31Z</time>
      </trkpt>
      <trkpt lat="31.977629223838449" lon="-5.569925280287862">
        <ele>2533.21</ele>
        <time>2019-03-12T09:22:32Z</time>
      </trkpt>
      <trkpt lat="31.977581530809402" lon="-5.569903906434774">
        <ele>2533.6900000000001</ele>
        <time>2019-03-12T09:22:33Z</time>
      </trkpt>
      <trkpt lat="31.977526461705565" lon="-5.569901643320918">
        <ele>2540.4200000000001</ele>
        <time>2019-03-12T09:22:35Z</time>
      </trkpt>
      <trkpt lat="31.97746904566884" lon="-5.569912204518914">
        <ele>2541.3800000000001</ele>
        <time>2019-03-12T09:22:36Z</time>
      </trkpt>
      <trkpt lat="31.977407271042466" lon="-5.569928968325257">
        <ele>2541.8600000000001</ele>
        <time>2019-03-12T09:22:37Z</time>
      </trkpt>
      <trkpt lat="31.976859848946333" lon="-5.569997280836105">
        <ele>2542.8200000000002</ele>
        <time>2019-03-12T09:22:38Z</time>
      </trkpt>
      <trkpt lat="31.976798577234149" lon="-5.570006668567658">
        <ele>2543.3099999999999</ele>
        <time>2019-03-12T09:22:39Z</time>
      </trkpt>
      <trkpt lat="31.976742669939995" lon="-5.570030473172665">
        <ele>2543.79</ele>
        <time>2019-03-12T09:22:45Z</time>
      </trkpt>
      <trkpt lat="31.97669212706387" lon="-5.570069197565317">
        <ele>2544.27</ele>
        <time>2019-03-12T09:22:53Z</time>
      </trkpt>
      <trkpt lat="31.976645607501268" lon="-5.570118734613061">
        <ele>2544.75</ele>
        <time>2019-03-12T09:22:56Z</time>
      </trkpt>
      <trkpt lat="31.976602273061872" lon="-5.570175983011723">
        <ele>2544.75</ele>
        <time>2019-03-12T09:22:57Z</time>
      </trkpt>
      <trkpt lat="31.97656606324017" lon="-5.570232644677162">
        <ele>2545.23</ele>
        <time>2019-03-12T09:22:59Z</time>
      </trkpt>
      <trkpt lat="31.976537145674229" lon="-5.570295844227076">
        <ele>2544.75</ele>
        <time>2019-03-12T09:23:00Z</time>
      </trkpt>
      <trkpt lat="31.976472185924649" lon="-5.570433139801025">
        <ele>2544.75</ele>
        <time>2019-03-12T09:23:01Z</time>
      </trkpt>
      <trkpt lat="31.976429186761379" lon="-5.570504134520888">
        <ele>2544.27</ele>
        <time>2019-03-12T09:23:02Z</time>
      </trkpt>
      <trkpt lat="31.976375877857208" lon="-5.570572279393673">
        <ele>2544.27</ele>
        <time>2019-03-12T09:23:03Z</time>
      </trkpt>
      <trkpt lat="31.976312845945358" lon="-5.570632545277476">
        <ele>2544.75</ele>
        <time>2019-03-12T09:23:04Z</time>
      </trkpt>
      <trkpt lat="31.976246377453208" lon="-5.570692978799343">
        <ele>2546.1900000000001</ele>
        <time>2019-03-12T09:23:13Z</time>
      </trkpt>
      <trkpt lat="31.976049738004804" lon="-5.570935131981969">
        <ele>2546.6700000000001</ele>
        <time>2019-03-12T09:23:22Z</time>
      </trkpt>
      <trkpt lat="31.975938510149717" lon="-5.571331512182951">
        <ele>2547.6300000000001</ele>
        <time>2019-03-12T09:23:28Z</time>
      </trkpt>
      <trkpt lat="31.97587413713336" lon="-5.571562182158232">
        <ele>2547.6300000000001</ele>
        <time>2019-03-12T09:23:29Z</time>
      </trkpt>
      <trkpt lat="31.975850835442543" lon="-5.571619095280767">
        <ele>2547.6300000000001</ele>
        <time>2019-03-12T09:23:33Z</time>
      </trkpt>
      <trkpt lat="31.975788809359074" lon="-5.571731077507138">
        <ele>2547.6300000000001</ele>
        <time>2019-03-12T09:23:34Z</time>
      </trkpt>
      <trkpt lat="31.9757632445544" lon="-5.571800228208304">
        <ele>2548.1100000000001</ele>
        <time>2019-03-12T09:23:35Z</time>
      </trkpt>
      <trkpt lat="31.975741954520345" lon="-5.571878850460053">
        <ele>2548.5900000000001</ele>
        <time>2019-03-12T09:23:36Z</time>
      </trkpt>
      <trkpt lat="31.975733572617173" lon="-5.571959568187594">
        <ele>2554.8400000000001</ele>
        <time>2019-03-12T09:23:37Z</time>
      </trkpt>
      <trkpt lat="31.975738015025854" lon="-5.572040621191263">
        <ele>2557.73</ele>
        <time>2019-03-12T09:23:38Z</time>
      </trkpt>
      <trkpt lat="31.97574807330966" lon="-5.572120416909456">
        <ele>2556.7600000000002</ele>
        <time>2019-03-12T09:23:39Z</time>
      </trkpt>
      <trkpt lat="31.975843459367752" lon="-5.572854084894061">
        <ele>2556.7600000000002</ele>
        <time>2019-03-12T09:23:40Z</time>
      </trkpt>
      <trkpt lat="31.975752180442214" lon="-5.573362531140447">
        <ele>2555.3200000000002</ele>
        <time>2019-03-12T09:23:50Z</time>
      </trkpt>
      <trkpt lat="31.975553864613175" lon="-5.573449116200209">
        <ele>2554.3600000000001</ele>
        <time>2019-03-12T09:23:51Z</time>
      </trkpt>
      <trkpt lat="31.975523605942726" lon="-5.573380636051297">
        <ele>2553.8800000000001</ele>
        <time>2019-03-12T09:23:52Z</time>
      </trkpt>
      <trkpt lat="31.975364601239562" lon="-5.57303479872644">
        <ele>2553.8800000000001</ele>
        <time>2019-03-12T09:23:53Z</time>
      </trkpt>
      <trkpt lat="31.975306179374456" lon="-5.572954332455993">
        <ele>2553.8800000000001</ele>
        <time>2019-03-12T09:23:55Z</time>
      </trkpt>
      <trkpt lat="31.975240968167782" lon="-5.572885181754828">
        <ele>2553.8800000000001</ele>
        <time>2019-03-12T09:23:56Z</time>
      </trkpt>
      <trkpt lat="31.97516662068665" lon="-5.57283497415483">
        <ele>2554.3600000000001</ele>
        <time>2019-03-12T09:23:57Z</time>
      </trkpt>
      <trkpt lat="31.975086824968457" lon="-5.572804631665349">
        <ele>2554.8400000000001</ele>
        <time>2019-03-12T09:23:58Z</time>
      </trkpt>
      <trkpt lat="31.975004011765122" lon="-5.572791052982211">
        <ele>2560.1300000000001</ele>
        <time>2019-03-12T09:23:59Z</time>
      </trkpt>
      <trkpt lat="31.974919606000185" lon="-5.572788035497069">
        <ele>2561.0900000000001</ele>
        <time>2019-03-12T09:24:00Z</time>
      </trkpt>
      <trkpt lat="31.974834278225899" lon="-5.572790885344148">
        <ele>2562.0500000000002</ele>
        <time>2019-03-12T09:24:01Z</time>
      </trkpt>
      <trkpt lat="31.973924338817596" lon="-5.572862382978201">
        <ele>2562.5300000000002</ele>
        <time>2019-03-12T09:24:03Z</time>
      </trkpt>
      <trkpt lat="31.973841693252325" lon="-5.572876548394561">
        <ele>2563.0100000000002</ele>
        <time>2019-03-12T09:24:04Z</time>
      </trkpt>
      <trkpt lat="31.973762065172195" lon="-5.572901610285044">
        <ele>2563.4899999999998</ele>
        <time>2019-03-12T09:24:08Z</time>
      </trkpt>
      <trkpt lat="31.973681431263685" lon="-5.572939077392221">
        <ele>2563.9699999999998</ele>
        <time>2019-03-12T09:24:09Z</time>
      </trkpt>
      <trkpt lat="31.973513374105096" lon="-5.573013424873352">
        <ele>2564.4499999999998</ele>
        <time>2019-03-12T09:24:11Z</time>
      </trkpt>
      <trkpt lat="31.973419999703765" lon="-5.573030859231949">
        <ele>2564.4499999999998</ele>
        <time>2019-03-12T09:24:13Z</time>
      </trkpt>
      <trkpt lat="31.973322853446007" lon="-5.573031278327107">
        <ele>2565.4200000000001</ele>
        <time>2019-03-12T09:24:14Z</time>
      </trkpt>
      <trkpt lat="31.973224701359868" lon="-5.573033457621932">
        <ele>2565.9000000000001</ele>
        <time>2019-03-12T09:24:20Z</time>
      </trkpt>
      <trkpt lat="31.973130153492093" lon="-5.573051059618592">
        <ele>2567.8200000000002</ele>
        <time>2019-03-12T09:24:21Z</time>
      </trkpt>
      <trkpt lat="31.973040886223316" lon="-5.573079390451312">
        <ele>2568.3000000000002</ele>
        <time>2019-03-12T09:24:22Z</time>
      </trkpt>
      <trkpt lat="31.972954552620649" lon="-5.573112582787871">
        <ele>2569.7399999999998</ele>
        <time>2019-03-12T09:24:29Z</time>
      </trkpt>
      <trkpt lat="31.972776856273413" lon="-5.573175195604563">
        <ele>2570.2199999999998</ele>
        <time>2019-03-12T09:24:34Z</time>
      </trkpt>
      <trkpt lat="31.972683062776923" lon="-5.57319606654346">
        <ele>2571.1799999999998</ele>
        <time>2019-03-12T09:24:35Z</time>
      </trkpt>
      <trkpt lat="31.97233353741467" lon="-5.573264714330435">
        <ele>2572.6300000000001</ele>
        <time>2019-03-12T09:24:36Z</time>
      </trkpt>
      <trkpt lat="31.972261620685458" lon="-5.57329623028636">
        <ele>2573.1100000000001</ele>
        <time>2019-03-12T09:24:41Z</time>
      </trkpt>
      <trkpt lat="31.97212440893054" lon="-5.573377199470997">
        <ele>2576.9499999999998</ele>
        <time>2019-03-12T09:24:42Z</time>
      </trkpt>
      <trkpt lat="31.97199247777462" lon="-5.573443835601211">
        <ele>2577.4299999999998</ele>
        <time>2019-03-12T09:24:43Z</time>
      </trkpt>
      <trkpt lat="31.971938582137227" lon="-5.57350049726665">
        <ele>2577.9099999999999</ele>
        <time>2019-03-12T09:24:44Z</time>
      </trkpt>
      <trkpt lat="31.971590733155608" lon="-5.57391632348299">
        <ele>2581.2800000000002</ele>
        <time>2019-03-12T09:24:45Z</time>
      </trkpt>
      <trkpt lat="31.971548069268465" lon="-5.573990251868963">
        <ele>2585.1199999999999</ele>
        <time>2019-03-12T09:24:46Z</time>
      </trkpt>
      <trkpt lat="31.971505740657449" lon="-5.57406535372138">
        <ele>2586.0799999999999</ele>
        <time>2019-03-12T09:24:55Z</time>
      </trkpt>
      <trkpt lat="31.971234586089849" lon="-5.574494255706668">
        <ele>2586.5599999999999</ele>
        <time>2019-03-12T09:24:58Z</time>
      </trkpt>
      <trkpt lat="31.971073988825083" lon="-5.574825676158071">
        <ele>2589.4499999999998</ele>
        <time>2019-03-12T09:24:59Z</time>
      </trkpt>
      <trkpt lat="31.971034929156303" lon="-5.574893318116665">
        <ele>2589.9299999999998</ele>
        <time>2019-03-12T09:25:04Z</time>
      </trkpt>
      <trkpt lat="31.970997462049127" lon="-5.574960960075259">
        <ele>2589.9299999999998</ele>
        <time>2019-03-12T09:25:05Z</time>
      </trkpt>
      <trkpt lat="31.970770312473178" lon="-5.575306043028832">
        <ele>2590.4099999999999</ele>
        <time>2019-03-12T09:25:08Z</time>
      </trkpt>
      <trkpt lat="31.970728905871511" lon="-5.575383324176073">
        <ele>2590.8899999999999</ele>
        <time>2019-03-12T09:25:09Z</time>
      </trkpt>
      <trkpt lat="31.970695042982697" lon="-5.575465383008122">
        <ele>2591.3699999999999</ele>
        <time>2019-03-12T09:25:10Z</time>
      </trkpt>
      <trkpt lat="31.970659838989377" lon="-5.575548866763711">
        <ele>2594.25</ele>
        <time>2019-03-12T09:25:11Z</time>
      </trkpt>
      <trkpt lat="31.970614409074187" lon="-5.575633691623807">
        <ele>2595.6999999999998</ele>
        <time>2019-03-12T09:25:12Z</time>
      </trkpt>
      <trkpt lat="31.970563614740968" lon="-5.57571591809392">
        <ele>2596.1799999999998</ele>
        <time>2019-03-12T09:25:13Z</time>
      </trkpt>
      <trkpt lat="31.970027172937989" lon="-5.576590821146965">
        <ele>2599.0599999999999</ele>
        <time>2019-03-12T09:25:14Z</time>
      </trkpt>
      <trkpt lat="31.969869676977396" lon="-5.576913943514228">
        <ele>2599.0599999999999</ele>
        <time>2019-03-12T09:25:15Z</time>
      </trkpt>
      <trkpt lat="31.969837574288249" lon="-5.57701813057065">
        <ele>2600.02</ele>
        <time>2019-03-12T09:25:16Z</time>
      </trkpt>
      <trkpt lat="31.969746546819806" lon="-5.577469579875469">
        <ele>2600.02</ele>
        <time>2019-03-12T09:25:17Z</time>
      </trkpt>
      <trkpt lat="31.969755096361041" lon="-5.577550968155265">
        <ele>2600.02</ele>
        <time>2019-03-12T09:25:18Z</time>
      </trkpt>
      <trkpt lat="31.969765573740005" lon="-5.577707458287478">
        <ele>2600.02</ele>
        <time>2019-03-12T09:25:28Z</time>
      </trkpt>
      <trkpt lat="31.969754761084914" lon="-5.577727574855089">
        <ele>2600.5</ele>
        <time>2019-03-12T09:25:38Z</time>
      </trkpt>
      <trkpt lat="31.969743864610791" lon="-5.577738974243403">
        <ele>2600.5</ele>
        <time>2019-03-12T09:25:47Z</time>
      </trkpt>
      <trkpt lat="31.969725675880909" lon="-5.577748278155923">
        <ele>2600.5</ele>
        <time>2019-03-12T09:25:50Z</time>
      </trkpt>
      <trkpt lat="31.969699021428823" lon="-5.577753894031048">
        <ele>2600.5</ele>
        <time>2019-03-12T09:25:51Z</time>
      </trkpt>
      <trkpt lat="31.96966415271163" lon="-5.577755318954587">
        <ele>2600.5</ele>
        <time>2019-03-12T09:25:52Z</time>
      </trkpt>
      <trkpt lat="31.969622829928994" lon="-5.577758001163602">
        <ele>2600.02</ele>
        <time>2019-03-12T09:25:53Z</time>
      </trkpt>
      <trkpt lat="31.969578992575407" lon="-5.577775603160262">
        <ele>2600.02</ele>
        <time>2019-03-12T09:25:54Z</time>
      </trkpt>
      <trkpt lat="31.969533646479249" lon="-5.577809382230043">
        <ele>2600.98</ele>
        <time>2019-03-12T09:25:55Z</time>
      </trkpt>
      <trkpt lat="31.969488803297281" lon="-5.577853806316853">
        <ele>2603.8699999999999</ele>
        <time>2019-03-12T09:25:56Z</time>
      </trkpt>
      <trkpt lat="31.969442870467901" lon="-5.577906696125865">
        <ele>2607.71</ele>
        <time>2019-03-12T09:25:57Z</time>
      </trkpt>
      <trkpt lat="31.968969292938709" lon="-5.578712280839682">
        <ele>2609.6399999999999</ele>
        <time>2019-03-12T09:25:58Z</time>
      </trkpt>
      <trkpt lat="31.96835657581687" lon="-5.579741662368178">
        <ele>2610.1199999999999</ele>
        <time>2019-03-12T09:25:59Z</time>
      </trkpt>
      <trkpt lat="31.967810746282339" lon="-5.580741036683321">
        <ele>2610.5999999999999</ele>
        <time>2019-03-12T09:26:00Z</time>
      </trkpt>
      <trkpt lat="31.967681413516402" lon="-5.581018477678299">
        <ele>2611.0799999999999</ele>
        <time>2019-03-12T09:26:01Z</time>
      </trkpt>
      <trkpt lat="31.967635564506054" lon="-5.58109181933105">
        <ele>2611.5599999999999</ele>
        <time>2019-03-12T09:26:02Z</time>
      </trkpt>
      <trkpt lat="31.967596169561148" lon="-5.581162227317691">
        <ele>2612.04</ele>
        <time>2019-03-12T09:26:03Z</time>
      </trkpt>
      <trkpt lat="31.967570101842284" lon="-5.581235820427537">
        <ele>2612.52</ele>
        <time>2019-03-12T09:26:04Z</time>
      </trkpt>
      <trkpt lat="31.967550572007895" lon="-5.581312347203493">
        <ele>2613</ele>
        <time>2019-03-12T09:26:06Z</time>
      </trkpt>
      <trkpt lat="31.967537244781852" lon="-5.581391304731369">
        <ele>2613.48</ele>
        <time>2019-03-12T09:26:07Z</time>
      </trkpt>
      <trkpt lat="31.967535233125091" lon="-5.581474788486958">
        <ele>2613.96</ele>
        <time>2019-03-12T09:26:08Z</time>
      </trkpt>
      <trkpt lat="31.967543195933104" lon="-5.581561792641878">
        <ele>2613.96</ele>
        <time>2019-03-12T09:26:11Z</time>
      </trkpt>
      <trkpt lat="31.967552667483687" lon="-5.581643600016832">
        <ele>2614.4400000000001</ele>
        <time>2019-03-12T09:26:12Z</time>
      </trkpt>
      <trkpt lat="31.967554679140449" lon="-5.581715935841203">
        <ele>2614.4400000000001</ele>
        <time>2019-03-12T09:26:14Z</time>
      </trkpt>
      <trkpt lat="31.967537747696042" lon="-5.58177737519145">
        <ele>2614.4400000000001</ele>
        <time>2019-03-12T09:26:15Z</time>
      </trkpt>
      <trkpt lat="31.967507321387529" lon="-5.581833785399795">
        <ele>2614.4400000000001</ele>
        <time>2019-03-12T09:26:17Z</time>
      </trkpt>
      <trkpt lat="31.967470357194543" lon="-5.581899918615818">
        <ele>2615.4000000000001</ele>
        <time>2019-03-12T09:26:18Z</time>
      </trkpt>
      <trkpt lat="31.967430794611573" lon="-5.581980803981423">
        <ele>2615.8800000000001</ele>
        <time>2019-03-12T09:26:29Z</time>
      </trkpt>
      <trkpt lat="31.967387963086367" lon="-5.582067640498281">
        <ele>2616.3699999999999</ele>
        <time>2019-03-12T09:26:30Z</time>
      </trkpt>
      <trkpt lat="31.967298192903399" lon="-5.582239301875234">
        <ele>2618.29</ele>
        <time>2019-03-12T09:26:31Z</time>
      </trkpt>
      <trkpt lat="31.967263072729111" lon="-5.582337453961372">
        <ele>2618.77</ele>
        <time>2019-03-12T09:26:33Z</time>
      </trkpt>
      <trkpt lat="31.967236502096057" lon="-5.582444574683905">
        <ele>2619.25</ele>
        <time>2019-03-12T09:26:34Z</time>
      </trkpt>
      <trkpt lat="31.967160645872355" lon="-5.582771301269531">
        <ele>2619.73</ele>
        <time>2019-03-12T09:26:35Z</time>
      </trkpt>
      <trkpt lat="31.967122172936797" lon="-5.582851767539978">
        <ele>2620.6900000000001</ele>
        <time>2019-03-12T09:26:36Z</time>
      </trkpt>
      <trkpt lat="31.967049082741141" lon="-5.582991158589721">
        <ele>2621.1700000000001</ele>
        <time>2019-03-12T09:26:37Z</time>
      </trkpt>
      <trkpt lat="31.96702997200191" lon="-5.583066511899233">
        <ele>2626.9400000000001</ele>
        <time>2019-03-12T09:26:38Z</time>
      </trkpt>
      <trkpt lat="31.966985547915101" lon="-5.583212524652481">
        <ele>2627.4200000000001</ele>
        <time>2019-03-12T09:26:39Z</time>
      </trkpt>
      <trkpt lat="31.966959312558174" lon="-5.583286117762327">
        <ele>2627.9000000000001</ele>
        <time>2019-03-12T09:26:40Z</time>
      </trkpt>
      <trkpt lat="31.966767366975546" lon="-5.5841906927526">
        <ele>2628.3800000000001</ele>
        <time>2019-03-12T09:26:41Z</time>
      </trkpt>
      <trkpt lat="31.966762002557516" lon="-5.584292449057102">
        <ele>2628.8600000000001</ele>
        <time>2019-03-12T09:26:42Z</time>
      </trkpt>
      <trkpt lat="31.966749178245664" lon="-5.584392948076129">
        <ele>2629.3400000000001</ele>
        <time>2019-03-12T09:26:43Z</time>
      </trkpt>
      <trkpt lat="31.966726966202259" lon="-5.584589084610343">
        <ele>2629.3400000000001</ele>
        <time>2019-03-12T09:26:44Z</time>
      </trkpt>
      <trkpt lat="31.966736018657684" lon="-5.584679441526532">
        <ele>2630.3000000000002</ele>
        <time>2019-03-12T09:26:45Z</time>
      </trkpt>
      <trkpt lat="31.966758063063025" lon="-5.584762003272772">
        <ele>2630.79</ele>
        <time>2019-03-12T09:26:48Z</time>
      </trkpt>
      <trkpt lat="31.966789495199919" lon="-5.584838865324855">
        <ele>2632.23</ele>
        <time>2019-03-12T09:26:49Z</time>
      </trkpt>
      <trkpt lat="31.966819250956178" lon="-5.584914637729526">
        <ele>2633.1900000000001</ele>
        <time>2019-03-12T09:26:50Z</time>
      </trkpt>
      <trkpt lat="31.96683500893414" lon="-5.584992254152894">
        <ele>2634.1500000000001</ele>
        <time>2019-03-12T09:26:51Z</time>
      </trkpt>
      <trkpt lat="31.966832662001252" lon="-5.585071546956897">
        <ele>2635.1100000000001</ele>
        <time>2019-03-12T09:26:52Z</time>
      </trkpt>
      <trkpt lat="31.966814724728465" lon="-5.58515134267509">
        <ele>2636.0700000000002</ele>
        <time>2019-03-12T09:26:53Z</time>
      </trkpt>
      <trkpt lat="31.966786226257682" lon="-5.585231808945537">
        <ele>2636.5500000000002</ele>
        <time>2019-03-12T09:26:54Z</time>
      </trkpt>
      <trkpt lat="31.966751357540488" lon="-5.585315795615315">
        <ele>2637.0300000000002</ele>
        <time>2019-03-12T09:26:55Z</time>
      </trkpt>
      <trkpt lat="31.966717829927802" lon="-5.585400452837348">
        <ele>2638.48</ele>
        <time>2019-03-12T09:26:56Z</time>
      </trkpt>
      <trkpt lat="31.966692684218287" lon="-5.585483433678746">
        <ele>2638.96</ele>
        <time>2019-03-12T09:27:05Z</time>
      </trkpt>
      <trkpt lat="31.966669969260693" lon="-5.585564402863383">
        <ele>2639.4400000000001</ele>
        <time>2019-03-12T09:27:06Z</time>
      </trkpt>
      <trkpt lat="31.966597884893417" lon="-5.585805047303438">
        <ele>2639.9200000000001</ele>
        <time>2019-03-12T09:27:08Z</time>
      </trkpt>
      <trkpt lat="31.966587658971548" lon="-5.585894314572215">
        <ele>2640.4000000000001</ele>
        <time>2019-03-12T09:27:15Z</time>
      </trkpt>
      <trkpt lat="31.966587072238326" lon="-5.585981486365199">
        <ele>2640.8800000000001</ele>
        <time>2019-03-12T09:27:16Z</time>
      </trkpt>
      <trkpt lat="31.966592017561197" lon="-5.5860626231879">
        <ele>2641.3600000000001</ele>
        <time>2019-03-12T09:27:17Z</time>
      </trkpt>
      <trkpt lat="31.966603836044669" lon="-5.586133031174541">
        <ele>2641.8400000000001</ele>
        <time>2019-03-12T09:27:25Z</time>
      </trkpt>
      <trkpt lat="31.966620935127139" lon="-5.586190698668361">
        <ele>2641.8400000000001</ele>
        <time>2019-03-12T09:27:26Z</time>
      </trkpt>
      <trkpt lat="31.966639626771212" lon="-5.586238978430629">
        <ele>2643.2800000000002</ele>
        <time>2019-03-12T09:27:27Z</time>
      </trkpt>
      <trkpt lat="31.966657983139157" lon="-5.586279630661011">
        <ele>2643.7600000000002</ele>
        <time>2019-03-12T09:27:30Z</time>
      </trkpt>
      <trkpt lat="31.966679776087403" lon="-5.586319109424949">
        <ele>2644.7199999999998</ele>
        <time>2019-03-12T09:27:31Z</time>
      </trkpt>
      <trkpt lat="31.966997114941478" lon="-5.586873907595873">
        <ele>2648.0900000000001</ele>
        <time>2019-03-12T09:27:32Z</time>
      </trkpt>
      <trkpt lat="31.967030977830291" lon="-5.586954709142447">
        <ele>2648.5700000000002</ele>
        <time>2019-03-12T09:27:33Z</time>
      </trkpt>
      <trkpt lat="31.967084454372525" lon="-5.587125699967146">
        <ele>2648.5700000000002</ele>
        <time>2019-03-12T09:27:34Z</time>
      </trkpt>
      <trkpt lat="31.967163663357496" lon="-5.587718719616532">
        <ele>2648.5700000000002</ele>
        <time>2019-03-12T09:27:35Z</time>
      </trkpt>
      <trkpt lat="31.96715209633112" lon="-5.587775213643909">
        <ele>2648.5700000000002</ele>
        <time>2019-03-12T09:27:36Z</time>
      </trkpt>
      <trkpt lat="31.967138601467013" lon="-5.58781486004591">
        <ele>2648.5700000000002</ele>
        <time>2019-03-12T09:27:37Z</time>
      </trkpt>
      <trkpt lat="31.966931987553835" lon="-5.588312745094299">
        <ele>2648.5700000000002</ele>
        <time>2019-03-12T09:27:38Z</time>
      </trkpt>
      <trkpt lat="31.966884629800916" lon="-5.588401593267918">
        <ele>2648.5700000000002</ele>
        <time>2019-03-12T09:27:39Z</time>
      </trkpt>
      <trkpt lat="31.966840540990233" lon="-5.58848331682384">
        <ele>2648.5700000000002</ele>
        <time>2019-03-12T09:27:40Z</time>
      </trkpt>
      <trkpt lat="31.966707687824965" lon="-5.588719770312309">
        <ele>2649.0500000000002</ele>
        <time>2019-03-12T09:27:41Z</time>
      </trkpt>
      <trkpt lat="31.966649768874049" lon="-5.588786490261555">
        <ele>2649.0500000000002</ele>
        <time>2019-03-12T09:27:42Z</time>
      </trkpt>
      <trkpt lat="31.966585982590914" lon="-5.588833428919315">
        <ele>2649.0500000000002</ele>
        <time>2019-03-12T09:27:43Z</time>
      </trkpt>
      <trkpt lat="31.966524878516793" lon="-5.588856479153037">
        <ele>2649.0500000000002</ele>
        <time>2019-03-12T09:27:44Z</time>
      </trkpt>
      <trkpt lat="31.966467965394258" lon="-5.588867291808128">
        <ele>2649.0500000000002</ele>
        <time>2019-03-12T09:27:46Z</time>
      </trkpt>
      <trkpt lat="31.966411387547851" lon="-5.588875925168395">
        <ele>2648.5700000000002</ele>
        <time>2019-03-12T09:27:47Z</time>
      </trkpt>
      <trkpt lat="31.966354139149189" lon="-5.588895287364721">
        <ele>2648.5700000000002</ele>
        <time>2019-03-12T09:27:53Z</time>
      </trkpt>
      <trkpt lat="31.966306865215302" lon="-5.588923534378409">
        <ele>2648.5700000000002</ele>
        <time>2019-03-12T09:27:54Z</time>
      </trkpt>
      <trkpt lat="31.966268224641681" lon="-5.588951697573066">
        <ele>2648.0900000000001</ele>
        <time>2019-03-12T09:27:55Z</time>
      </trkpt>
      <trkpt lat="31.966225728392601" lon="-5.588970640674233">
        <ele>2648.0900000000001</ele>
        <time>2019-03-12T09:27:56Z</time>
      </trkpt>
      <trkpt lat="31.96618071757257" lon="-5.588994026184082">
        <ele>2648.0900000000001</ele>
        <time>2019-03-12T09:27:57Z</time>
      </trkpt>
      <trkpt lat="31.966135455295444" lon="-5.589028056710959">
        <ele>2648.0900000000001</ele>
        <time>2019-03-12T09:27:58Z</time>
      </trkpt>
      <trkpt lat="31.966088600456715" lon="-5.589074408635497">
        <ele>2648.5700000000002</ele>
        <time>2019-03-12T09:27:59Z</time>
      </trkpt>
      <trkpt lat="31.9660409912467" lon="-5.589133752509952">
        <ele>2649.0500000000002</ele>
        <time>2019-03-12T09:28:00Z</time>
      </trkpt>
      <trkpt lat="31.965989945456386" lon="-5.589205333963037">
        <ele>2650.9699999999998</ele>
        <time>2019-03-12T09:28:01Z</time>
      </trkpt>
      <trkpt lat="31.965879471972585" lon="-5.589373139664531">
        <ele>2651.4499999999998</ele>
        <time>2019-03-12T09:28:03Z</time>
      </trkpt>
      <trkpt lat="31.965829599648714" lon="-5.589469112455845">
        <ele>2651.9299999999998</ele>
        <time>2019-03-12T09:28:04Z</time>
      </trkpt>
      <trkpt lat="31.965538496151567" lon="-5.590020222589374">
        <ele>2652.9000000000001</ele>
        <time>2019-03-12T09:28:05Z</time>
      </trkpt>
      <trkpt lat="31.965478984639049" lon="-5.590090462937951">
        <ele>2653.8600000000001</ele>
        <time>2019-03-12T09:28:06Z</time>
      </trkpt>
      <trkpt lat="31.965416455641389" lon="-5.590143436565995">
        <ele>2654.8200000000002</ele>
        <time>2019-03-12T09:28:07Z</time>
      </trkpt>
      <trkpt lat="31.96535250172019" lon="-5.590182663872838">
        <ele>2655.7800000000002</ele>
        <time>2019-03-12T09:28:08Z</time>
      </trkpt>
      <trkpt lat="31.96528410539031" lon="-5.590208480134606">
        <ele>2656.2600000000002</ele>
        <time>2019-03-12T09:28:09Z</time>
      </trkpt>
      <trkpt lat="31.965216631069779" lon="-5.590223567560315">
        <ele>2657.6999999999998</ele>
        <time>2019-03-12T09:28:10Z</time>
      </trkpt>
      <trkpt lat="31.965149827301502" lon="-5.590229015797377">
        <ele>2659.1399999999999</ele>
        <time>2019-03-12T09:28:12Z</time>
      </trkpt>
      <trkpt lat="31.965077491477132" lon="-5.590221136808395">
        <ele>2659.6199999999999</ele>
        <time>2019-03-12T09:28:13Z</time>
      </trkpt>
      <trkpt lat="31.965000797063112" lon="-5.590207977220416">
        <ele>2660.1100000000001</ele>
        <time>2019-03-12T09:28:14Z</time>
      </trkpt>
      <trkpt lat="31.964844977483153" lon="-5.5901690851897">
        <ele>2661.0700000000002</ele>
        <time>2019-03-12T09:28:15Z</time>
      </trkpt>
      <trkpt lat="31.964761661365628" lon="-5.590127594769001">
        <ele>2661.5500000000002</ele>
        <time>2019-03-12T09:28:16Z</time>
      </trkpt>
      <trkpt lat="31.964672561734915" lon="-5.590080739930272">
        <ele>2662.5100000000002</ele>
        <time>2019-03-12T09:28:17Z</time>
      </trkpt>
      <trkpt lat="31.96458044461906" lon="-5.590044446289539">
        <ele>2662.9899999999998</ele>
        <time>2019-03-12T09:28:18Z</time>
      </trkpt>
      <trkpt lat="31.964484807103872" lon="-5.590021396055818">
        <ele>2663.4699999999998</ele>
        <time>2019-03-12T09:28:19Z</time>
      </trkpt>
      <trkpt lat="31.964389672502875" lon="-5.590012092143297">
        <ele>2664.9099999999999</ele>
        <time>2019-03-12T09:28:20Z</time>
      </trkpt>
      <trkpt lat="31.964296046644449" lon="-5.590023994445801">
        <ele>2665.3899999999999</ele>
        <time>2019-03-12T09:28:21Z</time>
      </trkpt>
      <trkpt lat="31.964203426614404" lon="-5.59004251845181">
        <ele>2665.8699999999999</ele>
        <time>2019-03-12T09:28:22Z</time>
      </trkpt>
      <trkpt lat="31.964022545143962" lon="-5.590052325278521">
        <ele>2666.3499999999999</ele>
        <time>2019-03-12T09:28:23Z</time>
      </trkpt>
      <trkpt lat="31.963952137157321" lon="-5.590034974738956">
        <ele>2666.3499999999999</ele>
        <time>2019-03-12T09:28:24Z</time>
      </trkpt>
      <trkpt lat="31.963897235691547" lon="-5.59001469053328">
        <ele>2666.8299999999999</ele>
        <time>2019-03-12T09:28:25Z</time>
      </trkpt>
      <trkpt lat="31.96384652517736" lon="-5.590002033859491">
        <ele>2667.8000000000002</ele>
        <time>2019-03-12T09:28:26Z</time>
      </trkpt>
      <trkpt lat="31.963792629539967" lon="-5.589997423812747">
        <ele>2668.2800000000002</ele>
        <time>2019-03-12T09:28:27Z</time>
      </trkpt>
      <trkpt lat="31.963737225160003" lon="-5.589994071051478">
        <ele>2668.7600000000002</ele>
        <time>2019-03-12T09:28:28Z</time>
      </trkpt>
      <trkpt lat="31.963686179369688" lon="-5.589975295588374">
        <ele>2669.7199999999998</ele>
        <time>2019-03-12T09:28:29Z</time>
      </trkpt>
      <trkpt lat="31.963640078902245" lon="-5.589947048574686">
        <ele>2670.1999999999998</ele>
        <time>2019-03-12T09:28:30Z</time>
      </trkpt>
      <trkpt lat="31.963593224063516" lon="-5.589921483770013">
        <ele>2670.6799999999998</ele>
        <time>2019-03-12T09:28:31Z</time>
      </trkpt>
      <trkpt lat="31.963545866310596" lon="-5.589901115745306">
        <ele>2671.6399999999999</ele>
        <time>2019-03-12T09:28:32Z</time>
      </trkpt>
      <trkpt lat="31.963492976501584" lon="-5.589883681386709">
        <ele>2672.1199999999999</ele>
        <time>2019-03-12T09:28:33Z</time>
      </trkpt>
      <trkpt lat="31.963435476645827" lon="-5.589862558990717">
        <ele>2673.0799999999999</ele>
        <time>2019-03-12T09:28:34Z</time>
      </trkpt>
      <trkpt lat="31.96337940171361" lon="-5.589827187359333">
        <ele>2674.04</ele>
        <time>2019-03-12T09:28:35Z</time>
      </trkpt>
      <trkpt lat="31.963323745876551" lon="-5.589781841263175">
        <ele>2674.52</ele>
        <time>2019-03-12T09:28:36Z</time>
      </trkpt>
      <trkpt lat="31.963262055069208" lon="-5.589742865413427">
        <ele>2675.4899999999998</ele>
        <time>2019-03-12T09:28:41Z</time>
      </trkpt>
      <trkpt lat="31.963195921853185" lon="-5.589714283123612">
        <ele>2676.9299999999998</ele>
        <time>2019-03-12T09:28:42Z</time>
      </trkpt>
      <trkpt lat="31.963122161105275" lon="-5.589696010574698">
        <ele>2677.8899999999999</ele>
        <time>2019-03-12T09:28:43Z</time>
      </trkpt>
      <trkpt lat="31.963038593530655" lon="-5.589691903442144">
        <ele>2679.3299999999999</ele>
        <time>2019-03-12T09:28:45Z</time>
      </trkpt>
      <trkpt lat="31.962948907166719" lon="-5.58969902805984">
        <ele>2680.29</ele>
        <time>2019-03-12T09:28:46Z</time>
      </trkpt>
      <trkpt lat="31.962861316278577" lon="-5.589718474075198">
        <ele>2681.25</ele>
        <time>2019-03-12T09:28:47Z</time>
      </trkpt>
      <trkpt lat="31.962776994332671" lon="-5.589753007516265">
        <ele>2682.2199999999998</ele>
        <time>2019-03-12T09:28:48Z</time>
      </trkpt>
      <trkpt lat="31.962693594396114" lon="-5.589802209287882">
        <ele>2683.1799999999998</ele>
        <time>2019-03-12T09:28:49Z</time>
      </trkpt>
      <trkpt lat="31.962614301592112" lon="-5.589868258684874">
        <ele>2688.9400000000001</ele>
        <time>2019-03-12T09:28:50Z</time>
      </trkpt>
      <trkpt lat="31.962534422054887" lon="-5.589935649186373">
        <ele>2689.4299999999998</ele>
        <time>2019-03-12T09:28:51Z</time>
      </trkpt>
      <trkpt lat="31.962451860308647" lon="-5.589998345822096">
        <ele>2690.3899999999999</ele>
        <time>2019-03-12T09:28:52Z</time>
      </trkpt>
      <trkpt lat="31.96204106323421" lon="-5.590292299166322">
        <ele>2692.3099999999999</ele>
        <time>2019-03-12T09:28:53Z</time>
      </trkpt>
      <trkpt lat="31.961979120969772" lon="-5.590369831770659">
        <ele>2693.27</ele>
        <time>2019-03-12T09:28:54Z</time>
      </trkpt>
      <trkpt lat="31.961930254474282" lon="-5.590459350496531">
        <ele>2695.1900000000001</ele>
        <time>2019-03-12T09:29:03Z</time>
      </trkpt>
      <trkpt lat="31.961843334138393" lon="-5.590648446232081">
        <ele>2696.6399999999999</ele>
        <time>2019-03-12T09:29:05Z</time>
      </trkpt>
      <trkpt lat="31.961786253377795" lon="-5.590725895017386">
        <ele>2698.0799999999999</ele>
        <time>2019-03-12T09:29:06Z</time>
      </trkpt>
      <trkpt lat="31.96171416901052" lon="-5.59078230522573">
        <ele>2699.52</ele>
        <time>2019-03-12T09:29:07Z</time>
      </trkpt>
      <trkpt lat="31.961634792387486" lon="-5.590819185599685">
        <ele>2700.96</ele>
        <time>2019-03-12T09:29:08Z</time>
      </trkpt>
      <trkpt lat="31.961553320288658" lon="-5.590846678242087">
        <ele>2702.4000000000001</ele>
        <time>2019-03-12T09:29:09Z</time>
      </trkpt>
      <trkpt lat="31.961476122960448" lon="-5.590878278017044">
        <ele>2702.8800000000001</ele>
        <time>2019-03-12T09:29:19Z</time>
      </trkpt>
      <trkpt lat="31.961406134068966" lon="-5.59092354029417">
        <ele>2703.8499999999999</ele>
        <time>2019-03-12T09:29:28Z</time>
      </trkpt>
      <trkpt lat="31.961342515423894" lon="-5.590983554720879">
        <ele>2712.5</ele>
        <time>2019-03-12T09:29:34Z</time>
      </trkpt>
      <trkpt lat="31.961279651150107" lon="-5.5910584051162">
        <ele>2713.9400000000001</ele>
        <time>2019-03-12T09:29:43Z</time>
      </trkpt>
      <trkpt lat="31.961213350296021" lon="-5.591138284653425">
        <ele>2715.3800000000001</ele>
        <time>2019-03-12T09:29:54Z</time>
      </trkpt>
      <trkpt lat="31.960553945973516" lon="-5.591831132769585">
        <ele>2716.3400000000001</ele>
        <time>2019-03-12T09:29:59Z</time>
      </trkpt>
      <trkpt lat="31.960410280153155" lon="-5.591984102502465">
        <ele>2717.7800000000002</ele>
        <time>2019-03-12T09:30:00Z</time>
      </trkpt>
      <trkpt lat="31.960328808054328" lon="-5.59205031953752">
        <ele>2718.75</ele>
        <time>2019-03-12T09:30:03Z</time>
      </trkpt>
      <trkpt lat="31.960246078670025" lon="-5.592113435268402">
        <ele>2730.2800000000002</ele>
        <time>2019-03-12T09:30:04Z</time>
      </trkpt>
      <trkpt lat="31.960167037323117" lon="-5.592185184359551">
        <ele>2733.1700000000001</ele>
        <time>2019-03-12T09:30:15Z</time>
      </trkpt>
      <trkpt lat="31.9600919354707" lon="-5.59226137585938">
        <ele>2730.7600000000002</ele>
        <time>2019-03-12T09:30:16Z</time>
      </trkpt>
      <trkpt lat="31.959485588595271" lon="-5.593027397990227">
        <ele>2724.0300000000002</ele>
        <time>2019-03-12T09:30:17Z</time>
      </trkpt>
      <trkpt lat="31.95893288590014" lon="-5.593643384054303">
        <ele>2714.4200000000001</ele>
        <time>2019-03-12T09:30:18Z</time>
      </trkpt>
      <trkpt lat="31.958524351939559" lon="-5.594250652939081">
        <ele>2710.5700000000002</ele>
        <time>2019-03-12T09:30:19Z</time>
      </trkpt>
      <trkpt lat="31.958023365586996" lon="-5.59528648853302">
        <ele>2709.6100000000001</ele>
        <time>2019-03-12T09:30:20Z</time>
      </trkpt>
      <trkpt lat="31.957403942942619" lon="-5.596575122326613">
        <ele>2707.6900000000001</ele>
        <time>2019-03-12T09:30:21Z</time>
      </trkpt>
      <trkpt lat="31.957050645723939" lon="-5.597137045115233">
        <ele>2706.73</ele>
        <time>2019-03-12T09:30:22Z</time>
      </trkpt>
      <trkpt lat="31.957010747864842" lon="-5.597256319597364">
        <ele>2698.0799999999999</ele>
        <time>2019-03-12T09:30:26Z</time>
      </trkpt>
      <trkpt lat="31.956907482817769" lon="-5.597625710070133">
        <ele>2697.5999999999999</ele>
        <time>2019-03-12T09:30:27Z</time>
      </trkpt>
      <trkpt lat="31.956854173913598" lon="-5.597753534093499">
        <ele>2697.1199999999999</ele>
        <time>2019-03-12T09:30:37Z</time>
      </trkpt>
      <trkpt lat="31.956174653023481" lon="-5.599052142351866">
        <ele>2696.6399999999999</ele>
        <time>2019-03-12T09:30:41Z</time>
      </trkpt>
      <trkpt lat="31.956097288057208" lon="-5.59913981705904">
        <ele>2696.1500000000001</ele>
        <time>2019-03-12T09:30:42Z</time>
      </trkpt>
      <trkpt lat="31.95600894279778" lon="-5.599217852577567">
        <ele>2695.6700000000001</ele>
        <time>2019-03-12T09:30:43Z</time>
      </trkpt>
      <trkpt lat="31.95592051371932" lon="-5.599286332726479">
        <ele>2694.71</ele>
        <time>2019-03-12T09:30:44Z</time>
      </trkpt>
      <trkpt lat="31.955839963629842" lon="-5.599350370466709">
        <ele>2694.23</ele>
        <time>2019-03-12T09:30:45Z</time>
      </trkpt>
      <trkpt lat="31.955768298357725" lon="-5.599423376843333">
        <ele>2693.75</ele>
        <time>2019-03-12T09:30:46Z</time>
      </trkpt>
      <trkpt lat="31.955701997503638" lon="-5.599510632455349">
        <ele>2693.75</ele>
        <time>2019-03-12T09:30:47Z</time>
      </trkpt>
      <trkpt lat="31.955633517354727" lon="-5.599606521427631">
        <ele>2689.9099999999999</ele>
        <time>2019-03-12T09:30:50Z</time>
      </trkpt>
      <trkpt lat="31.955413157120347" lon="-5.599974906072021">
        <ele>2688.9400000000001</ele>
        <time>2019-03-12T09:30:52Z</time>
      </trkpt>
      <trkpt lat="31.955350376665592" lon="-5.600055456161499">
        <ele>2688.46</ele>
        <time>2019-03-12T09:30:53Z</time>
      </trkpt>
      <trkpt lat="31.954553928226233" lon="-5.600967323407531">
        <ele>2687.98</ele>
        <time>2019-03-12T09:30:54Z</time>
      </trkpt>
      <trkpt lat="31.954215969890356" lon="-5.601316010579467">
        <ele>2687.5</ele>
        <time>2019-03-12T09:30:57Z</time>
      </trkpt>
      <trkpt lat="31.954125193879008" lon="-5.601370241492987">
        <ele>2687.02</ele>
        <time>2019-03-12T09:30:58Z</time>
      </trkpt>
      <trkpt lat="31.954026957973838" lon="-5.601399661973119">
        <ele>2686.54</ele>
        <time>2019-03-12T09:30:59Z</time>
      </trkpt>
      <trkpt lat="31.953919418156147" lon="-5.601404858753085">
        <ele>2686.0599999999999</ele>
        <time>2019-03-12T09:31:00Z</time>
      </trkpt>
      <trkpt lat="31.95380668155849" lon="-5.601388430222869">
        <ele>2685.5799999999999</ele>
        <time>2019-03-12T09:31:01Z</time>
      </trkpt>
      <trkpt lat="31.953692603856325" lon="-5.601359512656927">
        <ele>2685.0999999999999</ele>
        <time>2019-03-12T09:31:02Z</time>
      </trkpt>
      <trkpt lat="31.953580370172858" lon="-5.60132397338748">
        <ele>2685.0999999999999</ele>
        <time>2019-03-12T09:31:03Z</time>
      </trkpt>
      <trkpt lat="31.953272335231304" lon="-5.601187348365784">
        <ele>2684.6199999999999</ele>
        <time>2019-03-12T09:31:11Z</time>
      </trkpt>
      <trkpt lat="31.953117856755853" lon="-5.601102272048593">
        <ele>2683.1799999999998</ele>
        <time>2019-03-12T09:31:15Z</time>
      </trkpt>
      <trkpt lat="31.953055579215288" lon="-5.601083245128393">
        <ele>2682.6999999999998</ele>
        <time>2019-03-12T09:31:16Z</time>
      </trkpt>
      <trkpt lat="31.953000510111451" lon="-5.601082406938076">
        <ele>2682.2199999999998</ele>
        <time>2019-03-12T09:31:17Z</time>
      </trkpt>
      <trkpt lat="31.952902777120471" lon="-5.601128172129393">
        <ele>2681.73</ele>
        <time>2019-03-12T09:31:18Z</time>
      </trkpt>
      <trkpt lat="31.952888695523143" lon="-5.60115298256278">
        <ele>2681.73</ele>
        <time>2019-03-12T09:31:19Z</time>
      </trkpt>
      <trkpt lat="31.952886180952191" lon="-5.601188018918037">
        <ele>2681.73</ele>
        <time>2019-03-12T09:31:28Z</time>
      </trkpt>
      <trkpt lat="31.9529012683779" lon="-5.601225569844246">
        <ele>2681.73</ele>
        <time>2019-03-12T09:31:39Z</time>
      </trkpt>
      <trkpt lat="31.952927839010954" lon="-5.601260270923376">
        <ele>2682.6999999999998</ele>
        <time>2019-03-12T09:31:40Z</time>
      </trkpt>
      <trkpt lat="31.952960947528481" lon="-5.60129564255476">
        <ele>2684.1399999999999</ele>
        <time>2019-03-12T09:31:41Z</time>
      </trkpt>
      <trkpt lat="31.953000510111451" lon="-5.601336294785142">
        <ele>2684.6199999999999</ele>
        <time>2019-03-12T09:31:43Z</time>
      </trkpt>
      <trkpt lat="31.953325644135475" lon="-5.601727981120348">
        <ele>2684.6199999999999</ele>
        <time>2019-03-12T09:31:44Z</time>
      </trkpt>
      <trkpt lat="31.953471740707755" lon="-5.602006847038865">
        <ele>2685.0999999999999</ele>
        <time>2019-03-12T09:31:45Z</time>
      </trkpt>
      <trkpt lat="31.953500742092729" lon="-5.602084882557392">
        <ele>2685.5799999999999</ele>
        <time>2019-03-12T09:31:46Z</time>
      </trkpt>
      <trkpt lat="31.953519182279706" lon="-5.602166941389442">
        <ele>2689.9099999999999</ele>
        <time>2019-03-12T09:31:47Z</time>
      </trkpt>
      <trkpt lat="31.953523959964514" lon="-5.602252269163728">
        <ele>2695.1900000000001</ele>
        <time>2019-03-12T09:31:48Z</time>
      </trkpt>
      <trkpt lat="31.953520691022277" lon="-5.602337177842856">
        <ele>2696.1500000000001</ele>
        <time>2019-03-12T09:31:49Z</time>
      </trkpt>
      <trkpt lat="31.953399321064353" lon="-5.603093476966023">
        <ele>2696.6399999999999</ele>
        <time>2019-03-12T09:31:56Z</time>
      </trkpt>
      <trkpt lat="31.953046023845673" lon="-5.603970810770989">
        <ele>2697.5999999999999</ele>
        <time>2019-03-12T09:31:57Z</time>
      </trkpt>
      <trkpt lat="31.953001515939832" lon="-5.604041470214725">
        <ele>2698.0799999999999</ele>
        <time>2019-03-12T09:31:58Z</time>
      </trkpt>
      <trkpt lat="31.952952397987247" lon="-5.604103496298194">
        <ele>2698.5599999999999</ele>
        <time>2019-03-12T09:31:59Z</time>
      </trkpt>
      <trkpt lat="31.952857347205281" lon="-5.60421908274293">
        <ele>2699.52</ele>
        <time>2019-03-12T09:32:00Z</time>
      </trkpt>
      <trkpt lat="31.952827926725149" lon="-5.604279013350606">
        <ele>2700</ele>
        <time>2019-03-12T09:32:01Z</time>
      </trkpt>
      <trkpt lat="31.952808313071728" lon="-5.604342799633741">
        <ele>2700.48</ele>
        <time>2019-03-12T09:32:02Z</time>
      </trkpt>
      <trkpt lat="31.95279716514051" lon="-5.604411028325558">
        <ele>2700.96</ele>
        <time>2019-03-12T09:32:03Z</time>
      </trkpt>
      <trkpt lat="31.952790291979909" lon="-5.604484202340245">
        <ele>2704.8099999999999</ele>
        <time>2019-03-12T09:32:04Z</time>
      </trkpt>
      <trkpt lat="31.952778389677405" lon="-5.604558549821377">
        <ele>2705.77</ele>
        <time>2019-03-12T09:32:05Z</time>
      </trkpt>
      <trkpt lat="31.952764643356204" lon="-5.604633819311857">
        <ele>2706.25</ele>
        <time>2019-03-12T09:32:08Z</time>
      </trkpt>
      <trkpt lat="31.952640758827329" lon="-5.605257684364915">
        <ele>2707.21</ele>
        <time>2019-03-12T09:32:17Z</time>
      </trkpt>
      <trkpt lat="31.952600693330169" lon="-5.605343263596296">
        <ele>2707.6900000000001</ele>
        <time>2019-03-12T09:32:18Z</time>
      </trkpt>
      <trkpt lat="31.952557442709804" lon="-5.605424903333187">
        <ele>2708.6500000000001</ele>
        <time>2019-03-12T09:32:20Z</time>
      </trkpt>
      <trkpt lat="31.95252793841064" lon="-5.605508470907807">
        <ele>2709.1300000000001</ele>
        <time>2019-03-12T09:32:21Z</time>
      </trkpt>
      <trkpt lat="31.952520310878754" lon="-5.605594636872411">
        <ele>2710.0900000000001</ele>
        <time>2019-03-12T09:32:22Z</time>
      </trkpt>
      <trkpt lat="31.952529950067401" lon="-5.605681892484427">
        <ele>2710.5700000000002</ele>
        <time>2019-03-12T09:32:23Z</time>
      </trkpt>
      <trkpt lat="31.952536823228002" lon="-5.605769483372569">
        <ele>2711.0599999999999</ele>
        <time>2019-03-12T09:32:24Z</time>
      </trkpt>
      <trkpt lat="31.952530536800623" lon="-5.605861097574234">
        <ele>2713.46</ele>
        <time>2019-03-12T09:32:25Z</time>
      </trkpt>
      <trkpt lat="31.952516539022326" lon="-5.6059595849365">
        <ele>2721.1500000000001</ele>
        <time>2019-03-12T09:32:31Z</time>
      </trkpt>
      <trkpt lat="31.952499188482761" lon="-5.606060083955526">
        <ele>2721.6300000000001</ele>
        <time>2019-03-12T09:32:32Z</time>
      </trkpt>
      <trkpt lat="31.9524488132447" lon="-5.606365939602256">
        <ele>2723.0700000000002</ele>
        <time>2019-03-12T09:32:33Z</time>
      </trkpt>
      <trkpt lat="31.952477227896452" lon="-5.607151156291366">
        <ele>2723.5500000000002</ele>
        <time>2019-03-12T09:32:34Z</time>
      </trkpt>
      <trkpt lat="31.952497093006968" lon="-5.607205219566822">
        <ele>2724.0300000000002</ele>
        <time>2019-03-12T09:32:35Z</time>
      </trkpt>
      <trkpt lat="31.952540511265397" lon="-5.607299599796534">
        <ele>2724.0300000000002</ele>
        <time>2019-03-12T09:32:36Z</time>
      </trkpt>
      <trkpt lat="31.952569847926497" lon="-5.607343688607216">
        <ele>2724.5100000000002</ele>
        <time>2019-03-12T09:32:37Z</time>
      </trkpt>
      <trkpt lat="31.952604129910469" lon="-5.607386436313391">
        <ele>2724.9899999999998</ele>
        <time>2019-03-12T09:32:40Z</time>
      </trkpt>
      <trkpt lat="31.952638411894441" lon="-5.607432033866644">
        <ele>2727.8800000000001</ele>
        <time>2019-03-12T09:32:41Z</time>
      </trkpt>
      <trkpt lat="31.952669760212302" lon="-5.607487605884671">
        <ele>2728.8400000000001</ele>
        <time>2019-03-12T09:32:42Z</time>
      </trkpt>
      <trkpt lat="31.952699683606625" lon="-5.607551308348775">
        <ele>2729.3200000000002</ele>
        <time>2019-03-12T09:32:43Z</time>
      </trkpt>
      <trkpt lat="31.952864052727818" lon="-5.608058162033558">
        <ele>2729.8000000000002</ele>
        <time>2019-03-12T09:32:44Z</time>
      </trkpt>
      <trkpt lat="31.952867740765214" lon="-5.608154805377126">
        <ele>2730.7600000000002</ele>
        <time>2019-03-12T09:32:45Z</time>
      </trkpt>
      <trkpt lat="31.952855754643679" lon="-5.608251951634884">
        <ele>2731.2399999999998</ele>
        <time>2019-03-12T09:32:47Z</time>
      </trkpt>
      <trkpt lat="31.952829519286752" lon="-5.608349433168769">
        <ele>2732.1999999999998</ele>
        <time>2019-03-12T09:32:48Z</time>
      </trkpt>
      <trkpt lat="31.952797751873732" lon="-5.608446747064591">
        <ele>2734.6100000000001</ele>
        <time>2019-03-12T09:32:54Z</time>
      </trkpt>
      <trkpt lat="31.952773109078407" lon="-5.608546659350395">
        <ele>2735.5700000000002</ele>
        <time>2019-03-12T09:32:55Z</time>
      </trkpt>
      <trkpt lat="31.952759698033333" lon="-5.608647912740707">
        <ele>2736.5300000000002</ele>
        <time>2019-03-12T09:32:56Z</time>
      </trkpt>
      <trkpt lat="31.95274343714118" lon="-5.6089504994452">
        <ele>2737.9699999999998</ele>
        <time>2019-03-12T09:32:57Z</time>
      </trkpt>
      <trkpt lat="31.952751651406288" lon="-5.609050579369068">
        <ele>2738.9299999999998</ele>
        <time>2019-03-12T09:32:58Z</time>
      </trkpt>
      <trkpt lat="31.952771684154868" lon="-5.609148312360048">
        <ele>2739.4099999999999</ele>
        <time>2019-03-12T09:32:59Z</time>
      </trkpt>
      <trkpt lat="31.952798254787922" lon="-5.609241686761379">
        <ele>2740.8600000000001</ele>
        <time>2019-03-12T09:33:00Z</time>
      </trkpt>
      <trkpt lat="31.952827088534832" lon="-5.609330534934998">
        <ele>2741.3400000000001</ele>
        <time>2019-03-12T09:33:04Z</time>
      </trkpt>
      <trkpt lat="31.952855419367552" lon="-5.609414605423808">
        <ele>2745.1799999999998</ele>
        <time>2019-03-12T09:33:05Z</time>
      </trkpt>
      <trkpt lat="31.952900094911456" lon="-5.609597330912948">
        <ele>2745.6599999999999</ele>
        <time>2019-03-12T09:33:06Z</time>
      </trkpt>
      <trkpt lat="31.952911829575896" lon="-5.609695902094245">
        <ele>2746.1399999999999</ele>
        <time>2019-03-12T09:33:11Z</time>
      </trkpt>
      <trkpt lat="31.952958768233657" lon="-5.610250784084201">
        <ele>2747.0999999999999</ele>
        <time>2019-03-12T09:33:12Z</time>
      </trkpt>
      <trkpt lat="31.952944518998265" lon="-5.610326891764998">
        <ele>2747.0999999999999</ele>
        <time>2019-03-12T09:33:13Z</time>
      </trkpt>
      <trkpt lat="31.952919038012624" lon="-5.610399562865496">
        <ele>2747.0999999999999</ele>
        <time>2019-03-12T09:33:14Z</time>
      </trkpt>
      <trkpt lat="31.952883750200272" lon="-5.610463852062821">
        <ele>2747.5900000000001</ele>
        <time>2019-03-12T09:33:15Z</time>
      </trkpt>
      <trkpt lat="31.952843014150858" lon="-5.610522609204054">
        <ele>2749.5100000000002</ele>
        <time>2019-03-12T09:33:16Z</time>
      </trkpt>
      <trkpt lat="31.952797500416636" lon="-5.610576504841447">
        <ele>2750.4699999999998</ele>
        <time>2019-03-12T09:33:17Z</time>
      </trkpt>
      <trkpt lat="31.95274687372148" lon="-5.610625790432096">
        <ele>2750.9499999999998</ele>
        <time>2019-03-12T09:33:18Z</time>
      </trkpt>
      <trkpt lat="31.952554006129503" lon="-5.610836260020733">
        <ele>2751.4299999999998</ele>
        <time>2019-03-12T09:33:22Z</time>
      </trkpt>
      <trkpt lat="31.9525230769068" lon="-5.610884707421064">
        <ele>2751.9099999999999</ele>
        <time>2019-03-12T09:33:23Z</time>
      </trkpt>
      <trkpt lat="31.952504804357886" lon="-5.610922928899527">
        <ele>2752.3899999999999</ele>
        <time>2019-03-12T09:33:24Z</time>
      </trkpt>
      <trkpt lat="31.952436408028007" lon="-5.611066007986665">
        <ele>2752.8699999999999</ele>
        <time>2019-03-12T09:33:25Z</time>
      </trkpt>
      <trkpt lat="31.952424254268408" lon="-5.611116886138916">
        <ele>2753.3499999999999</ele>
        <time>2019-03-12T09:33:26Z</time>
      </trkpt>
      <trkpt lat="31.95241654291749" lon="-5.61117572709918">
        <ele>2754.3099999999999</ele>
        <time>2019-03-12T09:33:27Z</time>
      </trkpt>
      <trkpt lat="31.95241360925138" lon="-5.611238842830062">
        <ele>2754.8000000000002</ele>
        <time>2019-03-12T09:33:28Z</time>
      </trkpt>
      <trkpt lat="31.952411849051714" lon="-5.611301623284817">
        <ele>2755.2800000000002</ele>
        <time>2019-03-12T09:33:29Z</time>
      </trkpt>
      <trkpt lat="31.952402545139194" lon="-5.611369935795665">
        <ele>2756.2399999999998</ele>
        <time>2019-03-12T09:33:33Z</time>
      </trkpt>
      <trkpt lat="31.952378656715155" lon="-5.611441349610686">
        <ele>2757.1999999999998</ele>
        <time>2019-03-12T09:33:34Z</time>
      </trkpt>
      <trkpt lat="31.952341860160232" lon="-5.611511506140232">
        <ele>2757.6799999999998</ele>
        <time>2019-03-12T09:33:35Z</time>
      </trkpt>
      <trkpt lat="31.952198194339871" lon="-5.611803364008665">
        <ele>2758.1599999999999</ele>
        <time>2019-03-12T09:33:36Z</time>
      </trkpt>
      <trkpt lat="31.952157458290458" lon="-5.611859941855073">
        <ele>2758.6399999999999</ele>
        <time>2019-03-12T09:33:37Z</time>
      </trkpt>
      <trkpt lat="31.952116973698139" lon="-5.611907299607992">
        <ele>2759.1199999999999</ele>
        <time>2019-03-12T09:33:38Z</time>
      </trkpt>
      <trkpt lat="31.952082104980946" lon="-5.611949544399977">
        <ele>2759.5999999999999</ele>
        <time>2019-03-12T09:33:39Z</time>
      </trkpt>
      <trkpt lat="31.952057965099812" lon="-5.612000841647387">
        <ele>2760.0799999999999</ele>
        <time>2019-03-12T09:33:45Z</time>
      </trkpt>
      <trkpt lat="31.952052349224687" lon="-5.612060772255063">
        <ele>2761.52</ele>
        <time>2019-03-12T09:33:47Z</time>
      </trkpt>
      <trkpt lat="31.952059138566256" lon="-5.612127827480435">
        <ele>2762</ele>
        <time>2019-03-12T09:33:48Z</time>
      </trkpt>
      <trkpt lat="31.952070370316505" lon="-5.612199995666742">
        <ele>2762.4899999999998</ele>
        <time>2019-03-12T09:33:49Z</time>
      </trkpt>
      <trkpt lat="31.952114459127188" lon="-5.61249160207808">
        <ele>2762.9699999999998</ele>
        <time>2019-03-12T09:33:55Z</time>
      </trkpt>
      <trkpt lat="31.95211018435657" lon="-5.612566536292434">
        <ele>2763.9299999999998</ele>
        <time>2019-03-12T09:33:56Z</time>
      </trkpt>
      <trkpt lat="31.952100461348891" lon="-5.612646918743849">
        <ele>2764.4099999999999</ele>
        <time>2019-03-12T09:33:57Z</time>
      </trkpt>
      <trkpt lat="31.952091744169593" lon="-5.612729983404279">
        <ele>2765.3699999999999</ele>
        <time>2019-03-12T09:33:58Z</time>
      </trkpt>
      <trkpt lat="31.952091576531529" lon="-5.612814305350184">
        <ele>2767.77</ele>
        <time>2019-03-12T09:33:59Z</time>
      </trkpt>
      <trkpt lat="31.952101467177272" lon="-5.612899549305439">
        <ele>2768.25</ele>
        <time>2019-03-12T09:34:06Z</time>
      </trkpt>
      <trkpt lat="31.952114207670093" lon="-5.612984038889408">
        <ele>2768.73</ele>
        <time>2019-03-12T09:34:07Z</time>
      </trkpt>
      <trkpt lat="31.952189980074763" lon="-5.613407324999571">
        <ele>2769.21</ele>
        <time>2019-03-12T09:34:11Z</time>
      </trkpt>
      <trkpt lat="31.952198948711157" lon="-5.613526264205575">
        <ele>2772.5799999999999</ele>
        <time>2019-03-12T09:34:12Z</time>
      </trkpt>
      <trkpt lat="31.952195093035698" lon="-5.613593403249979">
        <ele>2773.0599999999999</ele>
        <time>2019-03-12T09:34:13Z</time>
      </trkpt>
      <trkpt lat="31.95219081826508" lon="-5.613666409626603">
        <ele>2773.54</ele>
        <time>2019-03-12T09:34:14Z</time>
      </trkpt>
      <trkpt lat="31.952142203226686" lon="-5.614137807860971">
        <ele>2774.5</ele>
        <time>2019-03-12T09:34:15Z</time>
      </trkpt>
      <trkpt lat="31.952108256518841" lon="-5.614206790924072">
        <ele>2775.46</ele>
        <time>2019-03-12T09:34:16Z</time>
      </trkpt>
      <trkpt lat="31.95207204669714" lon="-5.614278204739094">
        <ele>2780.27</ele>
        <time>2019-03-12T09:34:17Z</time>
      </trkpt>
      <trkpt lat="31.952042039483786" lon="-5.614355821162462">
        <ele>2780.75</ele>
        <time>2019-03-12T09:34:22Z</time>
      </trkpt>
      <trkpt lat="31.952013708651066" lon="-5.61443729326129">
        <ele>2783.6300000000001</ele>
        <time>2019-03-12T09:34:23Z</time>
      </trkpt>
      <trkpt lat="31.951846657320857" lon="-5.615077000111342">
        <ele>2784.1199999999999</ele>
        <time>2019-03-12T09:34:24Z</time>
      </trkpt>
      <trkpt lat="31.951814219355583" lon="-5.61516928486526">
        <ele>2784.1199999999999</ele>
        <time>2019-03-12T09:34:25Z</time>
      </trkpt>
      <trkpt lat="31.951705254614353" lon="-5.615498274564743">
        <ele>2784.5999999999999</ele>
        <time>2019-03-12T09:34:26Z</time>
      </trkpt>
      <trkpt lat="31.951713552698493" lon="-5.615565916523337">
        <ele>2785.0799999999999</ele>
        <time>2019-03-12T09:34:27Z</time>
      </trkpt>
      <trkpt lat="31.951737524941564" lon="-5.615622662007809">
        <ele>2785.5599999999999</ele>
        <time>2019-03-12T09:34:32Z</time>
      </trkpt>
      <trkpt lat="31.951770717278123" lon="-5.615672450512648">
        <ele>2785.5599999999999</ele>
        <time>2019-03-12T09:34:35Z</time>
      </trkpt>
      <trkpt lat="31.951806927099824" lon="-5.615712013095617">
        <ele>2786.52</ele>
        <time>2019-03-12T09:34:36Z</time>
      </trkpt>
      <trkpt lat="31.951839365065098" lon="-5.615741098299623">
        <ele>2786.52</ele>
        <time>2019-03-12T09:34:37Z</time>
      </trkpt>
      <trkpt lat="31.95186828263104" lon="-5.615763310343027">
        <ele>2787</ele>
        <time>2019-03-12T09:34:38Z</time>
      </trkpt>
      <trkpt lat="31.951983701437712" lon="-5.615902869030833">
        <ele>2787</ele>
        <time>2019-03-12T09:34:39Z</time>
      </trkpt>
      <trkpt lat="31.952006248757243" lon="-5.615955675020814">
        <ele>2787</ele>
        <time>2019-03-12T09:34:40Z</time>
      </trkpt>
      <trkpt lat="31.952022677287459" lon="-5.616013174876571">
        <ele>2787.48</ele>
        <time>2019-03-12T09:34:41Z</time>
      </trkpt>
      <trkpt lat="31.952031813561916" lon="-5.616074278950691">
        <ele>2790.3600000000001</ele>
        <time>2019-03-12T09:34:42Z</time>
      </trkpt>
      <trkpt lat="31.952037932351232" lon="-5.61614066362381">
        <ele>2792.29</ele>
        <time>2019-03-12T09:34:45Z</time>
      </trkpt>
      <trkpt lat="31.952039860188961" lon="-5.616214340552688">
        <ele>2792.29</ele>
        <time>2019-03-12T09:34:46Z</time>
      </trkpt>
      <trkpt lat="31.952023096382618" lon="-5.616673836484551">
        <ele>2792.77</ele>
        <time>2019-03-12T09:34:47Z</time>
      </trkpt>
      <trkpt lat="31.952048577368259" lon="-5.616961419582367">
        <ele>2793.25</ele>
        <time>2019-03-12T09:34:48Z</time>
      </trkpt>
      <trkpt lat="31.952048577368259" lon="-5.617046495899558">
        <ele>2793.73</ele>
        <time>2019-03-12T09:34:49Z</time>
      </trkpt>
      <trkpt lat="31.952063413336873" lon="-5.617125872522593">
        <ele>2794.21</ele>
        <time>2019-03-12T09:34:52Z</time>
      </trkpt>
      <trkpt lat="31.952094258740544" lon="-5.617198292165995">
        <ele>2794.6900000000001</ele>
        <time>2019-03-12T09:34:53Z</time>
      </trkpt>
      <trkpt lat="31.95212921127677" lon="-5.617266688495874">
        <ele>2794.6900000000001</ele>
        <time>2019-03-12T09:34:55Z</time>
      </trkpt>
      <trkpt lat="31.952158715575933" lon="-5.617339191958308">
        <ele>2796.6100000000001</ele>
        <time>2019-03-12T09:34:56Z</time>
      </trkpt>
      <trkpt lat="31.952178832143545" lon="-5.617416137829423">
        <ele>2797.0900000000001</ele>
        <time>2019-03-12T09:34:57Z</time>
      </trkpt>
      <trkpt lat="31.952183609828353" lon="-5.617500795051456">
        <ele>2797.5700000000002</ele>
        <time>2019-03-12T09:34:58Z</time>
      </trkpt>
      <trkpt lat="31.952195009216666" lon="-5.617788881063461">
        <ele>2798.0500000000002</ele>
        <time>2019-03-12T09:34:59Z</time>
      </trkpt>
      <trkpt lat="31.952219568192959" lon="-5.617879405617714">
        <ele>2799.02</ele>
        <time>2019-03-12T09:35:09Z</time>
      </trkpt>
      <trkpt lat="31.952256029471755" lon="-5.617953585460782">
        <ele>2800.46</ele>
        <time>2019-03-12T09:35:12Z</time>
      </trkpt>
      <trkpt lat="31.952309841290116" lon="-5.618008151650429">
        <ele>2800.9400000000001</ele>
        <time>2019-03-12T09:35:13Z</time>
      </trkpt>
      <trkpt lat="31.952371532097459" lon="-5.61805609613657">
        <ele>2801.4200000000001</ele>
        <time>2019-03-12T09:35:15Z</time>
      </trkpt>
      <trkpt lat="31.952546881511807" lon="-5.618198001757264">
        <ele>2801.9000000000001</ele>
        <time>2019-03-12T09:35:16Z</time>
      </trkpt>
      <trkpt lat="31.952588623389602" lon="-5.618248376995325">
        <ele>2801.9000000000001</ele>
        <time>2019-03-12T09:35:17Z</time>
      </trkpt>
      <trkpt lat="31.952651152387261" lon="-5.618339404463768">
        <ele>2802.3800000000001</ele>
        <time>2019-03-12T09:35:18Z</time>
      </trkpt>
      <trkpt lat="31.95268870331347" lon="-5.618376703932881">
        <ele>2802.3800000000001</ele>
        <time>2019-03-12T09:35:19Z</time>
      </trkpt>
      <trkpt lat="31.952735641971231" lon="-5.618405872955918">
        <ele>2799.02</ele>
        <time>2019-03-12T09:35:20Z</time>
      </trkpt>
      <trkpt lat="31.952787609770894" lon="-5.618424061685801">
        <ele>2797.0900000000001</ele>
        <time>2019-03-12T09:35:21Z</time>
      </trkpt>
      <trkpt lat="31.95284016430378" lon="-5.61843378469348">
        <ele>2797.0900000000001</ele>
        <time>2019-03-12T09:35:30Z</time>
      </trkpt>
      <trkpt lat="31.953550362959504" lon="-5.618741484358907">
        <ele>2796.1300000000001</ele>
        <time>2019-03-12T09:35:43Z</time>
      </trkpt>
      <trkpt lat="31.953784301877022" lon="-5.618893196806312">
        <ele>2795.6500000000001</ele>
        <time>2019-03-12T09:35:45Z</time>
      </trkpt>
      <trkpt lat="31.953851776197553" lon="-5.618921779096127">
        <ele>2795.1700000000001</ele>
        <time>2019-03-12T09:35:46Z</time>
      </trkpt>
      <trkpt lat="31.953953532502055" lon="-5.618961174041033">
        <ele>2794.6900000000001</ele>
        <time>2019-03-12T09:35:47Z</time>
      </trkpt>
      <trkpt lat="31.953982030972838" lon="-5.619002161547542">
        <ele>2794.6900000000001</ele>
        <time>2019-03-12T09:35:48Z</time>
      </trkpt>
      <trkpt lat="31.953988904133439" lon="-5.619056057184935">
        <ele>2794.21</ele>
        <time>2019-03-12T09:35:49Z</time>
      </trkpt>
      <trkpt lat="31.95397675037384" lon="-5.619115568697453">
        <ele>2793.73</ele>
        <time>2019-03-12T09:35:50Z</time>
      </trkpt>
      <trkpt lat="31.953946743160486" lon="-5.619181031361222">
        <ele>2790.3600000000001</ele>
        <time>2019-03-12T09:35:51Z</time>
      </trkpt>
      <trkpt lat="31.953902570530772" lon="-5.619255378842354">
        <ele>2779.79</ele>
        <time>2019-03-12T09:35:52Z</time>
      </trkpt>
      <trkpt lat="31.953848004341125" lon="-5.619336850941181">
        <ele>2777.3899999999999</ele>
        <time>2019-03-12T09:35:53Z</time>
      </trkpt>
      <trkpt lat="31.953226486220956" lon="-5.620217034593225">
        <ele>2776.4200000000001</ele>
        <time>2019-03-12T09:35:54Z</time>
      </trkpt>
      <trkpt lat="31.952264159917831" lon="-5.62153366394341">
        <ele>2775.46</ele>
        <time>2019-03-12T09:35:55Z</time>
      </trkpt>
      <trkpt lat="31.95212041027844" lon="-5.621757041662931">
        <ele>2774.02</ele>
        <time>2019-03-12T09:35:56Z</time>
      </trkpt>
      <trkpt lat="31.952065257355571" lon="-5.621871622279286">
        <ele>2773.0599999999999</ele>
        <time>2019-03-12T09:35:57Z</time>
      </trkpt>
      <trkpt lat="31.952022174373269" lon="-5.621985448524356">
        <ele>2772.0999999999999</ele>
        <time>2019-03-12T09:35:58Z</time>
      </trkpt>
      <trkpt lat="31.951989568769932" lon="-5.622100196778774">
        <ele>2771.1399999999999</ele>
        <time>2019-03-12T09:36:03Z</time>
      </trkpt>
      <trkpt lat="31.951956627890468" lon="-5.622213436290622">
        <ele>2770.6599999999999</ele>
        <time>2019-03-12T09:36:04Z</time>
      </trkpt>
      <trkpt lat="31.951913461089134" lon="-5.622316785156727">
        <ele>2769.6999999999998</ele>
        <time>2019-03-12T09:36:13Z</time>
      </trkpt>
      <trkpt lat="31.951860738918185" lon="-5.622405633330345">
        <ele>2768.73</ele>
        <time>2019-03-12T09:36:15Z</time>
      </trkpt>
      <trkpt lat="31.951810615137219" lon="-5.622491799294949">
        <ele>2767.77</ele>
        <time>2019-03-12T09:36:16Z</time>
      </trkpt>
      <trkpt lat="31.951771639287472" lon="-5.622582826763392">
        <ele>2766.8099999999999</ele>
        <time>2019-03-12T09:36:17Z</time>
      </trkpt>
      <trkpt lat="31.951743308454752" lon="-5.622684080153704">
        <ele>2765.8499999999999</ele>
        <time>2019-03-12T09:36:18Z</time>
      </trkpt>
      <trkpt lat="31.951726377010345" lon="-5.622791619971395">
        <ele>2764.8899999999999</ele>
        <time>2019-03-12T09:36:19Z</time>
      </trkpt>
      <trkpt lat="31.951711289584637" lon="-5.622902261093259">
        <ele>2760.5599999999999</ele>
        <time>2019-03-12T09:36:20Z</time>
      </trkpt>
      <trkpt lat="31.951680863276124" lon="-5.62301223166287">
        <ele>2759.5999999999999</ele>
        <time>2019-03-12T09:36:21Z</time>
      </trkpt>
      <trkpt lat="31.951638031750917" lon="-5.62312857247889">
        <ele>2751.9099999999999</ele>
        <time>2019-03-12T09:36:22Z</time>
      </trkpt>
      <trkpt lat="31.951428484171629" lon="-5.623739277943969">
        <ele>2749.9899999999998</ele>
        <time>2019-03-12T09:36:23Z</time>
      </trkpt>
      <trkpt lat="31.951406858861446" lon="-5.623869113624096">
        <ele>2749.5100000000002</ele>
        <time>2019-03-12T09:36:24Z</time>
      </trkpt>
      <trkpt lat="31.95107476785779" lon="-5.62501952983439">
        <ele>2748.5500000000002</ele>
        <time>2019-03-12T09:36:25Z</time>
      </trkpt>
      <trkpt lat="31.951027493923903" lon="-5.625261180102825">
        <ele>2748.0700000000002</ele>
        <time>2019-03-12T09:36:26Z</time>
      </trkpt>
      <trkpt lat="31.950983321294188" lon="-5.625364277511835">
        <ele>2747.5900000000001</ele>
        <time>2019-03-12T09:36:27Z</time>
      </trkpt>
      <trkpt lat="31.950919199734926" lon="-5.625446001067758">
        <ele>2746.6199999999999</ele>
        <time>2019-03-12T09:36:28Z</time>
      </trkpt>
      <trkpt lat="31.950847031548619" lon="-5.625505847856402">
        <ele>2745.6599999999999</ele>
        <time>2019-03-12T09:36:29Z</time>
      </trkpt>
      <trkpt lat="31.950775114819407" lon="-5.625557899475098">
        <ele>2745.1799999999998</ele>
        <time>2019-03-12T09:36:30Z</time>
      </trkpt>
      <trkpt lat="31.95070831105113" lon="-5.625619757920504">
        <ele>2744.2199999999998</ele>
        <time>2019-03-12T09:36:38Z</time>
      </trkpt>
      <trkpt lat="31.950644608587027" lon="-5.625695865601301">
        <ele>2743.7399999999998</ele>
        <time>2019-03-12T09:36:39Z</time>
      </trkpt>
      <trkpt lat="31.950584258884192" lon="-5.625780439004302">
        <ele>2743.2600000000002</ele>
        <time>2019-03-12T09:36:46Z</time>
      </trkpt>
      <trkpt lat="31.950532039627433" lon="-5.625868616625667">
        <ele>2742.7800000000002</ele>
        <time>2019-03-12T09:36:47Z</time>
      </trkpt>
      <trkpt lat="31.950493063777685" lon="-5.625958051532507">
        <ele>2742.3000000000002</ele>
        <time>2019-03-12T09:36:48Z</time>
      </trkpt>
      <trkpt lat="31.9504698459059" lon="-5.626054024323821">
        <ele>2741.3400000000001</ele>
        <time>2019-03-12T09:36:50Z</time>
      </trkpt>
      <trkpt lat="31.950443610548973" lon="-5.626153098419309">
        <ele>2740.8600000000001</ele>
        <time>2019-03-12T09:36:51Z</time>
      </trkpt>
      <trkpt lat="31.950400024652481" lon="-5.626251501962543">
        <ele>2739.8899999999999</ele>
        <time>2019-03-12T09:36:53Z</time>
      </trkpt>
      <trkpt lat="31.950340764597058" lon="-5.626347810029984">
        <ele>2734.1300000000001</ele>
        <time>2019-03-12T09:36:54Z</time>
      </trkpt>
      <trkpt lat="31.950270691886544" lon="-5.626441519707441">
        <ele>2733.6500000000001</ele>
        <time>2019-03-12T09:36:55Z</time>
      </trkpt>
      <trkpt lat="31.950196260586381" lon="-5.626531625166535">
        <ele>2728.3600000000001</ele>
        <time>2019-03-12T09:37:02Z</time>
      </trkpt>
      <trkpt lat="31.949720922857523" lon="-5.627390602603555">
        <ele>2727.8800000000001</ele>
        <time>2019-03-12T09:37:03Z</time>
      </trkpt>
      <trkpt lat="31.949667865410447" lon="-5.627478528767824">
        <ele>2726.9200000000001</ele>
        <time>2019-03-12T09:37:04Z</time>
      </trkpt>
      <trkpt lat="31.949189342558384" lon="-5.628157630562782">
        <ele>2725.96</ele>
        <time>2019-03-12T09:37:05Z</time>
      </trkpt>
      <trkpt lat="31.94911734201014" lon="-5.628242958337069">
        <ele>2725.48</ele>
        <time>2019-03-12T09:37:06Z</time>
      </trkpt>
      <trkpt lat="31.949035115540028" lon="-5.628310684114695">
        <ele>2724.0300000000002</ele>
        <time>2019-03-12T09:37:07Z</time>
      </trkpt>
      <trkpt lat="31.948886169120669" lon="-5.628414619714022">
        <ele>2723.5500000000002</ele>
        <time>2019-03-12T09:37:08Z</time>
      </trkpt>
      <trkpt lat="31.948819197714329" lon="-5.628474550321698">
        <ele>2723.0700000000002</ele>
        <time>2019-03-12T09:37:09Z</time>
      </trkpt>
      <trkpt lat="31.948667401447892" lon="-5.62861293554306">
        <ele>2721.1500000000001</ele>
        <time>2019-03-12T09:37:10Z</time>
      </trkpt>
      <trkpt lat="31.948575871065259" lon="-5.628673955798149">
        <ele>2720.6700000000001</ele>
        <time>2019-03-12T09:37:18Z</time>
      </trkpt>
      <trkpt lat="31.948486603796482" lon="-5.628722151741386">
        <ele>2720.1900000000001</ele>
        <time>2019-03-12T09:37:29Z</time>
      </trkpt>
      <trkpt lat="31.947939936071634" lon="-5.629062792286277">
        <ele>2719.71</ele>
        <time>2019-03-12T09:37:34Z</time>
      </trkpt>
      <trkpt lat="31.947867013514042" lon="-5.629144012928009">
        <ele>2719.23</ele>
        <time>2019-03-12T09:37:35Z</time>
      </trkpt>
      <trkpt lat="31.947807921096683" lon="-5.629239147529006">
        <ele>2719.23</ele>
        <time>2019-03-12T09:37:47Z</time>
      </trkpt>
      <trkpt lat="31.947759138420224" lon="-5.629337299615145">
        <ele>2719.23</ele>
        <time>2019-03-12T09:37:54Z</time>
      </trkpt>
      <trkpt lat="31.947713373228908" lon="-5.629427572712302">
        <ele>2719.23</ele>
        <time>2019-03-12T09:37:57Z</time>
      </trkpt>
      <trkpt lat="31.94765780121088" lon="-5.629510385915637">
        <ele>2719.71</ele>
        <time>2019-03-12T09:37:58Z</time>
      </trkpt>
      <trkpt lat="31.94759082980454" lon="-5.629587164148688">
        <ele>2719.71</ele>
        <time>2019-03-12T09:37:59Z</time>
      </trkpt>
      <trkpt lat="31.947512626647949" lon="-5.629660421982408">
        <ele>2721.1500000000001</ele>
        <time>2019-03-12T09:38:00Z</time>
      </trkpt>
      <trkpt lat="31.947430316358805" lon="-5.629730829969049">
        <ele>2721.1500000000001</ele>
        <time>2019-03-12T09:38:01Z</time>
      </trkpt>
      <trkpt lat="31.94670251570642" lon="-5.630203066393733">
        <ele>2721.1500000000001</ele>
        <time>2019-03-12T09:38:04Z</time>
      </trkpt>
      <trkpt lat="31.945829959586263" lon="-5.630775718018413">
        <ele>2717.7800000000002</ele>
        <time>2019-03-12T09:38:08Z</time>
      </trkpt>
      <trkpt lat="31.945481356233358" lon="-5.631118286401033">
        <ele>2714.4200000000001</ele>
        <time>2019-03-12T09:38:09Z</time>
      </trkpt>
      <trkpt lat="31.94539544172585" lon="-5.631183832883835">
        <ele>2713.9400000000001</ele>
        <time>2019-03-12T09:38:10Z</time>
      </trkpt>
      <trkpt lat="31.944147124886513" lon="-5.631933594122529">
        <ele>2713.46</ele>
        <time>2019-03-12T09:38:11Z</time>
      </trkpt>
      <trkpt lat="31.943386802449822" lon="-5.6322390306741">
        <ele>2712.98</ele>
        <time>2019-03-12T09:38:12Z</time>
      </trkpt>
      <trkpt lat="31.943111959844828" lon="-5.632287645712495">
        <ele>2712.98</ele>
        <time>2019-03-12T09:38:15Z</time>
      </trkpt>
      <trkpt lat="31.943021519109607" lon="-5.63232502900064">
        <ele>2712.5</ele>
        <time>2019-03-12T09:38:21Z</time>
      </trkpt>
      <trkpt lat="31.94292982108891" lon="-5.632378002628684">
        <ele>2711.0599999999999</ele>
        <time>2019-03-12T09:38:54Z</time>
      </trkpt>
      <trkpt lat="31.942839045077562" lon="-5.632440866902471">
        <ele>2708.6500000000001</ele>
        <time>2019-03-12T09:38:55Z</time>
      </trkpt>
      <trkpt lat="31.942748604342341" lon="-5.632512448355556">
        <ele>2708.1700000000001</ele>
        <time>2019-03-12T09:39:04Z</time>
      </trkpt>
      <trkpt lat="31.942491699010134" lon="-5.632754601538181">
        <ele>2707.6900000000001</ele>
        <time>2019-03-12T09:39:19Z</time>
      </trkpt>
      <trkpt lat="31.94220663048327" lon="-5.633087027817965">
        <ele>2707.6900000000001</ele>
        <time>2019-03-12T09:39:33Z</time>
      </trkpt>
      <trkpt lat="31.942135384306312" lon="-5.633171601220965">
        <ele>2707.21</ele>
        <time>2019-03-12T09:39:34Z</time>
      </trkpt>
      <trkpt lat="31.942052152007818" lon="-5.633245697245002">
        <ele>2706.73</ele>
        <time>2019-03-12T09:39:35Z</time>
      </trkpt>
      <trkpt lat="31.941963974386454" lon="-5.63330814242363">
        <ele>2706.25</ele>
        <time>2019-03-12T09:39:36Z</time>
      </trkpt>
      <trkpt lat="31.941874288022518" lon="-5.633361367508769">
        <ele>2704.3299999999999</ele>
        <time>2019-03-12T09:39:38Z</time>
      </trkpt>
      <trkpt lat="31.94166474044323" lon="-5.63347234390676">
        <ele>2704.3299999999999</ele>
        <time>2019-03-12T09:39:45Z</time>
      </trkpt>
      <trkpt lat="31.941586285829544" lon="-5.633522467687726">
        <ele>2702.8800000000001</ele>
        <time>2019-03-12T09:39:46Z</time>
      </trkpt>
      <trkpt lat="31.941462904214859" lon="-5.633613662794232">
        <ele>2699.52</ele>
        <time>2019-03-12T09:39:58Z</time>
      </trkpt>
      <trkpt lat="31.941415127366781" lon="-5.633652387186885">
        <ele>2697.1199999999999</ele>
        <time>2019-03-12T09:39:59Z</time>
      </trkpt>
      <trkpt lat="31.940851109102368" lon="-5.634200060740113">
        <ele>2697.5999999999999</ele>
        <time>2019-03-12T09:40:00Z</time>
      </trkpt>
      <trkpt lat="31.939677894115448" lon="-5.635148389264941">
        <ele>2697.5999999999999</ele>
        <time>2019-03-12T09:40:01Z</time>
      </trkpt>
      <trkpt lat="31.938680363819003" lon="-5.635972581803799">
        <ele>2698.0799999999999</ele>
        <time>2019-03-12T09:40:02Z</time>
      </trkpt>
      <trkpt lat="31.938616661354899" lon="-5.636025555431843">
        <ele>2698.0799999999999</ele>
        <time>2019-03-12T09:40:03Z</time>
      </trkpt>
      <trkpt lat="31.93856050260365" lon="-5.63608406111598">
        <ele>2698.5599999999999</ele>
        <time>2019-03-12T09:40:04Z</time>
      </trkpt>
      <trkpt lat="31.938510714098811" lon="-5.636147512122989">
        <ele>2698.5599999999999</ele>
        <time>2019-03-12T09:40:05Z</time>
      </trkpt>
      <trkpt lat="31.938413232564926" lon="-5.636277431622148">
        <ele>2698.5599999999999</ele>
        <time>2019-03-12T09:40:06Z</time>
      </trkpt>
      <trkpt lat="31.937973685562611" lon="-5.636665681377053">
        <ele>2698.5599999999999</ele>
        <time>2019-03-12T09:40:07Z</time>
      </trkpt>
      <trkpt lat="31.937920292839408" lon="-5.636727539822459">
        <ele>2699.04</ele>
        <time>2019-03-12T09:40:08Z</time>
      </trkpt>
      <trkpt lat="31.937336744740605" lon="-5.637582577764988">
        <ele>2698.5599999999999</ele>
        <time>2019-03-12T09:40:09Z</time>
      </trkpt>
      <trkpt lat="31.937285950407386" lon="-5.637642340734601">
        <ele>2698.5599999999999</ele>
        <time>2019-03-12T09:40:14Z</time>
      </trkpt>
      <trkpt lat="31.937246890738606" lon="-5.637691961601377">
        <ele>2698.0799999999999</ele>
        <time>2019-03-12T09:40:15Z</time>
      </trkpt>
      <trkpt lat="31.937219314277172" lon="-5.637741079553962">
        <ele>2697.5999999999999</ele>
        <time>2019-03-12T09:40:16Z</time>
      </trkpt>
      <trkpt lat="31.93719919770956" lon="-5.637797992676497">
        <ele>2697.5999999999999</ele>
        <time>2019-03-12T09:40:17Z</time>
      </trkpt>
      <trkpt lat="31.937182852998376" lon="-5.637859767302871">
        <ele>2697.1199999999999</ele>
        <time>2019-03-12T09:40:18Z</time>
      </trkpt>
      <trkpt lat="31.937163239344954" lon="-5.637920117005706">
        <ele>2697.1199999999999</ele>
        <time>2019-03-12T09:40:19Z</time>
      </trkpt>
      <trkpt lat="31.937136501073837" lon="-5.637982646003366">
        <ele>2697.1199999999999</ele>
        <time>2019-03-12T09:40:20Z</time>
      </trkpt>
      <trkpt lat="31.937100291252136" lon="-5.638045677915216">
        <ele>2697.1199999999999</ele>
        <time>2019-03-12T09:40:21Z</time>
      </trkpt>
      <trkpt lat="31.937055448070168" lon="-5.638102255761623">
        <ele>2695.6700000000001</ele>
        <time>2019-03-12T09:40:22Z</time>
      </trkpt>
      <trkpt lat="31.937007000669837" lon="-5.63815095461905">
        <ele>2695.1900000000001</ele>
        <time>2019-03-12T09:40:23Z</time>
      </trkpt>
      <trkpt lat="31.936961738392711" lon="-5.638194959610701">
        <ele>2694.71</ele>
        <time>2019-03-12T09:40:24Z</time>
      </trkpt>
      <trkpt lat="31.93676526658237" lon="-5.638440884649754">
        <ele>2694.71</ele>
        <time>2019-03-12T09:40:25Z</time>
      </trkpt>
      <trkpt lat="31.936735091730952" lon="-5.63847491517663">
        <ele>2694.71</ele>
        <time>2019-03-12T09:40:26Z</time>
      </trkpt>
      <trkpt lat="31.936710784211755" lon="-5.638498216867447">
        <ele>2694.23</ele>
        <time>2019-03-12T09:40:31Z</time>
      </trkpt>
      <trkpt lat="31.936695361509919" lon="-5.638520428910852">
        <ele>2693.75</ele>
        <time>2019-03-12T09:40:44Z</time>
      </trkpt>
      <trkpt lat="31.936683040112257" lon="-5.638550603762269">
        <ele>2694.23</ele>
        <time>2019-03-12T09:40:49Z</time>
      </trkpt>
      <trkpt lat="31.936667114496231" lon="-5.638589998707175">
        <ele>2694.23</ele>
        <time>2019-03-12T09:40:50Z</time>
      </trkpt>
      <trkpt lat="31.936644986271858" lon="-5.638629393652082">
        <ele>2694.23</ele>
        <time>2019-03-12T09:40:51Z</time>
      </trkpt>
      <trkpt lat="31.936618499457836" lon="-5.638678930699825">
        <ele>2694.23</ele>
        <time>2019-03-12T09:40:52Z</time>
      </trkpt>
      <trkpt lat="31.936582373455167" lon="-5.638729389756918">
        <ele>2694.23</ele>
        <time>2019-03-12T09:40:53Z</time>
      </trkpt>
      <trkpt lat="31.936533590778708" lon="-5.638777669519186">
        <ele>2694.71</ele>
        <time>2019-03-12T09:40:54Z</time>
      </trkpt>
      <trkpt lat="31.936473995447159" lon="-5.638818489387631">
        <ele>2696.6399999999999</ele>
        <time>2019-03-12T09:40:55Z</time>
      </trkpt>
      <trkpt lat="31.936406856402755" lon="-5.63884480856359">
        <ele>2702.4000000000001</ele>
        <time>2019-03-12T09:40:56Z</time>
      </trkpt>
      <trkpt lat="31.936339549720287" lon="-5.638863164931536">
        <ele>2704.3299999999999</ele>
        <time>2019-03-12T09:40:57Z</time>
      </trkpt>
      <trkpt lat="31.936004525050521" lon="-5.638999538496137">
        <ele>2705.29</ele>
        <time>2019-03-12T09:40:58Z</time>
      </trkpt>
      <trkpt lat="31.935014370828867" lon="-5.639513935893774">
        <ele>2705.77</ele>
        <time>2019-03-12T09:40:59Z</time>
      </trkpt>
      <trkpt lat="31.934563424438238" lon="-5.63969842158258">
        <ele>2706.25</ele>
        <time>2019-03-12T09:41:00Z</time>
      </trkpt>
      <trkpt lat="31.934475498273969" lon="-5.639707893133164">
        <ele>2706.73</ele>
        <time>2019-03-12T09:41:01Z</time>
      </trkpt>
      <trkpt lat="31.934390338137746" lon="-5.63969892449677">
        <ele>2707.21</ele>
        <time>2019-03-12T09:41:02Z</time>
      </trkpt>
      <trkpt lat="31.934307608753443" lon="-5.63967545516789">
        <ele>2707.6900000000001</ele>
        <time>2019-03-12T09:41:03Z</time>
      </trkpt>
      <trkpt lat="31.934225969016552" lon="-5.639646202325821">
        <ele>2708.1700000000001</ele>
        <time>2019-03-12T09:41:04Z</time>
      </trkpt>
      <trkpt lat="31.934150028973818" lon="-5.639624912291765">
        <ele>2708.6500000000001</ele>
        <time>2019-03-12T09:41:05Z</time>
      </trkpt>
      <trkpt lat="31.934080375358462" lon="-5.639617871493101">
        <ele>2708.6500000000001</ele>
        <time>2019-03-12T09:41:06Z</time>
      </trkpt>
      <trkpt lat="31.934022037312388" lon="-5.639627259224653">
        <ele>2708.6500000000001</ele>
        <time>2019-03-12T09:41:07Z</time>
      </trkpt>
      <trkpt lat="31.933977194130421" lon="-5.639646202325821">
        <ele>2708.6500000000001</ele>
        <time>2019-03-12T09:41:09Z</time>
      </trkpt>
      <trkpt lat="31.933952970430255" lon="-5.639670845121145">
        <ele>2708.1700000000001</ele>
        <time>2019-03-12T09:41:10Z</time>
      </trkpt>
      <trkpt lat="31.933943415060639" lon="-5.639694314450026">
        <ele>2708.1700000000001</ele>
        <time>2019-03-12T09:41:11Z</time>
      </trkpt>
      <trkpt lat="31.933939391747117" lon="-5.639721974730492">
        <ele>2708.6500000000001</ele>
        <time>2019-03-12T09:41:18Z</time>
      </trkpt>
      <trkpt lat="31.933942073956132" lon="-5.639758436009288">
        <ele>2709.1300000000001</ele>
        <time>2019-03-12T09:41:19Z</time>
      </trkpt>
      <trkpt lat="31.933956490829587" lon="-5.639806212857366">
        <ele>2709.1300000000001</ele>
        <time>2019-03-12T09:41:22Z</time>
      </trkpt>
      <trkpt lat="31.933973086997867" lon="-5.639864047989249">
        <ele>2709.1300000000001</ele>
        <time>2019-03-12T09:41:27Z</time>
      </trkpt>
      <trkpt lat="31.933982223272324" lon="-5.63993202522397">
        <ele>2709.1300000000001</ele>
        <time>2019-03-12T09:41:31Z</time>
      </trkpt>
      <trkpt lat="31.933981887996197" lon="-5.640007797628641">
        <ele>2709.6100000000001</ele>
        <time>2019-03-12T09:41:32Z</time>
      </trkpt>
      <trkpt lat="31.933976858854294" lon="-5.640095137059689">
        <ele>2710.0900000000001</ele>
        <time>2019-03-12T09:41:33Z</time>
      </trkpt>
      <trkpt lat="31.933970237150788" lon="-5.64019437879324">
        <ele>2710.0900000000001</ele>
        <time>2019-03-12T09:41:34Z</time>
      </trkpt>
      <trkpt lat="31.933941571041942" lon="-5.640411721542478">
        <ele>2712.98</ele>
        <time>2019-03-12T09:41:35Z</time>
      </trkpt>
      <trkpt lat="31.933912066742778" lon="-5.64051833935082">
        <ele>2713.46</ele>
        <time>2019-03-12T09:41:36Z</time>
      </trkpt>
      <trkpt lat="31.933875940740108" lon="-5.640615317970514">
        <ele>2714.9000000000001</ele>
        <time>2019-03-12T09:41:42Z</time>
      </trkpt>
      <trkpt lat="31.933556422591209" lon="-5.641307076439261">
        <ele>2717.7800000000002</ele>
        <time>2019-03-12T09:41:43Z</time>
      </trkpt>
      <trkpt lat="31.933522308245301" lon="-5.641413358971477">
        <ele>2719.71</ele>
        <time>2019-03-12T09:41:44Z</time>
      </trkpt>
      <trkpt lat="31.933420468121767" lon="-5.641720555722714">
        <ele>2720.1900000000001</ele>
        <time>2019-03-12T09:41:46Z</time>
      </trkpt>
      <trkpt lat="31.933214189484715" lon="-5.642131771892309">
        <ele>2720.6700000000001</ele>
        <time>2019-03-12T09:41:54Z</time>
      </trkpt>
      <trkpt lat="31.933026518672705" lon="-5.642430670559406">
        <ele>2721.6300000000001</ele>
        <time>2019-03-12T09:41:55Z</time>
      </trkpt>
      <trkpt lat="31.932963822036982" lon="-5.642496300861239">
        <ele>2722.1100000000001</ele>
        <time>2019-03-12T09:42:04Z</time>
      </trkpt>
      <trkpt lat="31.932894168421626" lon="-5.642558662220836">
        <ele>2723.0700000000002</ele>
        <time>2019-03-12T09:42:07Z</time>
      </trkpt>
      <trkpt lat="31.932822503149509" lon="-5.642623119056225">
        <ele>2726.4400000000001</ele>
        <time>2019-03-12T09:42:08Z</time>
      </trkpt>
      <trkpt lat="31.932757375761867" lon="-5.642698472365737">
        <ele>2726.9200000000001</ele>
        <time>2019-03-12T09:42:09Z</time>
      </trkpt>
      <trkpt lat="31.932697361335158" lon="-5.64278413541615">
        <ele>2726.9200000000001</ele>
        <time>2019-03-12T09:42:10Z</time>
      </trkpt>
      <trkpt lat="31.932323444634676" lon="-5.643282271921635">
        <ele>2727.8800000000001</ele>
        <time>2019-03-12T09:42:11Z</time>
      </trkpt>
      <trkpt lat="31.93225278519094" lon="-5.64333968795836">
        <ele>2730.2800000000002</ele>
        <time>2019-03-12T09:42:12Z</time>
      </trkpt>
      <trkpt lat="31.932178437709808" lon="-5.643388302996755">
        <ele>2730.7600000000002</ele>
        <time>2019-03-12T09:42:13Z</time>
      </trkpt>
      <trkpt lat="31.93201432004571" lon="-5.643469439819455">
        <ele>2732.6799999999998</ele>
        <time>2019-03-12T09:42:14Z</time>
      </trkpt>
      <trkpt lat="31.93133320659399" lon="-5.643639508634806">
        <ele>2732.6799999999998</ele>
        <time>2019-03-12T09:42:15Z</time>
      </trkpt>
      <trkpt lat="31.931257853284478" lon="-5.643637077882886">
        <ele>2732.6799999999998</ele>
        <time>2019-03-12T09:42:16Z</time>
      </trkpt>
      <trkpt lat="31.930397618561983" lon="-5.643588462844491">
        <ele>2732.6799999999998</ele>
        <time>2019-03-12T09:42:17Z</time>
      </trkpt>
      <trkpt lat="31.930139120668173" lon="-5.6435292866081">
        <ele>2732.6799999999998</ele>
        <time>2019-03-12T09:42:18Z</time>
      </trkpt>
      <trkpt lat="31.930088074877858" lon="-5.643490478396416">
        <ele>2732.6799999999998</ele>
        <time>2019-03-12T09:42:19Z</time>
      </trkpt>
      <trkpt lat="31.930056978017092" lon="-5.643455274403095">
        <ele>2732.6799999999998</ele>
        <time>2019-03-12T09:42:20Z</time>
      </trkpt>
      <trkpt lat="31.930037448182702" lon="-5.643434906378388">
        <ele>2733.1700000000001</ele>
        <time>2019-03-12T09:42:21Z</time>
      </trkpt>
      <trkpt lat="31.930016661062837" lon="-5.643424428999424">
        <ele>2733.6500000000001</ele>
        <time>2019-03-12T09:42:22Z</time>
      </trkpt>
      <trkpt lat="31.929987827315927" lon="-5.643418058753014">
        <ele>2733.6500000000001</ele>
        <time>2019-03-12T09:42:23Z</time>
      </trkpt>
      <trkpt lat="31.929947677999735" lon="-5.643422417342663">
        <ele>2734.1300000000001</ele>
        <time>2019-03-12T09:42:24Z</time>
      </trkpt>
      <trkpt lat="31.929900152608752" lon="-5.643438091501594">
        <ele>2734.1300000000001</ele>
        <time>2019-03-12T09:42:25Z</time>
      </trkpt>
      <trkpt lat="31.929846340790391" lon="-5.64345259219408">
        <ele>2734.1300000000001</ele>
        <time>2019-03-12T09:42:26Z</time>
      </trkpt>
      <trkpt lat="31.92978230305016" lon="-5.643451921641827">
        <ele>2734.6100000000001</ele>
        <time>2019-03-12T09:42:29Z</time>
      </trkpt>
      <trkpt lat="31.929710805416107" lon="-5.643430966883898">
        <ele>2734.6100000000001</ele>
        <time>2019-03-12T09:42:30Z</time>
      </trkpt>
      <trkpt lat="31.929636457934976" lon="-5.643396433442831">
        <ele>2735.0900000000001</ele>
        <time>2019-03-12T09:42:31Z</time>
      </trkpt>
      <trkpt lat="31.929563535377383" lon="-5.643368437886238">
        <ele>2735.0900000000001</ele>
        <time>2019-03-12T09:42:32Z</time>
      </trkpt>
      <trkpt lat="31.929497318342328" lon="-5.643359804525971">
        <ele>2735.5700000000002</ele>
        <time>2019-03-12T09:42:33Z</time>
      </trkpt>
      <trkpt lat="31.929436968639493" lon="-5.643371036276221">
        <ele>2736.0500000000002</ele>
        <time>2019-03-12T09:42:34Z</time>
      </trkpt>
      <trkpt lat="31.929375613108277" lon="-5.643384698778391">
        <ele>2736.5300000000002</ele>
        <time>2019-03-12T09:42:35Z</time>
      </trkpt>
      <trkpt lat="31.929312916472554" lon="-5.643384698778391">
        <ele>2736.5300000000002</ele>
        <time>2019-03-12T09:42:36Z</time>
      </trkpt>
      <trkpt lat="31.929252734407783" lon="-5.643381848931313">
        <ele>2737.0100000000002</ele>
        <time>2019-03-12T09:42:37Z</time>
      </trkpt>
      <trkpt lat="31.929189702495933" lon="-5.643388302996755">
        <ele>2737.0100000000002</ele>
        <time>2019-03-12T09:42:38Z</time>
      </trkpt>
      <trkpt lat="31.929118121042848" lon="-5.64340079203248">
        <ele>2737.0100000000002</ele>
        <time>2019-03-12T09:42:39Z</time>
      </trkpt>
      <trkpt lat="31.928900023922324" lon="-5.64342618919909">
        <ele>2737.0100000000002</ele>
        <time>2019-03-12T09:42:40Z</time>
      </trkpt>
      <trkpt lat="31.928834142163396" lon="-5.643449742347002">
        <ele>2737.0100000000002</ele>
        <time>2019-03-12T09:42:41Z</time>
      </trkpt>
      <trkpt lat="31.928764237090945" lon="-5.643473044037819">
        <ele>2737.4899999999998</ele>
        <time>2019-03-12T09:42:42Z</time>
      </trkpt>
      <trkpt lat="31.928686536848545" lon="-5.643481677398086">
        <ele>2737.4899999999998</ele>
        <time>2019-03-12T09:42:43Z</time>
      </trkpt>
      <trkpt lat="31.928612859919667" lon="-5.643477234989405">
        <ele>2737.4899999999998</ele>
        <time>2019-03-12T09:42:44Z</time>
      </trkpt>
      <trkpt lat="31.928552594035864" lon="-5.6434774864465">
        <ele>2737.9699999999998</ele>
        <time>2019-03-12T09:42:45Z</time>
      </trkpt>
      <trkpt lat="31.928502721711993" lon="-5.643493747338653">
        <ele>2737.4899999999998</ele>
        <time>2019-03-12T09:42:46Z</time>
      </trkpt>
      <trkpt lat="31.928455363959074" lon="-5.643528113141656">
        <ele>2737.4899999999998</ele>
        <time>2019-03-12T09:42:47Z</time>
      </trkpt>
      <trkpt lat="31.928399121388793" lon="-5.643567256629467">
        <ele>2737.9699999999998</ele>
        <time>2019-03-12T09:42:49Z</time>
      </trkpt>
      <trkpt lat="31.928331395611167" lon="-5.643594413995743">
        <ele>2737.9699999999998</ele>
        <time>2019-03-12T09:42:52Z</time>
      </trkpt>
      <trkpt lat="31.928262496367097" lon="-5.643599946051836">
        <ele>2737.9699999999998</ele>
        <time>2019-03-12T09:42:53Z</time>
      </trkpt>
      <trkpt lat="31.928207259625196" lon="-5.643587624654174">
        <ele>2737.9699999999998</ele>
        <time>2019-03-12T09:42:54Z</time>
      </trkpt>
      <trkpt lat="31.92816199734807" lon="-5.643581170588732">
        <ele>2737.9699999999998</ele>
        <time>2019-03-12T09:42:55Z</time>
      </trkpt>
      <trkpt lat="31.928123021498322" lon="-5.643593827262521">
        <ele>2737.9699999999998</ele>
        <time>2019-03-12T09:42:56Z</time>
      </trkpt>
      <trkpt lat="31.928089326247573" lon="-5.643626181408763">
        <ele>2738.4499999999998</ele>
        <time>2019-03-12T09:42:57Z</time>
      </trkpt>
      <trkpt lat="31.928050685673952" lon="-5.643668090924621">
        <ele>2738.4499999999998</ele>
        <time>2019-03-12T09:42:58Z</time>
      </trkpt>
      <trkpt lat="31.927996622398496" lon="-5.64370078034699">
        <ele>2738.9299999999998</ele>
        <time>2019-03-12T09:42:59Z</time>
      </trkpt>
      <trkpt lat="31.927932165563107" lon="-5.64371595159173">
        <ele>2739.4099999999999</ele>
        <time>2019-03-12T09:43:00Z</time>
      </trkpt>
      <trkpt lat="31.927863517776132" lon="-5.643722740933299">
        <ele>2739.4099999999999</ele>
        <time>2019-03-12T09:43:01Z</time>
      </trkpt>
      <trkpt lat="31.927727144211531" lon="-5.643748892471194">
        <ele>2739.4099999999999</ele>
        <time>2019-03-12T09:43:02Z</time>
      </trkpt>
      <trkpt lat="31.92753603681922" lon="-5.643817959353328">
        <ele>2739.4099999999999</ele>
        <time>2019-03-12T09:43:03Z</time>
      </trkpt>
      <trkpt lat="31.927483314648271" lon="-5.643859030678868">
        <ele>2739.4099999999999</ele>
        <time>2019-03-12T09:43:04Z</time>
      </trkpt>
      <trkpt lat="31.927422964945436" lon="-5.643892139196396">
        <ele>2739.8899999999999</ele>
        <time>2019-03-12T09:43:07Z</time>
      </trkpt>
      <trkpt lat="31.927361441776156" lon="-5.643924158066511">
        <ele>2739.8899999999999</ele>
        <time>2019-03-12T09:43:14Z</time>
      </trkpt>
      <trkpt lat="31.927306707948446" lon="-5.643960786983371">
        <ele>2740.3800000000001</ele>
        <time>2019-03-12T09:43:15Z</time>
      </trkpt>
      <trkpt lat="31.927254991605878" lon="-5.644003283232451">
        <ele>2740.3800000000001</ele>
        <time>2019-03-12T09:43:16Z</time>
      </trkpt>
      <trkpt lat="31.927195563912392" lon="-5.644039157778025">
        <ele>2740.3800000000001</ele>
        <time>2019-03-12T09:43:22Z</time>
      </trkpt>
      <trkpt lat="31.927125658839941" lon="-5.644058771431446">
        <ele>2740.8600000000001</ele>
        <time>2019-03-12T09:43:23Z</time>
      </trkpt>
      <trkpt lat="31.927048293873668" lon="-5.644067488610745">
        <ele>2740.8600000000001</ele>
        <time>2019-03-12T09:43:24Z</time>
      </trkpt>
      <trkpt lat="31.926968917250633" lon="-5.644066901877523">
        <ele>2740.8600000000001</ele>
        <time>2019-03-12T09:43:25Z</time>
      </trkpt>
      <trkpt lat="31.926890211179852" lon="-5.64405751414597">
        <ele>2741.8200000000002</ele>
        <time>2019-03-12T09:43:26Z</time>
      </trkpt>
      <trkpt lat="31.926813768222928" lon="-5.644056089222431">
        <ele>2742.3000000000002</ele>
        <time>2019-03-12T09:43:27Z</time>
      </trkpt>
      <trkpt lat="31.926739001646638" lon="-5.644068913534284">
        <ele>2742.3000000000002</ele>
        <time>2019-03-12T09:43:28Z</time>
      </trkpt>
      <trkpt lat="31.926519395783544" lon="-5.644122725352645">
        <ele>2742.3000000000002</ele>
        <time>2019-03-12T09:43:29Z</time>
      </trkpt>
      <trkpt lat="31.926204739138484" lon="-5.644276533275843">
        <ele>2743.7399999999998</ele>
        <time>2019-03-12T09:43:30Z</time>
      </trkpt>
      <trkpt lat="31.926178084686399" lon="-5.644313748925924">
        <ele>2744.2199999999998</ele>
        <time>2019-03-12T09:43:31Z</time>
      </trkpt>
      <trkpt lat="31.926151346415281" lon="-5.644356412813067">
        <ele>2744.2199999999998</ele>
        <time>2019-03-12T09:43:32Z</time>
      </trkpt>
      <trkpt lat="31.925879186019301" lon="-5.644724043086171">
        <ele>2744.2199999999998</ele>
        <time>2019-03-12T09:43:39Z</time>
      </trkpt>
      <trkpt lat="31.925806934013963" lon="-5.644779950380325">
        <ele>2744.6999999999998</ele>
        <time>2019-03-12T09:43:40Z</time>
      </trkpt>
      <trkpt lat="31.925736609846354" lon="-5.644833175465465">
        <ele>2744.6999999999998</ele>
        <time>2019-03-12T09:43:42Z</time>
      </trkpt>
      <trkpt lat="31.925681289285421" lon="-5.64489402808249">
        <ele>2745.1799999999998</ele>
        <time>2019-03-12T09:43:43Z</time>
      </trkpt>
      <trkpt lat="31.925643235445023" lon="-5.644966699182987">
        <ele>2745.1799999999998</ele>
        <time>2019-03-12T09:43:44Z</time>
      </trkpt>
      <trkpt lat="31.925610210746527" lon="-5.645048338919878">
        <ele>2745.6599999999999</ele>
        <time>2019-03-12T09:43:45Z</time>
      </trkpt>
      <trkpt lat="31.925568301230669" lon="-5.645132744684815">
        <ele>2745.6599999999999</ele>
        <time>2019-03-12T09:43:46Z</time>
      </trkpt>
      <trkpt lat="31.9255131483078" lon="-5.645216898992658">
        <ele>2746.1399999999999</ele>
        <time>2019-03-12T09:43:47Z</time>
      </trkpt>
      <trkpt lat="31.925455899909139" lon="-5.645303819328547">
        <ele>2747.0999999999999</ele>
        <time>2019-03-12T09:43:48Z</time>
      </trkpt>
      <trkpt lat="31.925403764471412" lon="-5.645397696644068">
        <ele>2747.0999999999999</ele>
        <time>2019-03-12T09:43:49Z</time>
      </trkpt>
      <trkpt lat="31.925353892147541" lon="-5.645496603101492">
        <ele>2747.0999999999999</ele>
        <time>2019-03-12T09:43:50Z</time>
      </trkpt>
      <trkpt lat="31.924943430349231" lon="-5.646230606362224">
        <ele>2747.0999999999999</ele>
        <time>2019-03-12T09:43:51Z</time>
      </trkpt>
      <trkpt lat="31.924908813089132" lon="-5.646334877237678">
        <ele>2747.5900000000001</ele>
        <time>2019-03-12T09:43:52Z</time>
      </trkpt>
      <trkpt lat="31.924845948815346" lon="-5.646552303805947">
        <ele>2747.5900000000001</ele>
        <time>2019-03-12T09:43:56Z</time>
      </trkpt>
      <trkpt lat="31.924797333776951" lon="-5.646649869158864">
        <ele>2747.5900000000001</ele>
        <time>2019-03-12T09:43:58Z</time>
      </trkpt>
      <trkpt lat="31.924738325178623" lon="-5.646729413419962">
        <ele>2747.0999999999999</ele>
        <time>2019-03-12T09:44:03Z</time>
      </trkpt>
      <trkpt lat="31.924679819494486" lon="-5.646797306835651">
        <ele>2747.0999999999999</ele>
        <time>2019-03-12T09:44:06Z</time>
      </trkpt>
      <trkpt lat="31.924632294103503" lon="-5.646866289898753">
        <ele>2747.5900000000001</ele>
        <time>2019-03-12T09:44:14Z</time>
      </trkpt>
      <trkpt lat="31.924607483670115" lon="-5.646951366215944">
        <ele>2747.5900000000001</ele>
        <time>2019-03-12T09:44:17Z</time>
      </trkpt>
      <trkpt lat="31.924600610509515" lon="-5.647044656798244">
        <ele>2747.5900000000001</ele>
        <time>2019-03-12T09:44:22Z</time>
      </trkpt>
      <trkpt lat="31.924591055139899" lon="-5.647142892703414">
        <ele>2747.5900000000001</ele>
        <time>2019-03-12T09:44:27Z</time>
      </trkpt>
      <trkpt lat="31.924569262191653" lon="-5.647235931828618">
        <ele>2748.0700000000002</ele>
        <time>2019-03-12T09:44:34Z</time>
      </trkpt>
      <trkpt lat="31.924544284120202" lon="-5.647321846336126">
        <ele>2748.0700000000002</ele>
        <time>2019-03-12T09:44:35Z</time>
      </trkpt>
      <trkpt lat="31.924525173380971" lon="-5.647404491901398">
        <ele>2749.9899999999998</ele>
        <time>2019-03-12T09:44:38Z</time>
      </trkpt>
      <trkpt lat="31.924478653818369" lon="-5.647751586511731">
        <ele>2751.4299999999998</ele>
        <time>2019-03-12T09:44:44Z</time>
      </trkpt>
      <trkpt lat="31.924484437331557" lon="-5.647941520437598">
        <ele>2755.7600000000002</ele>
        <time>2019-03-12T09:44:48Z</time>
      </trkpt>
      <trkpt lat="31.924398439005017" lon="-5.648412331938744">
        <ele>2757.6799999999998</ele>
        <time>2019-03-12T09:44:52Z</time>
      </trkpt>
      <trkpt lat="31.924439677968621" lon="-5.648732604458928">
        <ele>2760.5599999999999</ele>
        <time>2019-03-12T09:44:53Z</time>
      </trkpt>
      <trkpt lat="31.924256449565291" lon="-5.649462584406138">
        <ele>2763.4499999999998</ele>
        <time>2019-03-12T09:44:55Z</time>
      </trkpt>
      <trkpt lat="31.9241454731673" lon="-5.649716053158045">
        <ele>2763.9299999999998</ele>
        <time>2019-03-12T09:44:56Z</time>
      </trkpt>
      <trkpt lat="31.923908432945609" lon="-5.650072284042835">
        <ele>2764.4099999999999</ele>
        <time>2019-03-12T09:44:57Z</time>
      </trkpt>
      <trkpt lat="31.923967022448778" lon="-5.650201616808772">
        <ele>2766.3299999999999</ele>
        <time>2019-03-12T09:44:58Z</time>
      </trkpt>
      <trkpt lat="31.924350243061781" lon="-5.649871621280909">
        <ele>2769.21</ele>
        <time>2019-03-12T09:44:59Z</time>
      </trkpt>
      <trkpt lat="31.924427105113864" lon="-5.649811690673232">
        <ele>2771.1399999999999</ele>
        <time>2019-03-12T09:45:00Z</time>
      </trkpt>
      <trkpt lat="31.924662804231048" lon="-5.649622427299619">
        <ele>2773.0599999999999</ele>
        <time>2019-03-12T09:45:01Z</time>
      </trkpt>
      <trkpt lat="31.92509145475924" lon="-5.649439701810479">
        <ele>2773.0599999999999</ele>
        <time>2019-03-12T09:45:06Z</time>
      </trkpt>
      <trkpt lat="31.925320783630013" lon="-5.649201655760407">
        <ele>2773.54</ele>
        <time>2019-03-12T09:45:07Z</time>
      </trkpt>
      <trkpt lat="31.925568468868732" lon="-5.648941397666931">
        <ele>2774.02</ele>
        <time>2019-03-12T09:45:11Z</time>
      </trkpt>
      <trkpt lat="31.925609959289432" lon="-5.648871911689639">
        <ele>2774.98</ele>
        <time>2019-03-12T09:45:12Z</time>
      </trkpt>
      <trkpt lat="31.925675673410296" lon="-5.6487703230232">
        <ele>2774.98</ele>
        <time>2019-03-12T09:45:22Z</time>
      </trkpt>
      <trkpt lat="31.925715822726488" lon="-5.648760264739394">
        <ele>2775.46</ele>
        <time>2019-03-12T09:45:29Z</time>
      </trkpt>
      <trkpt lat="31.925749098882079" lon="-5.648786081001163">
        <ele>2775.46</ele>
        <time>2019-03-12T09:45:30Z</time>
      </trkpt>
      <trkpt lat="31.925760414451361" lon="-5.648832768201828">
        <ele>2775.9400000000001</ele>
        <time>2019-03-12T09:45:32Z</time>
      </trkpt>
      <trkpt lat="31.925755385309458" lon="-5.648877611383796">
        <ele>2777.8699999999999</ele>
        <time>2019-03-12T09:45:33Z</time>
      </trkpt>
      <trkpt lat="31.925740381702781" lon="-5.648926142603159">
        <ele>2777.8699999999999</ele>
        <time>2019-03-12T09:45:35Z</time>
      </trkpt>
      <trkpt lat="31.925717918202281" lon="-5.648988420143724">
        <ele>2780.27</ele>
        <time>2019-03-12T09:45:37Z</time>
      </trkpt>
      <trkpt lat="31.925545586273074" lon="-5.649399384856224">
        <ele>2780.75</ele>
        <time>2019-03-12T09:45:38Z</time>
      </trkpt>
      <trkpt lat="31.925487415865064" lon="-5.649490496143699">
        <ele>2787</ele>
        <time>2019-03-12T09:45:39Z</time>
      </trkpt>
      <trkpt lat="31.925269402563572" lon="-5.649874974042177">
        <ele>2793.73</ele>
        <time>2019-03-12T09:45:40Z</time>
      </trkpt>
      <trkpt lat="31.925209723412991" lon="-5.649960301816464">
        <ele>2794.6900000000001</ele>
        <time>2019-03-12T09:45:41Z</time>
      </trkpt>
      <trkpt lat="31.924579320475459" lon="-5.650910641998053">
        <ele>2796.6100000000001</ele>
        <time>2019-03-12T09:45:42Z</time>
      </trkpt>
      <trkpt lat="31.924010524526238" lon="-5.651449766010046">
        <ele>2797.0900000000001</ele>
        <time>2019-03-12T09:45:43Z</time>
      </trkpt>
      <trkpt lat="31.923916982486844" lon="-5.651492765173316">
        <ele>2799.02</ele>
        <time>2019-03-12T09:45:57Z</time>
      </trkpt>
      <trkpt lat="31.923741633072495" lon="-5.651575829833746">
        <ele>2800.46</ele>
        <time>2019-03-12T09:46:11Z</time>
      </trkpt>
      <trkpt lat="31.923664016649127" lon="-5.651638023555279">
        <ele>2800.9400000000001</ele>
        <time>2019-03-12T09:46:25Z</time>
      </trkpt>
      <trkpt lat="31.92351121455431" lon="-5.651766853407025">
        <ele>2801.4200000000001</ele>
        <time>2019-03-12T09:46:40Z</time>
      </trkpt>
      <trkpt lat="31.923350617289543" lon="-5.651880595833063">
        <ele>2801.9000000000001</ele>
        <time>2019-03-12T09:46:52Z</time>
      </trkpt>
      <trkpt lat="31.923277107998729" lon="-5.651945974677801">
        <ele>2802.3800000000001</ele>
        <time>2019-03-12T09:47:05Z</time>
      </trkpt>
      <trkpt lat="31.923213489353657" lon="-5.652018981054425">
        <ele>2802.8600000000001</ele>
        <time>2019-03-12T09:47:18Z</time>
      </trkpt>
      <trkpt lat="31.923160599544644" lon="-5.652099698781967">
        <ele>2803.8200000000002</ele>
        <time>2019-03-12T09:47:32Z</time>
      </trkpt>
      <trkpt lat="31.923118522390723" lon="-5.652182176709175">
        <ele>2812.4699999999998</ele>
        <time>2019-03-12T09:47:48Z</time>
      </trkpt>
      <trkpt lat="31.923088850453496" lon="-5.652260631322861">
        <ele>2820.6500000000001</ele>
        <time>2019-03-12T09:48:02Z</time>
      </trkpt>
      <trkpt lat="31.923062866553664" lon="-5.652331039309502">
        <ele>2830.2600000000002</ele>
        <time>2019-03-12T09:48:08Z</time>
      </trkpt>
      <trkpt lat="31.922653242945671" lon="-5.653401408344507">
        <ele>2840.8299999999999</ele>
        <time>2019-03-12T09:48:09Z</time>
      </trkpt>
      <trkpt lat="31.922155609354377" lon="-5.654572946950793">
        <ele>2846.5999999999999</ele>
        <time>2019-03-12T09:48:10Z</time>
      </trkpt>
      <trkpt lat="31.921439375728369" lon="-5.655654044821858">
        <ele>2855.73</ele>
        <time>2019-03-12T09:48:11Z</time>
      </trkpt>
      <trkpt lat="31.920536309480667" lon="-5.656626345589757">
        <ele>2865.3499999999999</ele>
        <time>2019-03-12T09:48:12Z</time>
      </trkpt>
      <trkpt lat="31.919876402243972" lon="-5.65765212289989">
        <ele>2875.9200000000001</ele>
        <time>2019-03-12T09:48:15Z</time>
      </trkpt>
      <trkpt lat="31.919132089242339" lon="-5.658696675673127">
        <ele>2886.98</ele>
        <time>2019-03-12T09:48:16Z</time>
      </trkpt>
      <trkpt lat="31.918223742395639" lon="-5.659476863220334">
        <ele>2899.4699999999998</ele>
        <time>2019-03-12T09:48:18Z</time>
      </trkpt>
      <trkpt lat="31.917186817154288" lon="-5.660303318873048">
        <ele>2904.2800000000002</ele>
        <time>2019-03-12T09:48:19Z</time>
      </trkpt>
      <trkpt lat="31.915733814239502" lon="-5.661262627691031">
        <ele>2905.7199999999998</ele>
        <time>2019-03-12T09:48:20Z</time>
      </trkpt>
      <trkpt lat="31.914276285097003" lon="-5.661647776141763">
        <ele>2906.1999999999998</ele>
        <time>2019-03-12T09:48:21Z</time>
      </trkpt>
      <trkpt lat="31.913723163306713" lon="-5.661810133606195">
        <ele>2907.1599999999999</ele>
        <time>2019-03-12T09:48:22Z</time>
      </trkpt>
      <trkpt lat="31.91362626850605" lon="-5.661814073100686">
        <ele>2908.1300000000001</ele>
        <time>2019-03-12T09:48:23Z</time>
      </trkpt>
      <trkpt lat="31.913533648476005" lon="-5.661798231303692">
        <ele>2909.0900000000001</ele>
        <time>2019-03-12T09:48:24Z</time>
      </trkpt>
      <trkpt lat="31.913447314873338" lon="-5.661767218261957">
        <ele>2910.0500000000002</ele>
        <time>2019-03-12T09:48:25Z</time>
      </trkpt>
      <trkpt lat="31.913371793925762" lon="-5.661729918792844">
        <ele>2911.4899999999998</ele>
        <time>2019-03-12T09:48:26Z</time>
      </trkpt>
      <trkpt lat="31.913167359307408" lon="-5.661627408117056">
        <ele>2912.4499999999998</ele>
        <time>2019-03-12T09:48:36Z</time>
      </trkpt>
      <trkpt lat="31.913098627701402" lon="-5.6616026815027">
        <ele>2912.9299999999998</ele>
        <time>2019-03-12T09:48:45Z</time>
      </trkpt>
      <trkpt lat="31.912957895547152" lon="-5.661570662632585">
        <ele>2913.4099999999999</ele>
        <time>2019-03-12T09:48:53Z</time>
      </trkpt>
      <trkpt lat="31.912888158112764" lon="-5.661570075899363">
        <ele>2914.3699999999999</ele>
        <time>2019-03-12T09:49:23Z</time>
      </trkpt>
      <trkpt lat="31.912819677963853" lon="-5.66157728433609">
        <ele>2914.8499999999999</ele>
        <time>2019-03-12T09:49:38Z</time>
      </trkpt>
      <trkpt lat="31.912750946357846" lon="-5.661591282114387">
        <ele>2914.8499999999999</ele>
        <time>2019-03-12T09:49:54Z</time>
      </trkpt>
      <trkpt lat="31.912682382389903" lon="-5.66161198541522">
        <ele>2915.3400000000001</ele>
        <time>2019-03-12T09:50:08Z</time>
      </trkpt>
      <trkpt lat="31.91261725500226" lon="-5.66164081916213">
        <ele>2915.8200000000002</ele>
        <time>2019-03-12T09:50:21Z</time>
      </trkpt>
      <trkpt lat="31.912556402385235" lon="-5.661673173308373">
        <ele>2917.2600000000002</ele>
        <time>2019-03-12T09:50:29Z</time>
      </trkpt>
      <trkpt lat="31.912500327453017" lon="-5.661710305139422">
        <ele>2917.2600000000002</ele>
        <time>2019-03-12T09:50:40Z</time>
      </trkpt>
      <trkpt lat="31.912444084882736" lon="-5.661748358979821">
        <ele>2916.7800000000002</ele>
        <time>2019-03-12T09:50:59Z</time>
      </trkpt>
      <trkpt lat="31.911849472671747" lon="-5.662069302052259">
        <ele>2914.8499999999999</ele>
        <time>2019-03-12T09:51:12Z</time>
      </trkpt>
      <trkpt lat="31.911662220954895" lon="-5.662186145782471">
        <ele>2914.3699999999999</ele>
        <time>2019-03-12T09:51:13Z</time>
      </trkpt>
      <trkpt lat="31.911535738036036" lon="-5.662228474393487">
        <ele>2912.4499999999998</ele>
        <time>2019-03-12T09:51:14Z</time>
      </trkpt>
      <trkpt lat="31.911418894305825" lon="-5.66225060261786">
        <ele>2910.0500000000002</ele>
        <time>2019-03-12T09:51:15Z</time>
      </trkpt>
      <trkpt lat="31.910973060876131" lon="-5.662344731390476">
        <ele>2908.6100000000001</ele>
        <time>2019-03-12T09:51:23Z</time>
      </trkpt>
      <trkpt lat="31.910459753125906" lon="-5.662487391382456">
        <ele>2907.6500000000001</ele>
        <time>2019-03-12T09:51:24Z</time>
      </trkpt>
      <trkpt lat="31.910015931352973" lon="-5.662797689437866">
        <ele>2905.7199999999998</ele>
        <time>2019-03-12T09:51:25Z</time>
      </trkpt>
      <trkpt lat="31.909674452617764" lon="-5.663408311083913">
        <ele>2902.3600000000001</ele>
        <time>2019-03-12T09:51:26Z</time>
      </trkpt>
      <trkpt lat="31.909521566703916" lon="-5.663875350728631">
        <ele>2899.9499999999998</ele>
        <time>2019-03-12T09:51:27Z</time>
      </trkpt>
      <trkpt lat="31.909489799290895" lon="-5.664313640445471">
        <ele>2899.4699999999998</ele>
        <time>2019-03-12T09:51:28Z</time>
      </trkpt>
      <trkpt lat="31.909446381032467" lon="-5.664594434201717">
        <ele>2899.4699999999998</ele>
        <time>2019-03-12T09:51:29Z</time>
      </trkpt>
      <trkpt lat="31.909349570050836" lon="-5.665778545662761">
        <ele>2898.9899999999998</ele>
        <time>2019-03-12T09:51:30Z</time>
      </trkpt>
      <trkpt lat="31.909333057701588" lon="-5.665875021368265">
        <ele>2897.0700000000002</ele>
        <time>2019-03-12T09:51:31Z</time>
      </trkpt>
      <trkpt lat="31.909304391592741" lon="-5.665967641398311">
        <ele>2897.0700000000002</ele>
        <time>2019-03-12T09:51:41Z</time>
      </trkpt>
      <trkpt lat="31.909267008304596" lon="-5.666056824848056">
        <ele>2896.5900000000001</ele>
        <time>2019-03-12T09:51:52Z</time>
      </trkpt>
      <trkpt lat="31.908860821276903" lon="-5.666792839765549">
        <ele>2896.1100000000001</ele>
        <time>2019-03-12T09:51:53Z</time>
      </trkpt>
      <trkpt lat="31.90881229005754" lon="-5.666882442310453">
        <ele>2895.6300000000001</ele>
        <time>2019-03-12T09:51:54Z</time>
      </trkpt>
      <trkpt lat="31.908756634220481" lon="-5.666953604668379">
        <ele>2895.6300000000001</ele>
        <time>2019-03-12T09:51:55Z</time>
      </trkpt>
      <trkpt lat="31.908688405528665" lon="-5.666995262727141">
        <ele>2894.6700000000001</ele>
        <time>2019-03-12T09:51:56Z</time>
      </trkpt>
      <trkpt lat="31.908612214028835" lon="-5.66701085306704">
        <ele>2894.1900000000001</ele>
        <time>2019-03-12T09:51:57Z</time>
      </trkpt>
      <trkpt lat="31.908535435795784" lon="-5.666999956592917">
        <ele>2893.71</ele>
        <time>2019-03-12T09:51:58Z</time>
      </trkpt>
      <trkpt lat="31.908470308408141" lon="-5.666974643245339">
        <ele>2889.8600000000001</ele>
        <time>2019-03-12T09:51:59Z</time>
      </trkpt>
      <trkpt lat="31.908415406942368" lon="-5.666945306584239">
        <ele>2886.5</ele>
        <time>2019-03-12T09:52:00Z</time>
      </trkpt>
      <trkpt lat="31.90835933201015" lon="-5.666913706809282">
        <ele>2886.5</ele>
        <time>2019-03-12T09:52:02Z</time>
      </trkpt>
      <trkpt lat="31.907732114195824" lon="-5.666720923036337">
        <ele>2886.5</ele>
        <time>2019-03-12T09:52:16Z</time>
      </trkpt>
      <trkpt lat="31.906933067366481" lon="-5.666600810363889">
        <ele>2886.5</ele>
        <time>2019-03-12T09:52:28Z</time>
      </trkpt>
      <trkpt lat="31.906873136758804" lon="-5.666606174781919">
        <ele>2886.02</ele>
        <time>2019-03-12T09:52:41Z</time>
      </trkpt>
      <trkpt lat="31.906813373789191" lon="-5.666623692959547">
        <ele>2885.5300000000002</ele>
        <time>2019-03-12T09:52:55Z</time>
      </trkpt>
      <trkpt lat="31.906753443181515" lon="-5.666651101782918">
        <ele>2885.5300000000002</ele>
        <time>2019-03-12T09:53:09Z</time>
      </trkpt>
      <trkpt lat="31.90669359639287" lon="-5.666686976328492">
        <ele>2885.0500000000002</ele>
        <time>2019-03-12T09:53:25Z</time>
      </trkpt>
      <trkpt lat="31.906635677441955" lon="-5.666729472577572">
        <ele>2884.5700000000002</ele>
        <time>2019-03-12T09:53:40Z</time>
      </trkpt>
      <trkpt lat="31.906579434871674" lon="-5.666781105101109">
        <ele>2883.6100000000001</ele>
        <time>2019-03-12T09:53:50Z</time>
      </trkpt>
      <trkpt lat="31.906525287777185" lon="-5.666839946061373">
        <ele>2880.25</ele>
        <time>2019-03-12T09:53:51Z</time>
      </trkpt>
      <trkpt lat="31.906474912539124" lon="-5.666902642697096">
        <ele>2876.8800000000001</ele>
        <time>2019-03-12T09:53:52Z</time>
      </trkpt>
      <trkpt lat="31.906383717432618" lon="-5.66703088581562">
        <ele>2872.5599999999999</ele>
        <time>2019-03-12T09:53:53Z</time>
      </trkpt>
      <trkpt lat="31.905840151011944" lon="-5.668083988130093">
        <ele>2869.1900000000001</ele>
        <time>2019-03-12T09:53:54Z</time>
      </trkpt>
      <trkpt lat="31.905249897390604" lon="-5.668853865936399">
        <ele>2865.3499999999999</ele>
        <time>2019-03-12T09:53:55Z</time>
      </trkpt>
      <trkpt lat="31.904498795047402" lon="-5.669579235836864">
        <ele>2861.98</ele>
        <time>2019-03-12T09:54:07Z</time>
      </trkpt>
      <trkpt lat="31.90374274738133" lon="-5.670604426413775">
        <ele>2857.1799999999998</ele>
        <time>2019-03-12T09:54:23Z</time>
      </trkpt>
      <trkpt lat="31.902893492951989" lon="-5.671461224555969">
        <ele>2855.73</ele>
        <time>2019-03-12T09:54:36Z</time>
      </trkpt>
      <trkpt lat="31.901973076164722" lon="-5.672516003251076">
        <ele>2855.25</ele>
        <time>2019-03-12T09:54:48Z</time>
      </trkpt>
      <trkpt lat="31.901010330766439" lon="-5.67366985604167">
        <ele>2855.25</ele>
        <time>2019-03-12T09:55:02Z</time>
      </trkpt>
      <trkpt lat="31.90047288313508" lon="-5.674466472119093">
        <ele>2855.25</ele>
        <time>2019-03-12T09:55:14Z</time>
      </trkpt>
      <trkpt lat="31.900439690798521" lon="-5.674551380798221">
        <ele>2855.25</ele>
        <time>2019-03-12T09:55:28Z</time>
      </trkpt>
      <trkpt lat="31.900405576452613" lon="-5.674626901745796">
        <ele>2855.25</ele>
        <time>2019-03-12T09:55:40Z</time>
      </trkpt>
      <trkpt lat="31.90036098472774" lon="-5.674684820696712">
        <ele>2851.8899999999999</ele>
        <time>2019-03-12T09:55:50Z</time>
      </trkpt>
      <trkpt lat="31.900307005271316" lon="-5.674728574231267">
        <ele>2849</ele>
        <time>2019-03-12T09:55:56Z</time>
      </trkpt>
      <trkpt lat="31.900248164311051" lon="-5.674763945862651">
        <ele>2846.5999999999999</ele>
        <time>2019-03-12T09:55:57Z</time>
      </trkpt>
      <trkpt lat="31.899513658136129" lon="-5.675482358783484">
        <ele>2844.1999999999998</ele>
        <time>2019-03-12T09:55:58Z</time>
      </trkpt>
      <trkpt lat="31.89851637929678" lon="-5.676639564335346">
        <ele>2841.79</ele>
        <time>2019-03-12T09:55:59Z</time>
      </trkpt>
      <trkpt lat="31.897669471800327" lon="-5.67765167914331">
        <ele>2841.3099999999999</ele>
        <time>2019-03-12T09:56:00Z</time>
      </trkpt>
      <trkpt lat="31.896831868216395" lon="-5.678335390985012">
        <ele>2839.3899999999999</ele>
        <time>2019-03-12T09:56:01Z</time>
      </trkpt>
      <trkpt lat="31.896064253523946" lon="-5.67902815528214">
        <ele>2837.4699999999998</ele>
        <time>2019-03-12T09:56:02Z</time>
      </trkpt>
      <trkpt lat="31.895543066784739" lon="-5.679996768012643">
        <ele>2834.5799999999999</ele>
        <time>2019-03-12T09:56:03Z</time>
      </trkpt>
      <trkpt lat="31.894893050193787" lon="-5.681183310225606">
        <ele>2833.6199999999999</ele>
        <time>2019-03-12T09:56:04Z</time>
      </trkpt>
      <trkpt lat="31.894130380824208" lon="-5.682024853304029">
        <ele>2833.6199999999999</ele>
        <time>2019-03-12T09:56:05Z</time>
      </trkpt>
      <trkpt lat="31.893250700086355" lon="-5.682615442201495">
        <ele>2833.6199999999999</ele>
        <time>2019-03-12T09:56:06Z</time>
      </trkpt>
      <trkpt lat="31.892705708742142" lon="-5.682887099683285">
        <ele>2833.6199999999999</ele>
        <time>2019-03-12T09:56:07Z</time>
      </trkpt>
      <trkpt lat="31.892637396231294" lon="-5.682947281748056">
        <ele>2833.1399999999999</ele>
        <time>2019-03-12T09:56:18Z</time>
      </trkpt>
      <trkpt lat="31.8925766274333" lon="-5.683016013354063">
        <ele>2833.1399999999999</ele>
        <time>2019-03-12T09:56:19Z</time>
      </trkpt>
      <trkpt lat="31.892527844756842" lon="-5.683091450482607">
        <ele>2833.1399999999999</ele>
        <time>2019-03-12T09:56:20Z</time>
      </trkpt>
      <trkpt lat="31.892490377649665" lon="-5.683173174038529">
        <ele>2832.6599999999999</ele>
        <time>2019-03-12T09:56:21Z</time>
      </trkpt>
      <trkpt lat="31.892463471740484" lon="-5.683264704421163">
        <ele>2832.6599999999999</ele>
        <time>2019-03-12T09:56:22Z</time>
      </trkpt>
      <trkpt lat="31.892448049038649" lon="-5.683364951983094">
        <ele>2832.1799999999998</ele>
        <time>2019-03-12T09:56:23Z</time>
      </trkpt>
      <trkpt lat="31.892443522810936" lon="-5.683469139039516">
        <ele>2832.1799999999998</ele>
        <time>2019-03-12T09:56:24Z</time>
      </trkpt>
      <trkpt lat="31.892440589144826" lon="-5.683569135144353">
        <ele>2832.1799999999998</ele>
        <time>2019-03-12T09:56:25Z</time>
      </trkpt>
      <trkpt lat="31.892427178099751" lon="-5.683667873963714">
        <ele>2829.3000000000002</ele>
        <time>2019-03-12T09:56:26Z</time>
      </trkpt>
      <trkpt lat="31.892401529476047" lon="-5.683768121525645">
        <ele>2829.3000000000002</ele>
        <time>2019-03-12T09:56:27Z</time>
      </trkpt>
      <trkpt lat="31.89236800186336" lon="-5.683872643858194">
        <ele>2829.3000000000002</ele>
        <time>2019-03-12T09:56:28Z</time>
      </trkpt>
      <trkpt lat="31.891973214223981" lon="-5.685086846351624">
        <ele>2828.8200000000002</ele>
        <time>2019-03-12T09:56:29Z</time>
      </trkpt>
      <trkpt lat="31.891965586692095" lon="-5.685195224359632">
        <ele>2828.3400000000001</ele>
        <time>2019-03-12T09:56:30Z</time>
      </trkpt>
      <trkpt lat="31.891968604177237" lon="-5.685297483578324">
        <ele>2827.8499999999999</ele>
        <time>2019-03-12T09:56:31Z</time>
      </trkpt>
      <trkpt lat="31.891970196738839" lon="-5.685394294559956">
        <ele>2827.8499999999999</ele>
        <time>2019-03-12T09:56:43Z</time>
      </trkpt>
      <trkpt lat="31.891956953331828" lon="-5.685488674789667">
        <ele>2827.3699999999999</ele>
        <time>2019-03-12T09:56:55Z</time>
      </trkpt>
      <trkpt lat="31.891926443204284" lon="-5.685575762763619">
        <ele>2827.3699999999999</ele>
        <time>2019-03-12T09:56:56Z</time>
      </trkpt>
      <trkpt lat="31.891881348565221" lon="-5.685645500198007">
        <ele>2827.3699999999999</ele>
        <time>2019-03-12T09:56:57Z</time>
      </trkpt>
      <trkpt lat="31.891824267804623" lon="-5.685690259560943">
        <ele>2826.8899999999999</ele>
        <time>2019-03-12T09:56:58Z</time>
      </trkpt>
      <trkpt lat="31.891758218407631" lon="-5.685707945376635">
        <ele>2826.4099999999999</ele>
        <time>2019-03-12T09:56:59Z</time>
      </trkpt>
      <trkpt lat="31.891685882583261" lon="-5.685707107186317">
        <ele>2825.9299999999998</ele>
        <time>2019-03-12T09:57:00Z</time>
      </trkpt>
      <trkpt lat="31.891607427969575" lon="-5.685702413320541">
        <ele>2825.4499999999998</ele>
        <time>2019-03-12T09:57:01Z</time>
      </trkpt>
      <trkpt lat="31.891524866223335" lon="-5.685711549594998">
        <ele>2820.6500000000001</ele>
        <time>2019-03-12T09:57:02Z</time>
      </trkpt>
      <trkpt lat="31.891438448801637" lon="-5.685740215703845">
        <ele>2813.9200000000001</ele>
        <time>2019-03-12T09:57:03Z</time>
      </trkpt>
      <trkpt lat="31.891348091885448" lon="-5.685782544314861">
        <ele>2813.4400000000001</ele>
        <time>2019-03-12T09:57:04Z</time>
      </trkpt>
      <trkpt lat="31.890198178589344" lon="-5.686223516240716">
        <ele>2812.96</ele>
        <time>2019-03-12T09:57:05Z</time>
      </trkpt>
      <trkpt lat="31.889149686321616" lon="-5.686809914186597">
        <ele>2812.4699999999998</ele>
        <time>2019-03-12T09:57:14Z</time>
      </trkpt>
      <trkpt lat="31.889088414609432" lon="-5.686885602772236">
        <ele>2811.9899999999998</ele>
        <time>2019-03-12T09:57:24Z</time>
      </trkpt>
      <trkpt lat="31.889044744893909" lon="-5.686966655775905">
        <ele>2811.5100000000002</ele>
        <time>2019-03-12T09:57:29Z</time>
      </trkpt>
      <trkpt lat="31.889011971652508" lon="-5.687054162845016">
        <ele>2811.0300000000002</ele>
        <time>2019-03-12T09:57:30Z</time>
      </trkpt>
      <trkpt lat="31.888984981924295" lon="-5.687143849208951">
        <ele>2810.5500000000002</ele>
        <time>2019-03-12T09:57:33Z</time>
      </trkpt>
      <trkpt lat="31.888962853699923" lon="-5.687239738181233">
        <ele>2810.0700000000002</ele>
        <time>2019-03-12T09:57:34Z</time>
      </trkpt>
      <trkpt lat="31.888946676626801" lon="-5.687343254685402">
        <ele>2809.5900000000001</ele>
        <time>2019-03-12T09:57:35Z</time>
      </trkpt>
      <trkpt lat="31.8889363668859" lon="-5.687452051788569">
        <ele>2809.1100000000001</ele>
        <time>2019-03-12T09:57:36Z</time>
      </trkpt>
      <trkpt lat="31.888932092115283" lon="-5.687563614919782">
        <ele>2806.71</ele>
        <time>2019-03-12T09:57:37Z</time>
      </trkpt>
      <trkpt lat="31.888934355229139" lon="-5.687676100060344">
        <ele>2803.8200000000002</ele>
        <time>2019-03-12T09:57:38Z</time>
      </trkpt>
      <trkpt lat="31.888941144570708" lon="-5.687784645706415">
        <ele>2801.4200000000001</ele>
        <time>2019-03-12T09:57:39Z</time>
      </trkpt>
      <trkpt lat="31.88914985395968" lon="-5.688695423305035">
        <ele>2800.9400000000001</ele>
        <time>2019-03-12T09:57:40Z</time>
      </trkpt>
      <trkpt lat="31.889433497563004" lon="-5.689643668010831">
        <ele>2799.02</ele>
        <time>2019-03-12T09:57:41Z</time>
      </trkpt>
      <trkpt lat="31.889516310766339" lon="-5.690139876678586">
        <ele>2799.02</ele>
        <time>2019-03-12T09:57:42Z</time>
      </trkpt>
      <trkpt lat="31.889515472576022" lon="-5.690227719023824">
        <ele>2798.54</ele>
        <time>2019-03-12T09:57:54Z</time>
      </trkpt>
      <trkpt lat="31.889473143965006" lon="-5.690475990995765">
        <ele>2798.54</ele>
        <time>2019-03-12T09:58:05Z</time>
      </trkpt>
      <trkpt lat="31.889441125094891" lon="-5.690563917160034">
        <ele>2798.54</ele>
        <time>2019-03-12T09:58:09Z</time>
      </trkpt>
      <trkpt lat="31.889399467036128" lon="-5.690643964335322">
        <ele>2798.0500000000002</ele>
        <time>2019-03-12T09:58:14Z</time>
      </trkpt>
      <trkpt lat="31.889346158131957" lon="-5.690705822780728">
        <ele>2798.54</ele>
        <time>2019-03-12T09:58:15Z</time>
      </trkpt>
      <trkpt lat="31.889284467324615" lon="-5.690758209675551">
        <ele>2798.0500000000002</ele>
        <time>2019-03-12T09:58:26Z</time>
      </trkpt>
      <trkpt lat="31.88921581953764" lon="-5.690808081999421">
        <ele>2798.0500000000002</ele>
        <time>2019-03-12T09:58:29Z</time>
      </trkpt>
      <trkpt lat="31.889140885323286" lon="-5.690852338448167">
        <ele>2797.0900000000001</ele>
        <time>2019-03-12T09:58:30Z</time>
      </trkpt>
      <trkpt lat="31.889067208394408" lon="-5.690877987071872">
        <ele>2793.73</ele>
        <time>2019-03-12T09:58:31Z</time>
      </trkpt>
      <trkpt lat="31.888992777094245" lon="-5.690893996506929">
        <ele>2788.9200000000001</ele>
        <time>2019-03-12T09:58:32Z</time>
      </trkpt>
      <trkpt lat="31.888918010517955" lon="-5.690906988456845">
        <ele>2787.96</ele>
        <time>2019-03-12T09:58:33Z</time>
      </trkpt>
      <trkpt lat="31.887964736670256" lon="-5.69113589823246">
        <ele>2786.52</ele>
        <time>2019-03-12T09:58:34Z</time>
      </trkpt>
      <trkpt lat="31.887151440605521" lon="-5.691501097753644">
        <ele>2786.04</ele>
        <time>2019-03-12T09:58:35Z</time>
      </trkpt>
      <trkpt lat="31.886901995167136" lon="-5.691712405532599">
        <ele>2781.23</ele>
        <time>2019-03-12T09:58:36Z</time>
      </trkpt>
      <trkpt lat="31.886631427332759" lon="-5.692104762420058">
        <ele>2779.79</ele>
        <time>2019-03-12T09:58:43Z</time>
      </trkpt>
      <trkpt lat="31.886592032387853" lon="-5.692195035517216">
        <ele>2779.79</ele>
        <time>2019-03-12T09:58:44Z</time>
      </trkpt>
      <trkpt lat="31.886408636346459" lon="-5.693350648507476">
        <ele>2779.3099999999999</ele>
        <time>2019-03-12T09:58:45Z</time>
      </trkpt>
      <trkpt lat="31.886385921388865" lon="-5.693705957382917">
        <ele>2779.3099999999999</ele>
        <time>2019-03-12T09:58:46Z</time>
      </trkpt>
      <trkpt lat="31.886363625526428" lon="-5.693817688152194">
        <ele>2779.3099999999999</ele>
        <time>2019-03-12T09:58:47Z</time>
      </trkpt>
      <trkpt lat="31.886327499523759" lon="-5.693925060331821">
        <ele>2779.3099999999999</ele>
        <time>2019-03-12T09:58:48Z</time>
      </trkpt>
      <trkpt lat="31.886278633028269" lon="-5.694020949304104">
        <ele>2779.3099999999999</ele>
        <time>2019-03-12T09:58:49Z</time>
      </trkpt>
      <trkpt lat="31.886213002726436" lon="-5.69410284049809">
        <ele>2778.8299999999999</ele>
        <time>2019-03-12T09:58:50Z</time>
      </trkpt>
      <trkpt lat="31.886134464293718" lon="-5.694166710600257">
        <ele>2774.98</ele>
        <time>2019-03-12T09:58:51Z</time>
      </trkpt>
      <trkpt lat="31.886050645262003" lon="-5.694215912371874">
        <ele>2774.5</ele>
        <time>2019-03-12T09:58:52Z</time>
      </trkpt>
      <trkpt lat="31.885966574773192" lon="-5.694257905706763">
        <ele>2774.5</ele>
        <time>2019-03-12T09:59:00Z</time>
      </trkpt>
      <trkpt lat="31.885383194312453" lon="-5.694594858214259">
        <ele>2774.5</ele>
        <time>2019-03-12T09:59:01Z</time>
      </trkpt>
      <trkpt lat="31.885308846831322" lon="-5.694656800478697">
        <ele>2774.5</ele>
        <time>2019-03-12T09:59:02Z</time>
      </trkpt>
      <trkpt lat="31.885243048891425" lon="-5.694725951179862">
        <ele>2774.02</ele>
        <time>2019-03-12T09:59:03Z</time>
      </trkpt>
      <trkpt lat="31.885182866826653" lon="-5.694802729412913">
        <ele>2773.54</ele>
        <time>2019-03-12T09:59:04Z</time>
      </trkpt>
      <trkpt lat="31.88512603752315" lon="-5.694890068843961">
        <ele>2773.54</ele>
        <time>2019-03-12T09:59:05Z</time>
      </trkpt>
      <trkpt lat="31.885074321180582" lon="-5.694983443245292">
        <ele>2773.0599999999999</ele>
        <time>2019-03-12T09:59:06Z</time>
      </trkpt>
      <trkpt lat="31.885028807446361" lon="-5.695081343874335">
        <ele>2772.5799999999999</ele>
        <time>2019-03-12T09:59:07Z</time>
      </trkpt>
      <trkpt lat="31.884992010891438" lon="-5.695187374949455">
        <ele>2769.21</ele>
        <time>2019-03-12T09:59:19Z</time>
      </trkpt>
      <trkpt lat="31.884961249306798" lon="-5.695299692451954">
        <ele>2769.6999999999998</ele>
        <time>2019-03-12T09:59:32Z</time>
      </trkpt>
      <trkpt lat="31.884935516864061" lon="-5.695415027439594">
        <ele>2769.6999999999998</ele>
        <time>2019-03-12T09:59:45Z</time>
      </trkpt>
      <trkpt lat="31.884792689234018" lon="-5.696306359022856">
        <ele>2770.1799999999998</ele>
        <time>2019-03-12T09:59:54Z</time>
      </trkpt>
      <trkpt lat="31.884760838001966" lon="-5.696396548300982">
        <ele>2769.6999999999998</ele>
        <time>2019-03-12T10:00:06Z</time>
      </trkpt>
      <trkpt lat="31.884716916829348" lon="-5.696480786427856">
        <ele>2770.1799999999998</ele>
        <time>2019-03-12T10:00:17Z</time>
      </trkpt>
      <trkpt lat="31.884662183001637" lon="-5.696557480841875">
        <ele>2770.1799999999998</ele>
        <time>2019-03-12T10:00:20Z</time>
      </trkpt>
      <trkpt lat="31.88459437340498" lon="-5.696613723412156">
        <ele>2770.1799999999998</ele>
        <time>2019-03-12T10:00:31Z</time>
      </trkpt>
      <trkpt lat="31.884519858285785" lon="-5.696643814444542">
        <ele>2764.8899999999999</ele>
        <time>2019-03-12T10:00:39Z</time>
      </trkpt>
      <trkpt lat="31.884438386186957" lon="-5.696649178862572">
        <ele>2761.52</ele>
        <time>2019-03-12T10:00:40Z</time>
      </trkpt>
      <trkpt lat="31.884354650974274" lon="-5.696644987910986">
        <ele>2755.7600000000002</ele>
        <time>2019-03-12T10:00:41Z</time>
      </trkpt>
      <trkpt lat="31.883296854794025" lon="-5.69677566178143">
        <ele>2752.8699999999999</ele>
        <time>2019-03-12T10:00:42Z</time>
      </trkpt>
      <trkpt lat="31.882301587611437" lon="-5.696942964568734">
        <ele>2748.0700000000002</ele>
        <time>2019-03-12T10:00:43Z</time>
      </trkpt>
      <trkpt lat="31.881258962675929" lon="-5.697147734463215">
        <ele>2743.7399999999998</ele>
        <time>2019-03-12T10:00:44Z</time>
      </trkpt>
      <trkpt lat="31.880671223625541" lon="-5.69756917655468">
        <ele>2741.8200000000002</ele>
        <time>2019-03-12T10:00:45Z</time>
      </trkpt>
      <trkpt lat="31.880162945017219" lon="-5.698376018553972">
        <ele>2736.5300000000002</ele>
        <time>2019-03-12T10:00:46Z</time>
      </trkpt>
      <trkpt lat="31.879903273656964" lon="-5.699513358995318">
        <ele>2733.1700000000001</ele>
        <time>2019-03-12T10:00:47Z</time>
      </trkpt>
      <trkpt lat="31.879896819591522" lon="-5.699834050610662">
        <ele>2732.6799999999998</ele>
        <time>2019-03-12T10:00:48Z</time>
      </trkpt>
      <trkpt lat="31.880204603075981" lon="-5.700946832075715">
        <ele>2732.1999999999998</ele>
        <time>2019-03-12T10:00:49Z</time>
      </trkpt>
      <trkpt lat="31.880548680201173" lon="-5.701721990481019">
        <ele>2731.7199999999998</ele>
        <time>2019-03-12T10:00:50Z</time>
      </trkpt>
      <trkpt lat="31.88060324639082" lon="-5.701809162274003">
        <ele>2730.7600000000002</ele>
        <time>2019-03-12T10:00:51Z</time>
      </trkpt>
      <trkpt lat="31.880664015188813" lon="-5.701887281611562">
        <ele>2730.2800000000002</ele>
        <time>2019-03-12T10:00:53Z</time>
      </trkpt>
      <trkpt lat="31.880721766501665" lon="-5.701961209997535">
        <ele>2729.8000000000002</ele>
        <time>2019-03-12T10:01:03Z</time>
      </trkpt>
      <trkpt lat="31.880768118426204" lon="-5.702038826420903">
        <ele>2728.8400000000001</ele>
        <time>2019-03-12T10:01:11Z</time>
      </trkpt>
      <trkpt lat="31.880792258307338" lon="-5.70211979560554">
        <ele>2728.8400000000001</ele>
        <time>2019-03-12T10:01:12Z</time>
      </trkpt>
      <trkpt lat="31.880788067355752" lon="-5.702199507504702">
        <ele>2728.8400000000001</ele>
        <time>2019-03-12T10:01:18Z</time>
      </trkpt>
      <trkpt lat="31.880752528086305" lon="-5.702266227453947">
        <ele>2728.3600000000001</ele>
        <time>2019-03-12T10:01:21Z</time>
      </trkpt>
      <trkpt lat="31.880693435668945" lon="-5.702314339578152">
        <ele>2727.4000000000001</ele>
        <time>2019-03-12T10:01:31Z</time>
      </trkpt>
      <trkpt lat="31.880623195320368" lon="-5.702348873019218">
        <ele>2726.4400000000001</ele>
        <time>2019-03-12T10:01:36Z</time>
      </trkpt>
      <trkpt lat="31.880546165630221" lon="-5.70238558575511">
        <ele>2724.5100000000002</ele>
        <time>2019-03-12T10:01:37Z</time>
      </trkpt>
      <trkpt lat="31.880463771522045" lon="-5.702429674565792">
        <ele>2720.1900000000001</ele>
        <time>2019-03-12T10:01:38Z</time>
      </trkpt>
      <trkpt lat="31.880380287766457" lon="-5.702478792518377">
        <ele>2715.3800000000001</ele>
        <time>2019-03-12T10:01:39Z</time>
      </trkpt>
      <trkpt lat="31.880218684673309" lon="-5.702554397284985">
        <ele>2714.9000000000001</ele>
        <time>2019-03-12T10:01:40Z</time>
      </trkpt>
      <trkpt lat="31.879462720826268" lon="-5.702885650098324">
        <ele>2711.54</ele>
        <time>2019-03-12T10:01:41Z</time>
      </trkpt>
      <trkpt lat="31.87880608253181" lon="-5.703337853774428">
        <ele>2710.0900000000001</ele>
        <time>2019-03-12T10:01:42Z</time>
      </trkpt>
      <trkpt lat="31.878723269328475" lon="-5.703379176557064">
        <ele>2704.8099999999999</ele>
        <time>2019-03-12T10:01:43Z</time>
      </trkpt>
      <trkpt lat="31.878286320716143" lon="-5.703655444085598">
        <ele>2702.4000000000001</ele>
        <time>2019-03-12T10:01:44Z</time>
      </trkpt>
      <trkpt lat="31.878107450902462" lon="-5.703881084918976">
        <ele>2701.4400000000001</ele>
        <time>2019-03-12T10:01:47Z</time>
      </trkpt>
      <trkpt lat="31.877563549205661" lon="-5.704799322411418">
        <ele>2700.96</ele>
        <time>2019-03-12T10:01:48Z</time>
      </trkpt>
      <trkpt lat="31.877335896715522" lon="-5.705255968496203">
        <ele>2700.48</ele>
        <time>2019-03-12T10:01:58Z</time>
      </trkpt>
      <trkpt lat="31.877314355224371" lon="-5.705346073955298">
        <ele>2699.52</ele>
        <time>2019-03-12T10:02:01Z</time>
      </trkpt>
      <trkpt lat="31.877309577539563" lon="-5.70543609559536">
        <ele>2699.04</ele>
        <time>2019-03-12T10:02:02Z</time>
      </trkpt>
      <trkpt lat="31.877319132909179" lon="-5.705520082265139">
        <ele>2698.5599999999999</ele>
        <time>2019-03-12T10:02:03Z</time>
      </trkpt>
      <trkpt lat="31.877342686057091" lon="-5.705602560192347">
        <ele>2698.0799999999999</ele>
        <time>2019-03-12T10:02:04Z</time>
      </trkpt>
      <trkpt lat="31.877377470955253" lon="-5.705689061433077">
        <ele>2697.5999999999999</ele>
        <time>2019-03-12T10:02:05Z</time>
      </trkpt>
      <trkpt lat="31.877419464290142" lon="-5.705779753625393">
        <ele>2696.6399999999999</ele>
        <time>2019-03-12T10:02:06Z</time>
      </trkpt>
      <trkpt lat="31.877468414604664" lon="-5.705871786922216">
        <ele>2696.1500000000001</ele>
        <time>2019-03-12T10:02:07Z</time>
      </trkpt>
      <trkpt lat="31.877522310242057" lon="-5.705961054190993">
        <ele>2691.8299999999999</ele>
        <time>2019-03-12T10:02:08Z</time>
      </trkpt>
      <trkpt lat="31.8776617012918" lon="-5.706204632297158">
        <ele>2690.3899999999999</ele>
        <time>2019-03-12T10:02:09Z</time>
      </trkpt>
      <trkpt lat="31.877692546695471" lon="-5.706295743584633">
        <ele>2689.9099999999999</ele>
        <time>2019-03-12T10:02:10Z</time>
      </trkpt>
      <trkpt lat="31.878019357100129" lon="-5.707370303571224">
        <ele>2689.4299999999998</ele>
        <time>2019-03-12T10:02:11Z</time>
      </trkpt>
      <trkpt lat="31.878102589398623" lon="-5.707664843648672">
        <ele>2688.9400000000001</ele>
        <time>2019-03-12T10:02:12Z</time>
      </trkpt>
      <trkpt lat="31.87814986333251" lon="-5.707743549719453">
        <ele>2688.46</ele>
        <time>2019-03-12T10:02:14Z</time>
      </trkpt>
      <trkpt lat="31.878202920779586" lon="-5.707802558317781">
        <ele>2688.46</ele>
        <time>2019-03-12T10:02:15Z</time>
      </trkpt>
      <trkpt lat="31.878249105066061" lon="-5.707845892757177">
        <ele>2688.46</ele>
        <time>2019-03-12T10:02:26Z</time>
      </trkpt>
      <trkpt lat="31.878277519717813" lon="-5.707887131720781">
        <ele>2688.46</ele>
        <time>2019-03-12T10:02:34Z</time>
      </trkpt>
      <trkpt lat="31.878287997096777" lon="-5.707928286865354">
        <ele>2688.46</ele>
        <time>2019-03-12T10:02:35Z</time>
      </trkpt>
      <trkpt lat="31.878282213583589" lon="-5.707965586334467">
        <ele>2687.5</ele>
        <time>2019-03-12T10:02:36Z</time>
      </trkpt>
      <trkpt lat="31.878258660435677" lon="-5.707997689023614">
        <ele>2686.54</ele>
        <time>2019-03-12T10:02:37Z</time>
      </trkpt>
      <trkpt lat="31.878215409815311" lon="-5.708028450608254">
        <ele>2685.5799999999999</ele>
        <time>2019-03-12T10:02:38Z</time>
      </trkpt>
      <trkpt lat="31.878155143931508" lon="-5.708057871088386">
        <ele>2683.6599999999999</ele>
        <time>2019-03-12T10:02:39Z</time>
      </trkpt>
      <trkpt lat="31.878088759258389" lon="-5.708095422014594">
        <ele>2683.1799999999998</ele>
        <time>2019-03-12T10:02:49Z</time>
      </trkpt>
      <trkpt lat="31.878025811165571" lon="-5.708138169720769">
        <ele>2673.5599999999999</ele>
        <time>2019-03-12T10:02:57Z</time>
      </trkpt>
      <trkpt lat="31.877897400408983" lon="-5.708211259916425">
        <ele>2669.2399999999998</ele>
        <time>2019-03-12T10:03:01Z</time>
      </trkpt>
      <trkpt lat="31.87782590277493" lon="-5.708236405625939">
        <ele>2668.7600000000002</ele>
        <time>2019-03-12T10:03:10Z</time>
      </trkpt>
      <trkpt lat="31.876964159309864" lon="-5.708753485232592">
        <ele>2668.2800000000002</ele>
        <time>2019-03-12T10:03:21Z</time>
      </trkpt>
      <trkpt lat="31.876521175727248" lon="-5.7094247918576">
        <ele>2667.8000000000002</ele>
        <time>2019-03-12T10:03:27Z</time>
      </trkpt>
      <trkpt lat="31.876500388607383" lon="-5.709521351382136">
        <ele>2667.3099999999999</ele>
        <time>2019-03-12T10:03:38Z</time>
      </trkpt>
      <trkpt lat="31.876487480476499" lon="-5.709620425477624">
        <ele>2667.3099999999999</ele>
        <time>2019-03-12T10:03:48Z</time>
      </trkpt>
      <trkpt lat="31.876481948420405" lon="-5.709721427410841">
        <ele>2662.0300000000002</ele>
        <time>2019-03-12T10:04:08Z</time>
      </trkpt>
      <trkpt lat="31.876484714448452" lon="-5.709825111553073">
        <ele>2661.0700000000002</ele>
        <time>2019-03-12T10:04:21Z</time>
      </trkpt>
      <trkpt lat="31.876493766903877" lon="-5.7099324837327">
        <ele>2661.0700000000002</ele>
        <time>2019-03-12T10:04:34Z</time>
      </trkpt>
      <trkpt lat="31.876716557890177" lon="-5.71088433265686">
        <ele>2660.5900000000001</ele>
        <time>2019-03-12T10:04:45Z</time>
      </trkpt>
      <trkpt lat="31.876763664186001" lon="-5.710995141416788">
        <ele>2659.6199999999999</ele>
        <time>2019-03-12T10:04:56Z</time>
      </trkpt>
      <trkpt lat="31.876768441870809" lon="-5.711022466421127">
        <ele>2659.6199999999999</ele>
        <time>2019-03-12T10:04:57Z</time>
      </trkpt>
      <trkpt lat="31.876785457134247" lon="-5.711177950724959">
        <ele>2658.6599999999999</ele>
        <time>2019-03-12T10:04:58Z</time>
      </trkpt>
      <trkpt lat="31.876771040260792" lon="-5.711270906031132">
        <ele>2656.2600000000002</ele>
        <time>2019-03-12T10:04:59Z</time>
      </trkpt>
      <trkpt lat="31.87670792452991" lon="-5.711328824982047">
        <ele>2652.9000000000001</ele>
        <time>2019-03-12T10:05:00Z</time>
      </trkpt>
      <trkpt lat="31.876386059448123" lon="-5.711413733661175">
        <ele>2648.5700000000002</ele>
        <time>2019-03-12T10:05:01Z</time>
      </trkpt>
      <trkpt lat="31.876167207956314" lon="-5.71146578527987">
        <ele>2642.8000000000002</ele>
        <time>2019-03-12T10:05:12Z</time>
      </trkpt>
      <trkpt lat="31.876015160232782" lon="-5.711505766957998">
        <ele>2637.0300000000002</ele>
        <time>2019-03-12T10:05:13Z</time>
      </trkpt>
      <trkpt lat="31.875251401215792" lon="-5.71166711859405">
        <ele>2632.71</ele>
        <time>2019-03-12T10:05:14Z</time>
      </trkpt>
      <trkpt lat="31.874416815117002" lon="-5.711773401126266">
        <ele>2632.23</ele>
        <time>2019-03-12T10:05:15Z</time>
      </trkpt>
      <trkpt lat="31.873703515157104" lon="-5.71184347383678">
        <ele>2631.75</ele>
        <time>2019-03-12T10:05:16Z</time>
      </trkpt>
      <trkpt lat="31.873113429173827" lon="-5.712069198489189">
        <ele>2631.27</ele>
        <time>2019-03-12T10:05:27Z</time>
      </trkpt>
      <trkpt lat="31.873064814135432" lon="-5.712110688909888">
        <ele>2630.79</ele>
        <time>2019-03-12T10:05:33Z</time>
      </trkpt>
      <trkpt lat="31.873023072257638" lon="-5.712157879024744">
        <ele>2630.3000000000002</ele>
        <time>2019-03-12T10:05:34Z</time>
      </trkpt>
      <trkpt lat="31.872987449169159" lon="-5.712209595367312">
        <ele>2626.9400000000001</ele>
        <time>2019-03-12T10:05:35Z</time>
      </trkpt>
      <trkpt lat="31.872957861050963" lon="-5.712261730805039">
        <ele>2626.9400000000001</ele>
        <time>2019-03-12T10:05:36Z</time>
      </trkpt>
      <trkpt lat="31.872932212427258" lon="-5.712312022224069">
        <ele>2626.9400000000001</ele>
        <time>2019-03-12T10:05:37Z</time>
      </trkpt>
      <trkpt lat="31.872563241049647" lon="-5.7129458617419">
        <ele>2626.46</ele>
        <time>2019-03-12T10:05:38Z</time>
      </trkpt>
      <trkpt lat="31.872506327927113" lon="-5.712996907532215">
        <ele>2625.98</ele>
        <time>2019-03-12T10:05:49Z</time>
      </trkpt>
      <trkpt lat="31.872440278530121" lon="-5.713034207001329">
        <ele>2622.6100000000001</ele>
        <time>2019-03-12T10:05:53Z</time>
      </trkpt>
      <trkpt lat="31.872368110343814" lon="-5.713061783462763">
        <ele>2620.21</ele>
        <time>2019-03-12T10:05:54Z</time>
      </trkpt>
      <trkpt lat="31.872292086482048" lon="-5.713087851181626">
        <ele>2619.73</ele>
        <time>2019-03-12T10:05:55Z</time>
      </trkpt>
      <trkpt lat="31.871534613892436" lon="-5.71352194994688">
        <ele>2619.25</ele>
        <time>2019-03-12T10:05:56Z</time>
      </trkpt>
      <trkpt lat="31.871112585067749" lon="-5.713788997381926">
        <ele>2618.77</ele>
        <time>2019-03-12T10:05:57Z</time>
      </trkpt>
      <trkpt lat="31.871062377467752" lon="-5.713841049000621">
        <ele>2618.77</ele>
        <time>2019-03-12T10:05:58Z</time>
      </trkpt>
      <trkpt lat="31.871020467951894" lon="-5.713896453380585">
        <ele>2618.29</ele>
        <time>2019-03-12T10:05:59Z</time>
      </trkpt>
      <trkpt lat="31.870989957824349" lon="-5.713954204693437">
        <ele>2613.48</ele>
        <time>2019-03-12T10:06:00Z</time>
      </trkpt>
      <trkpt lat="31.870968835428357" lon="-5.714013800024986">
        <ele>2611.5599999999999</ele>
        <time>2019-03-12T10:06:01Z</time>
      </trkpt>
      <trkpt lat="31.870950562879443" lon="-5.71407456882298">
        <ele>2610.5999999999999</ele>
        <time>2019-03-12T10:06:12Z</time>
      </trkpt>
      <trkpt lat="31.87070706859231" lon="-5.714912759140134">
        <ele>2610.1199999999999</ele>
        <time>2019-03-12T10:06:22Z</time>
      </trkpt>
      <trkpt lat="31.870593493804336" lon="-5.715328082442284">
        <ele>2609.6399999999999</ele>
        <time>2019-03-12T10:06:23Z</time>
      </trkpt>
      <trkpt lat="31.870551165193319" lon="-5.715421456843615">
        <ele>2609.1599999999999</ele>
        <time>2019-03-12T10:06:30Z</time>
      </trkpt>
      <trkpt lat="31.870500287041068" lon="-5.715506365522742">
        <ele>2608.6700000000001</ele>
        <time>2019-03-12T10:06:31Z</time>
      </trkpt>
      <trkpt lat="31.870440104976296" lon="-5.715579790994525">
        <ele>2608.1900000000001</ele>
        <time>2019-03-12T10:06:35Z</time>
      </trkpt>
      <trkpt lat="31.870371121913195" lon="-5.715642152354121">
        <ele>2607.71</ele>
        <time>2019-03-12T10:06:36Z</time>
      </trkpt>
      <trkpt lat="31.870295600965619" lon="-5.715696383267641">
        <ele>2607.23</ele>
        <time>2019-03-12T10:06:37Z</time>
      </trkpt>
      <trkpt lat="31.870214967057109" lon="-5.715743992477655">
        <ele>2600.5</ele>
        <time>2019-03-12T10:06:38Z</time>
      </trkpt>
      <trkpt lat="31.870135087519884" lon="-5.715781627222896">
        <ele>2595.6999999999998</ele>
        <time>2019-03-12T10:06:39Z</time>
      </trkpt>
      <trkpt lat="31.870054872706532" lon="-5.715815406292677">
        <ele>2595.6999999999998</ele>
        <time>2019-03-12T10:06:40Z</time>
      </trkpt>
      <trkpt lat="31.869227662682533" lon="-5.716145820915699">
        <ele>2591.8499999999999</ele>
        <time>2019-03-12T10:06:41Z</time>
      </trkpt>
      <trkpt lat="31.868535149842501" lon="-5.716438936069608">
        <ele>2591.3699999999999</ele>
        <time>2019-03-12T10:06:42Z</time>
      </trkpt>
      <trkpt lat="31.868484187871218" lon="-5.716489478945732">
        <ele>2589.4499999999998</ele>
        <time>2019-03-12T10:06:43Z</time>
      </trkpt>
      <trkpt lat="31.868131309747696" lon="-5.716943359002471">
        <ele>2588.9699999999998</ele>
        <time>2019-03-12T10:06:44Z</time>
      </trkpt>
      <trkpt lat="31.868096943944693" lon="-5.717015359550715">
        <ele>2588.9699999999998</ele>
        <time>2019-03-12T10:06:45Z</time>
      </trkpt>
      <trkpt lat="31.867999043315649" lon="-5.717329178005457">
        <ele>2588.4899999999998</ele>
        <time>2019-03-12T10:06:46Z</time>
      </trkpt>
      <trkpt lat="31.867995606735349" lon="-5.717414924874902">
        <ele>2588.4899999999998</ele>
        <time>2019-03-12T10:06:47Z</time>
      </trkpt>
      <trkpt lat="31.868001725524664" lon="-5.717505449429154">
        <ele>2588.0100000000002</ele>
        <time>2019-03-12T10:06:57Z</time>
      </trkpt>
      <trkpt lat="31.868015388026834" lon="-5.717592034488916">
        <ele>2588.0100000000002</ele>
        <time>2019-03-12T10:07:04Z</time>
      </trkpt>
      <trkpt lat="31.868037516251206" lon="-5.717669818550348">
        <ele>2588.0100000000002</ele>
        <time>2019-03-12T10:07:05Z</time>
      </trkpt>
      <trkpt lat="31.868060901761055" lon="-5.717742992565036">
        <ele>2587.5300000000002</ele>
        <time>2019-03-12T10:07:06Z</time>
      </trkpt>
      <trkpt lat="31.868076073005795" lon="-5.71781893260777">
        <ele>2587.5300000000002</ele>
        <time>2019-03-12T10:07:07Z</time>
      </trkpt>
      <trkpt lat="31.868078587576747" lon="-5.717905517667532">
        <ele>2587.04</ele>
        <time>2019-03-12T10:07:08Z</time>
      </trkpt>
      <trkpt lat="31.868069702759385" lon="-5.718001071363688">
        <ele>2586.5599999999999</ele>
        <time>2019-03-12T10:07:09Z</time>
      </trkpt>
      <trkpt lat="31.868052771314979" lon="-5.718102240934968">
        <ele>2586.0799999999999</ele>
        <time>2019-03-12T10:07:15Z</time>
      </trkpt>
      <trkpt lat="31.868024859577417" lon="-5.718203075230122">
        <ele>2581.2800000000002</ele>
        <time>2019-03-12T10:07:16Z</time>
      </trkpt>
      <trkpt lat="31.867987141013145" lon="-5.718303406611085">
        <ele>2576.9499999999998</ele>
        <time>2019-03-12T10:07:17Z</time>
      </trkpt>
      <trkpt lat="31.867941878736019" lon="-5.718405330553651">
        <ele>2576.4699999999998</ele>
        <time>2019-03-12T10:07:18Z</time>
      </trkpt>
      <trkpt lat="31.867597801610827" lon="-5.719316862523556">
        <ele>2575.9899999999998</ele>
        <time>2019-03-12T10:07:19Z</time>
      </trkpt>
      <trkpt lat="31.867393534630537" lon="-5.720029408112168">
        <ele>2575.0300000000002</ele>
        <time>2019-03-12T10:07:28Z</time>
      </trkpt>
      <trkpt lat="31.867341650649905" lon="-5.720098558813334">
        <ele>2574.5500000000002</ele>
        <time>2019-03-12T10:07:34Z</time>
      </trkpt>
      <trkpt lat="31.867278954014182" lon="-5.720148514956236">
        <ele>2574.0700000000002</ele>
        <time>2019-03-12T10:07:35Z</time>
      </trkpt>
      <trkpt lat="31.867204941809177" lon="-5.720180785283446">
        <ele>2571.1799999999998</ele>
        <time>2019-03-12T10:07:38Z</time>
      </trkpt>
      <trkpt lat="31.867122128605843" lon="-5.720202159136534">
        <ele>2570.2199999999998</ele>
        <time>2019-03-12T10:07:39Z</time>
      </trkpt>
      <trkpt lat="31.867039231583476" lon="-5.720219593495131">
        <ele>2569.7399999999998</ele>
        <time>2019-03-12T10:07:51Z</time>
      </trkpt>
      <trkpt lat="31.866614604368806" lon="-5.72029285132885">
        <ele>2569.2600000000002</ele>
        <time>2019-03-12T10:07:55Z</time>
      </trkpt>
      <trkpt lat="31.866557272151113" lon="-5.720307771116495">
        <ele>2569.2600000000002</ele>
        <time>2019-03-12T10:07:56Z</time>
      </trkpt>
      <trkpt lat="31.866505052894354" lon="-5.720329564064741">
        <ele>2564.9299999999998</ele>
        <time>2019-03-12T10:08:06Z</time>
      </trkpt>
      <trkpt lat="31.866461131721735" lon="-5.720356805250049">
        <ele>2562.5300000000002</ele>
        <time>2019-03-12T10:08:12Z</time>
      </trkpt>
      <trkpt lat="31.866418467834592" lon="-5.720386393368244">
        <ele>2562.0500000000002</ele>
        <time>2019-03-12T10:08:20Z</time>
      </trkpt>
      <trkpt lat="31.865835590288043" lon="-5.720803057774901">
        <ele>2560.6100000000001</ele>
        <time>2019-03-12T10:08:21Z</time>
      </trkpt>
      <trkpt lat="31.865511294454336" lon="-5.721167083829641">
        <ele>2560.1300000000001</ele>
        <time>2019-03-12T10:08:22Z</time>
      </trkpt>
      <trkpt lat="31.865476593375206" lon="-5.721224499866366">
        <ele>2554.8400000000001</ele>
        <time>2019-03-12T10:08:23Z</time>
      </trkpt>
      <trkpt lat="31.86537953093648" lon="-5.721409153193235">
        <ele>2553.4000000000001</ele>
        <time>2019-03-12T10:08:24Z</time>
      </trkpt>
      <trkpt lat="31.865342063829303" lon="-5.721469754353166">
        <ele>2552.9200000000001</ele>
        <time>2019-03-12T10:08:25Z</time>
      </trkpt>
      <trkpt lat="31.864875108003616" lon="-5.722323367372155">
        <ele>2547.6300000000001</ele>
        <time>2019-03-12T10:08:31Z</time>
      </trkpt>
      <trkpt lat="31.864730939269066" lon="-5.722627630457282">
        <ele>2544.75</ele>
        <time>2019-03-12T10:08:43Z</time>
      </trkpt>
      <trkpt lat="31.864707050845027" lon="-5.722716897726059">
        <ele>2541.3800000000001</ele>
        <time>2019-03-12T10:08:44Z</time>
      </trkpt>
      <trkpt lat="31.86441745609045" lon="-5.723655922338367">
        <ele>2541.3800000000001</ele>
        <time>2019-03-12T10:08:45Z</time>
      </trkpt>
      <trkpt lat="31.864255098626018" lon="-5.724194962531328">
        <ele>2541.3800000000001</ele>
        <time>2019-03-12T10:08:48Z</time>
      </trkpt>
      <trkpt lat="31.8641247600317" lon="-5.724730649963021">
        <ele>2540.9000000000001</ele>
        <time>2019-03-12T10:08:57Z</time>
      </trkpt>
      <trkpt lat="31.864126436412334" lon="-5.724791586399078">
        <ele>2540.4200000000001</ele>
        <time>2019-03-12T10:08:58Z</time>
      </trkpt>
      <trkpt lat="31.864134902134538" lon="-5.72484933771193">
        <ele>2540.4200000000001</ele>
        <time>2019-03-12T10:08:59Z</time>
      </trkpt>
      <trkpt lat="31.864151079207659" lon="-5.724903400987387">
        <ele>2538.02</ele>
        <time>2019-03-12T10:09:01Z</time>
      </trkpt>
      <trkpt lat="31.864174883812666" lon="-5.724957548081875">
        <ele>2535.1300000000001</ele>
        <time>2019-03-12T10:09:02Z</time>
      </trkpt>
      <trkpt lat="31.864203801378608" lon="-5.725017813965678">
        <ele>2534.6500000000001</ele>
        <time>2019-03-12T10:09:08Z</time>
      </trkpt>
      <trkpt lat="31.864365488290787" lon="-5.725453421473503">
        <ele>2534.6500000000001</ele>
        <time>2019-03-12T10:09:09Z</time>
      </trkpt>
      <trkpt lat="31.864633290097117" lon="-5.726162027567625">
        <ele>2534.6500000000001</ele>
        <time>2019-03-12T10:09:16Z</time>
      </trkpt>
      <trkpt lat="31.864643013104796" lon="-5.726209385320544">
        <ele>2531.77</ele>
        <time>2019-03-12T10:09:59Z</time>
      </trkpt>
      <trkpt lat="31.864646784961224" lon="-5.726256156340241">
        <ele>2531.77</ele>
        <time>2019-03-12T10:10:46Z</time>
      </trkpt>
      <trkpt lat="31.864639073610306" lon="-5.726392697542906">
        <ele>2531.29</ele>
        <time>2019-03-12T10:10:49Z</time>
      </trkpt>
      <trkpt lat="31.864490127190948" lon="-5.726836854591966">
        <ele>2529.8499999999999</ele>
        <time>2019-03-12T10:10:50Z</time>
      </trkpt>
      <trkpt lat="31.864459700882435" lon="-5.726875746622682">
        <ele>2529.3699999999999</ele>
        <time>2019-03-12T10:10:59Z</time>
      </trkpt>
      <trkpt lat="31.864424077793956" lon="-5.726907094940543">
        <ele>2528.4000000000001</ele>
        <time>2019-03-12T10:11:00Z</time>
      </trkpt>
      <trkpt lat="31.864342940971255" lon="-5.726966522634029">
        <ele>2527.9200000000001</ele>
        <time>2019-03-12T10:11:14Z</time>
      </trkpt>
      <trkpt lat="31.864298097789288" lon="-5.726988818496466">
        <ele>2525.04</ele>
        <time>2019-03-12T10:11:21Z</time>
      </trkpt>
      <trkpt lat="31.864014286547899" lon="-5.727057382464409">
        <ele>2522.1599999999999</ele>
        <time>2019-03-12T10:11:22Z</time>
      </trkpt>
      <trkpt lat="31.863978328183293" lon="-5.727052101865411">
        <ele>2521.6799999999998</ele>
        <time>2019-03-12T10:11:34Z</time>
      </trkpt>
      <trkpt lat="31.86389216221869" lon="-5.727006839588285">
        <ele>2521.6799999999998</ele>
        <time>2019-03-12T10:11:42Z</time>
      </trkpt>
      <trkpt lat="31.863901047036052" lon="-5.72700273245573">
        <ele>2521.6799999999998</ele>
        <time>2019-03-12T10:11:43Z</time>
      </trkpt>
      <trkpt lat="31.863864418119192" lon="-5.726976580917835">
        <ele>2519.27</ele>
        <time>2019-03-12T10:11:55Z</time>
      </trkpt>
      <trkpt lat="31.863802140578628" lon="-5.72688153013587">
        <ele>2518.79</ele>
        <time>2019-03-12T10:11:58Z</time>
      </trkpt>
      <trkpt lat="31.863789483904839" lon="-5.726836854591966">
        <ele>2513.5</ele>
        <time>2019-03-12T10:12:00Z</time>
      </trkpt>
      <trkpt lat="31.863671634346247" lon="-5.726326061412692">
        <ele>2510.6199999999999</ele>
        <time>2019-03-12T10:12:01Z</time>
      </trkpt>
      <trkpt lat="31.863656798377633" lon="-5.726258251816034">
        <ele>2510.1399999999999</ele>
        <time>2019-03-12T10:12:03Z</time>
      </trkpt>
      <trkpt lat="31.86337323859334" lon="-5.725272120907903">
        <ele>2505.3299999999999</ele>
        <time>2019-03-12T10:12:04Z</time>
      </trkpt>
      <trkpt lat="31.863245917484164" lon="-5.724697457626462">
        <ele>2501.4899999999998</ele>
        <time>2019-03-12T10:12:05Z</time>
      </trkpt>
      <trkpt lat="31.863249437883496" lon="-5.724614392966032">
        <ele>2501.0100000000002</ele>
        <time>2019-03-12T10:12:06Z</time>
      </trkpt>
      <trkpt lat="31.863240301609039" lon="-5.723591968417168">
        <ele>2496.6799999999998</ele>
        <time>2019-03-12T10:12:07Z</time>
      </trkpt>
      <trkpt lat="31.863153632730246" lon="-5.722993416711688">
        <ele>2495.2399999999998</ele>
        <time>2019-03-12T10:12:08Z</time>
      </trkpt>
      <trkpt lat="31.863127565011382" lon="-5.722933821380138">
        <ele>2494.2800000000002</ele>
        <time>2019-03-12T10:12:09Z</time>
      </trkpt>
      <trkpt lat="31.862737638875842" lon="-5.722224377095699">
        <ele>2494.2800000000002</ele>
        <time>2019-03-12T10:12:10Z</time>
      </trkpt>
      <trkpt lat="31.86263588257134" lon="-5.722048860043287">
        <ele>2493.3200000000002</ele>
        <time>2019-03-12T10:12:11Z</time>
      </trkpt>
      <trkpt lat="31.862568240612745" lon="-5.721956491470337">
        <ele>2492.8400000000001</ele>
        <time>2019-03-12T10:12:13Z</time>
      </trkpt>
      <trkpt lat="31.862536976113915" lon="-5.721903769299388">
        <ele>2492.3600000000001</ele>
        <time>2019-03-12T10:12:14Z</time>
      </trkpt>
      <trkpt lat="31.862465981394053" lon="-5.721782818436623">
        <ele>2491.8699999999999</ele>
        <time>2019-03-12T10:12:15Z</time>
      </trkpt>
      <trkpt lat="31.862422563135624" lon="-5.721733113750815">
        <ele>2491.8699999999999</ele>
        <time>2019-03-12T10:12:17Z</time>
      </trkpt>
      <trkpt lat="31.862382916733623" lon="-5.721685672178865">
        <ele>2491.3899999999999</ele>
        <time>2019-03-12T10:12:26Z</time>
      </trkpt>
      <trkpt lat="31.862352322787046" lon="-5.721637643873692">
        <ele>2490.9099999999999</ele>
        <time>2019-03-12T10:12:27Z</time>
      </trkpt>
      <trkpt lat="31.862331535667181" lon="-5.721584083512425">
        <ele>2490.9099999999999</ele>
        <time>2019-03-12T10:12:28Z</time>
      </trkpt>
      <trkpt lat="31.86232072301209" lon="-5.721520632505417">
        <ele>2490.4299999999998</ele>
        <time>2019-03-12T10:12:29Z</time>
      </trkpt>
      <trkpt lat="31.862317956984043" lon="-5.721450643613935">
        <ele>2489.9499999999998</ele>
        <time>2019-03-12T10:12:30Z</time>
      </trkpt>
      <trkpt lat="31.862323489040136" lon="-5.72137763723731">
        <ele>2489.4699999999998</ele>
        <time>2019-03-12T10:12:31Z</time>
      </trkpt>
      <trkpt lat="31.86233245767653" lon="-5.721301361918449">
        <ele>2489.4699999999998</ele>
        <time>2019-03-12T10:12:42Z</time>
      </trkpt>
      <trkpt lat="31.862352406606078" lon="-5.721161551773548">
        <ele>2488.9899999999998</ele>
        <time>2019-03-12T10:12:43Z</time>
      </trkpt>
      <trkpt lat="31.862373277544975" lon="-5.721096089109778">
        <ele>2486.1100000000001</ele>
        <time>2019-03-12T10:12:44Z</time>
      </trkpt>
      <trkpt lat="31.862406469881535" lon="-5.721033979207277">
        <ele>2485.6300000000001</ele>
        <time>2019-03-12T10:12:45Z</time>
      </trkpt>
      <trkpt lat="31.862483499571681" lon="-5.720913531258702">
        <ele>2485.6300000000001</ele>
        <time>2019-03-12T10:12:46Z</time>
      </trkpt>
      <trkpt lat="31.862737890332937" lon="-5.720315231010318">
        <ele>2485.6300000000001</ele>
        <time>2019-03-12T10:12:47Z</time>
      </trkpt>
      <trkpt lat="31.862740656360984" lon="-5.720254713669419">
        <ele>2485.1500000000001</ele>
        <time>2019-03-12T10:12:50Z</time>
      </trkpt>
      <trkpt lat="31.862730430439115" lon="-5.720194112509489">
        <ele>2484.1799999999998</ele>
        <time>2019-03-12T10:12:51Z</time>
      </trkpt>
      <trkpt lat="31.862704697996378" lon="-5.720139127224684">
        <ele>2477.9400000000001</ele>
        <time>2019-03-12T10:12:52Z</time>
      </trkpt>
      <trkpt lat="31.86267058365047" lon="-5.720086237415671">
        <ele>2477.4499999999998</ele>
        <time>2019-03-12T10:12:53Z</time>
      </trkpt>
      <trkpt lat="31.862635547295213" lon="-5.720022870227695">
        <ele>2477.4499999999998</ele>
        <time>2019-03-12T10:12:54Z</time>
      </trkpt>
      <trkpt lat="31.862306809052825" lon="-5.719268331304193">
        <ele>2477.4499999999998</ele>
        <time>2019-03-12T10:12:55Z</time>
      </trkpt>
      <trkpt lat="31.862299935892224" lon="-5.71920370683074">
        <ele>2477.4499999999998</ele>
        <time>2019-03-12T10:12:56Z</time>
      </trkpt>
      <trkpt lat="31.862302115187049" lon="-5.719134556129575">
        <ele>2477.4499999999998</ele>
        <time>2019-03-12T10:12:57Z</time>
      </trkpt>
      <trkpt lat="31.862313263118267" lon="-5.719067249447107">
        <ele>2477.9400000000001</ele>
        <time>2019-03-12T10:13:03Z</time>
      </trkpt>
      <trkpt lat="31.862329691648483" lon="-5.718999020755291">
        <ele>2477.9400000000001</ele>
        <time>2019-03-12T10:13:04Z</time>
      </trkpt>
      <trkpt lat="31.862348383292556" lon="-5.718933641910553">
        <ele>2477.9400000000001</ele>
        <time>2019-03-12T10:13:13Z</time>
      </trkpt>
      <trkpt lat="31.862393226474524" lon="-5.718766674399376">
        <ele>2476.9699999999998</ele>
        <time>2019-03-12T10:13:15Z</time>
      </trkpt>
      <trkpt lat="31.862399931997061" lon="-5.718711605295539">
        <ele>2476.4899999999998</ele>
        <time>2019-03-12T10:13:16Z</time>
      </trkpt>
      <trkpt lat="31.862394399940968" lon="-5.718655027449131">
        <ele>2475.5300000000002</ele>
        <time>2019-03-12T10:13:17Z</time>
      </trkpt>
      <trkpt lat="31.862375205382705" lon="-5.718616303056479">
        <ele>2475.0500000000002</ele>
        <time>2019-03-12T10:13:18Z</time>
      </trkpt>
      <trkpt lat="31.862350730225444" lon="-5.718594510108233">
        <ele>2475.0500000000002</ele>
        <time>2019-03-12T10:13:19Z</time>
      </trkpt>
      <trkpt lat="31.862325249239802" lon="-5.718589732423425">
        <ele>2475.0500000000002</ele>
        <time>2019-03-12T10:13:20Z</time>
      </trkpt>
      <trkpt lat="31.862305048853159" lon="-5.718589900061488">
        <ele>2475.0500000000002</ele>
        <time>2019-03-12T10:13:22Z</time>
      </trkpt>
      <trkpt lat="31.862288536503911" lon="-5.718595935031772">
        <ele>2473.1300000000001</ele>
        <time>2019-03-12T10:13:23Z</time>
      </trkpt>
      <trkpt lat="31.86220396310091" lon="-5.718681765720248">
        <ele>2472.6500000000001</ele>
        <time>2019-03-12T10:13:24Z</time>
      </trkpt>
      <trkpt lat="31.862179823219776" lon="-5.718729626387358">
        <ele>2472.1700000000001</ele>
        <time>2019-03-12T10:13:25Z</time>
      </trkpt>
      <trkpt lat="31.861993912607431" lon="-5.719450805336237">
        <ele>2471.6900000000001</ele>
        <time>2019-03-12T10:13:26Z</time>
      </trkpt>
      <trkpt lat="31.861977903172374" lon="-5.719626992940903">
        <ele>2471.21</ele>
        <time>2019-03-12T10:13:27Z</time>
      </trkpt>
      <trkpt lat="31.861981591209769" lon="-5.719712907448411">
        <ele>2470.73</ele>
        <time>2019-03-12T10:13:28Z</time>
      </trkpt>
      <trkpt lat="31.861997181549668" lon="-5.719797983765602">
        <ele>2470.2399999999998</ele>
        <time>2019-03-12T10:13:29Z</time>
      </trkpt>
      <trkpt lat="31.862016040831804" lon="-5.719879623502493">
        <ele>2469.7600000000002</ele>
        <time>2019-03-12T10:13:40Z</time>
      </trkpt>
      <trkpt lat="31.862031295895576" lon="-5.71996109560132">
        <ele>2469.7600000000002</ele>
        <time>2019-03-12T10:13:41Z</time>
      </trkpt>
      <trkpt lat="31.862048814073205" lon="-5.720036951825023">
        <ele>2468.8000000000002</ele>
        <time>2019-03-12T10:13:43Z</time>
      </trkpt>
      <trkpt lat="31.86207982711494" lon="-5.720157064497471">
        <ele>2468.8000000000002</ele>
        <time>2019-03-12T10:13:45Z</time>
      </trkpt>
      <trkpt lat="31.862072870135307" lon="-5.720203081145883">
        <ele>2468.3200000000002</ele>
        <time>2019-03-12T10:13:46Z</time>
      </trkpt>
      <trkpt lat="31.862053507938981" lon="-5.720238368958235">
        <ele>2468.3200000000002</ele>
        <time>2019-03-12T10:13:47Z</time>
      </trkpt>
      <trkpt lat="31.862020399421453" lon="-5.720266532152891">
        <ele>2467.3600000000001</ele>
        <time>2019-03-12T10:13:51Z</time>
      </trkpt>
      <trkpt lat="31.861970443278551" lon="-5.720290672034025">
        <ele>2466.8800000000001</ele>
        <time>2019-03-12T10:13:52Z</time>
      </trkpt>
      <trkpt lat="31.861910261213779" lon="-5.720315063372254">
        <ele>2462.0700000000002</ele>
        <time>2019-03-12T10:13:58Z</time>
      </trkpt>
      <trkpt lat="31.861843457445502" lon="-5.720337191596627">
        <ele>2461.5900000000001</ele>
        <time>2019-03-12T10:13:59Z</time>
      </trkpt>
      <trkpt lat="31.861773720011115" lon="-5.720358062535524">
        <ele>2460.1500000000001</ele>
        <time>2019-03-12T10:14:00Z</time>
      </trkpt>
      <trkpt lat="31.861101659014821" lon="-5.720657045021653">
        <ele>2459.1900000000001</ele>
        <time>2019-03-12T10:14:01Z</time>
      </trkpt>
      <trkpt lat="31.861036783084273" lon="-5.720706498250365">
        <ele>2458.23</ele>
        <time>2019-03-12T10:14:02Z</time>
      </trkpt>
      <trkpt lat="31.860906193032861" lon="-5.720817474648356">
        <ele>2457.75</ele>
        <time>2019-03-12T10:14:03Z</time>
      </trkpt>
      <trkpt lat="31.860792618244886" lon="-5.720918141305447">
        <ele>2456.3099999999999</ele>
        <time>2019-03-12T10:14:04Z</time>
      </trkpt>
      <trkpt lat="31.860757162794471" lon="-5.72098477743566">
        <ele>2455.8200000000002</ele>
        <time>2019-03-12T10:14:05Z</time>
      </trkpt>
      <trkpt lat="31.860735286027193" lon="-5.721062477678061">
        <ele>2453.4200000000001</ele>
        <time>2019-03-12T10:14:06Z</time>
      </trkpt>
      <trkpt lat="31.860672170296311" lon="-5.721389204263687">
        <ele>2452.9400000000001</ele>
        <time>2019-03-12T10:14:07Z</time>
      </trkpt>
      <trkpt lat="31.860676109790802" lon="-5.721464054659009">
        <ele>2452.46</ele>
        <time>2019-03-12T10:14:08Z</time>
      </trkpt>
      <trkpt lat="31.860724305734038" lon="-5.721926232799888">
        <ele>2451.98</ele>
        <time>2019-03-12T10:14:09Z</time>
      </trkpt>
      <trkpt lat="31.860740398988128" lon="-5.721996892243624">
        <ele>2451.98</ele>
        <time>2019-03-12T10:14:10Z</time>
      </trkpt>
      <trkpt lat="31.860767975449562" lon="-5.722073083743453">
        <ele>2451.5</ele>
        <time>2019-03-12T10:14:11Z</time>
      </trkpt>
      <trkpt lat="31.860807621851563" lon="-5.72215111926198">
        <ele>2451.02</ele>
        <time>2019-03-12T10:14:12Z</time>
      </trkpt>
      <trkpt lat="31.860859673470259" lon="-5.722217755392194">
        <ele>2450.54</ele>
        <time>2019-03-12T10:14:13Z</time>
      </trkpt>
      <trkpt lat="31.860923627391458" lon="-5.722269136458635">
        <ele>2450.54</ele>
        <time>2019-03-12T10:14:14Z</time>
      </trkpt>
      <trkpt lat="31.860988168045878" lon="-5.722312303259969">
        <ele>2450.0599999999999</ele>
        <time>2019-03-12T10:14:25Z</time>
      </trkpt>
      <trkpt lat="31.861045500263572" lon="-5.722357397899032">
        <ele>2450.54</ele>
        <time>2019-03-12T10:14:26Z</time>
      </trkpt>
      <trkpt lat="31.861091013997793" lon="-5.722407018765807">
        <ele>2450.0599999999999</ele>
        <time>2019-03-12T10:14:27Z</time>
      </trkpt>
      <trkpt lat="31.861116411164403" lon="-5.72245990857482">
        <ele>2449.5799999999999</ele>
        <time>2019-03-12T10:14:38Z</time>
      </trkpt>
      <trkpt lat="31.861115489155054" lon="-5.722512044012547">
        <ele>2448.6199999999999</ele>
        <time>2019-03-12T10:14:40Z</time>
      </trkpt>
      <trkpt lat="31.861089169979095" lon="-5.722552025690675">
        <ele>2448.1300000000001</ele>
        <time>2019-03-12T10:14:41Z</time>
      </trkpt>
      <trkpt lat="31.861044745892286" lon="-5.722567951306701">
        <ele>2447.1700000000001</ele>
        <time>2019-03-12T10:14:42Z</time>
      </trkpt>
      <trkpt lat="31.860992442816496" lon="-5.722557306289673">
        <ele>2446.21</ele>
        <time>2019-03-12T10:14:43Z</time>
      </trkpt>
      <trkpt lat="31.860935529693961" lon="-5.722521180287004">
        <ele>2439.48</ele>
        <time>2019-03-12T10:14:44Z</time>
      </trkpt>
      <trkpt lat="31.860876521095634" lon="-5.722472397610545">
        <ele>2438.52</ele>
        <time>2019-03-12T10:14:45Z</time>
      </trkpt>
      <trkpt lat="31.860819440335035" lon="-5.722414059564471">
        <ele>2438.04</ele>
        <time>2019-03-12T10:14:46Z</time>
      </trkpt>
      <trkpt lat="31.860255422070622" lon="-5.721808718517423">
        <ele>2430.3499999999999</ele>
        <time>2019-03-12T10:14:52Z</time>
      </trkpt>
      <trkpt lat="31.86021326109767" lon="-5.721734035760164">
        <ele>2429.8699999999999</ele>
        <time>2019-03-12T10:14:53Z</time>
      </trkpt>
      <trkpt lat="31.860178560018539" lon="-5.721649043262005">
        <ele>2429.3899999999999</ele>
        <time>2019-03-12T10:14:54Z</time>
      </trkpt>
      <trkpt lat="31.859908578917384" lon="-5.720655620098114">
        <ele>2429.3899999999999</ele>
        <time>2019-03-12T10:14:55Z</time>
      </trkpt>
      <trkpt lat="31.859882678836584" lon="-5.720475660637021">
        <ele>2429.3899999999999</ele>
        <time>2019-03-12T10:14:56Z</time>
      </trkpt>
      <trkpt lat="31.859886618331075" lon="-5.720395864918828">
        <ele>2428.9099999999999</ele>
        <time>2019-03-12T10:14:57Z</time>
      </trkpt>
      <trkpt lat="31.859904136508703" lon="-5.720326211303473">
        <ele>2428.4299999999998</ele>
        <time>2019-03-12T10:14:58Z</time>
      </trkpt>
      <trkpt lat="31.859937161207199" lon="-5.720264604315162">
        <ele>2427.9499999999998</ele>
        <time>2019-03-12T10:14:59Z</time>
      </trkpt>
      <trkpt lat="31.859978819265962" lon="-5.720213139429689">
        <ele>2426.9899999999998</ele>
        <time>2019-03-12T10:15:00Z</time>
      </trkpt>
      <trkpt lat="31.860028021037579" lon="-5.720168966799974">
        <ele>2426.9899999999998</ele>
        <time>2019-03-12T10:15:01Z</time>
      </trkpt>
      <trkpt lat="31.860080491751432" lon="-5.720126638188958">
        <ele>2426.9899999999998</ele>
        <time>2019-03-12T10:15:11Z</time>
      </trkpt>
      <trkpt lat="31.860443344339728" lon="-5.71985799819231">
        <ele>2426.5</ele>
        <time>2019-03-12T10:15:15Z</time>
      </trkpt>
      <trkpt lat="31.860495898872614" lon="-5.719832181930542">
        <ele>2425.54</ele>
        <time>2019-03-12T10:15:16Z</time>
      </trkpt>
      <trkpt lat="31.860530432313681" lon="-5.719798319041729">
        <ele>2425.0599999999999</ele>
        <time>2019-03-12T10:15:17Z</time>
      </trkpt>
      <trkpt lat="31.86053722165525" lon="-5.719758002087474">
        <ele>2424.5799999999999</ele>
        <time>2019-03-12T10:15:18Z</time>
      </trkpt>
      <trkpt lat="31.860519787296653" lon="-5.719726486131549">
        <ele>2424.0999999999999</ele>
        <time>2019-03-12T10:15:19Z</time>
      </trkpt>
      <trkpt lat="31.860480140894651" lon="-5.719717349857092">
        <ele>2423.6199999999999</ele>
        <time>2019-03-12T10:15:20Z</time>
      </trkpt>
      <trkpt lat="31.860429849475622" lon="-5.719725228846073">
        <ele>2423.6199999999999</ele>
        <time>2019-03-12T10:15:21Z</time>
      </trkpt>
      <trkpt lat="31.860370086506009" lon="-5.719746183604002">
        <ele>2420.7399999999998</ele>
        <time>2019-03-12T10:15:32Z</time>
      </trkpt>
      <trkpt lat="31.860301857814193" lon="-5.719780800864101">
        <ele>2419.7800000000002</ele>
        <time>2019-03-12T10:15:35Z</time>
      </trkpt>
      <trkpt lat="31.860236059874296" lon="-5.719816256314516">
        <ele>2419.7800000000002</ele>
        <time>2019-03-12T10:15:36Z</time>
      </trkpt>
      <trkpt lat="31.859642453491688" lon="-5.720076933503151">
        <ele>2419.3000000000002</ele>
        <time>2019-03-12T10:15:37Z</time>
      </trkpt>
      <trkpt lat="31.859406335279346" lon="-5.720188831910491">
        <ele>2418.8099999999999</ele>
        <time>2019-03-12T10:15:42Z</time>
      </trkpt>
      <trkpt lat="31.859358223155141" lon="-5.720228059217334">
        <ele>2418.3299999999999</ele>
        <time>2019-03-12T10:15:43Z</time>
      </trkpt>
      <trkpt lat="31.859322097152472" lon="-5.720280446112156">
        <ele>2417.8499999999999</ele>
        <time>2019-03-12T10:15:44Z</time>
      </trkpt>
      <trkpt lat="31.859294017776847" lon="-5.720337862148881">
        <ele>2417.3699999999999</ele>
        <time>2019-03-12T10:15:46Z</time>
      </trkpt>
      <trkpt lat="31.859273230656981" lon="-5.720400055870414">
        <ele>2413.5300000000002</ele>
        <time>2019-03-12T10:15:47Z</time>
      </trkpt>
      <trkpt lat="31.859257221221924" lon="-5.720464261248708">
        <ele>2412.5700000000002</ele>
        <time>2019-03-12T10:15:48Z</time>
      </trkpt>
      <trkpt lat="31.859236350283027" lon="-5.720526622608304">
        <ele>2412.5700000000002</ele>
        <time>2019-03-12T10:15:49Z</time>
      </trkpt>
      <trkpt lat="31.859019761905074" lon="-5.721244616433978">
        <ele>2412.0900000000001</ele>
        <time>2019-03-12T10:15:50Z</time>
      </trkpt>
      <trkpt lat="31.858978271484375" lon="-5.721489787101746">
        <ele>2410.1599999999999</ele>
        <time>2019-03-12T10:15:51Z</time>
      </trkpt>
      <trkpt lat="31.858981037512422" lon="-5.721569079905748">
        <ele>2410.1599999999999</ele>
        <time>2019-03-12T10:15:52Z</time>
      </trkpt>
      <trkpt lat="31.858995454385877" lon="-5.721644517034292">
        <ele>2409.6799999999998</ele>
        <time>2019-03-12T10:15:53Z</time>
      </trkpt>
      <trkpt lat="31.85910802334547" lon="-5.721956491470337">
        <ele>2409.1999999999998</ele>
        <time>2019-03-12T10:15:54Z</time>
      </trkpt>
      <trkpt lat="31.859141383320093" lon="-5.72201675735414">
        <ele>2409.1999999999998</ele>
        <time>2019-03-12T10:15:55Z</time>
      </trkpt>
      <trkpt lat="31.859180694445968" lon="-5.722072245553136">
        <ele>2408.7199999999998</ele>
        <time>2019-03-12T10:16:01Z</time>
      </trkpt>
      <trkpt lat="31.859251521527767" lon="-5.722165871411562">
        <ele>2408.7199999999998</ele>
        <time>2019-03-12T10:16:02Z</time>
      </trkpt>
      <trkpt lat="31.859260573983192" lon="-5.722211552783847">
        <ele>2408.2399999999998</ele>
        <time>2019-03-12T10:16:03Z</time>
      </trkpt>
      <trkpt lat="31.859252275899053" lon="-5.722250360995531">
        <ele>2407.7600000000002</ele>
        <time>2019-03-12T10:16:13Z</time>
      </trkpt>
      <trkpt lat="31.859227130189538" lon="-5.722280535846949">
        <ele>2406.8000000000002</ele>
        <time>2019-03-12T10:16:24Z</time>
      </trkpt>
      <trkpt lat="31.859186142683029" lon="-5.722296042367816">
        <ele>2405.8400000000001</ele>
        <time>2019-03-12T10:16:25Z</time>
      </trkpt>
      <trkpt lat="31.859133252874017" lon="-5.722290175035596">
        <ele>2404.8800000000001</ele>
        <time>2019-03-12T10:16:26Z</time>
      </trkpt>
      <trkpt lat="31.859074831008911" lon="-5.7222537137568">
        <ele>2403.9099999999999</ele>
        <time>2019-03-12T10:16:27Z</time>
      </trkpt>
      <trkpt lat="31.859015738591552" lon="-5.722197135910392">
        <ele>2400.0700000000002</ele>
        <time>2019-03-12T10:16:28Z</time>
      </trkpt>
      <trkpt lat="31.858958909288049" lon="-5.722132679075003">
        <ele>2399.5900000000001</ele>
        <time>2019-03-12T10:16:29Z</time>
      </trkpt>
      <trkpt lat="31.85890325345099" lon="-5.722062522545457">
        <ele>2399.1100000000001</ele>
        <time>2019-03-12T10:16:31Z</time>
      </trkpt>
      <trkpt lat="31.858588512986898" lon="-5.72173185646534">
        <ele>2393.3400000000001</ele>
        <time>2019-03-12T10:16:32Z</time>
      </trkpt>
      <trkpt lat="31.858553141355515" lon="-5.721679050475359">
        <ele>2387.0900000000001</ele>
        <time>2019-03-12T10:16:33Z</time>
      </trkpt>
      <trkpt lat="31.858526822179556" lon="-5.721618952229619">
        <ele>2386.6100000000001</ele>
        <time>2019-03-12T10:16:34Z</time>
      </trkpt>
      <trkpt lat="31.858330937102437" lon="-5.720760310068727">
        <ele>2386.1300000000001</ele>
        <time>2019-03-12T10:16:35Z</time>
      </trkpt>
      <trkpt lat="31.858176793903112" lon="-5.719785746186972">
        <ele>2385.6500000000001</ele>
        <time>2019-03-12T10:16:36Z</time>
      </trkpt>
      <trkpt lat="31.858185091987252" lon="-5.719710141420364">
        <ele>2385.1700000000001</ele>
        <time>2019-03-12T10:16:37Z</time>
      </trkpt>
      <trkpt lat="31.858208393678069" lon="-5.719635710120201">
        <ele>2384.6900000000001</ele>
        <time>2019-03-12T10:16:38Z</time>
      </trkpt>
      <trkpt lat="31.858247369527817" lon="-5.719565134495497">
        <ele>2383.73</ele>
        <time>2019-03-12T10:16:39Z</time>
      </trkpt>
      <trkpt lat="31.858300091698766" lon="-5.719505371525884">
        <ele>2383.73</ele>
        <time>2019-03-12T10:16:40Z</time>
      </trkpt>
      <trkpt lat="31.858358010649681" lon="-5.719452984631062">
        <ele>2383.25</ele>
        <time>2019-03-12T10:16:41Z</time>
      </trkpt>
      <trkpt lat="31.858476866036654" lon="-5.719356928020716">
        <ele>2383.25</ele>
        <time>2019-03-12T10:16:42Z</time>
      </trkpt>
      <trkpt lat="31.858547190204263" lon="-5.719329519197345">
        <ele>2382.7600000000002</ele>
        <time>2019-03-12T10:16:51Z</time>
      </trkpt>
      <trkpt lat="31.858624052256346" lon="-5.719314180314541">
        <ele>2382.7600000000002</ele>
        <time>2019-03-12T10:16:53Z</time>
      </trkpt>
      <trkpt lat="31.85870049521327" lon="-5.719296829774976">
        <ele>2382.2800000000002</ele>
        <time>2019-03-12T10:16:56Z</time>
      </trkpt>
      <trkpt lat="31.858772495761514" lon="-5.719271348789334">
        <ele>2382.2800000000002</ele>
        <time>2019-03-12T10:16:57Z</time>
      </trkpt>
      <trkpt lat="31.858836365863681" lon="-5.719243939965963">
        <ele>2381.8000000000002</ele>
        <time>2019-03-12T10:17:10Z</time>
      </trkpt>
      <trkpt lat="31.858880454674363" lon="-5.719209406524897">
        <ele>2381.3200000000002</ele>
        <time>2019-03-12T10:17:11Z</time>
      </trkpt>
      <trkpt lat="31.85889202170074" lon="-5.71917001157999">
        <ele>2380.8400000000001</ele>
        <time>2019-03-12T10:17:13Z</time>
      </trkpt>
      <trkpt lat="31.858875928446651" lon="-5.719140758737922">
        <ele>2379.8800000000001</ele>
        <time>2019-03-12T10:17:14Z</time>
      </trkpt>
      <trkpt lat="31.85884659178555" lon="-5.719126341864467">
        <ele>2376.52</ele>
        <time>2019-03-12T10:17:15Z</time>
      </trkpt>
      <trkpt lat="31.858806861564517" lon="-5.719130197539926">
        <ele>2375.5500000000002</ele>
        <time>2019-03-12T10:17:16Z</time>
      </trkpt>
      <trkpt lat="31.858757995069027" lon="-5.71914067491889">
        <ele>2374.5900000000001</ele>
        <time>2019-03-12T10:17:17Z</time>
      </trkpt>
      <trkpt lat="31.858124993741512" lon="-5.719222733750939">
        <ele>2374.1100000000001</ele>
        <time>2019-03-12T10:17:18Z</time>
      </trkpt>
      <trkpt lat="31.857988284900784" lon="-5.719233881682158">
        <ele>2370.27</ele>
        <time>2019-03-12T10:17:19Z</time>
      </trkpt>
      <trkpt lat="31.857787454500794" lon="-5.719248466193676">
        <ele>2369.79</ele>
        <time>2019-03-12T10:17:27Z</time>
      </trkpt>
      <trkpt lat="31.8577198125422" lon="-5.719269923865795">
        <ele>2368.8299999999999</ele>
        <time>2019-03-12T10:17:28Z</time>
      </trkpt>
      <trkpt lat="31.856998298317194" lon="-5.719659179449081">
        <ele>2368.3499999999999</ele>
        <time>2019-03-12T10:17:29Z</time>
      </trkpt>
      <trkpt lat="31.856962507590652" lon="-5.719699831679463">
        <ele>2367.3800000000001</ele>
        <time>2019-03-12T10:17:42Z</time>
      </trkpt>
      <trkpt lat="31.856891680508852" lon="-5.719797145575285">
        <ele>2367.3800000000001</ele>
        <time>2019-03-12T10:17:53Z</time>
      </trkpt>
      <trkpt lat="31.8568598292768" lon="-5.71985942311585">
        <ele>2366.9000000000001</ele>
        <time>2019-03-12T10:17:54Z</time>
      </trkpt>
      <trkpt lat="31.856835270300508" lon="-5.71992983110249">
        <ele>2366.9000000000001</ele>
        <time>2019-03-12T10:17:55Z</time>
      </trkpt>
      <trkpt lat="31.856818506494164" lon="-5.720001664012671">
        <ele>2366.4200000000001</ele>
        <time>2019-03-12T10:17:56Z</time>
      </trkpt>
      <trkpt lat="31.856805682182312" lon="-5.720070311799645">
        <ele>2363.54</ele>
        <time>2019-03-12T10:17:57Z</time>
      </trkpt>
      <trkpt lat="31.856798138469458" lon="-5.720140133053064">
        <ele>2363.0599999999999</ele>
        <time>2019-03-12T10:17:58Z</time>
      </trkpt>
      <trkpt lat="31.85679386369884" lon="-5.720212301239371">
        <ele>2362.5799999999999</ele>
        <time>2019-03-12T10:17:59Z</time>
      </trkpt>
      <trkpt lat="31.856676852330565" lon="-5.720830298960209">
        <ele>2355.8499999999999</ele>
        <time>2019-03-12T10:18:00Z</time>
      </trkpt>
      <trkpt lat="31.856631506234407" lon="-5.72087530978024">
        <ele>2350.5599999999999</ele>
        <time>2019-03-12T10:18:10Z</time>
      </trkpt>
      <trkpt lat="31.85657350346446" lon="-5.720905065536499">
        <ele>2350.0799999999999</ele>
        <time>2019-03-12T10:18:17Z</time>
      </trkpt>
      <trkpt lat="31.855809492990375" lon="-5.721332626417279">
        <ele>2349.5999999999999</ele>
        <time>2019-03-12T10:18:18Z</time>
      </trkpt>
      <trkpt lat="31.855101892724633" lon="-5.721592549234629">
        <ele>2349.5999999999999</ele>
        <time>2019-03-12T10:18:19Z</time>
      </trkpt>
      <trkpt lat="31.855060737580061" lon="-5.721627501770854">
        <ele>2349.1199999999999</ele>
        <time>2019-03-12T10:18:20Z</time>
      </trkpt>
      <trkpt lat="31.855037100613117" lon="-5.7216717582196">
        <ele>2348.6399999999999</ele>
        <time>2019-03-12T10:18:21Z</time>
      </trkpt>
      <trkpt lat="31.855038022622466" lon="-5.72172406129539">
        <ele>2348.6399999999999</ele>
        <time>2019-03-12T10:18:22Z</time>
      </trkpt>
      <trkpt lat="31.855062749236822" lon="-5.721774352714419">
        <ele>2348.1599999999999</ele>
        <time>2019-03-12T10:18:23Z</time>
      </trkpt>
      <trkpt lat="31.85510809533298" lon="-5.721814334392548">
        <ele>2346.7199999999998</ele>
        <time>2019-03-12T10:18:24Z</time>
      </trkpt>
      <trkpt lat="31.855163751170039" lon="-5.721848867833614">
        <ele>2345.27</ele>
        <time>2019-03-12T10:18:25Z</time>
      </trkpt>
      <trkpt lat="31.85522778891027" lon="-5.721883904188871">
        <ele>2344.79</ele>
        <time>2019-03-12T10:18:30Z</time>
      </trkpt>
      <trkpt lat="31.855851151049137" lon="-5.722120357677341">
        <ele>2344.79</ele>
        <time>2019-03-12T10:18:32Z</time>
      </trkpt>
      <trkpt lat="31.85636043548584" lon="-5.722166709601879">
        <ele>2344.3099999999999</ele>
        <time>2019-03-12T10:18:39Z</time>
      </trkpt>
      <trkpt lat="31.856447607278824" lon="-5.722186574712396">
        <ele>2343.8299999999999</ele>
        <time>2019-03-12T10:18:49Z</time>
      </trkpt>
      <trkpt lat="31.856533186510205" lon="-5.722213145345449">
        <ele>2343.8299999999999</ele>
        <time>2019-03-12T10:18:54Z</time>
      </trkpt>
      <trkpt lat="31.856610886752605" lon="-5.722248433157802">
        <ele>2343.3499999999999</ele>
        <time>2019-03-12T10:18:55Z</time>
      </trkpt>
      <trkpt lat="31.856675511226058" lon="-5.722293192520738">
        <ele>2343.3499999999999</ele>
        <time>2019-03-12T10:18:56Z</time>
      </trkpt>
      <trkpt lat="31.856726221740246" lon="-5.722339795902371">
        <ele>2342.8699999999999</ele>
        <time>2019-03-12T10:18:57Z</time>
      </trkpt>
      <trkpt lat="31.856766706332564" lon="-5.722386483103037">
        <ele>2340.9499999999998</ele>
        <time>2019-03-12T10:18:58Z</time>
      </trkpt>
      <trkpt lat="31.856804341077805" lon="-5.722436103969812">
        <ele>2340.9499999999998</ele>
        <time>2019-03-12T10:18:59Z</time>
      </trkpt>
      <trkpt lat="31.856844155117869" lon="-5.722494106739759">
        <ele>2338.54</ele>
        <time>2019-03-12T10:19:00Z</time>
      </trkpt>
      <trkpt lat="31.857129726558924" lon="-5.722812116146088">
        <ele>2334.2199999999998</ele>
        <time>2019-03-12T10:19:01Z</time>
      </trkpt>
      <trkpt lat="31.857260065153241" lon="-5.722907418385148">
        <ele>2333.2600000000002</ele>
        <time>2019-03-12T10:19:02Z</time>
      </trkpt>
      <trkpt lat="31.857748730108142" lon="-5.723233306780458">
        <ele>2332.3000000000002</ele>
        <time>2019-03-12T10:19:03Z</time>
      </trkpt>
      <trkpt lat="31.858441913500428" lon="-5.723804282024503">
        <ele>2331.8099999999999</ele>
        <time>2019-03-12T10:19:04Z</time>
      </trkpt>
      <trkpt lat="31.858710888773203" lon="-5.724077448248863">
        <ele>2331.3299999999999</ele>
        <time>2019-03-12T10:19:05Z</time>
      </trkpt>
      <trkpt lat="31.858737794682384" lon="-5.724136205390096">
        <ele>2330.8499999999999</ele>
        <time>2019-03-12T10:19:06Z</time>
      </trkpt>
      <trkpt lat="31.858767550438643" lon="-5.724201332777739">
        <ele>2330.3699999999999</ele>
        <time>2019-03-12T10:19:07Z</time>
      </trkpt>
      <trkpt lat="31.858803760260344" lon="-5.724269645288587">
        <ele>2329.4099999999999</ele>
        <time>2019-03-12T10:19:08Z</time>
      </trkpt>
      <trkpt lat="31.85884952545166" lon="-5.724340472370386">
        <ele>2328.9299999999998</ele>
        <time>2019-03-12T10:19:09Z</time>
      </trkpt>
      <trkpt lat="31.858902666717768" lon="-5.724408617243171">
        <ele>2328.9299999999998</ele>
        <time>2019-03-12T10:19:12Z</time>
      </trkpt>
      <trkpt lat="31.858964608982205" lon="-5.7244623452425">
        <ele>2328.9299999999998</ele>
        <time>2019-03-12T10:19:13Z</time>
      </trkpt>
      <trkpt lat="31.859036274254322" lon="-5.724500650539994">
        <ele>2328.9299999999998</ele>
        <time>2019-03-12T10:19:14Z</time>
      </trkpt>
      <trkpt lat="31.859113052487373" lon="-5.724523114040494">
        <ele>2328.9299999999998</ele>
        <time>2019-03-12T10:19:15Z</time>
      </trkpt>
      <trkpt lat="31.85918957926333" lon="-5.724530657753348">
        <ele>2328.9299999999998</ele>
        <time>2019-03-12T10:19:16Z</time>
      </trkpt>
      <trkpt lat="31.859252192080021" lon="-5.7245331723243">
        <ele>2329.4099999999999</ele>
        <time>2019-03-12T10:19:17Z</time>
      </trkpt>
      <trkpt lat="31.859297370538116" lon="-5.724545996636152">
        <ele>2329.4099999999999</ele>
        <time>2019-03-12T10:19:19Z</time>
      </trkpt>
      <trkpt lat="31.859323270618916" lon="-5.724575836211443">
        <ele>2329.4099999999999</ele>
        <time>2019-03-12T10:19:20Z</time>
      </trkpt>
      <trkpt lat="31.859333328902721" lon="-5.724617075175047">
        <ele>2329.4099999999999</ele>
        <time>2019-03-12T10:19:26Z</time>
      </trkpt>
      <trkpt lat="31.859334167093039" lon="-5.724661163985729">
        <ele>2329.4099999999999</ele>
        <time>2019-03-12T10:19:27Z</time>
      </trkpt>
      <trkpt lat="31.859333161264658" lon="-5.724711706861854">
        <ele>2329.4099999999999</ele>
        <time>2019-03-12T10:19:28Z</time>
      </trkpt>
      <trkpt lat="31.859327545389533" lon="-5.724894432350993">
        <ele>2329.4099999999999</ele>
        <time>2019-03-12T10:19:30Z</time>
      </trkpt>
      <trkpt lat="31.859305836260319" lon="-5.724931648001075">
        <ele>2329.4099999999999</ele>
        <time>2019-03-12T10:19:32Z</time>
      </trkpt>
      <trkpt lat="31.859270548447967" lon="-5.724949249997735">
        <ele>2329.4099999999999</ele>
        <time>2019-03-12T10:19:44Z</time>
      </trkpt>
      <trkpt lat="31.859230315312743" lon="-5.724948914721608">
        <ele>2328.4499999999998</ele>
        <time>2019-03-12T10:19:49Z</time>
      </trkpt>
      <trkpt lat="31.859193099662662" lon="-5.724939359351993">
        <ele>2327.9699999999998</ele>
        <time>2019-03-12T10:19:50Z</time>
      </trkpt>
      <trkpt lat="31.859158566221595" lon="-5.724929887801409">
        <ele>2324.6100000000001</ele>
        <time>2019-03-12T10:19:51Z</time>
      </trkpt>
      <trkpt lat="31.859070640057325" lon="-5.724918739870191">
        <ele>2323.6399999999999</ele>
        <time>2019-03-12T10:19:52Z</time>
      </trkpt>
      <trkpt lat="31.859008194878697" lon="-5.72492117062211">
        <ele>2323.1599999999999</ele>
        <time>2019-03-12T10:19:53Z</time>
      </trkpt>
      <trkpt lat="31.858531935140491" lon="-5.72499149478972">
        <ele>2320.7600000000002</ele>
        <time>2019-03-12T10:19:54Z</time>
      </trkpt>
      <trkpt lat="31.85845859348774" lon="-5.724985040724278">
        <ele>2318.8400000000001</ele>
        <time>2019-03-12T10:19:55Z</time>
      </trkpt>
      <trkpt lat="31.858383072540164" lon="-5.724969618022442">
        <ele>2308.2600000000002</ele>
        <time>2019-03-12T10:19:56Z</time>
      </trkpt>
      <trkpt lat="31.85822163708508" lon="-5.72493433021009">
        <ele>2303.9400000000001</ele>
        <time>2019-03-12T10:19:57Z</time>
      </trkpt>
      <trkpt lat="31.858045868575573" lon="-5.72492603212595">
        <ele>2303.46</ele>
        <time>2019-03-12T10:19:58Z</time>
      </trkpt>
      <trkpt lat="31.856976086273789" lon="-5.725178495049477">
        <ele>2302.98</ele>
        <time>2019-03-12T10:19:59Z</time>
      </trkpt>
      <trkpt lat="31.856590686365962" lon="-5.725300619378686">
        <ele>2302.4899999999998</ele>
        <time>2019-03-12T10:20:00Z</time>
      </trkpt>
      <trkpt lat="31.856517847627401" lon="-5.725346971303225">
        <ele>2302.4899999999998</ele>
        <time>2019-03-12T10:20:01Z</time>
      </trkpt>
      <trkpt lat="31.856444422155619" lon="-5.725404052063823">
        <ele>2301.5300000000002</ele>
        <time>2019-03-12T10:20:02Z</time>
      </trkpt>
      <trkpt lat="31.856374265626073" lon="-5.725468089804053">
        <ele>2301.0500000000002</ele>
        <time>2019-03-12T10:20:03Z</time>
      </trkpt>
      <trkpt lat="31.856310144066811" lon="-5.725536653771997">
        <ele>2300.5700000000002</ele>
        <time>2019-03-12T10:20:04Z</time>
      </trkpt>
      <trkpt lat="31.856254152953625" lon="-5.72560622356832">
        <ele>2300.5700000000002</ele>
        <time>2019-03-12T10:20:05Z</time>
      </trkpt>
      <trkpt lat="31.856209561228752" lon="-5.725674033164978">
        <ele>2300.0900000000001</ele>
        <time>2019-03-12T10:20:13Z</time>
      </trkpt>
      <trkpt lat="31.856176033616066" lon="-5.725746536627412">
        <ele>2299.6100000000001</ele>
        <time>2019-03-12T10:20:14Z</time>
      </trkpt>
      <trkpt lat="31.856156755238771" lon="-5.725824320688844">
        <ele>2299.6100000000001</ele>
        <time>2019-03-12T10:20:15Z</time>
      </trkpt>
      <trkpt lat="31.856149630621076" lon="-5.725900596007705">
        <ele>2299.1300000000001</ele>
        <time>2019-03-12T10:20:16Z</time>
      </trkpt>
      <trkpt lat="31.856143930926919" lon="-5.725962873548269">
        <ele>2298.6500000000001</ele>
        <time>2019-03-12T10:20:17Z</time>
      </trkpt>
      <trkpt lat="31.856128675863147" lon="-5.726007213816047">
        <ele>2298.6500000000001</ele>
        <time>2019-03-12T10:20:18Z</time>
      </trkpt>
      <trkpt lat="31.856100261211395" lon="-5.726031269878149">
        <ele>2298.1700000000001</ele>
        <time>2019-03-12T10:20:19Z</time>
      </trkpt>
      <trkpt lat="31.856065895408392" lon="-5.726041244342923">
        <ele>2297.6900000000001</ele>
        <time>2019-03-12T10:20:20Z</time>
      </trkpt>
      <trkpt lat="31.856021052226424" lon="-5.726042333990336">
        <ele>2292.8800000000001</ele>
        <time>2019-03-12T10:20:24Z</time>
      </trkpt>
      <trkpt lat="31.855965731665492" lon="-5.726035544648767">
        <ele>2292.4000000000001</ele>
        <time>2019-03-12T10:20:25Z</time>
      </trkpt>
      <trkpt lat="31.855900185182691" lon="-5.726021965965629">
        <ele>2291.9200000000001</ele>
        <time>2019-03-12T10:20:37Z</time>
      </trkpt>
      <trkpt lat="31.855315798893571" lon="-5.725853824988008">
        <ele>2291.4400000000001</ele>
        <time>2019-03-12T10:20:47Z</time>
      </trkpt>
      <trkpt lat="31.85524539090693" lon="-5.725844521075487">
        <ele>2290.48</ele>
        <time>2019-03-12T10:20:48Z</time>
      </trkpt>
      <trkpt lat="31.855175150558352" lon="-5.72584418579936">
        <ele>2290.48</ele>
        <time>2019-03-12T10:20:49Z</time>
      </trkpt>
      <trkpt lat="31.855105916038156" lon="-5.725854076445103">
        <ele>2290</ele>
        <time>2019-03-12T10:20:50Z</time>
      </trkpt>
      <trkpt lat="31.855039615184069" lon="-5.725874947384">
        <ele>2289.52</ele>
        <time>2019-03-12T10:20:51Z</time>
      </trkpt>
      <trkpt lat="31.854973984882236" lon="-5.72591308504343">
        <ele>2288.0799999999999</ele>
        <time>2019-03-12T10:20:52Z</time>
      </trkpt>
      <trkpt lat="31.854908522218466" lon="-5.72596631012857">
        <ele>2287.5900000000001</ele>
        <time>2019-03-12T10:20:53Z</time>
      </trkpt>
      <trkpt lat="31.854841131716967" lon="-5.726026827469468">
        <ele>2279.9000000000001</ele>
        <time>2019-03-12T10:20:54Z</time>
      </trkpt>
      <trkpt lat="31.854565534740686" lon="-5.726255318149924">
        <ele>2274.1399999999999</ele>
        <time>2019-03-12T10:20:55Z</time>
      </trkpt>
      <trkpt lat="31.854501999914646" lon="-5.726282643154264">
        <ele>2274.1399999999999</ele>
        <time>2019-03-12T10:20:56Z</time>
      </trkpt>
      <trkpt lat="31.853608740493655" lon="-5.726515660062432">
        <ele>2273.6599999999999</ele>
        <time>2019-03-12T10:20:57Z</time>
      </trkpt>
      <trkpt lat="31.852867612615228" lon="-5.726628815755248">
        <ele>2273.1700000000001</ele>
        <time>2019-03-12T10:20:58Z</time>
      </trkpt>
      <trkpt lat="31.852804496884346" lon="-5.726656392216682">
        <ele>2272.6900000000001</ele>
        <time>2019-03-12T10:20:59Z</time>
      </trkpt>
      <trkpt lat="31.852749092504382" lon="-5.726699223741889">
        <ele>2272.21</ele>
        <time>2019-03-12T10:21:00Z</time>
      </trkpt>
      <trkpt lat="31.852710619568825" lon="-5.726757310330868">
        <ele>2271.73</ele>
        <time>2019-03-12T10:21:01Z</time>
      </trkpt>
      <trkpt lat="31.852688156068325" lon="-5.726828137412667">
        <ele>2271.25</ele>
        <time>2019-03-12T10:21:02Z</time>
      </trkpt>
      <trkpt lat="31.852681199088693" lon="-5.726907346397638">
        <ele>2270.77</ele>
        <time>2019-03-12T10:21:03Z</time>
      </trkpt>
      <trkpt lat="31.852685138583183" lon="-5.726995188742876">
        <ele>2270.29</ele>
        <time>2019-03-12T10:21:04Z</time>
      </trkpt>
      <trkpt lat="31.852701064199209" lon="-5.727092167362571">
        <ele>2270.29</ele>
        <time>2019-03-12T10:21:05Z</time>
      </trkpt>
      <trkpt lat="31.852727215737104" lon="-5.727197611704469">
        <ele>2269.8099999999999</ele>
        <time>2019-03-12T10:21:10Z</time>
      </trkpt>
      <trkpt lat="31.85276560485363" lon="-5.727309174835682">
        <ele>2269.8099999999999</ele>
        <time>2019-03-12T10:21:12Z</time>
      </trkpt>
      <trkpt lat="31.852812124416232" lon="-5.727420067414641">
        <ele>2269.8099999999999</ele>
        <time>2019-03-12T10:21:13Z</time>
      </trkpt>
      <trkpt lat="31.852865684777498" lon="-5.727528110146523">
        <ele>2269.3299999999999</ele>
        <time>2019-03-12T10:21:14Z</time>
      </trkpt>
      <trkpt lat="31.852918574586511" lon="-5.727626010775566">
        <ele>2269.3299999999999</ele>
        <time>2019-03-12T10:21:24Z</time>
      </trkpt>
      <trkpt lat="31.852956376969814" lon="-5.727706896141172">
        <ele>2269.3299999999999</ele>
        <time>2019-03-12T10:21:30Z</time>
      </trkpt>
      <trkpt lat="31.852969788014889" lon="-5.727774957194924">
        <ele>2268.8499999999999</ele>
        <time>2019-03-12T10:21:35Z</time>
      </trkpt>
      <trkpt lat="31.852954449132085" lon="-5.727827176451683">
        <ele>2268.3699999999999</ele>
        <time>2019-03-12T10:21:41Z</time>
      </trkpt>
      <trkpt lat="31.852913126349449" lon="-5.727860620245338">
        <ele>2265.48</ele>
        <time>2019-03-12T10:21:42Z</time>
      </trkpt>
      <trkpt lat="31.852855291217566" lon="-5.727876210585237">
        <ele>2264.04</ele>
        <time>2019-03-12T10:21:43Z</time>
      </trkpt>
      <trkpt lat="31.85278563760221" lon="-5.727882413193584">
        <ele>2263.5599999999999</ele>
        <time>2019-03-12T10:21:46Z</time>
      </trkpt>
      <trkpt lat="31.852331003174186" lon="-5.727955168113112">
        <ele>2263.0799999999999</ele>
        <time>2019-03-12T10:21:47Z</time>
      </trkpt>
      <trkpt lat="31.852149870246649" lon="-5.727960029616952">
        <ele>2256.8299999999999</ele>
        <time>2019-03-12T10:21:48Z</time>
      </trkpt>
      <trkpt lat="31.852058172225952" lon="-5.727946953848004">
        <ele>2254.4299999999998</ele>
        <time>2019-03-12T10:21:49Z</time>
      </trkpt>
      <trkpt lat="31.851965133100748" lon="-5.727922059595585">
        <ele>2252.5100000000002</ele>
        <time>2019-03-12T10:21:50Z</time>
      </trkpt>
      <trkpt lat="31.851120069622993" lon="-5.727753415703774">
        <ele>2250.0999999999999</ele>
        <time>2019-03-12T10:21:51Z</time>
      </trkpt>
      <trkpt lat="31.850755708292127" lon="-5.7277952414006">
        <ele>2250.0999999999999</ele>
        <time>2019-03-12T10:21:52Z</time>
      </trkpt>
      <trkpt lat="31.850415989756584" lon="-5.727766826748848">
        <ele>2250.0999999999999</ele>
        <time>2019-03-12T10:21:57Z</time>
      </trkpt>
      <trkpt lat="31.849928330630064" lon="-5.727799767628312">
        <ele>2249.1399999999999</ele>
        <time>2019-03-12T10:21:58Z</time>
      </trkpt>
      <trkpt lat="31.849854653701186" lon="-5.727825667709112">
        <ele>2248.6599999999999</ele>
        <time>2019-03-12T10:22:03Z</time>
      </trkpt>
      <trkpt lat="31.84978935867548" lon="-5.727859362959862">
        <ele>2248.6599999999999</ele>
        <time>2019-03-12T10:22:04Z</time>
      </trkpt>
      <trkpt lat="31.849649716168642" lon="-5.727971345186234">
        <ele>2248.1799999999998</ele>
        <time>2019-03-12T10:22:17Z</time>
      </trkpt>
      <trkpt lat="31.849629431962967" lon="-5.728011913597584">
        <ele>2248.1799999999998</ele>
        <time>2019-03-12T10:22:18Z</time>
      </trkpt>
      <trkpt lat="31.849629851058125" lon="-5.728054996579886">
        <ele>2247.6999999999998</ele>
        <time>2019-03-12T10:22:19Z</time>
      </trkpt>
      <trkpt lat="31.849646782502532" lon="-5.728093888610601">
        <ele>2247.6999999999998</ele>
        <time>2019-03-12T10:22:20Z</time>
      </trkpt>
      <trkpt lat="31.849678298458457" lon="-5.728122051805258">
        <ele>2245.7800000000002</ele>
        <time>2019-03-12T10:22:21Z</time>
      </trkpt>
      <trkpt lat="31.849718280136585" lon="-5.728142755106092">
        <ele>2245.3000000000002</ele>
        <time>2019-03-12T10:22:22Z</time>
      </trkpt>
      <trkpt lat="31.849763626232743" lon="-5.728162536397576">
        <ele>2243.3699999999999</ele>
        <time>2019-03-12T10:22:23Z</time>
      </trkpt>
      <trkpt lat="31.850037379190326" lon="-5.728288097307086">
        <ele>2242.8899999999999</ele>
        <time>2019-03-12T10:22:24Z</time>
      </trkpt>
      <trkpt lat="31.850101165473461" lon="-5.728318355977535">
        <ele>2237.6100000000001</ele>
        <time>2019-03-12T10:22:25Z</time>
      </trkpt>
      <trkpt lat="31.850419593974948" lon="-5.728515665978193">
        <ele>2237.1300000000001</ele>
        <time>2019-03-12T10:22:26Z</time>
      </trkpt>
      <trkpt lat="31.850471729412675" lon="-5.728573501110077">
        <ele>2236.6399999999999</ele>
        <time>2019-03-12T10:22:27Z</time>
      </trkpt>
      <trkpt lat="31.851128619164228" lon="-5.729265511035919">
        <ele>2236.1599999999999</ele>
        <time>2019-03-12T10:22:28Z</time>
      </trkpt>
      <trkpt lat="31.851192321628332" lon="-5.729318149387837">
        <ele>2235.6799999999998</ele>
        <time>2019-03-12T10:22:29Z</time>
      </trkpt>
      <trkpt lat="31.851262310519814" lon="-5.729361148551107">
        <ele>2235.6799999999998</ele>
        <time>2019-03-12T10:22:30Z</time>
      </trkpt>
      <trkpt lat="31.851335316896439" lon="-5.729393251240253">
        <ele>2235.6799999999998</ele>
        <time>2019-03-12T10:22:31Z</time>
      </trkpt>
      <trkpt lat="31.851407652720809" lon="-5.729419738054276">
        <ele>2235.6799999999998</ele>
        <time>2019-03-12T10:22:37Z</time>
      </trkpt>
      <trkpt lat="31.851477473974228" lon="-5.729434490203857">
        <ele>2235.6799999999998</ele>
        <time>2019-03-12T10:22:40Z</time>
      </trkpt>
      <trkpt lat="31.851542182266712" lon="-5.729435328394175">
        <ele>2235.6799999999998</ele>
        <time>2019-03-12T10:22:41Z</time>
      </trkpt>
      <trkpt lat="31.85159926302731" lon="-5.729431724175811">
        <ele>2235.1999999999998</ele>
        <time>2019-03-12T10:22:42Z</time>
      </trkpt>
      <trkpt lat="31.851643351837993" lon="-5.729440189898014">
        <ele>2234.7199999999998</ele>
        <time>2019-03-12T10:22:43Z</time>
      </trkpt>
      <trkpt lat="31.851671598851681" lon="-5.72947321459651">
        <ele>2234.2399999999998</ele>
        <time>2019-03-12T10:22:44Z</time>
      </trkpt>
      <trkpt lat="31.851674448698759" lon="-5.729515627026558">
        <ele>2233.7600000000002</ele>
        <time>2019-03-12T10:22:54Z</time>
      </trkpt>
      <trkpt lat="31.851654332131147" lon="-5.72954697534442">
        <ele>2233.7600000000002</ele>
        <time>2019-03-12T10:23:00Z</time>
      </trkpt>
      <trkpt lat="31.851617787033319" lon="-5.729558123275638">
        <ele>2231.8400000000001</ele>
        <time>2019-03-12T10:23:01Z</time>
      </trkpt>
      <trkpt lat="31.851574452593923" lon="-5.729562733322382">
        <ele>2230.8800000000001</ele>
        <time>2019-03-12T10:23:02Z</time>
      </trkpt>
      <trkpt lat="31.851520221680403" lon="-5.72956558316946">
        <ele>2230.4000000000001</ele>
        <time>2019-03-12T10:23:03Z</time>
      </trkpt>
      <trkpt lat="31.851127445697784" lon="-5.729573294520378">
        <ele>2229.9200000000001</ele>
        <time>2019-03-12T10:23:04Z</time>
      </trkpt>
      <trkpt lat="31.850983779877424" lon="-5.729586957022548">
        <ele>2228.9499999999998</ele>
        <time>2019-03-12T10:23:05Z</time>
      </trkpt>
      <trkpt lat="31.850937595590949" lon="-5.729585867375135">
        <ele>2228.4699999999998</ele>
        <time>2019-03-12T10:23:06Z</time>
      </trkpt>
      <trkpt lat="31.850889986380935" lon="-5.729575306177139">
        <ele>2221.7399999999998</ele>
        <time>2019-03-12T10:23:07Z</time>
      </trkpt>
      <trkpt lat="31.850839108228683" lon="-5.729554686695337">
        <ele>2220.7800000000002</ele>
        <time>2019-03-12T10:23:08Z</time>
      </trkpt>
      <trkpt lat="31.850785715505481" lon="-5.729526188224554">
        <ele>2220.7800000000002</ele>
        <time>2019-03-12T10:23:09Z</time>
      </trkpt>
      <trkpt lat="31.850088592618704" lon="-5.729336254298687">
        <ele>2220.7800000000002</ele>
        <time>2019-03-12T10:23:10Z</time>
      </trkpt>
      <trkpt lat="31.849679639562964" lon="-5.729258302599192">
        <ele>2220.3000000000002</ele>
        <time>2019-03-12T10:23:21Z</time>
      </trkpt>
      <trkpt lat="31.84963689185679" lon="-5.729259392246604">
        <ele>2220.3000000000002</ele>
        <time>2019-03-12T10:23:22Z</time>
      </trkpt>
      <trkpt lat="31.849605375900865" lon="-5.72927481494844">
        <ele>2219.8200000000002</ele>
        <time>2019-03-12T10:23:23Z</time>
      </trkpt>
      <trkpt lat="31.84958366677165" lon="-5.729299541562796">
        <ele>2219.8200000000002</ele>
        <time>2019-03-12T10:23:24Z</time>
      </trkpt>
      <trkpt lat="31.849573189392686" lon="-5.729327537119389">
        <ele>2219.8200000000002</ele>
        <time>2019-03-12T10:23:25Z</time>
      </trkpt>
      <trkpt lat="31.849579643458128" lon="-5.729361483827233">
        <ele>2219.3400000000001</ele>
        <time>2019-03-12T10:23:26Z</time>
      </trkpt>
      <trkpt lat="31.849598083645105" lon="-5.729391993954778">
        <ele>2219.3400000000001</ele>
        <time>2019-03-12T10:23:27Z</time>
      </trkpt>
      <trkpt lat="31.849625073373318" lon="-5.729417139664292">
        <ele>2218.8600000000001</ele>
        <time>2019-03-12T10:23:28Z</time>
      </trkpt>
      <trkpt lat="31.849655080586672" lon="-5.729434154927731">
        <ele>2215.5</ele>
        <time>2019-03-12T10:23:29Z</time>
      </trkpt>
      <trkpt lat="31.84969263151288" lon="-5.729449829086661">
        <ele>2215.5</ele>
        <time>2019-03-12T10:23:33Z</time>
      </trkpt>
      <trkpt lat="31.849736887961626" lon="-5.729465670883656">
        <ele>2215.0100000000002</ele>
        <time>2019-03-12T10:23:39Z</time>
      </trkpt>
      <trkpt lat="31.850389838218689" lon="-5.729809915646911">
        <ele>2215.0100000000002</ele>
        <time>2019-03-12T10:23:47Z</time>
      </trkpt>
      <trkpt lat="31.85042948462069" lon="-5.729857105761766">
        <ele>2214.0500000000002</ele>
        <time>2019-03-12T10:23:48Z</time>
      </trkpt>
      <trkpt lat="31.850449349731207" lon="-5.729903541505337">
        <ele>2214.0500000000002</ele>
        <time>2019-03-12T10:23:49Z</time>
      </trkpt>
      <trkpt lat="31.85044608078897" lon="-5.729944529011846">
        <ele>2213.0900000000001</ele>
        <time>2019-03-12T10:23:50Z</time>
      </trkpt>
      <trkpt lat="31.850422527641058" lon="-5.729976212605834">
        <ele>2212.6100000000001</ele>
        <time>2019-03-12T10:23:51Z</time>
      </trkpt>
      <trkpt lat="31.850387994199991" lon="-5.729990210384131">
        <ele>2212.1300000000001</ele>
        <time>2019-03-12T10:23:52Z</time>
      </trkpt>
      <trkpt lat="31.850348599255085" lon="-5.729989623650909">
        <ele>2209.73</ele>
        <time>2019-03-12T10:23:53Z</time>
      </trkpt>
      <trkpt lat="31.85029755346477" lon="-5.729981744661927">
        <ele>2206.8400000000001</ele>
        <time>2019-03-12T10:23:54Z</time>
      </trkpt>
      <trkpt lat="31.850232928991318" lon="-5.729968417435885">
        <ele>2203.96</ele>
        <time>2019-03-12T10:24:02Z</time>
      </trkpt>
      <trkpt lat="31.849942579865456" lon="-5.729907397180796">
        <ele>2203</ele>
        <time>2019-03-12T10:24:04Z</time>
      </trkpt>
      <trkpt lat="31.849530525505543" lon="-5.729849981144071">
        <ele>2203</ele>
        <time>2019-03-12T10:24:06Z</time>
      </trkpt>
      <trkpt lat="31.84904420748353" lon="-5.729665579274297">
        <ele>2202.52</ele>
        <time>2019-03-12T10:24:07Z</time>
      </trkpt>
      <trkpt lat="31.849006321281195" lon="-5.729672871530056">
        <ele>2202.04</ele>
        <time>2019-03-12T10:24:10Z</time>
      </trkpt>
      <trkpt lat="31.84898117557168" lon="-5.729699693620205">
        <ele>2201.5599999999999</ele>
        <time>2019-03-12T10:24:11Z</time>
      </trkpt>
      <trkpt lat="31.848978577181697" lon="-5.72974051348865">
        <ele>2201.0799999999999</ele>
        <time>2019-03-12T10:24:12Z</time>
      </trkpt>
      <trkpt lat="31.849000034853816" lon="-5.729785524308682">
        <ele>2200.5900000000001</ele>
        <time>2019-03-12T10:24:13Z</time>
      </trkpt>
      <trkpt lat="31.849041609093547" lon="-5.729826427996159">
        <ele>2196.75</ele>
        <time>2019-03-12T10:24:14Z</time>
      </trkpt>
      <trkpt lat="31.849097600206733" lon="-5.729865906760097">
        <ele>2195.79</ele>
        <time>2019-03-12T10:24:15Z</time>
      </trkpt>
      <trkpt lat="31.849165996536613" lon="-5.729905385524035">
        <ele>2194.8299999999999</ele>
        <time>2019-03-12T10:24:16Z</time>
      </trkpt>
      <trkpt lat="31.849742168560624" lon="-5.730374855920672">
        <ele>2194.3499999999999</ele>
        <time>2019-03-12T10:24:17Z</time>
      </trkpt>
      <trkpt lat="31.849897317588329" lon="-5.730487089604139">
        <ele>2191.46</ele>
        <time>2019-03-12T10:24:18Z</time>
      </trkpt>
      <trkpt lat="31.850052885711193" lon="-5.730561185628176">
        <ele>2191.46</ele>
        <time>2019-03-12T10:24:19Z</time>
      </trkpt>
      <trkpt lat="31.850119354203343" lon="-5.730603514239192">
        <ele>2191.46</ele>
        <time>2019-03-12T10:24:20Z</time>
      </trkpt>
      <trkpt lat="31.850337451323867" lon="-5.730743240565062">
        <ele>2190.98</ele>
        <time>2019-03-12T10:24:21Z</time>
      </trkpt>
      <trkpt lat="31.850415905937552" lon="-5.73077836073935">
        <ele>2190.5</ele>
        <time>2019-03-12T10:24:24Z</time>
      </trkpt>
      <trkpt lat="31.850489163771272" lon="-5.730813397094607">
        <ele>2190.5</ele>
        <time>2019-03-12T10:24:33Z</time>
      </trkpt>
      <trkpt lat="31.85054431669414" lon="-5.73085748590529">
        <ele>2190.02</ele>
        <time>2019-03-12T10:24:36Z</time>
      </trkpt>
      <trkpt lat="31.850576670840383" lon="-5.730916410684586">
        <ele>2190.02</ele>
        <time>2019-03-12T10:24:37Z</time>
      </trkpt>
      <trkpt lat="31.850593267008662" lon="-5.73098455555737">
        <ele>2189.54</ele>
        <time>2019-03-12T10:24:38Z</time>
      </trkpt>
      <trkpt lat="31.850602906197309" lon="-5.731060411781073">
        <ele>2189.0599999999999</ele>
        <time>2019-03-12T10:24:39Z</time>
      </trkpt>
      <trkpt lat="31.850605588406324" lon="-5.731145152822137">
        <ele>2188.0999999999999</ele>
        <time>2019-03-12T10:24:40Z</time>
      </trkpt>
      <trkpt lat="31.850595781579614" lon="-5.731234839186072">
        <ele>2187.1399999999999</ele>
        <time>2019-03-12T10:24:41Z</time>
      </trkpt>
      <trkpt lat="31.850573234260082" lon="-5.731330392882228">
        <ele>2185.21</ele>
        <time>2019-03-12T10:24:42Z</time>
      </trkpt>
      <trkpt lat="31.850535934790969" lon="-5.73143164627254">
        <ele>2178.9699999999998</ele>
        <time>2019-03-12T10:24:44Z</time>
      </trkpt>
      <trkpt lat="31.850489499047399" lon="-5.73153474368155">
        <ele>2177.04</ele>
        <time>2019-03-12T10:24:54Z</time>
      </trkpt>
      <trkpt lat="31.850370476022363" lon="-5.731864990666509">
        <ele>2176.5599999999999</ele>
        <time>2019-03-12T10:24:55Z</time>
      </trkpt>
      <trkpt lat="31.8502735812217" lon="-5.732756825163961">
        <ele>2175.5999999999999</ele>
        <time>2019-03-12T10:24:56Z</time>
      </trkpt>
      <trkpt lat="31.850287662819028" lon="-5.733024626970291">
        <ele>2175.1199999999999</ele>
        <time>2019-03-12T10:24:57Z</time>
      </trkpt>
      <trkpt lat="31.850275173783302" lon="-5.733110541477799">
        <ele>2174.6399999999999</ele>
        <time>2019-03-12T10:24:58Z</time>
      </trkpt>
      <trkpt lat="31.850245669484138" lon="-5.733193941414356">
        <ele>2173.6799999999998</ele>
        <time>2019-03-12T10:24:59Z</time>
      </trkpt>
      <trkpt lat="31.850201329216361" lon="-5.733272144570947">
        <ele>2173.1999999999998</ele>
        <time>2019-03-12T10:25:00Z</time>
      </trkpt>
      <trkpt lat="31.850146427750587" lon="-5.733343809843063">
        <ele>2171.27</ele>
        <time>2019-03-12T10:25:01Z</time>
      </trkpt>
      <trkpt lat="31.850082138553262" lon="-5.733411954715848">
        <ele>2165.5100000000002</ele>
        <time>2019-03-12T10:25:02Z</time>
      </trkpt>
      <trkpt lat="31.850017346441746" lon="-5.733479345217347">
        <ele>2164.5500000000002</ele>
        <time>2019-03-12T10:25:03Z</time>
      </trkpt>
      <trkpt lat="31.84989295899868" lon="-5.733620580285788">
        <ele>2164.0599999999999</ele>
        <time>2019-03-12T10:25:04Z</time>
      </trkpt>
      <trkpt lat="31.849347800016403" lon="-5.7342778891325">
        <ele>2163.0999999999999</ele>
        <time>2019-03-12T10:25:05Z</time>
      </trkpt>
      <trkpt lat="31.849287198856473" lon="-5.734315775334835">
        <ele>2162.6199999999999</ele>
        <time>2019-03-12T10:25:06Z</time>
      </trkpt>
      <trkpt lat="31.849223496392369" lon="-5.734337233006954">
        <ele>2162.1399999999999</ele>
        <time>2019-03-12T10:25:07Z</time>
      </trkpt>
      <trkpt lat="31.849161721765995" lon="-5.734345531091094">
        <ele>2161.6599999999999</ele>
        <time>2019-03-12T10:25:08Z</time>
      </trkpt>
      <trkpt lat="31.849100114777684" lon="-5.734339747577906">
        <ele>2161.1799999999998</ele>
        <time>2019-03-12T10:25:17Z</time>
      </trkpt>
      <trkpt lat="31.849040267989039" lon="-5.734317870810628">
        <ele>2160.2199999999998</ele>
        <time>2019-03-12T10:25:19Z</time>
      </trkpt>
      <trkpt lat="31.848987964913249" lon="-5.734283421188593">
        <ele>2159.7399999999998</ele>
        <time>2019-03-12T10:25:20Z</time>
      </trkpt>
      <trkpt lat="31.848945720121264" lon="-5.734238997101784">
        <ele>2159.2600000000002</ele>
        <time>2019-03-12T10:25:21Z</time>
      </trkpt>
      <trkpt lat="31.848906995728612" lon="-5.734186861664057">
        <ele>2158.3000000000002</ele>
        <time>2019-03-12T10:25:22Z</time>
      </trkpt>
      <trkpt lat="31.848872881382704" lon="-5.734131624922156">
        <ele>2157.3400000000001</ele>
        <time>2019-03-12T10:25:23Z</time>
      </trkpt>
      <trkpt lat="31.8488385155797" lon="-5.734068593010306">
        <ele>2156.3699999999999</ele>
        <time>2019-03-12T10:25:24Z</time>
      </trkpt>
      <trkpt lat="31.848814208060503" lon="-5.733994580805302">
        <ele>2155.4099999999999</ele>
        <time>2019-03-12T10:25:25Z</time>
      </trkpt>
      <trkpt lat="31.848796019330621" lon="-5.733916126191616">
        <ele>2148.6799999999998</ele>
        <time>2019-03-12T10:25:26Z</time>
      </trkpt>
      <trkpt lat="31.84878621250391" lon="-5.733826272189617">
        <ele>2147.2399999999998</ele>
        <time>2019-03-12T10:25:27Z</time>
      </trkpt>
      <trkpt lat="31.848776405677199" lon="-5.733728623017669">
        <ele>2146.2800000000002</ele>
        <time>2019-03-12T10:25:28Z</time>
      </trkpt>
      <trkpt lat="31.848490834236145" lon="-5.732813067734242">
        <ele>2145.8000000000002</ele>
        <time>2019-03-12T10:25:29Z</time>
      </trkpt>
      <trkpt lat="31.848438028246164" lon="-5.732652554288507">
        <ele>2145.3200000000002</ele>
        <time>2019-03-12T10:25:30Z</time>
      </trkpt>
      <trkpt lat="31.848430819809437" lon="-5.732568735256791">
        <ele>2145.3200000000002</ele>
        <time>2019-03-12T10:25:31Z</time>
      </trkpt>
      <trkpt lat="31.848436770960689" lon="-5.732482066377997">
        <ele>2144.8400000000001</ele>
        <time>2019-03-12T10:25:32Z</time>
      </trkpt>
      <trkpt lat="31.848452361300588" lon="-5.73239229619503">
        <ele>2144.8400000000001</ele>
        <time>2019-03-12T10:25:33Z</time>
      </trkpt>
      <trkpt lat="31.848474405705929" lon="-5.732306465506554">
        <ele>2144.3600000000001</ele>
        <time>2019-03-12T10:25:34Z</time>
      </trkpt>
      <trkpt lat="31.848501563072205" lon="-5.732231615111232">
        <ele>2143.8800000000001</ele>
        <time>2019-03-12T10:25:35Z</time>
      </trkpt>
      <trkpt lat="31.848527630791068" lon="-5.732163470238447">
        <ele>2143.4000000000001</ele>
        <time>2019-03-12T10:25:36Z</time>
      </trkpt>
      <trkpt lat="31.848535006865859" lon="-5.732102366164327">
        <ele>2142.9200000000001</ele>
        <time>2019-03-12T10:25:37Z</time>
      </trkpt>
      <trkpt lat="31.848516566678882" lon="-5.732058444991708">
        <ele>2142.4400000000001</ele>
        <time>2019-03-12T10:25:38Z</time>
      </trkpt>
      <trkpt lat="31.848478345200419" lon="-5.732042603194714">
        <ele>2141.9499999999998</ele>
        <time>2019-03-12T10:25:39Z</time>
      </trkpt>
      <trkpt lat="31.848430819809437" lon="-5.732050482183695">
        <ele>2141.4699999999998</ele>
        <time>2019-03-12T10:25:42Z</time>
      </trkpt>
      <trkpt lat="31.848382288590074" lon="-5.732061546295881">
        <ele>2140.9899999999998</ele>
        <time>2019-03-12T10:25:43Z</time>
      </trkpt>
      <trkpt lat="31.848330488428473" lon="-5.73206146247685">
        <ele>2140.5100000000002</ele>
        <time>2019-03-12T10:25:44Z</time>
      </trkpt>
      <trkpt lat="31.848275922238827" lon="-5.732047967612743">
        <ele>2140.0300000000002</ele>
        <time>2019-03-12T10:25:45Z</time>
      </trkpt>
      <trkpt lat="31.848220769315958" lon="-5.732020894065499">
        <ele>2139.0700000000002</ele>
        <time>2019-03-12T10:25:46Z</time>
      </trkpt>
      <trkpt lat="31.848165281116962" lon="-5.731983929872513">
        <ele>2138.5900000000001</ele>
        <time>2019-03-12T10:25:47Z</time>
      </trkpt>
      <trkpt lat="31.848114654421806" lon="-5.731940176337957">
        <ele>2138.1100000000001</ele>
        <time>2019-03-12T10:25:48Z</time>
      </trkpt>
      <trkpt lat="31.848069308325648" lon="-5.731891561299563">
        <ele>2137.1500000000001</ele>
        <time>2019-03-12T10:25:49Z</time>
      </trkpt>
      <trkpt lat="31.848026141524315" lon="-5.731841437518597">
        <ele>2134.7399999999998</ele>
        <time>2019-03-12T10:25:50Z</time>
      </trkpt>
      <trkpt lat="31.847979621961713" lon="-5.731792571023107">
        <ele>2134.2600000000002</ele>
        <time>2019-03-12T10:25:51Z</time>
      </trkpt>
      <trkpt lat="31.847927486523986" lon="-5.731739262118936">
        <ele>2133.7800000000002</ele>
        <time>2019-03-12T10:25:52Z</time>
      </trkpt>
      <trkpt lat="31.847768565639853" lon="-5.731552513316274">
        <ele>2133.3000000000002</ele>
        <time>2019-03-12T10:25:53Z</time>
      </trkpt>
      <trkpt lat="31.847727913409472" lon="-5.731478249654174">
        <ele>2132.8200000000002</ele>
        <time>2019-03-12T10:25:54Z</time>
      </trkpt>
      <trkpt lat="31.847703857347369" lon="-5.731395939365029">
        <ele>2132.3400000000001</ele>
        <time>2019-03-12T10:25:55Z</time>
      </trkpt>
      <trkpt lat="31.847693044692278" lon="-5.731314048171043">
        <ele>2131.3800000000001</ele>
        <time>2019-03-12T10:25:56Z</time>
      </trkpt>
      <trkpt lat="31.847678292542696" lon="-5.731242634356022">
        <ele>2130.9000000000001</ele>
        <time>2019-03-12T10:25:57Z</time>
      </trkpt>
      <trkpt lat="31.847642417997122" lon="-5.731194103136659">
        <ele>2130.4200000000001</ele>
        <time>2019-03-12T10:26:08Z</time>
      </trkpt>
      <trkpt lat="31.847592294216156" lon="-5.731172729283571">
        <ele>2129.9400000000001</ele>
        <time>2019-03-12T10:26:16Z</time>
      </trkpt>
      <trkpt lat="31.847535967826843" lon="-5.731174992397428">
        <ele>2129.46</ele>
        <time>2019-03-12T10:26:24Z</time>
      </trkpt>
      <trkpt lat="31.847477713599801" lon="-5.731196701526642">
        <ele>2128.5</ele>
        <time>2019-03-12T10:26:25Z</time>
      </trkpt>
      <trkpt lat="31.847421051934361" lon="-5.731230396777391">
        <ele>2128.02</ele>
        <time>2019-03-12T10:26:26Z</time>
      </trkpt>
      <trkpt lat="31.84736187569797" lon="-5.731263840571046">
        <ele>2126.5700000000002</ele>
        <time>2019-03-12T10:26:27Z</time>
      </trkpt>
      <trkpt lat="31.847293647006154" lon="-5.731284124776721">
        <ele>2125.6100000000001</ele>
        <time>2019-03-12T10:26:28Z</time>
      </trkpt>
      <trkpt lat="31.847211588174105" lon="-5.731286639347673">
        <ele>2124.6500000000001</ele>
        <time>2019-03-12T10:26:36Z</time>
      </trkpt>
      <trkpt lat="31.847122153267264" lon="-5.731267109513283">
        <ele>2116</ele>
        <time>2019-03-12T10:26:38Z</time>
      </trkpt>
      <trkpt lat="31.84702618047595" lon="-5.731226541101933">
        <ele>2115.52</ele>
        <time>2019-03-12T10:26:42Z</time>
      </trkpt>
      <trkpt lat="31.84692895039916" lon="-5.731176668778062">
        <ele>2117.9200000000001</ele>
        <time>2019-03-12T10:26:43Z</time>
      </trkpt>
      <trkpt lat="31.845777025446296" lon="-5.730623379349709">
        <ele>2117.9200000000001</ele>
        <time>2019-03-12T10:26:50Z</time>
      </trkpt>
      <trkpt lat="31.845174701884389" lon="-5.730326659977436">
        <ele>2117.9200000000001</ele>
        <time>2019-03-12T10:26:51Z</time>
      </trkpt>
      <trkpt lat="31.844723001122475" lon="-5.730202607810497">
        <ele>2117.9200000000001</ele>
        <time>2019-03-12T10:26:52Z</time>
      </trkpt>
      <trkpt lat="31.844657873734832" lon="-5.7302076369524">
        <ele>2117.9200000000001</ele>
        <time>2019-03-12T10:26:53Z</time>
      </trkpt>
      <trkpt lat="31.844598613679409" lon="-5.730222556740046">
        <ele>2117.4400000000001</ele>
        <time>2019-03-12T10:26:54Z</time>
      </trkpt>
      <trkpt lat="31.844546059146523" lon="-5.730243176221848">
        <ele>2117.4400000000001</ele>
        <time>2019-03-12T10:26:56Z</time>
      </trkpt>
      <trkpt lat="31.84449409134686" lon="-5.73026773519814">
        <ele>2117.9200000000001</ele>
        <time>2019-03-12T10:26:57Z</time>
      </trkpt>
      <trkpt lat="31.843831250444055" lon="-5.730480132624507">
        <ele>2117.9200000000001</ele>
        <time>2019-03-12T10:27:00Z</time>
      </trkpt>
      <trkpt lat="31.843642741441727" lon="-5.730509385466576">
        <ele>2117.4400000000001</ele>
        <time>2019-03-12T10:27:05Z</time>
      </trkpt>
      <trkpt lat="31.84329254552722" lon="-5.730540985241532">
        <ele>2117.4400000000001</ele>
        <time>2019-03-12T10:27:06Z</time>
      </trkpt>
      <trkpt lat="31.843205709010363" lon="-5.730532100424171">
        <ele>2117.9200000000001</ele>
        <time>2019-03-12T10:27:09Z</time>
      </trkpt>
      <trkpt lat="31.842559296637774" lon="-5.73035323061049">
        <ele>2117.9200000000001</ele>
        <time>2019-03-12T10:27:10Z</time>
      </trkpt>
      <trkpt lat="31.842474555596709" lon="-5.730297574773431">
        <ele>2117.9200000000001</ele>
        <time>2019-03-12T10:27:11Z</time>
      </trkpt>
      <trkpt lat="31.842396017163992" lon="-5.730226412415505">
        <ele>2118.4000000000001</ele>
        <time>2019-03-12T10:27:12Z</time>
      </trkpt>
      <trkpt lat="31.842325106263161" lon="-5.730144688859582">
        <ele>2118.4000000000001</ele>
        <time>2019-03-12T10:27:13Z</time>
      </trkpt>
      <trkpt lat="31.8422557041049" lon="-5.730067072436214">
        <ele>2118.4000000000001</ele>
        <time>2019-03-12T10:27:14Z</time>
      </trkpt>
      <trkpt lat="31.842118157073855" lon="-5.729936985298991">
        <ele>2118.4000000000001</ele>
        <time>2019-03-12T10:27:15Z</time>
      </trkpt>
      <trkpt lat="31.842046156525612" lon="-5.72988560423255">
        <ele>2118.4000000000001</ele>
        <time>2019-03-12T10:27:16Z</time>
      </trkpt>
      <trkpt lat="31.841811798512936" lon="-5.729728695005179">
        <ele>2118.4000000000001</ele>
        <time>2019-03-12T10:27:17Z</time>
      </trkpt>
      <trkpt lat="31.84143427759409" lon="-5.72936131618917">
        <ele>2118.4000000000001</ele>
        <time>2019-03-12T10:27:18Z</time>
      </trkpt>
      <trkpt lat="31.841353308409452" lon="-5.729302810505033">
        <ele>2118.4000000000001</ele>
        <time>2019-03-12T10:27:23Z</time>
      </trkpt>
      <trkpt lat="31.84110302478075" lon="-5.729176579043269">
        <ele>2118.4000000000001</ele>
        <time>2019-03-12T10:27:24Z</time>
      </trkpt>
      <trkpt lat="31.84101358987391" lon="-5.729160401970148">
        <ele>2118.8800000000001</ele>
        <time>2019-03-12T10:27:25Z</time>
      </trkpt>
      <trkpt lat="31.840926837176085" lon="-5.729170627892017">
        <ele>2118.8800000000001</ele>
        <time>2019-03-12T10:27:26Z</time>
      </trkpt>
      <trkpt lat="31.840849136933684" lon="-5.729206334799528">
        <ele>2118.8800000000001</ele>
        <time>2019-03-12T10:27:27Z</time>
      </trkpt>
      <trkpt lat="31.840782500803471" lon="-5.729259895160794">
        <ele>2118.4000000000001</ele>
        <time>2019-03-12T10:27:28Z</time>
      </trkpt>
      <trkpt lat="31.840727012604475" lon="-5.729326447471976">
        <ele>2118.4000000000001</ele>
        <time>2019-03-12T10:27:29Z</time>
      </trkpt>
      <trkpt lat="31.840681582689285" lon="-5.72940431535244">
        <ele>2118.4000000000001</ele>
        <time>2019-03-12T10:27:30Z</time>
      </trkpt>
      <trkpt lat="31.840650234371424" lon="-5.729491822421551">
        <ele>2117.9200000000001</ele>
        <time>2019-03-12T10:27:31Z</time>
      </trkpt>
      <trkpt lat="31.840632548555732" lon="-5.729584526270628">
        <ele>2117.4400000000001</ele>
        <time>2019-03-12T10:27:32Z</time>
      </trkpt>
      <trkpt lat="31.840618131682277" lon="-5.729680163785815">
        <ele>2117.4400000000001</ele>
        <time>2019-03-12T10:27:33Z</time>
      </trkpt>
      <trkpt lat="31.84050589799881" lon="-5.730145443230867">
        <ele>2116.96</ele>
        <time>2019-03-12T10:27:34Z</time>
      </trkpt>
      <trkpt lat="31.840453343465924" lon="-5.730208223685622">
        <ele>2116.48</ele>
        <time>2019-03-12T10:27:35Z</time>
      </trkpt>
      <trkpt lat="31.840390479192138" lon="-5.730256671085954">
        <ele>2116.48</ele>
        <time>2019-03-12T10:27:46Z</time>
      </trkpt>
      <trkpt lat="31.840323423966765" lon="-5.730292797088623">
        <ele>2116.48</ele>
        <time>2019-03-12T10:27:47Z</time>
      </trkpt>
      <trkpt lat="31.84025133959949" lon="-5.730320541188121">
        <ele>2116.48</ele>
        <time>2019-03-12T10:27:48Z</time>
      </trkpt>
      <trkpt lat="31.840175399556756" lon="-5.73033562861383">
        <ele>2116.48</ele>
        <time>2019-03-12T10:27:49Z</time>
      </trkpt>
      <trkpt lat="31.840101638808846" lon="-5.730332778766751">
        <ele>2116.48</ele>
        <time>2019-03-12T10:27:50Z</time>
      </trkpt>
      <trkpt lat="31.840031230822206" lon="-5.730309979990125">
        <ele>2116.48</ele>
        <time>2019-03-12T10:27:51Z</time>
      </trkpt>
      <trkpt lat="31.839972138404846" lon="-5.730266645550728">
        <ele>2116.48</ele>
        <time>2019-03-12T10:27:52Z</time>
      </trkpt>
      <trkpt lat="31.83992201462388" lon="-5.730208139866591">
        <ele>2116.96</ele>
        <time>2019-03-12T10:27:53Z</time>
      </trkpt>
      <trkpt lat="31.839867616072297" lon="-5.730149382725358">
        <ele>2119.8400000000001</ele>
        <time>2019-03-12T10:27:54Z</time>
      </trkpt>
      <trkpt lat="31.839806763455272" lon="-5.730095487087965">
        <ele>2120.3200000000002</ele>
        <time>2019-03-12T10:27:55Z</time>
      </trkpt>
      <trkpt lat="31.839743983000517" lon="-5.730041591450572">
        <ele>2120.8099999999999</ele>
        <time>2019-03-12T10:27:56Z</time>
      </trkpt>
      <trkpt lat="31.838888358324766" lon="-5.729390820488334">
        <ele>2120.8099999999999</ele>
        <time>2019-03-12T10:27:57Z</time>
      </trkpt>
      <trkpt lat="31.838804790750146" lon="-5.729348240420222">
        <ele>2120.8099999999999</ele>
        <time>2019-03-12T10:27:58Z</time>
      </trkpt>
      <trkpt lat="31.838717702776194" lon="-5.729317143559456">
        <ele>2121.29</ele>
        <time>2019-03-12T10:27:59Z</time>
      </trkpt>
      <trkpt lat="31.838629525154829" lon="-5.729296607896686">
        <ele>2121.29</ele>
        <time>2019-03-12T10:28:02Z</time>
      </trkpt>
      <trkpt lat="31.838541850447655" lon="-5.729289148002863">
        <ele>2120.8099999999999</ele>
        <time>2019-03-12T10:28:03Z</time>
      </trkpt>
      <trkpt lat="31.838453253731132" lon="-5.729296104982495">
        <ele>2120.8099999999999</ele>
        <time>2019-03-12T10:28:04Z</time>
      </trkpt>
      <trkpt lat="31.838361974805593" lon="-5.729317646473646">
        <ele>2120.8099999999999</ele>
        <time>2019-03-12T10:28:05Z</time>
      </trkpt>
      <trkpt lat="31.838268432766199" lon="-5.729344887658954">
        <ele>2120.3200000000002</ele>
        <time>2019-03-12T10:28:06Z</time>
      </trkpt>
      <trkpt lat="31.838179081678391" lon="-5.72937648743391">
        <ele>2120.3200000000002</ele>
        <time>2019-03-12T10:28:07Z</time>
      </trkpt>
      <trkpt lat="31.838096184656024" lon="-5.729426946491003">
        <ele>2119.8400000000001</ele>
        <time>2019-03-12T10:28:08Z</time>
      </trkpt>
      <trkpt lat="31.838016137480736" lon="-5.729499869048595">
        <ele>2119.8400000000001</ele>
        <time>2019-03-12T10:28:17Z</time>
      </trkpt>
      <trkpt lat="31.837941203266382" lon="-5.72958804666996">
        <ele>2117.9200000000001</ele>
        <time>2019-03-12T10:28:18Z</time>
      </trkpt>
      <trkpt lat="31.837871382012963" lon="-5.729686366394162">
        <ele>2117.9200000000001</ele>
        <time>2019-03-12T10:28:30Z</time>
      </trkpt>
      <trkpt lat="31.837807260453701" lon="-5.729787368327379">
        <ele>2117.9200000000001</ele>
        <time>2019-03-12T10:28:39Z</time>
      </trkpt>
      <trkpt lat="31.837664265185595" lon="-5.730075789615512">
        <ele>2117.4400000000001</ele>
        <time>2019-03-12T10:28:43Z</time>
      </trkpt>
      <trkpt lat="31.837633084505796" lon="-5.730166062712669">
        <ele>2116.96</ele>
        <time>2019-03-12T10:28:44Z</time>
      </trkpt>
      <trkpt lat="31.837606932967901" lon="-5.730263879522681">
        <ele>2116.48</ele>
        <time>2019-03-12T10:28:45Z</time>
      </trkpt>
      <trkpt lat="31.83759419247508" lon="-5.730365887284279">
        <ele>2116</ele>
        <time>2019-03-12T10:28:49Z</time>
      </trkpt>
      <trkpt lat="31.837588576599956" lon="-5.730467895045877">
        <ele>2115.04</ele>
        <time>2019-03-12T10:28:50Z</time>
      </trkpt>
      <trkpt lat="31.837592599913478" lon="-5.730573004111648">
        <ele>2115.04</ele>
        <time>2019-03-12T10:28:51Z</time>
      </trkpt>
      <trkpt lat="31.837602574378252" lon="-5.730680963024497">
        <ele>2113.1199999999999</ele>
        <time>2019-03-12T10:28:52Z</time>
      </trkpt>
      <trkpt lat="31.837816899642348" lon="-5.731726521626115">
        <ele>2109.75</ele>
        <time>2019-03-12T10:28:53Z</time>
      </trkpt>
      <trkpt lat="31.837871549651027" lon="-5.731831546872854">
        <ele>2110.23</ele>
        <time>2019-03-12T10:28:54Z</time>
      </trkpt>
      <trkpt lat="31.83859976939857" lon="-5.732974084094167">
        <ele>2110.23</ele>
        <time>2019-03-12T10:28:55Z</time>
      </trkpt>
      <trkpt lat="31.839130092412233" lon="-5.73391729965806">
        <ele>2110.23</ele>
        <time>2019-03-12T10:28:56Z</time>
      </trkpt>
      <trkpt lat="31.839229669421911" lon="-5.734379729256034">
        <ele>2110.23</ele>
        <time>2019-03-12T10:28:57Z</time>
      </trkpt>
      <trkpt lat="31.839235369116068" lon="-5.734502356499434">
        <ele>2109.75</ele>
        <time>2019-03-12T10:29:03Z</time>
      </trkpt>
      <trkpt lat="31.839230256155133" lon="-5.734629342332482">
        <ele>2109.75</ele>
        <time>2019-03-12T10:29:13Z</time>
      </trkpt>
      <trkpt lat="31.839124476537108" lon="-5.735120940953493">
        <ele>2110.23</ele>
        <time>2019-03-12T10:29:23Z</time>
      </trkpt>
      <trkpt lat="31.83907569386065" lon="-5.735226385295391">
        <ele>2109.75</ele>
        <time>2019-03-12T10:29:34Z</time>
      </trkpt>
      <trkpt lat="31.839017104357481" lon="-5.735317245125771">
        <ele>2109.27</ele>
        <time>2019-03-12T10:29:36Z</time>
      </trkpt>
      <trkpt lat="31.83895013295114" lon="-5.735392430797219">
        <ele>2109.27</ele>
        <time>2019-03-12T10:29:37Z</time>
      </trkpt>
      <trkpt lat="31.838871845975518" lon="-5.735451774671674">
        <ele>2109.27</ele>
        <time>2019-03-12T10:29:38Z</time>
      </trkpt>
      <trkpt lat="31.838782075792551" lon="-5.735500557348132">
        <ele>2109.27</ele>
        <time>2019-03-12T10:29:39Z</time>
      </trkpt>
      <trkpt lat="31.838684594258666" lon="-5.735540622845292">
        <ele>2110.23</ele>
        <time>2019-03-12T10:29:40Z</time>
      </trkpt>
      <trkpt lat="31.838581496849656" lon="-5.735571049153805">
        <ele>2110.23</ele>
        <time>2019-03-12T10:29:41Z</time>
      </trkpt>
      <trkpt lat="31.838475549593568" lon="-5.735594183206558">
        <ele>2108.79</ele>
        <time>2019-03-12T10:29:42Z</time>
      </trkpt>
      <trkpt lat="31.837949249893427" lon="-5.735723599791527">
        <ele>2107.3499999999999</ele>
        <time>2019-03-12T10:29:46Z</time>
      </trkpt>
      <trkpt lat="31.837197141721845" lon="-5.736181922256947">
        <ele>2106.8699999999999</ele>
        <time>2019-03-12T10:29:47Z</time>
      </trkpt>
      <trkpt lat="31.836650893092155" lon="-5.736752394586802">
        <ele>2106.8699999999999</ele>
        <time>2019-03-12T10:29:48Z</time>
      </trkpt>
      <trkpt lat="31.836171112954617" lon="-5.737402159720659">
        <ele>2106.8699999999999</ele>
        <time>2019-03-12T10:29:49Z</time>
      </trkpt>
      <trkpt lat="31.836055275052786" lon="-5.737490337342024">
        <ele>2106.3899999999999</ele>
        <time>2019-03-12T10:29:50Z</time>
      </trkpt>
      <trkpt lat="31.835988136008382" lon="-5.737525708973408">
        <ele>2106.3899999999999</ele>
        <time>2019-03-12T10:29:51Z</time>
      </trkpt>
      <trkpt lat="31.835920410230756" lon="-5.737556219100952">
        <ele>2106.3899999999999</ele>
        <time>2019-03-12T10:29:52Z</time>
      </trkpt>
      <trkpt lat="31.835848493501544" lon="-5.737580945715308">
        <ele>2106.3899999999999</ele>
        <time>2019-03-12T10:29:56Z</time>
      </trkpt>
      <trkpt lat="31.835773643106222" lon="-5.73759762570262">
        <ele>2106.3899999999999</ele>
        <time>2019-03-12T10:29:57Z</time>
      </trkpt>
      <trkpt lat="31.835701474919915" lon="-5.737605923786759">
        <ele>2106.3899999999999</ele>
        <time>2019-03-12T10:29:59Z</time>
      </trkpt>
      <trkpt lat="31.835629725828767" lon="-5.737608270719647">
        <ele>2105.9099999999999</ele>
        <time>2019-03-12T10:30:02Z</time>
      </trkpt>
      <trkpt lat="31.835318338125944" lon="-5.737623358145356">
        <ele>2105.9099999999999</ele>
        <time>2019-03-12T10:30:03Z</time>
      </trkpt>
      <trkpt lat="31.835236614570022" lon="-5.737641043961048">
        <ele>2105.9099999999999</ele>
        <time>2019-03-12T10:30:04Z</time>
      </trkpt>
      <trkpt lat="31.835154136642814" lon="-5.737666860222817">
        <ele>2105.4200000000001</ele>
        <time>2019-03-12T10:30:05Z</time>
      </trkpt>
      <trkpt lat="31.835073167458177" lon="-5.737705081701279">
        <ele>2105.4200000000001</ele>
        <time>2019-03-12T10:30:06Z</time>
      </trkpt>
      <trkpt lat="31.834994712844491" lon="-5.737754870206118">
        <ele>2104.46</ele>
        <time>2019-03-12T10:30:07Z</time>
      </trkpt>
      <trkpt lat="31.83492137119174" lon="-5.737807424739003">
        <ele>2104.46</ele>
        <time>2019-03-12T10:30:13Z</time>
      </trkpt>
      <trkpt lat="31.834853058680892" lon="-5.737860566005111">
        <ele>2104.46</ele>
        <time>2019-03-12T10:30:14Z</time>
      </trkpt>
      <trkpt lat="31.834590286016464" lon="-5.738101797178388">
        <ele>2103.5</ele>
        <time>2019-03-12T10:30:15Z</time>
      </trkpt>
      <trkpt lat="31.834534797817469" lon="-5.738175977021456">
        <ele>2103.02</ele>
        <time>2019-03-12T10:30:16Z</time>
      </trkpt>
      <trkpt lat="31.834445279091597" lon="-5.738330874592066">
        <ele>2102.54</ele>
        <time>2019-03-12T10:30:17Z</time>
      </trkpt>
      <trkpt lat="31.834343941882253" lon="-5.738579733297229">
        <ele>2102.54</ele>
        <time>2019-03-12T10:30:18Z</time>
      </trkpt>
      <trkpt lat="31.834333715960383" lon="-5.738666150718927">
        <ele>2102.54</ele>
        <time>2019-03-12T10:30:19Z</time>
      </trkpt>
      <trkpt lat="31.83434234932065" lon="-5.73875030502677">
        <ele>2102.54</ele>
        <time>2019-03-12T10:30:23Z</time>
      </trkpt>
      <trkpt lat="31.83436288498342" lon="-5.738834878429771">
        <ele>2102.54</ele>
        <time>2019-03-12T10:30:24Z</time>
      </trkpt>
      <trkpt lat="31.834389790892601" lon="-5.738916266709566">
        <ele>2102.0599999999999</ele>
        <time>2019-03-12T10:30:28Z</time>
      </trkpt>
      <trkpt lat="31.834421139210463" lon="-5.73899706825614">
        <ele>2102.0599999999999</ele>
        <time>2019-03-12T10:30:29Z</time>
      </trkpt>
      <trkpt lat="31.834670081734657" lon="-5.739502664655447">
        <ele>2101.5799999999999</ele>
        <time>2019-03-12T10:30:30Z</time>
      </trkpt>
      <trkpt lat="31.834732610732317" lon="-5.739573575556278">
        <ele>2101.0999999999999</ele>
        <time>2019-03-12T10:30:40Z</time>
      </trkpt>
      <trkpt lat="31.834796816110611" lon="-5.739632919430733">
        <ele>2101.0999999999999</ele>
        <time>2019-03-12T10:30:42Z</time>
      </trkpt>
      <trkpt lat="31.834857165813446" lon="-5.739679103717208">
        <ele>2101.0999999999999</ele>
        <time>2019-03-12T10:30:43Z</time>
      </trkpt>
      <trkpt lat="31.834916258230805" lon="-5.739714810624719">
        <ele>2102.0599999999999</ele>
        <time>2019-03-12T10:30:44Z</time>
      </trkpt>
      <trkpt lat="31.834975769743323" lon="-5.739742973819375">
        <ele>2102.0599999999999</ele>
        <time>2019-03-12T10:30:45Z</time>
      </trkpt>
      <trkpt lat="31.835036789998412" lon="-5.739768203347921">
        <ele>2101.5799999999999</ele>
        <time>2019-03-12T10:30:46Z</time>
      </trkpt>
      <trkpt lat="31.835309537127614" lon="-5.73986534960568">
        <ele>2101.5799999999999</ele>
        <time>2019-03-12T10:30:47Z</time>
      </trkpt>
      <trkpt lat="31.83538849465549" lon="-5.739879934117198">
        <ele>2101.0999999999999</ele>
        <time>2019-03-12T10:30:48Z</time>
      </trkpt>
      <trkpt lat="31.835677083581686" lon="-5.739927794784308">
        <ele>2099.1799999999998</ele>
        <time>2019-03-12T10:31:02Z</time>
      </trkpt>
      <trkpt lat="31.835738439112902" lon="-5.73995185084641">
        <ele>2099.1799999999998</ele>
        <time>2019-03-12T10:31:10Z</time>
      </trkpt>
      <trkpt lat="31.835799627006054" lon="-5.739987473934889">
        <ele>2099.6599999999999</ele>
        <time>2019-03-12T10:31:11Z</time>
      </trkpt>
      <trkpt lat="31.836265996098518" lon="-5.740359462797642">
        <ele>2100.1399999999999</ele>
        <time>2019-03-12T10:31:12Z</time>
      </trkpt>
      <trkpt lat="31.836369428783655" lon="-5.740453004837036">
        <ele>2100.1399999999999</ele>
        <time>2019-03-12T10:31:13Z</time>
      </trkpt>
      <trkpt lat="31.836414271965623" lon="-5.740515198558569">
        <ele>2100.6199999999999</ele>
        <time>2019-03-12T10:31:14Z</time>
      </trkpt>
      <trkpt lat="31.836454421281815" lon="-5.740581415593624">
        <ele>2100.6199999999999</ele>
        <time>2019-03-12T10:31:24Z</time>
      </trkpt>
      <trkpt lat="31.836486691609025" lon="-5.740661127492786">
        <ele>2100.6199999999999</ele>
        <time>2019-03-12T10:31:35Z</time>
      </trkpt>
      <trkpt lat="31.836513262242079" lon="-5.740746203809977">
        <ele>2103.5</ele>
        <time>2019-03-12T10:31:44Z</time>
      </trkpt>
      <trkpt lat="31.836534217000008" lon="-5.740835973992944">
        <ele>2104.46</ele>
        <time>2019-03-12T10:31:56Z</time>
      </trkpt>
      <trkpt lat="31.836550394073129" lon="-5.740928342565894">
        <ele>2104.46</ele>
        <time>2019-03-12T10:32:06Z</time>
      </trkpt>
      <trkpt lat="31.836685761809349" lon="-5.742205325514078">
        <ele>2104.46</ele>
        <time>2019-03-12T10:32:07Z</time>
      </trkpt>
      <trkpt lat="31.836635135114193" lon="-5.742837069556117">
        <ele>2104.46</ele>
        <time>2019-03-12T10:32:08Z</time>
      </trkpt>
      <trkpt lat="31.836597416549921" lon="-5.742915775626898">
        <ele>2104.46</ele>
        <time>2019-03-12T10:32:09Z</time>
      </trkpt>
      <trkpt lat="31.836549052968621" lon="-5.742992218583822">
        <ele>2103.98</ele>
        <time>2019-03-12T10:32:10Z</time>
      </trkpt>
      <trkpt lat="31.836491720750928" lon="-5.74306346476078">
        <ele>2100.1399999999999</ele>
        <time>2019-03-12T10:32:23Z</time>
      </trkpt>
      <trkpt lat="31.836431957781315" lon="-5.743130352348089">
        <ele>2099.6599999999999</ele>
        <time>2019-03-12T10:32:32Z</time>
      </trkpt>
      <trkpt lat="31.835849164053798" lon="-5.743556236848235">
        <ele>2101.0999999999999</ele>
        <time>2019-03-12T10:32:35Z</time>
      </trkpt>
      <trkpt lat="31.835150113329291" lon="-5.744075663387775">
        <ele>2100.6199999999999</ele>
        <time>2019-03-12T10:32:36Z</time>
      </trkpt>
      <trkpt lat="31.834581820294261" lon="-5.74451713822782">
        <ele>2100.6199999999999</ele>
        <time>2019-03-12T10:32:37Z</time>
      </trkpt>
      <trkpt lat="31.833892241120338" lon="-5.745344432070851">
        <ele>2100.6199999999999</ele>
        <time>2019-03-12T10:32:39Z</time>
      </trkpt>
      <trkpt lat="31.833296790719032" lon="-5.746016576886177">
        <ele>2100.1399999999999</ele>
        <time>2019-03-12T10:32:40Z</time>
      </trkpt>
      <trkpt lat="31.833252450451255" lon="-5.746103581041098">
        <ele>2100.1399999999999</ele>
        <time>2019-03-12T10:32:41Z</time>
      </trkpt>
      <trkpt lat="31.8332155700773" lon="-5.746198464185">
        <ele>2097.25</ele>
        <time>2019-03-12T10:32:42Z</time>
      </trkpt>
      <trkpt lat="31.833183970302343" lon="-5.746298292651773">
        <ele>2093.4099999999999</ele>
        <time>2019-03-12T10:32:43Z</time>
      </trkpt>
      <trkpt lat="31.833154885098338" lon="-5.746399629861116">
        <ele>2092.4499999999998</ele>
        <time>2019-03-12T10:32:44Z</time>
      </trkpt>
      <trkpt lat="31.832799324765801" lon="-5.747734447941184">
        <ele>2091.9699999999998</ele>
        <time>2019-03-12T10:32:52Z</time>
      </trkpt>
      <trkpt lat="31.832808796316385" lon="-5.748750418424606">
        <ele>2091.9699999999998</ele>
        <time>2019-03-12T10:32:53Z</time>
      </trkpt>
      <trkpt lat="31.83286621235311" lon="-5.749120814725757">
        <ele>2092.4499999999998</ele>
        <time>2019-03-12T10:32:54Z</time>
      </trkpt>
      <trkpt lat="31.832905188202858" lon="-5.749234054237604">
        <ele>2092.4499999999998</ele>
        <time>2019-03-12T10:32:55Z</time>
      </trkpt>
      <trkpt lat="31.832958748564124" lon="-5.749339498579502">
        <ele>2092.4499999999998</ele>
        <time>2019-03-12T10:32:56Z</time>
      </trkpt>
      <trkpt lat="31.833078023046255" lon="-5.749530857428908">
        <ele>2092.4499999999998</ele>
        <time>2019-03-12T10:33:08Z</time>
      </trkpt>
      <trkpt lat="31.833124710246921" lon="-5.749636134132743">
        <ele>2092.4499999999998</ele>
        <time>2019-03-12T10:33:18Z</time>
      </trkpt>
      <trkpt lat="31.833157148212194" lon="-5.74974786490202">
        <ele>2092.4499999999998</ele>
        <time>2019-03-12T10:33:33Z</time>
      </trkpt>
      <trkpt lat="31.833179192617536" lon="-5.749866049736738">
        <ele>2094.8499999999999</ele>
        <time>2019-03-12T10:33:39Z</time>
      </trkpt>
      <trkpt lat="31.833188077434897" lon="-5.749987754970789">
        <ele>2094.8499999999999</ele>
        <time>2019-03-12T10:33:51Z</time>
      </trkpt>
      <trkpt lat="31.833190424367785" lon="-5.750112812966108">
        <ele>2094.8499999999999</ele>
        <time>2019-03-12T10:33:53Z</time>
      </trkpt>
      <trkpt lat="31.833198135718703" lon="-5.751183601096273">
        <ele>2094.8499999999999</ele>
        <time>2019-03-12T10:33:54Z</time>
      </trkpt>
      <trkpt lat="31.833222946152091" lon="-5.751314610242844">
        <ele>2095.3299999999999</ele>
        <time>2019-03-12T10:33:55Z</time>
      </trkpt>
      <trkpt lat="31.833269214257598" lon="-5.751436315476894">
        <ele>2095.3299999999999</ele>
        <time>2019-03-12T10:33:56Z</time>
      </trkpt>
      <trkpt lat="31.833334341645241" lon="-5.75154896825552">
        <ele>2093.4099999999999</ele>
        <time>2019-03-12T10:33:57Z</time>
      </trkpt>
      <trkpt lat="31.833409359678626" lon="-5.751654077321291">
        <ele>2091</ele>
        <time>2019-03-12T10:33:58Z</time>
      </trkpt>
      <trkpt lat="31.83426272124052" lon="-5.752844223752618">
        <ele>2090.52</ele>
        <time>2019-03-12T10:34:09Z</time>
      </trkpt>
      <trkpt lat="31.834787260740995" lon="-5.754064796492457">
        <ele>2090.04</ele>
        <time>2019-03-12T10:34:12Z</time>
      </trkpt>
      <trkpt lat="31.835359325632453" lon="-5.756152644753456">
        <ele>2091</ele>
        <time>2019-03-12T10:34:13Z</time>
      </trkpt>
      <trkpt lat="31.835496453568339" lon="-5.756922941654921">
        <ele>2091.9699999999998</ele>
        <time>2019-03-12T10:34:14Z</time>
      </trkpt>
      <trkpt lat="31.835451861843467" lon="-5.758387763053179">
        <ele>2092.4499999999998</ele>
        <time>2019-03-12T10:34:22Z</time>
      </trkpt>
      <trkpt lat="31.835454292595387" lon="-5.758640393614769">
        <ele>2092.9299999999998</ele>
        <time>2019-03-12T10:34:28Z</time>
      </trkpt>
      <trkpt lat="31.83544079773128" lon="-5.758763775229454">
        <ele>2093.4099999999999</ele>
        <time>2019-03-12T10:34:29Z</time>
      </trkpt>
      <trkpt lat="31.835416741669178" lon="-5.75888522900641">
        <ele>2093.8899999999999</ele>
        <time>2019-03-12T10:34:30Z</time>
      </trkpt>
      <trkpt lat="31.835380950942636" lon="-5.759003665298224">
        <ele>2091</ele>
        <time>2019-03-12T10:34:31Z</time>
      </trkpt>
      <trkpt lat="31.83533183299005" lon="-5.759121514856815">
        <ele>2090.52</ele>
        <time>2019-03-12T10:34:32Z</time>
      </trkpt>
      <trkpt lat="31.835274249315262" lon="-5.759236766025424">
        <ele>2090.52</ele>
        <time>2019-03-12T10:34:33Z</time>
      </trkpt>
      <trkpt lat="31.834582155570388" lon="-5.760581390932202">
        <ele>2090.04</ele>
        <time>2019-03-12T10:34:44Z</time>
      </trkpt>
      <trkpt lat="31.834415439516306" lon="-5.760882217437029">
        <ele>2086.6799999999998</ele>
        <time>2019-03-12T10:34:55Z</time>
      </trkpt>
      <trkpt lat="31.834343271329999" lon="-5.760973747819662">
        <ele>2084.2800000000002</ele>
        <time>2019-03-12T10:35:08Z</time>
      </trkpt>
      <trkpt lat="31.834264565259218" lon="-5.76105966232717">
        <ele>2084.2800000000002</ele>
        <time>2019-03-12T10:35:10Z</time>
      </trkpt>
      <trkpt lat="31.833707084879279" lon="-5.761493928730488">
        <ele>2084.2800000000002</ele>
        <time>2019-03-12T10:35:11Z</time>
      </trkpt>
      <trkpt lat="31.833124794065952" lon="-5.761703560128808">
        <ele>2084.2800000000002</ele>
        <time>2019-03-12T10:35:12Z</time>
      </trkpt>
      <trkpt lat="31.833018846809864" lon="-5.761713534593582">
        <ele>2084.2800000000002</ele>
        <time>2019-03-12T10:35:13Z</time>
      </trkpt>
      <trkpt lat="31.832909462973475" lon="-5.761703560128808">
        <ele>2084.2800000000002</ele>
        <time>2019-03-12T10:35:14Z</time>
      </trkpt>
      <trkpt lat="31.832799492403865" lon="-5.761676821857691">
        <ele>2083.79</ele>
        <time>2019-03-12T10:35:23Z</time>
      </trkpt>
      <trkpt lat="31.832691784948111" lon="-5.761636337265372">
        <ele>2082.3499999999999</ele>
        <time>2019-03-12T10:35:24Z</time>
      </trkpt>
      <trkpt lat="31.832584077492356" lon="-5.761587722226977">
        <ele>2082.3499999999999</ele>
        <time>2019-03-12T10:35:25Z</time>
      </trkpt>
      <trkpt lat="31.831253282725811" lon="-5.761184804141522">
        <ele>2082.3499999999999</ele>
        <time>2019-03-12T10:35:26Z</time>
      </trkpt>
      <trkpt lat="31.829876638948917" lon="-5.761121101677418">
        <ele>2082.3499999999999</ele>
        <time>2019-03-12T10:35:27Z</time>
      </trkpt>
      <trkpt lat="31.828287933021784" lon="-5.761218415573239">
        <ele>2081.8699999999999</ele>
        <time>2019-03-12T10:35:28Z</time>
      </trkpt>
      <trkpt lat="31.828039661049843" lon="-5.761242723092437">
        <ele>2081.3899999999999</ele>
        <time>2019-03-12T10:35:29Z</time>
      </trkpt>
      <trkpt lat="31.827918961644173" lon="-5.761276250705123">
        <ele>2080.9099999999999</ele>
        <time>2019-03-12T10:35:30Z</time>
      </trkpt>
      <trkpt lat="31.827800860628486" lon="-5.761325368657708">
        <ele>2079.9499999999998</ele>
        <time>2019-03-12T10:35:32Z</time>
      </trkpt>
      <trkpt lat="31.827687537297606" lon="-5.761390747502446">
        <ele>2078.9899999999998</ele>
        <time>2019-03-12T10:35:33Z</time>
      </trkpt>
      <trkpt lat="31.827580081298947" lon="-5.761467441916466">
        <ele>2078.5100000000002</ele>
        <time>2019-03-12T10:35:34Z</time>
      </trkpt>
      <trkpt lat="31.826535360887647" lon="-5.762058785185218">
        <ele>2078.5100000000002</ele>
        <time>2019-03-12T10:35:35Z</time>
      </trkpt>
      <trkpt lat="31.826397813856602" lon="-5.762085942551494">
        <ele>2078.5100000000002</ele>
        <time>2019-03-12T10:35:36Z</time>
      </trkpt>
      <trkpt lat="31.826256075873971" lon="-5.76209893450141">
        <ele>2078.5100000000002</ele>
        <time>2019-03-12T10:35:37Z</time>
      </trkpt>
      <trkpt lat="31.826112661510706" lon="-5.762103712186217">
        <ele>2078.5100000000002</ele>
        <time>2019-03-12T10:35:47Z</time>
      </trkpt>
      <trkpt lat="31.825969666242599" lon="-5.762097844853997">
        <ele>2078.5100000000002</ele>
        <time>2019-03-12T10:35:56Z</time>
      </trkpt>
      <trkpt lat="31.82582750916481" lon="-5.762075129896402">
        <ele>2078.9899999999998</ele>
        <time>2019-03-12T10:36:07Z</time>
      </trkpt>
      <trkpt lat="31.825688621029258" lon="-5.762042105197907">
        <ele>2078.9899999999998</ele>
        <time>2019-03-12T10:36:19Z</time>
      </trkpt>
      <trkpt lat="31.825557444244623" lon="-5.762000950053334">
        <ele>2078.9899999999998</ele>
        <time>2019-03-12T10:36:28Z</time>
      </trkpt>
      <trkpt lat="31.825298611074686" lon="-5.761934984475374">
        <ele>2078.9899999999998</ele>
        <time>2019-03-12T10:36:31Z</time>
      </trkpt>
      <trkpt lat="31.82517078705132" lon="-5.761933727189899">
        <ele>2078.9899999999998</ele>
        <time>2019-03-12T10:36:32Z</time>
      </trkpt>
      <trkpt lat="31.825047740712762" lon="-5.761959878727794">
        <ele>2078.9899999999998</ele>
        <time>2019-03-12T10:36:33Z</time>
      </trkpt>
      <trkpt lat="31.82492989115417" lon="-5.76200463809073">
        <ele>2078.0300000000002</ele>
        <time>2019-03-12T10:36:34Z</time>
      </trkpt>
      <trkpt lat="31.82481162250042" lon="-5.762063646689057">
        <ele>2075.6199999999999</ele>
        <time>2019-03-12T10:36:35Z</time>
      </trkpt>
      <trkpt lat="31.824690503999591" lon="-5.762131456285715">
        <ele>2074.6599999999999</ele>
        <time>2019-03-12T10:36:46Z</time>
      </trkpt>
      <trkpt lat="31.823445120826364" lon="-5.762776611372829">
        <ele>2074.1799999999998</ele>
        <time>2019-03-12T10:36:50Z</time>
      </trkpt>
      <trkpt lat="31.822342146188021" lon="-5.76346124522388">
        <ele>2075.1399999999999</ele>
        <time>2019-03-12T10:36:51Z</time>
      </trkpt>
      <trkpt lat="31.820894675329328" lon="-5.764202792197466">
        <ele>2075.1399999999999</ele>
        <time>2019-03-12T10:37:01Z</time>
      </trkpt>
      <trkpt lat="31.819359613582492" lon="-5.764895305037499">
        <ele>2074.6599999999999</ele>
        <time>2019-03-12T10:37:10Z</time>
      </trkpt>
      <trkpt lat="31.818249933421612" lon="-5.765243908390403">
        <ele>2074.6599999999999</ele>
        <time>2019-03-12T10:37:17Z</time>
      </trkpt>
      <trkpt lat="31.817909628152847" lon="-5.765289757400751">
        <ele>2074.6599999999999</ele>
        <time>2019-03-12T10:37:18Z</time>
      </trkpt>
      <trkpt lat="31.817792197689414" lon="-5.765332421287894">
        <ele>2074.6599999999999</ele>
        <time>2019-03-12T10:37:19Z</time>
      </trkpt>
      <trkpt lat="31.817678287625313" lon="-5.76539620757103">
        <ele>2075.1399999999999</ele>
        <time>2019-03-12T10:37:20Z</time>
      </trkpt>
      <trkpt lat="31.81756773032248" lon="-5.76547633856535">
        <ele>2074.1799999999998</ele>
        <time>2019-03-12T10:37:21Z</time>
      </trkpt>
      <trkpt lat="31.817459352314472" lon="-5.765565186738968">
        <ele>2074.1799999999998</ele>
        <time>2019-03-12T10:37:22Z</time>
      </trkpt>
      <trkpt lat="31.816291585564613" lon="-5.76640379615128">
        <ele>2070.8200000000002</ele>
        <time>2019-03-12T10:37:23Z</time>
      </trkpt>
      <trkpt lat="31.815952872857451" lon="-5.766692385077477">
        <ele>2069.3800000000001</ele>
        <time>2019-03-12T10:37:24Z</time>
      </trkpt>
      <trkpt lat="31.815869808197021" lon="-5.766786430031061">
        <ele>2068.8899999999999</ele>
        <time>2019-03-12T10:37:25Z</time>
      </trkpt>
      <trkpt lat="31.814978392794728" lon="-5.767678013071418">
        <ele>2068.8899999999999</ele>
        <time>2019-03-12T10:37:26Z</time>
      </trkpt>
      <trkpt lat="31.814120337367058" lon="-5.76866271905601">
        <ele>2068.4099999999999</ele>
        <time>2019-03-12T10:37:27Z</time>
      </trkpt>
      <trkpt lat="31.813756478950381" lon="-5.769382556900382">
        <ele>2068.4099999999999</ele>
        <time>2019-03-12T10:37:28Z</time>
      </trkpt>
      <trkpt lat="31.813727142289281" lon="-5.769480792805553">
        <ele>2067.9299999999998</ele>
        <time>2019-03-12T10:37:36Z</time>
      </trkpt>
      <trkpt lat="31.813713228330016" lon="-5.769587410613895">
        <ele>2067.9299999999998</ele>
        <time>2019-03-12T10:37:38Z</time>
      </trkpt>
      <trkpt lat="31.813715575262904" lon="-5.769700733944774">
        <ele>2067.9299999999998</ele>
        <time>2019-03-12T10:37:39Z</time>
      </trkpt>
      <trkpt lat="31.813728902488947" lon="-5.769820595160127">
        <ele>2067.9299999999998</ele>
        <time>2019-03-12T10:37:40Z</time>
      </trkpt>
      <trkpt lat="31.813751701265574" lon="-5.769944060593844">
        <ele>2067.9299999999998</ele>
        <time>2019-03-12T10:37:41Z</time>
      </trkpt>
      <trkpt lat="31.81377936154604" lon="-5.770062077790499">
        <ele>2067.9299999999998</ele>
        <time>2019-03-12T10:37:42Z</time>
      </trkpt>
      <trkpt lat="31.813813894987106" lon="-5.770167019218206">
        <ele>2067.4499999999998</ele>
        <time>2019-03-12T10:37:53Z</time>
      </trkpt>
      <trkpt lat="31.813863599672914" lon="-5.770256537944078">
        <ele>2066.9699999999998</ele>
        <time>2019-03-12T10:38:01Z</time>
      </trkpt>
      <trkpt lat="31.81392889469862" lon="-5.770328789949417">
        <ele>2066.0100000000002</ele>
        <time>2019-03-12T10:38:02Z</time>
      </trkpt>
      <trkpt lat="31.814002403989434" lon="-5.770387966185808">
        <ele>2066.0100000000002</ele>
        <time>2019-03-12T10:38:03Z</time>
      </trkpt>
      <trkpt lat="31.814071806147695" lon="-5.770438760519028">
        <ele>2066.0100000000002</ele>
        <time>2019-03-12T10:38:04Z</time>
      </trkpt>
      <trkpt lat="31.814378667622805" lon="-5.770736569538713">
        <ele>2065.5300000000002</ele>
        <time>2019-03-12T10:38:05Z</time>
      </trkpt>
      <trkpt lat="31.814468186348677" lon="-5.770816532894969">
        <ele>2065.5300000000002</ele>
        <time>2019-03-12T10:38:06Z</time>
      </trkpt>
      <trkpt lat="31.814523674547672" lon="-5.770854083821178">
        <ele>2066.0100000000002</ele>
        <time>2019-03-12T10:38:07Z</time>
      </trkpt>
      <trkpt lat="31.814582850784063" lon="-5.770893730223179">
        <ele>2068.4099999999999</ele>
        <time>2019-03-12T10:38:08Z</time>
      </trkpt>
      <trkpt lat="31.814643871039152" lon="-5.770941004157066">
        <ele>2070.8200000000002</ele>
        <time>2019-03-12T10:38:09Z</time>
      </trkpt>
      <trkpt lat="31.814707824960351" lon="-5.770994815975428">
        <ele>2070.8200000000002</ele>
        <time>2019-03-12T10:38:19Z</time>
      </trkpt>
      <trkpt lat="31.815424645319581" lon="-5.771896038204432">
        <ele>2071.3000000000002</ele>
        <time>2019-03-12T10:38:32Z</time>
      </trkpt>
      <trkpt lat="31.815757993608713" lon="-5.772642614319921">
        <ele>2071.3000000000002</ele>
        <time>2019-03-12T10:38:37Z</time>
      </trkpt>
      <trkpt lat="31.815770231187344" lon="-5.772728696465492">
        <ele>2071.3000000000002</ele>
        <time>2019-03-12T10:38:38Z</time>
      </trkpt>
      <trkpt lat="31.815766710788012" lon="-5.772812850773335">
        <ele>2070.8200000000002</ele>
        <time>2019-03-12T10:38:39Z</time>
      </trkpt>
      <trkpt lat="31.81573879905045" lon="-5.772888623178005">
        <ele>2070.8200000000002</ele>
        <time>2019-03-12T10:38:40Z</time>
      </trkpt>
      <trkpt lat="31.815686076879501" lon="-5.77294603921473">
        <ele>2070.8200000000002</ele>
        <time>2019-03-12T10:38:41Z</time>
      </trkpt>
      <trkpt lat="31.815617009997368" lon="-5.772983003407717">
        <ele>2071.3000000000002</ele>
        <time>2019-03-12T10:38:42Z</time>
      </trkpt>
      <trkpt lat="31.815538052469492" lon="-5.773004293441773">
        <ele>2072.7399999999998</ele>
        <time>2019-03-12T10:38:43Z</time>
      </trkpt>
      <trkpt lat="31.815454149618745" lon="-5.773013764992356">
        <ele>2073.2199999999998</ele>
        <time>2019-03-12T10:38:44Z</time>
      </trkpt>
      <trkpt lat="31.815363708883524" lon="-5.773014770820737">
        <ele>2072.7399999999998</ele>
        <time>2019-03-12T10:38:45Z</time>
      </trkpt>
      <trkpt lat="31.814384451135993" lon="-5.773043185472488">
        <ele>2072.2600000000002</ele>
        <time>2019-03-12T10:38:46Z</time>
      </trkpt>
      <trkpt lat="31.813213247805834" lon="-5.773424142971635">
        <ele>2071.7800000000002</ele>
        <time>2019-03-12T10:38:47Z</time>
      </trkpt>
      <trkpt lat="31.812773030251265" lon="-5.773606030270457">
        <ele>2071.3000000000002</ele>
        <time>2019-03-12T10:38:48Z</time>
      </trkpt>
      <trkpt lat="31.812704047188163" lon="-5.773666463792324">
        <ele>2070.3400000000001</ele>
        <time>2019-03-12T10:38:54Z</time>
      </trkpt>
      <trkpt lat="31.81264772079885" lon="-5.773742906749249">
        <ele>2069.8600000000001</ele>
        <time>2019-03-12T10:38:55Z</time>
      </trkpt>
      <trkpt lat="31.812602961435914" lon="-5.773835191503167">
        <ele>2069.8600000000001</ele>
        <time>2019-03-12T10:38:56Z</time>
      </trkpt>
      <trkpt lat="31.812569350004196" lon="-5.773940216749907">
        <ele>2069.8600000000001</ele>
        <time>2019-03-12T10:38:57Z</time>
      </trkpt>
      <trkpt lat="31.812530206516385" lon="-5.774036105722189">
        <ele>2069.3800000000001</ele>
        <time>2019-03-12T10:38:58Z</time>
      </trkpt>
      <trkpt lat="31.812470862641931" lon="-5.774103244766593">
        <ele>2069.3800000000001</ele>
        <time>2019-03-12T10:38:59Z</time>
      </trkpt>
      <trkpt lat="31.812391150742769" lon="-5.77413534745574">
        <ele>2068.8899999999999</ele>
        <time>2019-03-12T10:39:00Z</time>
      </trkpt>
      <trkpt lat="31.812300961464643" lon="-5.774139454588294">
        <ele>2068.4099999999999</ele>
        <time>2019-03-12T10:39:01Z</time>
      </trkpt>
      <trkpt lat="31.812204653397202" lon="-5.774140125140548">
        <ele>2066.9699999999998</ele>
        <time>2019-03-12T10:39:02Z</time>
      </trkpt>
      <trkpt lat="31.812098957598209" lon="-5.774152697995305">
        <ele>2067.4499999999998</ele>
        <time>2019-03-12T10:39:03Z</time>
      </trkpt>
      <trkpt lat="31.811990160495043" lon="-5.774174993857741">
        <ele>2067.9299999999998</ele>
        <time>2019-03-12T10:39:04Z</time>
      </trkpt>
      <trkpt lat="31.811380460858345" lon="-5.7743273768574">
        <ele>2068.4099999999999</ele>
        <time>2019-03-12T10:39:05Z</time>
      </trkpt>
      <trkpt lat="31.811287170276046" lon="-5.774324359372258">
        <ele>2068.4099999999999</ele>
        <time>2019-03-12T10:39:06Z</time>
      </trkpt>
      <trkpt lat="31.81119647808373" lon="-5.774296447634697">
        <ele>2068.8899999999999</ele>
        <time>2019-03-12T10:39:07Z</time>
      </trkpt>
      <trkpt lat="31.811112994328141" lon="-5.774246323853731">
        <ele>2068.8899999999999</ele>
        <time>2019-03-12T10:39:08Z</time>
      </trkpt>
      <trkpt lat="31.811032528057694" lon="-5.774187734350562">
        <ele>2068.8899999999999</ele>
        <time>2019-03-12T10:39:09Z</time>
      </trkpt>
      <trkpt lat="31.810945188626647" lon="-5.774132078513503">
        <ele>2069.3800000000001</ele>
        <time>2019-03-12T10:39:10Z</time>
      </trkpt>
      <trkpt lat="31.81085005402565" lon="-5.77408698387444">
        <ele>2069.8600000000001</ele>
        <time>2019-03-12T10:39:11Z</time>
      </trkpt>
      <trkpt lat="31.810746202245355" lon="-5.774053623899818">
        <ele>2070.3400000000001</ele>
        <time>2019-03-12T10:39:12Z</time>
      </trkpt>
      <trkpt lat="31.810635309666395" lon="-5.774036860093474">
        <ele>2070.8200000000002</ele>
        <time>2019-03-12T10:39:13Z</time>
      </trkpt>
      <trkpt lat="31.810521986335516" lon="-5.774032501503825">
        <ele>2071.7800000000002</ele>
        <time>2019-03-12T10:39:14Z</time>
      </trkpt>
      <trkpt lat="31.810410087928176" lon="-5.774033674970269">
        <ele>2072.2600000000002</ele>
        <time>2019-03-12T10:39:15Z</time>
      </trkpt>
      <trkpt lat="31.810302631929517" lon="-5.774027723819017">
        <ele>2073.2199999999998</ele>
        <time>2019-03-12T10:39:16Z</time>
      </trkpt>
      <trkpt lat="31.810197606682777" lon="-5.774009870365262">
        <ele>2073.6999999999998</ele>
        <time>2019-03-12T10:39:20Z</time>
      </trkpt>
      <trkpt lat="31.810097275301814" lon="-5.773982293903828">
        <ele>2073.6999999999998</ele>
        <time>2019-03-12T10:39:21Z</time>
      </trkpt>
      <trkpt lat="31.81000180542469" lon="-5.77394817955792">
        <ele>2073.6999999999998</ele>
        <time>2019-03-12T10:39:22Z</time>
      </trkpt>
      <trkpt lat="31.809913460165262" lon="-5.77390031889081">
        <ele>2073.6999999999998</ele>
        <time>2019-03-12T10:39:23Z</time>
      </trkpt>
      <trkpt lat="31.809827880933881" lon="-5.773846926167607">
        <ele>2073.2199999999998</ele>
        <time>2019-03-12T10:39:24Z</time>
      </trkpt>
      <trkpt lat="31.809742385521531" lon="-5.773789677768946">
        <ele>2073.2199999999998</ele>
        <time>2019-03-12T10:39:25Z</time>
      </trkpt>
      <trkpt lat="31.80965144187212" lon="-5.773742906749249">
        <ele>2073.2199999999998</ele>
        <time>2019-03-12T10:39:26Z</time>
      </trkpt>
      <trkpt lat="31.809550272300839" lon="-5.773712228983641">
        <ele>2072.7399999999998</ele>
        <time>2019-03-12T10:39:27Z</time>
      </trkpt>
      <trkpt lat="31.809439547359943" lon="-5.77369605191052">
        <ele>2071.3000000000002</ele>
        <time>2019-03-12T10:39:28Z</time>
      </trkpt>
      <trkpt lat="31.809323206543922" lon="-5.773690100759268">
        <ele>2070.3400000000001</ele>
        <time>2019-03-12T10:39:29Z</time>
      </trkpt>
      <trkpt lat="31.809202004224062" lon="-5.773688424378634">
        <ele>2069.3800000000001</ele>
        <time>2019-03-12T10:39:30Z</time>
      </trkpt>
      <trkpt lat="31.80871325545013" lon="-5.773717761039734">
        <ele>2068.4099999999999</ele>
        <time>2019-03-12T10:39:31Z</time>
      </trkpt>
      <trkpt lat="31.808612337335944" lon="-5.773750701919198">
        <ele>2067.4499999999998</ele>
        <time>2019-03-12T10:39:36Z</time>
      </trkpt>
      <trkpt lat="31.808526506647468" lon="-5.773807195946574">
        <ele>2066.4899999999998</ele>
        <time>2019-03-12T10:39:37Z</time>
      </trkpt>
      <trkpt lat="31.808447130024433" lon="-5.77387978322804">
        <ele>2065.0500000000002</ele>
        <time>2019-03-12T10:39:47Z</time>
      </trkpt>
      <trkpt lat="31.808375213295221" lon="-5.773974331095815">
        <ele>2063.6100000000001</ele>
        <time>2019-03-12T10:39:48Z</time>
      </trkpt>
      <trkpt lat="31.808309582993388" lon="-5.77408891171217">
        <ele>2062.1700000000001</ele>
        <time>2019-03-12T10:39:49Z</time>
      </trkpt>
      <trkpt lat="31.808245042338967" lon="-5.774216149002314">
        <ele>2060.7199999999998</ele>
        <time>2019-03-12T10:39:54Z</time>
      </trkpt>
      <trkpt lat="31.808169353753328" lon="-5.774339279159904">
        <ele>2060.2399999999998</ele>
        <time>2019-03-12T10:39:55Z</time>
      </trkpt>
      <trkpt lat="31.808077907189727" lon="-5.774445980787277">
        <ele>2059.7600000000002</ele>
        <time>2019-03-12T10:39:56Z</time>
      </trkpt>
      <trkpt lat="31.807972965762019" lon="-5.774532901123166">
        <ele>2058.3200000000002</ele>
        <time>2019-03-12T10:39:57Z</time>
      </trkpt>
      <trkpt lat="31.807863665744662" lon="-5.774605739861727">
        <ele>2058.3200000000002</ele>
        <time>2019-03-12T10:39:58Z</time>
      </trkpt>
      <trkpt lat="31.807760149240494" lon="-5.774674220010638">
        <ele>2059.7600000000002</ele>
        <time>2019-03-12T10:39:59Z</time>
      </trkpt>
      <trkpt lat="31.807304425165057" lon="-5.775034390389919">
        <ele>2059.7600000000002</ele>
        <time>2019-03-12T10:40:00Z</time>
      </trkpt>
      <trkpt lat="31.807197891175747" lon="-5.775098679587245">
        <ele>2059.7600000000002</ele>
        <time>2019-03-12T10:40:02Z</time>
      </trkpt>
      <trkpt lat="31.806127605959773" lon="-5.775905940681696">
        <ele>2059.7600000000002</ele>
        <time>2019-03-12T10:40:03Z</time>
      </trkpt>
      <trkpt lat="31.806021658703685" lon="-5.775992944836617">
        <ele>2059.2800000000002</ele>
        <time>2019-03-12T10:40:04Z</time>
      </trkpt>
      <trkpt lat="31.805910849943757" lon="-5.776061760261655">
        <ele>2058.8000000000002</ele>
        <time>2019-03-12T10:40:05Z</time>
      </trkpt>
      <trkpt lat="31.805351190268993" lon="-5.776303913444281">
        <ele>2058.3200000000002</ele>
        <time>2019-03-12T10:40:06Z</time>
      </trkpt>
      <trkpt lat="31.805245243012905" lon="-5.776322269812226">
        <ele>2058.3200000000002</ele>
        <time>2019-03-12T10:40:07Z</time>
      </trkpt>
      <trkpt lat="31.805135272443295" lon="-5.776327382773161">
        <ele>2057.8400000000001</ele>
        <time>2019-03-12T10:40:08Z</time>
      </trkpt>
      <trkpt lat="31.805022954940796" lon="-5.776323610916734">
        <ele>2057.8400000000001</ele>
        <time>2019-03-12T10:40:09Z</time>
      </trkpt>
      <trkpt lat="31.804911056533456" lon="-5.776311121881008">
        <ele>2057.3600000000001</ele>
        <time>2019-03-12T10:40:10Z</time>
      </trkpt>
      <trkpt lat="31.804797733202577" lon="-5.776290586218238">
        <ele>2057.3600000000001</ele>
        <time>2019-03-12T10:40:11Z</time>
      </trkpt>
      <trkpt lat="31.804682146757841" lon="-5.776264183223248">
        <ele>2057.3600000000001</ele>
        <time>2019-03-12T10:40:15Z</time>
      </trkpt>
      <trkpt lat="31.804449465125799" lon="-5.776228476315737">
        <ele>2057.3600000000001</ele>
        <time>2019-03-12T10:40:16Z</time>
      </trkpt>
      <trkpt lat="31.804332956671715" lon="-5.776231829077005">
        <ele>2056.8800000000001</ele>
        <time>2019-03-12T10:40:17Z</time>
      </trkpt>
      <trkpt lat="31.804219800978899" lon="-5.776256136596203">
        <ele>2056.8800000000001</ele>
        <time>2019-03-12T10:40:18Z</time>
      </trkpt>
      <trkpt lat="31.804113686084747" lon="-5.776300560683012">
        <ele>2056.4000000000001</ele>
        <time>2019-03-12T10:40:19Z</time>
      </trkpt>
      <trkpt lat="31.804016036912799" lon="-5.776358144357801">
        <ele>2056.4000000000001</ele>
        <time>2019-03-12T10:40:20Z</time>
      </trkpt>
      <trkpt lat="31.803928529843688" lon="-5.776429558172822">
        <ele>2056.4000000000001</ele>
        <time>2019-03-12T10:40:21Z</time>
      </trkpt>
      <trkpt lat="31.803858373314142" lon="-5.776526788249612">
        <ele>2056.4000000000001</ele>
        <time>2019-03-12T10:40:22Z</time>
      </trkpt>
      <trkpt lat="31.803802885115147" lon="-5.776642374694347">
        <ele>2056.8800000000001</ele>
        <time>2019-03-12T10:40:23Z</time>
      </trkpt>
      <trkpt lat="31.803755108267069" lon="-5.776771623641253">
        <ele>2056.8800000000001</ele>
        <time>2019-03-12T10:40:24Z</time>
      </trkpt>
      <trkpt lat="31.803710851818323" lon="-5.776907913386822">
        <ele>2056.8800000000001</ele>
        <time>2019-03-12T10:40:27Z</time>
      </trkpt>
      <trkpt lat="31.803556038066745" lon="-5.777427339926362">
        <ele>2056.8800000000001</ele>
        <time>2019-03-12T10:40:28Z</time>
      </trkpt>
      <trkpt lat="31.803499544039369" lon="-5.777534628286958">
        <ele>2056.8800000000001</ele>
        <time>2019-03-12T10:40:29Z</time>
      </trkpt>
      <trkpt lat="31.803429806604981" lon="-5.777634875848889">
        <ele>2056.4000000000001</ele>
        <time>2019-03-12T10:40:30Z</time>
      </trkpt>
      <trkpt lat="31.803347412496805" lon="-5.777721628546715">
        <ele>2056.4000000000001</ele>
        <time>2019-03-12T10:40:31Z</time>
      </trkpt>
      <trkpt lat="31.803252445533872" lon="-5.7777966465801">
        <ele>2056.8800000000001</ele>
        <time>2019-03-12T10:40:32Z</time>
      </trkpt>
      <trkpt lat="31.803150018677115" lon="-5.777862695977092">
        <ele>2056.8800000000001</ele>
        <time>2019-03-12T10:40:33Z</time>
      </trkpt>
      <trkpt lat="31.803042311221361" lon="-5.777920950204134">
        <ele>2056.4000000000001</ele>
        <time>2019-03-12T10:40:43Z</time>
      </trkpt>
      <trkpt lat="31.802930748090148" lon="-5.777967469766736">
        <ele>2055.9200000000001</ele>
        <time>2019-03-12T10:40:54Z</time>
      </trkpt>
      <trkpt lat="31.802812814712524" lon="-5.778002589941025">
        <ele>2055.9200000000001</ele>
        <time>2019-03-12T10:40:56Z</time>
      </trkpt>
      <trkpt lat="31.802692366763949" lon="-5.778027148917317">
        <ele>2055.4400000000001</ele>
        <time>2019-03-12T10:40:57Z</time>
      </trkpt>
      <trkpt lat="31.802353234961629" lon="-5.778090180829167">
        <ele>2055.4400000000001</ele>
        <time>2019-03-12T10:40:58Z</time>
      </trkpt>
      <trkpt lat="31.802251813933253" lon="-5.778088252991438">
        <ele>2055.4400000000001</ele>
        <time>2019-03-12T10:40:59Z</time>
      </trkpt>
      <trkpt lat="31.802147543057799" lon="-5.778068471699953">
        <ele>2055.4400000000001</ele>
        <time>2019-03-12T10:41:00Z</time>
      </trkpt>
      <trkpt lat="31.802038662135601" lon="-5.778032345697284">
        <ele>2055.4400000000001</ele>
        <time>2019-03-12T10:41:01Z</time>
      </trkpt>
      <trkpt lat="31.801930284127593" lon="-5.777981802821159">
        <ele>2058.8000000000002</ele>
        <time>2019-03-12T10:41:02Z</time>
      </trkpt>
      <trkpt lat="31.801822744309902" lon="-5.777912652119994">
        <ele>2059.2800000000002</ele>
        <time>2019-03-12T10:41:03Z</time>
      </trkpt>
      <trkpt lat="31.801713109016418" lon="-5.77783428132534">
        <ele>2058.8000000000002</ele>
        <time>2019-03-12T10:41:04Z</time>
      </trkpt>
      <trkpt lat="31.800709962844849" lon="-5.776855610311031">
        <ele>2058.8000000000002</ele>
        <time>2019-03-12T10:41:05Z</time>
      </trkpt>
      <trkpt lat="31.79991745389998" lon="-5.775671666488051">
        <ele>2058.8000000000002</ele>
        <time>2019-03-12T10:41:06Z</time>
      </trkpt>
      <trkpt lat="31.799790048971772" lon="-5.775497322902083">
        <ele>2058.3200000000002</ele>
        <time>2019-03-12T10:41:07Z</time>
      </trkpt>
      <trkpt lat="31.799712684005499" lon="-5.775415850803256">
        <ele>2058.3200000000002</ele>
        <time>2019-03-12T10:41:08Z</time>
      </trkpt>
      <trkpt lat="31.799630122259259" lon="-5.775345023721457">
        <ele>2058.3200000000002</ele>
        <time>2019-03-12T10:41:09Z</time>
      </trkpt>
      <trkpt lat="31.799546051770449" lon="-5.77527285553515">
        <ele>2058.3200000000002</ele>
        <time>2019-03-12T10:41:10Z</time>
      </trkpt>
      <trkpt lat="31.799468016251922" lon="-5.775193981826305">
        <ele>2058.3200000000002</ele>
        <time>2019-03-12T10:41:11Z</time>
      </trkpt>
      <trkpt lat="31.799397272989154" lon="-5.775110833346844">
        <ele>2057.8400000000001</ele>
        <time>2019-03-12T10:41:12Z</time>
      </trkpt>
      <trkpt lat="31.799331558868289" lon="-5.775031289085746">
        <ele>2057.8400000000001</ele>
        <time>2019-03-12T10:41:13Z</time>
      </trkpt>
      <trkpt lat="31.799261905252934" lon="-5.77496599406004">
        <ele>2057.8400000000001</ele>
        <time>2019-03-12T10:41:14Z</time>
      </trkpt>
      <trkpt lat="31.799185378476977" lon="-5.774911930784583">
        <ele>2057.8400000000001</ele>
        <time>2019-03-12T10:41:16Z</time>
      </trkpt>
      <trkpt lat="31.799099715426564" lon="-5.774867506697774">
        <ele>2057.8400000000001</ele>
        <time>2019-03-12T10:41:17Z</time>
      </trkpt>
      <trkpt lat="31.799009526148438" lon="-5.774831715971232">
        <ele>2057.8400000000001</ele>
        <time>2019-03-12T10:41:18Z</time>
      </trkpt>
      <trkpt lat="31.798913972452283" lon="-5.774804055690765">
        <ele>2057.8400000000001</ele>
        <time>2019-03-12T10:41:19Z</time>
      </trkpt>
      <trkpt lat="31.798816993832588" lon="-5.774788465350866">
        <ele>2057.8400000000001</ele>
        <time>2019-03-12T10:41:20Z</time>
      </trkpt>
      <trkpt lat="31.79872278124094" lon="-5.77479257248342">
        <ele>2057.3600000000001</ele>
        <time>2019-03-12T10:41:21Z</time>
      </trkpt>
      <trkpt lat="31.798634855076671" lon="-5.774809503927827">
        <ele>2057.3600000000001</ele>
        <time>2019-03-12T10:41:22Z</time>
      </trkpt>
      <trkpt lat="31.79855422116816" lon="-5.774845462292433">
        <ele>2057.3600000000001</ele>
        <time>2019-03-12T10:41:23Z</time>
      </trkpt>
      <trkpt lat="31.79847945459187" lon="-5.774899944663048">
        <ele>2056.4000000000001</ele>
        <time>2019-03-12T10:41:24Z</time>
      </trkpt>
      <trkpt lat="31.798409298062325" lon="-5.774963898584247">
        <ele>2055.9200000000001</ele>
        <time>2019-03-12T10:41:25Z</time>
      </trkpt>
      <trkpt lat="31.798344505950809" lon="-5.77503053471446">
        <ele>2055.4400000000001</ele>
        <time>2019-03-12T10:41:26Z</time>
      </trkpt>
      <trkpt lat="31.798220286145806" lon="-5.775171769782901">
        <ele>2055.4400000000001</ele>
        <time>2019-03-12T10:41:27Z</time>
      </trkpt>
      <trkpt lat="31.798174269497395" lon="-5.775257432833314">
        <ele>2054.96</ele>
        <time>2019-03-12T10:41:28Z</time>
      </trkpt>
      <trkpt lat="31.798137975856662" lon="-5.775349549949169">
        <ele>2054.96</ele>
        <time>2019-03-12T10:41:30Z</time>
      </trkpt>
      <trkpt lat="31.798109728842974" lon="-5.775446612387896">
        <ele>2054.4699999999998</ele>
        <time>2019-03-12T10:41:31Z</time>
      </trkpt>
      <trkpt lat="31.798088438808918" lon="-5.775546859949827">
        <ele>2054.4699999999998</ele>
        <time>2019-03-12T10:41:33Z</time>
      </trkpt>
      <trkpt lat="31.798077207058668" lon="-5.775647107511759">
        <ele>2053.9899999999998</ele>
        <time>2019-03-12T10:41:34Z</time>
      </trkpt>
      <trkpt lat="31.798076536506414" lon="-5.775750121101737">
        <ele>2053.9899999999998</ele>
        <time>2019-03-12T10:41:35Z</time>
      </trkpt>
      <trkpt lat="31.798085756599903" lon="-5.775854643434286">
        <ele>2053.5100000000002</ele>
        <time>2019-03-12T10:41:36Z</time>
      </trkpt>
      <trkpt lat="31.798095898702741" lon="-5.775963021442294">
        <ele>2053.0300000000002</ele>
        <time>2019-03-12T10:41:37Z</time>
      </trkpt>
      <trkpt lat="31.798098580911756" lon="-5.776075841858983">
        <ele>2052.5500000000002</ele>
        <time>2019-03-12T10:41:38Z</time>
      </trkpt>
      <trkpt lat="31.798091037198901" lon="-5.776190422475338">
        <ele>2051.5900000000001</ele>
        <time>2019-03-12T10:41:39Z</time>
      </trkpt>
      <trkpt lat="31.798070250079036" lon="-5.776305673643947">
        <ele>2051.5900000000001</ele>
        <time>2019-03-12T10:41:49Z</time>
      </trkpt>
      <trkpt lat="31.798041248694062" lon="-5.776422014459968">
        <ele>2050.6300000000001</ele>
        <time>2019-03-12T10:41:51Z</time>
      </trkpt>
      <trkpt lat="31.79799766279757" lon="-5.776661820709705">
        <ele>2050.1500000000001</ele>
        <time>2019-03-12T10:41:52Z</time>
      </trkpt>
      <trkpt lat="31.797988694161177" lon="-5.776788806542754">
        <ele>2050.1500000000001</ele>
        <time>2019-03-12T10:41:53Z</time>
      </trkpt>
      <trkpt lat="31.797972014173865" lon="-5.777044286951423">
        <ele>2050.1500000000001</ele>
        <time>2019-03-12T10:42:02Z</time>
      </trkpt>
      <trkpt lat="31.797944186255336" lon="-5.77716926112771">
        <ele>2049.6700000000001</ele>
        <time>2019-03-12T10:42:08Z</time>
      </trkpt>
      <trkpt lat="31.797896660864353" lon="-5.777281997725368">
        <ele>2049.1900000000001</ele>
        <time>2019-03-12T10:42:09Z</time>
      </trkpt>
      <trkpt lat="31.797835808247328" lon="-5.777372857555747">
        <ele>2048.71</ele>
        <time>2019-03-12T10:42:10Z</time>
      </trkpt>
      <trkpt lat="31.797769088298082" lon="-5.777437314391136">
        <ele>2046.78</ele>
        <time>2019-03-12T10:42:11Z</time>
      </trkpt>
      <trkpt lat="31.797698764130473" lon="-5.777485342696309">
        <ele>2047.26</ele>
        <time>2019-03-12T10:42:12Z</time>
      </trkpt>
      <trkpt lat="31.797626093029976" lon="-5.777527587488294">
        <ele>2047.26</ele>
        <time>2019-03-12T10:42:14Z</time>
      </trkpt>
      <trkpt lat="31.79675554856658" lon="-5.77796227298677">
        <ele>2047.75</ele>
        <time>2019-03-12T10:42:15Z</time>
      </trkpt>
      <trkpt lat="31.796536194160581" lon="-5.778015581890941">
        <ele>2049.1900000000001</ele>
        <time>2019-03-12T10:42:21Z</time>
      </trkpt>
      <trkpt lat="31.796424295753241" lon="-5.778004936873913">
        <ele>2049.1900000000001</ele>
        <time>2019-03-12T10:42:22Z</time>
      </trkpt>
      <trkpt lat="31.796313235536218" lon="-5.777966715395451">
        <ele>2048.71</ele>
        <time>2019-03-12T10:42:23Z</time>
      </trkpt>
      <trkpt lat="31.795360716059804" lon="-5.777357267215848">
        <ele>2048.71</ele>
        <time>2019-03-12T10:42:24Z</time>
      </trkpt>
      <trkpt lat="31.794815808534622" lon="-5.77689366415143">
        <ele>2048.71</ele>
        <time>2019-03-12T10:42:25Z</time>
      </trkpt>
      <trkpt lat="31.794717321172357" lon="-5.776845971122384">
        <ele>2048.71</ele>
        <time>2019-03-12T10:42:26Z</time>
      </trkpt>
      <trkpt lat="31.794607937335968" lon="-5.776817137375474">
        <ele>2048.23</ele>
        <time>2019-03-12T10:42:27Z</time>
      </trkpt>
      <trkpt lat="31.794490590691566" lon="-5.776801966130734">
        <ele>2048.23</ele>
        <time>2019-03-12T10:42:28Z</time>
      </trkpt>
      <trkpt lat="31.794366957619786" lon="-5.776788974180818">
        <ele>2049.6700000000001</ele>
        <time>2019-03-12T10:42:29Z</time>
      </trkpt>
      <trkpt lat="31.794109884649515" lon="-5.776732815429568">
        <ele>2049.6700000000001</ele>
        <time>2019-03-12T10:42:30Z</time>
      </trkpt>
      <trkpt lat="31.793981390073895" lon="-5.776686295866966">
        <ele>2050.1500000000001</ele>
        <time>2019-03-12T10:42:31Z</time>
      </trkpt>
      <trkpt lat="31.793153928592801" lon="-5.776521591469646">
        <ele>2050.1500000000001</ele>
        <time>2019-03-12T10:42:32Z</time>
      </trkpt>
      <trkpt lat="31.793020656332374" lon="-5.77653986401856">
        <ele>2050.1500000000001</ele>
        <time>2019-03-12T10:42:33Z</time>
      </trkpt>
      <trkpt lat="31.792897107079625" lon="-5.776568111032248">
        <ele>2050.1500000000001</ele>
        <time>2019-03-12T10:42:35Z</time>
      </trkpt>
      <trkpt lat="31.792783448472619" lon="-5.776604656130076">
        <ele>2049.6700000000001</ele>
        <time>2019-03-12T10:42:36Z</time>
      </trkpt>
      <trkpt lat="31.792677668854594" lon="-5.77664933167398">
        <ele>2049.6700000000001</ele>
        <time>2019-03-12T10:42:37Z</time>
      </trkpt>
      <trkpt lat="31.792583120986819" lon="-5.776704233139753">
        <ele>2049.1900000000001</ele>
        <time>2019-03-12T10:42:38Z</time>
      </trkpt>
      <trkpt lat="31.792499385774136" lon="-5.776768270879984">
        <ele>2049.1900000000001</ele>
        <time>2019-03-12T10:42:39Z</time>
      </trkpt>
      <trkpt lat="31.79242922924459" lon="-5.776838511228561">
        <ele>2049.1900000000001</ele>
        <time>2019-03-12T10:42:40Z</time>
      </trkpt>
      <trkpt lat="31.792374914512038" lon="-5.776904476806521">
        <ele>2049.1900000000001</ele>
        <time>2019-03-12T10:42:41Z</time>
      </trkpt>
      <trkpt lat="31.7923285625875" lon="-5.776970107108355">
        <ele>2049.1900000000001</ele>
        <time>2019-03-12T10:42:48Z</time>
      </trkpt>
      <trkpt lat="31.792284557595849" lon="-5.777044203132391">
        <ele>2048.23</ele>
        <time>2019-03-12T10:42:49Z</time>
      </trkpt>
      <trkpt lat="31.792245078831911" lon="-5.777130955830216">
        <ele>2048.23</ele>
        <time>2019-03-12T10:42:50Z</time>
      </trkpt>
      <trkpt lat="31.792209036648273" lon="-5.777228605002165">
        <ele>2048.23</ele>
        <time>2019-03-12T10:42:51Z</time>
      </trkpt>
      <trkpt lat="31.792132258415222" lon="-5.777449300512672">
        <ele>2047.75</ele>
        <time>2019-03-12T10:42:52Z</time>
      </trkpt>
      <trkpt lat="31.792105939239264" lon="-5.777564384043217">
        <ele>2047.75</ele>
        <time>2019-03-12T10:42:53Z</time>
      </trkpt>
      <trkpt lat="31.792084230110049" lon="-5.777667984366417">
        <ele>2047.75</ele>
        <time>2019-03-12T10:42:54Z</time>
      </trkpt>
      <trkpt lat="31.792047852650285" lon="-5.777763873338699">
        <ele>2047.26</ele>
        <time>2019-03-12T10:42:55Z</time>
      </trkpt>
      <trkpt lat="31.791996052488685" lon="-5.777856661006808">
        <ele>2046.78</ele>
        <time>2019-03-12T10:42:56Z</time>
      </trkpt>
      <trkpt lat="31.791931511834264" lon="-5.77794567681849">
        <ele>2046.78</ele>
        <time>2019-03-12T10:43:01Z</time>
      </trkpt>
      <trkpt lat="31.791860684752464" lon="-5.778032429516316">
        <ele>2046.78</ele>
        <time>2019-03-12T10:43:02Z</time>
      </trkpt>
      <trkpt lat="31.791344778612256" lon="-5.778670962899923">
        <ele>2046.78</ele>
        <time>2019-03-12T10:43:06Z</time>
      </trkpt>
      <trkpt lat="31.791292391717434" lon="-5.778756961226463">
        <ele>2046.78</ele>
        <time>2019-03-12T10:43:07Z</time>
      </trkpt>
      <trkpt lat="31.791261378675699" lon="-5.778850587084889">
        <ele>2046.3</ele>
        <time>2019-03-12T10:43:17Z</time>
      </trkpt>
      <trkpt lat="31.791245201602578" lon="-5.778943290933967">
        <ele>2046.3</ele>
        <time>2019-03-12T10:43:19Z</time>
      </trkpt>
      <trkpt lat="31.791236735880375" lon="-5.779036246240139">
        <ele>2045.8199999999999</ele>
        <time>2019-03-12T10:43:20Z</time>
      </trkpt>
      <trkpt lat="31.791221648454666" lon="-5.779125513508916">
        <ele>2045.8199999999999</ele>
        <time>2019-03-12T10:43:21Z</time>
      </trkpt>
      <trkpt lat="31.79118862375617" lon="-5.779203632846475">
        <ele>2044.8599999999999</ele>
        <time>2019-03-12T10:43:22Z</time>
      </trkpt>
      <trkpt lat="31.791129447519779" lon="-5.779273705556989">
        <ele>2044.8599999999999</ele>
        <time>2019-03-12T10:43:23Z</time>
      </trkpt>
      <trkpt lat="31.79104839451611" lon="-5.779343610629439">
        <ele>2044.8599999999999</ele>
        <time>2019-03-12T10:43:24Z</time>
      </trkpt>
      <trkpt lat="31.790625778958201" lon="-5.77967737801373">
        <ele>2044.8599999999999</ele>
        <time>2019-03-12T10:43:27Z</time>
      </trkpt>
      <trkpt lat="31.790532236918807" lon="-5.779722724109888">
        <ele>2043.4200000000001</ele>
        <time>2019-03-12T10:43:28Z</time>
      </trkpt>
      <trkpt lat="31.790131749585271" lon="-5.77985817566514">
        <ele>2043.4200000000001</ele>
        <time>2019-03-12T10:43:38Z</time>
      </trkpt>
      <trkpt lat="31.790039548650384" lon="-5.779903773218393">
        <ele>2043.4200000000001</ele>
        <time>2019-03-12T10:43:47Z</time>
      </trkpt>
      <trkpt lat="31.789147211238742" lon="-5.780546329915524">
        <ele>2042.9400000000001</ele>
        <time>2019-03-12T10:44:00Z</time>
      </trkpt>
      <trkpt lat="31.789000863209367" lon="-5.780658395960927">
        <ele>2042.9400000000001</ele>
        <time>2019-03-12T10:44:09Z</time>
      </trkpt>
      <trkpt lat="31.788919307291508" lon="-5.780699551105499">
        <ele>2042.9400000000001</ele>
        <time>2019-03-12T10:44:12Z</time>
      </trkpt>
      <trkpt lat="31.788833811879158" lon="-5.780729725956917">
        <ele>2042.9400000000001</ele>
        <time>2019-03-12T10:44:13Z</time>
      </trkpt>
      <trkpt lat="31.788742113858461" lon="-5.780749339610338">
        <ele>2043.4200000000001</ele>
        <time>2019-03-12T10:44:14Z</time>
      </trkpt>
      <trkpt lat="31.78864479996264" lon="-5.780752524733543">
        <ele>2043.9000000000001</ele>
        <time>2019-03-12T10:44:15Z</time>
      </trkpt>
      <trkpt lat="31.788544803857803" lon="-5.780745064839721">
        <ele>2042.9400000000001</ele>
        <time>2019-03-12T10:44:16Z</time>
      </trkpt>
      <trkpt lat="31.788224866613746" lon="-5.780740287154913">
        <ele>2043.9000000000001</ele>
        <time>2019-03-12T10:44:17Z</time>
      </trkpt>
      <trkpt lat="31.788117745891213" lon="-5.7807582244277">
        <ele>2044.3800000000001</ele>
        <time>2019-03-12T10:44:18Z</time>
      </trkpt>
      <trkpt lat="31.786917205899954" lon="-5.781047316268086">
        <ele>2045.3399999999999</ele>
        <time>2019-03-12T10:44:19Z</time>
      </trkpt>
      <trkpt lat="31.785859409719706" lon="-5.781606305390596">
        <ele>2046.3</ele>
        <time>2019-03-12T10:44:20Z</time>
      </trkpt>
      <trkpt lat="31.784124271944165" lon="-5.78223385848105">
        <ele>2046.78</ele>
        <time>2019-03-12T10:44:28Z</time>
      </trkpt>
      <trkpt lat="31.782914344221354" lon="-5.783004574477673">
        <ele>2047.26</ele>
        <time>2019-03-12T10:44:29Z</time>
      </trkpt>
      <trkpt lat="31.782528525218368" lon="-5.78324873931706">
        <ele>2047.75</ele>
        <time>2019-03-12T10:44:30Z</time>
      </trkpt>
      <trkpt lat="31.782395672053099" lon="-5.783299617469311">
        <ele>2048.23</ele>
        <time>2019-03-12T10:44:38Z</time>
      </trkpt>
      <trkpt lat="31.782258208841085" lon="-5.78333180397749">
        <ele>2048.23</ele>
        <time>2019-03-12T10:44:39Z</time>
      </trkpt>
      <trkpt lat="31.782117644324899" lon="-5.783347226679325">
        <ele>2048.23</ele>
        <time>2019-03-12T10:44:40Z</time>
      </trkpt>
      <trkpt lat="31.781976325437427" lon="-5.783348316326737">
        <ele>2047.75</ele>
        <time>2019-03-12T10:44:41Z</time>
      </trkpt>
      <trkpt lat="31.781834755092859" lon="-5.783336078748107">
        <ele>2047.26</ele>
        <time>2019-03-12T10:44:42Z</time>
      </trkpt>
      <trkpt lat="31.781696202233434" lon="-5.783312944695354">
        <ele>2046.3</ele>
        <time>2019-03-12T10:44:43Z</time>
      </trkpt>
      <trkpt lat="31.781561421230435" lon="-5.783276231959462">
        <ele>2046.3</ele>
        <time>2019-03-12T10:44:44Z</time>
      </trkpt>
      <trkpt lat="31.78142974153161" lon="-5.783227868378162">
        <ele>2045.8199999999999</ele>
        <time>2019-03-12T10:44:45Z</time>
      </trkpt>
      <trkpt lat="31.780377309769392" lon="-5.782915223389864">
        <ele>2044.3800000000001</ele>
        <time>2019-03-12T10:44:46Z</time>
      </trkpt>
      <trkpt lat="31.780252000316978" lon="-5.782930310815573">
        <ele>2043.9000000000001</ele>
        <time>2019-03-12T10:44:47Z</time>
      </trkpt>
      <trkpt lat="31.780127193778753" lon="-5.782955037429929">
        <ele>2043.9000000000001</ele>
        <time>2019-03-12T10:44:48Z</time>
      </trkpt>
      <trkpt lat="31.779123963788152" lon="-5.783325685188174">
        <ele>2043.4200000000001</ele>
        <time>2019-03-12T10:44:49Z</time>
      </trkpt>
      <trkpt lat="31.779013993218541" lon="-5.783400787040591">
        <ele>2043.4200000000001</ele>
        <time>2019-03-12T10:44:50Z</time>
      </trkpt>
      <trkpt lat="31.778916176408529" lon="-5.783489048480988">
        <ele>2043.4200000000001</ele>
        <time>2019-03-12T10:45:01Z</time>
      </trkpt>
      <trkpt lat="31.778833363205194" lon="-5.783587200567126">
        <ele>2043.4200000000001</ele>
        <time>2019-03-12T10:45:02Z</time>
      </trkpt>
      <trkpt lat="31.778767900541425" lon="-5.783696752041578">
        <ele>2042.9400000000001</ele>
        <time>2019-03-12T10:45:03Z</time>
      </trkpt>
      <trkpt lat="31.778715262189507" lon="-5.783796412870288">
        <ele>2043.4200000000001</ele>
        <time>2019-03-12T10:45:04Z</time>
      </trkpt>
      <trkpt lat="31.778663881123066" lon="-5.783878387883306">
        <ele>2043.4200000000001</ele>
        <time>2019-03-12T10:45:05Z</time>
      </trkpt>
      <trkpt lat="31.778597496449947" lon="-5.783941252157092">
        <ele>2043.4200000000001</ele>
        <time>2019-03-12T10:45:06Z</time>
      </trkpt>
      <trkpt lat="31.778515102341771" lon="-5.783981485292316">
        <ele>2043.4200000000001</ele>
        <time>2019-03-12T10:45:07Z</time>
      </trkpt>
      <trkpt lat="31.77842415869236" lon="-5.784009732306004">
        <ele>2043.4200000000001</ele>
        <time>2019-03-12T10:45:08Z</time>
      </trkpt>
      <trkpt lat="31.778332460671663" lon="-5.784025574102998">
        <ele>2042.9400000000001</ele>
        <time>2019-03-12T10:45:10Z</time>
      </trkpt>
      <trkpt lat="31.778238164260983" lon="-5.784033201634884">
        <ele>2042.9400000000001</ele>
        <time>2019-03-12T10:45:14Z</time>
      </trkpt>
      <trkpt lat="31.778143281117082" lon="-5.78403303399682">
        <ele>2041.98</ele>
        <time>2019-03-12T10:45:15Z</time>
      </trkpt>
      <trkpt lat="31.777072325348854" lon="-5.783861959353089">
        <ele>2041.5</ele>
        <time>2019-03-12T10:45:17Z</time>
      </trkpt>
      <trkpt lat="31.776960091665387" lon="-5.783858522772789">
        <ele>2040.54</ele>
        <time>2019-03-12T10:45:18Z</time>
      </trkpt>
      <trkpt lat="31.776848779991269" lon="-5.783867323771119">
        <ele>2040.05</ele>
        <time>2019-03-12T10:45:19Z</time>
      </trkpt>
      <trkpt lat="31.776740653440356" lon="-5.783892637118697">
        <ele>2039.5699999999999</ele>
        <time>2019-03-12T10:45:20Z</time>
      </trkpt>
      <trkpt lat="31.776638561859727" lon="-5.783944772556424">
        <ele>2039.5699999999999</ele>
        <time>2019-03-12T10:45:21Z</time>
      </trkpt>
      <trkpt lat="31.776545355096459" lon="-5.784018198028207">
        <ele>2039.0899999999999</ele>
        <time>2019-03-12T10:45:22Z</time>
      </trkpt>
      <trkpt lat="31.776458686217666" lon="-5.784106627106667">
        <ele>2039.5699999999999</ele>
        <time>2019-03-12T10:45:29Z</time>
      </trkpt>
      <trkpt lat="31.776375118643045" lon="-5.784205198287964">
        <ele>2039.5699999999999</ele>
        <time>2019-03-12T10:45:30Z</time>
      </trkpt>
      <trkpt lat="31.776217874139547" lon="-5.784426145255566">
        <ele>2040.05</ele>
        <time>2019-03-12T10:45:31Z</time>
      </trkpt>
      <trkpt lat="31.775963567197323" lon="-5.784917240962386">
        <ele>2040.05</ele>
        <time>2019-03-12T10:45:39Z</time>
      </trkpt>
      <trkpt lat="31.775926603004336" lon="-5.785032827407122">
        <ele>2040.54</ele>
        <time>2019-03-12T10:45:52Z</time>
      </trkpt>
      <trkpt lat="31.775869857519865" lon="-5.785250002518296">
        <ele>2040.54</ele>
        <time>2019-03-12T10:46:02Z</time>
      </trkpt>
      <trkpt lat="31.775827277451754" lon="-5.785331390798092">
        <ele>2041.02</ele>
        <time>2019-03-12T10:46:13Z</time>
      </trkpt>
      <trkpt lat="31.775764748454094" lon="-5.785392662510276">
        <ele>2041.5</ele>
        <time>2019-03-12T10:46:17Z</time>
      </trkpt>
      <trkpt lat="31.77569517865777" lon="-5.785438176244497">
        <ele>2043.9000000000001</ele>
        <time>2019-03-12T10:46:18Z</time>
      </trkpt>
      <trkpt lat="31.775621753185987" lon="-5.785469608381391">
        <ele>2043.9000000000001</ele>
        <time>2019-03-12T10:46:27Z</time>
      </trkpt>
      <trkpt lat="31.775545226410031" lon="-5.785493748262525">
        <ele>2044.3800000000001</ele>
        <time>2019-03-12T10:46:38Z</time>
      </trkpt>
      <trkpt lat="31.774982465431094" lon="-5.785628529265523">
        <ele>2041.5</ele>
        <time>2019-03-12T10:46:47Z</time>
      </trkpt>
      <trkpt lat="31.774911303073168" lon="-5.785603802651167">
        <ele>2042.9400000000001</ele>
        <time>2019-03-12T10:47:00Z</time>
      </trkpt>
      <trkpt lat="31.774847768247128" lon="-5.785551080480218">
        <ele>2048.71</ele>
        <time>2019-03-12T10:47:15Z</time>
      </trkpt>
      <trkpt lat="31.774174030870199" lon="-5.784904751926661">
        <ele>2054.4699999999998</ele>
        <time>2019-03-12T10:47:27Z</time>
      </trkpt>
      <trkpt lat="31.772875171154737" lon="-5.783766405656934">
        <ele>2057.8400000000001</ele>
        <time>2019-03-12T10:47:31Z</time>
      </trkpt>
      <trkpt lat="31.771942349150777" lon="-5.782926538959146">
        <ele>2058.8000000000002</ele>
        <time>2019-03-12T10:47:32Z</time>
      </trkpt>
      <trkpt lat="31.77072387188673" lon="-5.781813841313124">
        <ele>2064.0900000000001</ele>
        <time>2019-03-12T10:47:33Z</time>
      </trkpt>
      <trkpt lat="31.770284660160542" lon="-5.781526090577245">
        <ele>2071.3000000000002</ele>
        <time>2019-03-12T10:47:34Z</time>
      </trkpt>
      <trkpt lat="31.770190866664052" lon="-5.781443193554878">
        <ele>2072.2600000000002</ele>
        <time>2019-03-12T10:47:35Z</time>
      </trkpt>
      <trkpt lat="31.769315879791975" lon="-5.780537026003003">
        <ele>2067.4499999999998</ele>
        <time>2019-03-12T10:47:36Z</time>
      </trkpt>
      <trkpt lat="31.767975864931941" lon="-5.7798430044204">
        <ele>2062.6500000000001</ele>
        <time>2019-03-12T10:47:44Z</time>
      </trkpt>
      <trkpt lat="31.766769457608461" lon="-5.77982590533793">
        <ele>2058.3200000000002</ele>
        <time>2019-03-12T10:47:59Z</time>
      </trkpt>
      <trkpt lat="31.764964330941439" lon="-5.779998069629073">
        <ele>2057.3600000000001</ele>
        <time>2019-03-12T10:48:00Z</time>
      </trkpt>
      <trkpt lat="31.762891737744212" lon="-5.780134191736579">
        <ele>2056.8800000000001</ele>
        <time>2019-03-12T10:48:10Z</time>
      </trkpt>
      <trkpt lat="31.761137992143631" lon="-5.780154140666127">
        <ele>2056.8800000000001</ele>
        <time>2019-03-12T10:48:11Z</time>
      </trkpt>
      <trkpt lat="31.760584535077214" lon="-5.780121618881822">
        <ele>2056.4000000000001</ele>
        <time>2019-03-12T10:48:15Z</time>
      </trkpt>
      <trkpt lat="31.76044899970293" lon="-5.780136371031404">
        <ele>2056.4000000000001</ele>
        <time>2019-03-12T10:48:16Z</time>
      </trkpt>
      <trkpt lat="31.760317655280232" lon="-5.780161432921886">
        <ele>2055.9200000000001</ele>
        <time>2019-03-12T10:48:26Z</time>
      </trkpt>
      <trkpt lat="31.7601880710572" lon="-5.780200324952602">
        <ele>2053.0300000000002</ele>
        <time>2019-03-12T10:48:36Z</time>
      </trkpt>
      <trkpt lat="31.760061671957374" lon="-5.780250951647759">
        <ele>2046.78</ele>
        <time>2019-03-12T10:48:47Z</time>
      </trkpt>
      <trkpt lat="31.759939128533006" lon="-5.780308535322547">
        <ele>2046.78</ele>
        <time>2019-03-12T10:48:56Z</time>
      </trkpt>
      <trkpt lat="31.759033547714353" lon="-5.781072629615665">
        <ele>2046.3</ele>
        <time>2019-03-12T10:49:06Z</time>
      </trkpt>
      <trkpt lat="31.757402094081044" lon="-5.782904159277678">
        <ele>2046.3</ele>
        <time>2019-03-12T10:49:18Z</time>
      </trkpt>
      <trkpt lat="31.757338559255004" lon="-5.783039946109057">
        <ele>2046.78</ele>
        <time>2019-03-12T10:49:20Z</time>
      </trkpt>
      <trkpt lat="31.756835393607616" lon="-5.784689672291279">
        <ele>2047.26</ele>
        <time>2019-03-12T10:49:21Z</time>
      </trkpt>
      <trkpt lat="31.756836231797934" lon="-5.784873822703958">
        <ele>2047.26</ele>
        <time>2019-03-12T10:49:22Z</time>
      </trkpt>
      <trkpt lat="31.756861209869385" lon="-5.78561176545918">
        <ele>2046.78</ele>
        <time>2019-03-12T10:49:23Z</time>
      </trkpt>
      <trkpt lat="31.756836483255029" lon="-5.785796251147986">
        <ele>2046.3</ele>
        <time>2019-03-12T10:49:24Z</time>
      </trkpt>
      <trkpt lat="31.756277158856392" lon="-5.787577070295811">
        <ele>2045.3399999999999</ele>
        <time>2019-03-12T10:49:25Z</time>
      </trkpt>
      <trkpt lat="31.75589494407177" lon="-5.789432739838958">
        <ele>2041.02</ele>
        <time>2019-03-12T10:49:31Z</time>
      </trkpt>
      <trkpt lat="31.755420109257102" lon="-5.791382035240531">
        <ele>2032.3599999999999</ele>
        <time>2019-03-12T10:49:32Z</time>
      </trkpt>
      <trkpt lat="31.754911998286843" lon="-5.79293729737401">
        <ele>2032.3599999999999</ele>
        <time>2019-03-12T10:49:33Z</time>
      </trkpt>
      <trkpt lat="31.754171960055828" lon="-5.794519716873765">
        <ele>2032.8399999999999</ele>
        <time>2019-03-12T10:49:34Z</time>
      </trkpt>
      <trkpt lat="31.752979550510645" lon="-5.796323753893375">
        <ele>2032.8399999999999</ele>
        <time>2019-03-12T10:49:35Z</time>
      </trkpt>
      <trkpt lat="31.752809146419168" lon="-5.796621898189187">
        <ele>2033.3299999999999</ele>
        <time>2019-03-12T10:49:36Z</time>
      </trkpt>
      <trkpt lat="31.752747874706984" lon="-5.796780819073319">
        <ele>2033.3299999999999</ele>
        <time>2019-03-12T10:49:37Z</time>
      </trkpt>
      <trkpt lat="31.752706049010158" lon="-5.796946780756116">
        <ele>2033.8099999999999</ele>
        <time>2019-03-12T10:49:47Z</time>
      </trkpt>
      <trkpt lat="31.75267880782485" lon="-5.797114251181483">
        <ele>2032.3599999999999</ele>
        <time>2019-03-12T10:49:53Z</time>
      </trkpt>
      <trkpt lat="31.75266363658011" lon="-5.797282895073295">
        <ele>2032.3599999999999</ele>
        <time>2019-03-12T10:49:54Z</time>
      </trkpt>
      <trkpt lat="31.752655087038875" lon="-5.797450784593821">
        <ele>2032.3599999999999</ele>
        <time>2019-03-12T10:49:55Z</time>
      </trkpt>
      <trkpt lat="31.752609992399812" lon="-5.798430796712637">
        <ele>2031.8800000000001</ele>
        <time>2019-03-12T10:50:04Z</time>
      </trkpt>
      <trkpt lat="31.75257814116776" lon="-5.798563985154033">
        <ele>2031.4000000000001</ele>
        <time>2019-03-12T10:50:08Z</time>
      </trkpt>
      <trkpt lat="31.75252634100616" lon="-5.798673704266548">
        <ele>2030.9200000000001</ele>
        <time>2019-03-12T10:50:09Z</time>
      </trkpt>
      <trkpt lat="31.752453166991472" lon="-5.798767833039165">
        <ele>2030.9200000000001</ele>
        <time>2019-03-12T10:50:10Z</time>
      </trkpt>
      <trkpt lat="31.752359792590141" lon="-5.798851484432817">
        <ele>2026.1199999999999</ele>
        <time>2019-03-12T10:50:20Z</time>
      </trkpt>
      <trkpt lat="31.752254934981465" lon="-5.798930106684566">
        <ele>2027.0799999999999</ele>
        <time>2019-03-12T10:50:25Z</time>
      </trkpt>
      <trkpt lat="31.752142114564776" lon="-5.799004370346665">
        <ele>2028.04</ele>
        <time>2019-03-12T10:50:26Z</time>
      </trkpt>
      <trkpt lat="31.750934785231948" lon="-5.799975162371993">
        <ele>2028.52</ele>
        <time>2019-03-12T10:50:27Z</time>
      </trkpt>
      <trkpt lat="31.750291725620627" lon="-5.800481513142586">
        <ele>2025.6400000000001</ele>
        <time>2019-03-12T10:50:35Z</time>
      </trkpt>
      <trkpt lat="31.750184185802937" lon="-5.800509760156274">
        <ele>2024.1900000000001</ele>
        <time>2019-03-12T10:50:36Z</time>
      </trkpt>
      <trkpt lat="31.750072538852692" lon="-5.80052325502038">
        <ele>2023.23</ele>
        <time>2019-03-12T10:50:37Z</time>
      </trkpt>
      <trkpt lat="31.749065704643726" lon="-5.800441280007362">
        <ele>2022.75</ele>
        <time>2019-03-12T10:50:38Z</time>
      </trkpt>
      <trkpt lat="31.748597910627723" lon="-5.800276407971978">
        <ele>2018.9100000000001</ele>
        <time>2019-03-12T10:50:39Z</time>
      </trkpt>
      <trkpt lat="31.748472098261118" lon="-5.800251429900527">
        <ele>2015.54</ele>
        <time>2019-03-12T10:50:40Z</time>
      </trkpt>
      <trkpt lat="31.748343855142593" lon="-5.80023642629385">
        <ele>2015.0599999999999</ele>
        <time>2019-03-12T10:50:41Z</time>
      </trkpt>
      <trkpt lat="31.747200144454837" lon="-5.800197198987007">
        <ele>2014.5799999999999</ele>
        <time>2019-03-12T10:50:42Z</time>
      </trkpt>
      <trkpt lat="31.746629504486918" lon="-5.800245981663466">
        <ele>2009.29</ele>
        <time>2019-03-12T10:50:43Z</time>
      </trkpt>
      <trkpt lat="31.746533866971731" lon="-5.800222847610712">
        <ele>2008.8099999999999</ele>
        <time>2019-03-12T10:50:44Z</time>
      </trkpt>
      <trkpt lat="31.746434709057212" lon="-5.800181776285172">
        <ele>2007.8499999999999</ele>
        <time>2019-03-12T10:50:45Z</time>
      </trkpt>
      <trkpt lat="31.745690396055579" lon="-5.799829820170999">
        <ele>2007.8499999999999</ele>
        <time>2019-03-12T10:50:46Z</time>
      </trkpt>
      <trkpt lat="31.745590902864933" lon="-5.799808530136943">
        <ele>2007.3699999999999</ele>
        <time>2019-03-12T10:50:50Z</time>
      </trkpt>
      <trkpt lat="31.745489398017526" lon="-5.799820264801383">
        <ele>2007.3699999999999</ele>
        <time>2019-03-12T10:50:51Z</time>
      </trkpt>
      <trkpt lat="31.745390575379133" lon="-5.799855384975672">
        <ele>2006.8900000000001</ele>
        <time>2019-03-12T10:50:52Z</time>
      </trkpt>
      <trkpt lat="31.745295440778136" lon="-5.799898719415069">
        <ele>2006.4100000000001</ele>
        <time>2019-03-12T10:50:53Z</time>
      </trkpt>
      <trkpt lat="31.745204413309693" lon="-5.799944903701544">
        <ele>2005.9300000000001</ele>
        <time>2019-03-12T10:50:54Z</time>
      </trkpt>
      <trkpt lat="31.745112463831902" lon="-5.799980191513896">
        <ele>2005.45</ele>
        <time>2019-03-12T10:50:58Z</time>
      </trkpt>
      <trkpt lat="31.745016910135746" lon="-5.799994273111224">
        <ele>2005.45</ele>
        <time>2019-03-12T10:50:59Z</time>
      </trkpt>
      <trkpt lat="31.744922865182161" lon="-5.799983125180006">
        <ele>2004.97</ele>
        <time>2019-03-12T10:51:00Z</time>
      </trkpt>
      <trkpt lat="31.744831586256623" lon="-5.799944484606385">
        <ele>2002.5599999999999</ele>
        <time>2019-03-12T10:51:10Z</time>
      </trkpt>
      <trkpt lat="31.744741816073656" lon="-5.799889834597707">
        <ele>2003.04</ele>
        <time>2019-03-12T10:51:11Z</time>
      </trkpt>
      <trkpt lat="31.744651962071657" lon="-5.799834178760648">
        <ele>2002.5599999999999</ele>
        <time>2019-03-12T10:51:21Z</time>
      </trkpt>
      <trkpt lat="31.744265221059322" lon="-5.799608705565333">
        <ele>2002.5599999999999</ele>
        <time>2019-03-12T10:51:26Z</time>
      </trkpt>
      <trkpt lat="31.744153574109077" lon="-5.799576938152313">
        <ele>2002.0799999999999</ele>
        <time>2019-03-12T10:51:27Z</time>
      </trkpt>
      <trkpt lat="31.744036646559834" lon="-5.799564532935619">
        <ele>2002.0799999999999</ele>
        <time>2019-03-12T10:51:30Z</time>
      </trkpt>
      <trkpt lat="31.743915947154164" lon="-5.799569813534617">
        <ele>2002.0799999999999</ele>
        <time>2019-03-12T10:51:31Z</time>
      </trkpt>
      <trkpt lat="31.74379114061594" lon="-5.799584146589041">
        <ele>2002.5599999999999</ele>
        <time>2019-03-12T10:51:32Z</time>
      </trkpt>
      <trkpt lat="31.743315048515797" lon="-5.799670815467835">
        <ele>2006.8900000000001</ele>
        <time>2019-03-12T10:51:33Z</time>
      </trkpt>
      <trkpt lat="31.743219243362546" lon="-5.799725633114576">
        <ele>2007.3699999999999</ele>
        <time>2019-03-12T10:51:34Z</time>
      </trkpt>
      <trkpt lat="31.743132742121816" lon="-5.799802076071501">
        <ele>2009.29</ele>
        <time>2019-03-12T10:51:35Z</time>
      </trkpt>
      <trkpt lat="31.742278123274446" lon="-5.800542701035738">
        <ele>2008.8099999999999</ele>
        <time>2019-03-12T10:51:36Z</time>
      </trkpt>
      <trkpt lat="31.742196483537555" lon="-5.800630627200007">
        <ele>2008.8099999999999</ele>
        <time>2019-03-12T10:51:37Z</time>
      </trkpt>
      <trkpt lat="31.741361394524574" lon="-5.801504272967577">
        <ele>2007.8499999999999</ele>
        <time>2019-03-12T10:51:39Z</time>
      </trkpt>
      <trkpt lat="31.740937605500221" lon="-5.80187575891614">
        <ele>2007.3699999999999</ele>
        <time>2019-03-12T10:51:40Z</time>
      </trkpt>
      <trkpt lat="31.740830484777689" lon="-5.801930157467723">
        <ele>2006.4100000000001</ele>
        <time>2019-03-12T10:51:41Z</time>
      </trkpt>
      <trkpt lat="31.740531669929624" lon="-5.802053036168218">
        <ele>2005.9300000000001</ele>
        <time>2019-03-12T10:51:42Z</time>
      </trkpt>
      <trkpt lat="31.740443324670196" lon="-5.802058232948184">
        <ele>2005.45</ele>
        <time>2019-03-12T10:51:43Z</time>
      </trkpt>
      <trkpt lat="31.740351794287562" lon="-5.802036272361875">
        <ele>2004.49</ele>
        <time>2019-03-12T10:51:44Z</time>
      </trkpt>
      <trkpt lat="31.740258419886231" lon="-5.801985561847687">
        <ele>2003.04</ele>
        <time>2019-03-12T10:51:46Z</time>
      </trkpt>
      <trkpt lat="31.740168482065201" lon="-5.801906604319811">
        <ele>2002.0799999999999</ele>
        <time>2019-03-12T10:51:47Z</time>
      </trkpt>
      <trkpt lat="31.740084914490581" lon="-5.80180149525404">
        <ele>2000.6400000000001</ele>
        <time>2019-03-12T10:51:48Z</time>
      </trkpt>
      <trkpt lat="31.740008806809783" lon="-5.801680209115148">
        <ele>1999.6800000000001</ele>
        <time>2019-03-12T10:51:49Z</time>
      </trkpt>
      <trkpt lat="31.739939404651523" lon="-5.801551882177591">
        <ele>1999.2</ele>
        <time>2019-03-12T10:51:50Z</time>
      </trkpt>
      <trkpt lat="31.739813759922981" lon="-5.801324816420674">
        <ele>1998.72</ele>
        <time>2019-03-12T10:51:53Z</time>
      </trkpt>
      <trkpt lat="31.73974771052599" lon="-5.801243344321847">
        <ele>1998.24</ele>
        <time>2019-03-12T10:51:54Z</time>
      </trkpt>
      <trkpt lat="31.739672776311636" lon="-5.801191376522183">
        <ele>1998.24</ele>
        <time>2019-03-12T10:51:55Z</time>
      </trkpt>
      <trkpt lat="31.739589124917984" lon="-5.801172433421016">
        <ele>1998.24</ele>
        <time>2019-03-12T10:51:56Z</time>
      </trkpt>
      <trkpt lat="31.739499270915985" lon="-5.801176792010665">
        <ele>1998.24</ele>
        <time>2019-03-12T10:51:57Z</time>
      </trkpt>
      <trkpt lat="31.739405812695622" lon="-5.801184168085456">
        <ele>1998.72</ele>
        <time>2019-03-12T10:51:58Z</time>
      </trkpt>
      <trkpt lat="31.739206910133362" lon="-5.801193388178945">
        <ele>1999.2</ele>
        <time>2019-03-12T10:51:59Z</time>
      </trkpt>
      <trkpt lat="31.739108422771096" lon="-5.801175115630031">
        <ele>2000.1600000000001</ele>
        <time>2019-03-12T10:52:10Z</time>
      </trkpt>
      <trkpt lat="31.739013707265258" lon="-5.80113940872252">
        <ele>2001.1199999999999</ele>
        <time>2019-03-12T10:52:11Z</time>
      </trkpt>
      <trkpt lat="31.738920751959085" lon="-5.801090374588966">
        <ele>2001.5999999999999</ele>
        <time>2019-03-12T10:52:14Z</time>
      </trkpt>
      <trkpt lat="31.738825868815184" lon="-5.801035892218351">
        <ele>2002.0799999999999</ele>
        <time>2019-03-12T10:52:15Z</time>
      </trkpt>
      <trkpt lat="31.738510709255934" lon="-5.800889544188976">
        <ele>2002.5599999999999</ele>
        <time>2019-03-12T10:52:26Z</time>
      </trkpt>
      <trkpt lat="31.738389171659946" lon="-5.800863644108176">
        <ele>2002.5599999999999</ele>
        <time>2019-03-12T10:52:40Z</time>
      </trkpt>
      <trkpt lat="31.738264113664627" lon="-5.800843443721533">
        <ele>2002.5599999999999</ele>
        <time>2019-03-12T10:52:50Z</time>
      </trkpt>
      <trkpt lat="31.738136792555451" lon="-5.80083204433322">
        <ele>2002.0799999999999</ele>
        <time>2019-03-12T10:53:01Z</time>
      </trkpt>
      <trkpt lat="31.738005699589849" lon="-5.800831541419029">
        <ele>1998.24</ele>
        <time>2019-03-12T10:53:16Z</time>
      </trkpt>
      <trkpt lat="31.737875528633595" lon="-5.800838246941567">
        <ele>1998.24</ele>
        <time>2019-03-12T10:53:29Z</time>
      </trkpt>
      <trkpt lat="31.73775658942759" lon="-5.800845036283135">
        <ele>1998.24</ele>
        <time>2019-03-12T10:53:39Z</time>
      </trkpt>
      <trkpt lat="31.736457897350192" lon="-5.800954252481461">
        <ele>1998.24</ele>
        <time>2019-03-12T10:53:47Z</time>
      </trkpt>
      <trkpt lat="31.736349603161216" lon="-5.800960287451744">
        <ele>1998.72</ele>
        <time>2019-03-12T10:53:55Z</time>
      </trkpt>
      <trkpt lat="31.736011561006308" lon="-5.800984259694815">
        <ele>1997.28</ele>
        <time>2019-03-12T10:54:06Z</time>
      </trkpt>
      <trkpt lat="31.735895136371255" lon="-5.801013428717852">
        <ele>1995.3499999999999</ele>
        <time>2019-03-12T10:54:09Z</time>
      </trkpt>
      <trkpt lat="31.734618572518229" lon="-5.801589852198958">
        <ele>1992.47</ele>
        <time>2019-03-12T10:54:10Z</time>
      </trkpt>
      <trkpt lat="31.732963062822819" lon="-5.802330477163196">
        <ele>1991.03</ele>
        <time>2019-03-12T10:54:20Z</time>
      </trkpt>
      <trkpt lat="31.731841145083308" lon="-5.802719816565514">
        <ele>1991.03</ele>
        <time>2019-03-12T10:54:24Z</time>
      </trkpt>
      <trkpt lat="31.730772703886032" lon="-5.803097169846296">
        <ele>1987.6600000000001</ele>
        <time>2019-03-12T10:54:25Z</time>
      </trkpt>
      <trkpt lat="31.728941006585956" lon="-5.803735703229904">
        <ele>1988.6199999999999</ele>
        <time>2019-03-12T10:54:26Z</time>
      </trkpt>
      <trkpt lat="31.727179046720266" lon="-5.804433161392808">
        <ele>1998.24</ele>
        <time>2019-03-12T10:54:27Z</time>
      </trkpt>
      <trkpt lat="31.725936932489276" lon="-5.805446114391089">
        <ele>2008.3299999999999</ele>
        <time>2019-03-12T10:54:28Z</time>
      </trkpt>
      <trkpt lat="31.724897492676973" lon="-5.805876525118947">
        <ele>2011.22</ele>
        <time>2019-03-12T10:54:31Z</time>
      </trkpt>
      <trkpt lat="31.723884036764503" lon="-5.805891528725624">
        <ele>2012.6600000000001</ele>
        <time>2019-03-12T10:54:32Z</time>
      </trkpt>
      <trkpt lat="31.722676875069737" lon="-5.805361624807119">
        <ele>2022.75</ele>
        <time>2019-03-12T10:54:33Z</time>
      </trkpt>
      <trkpt lat="31.722342940047383" lon="-5.805163392797113">
        <ele>2025.6400000000001</ele>
        <time>2019-03-12T10:54:34Z</time>
      </trkpt>
      <trkpt lat="31.722229532897472" lon="-5.805106144398451">
        <ele>2026.5999999999999</ele>
        <time>2019-03-12T10:54:35Z</time>
      </trkpt>
      <trkpt lat="31.721312217414379" lon="-5.804472221061587">
        <ele>2027.5599999999999</ele>
        <time>2019-03-12T10:54:36Z</time>
      </trkpt>
      <trkpt lat="31.721041817218065" lon="-5.804172735661268">
        <ele>2028.04</ele>
        <time>2019-03-12T10:54:37Z</time>
      </trkpt>
      <trkpt lat="31.720987837761641" lon="-5.8040760923177">
        <ele>2028.52</ele>
        <time>2019-03-12T10:54:38Z</time>
      </trkpt>
      <trkpt lat="31.720942407846451" lon="-5.803967630490661">
        <ele>2029.96</ele>
        <time>2019-03-12T10:54:46Z</time>
      </trkpt>
      <trkpt lat="31.720902509987354" lon="-5.803845254704356">
        <ele>2030.4400000000001</ele>
        <time>2019-03-12T10:54:47Z</time>
      </trkpt>
      <trkpt lat="31.720863785594702" lon="-5.803711982443929">
        <ele>2031.4000000000001</ele>
        <time>2019-03-12T10:54:48Z</time>
      </trkpt>
      <trkpt lat="31.720725232735276" lon="-5.803285343572497">
        <ele>2032.3599999999999</ele>
        <time>2019-03-12T10:54:49Z</time>
      </trkpt>
      <trkpt lat="31.72065163962543" lon="-5.803165817633271">
        <ele>2033.3299999999999</ele>
        <time>2019-03-12T10:54:50Z</time>
      </trkpt>
      <trkpt lat="31.720554912462831" lon="-5.803072107955813">
        <ele>2034.29</ele>
        <time>2019-03-12T10:54:51Z</time>
      </trkpt>
      <trkpt lat="31.720443684607744" lon="-5.803015446290374">
        <ele>2035.25</ele>
        <time>2019-03-12T10:54:52Z</time>
      </trkpt>
      <trkpt lat="31.720322063192725" lon="-5.802994826808572">
        <ele>2036.21</ele>
        <time>2019-03-12T10:54:53Z</time>
      </trkpt>
      <trkpt lat="31.720199352130294" lon="-5.802995497360826">
        <ele>2042.9400000000001</ele>
        <time>2019-03-12T10:54:54Z</time>
      </trkpt>
      <trkpt lat="31.72007555142045" lon="-5.803006226196885">
        <ele>2043.4200000000001</ele>
        <time>2019-03-12T10:54:55Z</time>
      </trkpt>
      <trkpt lat="31.719951247796416" lon="-5.803022319450975">
        <ele>2044.3800000000001</ele>
        <time>2019-03-12T10:54:56Z</time>
      </trkpt>
      <trkpt lat="31.718993531540036" lon="-5.803162297233939">
        <ele>2044.8599999999999</ele>
        <time>2019-03-12T10:54:57Z</time>
      </trkpt>
      <trkpt lat="31.718893283978105" lon="-5.803148047998548">
        <ele>2045.3399999999999</ele>
        <time>2019-03-12T10:54:58Z</time>
      </trkpt>
      <trkpt lat="31.718798233196139" lon="-5.803106222301722">
        <ele>2045.3399999999999</ele>
        <time>2019-03-12T10:55:07Z</time>
      </trkpt>
      <trkpt lat="31.71870787627995" lon="-5.803048722445965">
        <ele>2045.3399999999999</ele>
        <time>2019-03-12T10:55:14Z</time>
      </trkpt>
      <trkpt lat="31.718619698658586" lon="-5.802976889535785">
        <ele>2044.8599999999999</ele>
        <time>2019-03-12T10:55:23Z</time>
      </trkpt>
      <trkpt lat="31.718528419733047" lon="-5.802913941442967">
        <ele>2044.3800000000001</ele>
        <time>2019-03-12T10:55:30Z</time>
      </trkpt>
      <trkpt lat="31.718428758904338" lon="-5.802869098260999">
        <ele>2043.9000000000001</ele>
        <time>2019-03-12T10:55:31Z</time>
      </trkpt>
      <trkpt lat="31.718323230743408" lon="-5.802853424102068">
        <ele>2043.4200000000001</ele>
        <time>2019-03-12T10:55:32Z</time>
      </trkpt>
      <trkpt lat="31.718213343992829" lon="-5.802866751328111">
        <ele>2042.9400000000001</ele>
        <time>2019-03-12T10:55:33Z</time>
      </trkpt>
      <trkpt lat="31.718102367594838" lon="-5.802909079939127">
        <ele>2042.46</ele>
        <time>2019-03-12T10:55:34Z</time>
      </trkpt>
      <trkpt lat="31.717992648482323" lon="-5.802973285317421">
        <ele>2035.25</ele>
        <time>2019-03-12T10:55:35Z</time>
      </trkpt>
      <trkpt lat="31.717882007360458" lon="-5.803049728274345">
        <ele>2027.5599999999999</ele>
        <time>2019-03-12T10:55:36Z</time>
      </trkpt>
      <trkpt lat="31.717770863324404" lon="-5.803133798763156">
        <ele>2018.9100000000001</ele>
        <time>2019-03-12T10:55:37Z</time>
      </trkpt>
      <trkpt lat="31.716683730483055" lon="-5.80395195633173">
        <ele>2013.1400000000001</ele>
        <time>2019-03-12T10:55:38Z</time>
      </trkpt>
      <trkpt lat="31.715787872672081" lon="-5.804340457543731">
        <ele>2012.6600000000001</ele>
        <time>2019-03-12T10:55:39Z</time>
      </trkpt>
      <trkpt lat="31.714516505599022" lon="-5.804888969287276">
        <ele>2012.1800000000001</ele>
        <time>2019-03-12T10:55:40Z</time>
      </trkpt>
      <trkpt lat="31.713701700791717" lon="-5.805316865444183">
        <ele>2012.1800000000001</ele>
        <time>2019-03-12T10:55:41Z</time>
      </trkpt>
      <trkpt lat="31.713602794334292" lon="-5.80534796230495">
        <ele>2012.1800000000001</ele>
        <time>2019-03-12T10:55:47Z</time>
      </trkpt>
      <trkpt lat="31.713504642248154" lon="-5.805349303409457">
        <ele>2011.7</ele>
        <time>2019-03-12T10:55:48Z</time>
      </trkpt>
      <trkpt lat="31.713407495990396" lon="-5.805323151871562">
        <ele>2011.7</ele>
        <time>2019-03-12T10:55:49Z</time>
      </trkpt>
      <trkpt lat="31.713313199579716" lon="-5.805273279547691">
        <ele>2011.22</ele>
        <time>2019-03-12T10:55:50Z</time>
      </trkpt>
      <trkpt lat="31.713226027786732" lon="-5.805201530456543">
        <ele>2010.73</ele>
        <time>2019-03-12T10:55:51Z</time>
      </trkpt>
      <trkpt lat="31.713149920105934" lon="-5.805113352835178">
        <ele>2010.73</ele>
        <time>2019-03-12T10:55:58Z</time>
      </trkpt>
      <trkpt lat="31.713080937042832" lon="-5.805016290396452">
        <ele>2010.73</ele>
        <time>2019-03-12T10:55:59Z</time>
      </trkpt>
      <trkpt lat="31.713016564026475" lon="-5.804908080026507">
        <ele>2010.73</ele>
        <time>2019-03-12T10:56:00Z</time>
      </trkpt>
      <trkpt lat="31.712954454123974" lon="-5.804790062829852">
        <ele>2009.29</ele>
        <time>2019-03-12T10:56:08Z</time>
      </trkpt>
      <trkpt lat="31.712895194068551" lon="-5.804665759205818">
        <ele>2009.29</ele>
        <time>2019-03-12T10:56:18Z</time>
      </trkpt>
      <trkpt lat="31.712841214612126" lon="-5.804537264630199">
        <ele>2009.29</ele>
        <time>2019-03-12T10:56:26Z</time>
      </trkpt>
      <trkpt lat="31.712576262652874" lon="-5.803865119814873">
        <ele>2009.29</ele>
        <time>2019-03-12T10:56:27Z</time>
      </trkpt>
      <trkpt lat="31.712523540481925" lon="-5.803816420957446">
        <ele>2008.8099999999999</ele>
        <time>2019-03-12T10:56:28Z</time>
      </trkpt>
      <trkpt lat="31.712452042847872" lon="-5.803800160065293">
        <ele>2008.3299999999999</ele>
        <time>2019-03-12T10:56:31Z</time>
      </trkpt>
      <trkpt lat="31.712369648739696" lon="-5.803803512826562">
        <ele>2008.3299999999999</ele>
        <time>2019-03-12T10:56:32Z</time>
      </trkpt>
      <trkpt lat="31.712281052023172" lon="-5.803810637444258">
        <ele>2008.3299999999999</ele>
        <time>2019-03-12T10:56:33Z</time>
      </trkpt>
      <trkpt lat="31.711529279127717" lon="-5.803814576938748">
        <ele>2006.4100000000001</ele>
        <time>2019-03-12T10:56:34Z</time>
      </trkpt>
      <trkpt lat="31.711453087627888" lon="-5.80385179258883">
        <ele>2001.5999999999999</ele>
        <time>2019-03-12T10:56:35Z</time>
      </trkpt>
      <trkpt lat="31.711385613307357" lon="-5.803915495052934">
        <ele>1997.28</ele>
        <time>2019-03-12T10:56:36Z</time>
      </trkpt>
      <trkpt lat="31.710627721622586" lon="-5.804590405896306">
        <ele>1997.28</ele>
        <time>2019-03-12T10:56:37Z</time>
      </trkpt>
      <trkpt lat="31.709385523572564" lon="-5.805540159344673">
        <ele>1997.28</ele>
        <time>2019-03-12T10:56:38Z</time>
      </trkpt>
      <trkpt lat="31.708330577239394" lon="-5.806210711598396">
        <ele>1996.3199999999999</ele>
        <time>2019-03-12T10:56:39Z</time>
      </trkpt>
      <trkpt lat="31.708215409889817" lon="-5.80631984397769">
        <ele>1995.8299999999999</ele>
        <time>2019-03-12T10:56:40Z</time>
      </trkpt>
      <trkpt lat="31.708112396299839" lon="-5.806443393230438">
        <ele>1995.8299999999999</ele>
        <time>2019-03-12T10:56:41Z</time>
      </trkpt>
      <trkpt lat="31.707811653614044" lon="-5.806808173656464">
        <ele>1995.3499999999999</ele>
        <time>2019-03-12T10:56:42Z</time>
      </trkpt>
      <trkpt lat="31.707700258120894" lon="-5.806895848363638">
        <ele>1994.8699999999999</ele>
        <time>2019-03-12T10:56:43Z</time>
      </trkpt>
      <trkpt lat="31.707583582028747" lon="-5.806959047913551">
        <ele>1994.8699999999999</ele>
        <time>2019-03-12T10:56:44Z</time>
      </trkpt>
      <trkpt lat="31.707470091059804" lon="-5.807018559426069">
        <ele>1994.3900000000001</ele>
        <time>2019-03-12T10:56:45Z</time>
      </trkpt>
      <trkpt lat="31.707370765507221" lon="-5.807093493640423">
        <ele>1994.3900000000001</ele>
        <time>2019-03-12T10:56:56Z</time>
      </trkpt>
      <trkpt lat="31.707295915111899" lon="-5.807190472260118">
        <ele>1993.9100000000001</ele>
        <time>2019-03-12T10:57:01Z</time>
      </trkpt>
      <trkpt lat="31.70724461786449" lon="-5.807305974885821">
        <ele>1993.9100000000001</ele>
        <time>2019-03-12T10:57:02Z</time>
      </trkpt>
      <trkpt lat="31.70721092261374" lon="-5.807436648756266">
        <ele>1992.95</ele>
        <time>2019-03-12T10:57:03Z</time>
      </trkpt>
      <trkpt lat="31.707177897915244" lon="-5.807571932673454">
        <ele>1992.47</ele>
        <time>2019-03-12T10:57:04Z</time>
      </trkpt>
      <trkpt lat="31.707129450514913" lon="-5.807705791667104">
        <ele>1991.99</ele>
        <time>2019-03-12T10:57:05Z</time>
      </trkpt>
      <trkpt lat="31.70706482604146" lon="-5.807835124433041">
        <ele>1991.51</ele>
        <time>2019-03-12T10:57:06Z</time>
      </trkpt>
      <trkpt lat="31.70698469504714" lon="-5.807956159114838">
        <ele>1991.51</ele>
        <time>2019-03-12T10:57:16Z</time>
      </trkpt>
      <trkpt lat="31.706886542961001" lon="-5.808067470788956">
        <ele>1988.1400000000001</ele>
        <time>2019-03-12T10:57:23Z</time>
      </trkpt>
      <trkpt lat="31.706777410581708" lon="-5.808168975636363">
        <ele>1984.78</ele>
        <time>2019-03-12T10:57:24Z</time>
      </trkpt>
      <trkpt lat="31.706658639013767" lon="-5.808265283703804">
        <ele>1984.3</ele>
        <time>2019-03-12T10:57:25Z</time>
      </trkpt>
      <trkpt lat="31.705494057387114" lon="-5.809470182284713">
        <ele>1983.3399999999999</ele>
        <time>2019-03-12T10:57:26Z</time>
      </trkpt>
      <trkpt lat="31.705031376332045" lon="-5.810110978782177">
        <ele>1982.3800000000001</ele>
        <time>2019-03-12T10:57:27Z</time>
      </trkpt>
      <trkpt lat="31.704955017194152" lon="-5.810254728421569">
        <ele>1981.9000000000001</ele>
        <time>2019-03-12T10:57:28Z</time>
      </trkpt>
      <trkpt lat="31.704879580065608" lon="-5.810392526909709">
        <ele>1981.4100000000001</ele>
        <time>2019-03-12T10:57:29Z</time>
      </trkpt>
      <trkpt lat="31.704797018319368" lon="-5.810513561591506">
        <ele>1974.6900000000001</ele>
        <time>2019-03-12T10:57:30Z</time>
      </trkpt>
      <trkpt lat="31.704700207337737" lon="-5.810613390058279">
        <ele>1970.8399999999999</ele>
        <time>2019-03-12T10:57:31Z</time>
      </trkpt>
      <trkpt lat="31.704594679176807" lon="-5.810700813308358">
        <ele>1970.3599999999999</ele>
        <time>2019-03-12T10:57:32Z</time>
      </trkpt>
      <trkpt lat="31.703454069793224" lon="-5.811751484870911">
        <ele>1969.8800000000001</ele>
        <time>2019-03-12T10:57:33Z</time>
      </trkpt>
      <trkpt lat="31.702801873907447" lon="-5.812533348798752">
        <ele>1969.4000000000001</ele>
        <time>2019-03-12T10:57:34Z</time>
      </trkpt>
      <trkpt lat="31.702740350738168" lon="-5.812644241377711">
        <ele>1968.9200000000001</ele>
        <time>2019-03-12T10:57:39Z</time>
      </trkpt>
      <trkpt lat="31.702689388766885" lon="-5.812764186412096">
        <ele>1968.4400000000001</ele>
        <time>2019-03-12T10:57:40Z</time>
      </trkpt>
      <trkpt lat="31.702644461765885" lon="-5.812888154760003">
        <ele>1967.48</ele>
        <time>2019-03-12T10:57:43Z</time>
      </trkpt>
      <trkpt lat="31.702602384611964" lon="-5.813007596880198">
        <ele>1966.99</ele>
        <time>2019-03-12T10:57:44Z</time>
      </trkpt>
      <trkpt lat="31.702553434297442" lon="-5.81310055218637">
        <ele>1966.51</ele>
        <time>2019-03-12T10:57:45Z</time>
      </trkpt>
      <trkpt lat="31.702493587508798" lon="-5.813151430338621">
        <ele>1966.03</ele>
        <time>2019-03-12T10:57:46Z</time>
      </trkpt>
      <trkpt lat="31.702425861731172" lon="-5.813156710937619">
        <ele>1965.55</ele>
        <time>2019-03-12T10:57:47Z</time>
      </trkpt>
      <trkpt lat="31.702366266399622" lon="-5.81312058493495">
        <ele>1965.0699999999999</ele>
        <time>2019-03-12T10:57:48Z</time>
      </trkpt>
      <trkpt lat="31.702325530350208" lon="-5.813060570508242">
        <ele>1964.1099999999999</ele>
        <time>2019-03-12T10:57:49Z</time>
      </trkpt>
      <trkpt lat="31.702302731573582" lon="-5.812998544424772">
        <ele>1963.6300000000001</ele>
        <time>2019-03-12T10:57:50Z</time>
      </trkpt>
      <trkpt lat="31.702288230881095" lon="-5.812947079539299">
        <ele>1963.1500000000001</ele>
        <time>2019-03-12T10:57:51Z</time>
      </trkpt>
      <trkpt lat="31.70221128500998" lon="-5.812746081501246">
        <ele>1963.1500000000001</ele>
        <time>2019-03-12T10:57:52Z</time>
      </trkpt>
      <trkpt lat="31.702173063531518" lon="-5.812710206955671">
        <ele>1962.6700000000001</ele>
        <time>2019-03-12T10:57:53Z</time>
      </trkpt>
      <trkpt lat="31.702039958909154" lon="-5.812597051262856">
        <ele>1962.1900000000001</ele>
        <time>2019-03-12T10:58:02Z</time>
      </trkpt>
      <trkpt lat="31.701994612812996" lon="-5.812545754015446">
        <ele>1961.71</ele>
        <time>2019-03-12T10:58:03Z</time>
      </trkpt>
      <trkpt lat="31.701938873156905" lon="-5.812495714053512">
        <ele>1961.23</ele>
        <time>2019-03-12T10:58:05Z</time>
      </trkpt>
      <trkpt lat="31.701874416321516" lon="-5.812451792880893">
        <ele>1961.23</ele>
        <time>2019-03-12T10:58:14Z</time>
      </trkpt>
      <trkpt lat="31.701802834868431" lon="-5.812419941648841">
        <ele>1960.75</ele>
        <time>2019-03-12T10:58:16Z</time>
      </trkpt>
      <trkpt lat="31.701730666682124" lon="-5.812403680756688">
        <ele>1960.75</ele>
        <time>2019-03-12T10:58:17Z</time>
      </trkpt>
      <trkpt lat="31.701657911762595" lon="-5.812402423471212">
        <ele>1960.27</ele>
        <time>2019-03-12T10:58:18Z</time>
      </trkpt>
      <trkpt lat="31.70158926397562" lon="-5.812417510896921">
        <ele>1959.78</ele>
        <time>2019-03-12T10:58:19Z</time>
      </trkpt>
      <trkpt lat="31.701524388045073" lon="-5.812455900013447">
        <ele>1957.8599999999999</ele>
        <time>2019-03-12T10:58:20Z</time>
      </trkpt>
      <trkpt lat="31.701462278142571" lon="-5.812516333535314">
        <ele>1957.8599999999999</ele>
        <time>2019-03-12T10:58:21Z</time>
      </trkpt>
      <trkpt lat="31.701403353363276" lon="-5.812586825340986">
        <ele>1957.8599999999999</ele>
        <time>2019-03-12T10:58:24Z</time>
      </trkpt>
      <trkpt lat="31.700721736997366" lon="-5.813226532191038">
        <ele>1958.3399999999999</ele>
        <time>2019-03-12T10:58:25Z</time>
      </trkpt>
      <trkpt lat="31.700658202171326" lon="-5.813282858580351">
        <ele>1958.3399999999999</ele>
        <time>2019-03-12T10:58:33Z</time>
      </trkpt>
      <trkpt lat="31.70056558214128" lon="-5.813365587964654">
        <ele>1958.3399999999999</ele>
        <time>2019-03-12T10:58:46Z</time>
      </trkpt>
      <trkpt lat="31.700071468949318" lon="-5.813786191865802">
        <ele>1958.3399999999999</ele>
        <time>2019-03-12T10:58:53Z</time>
      </trkpt>
      <trkpt lat="31.699954206123948" lon="-5.813915776088834">
        <ele>1958.3399999999999</ele>
        <time>2019-03-12T10:58:54Z</time>
      </trkpt>
      <trkpt lat="31.699899807572365" lon="-5.813995068892837">
        <ele>1958.8199999999999</ele>
        <time>2019-03-12T10:58:55Z</time>
      </trkpt>
      <trkpt lat="31.69985219836235" lon="-5.814088024199009">
        <ele>1958.8199999999999</ele>
        <time>2019-03-12T10:58:58Z</time>
      </trkpt>
      <trkpt lat="31.699814312160015" lon="-5.814186427742243">
        <ele>1959.78</ele>
        <time>2019-03-12T10:58:59Z</time>
      </trkpt>
      <trkpt lat="31.699785310775042" lon="-5.814290028065443">
        <ele>1960.27</ele>
        <time>2019-03-12T10:59:00Z</time>
      </trkpt>
      <trkpt lat="31.699759410694242" lon="-5.814394382759929">
        <ele>1961.23</ele>
        <time>2019-03-12T10:59:07Z</time>
      </trkpt>
      <trkpt lat="31.699680285528302" lon="-5.814665202051401">
        <ele>1966.51</ele>
        <time>2019-03-12T10:59:08Z</time>
      </trkpt>
      <trkpt lat="31.699644327163696" lon="-5.814741309732199">
        <ele>1968.9200000000001</ele>
        <time>2019-03-12T10:59:12Z</time>
      </trkpt>
      <trkpt lat="31.699234452098608" lon="-5.815461063757539">
        <ele>1969.4000000000001</ele>
        <time>2019-03-12T10:59:13Z</time>
      </trkpt>
      <trkpt lat="31.698292829096317" lon="-5.816416265442967">
        <ele>1968.9200000000001</ele>
        <time>2019-03-12T10:59:14Z</time>
      </trkpt>
      <trkpt lat="31.697783460840583" lon="-5.816937452182174">
        <ele>1968.9200000000001</ele>
        <time>2019-03-12T10:59:17Z</time>
      </trkpt>
      <trkpt lat="31.697701569646597" lon="-5.817001070827246">
        <ele>1968.9200000000001</ele>
        <time>2019-03-12T10:59:18Z</time>
      </trkpt>
      <trkpt lat="31.697611967101693" lon="-5.817044489085674">
        <ele>1968.4400000000001</ele>
        <time>2019-03-12T10:59:24Z</time>
      </trkpt>
      <trkpt lat="31.697323713451624" lon="-5.817134762182832">
        <ele>1966.51</ele>
        <time>2019-03-12T10:59:25Z</time>
      </trkpt>
      <trkpt lat="31.697235200554132" lon="-5.817177426069975">
        <ele>1966.03</ele>
        <time>2019-03-12T10:59:26Z</time>
      </trkpt>
      <trkpt lat="31.697154734283686" lon="-5.817227130755782">
        <ele>1963.1500000000001</ele>
        <time>2019-03-12T10:59:27Z</time>
      </trkpt>
      <trkpt lat="31.696843346580863" lon="-5.817401641979814">
        <ele>1962.6700000000001</ele>
        <time>2019-03-12T10:59:28Z</time>
      </trkpt>
      <trkpt lat="31.696798503398895" lon="-5.817393511533737">
        <ele>1962.1900000000001</ele>
        <time>2019-03-12T10:59:37Z</time>
      </trkpt>
      <trkpt lat="31.696506896987557" lon="-5.817380854859948">
        <ele>1962.1900000000001</ele>
        <time>2019-03-12T10:59:38Z</time>
      </trkpt>
      <trkpt lat="31.696423497051001" lon="-5.81740390509367">
        <ele>1962.1900000000001</ele>
        <time>2019-03-12T10:59:39Z</time>
      </trkpt>
      <trkpt lat="31.696346634998918" lon="-5.817434247583151">
        <ele>1963.1500000000001</ele>
        <time>2019-03-12T10:59:40Z</time>
      </trkpt>
      <trkpt lat="31.696167681366205" lon="-5.817532064393163">
        <ele>1963.1500000000001</ele>
        <time>2019-03-12T10:59:41Z</time>
      </trkpt>
      <trkpt lat="31.696136081591249" lon="-5.817556288093329">
        <ele>1963.6300000000001</ele>
        <time>2019-03-12T10:59:53Z</time>
      </trkpt>
      <trkpt lat="31.69601010158658" lon="-5.817748149856925">
        <ele>1964.1099999999999</ele>
        <time>2019-03-12T11:00:01Z</time>
      </trkpt>
      <trkpt lat="31.695995097979903" lon="-5.817798273637891">
        <ele>1964.1099999999999</ele>
        <time>2019-03-12T11:00:02Z</time>
      </trkpt>
      <trkpt lat="31.695988811552525" lon="-5.817847307771444">
        <ele>1965.0699999999999</ele>
        <time>2019-03-12T11:00:03Z</time>
      </trkpt>
      <trkpt lat="31.695986045524478" lon="-5.817894078791142">
        <ele>1964.5899999999999</ele>
        <time>2019-03-12T11:00:13Z</time>
      </trkpt>
      <trkpt lat="31.695987973362207" lon="-5.817941268905997">
        <ele>1964.5899999999999</ele>
        <time>2019-03-12T11:00:26Z</time>
      </trkpt>
      <trkpt lat="31.696000043302774" lon="-5.818536970764399">
        <ele>1964.5899999999999</ele>
        <time>2019-03-12T11:00:38Z</time>
      </trkpt>
      <trkpt lat="31.695985542610288" lon="-5.818609306588769">
        <ele>1964.1099999999999</ele>
        <time>2019-03-12T11:00:39Z</time>
      </trkpt>
      <trkpt lat="31.695965426042676" lon="-5.818676697090268">
        <ele>1962.1900000000001</ele>
        <time>2019-03-12T11:00:49Z</time>
      </trkpt>
      <trkpt lat="31.695938520133495" lon="-5.81874081864953">
        <ele>1962.1900000000001</ele>
        <time>2019-03-12T11:00:50Z</time>
      </trkpt>
      <trkpt lat="31.695908596739173" lon="-5.818799659609795">
        <ele>1962.6700000000001</ele>
        <time>2019-03-12T11:00:51Z</time>
      </trkpt>
      <trkpt lat="31.695489417761564" lon="-5.819620499387384">
        <ele>1962.6700000000001</ele>
        <time>2019-03-12T11:00:52Z</time>
      </trkpt>
      <trkpt lat="31.695323707535863" lon="-5.820073708891869">
        <ele>1961.23</ele>
        <time>2019-03-12T11:00:53Z</time>
      </trkpt>
      <trkpt lat="31.695308284834027" lon="-5.82012165337801">
        <ele>1958.3399999999999</ele>
        <time>2019-03-12T11:00:54Z</time>
      </trkpt>
      <trkpt lat="31.695293113589287" lon="-5.820181919261813">
        <ele>1954.02</ele>
        <time>2019-03-12T11:00:55Z</time>
      </trkpt>
      <trkpt lat="31.694914922118187" lon="-5.821067215874791">
        <ele>1953.54</ele>
        <time>2019-03-12T11:00:56Z</time>
      </trkpt>
      <trkpt lat="31.694308323785663" lon="-5.822379654273391">
        <ele>1954.5</ele>
        <time>2019-03-12T11:00:57Z</time>
      </trkpt>
      <trkpt lat="31.693638861179352" lon="-5.823948998004198">
        <ele>1954.98</ele>
        <time>2019-03-12T11:00:59Z</time>
      </trkpt>
      <trkpt lat="31.693559903651476" lon="-5.824063494801521">
        <ele>1954.5</ele>
        <time>2019-03-12T11:01:00Z</time>
      </trkpt>
      <trkpt lat="31.692638732492924" lon="-5.825229836627841">
        <ele>1954.5</ele>
        <time>2019-03-12T11:01:03Z</time>
      </trkpt>
      <trkpt lat="31.692539993673563" lon="-5.825320612639189">
        <ele>1954.5</ele>
        <time>2019-03-12T11:01:04Z</time>
      </trkpt>
      <trkpt lat="31.692435722798109" lon="-5.825392361730337">
        <ele>1954.02</ele>
        <time>2019-03-12T11:01:06Z</time>
      </trkpt>
      <trkpt lat="31.692327847704291" lon="-5.825451202690601">
        <ele>1953.54</ele>
        <time>2019-03-12T11:01:07Z</time>
      </trkpt>
      <trkpt lat="31.692217206582427" lon="-5.825499901548028">
        <ele>1952.5699999999999</ele>
        <time>2019-03-12T11:01:19Z</time>
      </trkpt>
      <trkpt lat="31.692098686471581" lon="-5.825538709759712">
        <ele>1951.6099999999999</ele>
        <time>2019-03-12T11:01:20Z</time>
      </trkpt>
      <trkpt lat="31.69197496958077" lon="-5.825555138289928">
        <ele>1950.1700000000001</ele>
        <time>2019-03-12T11:01:21Z</time>
      </trkpt>
      <trkpt lat="31.691850246861577" lon="-5.825549019500613">
        <ele>1949.6900000000001</ele>
        <time>2019-03-12T11:01:25Z</time>
      </trkpt>
      <trkpt lat="31.691724853590131" lon="-5.825530746951699">
        <ele>1947.29</ele>
        <time>2019-03-12T11:01:26Z</time>
      </trkpt>
      <trkpt lat="31.691464763134718" lon="-5.825517252087593">
        <ele>1946.3299999999999</ele>
        <time>2019-03-12T11:01:27Z</time>
      </trkpt>
      <trkpt lat="31.691330820322037" lon="-5.825533177703619">
        <ele>1944.8800000000001</ele>
        <time>2019-03-12T11:01:28Z</time>
      </trkpt>
      <trkpt lat="31.690928572788835" lon="-5.825584139674902">
        <ele>1944.4000000000001</ele>
        <time>2019-03-12T11:01:29Z</time>
      </trkpt>
      <trkpt lat="31.690790858119726" lon="-5.825573243200779">
        <ele>1939.1199999999999</ele>
        <time>2019-03-12T11:01:30Z</time>
      </trkpt>
      <trkpt lat="31.690512495115399" lon="-5.825524795800448">
        <ele>1939.1199999999999</ele>
        <time>2019-03-12T11:01:31Z</time>
      </trkpt>
      <trkpt lat="31.690373020246625" lon="-5.825484059751034">
        <ele>1938.6400000000001</ele>
        <time>2019-03-12T11:01:32Z</time>
      </trkpt>
      <trkpt lat="31.688655819743872" lon="-5.82485449500382">
        <ele>1937.1900000000001</ele>
        <time>2019-03-12T11:01:33Z</time>
      </trkpt>
      <trkpt lat="31.688509220257401" lon="-5.824840245768428">
        <ele>1936.71</ele>
        <time>2019-03-12T11:01:34Z</time>
      </trkpt>
      <trkpt lat="31.68836647644639" lon="-5.82483840174973">
        <ele>1936.23</ele>
        <time>2019-03-12T11:01:35Z</time>
      </trkpt>
      <trkpt lat="31.687802206724882" lon="-5.82494392991066">
        <ele>1935.75</ele>
        <time>2019-03-12T11:01:36Z</time>
      </trkpt>
      <trkpt lat="31.687664156779647" lon="-5.825006626546383">
        <ele>1935.27</ele>
        <time>2019-03-12T11:01:37Z</time>
      </trkpt>
      <trkpt lat="31.687530716881156" lon="-5.825088350102305">
        <ele>1934.79</ele>
        <time>2019-03-12T11:01:38Z</time>
      </trkpt>
      <trkpt lat="31.687409514561296" lon="-5.82518826238811">
        <ele>1934.79</ele>
        <time>2019-03-12T11:01:39Z</time>
      </trkpt>
      <trkpt lat="31.687307339161634" lon="-5.8253079559654">
        <ele>1934.79</ele>
        <time>2019-03-12T11:01:40Z</time>
      </trkpt>
      <trkpt lat="31.687227794900537" lon="-5.825441563501954">
        <ele>1934.79</ele>
        <time>2019-03-12T11:01:41Z</time>
      </trkpt>
      <trkpt lat="31.687172306701541" lon="-5.825583385303617">
        <ele>1934.79</ele>
        <time>2019-03-12T11:01:42Z</time>
      </trkpt>
      <trkpt lat="31.687131570652127" lon="-5.825725793838501">
        <ele>1934.79</ele>
        <time>2019-03-12T11:01:43Z</time>
      </trkpt>
      <trkpt lat="31.687086811289191" lon="-5.825862502679229">
        <ele>1935.27</ele>
        <time>2019-03-12T11:01:44Z</time>
      </trkpt>
      <trkpt lat="31.687026880681515" lon="-5.825985381379724">
        <ele>1935.27</ele>
        <time>2019-03-12T11:01:45Z</time>
      </trkpt>
      <trkpt lat="31.686945492401719" lon="-5.826084958389401">
        <ele>1935.75</ele>
        <time>2019-03-12T11:01:46Z</time>
      </trkpt>
      <trkpt lat="31.686845496296883" lon="-5.826155869290233">
        <ele>1936.23</ele>
        <time>2019-03-12T11:01:47Z</time>
      </trkpt>
      <trkpt lat="31.686731921508908" lon="-5.826195348054171">
        <ele>1936.23</ele>
        <time>2019-03-12T11:01:48Z</time>
      </trkpt>
      <trkpt lat="31.686611054465175" lon="-5.826212028041482">
        <ele>1937.1900000000001</ele>
        <time>2019-03-12T11:01:49Z</time>
      </trkpt>
      <trkpt lat="31.686489265412092" lon="-5.826224181801081">
        <ele>1937.1900000000001</ele>
        <time>2019-03-12T11:01:50Z</time>
      </trkpt>
      <trkpt lat="31.686367057263851" lon="-5.826246058568358">
        <ele>1937.6700000000001</ele>
        <time>2019-03-12T11:01:51Z</time>
      </trkpt>
      <trkpt lat="31.686245938763022" lon="-5.826285621151328">
        <ele>1938.1600000000001</ele>
        <time>2019-03-12T11:01:52Z</time>
      </trkpt>
      <trkpt lat="31.686127251014113" lon="-5.826341612264514">
        <ele>1938.1600000000001</ele>
        <time>2019-03-12T11:01:53Z</time>
      </trkpt>
      <trkpt lat="31.686008563265204" lon="-5.826399950310588">
        <ele>1938.1600000000001</ele>
        <time>2019-03-12T11:01:58Z</time>
      </trkpt>
      <trkpt lat="31.685883840546012" lon="-5.826446134597063">
        <ele>1938.6400000000001</ele>
        <time>2019-03-12T11:01:59Z</time>
      </trkpt>
      <trkpt lat="31.685753921046853" lon="-5.826477985829115">
        <ele>1938.6400000000001</ele>
        <time>2019-03-12T11:02:00Z</time>
      </trkpt>
      <trkpt lat="31.685622660443187" lon="-5.826513608917594">
        <ele>1938.6400000000001</ele>
        <time>2019-03-12T11:02:01Z</time>
      </trkpt>
      <trkpt lat="31.685495171695948" lon="-5.826570522040129">
        <ele>1939.1199999999999</ele>
        <time>2019-03-12T11:02:02Z</time>
      </trkpt>
      <trkpt lat="31.685373047366738" lon="-5.826649311929941">
        <ele>1939.1199999999999</ele>
        <time>2019-03-12T11:02:03Z</time>
      </trkpt>
      <trkpt lat="31.685256538912654" lon="-5.826746374368668">
        <ele>1938.6400000000001</ele>
        <time>2019-03-12T11:02:04Z</time>
      </trkpt>
      <trkpt lat="31.685145227238536" lon="-5.826856261119247">
        <ele>1939.1199999999999</ele>
        <time>2019-03-12T11:02:05Z</time>
      </trkpt>
      <trkpt lat="31.685042297467589" lon="-5.826977379620075">
        <ele>1938.1600000000001</ele>
        <time>2019-03-12T11:02:06Z</time>
      </trkpt>
      <trkpt lat="31.684948252514005" lon="-5.827108891680837">
        <ele>1938.1600000000001</ele>
        <time>2019-03-12T11:02:07Z</time>
      </trkpt>
      <trkpt lat="31.684861164540052" lon="-5.827248115092516">
        <ele>1937.6700000000001</ele>
        <time>2019-03-12T11:02:08Z</time>
      </trkpt>
      <trkpt lat="31.6844442486763" lon="-5.827943226322532">
        <ele>1937.6700000000001</ele>
        <time>2019-03-12T11:02:10Z</time>
      </trkpt>
      <trkpt lat="31.684342660009861" lon="-5.828050347045064">
        <ele>1937.1900000000001</ele>
        <time>2019-03-12T11:02:11Z</time>
      </trkpt>
      <trkpt lat="31.684230174869299" lon="-5.828140703961253">
        <ele>1936.71</ele>
        <time>2019-03-12T11:02:26Z</time>
      </trkpt>
      <trkpt lat="31.684111822396517" lon="-5.828218571841717">
        <ele>1936.71</ele>
        <time>2019-03-12T11:02:32Z</time>
      </trkpt>
      <trkpt lat="31.68399129062891" lon="-5.828280681744218">
        <ele>1936.23</ele>
        <time>2019-03-12T11:02:33Z</time>
      </trkpt>
      <trkpt lat="31.683872770518064" lon="-5.828343126922846">
        <ele>1936.23</ele>
        <time>2019-03-12T11:02:34Z</time>
      </trkpt>
      <trkpt lat="31.683757267892361" lon="-5.828418899327517">
        <ele>1935.75</ele>
        <time>2019-03-12T11:02:43Z</time>
      </trkpt>
      <trkpt lat="31.683645620942116" lon="-5.828513950109482">
        <ele>1935.27</ele>
        <time>2019-03-12T11:02:44Z</time>
      </trkpt>
      <trkpt lat="31.683541433885694" lon="-5.828631380572915">
        <ele>1934.79</ele>
        <time>2019-03-12T11:02:45Z</time>
      </trkpt>
      <trkpt lat="31.683447305113077" lon="-5.828764736652374">
        <ele>1934.79</ele>
        <time>2019-03-12T11:02:50Z</time>
      </trkpt>
      <trkpt lat="31.683358456939459" lon="-5.828904882073402">
        <ele>1932.3900000000001</ele>
        <time>2019-03-12T11:02:52Z</time>
      </trkpt>
      <trkpt lat="31.683160895481706" lon="-5.829165643081069">
        <ele>1931.9100000000001</ele>
        <time>2019-03-12T11:02:53Z</time>
      </trkpt>
      <trkpt lat="31.683049248531461" lon="-5.82927418872714">
        <ele>1931.4300000000001</ele>
        <time>2019-03-12T11:02:54Z</time>
      </trkpt>
      <trkpt lat="31.681347722187638" lon="-5.830880831927061">
        <ele>1931.4300000000001</ele>
        <time>2019-03-12T11:03:04Z</time>
      </trkpt>
      <trkpt lat="31.680617406964302" lon="-5.831482652574778">
        <ele>1929.02</ele>
        <time>2019-03-12T11:03:14Z</time>
      </trkpt>
      <trkpt lat="31.680511375889182" lon="-5.831608381122351">
        <ele>1929.02</ele>
        <time>2019-03-12T11:03:22Z</time>
      </trkpt>
      <trkpt lat="31.680414313450456" lon="-5.831748526543379">
        <ele>1928.54</ele>
        <time>2019-03-12T11:03:23Z</time>
      </trkpt>
      <trkpt lat="31.679607974365354" lon="-5.833007404580712">
        <ele>1927.0999999999999</ele>
        <time>2019-03-12T11:03:24Z</time>
      </trkpt>
      <trkpt lat="31.679506385698915" lon="-5.833129277452827">
        <ele>1927.0999999999999</ele>
        <time>2019-03-12T11:03:25Z</time>
      </trkpt>
      <trkpt lat="31.679389122873545" lon="-5.833231117576361">
        <ele>1927.0999999999999</ele>
        <time>2019-03-12T11:03:26Z</time>
      </trkpt>
      <trkpt lat="31.678815968334675" lon="-5.833723973482847">
        <ele>1927.0999999999999</ele>
        <time>2019-03-12T11:03:27Z</time>
      </trkpt>
      <trkpt lat="31.67867599055171" lon="-5.833885408937931">
        <ele>1926.6199999999999</ele>
        <time>2019-03-12T11:03:28Z</time>
      </trkpt>
      <trkpt lat="31.678597703576088" lon="-5.833940897136927">
        <ele>1923.74</ele>
        <time>2019-03-12T11:03:35Z</time>
      </trkpt>
      <trkpt lat="31.678507933393121" lon="-5.833976436406374">
        <ele>1924.22</ele>
        <time>2019-03-12T11:03:36Z</time>
      </trkpt>
      <trkpt lat="31.677340250462294" lon="-5.834210542961955">
        <ele>1924.7</ele>
        <time>2019-03-12T11:03:37Z</time>
      </trkpt>
      <trkpt lat="31.675818599760532" lon="-5.834176931530237">
        <ele>1924.7</ele>
        <time>2019-03-12T11:03:38Z</time>
      </trkpt>
      <trkpt lat="31.674537174403667" lon="-5.834437943994999">
        <ele>1925.1800000000001</ele>
        <time>2019-03-12T11:03:39Z</time>
      </trkpt>
      <trkpt lat="31.67437850497663" lon="-5.834459820762277">
        <ele>1925.6600000000001</ele>
        <time>2019-03-12T11:03:40Z</time>
      </trkpt>
      <trkpt lat="31.674219416454434" lon="-5.83446241915226">
        <ele>1926.6199999999999</ele>
        <time>2019-03-12T11:03:41Z</time>
      </trkpt>
      <trkpt lat="31.674059573560953" lon="-5.834444733336568">
        <ele>1927.5799999999999</ele>
        <time>2019-03-12T11:03:43Z</time>
      </trkpt>
      <trkpt lat="31.673899982124567" lon="-5.834406847134233">
        <ele>1931.9100000000001</ele>
        <time>2019-03-12T11:03:45Z</time>
      </trkpt>
      <trkpt lat="31.673740055412054" lon="-5.83435689099133">
        <ele>1931.9100000000001</ele>
        <time>2019-03-12T11:03:46Z</time>
      </trkpt>
      <trkpt lat="31.673581637442112" lon="-5.834299642592669">
        <ele>1932.3900000000001</ele>
        <time>2019-03-12T11:03:55Z</time>
      </trkpt>
      <trkpt lat="31.672646552324295" lon="-5.833669239655137">
        <ele>1932.3900000000001</ele>
        <time>2019-03-12T11:03:56Z</time>
      </trkpt>
      <trkpt lat="31.672557787969708" lon="-5.833534877747297">
        <ele>1932.3900000000001</ele>
        <time>2019-03-12T11:03:57Z</time>
      </trkpt>
      <trkpt lat="31.672482434660196" lon="-5.833388362079859">
        <ele>1932.8699999999999</ele>
        <time>2019-03-12T11:03:58Z</time>
      </trkpt>
      <trkpt lat="31.672423928976059" lon="-5.833230447024107">
        <ele>1932.3900000000001</ele>
        <time>2019-03-12T11:03:59Z</time>
      </trkpt>
      <trkpt lat="31.672379923984408" lon="-5.833069933578372">
        <ele>1932.3900000000001</ele>
        <time>2019-03-12T11:04:00Z</time>
      </trkpt>
      <trkpt lat="31.672343714162707" lon="-5.832908162847161">
        <ele>1931.9100000000001</ele>
        <time>2019-03-12T11:04:01Z</time>
      </trkpt>
      <trkpt lat="31.672319574281573" lon="-5.832743123173714">
        <ele>1931.4300000000001</ele>
        <time>2019-03-12T11:04:02Z</time>
      </trkpt>
      <trkpt lat="31.672289231792092" lon="-5.832425532862544">
        <ele>1930.46</ele>
        <time>2019-03-12T11:04:03Z</time>
      </trkpt>
      <trkpt lat="31.672297529876232" lon="-5.832116156816483">
        <ele>1930.46</ele>
        <time>2019-03-12T11:04:04Z</time>
      </trkpt>
      <trkpt lat="31.672317311167717" lon="-5.831963522359729">
        <ele>1929.98</ele>
        <time>2019-03-12T11:04:05Z</time>
      </trkpt>
      <trkpt lat="31.672530714422464" lon="-5.830723838880658">
        <ele>1929.98</ele>
        <time>2019-03-12T11:04:06Z</time>
      </trkpt>
      <trkpt lat="31.672527696937323" lon="-5.830605905503035">
        <ele>1929.5</ele>
        <time>2019-03-12T11:04:07Z</time>
      </trkpt>
      <trkpt lat="31.672509927302599" lon="-5.830499790608883">
        <ele>1929.5</ele>
        <time>2019-03-12T11:04:08Z</time>
      </trkpt>
      <trkpt lat="31.672474052757025" lon="-5.830412283539772">
        <ele>1929.02</ele>
        <time>2019-03-12T11:04:18Z</time>
      </trkpt>
      <trkpt lat="31.672415127977729" lon="-5.830344893038273">
        <ele>1929.02</ele>
        <time>2019-03-12T11:04:23Z</time>
      </trkpt>
      <trkpt lat="31.672339187934995" lon="-5.830292254686356">
        <ele>1929.02</ele>
        <time>2019-03-12T11:04:24Z</time>
      </trkpt>
      <trkpt lat="31.672257212921977" lon="-5.830247662961483">
        <ele>1929.02</ele>
        <time>2019-03-12T11:04:25Z</time>
      </trkpt>
      <trkpt lat="31.67216501198709" lon="-5.830216147005558">
        <ele>1928.54</ele>
        <time>2019-03-12T11:04:26Z</time>
      </trkpt>
      <trkpt lat="31.672066273167729" lon="-5.830202903598547">
        <ele>1928.54</ele>
        <time>2019-03-12T11:04:27Z</time>
      </trkpt>
      <trkpt lat="31.671963343396783" lon="-5.830207597464323">
        <ele>1928.54</ele>
        <time>2019-03-12T11:04:28Z</time>
      </trkpt>
      <trkpt lat="31.671857312321663" lon="-5.830243639647961">
        <ele>1928.54</ele>
        <time>2019-03-12T11:04:29Z</time>
      </trkpt>
      <trkpt lat="31.671756394207478" lon="-5.830309269949794">
        <ele>1924.7</ele>
        <time>2019-03-12T11:04:30Z</time>
      </trkpt>
      <trkpt lat="31.671662768349051" lon="-5.830401135608554">
        <ele>1919.8900000000001</ele>
        <time>2019-03-12T11:04:31Z</time>
      </trkpt>
      <trkpt lat="31.671573165804148" lon="-5.830508843064308">
        <ele>1918.9300000000001</ele>
        <time>2019-03-12T11:04:32Z</time>
      </trkpt>
      <trkpt lat="31.670569432899356" lon="-5.831819605082274">
        <ele>1918.45</ele>
        <time>2019-03-12T11:04:33Z</time>
      </trkpt>
      <trkpt lat="31.670003905892372" lon="-5.832547321915627">
        <ele>1917.97</ele>
        <time>2019-03-12T11:04:40Z</time>
      </trkpt>
      <trkpt lat="31.669878261163831" lon="-5.832656286656857">
        <ele>1917.49</ele>
        <time>2019-03-12T11:04:41Z</time>
      </trkpt>
      <trkpt lat="31.669750772416592" lon="-5.832742704078555">
        <ele>1916.53</ele>
        <time>2019-03-12T11:04:42Z</time>
      </trkpt>
      <trkpt lat="31.669623618945479" lon="-5.832806155085564">
        <ele>1916.04</ele>
        <time>2019-03-12T11:04:43Z</time>
      </trkpt>
      <trkpt lat="31.669497890397906" lon="-5.832841610535979">
        <ele>1915.5599999999999</ele>
        <time>2019-03-12T11:04:44Z</time>
      </trkpt>
      <trkpt lat="31.669371826574206" lon="-5.832844460383058">
        <ele>1915.0799999999999</ele>
        <time>2019-03-12T11:04:52Z</time>
      </trkpt>
      <trkpt lat="31.669246098026633" lon="-5.832815458998084">
        <ele>1914.5999999999999</ele>
        <time>2019-03-12T11:04:53Z</time>
      </trkpt>
      <trkpt lat="31.669126823544502" lon="-5.8327541872859">
        <ele>1914.1199999999999</ele>
        <time>2019-03-12T11:04:54Z</time>
      </trkpt>
      <trkpt lat="31.669013500213623" lon="-5.832668608054519">
        <ele>1914.5999999999999</ele>
        <time>2019-03-12T11:04:55Z</time>
      </trkpt>
      <trkpt lat="31.668905625119805" lon="-5.832565343007445">
        <ele>1915.0799999999999</ele>
        <time>2019-03-12T11:04:56Z</time>
      </trkpt>
      <trkpt lat="31.668797498568892" lon="-5.832453109323978">
        <ele>1915.5599999999999</ele>
        <time>2019-03-12T11:04:57Z</time>
      </trkpt>
      <trkpt lat="31.668051341548562" lon="-5.831715082749724">
        <ele>1916.53</ele>
        <time>2019-03-12T11:04:58Z</time>
      </trkpt>
      <trkpt lat="31.667978502810001" lon="-5.831598239019513">
        <ele>1917.49</ele>
        <time>2019-03-12T11:04:59Z</time>
      </trkpt>
      <trkpt lat="31.667919075116515" lon="-5.831470834091306">
        <ele>1925.6600000000001</ele>
        <time>2019-03-12T11:05:03Z</time>
      </trkpt>
      <trkpt lat="31.667872220277786" lon="-5.831332867965102">
        <ele>1926.6199999999999</ele>
        <time>2019-03-12T11:05:04Z</time>
      </trkpt>
      <trkpt lat="31.667831819504499" lon="-5.831190710887313">
        <ele>1928.0599999999999</ele>
        <time>2019-03-12T11:05:05Z</time>
      </trkpt>
      <trkpt lat="31.667421609163284" lon="-5.830175410956144">
        <ele>1929.02</ele>
        <time>2019-03-12T11:05:06Z</time>
      </trkpt>
      <trkpt lat="31.667343741282821" lon="-5.830089161172509">
        <ele>1930.46</ele>
        <time>2019-03-12T11:05:07Z</time>
      </trkpt>
      <trkpt lat="31.667252378538251" lon="-5.830031828954816">
        <ele>1931.4300000000001</ele>
        <time>2019-03-12T11:05:08Z</time>
      </trkpt>
      <trkpt lat="31.667154980823398" lon="-5.830002995207906">
        <ele>1932.8699999999999</ele>
        <time>2019-03-12T11:05:09Z</time>
      </trkpt>
      <trkpt lat="31.667059427127242" lon="-5.829997798427939">
        <ele>1933.8299999999999</ele>
        <time>2019-03-12T11:05:13Z</time>
      </trkpt>
      <trkpt lat="31.666967896744609" lon="-5.830014981329441">
        <ele>1936.23</ele>
        <time>2019-03-12T11:05:14Z</time>
      </trkpt>
      <trkpt lat="31.666879970580339" lon="-5.830052616074681">
        <ele>1936.71</ele>
        <time>2019-03-12T11:05:15Z</time>
      </trkpt>
      <trkpt lat="31.666800174862146" lon="-5.830099722370505">
        <ele>1938.1600000000001</ele>
        <time>2019-03-12T11:05:16Z</time>
      </trkpt>
      <trkpt lat="31.666491804644465" lon="-5.83026853390038">
        <ele>1939.5999999999999</ele>
        <time>2019-03-12T11:05:17Z</time>
      </trkpt>
      <trkpt lat="31.666429024189711" lon="-5.83033349364996">
        <ele>1941.04</ele>
        <time>2019-03-12T11:05:18Z</time>
      </trkpt>
      <trkpt lat="31.666399352252483" lon="-5.830419827252626">
        <ele>1942.48</ele>
        <time>2019-03-12T11:05:19Z</time>
      </trkpt>
      <trkpt lat="31.666410248726606" lon="-5.830510519444943">
        <ele>1943.4400000000001</ele>
        <time>2019-03-12T11:05:20Z</time>
      </trkpt>
      <trkpt lat="31.666458947584033" lon="-5.830583274364471">
        <ele>1946.3299999999999</ele>
        <time>2019-03-12T11:05:21Z</time>
      </trkpt>
      <trkpt lat="31.666532708331943" lon="-5.830632643774152">
        <ele>1946.8099999999999</ele>
        <time>2019-03-12T11:05:29Z</time>
      </trkpt>
      <trkpt lat="31.666617197915912" lon="-5.830667177215219">
        <ele>1947.29</ele>
        <time>2019-03-12T11:05:30Z</time>
      </trkpt>
      <trkpt lat="31.666999412700534" lon="-5.830853171646595">
        <ele>1948.25</ele>
        <time>2019-03-12T11:05:31Z</time>
      </trkpt>
      <trkpt lat="31.667083231732249" lon="-5.830929279327393">
        <ele>1949.21</ele>
        <time>2019-03-12T11:05:32Z</time>
      </trkpt>
      <trkpt lat="31.667142827063799" lon="-5.831020222976804">
        <ele>1950.1700000000001</ele>
        <time>2019-03-12T11:05:33Z</time>
      </trkpt>
      <trkpt lat="31.667168056592345" lon="-5.831117788329721">
        <ele>1951.6099999999999</ele>
        <time>2019-03-12T11:05:34Z</time>
      </trkpt>
      <trkpt lat="31.667151879519224" lon="-5.831206468865275">
        <ele>1952.0899999999999</ele>
        <time>2019-03-12T11:05:35Z</time>
      </trkpt>
      <trkpt lat="31.667096307501197" lon="-5.831271093338728">
        <ele>1953.0599999999999</ele>
        <time>2019-03-12T11:05:36Z</time>
      </trkpt>
      <trkpt lat="31.667012153193355" lon="-5.831303615123034">
        <ele>1959.78</ele>
        <time>2019-03-12T11:05:41Z</time>
      </trkpt>
      <trkpt lat="31.666917270049453" lon="-5.831313757225871">
        <ele>1961.23</ele>
        <time>2019-03-12T11:05:42Z</time>
      </trkpt>
      <trkpt lat="31.666821548715234" lon="-5.831318786367774">
        <ele>1962.6700000000001</ele>
        <time>2019-03-12T11:05:43Z</time>
      </trkpt>
      <trkpt lat="31.665834160521626" lon="-5.831374861299992">
        <ele>1964.5899999999999</ele>
        <time>2019-03-12T11:05:44Z</time>
      </trkpt>
      <trkpt lat="31.665675407275558" lon="-5.831361366435885">
        <ele>1965.55</ele>
        <time>2019-03-12T11:05:45Z</time>
      </trkpt>
      <trkpt lat="31.665515312924981" lon="-5.831312164664269">
        <ele>1966.99</ele>
        <time>2019-03-12T11:05:46Z</time>
      </trkpt>
      <trkpt lat="31.66535790078342" lon="-5.831235637888312">
        <ele>1968.4400000000001</ele>
        <time>2019-03-12T11:05:53Z</time>
      </trkpt>
      <trkpt lat="31.665209457278252" lon="-5.831143772229552">
        <ele>1969.8800000000001</ele>
        <time>2019-03-12T11:05:54Z</time>
      </trkpt>
      <trkpt lat="31.665072999894619" lon="-5.831040507182479">
        <ele>1979.97</ele>
        <time>2019-03-12T11:05:55Z</time>
      </trkpt>
      <trkpt lat="31.664943918585777" lon="-5.830926429480314">
        <ele>1981.9000000000001</ele>
        <time>2019-03-12T11:05:56Z</time>
      </trkpt>
      <trkpt lat="31.664821291342378" lon="-5.830805562436581">
        <ele>1983.8199999999999</ele>
        <time>2019-03-12T11:05:57Z</time>
      </trkpt>
      <trkpt lat="31.664227601140738" lon="-5.830198796465993">
        <ele>1985.26</ele>
        <time>2019-03-12T11:05:58Z</time>
      </trkpt>
      <trkpt lat="31.664101704955101" lon="-5.830119587481022">
        <ele>1986.7</ele>
        <time>2019-03-12T11:05:59Z</time>
      </trkpt>
      <trkpt lat="31.663973797112703" lon="-5.830075247213244">
        <ele>1988.1400000000001</ele>
        <time>2019-03-12T11:06:00Z</time>
      </trkpt>
      <trkpt lat="31.663847649469972" lon="-5.830055885016918">
        <ele>1999.2</ele>
        <time>2019-03-12T11:06:01Z</time>
      </trkpt>
      <trkpt lat="31.66372736915946" lon="-5.830050436779857">
        <ele>1999.6800000000001</ele>
        <time>2019-03-12T11:06:02Z</time>
      </trkpt>
      <trkpt lat="31.663609687238932" lon="-5.830051023513079">
        <ele>2000.6400000000001</ele>
        <time>2019-03-12T11:06:03Z</time>
      </trkpt>
      <trkpt lat="31.662848107516766" lon="-5.830247411504388">
        <ele>2001.1199999999999</ele>
        <time>2019-03-12T11:06:04Z</time>
      </trkpt>
      <trkpt lat="31.662779795005918" lon="-5.830298624932766">
        <ele>2001.5999999999999</ele>
        <time>2019-03-12T11:06:08Z</time>
      </trkpt>
      <trkpt lat="31.66273009032011" lon="-5.830369703471661">
        <ele>2002.0799999999999</ele>
        <time>2019-03-12T11:06:09Z</time>
      </trkpt>
      <trkpt lat="31.662701675668359" lon="-5.830460647121072">
        <ele>2002.0799999999999</ele>
        <time>2019-03-12T11:06:10Z</time>
      </trkpt>
      <trkpt lat="31.662701005116105" lon="-5.830562487244606">
        <ele>2002.0799999999999</ele>
        <time>2019-03-12T11:06:19Z</time>
      </trkpt>
      <trkpt lat="31.662727743387222" lon="-5.830668015405536">
        <ele>2002.0799999999999</ele>
        <time>2019-03-12T11:06:21Z</time>
      </trkpt>
      <trkpt lat="31.662771999835968" lon="-5.830776896327734">
        <ele>2002.0799999999999</ele>
        <time>2019-03-12T11:06:26Z</time>
      </trkpt>
      <trkpt lat="31.662827990949154" lon="-5.830886699259281">
        <ele>2002.0799999999999</ele>
        <time>2019-03-12T11:06:29Z</time>
      </trkpt>
      <trkpt lat="31.662899740040302" lon="-5.830997005105019">
        <ele>2002.0799999999999</ele>
        <time>2019-03-12T11:06:30Z</time>
      </trkpt>
      <trkpt lat="31.662984983995557" lon="-5.831106305122376">
        <ele>1999.6800000000001</ele>
        <time>2019-03-12T11:06:31Z</time>
      </trkpt>
      <trkpt lat="31.66308187879622" lon="-5.83121644333005">
        <ele>1998.72</ele>
        <time>2019-03-12T11:06:34Z</time>
      </trkpt>
      <trkpt lat="31.663188245147467" lon="-5.83132884465158">
        <ele>1998.24</ele>
        <time>2019-03-12T11:06:35Z</time>
      </trkpt>
      <trkpt lat="31.663631899282336" lon="-5.831813402473927">
        <ele>1990.55</ele>
        <time>2019-03-12T11:06:37Z</time>
      </trkpt>
      <trkpt lat="31.663722759112716" lon="-5.831954134628177">
        <ele>1988.6199999999999</ele>
        <time>2019-03-12T11:06:38Z</time>
      </trkpt>
      <trkpt lat="31.663798531517386" lon="-5.832114815711975">
        <ele>1984.78</ele>
        <time>2019-03-12T11:06:39Z</time>
      </trkpt>
      <trkpt lat="31.664231792092323" lon="-5.833783149719238">
        <ele>1984.3</ele>
        <time>2019-03-12T11:06:43Z</time>
      </trkpt>
      <trkpt lat="31.664211172610521" lon="-5.834168717265129">
        <ele>1983.8199999999999</ele>
        <time>2019-03-12T11:06:45Z</time>
      </trkpt>
      <trkpt lat="31.664078654721379" lon="-5.834934320300818">
        <ele>1983.8199999999999</ele>
        <time>2019-03-12T11:06:46Z</time>
      </trkpt>
      <trkpt lat="31.663952842354774" lon="-5.835260460153222">
        <ele>1984.78</ele>
        <time>2019-03-12T11:06:50Z</time>
      </trkpt>
      <trkpt lat="31.663897354155779" lon="-5.835349643602967">
        <ele>1985.26</ele>
        <time>2019-03-12T11:06:51Z</time>
      </trkpt>
      <trkpt lat="31.663830215111375" lon="-5.835433378815651">
        <ele>1986.22</ele>
        <time>2019-03-12T11:06:52Z</time>
      </trkpt>
      <trkpt lat="31.663636425510049" lon="-5.835677376016974">
        <ele>1986.22</ele>
        <time>2019-03-12T11:06:53Z</time>
      </trkpt>
      <trkpt lat="31.66358470916748" lon="-5.83576999604702">
        <ele>1986.7</ele>
        <time>2019-03-12T11:06:54Z</time>
      </trkpt>
      <trkpt lat="31.663481695577502" lon="-5.835957499220967">
        <ele>1988.1400000000001</ele>
        <time>2019-03-12T11:07:03Z</time>
      </trkpt>
      <trkpt lat="31.663411036133766" lon="-5.836047772318125">
        <ele>1989.5899999999999</ele>
        <time>2019-03-12T11:07:04Z</time>
      </trkpt>
      <trkpt lat="31.663330569863319" lon="-5.83613452501595">
        <ele>1990.0699999999999</ele>
        <time>2019-03-12T11:07:05Z</time>
      </trkpt>
      <trkpt lat="31.662980373948812" lon="-5.836468124762178">
        <ele>1992.47</ele>
        <time>2019-03-12T11:07:06Z</time>
      </trkpt>
      <trkpt lat="31.662828326225281" lon="-5.836639786139131">
        <ele>1993.4300000000001</ele>
        <time>2019-03-12T11:07:07Z</time>
      </trkpt>
      <trkpt lat="31.662733191624284" lon="-5.836699968203902">
        <ele>1993.9100000000001</ele>
        <time>2019-03-12T11:07:08Z</time>
      </trkpt>
      <trkpt lat="31.662312252447009" lon="-5.836909012869">
        <ele>1993.9100000000001</ele>
        <time>2019-03-12T11:07:15Z</time>
      </trkpt>
      <trkpt lat="31.662197168916464" lon="-5.83694807253778">
        <ele>1994.8699999999999</ele>
        <time>2019-03-12T11:07:16Z</time>
      </trkpt>
      <trkpt lat="31.66207630187273" lon="-5.836971290409565">
        <ele>2001.5999999999999</ele>
        <time>2019-03-12T11:07:17Z</time>
      </trkpt>
      <trkpt lat="31.661952752619982" lon="-5.83698227070272">
        <ele>2002.5599999999999</ele>
        <time>2019-03-12T11:07:18Z</time>
      </trkpt>
      <trkpt lat="31.661824677139521" lon="-5.83697933703661">
        <ele>2003.04</ele>
        <time>2019-03-12T11:07:19Z</time>
      </trkpt>
      <trkpt lat="31.660675350576639" lon="-5.836875904351473">
        <ele>2004.01</ele>
        <time>2019-03-12T11:07:20Z</time>
      </trkpt>
      <trkpt lat="31.660573007538915" lon="-5.836911527439952">
        <ele>2004.49</ele>
        <time>2019-03-12T11:07:21Z</time>
      </trkpt>
      <trkpt lat="31.660481644794345" lon="-5.83698034286499">
        <ele>2005.45</ele>
        <time>2019-03-12T11:07:22Z</time>
      </trkpt>
      <trkpt lat="31.660403273999691" lon="-5.837076064199209">
        <ele>2010.73</ele>
        <time>2019-03-12T11:07:23Z</time>
      </trkpt>
      <trkpt lat="31.660338062793016" lon="-5.837189555168152">
        <ele>2011.22</ele>
        <time>2019-03-12T11:07:24Z</time>
      </trkpt>
      <trkpt lat="31.660274611786008" lon="-5.837308410555124">
        <ele>2012.1800000000001</ele>
        <time>2019-03-12T11:07:26Z</time>
      </trkpt>
      <trkpt lat="31.659745797514915" lon="-5.83809245377779">
        <ele>2012.6600000000001</ele>
        <time>2019-03-12T11:07:27Z</time>
      </trkpt>
      <trkpt lat="31.659669354557991" lon="-5.838165627792478">
        <ele>2013.6199999999999</ele>
        <time>2019-03-12T11:07:28Z</time>
      </trkpt>
      <trkpt lat="31.659577824175358" lon="-5.838212566450238">
        <ele>2014.5799999999999</ele>
        <time>2019-03-12T11:07:29Z</time>
      </trkpt>
      <trkpt lat="31.659480426460505" lon="-5.838228240609169">
        <ele>2015.0599999999999</ele>
        <time>2019-03-12T11:07:30Z</time>
      </trkpt>
      <trkpt lat="31.659382693469524" lon="-5.838207369670272">
        <ele>2016.02</ele>
        <time>2019-03-12T11:07:31Z</time>
      </trkpt>
      <trkpt lat="31.659295437857509" lon="-5.838153641670942">
        <ele>2016.5</ele>
        <time>2019-03-12T11:07:32Z</time>
      </trkpt>
      <trkpt lat="31.659217569977045" lon="-5.838075270876288">
        <ele>2017.46</ele>
        <time>2019-03-12T11:07:33Z</time>
      </trkpt>
      <trkpt lat="31.65914841927588" lon="-5.837978962808847">
        <ele>2019.3900000000001</ele>
        <time>2019-03-12T11:07:34Z</time>
      </trkpt>
      <trkpt lat="31.659083208069205" lon="-5.837869411334395">
        <ele>2020.3499999999999</ele>
        <time>2019-03-12T11:07:40Z</time>
      </trkpt>
      <trkpt lat="31.659019505605102" lon="-5.837756088003516">
        <ele>2021.3099999999999</ele>
        <time>2019-03-12T11:07:41Z</time>
      </trkpt>
      <trkpt lat="31.658892938867211" lon="-5.837554335594177">
        <ele>2022.27</ele>
        <time>2019-03-12T11:07:42Z</time>
      </trkpt>
      <trkpt lat="31.658818759024143" lon="-5.83749239332974">
        <ele>2023.23</ele>
        <time>2019-03-12T11:07:43Z</time>
      </trkpt>
      <trkpt lat="31.658740136772394" lon="-5.837473534047604">
        <ele>2024.1900000000001</ele>
        <time>2019-03-12T11:07:44Z</time>
      </trkpt>
      <trkpt lat="31.658672662451863" lon="-5.837497841566801">
        <ele>2025.1500000000001</ele>
        <time>2019-03-12T11:07:45Z</time>
      </trkpt>
      <trkpt lat="31.658620610833168" lon="-5.837549809366465">
        <ele>2025.6400000000001</ele>
        <time>2019-03-12T11:07:46Z</time>
      </trkpt>
      <trkpt lat="31.658576857298613" lon="-5.837620217353106">
        <ele>2026.5999999999999</ele>
        <time>2019-03-12T11:07:47Z</time>
      </trkpt>
      <trkpt lat="31.658538803458214" lon="-5.837710658088327">
        <ele>2030.4400000000001</ele>
        <time>2019-03-12T11:07:48Z</time>
      </trkpt>
      <trkpt lat="31.658503180369735" lon="-5.837819036096335">
        <ele>2030.9200000000001</ele>
        <time>2019-03-12T11:07:49Z</time>
      </trkpt>
      <trkpt lat="31.658465377986431" lon="-5.837940825149417">
        <ele>2031.4000000000001</ele>
        <time>2019-03-12T11:07:50Z</time>
      </trkpt>
      <trkpt lat="31.65823713876307" lon="-5.838733501732349">
        <ele>2032.3599999999999</ele>
        <time>2019-03-12T11:07:51Z</time>
      </trkpt>
      <trkpt lat="31.658182656392455" lon="-5.838858895003796">
        <ele>2032.8399999999999</ele>
        <time>2019-03-12T11:07:52Z</time>
      </trkpt>
      <trkpt lat="31.658115517348051" lon="-5.838977582752705">
        <ele>2033.8099999999999</ele>
        <time>2019-03-12T11:07:54Z</time>
      </trkpt>
      <trkpt lat="31.658046366646886" lon="-5.839096438139677">
        <ele>2034.77</ele>
        <time>2019-03-12T11:07:55Z</time>
      </trkpt>
      <trkpt lat="31.657985849305987" lon="-5.839224262163043">
        <ele>2035.73</ele>
        <time>2019-03-12T11:07:56Z</time>
      </trkpt>
      <trkpt lat="31.657936731353402" lon="-5.839356360957027">
        <ele>2036.6900000000001</ele>
        <time>2019-03-12T11:08:00Z</time>
      </trkpt>
      <trkpt lat="31.657886188477278" lon="-5.839474881067872">
        <ele>2037.1700000000001</ele>
        <time>2019-03-12T11:08:01Z</time>
      </trkpt>
      <trkpt lat="31.657817624509335" lon="-5.83957102149725">
        <ele>2038.1300000000001</ele>
        <time>2019-03-12T11:08:02Z</time>
      </trkpt>
      <trkpt lat="31.657735900953412" lon="-5.839645704254508">
        <ele>2038.6099999999999</ele>
        <time>2019-03-12T11:08:03Z</time>
      </trkpt>
      <trkpt lat="31.657657781615853" lon="-5.839707646518946">
        <ele>2039.5699999999999</ele>
        <time>2019-03-12T11:08:04Z</time>
      </trkpt>
      <trkpt lat="31.657587122172117" lon="-5.839770510792732">
        <ele>2040.54</ele>
        <time>2019-03-12T11:08:05Z</time>
      </trkpt>
      <trkpt lat="31.657526604831219" lon="-5.83984368480742">
        <ele>2041.5</ele>
        <time>2019-03-12T11:08:06Z</time>
      </trkpt>
      <trkpt lat="31.657478744164109" lon="-5.839929264038801">
        <ele>2042.46</ele>
        <time>2019-03-12T11:08:07Z</time>
      </trkpt>
      <trkpt lat="31.657383274286985" lon="-5.840121880173683">
        <ele>2045.3399999999999</ele>
        <time>2019-03-12T11:08:08Z</time>
      </trkpt>
      <trkpt lat="31.657315967604518" lon="-5.840209051966667">
        <ele>2045.8199999999999</ele>
        <time>2019-03-12T11:08:09Z</time>
      </trkpt>
      <trkpt lat="31.657233908772469" lon="-5.840279627591372">
        <ele>2046.3</ele>
        <time>2019-03-12T11:08:10Z</time>
      </trkpt>
      <trkpt lat="31.656882120296359" lon="-5.840504933148623">
        <ele>2046.3</ele>
        <time>2019-03-12T11:08:11Z</time>
      </trkpt>
      <trkpt lat="31.656817747280002" lon="-5.840576346963644">
        <ele>2046.78</ele>
        <time>2019-03-12T11:08:12Z</time>
      </trkpt>
      <trkpt lat="31.656774329021573" lon="-5.840665781870484">
        <ele>2046.78</ele>
        <time>2019-03-12T11:08:13Z</time>
      </trkpt>
      <trkpt lat="31.656751781702042" lon="-5.84077307023108">
        <ele>2047.26</ele>
        <time>2019-03-12T11:08:14Z</time>
      </trkpt>
      <trkpt lat="31.656741974875331" lon="-5.840893434360623">
        <ele>2047.75</ele>
        <time>2019-03-12T11:08:15Z</time>
      </trkpt>
      <trkpt lat="31.656733257696033" lon="-5.841024359688163">
        <ele>2047.75</ele>
        <time>2019-03-12T11:08:17Z</time>
      </trkpt>
      <trkpt lat="31.65671749971807" lon="-5.841156458482146">
        <ele>2048.23</ele>
        <time>2019-03-12T11:08:18Z</time>
      </trkpt>
      <trkpt lat="31.65668866597116" lon="-5.841283276677132">
        <ele>2048.23</ele>
        <time>2019-03-12T11:08:19Z</time>
      </trkpt>
      <trkpt lat="31.656648684293032" lon="-5.841406909748912">
        <ele>2048.23</ele>
        <time>2019-03-12T11:08:20Z</time>
      </trkpt>
      <trkpt lat="31.656600823625922" lon="-5.841529285535216">
        <ele>2047.75</ele>
        <time>2019-03-12T11:08:21Z</time>
      </trkpt>
      <trkpt lat="31.656549861654639" lon="-5.841645039618015">
        <ele>2047.75</ele>
        <time>2019-03-12T11:08:22Z</time>
      </trkpt>
      <trkpt lat="31.656506275758147" lon="-5.841764314100146">
        <ele>2047.26</ele>
        <time>2019-03-12T11:08:23Z</time>
      </trkpt>
      <trkpt lat="31.65647660382092" lon="-5.841891635209322">
        <ele>2047.26</ele>
        <time>2019-03-12T11:08:26Z</time>
      </trkpt>
      <trkpt lat="31.656472748145461" lon="-5.842029014602304">
        <ele>2046.78</ele>
        <time>2019-03-12T11:08:27Z</time>
      </trkpt>
      <trkpt lat="31.656492697075009" lon="-5.842173099517822">
        <ele>2046.78</ele>
        <time>2019-03-12T11:08:28Z</time>
      </trkpt>
      <trkpt lat="31.656522285193205" lon="-5.842324811965227">
        <ele>2046.78</ele>
        <time>2019-03-12T11:08:30Z</time>
      </trkpt>
      <trkpt lat="31.656569056212902" lon="-5.842629410326481">
        <ele>2046.78</ele>
        <time>2019-03-12T11:08:31Z</time>
      </trkpt>
      <trkpt lat="31.656567882746458" lon="-5.842776009812951">
        <ele>2046.78</ele>
        <time>2019-03-12T11:08:32Z</time>
      </trkpt>
      <trkpt lat="31.656548520550132" lon="-5.842916239053011">
        <ele>2047.26</ele>
        <time>2019-03-12T11:08:33Z</time>
      </trkpt>
      <trkpt lat="31.656507281586528" lon="-5.843051774427295">
        <ele>2047.26</ele>
        <time>2019-03-12T11:08:34Z</time>
      </trkpt>
      <trkpt lat="31.656451374292374" lon="-5.843182113021612">
        <ele>2048.23</ele>
        <time>2019-03-12T11:08:35Z</time>
      </trkpt>
      <trkpt lat="31.656388342380524" lon="-5.843307338654995">
        <ele>2048.23</ele>
        <time>2019-03-12T11:08:36Z</time>
      </trkpt>
      <trkpt lat="31.656319191679358" lon="-5.843426780775189">
        <ele>2049.1900000000001</ele>
        <time>2019-03-12T11:08:37Z</time>
      </trkpt>
      <trkpt lat="31.656114002689719" lon="-5.843767337501049">
        <ele>2050.1500000000001</ele>
        <time>2019-03-12T11:08:38Z</time>
      </trkpt>
      <trkpt lat="31.656073182821274" lon="-5.843896251171827">
        <ele>2051.1100000000001</ele>
        <time>2019-03-12T11:08:39Z</time>
      </trkpt>
      <trkpt lat="31.65605591610074" lon="-5.844033379107714">
        <ele>2051.5900000000001</ele>
        <time>2019-03-12T11:08:40Z</time>
      </trkpt>
      <trkpt lat="31.656028926372528" lon="-5.844318950548768">
        <ele>2052.0700000000002</ele>
        <time>2019-03-12T11:08:43Z</time>
      </trkpt>
      <trkpt lat="31.655990034341812" lon="-5.844458676874638">
        <ele>2052.0700000000002</ele>
        <time>2019-03-12T11:08:44Z</time>
      </trkpt>
      <trkpt lat="31.65592834353447" lon="-5.84458876401186">
        <ele>2052.5500000000002</ele>
        <time>2019-03-12T11:08:45Z</time>
      </trkpt>
      <trkpt lat="31.655843183398247" lon="-5.844695381820202">
        <ele>2052.5500000000002</ele>
        <time>2019-03-12T11:08:46Z</time>
      </trkpt>
      <trkpt lat="31.655738325789571" lon="-5.844771573320031">
        <ele>2053.0300000000002</ele>
        <time>2019-03-12T11:08:47Z</time>
      </trkpt>
      <trkpt lat="31.655617794021964" lon="-5.844818260520697">
        <ele>2053.0300000000002</ele>
        <time>2019-03-12T11:08:51Z</time>
      </trkpt>
      <trkpt lat="31.655487539246678" lon="-5.844842400401831">
        <ele>2053.0300000000002</ele>
        <time>2019-03-12T11:08:52Z</time>
      </trkpt>
      <trkpt lat="31.655351836234331" lon="-5.84484726190567">
        <ele>2053.5100000000002</ele>
        <time>2019-03-12T11:08:57Z</time>
      </trkpt>
      <trkpt lat="31.655214121565223" lon="-5.844842065125704">
        <ele>2053.9899999999998</ele>
        <time>2019-03-12T11:08:58Z</time>
      </trkpt>
      <trkpt lat="31.655073054134846" lon="-5.844847848638892">
        <ele>2054.4699999999998</ele>
        <time>2019-03-12T11:09:04Z</time>
      </trkpt>
      <trkpt lat="31.65493056178093" lon="-5.844871234148741">
        <ele>2054.4699999999998</ele>
        <time>2019-03-12T11:09:05Z</time>
      </trkpt>
      <trkpt lat="31.654523201286793" lon="-5.844933344051242">
        <ele>2054.4699999999998</ele>
        <time>2019-03-12T11:09:06Z</time>
      </trkpt>
      <trkpt lat="31.654395377263427" lon="-5.844912473112345">
        <ele>2054.4699999999998</ele>
        <time>2019-03-12T11:09:07Z</time>
      </trkpt>
      <trkpt lat="31.65427727624774" lon="-5.844864780083299">
        <ele>2053.9899999999998</ele>
        <time>2019-03-12T11:09:08Z</time>
      </trkpt>
      <trkpt lat="31.654168395325541" lon="-5.844793701544404">
        <ele>2053.9899999999998</ele>
        <time>2019-03-12T11:09:09Z</time>
      </trkpt>
      <trkpt lat="31.654063034802675" lon="-5.844713235273957">
        <ele>2051.5900000000001</ele>
        <time>2019-03-12T11:09:10Z</time>
      </trkpt>
      <trkpt lat="31.653623823076487" lon="-5.844416180625558">
        <ele>2050.6300000000001</ele>
        <time>2019-03-12T11:09:11Z</time>
      </trkpt>
      <trkpt lat="31.65349449031055" lon="-5.84436153061688">
        <ele>2046.3</ele>
        <time>2019-03-12T11:09:12Z</time>
      </trkpt>
      <trkpt lat="31.652789739891887" lon="-5.844073109328747">
        <ele>2046.3</ele>
        <time>2019-03-12T11:09:17Z</time>
      </trkpt>
      <trkpt lat="31.652650600299239" lon="-5.843979064375162">
        <ele>2045.8199999999999</ele>
        <time>2019-03-12T11:09:18Z</time>
      </trkpt>
      <trkpt lat="31.651998069137335" lon="-5.843450836837292">
        <ele>2045.3399999999999</ele>
        <time>2019-03-12T11:09:19Z</time>
      </trkpt>
      <trkpt lat="31.651921458542347" lon="-5.843416135758162">
        <ele>2044.8599999999999</ele>
        <time>2019-03-12T11:09:20Z</time>
      </trkpt>
      <trkpt lat="31.65185515768826" lon="-5.843419153243303">
        <ele>2044.3800000000001</ele>
        <time>2019-03-12T11:09:21Z</time>
      </trkpt>
      <trkpt lat="31.651796903461218" lon="-5.8434624876827">
        <ele>2043.4200000000001</ele>
        <time>2019-03-12T11:09:22Z</time>
      </trkpt>
      <trkpt lat="31.651767650619149" lon="-5.843541193753481">
        <ele>2042.9400000000001</ele>
        <time>2019-03-12T11:09:23Z</time>
      </trkpt>
      <trkpt lat="31.651774607598782" lon="-5.843637753278017">
        <ele>2042.46</ele>
        <time>2019-03-12T11:09:25Z</time>
      </trkpt>
      <trkpt lat="31.651812912896276" lon="-5.843738419935107">
        <ele>2039.0899999999999</ele>
        <time>2019-03-12T11:09:26Z</time>
      </trkpt>
      <trkpt lat="31.651871502399445" lon="-5.843843277543783">
        <ele>2038.6099999999999</ele>
        <time>2019-03-12T11:09:27Z</time>
      </trkpt>
      <trkpt lat="31.651940736919641" lon="-5.843955427408218">
        <ele>2038.1300000000001</ele>
        <time>2019-03-12T11:09:28Z</time>
      </trkpt>
      <trkpt lat="31.652235360816121" lon="-5.844608461484313">
        <ele>2037.6500000000001</ele>
        <time>2019-03-12T11:09:29Z</time>
      </trkpt>
      <trkpt lat="31.652241563424468" lon="-5.844727400690317">
        <ele>2037.1700000000001</ele>
        <time>2019-03-12T11:09:30Z</time>
      </trkpt>
      <trkpt lat="31.652214070782065" lon="-5.844830665737391">
        <ele>2036.6900000000001</ele>
        <time>2019-03-12T11:09:31Z</time>
      </trkpt>
      <trkpt lat="31.652154223993421" lon="-5.844904594123364">
        <ele>2036.21</ele>
        <time>2019-03-12T11:09:32Z</time>
      </trkpt>
      <trkpt lat="31.652074260637164" lon="-5.844944156706333">
        <ele>2035.25</ele>
        <time>2019-03-12T11:09:33Z</time>
      </trkpt>
      <trkpt lat="31.651977114379406" lon="-5.844959327951074">
        <ele>2034.77</ele>
        <time>2019-03-12T11:09:34Z</time>
      </trkpt>
      <trkpt lat="31.651871921494603" lon="-5.844970140606165">
        <ele>2034.29</ele>
        <time>2019-03-12T11:09:35Z</time>
      </trkpt>
      <trkpt lat="31.651650387793779" lon="-5.845018168911338">
        <ele>2033.8099999999999</ele>
        <time>2019-03-12T11:09:36Z</time>
      </trkpt>
      <trkpt lat="31.651542261242867" lon="-5.845067286863923">
        <ele>2033.3299999999999</ele>
        <time>2019-03-12T11:09:37Z</time>
      </trkpt>
      <trkpt lat="31.651438493281603" lon="-5.845139622688294">
        <ele>2032.8399999999999</ele>
        <time>2019-03-12T11:09:38Z</time>
      </trkpt>
      <trkpt lat="31.651345118880272" lon="-5.845236768946052">
        <ele>2031.8800000000001</ele>
        <time>2019-03-12T11:09:39Z</time>
      </trkpt>
      <trkpt lat="31.651276051998138" lon="-5.845355456694961">
        <ele>2030.9200000000001</ele>
        <time>2019-03-12T11:09:40Z</time>
      </trkpt>
      <trkpt lat="31.651244452223182" lon="-5.845486298203468">
        <ele>2030.4400000000001</ele>
        <time>2019-03-12T11:09:41Z</time>
      </trkpt>
      <trkpt lat="31.651259874925017" lon="-5.845619067549706">
        <ele>2029.96</ele>
        <time>2019-03-12T11:09:42Z</time>
      </trkpt>
      <trkpt lat="31.651313602924347" lon="-5.845744125545025">
        <ele>2029.48</ele>
        <time>2019-03-12T11:09:43Z</time>
      </trkpt>
      <trkpt lat="31.651388285681605" lon="-5.845863986760378">
        <ele>2028.52</ele>
        <time>2019-03-12T11:09:44Z</time>
      </trkpt>
      <trkpt lat="31.651476630941033" lon="-5.845980495214462">
        <ele>2028.52</ele>
        <time>2019-03-12T11:09:46Z</time>
      </trkpt>
      <trkpt lat="31.651575537398458" lon="-5.846088035032153">
        <ele>2028.04</ele>
        <time>2019-03-12T11:09:47Z</time>
      </trkpt>
      <trkpt lat="31.651679305359721" lon="-5.846176715567708">
        <ele>2027.5599999999999</ele>
        <time>2019-03-12T11:09:48Z</time>
      </trkpt>
      <trkpt lat="31.651779720559716" lon="-5.846247961744666">
        <ele>2026.5999999999999</ele>
        <time>2019-03-12T11:09:49Z</time>
      </trkpt>
      <trkpt lat="31.651862617582083" lon="-5.846311831846833">
        <ele>2026.1199999999999</ele>
        <time>2019-03-12T11:09:50Z</time>
      </trkpt>
      <trkpt lat="31.651923889294267" lon="-5.846379306167364">
        <ele>2025.6400000000001</ele>
        <time>2019-03-12T11:09:51Z</time>
      </trkpt>
      <trkpt lat="31.651961943134665" lon="-5.846447953954339">
        <ele>2024.6700000000001</ele>
        <time>2019-03-12T11:09:52Z</time>
      </trkpt>
      <trkpt lat="31.651952555403113" lon="-5.846519870683551">
        <ele>2023.71</ele>
        <time>2019-03-12T11:09:53Z</time>
      </trkpt>
      <trkpt lat="31.65189522318542" lon="-5.846581310033798">
        <ele>2022.27</ele>
        <time>2019-03-12T11:09:54Z</time>
      </trkpt>
      <trkpt lat="31.65178575553" lon="-5.846637468785048">
        <ele>2021.79</ele>
        <time>2019-03-12T11:09:55Z</time>
      </trkpt>
      <trkpt lat="31.651662793010473" lon="-5.846687676385045">
        <ele>2021.3099999999999</ele>
        <time>2019-03-12T11:09:56Z</time>
      </trkpt>
      <trkpt lat="31.65143983438611" lon="-5.846783313900232">
        <ele>2021.3099999999999</ele>
        <time>2019-03-12T11:09:57Z</time>
      </trkpt>
      <trkpt lat="31.651352746412158" lon="-5.846857996657491">
        <ele>2020.8299999999999</ele>
        <time>2019-03-12T11:09:58Z</time>
      </trkpt>
      <trkpt lat="31.651301700621843" lon="-5.846958495676518">
        <ele>2020.3499999999999</ele>
        <time>2019-03-12T11:09:59Z</time>
      </trkpt>
      <trkpt lat="31.651286697015166" lon="-5.847075758501887">
        <ele>2020.3499999999999</ele>
        <time>2019-03-12T11:10:00Z</time>
      </trkpt>
      <trkpt lat="31.651294408366084" lon="-5.847192350775003">
        <ele>2019.8699999999999</ele>
        <time>2019-03-12T11:10:01Z</time>
      </trkpt>
      <trkpt lat="31.65128787048161" lon="-5.847302824258804">
        <ele>2019.3900000000001</ele>
        <time>2019-03-12T11:10:02Z</time>
      </trkpt>
      <trkpt lat="31.651254678145051" lon="-5.847395360469818">
        <ele>2018.9100000000001</ele>
        <time>2019-03-12T11:10:03Z</time>
      </trkpt>
      <trkpt lat="31.651193490251899" lon="-5.847448501735926">
        <ele>2018.4300000000001</ele>
        <time>2019-03-12T11:10:04Z</time>
      </trkpt>
      <trkpt lat="31.651108833029866" lon="-5.847467193379998">
        <ele>2017.46</ele>
        <time>2019-03-12T11:10:05Z</time>
      </trkpt>
      <trkpt lat="31.651005232706666" lon="-5.847468702122569">
        <ele>2016.98</ele>
        <time>2019-03-12T11:10:06Z</time>
      </trkpt>
      <trkpt lat="31.650897273793817" lon="-5.847473060712218">
        <ele>2016.5</ele>
        <time>2019-03-12T11:10:07Z</time>
      </trkpt>
      <trkpt lat="31.650792164728045" lon="-5.847487393766642">
        <ele>2016.02</ele>
        <time>2019-03-12T11:10:08Z</time>
      </trkpt>
      <trkpt lat="31.650697365403175" lon="-5.847501140087843">
        <ele>2015.54</ele>
        <time>2019-03-12T11:10:09Z</time>
      </trkpt>
      <trkpt lat="31.650617569684982" lon="-5.847492842003703">
        <ele>2014.5799999999999</ele>
        <time>2019-03-12T11:10:10Z</time>
      </trkpt>
      <trkpt lat="31.650563674047589" lon="-5.847446490079165">
        <ele>2013.6199999999999</ele>
        <time>2019-03-12T11:10:11Z</time>
      </trkpt>
      <trkpt lat="31.650548754259944" lon="-5.847374154254794">
        <ele>2012.6600000000001</ele>
        <time>2019-03-12T11:10:12Z</time>
      </trkpt>
      <trkpt lat="31.650577839463949" lon="-5.847303494811058">
        <ele>2011.7</ele>
        <time>2019-03-12T11:10:13Z</time>
      </trkpt>
      <trkpt lat="31.650640536099672" lon="-5.847257981076837">
        <ele>2010.73</ele>
        <time>2019-03-12T11:10:14Z</time>
      </trkpt>
      <trkpt lat="31.650724438950419" lon="-5.847241301089525">
        <ele>2009.77</ele>
        <time>2019-03-12T11:10:15Z</time>
      </trkpt>
      <trkpt lat="31.65081680752337" lon="-5.847234930843115">
        <ele>2009.29</ele>
        <time>2019-03-12T11:10:16Z</time>
      </trkpt>
      <trkpt lat="31.650910349562764" lon="-5.847216155380011">
        <ele>2009.29</ele>
        <time>2019-03-12T11:10:17Z</time>
      </trkpt>
      <trkpt lat="31.650987043976784" lon="-5.847165444865823">
        <ele>2008.8099999999999</ele>
        <time>2019-03-12T11:10:18Z</time>
      </trkpt>
      <trkpt lat="31.651034653186798" lon="-5.847082212567329">
        <ele>2008.3299999999999</ele>
        <time>2019-03-12T11:10:19Z</time>
      </trkpt>
      <trkpt lat="31.651051668450236" lon="-5.846977522596717">
        <ele>2007.3699999999999</ele>
        <time>2019-03-12T11:10:20Z</time>
      </trkpt>
      <trkpt lat="31.65103574283421" lon="-5.846866127103567">
        <ele>2006.4100000000001</ele>
        <time>2019-03-12T11:10:21Z</time>
      </trkpt>
      <trkpt lat="31.651009758934379" lon="-5.846743583679199">
        <ele>2004.97</ele>
        <time>2019-03-12T11:10:22Z</time>
      </trkpt>
      <trkpt lat="31.650999952107668" lon="-5.846613999456167">
        <ele>2003.52</ele>
        <time>2019-03-12T11:10:23Z</time>
      </trkpt>
      <trkpt lat="31.650991486385465" lon="-5.846487767994404">
        <ele>2002.5599999999999</ele>
        <time>2019-03-12T11:10:33Z</time>
      </trkpt>
      <trkpt lat="31.650961395353079" lon="-5.846373522654176">
        <ele>2001.1199999999999</ele>
        <time>2019-03-12T11:10:36Z</time>
      </trkpt>
      <trkpt lat="31.650897357612848" lon="-5.846279645338655">
        <ele>2000.1600000000001</ele>
        <time>2019-03-12T11:10:37Z</time>
      </trkpt>
      <trkpt lat="31.650798534974456" lon="-5.846220133826137">
        <ele>1999.2</ele>
        <time>2019-03-12T11:10:38Z</time>
      </trkpt>
      <trkpt lat="31.650687390938401" lon="-5.846196580678225">
        <ele>1998.24</ele>
        <time>2019-03-12T11:10:39Z</time>
      </trkpt>
      <trkpt lat="31.650567278265953" lon="-5.846210746094585">
        <ele>1997.28</ele>
        <time>2019-03-12T11:10:40Z</time>
      </trkpt>
      <trkpt lat="31.650449596345425" lon="-5.846246872097254">
        <ele>1996.8</ele>
        <time>2019-03-12T11:10:41Z</time>
      </trkpt>
      <trkpt lat="31.650329986587167" lon="-5.846278974786401">
        <ele>1995.8299999999999</ele>
        <time>2019-03-12T11:10:42Z</time>
      </trkpt>
      <trkpt lat="31.650207946076989" lon="-5.846289871260524">
        <ele>1986.7</ele>
        <time>2019-03-12T11:10:43Z</time>
      </trkpt>
      <trkpt lat="31.650081044062972" lon="-5.846273107454181">
        <ele>1984.3</ele>
        <time>2019-03-12T11:10:44Z</time>
      </trkpt>
      <trkpt lat="31.649952633306384" lon="-5.846235388889909">
        <ele>1983.8199999999999</ele>
        <time>2019-03-12T11:10:45Z</time>
      </trkpt>
      <trkpt lat="31.648667268455029" lon="-5.845586126670241">
        <ele>1982.8599999999999</ele>
        <time>2019-03-12T11:10:46Z</time>
      </trkpt>
      <trkpt lat="31.648364597931504" lon="-5.845327377319336">
        <ele>1982.3800000000001</ele>
        <time>2019-03-12T11:10:47Z</time>
      </trkpt>
      <trkpt lat="31.64829159155488" lon="-5.84522595629096">
        <ele>1981.9000000000001</ele>
        <time>2019-03-12T11:10:48Z</time>
      </trkpt>
      <trkpt lat="31.648233840242028" lon="-5.845106681808829">
        <ele>1980.9300000000001</ele>
        <time>2019-03-12T11:10:49Z</time>
      </trkpt>
      <trkpt lat="31.648193271830678" lon="-5.844974415376782">
        <ele>1980.45</ele>
        <time>2019-03-12T11:10:50Z</time>
      </trkpt>
      <trkpt lat="31.648167790845037" lon="-5.844834605231881">
        <ele>1979.97</ele>
        <time>2019-03-12T11:10:51Z</time>
      </trkpt>
      <trkpt lat="31.648158067837358" lon="-5.844690771773458">
        <ele>1979.49</ele>
        <time>2019-03-12T11:10:52Z</time>
      </trkpt>
      <trkpt lat="31.648169718682766" lon="-5.844550961628556">
        <ele>1978.53</ele>
        <time>2019-03-12T11:10:57Z</time>
      </trkpt>
      <trkpt lat="31.648199139162898" lon="-5.844422550871968">
        <ele>1978.05</ele>
        <time>2019-03-12T11:10:58Z</time>
      </trkpt>
      <trkpt lat="31.648249682039022" lon="-5.844308473169804">
        <ele>1977.5699999999999</ele>
        <time>2019-03-12T11:10:59Z</time>
      </trkpt>
      <trkpt lat="31.648316569626331" lon="-5.844205040484667">
        <ele>1977.0899999999999</ele>
        <time>2019-03-12T11:11:00Z</time>
      </trkpt>
      <trkpt lat="31.648367363959551" lon="-5.844106636941433">
        <ele>1977.0899999999999</ele>
        <time>2019-03-12T11:11:01Z</time>
      </trkpt>
      <trkpt lat="31.648395024240017" lon="-5.843995744362474">
        <ele>1976.6099999999999</ele>
        <time>2019-03-12T11:11:02Z</time>
      </trkpt>
      <trkpt lat="31.648382032290101" lon="-5.843884935602546">
        <ele>1976.6099999999999</ele>
        <time>2019-03-12T11:11:04Z</time>
      </trkpt>
      <trkpt lat="31.648314138874412" lon="-5.84379818290472">
        <ele>1976.1300000000001</ele>
        <time>2019-03-12T11:11:05Z</time>
      </trkpt>
      <trkpt lat="31.648220177739859" lon="-5.843731462955475">
        <ele>1972.76</ele>
        <time>2019-03-12T11:11:06Z</time>
      </trkpt>
      <trkpt lat="31.648117247968912" lon="-5.843672957271338">
        <ele>1971.8</ele>
        <time>2019-03-12T11:11:07Z</time>
      </trkpt>
      <trkpt lat="31.648002248257399" lon="-5.84361202083528">
        <ele>1970.8399999999999</ele>
        <time>2019-03-12T11:11:08Z</time>
      </trkpt>
      <trkpt lat="31.647450467571616" lon="-5.843222597613931">
        <ele>1969.8800000000001</ele>
        <time>2019-03-12T11:11:09Z</time>
      </trkpt>
      <trkpt lat="31.647360194474459" lon="-5.843114471063018">
        <ele>1968.9200000000001</ele>
        <time>2019-03-12T11:11:10Z</time>
      </trkpt>
      <trkpt lat="31.647278806194663" lon="-5.842990335077047">
        <ele>1967.96</ele>
        <time>2019-03-12T11:11:11Z</time>
      </trkpt>
      <trkpt lat="31.647211750969291" lon="-5.842853877693415">
        <ele>1966.51</ele>
        <time>2019-03-12T11:11:17Z</time>
      </trkpt>
      <trkpt lat="31.647162633016706" lon="-5.842715743929148">
        <ele>1966.03</ele>
        <time>2019-03-12T11:11:18Z</time>
      </trkpt>
      <trkpt lat="31.647125752642751" lon="-5.842586159706116">
        <ele>1965.0699999999999</ele>
        <time>2019-03-12T11:11:19Z</time>
      </trkpt>
      <trkpt lat="31.647056099027395" lon="-5.842380803078413">
        <ele>1964.5899999999999</ele>
        <time>2019-03-12T11:11:20Z</time>
      </trkpt>
      <trkpt lat="31.647006142884493" lon="-5.842321291565895">
        <ele>1964.1099999999999</ele>
        <time>2019-03-12T11:11:21Z</time>
      </trkpt>
      <trkpt lat="31.646944032981992" lon="-5.842310395091772">
        <ele>1963.1500000000001</ele>
        <time>2019-03-12T11:11:23Z</time>
      </trkpt>
      <trkpt lat="31.64689022116363" lon="-5.842349035665393">
        <ele>1962.1900000000001</ele>
        <time>2019-03-12T11:11:24Z</time>
      </trkpt>
      <trkpt lat="31.64686574600637" lon="-5.842425981536508">
        <ele>1961.71</ele>
        <time>2019-03-12T11:11:25Z</time>
      </trkpt>
      <trkpt lat="31.646874798461795" lon="-5.842525390908122">
        <ele>1956.9000000000001</ele>
        <time>2019-03-12T11:11:26Z</time>
      </trkpt>
      <trkpt lat="31.646907068789005" lon="-5.842635612934828">
        <ele>1956.4200000000001</ele>
        <time>2019-03-12T11:11:27Z</time>
      </trkpt>
      <trkpt lat="31.646950151771307" lon="-5.842757569625974">
        <ele>1955.9400000000001</ele>
        <time>2019-03-12T11:11:28Z</time>
      </trkpt>
      <trkpt lat="31.647250223904848" lon="-5.843502888455987">
        <ele>1955.46</ele>
        <time>2019-03-12T11:11:29Z</time>
      </trkpt>
      <trkpt lat="31.647318620234728" lon="-5.843602465465665">
        <ele>1954.98</ele>
        <time>2019-03-12T11:11:30Z</time>
      </trkpt>
      <trkpt lat="31.647398667410016" lon="-5.843686535954475">
        <ele>1954.98</ele>
        <time>2019-03-12T11:11:31Z</time>
      </trkpt>
      <trkpt lat="31.647482821717858" lon="-5.84375811740756">
        <ele>1954.98</ele>
        <time>2019-03-12T11:11:32Z</time>
      </trkpt>
      <trkpt lat="31.647564293816686" lon="-5.843821233138442">
        <ele>1954.5</ele>
        <time>2019-03-12T11:11:33Z</time>
      </trkpt>
      <trkpt lat="31.647696644067764" lon="-5.843940172344446">
        <ele>1954.5</ele>
        <time>2019-03-12T11:11:34Z</time>
      </trkpt>
      <trkpt lat="31.647738805040717" lon="-5.844008484855294">
        <ele>1954.5</ele>
        <time>2019-03-12T11:11:35Z</time>
      </trkpt>
      <trkpt lat="31.647760849446058" lon="-5.844090292230249">
        <ele>1954.02</ele>
        <time>2019-03-12T11:11:37Z</time>
      </trkpt>
      <trkpt lat="31.6477604303509" lon="-5.844180816784501">
        <ele>1953.54</ele>
        <time>2019-03-12T11:11:38Z</time>
      </trkpt>
      <trkpt lat="31.6477345302701" lon="-5.844275699928403">
        <ele>1953.0599999999999</ele>
        <time>2019-03-12T11:11:39Z</time>
      </trkpt>
      <trkpt lat="31.6476896032691" lon="-5.84437033161521">
        <ele>1952.5699999999999</ele>
        <time>2019-03-12T11:11:40Z</time>
      </trkpt>
      <trkpt lat="31.647642580792308" lon="-5.844463789835572">
        <ele>1952.0899999999999</ele>
        <time>2019-03-12T11:11:41Z</time>
      </trkpt>
      <trkpt lat="31.647601593285799" lon="-5.84455800242722">
        <ele>1951.1300000000001</ele>
        <time>2019-03-12T11:11:42Z</time>
      </trkpt>
      <trkpt lat="31.647571753710508" lon="-5.844653975218535">
        <ele>1950.6500000000001</ele>
        <time>2019-03-12T11:11:43Z</time>
      </trkpt>
      <trkpt lat="31.647550631314516" lon="-5.844754809513688">
        <ele>1949.6900000000001</ele>
        <time>2019-03-12T11:11:44Z</time>
      </trkpt>
      <trkpt lat="31.647540153935552" lon="-5.844860840588808">
        <ele>1948.73</ele>
        <time>2019-03-12T11:11:45Z</time>
      </trkpt>
      <trkpt lat="31.647538980469108" lon="-5.844967793673277">
        <ele>1948.73</ele>
        <time>2019-03-12T11:11:46Z</time>
      </trkpt>
      <trkpt lat="31.647540321573615" lon="-5.845070639625192">
        <ele>1948.73</ele>
        <time>2019-03-12T11:11:47Z</time>
      </trkpt>
      <trkpt lat="31.647543758153915" lon="-5.845235344022512">
        <ele>1948.25</ele>
        <time>2019-03-12T11:11:48Z</time>
      </trkpt>
      <trkpt lat="31.647515343502164" lon="-5.845282450318337">
        <ele>1947.77</ele>
        <time>2019-03-12T11:11:49Z</time>
      </trkpt>
      <trkpt lat="31.647470248863101" lon="-5.84530072286725">
        <ele>1947.29</ele>
        <time>2019-03-12T11:11:50Z</time>
      </trkpt>
      <trkpt lat="31.647425489500165" lon="-5.845291502773762">
        <ele>1946.3299999999999</ele>
        <time>2019-03-12T11:11:51Z</time>
      </trkpt>
      <trkpt lat="31.64738324470818" lon="-5.845261160284281">
        <ele>1945.3599999999999</ele>
        <time>2019-03-12T11:11:52Z</time>
      </trkpt>
      <trkpt lat="31.647345861420035" lon="-5.845216065645218">
        <ele>1944.8800000000001</ele>
        <time>2019-03-12T11:11:53Z</time>
      </trkpt>
      <trkpt lat="31.647309316322207" lon="-5.845156889408827">
        <ele>1944.4000000000001</ele>
        <time>2019-03-12T11:11:54Z</time>
      </trkpt>
      <trkpt lat="31.647278890013695" lon="-5.845086062327027">
        <ele>1943.4400000000001</ele>
        <time>2019-03-12T11:11:55Z</time>
      </trkpt>
      <trkpt lat="31.647261036559939" lon="-5.845007607713342">
        <ele>1942.96</ele>
        <time>2019-03-12T11:11:56Z</time>
      </trkpt>
      <trkpt lat="31.647254582494497" lon="-5.844925045967102">
        <ele>1942.48</ele>
        <time>2019-03-12T11:11:57Z</time>
      </trkpt>
      <trkpt lat="31.647257599979639" lon="-5.844840053468943">
        <ele>1942</ele>
        <time>2019-03-12T11:11:59Z</time>
      </trkpt>
      <trkpt lat="31.647273357957602" lon="-5.844750953838229">
        <ele>1941.52</ele>
        <time>2019-03-12T11:12:00Z</time>
      </trkpt>
      <trkpt lat="31.647297162562609" lon="-5.844656238332391">
        <ele>1941.04</ele>
        <time>2019-03-12T11:12:01Z</time>
      </trkpt>
      <trkpt lat="31.647326415404677" lon="-5.84455649368465">
        <ele>1940.5599999999999</ele>
        <time>2019-03-12T11:12:02Z</time>
      </trkpt>
      <trkpt lat="31.647350639104843" lon="-5.844454485923052">
        <ele>1940.0799999999999</ele>
        <time>2019-03-12T11:12:03Z</time>
      </trkpt>
      <trkpt lat="31.64735390804708" lon="-5.844350634142757">
        <ele>1939.5999999999999</ele>
        <time>2019-03-12T11:12:04Z</time>
      </trkpt>
      <trkpt lat="31.647325661033392" lon="-5.844256086274982">
        <ele>1939.1199999999999</ele>
        <time>2019-03-12T11:12:05Z</time>
      </trkpt>
      <trkpt lat="31.647268328815699" lon="-5.844191545620561">
        <ele>1938.1600000000001</ele>
        <time>2019-03-12T11:12:06Z</time>
      </trkpt>
      <trkpt lat="31.64718828164041" lon="-5.844164220616221">
        <ele>1937.1900000000001</ele>
        <time>2019-03-12T11:12:07Z</time>
      </trkpt>
      <trkpt lat="31.647095493972301" lon="-5.844168579205871">
        <ele>1936.71</ele>
        <time>2019-03-12T11:12:17Z</time>
      </trkpt>
      <trkpt lat="31.646995078772306" lon="-5.844189785420895">
        <ele>1936.71</ele>
        <time>2019-03-12T11:12:30Z</time>
      </trkpt>
      <trkpt lat="31.646787039935589" lon="-5.844223648309708">
        <ele>1935.75</ele>
        <time>2019-03-12T11:12:39Z</time>
      </trkpt>
      <trkpt lat="31.646680505946279" lon="-5.844219038262963">
        <ele>1935.27</ele>
        <time>2019-03-12T11:12:40Z</time>
      </trkpt>
      <trkpt lat="31.646574307233095" lon="-5.844198921695352">
        <ele>1934.3099999999999</ele>
        <time>2019-03-12T11:12:41Z</time>
      </trkpt>
      <trkpt lat="31.64647288620472" lon="-5.844165561720729">
        <ele>1933.8299999999999</ele>
        <time>2019-03-12T11:12:42Z</time>
      </trkpt>
      <trkpt lat="31.646379176527262" lon="-5.844114515930414">
        <ele>1933.3499999999999</ele>
        <time>2019-03-12T11:12:43Z</time>
      </trkpt>
      <trkpt lat="31.646293932572007" lon="-5.844045951962471">
        <ele>1932.8699999999999</ele>
        <time>2019-03-12T11:12:44Z</time>
      </trkpt>
      <trkpt lat="31.646220088005066" lon="-5.843963557854295">
        <ele>1923.74</ele>
        <time>2019-03-12T11:12:45Z</time>
      </trkpt>
      <trkpt lat="31.646157307550311" lon="-5.843872614204884">
        <ele>1910.76</ele>
        <time>2019-03-12T11:12:46Z</time>
      </trkpt>
      <trkpt lat="31.646097125485539" lon="-5.843781586736441">
        <ele>1904.51</ele>
        <time>2019-03-12T11:12:47Z</time>
      </trkpt>
      <trkpt lat="31.645312160253525" lon="-5.842953789979219">
        <ele>1904.03</ele>
        <time>2019-03-12T11:12:48Z</time>
      </trkpt>
      <trkpt lat="31.643914226442575" lon="-5.841833129525185">
        <ele>1903.0699999999999</ele>
        <time>2019-03-12T11:12:49Z</time>
      </trkpt>
      <trkpt lat="31.64286782965064" lon="-5.841032825410366">
        <ele>1902.5899999999999</ele>
        <time>2019-03-12T11:12:50Z</time>
      </trkpt>
      <trkpt lat="31.642747381702065" lon="-5.840976163744927">
        <ele>1901.6300000000001</ele>
        <time>2019-03-12T11:12:51Z</time>
      </trkpt>
      <trkpt lat="31.642628191038966" lon="-5.84094163030386">
        <ele>1901.1400000000001</ele>
        <time>2019-03-12T11:12:52Z</time>
      </trkpt>
      <trkpt lat="31.642521489411592" lon="-5.840925872325897">
        <ele>1900.1800000000001</ele>
        <time>2019-03-12T11:12:53Z</time>
      </trkpt>
      <trkpt lat="31.642427863553166" lon="-5.840928722172976">
        <ele>1899.7</ele>
        <time>2019-03-12T11:12:54Z</time>
      </trkpt>
      <trkpt lat="31.642350666224957" lon="-5.840962333604693">
        <ele>1899.22</ele>
        <time>2019-03-12T11:12:55Z</time>
      </trkpt>
      <trkpt lat="31.64229610003531" lon="-5.841035339981318">
        <ele>1898.26</ele>
        <time>2019-03-12T11:12:58Z</time>
      </trkpt>
      <trkpt lat="31.642271960154176" lon="-5.841134833171964">
        <ele>1897.78</ele>
        <time>2019-03-12T11:12:59Z</time>
      </trkpt>
      <trkpt lat="31.64227900095284" lon="-5.841250754892826">
        <ele>1896.8199999999999</ele>
        <time>2019-03-12T11:13:00Z</time>
      </trkpt>
      <trkpt lat="31.642307750880718" lon="-5.841371286660433">
        <ele>1896.3399999999999</ele>
        <time>2019-03-12T11:13:01Z</time>
      </trkpt>
      <trkpt lat="31.642350582405925" lon="-5.841485699638724">
        <ele>1895.8599999999999</ele>
        <time>2019-03-12T11:13:02Z</time>
      </trkpt>
      <trkpt lat="31.64240799844265" lon="-5.841588377952576">
        <ele>1895.3800000000001</ele>
        <time>2019-03-12T11:13:03Z</time>
      </trkpt>
      <trkpt lat="31.642472706735134" lon="-5.841677896678448">
        <ele>1894.4200000000001</ele>
        <time>2019-03-12T11:13:04Z</time>
      </trkpt>
      <trkpt lat="31.642537163570523" lon="-5.841762972995639">
        <ele>1893.9300000000001</ele>
        <time>2019-03-12T11:13:08Z</time>
      </trkpt>
      <trkpt lat="31.642594244331121" lon="-5.841853329911828">
        <ele>1892.49</ele>
        <time>2019-03-12T11:13:15Z</time>
      </trkpt>
      <trkpt lat="31.642638081684709" lon="-5.841956092044711">
        <ele>1892.01</ele>
        <time>2019-03-12T11:13:16Z</time>
      </trkpt>
      <trkpt lat="31.642667585983872" lon="-5.842068241909146">
        <ele>1891.05</ele>
        <time>2019-03-12T11:13:24Z</time>
      </trkpt>
      <trkpt lat="31.642727600410581" lon="-5.842367140576243">
        <ele>1890.5699999999999</ele>
        <time>2019-03-12T11:13:25Z</time>
      </trkpt>
      <trkpt lat="31.642722571268678" lon="-5.842436961829662">
        <ele>1890.0899999999999</ele>
        <time>2019-03-12T11:13:26Z</time>
      </trkpt>
      <trkpt lat="31.642688205465674" lon="-5.842476943507791">
        <ele>1889.1300000000001</ele>
        <time>2019-03-12T11:13:28Z</time>
      </trkpt>
      <trkpt lat="31.642639087513089" lon="-5.842477865517139">
        <ele>1888.1700000000001</ele>
        <time>2019-03-12T11:13:29Z</time>
      </trkpt>
      <trkpt lat="31.642595920711756" lon="-5.842436291277409">
        <ele>1886.24</ele>
        <time>2019-03-12T11:13:33Z</time>
      </trkpt>
      <trkpt lat="31.64256390184164" lon="-5.842369319871068">
        <ele>1884.3199999999999</ele>
        <time>2019-03-12T11:13:37Z</time>
      </trkpt>
      <trkpt lat="31.642534816637635" lon="-5.842290529981256">
        <ele>1883.8399999999999</ele>
        <time>2019-03-12T11:13:38Z</time>
      </trkpt>
      <trkpt lat="31.642363825812936" lon="-5.841939495876432">
        <ele>1879.51</ele>
        <time>2019-03-12T11:13:39Z</time>
      </trkpt>
      <trkpt lat="31.641934337094426" lon="-5.841343039646745">
        <ele>1879.03</ele>
        <time>2019-03-12T11:13:40Z</time>
      </trkpt>
      <trkpt lat="31.641869628801942" lon="-5.841267015784979">
        <ele>1878.55</ele>
        <time>2019-03-12T11:13:41Z</time>
      </trkpt>
      <trkpt lat="31.641322877258062" lon="-5.840742392465472">
        <ele>1877.5899999999999</ele>
        <time>2019-03-12T11:13:42Z</time>
      </trkpt>
      <trkpt lat="31.641274765133858" lon="-5.840657316148281">
        <ele>1877.1099999999999</ele>
        <time>2019-03-12T11:13:46Z</time>
      </trkpt>
      <trkpt lat="31.641233442351222" lon="-5.840560086071491">
        <ele>1873.75</ele>
        <time>2019-03-12T11:13:47Z</time>
      </trkpt>
      <trkpt lat="31.641156831756234" lon="-5.840353975072503">
        <ele>1869.4200000000001</ele>
        <time>2019-03-12T11:13:52Z</time>
      </trkpt>
      <trkpt lat="31.641104193404317" lon="-5.8402678091079">
        <ele>1868.9400000000001</ele>
        <time>2019-03-12T11:13:53Z</time>
      </trkpt>
      <trkpt lat="31.64081459864974" lon="-5.840298403054476">
        <ele>1867.98</ele>
        <time>2019-03-12T11:13:55Z</time>
      </trkpt>
      <trkpt lat="31.640918869525194" lon="-5.840715318918228">
        <ele>1867.02</ele>
        <time>2019-03-12T11:13:56Z</time>
      </trkpt>
      <trkpt lat="31.640990031883121" lon="-5.840819757431746">
        <ele>1866.0599999999999</ele>
        <time>2019-03-12T11:13:57Z</time>
      </trkpt>
      <trkpt lat="31.641055746003985" lon="-5.840931488201022">
        <ele>1865.5799999999999</ele>
        <time>2019-03-12T11:14:04Z</time>
      </trkpt>
      <trkpt lat="31.641106456518173" lon="-5.841045398265123">
        <ele>1862.21</ele>
        <time>2019-03-12T11:14:12Z</time>
      </trkpt>
      <trkpt lat="31.641135960817337" lon="-5.841153524816036">
        <ele>1861.25</ele>
        <time>2019-03-12T11:14:21Z</time>
      </trkpt>
      <trkpt lat="31.641135457903147" lon="-5.841256370767951">
        <ele>1859.8099999999999</ele>
        <time>2019-03-12T11:14:29Z</time>
      </trkpt>
      <trkpt lat="31.640824908390641" lon="-5.841439934447408">
        <ele>1859.8099999999999</ele>
        <time>2019-03-12T11:14:33Z</time>
      </trkpt>
      <trkpt lat="31.640710411593318" lon="-5.841421242803335">
        <ele>1859.8099999999999</ele>
        <time>2019-03-12T11:14:34Z</time>
      </trkpt>
      <trkpt lat="31.640131138265133" lon="-5.841226950287819">
        <ele>1859.8099999999999</ele>
        <time>2019-03-12T11:14:35Z</time>
      </trkpt>
      <trkpt lat="31.640022341161966" lon="-5.841153776273131">
        <ele>1859.3299999999999</ele>
        <time>2019-03-12T11:14:36Z</time>
      </trkpt>
      <trkpt lat="31.639812206849456" lon="-5.841013295575976">
        <ele>1855.48</ele>
        <time>2019-03-12T11:14:37Z</time>
      </trkpt>
      <trkpt lat="31.639698883518577" lon="-5.840979348868132">
        <ele>1853.5599999999999</ele>
        <time>2019-03-12T11:14:40Z</time>
      </trkpt>
      <trkpt lat="31.639575501903892" lon="-5.840964764356613">
        <ele>1852.1199999999999</ele>
        <time>2019-03-12T11:14:41Z</time>
      </trkpt>
      <trkpt lat="31.638508904725313" lon="-5.841092420741916">
        <ele>1849.71</ele>
        <time>2019-03-12T11:14:47Z</time>
      </trkpt>
      <trkpt lat="31.637240638956428" lon="-5.841113291680813">
        <ele>1849.71</ele>
        <time>2019-03-12T11:35:03Z</time>
      </trkpt>
      <trkpt lat="31.635872293263674" lon="-5.840888321399689">
        <ele>1849.23</ele>
        <time>2019-03-12T11:35:04Z</time>
      </trkpt>
      <trkpt lat="31.634674435481429" lon="-5.840228665620089">
        <ele>1849.23</ele>
        <time>2019-03-12T11:35:05Z</time>
      </trkpt>
      <trkpt lat="31.634123073890805" lon="-5.839902777224779">
        <ele>1848.75</ele>
        <time>2019-03-12T11:35:12Z</time>
      </trkpt>
      <trkpt lat="31.633965997025371" lon="-5.83990135230124">
        <ele>1848.75</ele>
        <time>2019-03-12T11:35:13Z</time>
      </trkpt>
      <trkpt lat="31.633823253214359" lon="-5.83992381580174">
        <ele>1847.3099999999999</ele>
        <time>2019-03-12T11:35:21Z</time>
      </trkpt>
      <trkpt lat="31.63367623463273" lon="-5.839968491345644">
        <ele>1847.3099999999999</ele>
        <time>2019-03-12T11:35:22Z</time>
      </trkpt>
      <trkpt lat="31.633525863289833" lon="-5.840026494115591">
        <ele>1844.9100000000001</ele>
        <time>2019-03-12T11:35:23Z</time>
      </trkpt>
      <trkpt lat="31.633036360144615" lon="-5.840196227654815">
        <ele>1848.27</ele>
        <time>2019-03-12T11:35:24Z</time>
      </trkpt>
      <trkpt lat="31.632860172539949" lon="-5.840224307030439">
        <ele>1848.27</ele>
        <time>2019-03-12T11:35:25Z</time>
      </trkpt>
      <trkpt lat="31.63195576518774" lon="-5.84025607444346">
        <ele>1848.27</ele>
        <time>2019-03-12T11:35:26Z</time>
      </trkpt>
      <trkpt lat="31.631567096337676" lon="-5.840232353657484">
        <ele>1847.3099999999999</ele>
        <time>2019-03-12T11:35:27Z</time>
      </trkpt>
      <trkpt lat="31.631509345024824" lon="-5.840229503810406">
        <ele>1847.3099999999999</ele>
        <time>2019-03-12T11:35:28Z</time>
      </trkpt>
      <trkpt lat="31.631443630903959" lon="-5.840219277888537">
        <ele>1847.79</ele>
        <time>2019-03-12T11:35:29Z</time>
      </trkpt>
      <trkpt lat="31.631004083901644" lon="-5.839993134140968">
        <ele>1847.79</ele>
        <time>2019-03-12T11:35:32Z</time>
      </trkpt>
      <trkpt lat="31.630968125537038" lon="-5.83995072171092">
        <ele>1847.79</ele>
        <time>2019-03-12T11:35:33Z</time>
      </trkpt>
      <trkpt lat="31.630715830251575" lon="-5.839561130851507">
        <ele>1848.27</ele>
        <time>2019-03-12T11:35:34Z</time>
      </trkpt>
      <trkpt lat="31.630666209384799" lon="-5.839509917423129">
        <ele>1848.27</ele>
        <time>2019-03-12T11:35:36Z</time>
      </trkpt>
      <trkpt lat="31.630604434758425" lon="-5.839468343183398">
        <ele>1848.27</ele>
        <time>2019-03-12T11:35:37Z</time>
      </trkpt>
      <trkpt lat="31.630534362047911" lon="-5.839449735358357">
        <ele>1848.27</ele>
        <time>2019-03-12T11:35:38Z</time>
      </trkpt>
      <trkpt lat="31.630459763109684" lon="-5.839457279071212">
        <ele>1848.75</ele>
        <time>2019-03-12T11:35:39Z</time>
      </trkpt>
      <trkpt lat="31.630386589094996" lon="-5.839489297941327">
        <ele>1848.75</ele>
        <time>2019-03-12T11:35:40Z</time>
      </trkpt>
      <trkpt lat="31.630322216078639" lon="-5.839546211063862">
        <ele>1848.27</ele>
        <time>2019-03-12T11:35:43Z</time>
      </trkpt>
      <trkpt lat="31.630271840840578" lon="-5.839625671505928">
        <ele>1847.79</ele>
        <time>2019-03-12T11:35:44Z</time>
      </trkpt>
      <trkpt lat="31.63023428991437" lon="-5.839717537164688">
        <ele>1847.3099999999999</ele>
        <time>2019-03-12T11:35:45Z</time>
      </trkpt>
      <trkpt lat="31.630112249404192" lon="-5.840051975101233">
        <ele>1846.3499999999999</ele>
        <time>2019-03-12T11:35:46Z</time>
      </trkpt>
      <trkpt lat="31.630078889429569" lon="-5.840181140229106">
        <ele>1845.8699999999999</ele>
        <time>2019-03-12T11:35:47Z</time>
      </trkpt>
      <trkpt lat="31.630054330453277" lon="-5.840311478823423">
        <ele>1844.9100000000001</ele>
        <time>2019-03-12T11:35:48Z</time>
      </trkpt>
      <trkpt lat="31.630024658516049" lon="-5.840575844049454">
        <ele>1844.4300000000001</ele>
        <time>2019-03-12T11:35:49Z</time>
      </trkpt>
      <trkpt lat="31.630025915801525" lon="-5.840720515698195">
        <ele>1843.95</ele>
        <time>2019-03-12T11:35:50Z</time>
      </trkpt>
      <trkpt lat="31.630048966035247" lon="-5.840877173468471">
        <ele>1842.5</ele>
        <time>2019-03-12T11:35:51Z</time>
      </trkpt>
      <trkpt lat="31.630085427314043" lon="-5.841037854552269">
        <ele>1842.02</ele>
        <time>2019-03-12T11:35:52Z</time>
      </trkpt>
      <trkpt lat="31.630129013210535" lon="-5.84119669161737">
        <ele>1841.54</ele>
        <time>2019-03-12T11:35:53Z</time>
      </trkpt>
      <trkpt lat="31.630293801426888" lon="-5.841677058488131">
        <ele>1841.0599999999999</ele>
        <time>2019-03-12T11:35:54Z</time>
      </trkpt>
      <trkpt lat="31.6303691547364" lon="-5.841821813955903">
        <ele>1840.5799999999999</ele>
        <time>2019-03-12T11:35:55Z</time>
      </trkpt>
      <trkpt lat="31.630455739796162" lon="-5.841945027932525">
        <ele>1840.5799999999999</ele>
        <time>2019-03-12T11:36:00Z</time>
      </trkpt>
      <trkpt lat="31.630546096712351" lon="-5.842046868056059">
        <ele>1840.0999999999999</ele>
        <time>2019-03-12T11:36:01Z</time>
      </trkpt>
      <trkpt lat="31.630628993734717" lon="-5.842136638239026">
        <ele>1839.6199999999999</ele>
        <time>2019-03-12T11:36:02Z</time>
      </trkpt>
      <trkpt lat="31.630691606551409" lon="-5.842224145308137">
        <ele>1839.6199999999999</ele>
        <time>2019-03-12T11:36:03Z</time>
      </trkpt>
      <trkpt lat="31.630729660391808" lon="-5.842314921319485">
        <ele>1839.6199999999999</ele>
        <time>2019-03-12T11:36:04Z</time>
      </trkpt>
      <trkpt lat="31.630744412541389" lon="-5.84240653552115">
        <ele>1839.6199999999999</ele>
        <time>2019-03-12T11:36:11Z</time>
      </trkpt>
      <trkpt lat="31.630735779181123" lon="-5.842495048418641">
        <ele>1839.6199999999999</ele>
        <time>2019-03-12T11:36:12Z</time>
      </trkpt>
      <trkpt lat="31.630701832473278" lon="-5.842578029260039">
        <ele>1839.6199999999999</ele>
        <time>2019-03-12T11:36:13Z</time>
      </trkpt>
      <trkpt lat="31.630654558539391" lon="-5.842652712017298">
        <ele>1839.1400000000001</ele>
        <time>2019-03-12T11:36:14Z</time>
      </trkpt>
      <trkpt lat="31.630600998178124" lon="-5.842720186337829">
        <ele>1839.6199999999999</ele>
        <time>2019-03-12T11:36:15Z</time>
      </trkpt>
      <trkpt lat="31.63054458796978" lon="-5.842786654829979">
        <ele>1839.6199999999999</ele>
        <time>2019-03-12T11:36:16Z</time>
      </trkpt>
      <trkpt lat="31.630255412310362" lon="-5.843115812167525">
        <ele>1839.6199999999999</ele>
        <time>2019-03-12T11:36:22Z</time>
      </trkpt>
      <trkpt lat="31.630223225802183" lon="-5.84319275803864">
        <ele>1840.0999999999999</ele>
        <time>2019-03-12T11:36:23Z</time>
      </trkpt>
      <trkpt lat="31.630213418975472" lon="-5.843280516564846">
        <ele>1839.6199999999999</ele>
        <time>2019-03-12T11:36:24Z</time>
      </trkpt>
      <trkpt lat="31.630227165296674" lon="-5.843374142423272">
        <ele>1839.6199999999999</ele>
        <time>2019-03-12T11:36:28Z</time>
      </trkpt>
      <trkpt lat="31.630251137539744" lon="-5.843473132699728">
        <ele>1839.1400000000001</ele>
        <time>2019-03-12T11:36:29Z</time>
      </trkpt>
      <trkpt lat="31.630563363432884" lon="-5.844375109300017">
        <ele>1839.1400000000001</ele>
        <time>2019-03-12T11:36:30Z</time>
      </trkpt>
      <trkpt lat="31.630591107532382" lon="-5.844529755413532">
        <ele>1839.1400000000001</ele>
        <time>2019-03-12T11:36:31Z</time>
      </trkpt>
      <trkpt lat="31.630598651245236" lon="-5.844687167555094">
        <ele>1839.1400000000001</ele>
        <time>2019-03-12T11:36:32Z</time>
      </trkpt>
      <trkpt lat="31.630578115582466" lon="-5.844843657687306">
        <ele>1839.6199999999999</ele>
        <time>2019-03-12T11:36:33Z</time>
      </trkpt>
      <trkpt lat="31.630533272400498" lon="-5.844999728724361">
        <ele>1839.6199999999999</ele>
        <time>2019-03-12T11:36:34Z</time>
      </trkpt>
      <trkpt lat="31.630480969324708" lon="-5.845157895237207">
        <ele>1840.0999999999999</ele>
        <time>2019-03-12T11:36:35Z</time>
      </trkpt>
      <trkpt lat="31.630055503919721" lon="-5.846109408885241">
        <ele>1839.6199999999999</ele>
        <time>2019-03-12T11:36:36Z</time>
      </trkpt>
      <trkpt lat="31.629994651302695" lon="-5.846286937594414">
        <ele>1839.1400000000001</ele>
        <time>2019-03-12T11:36:37Z</time>
      </trkpt>
      <trkpt lat="31.629950059577823" lon="-5.846475195139647">
        <ele>1838.6600000000001</ele>
        <time>2019-03-12T11:36:44Z</time>
      </trkpt>
      <trkpt lat="31.629765070974827" lon="-5.84720442071557">
        <ele>1838.1800000000001</ele>
        <time>2019-03-12T11:36:45Z</time>
      </trkpt>
      <trkpt lat="31.629683850333095" lon="-5.8473617490381">
        <ele>1837.22</ele>
        <time>2019-03-12T11:36:47Z</time>
      </trkpt>
      <trkpt lat="31.629580585286021" lon="-5.847506672143936">
        <ele>1836.74</ele>
        <time>2019-03-12T11:36:48Z</time>
      </trkpt>
      <trkpt lat="31.629464579746127" lon="-5.847642961889505">
        <ele>1835.77</ele>
        <time>2019-03-12T11:36:49Z</time>
      </trkpt>
      <trkpt lat="31.629342120140791" lon="-5.847764583304524">
        <ele>1835.29</ele>
        <time>2019-03-12T11:36:50Z</time>
      </trkpt>
      <trkpt lat="31.629222929477692" lon="-5.847866842523217">
        <ele>1834.8099999999999</ele>
        <time>2019-03-12T11:36:51Z</time>
      </trkpt>
      <trkpt lat="31.629105499014258" lon="-5.847946051508188">
        <ele>1834.3299999999999</ele>
        <time>2019-03-12T11:36:52Z</time>
      </trkpt>
      <trkpt lat="31.6289824526757" lon="-5.847999779507518">
        <ele>1832.4100000000001</ele>
        <time>2019-03-12T11:36:53Z</time>
      </trkpt>
      <trkpt lat="31.62885102443397" lon="-5.84802869707346">
        <ele>1831.9300000000001</ele>
        <time>2019-03-12T11:36:57Z</time>
      </trkpt>
      <trkpt lat="31.628718925639987" lon="-5.848044622689486">
        <ele>1831.9300000000001</ele>
        <time>2019-03-12T11:36:58Z</time>
      </trkpt>
      <trkpt lat="31.627763975411654" lon="-5.848017716780305">
        <ele>1831.9300000000001</ele>
        <time>2019-03-12T11:37:06Z</time>
      </trkpt>
      <trkpt lat="31.627636486664414" lon="-5.848037833347917">
        <ele>1832.4100000000001</ele>
        <time>2019-03-12T11:37:07Z</time>
      </trkpt>
      <trkpt lat="31.627377485856414" lon="-5.848083179444075">
        <ele>1832.4100000000001</ele>
        <time>2019-03-12T11:37:08Z</time>
      </trkpt>
      <trkpt lat="31.627243123948574" lon="-5.848089717328548">
        <ele>1832.4100000000001</ele>
        <time>2019-03-12T11:37:09Z</time>
      </trkpt>
      <trkpt lat="31.627110103145242" lon="-5.848077312111855">
        <ele>1832.4100000000001</ele>
        <time>2019-03-12T11:37:10Z</time>
      </trkpt>
      <trkpt lat="31.6269810218364" lon="-5.848043700680137">
        <ele>1832.4100000000001</ele>
        <time>2019-03-12T11:37:11Z</time>
      </trkpt>
      <trkpt lat="31.626859232783318" lon="-5.847994163632393">
        <ele>1832.4100000000001</ele>
        <time>2019-03-12T11:37:12Z</time>
      </trkpt>
      <trkpt lat="31.626741299405694" lon="-5.84792903624475">
        <ele>1832.4100000000001</ele>
        <time>2019-03-12T11:37:13Z</time>
      </trkpt>
      <trkpt lat="31.626624288037419" lon="-5.847852844744921">
        <ele>1832.8900000000001</ele>
        <time>2019-03-12T11:37:14Z</time>
      </trkpt>
      <trkpt lat="31.626151632517576" lon="-5.847596442326903">
        <ele>1832.8900000000001</ele>
        <time>2019-03-12T11:37:15Z</time>
      </trkpt>
      <trkpt lat="31.626025233417749" lon="-5.847566435113549">
        <ele>1832.8900000000001</ele>
        <time>2019-03-12T11:37:16Z</time>
      </trkpt>
      <trkpt lat="31.625075396150351" lon="-5.847408017143607">
        <ele>1832.8900000000001</ele>
        <time>2019-03-12T11:37:23Z</time>
      </trkpt>
      <trkpt lat="31.624962324276567" lon="-5.84739837795496">
        <ele>1832.8900000000001</ele>
        <time>2019-03-12T11:37:30Z</time>
      </trkpt>
      <trkpt lat="31.624843217432499" lon="-5.847398461773992">
        <ele>1832.8900000000001</ele>
        <time>2019-03-12T11:37:37Z</time>
      </trkpt>
      <trkpt lat="31.624717488884926" lon="-5.84741204045713">
        <ele>1832.8900000000001</ele>
        <time>2019-03-12T11:37:38Z</time>
      </trkpt>
      <trkpt lat="31.624588742852211" lon="-5.847438108175993">
        <ele>1832.8900000000001</ele>
        <time>2019-03-12T11:37:43Z</time>
      </trkpt>
      <trkpt lat="31.624460080638528" lon="-5.847476413473487">
        <ele>1833.3699999999999</ele>
        <time>2019-03-12T11:37:44Z</time>
      </trkpt>
      <trkpt lat="31.624333681538701" lon="-5.847534667700529">
        <ele>1833.3699999999999</ele>
        <time>2019-03-12T11:37:45Z</time>
      </trkpt>
      <trkpt lat="31.624209880828857" lon="-5.84761974401772">
        <ele>1833.3699999999999</ele>
        <time>2019-03-12T11:37:52Z</time>
      </trkpt>
      <trkpt lat="31.624090522527695" lon="-5.847725942730904">
        <ele>1833.3699999999999</ele>
        <time>2019-03-12T11:37:53Z</time>
      </trkpt>
      <trkpt lat="31.623975187540054" lon="-5.847847480326891">
        <ele>1832.8900000000001</ele>
        <time>2019-03-12T11:37:54Z</time>
      </trkpt>
      <trkpt lat="31.623865552246571" lon="-5.847979998216033">
        <ele>1830.49</ele>
        <time>2019-03-12T11:38:07Z</time>
      </trkpt>
      <trkpt lat="31.623008837923408" lon="-5.848774602636695">
        <ele>1830.49</ele>
        <time>2019-03-12T11:38:11Z</time>
      </trkpt>
      <trkpt lat="31.622397126629949" lon="-5.849157487973571">
        <ele>1831.45</ele>
        <time>2019-03-12T11:38:12Z</time>
      </trkpt>
      <trkpt lat="31.621759347617626" lon="-5.849760062992573">
        <ele>1831.9300000000001</ele>
        <time>2019-03-12T11:38:13Z</time>
      </trkpt>
      <trkpt lat="31.621682485565543" lon="-5.849881265312433">
        <ele>1832.4100000000001</ele>
        <time>2019-03-12T11:38:14Z</time>
      </trkpt>
      <trkpt lat="31.621309658512473" lon="-5.850594732910395">
        <ele>1830.01</ele>
        <time>2019-03-12T11:38:15Z</time>
      </trkpt>
      <trkpt lat="31.621257774531841" lon="-5.850760862231255">
        <ele>1829.53</ele>
        <time>2019-03-12T11:38:16Z</time>
      </trkpt>
      <trkpt lat="31.621222821995616" lon="-5.850939899682999">
        <ele>1829.53</ele>
        <time>2019-03-12T11:38:17Z</time>
      </trkpt>
      <trkpt lat="31.620983434841037" lon="-5.852130213752389">
        <ele>1826.1600000000001</ele>
        <time>2019-03-12T11:38:18Z</time>
      </trkpt>
      <trkpt lat="31.620973628014326" lon="-5.852316375821829">
        <ele>1825.6800000000001</ele>
        <time>2019-03-12T11:38:19Z</time>
      </trkpt>
      <trkpt lat="31.620983267202973" lon="-5.852510500699282">
        <ele>1825.2</ele>
        <time>2019-03-12T11:38:24Z</time>
      </trkpt>
      <trkpt lat="31.621195245534182" lon="-5.855165384709835">
        <ele>1824.72</ele>
        <time>2019-03-12T11:38:25Z</time>
      </trkpt>
      <trkpt lat="31.62117219530046" lon="-5.855838283896446">
        <ele>1823.76</ele>
        <time>2019-03-12T11:38:26Z</time>
      </trkpt>
      <trkpt lat="31.621127603575587" lon="-5.855959067121148">
        <ele>1823.28</ele>
        <time>2019-03-12T11:38:37Z</time>
      </trkpt>
      <trkpt lat="31.621056105941534" lon="-5.856061493977904">
        <ele>1822.8</ele>
        <time>2019-03-12T11:38:40Z</time>
      </trkpt>
      <trkpt lat="31.620963234454393" lon="-5.856138272210956">
        <ele>1822.3199999999999</ele>
        <time>2019-03-12T11:38:41Z</time>
      </trkpt>
      <trkpt lat="31.620855610817671" lon="-5.856183283030987">
        <ele>1821.8399999999999</ele>
        <time>2019-03-12T11:38:42Z</time>
      </trkpt>
      <trkpt lat="31.620740443468094" lon="-5.856195688247681">
        <ele>1820.8699999999999</ele>
        <time>2019-03-12T11:38:43Z</time>
      </trkpt>
      <trkpt lat="31.620626784861088" lon="-5.856168949976564">
        <ele>1818.95</ele>
        <time>2019-03-12T11:38:44Z</time>
      </trkpt>
      <trkpt lat="31.620514886453748" lon="-5.856115138158202">
        <ele>1818.95</ele>
        <time>2019-03-12T11:38:47Z</time>
      </trkpt>
      <trkpt lat="31.620401395484805" lon="-5.85605051368475">
        <ele>1818.47</ele>
        <time>2019-03-12T11:38:48Z</time>
      </trkpt>
      <trkpt lat="31.619841232895851" lon="-5.855650948360562">
        <ele>1818.95</ele>
        <time>2019-03-12T11:39:01Z</time>
      </trkpt>
      <trkpt lat="31.619718354195356" lon="-5.855583725497127">
        <ele>1818.95</ele>
        <time>2019-03-12T11:39:12Z</time>
      </trkpt>
      <trkpt lat="31.619588015601039" lon="-5.855529997497797">
        <ele>1819.4300000000001</ele>
        <time>2019-03-12T11:39:19Z</time>
      </trkpt>
      <trkpt lat="31.618043901398778" lon="-5.855269739404321">
        <ele>1819.4300000000001</ele>
        <time>2019-03-12T11:39:20Z</time>
      </trkpt>
      <trkpt lat="31.617654142901301" lon="-5.855306619778276">
        <ele>1820.3900000000001</ele>
        <time>2019-03-12T11:39:21Z</time>
      </trkpt>
      <trkpt lat="31.617529671639204" lon="-5.855347104370594">
        <ele>1820.8699999999999</ele>
        <time>2019-03-12T11:39:22Z</time>
      </trkpt>
      <trkpt lat="31.617411486804485" lon="-5.855406951159239">
        <ele>1823.76</ele>
        <time>2019-03-12T11:39:23Z</time>
      </trkpt>
      <trkpt lat="31.617305874824524" lon="-5.855480544269085">
        <ele>1824.72</ele>
        <time>2019-03-12T11:39:24Z</time>
      </trkpt>
      <trkpt lat="31.617213673889637" lon="-5.855557071045041">
        <ele>1835.29</ele>
        <time>2019-03-12T11:39:25Z</time>
      </trkpt>
      <trkpt lat="31.617007646709681" lon="-5.855760667473078">
        <ele>1842.02</ele>
        <time>2019-03-12T11:39:26Z</time>
      </trkpt>
      <trkpt lat="31.616972191259265" lon="-5.855836356058717">
        <ele>1843.47</ele>
        <time>2019-03-12T11:39:27Z</time>
      </trkpt>
      <trkpt lat="31.616536835208535" lon="-5.856994651257992">
        <ele>1842.98</ele>
        <time>2019-03-12T11:39:28Z</time>
      </trkpt>
      <trkpt lat="31.615901486948133" lon="-5.858117658644915">
        <ele>1842.98</ele>
        <time>2019-03-12T11:39:29Z</time>
      </trkpt>
      <trkpt lat="31.61534920334816" lon="-5.858789049088955">
        <ele>1842.98</ele>
        <time>2019-03-12T11:39:37Z</time>
      </trkpt>
      <trkpt lat="31.615251386538148" lon="-5.858886698260903">
        <ele>1842.5</ele>
        <time>2019-03-12T11:39:38Z</time>
      </trkpt>
      <trkpt lat="31.615143595263362" lon="-5.858972109854221">
        <ele>1842.5</ele>
        <time>2019-03-12T11:39:49Z</time>
      </trkpt>
      <trkpt lat="31.615024236962199" lon="-5.859043942764401">
        <ele>1842.02</ele>
        <time>2019-03-12T11:39:56Z</time>
      </trkpt>
      <trkpt lat="31.614894066005945" lon="-5.859105968847871">
        <ele>1842.02</ele>
        <time>2019-03-12T11:39:57Z</time>
      </trkpt>
      <trkpt lat="31.61475894972682" lon="-5.859156930819154">
        <ele>1842.02</ele>
        <time>2019-03-12T11:40:07Z</time>
      </trkpt>
      <trkpt lat="31.614617295563221" lon="-5.85919582284987">
        <ele>1842.02</ele>
        <time>2019-03-12T11:40:08Z</time>
      </trkpt>
      <trkpt lat="31.614469606429338" lon="-5.859223986044526">
        <ele>1842.02</ele>
        <time>2019-03-12T11:40:09Z</time>
      </trkpt>
      <trkpt lat="31.614315547049046" lon="-5.859241588041186">
        <ele>1839.1400000000001</ele>
        <time>2019-03-12T11:40:17Z</time>
      </trkpt>
      <trkpt lat="31.614157967269421" lon="-5.859246784821153">
        <ele>1838.1800000000001</ele>
        <time>2019-03-12T11:40:25Z</time>
      </trkpt>
      <trkpt lat="31.61399619653821" lon="-5.85924125276506">
        <ele>1824.24</ele>
        <time>2019-03-12T11:40:26Z</time>
      </trkpt>
      <trkpt lat="31.612696330994368" lon="-5.858876137062907">
        <ele>1816.55</ele>
        <time>2019-03-12T11:40:27Z</time>
      </trkpt>
      <trkpt lat="31.612550150603056" lon="-5.858778236433864">
        <ele>1816.0699999999999</ele>
        <time>2019-03-12T11:40:28Z</time>
      </trkpt>
      <trkpt lat="31.611022632569075" lon="-5.857726894319058">
        <ele>1811.74</ele>
        <time>2019-03-12T11:40:29Z</time>
      </trkpt>
      <trkpt lat="31.610230291262269" lon="-5.857174778357148">
        <ele>1811.26</ele>
        <time>2019-03-12T11:40:30Z</time>
      </trkpt>
      <trkpt lat="31.610100623220205" lon="-5.857134042307735">
        <ele>1810.78</ele>
        <time>2019-03-12T11:40:39Z</time>
      </trkpt>
      <trkpt lat="31.608637142926455" lon="-5.856926338747144">
        <ele>1805.49</ele>
        <time>2019-03-12T11:40:49Z</time>
      </trkpt>
      <trkpt lat="31.608484089374542" lon="-5.856956262141466">
        <ele>1805.01</ele>
        <time>2019-03-12T11:40:50Z</time>
      </trkpt>
      <trkpt lat="31.60832860507071" lon="-5.857017198577523">
        <ele>1805.01</ele>
        <time>2019-03-12T11:40:58Z</time>
      </trkpt>
      <trkpt lat="31.607075929641724" lon="-5.857733599841595">
        <ele>1805.49</ele>
        <time>2019-03-12T11:41:04Z</time>
      </trkpt>
      <trkpt lat="31.606143107637763" lon="-5.858686538413167">
        <ele>1805.49</ele>
        <time>2019-03-12T11:41:05Z</time>
      </trkpt>
      <trkpt lat="31.606052331626415" lon="-5.858817882835865">
        <ele>1805.49</ele>
        <time>2019-03-12T11:41:06Z</time>
      </trkpt>
      <trkpt lat="31.60598075017333" lon="-5.858958614990115">
        <ele>1805.49</ele>
        <time>2019-03-12T11:41:07Z</time>
      </trkpt>
      <trkpt lat="31.605936242267489" lon="-5.859109908342362">
        <ele>1808.3800000000001</ele>
        <time>2019-03-12T11:41:08Z</time>
      </trkpt>
      <trkpt lat="31.60592308267951" lon="-5.859269667416811">
        <ele>1807.9000000000001</ele>
        <time>2019-03-12T11:41:09Z</time>
      </trkpt>
      <trkpt lat="31.605927273631096" lon="-5.859440574422479">
        <ele>1807.9000000000001</ele>
        <time>2019-03-12T11:41:14Z</time>
      </trkpt>
      <trkpt lat="31.605850830674171" lon="-5.861104046925902">
        <ele>1806.45</ele>
        <time>2019-03-12T11:41:15Z</time>
      </trkpt>
      <trkpt lat="31.605547741055489" lon="-5.862866090610623">
        <ele>1804.05</ele>
        <time>2019-03-12T11:41:16Z</time>
      </trkpt>
      <trkpt lat="31.605470711365342" lon="-5.863016042858362">
        <ele>1803.5699999999999</ele>
        <time>2019-03-12T11:41:23Z</time>
      </trkpt>
      <trkpt lat="31.604743245989084" lon="-5.864324709400535">
        <ele>1803.5699999999999</ele>
        <time>2019-03-12T11:41:24Z</time>
      </trkpt>
      <trkpt lat="31.604164056479931" lon="-5.865168767049909">
        <ele>1803.0899999999999</ele>
        <time>2019-03-12T11:41:25Z</time>
      </trkpt>
      <trkpt lat="31.604063473641872" lon="-5.865266164764762">
        <ele>1802.6099999999999</ele>
        <time>2019-03-12T11:41:36Z</time>
      </trkpt>
      <trkpt lat="31.603951491415501" lon="-5.86534034460783">
        <ele>1802.1300000000001</ele>
        <time>2019-03-12T11:41:46Z</time>
      </trkpt>
      <trkpt lat="31.603824589401484" lon="-5.865388037636876">
        <ele>1800.6900000000001</ele>
        <time>2019-03-12T11:41:49Z</time>
      </trkpt>
      <trkpt lat="31.603687880560756" lon="-5.865417374297977">
        <ele>1800.6900000000001</ele>
        <time>2019-03-12T11:41:50Z</time>
      </trkpt>
      <trkpt lat="31.603542286902666" lon="-5.865443777292967">
        <ele>1800.6900000000001</ele>
        <time>2019-03-12T11:41:51Z</time>
      </trkpt>
      <trkpt lat="31.602773331105709" lon="-5.865628514438868">
        <ele>1798.76</ele>
        <time>2019-03-12T11:41:52Z</time>
      </trkpt>
      <trkpt lat="31.602619104087353" lon="-5.865631531924009">
        <ele>1798.76</ele>
        <time>2019-03-12T11:41:53Z</time>
      </trkpt>
      <trkpt lat="31.602465966716409" lon="-5.865616528317332">
        <ele>1798.28</ele>
        <time>2019-03-12T11:42:02Z</time>
      </trkpt>
      <trkpt lat="31.601387215778232" lon="-5.865583000704646">
        <ele>1795.4000000000001</ele>
        <time>2019-03-12T11:42:09Z</time>
      </trkpt>
      <trkpt lat="31.601228881627321" lon="-5.865565985441208">
        <ele>1795.8800000000001</ele>
        <time>2019-03-12T11:42:19Z</time>
      </trkpt>
      <trkpt lat="31.601072726771235" lon="-5.865532122552395">
        <ele>1795.8800000000001</ele>
        <time>2019-03-12T11:42:20Z</time>
      </trkpt>
      <trkpt lat="31.599277909845114" lon="-5.865070698782802">
        <ele>1795.8800000000001</ele>
        <time>2019-03-12T11:42:21Z</time>
      </trkpt>
      <trkpt lat="31.597730778157711" lon="-5.864851931110025">
        <ele>1795.8800000000001</ele>
        <time>2019-03-12T11:42:22Z</time>
      </trkpt>
      <trkpt lat="31.59731537103653" lon="-5.864883279427886">
        <ele>1795.8800000000001</ele>
        <time>2019-03-12T11:42:30Z</time>
      </trkpt>
      <trkpt lat="31.59717514179647" lon="-5.864926613867283">
        <ele>1795.8800000000001</ele>
        <time>2019-03-12T11:42:31Z</time>
      </trkpt>
      <trkpt lat="31.597033906728029" lon="-5.864989059045911">
        <ele>1796.3599999999999</ele>
        <time>2019-03-12T11:42:39Z</time>
      </trkpt>
      <trkpt lat="31.596890995278955" lon="-5.865069106221199">
        <ele>1794.9200000000001</ele>
        <time>2019-03-12T11:42:43Z</time>
      </trkpt>
      <trkpt lat="31.59674565307796" lon="-5.865160385146737">
        <ele>1793.96</ele>
        <time>2019-03-12T11:42:44Z</time>
      </trkpt>
      <trkpt lat="31.595450146123767" lon="-5.86620963178575">
        <ele>1794.4400000000001</ele>
        <time>2019-03-12T11:42:53Z</time>
      </trkpt>
      <trkpt lat="31.59455269575119" lon="-5.867179837077856">
        <ele>1794.4400000000001</ele>
        <time>2019-03-12T11:42:54Z</time>
      </trkpt>
      <trkpt lat="31.593459444120526" lon="-5.868459586054087">
        <ele>1794.9200000000001</ele>
        <time>2019-03-12T11:42:55Z</time>
      </trkpt>
      <trkpt lat="31.593361208215356" lon="-5.868581123650074">
        <ele>1796.3599999999999</ele>
        <time>2019-03-12T11:42:56Z</time>
      </trkpt>
      <trkpt lat="31.593282585963607" lon="-5.868725376203656">
        <ele>1796.8399999999999</ele>
        <time>2019-03-12T11:42:57Z</time>
      </trkpt>
      <trkpt lat="31.593224750831723" lon="-5.868882369250059">
        <ele>1798.76</ele>
        <time>2019-03-12T11:42:58Z</time>
      </trkpt>
      <trkpt lat="31.593021489679813" lon="-5.870356913655996">
        <ele>1799.24</ele>
        <time>2019-03-12T11:42:59Z</time>
      </trkpt>
      <trkpt lat="31.593040265142918" lon="-5.870562940835953">
        <ele>1798.76</ele>
        <time>2019-03-12T11:43:00Z</time>
      </trkpt>
      <trkpt lat="31.593236988410354" lon="-5.872017201036215">
        <ele>1793.48</ele>
        <time>2019-03-12T11:43:01Z</time>
      </trkpt>
      <trkpt lat="31.593285603448749" lon="-5.87245574221015">
        <ele>1793</ele>
        <time>2019-03-12T11:43:02Z</time>
      </trkpt>
      <trkpt lat="31.593320639804006" lon="-5.872572753578425">
        <ele>1793</ele>
        <time>2019-03-12T11:43:03Z</time>
      </trkpt>
      <trkpt lat="31.593833779916167" lon="-5.873652510344982">
        <ele>1793</ele>
        <time>2019-03-12T11:43:11Z</time>
      </trkpt>
      <trkpt lat="31.593892872333527" lon="-5.873755104839802">
        <ele>1792.52</ele>
        <time>2019-03-12T11:43:17Z</time>
      </trkpt>
      <trkpt lat="31.593935955315828" lon="-5.873862225562334">
        <ele>1792.52</ele>
        <time>2019-03-12T11:43:18Z</time>
      </trkpt>
      <trkpt lat="31.593959843739867" lon="-5.873976638540626">
        <ele>1792.03</ele>
        <time>2019-03-12T11:43:19Z</time>
      </trkpt>
      <trkpt lat="31.593960765749216" lon="-5.874095745384693">
        <ele>1791.55</ele>
        <time>2019-03-12T11:43:21Z</time>
      </trkpt>
      <trkpt lat="31.593931680545211" lon="-5.874209823086858">
        <ele>1791.55</ele>
        <time>2019-03-12T11:43:22Z</time>
      </trkpt>
      <trkpt lat="31.593871330842376" lon="-5.874304287135601">
        <ele>1791.55</ele>
        <time>2019-03-12T11:43:23Z</time>
      </trkpt>
      <trkpt lat="31.593786338344216" lon="-5.874372515827417">
        <ele>1791.55</ele>
        <time>2019-03-12T11:43:28Z</time>
      </trkpt>
      <trkpt lat="31.593681313097477" lon="-5.87441174313426">
        <ele>1791.0699999999999</ele>
        <time>2019-03-12T11:43:29Z</time>
      </trkpt>
      <trkpt lat="31.593564553186297" lon="-5.874425489455462">
        <ele>1789.1500000000001</ele>
        <time>2019-03-12T11:43:30Z</time>
      </trkpt>
      <trkpt lat="31.593439662829041" lon="-5.87442934513092">
        <ele>1788.6700000000001</ele>
        <time>2019-03-12T11:43:31Z</time>
      </trkpt>
      <trkpt lat="31.592263597995043" lon="-5.874496484175324">
        <ele>1787.71</ele>
        <time>2019-03-12T11:43:32Z</time>
      </trkpt>
      <trkpt lat="31.591249639168382" lon="-5.8745754417032">
        <ele>1787.23</ele>
        <time>2019-03-12T11:43:33Z</time>
      </trkpt>
      <trkpt lat="31.591100441291928" lon="-5.874617099761963">
        <ele>1787.23</ele>
        <time>2019-03-12T11:43:35Z</time>
      </trkpt>
      <trkpt lat="31.590964822098613" lon="-5.874678287655115">
        <ele>1787.23</ele>
        <time>2019-03-12T11:43:36Z</time>
      </trkpt>
      <trkpt lat="31.590721579268575" lon="-5.874780965968967">
        <ele>1787.23</ele>
        <time>2019-03-12T11:43:37Z</time>
      </trkpt>
      <trkpt lat="31.590598030015826" lon="-5.874792113900185">
        <ele>1787.23</ele>
        <time>2019-03-12T11:43:39Z</time>
      </trkpt>
      <trkpt lat="31.590470541268587" lon="-5.874785659834743">
        <ele>1787.23</ele>
        <time>2019-03-12T11:43:40Z</time>
      </trkpt>
      <trkpt lat="31.58977827988565" lon="-5.87467510253191">
        <ele>1787.23</ele>
        <time>2019-03-12T11:43:48Z</time>
      </trkpt>
      <trkpt lat="31.589644588530064" lon="-5.874678287655115">
        <ele>1787.71</ele>
        <time>2019-03-12T11:43:59Z</time>
      </trkpt>
      <trkpt lat="31.589511651545763" lon="-5.874707456678152">
        <ele>1787.71</ele>
        <time>2019-03-12T11:44:12Z</time>
      </trkpt>
      <trkpt lat="31.589385755360126" lon="-5.874765375629067">
        <ele>1788.6700000000001</ele>
        <time>2019-03-12T11:44:13Z</time>
      </trkpt>
      <trkpt lat="31.589266313239932" lon="-5.874847434461117">
        <ele>1789.1500000000001</ele>
        <time>2019-03-12T11:44:14Z</time>
      </trkpt>
      <trkpt lat="31.589148966595531" lon="-5.874937037006021">
        <ele>1790.1099999999999</ele>
        <time>2019-03-12T11:44:15Z</time>
      </trkpt>
      <trkpt lat="31.588899940252304" lon="-5.87509729899466">
        <ele>1791.0699999999999</ele>
        <time>2019-03-12T11:44:16Z</time>
      </trkpt>
      <trkpt lat="31.588763734325767" lon="-5.875151949003339">
        <ele>1791.55</ele>
        <time>2019-03-12T11:44:24Z</time>
      </trkpt>
      <trkpt lat="31.588627276942134" lon="-5.875186566263437">
        <ele>1793.96</ele>
        <time>2019-03-12T11:44:34Z</time>
      </trkpt>
      <trkpt lat="31.588362492620945" lon="-5.875238869339228">
        <ele>1792.03</ele>
        <time>2019-03-12T11:44:35Z</time>
      </trkpt>
      <trkpt lat="31.588240284472704" lon="-5.875285975635052">
        <ele>1788.1900000000001</ele>
        <time>2019-03-12T11:44:39Z</time>
      </trkpt>
      <trkpt lat="31.587165724486113" lon="-5.875570457428694">
        <ele>1787.71</ele>
        <time>2019-03-12T11:44:40Z</time>
      </trkpt>
      <trkpt lat="31.58550183288753" lon="-5.875452775508165">
        <ele>1787.23</ele>
        <time>2019-03-12T11:44:41Z</time>
      </trkpt>
      <trkpt lat="31.583336954936385" lon="-5.875278851017356">
        <ele>1786.27</ele>
        <time>2019-03-12T11:44:42Z</time>
      </trkpt>
      <trkpt lat="31.583176022395492" lon="-5.875304499641061">
        <ele>1785.79</ele>
        <time>2019-03-12T11:44:43Z</time>
      </trkpt>
      <trkpt lat="31.583016766235232" lon="-5.875358562916517">
        <ele>1780.02</ele>
        <time>2019-03-12T11:44:44Z</time>
      </trkpt>
      <trkpt lat="31.582859270274639" lon="-5.875435676425695">
        <ele>1778.0999999999999</ele>
        <time>2019-03-12T11:44:45Z</time>
      </trkpt>
      <trkpt lat="31.582699427381158" lon="-5.875525362789631">
        <ele>1778.0999999999999</ele>
        <time>2019-03-12T11:44:48Z</time>
      </trkpt>
      <trkpt lat="31.581463851034641" lon="-5.87651920504868">
        <ele>1777.6099999999999</ele>
        <time>2019-03-12T11:44:49Z</time>
      </trkpt>
      <trkpt lat="31.580302454531193" lon="-5.878032054752111">
        <ele>1778.0999999999999</ele>
        <time>2019-03-12T11:44:50Z</time>
      </trkpt>
      <trkpt lat="31.580233303830028" lon="-5.878200782462955">
        <ele>1778.0999999999999</ele>
        <time>2019-03-12T11:44:51Z</time>
      </trkpt>
      <trkpt lat="31.580023756250739" lon="-5.878852726891637">
        <ele>1778.0999999999999</ele>
        <time>2019-03-12T11:44:52Z</time>
      </trkpt>
      <trkpt lat="31.579947816208005" lon="-5.878993710502982">
        <ele>1778.0999999999999</ele>
        <time>2019-03-12T11:44:53Z</time>
      </trkpt>
      <trkpt lat="31.579857710748911" lon="-5.879122288897634">
        <ele>1778.0999999999999</ele>
        <time>2019-03-12T11:44:54Z</time>
      </trkpt>
      <trkpt lat="31.579755367711186" lon="-5.879240306094289">
        <ele>1778.0999999999999</ele>
        <time>2019-03-12T11:44:55Z</time>
      </trkpt>
      <trkpt lat="31.579642128199339" lon="-5.879341475665569">
        <ele>1777.6099999999999</ele>
        <time>2019-03-12T11:44:56Z</time>
      </trkpt>
      <trkpt lat="31.579524949193001" lon="-5.879427725449204">
        <ele>1777.6099999999999</ele>
        <time>2019-03-12T11:45:01Z</time>
      </trkpt>
      <trkpt lat="31.579402238130569" lon="-5.879507018253207">
        <ele>1777.6099999999999</ele>
        <time>2019-03-12T11:45:02Z</time>
      </trkpt>
      <trkpt lat="31.579049779102206" lon="-5.879770126193762">
        <ele>1778.0999999999999</ele>
        <time>2019-03-12T11:45:03Z</time>
      </trkpt>
      <trkpt lat="31.578946681693196" lon="-5.879886047914624">
        <ele>1778.5799999999999</ele>
        <time>2019-03-12T11:45:06Z</time>
      </trkpt>
      <trkpt lat="31.578861437737942" lon="-5.880024684593082">
        <ele>1779.0599999999999</ele>
        <time>2019-03-12T11:45:07Z</time>
      </trkpt>
      <trkpt lat="31.578801842406392" lon="-5.88018293492496">
        <ele>1779.54</ele>
        <time>2019-03-12T11:45:08Z</time>
      </trkpt>
      <trkpt lat="31.578763956204057" lon="-5.880351075902581">
        <ele>1780.5</ele>
        <time>2019-03-12T11:45:10Z</time>
      </trkpt>
      <trkpt lat="31.578741911798716" lon="-5.880515109747648">
        <ele>1780.98</ele>
        <time>2019-03-12T11:45:11Z</time>
      </trkpt>
      <trkpt lat="31.578731685876846" lon="-5.880674785003066">
        <ele>1783.8599999999999</ele>
        <time>2019-03-12T11:45:12Z</time>
      </trkpt>
      <trkpt lat="31.578736212104559" lon="-5.880829263478518">
        <ele>1784.8199999999999</ele>
        <time>2019-03-12T11:45:20Z</time>
      </trkpt>
      <trkpt lat="31.578747443854809" lon="-5.880974857136607">
        <ele>1785.79</ele>
        <time>2019-03-12T11:45:21Z</time>
      </trkpt>
      <trkpt lat="31.578887337818742" lon="-5.881549771875143">
        <ele>1788.1900000000001</ele>
        <time>2019-03-12T11:45:25Z</time>
      </trkpt>
      <trkpt lat="31.578933605924249" lon="-5.881636524572969">
        <ele>1789.1500000000001</ele>
        <time>2019-03-12T11:45:26Z</time>
      </trkpt>
      <trkpt lat="31.578985489904881" lon="-5.8817143086344">
        <ele>1790.1099999999999</ele>
        <time>2019-03-12T11:45:27Z</time>
      </trkpt>
      <trkpt lat="31.579138208180666" lon="-5.881905164569616">
        <ele>1790.5899999999999</ele>
        <time>2019-03-12T11:45:34Z</time>
      </trkpt>
      <trkpt lat="31.579189337790012" lon="-5.881951600313187">
        <ele>1790.5899999999999</ele>
        <time>2019-03-12T11:45:35Z</time>
      </trkpt>
      <trkpt lat="31.579248765483499" lon="-5.881988564506173">
        <ele>1791.0699999999999</ele>
        <time>2019-03-12T11:45:36Z</time>
      </trkpt>
      <trkpt lat="31.579384133219719" lon="-5.882053524255753">
        <ele>1792.03</ele>
        <time>2019-03-12T11:45:37Z</time>
      </trkpt>
      <trkpt lat="31.579450350254774" lon="-5.882104486227036">
        <ele>1791.55</ele>
        <time>2019-03-12T11:45:38Z</time>
      </trkpt>
      <trkpt lat="31.579514890909195" lon="-5.882166847586632">
        <ele>1789.6300000000001</ele>
        <time>2019-03-12T11:45:39Z</time>
      </trkpt>
      <trkpt lat="31.579984864220023" lon="-5.882792053744197">
        <ele>1788.6700000000001</ele>
        <time>2019-03-12T11:45:40Z</time>
      </trkpt>
      <trkpt lat="31.580057786777616" lon="-5.882852738723159">
        <ele>1788.6700000000001</ele>
        <time>2019-03-12T11:45:41Z</time>
      </trkpt>
      <trkpt lat="31.580438828095794" lon="-5.883116098120809">
        <ele>1783.3800000000001</ele>
        <time>2019-03-12T11:45:42Z</time>
      </trkpt>
      <trkpt lat="31.580532034859061" lon="-5.883217100054026">
        <ele>1782.4200000000001</ele>
        <time>2019-03-12T11:45:43Z</time>
      </trkpt>
      <trkpt lat="31.580619039013982" lon="-5.883329166099429">
        <ele>1781.46</ele>
        <time>2019-03-12T11:45:44Z</time>
      </trkpt>
      <trkpt lat="31.581274922937155" lon="-5.884215719997883">
        <ele>1780.98</ele>
        <time>2019-03-12T11:45:45Z</time>
      </trkpt>
      <trkpt lat="31.581347342580557" lon="-5.884355111047626">
        <ele>1780.5</ele>
        <time>2019-03-12T11:45:46Z</time>
      </trkpt>
      <trkpt lat="31.581411296501756" lon="-5.88449995033443">
        <ele>1780.02</ele>
        <time>2019-03-12T11:45:47Z</time>
      </trkpt>
      <trkpt lat="31.581465611234307" lon="-5.884651327505708">
        <ele>1779.54</ele>
        <time>2019-03-12T11:45:54Z</time>
      </trkpt>
      <trkpt lat="31.581511376425624" lon="-5.884806727990508">
        <ele>1779.0599999999999</ele>
        <time>2019-03-12T11:45:55Z</time>
      </trkpt>
      <trkpt lat="31.581547670066357" lon="-5.884967157617211">
        <ele>1778.5799999999999</ele>
        <time>2019-03-12T11:45:57Z</time>
      </trkpt>
      <trkpt lat="31.58156979829073" lon="-5.885132029652596">
        <ele>1778.5799999999999</ele>
        <time>2019-03-12T11:45:58Z</time>
      </trkpt>
      <trkpt lat="31.581578264012933" lon="-5.885294303297997">
        <ele>1778.0999999999999</ele>
        <time>2019-03-12T11:45:59Z</time>
      </trkpt>
      <trkpt lat="31.581571809947491" lon="-5.885454146191478">
        <ele>1777.6099999999999</ele>
        <time>2019-03-12T11:46:00Z</time>
      </trkpt>
      <trkpt lat="31.581548172980547" lon="-5.885612228885293">
        <ele>1777.6099999999999</ele>
        <time>2019-03-12T11:46:01Z</time>
      </trkpt>
      <trkpt lat="31.581511041149497" lon="-5.885773580521345">
        <ele>1777.1300000000001</ele>
        <time>2019-03-12T11:46:02Z</time>
      </trkpt>
      <trkpt lat="31.581460330635309" lon="-5.885937279090285">
        <ele>1778.5799999999999</ele>
        <time>2019-03-12T11:46:03Z</time>
      </trkpt>
      <trkpt lat="31.581397717818618" lon="-5.886098295450211">
        <ele>1778.5799999999999</ele>
        <time>2019-03-12T11:46:04Z</time>
      </trkpt>
      <trkpt lat="31.581326052546501" lon="-5.886259563267231">
        <ele>1779.54</ele>
        <time>2019-03-12T11:46:12Z</time>
      </trkpt>
      <trkpt lat="31.580798830837011" lon="-5.887365555390716">
        <ele>1779.0599999999999</ele>
        <time>2019-03-12T11:46:13Z</time>
      </trkpt>
      <trkpt lat="31.580763375386596" lon="-5.887508634477854">
        <ele>1779.0599999999999</ele>
        <time>2019-03-12T11:46:14Z</time>
      </trkpt>
      <trkpt lat="31.58069908618927" lon="-5.887729581445456">
        <ele>1779.0599999999999</ele>
        <time>2019-03-12T11:46:15Z</time>
      </trkpt>
      <trkpt lat="31.58065072260797" lon="-5.887799737975001">
        <ele>1779.0599999999999</ele>
        <time>2019-03-12T11:46:16Z</time>
      </trkpt>
      <trkpt lat="31.580586265772581" lon="-5.887845084071159">
        <ele>1779.54</ele>
        <time>2019-03-12T11:46:17Z</time>
      </trkpt>
      <trkpt lat="31.580510828644037" lon="-5.887870229780674">
        <ele>1779.0599999999999</ele>
        <time>2019-03-12T11:46:24Z</time>
      </trkpt>
      <trkpt lat="31.580432122573256" lon="-5.887868637219071">
        <ele>1778.0999999999999</ele>
        <time>2019-03-12T11:46:25Z</time>
      </trkpt>
      <trkpt lat="31.580352075397968" lon="-5.887829661369324">
        <ele>1770.4100000000001</ele>
        <time>2019-03-12T11:46:26Z</time>
      </trkpt>
      <trkpt lat="31.580279069021344" lon="-5.887757912278175">
        <ele>1769.9200000000001</ele>
        <time>2019-03-12T11:46:27Z</time>
      </trkpt>
      <trkpt lat="31.580203464254737" lon="-5.887669315561652">
        <ele>1769.4400000000001</ele>
        <time>2019-03-12T11:46:28Z</time>
      </trkpt>
      <trkpt lat="31.579467114061117" lon="-5.886724088340998">
        <ele>1768.48</ele>
        <time>2019-03-12T11:46:29Z</time>
      </trkpt>
      <trkpt lat="31.579355131834745" lon="-5.886603221297264">
        <ele>1768</ele>
        <time>2019-03-12T11:46:30Z</time>
      </trkpt>
      <trkpt lat="31.579229151830077" lon="-5.886498363688588">
        <ele>1767.52</ele>
        <time>2019-03-12T11:46:31Z</time>
      </trkpt>
      <trkpt lat="31.579088671132922" lon="-5.886411862447858">
        <ele>1766.0799999999999</ele>
        <time>2019-03-12T11:46:34Z</time>
      </trkpt>
      <trkpt lat="31.578940311446786" lon="-5.886348159983754">
        <ele>1766.5599999999999</ele>
        <time>2019-03-12T11:46:35Z</time>
      </trkpt>
      <trkpt lat="31.578787593171" lon="-5.886300886049867">
        <ele>1766.5599999999999</ele>
        <time>2019-03-12T11:46:36Z</time>
      </trkpt>
      <trkpt lat="31.577717727050185" lon="-5.886273644864559">
        <ele>1766.0799999999999</ele>
        <time>2019-03-12T11:46:46Z</time>
      </trkpt>
      <trkpt lat="31.57757137902081" lon="-5.886321421712637">
        <ele>1766.5599999999999</ele>
        <time>2019-03-12T11:46:56Z</time>
      </trkpt>
      <trkpt lat="31.577433161437511" lon="-5.886388141661882">
        <ele>1766.5599999999999</ele>
        <time>2019-03-12T11:47:04Z</time>
      </trkpt>
      <trkpt lat="31.577300895005465" lon="-5.886466847732663">
        <ele>1766.5599999999999</ele>
        <time>2019-03-12T11:47:05Z</time>
      </trkpt>
      <trkpt lat="31.577170891687274" lon="-5.886557875201106">
        <ele>1766.5599999999999</ele>
        <time>2019-03-12T11:47:06Z</time>
      </trkpt>
      <trkpt lat="31.577043067663908" lon="-5.886664325371385">
        <ele>1767.04</ele>
        <time>2019-03-12T11:47:14Z</time>
      </trkpt>
      <trkpt lat="31.576919266954064" lon="-5.886785192415118">
        <ele>1767.04</ele>
        <time>2019-03-12T11:47:21Z</time>
      </trkpt>
      <trkpt lat="31.576798232272267" lon="-5.886914609000087">
        <ele>1767.52</ele>
        <time>2019-03-12T11:47:31Z</time>
      </trkpt>
      <trkpt lat="31.576458346098661" lon="-5.887303445488215">
        <ele>1769.4400000000001</ele>
        <time>2019-03-12T11:47:32Z</time>
      </trkpt>
      <trkpt lat="31.576372012495995" lon="-5.887452308088541">
        <ele>1770.8900000000001</ele>
        <time>2019-03-12T11:47:33Z</time>
      </trkpt>
      <trkpt lat="31.576297665014863" lon="-5.887607960030437">
        <ele>1774.73</ele>
        <time>2019-03-12T11:47:34Z</time>
      </trkpt>
      <trkpt lat="31.575650414451957" lon="-5.889398753643036">
        <ele>1776.1700000000001</ele>
        <time>2019-03-12T11:47:35Z</time>
      </trkpt>
      <trkpt lat="31.575272055342793" lon="-5.891360705718398">
        <ele>1777.1300000000001</ele>
        <time>2019-03-12T11:47:36Z</time>
      </trkpt>
      <trkpt lat="31.574966702610254" lon="-5.892971707507968">
        <ele>1780.5</ele>
        <time>2019-03-12T11:47:42Z</time>
      </trkpt>
      <trkpt lat="31.574907442554832" lon="-5.893138255923986">
        <ele>1782.9000000000001</ele>
        <time>2019-03-12T11:47:43Z</time>
      </trkpt>
      <trkpt lat="31.574835274368525" lon="-5.893290303647518">
        <ele>1785.79</ele>
        <time>2019-03-12T11:47:44Z</time>
      </trkpt>
      <trkpt lat="31.573973782360554" lon="-5.894258329644799">
        <ele>1786.27</ele>
        <time>2019-03-12T11:47:45Z</time>
      </trkpt>
      <trkpt lat="31.572937192395329" lon="-5.894634425640106">
        <ele>1786.75</ele>
        <time>2019-03-12T11:47:46Z</time>
      </trkpt>
      <trkpt lat="31.571333650499582" lon="-5.894674407318234">
        <ele>1786.75</ele>
        <time>2019-03-12T11:47:55Z</time>
      </trkpt>
      <trkpt lat="31.57117573544383" lon="-5.894710114225745">
        <ele>1787.71</ele>
        <time>2019-03-12T11:47:56Z</time>
      </trkpt>
      <trkpt lat="31.571016144007444" lon="-5.894769709557295">
        <ele>1788.6700000000001</ele>
        <time>2019-03-12T11:47:57Z</time>
      </trkpt>
      <trkpt lat="31.570861414074898" lon="-5.894853444769979">
        <ele>1795.8800000000001</ele>
        <time>2019-03-12T11:47:58Z</time>
      </trkpt>
      <trkpt lat="31.570715066045523" lon="-5.894959392026067">
        <ele>1796.8399999999999</ele>
        <time>2019-03-12T11:47:59Z</time>
      </trkpt>
      <trkpt lat="31.570573747158051" lon="-5.895082103088498">
        <ele>1797.3199999999999</ele>
        <time>2019-03-12T11:48:00Z</time>
      </trkpt>
      <trkpt lat="31.569768916815519" lon="-5.895884754136205">
        <ele>1798.28</ele>
        <time>2019-03-12T11:48:01Z</time>
      </trkpt>
      <trkpt lat="31.569677386432886" lon="-5.896046441048384">
        <ele>1799.24</ele>
        <time>2019-03-12T11:48:02Z</time>
      </trkpt>
      <trkpt lat="31.569613600149751" lon="-5.896225897595286">
        <ele>1803.0899999999999</ele>
        <time>2019-03-12T11:48:03Z</time>
      </trkpt>
      <trkpt lat="31.569578060880303" lon="-5.896420693024993">
        <ele>1802.6099999999999</ele>
        <time>2019-03-12T11:48:04Z</time>
      </trkpt>
      <trkpt lat="31.569558614864945" lon="-5.896620014682412">
        <ele>1802.1300000000001</ele>
        <time>2019-03-12T11:48:05Z</time>
      </trkpt>
      <trkpt lat="31.569461636245251" lon="-5.898117106407881">
        <ele>1801.6500000000001</ele>
        <time>2019-03-12T11:48:06Z</time>
      </trkpt>
      <trkpt lat="31.569443447515368" lon="-5.898241074755788">
        <ele>1801.1700000000001</ele>
        <time>2019-03-12T11:48:07Z</time>
      </trkpt>
      <trkpt lat="31.569415284320712" lon="-5.898350961506367">
        <ele>1800.6900000000001</ele>
        <time>2019-03-12T11:48:08Z</time>
      </trkpt>
      <trkpt lat="31.569371111690998" lon="-5.898445006459951">
        <ele>1800.21</ele>
        <time>2019-03-12T11:48:09Z</time>
      </trkpt>
      <trkpt lat="31.569316126406193" lon="-5.898520443588495">
        <ele>1799.24</ele>
        <time>2019-03-12T11:48:10Z</time>
      </trkpt>
      <trkpt lat="31.569252423942089" lon="-5.898578949272633">
        <ele>1799.24</ele>
        <time>2019-03-12T11:48:11Z</time>
      </trkpt>
      <trkpt lat="31.569180255755782" lon="-5.898619266226888">
        <ele>1798.76</ele>
        <time>2019-03-12T11:48:12Z</time>
      </trkpt>
      <trkpt lat="31.569101214408875" lon="-5.898641142994165">
        <ele>1798.28</ele>
        <time>2019-03-12T11:48:14Z</time>
      </trkpt>
      <trkpt lat="31.569022424519062" lon="-5.898644998669624">
        <ele>1797.8</ele>
        <time>2019-03-12T11:48:15Z</time>
      </trkpt>
      <trkpt lat="31.568943802267313" lon="-5.898631168529391">
        <ele>1797.3199999999999</ele>
        <time>2019-03-12T11:48:16Z</time>
      </trkpt>
      <trkpt lat="31.568868700414896" lon="-5.898601245135069">
        <ele>1796.8399999999999</ele>
        <time>2019-03-12T11:48:17Z</time>
      </trkpt>
      <trkpt lat="31.568803237751126" lon="-5.898548690602183">
        <ele>1796.3599999999999</ele>
        <time>2019-03-12T11:48:18Z</time>
      </trkpt>
      <trkpt lat="31.568754119798541" lon="-5.898472247645259">
        <ele>1796.3599999999999</ele>
        <time>2019-03-12T11:48:19Z</time>
      </trkpt>
      <trkpt lat="31.568727884441614" lon="-5.898382728919387">
        <ele>1795.8800000000001</ele>
        <time>2019-03-12T11:48:20Z</time>
      </trkpt>
      <trkpt lat="31.568717658519745" lon="-5.898283319547772">
        <ele>1795.4000000000001</ele>
        <time>2019-03-12T11:48:21Z</time>
      </trkpt>
      <trkpt lat="31.568716568872333" lon="-5.89817619882524">
        <ele>1794.9200000000001</ele>
        <time>2019-03-12T11:48:22Z</time>
      </trkpt>
      <trkpt lat="31.568723693490028" lon="-5.898061031475663">
        <ele>1794.4400000000001</ele>
        <time>2019-03-12T11:48:32Z</time>
      </trkpt>
      <trkpt lat="31.568734338507056" lon="-5.897943349555135">
        <ele>1794.4400000000001</ele>
        <time>2019-03-12T11:48:33Z</time>
      </trkpt>
      <trkpt lat="31.568731237202883" lon="-5.89772273786366">
        <ele>1794.4400000000001</ele>
        <time>2019-03-12T11:48:34Z</time>
      </trkpt>
      <trkpt lat="31.56869787722826" lon="-5.897630201652646">
        <ele>1794.4400000000001</ele>
        <time>2019-03-12T11:48:35Z</time>
      </trkpt>
      <trkpt lat="31.568636018782854" lon="-5.89756733737886">
        <ele>1794.4400000000001</ele>
        <time>2019-03-12T11:48:36Z</time>
      </trkpt>
      <trkpt lat="31.568556139245629" lon="-5.897541688755155">
        <ele>1794.4400000000001</ele>
        <time>2019-03-12T11:48:37Z</time>
      </trkpt>
      <trkpt lat="31.568473661318421" lon="-5.897554261609912">
        <ele>1794.9200000000001</ele>
        <time>2019-03-12T11:48:43Z</time>
      </trkpt>
      <trkpt lat="31.568403001874685" lon="-5.897601451724768">
        <ele>1794.9200000000001</ele>
        <time>2019-03-12T11:48:44Z</time>
      </trkpt>
      <trkpt lat="31.568349106237292" lon="-5.897668255493045">
        <ele>1797.8</ele>
        <time>2019-03-12T11:48:45Z</time>
      </trkpt>
      <trkpt lat="31.568304346874356" lon="-5.897745117545128">
        <ele>1797.8</ele>
        <time>2019-03-12T11:48:46Z</time>
      </trkpt>
      <trkpt lat="31.568259755149484" lon="-5.897829104214907">
        <ele>1798.28</ele>
        <time>2019-03-12T11:48:47Z</time>
      </trkpt>
      <trkpt lat="31.567769246175885" lon="-5.898845158517361">
        <ele>1798.76</ele>
        <time>2019-03-12T11:48:48Z</time>
      </trkpt>
      <trkpt lat="31.567692551761866" lon="-5.898930821567774">
        <ele>1798.76</ele>
        <time>2019-03-12T11:48:49Z</time>
      </trkpt>
      <trkpt lat="31.567604877054691" lon="-5.899004079401493">
        <ele>1798.76</ele>
        <time>2019-03-12T11:48:50Z</time>
      </trkpt>
      <trkpt lat="31.567505970597267" lon="-5.899067027494311">
        <ele>1797.8</ele>
        <time>2019-03-12T11:48:51Z</time>
      </trkpt>
      <trkpt lat="31.56740153208375" lon="-5.899118324741721">
        <ele>1797.3199999999999</ele>
        <time>2019-03-12T11:48:52Z</time>
      </trkpt>
      <trkpt lat="31.567297009751201" lon="-5.899163670837879">
        <ele>1797.3199999999999</ele>
        <time>2019-03-12T11:48:53Z</time>
      </trkpt>
      <trkpt lat="31.566675491631031" lon="-5.899419486522675">
        <ele>1796.8399999999999</ele>
        <time>2019-03-12T11:48:54Z</time>
      </trkpt>
      <trkpt lat="31.566588403657079" lon="-5.899491151794791">
        <ele>1796.8399999999999</ele>
        <time>2019-03-12T11:48:55Z</time>
      </trkpt>
      <trkpt lat="31.566520258784294" lon="-5.899586956948042">
        <ele>1796.8399999999999</ele>
        <time>2019-03-12T11:48:56Z</time>
      </trkpt>
      <trkpt lat="31.566481115296483" lon="-5.899697346612811">
        <ele>1796.3599999999999</ele>
        <time>2019-03-12T11:48:57Z</time>
      </trkpt>
      <trkpt lat="31.566463094204664" lon="-5.899812849238515">
        <ele>1796.3599999999999</ele>
        <time>2019-03-12T11:48:58Z</time>
      </trkpt>
      <trkpt lat="31.566448593512177" lon="-5.899927094578743">
        <ele>1795.8800000000001</ele>
        <time>2019-03-12T11:49:01Z</time>
      </trkpt>
      <trkpt lat="31.566420765593648" lon="-5.900037484243512">
        <ele>1795.4000000000001</ele>
        <time>2019-03-12T11:49:02Z</time>
      </trkpt>
      <trkpt lat="31.566376760601997" lon="-5.900134798139334">
        <ele>1795.4000000000001</ele>
        <time>2019-03-12T11:49:03Z</time>
      </trkpt>
      <trkpt lat="31.5663231164217" lon="-5.900213085114956">
        <ele>1794.9200000000001</ele>
        <time>2019-03-12T11:49:04Z</time>
      </trkpt>
      <trkpt lat="31.566257402300835" lon="-5.900263711810112">
        <ele>1794.4400000000001</ele>
        <time>2019-03-12T11:49:05Z</time>
      </trkpt>
      <trkpt lat="31.566185569390655" lon="-5.900285169482231">
        <ele>1793.96</ele>
        <time>2019-03-12T11:49:06Z</time>
      </trkpt>
      <trkpt lat="31.566112311556935" lon="-5.900275781750679">
        <ele>1793</ele>
        <time>2019-03-12T11:49:07Z</time>
      </trkpt>
      <trkpt lat="31.566041149199009" lon="-5.900232531130314">
        <ele>1792.03</ele>
        <time>2019-03-12T11:49:08Z</time>
      </trkpt>
      <trkpt lat="31.565975435078144" lon="-5.900154411792755">
        <ele>1788.1900000000001</ele>
        <time>2019-03-12T11:49:09Z</time>
      </trkpt>
      <trkpt lat="31.565915001556277" lon="-5.900052487850189">
        <ele>1787.71</ele>
        <time>2019-03-12T11:49:10Z</time>
      </trkpt>
      <trkpt lat="31.565861189737916" lon="-5.899940840899944">
        <ele>1786.75</ele>
        <time>2019-03-12T11:49:11Z</time>
      </trkpt>
      <trkpt lat="31.565710315480828" lon="-5.89966893196106">
        <ele>1786.27</ele>
        <time>2019-03-12T11:49:12Z</time>
      </trkpt>
      <trkpt lat="31.565653569996357" lon="-5.899621993303299">
        <ele>1786.27</ele>
        <time>2019-03-12T11:49:13Z</time>
      </trkpt>
      <trkpt lat="31.565588777884841" lon="-5.899604223668575">
        <ele>1786.27</ele>
        <time>2019-03-12T11:49:14Z</time>
      </trkpt>
      <trkpt lat="31.565524823963642" lon="-5.89961813762784">
        <ele>1785.79</ele>
        <time>2019-03-12T11:49:15Z</time>
      </trkpt>
      <trkpt lat="31.565469671040773" lon="-5.899657448753715">
        <ele>1785.79</ele>
        <time>2019-03-12T11:49:16Z</time>
      </trkpt>
      <trkpt lat="31.565422732383013" lon="-5.899715451523662">
        <ele>1785.79</ele>
        <time>2019-03-12T11:49:17Z</time>
      </trkpt>
      <trkpt lat="31.565382918342948" lon="-5.899790888652206">
        <ele>1785.3099999999999</ele>
        <time>2019-03-12T11:49:18Z</time>
      </trkpt>
      <trkpt lat="31.565355258062482" lon="-5.899881161749363">
        <ele>1785.3099999999999</ele>
        <time>2019-03-12T11:49:19Z</time>
      </trkpt>
      <trkpt lat="31.565344864502549" lon="-5.899985516443849">
        <ele>1784.8199999999999</ele>
        <time>2019-03-12T11:49:23Z</time>
      </trkpt>
      <trkpt lat="31.565351653844118" lon="-5.900104036554694">
        <ele>1784.3399999999999</ele>
        <time>2019-03-12T11:49:24Z</time>
      </trkpt>
      <trkpt lat="31.565371016040444" lon="-5.900229765102267">
        <ele>1783.3800000000001</ele>
        <time>2019-03-12T11:49:25Z</time>
      </trkpt>
      <trkpt lat="31.565400687977672" lon="-5.900361025705934">
        <ele>1782.4200000000001</ele>
        <time>2019-03-12T11:49:27Z</time>
      </trkpt>
      <trkpt lat="31.565442932769656" lon="-5.900496141985059">
        <ele>1781.46</ele>
        <time>2019-03-12T11:49:28Z</time>
      </trkpt>
      <trkpt lat="31.565491631627083" lon="-5.900629078969359">
        <ele>1780.02</ele>
        <time>2019-03-12T11:49:29Z</time>
      </trkpt>
      <trkpt lat="31.565548460930586" lon="-5.900757741183043">
        <ele>1779.54</ele>
        <time>2019-03-12T11:49:34Z</time>
      </trkpt>
      <trkpt lat="31.565608391538262" lon="-5.900875590741634">
        <ele>1779.0599999999999</ele>
        <time>2019-03-12T11:49:35Z</time>
      </trkpt>
      <trkpt lat="31.565656252205372" lon="-5.900992937386036">
        <ele>1776.1700000000001</ele>
        <time>2019-03-12T11:49:36Z</time>
      </trkpt>
      <trkpt lat="31.565683828666806" lon="-5.901121934875846">
        <ele>1775.21</ele>
        <time>2019-03-12T11:49:37Z</time>
      </trkpt>
      <trkpt lat="31.565696820616722" lon="-5.901263924315572">
        <ele>1774.73</ele>
        <time>2019-03-12T11:49:38Z</time>
      </trkpt>
      <trkpt lat="31.565725822001696" lon="-5.901850322261453">
        <ele>1773.29</ele>
        <time>2019-03-12T11:49:42Z</time>
      </trkpt>
      <trkpt lat="31.565710064023733" lon="-5.901993904262781">
        <ele>1772.3299999999999</ele>
        <time>2019-03-12T11:49:43Z</time>
      </trkpt>
      <trkpt lat="31.565675446763635" lon="-5.902134887874126">
        <ele>1771.8499999999999</ele>
        <time>2019-03-12T11:49:44Z</time>
      </trkpt>
      <trkpt lat="31.565596992149949" lon="-5.902411993592978">
        <ele>1768.96</ele>
        <time>2019-03-12T11:49:47Z</time>
      </trkpt>
      <trkpt lat="31.565578719601035" lon="-5.902546439319849">
        <ele>1768.48</ele>
        <time>2019-03-12T11:49:48Z</time>
      </trkpt>
      <trkpt lat="31.565583413466811" lon="-5.902682058513165">
        <ele>1768</ele>
        <time>2019-03-12T11:49:49Z</time>
      </trkpt>
      <trkpt lat="31.5656409971416" lon="-5.903285387903452">
        <ele>1767.04</ele>
        <time>2019-03-12T11:49:51Z</time>
      </trkpt>
      <trkpt lat="31.565606463700533" lon="-5.903383204713464">
        <ele>1766.5599999999999</ele>
        <time>2019-03-12T11:49:52Z</time>
      </trkpt>
      <trkpt lat="31.565543515607715" lon="-5.903473142534494">
        <ele>1763.6800000000001</ele>
        <time>2019-03-12T11:50:03Z</time>
      </trkpt>
      <trkpt lat="31.565461792051792" lon="-5.903552686795592">
        <ele>1763.2</ele>
        <time>2019-03-12T11:50:05Z</time>
      </trkpt>
      <trkpt lat="31.565368752926588" lon="-5.903629381209612">
        <ele>1762.71</ele>
        <time>2019-03-12T11:50:06Z</time>
      </trkpt>
      <trkpt lat="31.564992321655154" lon="-5.903976559638977">
        <ele>1761.27</ele>
        <time>2019-03-12T11:50:07Z</time>
      </trkpt>
      <trkpt lat="31.564915962517262" lon="-5.904101366177201">
        <ele>1760.79</ele>
        <time>2019-03-12T11:50:08Z</time>
      </trkpt>
      <trkpt lat="31.564849242568016" lon="-5.904240673407912">
        <ele>1760.3099999999999</ele>
        <time>2019-03-12T11:50:09Z</time>
      </trkpt>
      <trkpt lat="31.564702559262514" lon="-5.904665887355804">
        <ele>1759.3499999999999</ele>
        <time>2019-03-12T11:50:10Z</time>
      </trkpt>
      <trkpt lat="31.564676826819777" lon="-5.904807541519404">
        <ele>1758.8699999999999</ele>
        <time>2019-03-12T11:50:11Z</time>
      </trkpt>
      <trkpt lat="31.564661487936974" lon="-5.904947519302368">
        <ele>1750.7</ele>
        <time>2019-03-12T11:50:12Z</time>
      </trkpt>
      <trkpt lat="31.56463734805584" lon="-5.905222026631236">
        <ele>1749.74</ele>
        <time>2019-03-12T11:50:21Z</time>
      </trkpt>
      <trkpt lat="31.564612286165357" lon="-5.905354041606188">
        <ele>1749.26</ele>
        <time>2019-03-12T11:50:25Z</time>
      </trkpt>
      <trkpt lat="31.564065031707287" lon="-5.906901257112622">
        <ele>1748.29</ele>
        <time>2019-03-12T11:50:26Z</time>
      </trkpt>
      <trkpt lat="31.563935279846191" lon="-5.907165789976716">
        <ele>1747.8099999999999</ele>
        <time>2019-03-12T11:50:27Z</time>
      </trkpt>
      <trkpt lat="31.563856154680252" lon="-5.907277604565024">
        <ele>1747.8099999999999</ele>
        <time>2019-03-12T11:50:28Z</time>
      </trkpt>
      <trkpt lat="31.563763450831175" lon="-5.907364273443818">
        <ele>1746.8499999999999</ele>
        <time>2019-03-12T11:50:29Z</time>
      </trkpt>
      <trkpt lat="31.563658341765404" lon="-5.90742152184248">
        <ele>1746.3699999999999</ele>
        <time>2019-03-12T11:50:30Z</time>
      </trkpt>
      <trkpt lat="31.56354577280581" lon="-5.907443650066853">
        <ele>1745.4100000000001</ele>
        <time>2019-03-12T11:50:31Z</time>
      </trkpt>
      <trkpt lat="31.563428677618504" lon="-5.907430658116937">
        <ele>1739.6400000000001</ele>
        <time>2019-03-12T11:50:32Z</time>
      </trkpt>
      <trkpt lat="31.563309738412499" lon="-5.90739025734365">
        <ele>1738.2</ele>
        <time>2019-03-12T11:50:33Z</time>
      </trkpt>
      <trkpt lat="31.563185853883624" lon="-5.90733309276402">
        <ele>1738.2</ele>
        <time>2019-03-12T11:50:34Z</time>
      </trkpt>
      <trkpt lat="31.561993109062314" lon="-5.906728757545352">
        <ele>1737.24</ele>
        <time>2019-03-12T11:50:45Z</time>
      </trkpt>
      <trkpt lat="31.561403023079038" lon="-5.906638903543353">
        <ele>1736.76</ele>
        <time>2019-03-12T11:50:49Z</time>
      </trkpt>
      <trkpt lat="31.561247035861015" lon="-5.906652063131332">
        <ele>1736.28</ele>
        <time>2019-03-12T11:50:50Z</time>
      </trkpt>
      <trkpt lat="31.561090126633644" lon="-5.906683159992099">
        <ele>1736.28</ele>
        <time>2019-03-12T11:50:51Z</time>
      </trkpt>
      <trkpt lat="31.560934977605939" lon="-5.90673353523016">
        <ele>1735.8</ele>
        <time>2019-03-12T11:50:52Z</time>
      </trkpt>
      <trkpt lat="31.560786282643676" lon="-5.906795896589756">
        <ele>1735.8</ele>
        <time>2019-03-12T11:50:53Z</time>
      </trkpt>
      <trkpt lat="31.56064479611814" lon="-5.906867645680904">
        <ele>1735.8</ele>
        <time>2019-03-12T11:50:54Z</time>
      </trkpt>
      <trkpt lat="31.560511356219649" lon="-5.906954146921635">
        <ele>1735.3199999999999</ele>
        <time>2019-03-12T11:50:55Z</time>
      </trkpt>
      <trkpt lat="31.560388309881091" lon="-5.907056322321296">
        <ele>1730.99</ele>
        <time>2019-03-12T11:50:56Z</time>
      </trkpt>
      <trkpt lat="31.560274735093117" lon="-5.907172244042158">
        <ele>1728.1099999999999</ele>
        <time>2019-03-12T11:50:57Z</time>
      </trkpt>
      <trkpt lat="31.560166776180267" lon="-5.907296547666192">
        <ele>1727.6300000000001</ele>
        <time>2019-03-12T11:50:58Z</time>
      </trkpt>
      <trkpt lat="31.559180896729231" lon="-5.908693643286824">
        <ele>1726.6700000000001</ele>
        <time>2019-03-12T11:50:59Z</time>
      </trkpt>
      <trkpt lat="31.558842267841101" lon="-5.909148948267102">
        <ele>1726.1800000000001</ele>
        <time>2019-03-12T11:51:05Z</time>
      </trkpt>
      <trkpt lat="31.558737996965647" lon="-5.909245004877448">
        <ele>1725.22</ele>
        <time>2019-03-12T11:51:06Z</time>
      </trkpt>
      <trkpt lat="31.55863263644278" lon="-5.909328404814005">
        <ele>1724.74</ele>
        <time>2019-03-12T11:51:07Z</time>
      </trkpt>
      <trkpt lat="31.558527695015073" lon="-5.909395962953568">
        <ele>1724.74</ele>
        <time>2019-03-12T11:51:08Z</time>
      </trkpt>
      <trkpt lat="31.558419819921255" lon="-5.90944248251617">
        <ele>1723.78</ele>
        <time>2019-03-12T11:51:09Z</time>
      </trkpt>
      <trkpt lat="31.558312196284533" lon="-5.909454552456737">
        <ele>1723.78</ele>
        <time>2019-03-12T11:51:20Z</time>
      </trkpt>
      <trkpt lat="31.558205662295222" lon="-5.909432088956237">
        <ele>1723.3</ele>
        <time>2019-03-12T11:51:33Z</time>
      </trkpt>
      <trkpt lat="31.558103822171688" lon="-5.909392107278109">
        <ele>1722.8199999999999</ele>
        <time>2019-03-12T11:51:47Z</time>
      </trkpt>
      <trkpt lat="31.558003155514598" lon="-5.909354221075773">
        <ele>1720.4200000000001</ele>
        <time>2019-03-12T11:51:57Z</time>
      </trkpt>
      <trkpt lat="31.557900896295905" lon="-5.909326393157244">
        <ele>1720.4200000000001</ele>
        <time>2019-03-12T11:52:07Z</time>
      </trkpt>
      <trkpt lat="31.55779704451561" lon="-5.90930761769414">
        <ele>1719.9400000000001</ele>
        <time>2019-03-12T11:52:33Z</time>
      </trkpt>
      <trkpt lat="31.557189105078578" lon="-5.909184906631708">
        <ele>1719.46</ele>
        <time>2019-03-12T11:52:41Z</time>
      </trkpt>
      <trkpt lat="31.557092629373074" lon="-5.909138135612011">
        <ele>1719.46</ele>
        <time>2019-03-12T11:52:52Z</time>
      </trkpt>
      <trkpt lat="31.557003110647202" lon="-5.909083653241396">
        <ele>1718.49</ele>
        <time>2019-03-12T11:52:57Z</time>
      </trkpt>
      <trkpt lat="31.556919626891613" lon="-5.909024309366942">
        <ele>1719.9400000000001</ele>
        <time>2019-03-12T11:52:58Z</time>
      </trkpt>
      <trkpt lat="31.556839663535357" lon="-5.908960523083806">
        <ele>1721.3800000000001</ele>
        <time>2019-03-12T11:52:59Z</time>
      </trkpt>
      <trkpt lat="31.556175900623202" lon="-5.908428691327572">
        <ele>1722.8199999999999</ele>
        <time>2019-03-12T11:53:00Z</time>
      </trkpt>
      <trkpt lat="31.555800894275308" lon="-5.908388961106539">
        <ele>1725.22</ele>
        <time>2019-03-12T11:53:01Z</time>
      </trkpt>
      <trkpt lat="31.55538422986865" lon="-5.908390637487173">
        <ele>1731.95</ele>
        <time>2019-03-12T11:53:02Z</time>
      </trkpt>
      <trkpt lat="31.55491559766233" lon="-5.908236997202039">
        <ele>1734.3599999999999</ele>
        <time>2019-03-12T11:53:03Z</time>
      </trkpt>
      <trkpt lat="31.554424921050668" lon="-5.907989982515574">
        <ele>1735.3199999999999</ele>
        <time>2019-03-12T11:53:04Z</time>
      </trkpt>
      <trkpt lat="31.554338419809937" lon="-5.908045135438442">
        <ele>1733.8800000000001</ele>
        <time>2019-03-12T11:53:05Z</time>
      </trkpt>
      <trkpt lat="31.553843133151531" lon="-5.907848998904228">
        <ele>1733.3900000000001</ele>
        <time>2019-03-12T11:53:06Z</time>
      </trkpt>
      <trkpt lat="31.552745942026377" lon="-5.907764174044132">
        <ele>1732.9100000000001</ele>
        <time>2019-03-12T11:53:19Z</time>
      </trkpt>
      <trkpt lat="31.552252667024732" lon="-5.907786972820759">
        <ele>1731.47</ele>
        <time>2019-03-12T11:53:25Z</time>
      </trkpt>
      <trkpt lat="31.552161807194352" lon="-5.907811028882861">
        <ele>1731.47</ele>
        <time>2019-03-12T11:53:26Z</time>
      </trkpt>
      <trkpt lat="31.552073378115892" lon="-5.907843969762325">
        <ele>1731.47</ele>
        <time>2019-03-12T11:53:27Z</time>
      </trkpt>
      <trkpt lat="31.551984949037433" lon="-5.907889232039452">
        <ele>1730.51</ele>
        <time>2019-03-12T11:53:28Z</time>
      </trkpt>
      <trkpt lat="31.5518968552351" lon="-5.907941032201052">
        <ele>1730.99</ele>
        <time>2019-03-12T11:53:29Z</time>
      </trkpt>
      <trkpt lat="31.551807839423418" lon="-5.908006327226758">
        <ele>1730.03</ele>
        <time>2019-03-12T11:53:31Z</time>
      </trkpt>
      <trkpt lat="31.551713543012738" lon="-5.908084278926253">
        <ele>1730.03</ele>
        <time>2019-03-12T11:53:32Z</time>
      </trkpt>
      <trkpt lat="31.551620336249471" lon="-5.908175054937601">
        <ele>1726.6700000000001</ele>
        <time>2019-03-12T11:53:35Z</time>
      </trkpt>
      <trkpt lat="31.551526542752981" lon="-5.908285360783339">
        <ele>1724.26</ele>
        <time>2019-03-12T11:53:44Z</time>
      </trkpt>
      <trkpt lat="31.551431491971016" lon="-5.908403880894184">
        <ele>1724.74</ele>
        <time>2019-03-12T11:53:45Z</time>
      </trkpt>
      <trkpt lat="31.550221899524331" lon="-5.909832995384932">
        <ele>1724.74</ele>
        <time>2019-03-12T11:53:46Z</time>
      </trkpt>
      <trkpt lat="31.549484124407172" lon="-5.910364156588912">
        <ele>1725.22</ele>
        <time>2019-03-12T11:53:49Z</time>
      </trkpt>
      <trkpt lat="31.549363425001502" lon="-5.910475635901094">
        <ele>1725.22</ele>
        <time>2019-03-12T11:53:50Z</time>
      </trkpt>
      <trkpt lat="31.549251861870289" lon="-5.910601615905762">
        <ele>1725.7</ele>
        <time>2019-03-12T11:53:51Z</time>
      </trkpt>
      <trkpt lat="31.54914541170001" lon="-5.910734636709094">
        <ele>1726.1800000000001</ele>
        <time>2019-03-12T11:53:52Z</time>
      </trkpt>
      <trkpt lat="31.549043823033571" lon="-5.910874530673027">
        <ele>1725.7</ele>
        <time>2019-03-12T11:53:53Z</time>
      </trkpt>
      <trkpt lat="31.548828491941094" lon="-5.911135626956821">
        <ele>1730.99</ele>
        <time>2019-03-12T11:53:54Z</time>
      </trkpt>
      <trkpt lat="31.548705194145441" lon="-5.911251213401556">
        <ele>1731.95</ele>
        <time>2019-03-12T11:53:55Z</time>
      </trkpt>
      <trkpt lat="31.548281069844961" lon="-5.911553045734763">
        <ele>1732.4300000000001</ele>
        <time>2019-03-12T11:53:56Z</time>
      </trkpt>
      <trkpt lat="31.546918340027332" lon="-5.912391236051917">
        <ele>1734.3599999999999</ele>
        <time>2019-03-12T11:53:57Z</time>
      </trkpt>
      <trkpt lat="31.546798814088106" lon="-5.912502128630877">
        <ele>1735.3199999999999</ele>
        <time>2019-03-12T11:53:58Z</time>
      </trkpt>
      <trkpt lat="31.54669345356524" lon="-5.912626683712006">
        <ele>1736.28</ele>
        <time>2019-03-12T11:53:59Z</time>
      </trkpt>
      <trkpt lat="31.546369660645723" lon="-5.913024321198463">
        <ele>1737.72</ele>
        <time>2019-03-12T11:54:00Z</time>
      </trkpt>
      <trkpt lat="31.54623999260366" lon="-5.913135968148708">
        <ele>1738.6800000000001</ele>
        <time>2019-03-12T11:54:01Z</time>
      </trkpt>
      <trkpt lat="31.546103032305837" lon="-5.913232527673245">
        <ele>1739.6400000000001</ele>
        <time>2019-03-12T11:54:02Z</time>
      </trkpt>
      <trkpt lat="31.545962048694491" lon="-5.913310227915645">
        <ele>1740.5999999999999</ele>
        <time>2019-03-12T11:54:03Z</time>
      </trkpt>
      <trkpt lat="31.545821484178305" lon="-5.913369739428163">
        <ele>1741.5699999999999</ele>
        <time>2019-03-12T11:54:08Z</time>
      </trkpt>
      <trkpt lat="31.545676812529564" lon="-5.913412068039179">
        <ele>1742.53</ele>
        <time>2019-03-12T11:54:09Z</time>
      </trkpt>
      <trkpt lat="31.545525435358286" lon="-5.913427909836173">
        <ele>1743.49</ele>
        <time>2019-03-12T11:54:10Z</time>
      </trkpt>
      <trkpt lat="31.545367604121566" lon="-5.913426233455539">
        <ele>1744.45</ele>
        <time>2019-03-12T11:54:11Z</time>
      </trkpt>
      <trkpt lat="31.545205917209387" lon="-5.913418270647526">
        <ele>1744.9300000000001</ele>
        <time>2019-03-12T11:54:12Z</time>
      </trkpt>
      <trkpt lat="31.545041212812066" lon="-5.913424640893936">
        <ele>1745.4100000000001</ele>
        <time>2019-03-12T11:54:13Z</time>
      </trkpt>
      <trkpt lat="31.544873155653477" lon="-5.913447020575404">
        <ele>1746.3699999999999</ele>
        <time>2019-03-12T11:54:14Z</time>
      </trkpt>
      <trkpt lat="31.544706020504236" lon="-5.91349127702415">
        <ele>1747.3299999999999</ele>
        <time>2019-03-12T11:54:15Z</time>
      </trkpt>
      <trkpt lat="31.544540394097567" lon="-5.913548357784748">
        <ele>1750.7</ele>
        <time>2019-03-12T11:54:26Z</time>
      </trkpt>
      <trkpt lat="31.544381389394403" lon="-5.913620023056865">
        <ele>1751.6600000000001</ele>
        <time>2019-03-12T11:54:29Z</time>
      </trkpt>
      <trkpt lat="31.544230431318283" lon="-5.913700656965375">
        <ele>1752.6199999999999</ele>
        <time>2019-03-12T11:54:30Z</time>
      </trkpt>
      <trkpt lat="31.543600028380752" lon="-5.914137605577707">
        <ele>1753.5799999999999</ele>
        <time>2019-03-12T11:54:31Z</time>
      </trkpt>
      <trkpt lat="31.543531296774745" lon="-5.914254952222109">
        <ele>1754.54</ele>
        <time>2019-03-12T11:54:32Z</time>
      </trkpt>
      <trkpt lat="31.543479831889272" lon="-5.914388056844473">
        <ele>1755.5</ele>
        <time>2019-03-12T11:54:33Z</time>
      </trkpt>
      <trkpt lat="31.543428199365735" lon="-5.914522586390376">
        <ele>1755.99</ele>
        <time>2019-03-12T11:54:35Z</time>
      </trkpt>
      <trkpt lat="31.543369526043534" lon="-5.914652673527598">
        <ele>1756.95</ele>
        <time>2019-03-12T11:54:36Z</time>
      </trkpt>
      <trkpt lat="31.54330431483686" lon="-5.914776055142283">
        <ele>1758.8699999999999</ele>
        <time>2019-03-12T11:54:37Z</time>
      </trkpt>
      <trkpt lat="31.543231559917331" lon="-5.91489021666348">
        <ele>1755.5</ele>
        <time>2019-03-12T11:54:38Z</time>
      </trkpt>
      <trkpt lat="31.543155033141375" lon="-5.914998762309551">
        <ele>1754.54</ele>
        <time>2019-03-12T11:54:39Z</time>
      </trkpt>
      <trkpt lat="31.542230593040586" lon="-5.916014229878783">
        <ele>1754.54</ele>
        <time>2019-03-12T11:54:40Z</time>
      </trkpt>
      <trkpt lat="31.541941836476326" lon="-5.91622662730515">
        <ele>1753.5799999999999</ele>
        <time>2019-03-12T11:54:41Z</time>
      </trkpt>
      <trkpt lat="31.541836559772491" lon="-5.91627499088645">
        <ele>1753.0999999999999</ele>
        <time>2019-03-12T11:54:42Z</time>
      </trkpt>
      <trkpt lat="31.541728936135769" lon="-5.916311955079436">
        <ele>1752.6199999999999</ele>
        <time>2019-03-12T11:54:43Z</time>
      </trkpt>
      <trkpt lat="31.54162391088903" lon="-5.916333328932524">
        <ele>1752.1400000000001</ele>
        <time>2019-03-12T11:54:48Z</time>
      </trkpt>
      <trkpt lat="31.541523495689034" lon="-5.916342549026012">
        <ele>1751.6600000000001</ele>
        <time>2019-03-12T11:54:49Z</time>
      </trkpt>
      <trkpt lat="31.541354097425938" lon="-5.916361408308148">
        <ele>1751.1800000000001</ele>
        <time>2019-03-12T11:54:50Z</time>
      </trkpt>
      <trkpt lat="31.541295005008578" lon="-5.916380770504475">
        <ele>1750.7</ele>
        <time>2019-03-12T11:54:51Z</time>
      </trkpt>
      <trkpt lat="31.541247395798564" lon="-5.916408849880099">
        <ele>1750.22</ele>
        <time>2019-03-12T11:54:52Z</time>
      </trkpt>
      <trkpt lat="31.541206911206245" lon="-5.916447071358562">
        <ele>1750.22</ele>
        <time>2019-03-12T11:54:53Z</time>
      </trkpt>
      <trkpt lat="31.541172293946147" lon="-5.91649828478694">
        <ele>1749.74</ele>
        <time>2019-03-12T11:54:54Z</time>
      </trkpt>
      <trkpt lat="31.541151674464345" lon="-5.91656818985939">
        <ele>1749.74</ele>
        <time>2019-03-12T11:54:55Z</time>
      </trkpt>
      <trkpt lat="31.54114899225533" lon="-5.916658379137516">
        <ele>1747.3299999999999</ele>
        <time>2019-03-12T11:54:56Z</time>
      </trkpt>
      <trkpt lat="31.541156368330121" lon="-5.916761225089431">
        <ele>1746.8499999999999</ele>
        <time>2019-03-12T11:54:57Z</time>
      </trkpt>
      <trkpt lat="31.541169192641973" lon="-5.916868848726153">
        <ele>1746.3699999999999</ele>
        <time>2019-03-12T11:54:58Z</time>
      </trkpt>
      <trkpt lat="31.541259801015258" lon="-5.91742280870676">
        <ele>1745.4100000000001</ele>
        <time>2019-03-12T11:55:00Z</time>
      </trkpt>
      <trkpt lat="31.541254268959165" lon="-5.917529426515102">
        <ele>1744.9300000000001</ele>
        <time>2019-03-12T11:55:01Z</time>
      </trkpt>
      <trkpt lat="31.541227027773857" lon="-5.917623974382877">
        <ele>1744.45</ele>
        <time>2019-03-12T11:55:02Z</time>
      </trkpt>
      <trkpt lat="31.541180927306414" lon="-5.91770519502461">
        <ele>1744.45</ele>
        <time>2019-03-12T11:55:03Z</time>
      </trkpt>
      <trkpt lat="31.541118063032627" lon="-5.917763616889715">
        <ele>1743.97</ele>
        <time>2019-03-12T11:55:04Z</time>
      </trkpt>
      <trkpt lat="31.5410434640944" lon="-5.917797479778528">
        <ele>1743.49</ele>
        <time>2019-03-12T11:55:05Z</time>
      </trkpt>
      <trkpt lat="31.540963500738144" lon="-5.917817009612918">
        <ele>1743.01</ele>
        <time>2019-03-12T11:55:08Z</time>
      </trkpt>
      <trkpt lat="31.540875909850001" lon="-5.917815668508411">
        <ele>1742.53</ele>
        <time>2019-03-12T11:55:09Z</time>
      </trkpt>
      <trkpt lat="31.540784547105432" lon="-5.917793791741133">
        <ele>1741.0799999999999</ele>
        <time>2019-03-12T11:55:10Z</time>
      </trkpt>
      <trkpt lat="31.540689244866371" lon="-5.917757162824273">
        <ele>1740.5999999999999</ele>
        <time>2019-03-12T11:55:11Z</time>
      </trkpt>
      <trkpt lat="31.540591176599264" lon="-5.917714834213257">
        <ele>1740.1199999999999</ele>
        <time>2019-03-12T11:55:12Z</time>
      </trkpt>
      <trkpt lat="31.540381712839007" lon="-5.917643923312426">
        <ele>1739.6400000000001</ele>
        <time>2019-03-12T11:55:13Z</time>
      </trkpt>
      <trkpt lat="31.540265958756208" lon="-5.91762900352478">
        <ele>1739.1600000000001</ele>
        <time>2019-03-12T11:55:19Z</time>
      </trkpt>
      <trkpt lat="31.540143918246031" lon="-5.917636547237635">
        <ele>1738.6800000000001</ele>
        <time>2019-03-12T11:55:20Z</time>
      </trkpt>
      <trkpt lat="31.540020033717155" lon="-5.917660603299737">
        <ele>1736.76</ele>
        <time>2019-03-12T11:55:21Z</time>
      </trkpt>
      <trkpt lat="31.539894305169582" lon="-5.917695472016931">
        <ele>1736.28</ele>
        <time>2019-03-12T11:55:22Z</time>
      </trkpt>
      <trkpt lat="31.539769498631358" lon="-5.917736627161503">
        <ele>1735.8</ele>
        <time>2019-03-12T11:55:23Z</time>
      </trkpt>
      <trkpt lat="31.539413519203663" lon="-5.917861768975854">
        <ele>1735.3199999999999</ele>
        <time>2019-03-12T11:55:24Z</time>
      </trkpt>
      <trkpt lat="31.539307571947575" lon="-5.91792413033545">
        <ele>1734.8399999999999</ele>
        <time>2019-03-12T11:55:27Z</time>
      </trkpt>
      <trkpt lat="31.539217717945576" lon="-5.918011134490371">
        <ele>1734.8399999999999</ele>
        <time>2019-03-12T11:55:28Z</time>
      </trkpt>
      <trkpt lat="31.539146136492491" lon="-5.918120434507728">
        <ele>1733.8800000000001</ele>
        <time>2019-03-12T11:55:29Z</time>
      </trkpt>
      <trkpt lat="31.53908796608448" lon="-5.918242894113064">
        <ele>1733.8800000000001</ele>
        <time>2019-03-12T11:55:34Z</time>
      </trkpt>
      <trkpt lat="31.539034992456436" lon="-5.918367868289352">
        <ele>1733.8800000000001</ele>
        <time>2019-03-12T11:55:46Z</time>
      </trkpt>
      <trkpt lat="31.538665937259793" lon="-5.91901084408164">
        <ele>1734.3599999999999</ele>
        <time>2019-03-12T11:55:58Z</time>
      </trkpt>
      <trkpt lat="31.538590416312218" lon="-5.919078318402171">
        <ele>1734.8399999999999</ele>
        <time>2019-03-12T11:56:02Z</time>
      </trkpt>
      <trkpt lat="31.538501484319568" lon="-5.919120730832219">
        <ele>1734.8399999999999</ele>
        <time>2019-03-12T11:56:03Z</time>
      </trkpt>
      <trkpt lat="31.538404673337936" lon="-5.91913397423923">
        <ele>1735.3199999999999</ele>
        <time>2019-03-12T11:56:04Z</time>
      </trkpt>
      <trkpt lat="31.538301659747958" lon="-5.919128693640232">
        <ele>1735.3199999999999</ele>
        <time>2019-03-12T11:56:05Z</time>
      </trkpt>
      <trkpt lat="31.538192108273506" lon="-5.919114863499999">
        <ele>1735.3199999999999</ele>
        <time>2019-03-12T11:56:06Z</time>
      </trkpt>
      <trkpt lat="31.537843085825443" lon="-5.919121149927378">
        <ele>1736.28</ele>
        <time>2019-03-12T11:56:07Z</time>
      </trkpt>
      <trkpt lat="31.537729594856501" lon="-5.919147385284305">
        <ele>1736.76</ele>
        <time>2019-03-12T11:56:08Z</time>
      </trkpt>
      <trkpt lat="31.537628592923284" lon="-5.919180661439896">
        <ele>1741.5699999999999</ele>
        <time>2019-03-12T11:56:09Z</time>
      </trkpt>
      <trkpt lat="31.537422481924295" lon="-5.91927470639348">
        <ele>1743.49</ele>
        <time>2019-03-12T11:56:10Z</time>
      </trkpt>
      <trkpt lat="31.537061054259539" lon="-5.919470172375441">
        <ele>1744.45</ele>
        <time>2019-03-12T11:56:11Z</time>
      </trkpt>
      <trkpt lat="31.536560067906976" lon="-5.920034693554044">
        <ele>1744.9300000000001</ele>
        <time>2019-03-12T11:56:12Z</time>
      </trkpt>
      <trkpt lat="31.536383209750056" lon="-5.92024558223784">
        <ele>1745.4100000000001</ele>
        <time>2019-03-12T11:56:13Z</time>
      </trkpt>
      <trkpt lat="31.536353873088956" lon="-5.920307273045182">
        <ele>1745.8900000000001</ele>
        <time>2019-03-12T11:56:14Z</time>
      </trkpt>
      <trkpt lat="31.536345072090626" lon="-5.920371394604445">
        <ele>1746.3699999999999</ele>
        <time>2019-03-12T11:56:15Z</time>
      </trkpt>
      <trkpt lat="31.536359824240208" lon="-5.920432331040502">
        <ele>1746.8499999999999</ele>
        <time>2019-03-12T11:56:16Z</time>
      </trkpt>
      <trkpt lat="31.536393016576767" lon="-5.92048698104918">
        <ele>1747.3299999999999</ele>
        <time>2019-03-12T11:56:17Z</time>
      </trkpt>
      <trkpt lat="31.536429561674595" lon="-5.920542050153017">
        <ele>1747.8099999999999</ele>
        <time>2019-03-12T11:56:18Z</time>
      </trkpt>
      <trkpt lat="31.536457892507315" lon="-5.920606423169375">
        <ele>1748.29</ele>
        <time>2019-03-12T11:56:19Z</time>
      </trkpt>
      <trkpt lat="31.536469543352723" lon="-5.920677585527301">
        <ele>1748.78</ele>
        <time>2019-03-12T11:56:20Z</time>
      </trkpt>
      <trkpt lat="31.536461748182774" lon="-5.920751430094242">
        <ele>1748.78</ele>
        <time>2019-03-12T11:56:21Z</time>
      </trkpt>
      <trkpt lat="31.536430986598134" lon="-5.920813456177712">
        <ele>1749.74</ele>
        <time>2019-03-12T11:56:22Z</time>
      </trkpt>
      <trkpt lat="31.536382706835866" lon="-5.920850755646825">
        <ele>1750.22</ele>
        <time>2019-03-12T11:56:23Z</time>
      </trkpt>
      <trkpt lat="31.536321435123682" lon="-5.920866010710597">
        <ele>1750.7</ele>
        <time>2019-03-12T11:56:24Z</time>
      </trkpt>
      <trkpt lat="31.536257481202483" lon="-5.920863077044487">
        <ele>1751.6600000000001</ele>
        <time>2019-03-12T11:56:25Z</time>
      </trkpt>
      <trkpt lat="31.536198724061251" lon="-5.920857880264521">
        <ele>1752.1400000000001</ele>
        <time>2019-03-12T11:56:26Z</time>
      </trkpt>
      <trkpt lat="31.536145750433207" lon="-5.920858634635806">
        <ele>1753.0999999999999</ele>
        <time>2019-03-12T11:56:27Z</time>
      </trkpt>
      <trkpt lat="31.536095710471272" lon="-5.920866429805756">
        <ele>1753.5799999999999</ele>
        <time>2019-03-12T11:56:29Z</time>
      </trkpt>
      <trkpt lat="31.536044413223863" lon="-5.92088277451694">
        <ele>1754.54</ele>
        <time>2019-03-12T11:56:30Z</time>
      </trkpt>
      <trkpt lat="31.535995714366436" lon="-5.92090766876936">
        <ele>1755.5</ele>
        <time>2019-03-12T11:56:31Z</time>
      </trkpt>
      <trkpt lat="31.535948608070612" lon="-5.920938011258841">
        <ele>1756.47</ele>
        <time>2019-03-12T11:56:32Z</time>
      </trkpt>
      <trkpt lat="31.535906866192818" lon="-5.920978076756001">
        <ele>1757.4300000000001</ele>
        <time>2019-03-12T11:56:33Z</time>
      </trkpt>
      <trkpt lat="31.535874092951417" lon="-5.921027446165681">
        <ele>1757.9100000000001</ele>
        <time>2019-03-12T11:56:34Z</time>
      </trkpt>
      <trkpt lat="31.535853557288647" lon="-5.921085029840469">
        <ele>1758.3900000000001</ele>
        <time>2019-03-12T11:56:35Z</time>
      </trkpt>
      <trkpt lat="31.535849533975124" lon="-5.921147391200066">
        <ele>1758.8699999999999</ele>
        <time>2019-03-12T11:56:36Z</time>
      </trkpt>
      <trkpt lat="31.535864286124706" lon="-5.921206148341298">
        <ele>1759.8299999999999</ele>
        <time>2019-03-12T11:56:39Z</time>
      </trkpt>
      <trkpt lat="31.535894041880965" lon="-5.92126046307385">
        <ele>1760.79</ele>
        <time>2019-03-12T11:56:40Z</time>
      </trkpt>
      <trkpt lat="31.535930000245571" lon="-5.921306144446135">
        <ele>1761.27</ele>
        <time>2019-03-12T11:56:43Z</time>
      </trkpt>
      <trkpt lat="31.535996468737721" lon="-5.921402703970671">
        <ele>1762.23</ele>
        <time>2019-03-12T11:56:44Z</time>
      </trkpt>
      <trkpt lat="31.536017004400492" lon="-5.921462634578347">
        <ele>1763.2</ele>
        <time>2019-03-12T11:56:45Z</time>
      </trkpt>
      <trkpt lat="31.536018345504999" lon="-5.921528516337276">
        <ele>1763.6800000000001</ele>
        <time>2019-03-12T11:56:46Z</time>
      </trkpt>
      <trkpt lat="31.535994876176119" lon="-5.921592386439443">
        <ele>1764.6400000000001</ele>
        <time>2019-03-12T11:56:47Z</time>
      </trkpt>
      <trkpt lat="31.535950871184468" lon="-5.921648964285851">
        <ele>1765.5999999999999</ele>
        <time>2019-03-12T11:56:48Z</time>
      </trkpt>
      <trkpt lat="31.535896053537726" lon="-5.921691963449121">
        <ele>1767.52</ele>
        <time>2019-03-12T11:56:52Z</time>
      </trkpt>
      <trkpt lat="31.535838972777128" lon="-5.921728173270822">
        <ele>1768.48</ele>
        <time>2019-03-12T11:56:53Z</time>
      </trkpt>
      <trkpt lat="31.535784909501672" lon="-5.921760192140937">
        <ele>1771.3699999999999</ele>
        <time>2019-03-12T11:56:54Z</time>
      </trkpt>
      <trkpt lat="31.535628670826554" lon="-5.92182925902307">
        <ele>1771.8499999999999</ele>
        <time>2019-03-12T11:56:55Z</time>
      </trkpt>
      <trkpt lat="31.535577373579144" lon="-5.921837473288178">
        <ele>1772.8099999999999</ele>
        <time>2019-03-12T11:56:56Z</time>
      </trkpt>
      <trkpt lat="31.535422056913376" lon="-5.921862032264471">
        <ele>1773.77</ele>
        <time>2019-03-12T11:56:57Z</time>
      </trkpt>
      <trkpt lat="31.535370675846934" lon="-5.921888686716557">
        <ele>1774.73</ele>
        <time>2019-03-12T11:56:58Z</time>
      </trkpt>
      <trkpt lat="31.535330442711711" lon="-5.921933948993683">
        <ele>1775.6900000000001</ele>
        <time>2019-03-12T11:56:59Z</time>
      </trkpt>
      <trkpt lat="31.535302363336086" lon="-5.92199731618166">
        <ele>1780.98</ele>
        <time>2019-03-12T11:57:00Z</time>
      </trkpt>
      <trkpt lat="31.535278474912047" lon="-5.922070741653442">
        <ele>1782.4200000000001</ele>
        <time>2019-03-12T11:57:01Z</time>
      </trkpt>
      <trkpt lat="31.535247210413218" lon="-5.922151040285826">
        <ele>1783.8599999999999</ele>
        <time>2019-03-12T11:57:02Z</time>
      </trkpt>
      <trkpt lat="31.535056019201875" lon="-5.922570051625371">
        <ele>1784.8199999999999</ele>
        <time>2019-03-12T11:57:03Z</time>
      </trkpt>
      <trkpt lat="31.535022323951125" lon="-5.922701228410006">
        <ele>1785.79</ele>
        <time>2019-03-12T11:57:04Z</time>
      </trkpt>
      <trkpt lat="31.535008493810892" lon="-5.922833243384957">
        <ele>1787.23</ele>
        <time>2019-03-12T11:57:05Z</time>
      </trkpt>
      <trkpt lat="31.53500840999186" lon="-5.922960648313165">
        <ele>1788.6700000000001</ele>
        <time>2019-03-12T11:57:06Z</time>
      </trkpt>
      <trkpt lat="31.535004135221243" lon="-5.923080006614327">
        <ele>1789.6300000000001</ele>
        <time>2019-03-12T11:57:07Z</time>
      </trkpt>
      <trkpt lat="31.534983599558473" lon="-5.923194419592619">
        <ele>1791.0699999999999</ele>
        <time>2019-03-12T11:57:08Z</time>
      </trkpt>
      <trkpt lat="31.534943534061313" lon="-5.923302713781595">
        <ele>1792.03</ele>
        <time>2019-03-12T11:57:09Z</time>
      </trkpt>
      <trkpt lat="31.534887040033937" lon="-5.923405224457383">
        <ele>1793.48</ele>
        <time>2019-03-12T11:57:11Z</time>
      </trkpt>
      <trkpt lat="31.534818978980184" lon="-5.923501616343856">
        <ele>1794.9200000000001</ele>
        <time>2019-03-12T11:57:12Z</time>
      </trkpt>
      <trkpt lat="31.534735662862659" lon="-5.923583507537842">
        <ele>1796.3599999999999</ele>
        <time>2019-03-12T11:57:13Z</time>
      </trkpt>
      <trkpt lat="31.534636253491044" lon="-5.923645365983248">
        <ele>1797.8</ele>
        <time>2019-03-12T11:57:14Z</time>
      </trkpt>
      <trkpt lat="31.53452904894948" lon="-5.923676211386919">
        <ele>1798.76</ele>
        <time>2019-03-12T11:57:15Z</time>
      </trkpt>
      <trkpt lat="31.534418575465679" lon="-5.923671098425984">
        <ele>1800.21</ele>
        <time>2019-03-12T11:57:16Z</time>
      </trkpt>
      <trkpt lat="31.534307347610593" lon="-5.92363421805203">
        <ele>1801.6500000000001</ele>
        <time>2019-03-12T11:57:17Z</time>
      </trkpt>
      <trkpt lat="31.534198885783553" lon="-5.923570264130831">
        <ele>1803.0899999999999</ele>
        <time>2019-03-12T11:57:18Z</time>
      </trkpt>
      <trkpt lat="31.534100146964192" lon="-5.923481918871403">
        <ele>1805.97</ele>
        <time>2019-03-12T11:57:19Z</time>
      </trkpt>
      <trkpt lat="31.534014651551843" lon="-5.923377396538854">
        <ele>1807.4200000000001</ele>
        <time>2019-03-12T11:57:20Z</time>
      </trkpt>
      <trkpt lat="31.533935777842999" lon="-5.923269772902131">
        <ele>1808.8599999999999</ele>
        <time>2019-03-12T11:57:21Z</time>
      </trkpt>
      <trkpt lat="31.53377459384501" lon="-5.923080760985613">
        <ele>1810.3</ele>
        <time>2019-03-12T11:57:22Z</time>
      </trkpt>
      <trkpt lat="31.533693624660373" lon="-5.923008508980274">
        <ele>1810.78</ele>
        <time>2019-03-12T11:57:23Z</time>
      </trkpt>
      <trkpt lat="31.533619025722146" lon="-5.922951428219676">
        <ele>1811.26</ele>
        <time>2019-03-12T11:57:24Z</time>
      </trkpt>
      <trkpt lat="31.533548533916473" lon="-5.922911195084453">
        <ele>1811.74</ele>
        <time>2019-03-12T11:57:25Z</time>
      </trkpt>
      <trkpt lat="31.533477120101452" lon="-5.92289594002068">
        <ele>1812.22</ele>
        <time>2019-03-12T11:57:26Z</time>
      </trkpt>
      <trkpt lat="31.533403275534511" lon="-5.922917481511831">
        <ele>1812.7</ele>
        <time>2019-03-12T11:57:27Z</time>
      </trkpt>
      <trkpt lat="31.53334217146039" lon="-5.922976993024349">
        <ele>1812.7</ele>
        <time>2019-03-12T11:57:28Z</time>
      </trkpt>
      <trkpt lat="31.533303698524833" lon="-5.923066008836031">
        <ele>1813.1800000000001</ele>
        <time>2019-03-12T11:57:29Z</time>
      </trkpt>
      <trkpt lat="31.53327964246273" lon="-5.92316709458828">
        <ele>1813.1800000000001</ele>
        <time>2019-03-12T11:57:30Z</time>
      </trkpt>
      <trkpt lat="31.53325860388577" lon="-5.923275975510478">
        <ele>1813.6600000000001</ele>
        <time>2019-03-12T11:57:31Z</time>
      </trkpt>
      <trkpt lat="31.533229853957891" lon="-5.923390053212643">
        <ele>1813.6600000000001</ele>
        <time>2019-03-12T11:57:32Z</time>
      </trkpt>
      <trkpt lat="31.533185765147209" lon="-5.923502873629332">
        <ele>1814.1500000000001</ele>
        <time>2019-03-12T11:57:33Z</time>
      </trkpt>
      <trkpt lat="31.533124912530184" lon="-5.923601360991597">
        <ele>1814.1500000000001</ele>
        <time>2019-03-12T11:57:34Z</time>
      </trkpt>
      <trkpt lat="31.533050229772925" lon="-5.923674199730158">
        <ele>1814.1500000000001</ele>
        <time>2019-03-12T11:57:35Z</time>
      </trkpt>
      <trkpt lat="31.532963141798973" lon="-5.9237099904567">
        <ele>1813.6600000000001</ele>
        <time>2019-03-12T11:57:37Z</time>
      </trkpt>
      <trkpt lat="31.532872868701816" lon="-5.923701608553529">
        <ele>1813.1800000000001</ele>
        <time>2019-03-12T11:57:38Z</time>
      </trkpt>
      <trkpt lat="31.532783266156912" lon="-5.923653412610292">
        <ele>1813.1800000000001</ele>
        <time>2019-03-12T11:57:39Z</time>
      </trkpt>
      <trkpt lat="31.532696094363928" lon="-5.923583256080747">
        <ele>1812.7</ele>
        <time>2019-03-12T11:57:40Z</time>
      </trkpt>
      <trkpt lat="31.532607162371278" lon="-5.923512345179915">
        <ele>1812.22</ele>
        <time>2019-03-12T11:57:41Z</time>
      </trkpt>
      <trkpt lat="31.532511105760932" lon="-5.92346322722733">
        <ele>1812.22</ele>
        <time>2019-03-12T11:57:42Z</time>
      </trkpt>
      <trkpt lat="31.532406751066446" lon="-5.923449145630002">
        <ele>1811.74</ele>
        <time>2019-03-12T11:57:43Z</time>
      </trkpt>
      <trkpt lat="31.532299127429724" lon="-5.923465574160218">
        <ele>1811.74</ele>
        <time>2019-03-12T11:57:45Z</time>
      </trkpt>
      <trkpt lat="31.532192341983318" lon="-5.92350815422833">
        <ele>1811.74</ele>
        <time>2019-03-12T11:57:46Z</time>
      </trkpt>
      <trkpt lat="31.532092932611704" lon="-5.923572443425655">
        <ele>1811.74</ele>
        <time>2019-03-12T11:57:47Z</time>
      </trkpt>
      <trkpt lat="31.531999725848436" lon="-5.92364888638258">
        <ele>1811.74</ele>
        <time>2019-03-12T11:57:48Z</time>
      </trkpt>
      <trkpt lat="31.531815994530916" lon="-5.923787439242005">
        <ele>1811.74</ele>
        <time>2019-03-12T11:57:49Z</time>
      </trkpt>
      <trkpt lat="31.531713902950287" lon="-5.923828007653356">
        <ele>1811.74</ele>
        <time>2019-03-12T11:57:50Z</time>
      </trkpt>
      <trkpt lat="31.531602675095201" lon="-5.923845944926143">
        <ele>1811.74</ele>
        <time>2019-03-12T11:57:51Z</time>
      </trkpt>
      <trkpt lat="31.531485328450799" lon="-5.923846531659365">
        <ele>1811.74</ele>
        <time>2019-03-12T11:57:52Z</time>
      </trkpt>
      <trkpt lat="31.531366724520922" lon="-5.923837395384908">
        <ele>1810.78</ele>
        <time>2019-03-12T11:57:53Z</time>
      </trkpt>
      <trkpt lat="31.531247952952981" lon="-5.923820547759533">
        <ele>1810.78</ele>
        <time>2019-03-12T11:57:58Z</time>
      </trkpt>
      <trkpt lat="31.531132198870182" lon="-5.923799173906446">
        <ele>1810.78</ele>
        <time>2019-03-12T11:57:59Z</time>
      </trkpt>
      <trkpt lat="31.530916700139642" lon="-5.923760868608952">
        <ele>1811.26</ele>
        <time>2019-03-12T11:58:00Z</time>
      </trkpt>
      <trkpt lat="31.530820643529296" lon="-5.923765562474728">
        <ele>1811.26</ele>
        <time>2019-03-12T11:58:01Z</time>
      </trkpt>
      <trkpt lat="31.530741099268198" lon="-5.923805627971888">
        <ele>1811.26</ele>
        <time>2019-03-12T11:58:02Z</time>
      </trkpt>
      <trkpt lat="31.530688293278217" lon="-5.923879137262702">
        <ele>1811.26</ele>
        <time>2019-03-12T11:58:03Z</time>
      </trkpt>
      <trkpt lat="31.530663818120956" lon="-5.923976199701428">
        <ele>1811.26</ele>
        <time>2019-03-12T11:58:04Z</time>
      </trkpt>
      <trkpt lat="31.530654095113277" lon="-5.924083655700088">
        <ele>1811.26</ele>
        <time>2019-03-12T11:58:05Z</time>
      </trkpt>
      <trkpt lat="31.530638923868537" lon="-5.924200415611267">
        <ele>1811.26</ele>
        <time>2019-03-12T11:58:06Z</time>
      </trkpt>
      <trkpt lat="31.5306063182652" lon="-5.924322791397572">
        <ele>1811.26</ele>
        <time>2019-03-12T11:58:07Z</time>
      </trkpt>
      <trkpt lat="31.530559882521629" lon="-5.924444328993559">
        <ele>1811.74</ele>
        <time>2019-03-12T11:58:08Z</time>
      </trkpt>
      <trkpt lat="31.530353771522641" lon="-5.92501019127667">
        <ele>1811.74</ele>
        <time>2019-03-12T11:58:09Z</time>
      </trkpt>
      <trkpt lat="31.530304485931993" lon="-5.925096608698368">
        <ele>1811.74</ele>
        <time>2019-03-12T11:58:10Z</time>
      </trkpt>
      <trkpt lat="31.530247321352363" lon="-5.925171878188849">
        <ele>1811.74</ele>
        <time>2019-03-12T11:58:11Z</time>
      </trkpt>
      <trkpt lat="31.530179344117641" lon="-5.925232144072652">
        <ele>1811.74</ele>
        <time>2019-03-12T11:58:16Z</time>
      </trkpt>
      <trkpt lat="31.530108684673905" lon="-5.92527162283659">
        <ele>1811.74</ele>
        <time>2019-03-12T11:58:17Z</time>
      </trkpt>
      <trkpt lat="31.530035762116313" lon="-5.925293415784836">
        <ele>1811.74</ele>
        <time>2019-03-12T11:58:18Z</time>
      </trkpt>
      <trkpt lat="31.529966862872243" lon="-5.925296768546104">
        <ele>1811.74</ele>
        <time>2019-03-12T11:58:19Z</time>
      </trkpt>
      <trkpt lat="31.529902489855886" lon="-5.925285536795855">
        <ele>1811.74</ele>
        <time>2019-03-12T11:58:20Z</time>
      </trkpt>
      <trkpt lat="31.529847253113985" lon="-5.92526382766664">
        <ele>1811.74</ele>
        <time>2019-03-12T11:58:21Z</time>
      </trkpt>
      <trkpt lat="31.529801655560732" lon="-5.925227953121066">
        <ele>1812.22</ele>
        <time>2019-03-12T11:58:28Z</time>
      </trkpt>
      <trkpt lat="31.52976636774838" lon="-5.925185875967145">
        <ele>1812.22</ele>
        <time>2019-03-12T11:58:29Z</time>
      </trkpt>
      <trkpt lat="31.529742479324341" lon="-5.925146313384175">
        <ele>1811.26</ele>
        <time>2019-03-12T11:58:30Z</time>
      </trkpt>
      <trkpt lat="31.529728733003139" lon="-5.925112785771489">
        <ele>1811.26</ele>
        <time>2019-03-12T11:58:31Z</time>
      </trkpt>
      <trkpt lat="31.529719177633524" lon="-5.925087137147784">
        <ele>1810.78</ele>
        <time>2019-03-12T11:58:32Z</time>
      </trkpt>
      <trkpt lat="31.52964717708528" lon="-5.924953194335103">
        <ele>1810.3</ele>
        <time>2019-03-12T11:58:33Z</time>
      </trkpt>
      <trkpt lat="31.529608368873596" lon="-5.92491346411407">
        <ele>1809.8199999999999</ele>
        <time>2019-03-12T11:58:34Z</time>
      </trkpt>
      <trkpt lat="31.529558412730694" lon="-5.924882367253304">
        <ele>1809.3399999999999</ele>
        <time>2019-03-12T11:58:35Z</time>
      </trkpt>
      <trkpt lat="31.529497560113668" lon="-5.924857556819916">
        <ele>1803.5699999999999</ele>
        <time>2019-03-12T11:58:36Z</time>
      </trkpt>
      <trkpt lat="31.529428325593472" lon="-5.924837859347463">
        <ele>1802.6099999999999</ele>
        <time>2019-03-12T11:58:37Z</time>
      </trkpt>
      <trkpt lat="31.529352720826864" lon="-5.924823777750135">
        <ele>1802.1300000000001</ele>
        <time>2019-03-12T11:58:38Z</time>
      </trkpt>
      <trkpt lat="31.528746206313372" lon="-5.924834255129099">
        <ele>1801.6500000000001</ele>
        <time>2019-03-12T11:58:39Z</time>
      </trkpt>
      <trkpt lat="31.528665404766798" lon="-5.924852024763823">
        <ele>1801.1700000000001</ele>
        <time>2019-03-12T11:58:40Z</time>
      </trkpt>
      <trkpt lat="31.528595248237252" lon="-5.924865016713738">
        <ele>1800.6900000000001</ele>
        <time>2019-03-12T11:58:43Z</time>
      </trkpt>
      <trkpt lat="31.528529282659292" lon="-5.924863424152136">
        <ele>1800.21</ele>
        <time>2019-03-12T11:58:44Z</time>
      </trkpt>
      <trkpt lat="31.52846859768033" lon="-5.924849174916744">
        <ele>1799.73</ele>
        <time>2019-03-12T11:58:45Z</time>
      </trkpt>
      <trkpt lat="31.528412522748113" lon="-5.924825873225927">
        <ele>1799.24</ele>
        <time>2019-03-12T11:58:46Z</time>
      </trkpt>
      <trkpt lat="31.528352927416563" lon="-5.92479519546032">
        <ele>1798.28</ele>
        <time>2019-03-12T11:58:47Z</time>
      </trkpt>
      <trkpt lat="31.528288470581174" lon="-5.924764601513743">
        <ele>1797.3199999999999</ele>
        <time>2019-03-12T11:58:48Z</time>
      </trkpt>
      <trkpt lat="31.528219571337104" lon="-5.924748759716749">
        <ele>1796.8399999999999</ele>
        <time>2019-03-12T11:58:49Z</time>
      </trkpt>
      <trkpt lat="31.528146732598543" lon="-5.924763260409236">
        <ele>1796.3599999999999</ele>
        <time>2019-03-12T11:58:50Z</time>
      </trkpt>
      <trkpt lat="31.52807230129838" lon="-5.924800811335445">
        <ele>1794.4400000000001</ele>
        <time>2019-03-12T11:58:51Z</time>
      </trkpt>
      <trkpt lat="31.527998624369502" lon="-5.924852024763823">
        <ele>1794.4400000000001</ele>
        <time>2019-03-12T11:58:52Z</time>
      </trkpt>
      <trkpt lat="31.52792377397418" lon="-5.924910195171833">
        <ele>1793.96</ele>
        <time>2019-03-12T11:58:53Z</time>
      </trkpt>
      <trkpt lat="31.527701653540134" lon="-5.9250776655972">
        <ele>1793.48</ele>
        <time>2019-03-12T11:58:54Z</time>
      </trkpt>
      <trkpt lat="31.527636190876365" lon="-5.925109935924411">
        <ele>1793</ele>
        <time>2019-03-12T11:58:55Z</time>
      </trkpt>
      <trkpt lat="31.527572488412261" lon="-5.92512309551239">
        <ele>1792.03</ele>
        <time>2019-03-12T11:58:56Z</time>
      </trkpt>
      <trkpt lat="31.527513731271029" lon="-5.925122760236263">
        <ele>1791.55</ele>
        <time>2019-03-12T11:58:57Z</time>
      </trkpt>
      <trkpt lat="31.527458410710096" lon="-5.925118820741773">
        <ele>1790.5899999999999</ele>
        <time>2019-03-12T11:59:01Z</time>
      </trkpt>
      <trkpt lat="31.527412477880716" lon="-5.925123514607549">
        <ele>1790.5899999999999</ele>
        <time>2019-03-12T11:59:02Z</time>
      </trkpt>
      <trkpt lat="31.52737945318222" lon="-5.925146900117397">
        <ele>1790.1099999999999</ele>
        <time>2019-03-12T11:59:03Z</time>
      </trkpt>
      <trkpt lat="31.527370903640985" lon="-5.925187217071652">
        <ele>1789.6300000000001</ele>
        <time>2019-03-12T11:59:04Z</time>
      </trkpt>
      <trkpt lat="31.527395965531468" lon="-5.925221582874656">
        <ele>1789.6300000000001</ele>
        <time>2019-03-12T11:59:05Z</time>
      </trkpt>
      <trkpt lat="31.527442065998912" lon="-5.925232730805874">
        <ele>1789.1500000000001</ele>
        <time>2019-03-12T11:59:06Z</time>
      </trkpt>
      <trkpt lat="31.527498727664351" lon="-5.925226109102368">
        <ele>1789.1500000000001</ele>
        <time>2019-03-12T11:59:07Z</time>
      </trkpt>
      <trkpt lat="31.527563519775867" lon="-5.925211943686009">
        <ele>1788.6700000000001</ele>
        <time>2019-03-12T11:59:08Z</time>
      </trkpt>
      <trkpt lat="31.52763401158154" lon="-5.925187049433589">
        <ele>1786.75</ele>
        <time>2019-03-12T11:59:09Z</time>
      </trkpt>
      <trkpt lat="31.527709783986211" lon="-5.925151593983173">
        <ele>1786.27</ele>
        <time>2019-03-12T11:59:10Z</time>
      </trkpt>
      <trkpt lat="31.52778941206634" lon="-5.925108594819903">
        <ele>1785.79</ele>
        <time>2019-03-12T11:59:11Z</time>
      </trkpt>
      <trkpt lat="31.528106415644288" lon="-5.924969036132097">
        <ele>1785.3099999999999</ele>
        <time>2019-03-12T11:59:12Z</time>
      </trkpt>
      <trkpt lat="31.528180930763483" lon="-5.92496233060956">
        <ele>1785.3099999999999</ele>
        <time>2019-03-12T11:59:13Z</time>
      </trkpt>
      <trkpt lat="31.528250835835934" lon="-5.92497892677784">
        <ele>1784.8199999999999</ele>
        <time>2019-03-12T11:59:14Z</time>
      </trkpt>
      <trkpt lat="31.52831562794745" lon="-5.925020584836602">
        <ele>1784.3399999999999</ele>
        <time>2019-03-12T11:59:17Z</time>
      </trkpt>
      <trkpt lat="31.528375223278999" lon="-5.92507615685463">
        <ele>1783.8599999999999</ele>
        <time>2019-03-12T11:59:18Z</time>
      </trkpt>
      <trkpt lat="31.528428951278329" lon="-5.925135081633925">
        <ele>1782.9000000000001</ele>
        <time>2019-03-12T11:59:19Z</time>
      </trkpt>
      <trkpt lat="31.528482930734754" lon="-5.925185373052955">
        <ele>1781.9400000000001</ele>
        <time>2019-03-12T11:59:20Z</time>
      </trkpt>
      <trkpt lat="31.528542190790176" lon="-5.925214374437928">
        <ele>1780.98</ele>
        <time>2019-03-12T11:59:21Z</time>
      </trkpt>
      <trkpt lat="31.528606312349439" lon="-5.925214206799865">
        <ele>1780.5</ele>
        <time>2019-03-12T11:59:22Z</time>
      </trkpt>
      <trkpt lat="31.528671188279986" lon="-5.925192078575492">
        <ele>1779.54</ele>
        <time>2019-03-12T11:59:23Z</time>
      </trkpt>
      <trkpt lat="31.528738662600517" lon="-5.925158467143774">
        <ele>1779.0599999999999</ele>
        <time>2019-03-12T11:59:24Z</time>
      </trkpt>
      <trkpt lat="31.528811836615205" lon="-5.925132064148784">
        <ele>1777.6099999999999</ele>
        <time>2019-03-12T11:59:25Z</time>
      </trkpt>
      <trkpt lat="31.52889221906662" lon="-5.925127537921071">
        <ele>1776.6500000000001</ele>
        <time>2019-03-12T11:59:26Z</time>
      </trkpt>
      <trkpt lat="31.528971511870623" lon="-5.925143295899034">
        <ele>1776.1700000000001</ele>
        <time>2019-03-12T11:59:27Z</time>
      </trkpt>
      <trkpt lat="31.529162116348743" lon="-5.925218397751451">
        <ele>1775.6900000000001</ele>
        <time>2019-03-12T11:59:28Z</time>
      </trkpt>
      <trkpt lat="31.529186759144068" lon="-5.925259469076991">
        <ele>1774.73</ele>
        <time>2019-03-12T11:59:29Z</time>
      </trkpt>
      <trkpt lat="31.529174605384469" lon="-5.925305401906371">
        <ele>1774.73</ele>
        <time>2019-03-12T11:59:30Z</time>
      </trkpt>
      <trkpt lat="31.529135629534721" lon="-5.925337923690677">
        <ele>1773.77</ele>
        <time>2019-03-12T11:59:31Z</time>
      </trkpt>
      <trkpt lat="31.52908374555409" lon="-5.925342785194516">
        <ele>1773.29</ele>
        <time>2019-03-12T11:59:32Z</time>
      </trkpt>
      <trkpt lat="31.52902708388865" lon="-5.925327278673649">
        <ele>1772.3299999999999</ele>
        <time>2019-03-12T11:59:33Z</time>
      </trkpt>
      <trkpt lat="31.528967656195164" lon="-5.925293164327741">
        <ele>1772.3299999999999</ele>
        <time>2019-03-12T11:59:34Z</time>
      </trkpt>
      <trkpt lat="31.528902864083648" lon="-5.925261732190847">
        <ele>1772.3299999999999</ele>
        <time>2019-03-12T11:59:35Z</time>
      </trkpt>
      <trkpt lat="31.528833042830229" lon="-5.925259049981833">
        <ele>1771.8499999999999</ele>
        <time>2019-03-12T11:59:39Z</time>
      </trkpt>
      <trkpt lat="31.52875978499651" lon="-5.925289057195187">
        <ele>1771.3699999999999</ele>
        <time>2019-03-12T11:59:40Z</time>
      </trkpt>
      <trkpt lat="31.528684683144093" lon="-5.925332056358457">
        <ele>1770.4100000000001</ele>
        <time>2019-03-12T11:59:41Z</time>
      </trkpt>
      <trkpt lat="31.5286048874259" lon="-5.92537279240787">
        <ele>1769.9200000000001</ele>
        <time>2019-03-12T11:59:43Z</time>
      </trkpt>
      <trkpt lat="31.528517547994852" lon="-5.925394920632243">
        <ele>1768.96</ele>
        <time>2019-03-12T11:59:44Z</time>
      </trkpt>
      <trkpt lat="31.52842216193676" lon="-5.925393663346767">
        <ele>1768</ele>
        <time>2019-03-12T11:59:45Z</time>
      </trkpt>
      <trkpt lat="31.528322668746114" lon="-5.925377067178488">
        <ele>1767.04</ele>
        <time>2019-03-12T11:59:46Z</time>
      </trkpt>
      <trkpt lat="31.528220158070326" lon="-5.925354855135083">
        <ele>1766.5599999999999</ele>
        <time>2019-03-12T11:59:47Z</time>
      </trkpt>
      <trkpt lat="31.528116390109062" lon="-5.925347143784165">
        <ele>1762.23</ele>
        <time>2019-03-12T11:59:48Z</time>
      </trkpt>
      <trkpt lat="31.528011364862323" lon="-5.925370194017887">
        <ele>1761.27</ele>
        <time>2019-03-12T11:59:49Z</time>
      </trkpt>
      <trkpt lat="31.527911955490708" lon="-5.92542115598917">
        <ele>1760.3099999999999</ele>
        <time>2019-03-12T11:59:50Z</time>
      </trkpt>
      <trkpt lat="31.527534686028957" lon="-5.925670266151428">
        <ele>1758.3900000000001</ele>
        <time>2019-03-12T11:59:51Z</time>
      </trkpt>
      <trkpt lat="31.527447681874037" lon="-5.925703290849924">
        <ele>1757.4300000000001</ele>
        <time>2019-03-12T11:59:54Z</time>
      </trkpt>
      <trkpt lat="31.527365203946829" lon="-5.925718378275633">
        <ele>1756.47</ele>
        <time>2019-03-12T11:59:55Z</time>
      </trkpt>
      <trkpt lat="31.527230339124799" lon="-5.925737489014864">
        <ele>1755.5</ele>
        <time>2019-03-12T11:59:57Z</time>
      </trkpt>
      <trkpt lat="31.527188178151846" lon="-5.92576758004725">
        <ele>1755.02</ele>
        <time>2019-03-12T11:59:58Z</time>
      </trkpt>
      <trkpt lat="31.527176108211279" lon="-5.925809405744076">
        <ele>1754.54</ele>
        <time>2019-03-12T11:59:59Z</time>
      </trkpt>
      <trkpt lat="31.527201421558857" lon="-5.925840754061937">
        <ele>1754.54</ele>
        <time>2019-03-12T12:00:00Z</time>
      </trkpt>
      <trkpt lat="31.527248192578554" lon="-5.925845615565777">
        <ele>1754.54</ele>
        <time>2019-03-12T12:00:01Z</time>
      </trkpt>
      <trkpt lat="31.527305440977216" lon="-5.925829103216529">
        <ele>1754.54</ele>
        <time>2019-03-12T12:00:02Z</time>
      </trkpt>
      <trkpt lat="31.527373921126127" lon="-5.925808567553759">
        <ele>1754.0599999999999</ele>
        <time>2019-03-12T12:00:03Z</time>
      </trkpt>
      <trkpt lat="31.527456063777208" lon="-5.925791217014194">
        <ele>1754.0599999999999</ele>
        <time>2019-03-12T12:00:04Z</time>
      </trkpt>
      <trkpt lat="31.527552120387554" lon="-5.925776464864612">
        <ele>1753.5799999999999</ele>
        <time>2019-03-12T12:00:09Z</time>
      </trkpt>
      <trkpt lat="31.527841715142131" lon="-5.925714103505015">
        <ele>1753.5799999999999</ele>
        <time>2019-03-12T12:00:10Z</time>
      </trkpt>
      <trkpt lat="31.527918241918087" lon="-5.925674876198173">
        <ele>1753.0999999999999</ele>
        <time>2019-03-12T12:00:14Z</time>
      </trkpt>
      <trkpt lat="31.528044557198882" lon="-5.925596421584487">
        <ele>1753.0999999999999</ele>
        <time>2019-03-12T12:00:16Z</time>
      </trkpt>
      <trkpt lat="31.528107840567827" lon="-5.925578568130732">
        <ele>1752.1400000000001</ele>
        <time>2019-03-12T12:00:17Z</time>
      </trkpt>
      <trkpt lat="31.528160478919744" lon="-5.925592733547092">
        <ele>1751.6600000000001</ele>
        <time>2019-03-12T12:00:18Z</time>
      </trkpt>
      <trkpt lat="31.528192413970828" lon="-5.925632212311029">
        <ele>1751.6600000000001</ele>
        <time>2019-03-12T12:00:21Z</time>
      </trkpt>
      <trkpt lat="31.52818763628602" lon="-5.925684850662947">
        <ele>1751.1800000000001</ele>
        <time>2019-03-12T12:00:22Z</time>
      </trkpt>
      <trkpt lat="31.528151175007224" lon="-5.925732795149088">
        <ele>1749.26</ele>
        <time>2019-03-12T12:00:23Z</time>
      </trkpt>
      <trkpt lat="31.528093004599214" lon="-5.925769843161106">
        <ele>1748.29</ele>
        <time>2019-03-12T12:00:24Z</time>
      </trkpt>
      <trkpt lat="31.528020165860653" lon="-5.925800520926714">
        <ele>1745.4100000000001</ele>
        <time>2019-03-12T12:00:25Z</time>
      </trkpt>
      <trkpt lat="31.527557233348489" lon="-5.926036136224866">
        <ele>1744.45</ele>
        <time>2019-03-12T12:00:26Z</time>
      </trkpt>
      <trkpt lat="31.527454471215606" lon="-5.926067484542728">
        <ele>1744.45</ele>
        <time>2019-03-12T12:00:27Z</time>
      </trkpt>
      <trkpt lat="31.527072004973888" lon="-5.926158595830202">
        <ele>1743.97</ele>
        <time>2019-03-12T12:00:28Z</time>
      </trkpt>
      <trkpt lat="31.526947198435664" lon="-5.926190949976444">
        <ele>1743.97</ele>
        <time>2019-03-12T12:00:29Z</time>
      </trkpt>
      <trkpt lat="31.526902774348855" lon="-5.926159601658583">
        <ele>1743.97</ele>
        <time>2019-03-12T12:00:30Z</time>
      </trkpt>
      <trkpt lat="31.526875700801611" lon="-5.926103526726365">
        <ele>1743.97</ele>
        <time>2019-03-12T12:00:31Z</time>
      </trkpt>
      <trkpt lat="31.526815015822649" lon="-5.925916358828545">
        <ele>1743.49</ele>
        <time>2019-03-12T12:00:32Z</time>
      </trkpt>
      <trkpt lat="31.526782242581248" lon="-5.925863971933723">
        <ele>1743.01</ele>
        <time>2019-03-12T12:00:33Z</time>
      </trkpt>
      <trkpt lat="31.526744021102786" lon="-5.925836227834225">
        <ele>1743.01</ele>
        <time>2019-03-12T12:00:34Z</time>
      </trkpt>
      <trkpt lat="31.526702530682087" lon="-5.925837401300669">
        <ele>1742.53</ele>
        <time>2019-03-12T12:00:35Z</time>
      </trkpt>
      <trkpt lat="31.526660034433007" lon="-5.925868581980467">
        <ele>1741.5699999999999</ele>
        <time>2019-03-12T12:00:36Z</time>
      </trkpt>
      <trkpt lat="31.526617035269737" lon="-5.925922896713018">
        <ele>1741.0799999999999</ele>
        <time>2019-03-12T12:00:37Z</time>
      </trkpt>
      <trkpt lat="31.526565738022327" lon="-5.92598651535809">
        <ele>1740.5999999999999</ele>
        <time>2019-03-12T12:00:38Z</time>
      </trkpt>
      <trkpt lat="31.526502035558224" lon="-5.926050804555416">
        <ele>1740.1199999999999</ele>
        <time>2019-03-12T12:00:39Z</time>
      </trkpt>
      <trkpt lat="31.526428107172251" lon="-5.92611157335341">
        <ele>1739.1600000000001</ele>
        <time>2019-03-12T12:00:40Z</time>
      </trkpt>
      <trkpt lat="31.526350323110819" lon="-5.926174521446228">
        <ele>1738.2</ele>
        <time>2019-03-12T12:00:42Z</time>
      </trkpt>
      <trkpt lat="31.526277484372258" lon="-5.926249455660582">
        <ele>1737.24</ele>
        <time>2019-03-12T12:00:43Z</time>
      </trkpt>
      <trkpt lat="31.526213530451059" lon="-5.92633293941617">
        <ele>1736.76</ele>
        <time>2019-03-12T12:00:44Z</time>
      </trkpt>
      <trkpt lat="31.526148822158575" lon="-5.926414579153061">
        <ele>1735.8</ele>
        <time>2019-03-12T12:00:45Z</time>
      </trkpt>
      <trkpt lat="31.526074223220348" lon="-5.926485825330019">
        <ele>1735.3199999999999</ele>
        <time>2019-03-12T12:00:46Z</time>
      </trkpt>
      <trkpt lat="31.525991158559918" lon="-5.926542151719332">
        <ele>1734.3599999999999</ele>
        <time>2019-03-12T12:00:47Z</time>
      </trkpt>
      <trkpt lat="31.525901975110173" lon="-5.926586324349046">
        <ele>1733.8800000000001</ele>
        <time>2019-03-12T12:00:49Z</time>
      </trkpt>
      <trkpt lat="31.525807762518525" lon="-5.926621779799461">
        <ele>1732.9100000000001</ele>
        <time>2019-03-12T12:00:50Z</time>
      </trkpt>
      <trkpt lat="31.525717070326209" lon="-5.926652625203133">
        <ele>1731.47</ele>
        <time>2019-03-12T12:00:51Z</time>
      </trkpt>
      <trkpt lat="31.525633754208684" lon="-5.926670646294951">
        <ele>1730.99</ele>
        <time>2019-03-12T12:01:02Z</time>
      </trkpt>
      <trkpt lat="31.525552030652761" lon="-5.926662096753717">
        <ele>1730.03</ele>
        <time>2019-03-12T12:01:13Z</time>
      </trkpt>
      <trkpt lat="31.525384811684489" lon="-5.926620773971081">
        <ele>1729.55</ele>
        <time>2019-03-12T12:01:14Z</time>
      </trkpt>
      <trkpt lat="31.525295879691839" lon="-5.926636615768075">
        <ele>1728.5899999999999</ele>
        <time>2019-03-12T12:01:15Z</time>
      </trkpt>
      <trkpt lat="31.525207785889506" lon="-5.926678273826838">
        <ele>1727.6300000000001</ele>
        <time>2019-03-12T12:01:17Z</time>
      </trkpt>
      <trkpt lat="31.525119859725237" lon="-5.926733175292611">
        <ele>1725.7</ele>
        <time>2019-03-12T12:01:18Z</time>
      </trkpt>
      <trkpt lat="31.525032855570316" lon="-5.926797213032842">
        <ele>1724.74</ele>
        <time>2019-03-12T12:01:29Z</time>
      </trkpt>
      <trkpt lat="31.524949371814728" lon="-5.926866782829166">
        <ele>1724.26</ele>
        <time>2019-03-12T12:01:42Z</time>
      </trkpt>
      <trkpt lat="31.524770418182015" lon="-5.926992679014802">
        <ele>1717.05</ele>
        <time>2019-03-12T12:01:55Z</time>
      </trkpt>
      <trkpt lat="31.524673020467162" lon="-5.927040120586753">
        <ele>1712.25</ele>
        <time>2019-03-12T12:02:09Z</time>
      </trkpt>
      <trkpt lat="31.524574784561992" lon="-5.927077503874898">
        <ele>1711.76</ele>
        <time>2019-03-12T12:02:18Z</time>
      </trkpt>
      <trkpt lat="31.523731062188745" lon="-5.927492743358016">
        <ele>1711.28</ele>
        <time>2019-03-12T12:02:27Z</time>
      </trkpt>
      <trkpt lat="31.523209623992443" lon="-5.927786696702242">
        <ele>1710.3199999999999</ele>
        <time>2019-03-12T12:02:37Z</time>
      </trkpt>
      <trkpt lat="31.523158913478255" lon="-5.927836988121271">
        <ele>1710.3199999999999</ele>
        <time>2019-03-12T12:02:47Z</time>
      </trkpt>
      <trkpt lat="31.523115076124668" lon="-5.92789851129055">
        <ele>1703.5899999999999</ele>
        <time>2019-03-12T12:02:57Z</time>
      </trkpt>
      <trkpt lat="31.52303796261549" lon="-5.928023653104901">
        <ele>1699.27</ele>
        <time>2019-03-12T12:03:05Z</time>
      </trkpt>
      <trkpt lat="31.522995717823505" lon="-5.928080314770341">
        <ele>1698.3099999999999</ele>
        <time>2019-03-12T12:03:14Z</time>
      </trkpt>
      <trkpt lat="31.522299097850919" lon="-5.928690601140261">
        <ele>1695.9000000000001</ele>
        <time>2019-03-12T12:03:26Z</time>
      </trkpt>
      <trkpt lat="31.521470043808222" lon="-5.92956324107945">
        <ele>1695.4200000000001</ele>
        <time>2019-03-12T12:03:38Z</time>
      </trkpt>
      <trkpt lat="31.520597655326128" lon="-5.93032012693584">
        <ele>1694.46</ele>
        <time>2019-03-12T12:03:48Z</time>
      </trkpt>
      <trkpt lat="31.51949786581099" lon="-5.931169800460339">
        <ele>1693.02</ele>
        <time>2019-03-12T12:03:59Z</time>
      </trkpt>
      <trkpt lat="31.518555236980319" lon="-5.931927859783173">
        <ele>1691.5799999999999</ele>
        <time>2019-03-12T12:04:00Z</time>
      </trkpt>
      <trkpt lat="31.517412029206753" lon="-5.9325170237571">
        <ele>1687.25</ele>
        <time>2019-03-12T12:04:01Z</time>
      </trkpt>
      <trkpt lat="31.515807062387466" lon="-5.933321099728346">
        <ele>1687.25</ele>
        <time>2019-03-12T12:04:02Z</time>
      </trkpt>
      <trkpt lat="31.514406446367502" lon="-5.933953011408448">
        <ele>1687.73</ele>
        <time>2019-03-12T12:04:03Z</time>
      </trkpt>
      <trkpt lat="31.513113789260387" lon="-5.934824645519257">
        <ele>1682.9300000000001</ele>
        <time>2019-03-12T12:04:04Z</time>
      </trkpt>
      <trkpt lat="31.512192450463772" lon="-5.935866599902511">
        <ele>1683.4100000000001</ele>
        <time>2019-03-12T12:04:08Z</time>
      </trkpt>
      <trkpt lat="31.511480659246445" lon="-5.936990613117814">
        <ele>1682.9300000000001</ele>
        <time>2019-03-12T12:04:09Z</time>
      </trkpt>
      <trkpt lat="31.510484553873539" lon="-5.938241025432944">
        <ele>1682.4400000000001</ele>
        <time>2019-03-12T12:04:10Z</time>
      </trkpt>
      <trkpt lat="31.509584588930011" lon="-5.939343832433224">
        <ele>1682.4400000000001</ele>
        <time>2019-03-12T12:04:22Z</time>
      </trkpt>
      <trkpt lat="31.50899525731802" lon="-5.940095772966743">
        <ele>1682.4400000000001</ele>
        <time>2019-03-12T12:04:31Z</time>
      </trkpt>
      <trkpt lat="31.508515225723386" lon="-5.940717123448849">
        <ele>1681.96</ele>
        <time>2019-03-12T12:04:32Z</time>
      </trkpt>
      <trkpt lat="31.508478345349431" lon="-5.940804798156023">
        <ele>1681.96</ele>
        <time>2019-03-12T12:04:33Z</time>
      </trkpt>
      <trkpt lat="31.508448338136077" lon="-5.940895238891244">
        <ele>1681.96</ele>
        <time>2019-03-12T12:04:45Z</time>
      </trkpt>
      <trkpt lat="31.508426126092672" lon="-5.940989870578051">
        <ele>1681.48</ele>
        <time>2019-03-12T12:04:46Z</time>
      </trkpt>
      <trkpt lat="31.508414391428232" lon="-5.941090034320951">
        <ele>1681.48</ele>
        <time>2019-03-12T12:04:47Z</time>
      </trkpt>
      <trkpt lat="31.508409529924393" lon="-5.94119505956769">
        <ele>1681.48</ele>
        <time>2019-03-12T12:04:53Z</time>
      </trkpt>
      <trkpt lat="31.508364602923393" lon="-5.941595127806068">
        <ele>1678.5999999999999</ele>
        <time>2019-03-12T12:04:54Z</time>
      </trkpt>
      <trkpt lat="31.50832830928266" lon="-5.941693028435111">
        <ele>1675.72</ele>
        <time>2019-03-12T12:04:55Z</time>
      </trkpt>
      <trkpt lat="31.508276760578156" lon="-5.941789420321584">
        <ele>1675.72</ele>
        <time>2019-03-12T12:04:56Z</time>
      </trkpt>
      <trkpt lat="31.507538398727775" lon="-5.943071264773607">
        <ele>1675.72</ele>
        <time>2019-03-12T12:04:57Z</time>
      </trkpt>
      <trkpt lat="31.506828870624304" lon="-5.944042224436998">
        <ele>1676.6800000000001</ele>
        <time>2019-03-12T12:04:58Z</time>
      </trkpt>
      <trkpt lat="31.506731892004609" lon="-5.944123780354857">
        <ele>1676.2</ele>
        <time>2019-03-12T12:04:59Z</time>
      </trkpt>
      <trkpt lat="31.506630219519138" lon="-5.944194020703435">
        <ele>1675.72</ele>
        <time>2019-03-12T12:05:09Z</time>
      </trkpt>
      <trkpt lat="31.505513750016689" lon="-5.944863986223936">
        <ele>1674.27</ele>
        <time>2019-03-12T12:05:11Z</time>
      </trkpt>
      <trkpt lat="31.505432864651084" lon="-5.944882845506072">
        <ele>1674.27</ele>
        <time>2019-03-12T12:05:12Z</time>
      </trkpt>
      <trkpt lat="31.505352649837732" lon="-5.944886617362499">
        <ele>1673.79</ele>
        <time>2019-03-12T12:05:13Z</time>
      </trkpt>
      <trkpt lat="31.504868594929576" lon="-5.944891227409244">
        <ele>1673.3099999999999</ele>
        <time>2019-03-12T12:05:14Z</time>
      </trkpt>
      <trkpt lat="31.504800617694855" lon="-5.944915283471346">
        <ele>1673.3099999999999</ele>
        <time>2019-03-12T12:05:15Z</time>
      </trkpt>
      <trkpt lat="31.504745967686176" lon="-5.944954175502062">
        <ele>1672.8299999999999</ele>
        <time>2019-03-12T12:05:16Z</time>
      </trkpt>
      <trkpt lat="31.504705231636763" lon="-5.945005137473345">
        <ele>1672.3499999999999</ele>
        <time>2019-03-12T12:05:17Z</time>
      </trkpt>
      <trkpt lat="31.504677487537265" lon="-5.945059871301055">
        <ele>1670.9100000000001</ele>
        <time>2019-03-12T12:05:29Z</time>
      </trkpt>
      <trkpt lat="31.504654353484511" lon="-5.945122232660651">
        <ele>1670.9100000000001</ele>
        <time>2019-03-12T12:05:30Z</time>
      </trkpt>
      <trkpt lat="31.504631051793694" lon="-5.94518861733377">
        <ele>1671.3900000000001</ele>
        <time>2019-03-12T12:05:31Z</time>
      </trkpt>
      <trkpt lat="31.504314467310905" lon="-5.946108279749751">
        <ele>1671.8699999999999</ele>
        <time>2019-03-12T12:05:32Z</time>
      </trkpt>
      <trkpt lat="31.50424724444747" lon="-5.946310367435217">
        <ele>1672.3499999999999</ele>
        <time>2019-03-12T12:05:33Z</time>
      </trkpt>
      <trkpt lat="31.504203826189041" lon="-5.94639946706593">
        <ele>1672.8299999999999</ele>
        <time>2019-03-12T12:05:44Z</time>
      </trkpt>
      <trkpt lat="31.504150098189712" lon="-5.946469958871603">
        <ele>1672.8299999999999</ele>
        <time>2019-03-12T12:05:47Z</time>
      </trkpt>
      <trkpt lat="31.504081785678864" lon="-5.946514718234539">
        <ele>1673.3099999999999</ele>
        <time>2019-03-12T12:05:48Z</time>
      </trkpt>
      <trkpt lat="31.504000313580036" lon="-5.94652988947928">
        <ele>1674.27</ele>
        <time>2019-03-12T12:05:49Z</time>
      </trkpt>
      <trkpt lat="31.503914147615433" lon="-5.946524776518345">
        <ele>1674.27</ele>
        <time>2019-03-12T12:05:50Z</time>
      </trkpt>
      <trkpt lat="31.503824628889561" lon="-5.946514299139381">
        <ele>1674.27</ele>
        <time>2019-03-12T12:05:51Z</time>
      </trkpt>
      <trkpt lat="31.502714110538363" lon="-5.946166114881635">
        <ele>1673.79</ele>
        <time>2019-03-12T12:05:52Z</time>
      </trkpt>
      <trkpt lat="31.502622328698635" lon="-5.946141807362437">
        <ele>1673.79</ele>
        <time>2019-03-12T12:06:02Z</time>
      </trkpt>
      <trkpt lat="31.502526439726353" lon="-5.946132335811853">
        <ele>1677.6400000000001</ele>
        <time>2019-03-12T12:06:03Z</time>
      </trkpt>
      <trkpt lat="31.50242468342185" lon="-5.946131749078631">
        <ele>1679.5599999999999</ele>
        <time>2019-03-12T12:06:06Z</time>
      </trkpt>
      <trkpt lat="31.502316137775779" lon="-5.946138203144074">
        <ele>1680.52</ele>
        <time>2019-03-12T12:06:12Z</time>
      </trkpt>
      <trkpt lat="31.500973775982857" lon="-5.946225039660931">
        <ele>1681</ele>
        <time>2019-03-12T12:06:13Z</time>
      </trkpt>
      <trkpt lat="31.500594327226281" lon="-5.946240965276957">
        <ele>1681.48</ele>
        <time>2019-03-12T12:06:14Z</time>
      </trkpt>
      <trkpt lat="31.500476226210594" lon="-5.946267619729042">
        <ele>1681.96</ele>
        <time>2019-03-12T12:06:16Z</time>
      </trkpt>
      <trkpt lat="31.500366171821952" lon="-5.946306427940726">
        <ele>1681.96</ele>
        <time>2019-03-12T12:06:17Z</time>
      </trkpt>
      <trkpt lat="31.500262906774879" lon="-5.946354456245899">
        <ele>1677.1600000000001</ele>
        <time>2019-03-12T12:06:18Z</time>
      </trkpt>
      <trkpt lat="31.500164922326803" lon="-5.946411201730371">
        <ele>1676.6800000000001</ele>
        <time>2019-03-12T12:06:19Z</time>
      </trkpt>
      <trkpt lat="31.500064171850681" lon="-5.94647909514606">
        <ele>1674.75</ele>
        <time>2019-03-12T12:06:20Z</time>
      </trkpt>
      <trkpt lat="31.498972931876779" lon="-5.947240674868226">
        <ele>1673.3099999999999</ele>
        <time>2019-03-12T12:06:21Z</time>
      </trkpt>
      <trkpt lat="31.498847622424364" lon="-5.947286104783416">
        <ele>1672.8299999999999</ele>
        <time>2019-03-12T12:06:23Z</time>
      </trkpt>
      <trkpt lat="31.498456606641412" lon="-5.947391968220472">
        <ele>1672.3499999999999</ele>
        <time>2019-03-12T12:06:24Z</time>
      </trkpt>
      <trkpt lat="31.497685303911567" lon="-5.947652813047171">
        <ele>1671.8699999999999</ele>
        <time>2019-03-12T12:06:28Z</time>
      </trkpt>
      <trkpt lat="31.497564688324928" lon="-5.94771777279675">
        <ele>1671.3900000000001</ele>
        <time>2019-03-12T12:06:29Z</time>
      </trkpt>
      <trkpt lat="31.497448431327939" lon="-5.947793461382389">
        <ele>1671.3900000000001</ele>
        <time>2019-03-12T12:06:30Z</time>
      </trkpt>
      <trkpt lat="31.49722664617002" lon="-5.947962859645486">
        <ele>1671.3900000000001</ele>
        <time>2019-03-12T12:06:32Z</time>
      </trkpt>
      <trkpt lat="31.497124638408422" lon="-5.94806469976902">
        <ele>1670.9100000000001</ele>
        <time>2019-03-12T12:06:33Z</time>
      </trkpt>
      <trkpt lat="31.497033862397075" lon="-5.948185818269849">
        <ele>1670.9100000000001</ele>
        <time>2019-03-12T12:06:34Z</time>
      </trkpt>
      <trkpt lat="31.496954988688231" lon="-5.948322443291545">
        <ele>1670.4300000000001</ele>
        <time>2019-03-12T12:06:35Z</time>
      </trkpt>
      <trkpt lat="31.496885670349002" lon="-5.94846929423511">
        <ele>1669.95</ele>
        <time>2019-03-12T12:06:36Z</time>
      </trkpt>
      <trkpt lat="31.496824147179723" lon="-5.948622850701213">
        <ele>1668.99</ele>
        <time>2019-03-12T12:06:37Z</time>
      </trkpt>
      <trkpt lat="31.496685007587075" lon="-5.948919150978327">
        <ele>1668.99</ele>
        <time>2019-03-12T12:06:39Z</time>
      </trkpt>
      <trkpt lat="31.496592136099935" lon="-5.949053429067135">
        <ele>1668.99</ele>
        <time>2019-03-12T12:06:40Z</time>
      </trkpt>
      <trkpt lat="31.496255183592439" lon="-5.94949540682137">
        <ele>1668.99</ele>
        <time>2019-03-12T12:06:41Z</time>
      </trkpt>
      <trkpt lat="31.496216543018818" lon="-5.94959313981235">
        <ele>1668.51</ele>
        <time>2019-03-12T12:06:42Z</time>
      </trkpt>
      <trkpt lat="31.496207574382424" lon="-5.949699087068439">
        <ele>1668.51</ele>
        <time>2019-03-12T12:06:43Z</time>
      </trkpt>
      <trkpt lat="31.496210927143693" lon="-5.949912322685123">
        <ele>1668.51</ele>
        <time>2019-03-12T12:06:44Z</time>
      </trkpt>
      <trkpt lat="31.496176728978753" lon="-5.950007038190961">
        <ele>1668.02</ele>
        <time>2019-03-12T12:06:45Z</time>
      </trkpt>
      <trkpt lat="31.496113361790776" lon="-5.950079709291458">
        <ele>1667.54</ele>
        <time>2019-03-12T12:06:46Z</time>
      </trkpt>
      <trkpt lat="31.496028201654553" lon="-5.950125642120838">
        <ele>1667.0599999999999</ele>
        <time>2019-03-12T12:06:47Z</time>
      </trkpt>
      <trkpt lat="31.495933486148715" lon="-5.950152548030019">
        <ele>1667.54</ele>
        <time>2019-03-12T12:06:48Z</time>
      </trkpt>
      <trkpt lat="31.495830221101642" lon="-5.950168641284108">
        <ele>1668.02</ele>
        <time>2019-03-12T12:06:49Z</time>
      </trkpt>
      <trkpt lat="31.495606089010835" lon="-5.950209042057395">
        <ele>1668.51</ele>
        <time>2019-03-12T12:06:52Z</time>
      </trkpt>
      <trkpt lat="31.495495364069939" lon="-5.950261764228344">
        <ele>1668.51</ele>
        <time>2019-03-12T12:06:53Z</time>
      </trkpt>
      <trkpt lat="31.495393523946404" lon="-5.950340386480093">
        <ele>1668.51</ele>
        <time>2019-03-12T12:07:01Z</time>
      </trkpt>
      <trkpt lat="31.495302161201835" lon="-5.95044138841331">
        <ele>1668.51</ele>
        <time>2019-03-12T12:07:03Z</time>
      </trkpt>
      <trkpt lat="31.495213396847248" lon="-5.950550772249699">
        <ele>1668.51</ele>
        <time>2019-03-12T12:07:04Z</time>
      </trkpt>
      <trkpt lat="31.49511432275176" lon="-5.950656635686755">
        <ele>1668.02</ele>
        <time>2019-03-12T12:07:07Z</time>
      </trkpt>
      <trkpt lat="31.495004519820213" lon="-5.950755709782243">
        <ele>1668.02</ele>
        <time>2019-03-12T12:07:08Z</time>
      </trkpt>
      <trkpt lat="31.49488122202456" lon="-5.950845396146178">
        <ele>1668.02</ele>
        <time>2019-03-12T12:07:09Z</time>
      </trkpt>
      <trkpt lat="31.494747279211879" lon="-5.950922258198261">
        <ele>1667.0599999999999</ele>
        <time>2019-03-12T12:07:18Z</time>
      </trkpt>
      <trkpt lat="31.494604200124741" lon="-5.95098671503365">
        <ele>1667.0599999999999</ele>
        <time>2019-03-12T12:07:31Z</time>
      </trkpt>
      <trkpt lat="31.494461456313729" lon="-5.951043711975217">
        <ele>1664.1800000000001</ele>
        <time>2019-03-12T12:07:32Z</time>
      </trkpt>
      <trkpt lat="31.494044540449977" lon="-5.951217720285058">
        <ele>1664.1800000000001</ele>
        <time>2019-03-12T12:07:33Z</time>
      </trkpt>
      <trkpt lat="31.493896180763841" lon="-5.951253678649664">
        <ele>1664.1800000000001</ele>
        <time>2019-03-12T12:07:34Z</time>
      </trkpt>
      <trkpt lat="31.49270729161799" lon="-5.951406313106418">
        <ele>1663.7</ele>
        <time>2019-03-12T12:07:35Z</time>
      </trkpt>
      <trkpt lat="31.492474107071757" lon="-5.951475296169519">
        <ele>1663.7</ele>
        <time>2019-03-12T12:07:36Z</time>
      </trkpt>
      <trkpt lat="31.492361454293132" lon="-5.951481750234962">
        <ele>1663.7</ele>
        <time>2019-03-12T12:07:46Z</time>
      </trkpt>
      <trkpt lat="31.492044115439057" lon="-5.951481079682708">
        <ele>1662.74</ele>
        <time>2019-03-12T12:07:59Z</time>
      </trkpt>
      <trkpt lat="31.491932217031717" lon="-5.951504465192556">
        <ele>1662.74</ele>
        <time>2019-03-12T12:08:09Z</time>
      </trkpt>
      <trkpt lat="31.491813696920872" lon="-5.951527766883373">
        <ele>1663.22</ele>
        <time>2019-03-12T12:08:20Z</time>
      </trkpt>
      <trkpt lat="31.490843240171671" lon="-5.951607478782535">
        <ele>1663.22</ele>
        <time>2019-03-12T12:08:21Z</time>
      </trkpt>
      <trkpt lat="31.490116361528635" lon="-5.951779140159488">
        <ele>1663.7</ele>
        <time>2019-03-12T12:08:22Z</time>
      </trkpt>
      <trkpt lat="31.490056430920959" lon="-5.951819876208901">
        <ele>1664.1800000000001</ele>
        <time>2019-03-12T12:08:23Z</time>
      </trkpt>
      <trkpt lat="31.48999834433198" lon="-5.951868323609233">
        <ele>1664.6600000000001</ele>
        <time>2019-03-12T12:08:31Z</time>
      </trkpt>
      <trkpt lat="31.489941095933318" lon="-5.951924147084355">
        <ele>1666.5799999999999</ele>
        <time>2019-03-12T12:08:32Z</time>
      </trkpt>
      <trkpt lat="31.489884685724974" lon="-5.951987681910396">
        <ele>1666.5799999999999</ele>
        <time>2019-03-12T12:08:33Z</time>
      </trkpt>
      <trkpt lat="31.489831293001771" lon="-5.952058425173163">
        <ele>1665.1400000000001</ele>
        <time>2019-03-12T12:08:40Z</time>
      </trkpt>
      <trkpt lat="31.489499788731337" lon="-5.952689833939076">
        <ele>1663.7</ele>
        <time>2019-03-12T12:08:49Z</time>
      </trkpt>
      <trkpt lat="31.489011878147721" lon="-5.953565826639533">
        <ele>1663.22</ele>
        <time>2019-03-12T12:08:52Z</time>
      </trkpt>
      <trkpt lat="31.488380134105682" lon="-5.954169742763042">
        <ele>1662.74</ele>
        <time>2019-03-12T12:08:53Z</time>
      </trkpt>
      <trkpt lat="31.487598270177841" lon="-5.954888826236129">
        <ele>1662.74</ele>
        <time>2019-03-12T12:08:54Z</time>
      </trkpt>
      <trkpt lat="31.487539429217577" lon="-5.954963928088546">
        <ele>1661.3</ele>
        <time>2019-03-12T12:08:55Z</time>
      </trkpt>
      <trkpt lat="31.487477822229266" lon="-5.955031905323267">
        <ele>1661.3</ele>
        <time>2019-03-12T12:08:56Z</time>
      </trkpt>
      <trkpt lat="31.487412778660655" lon="-5.955092757940292">
        <ele>1661.3</ele>
        <time>2019-03-12T12:08:58Z</time>
      </trkpt>
      <trkpt lat="31.486816657707095" lon="-5.955583434551954">
        <ele>1661.3</ele>
        <time>2019-03-12T12:08:59Z</time>
      </trkpt>
      <trkpt lat="31.486729569733143" lon="-5.95561696216464">
        <ele>1661.78</ele>
        <time>2019-03-12T12:09:00Z</time>
      </trkpt>
      <trkpt lat="31.486636279150844" lon="-5.955634396523237">
        <ele>1662.26</ele>
        <time>2019-03-12T12:09:10Z</time>
      </trkpt>
      <trkpt lat="31.485959608107805" lon="-5.955838076770306">
        <ele>1662.26</ele>
        <time>2019-03-12T12:09:12Z</time>
      </trkpt>
      <trkpt lat="31.485103564336896" lon="-5.956356916576624">
        <ele>1662.26</ele>
        <time>2019-03-12T12:09:13Z</time>
      </trkpt>
      <trkpt lat="31.484788488596678" lon="-5.956581048667431">
        <ele>1662.26</ele>
        <time>2019-03-12T12:09:14Z</time>
      </trkpt>
      <trkpt lat="31.484690755605698" lon="-5.956676602363586">
        <ele>1662.26</ele>
        <time>2019-03-12T12:09:15Z</time>
      </trkpt>
      <trkpt lat="31.484600398689508" lon="-5.956780621781945">
        <ele>1661.78</ele>
        <time>2019-03-12T12:09:16Z</time>
      </trkpt>
      <trkpt lat="31.48451934568584" lon="-5.956887574866414">
        <ele>1661.78</ele>
        <time>2019-03-12T12:09:17Z</time>
      </trkpt>
      <trkpt lat="31.484443824738264" lon="-5.956996036693454">
        <ele>1661.78</ele>
        <time>2019-03-12T12:09:24Z</time>
      </trkpt>
      <trkpt lat="31.484282724559307" lon="-5.957209439948201">
        <ele>1659.8499999999999</ele>
        <time>2019-03-12T12:09:33Z</time>
      </trkpt>
      <trkpt lat="31.484185745939612" lon="-5.957302981987596">
        <ele>1659.3699999999999</ele>
        <time>2019-03-12T12:09:42Z</time>
      </trkpt>
      <trkpt lat="31.48407862521708" lon="-5.957384202629328">
        <ele>1659.8499999999999</ele>
        <time>2019-03-12T12:09:49Z</time>
      </trkpt>
      <trkpt lat="31.482794182375073" lon="-5.958211747929454">
        <ele>1660.3299999999999</ele>
        <time>2019-03-12T12:09:50Z</time>
      </trkpt>
      <trkpt lat="31.482532834634185" lon="-5.95839480869472">
        <ele>1660.3299999999999</ele>
        <time>2019-03-12T12:09:51Z</time>
      </trkpt>
      <trkpt lat="31.482413476333022" lon="-5.958507210016251">
        <ele>1660.8099999999999</ele>
        <time>2019-03-12T12:09:52Z</time>
      </trkpt>
      <trkpt lat="31.482301661744714" lon="-5.958634279668331">
        <ele>1661.3</ele>
        <time>2019-03-12T12:09:53Z</time>
      </trkpt>
      <trkpt lat="31.482198899611831" lon="-5.95877350308001">
        <ele>1664.6600000000001</ele>
        <time>2019-03-12T12:09:54Z</time>
      </trkpt>
      <trkpt lat="31.482105609029531" lon="-5.958922617137432">
        <ele>1668.99</ele>
        <time>2019-03-12T12:09:55Z</time>
      </trkpt>
      <trkpt lat="31.482020951807499" lon="-5.959072234109044">
        <ele>1663.22</ele>
        <time>2019-03-12T12:09:56Z</time>
      </trkpt>
      <trkpt lat="31.481238668784499" lon="-5.959968091920018">
        <ele>1657.45</ele>
        <time>2019-03-12T12:09:58Z</time>
      </trkpt>
      <trkpt lat="31.480030752718449" lon="-5.960905943065882">
        <ele>1656.97</ele>
        <time>2019-03-12T12:09:59Z</time>
      </trkpt>
      <trkpt lat="31.478624939918518" lon="-5.961365941911936">
        <ele>1656.49</ele>
        <time>2019-03-12T12:10:00Z</time>
      </trkpt>
      <trkpt lat="31.477712905034423" lon="-5.961675150319934">
        <ele>1656.01</ele>
        <time>2019-03-12T12:10:11Z</time>
      </trkpt>
      <trkpt lat="31.477609304711223" lon="-5.961753688752651">
        <ele>1656.01</ele>
        <time>2019-03-12T12:10:22Z</time>
      </trkpt>
      <trkpt lat="31.477513751015067" lon="-5.961851757019758">
        <ele>1655.53</ele>
        <time>2019-03-12T12:10:27Z</time>
      </trkpt>
      <trkpt lat="31.477428758516908" lon="-5.961968936026096">
        <ele>1655.53</ele>
        <time>2019-03-12T12:10:28Z</time>
      </trkpt>
      <trkpt lat="31.477360026910901" lon="-5.962107824161649">
        <ele>1655.53</ele>
        <time>2019-03-12T12:10:37Z</time>
      </trkpt>
      <trkpt lat="31.477303029969335" lon="-5.962266912683845">
        <ele>1655.53</ele>
        <time>2019-03-12T12:10:39Z</time>
      </trkpt>
      <trkpt lat="31.477254498749971" lon="-5.962437903508544">
        <ele>1655.05</ele>
        <time>2019-03-12T12:10:40Z</time>
      </trkpt>
      <trkpt lat="31.477210996672511" lon="-5.962612750008702">
        <ele>1654.5699999999999</ele>
        <time>2019-03-12T12:10:41Z</time>
      </trkpt>
      <trkpt lat="31.477105468511581" lon="-5.962946936488152">
        <ele>1654.0899999999999</ele>
        <time>2019-03-12T12:10:42Z</time>
      </trkpt>
      <trkpt lat="31.477031959220767" lon="-5.963101414963603">
        <ele>1653.5999999999999</ele>
        <time>2019-03-12T12:10:43Z</time>
      </trkpt>
      <trkpt lat="31.476944787427783" lon="-5.963249858468771">
        <ele>1654.0899999999999</ele>
        <time>2019-03-12T12:10:48Z</time>
      </trkpt>
      <trkpt lat="31.475680964067578" lon="-5.964701855555177">
        <ele>1654.0899999999999</ele>
        <time>2019-03-12T12:10:49Z</time>
      </trkpt>
      <trkpt lat="31.473949514329433" lon="-5.965657141059637">
        <ele>1654.5699999999999</ele>
        <time>2019-03-12T12:10:50Z</time>
      </trkpt>
      <trkpt lat="31.473130099475384" lon="-5.966047318652272">
        <ele>1655.05</ele>
        <time>2019-03-12T12:10:51Z</time>
      </trkpt>
      <trkpt lat="31.472969921305776" lon="-5.966090066358447">
        <ele>1655.05</ele>
        <time>2019-03-12T12:10:52Z</time>
      </trkpt>
      <trkpt lat="31.471529491245747" lon="-5.966278072446585">
        <ele>1655.05</ele>
        <time>2019-03-12T12:10:53Z</time>
      </trkpt>
      <trkpt lat="31.471242159605026" lon="-5.966383516788483">
        <ele>1655.05</ele>
        <time>2019-03-12T12:10:54Z</time>
      </trkpt>
      <trkpt lat="31.47110260091722" lon="-5.966460211202502">
        <ele>1654.5699999999999</ele>
        <time>2019-03-12T12:10:57Z</time>
      </trkpt>
      <trkpt lat="31.470967903733253" lon="-5.966556183993816">
        <ele>1653.5999999999999</ele>
        <time>2019-03-12T12:10:58Z</time>
      </trkpt>
      <trkpt lat="31.470842594280839" lon="-5.966673530638218">
        <ele>1653.5999999999999</ele>
        <time>2019-03-12T12:10:59Z</time>
      </trkpt>
      <trkpt lat="31.470720805227757" lon="-5.966804791241884">
        <ele>1653.5999999999999</ele>
        <time>2019-03-12T12:11:00Z</time>
      </trkpt>
      <trkpt lat="31.470104735344648" lon="-5.967373000457883">
        <ele>1653.5999999999999</ele>
        <time>2019-03-12T12:11:01Z</time>
      </trkpt>
      <trkpt lat="31.469968613237143" lon="-5.967428823933005">
        <ele>1653.5999999999999</ele>
        <time>2019-03-12T12:11:02Z</time>
      </trkpt>
      <trkpt lat="31.46982679143548" lon="-5.967454137280583">
        <ele>1653.1199999999999</ele>
        <time>2019-03-12T12:11:03Z</time>
      </trkpt>
      <trkpt lat="31.469677928835154" lon="-5.967451371252537">
        <ele>1653.1199999999999</ele>
        <time>2019-03-12T12:11:16Z</time>
      </trkpt>
      <trkpt lat="31.469526551663876" lon="-5.96742614172399">
        <ele>1653.1199999999999</ele>
        <time>2019-03-12T12:11:31Z</time>
      </trkpt>
      <trkpt lat="31.469376012682915" lon="-5.967384232208133">
        <ele>1653.1199999999999</ele>
        <time>2019-03-12T12:11:43Z</time>
      </trkpt>
      <trkpt lat="31.46922673098743" lon="-5.967332851141691">
        <ele>1653.5999999999999</ele>
        <time>2019-03-12T12:11:53Z</time>
      </trkpt>
      <trkpt lat="31.468787351623178" lon="-5.967202177271247">
        <ele>1653.5999999999999</ele>
        <time>2019-03-12T12:12:01Z</time>
      </trkpt>
      <trkpt lat="31.468643434345722" lon="-5.967194046825171">
        <ele>1654.0899999999999</ele>
        <time>2019-03-12T12:12:02Z</time>
      </trkpt>
      <trkpt lat="31.468498595058918" lon="-5.967213828116655">
        <ele>1654.0899999999999</ele>
        <time>2019-03-12T12:12:03Z</time>
      </trkpt>
      <trkpt lat="31.468358617275953" lon="-5.967260180041194">
        <ele>1654.0899999999999</ele>
        <time>2019-03-12T12:12:04Z</time>
      </trkpt>
      <trkpt lat="31.468226769939065" lon="-5.967332599684596">
        <ele>1649.28</ele>
        <time>2019-03-12T12:12:05Z</time>
      </trkpt>
      <trkpt lat="31.468100622296333" lon="-5.96743150614202">
        <ele>1644.47</ele>
        <time>2019-03-12T12:12:11Z</time>
      </trkpt>
      <trkpt lat="31.467979503795505" lon="-5.967548936605454">
        <ele>1641.5899999999999</ele>
        <time>2019-03-12T12:12:12Z</time>
      </trkpt>
      <trkpt lat="31.466357437893748" lon="-5.969310309737921">
        <ele>1638.7</ele>
        <time>2019-03-12T12:12:13Z</time>
      </trkpt>
      <trkpt lat="31.464411998167634" lon="-5.971382232382894">
        <ele>1642.0699999999999</ele>
        <time>2019-03-12T12:12:14Z</time>
      </trkpt>
      <trkpt lat="31.462764535099268" lon="-5.972814531996846">
        <ele>1642.55</ele>
        <time>2019-03-12T12:12:15Z</time>
      </trkpt>
      <trkpt lat="31.461281357333064" lon="-5.973966792225838">
        <ele>1643.03</ele>
        <time>2019-03-12T12:12:16Z</time>
      </trkpt>
      <trkpt lat="31.460178969427943" lon="-5.97481076605618">
        <ele>1643.51</ele>
        <time>2019-03-12T12:12:17Z</time>
      </trkpt>
      <trkpt lat="31.460029184818268" lon="-5.974864661693573">
        <ele>1643.99</ele>
        <time>2019-03-12T12:12:22Z</time>
      </trkpt>
      <trkpt lat="31.459872107952833" lon="-5.97489726729691">
        <ele>1646.8800000000001</ele>
        <time>2019-03-12T12:12:23Z</time>
      </trkpt>
      <trkpt lat="31.459708660840988" lon="-5.974913444370031">
        <ele>1647.3599999999999</ele>
        <time>2019-03-12T12:12:24Z</time>
      </trkpt>
      <trkpt lat="31.459546471014619" lon="-5.974919395521283">
        <ele>1647.3599999999999</ele>
        <time>2019-03-12T12:12:25Z</time>
      </trkpt>
      <trkpt lat="31.458711214363575" lon="-5.974968764930964">
        <ele>1647.8399999999999</ele>
        <time>2019-03-12T12:12:26Z</time>
      </trkpt>
      <trkpt lat="31.458623958751559" lon="-5.975002879276872">
        <ele>1647.8399999999999</ele>
        <time>2019-03-12T12:12:27Z</time>
      </trkpt>
      <trkpt lat="31.458554724231362" lon="-5.975056942552328">
        <ele>1648.3199999999999</ele>
        <time>2019-03-12T12:12:28Z</time>
      </trkpt>
      <trkpt lat="31.45849940367043" lon="-5.975131876766682">
        <ele>1648.8</ele>
        <time>2019-03-12T12:12:30Z</time>
      </trkpt>
      <trkpt lat="31.458457577973604" lon="-5.975226424634457">
        <ele>1648.8</ele>
        <time>2019-03-12T12:12:31Z</time>
      </trkpt>
      <trkpt lat="31.458426397293806" lon="-5.975336646661162">
        <ele>1649.28</ele>
        <time>2019-03-12T12:12:32Z</time>
      </trkpt>
      <trkpt lat="31.458397563546896" lon="-5.975454244762659">
        <ele>1649.76</ele>
        <time>2019-03-12T12:12:33Z</time>
      </trkpt>
      <trkpt lat="31.458267560228705" lon="-5.976038547232747">
        <ele>1650.24</ele>
        <time>2019-03-12T12:12:34Z</time>
      </trkpt>
      <trkpt lat="31.458223136141896" lon="-5.976130664348602">
        <ele>1651.2</ele>
        <time>2019-03-12T12:12:35Z</time>
      </trkpt>
      <trkpt lat="31.458160523325205" lon="-5.976210292428732">
        <ele>1652.6400000000001</ele>
        <time>2019-03-12T12:12:38Z</time>
      </trkpt>
      <trkpt lat="31.458080392330885" lon="-5.976268043741584">
        <ele>1653.5999999999999</ele>
        <time>2019-03-12T12:12:39Z</time>
      </trkpt>
      <trkpt lat="31.457985509186983" lon="-5.976292518898845">
        <ele>1655.53</ele>
        <time>2019-03-12T12:12:40Z</time>
      </trkpt>
      <trkpt lat="31.457886518910527" lon="-5.976292518898845">
        <ele>1656.01</ele>
        <time>2019-03-12T12:12:41Z</time>
      </trkpt>
      <trkpt lat="31.457793898880482" lon="-5.976286148652434">
        <ele>1656.97</ele>
        <time>2019-03-12T12:12:42Z</time>
      </trkpt>
      <trkpt lat="31.457638330757618" lon="-5.976255470886827">
        <ele>1657.45</ele>
        <time>2019-03-12T12:12:43Z</time>
      </trkpt>
      <trkpt lat="31.45757831633091" lon="-5.976211298257113">
        <ele>1657.9300000000001</ele>
        <time>2019-03-12T12:12:44Z</time>
      </trkpt>
      <trkpt lat="31.457528192549944" lon="-5.976144410669804">
        <ele>1658.4100000000001</ele>
        <time>2019-03-12T12:12:45Z</time>
      </trkpt>
      <trkpt lat="31.457486283034086" lon="-5.976067380979657">
        <ele>1659.8499999999999</ele>
        <time>2019-03-12T12:12:50Z</time>
      </trkpt>
      <trkpt lat="31.457458958029747" lon="-5.975977275520563">
        <ele>1660.3299999999999</ele>
        <time>2019-03-12T12:12:51Z</time>
      </trkpt>
      <trkpt lat="31.457440182566643" lon="-5.975880045443773">
        <ele>1660.8099999999999</ele>
        <time>2019-03-12T12:12:52Z</time>
      </trkpt>
      <trkpt lat="31.457356028258801" lon="-5.975577626377344">
        <ele>1660.8099999999999</ele>
        <time>2019-03-12T12:12:53Z</time>
      </trkpt>
      <trkpt lat="31.457312861457467" lon="-5.975479390472174">
        <ele>1660.8099999999999</ele>
        <time>2019-03-12T12:12:54Z</time>
      </trkpt>
      <trkpt lat="31.457258127629757" lon="-5.975390374660492">
        <ele>1661.3</ele>
        <time>2019-03-12T12:12:55Z</time>
      </trkpt>
      <trkpt lat="31.457191072404385" lon="-5.975320721045137">
        <ele>1661.3</ele>
        <time>2019-03-12T12:13:06Z</time>
      </trkpt>
      <trkpt lat="31.457112785428762" lon="-5.975281912833452">
        <ele>1660.8099999999999</ele>
        <time>2019-03-12T12:13:15Z</time>
      </trkpt>
      <trkpt lat="31.457025278359652" lon="-5.975272608920932">
        <ele>1659.3699999999999</ele>
        <time>2019-03-12T12:13:16Z</time>
      </trkpt>
      <trkpt lat="31.456930143758655" lon="-5.975280571728945">
        <ele>1658.4100000000001</ele>
        <time>2019-03-12T12:13:17Z</time>
      </trkpt>
      <trkpt lat="31.456828638911247" lon="-5.975293144583702">
        <ele>1657.9300000000001</ele>
        <time>2019-03-12T12:13:18Z</time>
      </trkpt>
      <trkpt lat="31.456275433301926" lon="-5.975306639447808">
        <ele>1657.45</ele>
        <time>2019-03-12T12:13:19Z</time>
      </trkpt>
      <trkpt lat="31.456171916797757" lon="-5.975272608920932">
        <ele>1656.49</ele>
        <time>2019-03-12T12:13:20Z</time>
      </trkpt>
      <trkpt lat="31.456072758883238" lon="-5.975214773789048">
        <ele>1656.01</ele>
        <time>2019-03-12T12:13:24Z</time>
      </trkpt>
      <trkpt lat="31.455975696444511" lon="-5.975135061889887">
        <ele>1650.72</ele>
        <time>2019-03-12T12:13:25Z</time>
      </trkpt>
      <trkpt lat="31.455878131091595" lon="-5.97503992728889">
        <ele>1646.8800000000001</ele>
        <time>2019-03-12T12:13:26Z</time>
      </trkpt>
      <trkpt lat="31.455782242119312" lon="-5.974932974204421">
        <ele>1645.9100000000001</ele>
        <time>2019-03-12T12:13:38Z</time>
      </trkpt>
      <trkpt lat="31.45463727414608" lon="-5.973498830571771">
        <ele>1645.4300000000001</ele>
        <time>2019-03-12T12:13:39Z</time>
      </trkpt>
      <trkpt lat="31.453691208735108" lon="-5.972328381612897">
        <ele>1644.95</ele>
        <time>2019-03-12T12:13:40Z</time>
      </trkpt>
      <trkpt lat="31.453624237328768" lon="-5.972201563417912">
        <ele>1643.99</ele>
        <time>2019-03-12T12:13:41Z</time>
      </trkpt>
      <trkpt lat="31.453575035557151" lon="-5.972058568149805">
        <ele>1643.51</ele>
        <time>2019-03-12T12:13:42Z</time>
      </trkpt>
      <trkpt lat="31.453543603420258" lon="-5.971900904551148">
        <ele>1641.1099999999999</ele>
        <time>2019-03-12T12:13:43Z</time>
      </trkpt>
      <trkpt lat="31.453526252880692" lon="-5.971737457439303">
        <ele>1640.6300000000001</ele>
        <time>2019-03-12T12:13:44Z</time>
      </trkpt>
      <trkpt lat="31.453518206253648" lon="-5.971575602889061">
        <ele>1640.1500000000001</ele>
        <time>2019-03-12T12:13:51Z</time>
      </trkpt>
      <trkpt lat="31.453474452719092" lon="-5.97098040394485">
        <ele>1637.74</ele>
        <time>2019-03-12T12:13:52Z</time>
      </trkpt>
      <trkpt lat="31.453430028632283" lon="-5.970849981531501">
        <ele>1637.26</ele>
        <time>2019-03-12T12:13:53Z</time>
      </trkpt>
      <trkpt lat="31.453370098024607" lon="-5.970726348459721">
        <ele>1637.26</ele>
        <time>2019-03-12T12:13:54Z</time>
      </trkpt>
      <trkpt lat="31.45252444781363" lon="-5.969288013875485">
        <ele>1637.26</ele>
        <time>2019-03-12T12:13:55Z</time>
      </trkpt>
      <trkpt lat="31.45243258215487" lon="-5.969198578968644">
        <ele>1637.74</ele>
        <time>2019-03-12T12:13:56Z</time>
      </trkpt>
      <trkpt lat="31.452330742031336" lon="-5.969137977808714">
        <ele>1637.74</ele>
        <time>2019-03-12T12:13:59Z</time>
      </trkpt>
      <trkpt lat="31.452223118394613" lon="-5.969112161546946">
        <ele>1637.74</ele>
        <time>2019-03-12T12:14:00Z</time>
      </trkpt>
      <trkpt lat="31.452112141996622" lon="-5.969117945060134">
        <ele>1636.78</ele>
        <time>2019-03-12T12:14:01Z</time>
      </trkpt>
      <trkpt lat="31.451997729018331" lon="-5.969143006950617">
        <ele>1636.78</ele>
        <time>2019-03-12T12:14:02Z</time>
      </trkpt>
      <trkpt lat="31.451880130916834" lon="-5.969172678887844">
        <ele>1637.26</ele>
        <time>2019-03-12T12:14:03Z</time>
      </trkpt>
      <trkpt lat="31.451081587001681" lon="-5.969293462112546">
        <ele>1637.26</ele>
        <time>2019-03-12T12:14:04Z</time>
      </trkpt>
      <trkpt lat="31.45099894143641" lon="-5.969329504296184">
        <ele>1637.26</ele>
        <time>2019-03-12T12:14:05Z</time>
      </trkpt>
      <trkpt lat="31.450930126011372" lon="-5.969380466267467">
        <ele>1637.26</ele>
        <time>2019-03-12T12:14:07Z</time>
      </trkpt>
      <trkpt lat="31.450872123241425" lon="-5.969445845112205">
        <ele>1637.74</ele>
        <time>2019-03-12T12:14:08Z</time>
      </trkpt>
      <trkpt lat="31.450822502374649" lon="-5.969524132087827">
        <ele>1637.74</ele>
        <time>2019-03-12T12:14:09Z</time>
      </trkpt>
      <trkpt lat="31.450780006125569" lon="-5.969609627500176">
        <ele>1638.22</ele>
        <time>2019-03-12T12:14:16Z</time>
      </trkpt>
      <trkpt lat="31.450636927038431" lon="-5.969880279153585">
        <ele>1638.7</ele>
        <time>2019-03-12T12:14:17Z</time>
      </trkpt>
      <trkpt lat="31.450567776337266" lon="-5.969962505623698">
        <ele>1639.1900000000001</ele>
        <time>2019-03-12T12:14:18Z</time>
      </trkpt>
      <trkpt lat="31.450484460219741" lon="-5.970030818134546">
        <ele>1640.1500000000001</ele>
        <time>2019-03-12T12:14:19Z</time>
      </trkpt>
      <trkpt lat="31.4503915887326" lon="-5.970077337697148">
        <ele>1641.1099999999999</ele>
        <time>2019-03-12T12:14:20Z</time>
      </trkpt>
      <trkpt lat="31.450295867398381" lon="-5.970095610246062">
        <ele>1642.55</ele>
        <time>2019-03-12T12:14:21Z</time>
      </trkpt>
      <trkpt lat="31.450205761939287" lon="-5.970096280798316">
        <ele>1643.51</ele>
        <time>2019-03-12T12:14:22Z</time>
      </trkpt>
      <trkpt lat="31.450123284012079" lon="-5.970092341303825">
        <ele>1643.99</ele>
        <time>2019-03-12T12:14:23Z</time>
      </trkpt>
      <trkpt lat="31.449970230460167" lon="-5.970094352960587">
        <ele>1648.8</ele>
        <time>2019-03-12T12:14:31Z</time>
      </trkpt>
      <trkpt lat="31.449897307902575" lon="-5.970110949128866">
        <ele>1649.28</ele>
        <time>2019-03-12T12:14:32Z</time>
      </trkpt>
      <trkpt lat="31.449827067553997" lon="-5.970135675743222">
        <ele>1649.76</ele>
        <time>2019-03-12T12:14:33Z</time>
      </trkpt>
      <trkpt lat="31.449399506673217" lon="-5.97040724940598">
        <ele>1650.24</ele>
        <time>2019-03-12T12:14:34Z</time>
      </trkpt>
      <trkpt lat="31.449355166405439" lon="-5.970467263832688">
        <ele>1650.24</ele>
        <time>2019-03-12T12:14:35Z</time>
      </trkpt>
      <trkpt lat="31.449316944926977" lon="-5.970537085086107">
        <ele>1650.72</ele>
        <time>2019-03-12T12:14:36Z</time>
      </trkpt>
      <trkpt lat="31.449283249676228" lon="-5.97061587497592">
        <ele>1651.2</ele>
        <time>2019-03-12T12:14:37Z</time>
      </trkpt>
      <trkpt lat="31.449257014319301" lon="-5.970705226063728">
        <ele>1651.2</ele>
        <time>2019-03-12T12:14:38Z</time>
      </trkpt>
      <trkpt lat="31.44923890940845" lon="-5.970805892720819">
        <ele>1651.2</ele>
        <time>2019-03-12T12:14:45Z</time>
      </trkpt>
      <trkpt lat="31.449230443686247" lon="-5.970915192738175">
        <ele>1651.2</ele>
        <time>2019-03-12T12:14:46Z</time>
      </trkpt>
      <trkpt lat="31.449227007105947" lon="-5.971033712849021">
        <ele>1651.2</ele>
        <time>2019-03-12T12:14:47Z</time>
      </trkpt>
      <trkpt lat="31.449204627424479" lon="-5.972155965864658">
        <ele>1651.6800000000001</ele>
        <time>2019-03-12T12:14:48Z</time>
      </trkpt>
      <trkpt lat="31.449171854183078" lon="-5.97230264917016">
        <ele>1651.6800000000001</ele>
        <time>2019-03-12T12:14:49Z</time>
      </trkpt>
      <trkpt lat="31.449119970202446" lon="-5.972441537305713">
        <ele>1652.1600000000001</ele>
        <time>2019-03-12T12:14:50Z</time>
      </trkpt>
      <trkpt lat="31.449044365435839" lon="-5.97256500273943">
        <ele>1652.6400000000001</ele>
        <time>2019-03-12T12:14:51Z</time>
      </trkpt>
      <trkpt lat="31.448946297168732" lon="-5.972665166482329">
        <ele>1653.5999999999999</ele>
        <time>2019-03-12T12:14:52Z</time>
      </trkpt>
      <trkpt lat="31.448830459266901" lon="-5.972743285819888">
        <ele>1657.45</ele>
        <time>2019-03-12T12:14:53Z</time>
      </trkpt>
      <trkpt lat="31.448703724890947" lon="-5.972803216427565">
        <ele>1657.9300000000001</ele>
        <time>2019-03-12T12:15:01Z</time>
      </trkpt>
      <trkpt lat="31.448575397953391" lon="-5.972851328551769">
        <ele>1658.4100000000001</ele>
        <time>2019-03-12T12:15:02Z</time>
      </trkpt>
      <trkpt lat="31.447868216782808" lon="-5.973212337121368">
        <ele>1658.8900000000001</ele>
        <time>2019-03-12T12:15:03Z</time>
      </trkpt>
      <trkpt lat="31.447803508490324" lon="-5.973287774249911">
        <ele>1658.8900000000001</ele>
        <time>2019-03-12T12:15:04Z</time>
      </trkpt>
      <trkpt lat="31.447753719985485" lon="-5.973382825031877">
        <ele>1658.8900000000001</ele>
        <time>2019-03-12T12:15:05Z</time>
      </trkpt>
      <trkpt lat="31.447721030563116" lon="-5.97349782474339">
        <ele>1659.3699999999999</ele>
        <time>2019-03-12T12:15:06Z</time>
      </trkpt>
      <trkpt lat="31.447704853489995" lon="-5.973626989871264">
        <ele>1658.8900000000001</ele>
        <time>2019-03-12T12:15:08Z</time>
      </trkpt>
      <trkpt lat="31.447704015299678" lon="-5.973767135292292">
        <ele>1658.8900000000001</ele>
        <time>2019-03-12T12:15:09Z</time>
      </trkpt>
      <trkpt lat="31.447724467143416" lon="-5.973913231864572">
        <ele>1657.9300000000001</ele>
        <time>2019-03-12T12:15:10Z</time>
      </trkpt>
      <trkpt lat="31.447762604802847" lon="-5.974059160798788">
        <ele>1657.9300000000001</ele>
        <time>2019-03-12T12:15:11Z</time>
      </trkpt>
      <trkpt lat="31.447807867079973" lon="-5.974206598475575">
        <ele>1658.4100000000001</ele>
        <time>2019-03-12T12:15:12Z</time>
      </trkpt>
      <trkpt lat="31.448177006095648" lon="-5.975358104333282">
        <ele>1658.4100000000001</ele>
        <time>2019-03-12T12:15:13Z</time>
      </trkpt>
      <trkpt lat="31.448247414082289" lon="-5.975475870072842">
        <ele>1658.4100000000001</ele>
        <time>2019-03-12T12:15:14Z</time>
      </trkpt>
      <trkpt lat="31.448336765170097" lon="-5.975582823157311">
        <ele>1658.8900000000001</ele>
        <time>2019-03-12T12:15:15Z</time>
      </trkpt>
      <trkpt lat="31.448433492332697" lon="-5.975680723786354">
        <ele>1658.8900000000001</ele>
        <time>2019-03-12T12:15:24Z</time>
      </trkpt>
      <trkpt lat="31.44853382371366" lon="-5.975767308846116">
        <ele>1658.8900000000001</ele>
        <time>2019-03-12T12:15:25Z</time>
      </trkpt>
      <trkpt lat="31.448633316904306" lon="-5.975847188383341">
        <ele>1658.4100000000001</ele>
        <time>2019-03-12T12:15:26Z</time>
      </trkpt>
      <trkpt lat="31.448808079585433" lon="-5.97601524554193">
        <ele>1657.9300000000001</ele>
        <time>2019-03-12T12:15:27Z</time>
      </trkpt>
      <trkpt lat="31.44887781701982" lon="-5.976107278838754">
        <ele>1657.45</ele>
        <time>2019-03-12T12:15:28Z</time>
      </trkpt>
      <trkpt lat="31.448935065418482" lon="-5.976203754544258">
        <ele>1657.45</ele>
        <time>2019-03-12T12:15:29Z</time>
      </trkpt>
      <trkpt lat="31.448974879458547" lon="-5.976309198886156">
        <ele>1656.97</ele>
        <time>2019-03-12T12:15:30Z</time>
      </trkpt>
      <trkpt lat="31.448994325473905" lon="-5.976420678198338">
        <ele>1656.97</ele>
        <time>2019-03-12T12:15:31Z</time>
      </trkpt>
      <trkpt lat="31.448987703770399" lon="-5.976535342633724">
        <ele>1655.05</ele>
        <time>2019-03-12T12:15:32Z</time>
      </trkpt>
      <trkpt lat="31.448957528918982" lon="-5.976647576317191">
        <ele>1655.05</ele>
        <time>2019-03-12T12:15:33Z</time>
      </trkpt>
      <trkpt lat="31.448914781212807" lon="-5.976758636534214">
        <ele>1655.05</ele>
        <time>2019-03-12T12:15:34Z</time>
      </trkpt>
      <trkpt lat="31.448461906984448" lon="-5.977845853194594">
        <ele>1655.05</ele>
        <time>2019-03-12T12:15:35Z</time>
      </trkpt>
      <trkpt lat="31.448447154834867" lon="-5.977963451296091">
        <ele>1654.5699999999999</ele>
        <time>2019-03-12T12:15:36Z</time>
      </trkpt>
      <trkpt lat="31.448465343564749" lon="-5.978063363581896">
        <ele>1655.05</ele>
        <time>2019-03-12T12:15:37Z</time>
      </trkpt>
      <trkpt lat="31.448517059907317" lon="-5.978133101016283">
        <ele>1654.5699999999999</ele>
        <time>2019-03-12T12:15:38Z</time>
      </trkpt>
      <trkpt lat="31.448593167588115" lon="-5.978163359686732">
        <ele>1654.5699999999999</ele>
        <time>2019-03-12T12:15:39Z</time>
      </trkpt>
      <trkpt lat="31.448678998276591" lon="-5.978160761296749">
        <ele>1654.5699999999999</ele>
        <time>2019-03-12T12:15:40Z</time>
      </trkpt>
      <trkpt lat="31.448766253888607" lon="-5.978147266432643">
        <ele>1654.0899999999999</ele>
        <time>2019-03-12T12:15:41Z</time>
      </trkpt>
      <trkpt lat="31.448857113718987" lon="-5.978140057995915">
        <ele>1654.0899999999999</ele>
        <time>2019-03-12T12:15:42Z</time>
      </trkpt>
      <trkpt lat="31.448947135359049" lon="-5.978148188441992">
        <ele>1654.5699999999999</ele>
        <time>2019-03-12T12:15:43Z</time>
      </trkpt>
      <trkpt lat="31.449033049866557" lon="-5.978174675256014">
        <ele>1654.5699999999999</ele>
        <time>2019-03-12T12:15:53Z</time>
      </trkpt>
      <trkpt lat="31.449113767594099" lon="-5.978215243667364">
        <ele>1655.05</ele>
        <time>2019-03-12T12:15:55Z</time>
      </trkpt>
      <trkpt lat="31.449187528342009" lon="-5.978262852877379">
        <ele>1655.05</ele>
        <time>2019-03-12T12:15:56Z</time>
      </trkpt>
      <trkpt lat="31.449246788397431" lon="-5.978320436552167">
        <ele>1655.53</ele>
        <time>2019-03-12T12:15:57Z</time>
      </trkpt>
      <trkpt lat="31.449290458112955" lon="-5.978387743234634">
        <ele>1655.53</ele>
        <time>2019-03-12T12:15:58Z</time>
      </trkpt>
      <trkpt lat="31.449317447841167" lon="-5.978461001068354">
        <ele>1655.53</ele>
        <time>2019-03-12T12:15:59Z</time>
      </trkpt>
      <trkpt lat="31.449321554973722" lon="-5.978539120405912">
        <ele>1656.01</ele>
        <time>2019-03-12T12:16:00Z</time>
      </trkpt>
      <trkpt lat="31.449303282424808" lon="-5.978613635525107">
        <ele>1656.01</ele>
        <time>2019-03-12T12:16:01Z</time>
      </trkpt>
      <trkpt lat="31.449261959642172" lon="-5.978680606931448">
        <ele>1656.01</ele>
        <time>2019-03-12T12:16:03Z</time>
      </trkpt>
      <trkpt lat="31.449206303805113" lon="-5.978741962462664">
        <ele>1655.53</ele>
        <time>2019-03-12T12:16:04Z</time>
      </trkpt>
      <trkpt lat="31.449143355712295" lon="-5.978806000202894">
        <ele>1655.05</ele>
        <time>2019-03-12T12:16:05Z</time>
      </trkpt>
      <trkpt lat="31.448444807901978" lon="-5.979588283225894">
        <ele>1654.5699999999999</ele>
        <time>2019-03-12T12:16:06Z</time>
      </trkpt>
      <trkpt lat="31.448311032727361" lon="-5.979725159704685">
        <ele>1654.0899999999999</ele>
        <time>2019-03-12T12:16:07Z</time>
      </trkpt>
      <trkpt lat="31.448256047442555" lon="-5.979799339547753">
        <ele>1654.0899999999999</ele>
        <time>2019-03-12T12:16:08Z</time>
      </trkpt>
      <trkpt lat="31.448210114613175" lon="-5.979880224913359">
        <ele>1654.0899999999999</ele>
        <time>2019-03-12T12:16:13Z</time>
      </trkpt>
      <trkpt lat="31.44817465916276" lon="-5.979969324544072">
        <ele>1654.0899999999999</ele>
        <time>2019-03-12T12:16:14Z</time>
      </trkpt>
      <trkpt lat="31.448145490139723" lon="-5.980062615126371">
        <ele>1654.5699999999999</ele>
        <time>2019-03-12T12:16:15Z</time>
      </trkpt>
      <trkpt lat="31.448124116286635" lon="-5.980159090831876">
        <ele>1654.5699999999999</ele>
        <time>2019-03-12T12:16:16Z</time>
      </trkpt>
      <trkpt lat="31.44810575991869" lon="-5.980257913470268">
        <ele>1654.5699999999999</ele>
        <time>2019-03-12T12:16:17Z</time>
      </trkpt>
      <trkpt lat="31.448044572025537" lon="-5.980450864881277">
        <ele>1654.5699999999999</ele>
        <time>2019-03-12T12:16:18Z</time>
      </trkpt>
      <trkpt lat="31.447985395789146" lon="-5.980527056381106">
        <ele>1655.05</ele>
        <time>2019-03-12T12:16:19Z</time>
      </trkpt>
      <trkpt lat="31.447909791022539" lon="-5.980577934533358">
        <ele>1655.53</ele>
        <time>2019-03-12T12:16:20Z</time>
      </trkpt>
      <trkpt lat="31.447823457419872" lon="-5.980589333921671">
        <ele>1657.45</ele>
        <time>2019-03-12T12:16:22Z</time>
      </trkpt>
      <trkpt lat="31.447737039998174" lon="-5.980570307001472">
        <ele>1657.45</ele>
        <time>2019-03-12T12:16:23Z</time>
      </trkpt>
      <trkpt lat="31.447650538757443" lon="-5.980540467426181">
        <ele>1657.9300000000001</ele>
        <time>2019-03-12T12:16:24Z</time>
      </trkpt>
      <trkpt lat="31.447212249040604" lon="-5.980436867102981">
        <ele>1657.9300000000001</ele>
        <time>2019-03-12T12:16:25Z</time>
      </trkpt>
      <trkpt lat="31.447128681465983" lon="-5.980440638959408">
        <ele>1658.4100000000001</ele>
        <time>2019-03-12T12:16:26Z</time>
      </trkpt>
      <trkpt lat="31.447043688967824" lon="-5.980465952306986">
        <ele>1658.4100000000001</ele>
        <time>2019-03-12T12:16:27Z</time>
      </trkpt>
      <trkpt lat="31.446963977068663" lon="-5.980517584830523">
        <ele>1658.4100000000001</ele>
        <time>2019-03-12T12:16:28Z</time>
      </trkpt>
      <trkpt lat="31.44689398817718" lon="-5.98059318959713">
        <ele>1658.4100000000001</ele>
        <time>2019-03-12T12:16:29Z</time>
      </trkpt>
      <trkpt lat="31.446834225207567" lon="-5.980685222893953">
        <ele>1657.45</ele>
        <time>2019-03-12T12:16:30Z</time>
      </trkpt>
      <trkpt lat="31.446780413389206" lon="-5.9807915892452">
        <ele>1656.97</ele>
        <time>2019-03-12T12:16:31Z</time>
      </trkpt>
      <trkpt lat="31.446726601570845" lon="-5.980904242023826">
        <ele>1656.49</ele>
        <time>2019-03-12T12:16:32Z</time>
      </trkpt>
      <trkpt lat="31.446597604081035" lon="-5.981126697733998">
        <ele>1655.53</ele>
        <time>2019-03-12T12:16:33Z</time>
      </trkpt>
      <trkpt lat="31.446520071476698" lon="-5.981228537857533">
        <ele>1655.05</ele>
        <time>2019-03-12T12:16:34Z</time>
      </trkpt>
      <trkpt lat="31.446434995159507" lon="-5.981321828439832">
        <ele>1654.5699999999999</ele>
        <time>2019-03-12T12:16:38Z</time>
      </trkpt>
      <trkpt lat="31.446340614929795" lon="-5.981403551995754">
        <ele>1653.5999999999999</ele>
        <time>2019-03-12T12:16:39Z</time>
      </trkpt>
      <trkpt lat="31.446246234700084" lon="-5.981473876163364">
        <ele>1652.6400000000001</ele>
        <time>2019-03-12T12:16:40Z</time>
      </trkpt>
      <trkpt lat="31.446164343506098" lon="-5.981545289978385">
        <ele>1651.6800000000001</ele>
        <time>2019-03-12T12:16:41Z</time>
      </trkpt>
      <trkpt lat="31.446101814508438" lon="-5.981625756248832">
        <ele>1650.72</ele>
        <time>2019-03-12T12:16:42Z</time>
      </trkpt>
      <trkpt lat="31.446058228611946" lon="-5.981717202812433">
        <ele>1650.24</ele>
        <time>2019-03-12T12:16:43Z</time>
      </trkpt>
      <trkpt lat="31.44603542983532" lon="-5.981818623840809">
        <ele>1649.28</ele>
        <time>2019-03-12T12:16:44Z</time>
      </trkpt>
      <trkpt lat="31.446028808131814" lon="-5.98192716948688">
        <ele>1648.8</ele>
        <time>2019-03-12T12:16:45Z</time>
      </trkpt>
      <trkpt lat="31.446041380986571" lon="-5.982041414827108">
        <ele>1644.95</ele>
        <time>2019-03-12T12:16:48Z</time>
      </trkpt>
      <trkpt lat="31.446071974933147" lon="-5.98216412588954">
        <ele>1643.99</ele>
        <time>2019-03-12T12:16:49Z</time>
      </trkpt>
      <trkpt lat="31.446111453697085" lon="-5.982291111722589">
        <ele>1643.03</ele>
        <time>2019-03-12T12:16:50Z</time>
      </trkpt>
      <trkpt lat="31.446245983242989" lon="-5.982822189107537">
        <ele>1642.0699999999999</ele>
        <time>2019-03-12T12:16:56Z</time>
      </trkpt>
      <trkpt lat="31.446252102032304" lon="-5.982952108606696">
        <ele>1641.1099999999999</ele>
        <time>2019-03-12T12:16:57Z</time>
      </trkpt>
      <trkpt lat="31.446231566369534" lon="-5.983079764991999">
        <ele>1640.1500000000001</ele>
        <time>2019-03-12T12:16:58Z</time>
      </trkpt>
      <trkpt lat="31.446181861683726" lon="-5.983196692541242">
        <ele>1639.6700000000001</ele>
        <time>2019-03-12T12:17:07Z</time>
      </trkpt>
      <trkpt lat="31.446105670183897" lon="-5.9833007119596">
        <ele>1638.7</ele>
        <time>2019-03-12T12:17:08Z</time>
      </trkpt>
      <trkpt lat="31.446013385429978" lon="-5.983394421637058">
        <ele>1636.3</ele>
        <time>2019-03-12T12:17:09Z</time>
      </trkpt>
      <trkpt lat="31.445911629125476" lon="-5.98347807303071">
        <ele>1635.3399999999999</ele>
        <time>2019-03-12T12:17:10Z</time>
      </trkpt>
      <trkpt lat="31.445808783173561" lon="-5.983556862920523">
        <ele>1634.3800000000001</ele>
        <time>2019-03-12T12:17:11Z</time>
      </trkpt>
      <trkpt lat="31.445504017174244" lon="-5.983813013881445">
        <ele>1629.0899999999999</ele>
        <time>2019-03-12T12:17:12Z</time>
      </trkpt>
      <trkpt lat="31.445418018847704" lon="-5.983928181231022">
        <ele>1628.6099999999999</ele>
        <time>2019-03-12T12:17:13Z</time>
      </trkpt>
      <trkpt lat="31.445338474586606" lon="-5.984055334702134">
        <ele>1627.6500000000001</ele>
        <time>2019-03-12T12:17:14Z</time>
      </trkpt>
      <trkpt lat="31.444896664470434" lon="-5.984876090660691">
        <ele>1625.25</ele>
        <time>2019-03-12T12:17:18Z</time>
      </trkpt>
      <trkpt lat="31.444851569831371" lon="-5.985032999888063">
        <ele>1625.25</ele>
        <time>2019-03-12T12:17:19Z</time>
      </trkpt>
      <trkpt lat="31.444817036390305" lon="-5.985197117552161">
        <ele>1625.25</ele>
        <time>2019-03-12T12:17:21Z</time>
      </trkpt>
      <trkpt lat="31.444560382515192" lon="-5.986584825441241">
        <ele>1625.25</ele>
        <time>2019-03-12T12:17:22Z</time>
      </trkpt>
      <trkpt lat="31.444495422765613" lon="-5.986717846244574">
        <ele>1625.25</ele>
        <time>2019-03-12T12:17:23Z</time>
      </trkpt>
      <trkpt lat="31.444414034485817" lon="-5.986842401325703">
        <ele>1625.73</ele>
        <time>2019-03-12T12:17:25Z</time>
      </trkpt>
      <trkpt lat="31.444313284009695" lon="-5.986955305561423">
        <ele>1625.73</ele>
        <time>2019-03-12T12:17:26Z</time>
      </trkpt>
      <trkpt lat="31.444196775555611" lon="-5.987052200362086">
        <ele>1625.73</ele>
        <time>2019-03-12T12:17:27Z</time>
      </trkpt>
      <trkpt lat="31.444066856056452" lon="-5.987130235880613">
        <ele>1625.25</ele>
        <time>2019-03-12T12:17:28Z</time>
      </trkpt>
      <trkpt lat="31.443927884101868" lon="-5.987188573926687">
        <ele>1625.73</ele>
        <time>2019-03-12T12:17:29Z</time>
      </trkpt>
      <trkpt lat="31.443786481395364" lon="-5.98723953589797">
        <ele>1625.73</ele>
        <time>2019-03-12T12:17:30Z</time>
      </trkpt>
      <trkpt lat="31.443244172260165" lon="-5.987447239458561">
        <ele>1626.21</ele>
        <time>2019-03-12T12:17:31Z</time>
      </trkpt>
      <trkpt lat="31.443117102608085" lon="-5.987533070147038">
        <ele>1626.6900000000001</ele>
        <time>2019-03-12T12:17:32Z</time>
      </trkpt>
      <trkpt lat="31.442862376570702" lon="-5.98771738819778">
        <ele>1628.1300000000001</ele>
        <time>2019-03-12T12:17:35Z</time>
      </trkpt>
      <trkpt lat="31.442723823711276" lon="-5.987785868346691">
        <ele>1628.6099999999999</ele>
        <time>2019-03-12T12:17:36Z</time>
      </trkpt>
      <trkpt lat="31.442582421004772" lon="-5.987830040976405">
        <ele>1629.5699999999999</ele>
        <time>2019-03-12T12:17:37Z</time>
      </trkpt>
      <trkpt lat="31.442326353862882" lon="-5.987902544438839">
        <ele>1630.05</ele>
        <time>2019-03-12T12:17:38Z</time>
      </trkpt>
      <trkpt lat="31.442222502082586" lon="-5.98796364851296">
        <ele>1630.53</ele>
        <time>2019-03-12T12:17:39Z</time>
      </trkpt>
      <trkpt lat="31.442135078832507" lon="-5.988046796992421">
        <ele>1631.01</ele>
        <time>2019-03-12T12:17:40Z</time>
      </trkpt>
      <trkpt lat="31.442058300599456" lon="-5.988149140030146">
        <ele>1631.49</ele>
        <time>2019-03-12T12:17:49Z</time>
      </trkpt>
      <trkpt lat="31.441991329193115" lon="-5.988265313208103">
        <ele>1631.49</ele>
        <time>2019-03-12T12:17:54Z</time>
      </trkpt>
      <trkpt lat="31.441936176270247" lon="-5.98839414305985">
        <ele>1631.01</ele>
        <time>2019-03-12T12:17:55Z</time>
      </trkpt>
      <trkpt lat="31.441892506554723" lon="-5.988533701747656">
        <ele>1630.53</ele>
        <time>2019-03-12T12:17:56Z</time>
      </trkpt>
      <trkpt lat="31.441854620352387" lon="-5.988676194101572">
        <ele>1630.05</ele>
        <time>2019-03-12T12:17:58Z</time>
      </trkpt>
      <trkpt lat="31.441724197939038" lon="-5.989095121622086">
        <ele>1629.5699999999999</ele>
        <time>2019-03-12T12:17:59Z</time>
      </trkpt>
      <trkpt lat="31.441657310351729" lon="-5.989230321720243">
        <ele>1629.5699999999999</ele>
        <time>2019-03-12T12:18:00Z</time>
      </trkpt>
      <trkpt lat="31.441573826596141" lon="-5.98936015740037">
        <ele>1629.0899999999999</ele>
        <time>2019-03-12T12:18:01Z</time>
      </trkpt>
      <trkpt lat="31.441474752500653" lon="-5.989482617005706">
        <ele>1625.25</ele>
        <time>2019-03-12T12:18:02Z</time>
      </trkpt>
      <trkpt lat="31.441363776102662" lon="-5.989591330289841">
        <ele>1624.77</ele>
        <time>2019-03-12T12:18:03Z</time>
      </trkpt>
      <trkpt lat="31.441251123324037" lon="-5.989693589508534">
        <ele>1624.77</ele>
        <time>2019-03-12T12:18:04Z</time>
      </trkpt>
      <trkpt lat="31.440408322960138" lon="-5.990793295204639">
        <ele>1624.77</ele>
        <time>2019-03-12T12:18:05Z</time>
      </trkpt>
      <trkpt lat="31.440097019076347" lon="-5.991420932114124">
        <ele>1625.25</ele>
        <time>2019-03-12T12:18:06Z</time>
      </trkpt>
      <trkpt lat="31.440075226128101" lon="-5.991538111120462">
        <ele>1625.73</ele>
        <time>2019-03-12T12:18:07Z</time>
      </trkpt>
      <trkpt lat="31.440081931650639" lon="-5.991655625402927">
        <ele>1626.21</ele>
        <time>2019-03-12T12:18:08Z</time>
      </trkpt>
      <trkpt lat="31.440101293846965" lon="-5.991878667846322">
        <ele>1626.6900000000001</ele>
        <time>2019-03-12T12:18:09Z</time>
      </trkpt>
      <trkpt lat="31.440076399594545" lon="-5.991969024762511">
        <ele>1627.1700000000001</ele>
        <time>2019-03-12T12:18:10Z</time>
      </trkpt>
      <trkpt lat="31.440018145367503" lon="-5.992026943713427">
        <ele>1627.6500000000001</ele>
        <time>2019-03-12T12:18:12Z</time>
      </trkpt>
      <trkpt lat="31.439941702410579" lon="-5.992042785510421">
        <ele>1628.1300000000001</ele>
        <time>2019-03-12T12:18:13Z</time>
      </trkpt>
      <trkpt lat="31.439857464283705" lon="-5.992025686427951">
        <ele>1628.1300000000001</ele>
        <time>2019-03-12T12:18:14Z</time>
      </trkpt>
      <trkpt lat="31.439772890880704" lon="-5.991991152986884">
        <ele>1628.6099999999999</ele>
        <time>2019-03-12T12:18:15Z</time>
      </trkpt>
      <trkpt lat="31.439686138182878" lon="-5.99194354377687">
        <ele>1629.0899999999999</ele>
        <time>2019-03-12T12:18:16Z</time>
      </trkpt>
      <trkpt lat="31.43959729000926" lon="-5.991876656189561">
        <ele>1629.5699999999999</ele>
        <time>2019-03-12T12:18:17Z</time>
      </trkpt>
      <trkpt lat="31.439520511776209" lon="-5.991779677569866">
        <ele>1630.53</ele>
        <time>2019-03-12T12:18:18Z</time>
      </trkpt>
      <trkpt lat="31.439468711614609" lon="-5.991652440279722">
        <ele>1631.01</ele>
        <time>2019-03-12T12:18:19Z</time>
      </trkpt>
      <trkpt lat="31.439449265599251" lon="-5.991508271545172">
        <ele>1633.4200000000001</ele>
        <time>2019-03-12T12:18:20Z</time>
      </trkpt>
      <trkpt lat="31.439448092132807" lon="-5.991359911859036">
        <ele>1634.3800000000001</ele>
        <time>2019-03-12T12:18:21Z</time>
      </trkpt>
      <trkpt lat="31.439453456550837" lon="-5.991215910762548">
        <ele>1635.3399999999999</ele>
        <time>2019-03-12T12:18:22Z</time>
      </trkpt>
      <trkpt lat="31.439452785998583" lon="-5.990959424525499">
        <ele>1636.3</ele>
        <time>2019-03-12T12:18:23Z</time>
      </trkpt>
      <trkpt lat="31.439426466822624" lon="-5.990858087316155">
        <ele>1637.26</ele>
        <time>2019-03-12T12:18:24Z</time>
      </trkpt>
      <trkpt lat="31.439383551478386" lon="-5.990789942443371">
        <ele>1638.22</ele>
        <time>2019-03-12T12:18:25Z</time>
      </trkpt>
      <trkpt lat="31.439327811822295" lon="-5.990763287991285">
        <ele>1639.1900000000001</ele>
        <time>2019-03-12T12:18:37Z</time>
      </trkpt>
      <trkpt lat="31.439272072166204" lon="-5.990777788683772">
        <ele>1639.6700000000001</ele>
        <time>2019-03-12T12:18:47Z</time>
      </trkpt>
      <trkpt lat="31.439229492098093" lon="-5.990827744826675">
        <ele>1640.1500000000001</ele>
        <time>2019-03-12T12:18:51Z</time>
      </trkpt>
      <trkpt lat="31.439210632815957" lon="-5.990903349593282">
        <ele>1640.6300000000001</ele>
        <time>2019-03-12T12:18:52Z</time>
      </trkpt>
      <trkpt lat="31.439216835424304" lon="-5.990998819470406">
        <ele>1641.5899999999999</ele>
        <time>2019-03-12T12:18:59Z</time>
      </trkpt>
      <trkpt lat="31.439240220934153" lon="-5.991105353459716">
        <ele>1642.55</ele>
        <time>2019-03-12T12:19:06Z</time>
      </trkpt>
      <trkpt lat="31.439266121014953" lon="-5.991223370656371">
        <ele>1643.51</ele>
        <time>2019-03-12T12:19:17Z</time>
      </trkpt>
      <trkpt lat="31.439278442412615" lon="-5.991355301812291">
        <ele>1644.47</ele>
        <time>2019-03-12T12:19:21Z</time>
      </trkpt>
      <trkpt lat="31.439263271167874" lon="-5.991499051451683">
        <ele>1659.3699999999999</ele>
        <time>2019-03-12T12:19:22Z</time>
      </trkpt>
      <trkpt lat="31.4392308332026" lon="-5.991638191044331">
        <ele>1652.6400000000001</ele>
        <time>2019-03-12T12:19:23Z</time>
      </trkpt>
      <trkpt lat="31.439190851524472" lon="-5.991769535467029">
        <ele>1644.47</ele>
        <time>2019-03-12T12:19:31Z</time>
      </trkpt>
      <trkpt lat="31.438579307869077" lon="-5.993554629385471">
        <ele>1642.55</ele>
        <time>2019-03-12T12:19:33Z</time>
      </trkpt>
      <trkpt lat="31.437856368720531" lon="-5.99530091509223">
        <ele>1628.6099999999999</ele>
        <time>2019-03-12T12:19:34Z</time>
      </trkpt>
      <trkpt lat="31.437565600499511" lon="-5.99595227278769">
        <ele>1622.8399999999999</ele>
        <time>2019-03-12T12:19:35Z</time>
      </trkpt>
      <trkpt lat="31.437532659620047" lon="-5.996129214763641">
        <ele>1636.3</ele>
        <time>2019-03-12T12:19:38Z</time>
      </trkpt>
      <trkpt lat="31.437582783401012" lon="-5.997647009789944">
        <ele>1642.0699999999999</ele>
        <time>2019-03-12T12:19:39Z</time>
      </trkpt>
      <trkpt lat="31.437537437304854" lon="-5.999459680169821">
        <ele>1642.55</ele>
        <time>2019-03-12T12:19:40Z</time>
      </trkpt>
      <trkpt lat="31.437137788161635" lon="-6.002139793708921">
        <ele>1643.03</ele>
        <time>2019-03-12T12:19:41Z</time>
      </trkpt>
      <trkpt lat="31.437040641903877" lon="-6.002882262691855">
        <ele>1641.1099999999999</ele>
        <time>2019-03-12T12:19:42Z</time>
      </trkpt>
      <trkpt lat="31.437064278870821" lon="-6.003036489710212">
        <ele>1639.6700000000001</ele>
        <time>2019-03-12T12:19:43Z</time>
      </trkpt>
      <trkpt lat="31.437116414308548" lon="-6.003181580454111">
        <ele>1638.7</ele>
        <time>2019-03-12T12:19:44Z</time>
      </trkpt>
      <trkpt lat="31.43761832267046" lon="-6.004480691626668">
        <ele>1637.74</ele>
        <time>2019-03-12T12:19:45Z</time>
      </trkpt>
      <trkpt lat="31.437747236341238" lon="-6.004740362986922">
        <ele>1636.3</ele>
        <time>2019-03-12T12:19:47Z</time>
      </trkpt>
      <trkpt lat="31.437833402305841" lon="-6.004848908632994">
        <ele>1635.8199999999999</ele>
        <time>2019-03-12T12:19:48Z</time>
      </trkpt>
      <trkpt lat="31.437931470572948" lon="-6.004943372681737">
        <ele>1635.8199999999999</ele>
        <time>2019-03-12T12:19:49Z</time>
      </trkpt>
      <trkpt lat="31.438207738101482" lon="-6.005185022950172">
        <ele>1635.8199999999999</ele>
        <time>2019-03-12T12:19:50Z</time>
      </trkpt>
      <trkpt lat="31.438271272927523" lon="-6.00527236238122">
        <ele>1635.8199999999999</ele>
        <time>2019-03-12T12:19:51Z</time>
      </trkpt>
      <trkpt lat="31.438311338424683" lon="-6.005376214161515">
        <ele>1635.8199999999999</ele>
        <time>2019-03-12T12:19:52Z</time>
      </trkpt>
      <trkpt lat="31.438319385051727" lon="-6.005493644624949">
        <ele>1635.8199999999999</ele>
        <time>2019-03-12T12:19:55Z</time>
      </trkpt>
      <trkpt lat="31.438296250998974" lon="-6.005610655993223">
        <ele>1636.3</ele>
        <time>2019-03-12T12:19:56Z</time>
      </trkpt>
      <trkpt lat="31.438256101682782" lon="-6.005719872191548">
        <ele>1636.78</ele>
        <time>2019-03-12T12:19:57Z</time>
      </trkpt>
      <trkpt lat="31.438207821920514" lon="-6.00581718608737">
        <ele>1637.74</ele>
        <time>2019-03-12T12:19:58Z</time>
      </trkpt>
      <trkpt lat="31.438150154426694" lon="-6.005913326516748">
        <ele>1638.22</ele>
        <time>2019-03-12T12:19:59Z</time>
      </trkpt>
      <trkpt lat="31.438034567981958" lon="-6.006138548254967">
        <ele>1638.7</ele>
        <time>2019-03-12T12:20:00Z</time>
      </trkpt>
      <trkpt lat="31.437990479171276" lon="-6.006271569058299">
        <ele>1639.6700000000001</ele>
        <time>2019-03-12T12:20:01Z</time>
      </trkpt>
      <trkpt lat="31.437959801405668" lon="-6.006417581811547">
        <ele>1640.1500000000001</ele>
        <time>2019-03-12T12:20:02Z</time>
      </trkpt>
      <trkpt lat="31.437941361218691" lon="-6.006572898477316">
        <ele>1642.0699999999999</ele>
        <time>2019-03-12T12:20:03Z</time>
      </trkpt>
      <trkpt lat="31.437933398410678" lon="-6.006728382781148">
        <ele>1643.03</ele>
        <time>2019-03-12T12:20:04Z</time>
      </trkpt>
      <trkpt lat="31.437930716201663" lon="-6.006876071915031">
        <ele>1643.51</ele>
        <time>2019-03-12T12:20:05Z</time>
      </trkpt>
      <trkpt lat="31.437948066741228" lon="-6.007242696359754">
        <ele>1643.99</ele>
        <time>2019-03-12T12:20:14Z</time>
      </trkpt>
      <trkpt lat="31.437987461686134" lon="-6.007333640009165">
        <ele>1644.47</ele>
        <time>2019-03-12T12:20:20Z</time>
      </trkpt>
      <trkpt lat="31.438046218827367" lon="-6.007402036339045">
        <ele>1644.95</ele>
        <time>2019-03-12T12:20:21Z</time>
      </trkpt>
      <trkpt lat="31.438119811937213" lon="-6.007433468475938">
        <ele>1645.4300000000001</ele>
        <time>2019-03-12T12:20:22Z</time>
      </trkpt>
      <trkpt lat="31.438202289864421" lon="-6.007423242554069">
        <ele>1646.4000000000001</ele>
        <time>2019-03-12T12:20:29Z</time>
      </trkpt>
      <trkpt lat="31.43828677944839" lon="-6.007391307502985">
        <ele>1646.8800000000001</ele>
        <time>2019-03-12T12:20:30Z</time>
      </trkpt>
      <trkpt lat="31.438375962898135" lon="-6.007364233955741">
        <ele>1647.8399999999999</ele>
        <time>2019-03-12T12:20:31Z</time>
      </trkpt>
      <trkpt lat="31.4384675770998" lon="-6.00736515596509">
        <ele>1649.28</ele>
        <time>2019-03-12T12:20:36Z</time>
      </trkpt>
      <trkpt lat="31.438557263463736" lon="-6.007404215633869">
        <ele>1660.8099999999999</ele>
        <time>2019-03-12T12:20:37Z</time>
      </trkpt>
      <trkpt lat="31.43863957375288" lon="-6.007472528144717">
        <ele>1666.5799999999999</ele>
        <time>2019-03-12T12:20:38Z</time>
      </trkpt>
      <trkpt lat="31.438720291480422" lon="-6.007550982758403">
        <ele>1667.0599999999999</ele>
        <time>2019-03-12T12:20:39Z</time>
      </trkpt>
      <trkpt lat="31.439548088237643" lon="-6.008542058989406">
        <ele>1667.54</ele>
        <time>2019-03-12T12:20:40Z</time>
      </trkpt>
      <trkpt lat="31.440052008256316" lon="-6.009182687848806">
        <ele>1672.3499999999999</ele>
        <time>2019-03-12T12:20:41Z</time>
      </trkpt>
      <trkpt lat="31.440108837559819" lon="-6.009296514093876">
        <ele>1672.8299999999999</ele>
        <time>2019-03-12T12:20:47Z</time>
      </trkpt>
      <trkpt lat="31.440160218626261" lon="-6.009423416107893">
        <ele>1673.79</ele>
        <time>2019-03-12T12:20:48Z</time>
      </trkpt>
      <trkpt lat="31.440503373742104" lon="-6.010427065193653">
        <ele>1676.2</ele>
        <time>2019-03-12T12:20:49Z</time>
      </trkpt>
      <trkpt lat="31.440566992387176" lon="-6.010546255856752">
        <ele>1676.2</ele>
        <time>2019-03-12T12:20:50Z</time>
      </trkpt>
      <trkpt lat="31.440647710114717" lon="-6.010652789846063">
        <ele>1676.6800000000001</ele>
        <time>2019-03-12T12:20:51Z</time>
      </trkpt>
      <trkpt lat="31.44104702398181" lon="-6.011108262464404">
        <ele>1677.1600000000001</ele>
        <time>2019-03-12T12:20:52Z</time>
      </trkpt>
      <trkpt lat="31.441137464717031" lon="-6.011170707643032">
        <ele>1677.1600000000001</ele>
        <time>2019-03-12T12:20:53Z</time>
      </trkpt>
      <trkpt lat="31.441237544640899" lon="-6.01122192107141">
        <ele>1677.1600000000001</ele>
        <time>2019-03-12T12:20:54Z</time>
      </trkpt>
      <trkpt lat="31.441344581544399" lon="-6.011266009882093">
        <ele>1676.2</ele>
        <time>2019-03-12T12:20:55Z</time>
      </trkpt>
      <trkpt lat="31.441459497436881" lon="-6.011303393170238">
        <ele>1675.72</ele>
        <time>2019-03-12T12:20:56Z</time>
      </trkpt>
      <trkpt lat="31.441581454128027" lon="-6.011331640183926">
        <ele>1675.72</ele>
        <time>2019-03-12T12:20:57Z</time>
      </trkpt>
      <trkpt lat="31.442376561462879" lon="-6.011642776429653">
        <ele>1675.72</ele>
        <time>2019-03-12T12:20:58Z</time>
      </trkpt>
      <trkpt lat="31.442475635558367" lon="-6.011739252135158">
        <ele>1675.72</ele>
        <time>2019-03-12T12:20:59Z</time>
      </trkpt>
      <trkpt lat="31.442556772381067" lon="-6.0118527431041">
        <ele>1675.72</ele>
        <time>2019-03-12T12:21:00Z</time>
      </trkpt>
      <trkpt lat="31.442639082670212" lon="-6.011958857998252">
        <ele>1675.72</ele>
        <time>2019-03-12T12:21:01Z</time>
      </trkpt>
      <trkpt lat="31.44273916259408" lon="-6.012039659544826">
        <ele>1675.23</ele>
        <time>2019-03-12T12:21:02Z</time>
      </trkpt>
      <trkpt lat="31.442853072658181" lon="-6.012099254876375">
        <ele>1674.75</ele>
        <time>2019-03-12T12:21:03Z</time>
      </trkpt>
      <trkpt lat="31.442976873368025" lon="-6.012140577659011">
        <ele>1674.27</ele>
        <time>2019-03-12T12:21:04Z</time>
      </trkpt>
      <trkpt lat="31.443101679906249" lon="-6.012171674519777">
        <ele>1674.27</ele>
        <time>2019-03-12T12:21:05Z</time>
      </trkpt>
      <trkpt lat="31.443221541121602" lon="-6.012198245152831">
        <ele>1674.27</ele>
        <time>2019-03-12T12:21:06Z</time>
      </trkpt>
      <trkpt lat="31.443330673500896" lon="-6.012241914868355">
        <ele>1674.27</ele>
        <time>2019-03-12T12:21:07Z</time>
      </trkpt>
      <trkpt lat="31.443422958254814" lon="-6.012317938730121">
        <ele>1673.79</ele>
        <time>2019-03-12T12:21:08Z</time>
      </trkpt>
      <trkpt lat="31.443498227745295" lon="-6.012417851015925">
        <ele>1673.79</ele>
        <time>2019-03-12T12:21:09Z</time>
      </trkpt>
      <trkpt lat="31.443568468093872" lon="-6.01252363063395">
        <ele>1674.27</ele>
        <time>2019-03-12T12:21:10Z</time>
      </trkpt>
      <trkpt lat="31.443651616573334" lon="-6.012619351968169">
        <ele>1673.79</ele>
        <time>2019-03-12T12:21:12Z</time>
      </trkpt>
      <trkpt lat="31.44374918192625" lon="-6.012701829895377">
        <ele>1673.79</ele>
        <time>2019-03-12T12:21:13Z</time>
      </trkpt>
      <trkpt lat="31.443849010393023" lon="-6.012777183204889">
        <ele>1672.8299999999999</ele>
        <time>2019-03-12T12:21:14Z</time>
      </trkpt>
      <trkpt lat="31.443934505805373" lon="-6.012863265350461">
        <ele>1672.3499999999999</ele>
        <time>2019-03-12T12:21:15Z</time>
      </trkpt>
      <trkpt lat="31.443996280431747" lon="-6.01296728476882">
        <ele>1671.8699999999999</ele>
        <time>2019-03-12T12:21:16Z</time>
      </trkpt>
      <trkpt lat="31.44402913749218" lon="-6.013090582564473">
        <ele>1671.3900000000001</ele>
        <time>2019-03-12T12:21:17Z</time>
      </trkpt>
      <trkpt lat="31.444029975682497" lon="-6.013227459043264">
        <ele>1670.9100000000001</ele>
        <time>2019-03-12T12:21:18Z</time>
      </trkpt>
      <trkpt lat="31.444016564637423" lon="-6.013359390199184">
        <ele>1670.4300000000001</ele>
        <time>2019-03-12T12:21:19Z</time>
      </trkpt>
      <trkpt lat="31.444013966247439" lon="-6.013479502871633">
        <ele>1668.99</ele>
        <time>2019-03-12T12:21:20Z</time>
      </trkpt>
      <trkpt lat="31.444036848843098" lon="-6.013592490926385">
        <ele>1668.02</ele>
        <time>2019-03-12T12:21:21Z</time>
      </trkpt>
      <trkpt lat="31.444090325385332" lon="-6.013699192553759">
        <ele>1667.0599999999999</ele>
        <time>2019-03-12T12:21:22Z</time>
      </trkpt>
      <trkpt lat="31.444219155237079" lon="-6.013905638828874">
        <ele>1666.0999999999999</ele>
        <time>2019-03-12T12:21:25Z</time>
      </trkpt>
      <trkpt lat="31.444257292896509" lon="-6.014011753723025">
        <ele>1664.6600000000001</ele>
        <time>2019-03-12T12:21:26Z</time>
      </trkpt>
      <trkpt lat="31.444260897114873" lon="-6.014117449522018">
        <ele>1663.22</ele>
        <time>2019-03-12T12:21:27Z</time>
      </trkpt>
      <trkpt lat="31.444226447492838" lon="-6.01421769708395">
        <ele>1662.26</ele>
        <time>2019-03-12T12:21:28Z</time>
      </trkpt>
      <trkpt lat="31.444158805534244" lon="-6.014298414811492">
        <ele>1660.8099999999999</ele>
        <time>2019-03-12T12:21:29Z</time>
      </trkpt>
      <trkpt lat="31.444064928218722" lon="-6.014343677088618">
        <ele>1659.3699999999999</ele>
        <time>2019-03-12T12:21:30Z</time>
      </trkpt>
      <trkpt lat="31.443962333723903" lon="-6.014339737594128">
        <ele>1657.9300000000001</ele>
        <time>2019-03-12T12:21:32Z</time>
      </trkpt>
      <trkpt lat="31.443870300427079" lon="-6.014281734824181">
        <ele>1656.97</ele>
        <time>2019-03-12T12:21:33Z</time>
      </trkpt>
      <trkpt lat="31.443798802793026" lon="-6.014181403443217">
        <ele>1656.97</ele>
        <time>2019-03-12T12:21:34Z</time>
      </trkpt>
      <trkpt lat="31.443743733689189" lon="-6.014052908867598">
        <ele>1656.97</ele>
        <time>2019-03-12T12:21:35Z</time>
      </trkpt>
      <trkpt lat="31.443688664585352" lon="-6.013918127864599">
        <ele>1656.97</ele>
        <time>2019-03-12T12:21:36Z</time>
      </trkpt>
      <trkpt lat="31.443490013480186" lon="-6.013533314689994">
        <ele>1657.45</ele>
        <time>2019-03-12T12:21:37Z</time>
      </trkpt>
      <trkpt lat="31.443397309631109" lon="-6.013430301100016">
        <ele>1657.9300000000001</ele>
        <time>2019-03-12T12:21:39Z</time>
      </trkpt>
      <trkpt lat="31.443289769813418" lon="-6.013347404077649">
        <ele>1658.8900000000001</ele>
        <time>2019-03-12T12:21:40Z</time>
      </trkpt>
      <trkpt lat="31.443170998245478" lon="-6.013282528147101">
        <ele>1660.3299999999999</ele>
        <time>2019-03-12T12:21:41Z</time>
      </trkpt>
      <trkpt lat="31.443045521155" lon="-6.01322921924293">
        <ele>1661.3</ele>
        <time>2019-03-12T12:21:42Z</time>
      </trkpt>
      <trkpt lat="31.44291459582746" lon="-6.013180436566472">
        <ele>1662.26</ele>
        <time>2019-03-12T12:21:43Z</time>
      </trkpt>
      <trkpt lat="31.442648805677891" lon="-6.01310751400888">
        <ele>1663.22</ele>
        <time>2019-03-12T12:21:44Z</time>
      </trkpt>
      <trkpt lat="31.442515281960368" lon="-6.01310214959085">
        <ele>1664.6600000000001</ele>
        <time>2019-03-12T12:21:45Z</time>
      </trkpt>
      <trkpt lat="31.442381255328655" lon="-6.013123607262969">
        <ele>1665.6199999999999</ele>
        <time>2019-03-12T12:21:46Z</time>
      </trkpt>
      <trkpt lat="31.442249994724989" lon="-6.013172557577491">
        <ele>1666.5799999999999</ele>
        <time>2019-03-12T12:21:47Z</time>
      </trkpt>
      <trkpt lat="31.442124601453543" lon="-6.013246150687337">
        <ele>1667.0599999999999</ele>
        <time>2019-03-12T12:21:48Z</time>
      </trkpt>
      <trkpt lat="31.442003902047873" lon="-6.013334831222892">
        <ele>1667.54</ele>
        <time>2019-03-12T12:21:49Z</time>
      </trkpt>
      <trkpt lat="31.441759737208486" lon="-6.013492411002517">
        <ele>1668.51</ele>
        <time>2019-03-12T12:21:54Z</time>
      </trkpt>
      <trkpt lat="31.441626800224185" lon="-6.013537840917707">
        <ele>1668.99</ele>
        <time>2019-03-12T12:22:00Z</time>
      </trkpt>
      <trkpt lat="31.441488415002823" lon="-6.013552509248257">
        <ele>1669.47</ele>
        <time>2019-03-12T12:22:01Z</time>
      </trkpt>
      <trkpt lat="31.441349862143397" lon="-6.013542953878641">
        <ele>1669.47</ele>
        <time>2019-03-12T12:22:02Z</time>
      </trkpt>
      <trkpt lat="31.441220613196492" lon="-6.013527531176806">
        <ele>1669.95</ele>
        <time>2019-03-12T12:22:03Z</time>
      </trkpt>
      <trkpt lat="31.441103350371122" lon="-6.013519736006856">
        <ele>1669.95</ele>
        <time>2019-03-12T12:22:04Z</time>
      </trkpt>
      <trkpt lat="31.440994301810861" lon="-6.013532057404518">
        <ele>1669.95</ele>
        <time>2019-03-12T12:22:05Z</time>
      </trkpt>
      <trkpt lat="31.440888103097677" lon="-6.013564746826887">
        <ele>1669.95</ele>
        <time>2019-03-12T12:22:06Z</time>
      </trkpt>
      <trkpt lat="31.440780982375145" lon="-6.013614200055599">
        <ele>1668.99</ele>
        <time>2019-03-12T12:22:07Z</time>
      </trkpt>
      <trkpt lat="31.440674951300025" lon="-6.013676896691322">
        <ele>1666.5799999999999</ele>
        <time>2019-03-12T12:22:08Z</time>
      </trkpt>
      <trkpt lat="31.440567579120398" lon="-6.013745125383139">
        <ele>1665.6199999999999</ele>
        <time>2019-03-12T12:22:09Z</time>
      </trkpt>
      <trkpt lat="31.439983611926436" lon="-6.014037653803825">
        <ele>1665.1400000000001</ele>
        <time>2019-03-12T12:22:10Z</time>
      </trkpt>
      <trkpt lat="31.439249943941832" lon="-6.014272179454565">
        <ele>1664.6600000000001</ele>
        <time>2019-03-12T12:22:11Z</time>
      </trkpt>
      <trkpt lat="31.439156904816628" lon="-6.014342503622174">
        <ele>1664.1800000000001</ele>
        <time>2019-03-12T12:22:12Z</time>
      </trkpt>
      <trkpt lat="31.439079875126481" lon="-6.014427579939365">
        <ele>1663.22</ele>
        <time>2019-03-12T12:22:13Z</time>
      </trkpt>
      <trkpt lat="31.439016843214631" lon="-6.014528917148709">
        <ele>1662.74</ele>
        <time>2019-03-12T12:22:14Z</time>
      </trkpt>
      <trkpt lat="31.438970826566219" lon="-6.014643162488937">
        <ele>1662.26</ele>
        <time>2019-03-12T12:22:15Z</time>
      </trkpt>
      <trkpt lat="31.438930258154869" lon="-6.014762185513973">
        <ele>1661.78</ele>
        <time>2019-03-12T12:22:16Z</time>
      </trkpt>
      <trkpt lat="31.438882229849696" lon="-6.014875927940011">
        <ele>1660.8099999999999</ele>
        <time>2019-03-12T12:22:17Z</time>
      </trkpt>
      <trkpt lat="31.438820790499449" lon="-6.014978522434831">
        <ele>1659.8499999999999</ele>
        <time>2019-03-12T12:22:18Z</time>
      </trkpt>
      <trkpt lat="31.438738983124495" lon="-6.015061587095261">
        <ele>1658.8900000000001</ele>
        <time>2019-03-12T12:22:19Z</time>
      </trkpt>
      <trkpt lat="31.438637310639024" lon="-6.015125708654523">
        <ele>1657.9300000000001</ele>
        <time>2019-03-12T12:22:20Z</time>
      </trkpt>
      <trkpt lat="31.438517700880766" lon="-6.01517440751195">
        <ele>1656.97</ele>
        <time>2019-03-12T12:22:21Z</time>
      </trkpt>
      <trkpt lat="31.438387529924512" lon="-6.015213215723634">
        <ele>1656.01</ele>
        <time>2019-03-12T12:22:32Z</time>
      </trkpt>
      <trkpt lat="31.438254090026021" lon="-6.015241295099258">
        <ele>1655.05</ele>
        <time>2019-03-12T12:22:33Z</time>
      </trkpt>
      <trkpt lat="31.438121739774942" lon="-6.015255292877555">
        <ele>1654.5699999999999</ele>
        <time>2019-03-12T12:22:34Z</time>
      </trkpt>
      <trkpt lat="31.437993748113513" lon="-6.01525554433465">
        <ele>1653.5999999999999</ele>
        <time>2019-03-12T12:22:35Z</time>
      </trkpt>
      <trkpt lat="31.437877491116524" lon="-6.015236685052514">
        <ele>1652.6400000000001</ele>
        <time>2019-03-12T12:22:36Z</time>
      </trkpt>
      <trkpt lat="31.437772298231721" lon="-6.015189411118627">
        <ele>1651.6800000000001</ele>
        <time>2019-03-12T12:22:37Z</time>
      </trkpt>
      <trkpt lat="31.437678169459105" lon="-6.015108525753021">
        <ele>1650.24</ele>
        <time>2019-03-12T12:22:38Z</time>
      </trkpt>
      <trkpt lat="31.437600972130895" lon="-6.014998219907284">
        <ele>1648.8</ele>
        <time>2019-03-12T12:22:42Z</time>
      </trkpt>
      <trkpt lat="31.437540790066123" lon="-6.014863355085254">
        <ele>1637.26</ele>
        <time>2019-03-12T12:22:43Z</time>
      </trkpt>
      <trkpt lat="31.437491336837411" lon="-6.014717845246196">
        <ele>1636.3</ele>
        <time>2019-03-12T12:22:44Z</time>
      </trkpt>
      <trkpt lat="31.437440710142255" lon="-6.014567306265235">
        <ele>1635.3399999999999</ele>
        <time>2019-03-12T12:22:45Z</time>
      </trkpt>
      <trkpt lat="31.436844086274505" lon="-6.012917160987854">
        <ele>1634.3800000000001</ele>
        <time>2019-03-12T12:22:46Z</time>
      </trkpt>
      <trkpt lat="31.436804691329598" lon="-6.012778608128429">
        <ele>1633.9000000000001</ele>
        <time>2019-03-12T12:22:47Z</time>
      </trkpt>
      <trkpt lat="31.436777701601386" lon="-6.012637373059988">
        <ele>1632.9400000000001</ele>
        <time>2019-03-12T12:22:48Z</time>
      </trkpt>
      <trkpt lat="31.436763871461153" lon="-6.012493120506406">
        <ele>1632.46</ele>
        <time>2019-03-12T12:22:49Z</time>
      </trkpt>
      <trkpt lat="31.436766302213073" lon="-6.012344006448984">
        <ele>1630.53</ele>
        <time>2019-03-12T12:22:51Z</time>
      </trkpt>
      <trkpt lat="31.436780551448464" lon="-6.012194976210594">
        <ele>1630.05</ele>
        <time>2019-03-12T12:22:52Z</time>
      </trkpt>
      <trkpt lat="31.436799913644791" lon="-6.012048544362187">
        <ele>1629.5699999999999</ele>
        <time>2019-03-12T12:22:53Z</time>
      </trkpt>
      <trkpt lat="31.436862023547292" lon="-6.011553928256035">
        <ele>1629.5699999999999</ele>
        <time>2019-03-12T12:22:54Z</time>
      </trkpt>
      <trkpt lat="31.436845259740949" lon="-6.011461643502116">
        <ele>1629.5699999999999</ele>
        <time>2019-03-12T12:22:55Z</time>
      </trkpt>
      <trkpt lat="31.436803517863154" lon="-6.011388301849365">
        <ele>1629.0899999999999</ele>
        <time>2019-03-12T12:22:56Z</time>
      </trkpt>
      <trkpt lat="31.436738474294543" lon="-6.011349242180586">
        <ele>1629.0899999999999</ele>
        <time>2019-03-12T12:22:59Z</time>
      </trkpt>
      <trkpt lat="31.436661863699555" lon="-6.011339602991939">
        <ele>1629.0899999999999</ele>
        <time>2019-03-12T12:23:00Z</time>
      </trkpt>
      <trkpt lat="31.436582151800394" lon="-6.011354103684425">
        <ele>1629.5699999999999</ele>
        <time>2019-03-12T12:23:01Z</time>
      </trkpt>
      <trkpt lat="31.436502942815423" lon="-6.011393498629332">
        <ele>1629.5699999999999</ele>
        <time>2019-03-12T12:23:07Z</time>
      </trkpt>
      <trkpt lat="31.436424152925611" lon="-6.011444376781583">
        <ele>1629.5699999999999</ele>
        <time>2019-03-12T12:23:08Z</time>
      </trkpt>
      <trkpt lat="31.436245702207088" lon="-6.011534314602613">
        <ele>1629.5699999999999</ele>
        <time>2019-03-12T12:23:09Z</time>
      </trkpt>
      <trkpt lat="31.43614168278873" lon="-6.011554095894098">
        <ele>1629.0899999999999</ele>
        <time>2019-03-12T12:23:10Z</time>
      </trkpt>
      <trkpt lat="31.436032969504595" lon="-6.011548982933164">
        <ele>1629.0899999999999</ele>
        <time>2019-03-12T12:23:11Z</time>
      </trkpt>
      <trkpt lat="31.43592081964016" lon="-6.011514952406287">
        <ele>1628.6099999999999</ele>
        <time>2019-03-12T12:23:12Z</time>
      </trkpt>
      <trkpt lat="31.435804897919297" lon="-6.011460218578577">
        <ele>1628.6099999999999</ele>
        <time>2019-03-12T12:23:13Z</time>
      </trkpt>
      <trkpt lat="31.435687970370054" lon="-6.011396013200283">
        <ele>1628.6099999999999</ele>
        <time>2019-03-12T12:23:14Z</time>
      </trkpt>
      <trkpt lat="31.435355376452208" lon="-6.011210102587938">
        <ele>1626.6900000000001</ele>
        <time>2019-03-12T12:23:15Z</time>
      </trkpt>
      <trkpt lat="31.435248088091612" lon="-6.011179927736521">
        <ele>1626.6900000000001</ele>
        <time>2019-03-12T12:23:16Z</time>
      </trkpt>
      <trkpt lat="31.435137446969748" lon="-6.011172803118825">
        <ele>1626.21</ele>
        <time>2019-03-12T12:23:18Z</time>
      </trkpt>
      <trkpt lat="31.434520538896322" lon="-6.011214461177588">
        <ele>1625.73</ele>
        <time>2019-03-12T12:23:19Z</time>
      </trkpt>
      <trkpt lat="31.43443931825459" lon="-6.011253269389272">
        <ele>1625.25</ele>
        <time>2019-03-12T12:23:20Z</time>
      </trkpt>
      <trkpt lat="31.434373939409852" lon="-6.011317139491439">
        <ele>1624.28</ele>
        <time>2019-03-12T12:23:21Z</time>
      </trkpt>
      <trkpt lat="31.434328760951757" lon="-6.011401461437345">
        <ele>1623.8</ele>
        <time>2019-03-12T12:23:22Z</time>
      </trkpt>
      <trkpt lat="31.434305123984814" lon="-6.011503050103784">
        <ele>1623.8</ele>
        <time>2019-03-12T12:23:23Z</time>
      </trkpt>
      <trkpt lat="31.43431082367897" lon="-6.011612182483077">
        <ele>1623.3199999999999</ele>
        <time>2019-03-12T12:23:24Z</time>
      </trkpt>
      <trkpt lat="31.434343932196498" lon="-6.011718381196261">
        <ele>1622.8399999999999</ele>
        <time>2019-03-12T12:23:25Z</time>
      </trkpt>
      <trkpt lat="31.434396989643574" lon="-6.011816449463368">
        <ele>1622.3599999999999</ele>
        <time>2019-03-12T12:23:26Z</time>
      </trkpt>
      <trkpt lat="31.434458428993821" lon="-6.011907225474715">
        <ele>1622.3599999999999</ele>
        <time>2019-03-12T12:23:27Z</time>
      </trkpt>
      <trkpt lat="31.434520203620195" lon="-6.011994984000921">
        <ele>1621.8800000000001</ele>
        <time>2019-03-12T12:23:28Z</time>
      </trkpt>
      <trkpt lat="31.434621540829539" lon="-6.012181397527456">
        <ele>1621.8800000000001</ele>
        <time>2019-03-12T12:23:29Z</time>
      </trkpt>
      <trkpt lat="31.434644255787134" lon="-6.012293128296733">
        <ele>1621.8800000000001</ele>
        <time>2019-03-12T12:23:30Z</time>
      </trkpt>
      <trkpt lat="31.434638304635882" lon="-6.012408463284373">
        <ele>1621.4000000000001</ele>
        <time>2019-03-12T12:23:31Z</time>
      </trkpt>
      <trkpt lat="31.434603687375784" lon="-6.012519188225269">
        <ele>1621.4000000000001</ele>
        <time>2019-03-12T12:23:32Z</time>
      </trkpt>
      <trkpt lat="31.434542499482632" lon="-6.012617675587535">
        <ele>1620.9200000000001</ele>
        <time>2019-03-12T12:23:33Z</time>
      </trkpt>
      <trkpt lat="31.434459434822202" lon="-6.01269512437284">
        <ele>1620.4400000000001</ele>
        <time>2019-03-12T12:23:34Z</time>
      </trkpt>
      <trkpt lat="31.434359103441238" lon="-6.012748600915074">
        <ele>1620.4400000000001</ele>
        <time>2019-03-12T12:23:35Z</time>
      </trkpt>
      <trkpt lat="31.434247121214867" lon="-6.012775423005223">
        <ele>1620.4400000000001</ele>
        <time>2019-03-12T12:23:36Z</time>
      </trkpt>
      <trkpt lat="31.434127846732736" lon="-6.012767795473337">
        <ele>1620.9200000000001</ele>
        <time>2019-03-12T12:23:37Z</time>
      </trkpt>
      <trkpt lat="31.434007147327065" lon="-6.012738291174173">
        <ele>1621.4000000000001</ele>
        <time>2019-03-12T12:23:38Z</time>
      </trkpt>
      <trkpt lat="31.433886447921395" lon="-6.012701913714409">
        <ele>1621.8800000000001</ele>
        <time>2019-03-12T12:23:39Z</time>
      </trkpt>
      <trkpt lat="31.433768095448613" lon="-6.012672744691372">
        <ele>1621.8800000000001</ele>
        <time>2019-03-12T12:23:40Z</time>
      </trkpt>
      <trkpt lat="31.433652341365814" lon="-6.012666625902057">
        <ele>1622.8399999999999</ele>
        <time>2019-03-12T12:23:41Z</time>
      </trkpt>
      <trkpt lat="31.433544298633933" lon="-6.012682216241956">
        <ele>1623.3199999999999</ele>
        <time>2019-03-12T12:23:42Z</time>
      </trkpt>
      <trkpt lat="31.433444386348128" lon="-6.012712055817246">
        <ele>1623.8</ele>
        <time>2019-03-12T12:23:43Z</time>
      </trkpt>
      <trkpt lat="31.433351011946797" lon="-6.01276159286499">
        <ele>1624.77</ele>
        <time>2019-03-12T12:23:44Z</time>
      </trkpt>
      <trkpt lat="31.433268534019589" lon="-6.01283778436482">
        <ele>1624.77</ele>
        <time>2019-03-12T12:23:45Z</time>
      </trkpt>
      <trkpt lat="31.433204412460327" lon="-6.012940797954798">
        <ele>1625.25</ele>
        <time>2019-03-12T12:23:46Z</time>
      </trkpt>
      <trkpt lat="31.433157054707408" lon="-6.013061162084341">
        <ele>1626.21</ele>
        <time>2019-03-12T12:23:48Z</time>
      </trkpt>
      <trkpt lat="31.433114055544138" lon="-6.013188734650612">
        <ele>1626.6900000000001</ele>
        <time>2019-03-12T12:23:49Z</time>
      </trkpt>
      <trkpt lat="31.433060159906745" lon="-6.013310020789504">
        <ele>1627.6500000000001</ele>
        <time>2019-03-12T12:23:50Z</time>
      </trkpt>
      <trkpt lat="31.432982040569186" lon="-6.013412363827229">
        <ele>1628.6099999999999</ele>
        <time>2019-03-12T12:23:51Z</time>
      </trkpt>
      <trkpt lat="31.432881122455001" lon="-6.013483107089996">
        <ele>1629.5699999999999</ele>
        <time>2019-03-12T12:23:52Z</time>
      </trkpt>
      <trkpt lat="31.432766206562519" lon="-6.01352727971971">
        <ele>1630.53</ele>
        <time>2019-03-12T12:23:53Z</time>
      </trkpt>
      <trkpt lat="31.43265045247972" lon="-6.013568853959441">
        <ele>1631.49</ele>
        <time>2019-03-12T12:23:54Z</time>
      </trkpt>
      <trkpt lat="31.432541152462363" lon="-6.013624342158437">
        <ele>1631.98</ele>
        <time>2019-03-12T12:23:55Z</time>
      </trkpt>
      <trkpt lat="31.432445766404271" lon="-6.013699444010854">
        <ele>1633.4200000000001</ele>
        <time>2019-03-12T12:23:56Z</time>
      </trkpt>
      <trkpt lat="31.43236706033349" lon="-6.01379600353539">
        <ele>1633.9000000000001</ele>
        <time>2019-03-12T12:23:57Z</time>
      </trkpt>
      <trkpt lat="31.432298915460706" lon="-6.013908656314015">
        <ele>1634.8599999999999</ele>
        <time>2019-03-12T12:23:58Z</time>
      </trkpt>
      <trkpt lat="31.432138988748193" lon="-6.014127088710666">
        <ele>1635.3399999999999</ele>
        <time>2019-03-12T12:23:59Z</time>
      </trkpt>
      <trkpt lat="31.432039076462388" lon="-6.014219205826521">
        <ele>1635.8199999999999</ele>
        <time>2019-03-12T12:24:00Z</time>
      </trkpt>
      <trkpt lat="31.431929776445031" lon="-6.01429489441216">
        <ele>1635.8199999999999</ele>
        <time>2019-03-12T12:24:01Z</time>
      </trkpt>
      <trkpt lat="31.431814944371581" lon="-6.014356585219502">
        <ele>1636.3</ele>
        <time>2019-03-12T12:24:02Z</time>
      </trkpt>
      <trkpt lat="31.43169030547142" lon="-6.014404529705644">
        <ele>1636.3</ele>
        <time>2019-03-12T12:24:03Z</time>
      </trkpt>
      <trkpt lat="31.431558458134532" lon="-6.01443218998611">
        <ele>1635.8199999999999</ele>
        <time>2019-03-12T12:24:04Z</time>
      </trkpt>
      <trkpt lat="31.431424263864756" lon="-6.014427579939365">
        <ele>1635.3399999999999</ele>
        <time>2019-03-12T12:24:05Z</time>
      </trkpt>
      <trkpt lat="31.431294595822692" lon="-6.014387011528015">
        <ele>1634.3800000000001</ele>
        <time>2019-03-12T12:24:06Z</time>
      </trkpt>
      <trkpt lat="31.431175405159593" lon="-6.014310820028186">
        <ele>1633.9000000000001</ele>
        <time>2019-03-12T12:24:14Z</time>
      </trkpt>
      <trkpt lat="31.431069625541568" lon="-6.014207303524017">
        <ele>1632.9400000000001</ele>
        <time>2019-03-12T12:24:15Z</time>
      </trkpt>
      <trkpt lat="31.430971221998334" lon="-6.014098338782787">
        <ele>1632.46</ele>
        <time>2019-03-12T12:24:16Z</time>
      </trkpt>
      <trkpt lat="31.430869968608022" lon="-6.013999935239554">
        <ele>1631.49</ele>
        <time>2019-03-12T12:24:20Z</time>
      </trkpt>
      <trkpt lat="31.430761087685823" lon="-6.01392013952136">
        <ele>1630.53</ele>
        <time>2019-03-12T12:24:21Z</time>
      </trkpt>
      <trkpt lat="31.43064558506012" lon="-6.013861130923033">
        <ele>1629.5699999999999</ele>
        <time>2019-03-12T12:24:22Z</time>
      </trkpt>
      <trkpt lat="31.430526897311211" lon="-6.013823831453919">
        <ele>1628.6099999999999</ele>
        <time>2019-03-12T12:24:23Z</time>
      </trkpt>
      <trkpt lat="31.430403767153621" lon="-6.013811845332384">
        <ele>1627.1700000000001</ele>
        <time>2019-03-12T12:24:24Z</time>
      </trkpt>
      <trkpt lat="31.430273596197367" lon="-6.013824502006173">
        <ele>1612.75</ele>
        <time>2019-03-12T12:24:27Z</time>
      </trkpt>
      <trkpt lat="31.430138312280178" lon="-6.013854593038559">
        <ele>1611.3099999999999</ele>
        <time>2019-03-12T12:24:29Z</time>
      </trkpt>
      <trkpt lat="31.429999256506562" lon="-6.013889964669943">
        <ele>1609.8599999999999</ele>
        <time>2019-03-12T12:24:30Z</time>
      </trkpt>
      <trkpt lat="31.428841883316636" lon="-6.014216188341379">
        <ele>1603.6199999999999</ele>
        <time>2019-03-12T12:24:31Z</time>
      </trkpt>
      <trkpt lat="31.42870232462883" lon="-6.014216942712665">
        <ele>1602.6600000000001</ele>
        <time>2019-03-12T12:24:32Z</time>
      </trkpt>
      <trkpt lat="31.428565196692944" lon="-6.014196993783116">
        <ele>1601.21</ele>
        <time>2019-03-12T12:24:33Z</time>
      </trkpt>
      <trkpt lat="31.42808080650866" lon="-6.014097165316343">
        <ele>1600.25</ele>
        <time>2019-03-12T12:24:34Z</time>
      </trkpt>
      <trkpt lat="31.427973601967096" lon="-6.014102026820183">
        <ele>1599.29</ele>
        <time>2019-03-12T12:24:42Z</time>
      </trkpt>
      <trkpt lat="31.427867989987135" lon="-6.014134716242552">
        <ele>1598.3299999999999</ele>
        <time>2019-03-12T12:24:43Z</time>
      </trkpt>
      <trkpt lat="31.427762545645237" lon="-6.01419523358345">
        <ele>1597.8499999999999</ele>
        <time>2019-03-12T12:24:44Z</time>
      </trkpt>
      <trkpt lat="31.427657604217529" lon="-6.014270922169089">
        <ele>1597.8499999999999</ele>
        <time>2019-03-12T12:24:45Z</time>
      </trkpt>
      <trkpt lat="31.427333056926727" lon="-6.014491450041533">
        <ele>1597.8499999999999</ele>
        <time>2019-03-12T12:24:46Z</time>
      </trkpt>
      <trkpt lat="31.427119569852948" lon="-6.014571916311979">
        <ele>1597.8499999999999</ele>
        <time>2019-03-12T12:24:47Z</time>
      </trkpt>
      <trkpt lat="31.427011108025908" lon="-6.014563199132681">
        <ele>1597.8499999999999</ele>
        <time>2019-03-12T12:24:48Z</time>
      </trkpt>
      <trkpt lat="31.426905579864979" lon="-6.014520954340696">
        <ele>1598.3299999999999</ele>
        <time>2019-03-12T12:24:49Z</time>
      </trkpt>
      <trkpt lat="31.42680985853076" lon="-6.01444635540247">
        <ele>1602.1700000000001</ele>
        <time>2019-03-12T12:24:56Z</time>
      </trkpt>
      <trkpt lat="31.426725788041949" lon="-6.01435599848628">
        <ele>1603.1400000000001</ele>
        <time>2019-03-12T12:24:57Z</time>
      </trkpt>
      <trkpt lat="31.426644818857312" lon="-6.014262707903981">
        <ele>1603.6199999999999</ele>
        <time>2019-03-12T12:24:58Z</time>
      </trkpt>
      <trkpt lat="31.425735801458359" lon="-6.013566507026553">
        <ele>1604.5799999999999</ele>
        <time>2019-03-12T12:24:59Z</time>
      </trkpt>
      <trkpt lat="31.425627674907446" lon="-6.013465253636241">
        <ele>1605.0599999999999</ele>
        <time>2019-03-12T12:25:00Z</time>
      </trkpt>
      <trkpt lat="31.425531702116132" lon="-6.013356288895011">
        <ele>1605.54</ele>
        <time>2019-03-12T12:25:01Z</time>
      </trkpt>
      <trkpt lat="31.425443943589926" lon="-6.01325411349535">
        <ele>1606.5</ele>
        <time>2019-03-12T12:25:03Z</time>
      </trkpt>
      <trkpt lat="31.425349982455373" lon="-6.01317347958684">
        <ele>1606.98</ele>
        <time>2019-03-12T12:25:04Z</time>
      </trkpt>
      <trkpt lat="31.425245041027665" lon="-6.013111956417561">
        <ele>1608.4200000000001</ele>
        <time>2019-03-12T12:25:05Z</time>
      </trkpt>
      <trkpt lat="31.425132136791945" lon="-6.013059569522739">
        <ele>1608.4200000000001</ele>
        <time>2019-03-12T12:25:06Z</time>
      </trkpt>
      <trkpt lat="31.425015376880765" lon="-6.013005841523409">
        <ele>1608.4200000000001</ele>
        <time>2019-03-12T12:25:07Z</time>
      </trkpt>
      <trkpt lat="31.424196967855096" lon="-6.01234040223062">
        <ele>1608.4200000000001</ele>
        <time>2019-03-12T12:25:08Z</time>
      </trkpt>
      <trkpt lat="31.424097726121545" lon="-6.012208051979542">
        <ele>1607.9400000000001</ele>
        <time>2019-03-12T12:25:09Z</time>
      </trkpt>
      <trkpt lat="31.424017427489161" lon="-6.012059859931469">
        <ele>1607.9400000000001</ele>
        <time>2019-03-12T12:25:10Z</time>
      </trkpt>
      <trkpt lat="31.423961604014039" lon="-6.011899849399924">
        <ele>1607.9400000000001</ele>
        <time>2019-03-12T12:25:12Z</time>
      </trkpt>
      <trkpt lat="31.423926232382655" lon="-6.011737240478396">
        <ele>1607.9400000000001</ele>
        <time>2019-03-12T12:25:13Z</time>
      </trkpt>
      <trkpt lat="31.423901673406363" lon="-6.011579157784581">
        <ele>1608.4200000000001</ele>
        <time>2019-03-12T12:25:14Z</time>
      </trkpt>
      <trkpt lat="31.423850376158953" lon="-6.011319570243359">
        <ele>1608.4200000000001</ele>
        <time>2019-03-12T12:25:15Z</time>
      </trkpt>
      <trkpt lat="31.423806790262461" lon="-6.011236421763897">
        <ele>1608.9000000000001</ele>
        <time>2019-03-12T12:25:16Z</time>
      </trkpt>
      <trkpt lat="31.423749038949609" lon="-6.011190321296454">
        <ele>1608.9000000000001</ele>
        <time>2019-03-12T12:25:17Z</time>
      </trkpt>
      <trkpt lat="31.423681564629078" lon="-6.01117841899395">
        <ele>1608.9000000000001</ele>
        <time>2019-03-12T12:25:24Z</time>
      </trkpt>
      <trkpt lat="31.423611408099532" lon="-6.011191410943866">
        <ele>1609.3800000000001</ele>
        <time>2019-03-12T12:25:25Z</time>
      </trkpt>
      <trkpt lat="31.423540748655796" lon="-6.011225357651711">
        <ele>1609.3800000000001</ele>
        <time>2019-03-12T12:25:26Z</time>
      </trkpt>
      <trkpt lat="31.423472100868821" lon="-6.011271541938186">
        <ele>1609.3800000000001</ele>
        <time>2019-03-12T12:25:27Z</time>
      </trkpt>
      <trkpt lat="31.423400603234768" lon="-6.011322000995278">
        <ele>1608.9000000000001</ele>
        <time>2019-03-12T12:25:28Z</time>
      </trkpt>
      <trkpt lat="31.423235144466162" lon="-6.011431301012635">
        <ele>1608.9000000000001</ele>
        <time>2019-03-12T12:25:29Z</time>
      </trkpt>
      <trkpt lat="31.42313732765615" lon="-6.011474216356874">
        <ele>1608.9000000000001</ele>
        <time>2019-03-12T12:25:41Z</time>
      </trkpt>
      <trkpt lat="31.423029787838459" lon="-6.01149944588542">
        <ele>1608.4200000000001</ele>
        <time>2019-03-12T12:25:42Z</time>
      </trkpt>
      <trkpt lat="31.422914788126945" lon="-6.01150288246572">
        <ele>1607.9400000000001</ele>
        <time>2019-03-12T12:25:51Z</time>
      </trkpt>
      <trkpt lat="31.422796854749322" lon="-6.011492405086756">
        <ele>1607.9400000000001</ele>
        <time>2019-03-12T12:25:52Z</time>
      </trkpt>
      <trkpt lat="31.422680765390396" lon="-6.011470444500446">
        <ele>1607.46</ele>
        <time>2019-03-12T12:25:53Z</time>
      </trkpt>
      <trkpt lat="31.421829583123326" lon="-6.011246647685766">
        <ele>1606.98</ele>
        <time>2019-03-12T12:25:54Z</time>
      </trkpt>
      <trkpt lat="31.421724390238523" lon="-6.011186465620995">
        <ele>1606.5</ele>
        <time>2019-03-12T12:25:55Z</time>
      </trkpt>
      <trkpt lat="31.421637553721666" lon="-6.011096779257059">
        <ele>1605.54</ele>
        <time>2019-03-12T12:25:56Z</time>
      </trkpt>
      <trkpt lat="31.421567313373089" lon="-6.010982450097799">
        <ele>1596.4100000000001</ele>
        <time>2019-03-12T12:25:57Z</time>
      </trkpt>
      <trkpt lat="31.421508891507983" lon="-6.010852698236704">
        <ele>1595.9300000000001</ele>
        <time>2019-03-12T12:25:58Z</time>
      </trkpt>
      <trkpt lat="31.421456253156066" lon="-6.010715989395976">
        <ele>1592.5599999999999</ele>
        <time>2019-03-12T12:25:59Z</time>
      </trkpt>
      <trkpt lat="31.420762566849589" lon="-6.008969955146313">
        <ele>1592.0799999999999</ele>
        <time>2019-03-12T12:26:03Z</time>
      </trkpt>
      <trkpt lat="31.42068344168365" lon="-6.008852524682879">
        <ele>1591.5999999999999</ele>
        <time>2019-03-12T12:26:04Z</time>
      </trkpt>
      <trkpt lat="31.419786242768168" lon="-6.00788164883852">
        <ele>1591.1199999999999</ele>
        <time>2019-03-12T12:26:05Z</time>
      </trkpt>
      <trkpt lat="31.419695718213916" lon="-6.007755165919662">
        <ele>1590.6400000000001</ele>
        <time>2019-03-12T12:26:06Z</time>
      </trkpt>
      <trkpt lat="31.419616676867008" lon="-6.007620301097632">
        <ele>1590.1600000000001</ele>
        <time>2019-03-12T12:26:07Z</time>
      </trkpt>
      <trkpt lat="31.419554483145475" lon="-6.007479736581445">
        <ele>1589.6800000000001</ele>
        <time>2019-03-12T12:26:08Z</time>
      </trkpt>
      <trkpt lat="31.41951022669673" lon="-6.007337411865592">
        <ele>1589.2</ele>
        <time>2019-03-12T12:26:09Z</time>
      </trkpt>
      <trkpt lat="31.419475860893726" lon="-6.007191482931376">
        <ele>1588.72</ele>
        <time>2019-03-12T12:26:11Z</time>
      </trkpt>
      <trkpt lat="31.419452307745814" lon="-6.007042787969112">
        <ele>1587.75</ele>
        <time>2019-03-12T12:26:12Z</time>
      </trkpt>
      <trkpt lat="31.419436717405915" lon="-6.006892584264278">
        <ele>1587.27</ele>
        <time>2019-03-12T12:26:20Z</time>
      </trkpt>
      <trkpt lat="31.419426910579205" lon="-6.00674020126462">
        <ele>1586.79</ele>
        <time>2019-03-12T12:26:29Z</time>
      </trkpt>
      <trkpt lat="31.41936119645834" lon="-6.006186995655298">
        <ele>1586.79</ele>
        <time>2019-03-12T12:26:36Z</time>
      </trkpt>
      <trkpt lat="31.419307384639978" lon="-6.006076941266656">
        <ele>1586.79</ele>
        <time>2019-03-12T12:26:44Z</time>
      </trkpt>
      <trkpt lat="31.419231947511435" lon="-6.005987506359816">
        <ele>1586.79</ele>
        <time>2019-03-12T12:26:52Z</time>
      </trkpt>
      <trkpt lat="31.419136812910438" lon="-6.005914667621255">
        <ele>1586.79</ele>
        <time>2019-03-12T12:26:53Z</time>
      </trkpt>
      <trkpt lat="31.419028183445334" lon="-6.005859514698386">
        <ele>1586.79</ele>
        <time>2019-03-12T12:26:54Z</time>
      </trkpt>
      <trkpt lat="31.418907484039664" lon="-6.005823807790875">
        <ele>1586.79</ele>
        <time>2019-03-12T12:26:55Z</time>
      </trkpt>
      <trkpt lat="31.418778570368886" lon="-6.005800003185868">
        <ele>1584.3900000000001</ele>
        <time>2019-03-12T12:26:56Z</time>
      </trkpt>
      <trkpt lat="31.41850171610713" lon="-6.005733450874686">
        <ele>1583.4300000000001</ele>
        <time>2019-03-12T12:26:57Z</time>
      </trkpt>
      <trkpt lat="31.418358804658055" lon="-6.005678633227944">
        <ele>1581.51</ele>
        <time>2019-03-12T12:26:58Z</time>
      </trkpt>
      <trkpt lat="31.417254656553268" lon="-6.00493717007339">
        <ele>1579.5799999999999</ele>
        <time>2019-03-12T12:26:59Z</time>
      </trkpt>
      <trkpt lat="31.415935009717941" lon="-6.004306431859732">
        <ele>1581.03</ele>
        <time>2019-03-12T12:27:00Z</time>
      </trkpt>
      <trkpt lat="31.415175776928663" lon="-6.003813575953245">
        <ele>1581.51</ele>
        <time>2019-03-12T12:27:04Z</time>
      </trkpt>
      <trkpt lat="31.414215713739395" lon="-6.00307596847415">
        <ele>1581.99</ele>
        <time>2019-03-12T12:27:05Z</time>
      </trkpt>
      <trkpt lat="31.413419516757131" lon="-6.002075336873531">
        <ele>1582.47</ele>
        <time>2019-03-12T12:27:06Z</time>
      </trkpt>
      <trkpt lat="31.413336619734764" lon="-6.002012807875872">
        <ele>1582.95</ele>
        <time>2019-03-12T12:27:07Z</time>
      </trkpt>
      <trkpt lat="31.41326311044395" lon="-6.001981040462852">
        <ele>1583.4300000000001</ele>
        <time>2019-03-12T12:27:08Z</time>
      </trkpt>
      <trkpt lat="31.41319714486599" lon="-6.001983555033803">
        <ele>1582.95</ele>
        <time>2019-03-12T12:27:09Z</time>
      </trkpt>
      <trkpt lat="31.41314291395247" lon="-6.002023369073868">
        <ele>1582.95</ele>
        <time>2019-03-12T12:27:10Z</time>
      </trkpt>
      <trkpt lat="31.413108548149467" lon="-6.002091262489557">
        <ele>1582.47</ele>
        <time>2019-03-12T12:27:11Z</time>
      </trkpt>
      <trkpt lat="31.413091532886028" lon="-6.002171980217099">
        <ele>1581.99</ele>
        <time>2019-03-12T12:27:12Z</time>
      </trkpt>
      <trkpt lat="31.413083067163825" lon="-6.002258062362671">
        <ele>1581.99</ele>
        <time>2019-03-12T12:27:13Z</time>
      </trkpt>
      <trkpt lat="31.413078373298049" lon="-6.002353867515922">
        <ele>1581.99</ele>
        <time>2019-03-12T12:27:14Z</time>
      </trkpt>
      <trkpt lat="31.413034871220589" lon="-6.00282040424645">
        <ele>1581.99</ele>
        <time>2019-03-12T12:27:23Z</time>
      </trkpt>
      <trkpt lat="31.413000505417585" lon="-6.002934146672487">
        <ele>1581.99</ele>
        <time>2019-03-12T12:27:25Z</time>
      </trkpt>
      <trkpt lat="31.412945436313748" lon="-6.00303104147315">
        <ele>1581.99</ele>
        <time>2019-03-12T12:27:26Z</time>
      </trkpt>
      <trkpt lat="31.412869915366173" lon="-6.003100108355284">
        <ele>1581.51</ele>
        <time>2019-03-12T12:27:27Z</time>
      </trkpt>
      <trkpt lat="31.412781402468681" lon="-6.003137826919556">
        <ele>1581.03</ele>
        <time>2019-03-12T12:27:28Z</time>
      </trkpt>
      <trkpt lat="31.412686854600906" lon="-6.003137826919556">
        <ele>1581.03</ele>
        <time>2019-03-12T12:27:29Z</time>
      </trkpt>
      <trkpt lat="31.412590127438307" lon="-6.00310186855495">
        <ele>1580.0599999999999</ele>
        <time>2019-03-12T12:27:30Z</time>
      </trkpt>
      <trkpt lat="31.412507146596909" lon="-6.003026263788343">
        <ele>1579.5799999999999</ele>
        <time>2019-03-12T12:27:39Z</time>
      </trkpt>
      <trkpt lat="31.41244419850409" lon="-6.002912689000368">
        <ele>1576.7</ele>
        <time>2019-03-12T12:27:50Z</time>
      </trkpt>
      <trkpt lat="31.412395415827632" lon="-6.002773465588689">
        <ele>1576.22</ele>
        <time>2019-03-12T12:27:53Z</time>
      </trkpt>
      <trkpt lat="31.412348477169871" lon="-6.002623932436109">
        <ele>1575.74</ele>
        <time>2019-03-12T12:27:54Z</time>
      </trkpt>
      <trkpt lat="31.412155022844672" lon="-6.001163218170404">
        <ele>1576.22</ele>
        <time>2019-03-12T12:27:55Z</time>
      </trkpt>
      <trkpt lat="31.412155693396926" lon="-6.000817380845547">
        <ele>1575.74</ele>
        <time>2019-03-12T12:27:56Z</time>
      </trkpt>
      <trkpt lat="31.412184862419963" lon="-6.000634068623185">
        <ele>1575.26</ele>
        <time>2019-03-12T12:27:57Z</time>
      </trkpt>
      <trkpt lat="31.412232220172882" lon="-6.000446313992143">
        <ele>1574.78</ele>
        <time>2019-03-12T12:27:58Z</time>
      </trkpt>
      <trkpt lat="31.412299945950508" lon="-6.000253781676292">
        <ele>1571.4100000000001</ele>
        <time>2019-03-12T12:27:59Z</time>
      </trkpt>
      <trkpt lat="31.412381920963526" lon="-6.000057980418205">
        <ele>1572.8499999999999</ele>
        <time>2019-03-12T12:28:00Z</time>
      </trkpt>
      <trkpt lat="31.412476301193237" lon="-5.999857150018215">
        <ele>1572.8499999999999</ele>
        <time>2019-03-12T12:28:01Z</time>
      </trkpt>
      <trkpt lat="31.413521021604538" lon="-5.998137518763542">
        <ele>1572.8499999999999</ele>
        <time>2019-03-12T12:28:02Z</time>
      </trkpt>
      <trkpt lat="31.414887439459562" lon="-5.996404560282826">
        <ele>1572.8499999999999</ele>
        <time>2019-03-12T12:28:03Z</time>
      </trkpt>
      <trkpt lat="31.415188685059547" lon="-5.99610080011189">
        <ele>1572.8499999999999</ele>
        <time>2019-03-12T12:28:04Z</time>
      </trkpt>
      <trkpt lat="31.415252890437841" lon="-5.9960070066154">
        <ele>1572.8499999999999</ele>
        <time>2019-03-12T12:28:05Z</time>
      </trkpt>
      <trkpt lat="31.415292704477906" lon="-5.995913045480847">
        <ele>1573.3299999999999</ele>
        <time>2019-03-12T12:28:10Z</time>
      </trkpt>
      <trkpt lat="31.415304774418473" lon="-5.99581933580339">
        <ele>1573.3299999999999</ele>
        <time>2019-03-12T12:28:11Z</time>
      </trkpt>
      <trkpt lat="31.41528214327991" lon="-5.995726296678186">
        <ele>1573.3299999999999</ele>
        <time>2019-03-12T12:28:12Z</time>
      </trkpt>
      <trkpt lat="31.415230510756373" lon="-5.995644070208073">
        <ele>1573.8199999999999</ele>
        <time>2019-03-12T12:28:13Z</time>
      </trkpt>
      <trkpt lat="31.415164712816477" lon="-5.995572656393051">
        <ele>1573.8199999999999</ele>
        <time>2019-03-12T12:28:14Z</time>
      </trkpt>
      <trkpt lat="31.415086761116982" lon="-5.995504427701235">
        <ele>1573.8199999999999</ele>
        <time>2019-03-12T12:28:15Z</time>
      </trkpt>
      <trkpt lat="31.414999924600124" lon="-5.995445251464844">
        <ele>1573.8199999999999</ele>
        <time>2019-03-12T12:28:16Z</time>
      </trkpt>
      <trkpt lat="31.414904035627842" lon="-5.99539814516902">
        <ele>1573.8199999999999</ele>
        <time>2019-03-12T12:28:17Z</time>
      </trkpt>
      <trkpt lat="31.414800183847547" lon="-5.995363611727953">
        <ele>1573.8199999999999</ele>
        <time>2019-03-12T12:28:29Z</time>
      </trkpt>
      <trkpt lat="31.414691805839539" lon="-5.995336454361677">
        <ele>1573.8199999999999</ele>
        <time>2019-03-12T12:28:38Z</time>
      </trkpt>
      <trkpt lat="31.414578063413501" lon="-5.99531315267086">
        <ele>1573.3299999999999</ele>
        <time>2019-03-12T12:28:39Z</time>
      </trkpt>
      <trkpt lat="31.413968531414866" lon="-5.995153142139316">
        <ele>1573.3299999999999</ele>
        <time>2019-03-12T12:28:40Z</time>
      </trkpt>
      <trkpt lat="31.413856549188495" lon="-5.995096396654844">
        <ele>1572.8499999999999</ele>
        <time>2019-03-12T12:28:41Z</time>
      </trkpt>
      <trkpt lat="31.413754625245929" lon="-5.995016684755683">
        <ele>1572.8499999999999</ele>
        <time>2019-03-12T12:28:42Z</time>
      </trkpt>
      <trkpt lat="31.413671644404531" lon="-5.994909899309278">
        <ele>1572.3699999999999</ele>
        <time>2019-03-12T12:28:43Z</time>
      </trkpt>
      <trkpt lat="31.413615988567472" lon="-5.994779393076897">
        <ele>1571.8900000000001</ele>
        <time>2019-03-12T12:28:44Z</time>
      </trkpt>
      <trkpt lat="31.413588579744101" lon="-5.994633715599775">
        <ele>1568.53</ele>
        <time>2019-03-12T12:28:45Z</time>
      </trkpt>
      <trkpt lat="31.413574917241931" lon="-5.994482003152371">
        <ele>1567.0899999999999</ele>
        <time>2019-03-12T12:28:46Z</time>
      </trkpt>
      <trkpt lat="31.413566619157791" lon="-5.994328362867236">
        <ele>1567.0899999999999</ele>
        <time>2019-03-12T12:28:47Z</time>
      </trkpt>
      <trkpt lat="31.413373500108719" lon="-5.992349311709404">
        <ele>1567.0899999999999</ele>
        <time>2019-03-12T12:28:48Z</time>
      </trkpt>
      <trkpt lat="31.413015006110072" lon="-5.990759851410985">
        <ele>1567.0899999999999</ele>
        <time>2019-03-12T12:28:49Z</time>
      </trkpt>
      <trkpt lat="31.412943005561829" lon="-5.990605037659407">
        <ele>1567.0899999999999</ele>
        <time>2019-03-12T12:28:50Z</time>
      </trkpt>
      <trkpt lat="31.412857929244637" lon="-5.990457097068429">
        <ele>1567.0899999999999</ele>
        <time>2019-03-12T12:28:51Z</time>
      </trkpt>
      <trkpt lat="31.412766566500068" lon="-5.990318460389972">
        <ele>1567.0899999999999</ele>
        <time>2019-03-12T12:28:52Z</time>
      </trkpt>
      <trkpt lat="31.412671012803912" lon="-5.990192731842399">
        <ele>1567.0899999999999</ele>
        <time>2019-03-12T12:29:00Z</time>
      </trkpt>
      <trkpt lat="31.412569172680378" lon="-5.990079827606678">
        <ele>1567.0899999999999</ele>
        <time>2019-03-12T12:29:05Z</time>
      </trkpt>
      <trkpt lat="31.41246079467237" lon="-5.989981172606349">
        <ele>1567.5699999999999</ele>
        <time>2019-03-12T12:29:06Z</time>
      </trkpt>
      <trkpt lat="31.412345375865698" lon="-5.989896766841412">
        <ele>1567.5699999999999</ele>
        <time>2019-03-12T12:29:07Z</time>
      </trkpt>
      <trkpt lat="31.412220150232315" lon="-5.989827029407024">
        <ele>1567.5699999999999</ele>
        <time>2019-03-12T12:29:08Z</time>
      </trkpt>
      <trkpt lat="31.41209039837122" lon="-5.989767853170633">
        <ele>1567.5699999999999</ele>
        <time>2019-03-12T12:29:09Z</time>
      </trkpt>
      <trkpt lat="31.411959137767553" lon="-5.989722590893507">
        <ele>1567.0899999999999</ele>
        <time>2019-03-12T12:29:10Z</time>
      </trkpt>
      <trkpt lat="31.411825697869062" lon="-5.989703899249435">
        <ele>1566.6099999999999</ele>
        <time>2019-03-12T12:29:16Z</time>
      </trkpt>
      <trkpt lat="31.411687145009637" lon="-5.98971395753324">
        <ele>1564.6800000000001</ele>
        <time>2019-03-12T12:29:17Z</time>
      </trkpt>
      <trkpt lat="31.41154850833118" lon="-5.989739773795009">
        <ele>1563.24</ele>
        <time>2019-03-12T12:29:26Z</time>
      </trkpt>
      <trkpt lat="31.411412637680769" lon="-5.989772211760283">
        <ele>1563.24</ele>
        <time>2019-03-12T12:29:27Z</time>
      </trkpt>
      <trkpt lat="31.410289378836751" lon="-5.990292644128203">
        <ele>1563.24</ele>
        <time>2019-03-12T12:29:28Z</time>
      </trkpt>
      <trkpt lat="31.409573229029775" lon="-5.990521721541882">
        <ele>1563.24</ele>
        <time>2019-03-12T12:29:38Z</time>
      </trkpt>
      <trkpt lat="31.409458145499229" lon="-5.990594308823347">
        <ele>1563.24</ele>
        <time>2019-03-12T12:29:39Z</time>
      </trkpt>
      <trkpt lat="31.409353371709585" lon="-5.990690868347883">
        <ele>1563.24</ele>
        <time>2019-03-12T12:29:41Z</time>
      </trkpt>
      <trkpt lat="31.409256560727954" lon="-5.990804275497794">
        <ele>1563.24</ele>
        <time>2019-03-12T12:29:42Z</time>
      </trkpt>
      <trkpt lat="31.409164359793067" lon="-5.990930590778589">
        <ele>1563.72</ele>
        <time>2019-03-12T12:29:45Z</time>
      </trkpt>
      <trkpt lat="31.40907509252429" lon="-5.991068221628666">
        <ele>1565.6400000000001</ele>
        <time>2019-03-12T12:29:46Z</time>
      </trkpt>
      <trkpt lat="31.408371096476912" lon="-5.991798033937812">
        <ele>1566.1199999999999</ele>
        <time>2019-03-12T12:29:57Z</time>
      </trkpt>
      <trkpt lat="31.408221479505301" lon="-5.991883529350162">
        <ele>1566.6099999999999</ele>
        <time>2019-03-12T12:30:05Z</time>
      </trkpt>
      <trkpt lat="31.406754646450281" lon="-5.992272784933448">
        <ele>1570.45</ele>
        <time>2019-03-12T12:30:15Z</time>
      </trkpt>
      <trkpt lat="31.406590864062309" lon="-5.99225333891809">
        <ele>1570.45</ele>
        <time>2019-03-12T12:30:25Z</time>
      </trkpt>
      <trkpt lat="31.406430518254638" lon="-5.992209417745471">
        <ele>1569.49</ele>
        <time>2019-03-12T12:30:35Z</time>
      </trkpt>
      <trkpt lat="31.404865616932511" lon="-5.991539619863033">
        <ele>1569.01</ele>
        <time>2019-03-12T12:30:36Z</time>
      </trkpt>
      <trkpt lat="31.404713988304138" lon="-5.991505840793252">
        <ele>1568.05</ele>
        <time>2019-03-12T12:30:37Z</time>
      </trkpt>
      <trkpt lat="31.404408551752567" lon="-5.991441383957863">
        <ele>1567.5699999999999</ele>
        <time>2019-03-12T12:30:38Z</time>
      </trkpt>
      <trkpt lat="31.404252648353577" lon="-5.991388829424977">
        <ele>1565.6400000000001</ele>
        <time>2019-03-12T12:30:39Z</time>
      </trkpt>
      <trkpt lat="31.403795164078474" lon="-5.991163523867726">
        <ele>1568.53</ele>
        <time>2019-03-12T12:30:40Z</time>
      </trkpt>
      <trkpt lat="31.403659461066127" lon="-5.991059923544526">
        <ele>1570.9300000000001</ele>
        <time>2019-03-12T12:30:41Z</time>
      </trkpt>
      <trkpt lat="31.402300670742989" lon="-5.990002546459436">
        <ele>1569.01</ele>
        <time>2019-03-12T12:30:44Z</time>
      </trkpt>
      <trkpt lat="31.401064842939377" lon="-5.989729799330235">
        <ele>1566.6099999999999</ele>
        <time>2019-03-12T12:30:45Z</time>
      </trkpt>
      <trkpt lat="31.399363819509745" lon="-5.989825101569295">
        <ele>1566.1199999999999</ele>
        <time>2019-03-12T12:30:46Z</time>
      </trkpt>
      <trkpt lat="31.397874020040035" lon="-5.990470256656408">
        <ele>1565.1600000000001</ele>
        <time>2019-03-12T12:30:47Z</time>
      </trkpt>
      <trkpt lat="31.396637773141265" lon="-5.991444569081068">
        <ele>1564.6800000000001</ele>
        <time>2019-03-12T12:30:48Z</time>
      </trkpt>
      <trkpt lat="31.396515732631087" lon="-5.991538194939494">
        <ele>1563.72</ele>
        <time>2019-03-12T12:30:51Z</time>
      </trkpt>
      <trkpt lat="31.396386064589024" lon="-5.991612039506435">
        <ele>1562.76</ele>
        <time>2019-03-12T12:30:52Z</time>
      </trkpt>
      <trkpt lat="31.396244578063488" lon="-5.991662833839655">
        <ele>1562.28</ele>
        <time>2019-03-12T12:30:53Z</time>
      </trkpt>
      <trkpt lat="31.396091692149639" lon="-5.991689823567867">
        <ele>1558.4300000000001</ele>
        <time>2019-03-12T12:30:54Z</time>
      </trkpt>
      <trkpt lat="31.395931681618094" lon="-5.991697367280722">
        <ele>1557.47</ele>
        <time>2019-03-12T12:30:55Z</time>
      </trkpt>
      <trkpt lat="31.395767731592059" lon="-5.991700803861022">
        <ele>1556.51</ele>
        <time>2019-03-12T12:31:08Z</time>
      </trkpt>
      <trkpt lat="31.395290717482567" lon="-5.991738270968199">
        <ele>1556.03</ele>
        <time>2019-03-12T12:31:12Z</time>
      </trkpt>
      <trkpt lat="31.39513305388391" lon="-5.991778923198581">
        <ele>1556.03</ele>
        <time>2019-03-12T12:31:18Z</time>
      </trkpt>
      <trkpt lat="31.39498058706522" lon="-5.991845559328795">
        <ele>1556.03</ele>
        <time>2019-03-12T12:31:19Z</time>
      </trkpt>
      <trkpt lat="31.394833233207464" lon="-5.991939939558506">
        <ele>1556.03</ele>
        <time>2019-03-12T12:31:20Z</time>
      </trkpt>
      <trkpt lat="31.394690740853548" lon="-5.992052173241973">
        <ele>1555.55</ele>
        <time>2019-03-12T12:31:21Z</time>
      </trkpt>
      <trkpt lat="31.39424130320549" lon="-5.992366410791874">
        <ele>1555.55</ele>
        <time>2019-03-12T12:31:22Z</time>
      </trkpt>
      <trkpt lat="31.394070480018854" lon="-5.992441428825259">
        <ele>1555.55</ele>
        <time>2019-03-12T12:31:27Z</time>
      </trkpt>
      <trkpt lat="31.393892616033554" lon="-5.992497419938445">
        <ele>1555.0699999999999</ele>
        <time>2019-03-12T12:31:28Z</time>
      </trkpt>
      <trkpt lat="31.393707124516368" lon="-5.992533545941114">
        <ele>1556.99</ele>
        <time>2019-03-12T12:31:35Z</time>
      </trkpt>
      <trkpt lat="31.393517777323723" lon="-5.992555003613234">
        <ele>1555.55</ele>
        <time>2019-03-12T12:31:36Z</time>
      </trkpt>
      <trkpt lat="31.391041679307818" lon="-5.992698082700372">
        <ele>1555.0699999999999</ele>
        <time>2019-03-12T12:31:37Z</time>
      </trkpt>
      <trkpt lat="31.390321590006351" lon="-5.992556512355804">
        <ele>1555.0699999999999</ele>
        <time>2019-03-12T12:31:38Z</time>
      </trkpt>
      <trkpt lat="31.389390528202057" lon="-5.992088634520769">
        <ele>1554.5899999999999</ele>
        <time>2019-03-12T12:31:39Z</time>
      </trkpt>
      <trkpt lat="31.389267984777689" lon="-5.991981429979205">
        <ele>1554.1099999999999</ele>
        <time>2019-03-12T12:31:40Z</time>
      </trkpt>
      <trkpt lat="31.389154829084873" lon="-5.99185704253614">
        <ele>1549.78</ele>
        <time>2019-03-12T12:31:41Z</time>
      </trkpt>
      <trkpt lat="31.389050474390388" lon="-5.99172075279057">
        <ele>1549.3</ele>
        <time>2019-03-12T12:31:42Z</time>
      </trkpt>
      <trkpt lat="31.38894896954298" lon="-5.991577422246337">
        <ele>1546.9000000000001</ele>
        <time>2019-03-12T12:31:51Z</time>
      </trkpt>
      <trkpt lat="31.388405822217464" lon="-5.990876778960228">
        <ele>1546.9000000000001</ele>
        <time>2019-03-12T12:32:01Z</time>
      </trkpt>
      <trkpt lat="31.388270203024149" lon="-5.990765718743205">
        <ele>1546.4200000000001</ele>
        <time>2019-03-12T12:32:08Z</time>
      </trkpt>
      <trkpt lat="31.38728080317378" lon="-5.990151157602668">
        <ele>1546.9000000000001</ele>
        <time>2019-03-12T12:32:20Z</time>
      </trkpt>
      <trkpt lat="31.387146441265941" lon="-5.990125928074122">
        <ele>1546.9000000000001</ele>
        <time>2019-03-12T12:32:25Z</time>
      </trkpt>
      <trkpt lat="31.387008810415864" lon="-5.990127520635724">
        <ele>1547.3800000000001</ele>
        <time>2019-03-12T12:32:26Z</time>
      </trkpt>
      <trkpt lat="31.386870173737407" lon="-5.990147972479463">
        <ele>1547.8599999999999</ele>
        <time>2019-03-12T12:32:33Z</time>
      </trkpt>
      <trkpt lat="31.386734554544091" lon="-5.990184182301164">
        <ele>1548.3399999999999</ele>
        <time>2019-03-12T12:32:38Z</time>
      </trkpt>
      <trkpt lat="31.386606395244598" lon="-5.99024117924273">
        <ele>1552.6700000000001</ele>
        <time>2019-03-12T12:32:51Z</time>
      </trkpt>
      <trkpt lat="31.386485192924738" lon="-5.990313682705164">
        <ele>1555.0699999999999</ele>
        <time>2019-03-12T12:32:59Z</time>
      </trkpt>
      <trkpt lat="31.386363655328751" lon="-5.990390041843057">
        <ele>1552.1900000000001</ele>
        <time>2019-03-12T12:33:02Z</time>
      </trkpt>
      <trkpt lat="31.385112656280398" lon="-5.990972248837352">
        <ele>1549.78</ele>
        <time>2019-03-12T12:33:03Z</time>
      </trkpt>
      <trkpt lat="31.383762415498495" lon="-5.99208771251142">
        <ele>1549.78</ele>
        <time>2019-03-12T12:33:04Z</time>
      </trkpt>
      <trkpt lat="31.3825723528862" lon="-5.992489038035274">
        <ele>1549.78</ele>
        <time>2019-03-12T12:33:05Z</time>
      </trkpt>
      <trkpt lat="31.380490623414516" lon="-5.992877120152116">
        <ele>1553.1500000000001</ele>
        <time>2019-03-12T12:33:06Z</time>
      </trkpt>
      <trkpt lat="31.37965670786798" lon="-5.993189262226224">
        <ele>1554.5899999999999</ele>
        <time>2019-03-12T12:33:07Z</time>
      </trkpt>
      <trkpt lat="31.379486136138439" lon="-5.993212983012199">
        <ele>1551.71</ele>
        <time>2019-03-12T12:33:15Z</time>
      </trkpt>
      <trkpt lat="31.378319123759866" lon="-5.993164703249931">
        <ele>1548.3399999999999</ele>
        <time>2019-03-12T13:22:39Z</time>
      </trkpt>
      <trkpt lat="31.377572044730186" lon="-5.992926741018891">
        <ele>1547.8599999999999</ele>
        <time>2019-03-12T13:22:41Z</time>
      </trkpt>
      <trkpt lat="31.375643033534288" lon="-5.99265843629837">
        <ele>1547.3800000000001</ele>
        <time>2019-03-12T13:22:42Z</time>
      </trkpt>
      <trkpt lat="31.374861588701606" lon="-5.992557685822249">
        <ele>1546.9000000000001</ele>
        <time>2019-03-12T13:22:43Z</time>
      </trkpt>
      <trkpt lat="31.374708199873567" lon="-5.992533378303051">
        <ele>1546.4200000000001</ele>
        <time>2019-03-12T13:22:44Z</time>
      </trkpt>
      <trkpt lat="31.37466729618609" lon="-5.9925118368119">
        <ele>1546.4200000000001</ele>
        <time>2019-03-12T13:22:45Z</time>
      </trkpt>
      <trkpt lat="31.374639803543687" lon="-5.992467999458313">
        <ele>1545.9400000000001</ele>
        <time>2019-03-12T13:22:46Z</time>
      </trkpt>
      <trkpt lat="31.374627482146025" lon="-5.992408487945795">
        <ele>1539.6900000000001</ele>
        <time>2019-03-12T13:22:47Z</time>
      </trkpt>
      <trkpt lat="31.374627146869898" lon="-5.992338499054313">
        <ele>0</ele>
        <time>2019-03-12T13:22:59Z</time>
      </trkpt>
      <trkpt lat="31.374631589278579" lon="-5.992258619517088">
        <ele>0</ele>
        <time>2019-03-12T13:23:00Z</time>
      </trkpt>
      <trkpt lat="31.374683640897274" lon="-5.991288246586919">
        <ele>0</ele>
        <time>2019-03-12T13:23:01Z</time>
      </trkpt>
      <trkpt lat="31.374684646725655" lon="-5.991196129471064">
        <ele>0</ele>
        <time>2019-03-12T13:23:15Z</time>
      </trkpt>
      <trkpt lat="31.374684562906623" lon="-5.989885702729225">
        <ele>0</ele>
        <time>2019-03-12T13:23:18Z</time>
      </trkpt>
      <trkpt lat="31.374665116891265" lon="-5.989258736371994">
        <ele>0</ele>
        <time>2019-03-12T13:23:19Z</time>
      </trkpt>
      <trkpt lat="31.374550284817815" lon="-5.988845927640796">
        <ele>0</ele>
        <time>2019-03-12T13:23:20Z</time>
      </trkpt>
      <trkpt lat="31.374376276507974" lon="-5.988425826653838">
        <ele>0</ele>
        <time>2019-03-12T13:23:21Z</time>
      </trkpt>
      <trkpt lat="31.374128255993128" lon="-5.988129442557693">
        <ele>0</ele>
        <time>2019-03-12T13:23:22Z</time>
      </trkpt>
      <trkpt lat="31.373835476115346" lon="-5.987800620496273">
        <ele>0</ele>
        <time>2019-03-12T13:23:23Z</time>
      </trkpt>
      <trkpt lat="31.373146399855614" lon="-5.987097043544054">
        <ele>1558.9200000000001</ele>
        <time>2019-03-12T13:23:37Z</time>
      </trkpt>
      <trkpt lat="31.372533850371838" lon="-5.986459432169795">
        <ele>1559.4000000000001</ele>
        <time>2019-03-12T13:23:38Z</time>
      </trkpt>
      <trkpt lat="31.372119449079037" lon="-5.986009323969483">
        <ele>1559.8800000000001</ele>
        <time>2019-03-12T13:23:39Z</time>
      </trkpt>
      <trkpt lat="31.371977208182216" lon="-5.985900778323412">
        <ele>1560.3599999999999</ele>
        <time>2019-03-12T13:23:45Z</time>
      </trkpt>
      <trkpt lat="31.37189045548439" lon="-5.985837327316403">
        <ele>1560.8399999999999</ele>
        <time>2019-03-12T13:23:47Z</time>
      </trkpt>
      <trkpt lat="31.371847121044993" lon="-5.98580346442759">
        <ele>1561.8</ele>
        <time>2019-03-12T13:23:48Z</time>
      </trkpt>
      <trkpt lat="31.371795739978552" lon="-5.985773960128427">
        <ele>1562.28</ele>
        <time>2019-03-12T13:23:49Z</time>
      </trkpt>
      <trkpt lat="31.371739413589239" lon="-5.985749652609229">
        <ele>1562.76</ele>
        <time>2019-03-12T13:23:50Z</time>
      </trkpt>
      <trkpt lat="31.371676465496421" lon="-5.985730541869998">
        <ele>1569.97</ele>
        <time>2019-03-12T13:23:51Z</time>
      </trkpt>
      <trkpt lat="31.371607566252351" lon="-5.98571402952075">
        <ele>1570.9300000000001</ele>
        <time>2019-03-12T13:23:52Z</time>
      </trkpt>
      <trkpt lat="31.371532883495092" lon="-5.985703133046627">
        <ele>1571.4100000000001</ele>
        <time>2019-03-12T13:24:07Z</time>
      </trkpt>
      <trkpt lat="31.370451785624027" lon="-5.985718639567494">
        <ele>1578.6199999999999</ele>
        <time>2019-03-12T13:24:20Z</time>
      </trkpt>
      <trkpt lat="31.370355812832713" lon="-5.985750742256641">
        <ele>1581.03</ele>
        <time>2019-03-12T13:24:32Z</time>
      </trkpt>
      <trkpt lat="31.370261935517192" lon="-5.985789299011231">
        <ele>1582.47</ele>
        <time>2019-03-12T13:24:34Z</time>
      </trkpt>
      <trkpt lat="31.368934325873852" lon="-5.986532270908356">
        <ele>1583.4300000000001</ele>
        <time>2019-03-12T13:24:35Z</time>
      </trkpt>
      <trkpt lat="31.368699129670858" lon="-5.986710302531719">
        <ele>1583.9100000000001</ele>
        <time>2019-03-12T13:24:36Z</time>
      </trkpt>
      <trkpt lat="31.368617070838809" lon="-5.986747350543737">
        <ele>1584.3900000000001</ele>
        <time>2019-03-12T13:24:37Z</time>
      </trkpt>
      <trkpt lat="31.368536520749331" lon="-5.986769227311015">
        <ele>1584.8699999999999</ele>
        <time>2019-03-12T13:24:38Z</time>
      </trkpt>
      <trkpt lat="31.368457144126296" lon="-5.986777860671282">
        <ele>1591.5999999999999</ele>
        <time>2019-03-12T13:24:39Z</time>
      </trkpt>
      <trkpt lat="31.368377013131976" lon="-5.986779453232884">
        <ele>1592.0799999999999</ele>
        <time>2019-03-12T13:24:50Z</time>
      </trkpt>
      <trkpt lat="31.368298307061195" lon="-5.986778363585472">
        <ele>1592.5599999999999</ele>
        <time>2019-03-12T13:25:03Z</time>
      </trkpt>
      <trkpt lat="31.367140347138047" lon="-5.986896716058254">
        <ele>1595.9300000000001</ele>
        <time>2019-03-12T13:25:17Z</time>
      </trkpt>
      <trkpt lat="31.367059294134378" lon="-5.986888753250241">
        <ele>1596.4100000000001</ele>
        <time>2019-03-12T13:25:32Z</time>
      </trkpt>
      <trkpt lat="31.366977905854583" lon="-5.986876348033547">
        <ele>1596.8900000000001</ele>
        <time>2019-03-12T13:25:47Z</time>
      </trkpt>
      <trkpt lat="31.366579597815871" lon="-5.986722204834223">
        <ele>1597.3699999999999</ele>
        <time>2019-03-12T13:26:03Z</time>
      </trkpt>
      <trkpt lat="31.366501227021217" lon="-5.986656239256263">
        <ele>1597.3699999999999</ele>
        <time>2019-03-12T13:26:19Z</time>
      </trkpt>
      <trkpt lat="31.366469543427229" lon="-5.986617179587483">
        <ele>1597.8499999999999</ele>
        <time>2019-03-12T13:26:34Z</time>
      </trkpt>
      <trkpt lat="31.366448756307364" lon="-5.986566552892327">
        <ele>1598.3299999999999</ele>
        <time>2019-03-12T13:26:51Z</time>
      </trkpt>
      <trkpt lat="31.366446325555444" lon="-5.986505532637239">
        <ele>1597.3699999999999</ele>
        <time>2019-03-12T13:27:05Z</time>
      </trkpt>
      <trkpt lat="31.366464849561453" lon="-5.98643864504993">
        <ele>1597.8499999999999</ele>
        <time>2019-03-12T13:27:22Z</time>
      </trkpt>
      <trkpt lat="31.366489324718714" lon="-5.986372176557779">
        <ele>1597.3699999999999</ele>
        <time>2019-03-12T13:27:38Z</time>
      </trkpt>
      <trkpt lat="31.366825187578797" lon="-5.985482018440962">
        <ele>1596.8900000000001</ele>
        <time>2019-03-12T13:27:46Z</time>
      </trkpt>
      <trkpt lat="31.367119895294309" lon="-5.984671236947179">
        <ele>1596.8900000000001</ele>
        <time>2019-03-12T13:27:47Z</time>
      </trkpt>
      <trkpt lat="31.367493728175759" lon="-5.98358117043972">
        <ele>1596.8900000000001</ele>
        <time>2019-03-12T13:27:48Z</time>
      </trkpt>
      <trkpt lat="31.367517951875925" lon="-5.983404396101832">
        <ele>1596.8900000000001</ele>
        <time>2019-03-12T13:27:49Z</time>
      </trkpt>
      <trkpt lat="31.367515018209815" lon="-5.983318900689483">
        <ele>1596.8900000000001</ele>
        <time>2019-03-12T13:27:50Z</time>
      </trkpt>
      <trkpt lat="31.367508312687278" lon="-5.983235919848084">
        <ele>1596.8900000000001</ele>
        <time>2019-03-12T13:27:51Z</time>
      </trkpt>
      <trkpt lat="31.367508061230183" lon="-5.983154531568289">
        <ele>1595.45</ele>
        <time>2019-03-12T13:28:00Z</time>
      </trkpt>
      <trkpt lat="31.367513174191117" lon="-5.983076328411698">
        <ele>1593.52</ele>
        <time>2019-03-12T13:28:17Z</time>
      </trkpt>
      <trkpt lat="31.367521556094289" lon="-5.982998041436076">
        <ele>1589.6800000000001</ele>
        <time>2019-03-12T13:28:34Z</time>
      </trkpt>
      <trkpt lat="31.367505714297295" lon="-5.982036720961332">
        <ele>1587.75</ele>
        <time>2019-03-12T13:28:49Z</time>
      </trkpt>
      <trkpt lat="31.367498505860567" lon="-5.98106425255537">
        <ele>1585.8299999999999</ele>
        <time>2019-03-12T13:28:57Z</time>
      </trkpt>
      <trkpt lat="31.367420721799135" lon="-5.97996530123055">
        <ele>1583.9100000000001</ele>
        <time>2019-03-12T13:29:07Z</time>
      </trkpt>
      <trkpt lat="31.367343189194798" lon="-5.978502659127116">
        <ele>1581.51</ele>
        <time>2019-03-12T13:29:25Z</time>
      </trkpt>
      <trkpt lat="31.367275211960077" lon="-5.977007495239377">
        <ele>1580.0599999999999</ele>
        <time>2019-03-12T13:29:41Z</time>
      </trkpt>
      <trkpt lat="31.367200780659914" lon="-5.975663624703884">
        <ele>1578.6199999999999</ele>
        <time>2019-03-12T13:29:49Z</time>
      </trkpt>
      <trkpt lat="31.36713364161551" lon="-5.974255045875907">
        <ele>1578.1400000000001</ele>
        <time>2019-03-12T13:29:50Z</time>
      </trkpt>
      <trkpt lat="31.367055187001824" lon="-5.972968256101012">
        <ele>1578.1400000000001</ele>
        <time>2019-03-12T13:30:00Z</time>
      </trkpt>
      <trkpt lat="31.366969607770443" lon="-5.971243092790246">
        <ele>1578.1400000000001</ele>
        <time>2019-03-12T13:39:45Z</time>
      </trkpt>
      <trkpt lat="31.366928536444902" lon="-5.97012528218329">
        <ele>1578.1400000000001</ele>
        <time>2019-03-12T13:39:59Z</time>
      </trkpt>
      <trkpt lat="31.366860307753086" lon="-5.968846706673503">
        <ele>1578.1400000000001</ele>
        <time>2019-03-12T13:40:19Z</time>
      </trkpt>
      <trkpt lat="31.366792246699333" lon="-5.96761079505086">
        <ele>1577.6600000000001</ele>
        <time>2019-03-12T13:40:33Z</time>
      </trkpt>
      <trkpt lat="31.366741368547082" lon="-5.966989360749722">
        <ele>1577.6600000000001</ele>
        <time>2019-03-12T13:40:52Z</time>
      </trkpt>
      <trkpt lat="31.36673147790134" lon="-5.966951306909323">
        <ele>1577.6600000000001</ele>
        <time>2019-03-12T13:41:04Z</time>
      </trkpt>
      <trkpt lat="31.366723095998168" lon="-5.966927921399474">
        <ele>1577.6600000000001</ele>
        <time>2019-03-12T13:41:05Z</time>
      </trkpt>
      <trkpt lat="31.366723012179136" lon="-5.966898249462247">
        <ele>1577.6600000000001</ele>
        <time>2019-03-12T13:41:07Z</time>
      </trkpt>
      <trkpt lat="31.366725610569119" lon="-5.966863129287958">
        <ele>1577.6600000000001</ele>
        <time>2019-03-12T13:41:15Z</time>
      </trkpt>
      <trkpt lat="31.366730723530054" lon="-5.966818872839212">
        <ele>1576.7</ele>
        <time>2019-03-12T13:41:17Z</time>
      </trkpt>
      <trkpt lat="31.366732316091657" lon="-5.966125437989831">
        <ele>1577.6600000000001</ele>
        <time>2019-03-12T13:41:23Z</time>
      </trkpt>
      <trkpt lat="31.366692585870624" lon="-5.964366244152188">
        <ele>1577.6600000000001</ele>
        <time>2019-03-12T13:41:25Z</time>
      </trkpt>
      <trkpt lat="31.3665971159935" lon="-5.962439579889178">
        <ele>1576.7</ele>
        <time>2019-03-12T13:41:34Z</time>
      </trkpt>
      <trkpt lat="31.366526037454605" lon="-5.960881551727653">
        <ele>1575.26</ele>
        <time>2019-03-12T13:41:39Z</time>
      </trkpt>
      <trkpt lat="31.366497203707695" lon="-5.96019976772368">
        <ele>1574.78</ele>
        <time>2019-03-12T13:41:42Z</time>
      </trkpt>
      <trkpt lat="31.366420174017549" lon="-5.958788339048624">
        <ele>1573.8199999999999</ele>
        <time>2019-03-12T13:41:48Z</time>
      </trkpt>
      <trkpt lat="31.366286063566804" lon="-5.956286005675793">
        <ele>1573.8199999999999</ele>
        <time>2019-03-12T13:41:51Z</time>
      </trkpt>
      <trkpt lat="31.36616813018918" lon="-5.954057509079576">
        <ele>1574.3</ele>
        <time>2019-03-12T13:42:01Z</time>
      </trkpt>
      <trkpt lat="31.366113061085343" lon="-5.953236417844892">
        <ele>1574.78</ele>
        <time>2019-03-12T13:42:11Z</time>
      </trkpt>
      <trkpt lat="31.36609579436481" lon="-5.95320506952703">
        <ele>1575.26</ele>
        <time>2019-03-12T13:42:12Z</time>
      </trkpt>
      <trkpt lat="31.366046173498034" lon="-5.953142121434212">
        <ele>1574.3</ele>
        <time>2019-03-12T13:42:19Z</time>
      </trkpt>
      <trkpt lat="31.365871410816908" lon="-5.952926371246576">
        <ele>1573.3299999999999</ele>
        <time>2019-03-12T13:42:24Z</time>
      </trkpt>
      <trkpt lat="31.365527166053653" lon="-5.95277750864625">
        <ele>1570.45</ele>
        <time>2019-03-12T13:42:33Z</time>
      </trkpt>
      <trkpt lat="31.364941522479057" lon="-5.952432425692678">
        <ele>1570.45</ele>
        <time>2019-03-12T13:42:41Z</time>
      </trkpt>
      <trkpt lat="31.364768100902438" lon="-5.95231331884861">
        <ele>1570.45</ele>
        <time>2019-03-12T13:42:47Z</time>
      </trkpt>
      <trkpt lat="31.364718480035663" lon="-5.952263697981834">
        <ele>1570.45</ele>
        <time>2019-03-12T13:42:55Z</time>
      </trkpt>
      <trkpt lat="31.364090591669083" lon="-5.951957171782851">
        <ele>1569.01</ele>
        <time>2019-03-12T13:42:56Z</time>
      </trkpt>
      <trkpt lat="31.36400836519897" lon="-5.951929176226258">
        <ele>1568.53</ele>
        <time>2019-03-12T13:42:58Z</time>
      </trkpt>
      <trkpt lat="31.363839553669095" lon="-5.951849967241287">
        <ele>1568.05</ele>
        <time>2019-03-12T13:43:01Z</time>
      </trkpt>
      <trkpt lat="31.363008320331573" lon="-5.951772266998887">
        <ele>1567.5699999999999</ele>
        <time>2019-03-12T13:43:09Z</time>
      </trkpt>
      <trkpt lat="31.362792067229748" lon="-5.951748127117753">
        <ele>1567.0899999999999</ele>
        <time>2019-03-12T13:43:17Z</time>
      </trkpt>
      <trkpt lat="31.362205585464835" lon="-5.951518965885043">
        <ele>1566.1199999999999</ele>
        <time>2019-03-12T13:43:30Z</time>
      </trkpt>
      <trkpt lat="31.362044401466846" lon="-5.951430452987552">
        <ele>1565.6400000000001</ele>
        <time>2019-03-12T13:43:31Z</time>
      </trkpt>
      <trkpt lat="31.361118787899613" lon="-5.951138343662024">
        <ele>1565.1600000000001</ele>
        <time>2019-03-12T13:43:37Z</time>
      </trkpt>
      <trkpt lat="31.360549405217171" lon="-5.95094220712781">
        <ele>1565.1600000000001</ele>
        <time>2019-03-12T13:43:48Z</time>
      </trkpt>
      <trkpt lat="31.360254781320691" lon="-5.950888227671385">
        <ele>1563.72</ele>
        <time>2019-03-12T13:43:59Z</time>
      </trkpt>
      <trkpt lat="31.359728062525392" lon="-5.950617073103786">
        <ele>1561.8</ele>
        <time>2019-03-12T13:44:07Z</time>
      </trkpt>
      <trkpt lat="31.359522705897689" lon="-5.950401742011309">
        <ele>1561.8</ele>
        <time>2019-03-12T13:44:09Z</time>
      </trkpt>
      <trkpt lat="31.358672948554158" lon="-5.949792712926865">
        <ele>1560.3599999999999</ele>
        <time>2019-03-12T13:44:19Z</time>
      </trkpt>
      <trkpt lat="31.357680698856711" lon="-5.949095673859119">
        <ele>1559.8800000000001</ele>
        <time>2019-03-12T13:44:32Z</time>
      </trkpt>
      <trkpt lat="31.357590509578586" lon="-5.94901361502707">
        <ele>1557.95</ele>
        <time>2019-03-12T13:44:44Z</time>
      </trkpt>
      <trkpt lat="31.356888106092811" lon="-5.948648247867823">
        <ele>1556.99</ele>
        <time>2019-03-12T13:44:47Z</time>
      </trkpt>
      <trkpt lat="31.356501616537571" lon="-5.948347253724933">
        <ele>1556.03</ele>
        <time>2019-03-12T13:44:55Z</time>
      </trkpt>
      <trkpt lat="31.355698630213737" lon="-5.947981970384717">
        <ele>1554.5899999999999</ele>
        <time>2019-03-12T13:44:59Z</time>
      </trkpt>
      <trkpt lat="31.355113573372364" lon="-5.947560360655189">
        <ele>1554.5899999999999</ele>
        <time>2019-03-12T13:45:02Z</time>
      </trkpt>
      <trkpt lat="31.354655670002103" lon="-5.947103882208467">
        <ele>1554.5899999999999</ele>
        <time>2019-03-12T13:45:07Z</time>
      </trkpt>
      <trkpt lat="31.354063572362065" lon="-5.946570290252566">
        <ele>1554.5899999999999</ele>
        <time>2019-03-12T13:45:15Z</time>
      </trkpt>
      <trkpt lat="31.353970281779766" lon="-5.946511449292302">
        <ele>1553.1500000000001</ele>
        <time>2019-03-12T13:45:24Z</time>
      </trkpt>
      <trkpt lat="31.35377892293036" lon="-5.946408603340387">
        <ele>1552.6700000000001</ele>
        <time>2019-03-12T13:45:25Z</time>
      </trkpt>
      <trkpt lat="31.353482203558087" lon="-5.946296872571111">
        <ele>1551.22</ele>
        <time>2019-03-12T13:45:29Z</time>
      </trkpt>
      <trkpt lat="31.352653820067644" lon="-5.945761520415545">
        <ele>1551.22</ele>
        <time>2019-03-12T13:45:36Z</time>
      </trkpt>
      <trkpt lat="31.351761231198907" lon="-5.945482738316059">
        <ele>1551.22</ele>
        <time>2019-03-12T13:45:39Z</time>
      </trkpt>
      <trkpt lat="31.350232539698482" lon="-5.944651588797569">
        <ele>1550.74</ele>
        <time>2019-03-12T13:45:43Z</time>
      </trkpt>
      <trkpt lat="31.350118294358253" lon="-5.944592580199242">
        <ele>1549.78</ele>
        <time>2019-03-12T13:45:54Z</time>
      </trkpt>
      <trkpt lat="31.349491914734244" lon="-5.944172646850348">
        <ele>1548.3399999999999</ele>
        <time>2019-03-12T13:46:01Z</time>
      </trkpt>
      <trkpt lat="31.348336553201079" lon="-5.943522462621331">
        <ele>1548.3399999999999</ele>
        <time>2019-03-12T13:46:04Z</time>
      </trkpt>
      <trkpt lat="31.347200134769082" lon="-5.942845288664103">
        <ele>1546.9000000000001</ele>
        <time>2019-03-12T13:46:15Z</time>
      </trkpt>
      <trkpt lat="31.346423383802176" lon="-5.942391576245427">
        <ele>1546.4200000000001</ele>
        <time>2019-03-12T13:46:23Z</time>
      </trkpt>
      <trkpt lat="31.346211656928062" lon="-5.942296022549272">
        <ele>1544.01</ele>
        <time>2019-03-12T13:46:26Z</time>
      </trkpt>
      <trkpt lat="31.345101641491055" lon="-5.941515835002065">
        <ele>1543.53</ele>
        <time>2019-03-12T13:46:35Z</time>
      </trkpt>
      <trkpt lat="31.343430709093809" lon="-5.940457955002785">
        <ele>1541.1300000000001</ele>
        <time>2019-03-12T13:46:45Z</time>
      </trkpt>
      <trkpt lat="31.34187888354063" lon="-5.939580956473947">
        <ele>1540.1700000000001</ele>
        <time>2019-03-12T13:46:59Z</time>
      </trkpt>
      <trkpt lat="31.341538326814771" lon="-5.939455730840564">
        <ele>1539.21</ele>
        <time>2019-03-12T13:47:12Z</time>
      </trkpt>
      <trkpt lat="31.340580023825169" lon="-5.938892299309373">
        <ele>1538.25</ele>
        <time>2019-03-12T13:47:23Z</time>
      </trkpt>
      <trkpt lat="31.340112145990133" lon="-5.938632963225246">
        <ele>1536.8</ele>
        <time>2019-03-12T13:47:39Z</time>
      </trkpt>
      <trkpt lat="31.339778378605843" lon="-5.938561968505383">
        <ele>1535.3599999999999</ele>
        <time>2019-03-12T13:47:52Z</time>
      </trkpt>
      <trkpt lat="31.339305471628904" lon="-5.938295088708401">
        <ele>1535.3599999999999</ele>
        <time>2019-03-12T13:47:54Z</time>
      </trkpt>
      <trkpt lat="31.338339289650321" lon="-5.937951263040304">
        <ele>1534.8800000000001</ele>
        <time>2019-03-12T13:48:05Z</time>
      </trkpt>
      <trkpt lat="31.337144365534186" lon="-5.937682874500752">
        <ele>1533.9200000000001</ele>
        <time>2019-03-12T13:48:16Z</time>
      </trkpt>
      <trkpt lat="31.337039340287447" lon="-5.937651190906763">
        <ele>1533.9200000000001</ele>
        <time>2019-03-12T13:48:27Z</time>
      </trkpt>
      <trkpt lat="31.336693670600653" lon="-5.937463687732816">
        <ele>1534.8800000000001</ele>
        <time>2019-03-12T13:48:40Z</time>
      </trkpt>
      <trkpt lat="31.336273988708854" lon="-5.936977621167898">
        <ele>1538.73</ele>
        <time>2019-03-12T14:03:39Z</time>
      </trkpt>
      <trkpt lat="31.336099309846759" lon="-5.936833117157221">
        <ele>1543.53</ele>
        <time>2019-03-12T14:03:47Z</time>
      </trkpt>
      <trkpt lat="31.335829580202699" lon="-5.936654750257731">
        <ele>1544.5</ele>
        <time>2019-03-12T14:03:51Z</time>
      </trkpt>
      <trkpt lat="31.335001531988382" lon="-5.935709271579981">
        <ele>1545.9400000000001</ele>
        <time>2019-03-12T14:04:02Z</time>
      </trkpt>
      <trkpt lat="31.334518902003765" lon="-5.934943920001388">
        <ele>1544.5</ele>
        <time>2019-03-12T14:04:12Z</time>
      </trkpt>
      <trkpt lat="31.334338439628482" lon="-5.934688188135624">
        <ele>1544.01</ele>
        <time>2019-03-12T14:04:28Z</time>
      </trkpt>
      <trkpt lat="31.333473343402147" lon="-5.933431489393115">
        <ele>1545.9400000000001</ele>
        <time>2019-03-12T14:04:46Z</time>
      </trkpt>
      <trkpt lat="31.332949222996831" lon="-5.932730007916689">
        <ele>1549.3</ele>
        <time>2019-03-12T14:05:00Z</time>
      </trkpt>
      <trkpt lat="31.332802204415202" lon="-5.932574020698667">
        <ele>1552.6700000000001</ele>
        <time>2019-03-12T14:05:13Z</time>
      </trkpt>
      <trkpt lat="31.33240238763392" lon="-5.931960549205542">
        <ele>1554.5899999999999</ele>
        <time>2019-03-12T13:59:50Z</time>
      </trkpt>
      <trkpt lat="31.331610716879368" lon="-5.931234592571855">
        <ele>1556.99</ele>
        <time>2019-03-12T14:00:04Z</time>
      </trkpt>
      <trkpt lat="31.330523416399956" lon="-5.930280731990933">
        <ele>1558.9200000000001</ele>
        <time>2019-03-12T14:00:19Z</time>
      </trkpt>
      <trkpt lat="31.329544661566615" lon="-5.929305078461766">
        <ele>1557.47</ele>
        <time>2019-03-12T14:00:57Z</time>
      </trkpt>
      <trkpt lat="31.32843280211091" lon="-5.928368652239442">
        <ele>1556.99</ele>
        <time>2019-03-12T14:01:18Z</time>
      </trkpt>
      <trkpt lat="31.326581574976444" lon="-5.92709862627089">
        <ele>1559.4000000000001</ele>
      </trkpt>
      <trkpt lat="31.32494593039155" lon="-5.926349284127355">
        <ele>1558.9200000000001</ele>
      </trkpt>
      <trkpt lat="31.324709560722113" lon="-5.926283737644553">
        <ele>1558.9200000000001</ele>
      </trkpt>
      <trkpt lat="31.323259323835373" lon="-5.926017360761762">
        <ele>1561.8</ele>
      </trkpt>
      <trkpt lat="31.32168922573328" lon="-5.925636570900679">
        <ele>1563.24</ele>
      </trkpt>
      <trkpt lat="31.320197163149714" lon="-5.925158131867647">
        <ele>1564.2</ele>
      </trkpt>
      <trkpt lat="31.318661849945784" lon="-5.924282558262348">
        <ele>1565.1600000000001</ele>
      </trkpt>
      <trkpt lat="31.317809578031301" lon="-5.923676379024983">
        <ele>1566.6099999999999</ele>
      </trkpt>
      <trkpt lat="31.317381011322141" lon="-5.923234904184938">
        <ele>1567.0899999999999</ele>
      </trkpt>
      <trkpt lat="31.31712100468576" lon="-5.922788148745894">
        <ele>1571.8900000000001</ele>
      </trkpt>
      <trkpt lat="31.316751027479768" lon="-5.921285273507237">
        <ele>1573.8199999999999</ele>
      </trkpt>
      <trkpt lat="31.316394461318851" lon="-5.919668823480606">
        <ele>1574.78</ele>
      </trkpt>
      <trkpt lat="31.315619386732578" lon="-5.916804643347859">
        <ele>1575.74</ele>
      </trkpt>
      <trkpt lat="31.314821932464838" lon="-5.913580963388085">
        <ele>1575.26</ele>
      </trkpt>
      <trkpt lat="31.314383558928967" lon="-5.911170998588204">
        <ele>1576.7</ele>
      </trkpt>
      <trkpt lat="31.313976114615798" lon="-5.908890450373292">
        <ele>1576.22</ele>
      </trkpt>
      <trkpt lat="31.31358090788126" lon="-5.907319346442819">
        <ele>1575.74</ele>
      </trkpt>
      <trkpt lat="31.313461130484939" lon="-5.90728665702045">
        <ele>1574.78</ele>
      </trkpt>
      <trkpt lat="31.313078077509999" lon="-5.907518919557333"/>
      <trkpt lat="31.313069947063923" lon="-5.907521853223443"/>
      <trkpt lat="31.313074640929699" lon="-5.907527217641473"/>
      <trkpt lat="31.313059469684958" lon="-5.907519003376365"/>
      <trkpt lat="31.313069025054574" lon="-5.907525038346648">
        <ele>1576.8082280000001</ele>
        <time>2019-03-12T14:00:09Z</time>
      </trkpt>
      <trkpt lat="31.301153982058167" lon="-5.869970005005598">
        <ele>1622.6895750000001</ele>
        <time>2019-03-12T14:21:21Z</time>
      </trkpt>
      <trkpt lat="31.175959529355168" lon="-5.667705629020929">
        <ele>890.65563999999995</ele>
        <time>2019-04-15T13:42:07Z</time>
      </trkpt>
      <trkpt lat="31.11019997857511" lon="-5.174349993467331">
        <ele>892.77710000000002</ele>
        <time>2019-03-12T17:10:35Z</time>
      </trkpt>
      <trkpt lat="31.116365035995841" lon="-5.162217020988464">
        <ele>783.76678500000003</ele>
        <time>2019-03-12T17:13:10Z</time>
      </trkpt>
      <trkpt lat="31.270265998318791" lon="-4.403032008558512">
        <ele>800.10949700000003</ele>
        <time>2019-03-13T08:58:02Z</time>
      </trkpt>
      <trkpt lat="31.298670005053282" lon="-4.400788005441427">
        <ele>841.47027600000001</ele>
        <time>2019-03-13T09:03:19Z</time>
      </trkpt>
      <trkpt lat="31.301563186571002" lon="-4.39779625274241">
        <ele>859.447632</ele>
        <time>2019-04-15T13:50:24Z</time>
      </trkpt>
      <trkpt lat="31.512113995850086" lon="-4.436338003724814">
        <ele>859.61444100000006</ele>
        <time>2019-03-13T09:55:05Z</time>
      </trkpt>
      <trkpt lat="31.529326988384128" lon="-4.473537979647517">
        <ele>853.13629200000003</ele>
        <time>2019-03-13T10:10:42Z</time>
      </trkpt>
      <trkpt lat="31.530086975544691" lon="-4.490325003862381">
        <ele>883.81939699999998</ele>
        <time>2019-03-13T10:12:31Z</time>
      </trkpt>
      <trkpt lat="31.538174003362656" lon="-4.494430040940642">
        <ele>894.01428199999998</ele>
        <time>2019-03-13T10:15:14Z</time>
      </trkpt>
      <trkpt lat="31.592274997383356" lon="-4.532554959878326">
        <ele>899.81298800000002</ele>
        <time>2019-03-13T10:26:26Z</time>
      </trkpt>
      <trkpt lat="31.606705030426383" lon="-4.529983978718519">
        <ele>882.53491199999996</ele>
        <time>2019-03-13T10:29:02Z</time>
      </trkpt>
      <trkpt lat="31.612309003248811" lon="-4.522021003067493">
        <ele>865.28466800000001</ele>
        <time>2019-03-13T10:32:12Z</time>
      </trkpt>
      <trkpt lat="31.601823996752501" lon="-4.50796103104949">
        <ele>875.91351299999997</ele>
        <time>2019-03-13T10:35:13Z</time>
      </trkpt>
      <trkpt lat="31.583119025453925" lon="-4.478834001347423">
        <ele>829.04247999999995</ele>
        <time>2019-03-13T10:40:44Z</time>
      </trkpt>
      <trkpt lat="31.591333039104939" lon="-4.467752035707235">
        <ele>1576.7</ele>
        <time>2019-03-13T10:43:05Z</time>
      </trkpt>
      <trkpt lat="31.513768248260021" lon="-4.213568475097418">
        <ele>1575.26</ele>
        <time>2019-04-15T13:55:43Z</time>
      </trkpt>
      <trkpt lat="31.505813989788294" lon="-4.202439989894629">
        <ele>1578.1400000000001</ele>
        <time>2019-03-13T11:22:45Z</time>
      </trkpt>
      <trkpt lat="31.486967699602246" lon="-4.213398825377226">
        <ele>1578.6199999999999</ele>
        <time>2019-04-15T13:57:50Z</time>
      </trkpt>
      <trkpt lat="31.313078077509999" lon="-5.907518919557333">
        <ele>1580.0599999999999</ele>
        <time>2019-03-12T14:00:04Z</time>
      </trkpt>
      <trkpt lat="31.313461130484939" lon="-5.90728665702045">
        <ele>1581.99</ele>
        <time>2019-03-12T13:59:50Z</time>
      </trkpt>
      <trkpt lat="31.313546877354383" lon="-5.907143829390407">
        <ele>1583.4300000000001</ele>
        <time>2019-03-12T14:05:25Z</time>
      </trkpt>
      <trkpt lat="31.313481414690614" lon="-5.906942831352353">
        <ele>1585.3499999999999</ele>
        <time>2019-03-12T14:05:31Z</time>
      </trkpt>
      <trkpt lat="31.313418550416827" lon="-5.90668517164886">
        <ele>1584.8699999999999</ele>
        <time>2019-03-12T14:05:39Z</time>
      </trkpt>
      <trkpt lat="31.313252421095967" lon="-5.906054265797138">
        <ele>1585.3499999999999</ele>
        <time>2019-03-12T14:05:49Z</time>
      </trkpt>
      <trkpt lat="31.313028791919351" lon="-5.905270054936409">
        <ele>1586.79</ele>
        <time>2019-03-12T14:06:06Z</time>
      </trkpt>
      <trkpt lat="31.312706340104342" lon="-5.904162134975195">
        <ele>1589.2</ele>
        <time>2019-03-12T14:06:18Z</time>
      </trkpt>
      <trkpt lat="31.31255722604692" lon="-5.903650168329477">
        <ele>1592.5599999999999</ele>
        <time>2019-03-12T14:06:29Z</time>
      </trkpt>
      <trkpt lat="31.31253769621253" lon="-5.903583951294422">
        <ele>1594</ele>
        <time>2019-03-12T14:06:36Z</time>
      </trkpt>
      <trkpt lat="31.312385648488998" lon="-5.903079193085432">
        <ele>1594.96</ele>
        <time>2019-03-12T14:06:46Z</time>
      </trkpt>
      <trkpt lat="31.311841914430261" lon="-5.901858368888497">
        <ele>1597.8499999999999</ele>
        <time>2019-03-12T14:06:59Z</time>
      </trkpt>
      <trkpt lat="31.311145126819611" lon="-5.900249965488911">
        <ele>1599.77</ele>
        <time>2019-03-12T14:07:15Z</time>
      </trkpt>
      <trkpt lat="31.310382876545191" lon="-5.89794653467834">
        <ele>1601.21</ele>
        <time>2019-03-12T14:14:46Z</time>
      </trkpt>
      <trkpt lat="31.309779295697808" lon="-5.896173678338528">
        <ele>1603.6199999999999</ele>
        <time>2019-03-12T14:14:55Z</time>
      </trkpt>
      <trkpt lat="31.309511158615351" lon="-5.895508993417025">
        <ele>1603.6199999999999</ele>
        <time>2019-03-12T14:15:06Z</time>
      </trkpt>
      <trkpt lat="31.308926269412041" lon="-5.89417384006083">
        <ele>1605.0599999999999</ele>
        <time>2019-03-12T14:15:19Z</time>
      </trkpt>
      <trkpt lat="31.308254040777683" lon="-5.892300652340055">
        <ele>1605.54</ele>
        <time>2019-03-12T14:15:34Z</time>
      </trkpt>
      <trkpt lat="31.30754878744483" lon="-5.890059247612953">
        <ele>1606.02</ele>
        <time>2019-03-12T14:15:46Z</time>
      </trkpt>
      <trkpt lat="31.306943697854877" lon="-5.888227885589004">
        <ele>1606.98</ele>
        <time>2019-03-12T14:15:52Z</time>
      </trkpt>
      <trkpt lat="31.306848395615816" lon="-5.887400675565004">
        <ele>1607.9400000000001</ele>
        <time>2019-03-12T14:15:58Z</time>
      </trkpt>
      <trkpt lat="31.306702718138695" lon="-5.886593079194427">
        <ele>1609.3800000000001</ele>
        <time>2019-03-12T14:16:03Z</time>
      </trkpt>
      <trkpt lat="31.306535666808486" lon="-5.885962592437863">
        <ele>1611.3099999999999</ele>
        <time>2019-03-12T14:16:05Z</time>
      </trkpt>
      <trkpt lat="31.306470707058907" lon="-5.885701663792133">
        <ele>1613.71</ele>
        <time>2019-03-12T14:16:08Z</time>
      </trkpt>
      <trkpt lat="31.306303991004825" lon="-5.885342415422201">
        <ele>1617.5599999999999</ele>
        <time>2019-03-12T14:16:12Z</time>
      </trkpt>
      <trkpt lat="31.306141801178455" lon="-5.884859785437584">
        <ele>1621.8800000000001</ele>
        <time>2019-03-12T14:16:23Z</time>
      </trkpt>
      <trkpt lat="31.305697644129395" lon="-5.883326735347509">
        <ele>1624.77</ele>
        <time>2019-03-12T14:16:32Z</time>
      </trkpt>
      <trkpt lat="31.305280225351453" lon="-5.882012704387307">
        <ele>1628.1300000000001</ele>
        <time>2019-03-12T14:16:45Z</time>
      </trkpt>
      <trkpt lat="31.304476065561175" lon="-5.880133733153343">
        <ele>1624.28</ele>
        <time>2019-03-12T14:17:00Z</time>
      </trkpt>
      <trkpt lat="31.303461436182261" lon="-5.877918396145105">
        <ele>1624.77</ele>
        <time>2019-03-12T14:17:15Z</time>
      </trkpt>
      <trkpt lat="31.302411686629057" lon="-5.875668777152896">
        <ele>1625.25</ele>
        <time>2019-03-12T14:17:28Z</time>
      </trkpt>
      <trkpt lat="31.301612807437778" lon="-5.873646391555667">
        <ele>1625.25</ele>
        <time>2019-03-12T14:17:41Z</time>
      </trkpt>
      <trkpt lat="31.300888527184725" lon="-5.871934806928039">
        <ele>1622.3599999999999</ele>
        <time>2019-03-12T14:20:54Z</time>
      </trkpt>
      <trkpt lat="31.300815436989069" lon="-5.871767504140735">
        <ele>1623.3199999999999</ele>
        <time>2019-03-12T14:20:59Z</time>
      </trkpt>
      <trkpt lat="31.30074611864984" lon="-5.871198540553451">
        <ele>1623.3199999999999</ele>
        <time>2019-03-12T14:21:03Z</time>
      </trkpt>
      <trkpt lat="31.300793224945664" lon="-5.870713479816914">
        <ele>1624.28</ele>
        <time>2019-03-12T14:21:10Z</time>
      </trkpt>
      <trkpt lat="31.301044933497906" lon="-5.870208134874702">
        <ele>1627.6500000000001</ele>
        <time>2019-03-12T14:21:19Z</time>
      </trkpt>
      <trkpt lat="31.301156748086214" lon="-5.86997352540493">
        <ele>1623.3199999999999</ele>
        <time>2019-03-12T14:21:41Z</time>
      </trkpt>
      <trkpt lat="31.301122633740306" lon="-5.869849305599928">
        <ele>1620.4400000000001</ele>
        <time>2019-03-12T14:21:42Z</time>
      </trkpt>
      <trkpt lat="31.301095811650157" lon="-5.869803037494421">
        <ele>1619</ele>
        <time>2019-03-12T14:21:51Z</time>
      </trkpt>
      <trkpt lat="31.300763553008437" lon="-5.869136089459062">
        <ele>1619.96</ele>
        <time>2019-03-12T14:22:01Z</time>
      </trkpt>
      <trkpt lat="31.30020716227591" lon="-5.86779372766614">
        <ele>1619.96</ele>
        <time>2019-03-12T14:22:11Z</time>
      </trkpt>
      <trkpt lat="31.299258498474956" lon="-5.866314321756363">
        <ele>1619.96</ele>
        <time>2019-03-12T14:22:25Z</time>
      </trkpt>
      <trkpt lat="31.297733830288053" lon="-5.863939225673676">
        <ele>1619.96</ele>
        <time>2019-03-12T14:22:42Z</time>
      </trkpt>
      <trkpt lat="31.295752767473459" lon="-5.860865749418736">
        <ele>1619.48</ele>
        <time>2019-03-12T14:22:48Z</time>
      </trkpt>
      <trkpt lat="31.295095374807715" lon="-5.85991314612329">
        <ele>1619.48</ele>
        <time>2019-03-12T14:22:49Z</time>
      </trkpt>
      <trkpt lat="31.294974675402045" lon="-5.859800409525633">
        <ele>1610.8299999999999</ele>
        <time>2019-03-12T14:22:50Z</time>
      </trkpt>
      <trkpt lat="31.294845594093204" lon="-5.859699826687574">
        <ele>1600.73</ele>
        <time>2019-03-12T14:22:51Z</time>
      </trkpt>
      <trkpt lat="31.294710645452142" lon="-5.859607709571719">
        <ele>1600.25</ele>
        <time>2019-03-12T14:22:52Z</time>
      </trkpt>
      <trkpt lat="31.294572930783033" lon="-5.859525818377733">
        <ele>1599.77</ele>
        <time>2019-03-12T14:22:53Z</time>
      </trkpt>
      <trkpt lat="31.294431276619434" lon="-5.859453147277236">
        <ele>1598.8099999999999</ele>
        <time>2019-03-12T14:23:01Z</time>
      </trkpt>
      <trkpt lat="31.293185809627175" lon="-5.858700033277273">
        <ele>1597.8499999999999</ele>
        <time>2019-03-12T14:23:10Z</time>
      </trkpt>
      <trkpt lat="31.291805813089013" lon="-5.857652295380831">
        <ele>1593.52</ele>
        <time>2019-03-12T14:23:11Z</time>
      </trkpt>
      <trkpt lat="31.291694082319736" lon="-5.857516173273325">
        <ele>1588.72</ele>
        <time>2019-03-12T14:23:12Z</time>
      </trkpt>
      <trkpt lat="31.291598360985518" lon="-5.857371669262648">
        <ele>1579.0999999999999</ele>
        <time>2019-03-12T14:23:14Z</time>
      </trkpt>
      <trkpt lat="31.291434159502387" lon="-5.857084840536118">
        <ele>1575.74</ele>
        <time>2019-03-12T14:23:18Z</time>
      </trkpt>
      <trkpt lat="31.291244393214583" lon="-5.856437087059021">
        <ele>1575.26</ele>
        <time>2019-03-12T14:23:27Z</time>
      </trkpt>
      <trkpt lat="31.291342293843627" lon="-5.854669762775302">
        <ele>1575.26</ele>
        <time>2019-03-12T14:23:37Z</time>
      </trkpt>
      <trkpt lat="31.291776727885008" lon="-5.852843010798097">
        <ele>1575.26</ele>
        <time>2019-03-12T14:23:45Z</time>
      </trkpt>
      <trkpt lat="31.292499080300331" lon="-5.851358827203512">
        <ele>1575.26</ele>
        <time>2019-03-12T14:23:55Z</time>
      </trkpt>
      <trkpt lat="31.293968679383397" lon="-5.849784119054675">
        <ele>1575.26</ele>
        <time>2019-03-12T14:23:58Z</time>
      </trkpt>
      <trkpt lat="31.294295405969024" lon="-5.849299477413297">
        <ele>1575.26</ele>
        <time>2019-03-12T14:23:59Z</time>
      </trkpt>
      <trkpt lat="31.294372351840138" lon="-5.849121948704124">
        <ele>1572.8499999999999</ele>
        <time>2019-03-12T14:24:00Z</time>
      </trkpt>
      <trkpt lat="31.294432366266847" lon="-5.848936457186937">
        <ele>1572.8499999999999</ele>
        <time>2019-03-12T14:24:01Z</time>
      </trkpt>
      <trkpt lat="31.294480729848146" lon="-5.848741242662072">
        <ele>1572.8499999999999</ele>
        <time>2019-03-12T14:24:02Z</time>
      </trkpt>
      <trkpt lat="31.294522639364004" lon="-5.848537059500814">
        <ele>1573.3299999999999</ele>
        <time>2019-03-12T14:24:14Z</time>
      </trkpt>
      <trkpt lat="31.294990349560976" lon="-5.845907153561711">
        <ele>1573.3299999999999</ele>
        <time>2019-03-12T14:24:24Z</time>
      </trkpt>
      <trkpt lat="31.295212805271149" lon="-5.843879906460643">
        <ele>1573.8199999999999</ele>
        <time>2019-03-12T14:24:25Z</time>
      </trkpt>
      <trkpt lat="31.295196963474154" lon="-5.843743700534105">
        <ele>1573.8199999999999</ele>
        <time>2019-03-12T14:24:26Z</time>
      </trkpt>
      <trkpt lat="31.295163603499532" lon="-5.843615625053644">
        <ele>1573.8199999999999</ele>
        <time>2019-03-12T14:24:27Z</time>
      </trkpt>
      <trkpt lat="31.295106103643775" lon="-5.843495009467006">
        <ele>1573.8199999999999</ele>
        <time>2019-03-12T14:24:28Z</time>
      </trkpt>
      <trkpt lat="31.295030666515231" lon="-5.843375399708748">
        <ele>1573.8199999999999</ele>
        <time>2019-03-12T14:24:29Z</time>
      </trkpt>
      <trkpt lat="31.294949613511562" lon="-5.843249252066016">
        <ele>1573.8199999999999</ele>
        <time>2019-03-12T14:24:32Z</time>
      </trkpt>
      <trkpt lat="31.294708717614412" lon="-5.842895032837987">
        <ele>1573.3299999999999</ele>
        <time>2019-03-12T14:24:33Z</time>
      </trkpt>
      <trkpt lat="31.29461626522243" lon="-5.842815823853016">
        <ele>1573.8199999999999</ele>
        <time>2019-03-12T14:24:34Z</time>
      </trkpt>
      <trkpt lat="31.294512497261167" lon="-5.842775423079729">
        <ele>1573.3299999999999</ele>
        <time>2019-03-12T14:24:35Z</time>
      </trkpt>
      <trkpt lat="31.29439883865416" lon="-5.842776093631983">
        <ele>1573.3299999999999</ele>
        <time>2019-03-12T14:24:36Z</time>
      </trkpt>
      <trkpt lat="31.294277971610427" lon="-5.842798557132483">
        <ele>1573.3299999999999</ele>
        <time>2019-03-12T14:24:38Z</time>
      </trkpt>
      <trkpt lat="31.294020898640156" lon="-5.842830156907439">
        <ele>1573.3299999999999</ele>
        <time>2019-03-12T14:24:47Z</time>
      </trkpt>
      <trkpt lat="31.292634112760425" lon="-5.842763856053352">
        <ele>1573.3299999999999</ele>
        <time>2019-03-12T14:24:54Z</time>
      </trkpt>
      <trkpt lat="31.291619902476668" lon="-5.842646928504109">
        <ele>1573.8199999999999</ele>
        <time>2019-03-12T14:24:55Z</time>
      </trkpt>
      <trkpt lat="31.291530383750796" lon="-5.842617927119136">
        <ele>1580.0599999999999</ele>
        <time>2019-03-12T14:24:56Z</time>
      </trkpt>
      <trkpt lat="31.291455617174506" lon="-5.842560678720474">
        <ele>1584.3900000000001</ele>
        <time>2019-03-12T14:24:57Z</time>
      </trkpt>
      <trkpt lat="31.291395938023925" lon="-5.842476189136505">
        <ele>1590.1600000000001</ele>
        <time>2019-03-12T14:24:58Z</time>
      </trkpt>
      <trkpt lat="31.29134975373745" lon="-5.842373846098781">
        <ele>1591.1199999999999</ele>
        <time>2019-03-12T14:24:59Z</time>
      </trkpt>
      <trkpt lat="31.291305413469672" lon="-5.842260522767901">
        <ele>1591.1199999999999</ele>
        <time>2019-03-12T14:25:07Z</time>
      </trkpt>
      <trkpt lat="31.290809372439981" lon="-5.841241870075464">
        <ele>1592.5599999999999</ele>
        <time>2019-03-12T14:25:18Z</time>
      </trkpt>
      <trkpt lat="31.289679408073425" lon="-5.839626928791404">
        <ele>1595.9300000000001</ele>
        <time>2019-03-12T14:25:27Z</time>
      </trkpt>
      <trkpt lat="31.288624126464128" lon="-5.838270233944058">
        <ele>1597.3699999999999</ele>
        <time>2019-03-12T14:25:28Z</time>
      </trkpt>
      <trkpt lat="31.288562603294849" lon="-5.838116426020861">
        <ele>1600.73</ele>
        <time>2019-03-12T14:25:29Z</time>
      </trkpt>
      <trkpt lat="31.288515916094184" lon="-5.837947614490986">
        <ele>1603.1400000000001</ele>
        <time>2019-03-12T14:25:38Z</time>
      </trkpt>
      <trkpt lat="31.288140239194036" lon="-5.836135530844331">
        <ele>1609.3800000000001</ele>
        <time>2019-03-12T14:25:41Z</time>
      </trkpt>
      <trkpt lat="31.287938235327601" lon="-5.835596071556211">
        <ele>1609.8599999999999</ele>
        <time>2019-03-12T14:25:42Z</time>
      </trkpt>
      <trkpt lat="31.287852739915252" lon="-5.835443940013647">
        <ele>1609.8599999999999</ele>
        <time>2019-03-12T14:25:47Z</time>
      </trkpt>
      <trkpt lat="31.287359548732638" lon="-5.834676241502166">
        <ele>1608.9000000000001</ele>
        <time>2019-03-12T14:25:58Z</time>
      </trkpt>
      <trkpt lat="31.285938648506999" lon="-5.832825265824795">
        <ele>1608.4200000000001</ele>
        <time>2019-03-12T14:26:04Z</time>
      </trkpt>
      <trkpt lat="31.285405894741416" lon="-5.831944663077593">
        <ele>1607.9400000000001</ele>
        <time>2019-03-12T14:26:09Z</time>
      </trkpt>
      <trkpt lat="31.285073217004538" lon="-5.831169337034226">
        <ele>1608.4200000000001</ele>
        <time>2019-03-12T14:26:10Z</time>
      </trkpt>
      <trkpt lat="31.284968610852957" lon="-5.831027599051595">
        <ele>1608.9000000000001</ele>
        <time>2019-03-12T14:26:11Z</time>
      </trkpt>
      <trkpt lat="31.284843804314733" lon="-5.830895248800516">
        <ele>1609.3800000000001</ele>
        <time>2019-03-12T14:26:12Z</time>
      </trkpt>
      <trkpt lat="31.284703658893704" lon="-5.830776980146766">
        <ele>1610.3499999999999</ele>
        <time>2019-03-12T14:26:13Z</time>
      </trkpt>
      <trkpt lat="31.28455244936049" lon="-5.830678911879659">
        <ele>1611.3099999999999</ele>
        <time>2019-03-12T14:26:14Z</time>
      </trkpt>
      <trkpt lat="31.284392271190882" lon="-5.830607665702701">
        <ele>1609.3800000000001</ele>
        <time>2019-03-12T14:26:15Z</time>
      </trkpt>
      <trkpt lat="31.284230835735798" lon="-5.830562990158796">
        <ele>1609.3800000000001</ele>
        <time>2019-03-12T14:26:16Z</time>
      </trkpt>
      <trkpt lat="31.284081134945154" lon="-5.830538095906377">
        <ele>1609.8599999999999</ele>
        <time>2019-03-12T14:26:17Z</time>
      </trkpt>
      <trkpt lat="31.283938391134143" lon="-5.830513034015894">
        <ele>1610.3499999999999</ele>
        <time>2019-03-12T14:26:25Z</time>
      </trkpt>
      <trkpt lat="31.282761739566922" lon="-5.830037696287036">
        <ele>1610.3499999999999</ele>
        <time>2019-03-12T14:26:29Z</time>
      </trkpt>
      <trkpt lat="31.282170647755265" lon="-5.829715831205249">
        <ele>1622.3599999999999</ele>
        <time>2019-03-12T14:26:30Z</time>
      </trkpt>
      <trkpt lat="31.2820462603122" lon="-5.829604184255004">
        <ele>1624.28</ele>
        <time>2019-03-12T14:26:31Z</time>
      </trkpt>
      <trkpt lat="31.281940564513206" lon="-5.829466134309769">
        <ele>1625.25</ele>
        <time>2019-03-12T14:26:32Z</time>
      </trkpt>
      <trkpt lat="31.281851632520556" lon="-5.829305788502097">
        <ele>1626.21</ele>
        <time>2019-03-12T14:26:33Z</time>
      </trkpt>
      <trkpt lat="31.28177116625011" lon="-5.82913538441062">
        <ele>1627.1700000000001</ele>
        <time>2019-03-12T14:26:43Z</time>
      </trkpt>
      <trkpt lat="31.281047808006406" lon="-5.827247947454453">
        <ele>1628.1300000000001</ele>
        <time>2019-03-12T14:26:45Z</time>
      </trkpt>
      <trkpt lat="31.280868351459503" lon="-5.826915269717574">
        <ele>1628.6099999999999</ele>
        <time>2019-03-12T14:26:46Z</time>
      </trkpt>
      <trkpt lat="31.280756033957005" lon="-5.826764227822423">
        <ele>1629.0899999999999</ele>
        <time>2019-03-12T14:26:47Z</time>
      </trkpt>
      <trkpt lat="31.280631814152002" lon="-5.826626345515251">
        <ele>1635.8199999999999</ele>
        <time>2019-03-12T14:26:48Z</time>
      </trkpt>
      <trkpt lat="31.280496781691909" lon="-5.826507993042469">
        <ele>1636.3</ele>
        <time>2019-03-12T14:26:49Z</time>
      </trkpt>
      <trkpt lat="31.280348841100931" lon="-5.826416043564677">
        <ele>1643.03</ele>
        <time>2019-03-12T14:26:50Z</time>
      </trkpt>
      <trkpt lat="31.280186399817467" lon="-5.826348820701242">
        <ele>1644.95</ele>
        <time>2019-03-12T14:26:51Z</time>
      </trkpt>
      <trkpt lat="31.280015576630831" lon="-5.826287884265184">
        <ele>1645.4300000000001</ele>
        <time>2019-03-12T14:27:02Z</time>
      </trkpt>
      <trkpt lat="31.278106849640608" lon="-5.825552204623818">
        <ele>1646.4000000000001</ele>
        <time>2019-03-12T14:27:11Z</time>
      </trkpt>
      <trkpt lat="31.276598274707794" lon="-5.824388042092323">
        <ele>1646.8800000000001</ele>
        <time>2019-03-12T14:27:26Z</time>
      </trkpt>
      <trkpt lat="31.274103652685881" lon="-5.822413181886077">
        <ele>1647.3599999999999</ele>
        <time>2019-03-12T14:27:33Z</time>
      </trkpt>
      <trkpt lat="31.273012328892946" lon="-5.821512881666422">
        <ele>1647.3599999999999</ele>
        <time>2019-03-12T14:27:34Z</time>
      </trkpt>
      <trkpt lat="31.272896071895957" lon="-5.821355888620019">
        <ele>1654.5699999999999</ele>
        <time>2019-03-12T14:27:35Z</time>
      </trkpt>
      <trkpt lat="31.27279163338244" lon="-5.821179868653417">
        <ele>1657.9300000000001</ele>
        <time>2019-03-12T14:27:36Z</time>
      </trkpt>
      <trkpt lat="31.272698091343045" lon="-5.820988677442074">
        <ele>1663.22</ele>
        <time>2019-03-12T14:27:37Z</time>
      </trkpt>
      <trkpt lat="31.272617960348725" lon="-5.820788769051433">
        <ele>1664.1800000000001</ele>
        <time>2019-03-12T14:27:38Z</time>
      </trkpt>
      <trkpt lat="31.272547133266926" lon="-5.820579640567303">
        <ele>1664.6600000000001</ele>
        <time>2019-03-12T14:27:52Z</time>
      </trkpt>
      <trkpt lat="31.271601654589176" lon="-5.817493842914701">
        <ele>1665.6199999999999</ele>
        <time>2019-03-12T14:27:59Z</time>
      </trkpt>
      <trkpt lat="31.271418510004878" lon="-5.815916368737817">
        <ele>1666.0999999999999</ele>
        <time>2019-03-12T14:28:07Z</time>
      </trkpt>
      <trkpt lat="31.271339636296034" lon="-5.814147787168622">
        <ele>1666.0999999999999</ele>
        <time>2019-03-12T14:28:08Z</time>
      </trkpt>
      <trkpt lat="31.271299319341779" lon="-5.813958775252104">
        <ele>1666.5799999999999</ele>
        <time>2019-03-12T14:28:09Z</time>
      </trkpt>
      <trkpt lat="31.271233772858977" lon="-5.813777893781662">
        <ele>1666.0999999999999</ele>
        <time>2019-03-12T14:28:10Z</time>
      </trkpt>
      <trkpt lat="31.271152049303055" lon="-5.813604136928916">
        <ele>1665.6199999999999</ele>
        <time>2019-03-12T14:28:11Z</time>
      </trkpt>
      <trkpt lat="31.271061608567834" lon="-5.813439851626754">
        <ele>1667.54</ele>
        <time>2019-03-12T14:28:12Z</time>
      </trkpt>
      <trkpt lat="31.270961612462997" lon="-5.813290821388364">
        <ele>1670.9100000000001</ele>
        <time>2019-03-12T14:28:13Z</time>
      </trkpt>
      <trkpt lat="31.270846948027611" lon="-5.813155621290207">
        <ele>1670.4300000000001</ele>
        <time>2019-03-12T14:28:14Z</time>
      </trkpt>
      <trkpt lat="31.270712921395898" lon="-5.813035424798727">
        <ele>1668.99</ele>
        <time>2019-03-12T14:28:15Z</time>
      </trkpt>
      <trkpt lat="31.27056690864265" lon="-5.812922101467848">
        <ele>1664.1800000000001</ele>
        <time>2019-03-12T14:28:27Z</time>
      </trkpt>
      <trkpt lat="31.268618451431394" lon="-5.81149734556675">
        <ele>1659.8499999999999</ele>
        <time>2019-03-12T14:28:39Z</time>
      </trkpt>
      <trkpt lat="31.266928240656853" lon="-5.810230420902371">
        <ele>1655.05</ele>
        <time>2019-03-12T14:28:42Z</time>
      </trkpt>
      <trkpt lat="31.266512079164386" lon="-5.809995727613568">
        <ele>1658.4100000000001</ele>
        <time>2019-03-12T14:28:49Z</time>
      </trkpt>
      <trkpt lat="31.265319334343076" lon="-5.810031518340111">
        <ele>1657.9300000000001</ele>
        <time>2019-03-12T14:28:59Z</time>
      </trkpt>
      <trkpt lat="31.263626692816615" lon="-5.810582879930735">
        <ele>1657.9300000000001</ele>
        <time>2019-03-12T14:29:05Z</time>
      </trkpt>
      <trkpt lat="31.262687919661403" lon="-5.81038766540587">
        <ele>1658.4100000000001</ele>
        <time>2019-03-12T14:29:22Z</time>
      </trkpt>
      <trkpt lat="31.259857686236501" lon="-5.808443734422326">
        <ele>1666.0999999999999</ele>
        <time>2019-03-12T14:29:31Z</time>
      </trkpt>
      <trkpt lat="31.258618086576462" lon="-5.807578805834055">
        <ele>1666.5799999999999</ele>
        <time>2019-03-12T14:29:40Z</time>
      </trkpt>
      <trkpt lat="31.257389048114419" lon="-5.806759726256132">
        <ele>1659.3699999999999</ele>
        <time>2019-03-12T14:29:41Z</time>
      </trkpt>
      <trkpt lat="31.257232390344143" lon="-5.806696359068155">
        <ele>1663.7</ele>
        <time>2019-03-12T14:29:53Z</time>
      </trkpt>
      <trkpt lat="31.255219057202339" lon="-5.806207023561001">
        <ele>1664.1800000000001</ele>
        <time>2019-03-12T14:30:03Z</time>
      </trkpt>
      <trkpt lat="31.253781141713262" lon="-5.805835369974375">
        <ele>1665.1400000000001</ele>
        <time>2019-03-12T14:30:04Z</time>
      </trkpt>
      <trkpt lat="31.253662034869194" lon="-5.80576915293932">
        <ele>1665.6199999999999</ele>
        <time>2019-03-12T14:30:15Z</time>
      </trkpt>
      <trkpt lat="31.252492005005479" lon="-5.804981086403132">
        <ele>1666.0999999999999</ele>
        <time>2019-03-12T14:30:25Z</time>
      </trkpt>
      <trkpt lat="31.251453906297684" lon="-5.804401226341724">
        <ele>1666.5799999999999</ele>
        <time>2019-03-12T14:30:26Z</time>
      </trkpt>
      <trkpt lat="31.251343935728073" lon="-5.804376918822527">
        <ele>1667.0599999999999</ele>
        <time>2019-03-12T14:30:27Z</time>
      </trkpt>
      <trkpt lat="31.25123287551105" lon="-5.804374068975449">
        <ele>1667.0599999999999</ele>
        <time>2019-03-12T14:30:28Z</time>
      </trkpt>
      <trkpt lat="31.251120558008552" lon="-5.804391838610172">
        <ele>1667.54</ele>
        <time>2019-03-12T14:30:29Z</time>
      </trkpt>
      <trkpt lat="31.251009665429592" lon="-5.804422935470939">
        <ele>1667.54</ele>
        <time>2019-03-12T14:30:30Z</time>
      </trkpt>
      <trkpt lat="31.250901035964489" lon="-5.804458558559418">
        <ele>1667.54</ele>
        <time>2019-03-12T14:30:34Z</time>
      </trkpt>
      <trkpt lat="31.250481773167849" lon="-5.804553693160415">
        <ele>1668.02</ele>
        <time>2019-03-12T14:30:35Z</time>
      </trkpt>
      <trkpt lat="31.250371634960175" lon="-5.804550256580114">
        <ele>1668.51</ele>
        <time>2019-03-12T14:30:36Z</time>
      </trkpt>
      <trkpt lat="31.250256467610598" lon="-5.804531145840883">
        <ele>1668.51</ele>
        <time>2019-03-12T14:30:37Z</time>
      </trkpt>
      <trkpt lat="31.250141216441989" lon="-5.804496947675943">
        <ele>1668.99</ele>
        <time>2019-03-12T14:30:38Z</time>
      </trkpt>
      <trkpt lat="31.250029988586903" lon="-5.804441459476948">
        <ele>1672.3499999999999</ele>
        <time>2019-03-12T14:30:39Z</time>
      </trkpt>
      <trkpt lat="31.24992722645402" lon="-5.804363004863262">
        <ele>1673.3099999999999</ele>
        <time>2019-03-12T14:30:40Z</time>
      </trkpt>
      <trkpt lat="31.249842150136828" lon="-5.804259739816189">
        <ele>1673.79</ele>
        <time>2019-03-12T14:30:41Z</time>
      </trkpt>
      <trkpt lat="31.249768557026982" lon="-5.804142560809851">
        <ele>1674.27</ele>
        <time>2019-03-12T14:30:42Z</time>
      </trkpt>
      <trkpt lat="31.249698400497437" lon="-5.804019849747419">
        <ele>1676.6800000000001</ele>
        <time>2019-03-12T14:30:54Z</time>
      </trkpt>
      <trkpt lat="31.249042181298137" lon="-5.802389653399587">
        <ele>1682.4400000000001</ele>
        <time>2019-03-12T14:31:03Z</time>
      </trkpt>
      <trkpt lat="31.248591905459762" lon="-5.801267484202981">
        <ele>1683.4100000000001</ele>
        <time>2019-03-12T14:31:04Z</time>
      </trkpt>
      <trkpt lat="31.248554270714521" lon="-5.801162207499147">
        <ele>1683.4100000000001</ele>
        <time>2019-03-12T14:31:05Z</time>
      </trkpt>
      <trkpt lat="31.248506661504507" lon="-5.801057768985629">
        <ele>1683.8900000000001</ele>
        <time>2019-03-12T14:31:13Z</time>
      </trkpt>
      <trkpt lat="31.247871061787009" lon="-5.800070129334927">
        <ele>1684.3699999999999</ele>
        <time>2019-03-12T14:31:24Z</time>
      </trkpt>
      <trkpt lat="31.246741013601422" lon="-5.798393161967397">
        <ele>1685.3299999999999</ele>
        <time>2019-03-12T14:31:28Z</time>
      </trkpt>
      <trkpt lat="31.246314290910959" lon="-5.797716407105327">
        <ele>1693.98</ele>
        <time>2019-03-12T14:31:29Z</time>
      </trkpt>
      <trkpt lat="31.246233992278576" lon="-5.797524377703667">
        <ele>1701.6700000000001</ele>
        <time>2019-03-12T14:31:30Z</time>
      </trkpt>
      <trkpt lat="31.246172469109297" lon="-5.797320613637567">
        <ele>1703.1099999999999</ele>
        <time>2019-03-12T14:31:31Z</time>
      </trkpt>
      <trkpt lat="31.246127290651202" lon="-5.79711215570569">
        <ele>1704.0699999999999</ele>
        <time>2019-03-12T14:31:32Z</time>
      </trkpt>
      <trkpt lat="31.246089236810803" lon="-5.796906044706702">
        <ele>1705.04</ele>
        <time>2019-03-12T14:31:43Z</time>
      </trkpt>
      <trkpt lat="31.245762761682272" lon="-5.79475985839963">
        <ele>1705.04</ele>
        <time>2019-03-12T14:31:54Z</time>
      </trkpt>
      <trkpt lat="31.245392113924026" lon="-5.792514011263847">
        <ele>1705.52</ele>
        <time>2019-03-12T14:31:55Z</time>
      </trkpt>
      <trkpt lat="31.245352299883962" lon="-5.792342014610767">
        <ele>1708.4000000000001</ele>
        <time>2019-03-12T14:31:56Z</time>
      </trkpt>
      <trkpt lat="31.245295386761427" lon="-5.792180579155684">
        <ele>1709.8399999999999</ele>
        <time>2019-03-12T14:31:57Z</time>
      </trkpt>
      <trkpt lat="31.245214669033885" lon="-5.792035153135657">
        <ele>1710.8</ele>
        <time>2019-03-12T14:31:58Z</time>
      </trkpt>
      <trkpt lat="31.245114840567112" lon="-5.791901964694262">
        <ele>1711.28</ele>
        <time>2019-03-12T14:31:59Z</time>
      </trkpt>
      <trkpt lat="31.245007552206516" lon="-5.791769279167056">
        <ele>1711.28</ele>
        <time>2019-03-12T14:32:10Z</time>
      </trkpt>
      <trkpt lat="31.243811454623938" lon="-5.790220554918051">
        <ele>1711.76</ele>
        <time>2019-03-12T14:32:11Z</time>
      </trkpt>
      <trkpt lat="31.243746997788548" lon="-5.790073620155454">
        <ele>1712.73</ele>
        <time>2019-03-12T14:32:12Z</time>
      </trkpt>
      <trkpt lat="31.243703747168183" lon="-5.789928110316396">
        <ele>1712.73</ele>
        <time>2019-03-12T14:32:13Z</time>
      </trkpt>
      <trkpt lat="31.243684887886047" lon="-5.789781846106052">
        <ele>1712.73</ele>
        <time>2019-03-12T14:32:14Z</time>
      </trkpt>
      <trkpt lat="31.243689581751823" lon="-5.789635581895709">
        <ele>1713.21</ele>
        <time>2019-03-12T14:32:15Z</time>
      </trkpt>
      <trkpt lat="31.243704836815596" lon="-5.789490910246968">
        <ele>1713.21</ele>
        <time>2019-03-12T14:32:18Z</time>
      </trkpt>
      <trkpt lat="31.243731994181871" lon="-5.789053542539477">
        <ele>1712.73</ele>
        <time>2019-03-12T14:32:19Z</time>
      </trkpt>
      <trkpt lat="31.243717409670353" lon="-5.788906188681722">
        <ele>1712.25</ele>
        <time>2019-03-12T14:32:20Z</time>
      </trkpt>
      <trkpt lat="31.243686396628618" lon="-5.788755733519793">
        <ele>1712.73</ele>
        <time>2019-03-12T14:32:21Z</time>
      </trkpt>
      <trkpt lat="31.243632165715098" lon="-5.788611061871052">
        <ele>1713.6900000000001</ele>
        <time>2019-03-12T14:32:22Z</time>
      </trkpt>
      <trkpt lat="31.243550693616271" lon="-5.788478711619973">
        <ele>1713.6900000000001</ele>
        <time>2019-03-12T14:32:23Z</time>
      </trkpt>
      <trkpt lat="31.243446255102754" lon="-5.788354491814971">
        <ele>1712.73</ele>
        <time>2019-03-12T14:32:24Z</time>
      </trkpt>
      <trkpt lat="31.243329076096416" lon="-5.788227338343859">
        <ele>1726.6700000000001</ele>
        <time>2019-03-12T14:32:29Z</time>
      </trkpt>
      <trkpt lat="31.242724237963557" lon="-5.787527030333877">
        <ele>1740.1199999999999</ele>
        <time>2019-03-12T14:32:30Z</time>
      </trkpt>
      <trkpt lat="31.242631450295448" lon="-5.787361236289144">
        <ele>1743.97</ele>
        <time>2019-03-12T14:32:31Z</time>
      </trkpt>
      <trkpt lat="31.242549810558558" lon="-5.787181612104178">
        <ele>1747.8099999999999</ele>
        <time>2019-03-12T14:32:42Z</time>
      </trkpt>
      <trkpt lat="31.241591507568955" lon="-5.785070545971394">
        <ele>1748.29</ele>
        <time>2019-03-12T14:32:57Z</time>
      </trkpt>
      <trkpt lat="31.239945469424129" lon="-5.782074853777885">
        <ele>1751.1800000000001</ele>
        <time>2019-03-12T14:33:06Z</time>
      </trkpt>
      <trkpt lat="31.23869170434773" lon="-5.780656551942229">
        <ele>1755.5</ele>
        <time>2019-03-12T14:33:19Z</time>
      </trkpt>
      <trkpt lat="31.236934019252658" lon="-5.778680853545666">
        <ele>1755.99</ele>
        <time>2019-03-12T14:33:28Z</time>
      </trkpt>
      <trkpt lat="31.23569400049746" lon="-5.77738031744957">
        <ele>1756.95</ele>
        <time>2019-03-12T14:33:42Z</time>
      </trkpt>
      <trkpt lat="31.23346877284348" lon="-5.775287775322795">
        <ele>1757.4300000000001</ele>
        <time>2019-03-12T14:33:56Z</time>
      </trkpt>
      <trkpt lat="31.23116978444159" lon="-5.773254157975316">
        <ele>1758.3900000000001</ele>
        <time>2019-03-12T14:34:02Z</time>
      </trkpt>
      <trkpt lat="31.230170326307416" lon="-5.772568853572011">
        <ele>1769.9200000000001</ele>
        <time>2019-03-12T14:34:03Z</time>
      </trkpt>
      <trkpt lat="31.230035545304418" lon="-5.772422421723604">
        <ele>1773.77</ele>
        <time>2019-03-12T14:34:04Z</time>
      </trkpt>
      <trkpt lat="31.229915097355843" lon="-5.772253777831793">
        <ele>1775.21</ele>
        <time>2019-03-12T14:34:05Z</time>
      </trkpt>
      <trkpt lat="31.229815185070038" lon="-5.772067196667194">
        <ele>1775.21</ele>
        <time>2019-03-12T14:34:06Z</time>
      </trkpt>
      <trkpt lat="31.229730360209942" lon="-5.771870389580727">
        <ele>1775.21</ele>
        <time>2019-03-12T14:34:16Z</time>
      </trkpt>
      <trkpt lat="31.229006582871079" lon="-5.770063167437911">
        <ele>1775.6900000000001</ele>
        <time>2019-03-12T14:34:25Z</time>
      </trkpt>
      <trkpt lat="31.228521605953574" lon="-5.76890017837286">
        <ele>1781.9400000000001</ele>
        <time>2019-03-12T14:34:30Z</time>
      </trkpt>
      <trkpt lat="31.228264281526208" lon="-5.768450237810612">
        <ele>1782.9000000000001</ele>
        <time>2019-03-12T14:34:31Z</time>
      </trkpt>
      <trkpt lat="31.228198818862438" lon="-5.768375722691417">
        <ele>1783.8599999999999</ele>
        <time>2019-03-12T14:34:32Z</time>
      </trkpt>
      <trkpt lat="31.228126483038068" lon="-5.768305733799934">
        <ele>1784.3399999999999</ele>
        <time>2019-03-12T14:34:45Z</time>
      </trkpt>
      <trkpt lat="31.226963577792048" lon="-5.767334857955575">
        <ele>1784.8199999999999</ele>
        <time>2019-03-12T14:34:55Z</time>
      </trkpt>
      <trkpt lat="31.226213816553354" lon="-5.766338249668479">
        <ele>1784.8199999999999</ele>
        <time>2019-03-12T14:34:56Z</time>
      </trkpt>
      <trkpt lat="31.226166458800435" lon="-5.766240684315562">
        <ele>1787.23</ele>
        <time>2019-03-12T14:34:57Z</time>
      </trkpt>
      <trkpt lat="31.226128404960036" lon="-5.76613649725914">
        <ele>1787.23</ele>
        <time>2019-03-12T14:34:58Z</time>
      </trkpt>
      <trkpt lat="31.226099487394094" lon="-5.766027951613069">
        <ele>1787.71</ele>
        <time>2019-03-12T14:34:59Z</time>
      </trkpt>
      <trkpt lat="31.226075598970056" lon="-5.765916053205729">
        <ele>1788.1900000000001</ele>
        <time>2019-03-12T14:35:00Z</time>
      </trkpt>
      <trkpt lat="31.226055147126317" lon="-5.765801807865501">
        <ele>1788.6700000000001</ele>
        <time>2019-03-12T14:35:12Z</time>
      </trkpt>
      <trkpt lat="31.22589404694736" lon="-5.764354337006807">
        <ele>1789.6300000000001</ele>
        <time>2019-03-12T14:35:17Z</time>
      </trkpt>
      <trkpt lat="31.225807294249535" lon="-5.763683030381799">
        <ele>1802.1300000000001</ele>
        <time>2019-03-12T14:35:18Z</time>
      </trkpt>
      <trkpt lat="31.225757421925664" lon="-5.763544728979468">
        <ele>1806.9400000000001</ele>
        <time>2019-03-12T14:35:19Z</time>
      </trkpt>
      <trkpt lat="31.225680727511644" lon="-5.763417072594166">
        <ele>1807.9000000000001</ele>
        <time>2019-03-12T14:35:20Z</time>
      </trkpt>
      <trkpt lat="31.225581485778093" lon="-5.763306180015206">
        <ele>1809.3399999999999</ele>
        <time>2019-03-12T14:35:21Z</time>
      </trkpt>
      <trkpt lat="31.225471515208483" lon="-5.763204675167799">
        <ele>1810.3</ele>
        <time>2019-03-12T14:35:32Z</time>
      </trkpt>
      <trkpt lat="31.224113060161471" lon="-5.762199852615595">
        <ele>1811.26</ele>
        <time>2019-03-12T14:35:36Z</time>
      </trkpt>
      <trkpt lat="31.223609475418925" lon="-5.761768519878388">
        <ele>1812.22</ele>
        <time>2019-03-12T14:35:37Z</time>
      </trkpt>
      <trkpt lat="31.223485423251987" lon="-5.76170414686203">
        <ele>1814.6300000000001</ele>
        <time>2019-03-12T14:35:38Z</time>
      </trkpt>
      <trkpt lat="31.223358940333128" lon="-5.761685706675053">
        <ele>1815.5899999999999</ele>
        <time>2019-03-12T14:35:39Z</time>
      </trkpt>
      <trkpt lat="31.223231703042984" lon="-5.761707667261362">
        <ele>1817.03</ele>
        <time>2019-03-12T14:35:40Z</time>
      </trkpt>
      <trkpt lat="31.223107567057014" lon="-5.761750414967537">
        <ele>1817.99</ele>
        <time>2019-03-12T14:35:41Z</time>
      </trkpt>
      <trkpt lat="31.222983933985233" lon="-5.761799616739154">
        <ele>1818.95</ele>
        <time>2019-03-12T14:35:43Z</time>
      </trkpt>
      <trkpt lat="31.222745636478066" lon="-5.761924926191568">
        <ele>1819.9100000000001</ele>
        <time>2019-03-12T14:35:44Z</time>
      </trkpt>
      <trkpt lat="31.222652262076735" lon="-5.762023832648993">
        <ele>1820.8699999999999</ele>
        <time>2019-03-12T14:35:46Z</time>
      </trkpt>
      <trkpt lat="31.222490910440683" lon="-5.762210916727781">
        <ele>1821.8399999999999</ele>
        <time>2019-03-12T14:35:47Z</time>
      </trkpt>
      <trkpt lat="31.222399799153209" lon="-5.762262297794223">
        <ele>1822.3199999999999</ele>
        <time>2019-03-12T14:35:48Z</time>
      </trkpt>
      <trkpt lat="31.222300305962563" lon="-5.762282917276025">
        <ele>1823.28</ele>
        <time>2019-03-12T14:35:49Z</time>
      </trkpt>
      <trkpt lat="31.222197711467743" lon="-5.762274703010917">
        <ele>1823.76</ele>
        <time>2019-03-12T14:35:50Z</time>
      </trkpt>
      <trkpt lat="31.222101403400302" lon="-5.762242684140801">
        <ele>1824.72</ele>
        <time>2019-03-12T14:35:51Z</time>
      </trkpt>
      <trkpt lat="31.222022194415331" lon="-5.762184010818601">
        <ele>1825.6800000000001</ele>
        <time>2019-03-12T14:35:52Z</time>
      </trkpt>
      <trkpt lat="31.221968969330192" lon="-5.762094240635634">
        <ele>1830.97</ele>
        <time>2019-03-12T14:35:53Z</time>
      </trkpt>
      <trkpt lat="31.221944661810994" lon="-5.761984689161181">
        <ele>1831.9300000000001</ele>
        <time>2019-03-12T14:35:54Z</time>
      </trkpt>
      <trkpt lat="31.221946757286787" lon="-5.76187077909708">
        <ele>1832.8900000000001</ele>
        <time>2019-03-12T14:35:55Z</time>
      </trkpt>
      <trkpt lat="31.221963185817003" lon="-5.761752761900425">
        <ele>1840.5799999999999</ele>
        <time>2019-03-12T14:35:56Z</time>
      </trkpt>
      <trkpt lat="31.221980452537537" lon="-5.761632397770882">
        <ele>1841.54</ele>
        <time>2019-03-12T14:36:02Z</time>
      </trkpt>
      <trkpt lat="31.221988582983613" lon="-5.760841313749552">
        <ele>1842.5</ele>
        <time>2019-03-12T14:36:03Z</time>
      </trkpt>
      <trkpt lat="31.222036108374596" lon="-5.760718686506152">
        <ele>1843.47</ele>
        <time>2019-03-12T14:36:04Z</time>
      </trkpt>
      <trkpt lat="31.222102828323841" lon="-5.760602094233036">
        <ele>1844.4300000000001</ele>
        <time>2019-03-12T14:36:12Z</time>
      </trkpt>
      <trkpt lat="31.22284110635519" lon="-5.759804220870137">
        <ele>1844.9100000000001</ele>
        <time>2019-03-12T14:36:13Z</time>
      </trkpt>
      <trkpt lat="31.222908161580563" lon="-5.75969441793859">
        <ele>1845.8699999999999</ele>
        <time>2019-03-12T14:36:14Z</time>
      </trkpt>
      <trkpt lat="31.222934816032648" lon="-5.759577825665474">
        <ele>1846.3499999999999</ele>
        <time>2019-03-12T14:36:15Z</time>
      </trkpt>
      <trkpt lat="31.222914699465036" lon="-5.759467352181673">
        <ele>1847.3099999999999</ele>
        <time>2019-03-12T14:36:16Z</time>
      </trkpt>
      <trkpt lat="31.222858121618629" lon="-5.759371882304549">
        <ele>1847.79</ele>
        <time>2019-03-12T14:36:17Z</time>
      </trkpt>
      <trkpt lat="31.222776733338833" lon="-5.759297953918576">
        <ele>1848.75</ele>
        <time>2019-03-12T14:36:18Z</time>
      </trkpt>
      <trkpt lat="31.222693668678403" lon="-5.759221510961652">
        <ele>1849.71</ele>
        <time>2019-03-12T14:36:19Z</time>
      </trkpt>
      <trkpt lat="31.222628289833665" lon="-5.759126041084528">
        <ele>1850.1900000000001</ele>
        <time>2019-03-12T14:36:20Z</time>
      </trkpt>
      <trkpt lat="31.222590068355203" lon="-5.759019507095218">
        <ele>1859.3299999999999</ele>
        <time>2019-03-12T14:36:21Z</time>
      </trkpt>
      <trkpt lat="31.222589900717139" lon="-5.758906435221434">
        <ele>1868.9400000000001</ele>
        <time>2019-03-12T14:36:22Z</time>
      </trkpt>
      <trkpt lat="31.222627284005284" lon="-5.758800907060504">
        <ele>1869.4200000000001</ele>
        <time>2019-03-12T14:36:23Z</time>
      </trkpt>
      <trkpt lat="31.222688807174563" lon="-5.758704766631126">
        <ele>1870.3800000000001</ele>
        <time>2019-03-12T14:36:24Z</time>
      </trkpt>
      <trkpt lat="31.222759047523141" lon="-5.758608290925622">
        <ele>1871.3399999999999</ele>
        <time>2019-03-12T14:36:33Z</time>
      </trkpt>
      <trkpt lat="31.223628921434283" lon="-5.757578071206808">
        <ele>1872.3</ele>
        <time>2019-03-12T14:36:43Z</time>
      </trkpt>
      <trkpt lat="31.22460306622088" lon="-5.756316259503365">
        <ele>1873.27</ele>
        <time>2019-03-12T14:36:44Z</time>
      </trkpt>
      <trkpt lat="31.224687220528722" lon="-5.756200086325407">
        <ele>1874.23</ele>
        <time>2019-03-12T14:36:45Z</time>
      </trkpt>
      <trkpt lat="31.224757879972458" lon="-5.756077878177166">
        <ele>1875.1900000000001</ele>
        <time>2019-03-12T14:36:46Z</time>
      </trkpt>
      <trkpt lat="31.224810518324375" lon="-5.755944605916739">
        <ele>1881.9200000000001</ele>
        <time>2019-03-12T14:36:47Z</time>
      </trkpt>
      <trkpt lat="31.224838513880968" lon="-5.755799766629934">
        <ele>1882.4000000000001</ele>
        <time>2019-03-12T14:36:48Z</time>
      </trkpt>
      <trkpt lat="31.224843291565776" lon="-5.75565098784864">
        <ele>1883.3599999999999</ele>
        <time>2019-03-12T14:36:49Z</time>
      </trkpt>
      <trkpt lat="31.224827701225877" lon="-5.755500700324774">
        <ele>1884.3199999999999</ele>
        <time>2019-03-12T14:36:50Z</time>
      </trkpt>
      <trkpt lat="31.224805992096663" lon="-5.755347982048988">
        <ele>1884.8</ele>
        <time>2019-03-12T14:36:57Z</time>
      </trkpt>
      <trkpt lat="31.224611196666956" lon="-5.754275936633349">
        <ele>1886.24</ele>
        <time>2019-03-12T14:36:58Z</time>
      </trkpt>
      <trkpt lat="31.224561659619212" lon="-5.75414652004838">
        <ele>1886.24</ele>
        <time>2019-03-12T14:36:59Z</time>
      </trkpt>
      <trkpt lat="31.224499549716711" lon="-5.754027580842376">
        <ele>1886.72</ele>
        <time>2019-03-12T14:37:00Z</time>
      </trkpt>
      <trkpt lat="31.224424280226231" lon="-5.753909228369594">
        <ele>1887.21</ele>
        <time>2019-03-12T14:37:01Z</time>
      </trkpt>
      <trkpt lat="31.224335767328739" lon="-5.753787104040384">
        <ele>1887.6900000000001</ele>
        <time>2019-03-12T14:37:06Z</time>
      </trkpt>
      <trkpt lat="31.223792536184192" lon="-5.753185534849763">
        <ele>1888.6500000000001</ele>
        <time>2019-03-12T14:37:07Z</time>
      </trkpt>
      <trkpt lat="31.223664460703731" lon="-5.753085538744927">
        <ele>1888.6500000000001</ele>
        <time>2019-03-12T14:37:08Z</time>
      </trkpt>
      <trkpt lat="31.223535966128111" lon="-5.753007084131241">
        <ele>1889.1300000000001</ele>
        <time>2019-03-12T14:37:09Z</time>
      </trkpt>
      <trkpt lat="31.223416021093726" lon="-5.752951763570309">
        <ele>1889.6099999999999</ele>
        <time>2019-03-12T14:37:10Z</time>
      </trkpt>
      <trkpt lat="31.223304038867354" lon="-5.752923348918557">
        <ele>1891.53</ele>
        <time>2019-03-12T14:37:11Z</time>
      </trkpt>
      <trkpt lat="31.223195409402251" lon="-5.752928126603365">
        <ele>1892.49</ele>
        <time>2019-03-12T14:37:12Z</time>
      </trkpt>
      <trkpt lat="31.223090467974544" lon="-5.752962911501527">
        <ele>1892.97</ele>
        <time>2019-03-12T14:37:13Z</time>
      </trkpt>
      <trkpt lat="31.222994579002261" lon="-5.753024267032743">
        <ele>1893.9300000000001</ele>
        <time>2019-03-12T14:37:14Z</time>
      </trkpt>
      <trkpt lat="31.222908748313785" lon="-5.753097692504525">
        <ele>1894.9000000000001</ele>
        <time>2019-03-12T14:37:17Z</time>
      </trkpt>
      <trkpt lat="31.222647065296769" lon="-5.75331243686378">
        <ele>1895.8599999999999</ele>
        <time>2019-03-12T14:37:18Z</time>
      </trkpt>
      <trkpt lat="31.222546901553869" lon="-5.753370355814695">
        <ele>1896.8199999999999</ele>
        <time>2019-03-12T14:37:19Z</time>
      </trkpt>
      <trkpt lat="31.222441121935844" lon="-5.753418300300837">
        <ele>1896.8199999999999</ele>
        <time>2019-03-12T14:37:20Z</time>
      </trkpt>
      <trkpt lat="31.222331402823329" lon="-5.753453671932221">
        <ele>1897.3</ele>
        <time>2019-03-12T14:37:21Z</time>
      </trkpt>
      <trkpt lat="31.222221096977592" lon="-5.753464652225375">
        <ele>1897.78</ele>
        <time>2019-03-12T14:37:22Z</time>
      </trkpt>
      <trkpt lat="31.222113976255059" lon="-5.753449061885476">
        <ele>1898.26</ele>
        <time>2019-03-12T14:37:23Z</time>
      </trkpt>
      <trkpt lat="31.222016327083111" lon="-5.753402290865779">
        <ele>1899.7</ele>
        <time>2019-03-12T14:37:24Z</time>
      </trkpt>
      <trkpt lat="31.221938878297806" lon="-5.753324255347252">
        <ele>1900.6600000000001</ele>
        <time>2019-03-12T14:37:25Z</time>
      </trkpt>
      <trkpt lat="31.221890430897474" lon="-5.75321763753891">
        <ele>1901.1400000000001</ele>
        <time>2019-03-12T14:37:26Z</time>
      </trkpt>
      <trkpt lat="31.221870062872767" lon="-5.753095261752605">
        <ele>1902.1099999999999</ele>
        <time>2019-03-12T14:37:27Z</time>
      </trkpt>
      <trkpt lat="31.221859166398644" lon="-5.752963330596685">
        <ele>1902.5899999999999</ele>
        <time>2019-03-12T14:37:30Z</time>
      </trkpt>
      <trkpt lat="31.221784148365259" lon="-5.75256627984345">
        <ele>1903.55</ele>
        <time>2019-03-12T14:37:31Z</time>
      </trkpt>
      <trkpt lat="31.221733437851071" lon="-5.752459997311235">
        <ele>1904.99</ele>
        <time>2019-03-12T14:37:32Z</time>
      </trkpt>
      <trkpt lat="31.221659425646067" lon="-5.752373663708568">
        <ele>1905.95</ele>
        <time>2019-03-12T14:37:33Z</time>
      </trkpt>
      <trkpt lat="31.221565799787641" lon="-5.75230535119772">
        <ele>1906.9100000000001</ele>
        <time>2019-03-12T14:37:34Z</time>
      </trkpt>
      <trkpt lat="31.221459601074457" lon="-5.752249779179692">
        <ele>1907.8699999999999</ele>
        <time>2019-03-12T14:37:35Z</time>
      </trkpt>
      <trkpt lat="31.221345188096166" lon="-5.752200912684202">
        <ele>1908.8299999999999</ele>
        <time>2019-03-12T14:37:37Z</time>
      </trkpt>
      <trkpt lat="31.221121726557612" lon="-5.752123882994056">
        <ele>1910.28</ele>
        <time>2019-03-12T14:37:38Z</time>
      </trkpt>
      <trkpt lat="31.221013348549604" lon="-5.752115920186043">
        <ele>1911.24</ele>
        <time>2019-03-12T14:37:39Z</time>
      </trkpt>
      <trkpt lat="31.220904216170311" lon="-5.752129163593054">
        <ele>1912.2</ele>
        <time>2019-03-12T14:37:40Z</time>
      </trkpt>
      <trkpt lat="31.220792569220066" lon="-5.752158919349313">
        <ele>1913.1600000000001</ele>
        <time>2019-03-12T14:37:41Z</time>
      </trkpt>
      <trkpt lat="31.220681592822075" lon="-5.752206444740295">
        <ele>1913.6400000000001</ele>
        <time>2019-03-12T14:37:42Z</time>
      </trkpt>
      <trkpt lat="31.22057924978435" lon="-5.752262603491545">
        <ele>1914.1199999999999</ele>
        <time>2019-03-12T14:37:43Z</time>
      </trkpt>
      <trkpt lat="31.220488222315907" lon="-5.752310883253813">
        <ele>1914.5999999999999</ele>
        <time>2019-03-12T14:37:44Z</time>
      </trkpt>
      <trkpt lat="31.220405325293541" lon="-5.752331838011742">
        <ele>1915.0799999999999</ele>
        <time>2019-03-12T14:37:45Z</time>
      </trkpt>
      <trkpt lat="31.220333576202393" lon="-5.752315660938621">
        <ele>1916.04</ele>
        <time>2019-03-12T14:37:46Z</time>
      </trkpt>
      <trkpt lat="31.220275992527604" lon="-5.752263609319925">
        <ele>1916.53</ele>
        <time>2019-03-12T14:37:47Z</time>
      </trkpt>
      <trkpt lat="31.220239531248808" lon="-5.752190435305238">
        <ele>1917.49</ele>
        <time>2019-03-12T14:37:48Z</time>
      </trkpt>
      <trkpt lat="31.220214134082198" lon="-5.752104269340634">
        <ele>1921.8099999999999</ele>
        <time>2019-03-12T14:37:49Z</time>
      </trkpt>
      <trkpt lat="31.220187311992049" lon="-5.752006703987718">
        <ele>1922.29</ele>
        <time>2019-03-12T14:37:50Z</time>
      </trkpt>
      <trkpt lat="31.220153113827109" lon="-5.751903271302581">
        <ele>1924.22</ele>
        <time>2019-03-12T14:37:51Z</time>
      </trkpt>
      <trkpt lat="31.220104834064841" lon="-5.751795899122953">
        <ele>1924.22</ele>
        <time>2019-03-12T14:37:52Z</time>
      </trkpt>
      <trkpt lat="31.220045322552323" lon="-5.75168676674366">
        <ele>1924.7</ele>
        <time>2019-03-12T14:37:58Z</time>
      </trkpt>
      <trkpt lat="31.219653887674212" lon="-5.751037001609802">
        <ele>1927.0999999999999</ele>
        <time>2019-03-12T14:37:59Z</time>
      </trkpt>
      <trkpt lat="31.219583563506603" lon="-5.750948656350374">
        <ele>1927.0999999999999</ele>
        <time>2019-03-12T14:38:03Z</time>
      </trkpt>
      <trkpt lat="31.219283156096935" lon="-5.750658726319671">
        <ele>1927.5799999999999</ele>
        <time>2019-03-12T14:38:04Z</time>
      </trkpt>
      <trkpt lat="31.219195565208793" lon="-5.750621259212494">
        <ele>1928.0599999999999</ele>
        <time>2019-03-12T14:38:05Z</time>
      </trkpt>
      <trkpt lat="31.219099257141352" lon="-5.750606339424849">
        <ele>1928.54</ele>
        <time>2019-03-12T14:38:12Z</time>
      </trkpt>
      <trkpt lat="31.218310100957751" lon="-5.750684374943376">
        <ele>1929.02</ele>
        <time>2019-03-12T14:38:13Z</time>
      </trkpt>
      <trkpt lat="31.218206584453583" lon="-5.750675657764077">
        <ele>1929.02</ele>
        <time>2019-03-12T14:38:14Z</time>
      </trkpt>
      <trkpt lat="31.218105750158429" lon="-5.750641543418169">
        <ele>1928.54</ele>
        <time>2019-03-12T14:38:16Z</time>
      </trkpt>
      <trkpt lat="31.217915480956435" lon="-5.750567363575101">
        <ele>1929.02</ele>
        <time>2019-03-12T14:38:17Z</time>
      </trkpt>
      <trkpt lat="31.217816155403852" lon="-5.750570045784116">
        <ele>1929.02</ele>
        <time>2019-03-12T14:38:18Z</time>
      </trkpt>
      <trkpt lat="31.217712219804525" lon="-5.750607345253229">
        <ele>1929.5</ele>
        <time>2019-03-12T14:38:19Z</time>
      </trkpt>
      <trkpt lat="31.217607110738754" lon="-5.750664174556732">
        <ele>1929.5</ele>
        <time>2019-03-12T14:38:20Z</time>
      </trkpt>
      <trkpt lat="31.217506863176823" lon="-5.750723937526345">
        <ele>1929.98</ele>
        <time>2019-03-12T14:38:22Z</time>
      </trkpt>
      <trkpt lat="31.21733570471406" lon="-5.750810941681266">
        <ele>1930.46</ele>
        <time>2019-03-12T14:38:23Z</time>
      </trkpt>
      <trkpt lat="31.217265632003546" lon="-5.750804739072919">
        <ele>1930.46</ele>
        <time>2019-03-12T14:38:24Z</time>
      </trkpt>
      <trkpt lat="31.217212742194533" lon="-5.75075545348227">
        <ele>1930.46</ele>
        <time>2019-03-12T14:38:25Z</time>
      </trkpt>
      <trkpt lat="31.21718181297183" lon="-5.750677501782775">
        <ele>1930.46</ele>
        <time>2019-03-12T14:38:26Z</time>
      </trkpt>
      <trkpt lat="31.21717200614512" lon="-5.750588066875935">
        <ele>1930.95</ele>
        <time>2019-03-12T14:38:27Z</time>
      </trkpt>
      <trkpt lat="31.217169156298041" lon="-5.750490417703986">
        <ele>1931.4300000000001</ele>
        <time>2019-03-12T14:38:29Z</time>
      </trkpt>
      <trkpt lat="31.217142669484019" lon="-5.750281708315015">
        <ele>1931.4300000000001</ele>
        <time>2019-03-12T14:38:30Z</time>
      </trkpt>
      <trkpt lat="31.217112159356475" lon="-5.750167295336723">
        <ele>1931.9100000000001</ele>
        <time>2019-03-12T14:38:31Z</time>
      </trkpt>
      <trkpt lat="31.217068489640951" lon="-5.750047937035561">
        <ele>1932.3900000000001</ele>
        <time>2019-03-12T14:38:32Z</time>
      </trkpt>
      <trkpt lat="31.217012414708734" lon="-5.749925812706351">
        <ele>1932.8699999999999</ele>
        <time>2019-03-12T14:38:33Z</time>
      </trkpt>
      <trkpt lat="31.216942509636283" lon="-5.749808130785823">
        <ele>1933.3499999999999</ele>
        <time>2019-03-12T14:38:34Z</time>
      </trkpt>
      <trkpt lat="31.216859193518758" lon="-5.749705452471972">
        <ele>1933.8299999999999</ele>
        <time>2019-03-12T14:38:35Z</time>
      </trkpt>
      <trkpt lat="31.216763807460666" lon="-5.749624148011208">
        <ele>1934.79</ele>
        <time>2019-03-12T14:38:36Z</time>
      </trkpt>
      <trkpt lat="31.216654423624277" lon="-5.749567234888673">
        <ele>1935.75</ele>
        <time>2019-03-12T14:38:37Z</time>
      </trkpt>
      <trkpt lat="31.216532634571195" lon="-5.749532030895352">
        <ele>1936.23</ele>
        <time>2019-03-12T14:38:38Z</time>
      </trkpt>
      <trkpt lat="31.216404223814607" lon="-5.74951627291739">
        <ele>1936.71</ele>
        <time>2019-03-12T14:38:39Z</time>
      </trkpt>
      <trkpt lat="31.216270616278052" lon="-5.749519122764468">
        <ele>1937.1900000000001</ele>
        <time>2019-03-12T14:38:40Z</time>
      </trkpt>
      <trkpt lat="31.216138266026974" lon="-5.749531947076321">
        <ele>1937.1900000000001</ele>
        <time>2019-03-12T14:38:42Z</time>
      </trkpt>
      <trkpt lat="31.215888485312462" lon="-5.749548710882664">
        <ele>1937.6700000000001</ele>
        <time>2019-03-12T14:38:43Z</time>
      </trkpt>
      <trkpt lat="31.215774491429329" lon="-5.749531108886004">
        <ele>1937.6700000000001</ele>
        <time>2019-03-12T14:38:44Z</time>
      </trkpt>
      <trkpt lat="31.215671310201287" lon="-5.749492300674319">
        <ele>1938.1600000000001</ele>
        <time>2019-03-12T14:38:45Z</time>
      </trkpt>
      <trkpt lat="31.215587574988604" lon="-5.749421389773488">
        <ele>1938.1600000000001</ele>
        <time>2019-03-12T14:38:46Z</time>
      </trkpt>
      <trkpt lat="31.215526973828673" lon="-5.749320471659303">
        <ele>1938.6400000000001</ele>
        <time>2019-03-12T14:38:47Z</time>
      </trkpt>
      <trkpt lat="31.215484058484435" lon="-5.749204885214567">
        <ele>1939.1199999999999</ele>
        <time>2019-03-12T14:38:48Z</time>
      </trkpt>
      <trkpt lat="31.215442903339863" lon="-5.749094495549798">
        <ele>1939.1199999999999</ele>
        <time>2019-03-12T14:38:49Z</time>
      </trkpt>
      <trkpt lat="31.215387666597962" lon="-5.749008664861321">
        <ele>1939.5999999999999</ele>
        <time>2019-03-12T14:38:50Z</time>
      </trkpt>
      <trkpt lat="31.215310553088784" lon="-5.74895728379488">
        <ele>1939.5999999999999</ele>
        <time>2019-03-12T14:38:51Z</time>
      </trkpt>
      <trkpt lat="31.215218603610992" lon="-5.748937837779522">
        <ele>1939.5999999999999</ele>
        <time>2019-03-12T14:38:52Z</time>
      </trkpt>
      <trkpt lat="31.215118691325188" lon="-5.748936496675015">
        <ele>1939.5999999999999</ele>
        <time>2019-03-12T14:38:53Z</time>
      </trkpt>
      <trkpt lat="31.215019449591637" lon="-5.748936412855983">
        <ele>1939.5999999999999</ele>
        <time>2019-03-12T14:38:54Z</time>
      </trkpt>
      <trkpt lat="31.21492724865675" lon="-5.748913865536451">
        <ele>1940.0799999999999</ele>
        <time>2019-03-12T14:38:55Z</time>
      </trkpt>
      <trkpt lat="31.21484954841435" lon="-5.748857874423266">
        <ele>1940.0799999999999</ele>
        <time>2019-03-12T14:38:56Z</time>
      </trkpt>
      <trkpt lat="31.214794730767608" lon="-5.748765338212252">
        <ele>1940.5599999999999</ele>
        <time>2019-03-12T14:38:57Z</time>
      </trkpt>
      <trkpt lat="31.214762460440397" lon="-5.748650170862675">
        <ele>1941.04</ele>
        <time>2019-03-12T14:38:58Z</time>
      </trkpt>
      <trkpt lat="31.214740918949246" lon="-5.748523687943816">
        <ele>1941.04</ele>
        <time>2019-03-12T14:38:59Z</time>
      </trkpt>
      <trkpt lat="31.214714599773288" lon="-5.748400054872036">
        <ele>1941.52</ele>
        <time>2019-03-12T14:39:00Z</time>
      </trkpt>
      <trkpt lat="31.214670427143574" lon="-5.748296454548836">
        <ele>1942</ele>
        <time>2019-03-12T14:39:01Z</time>
      </trkpt>
      <trkpt lat="31.214602114632726" lon="-5.748222274705768">
        <ele>1943.4400000000001</ele>
        <time>2019-03-12T14:39:02Z</time>
      </trkpt>
      <trkpt lat="31.214514775201678" lon="-5.74817986227572">
        <ele>1943.9200000000001</ele>
        <time>2019-03-12T14:39:03Z</time>
      </trkpt>
      <trkpt lat="31.214413940906525" lon="-5.748162344098091">
        <ele>1944.4000000000001</ele>
        <time>2019-03-12T14:39:04Z</time>
      </trkpt>
      <trkpt lat="31.214304389432073" lon="-5.748161002993584">
        <ele>1944.8800000000001</ele>
        <time>2019-03-12T14:39:05Z</time>
      </trkpt>
      <trkpt lat="31.214188132435083" lon="-5.748168295249343">
        <ele>1945.3599999999999</ele>
        <time>2019-03-12T14:39:07Z</time>
      </trkpt>
      <trkpt lat="31.213980009779334" lon="-5.748162008821964">
        <ele>1945.8499999999999</ele>
        <time>2019-03-12T14:39:08Z</time>
      </trkpt>
      <trkpt lat="31.213901890441775" lon="-5.748122362419963">
        <ele>1947.77</ele>
        <time>2019-03-12T14:39:09Z</time>
      </trkpt>
      <trkpt lat="31.213850174099207" lon="-5.748048014938831">
        <ele>1948.25</ele>
        <time>2019-03-12T14:39:10Z</time>
      </trkpt>
      <trkpt lat="31.213830811902881" lon="-5.747953299432993">
        <ele>1948.73</ele>
        <time>2019-03-12T14:39:11Z</time>
      </trkpt>
      <trkpt lat="31.213830979540944" lon="-5.747851710766554">
        <ele>1949.21</ele>
        <time>2019-03-12T14:39:12Z</time>
      </trkpt>
      <trkpt lat="31.213830728083849" lon="-5.747745679691434">
        <ele>1950.1700000000001</ele>
        <time>2019-03-12T14:39:16Z</time>
      </trkpt>
      <trkpt lat="31.213809521868825" lon="-5.747279226779938">
        <ele>1955.9400000000001</ele>
        <time>2019-03-12T14:39:17Z</time>
      </trkpt>
      <trkpt lat="31.213774234056473" lon="-5.747172106057406">
        <ele>1956.9000000000001</ele>
        <time>2019-03-12T14:39:18Z</time>
      </trkpt>
      <trkpt lat="31.213715225458145" lon="-5.747076300904155">
        <ele>1957.8599999999999</ele>
        <time>2019-03-12T14:39:19Z</time>
      </trkpt>
      <trkpt lat="31.213636435568333" lon="-5.746988626196981">
        <ele>1958.8199999999999</ele>
        <time>2019-03-12T14:39:20Z</time>
      </trkpt>
      <trkpt lat="31.213546916842461" lon="-5.746902460232377">
        <ele>1959.78</ele>
        <time>2019-03-12T14:39:28Z</time>
      </trkpt>
      <trkpt lat="31.212654076516628" lon="-5.746167870238423">
        <ele>1960.27</ele>
        <time>2019-03-12T14:39:29Z</time>
      </trkpt>
      <trkpt lat="31.21254569850862" lon="-5.746091930195689">
        <ele>1961.23</ele>
        <time>2019-03-12T14:39:30Z</time>
      </trkpt>
      <trkpt lat="31.212433045729995" lon="-5.746047757565975">
        <ele>1962.1900000000001</ele>
        <time>2019-03-12T14:39:31Z</time>
      </trkpt>
      <trkpt lat="31.212321566417813" lon="-5.746038621291518">
        <ele>1962.6700000000001</ele>
        <time>2019-03-12T14:39:32Z</time>
      </trkpt>
      <trkpt lat="31.21221830137074" lon="-5.746061922982335">
        <ele>1962.6700000000001</ele>
        <time>2019-03-12T14:39:33Z</time>
      </trkpt>
      <trkpt lat="31.212125681340694" lon="-5.746089247986674">
        <ele>1963.1500000000001</ele>
        <time>2019-03-12T14:39:34Z</time>
      </trkpt>
      <trkpt lat="31.212042532861233" lon="-5.746089918538928">
        <ele>1965.0699999999999</ele>
        <time>2019-03-12T14:39:35Z</time>
      </trkpt>
      <trkpt lat="31.211970616132021" lon="-5.746053457260132">
        <ele>1965.55</ele>
        <time>2019-03-12T14:39:36Z</time>
      </trkpt>
      <trkpt lat="31.211915966123343" lon="-5.745981875807047">
        <ele>1966.51</ele>
        <time>2019-03-12T14:39:37Z</time>
      </trkpt>
      <trkpt lat="31.211875816807151" lon="-5.745890513062477">
        <ele>1966.99</ele>
        <time>2019-03-12T14:39:38Z</time>
      </trkpt>
      <trkpt lat="31.211841031908989" lon="-5.745794540271163">
        <ele>1967.48</ele>
        <time>2019-03-12T14:39:41Z</time>
      </trkpt>
      <trkpt lat="31.211737347766757" lon="-5.745458258315921">
        <ele>1968.4400000000001</ele>
        <time>2019-03-12T14:39:42Z</time>
      </trkpt>
      <trkpt lat="31.211686637252569" lon="-5.74535558000207">
        <ele>1969.4000000000001</ele>
        <time>2019-03-12T14:39:43Z</time>
      </trkpt>
      <trkpt lat="31.211615391075611" lon="-5.745270168408752">
        <ele>1969.8800000000001</ele>
        <time>2019-03-12T14:39:44Z</time>
      </trkpt>
      <trkpt lat="31.211523609235883" lon="-5.745201520621777">
        <ele>1970.3599999999999</ele>
        <time>2019-03-12T14:39:45Z</time>
      </trkpt>
      <trkpt lat="31.211422523483634" lon="-5.745158270001411">
        <ele>1972.28</ele>
        <time>2019-03-12T14:39:46Z</time>
      </trkpt>
      <trkpt lat="31.211318923160434" lon="-5.745150223374367">
        <ele>1972.76</ele>
        <time>2019-03-12T14:39:47Z</time>
      </trkpt>
      <trkpt lat="31.211213562637568" lon="-5.745174866169691">
        <ele>1973.72</ele>
        <time>2019-03-12T14:39:48Z</time>
      </trkpt>
      <trkpt lat="31.211103927344084" lon="-5.7452158536762">
        <ele>1974.2</ele>
        <time>2019-03-12T14:39:49Z</time>
      </trkpt>
      <trkpt lat="31.210989933460951" lon="-5.745264049619436">
        <ele>1974.6900000000001</ele>
        <time>2019-03-12T14:39:52Z</time>
      </trkpt>
      <trkpt lat="31.210669912397861" lon="-5.745404111221433">
        <ele>1975.1700000000001</ele>
        <time>2019-03-12T14:39:53Z</time>
      </trkpt>
      <trkpt lat="31.21057846583426" lon="-5.745418025180697">
        <ele>1975.6500000000001</ele>
        <time>2019-03-12T14:39:54Z</time>
      </trkpt>
      <trkpt lat="31.210500514134765" lon="-5.745394723489881">
        <ele>1976.1300000000001</ele>
        <time>2019-03-12T14:39:55Z</time>
      </trkpt>
      <trkpt lat="31.210445361211896" lon="-5.745333200320602">
        <ele>1976.6099999999999</ele>
        <time>2019-03-12T14:39:56Z</time>
      </trkpt>
      <trkpt lat="31.21041476726532" lon="-5.745247453451157">
        <ele>1977.0899999999999</ele>
        <time>2019-03-12T14:39:57Z</time>
      </trkpt>
      <trkpt lat="31.210406133905053" lon="-5.745150726288557">
        <ele>1977.5699999999999</ele>
        <time>2019-03-12T14:39:58Z</time>
      </trkpt>
      <trkpt lat="31.210402278229594" lon="-5.745050478726625">
        <ele>1979.01</ele>
        <time>2019-03-12T14:39:59Z</time>
      </trkpt>
      <trkpt lat="31.210387442260981" lon="-5.744945788756013">
        <ele>1979.49</ele>
        <time>2019-03-12T14:40:00Z</time>
      </trkpt>
      <trkpt lat="31.210355423390865" lon="-5.744840931147337">
        <ele>1979.97</ele>
        <time>2019-03-12T14:40:01Z</time>
      </trkpt>
      <trkpt lat="31.210305634886026" lon="-5.744739007204771">
        <ele>1985.26</ele>
        <time>2019-03-12T14:40:02Z</time>
      </trkpt>
      <trkpt lat="31.210244195535779" lon="-5.744636999443173">
        <ele>1986.22</ele>
        <time>2019-03-12T14:40:05Z</time>
      </trkpt>
      <trkpt lat="31.210040934383869" lon="-5.744323348626494">
        <ele>1987.1800000000001</ele>
        <time>2019-03-12T14:40:06Z</time>
      </trkpt>
      <trkpt lat="31.209959043189883" lon="-5.744240283966065">
        <ele>1988.1400000000001</ele>
        <time>2019-03-12T14:40:07Z</time>
      </trkpt>
      <trkpt lat="31.20986751280725" lon="-5.744165433570743">
        <ele>1988.6199999999999</ele>
        <time>2019-03-12T14:40:14Z</time>
      </trkpt>
      <trkpt lat="31.209102664142847" lon="-5.74371624737978">
        <ele>1989.5899999999999</ele>
        <time>2019-03-12T14:40:15Z</time>
      </trkpt>
      <trkpt lat="31.209000153467059" lon="-5.743695124983788">
        <ele>1990.55</ele>
        <time>2019-03-12T14:40:16Z</time>
      </trkpt>
      <trkpt lat="31.208895212039351" lon="-5.743711134418845">
        <ele>1991.03</ele>
        <time>2019-03-12T14:40:17Z</time>
      </trkpt>
      <trkpt lat="31.208789683878422" lon="-5.743754049763084">
        <ele>1991.51</ele>
        <time>2019-03-12T14:40:18Z</time>
      </trkpt>
      <trkpt lat="31.208691028878093" lon="-5.743808951228857">
        <ele>1991.51</ele>
        <time>2019-03-12T14:40:19Z</time>
      </trkpt>
      <trkpt lat="31.208600336685777" lon="-5.743854381144047">
        <ele>1991.99</ele>
        <time>2019-03-12T14:40:20Z</time>
      </trkpt>
      <trkpt lat="31.208518277853727" lon="-5.743862092494965">
        <ele>1992.47</ele>
        <time>2019-03-12T14:40:21Z</time>
      </trkpt>
      <trkpt lat="31.20845197699964" lon="-5.743823368102312">
        <ele>1997.76</ele>
        <time>2019-03-12T14:40:22Z</time>
      </trkpt>
      <trkpt lat="31.208407301455736" lon="-5.743751199916005">
        <ele>1999.2</ele>
        <time>2019-03-12T14:40:23Z</time>
      </trkpt>
      <trkpt lat="31.208382155746222" lon="-5.743667129427195">
        <ele>2000.1600000000001</ele>
        <time>2019-03-12T14:40:24Z</time>
      </trkpt>
      <trkpt lat="31.20836840942502" lon="-5.743580712005496">
        <ele>2000.6400000000001</ele>
        <time>2019-03-12T14:40:25Z</time>
      </trkpt>
      <trkpt lat="31.208356255665421" lon="-5.743492199108005">
        <ele>2001.1199999999999</ele>
        <time>2019-03-12T14:40:33Z</time>
      </trkpt>
      <trkpt lat="31.208190629258752" lon="-5.742506654933095">
        <ele>2001.5999999999999</ele>
        <time>2019-03-12T14:40:35Z</time>
      </trkpt>
      <trkpt lat="31.208136230707169" lon="-5.742248659953475">
        <ele>2002.0799999999999</ele>
        <time>2019-03-12T14:40:36Z</time>
      </trkpt>
      <trkpt lat="31.208090046420693" lon="-5.74214774183929">
        <ele>2002.0799999999999</ele>
        <time>2019-03-12T14:40:37Z</time>
      </trkpt>
      <trkpt lat="31.208028104156256" lon="-5.742068281397224">
        <ele>2002.0799999999999</ele>
        <time>2019-03-12T14:40:38Z</time>
      </trkpt>
      <trkpt lat="31.20795258320868" lon="-5.742000471800566">
        <ele>2001.5999999999999</ele>
        <time>2019-03-12T14:40:39Z</time>
      </trkpt>
      <trkpt lat="31.207868596538901" lon="-5.741940792649984">
        <ele>2001.1199999999999</ele>
        <time>2019-03-12T14:40:40Z</time>
      </trkpt>
      <trkpt lat="31.207777988165617" lon="-5.741891926154494">
        <ele>2000.6400000000001</ele>
        <time>2019-03-12T14:40:41Z</time>
      </trkpt>
      <trkpt lat="31.207678746432066" lon="-5.741859991103411">
        <ele>1999.2</ele>
        <time>2019-03-12T14:40:42Z</time>
      </trkpt>
      <trkpt lat="31.207570703700185" lon="-5.74185211211443">
        <ele>1998.24</ele>
        <time>2019-03-12T14:40:43Z</time>
      </trkpt>
      <trkpt lat="31.207455033436418" lon="-5.741868792101741">
        <ele>1997.76</ele>
        <time>2019-03-12T14:40:44Z</time>
      </trkpt>
      <trkpt lat="31.207332154735923" lon="-5.741900140419602">
        <ele>1991.99</ele>
        <time>2019-03-12T14:40:45Z</time>
      </trkpt>
      <trkpt lat="31.207202821969986" lon="-5.741938194260001">
        <ele>1991.51</ele>
        <time>2019-03-12T14:40:47Z</time>
      </trkpt>
      <trkpt lat="31.206919932737947" lon="-5.741998124867678">
        <ele>1990.55</ele>
        <time>2019-03-12T14:40:48Z</time>
      </trkpt>
      <trkpt lat="31.206766124814749" lon="-5.74199921451509">
        <ele>1985.74</ele>
        <time>2019-03-12T14:40:49Z</time>
      </trkpt>
      <trkpt lat="31.206605611369014" lon="-5.741981277242303">
        <ele>1983.8199999999999</ele>
        <time>2019-03-12T14:40:55Z</time>
      </trkpt>
      <trkpt lat="31.205681087449193" lon="-5.741837108507752">
        <ele>1983.3399999999999</ele>
        <time>2019-03-12T14:40:56Z</time>
      </trkpt>
      <trkpt lat="31.205538678914309" lon="-5.741799976676703">
        <ele>1983.3399999999999</ele>
        <time>2019-03-12T14:40:57Z</time>
      </trkpt>
      <trkpt lat="31.205396438017488" lon="-5.741744572296739">
        <ele>1982.8599999999999</ele>
        <time>2019-03-12T14:41:05Z</time>
      </trkpt>
      <trkpt lat="31.204453473910689" lon="-5.741129675880075">
        <ele>1981.9000000000001</ele>
        <time>2019-03-12T14:41:10Z</time>
      </trkpt>
      <trkpt lat="31.204035552218556" lon="-5.740823233500123">
        <ele>1980.9300000000001</ele>
        <time>2019-03-12T14:41:11Z</time>
      </trkpt>
      <trkpt lat="31.203937819227576" lon="-5.740776630118489">
        <ele>1979.97</ele>
        <time>2019-03-12T14:41:12Z</time>
      </trkpt>
      <trkpt lat="31.20383002795279" lon="-5.740736899897456">
        <ele>1979.01</ele>
        <time>2019-03-12T14:41:13Z</time>
      </trkpt>
      <trkpt lat="31.203716285526752" lon="-5.740706054493785">
        <ele>1977.5699999999999</ele>
        <time>2019-03-12T14:41:14Z</time>
      </trkpt>
      <trkpt lat="31.203594747930765" lon="-5.740691302344203">
        <ele>1976.6099999999999</ele>
        <time>2019-03-12T14:41:15Z</time>
      </trkpt>
      <trkpt lat="31.203464409336448" lon="-5.740699013695121">
        <ele>1975.6500000000001</ele>
        <time>2019-03-12T14:41:16Z</time>
      </trkpt>
      <trkpt lat="31.203331053256989" lon="-5.740729607641697">
        <ele>1974.2</ele>
        <time>2019-03-12T14:41:17Z</time>
      </trkpt>
      <trkpt lat="31.2031992059201" lon="-5.740779647603631">
        <ele>1973.24</ele>
        <time>2019-03-12T14:41:18Z</time>
      </trkpt>
      <trkpt lat="31.203075405210257" lon="-5.740842511877418">
        <ele>1966.51</ele>
        <time>2019-03-12T14:41:19Z</time>
      </trkpt>
      <trkpt lat="31.202967446297407" lon="-5.740914847701788">
        <ele>1962.1900000000001</ele>
        <time>2019-03-12T14:41:20Z</time>
      </trkpt>
      <trkpt lat="31.202878849580884" lon="-5.741008389741182">
        <ele>1961.23</ele>
        <time>2019-03-12T14:41:21Z</time>
      </trkpt>
      <trkpt lat="31.202807100489736" lon="-5.741127831861377">
        <ele>1961.23</ele>
        <time>2019-03-12T14:41:22Z</time>
      </trkpt>
      <trkpt lat="31.202744403854012" lon="-5.741261187940836">
        <ele>1960.75</ele>
        <time>2019-03-12T14:41:30Z</time>
      </trkpt>
      <trkpt lat="31.202258421108127" lon="-5.7421023119241">
        <ele>1960.75</ele>
        <time>2019-03-12T14:41:37Z</time>
      </trkpt>
      <trkpt lat="31.201698426157236" lon="-5.742999343201518">
        <ele>1961.23</ele>
        <time>2019-03-12T14:41:38Z</time>
      </trkpt>
      <trkpt lat="31.201577642932534" lon="-5.743110738694668">
        <ele>1961.23</ele>
        <time>2019-03-12T14:41:39Z</time>
      </trkpt>
      <trkpt lat="31.201442442834377" lon="-5.743204532191157">
        <ele>1961.23</ele>
        <time>2019-03-12T14:41:40Z</time>
      </trkpt>
      <trkpt lat="31.201298525556922" lon="-5.743284495547414">
        <ele>1961.23</ele>
        <time>2019-03-12T14:41:41Z</time>
      </trkpt>
      <trkpt lat="31.201154021546245" lon="-5.74335515499115">
        <ele>1961.23</ele>
        <time>2019-03-12T14:41:42Z</time>
      </trkpt>
      <trkpt lat="31.201011026278138" lon="-5.743414331227541">
        <ele>1961.23</ele>
        <time>2019-03-12T14:41:43Z</time>
      </trkpt>
      <trkpt lat="31.200873646885157" lon="-5.743459761142731">
        <ele>1961.23</ele>
        <time>2019-03-12T14:41:44Z</time>
      </trkpt>
      <trkpt lat="31.200739787891507" lon="-5.743481805548072">
        <ele>1961.23</ele>
        <time>2019-03-12T14:41:45Z</time>
      </trkpt>
      <trkpt lat="31.200604001060128" lon="-5.743471747264266">
        <ele>1960.75</ele>
        <time>2019-03-12T14:41:46Z</time>
      </trkpt>
      <trkpt lat="31.200467627495527" lon="-5.743434531614184">
        <ele>1960.75</ele>
        <time>2019-03-12T14:41:47Z</time>
      </trkpt>
      <trkpt lat="31.200332511216402" lon="-5.743371415883303">
        <ele>1960.75</ele>
        <time>2019-03-12T14:41:48Z</time>
      </trkpt>
      <trkpt lat="31.200207453221083" lon="-5.743284160271287">
        <ele>1965.0699999999999</ele>
        <time>2019-03-12T14:41:49Z</time>
      </trkpt>
      <trkpt lat="31.200091280043125" lon="-5.743189780041575">
        <ele>1966.51</ele>
        <time>2019-03-12T14:41:50Z</time>
      </trkpt>
      <trkpt lat="31.199974352493882" lon="-5.7431108225137">
        <ele>1966.51</ele>
        <time>2019-03-12T14:41:51Z</time>
      </trkpt>
      <trkpt lat="31.199848288670182" lon="-5.743061117827892">
        <ele>1966.03</ele>
        <time>2019-03-12T14:41:52Z</time>
      </trkpt>
      <trkpt lat="31.199715686962008" lon="-5.743034882470965">
        <ele>1965.55</ele>
        <time>2019-03-12T14:42:02Z</time>
      </trkpt>
      <trkpt lat="31.198248518630862" lon="-5.742708826437593">
        <ele>1965.0699999999999</ele>
        <time>2019-03-12T14:42:08Z</time>
      </trkpt>
      <trkpt lat="31.19739968329668" lon="-5.74272089637816">
        <ele>1964.5899999999999</ele>
        <time>2019-03-12T14:42:09Z</time>
      </trkpt>
      <trkpt lat="31.197266075760126" lon="-5.742683680728078">
        <ele>1964.5899999999999</ele>
        <time>2019-03-12T14:42:10Z</time>
      </trkpt>
      <trkpt lat="31.197136742994189" lon="-5.74262416921556">
        <ele>1964.1099999999999</ele>
        <time>2019-03-12T14:42:11Z</time>
      </trkpt>
      <trkpt lat="31.19701411575079" lon="-5.742544876411557">
        <ele>1964.1099999999999</ele>
        <time>2019-03-12T14:42:12Z</time>
      </trkpt>
      <trkpt lat="31.196894841268659" lon="-5.742450663819909">
        <ele>1964.5899999999999</ele>
        <time>2019-03-12T14:42:13Z</time>
      </trkpt>
      <trkpt lat="31.196784032508731" lon="-5.742345303297043">
        <ele>1965.0699999999999</ele>
        <time>2019-03-12T14:42:14Z</time>
      </trkpt>
      <trkpt lat="31.196686886250973" lon="-5.74222200550139">
        <ele>1965.55</ele>
        <time>2019-03-12T14:42:15Z</time>
      </trkpt>
      <trkpt lat="31.196599714457989" lon="-5.742089655250311">
        <ele>1966.03</ele>
        <time>2019-03-12T14:42:16Z</time>
      </trkpt>
      <trkpt lat="31.1965093575418" lon="-5.741963339969516">
        <ele>1966.51</ele>
        <time>2019-03-12T14:42:17Z</time>
      </trkpt>
      <trkpt lat="31.196404667571187" lon="-5.741856638342142">
        <ele>1966.51</ele>
        <time>2019-03-12T14:42:18Z</time>
      </trkpt>
      <trkpt lat="31.196282207965851" lon="-5.741777261719108">
        <ele>1966.99</ele>
        <time>2019-03-12T14:42:19Z</time>
      </trkpt>
      <trkpt lat="31.196148013696074" lon="-5.741725713014603">
        <ele>1966.99</ele>
        <time>2019-03-12T14:42:20Z</time>
      </trkpt>
      <trkpt lat="31.196004599332809" lon="-5.741695035248995">
        <ele>1966.99</ele>
        <time>2019-03-12T14:42:21Z</time>
      </trkpt>
      <trkpt lat="31.195853305980563" lon="-5.741679780185223">
        <ele>1967.48</ele>
        <time>2019-03-12T14:42:22Z</time>
      </trkpt>
      <trkpt lat="31.195695223286748" lon="-5.741683719679713">
        <ele>1967.96</ele>
        <time>2019-03-12T14:42:23Z</time>
      </trkpt>
      <trkpt lat="31.195530099794269" lon="-5.741709703579545">
        <ele>1968.4400000000001</ele>
        <time>2019-03-12T14:42:24Z</time>
      </trkpt>
      <trkpt lat="31.195359528064728" lon="-5.741747505962849">
        <ele>1968.4400000000001</ele>
        <time>2019-03-12T14:42:28Z</time>
      </trkpt>
      <trkpt lat="31.194725269451737" lon="-5.741870300844312">
        <ele>1968.4400000000001</ele>
        <time>2019-03-12T14:42:29Z</time>
      </trkpt>
      <trkpt lat="31.194582358002663" lon="-5.741848088800907">
        <ele>1968.4400000000001</ele>
        <time>2019-03-12T14:42:30Z</time>
      </trkpt>
      <trkpt lat="31.194445984438062" lon="-5.741793774068356">
        <ele>1969.4000000000001</ele>
        <time>2019-03-12T14:42:32Z</time>
      </trkpt>
      <trkpt lat="31.19418446905911" lon="-5.741673158481717">
        <ele>1970.3599999999999</ele>
        <time>2019-03-12T14:42:33Z</time>
      </trkpt>
      <trkpt lat="31.194047257304192" lon="-5.741651449352503">
        <ele>1973.24</ele>
        <time>2019-03-12T14:42:34Z</time>
      </trkpt>
      <trkpt lat="31.193902753293514" lon="-5.741661256179214">
        <ele>1973.72</ele>
        <time>2019-03-12T14:42:35Z</time>
      </trkpt>
      <trkpt lat="31.193756069988012" lon="-5.74168941937387">
        <ele>1974.2</ele>
        <time>2019-03-12T14:42:36Z</time>
      </trkpt>
      <trkpt lat="31.193611985072494" lon="-5.741727137938142">
        <ele>1974.2</ele>
        <time>2019-03-12T14:42:37Z</time>
      </trkpt>
      <trkpt lat="31.193473096936941" lon="-5.74177198112011">
        <ele>1973.72</ele>
        <time>2019-03-12T14:42:41Z</time>
      </trkpt>
      <trkpt lat="31.193043608218431" lon="-5.741874994710088">
        <ele>1973.24</ele>
        <time>2019-03-12T14:42:42Z</time>
      </trkpt>
      <trkpt lat="31.192957274615765" lon="-5.741843730211258">
        <ele>1972.76</ele>
        <time>2019-03-12T14:42:43Z</time>
      </trkpt>
      <trkpt lat="31.192884100601077" lon="-5.741773741319776">
        <ele>1972.76</ele>
        <time>2019-03-12T14:42:44Z</time>
      </trkpt>
      <trkpt lat="31.192825092002749" lon="-5.741673074662685">
        <ele>1972.76</ele>
        <time>2019-03-12T14:42:45Z</time>
      </trkpt>
      <trkpt lat="31.192779326811433" lon="-5.741557152941823">
        <ele>1972.76</ele>
        <time>2019-03-12T14:42:46Z</time>
      </trkpt>
      <trkpt lat="31.192741189152002" lon="-5.741438716650009">
        <ele>1973.24</ele>
        <time>2019-03-12T14:42:47Z</time>
      </trkpt>
      <trkpt lat="31.19269416667521" lon="-5.741331931203604">
        <ele>1973.24</ele>
        <time>2019-03-12T14:42:48Z</time>
      </trkpt>
      <trkpt lat="31.192632140591741" lon="-5.741246938705444">
        <ele>1973.72</ele>
        <time>2019-03-12T14:42:49Z</time>
      </trkpt>
      <trkpt lat="31.192552763968706" lon="-5.741193210706115">
        <ele>1974.6900000000001</ele>
        <time>2019-03-12T14:42:50Z</time>
      </trkpt>
      <trkpt lat="31.192457126453519" lon="-5.741174602881074">
        <ele>1975.1700000000001</ele>
        <time>2019-03-12T14:42:51Z</time>
      </trkpt>
      <trkpt lat="31.192352520301938" lon="-5.741178039461374">
        <ele>1977.0899999999999</ele>
        <time>2019-03-12T14:42:52Z</time>
      </trkpt>
      <trkpt lat="31.192243304103613" lon="-5.741180889308453">
        <ele>1978.05</ele>
        <time>2019-03-12T14:42:53Z</time>
      </trkpt>
      <trkpt lat="31.192128723487258" lon="-5.741164376959205">
        <ele>1982.3800000000001</ele>
        <time>2019-03-12T14:42:54Z</time>
      </trkpt>
      <trkpt lat="31.192007940262556" lon="-5.741135291755199">
        <ele>1984.3</ele>
        <time>2019-03-12T14:42:55Z</time>
      </trkpt>
      <trkpt lat="31.191879780963063" lon="-5.74109866283834">
        <ele>1984.3</ele>
        <time>2019-03-12T14:43:05Z</time>
      </trkpt>
      <trkpt lat="31.190430382266641" lon="-5.740566747263074">
        <ele>1985.74</ele>
        <time>2019-03-12T14:43:06Z</time>
      </trkpt>
      <trkpt lat="31.190278166905046" lon="-5.740502290427685">
        <ele>1986.22</ele>
        <time>2019-03-12T14:43:17Z</time>
      </trkpt>
      <trkpt lat="31.188642857596278" lon="-5.73951062746346">
        <ele>1986.22</ele>
        <time>2019-03-12T14:43:23Z</time>
      </trkpt>
      <trkpt lat="31.187769714742899" lon="-5.738953314721584">
        <ele>1986.7</ele>
        <time>2019-03-12T14:43:24Z</time>
      </trkpt>
      <trkpt lat="31.187654882669449" lon="-5.738826245069504">
        <ele>1986.7</ele>
        <time>2019-03-12T14:43:31Z</time>
      </trkpt>
      <trkpt lat="31.186928171664476" lon="-5.737778507173061">
        <ele>1986.7</ele>
        <time>2019-03-12T14:43:32Z</time>
      </trkpt>
      <trkpt lat="31.186799760907888" lon="-5.737650515511632">
        <ele>1987.1800000000001</ele>
        <time>2019-03-12T14:43:33Z</time>
      </trkpt>
      <trkpt lat="31.186655340716243" lon="-5.737538784742355">
        <ele>1991.99</ele>
        <time>2019-03-12T14:43:34Z</time>
      </trkpt>
      <trkpt lat="31.186496168375015" lon="-5.737449266016483">
        <ele>1993.9100000000001</ele>
        <time>2019-03-12T14:43:35Z</time>
      </trkpt>
      <trkpt lat="31.186325931921601" lon="-5.737381791695952">
        <ele>1993.9100000000001</ele>
        <time>2019-03-12T14:43:36Z</time>
      </trkpt>
      <trkpt lat="31.186151253059506" lon="-5.73733133263886">
        <ele>1993.4300000000001</ele>
        <time>2019-03-12T14:43:37Z</time>
      </trkpt>
      <trkpt lat="31.185974646359682" lon="-5.737285818904638">
        <ele>1993.9100000000001</ele>
        <time>2019-03-12T14:43:47Z</time>
      </trkpt>
      <trkpt lat="31.184263816103339" lon="-5.736993458122015">
        <ele>1994.3900000000001</ele>
        <time>2019-03-12T14:43:52Z</time>
      </trkpt>
      <trkpt lat="31.183477593585849" lon="-5.737152798101306">
        <ele>1994.3900000000001</ele>
        <time>2019-03-12T14:43:53Z</time>
      </trkpt>
      <trkpt lat="31.183328982442617" lon="-5.737230163067579">
        <ele>1994.3900000000001</ele>
        <time>2019-03-12T14:43:54Z</time>
      </trkpt>
      <trkpt lat="31.18318690918386" lon="-5.737323453649879">
        <ele>1994.3900000000001</ele>
        <time>2019-03-12T14:43:57Z</time>
      </trkpt>
      <trkpt lat="31.182797150686383" lon="-5.737576587125659">
        <ele>1994.3900000000001</ele>
        <time>2019-03-12T14:43:58Z</time>
      </trkpt>
      <trkpt lat="31.182667063549161" lon="-5.737618077546358">
        <ele>1994.3900000000001</ele>
        <time>2019-03-12T14:43:59Z</time>
      </trkpt>
      <trkpt lat="31.182532114908099" lon="-5.737631572410464">
        <ele>1994.3900000000001</ele>
        <time>2019-03-12T14:44:00Z</time>
      </trkpt>
      <trkpt lat="31.182399429380894" lon="-5.737620759755373">
        <ele>1994.3900000000001</ele>
        <time>2019-03-12T14:44:01Z</time>
      </trkpt>
      <trkpt lat="31.182279400527477" lon="-5.737591003999114">
        <ele>1996.3199999999999</ele>
        <time>2019-03-12T14:44:02Z</time>
      </trkpt>
      <trkpt lat="31.182169932872057" lon="-5.737544735893607">
        <ele>1995.8299999999999</ele>
        <time>2019-03-12T14:44:03Z</time>
      </trkpt>
      <trkpt lat="31.182065578177571" lon="-5.737481871619821">
        <ele>1995.8299999999999</ele>
        <time>2019-03-12T14:44:04Z</time>
      </trkpt>
      <trkpt lat="31.18196533061564" lon="-5.737402746453881">
        <ele>1996.3199999999999</ele>
        <time>2019-03-12T14:44:05Z</time>
      </trkpt>
      <trkpt lat="31.181864999234676" lon="-5.737316999584436">
        <ele>1996.3199999999999</ele>
        <time>2019-03-12T14:44:12Z</time>
      </trkpt>
      <trkpt lat="31.181156728416681" lon="-5.736514264717698">
        <ele>1996.8</ele>
        <time>2019-03-12T14:44:13Z</time>
      </trkpt>
      <trkpt lat="31.181072657927871" lon="-5.736359283328056">
        <ele>1997.28</ele>
        <time>2019-03-12T14:44:14Z</time>
      </trkpt>
      <trkpt lat="31.180994957685471" lon="-5.736194662749767">
        <ele>1997.28</ele>
        <time>2019-03-12T14:44:18Z</time>
      </trkpt>
      <trkpt lat="31.180689018219709" lon="-5.735532073304057">
        <ele>2001.1199999999999</ele>
        <time>2019-03-12T14:44:19Z</time>
      </trkpt>
      <trkpt lat="31.180590949952602" lon="-5.735386228188872">
        <ele>2004.49</ele>
        <time>2019-03-12T14:44:20Z</time>
      </trkpt>
      <trkpt lat="31.180475112050772" lon="-5.735255805775523">
        <ele>2007.8499999999999</ele>
        <time>2019-03-12T14:44:21Z</time>
      </trkpt>
      <trkpt lat="31.180343516170979" lon="-5.735140303149819">
        <ele>2008.3299999999999</ele>
        <time>2019-03-12T14:44:22Z</time>
      </trkpt>
      <trkpt lat="31.18020286783576" lon="-5.735034104436636">
        <ele>2008.3299999999999</ele>
        <time>2019-03-12T14:44:32Z</time>
      </trkpt>
      <trkpt lat="31.178945749998093" lon="-5.733755109831691">
        <ele>2008.8099999999999</ele>
        <time>2019-03-12T14:44:47Z</time>
      </trkpt>
      <trkpt lat="31.17717725224793" lon="-5.731714284047484">
        <ele>2009.29</ele>
        <time>2019-03-12T14:44:56Z</time>
      </trkpt>
      <trkpt lat="31.176265049725771" lon="-5.730618014931679">
        <ele>2012.6600000000001</ele>
        <time>2019-03-12T14:44:57Z</time>
      </trkpt>
      <trkpt lat="31.176153654232621" lon="-5.730567136779428">
        <ele>2013.1400000000001</ele>
        <time>2019-03-12T14:44:58Z</time>
      </trkpt>
      <trkpt lat="31.176034128293395" lon="-5.730555821210146">
        <ele>2013.1400000000001</ele>
        <time>2019-03-12T14:44:59Z</time>
      </trkpt>
      <trkpt lat="31.175911165773869" lon="-5.730569735169411">
        <ele>2013.1400000000001</ele>
        <time>2019-03-12T14:45:00Z</time>
      </trkpt>
      <trkpt lat="31.175787365064025" lon="-5.730586079880595">
        <ele>2013.1400000000001</ele>
        <time>2019-03-12T14:45:07Z</time>
      </trkpt>
      <trkpt lat="31.174952611327171" lon="-5.730569818988442">
        <ele>2014.5799999999999</ele>
        <time>2019-03-12T14:45:08Z</time>
      </trkpt>
      <trkpt lat="31.174848005175591" lon="-5.730516090989113">
        <ele>2015.0599999999999</ele>
        <time>2019-03-12T14:45:09Z</time>
      </trkpt>
      <trkpt lat="31.174755049869418" lon="-5.730438977479935">
        <ele>2015.0599999999999</ele>
        <time>2019-03-12T14:45:10Z</time>
      </trkpt>
      <trkpt lat="31.174672236666083" lon="-5.730344261974096">
        <ele>2015.54</ele>
        <time>2019-03-12T14:45:11Z</time>
      </trkpt>
      <trkpt lat="31.174593949690461" lon="-5.730243595317006">
        <ele>2016.02</ele>
        <time>2019-03-12T14:45:23Z</time>
      </trkpt>
      <trkpt lat="31.173891881480813" lon="-5.729067362844944">
        <ele>2016.5</ele>
        <time>2019-03-12T14:45:26Z</time>
      </trkpt>
      <trkpt lat="31.173774199560285" lon="-5.728760669007897">
        <ele>2016.5</ele>
        <time>2019-03-12T14:45:27Z</time>
      </trkpt>
      <trkpt lat="31.173717454075813" lon="-5.728667797520757">
        <ele>2016.98</ele>
        <time>2019-03-12T14:45:28Z</time>
      </trkpt>
      <trkpt lat="31.173654170706868" lon="-5.728581631556153">
        <ele>2016.98</ele>
        <time>2019-03-12T14:45:29Z</time>
      </trkpt>
      <trkpt lat="31.173583259806037" lon="-5.728501416742802">
        <ele>2018.4300000000001</ele>
        <time>2019-03-12T14:45:30Z</time>
      </trkpt>
      <trkpt lat="31.173504302278161" lon="-5.728426985442638">
        <ele>2021.79</ele>
        <time>2019-03-12T14:45:31Z</time>
      </trkpt>
      <trkpt lat="31.173417717218399" lon="-5.728361187502742">
        <ele>2022.27</ele>
        <time>2019-03-12T14:45:32Z</time>
      </trkpt>
      <trkpt lat="31.173324258998036" lon="-5.72830687277019">
        <ele>2022.27</ele>
        <time>2019-03-12T14:45:33Z</time>
      </trkpt>
      <trkpt lat="31.173227950930595" lon="-5.728259347379208">
        <ele>2022.27</ele>
        <time>2019-03-12T14:45:45Z</time>
      </trkpt>
      <trkpt lat="31.171834375709295" lon="-5.727642104029656">
        <ele>2022.75</ele>
        <time>2019-03-12T14:45:55Z</time>
      </trkpt>
      <trkpt lat="31.170640373602509" lon="-5.726902736350894">
        <ele>2022.27</ele>
        <time>2019-03-12T14:45:56Z</time>
      </trkpt>
      <trkpt lat="31.17055001668632" lon="-5.726790921762586">
        <ele>2015.0599999999999</ele>
        <time>2019-03-12T14:45:57Z</time>
      </trkpt>
      <trkpt lat="31.170466030016541" lon="-5.726666450500488">
        <ele>2006.4100000000001</ele>
        <time>2019-03-12T14:45:58Z</time>
      </trkpt>
      <trkpt lat="31.170391347259283" lon="-5.726530244573951">
        <ele>2000.6400000000001</ele>
        <time>2019-03-12T14:45:59Z</time>
      </trkpt>
      <trkpt lat="31.170321023091674" lon="-5.726384734734893">
        <ele>1999.6800000000001</ele>
        <time>2019-03-12T14:46:09Z</time>
      </trkpt>
      <trkpt lat="31.169854402542114" lon="-5.724800219759345">
        <ele>1999.2</ele>
        <time>2019-03-12T14:46:22Z</time>
      </trkpt>
      <trkpt lat="31.169523317366838" lon="-5.722794849425554">
        <ele>1998.72</ele>
        <time>2019-03-12T14:46:32Z</time>
      </trkpt>
      <trkpt lat="31.168908085674047" lon="-5.721585676074028">
        <ele>1997.76</ele>
        <time>2019-03-12T14:46:41Z</time>
      </trkpt>
      <trkpt lat="31.168463509529829" lon="-5.720524862408638">
        <ele>1991.51</ele>
        <time>2019-03-12T14:46:42Z</time>
      </trkpt>
      <trkpt lat="31.168460911139846" lon="-5.720410868525505">
        <ele>1990.55</ele>
        <time>2019-03-12T14:46:43Z</time>
      </trkpt>
      <trkpt lat="31.168472142890096" lon="-5.720297042280436">
        <ele>1989.5899999999999</ele>
        <time>2019-03-12T14:46:44Z</time>
      </trkpt>
      <trkpt lat="31.16849628277123" lon="-5.720177767798305">
        <ele>1985.74</ele>
        <time>2019-03-12T14:46:45Z</time>
      </trkpt>
      <trkpt lat="31.168531989678741" lon="-5.720046842470765">
        <ele>1987.6600000000001</ele>
        <time>2019-03-12T14:46:53Z</time>
      </trkpt>
      <trkpt lat="31.168899619951844" lon="-5.71880447678268">
        <ele>1987.1800000000001</ele>
        <time>2019-03-12T14:46:54Z</time>
      </trkpt>
      <trkpt lat="31.168982181698084" lon="-5.718642789870501">
        <ele>1986.7</ele>
        <time>2019-03-12T14:46:55Z</time>
      </trkpt>
      <trkpt lat="31.169078992679715" lon="-5.7184839528054">
        <ele>1986.22</ele>
        <time>2019-03-12T14:47:07Z</time>
      </trkpt>
      <trkpt lat="31.170228319242597" lon="-5.716705564409494">
        <ele>1985.26</ele>
        <time>2019-03-12T14:47:16Z</time>
      </trkpt>
      <trkpt lat="31.170829553157091" lon="-5.715720020234585">
        <ele>1984.78</ele>
        <time>2019-03-12T14:47:19Z</time>
      </trkpt>
      <trkpt lat="31.170976236462593" lon="-5.715377870947123">
        <ele>1984.3</ele>
        <time>2019-03-12T14:47:20Z</time>
      </trkpt>
      <trkpt lat="31.17100783623755" lon="-5.715255411341786">
        <ele>1983.8199999999999</ele>
        <time>2019-03-12T14:47:21Z</time>
      </trkpt>
      <trkpt lat="31.171020325273275" lon="-5.715129263699055">
        <ele>1983.3399999999999</ele>
        <time>2019-03-12T14:47:22Z</time>
      </trkpt>
      <trkpt lat="31.171013955026865" lon="-5.715003367513418">
        <ele>1977.5699999999999</ele>
        <time>2019-03-12T14:47:23Z</time>
      </trkpt>
      <trkpt lat="31.170988138765097" lon="-5.714881243184209">
        <ele>1977.5699999999999</ele>
        <time>2019-03-12T14:47:24Z</time>
      </trkpt>
      <trkpt lat="31.170943044126034" lon="-5.714763225987554">
        <ele>1977.5699999999999</ele>
        <time>2019-03-12T14:47:25Z</time>
      </trkpt>
      <trkpt lat="31.170884873718023" lon="-5.714650824666023">
        <ele>1975.1700000000001</ele>
        <time>2019-03-12T14:47:26Z</time>
      </trkpt>
      <trkpt lat="31.170820081606507" lon="-5.714542111381888">
        <ele>1974.2</ele>
        <time>2019-03-12T14:47:42Z</time>
      </trkpt>
      <trkpt lat="31.169825652614236" lon="-5.712848799303174">
        <ele>1973.72</ele>
        <time>2019-03-12T14:47:48Z</time>
      </trkpt>
      <trkpt lat="31.169547960162163" lon="-5.712270028889179">
        <ele>1970.3599999999999</ele>
        <time>2019-03-12T14:47:49Z</time>
      </trkpt>
      <trkpt lat="31.169519294053316" lon="-5.712167350575328">
        <ele>1966.99</ele>
        <time>2019-03-12T14:48:02Z</time>
      </trkpt>
      <trkpt lat="31.169298598542809" lon="-5.710699511691928">
        <ele>1964.1099999999999</ele>
        <time>2019-03-12T14:48:17Z</time>
      </trkpt>
      <trkpt lat="31.169072454795241" lon="-5.709050288423896">
        <ele>1961.71</ele>
        <time>2019-03-12T14:48:30Z</time>
      </trkpt>
      <trkpt lat="31.16917060688138" lon="-5.707620419561863">
        <ele>1958.3399999999999</ele>
        <time>2019-03-12T14:48:52Z</time>
      </trkpt>
      <trkpt lat="31.169388452544808" lon="-5.705089839175344">
        <ele>1956.9000000000001</ele>
        <time>2019-03-12T14:49:09Z</time>
      </trkpt>
      <trkpt lat="31.169567992910743" lon="-5.702831922098994">
        <ele>1955.9400000000001</ele>
        <time>2019-03-12T14:49:22Z</time>
      </trkpt>
      <trkpt lat="31.169722639024258" lon="-5.700691686943173">
        <ele>1954.02</ele>
        <time>2019-03-12T14:49:32Z</time>
      </trkpt>
      <trkpt lat="31.17006135173142" lon="-5.698741469532251">
        <ele>1950.1700000000001</ele>
        <time>2019-03-12T14:49:43Z</time>
      </trkpt>
      <trkpt lat="31.170478435233235" lon="-5.696869622915983">
        <ele>1948.73</ele>
        <time>2019-03-12T14:49:48Z</time>
      </trkpt>
      <trkpt lat="31.170539455488324" lon="-5.696581872180104">
        <ele>1948.25</ele>
        <time>2019-03-12T14:50:04Z</time>
      </trkpt>
      <trkpt lat="31.1705372761935" lon="-5.696586901322007">
        <ele>1948.25</ele>
        <time>2019-03-12T14:50:30Z</time>
      </trkpt>
      <trkpt lat="31.17060374468565" lon="-5.696325721219182">
        <ele>1948.73</ele>
        <time>2019-03-12T14:50:36Z</time>
      </trkpt>
      <trkpt lat="31.170696951448917" lon="-5.695487949997187">
        <ele>1948.73</ele>
        <time>2019-03-12T14:50:38Z</time>
      </trkpt>
      <trkpt lat="31.170704746618867" lon="-5.695135071873665">
        <ele>1950.6500000000001</ele>
        <time>2019-03-12T14:50:39Z</time>
      </trkpt>
      <trkpt lat="31.17068680934608" lon="-5.694958548992872">
        <ele>1951.1300000000001</ele>
        <time>2019-03-12T14:50:40Z</time>
      </trkpt>
      <trkpt lat="31.170650096610188" lon="-5.694787306711078">
        <ele>1947.77</ele>
        <time>2019-03-12T14:50:41Z</time>
      </trkpt>
      <trkpt lat="31.170598212629557" lon="-5.694626793265343">
        <ele>1947.29</ele>
        <time>2019-03-12T14:50:42Z</time>
      </trkpt>
      <trkpt lat="31.1705407127738" lon="-5.694474577903748">
        <ele>1940.0799999999999</ele>
        <time>2019-03-12T14:50:52Z</time>
      </trkpt>
      <trkpt lat="31.16988399066031" lon="-5.693169347941876">
        <ele>1939.1199999999999</ele>
        <time>2019-03-12T14:51:00Z</time>
      </trkpt>
      <trkpt lat="31.169186783954501" lon="-5.692019015550613">
        <ele>1938.1600000000001</ele>
        <time>2019-03-12T14:51:06Z</time>
      </trkpt>
      <trkpt lat="31.168701471760869" lon="-5.690963063389063">
        <ele>1937.6700000000001</ele>
        <time>2019-03-12T14:51:07Z</time>
      </trkpt>
      <trkpt lat="31.168649001047015" lon="-5.69078017026186">
        <ele>1937.1900000000001</ele>
        <time>2019-03-12T14:51:15Z</time>
      </trkpt>
      <trkpt lat="31.168458731845021" lon="-5.689411656931043">
        <ele>1936.71</ele>
        <time>2019-03-12T14:51:16Z</time>
      </trkpt>
      <trkpt lat="31.168430903926492" lon="-5.689286179840565">
        <ele>1936.71</ele>
        <time>2019-03-12T14:51:17Z</time>
      </trkpt>
      <trkpt lat="31.168380863964558" lon="-5.689167827367783">
        <ele>1936.71</ele>
        <time>2019-03-12T14:51:18Z</time>
      </trkpt>
      <trkpt lat="31.168314898386598" lon="-5.689051235094667">
        <ele>1936.23</ele>
        <time>2019-03-12T14:51:19Z</time>
      </trkpt>
      <trkpt lat="31.168248010799289" lon="-5.688927602022886">
        <ele>1935.75</ele>
        <time>2019-03-12T14:51:20Z</time>
      </trkpt>
      <trkpt lat="31.168198892846704" lon="-5.688791815191507">
        <ele>1935.27</ele>
        <time>2019-03-12T14:51:21Z</time>
      </trkpt>
      <trkpt lat="31.168171064928174" lon="-5.68864437751472">
        <ele>1933.8299999999999</ele>
        <time>2019-03-12T14:51:22Z</time>
      </trkpt>
      <trkpt lat="31.168164191767573" lon="-5.688487468287349">
        <ele>1934.79</ele>
        <time>2019-03-12T14:51:23Z</time>
      </trkpt>
      <trkpt lat="31.16817282512784" lon="-5.688322931528091">
        <ele>1934.79</ele>
        <time>2019-03-12T14:51:24Z</time>
      </trkpt>
      <trkpt lat="31.168185900896788" lon="-5.688156131654978">
        <ele>1932.8699999999999</ele>
        <time>2019-03-12T14:51:35Z</time>
      </trkpt>
      <trkpt lat="31.168256308883429" lon="-5.686420574784279">
        <ele>1931.9100000000001</ele>
        <time>2019-03-12T14:51:47Z</time>
      </trkpt>
      <trkpt lat="31.168232755735517" lon="-5.684770178049803">
        <ele>1932.8699999999999</ele>
        <time>2019-03-12T14:51:59Z</time>
      </trkpt>
      <trkpt lat="31.168592171743512" lon="-5.683102263137698">
        <ele>1931.9100000000001</ele>
        <time>2019-03-12T14:52:09Z</time>
      </trkpt>
      <trkpt lat="31.169200362637639" lon="-5.681744562461972">
        <ele>1933.8299999999999</ele>
        <time>2019-03-12T14:52:22Z</time>
      </trkpt>
      <trkpt lat="31.169702438637614" lon="-5.680089555680752">
        <ele>1933.8299999999999</ele>
        <time>2019-03-12T14:52:34Z</time>
      </trkpt>
      <trkpt lat="31.170220272615552" lon="-5.678391633555293">
        <ele>1933.8299999999999</ele>
        <time>2019-03-12T14:52:37Z</time>
      </trkpt>
      <trkpt lat="31.170324459671974" lon="-5.678028529509902">
        <ele>1933.8299999999999</ele>
        <time>2019-03-12T14:52:47Z</time>
      </trkpt>
      <trkpt lat="31.170424036681652" lon="-5.676908874884248">
        <ele>1933.8299999999999</ele>
        <time>2019-03-12T14:52:51Z</time>
      </trkpt>
      <trkpt lat="31.170476255938411" lon="-5.676540741696954">
        <ele>1931.4300000000001</ele>
        <time>2019-03-12T14:52:52Z</time>
      </trkpt>
      <trkpt lat="31.170471981167793" lon="-5.676449378952384">
        <ele>1931.4300000000001</ele>
        <time>2019-03-12T14:52:53Z</time>
      </trkpt>
      <trkpt lat="31.170453540980816" lon="-5.67635977640748">
        <ele>1930.95</ele>
        <time>2019-03-12T14:52:54Z</time>
      </trkpt>
      <trkpt lat="31.170420097187161" lon="-5.676272353157401">
        <ele>1930.95</ele>
        <time>2019-03-12T14:52:55Z</time>
      </trkpt>
      <trkpt lat="31.170379193499684" lon="-5.676177637651563">
        <ele>1930.95</ele>
        <time>2019-03-12T14:53:03Z</time>
      </trkpt>
      <trkpt lat="31.17005992680788" lon="-5.67528915591538">
        <ele>1931.4300000000001</ele>
        <time>2019-03-12T14:53:04Z</time>
      </trkpt>
      <trkpt lat="31.170048695057631" lon="-5.675182621926069">
        <ele>1931.4300000000001</ele>
        <time>2019-03-12T14:53:05Z</time>
      </trkpt>
      <trkpt lat="31.170054981485009" lon="-5.675079943612218">
        <ele>1932.3900000000001</ele>
        <time>2019-03-12T14:53:06Z</time>
      </trkpt>
      <trkpt lat="31.170083396136761" lon="-5.674979528412223">
        <ele>1934.79</ele>
        <time>2019-03-12T14:53:07Z</time>
      </trkpt>
      <trkpt lat="31.170131424441934" lon="-5.674884058535099">
        <ele>1934.79</ele>
        <time>2019-03-12T14:53:08Z</time>
      </trkpt>
      <trkpt lat="31.170191774144769" lon="-5.674793617799878">
        <ele>1934.79</ele>
        <time>2019-03-12T14:53:09Z</time>
      </trkpt>
      <trkpt lat="31.170257655903697" lon="-5.674711978062987">
        <ele>1933.3499999999999</ele>
        <time>2019-03-12T14:53:11Z</time>
      </trkpt>
      <trkpt lat="31.170387826859951" lon="-5.674566887319088">
        <ele>1931.4300000000001</ele>
        <time>2019-03-12T14:53:18Z</time>
      </trkpt>
      <trkpt lat="31.170729221776128" lon="-5.67428944632411">
        <ele>1930.95</ele>
        <time>2019-03-12T14:53:19Z</time>
      </trkpt>
      <trkpt lat="31.170767275616527" lon="-5.674268743023276">
        <ele>1930.95</ele>
        <time>2019-03-12T14:53:28Z</time>
      </trkpt>
      <trkpt lat="31.171265747398138" lon="-5.673994487151504">
        <ele>1930.95</ele>
        <time>2019-03-12T14:53:38Z</time>
      </trkpt>
      <trkpt lat="31.171853989362717" lon="-5.673563238233328">
        <ele>1927.5799999999999</ele>
        <time>2019-03-12T14:53:47Z</time>
      </trkpt>
      <trkpt lat="31.17263157851994" lon="-5.672899894416332">
        <ele>1924.22</ele>
        <time>2019-03-12T14:53:50Z</time>
      </trkpt>
      <trkpt lat="31.172914719209075" lon="-5.672725969925523">
        <ele>1924.22</ele>
        <time>2019-03-12T14:53:51Z</time>
      </trkpt>
      <trkpt lat="31.173009434714913" lon="-5.672652712091804">
        <ele>1924.22</ele>
        <time>2019-03-12T14:54:00Z</time>
      </trkpt>
      <trkpt lat="31.174037307500839" lon="-5.671902280300856">
        <ele>1923.74</ele>
        <time>2019-03-12T14:54:09Z</time>
      </trkpt>
      <trkpt lat="31.17498722858727" lon="-5.670735435560346">
        <ele>1923.74</ele>
        <time>2019-03-12T14:54:17Z</time>
      </trkpt>
      <trkpt lat="31.175530459731817" lon="-5.669305231422186">
        <ele>1920.8499999999999</ele>
        <time>2019-03-12T14:54:25Z</time>
      </trkpt>
      <trkpt lat="31.175875375047326" lon="-5.668063368648291">
        <ele>1917.97</ele>
        <time>2019-03-12T14:54:31Z</time>
      </trkpt>
      <trkpt lat="31.175962463021278" lon="-5.667693056166172">
        <ele>1917.97</ele>
        <time>2019-03-12T14:54:44Z</time>
      </trkpt>
      <trkpt lat="31.175956008955836" lon="-5.667687272652984">
        <ele>1917.01</ele>
        <time>2019-03-12T14:54:52Z</time>
      </trkpt>
      <trkpt lat="31.175959277898073" lon="-5.66742273978889">
        <ele>1917.01</ele>
        <time>2019-03-12T14:55:00Z</time>
      </trkpt>
      <trkpt lat="31.175979981198907" lon="-5.666489666327834">
        <ele>1918.45</ele>
        <time>2019-03-12T14:55:10Z</time>
      </trkpt>
      <trkpt lat="31.175982411950827" lon="-5.66555080935359">
        <ele>1917.97</ele>
        <time>2019-03-12T14:55:21Z</time>
      </trkpt>
      <trkpt lat="31.175990710034966" lon="-5.665063820779324">
        <ele>1917.49</ele>
        <time>2019-03-12T14:55:30Z</time>
      </trkpt>
      <trkpt lat="31.176129430532455" lon="-5.664492258802056">
        <ele>1917.49</ele>
        <time>2019-03-12T14:55:34Z</time>
      </trkpt>
      <trkpt lat="31.17619514465332" lon="-5.664074923843145">
        <ele>1917.01</ele>
        <time>2019-03-12T14:55:45Z</time>
      </trkpt>
      <trkpt lat="31.176589764654636" lon="-5.662741279229522">
        <ele>1917.01</ele>
        <time>2019-03-12T14:55:48Z</time>
      </trkpt>
      <trkpt lat="31.176682468503714" lon="-5.662406589835882">
        <ele>1916.53</ele>
        <time>2019-03-12T14:55:53Z</time>
      </trkpt>
      <trkpt lat="31.176807777956128" lon="-5.661876434460282">
        <ele>1916.53</ele>
        <time>2019-03-12T14:55:54Z</time>
      </trkpt>
      <trkpt lat="31.176818171516061" lon="-5.661758752539754">
        <ele>1916.53</ele>
        <time>2019-03-12T14:55:58Z</time>
      </trkpt>
      <trkpt lat="31.176821021363139" lon="-5.661307135596871">
        <ele>1916.53</ele>
        <time>2019-03-12T14:55:59Z</time>
      </trkpt>
      <trkpt lat="31.17680492810905" lon="-5.661204038187861">
        <ele>1916.04</ele>
        <time>2019-03-12T14:56:02Z</time>
      </trkpt>
      <trkpt lat="31.176769807934761" lon="-5.660919807851315">
        <ele>1916.04</ele>
        <time>2019-03-12T14:56:03Z</time>
      </trkpt>
      <trkpt lat="31.176784560084343" lon="-5.660825008526444">
        <ele>1916.04</ele>
        <time>2019-03-12T14:56:05Z</time>
      </trkpt>
      <trkpt lat="31.176826637238264" lon="-5.660642618313432">
        <ele>1916.04</ele>
        <time>2019-03-12T14:56:06Z</time>
      </trkpt>
      <trkpt lat="31.176833594217896" lon="-5.660551926121116">
        <ele>1915.5599999999999</ele>
        <time>2019-03-12T14:56:07Z</time>
      </trkpt>
      <trkpt lat="31.176835354417562" lon="-5.660457294434309">
        <ele>1917.49</ele>
        <time>2019-03-12T14:56:08Z</time>
      </trkpt>
      <trkpt lat="31.176838288083673" lon="-5.660359393805265">
        <ele>1917.49</ele>
        <time>2019-03-12T14:56:09Z</time>
      </trkpt>
      <trkpt lat="31.176851112395525" lon="-5.660260152071714">
        <ele>1917.49</ele>
        <time>2019-03-12T14:56:10Z</time>
      </trkpt>
      <trkpt lat="31.176870977506042" lon="-5.660160658881068">
        <ele>1917.97</ele>
        <time>2019-03-12T14:56:14Z</time>
      </trkpt>
      <trkpt lat="31.176966950297356" lon="-5.659776432439685">
        <ele>1924.22</ele>
        <time>2019-03-12T14:56:25Z</time>
      </trkpt>
      <trkpt lat="31.177193261682987" lon="-5.658479332923889">
        <ele>1928.0599999999999</ele>
        <time>2019-03-12T14:56:30Z</time>
      </trkpt>
      <trkpt lat="31.177313206717372" lon="-5.657880194485188">
        <ele>1930.46</ele>
        <time>2019-03-12T14:56:31Z</time>
      </trkpt>
      <trkpt lat="31.177325192838907" lon="-5.657761003822088">
        <ele>1931.4300000000001</ele>
        <time>2019-03-12T14:56:32Z</time>
      </trkpt>
      <trkpt lat="31.177325192838907" lon="-5.657639047130942">
        <ele>1932.3900000000001</ele>
        <time>2019-03-12T14:56:43Z</time>
      </trkpt>
      <trkpt lat="31.177303567528725" lon="-5.656253769993782">
        <ele>1932.8699999999999</ele>
        <time>2019-03-12T14:56:54Z</time>
      </trkpt>
      <trkpt lat="31.177387051284313" lon="-5.654906295239925">
        <ele>1932.8699999999999</ele>
        <time>2019-03-12T14:57:02Z</time>
      </trkpt>
      <trkpt lat="31.177393086254597" lon="-5.653824107721448">
        <ele>1933.3499999999999</ele>
        <time>2019-03-12T14:57:04Z</time>
      </trkpt>
      <trkpt lat="31.177386213093996" lon="-5.653585055842996">
        <ele>1933.3499999999999</ele>
        <time>2019-03-12T14:57:07Z</time>
      </trkpt>
      <trkpt lat="31.177343968302011" lon="-5.653195548802614">
        <ele>1933.8299999999999</ele>
        <time>2019-03-12T14:57:09Z</time>
      </trkpt>
      <trkpt lat="31.17733508348465" lon="-5.652959849685431">
        <ele>1934.3099999999999</ele>
        <time>2019-03-12T14:57:10Z</time>
      </trkpt>
      <trkpt lat="31.177319157868624" lon="-5.652849543839693">
        <ele>1934.79</ele>
        <time>2019-03-12T14:57:11Z</time>
      </trkpt>
      <trkpt lat="31.177289988845587" lon="-5.65273848362267">
        <ele>1934.79</ele>
        <time>2019-03-12T14:57:12Z</time>
      </trkpt>
      <trkpt lat="31.177252437919378" lon="-5.652624322101474">
        <ele>1938.1600000000001</ele>
        <time>2019-03-12T14:57:13Z</time>
      </trkpt>
      <trkpt lat="31.177213797345757" lon="-5.6525107473135">
        <ele>1938.1600000000001</ele>
        <time>2019-03-12T14:57:14Z</time>
      </trkpt>
      <trkpt lat="31.177181862294674" lon="-5.652398262172937">
        <ele>1937.6700000000001</ele>
        <time>2019-03-12T14:57:23Z</time>
      </trkpt>
      <trkpt lat="31.176942139863968" lon="-5.651395451277494">
        <ele>1937.6700000000001</ele>
        <time>2019-03-12T14:57:24Z</time>
      </trkpt>
      <trkpt lat="31.176890591159463" lon="-5.651294449344277">
        <ele>1938.6400000000001</ele>
        <time>2019-03-12T14:57:34Z</time>
      </trkpt>
      <trkpt lat="31.176414163783193" lon="-5.650187116116285">
        <ele>1939.1199999999999</ele>
        <time>2019-03-12T14:57:40Z</time>
      </trkpt>
      <trkpt lat="31.176259685307741" lon="-5.64944313839078">
        <ele>1940.0799999999999</ele>
        <time>2019-03-12T14:57:41Z</time>
      </trkpt>
      <trkpt lat="31.176250549033284" lon="-5.649313554167748">
        <ele>1944.4000000000001</ele>
        <time>2019-03-12T14:57:42Z</time>
      </trkpt>
      <trkpt lat="31.176228504627943" lon="-5.649185059592128">
        <ele>1947.77</ele>
        <time>2019-03-12T14:57:46Z</time>
      </trkpt>
      <trkpt lat="31.176080396398902" lon="-5.648697400465608">
        <ele>1953.0599999999999</ele>
        <time>2019-03-12T14:57:47Z</time>
      </trkpt>
      <trkpt lat="31.176028260961175" lon="-5.64858709461987">
        <ele>1954.02</ele>
        <time>2019-03-12T14:57:50Z</time>
      </trkpt>
      <trkpt lat="31.175848972052336" lon="-5.648259446024895">
        <ele>1954.02</ele>
        <time>2019-03-12T14:58:00Z</time>
      </trkpt>
      <trkpt lat="31.175337424501777" lon="-5.647164015099406">
        <ele>1954.02</ele>
        <time>2019-03-12T14:58:09Z</time>
      </trkpt>
      <trkpt lat="31.174952108412981" lon="-5.646199928596616">
        <ele>1954.02</ele>
        <time>2019-03-12T14:58:22Z</time>
      </trkpt>
      <trkpt lat="31.17434911429882" lon="-5.644829319790006">
        <ele>1954.02</ele>
        <time>2019-03-12T14:58:24Z</time>
      </trkpt>
      <trkpt lat="31.174259595572948" lon="-5.644580293446779">
        <ele>1952.0899999999999</ele>
        <time>2019-03-12T14:58:25Z</time>
      </trkpt>
      <trkpt lat="31.174231013283134" lon="-5.644453978165984">
        <ele>1948.73</ele>
        <time>2019-03-12T14:58:26Z</time>
      </trkpt>
      <trkpt lat="31.174212573096156" lon="-5.644331937655807">
        <ele>1946.8099999999999</ele>
        <time>2019-03-12T14:58:27Z</time>
      </trkpt>
      <trkpt lat="31.174204358831048" lon="-5.64421433955431">
        <ele>1944.8800000000001</ele>
        <time>2019-03-12T14:58:28Z</time>
      </trkpt>
      <trkpt lat="31.174201089888811" lon="-5.644104704260826">
        <ele>1942.96</ele>
        <time>2019-03-12T14:58:34Z</time>
      </trkpt>
      <trkpt lat="31.174024567008018" lon="-5.643409509211779">
        <ele>1942</ele>
        <time>2019-03-12T14:58:41Z</time>
      </trkpt>
      <trkpt lat="31.173610165715218" lon="-5.642692521214485">
        <ele>1941.52</ele>
        <time>2019-03-12T14:58:45Z</time>
      </trkpt>
      <trkpt lat="31.173353595659137" lon="-5.642312150448561">
        <ele>1941.04</ele>
        <time>2019-03-12T14:58:52Z</time>
      </trkpt>
      <trkpt lat="31.172987306490541" lon="-5.641695074737072">
        <ele>1940.0799999999999</ele>
        <time>2019-03-12T14:58:57Z</time>
      </trkpt>
      <trkpt lat="31.172696202993393" lon="-5.641180006787181">
        <ele>1938.6400000000001</ele>
        <time>2019-03-12T14:59:00Z</time>
      </trkpt>
      <trkpt lat="31.172563936561346" lon="-5.640840204432607">
        <ele>1938.1600000000001</ele>
        <time>2019-03-12T14:59:01Z</time>
      </trkpt>
      <trkpt lat="31.172508699819446" lon="-5.640738196671009">
        <ele>1937.6700000000001</ele>
        <time>2019-03-12T14:59:03Z</time>
      </trkpt>
      <trkpt lat="31.172391688451171" lon="-5.640538204461336">
        <ele>1937.1900000000001</ele>
        <time>2019-03-12T14:59:07Z</time>
      </trkpt>
      <trkpt lat="31.172190774232149" lon="-5.640083821490407">
        <ele>1937.6700000000001</ele>
        <time>2019-03-12T14:59:10Z</time>
      </trkpt>
      <trkpt lat="31.172071918845177" lon="-5.639708982780576">
        <ele>1935.75</ele>
        <time>2019-03-12T14:59:11Z</time>
      </trkpt>
      <trkpt lat="31.172015508636832" lon="-5.639597252011299">
        <ele>1935.75</ele>
        <time>2019-03-12T14:59:12Z</time>
      </trkpt>
      <trkpt lat="31.171951973810792" lon="-5.639497926458716">
        <ele>1935.75</ele>
        <time>2019-03-12T14:59:14Z</time>
      </trkpt>
      <trkpt lat="31.171823395416141" lon="-5.639315787702799">
        <ele>1935.27</ele>
        <time>2019-03-12T14:59:15Z</time>
      </trkpt>
      <trkpt lat="31.171764302998781" lon="-5.639212690293789">
        <ele>1935.27</ele>
        <time>2019-03-12T14:59:26Z</time>
      </trkpt>
      <trkpt lat="31.171175809577107" lon="-5.638039810582995">
        <ele>1935.27</ele>
        <time>2019-03-12T14:59:28Z</time>
      </trkpt>
      <trkpt lat="31.17108360864222" lon="-5.637905448675156">
        <ele>1930.46</ele>
        <time>2019-03-12T14:59:29Z</time>
      </trkpt>
      <trkpt lat="31.171039938926697" lon="-5.63782062381506">
        <ele>1929.02</ele>
        <time>2019-03-12T14:59:30Z</time>
      </trkpt>
      <trkpt lat="31.171005992218852" lon="-5.637718951329589">
        <ele>1928.54</ele>
        <time>2019-03-12T14:59:31Z</time>
      </trkpt>
      <trkpt lat="31.170984366908669" lon="-5.637606214731932">
        <ele>1927.0999999999999</ele>
        <time>2019-03-12T14:59:32Z</time>
      </trkpt>
      <trkpt lat="31.170970117673278" lon="-5.637493897229433">
        <ele>1925.1800000000001</ele>
        <time>2019-03-12T14:59:43Z</time>
      </trkpt>
      <trkpt lat="31.170849921181798" lon="-5.636235103011131">
        <ele>1925.1800000000001</ele>
        <time>2019-03-12T14:59:46Z</time>
      </trkpt>
      <trkpt lat="31.17080407217145" lon="-5.63591742888093">
        <ele>1924.7</ele>
        <time>2019-03-12T14:59:47Z</time>
      </trkpt>
      <trkpt lat="31.170774148777127" lon="-5.635806452482939">
        <ele>1924.22</ele>
        <time>2019-03-12T14:59:52Z</time>
      </trkpt>
      <trkpt lat="31.170661998912692" lon="-5.635256348177791">
        <ele>1923.74</ele>
        <time>2019-03-12T14:59:59Z</time>
      </trkpt>
      <trkpt lat="31.170649006962776" lon="-5.634438190609217">
        <ele>1923.74</ele>
        <time>2019-03-12T15:00:00Z</time>
      </trkpt>
      <trkpt lat="31.170637775212526" lon="-5.634368788450956">
        <ele>1923.25</ele>
        <time>2019-03-12T15:00:01Z</time>
      </trkpt>
      <trkpt lat="31.170621179044247" lon="-5.634312713518739">
        <ele>1923.25</ele>
        <time>2019-03-12T15:00:03Z</time>
      </trkpt>
      <trkpt lat="31.170568037778139" lon="-5.634182961657643">
        <ele>1922.77</ele>
        <time>2019-03-12T15:00:04Z</time>
      </trkpt>
      <trkpt lat="31.170528307557106" lon="-5.634105680510402">
        <ele>1922.29</ele>
        <time>2019-03-12T15:00:05Z</time>
      </trkpt>
      <trkpt lat="31.170483129099011" lon="-5.634017838165164">
        <ele>1921.8099999999999</ele>
        <time>2019-03-12T15:00:06Z</time>
      </trkpt>
      <trkpt lat="31.170442225411534" lon="-5.633914321660996">
        <ele>1921.3299999999999</ele>
        <time>2019-03-12T15:00:07Z</time>
      </trkpt>
      <trkpt lat="31.170412469655275" lon="-5.633799405768514">
        <ele>1920.8499999999999</ele>
        <time>2019-03-12T15:00:08Z</time>
      </trkpt>
      <trkpt lat="31.170396879315376" lon="-5.633681053295732">
        <ele>1920.3699999999999</ele>
        <time>2019-03-12T15:00:09Z</time>
      </trkpt>
      <trkpt lat="31.170392436906695" lon="-5.633559934794903">
        <ele>1919.8900000000001</ele>
        <time>2019-03-12T15:00:10Z</time>
      </trkpt>
      <trkpt lat="31.170402243733406" lon="-5.633439738303423">
        <ele>1919.4100000000001</ele>
        <time>2019-03-12T15:00:11Z</time>
      </trkpt>
      <trkpt lat="31.170431664213538" lon="-5.633330941200256">
        <ele>1918.9300000000001</ele>
        <time>2019-03-12T15:00:12Z</time>
      </trkpt>
      <trkpt lat="31.17047525011003" lon="-5.633239997550845">
        <ele>1918.45</ele>
        <time>2019-03-12T15:00:13Z</time>
      </trkpt>
      <trkpt lat="31.170525206252933" lon="-5.633169338107109">
        <ele>1917.97</ele>
        <time>2019-03-12T15:00:14Z</time>
      </trkpt>
      <trkpt lat="31.170561416074634" lon="-5.63311711885035">
        <ele>1917.97</ele>
        <time>2019-03-12T15:00:15Z</time>
      </trkpt>
      <trkpt lat="31.170583879575133" lon="-5.633070599287748">
        <ele>1914.1199999999999</ele>
        <time>2019-03-12T15:00:16Z</time>
      </trkpt>
      <trkpt lat="31.170594189316034" lon="-5.633013769984245">
        <ele>1913.6400000000001</ele>
        <time>2019-03-12T15:00:17Z</time>
      </trkpt>
      <trkpt lat="31.170589830726385" lon="-5.632941937074065">
        <ele>1913.1600000000001</ele>
        <time>2019-03-12T15:00:18Z</time>
      </trkpt>
      <trkpt lat="31.170575330033898" lon="-5.632854094728828">
        <ele>1910.28</ele>
        <time>2019-03-12T15:00:19Z</time>
      </trkpt>
      <trkpt lat="31.170556303113699" lon="-5.632754601538181">
        <ele>1909.3199999999999</ele>
        <time>2019-03-12T15:00:27Z</time>
      </trkpt>
      <trkpt lat="31.170244244858623" lon="-5.631859414279461">
        <ele>1908.8299999999999</ele>
        <time>2019-03-12T15:00:30Z</time>
      </trkpt>
      <trkpt lat="31.170069817453623" lon="-5.631553223356605">
        <ele>1908.3499999999999</ele>
        <time>2019-03-12T15:00:31Z</time>
      </trkpt>
      <trkpt lat="31.170017430558801" lon="-5.631438056007028">
        <ele>1908.3499999999999</ele>
        <time>2019-03-12T15:00:36Z</time>
      </trkpt>
      <trkpt lat="31.169783743098378" lon="-5.630811005830765">
        <ele>1907.8699999999999</ele>
        <time>2019-03-12T15:00:38Z</time>
      </trkpt>
      <trkpt lat="31.169673437252641" lon="-5.630604475736618">
        <ele>1907.8699999999999</ele>
        <time>2019-03-12T15:00:39Z</time>
      </trkpt>
      <trkpt lat="31.169638903811574" lon="-5.630505904555321">
        <ele>1907.8699999999999</ele>
        <time>2019-03-12T15:00:40Z</time>
      </trkpt>
      <trkpt lat="31.169617446139455" lon="-5.63041303306818">
        <ele>1907.3900000000001</ele>
        <time>2019-03-12T15:00:41Z</time>
      </trkpt>
      <trkpt lat="31.169591965153813" lon="-5.630336590111256">
        <ele>1907.3900000000001</ele>
        <time>2019-03-12T15:00:42Z</time>
      </trkpt>
      <trkpt lat="31.169552654027939" lon="-5.630286717787385">
        <ele>1906.9100000000001</ele>
        <time>2019-03-12T15:00:43Z</time>
      </trkpt>
      <trkpt lat="31.169505883008242" lon="-5.630257045850158">
        <ele>1905.95</ele>
        <time>2019-03-12T15:00:44Z</time>
      </trkpt>
      <trkpt lat="31.169450143352151" lon="-5.630233911797404">
        <ele>1905.47</ele>
        <time>2019-03-12T15:00:45Z</time>
      </trkpt>
      <trkpt lat="31.16938903927803" lon="-5.630199797451496">
        <ele>1901.6300000000001</ele>
        <time>2019-03-12T15:00:46Z</time>
      </trkpt>
      <trkpt lat="31.169331623241305" lon="-5.63014036975801">
        <ele>1901.1400000000001</ele>
        <time>2019-03-12T15:00:47Z</time>
      </trkpt>
      <trkpt lat="31.169283092021942" lon="-5.63005437143147">
        <ele>1900.6600000000001</ele>
        <time>2019-03-12T15:00:48Z</time>
      </trkpt>
      <trkpt lat="31.169246295467019" lon="-5.62994884327054">
        <ele>1900.1800000000001</ele>
        <time>2019-03-12T15:00:49Z</time>
      </trkpt>
      <trkpt lat="31.169216455891728" lon="-5.629834095016122">
        <ele>1899.7</ele>
        <time>2019-03-12T15:00:57Z</time>
      </trkpt>
      <trkpt lat="31.169057786464691" lon="-5.628924826160073">
        <ele>1898.74</ele>
        <time>2019-03-12T15:00:58Z</time>
      </trkpt>
      <trkpt lat="31.169061977416277" lon="-5.628812424838543">
        <ele>1898.26</ele>
        <time>2019-03-12T15:00:59Z</time>
      </trkpt>
      <trkpt lat="31.169082513079047" lon="-5.628698179498315">
        <ele>1897.3</ele>
        <time>2019-03-12T15:01:00Z</time>
      </trkpt>
      <trkpt lat="31.169123332947493" lon="-5.628583682700992">
        <ele>1896.8199999999999</ele>
        <time>2019-03-12T15:01:01Z</time>
      </trkpt>
      <trkpt lat="31.169176390394568" lon="-5.628469018265605">
        <ele>1895.8599999999999</ele>
        <time>2019-03-12T15:01:02Z</time>
      </trkpt>
      <trkpt lat="31.169235818088055" lon="-5.628357455134392">
        <ele>1895.8599999999999</ele>
        <time>2019-03-12T15:01:03Z</time>
      </trkpt>
      <trkpt lat="31.169300023466349" lon="-5.628247819840908">
        <ele>1895.3800000000001</ele>
        <time>2019-03-12T15:01:07Z</time>
      </trkpt>
      <trkpt lat="31.169535974040627" lon="-5.627845739945769">
        <ele>1894.9000000000001</ele>
        <time>2019-03-12T15:01:08Z</time>
      </trkpt>
      <trkpt lat="31.169566484168172" lon="-5.627749431878328">
        <ele>1894.9000000000001</ele>
        <time>2019-03-12T15:01:10Z</time>
      </trkpt>
      <trkpt lat="31.169632785022259" lon="-5.627542901784182">
        <ele>1894.4200000000001</ele>
        <time>2019-03-12T15:01:11Z</time>
      </trkpt>
      <trkpt lat="31.169673521071672" lon="-5.627443576231599">
        <ele>1894.4200000000001</ele>
        <time>2019-03-12T15:01:12Z</time>
      </trkpt>
      <trkpt lat="31.169705288484693" lon="-5.627336287871003">
        <ele>1893.9300000000001</ele>
        <time>2019-03-12T15:01:13Z</time>
      </trkpt>
      <trkpt lat="31.169721968472004" lon="-5.627221707254648">
        <ele>1891.05</ele>
        <time>2019-03-12T15:01:14Z</time>
      </trkpt>
      <trkpt lat="31.169718196615577" lon="-5.62710796482861">
        <ele>1890.5699999999999</ele>
        <time>2019-03-12T15:01:15Z</time>
      </trkpt>
      <trkpt lat="31.169700426980853" lon="-5.626993719488382">
        <ele>1889.6099999999999</ele>
        <time>2019-03-12T15:01:16Z</time>
      </trkpt>
      <trkpt lat="31.169688776135445" lon="-5.626873606815934">
        <ele>1889.6099999999999</ele>
        <time>2019-03-12T15:01:17Z</time>
      </trkpt>
      <trkpt lat="31.169687937945127" lon="-5.626749889925122">
        <ele>1889.1300000000001</ele>
        <time>2019-03-12T15:01:27Z</time>
      </trkpt>
      <trkpt lat="31.169820623472333" lon="-5.625540548935533">
        <ele>1888.6500000000001</ele>
        <time>2019-03-12T15:01:29Z</time>
      </trkpt>
      <trkpt lat="31.169843589887023" lon="-5.625331504270434">
        <ele>1888.1700000000001</ele>
        <time>2019-03-12T15:01:32Z</time>
      </trkpt>
      <trkpt lat="31.169843086972833" lon="-5.625047190114856">
        <ele>1883.3599999999999</ele>
        <time>2019-03-12T15:01:33Z</time>
      </trkpt>
      <trkpt lat="31.169856330379844" lon="-5.624946858733892">
        <ele>1882.8800000000001</ele>
        <time>2019-03-12T15:01:34Z</time>
      </trkpt>
      <trkpt lat="31.169878961518407" lon="-5.62484216876328">
        <ele>1878.0699999999999</ele>
        <time>2019-03-12T15:01:35Z</time>
      </trkpt>
      <trkpt lat="31.169911734759808" lon="-5.624737059697509">
        <ele>1873.75</ele>
        <time>2019-03-12T15:01:36Z</time>
      </trkpt>
      <trkpt lat="31.16994995623827" lon="-5.624628514051437">
        <ele>1873.75</ele>
        <time>2019-03-12T15:01:46Z</time>
      </trkpt>
      <trkpt lat="31.170323537662625" lon="-5.623464267700911">
        <ele>1873.27</ele>
        <time>2019-03-12T15:01:47Z</time>
      </trkpt>
      <trkpt lat="31.170336194336414" lon="-5.623348094522953">
        <ele>1873.27</ele>
        <time>2019-03-12T15:01:54Z</time>
      </trkpt>
      <trkpt lat="31.170436860993505" lon="-5.62251484952867">
        <ele>1873.27</ele>
        <time>2019-03-12T15:02:04Z</time>
      </trkpt>
      <trkpt lat="31.170426467433572" lon="-5.621253289282322">
        <ele>1872.79</ele>
        <time>2019-03-12T15:02:05Z</time>
      </trkpt>
      <trkpt lat="31.170409703627229" lon="-5.621133176609874">
        <ele>1872.79</ele>
        <time>2019-03-12T15:02:06Z</time>
      </trkpt>
      <trkpt lat="31.170381205156446" lon="-5.621021529659629">
        <ele>1872.79</ele>
        <time>2019-03-12T15:02:07Z</time>
      </trkpt>
      <trkpt lat="31.170347342267632" lon="-5.620913989841938">
        <ele>1871.8199999999999</ele>
        <time>2019-03-12T15:02:08Z</time>
      </trkpt>
      <trkpt lat="31.170307947322726" lon="-5.620807372033596">
        <ele>1871.3399999999999</ele>
        <time>2019-03-12T15:02:12Z</time>
      </trkpt>
      <trkpt lat="31.170150870457292" lon="-5.620379308238626">
        <ele>1871.3399999999999</ele>
        <time>2019-03-12T15:02:13Z</time>
      </trkpt>
      <trkpt lat="31.170128071680665" lon="-5.620263302698731">
        <ele>1868.46</ele>
        <time>2019-03-12T15:02:14Z</time>
      </trkpt>
      <trkpt lat="31.170112565159798" lon="-5.62014645896852">
        <ele>1867.5</ele>
        <time>2019-03-12T15:02:16Z</time>
      </trkpt>
      <trkpt lat="31.170100327581167" lon="-5.619910340756178">
        <ele>1867.5</ele>
        <time>2019-03-12T15:02:17Z</time>
      </trkpt>
      <trkpt lat="31.17010778747499" lon="-5.619782935827971">
        <ele>1867.5</ele>
        <time>2019-03-12T15:02:18Z</time>
      </trkpt>
      <trkpt lat="31.17012538947165" lon="-5.619653686881065">
        <ele>1867.5</ele>
        <time>2019-03-12T15:02:30Z</time>
      </trkpt>
      <trkpt lat="31.170499054715037" lon="-5.618248712271452">
        <ele>1867.02</ele>
        <time>2019-03-12T15:02:32Z</time>
      </trkpt>
      <trkpt lat="31.170569378882647" lon="-5.618040589615703">
        <ele>1866.54</ele>
        <time>2019-03-12T15:02:33Z</time>
      </trkpt>
      <trkpt lat="31.170618245378137" lon="-5.617947299033403">
        <ele>1866.54</ele>
        <time>2019-03-12T15:02:35Z</time>
      </trkpt>
      <trkpt lat="31.170710027217865" lon="-5.617772117257118">
        <ele>1866.54</ele>
        <time>2019-03-12T15:02:36Z</time>
      </trkpt>
      <trkpt lat="31.170731652528048" lon="-5.617676144465804">
        <ele>1866.54</ele>
        <time>2019-03-12T15:02:37Z</time>
      </trkpt>
      <trkpt lat="31.170732490718365" lon="-5.617575645446777">
        <ele>1866.0599999999999</ele>
        <time>2019-03-12T15:02:38Z</time>
      </trkpt>
      <trkpt lat="31.170722683891654" lon="-5.617474224418402">
        <ele>1865.0899999999999</ele>
        <time>2019-03-12T15:02:39Z</time>
      </trkpt>
      <trkpt lat="31.170711703598499" lon="-5.617373390123248">
        <ele>1865.0899999999999</ele>
        <time>2019-03-12T15:02:47Z</time>
      </trkpt>
      <trkpt lat="31.170674990862608" lon="-5.616494463756681">
        <ele>1864.6099999999999</ele>
        <time>2019-03-12T15:02:49Z</time>
      </trkpt>
      <trkpt lat="31.170649006962776" lon="-5.616271169856191">
        <ele>1864.6099999999999</ele>
        <time>2019-03-12T15:02:50Z</time>
      </trkpt>
      <trkpt lat="31.170646911486983" lon="-5.616164719685912">
        <ele>1864.1300000000001</ele>
        <time>2019-03-12T15:02:56Z</time>
      </trkpt>
      <trkpt lat="31.170705920085311" lon="-5.615539094433188">
        <ele>1863.6500000000001</ele>
        <time>2019-03-12T15:02:57Z</time>
      </trkpt>
      <trkpt lat="31.170707261189818" lon="-5.615435242652893">
        <ele>1863.1700000000001</ele>
        <time>2019-03-12T15:02:58Z</time>
      </trkpt>
      <trkpt lat="31.170697202906013" lon="-5.615329965949059">
        <ele>1861.25</ele>
        <time>2019-03-12T15:02:59Z</time>
      </trkpt>
      <trkpt lat="31.170674487948418" lon="-5.615224856883287">
        <ele>1861.25</ele>
        <time>2019-03-12T15:03:00Z</time>
      </trkpt>
      <trkpt lat="31.17064188234508" lon="-5.615122932940722">
        <ele>1861.25</ele>
        <time>2019-03-12T15:03:01Z</time>
      </trkpt>
      <trkpt lat="31.170609947293997" lon="-5.6150256190449">
        <ele>1859.3299999999999</ele>
        <time>2019-03-12T15:03:02Z</time>
      </trkpt>
      <trkpt lat="31.170582622289658" lon="-5.614929143339396">
        <ele>1859.3299999999999</ele>
        <time>2019-03-12T15:03:07Z</time>
      </trkpt>
      <trkpt lat="31.170471226796508" lon="-5.614521196112037">
        <ele>1859.3299999999999</ele>
        <time>2019-03-12T15:03:08Z</time>
      </trkpt>
      <trkpt lat="31.170467874035239" lon="-5.614449279382825">
        <ele>1859.3299999999999</ele>
        <time>2019-03-12T15:03:09Z</time>
      </trkpt>
      <trkpt lat="31.17048354819417" lon="-5.614369651302695">
        <ele>1859.3299999999999</ele>
        <time>2019-03-12T15:03:17Z</time>
      </trkpt>
      <trkpt lat="31.170634925365448" lon="-5.613530874252319">
        <ele>1859.3299999999999</ele>
        <time>2019-03-12T15:03:18Z</time>
      </trkpt>
      <trkpt lat="31.170621765777469" lon="-5.613414198160172">
        <ele>1859.3299999999999</ele>
        <time>2019-03-12T15:03:19Z</time>
      </trkpt>
      <trkpt lat="31.170594524592161" lon="-5.613300623372197">
        <ele>1859.3299999999999</ele>
        <time>2019-03-12T15:03:20Z</time>
      </trkpt>
      <trkpt lat="31.170553537085652" lon="-5.613192245364189">
        <ele>1858.3699999999999</ele>
        <time>2019-03-12T15:03:21Z</time>
      </trkpt>
      <trkpt lat="31.170502156019211" lon="-5.613092752173543">
        <ele>1857.8900000000001</ele>
        <time>2019-03-12T15:03:22Z</time>
      </trkpt>
      <trkpt lat="31.170443147420883" lon="-5.612997869029641">
        <ele>1856.4400000000001</ele>
        <time>2019-03-12T15:03:23Z</time>
      </trkpt>
      <trkpt lat="31.170380786061287" lon="-5.612907847389579">
        <ele>1856.4400000000001</ele>
        <time>2019-03-12T15:03:25Z</time>
      </trkpt>
      <trkpt lat="31.170269139111042" lon="-5.612723445519805">
        <ele>1858.3699999999999</ele>
        <time>2019-03-12T15:03:32Z</time>
      </trkpt>
      <trkpt lat="31.169986585155129" lon="-5.611973768100143">
        <ele>1855.96</ele>
        <time>2019-03-12T15:03:33Z</time>
      </trkpt>
      <trkpt lat="31.169972335919738" lon="-5.611849213019013">
        <ele>1855.48</ele>
        <time>2019-03-12T15:03:39Z</time>
      </trkpt>
      <trkpt lat="31.169971246272326" lon="-5.611075144261122">
        <ele>1855</ele>
        <time>2019-03-12T15:03:40Z</time>
      </trkpt>
      <trkpt lat="31.169999660924077" lon="-5.610939776524901">
        <ele>1852.1199999999999</ele>
        <time>2019-03-12T15:03:46Z</time>
      </trkpt>
      <trkpt lat="31.170142237097025" lon="-5.610130419954658">
        <ele>1849.71</ele>
        <time>2019-03-12T15:03:57Z</time>
      </trkpt>
      <trkpt lat="31.170225637033582" lon="-5.60859720222652">
        <ele>1848.27</ele>
        <time>2019-03-12T15:03:58Z</time>
      </trkpt>
      <trkpt lat="31.170220524072647" lon="-5.608475999906659">
        <ele>1848.75</ele>
        <time>2019-03-12T15:03:59Z</time>
      </trkpt>
      <trkpt lat="31.170202167704701" lon="-5.60835437849164">
        <ele>1855.48</ele>
        <time>2019-03-12T15:04:04Z</time>
      </trkpt>
      <trkpt lat="31.17013905197382" lon="-5.607771584764123">
        <ele>1858.8499999999999</ele>
        <time>2019-03-12T15:04:07Z</time>
      </trkpt>
      <trkpt lat="31.170073756948113" lon="-5.607453072443605">
        <ele>1860.29</ele>
        <time>2019-03-12T15:04:10Z</time>
      </trkpt>
      <trkpt lat="31.170068057253957" lon="-5.60712936334312">
        <ele>1860.29</ele>
        <time>2019-03-12T15:04:11Z</time>
      </trkpt>
      <trkpt lat="31.17007995955646" lon="-5.607021320611239">
        <ele>1860.29</ele>
        <time>2019-03-12T15:04:20Z</time>
      </trkpt>
      <trkpt lat="31.170191271230578" lon="-5.606273654848337">
        <ele>1855.96</ele>
        <time>2019-03-12T15:04:29Z</time>
      </trkpt>
      <trkpt lat="31.170244747772813" lon="-5.605204040184617">
        <ele>1854.04</ele>
        <time>2019-03-12T15:04:32Z</time>
      </trkpt>
      <trkpt lat="31.170257152989507" lon="-5.605005053803325">
        <ele>1847.3099999999999</ele>
        <time>2019-03-12T15:04:33Z</time>
      </trkpt>
      <trkpt lat="31.170267127454281" lon="-5.604949900880456">
        <ele>1842.02</ele>
        <time>2019-03-12T15:04:34Z</time>
      </trkpt>
      <trkpt lat="31.170284226536751" lon="-5.604883600026369">
        <ele>1841.54</ele>
        <time>2019-03-12T15:04:42Z</time>
      </trkpt>
      <trkpt lat="31.170465694740415" lon="-5.604024706408382">
        <ele>1841.0599999999999</ele>
        <time>2019-03-12T15:04:45Z</time>
      </trkpt>
      <trkpt lat="31.1705407127738" lon="-5.603653891012073">
        <ele>1840.5799999999999</ele>
        <time>2019-03-12T15:04:56Z</time>
      </trkpt>
      <trkpt lat="31.170734586194158" lon="-5.60230809263885">
        <ele>1840.0999999999999</ele>
        <time>2019-03-12T15:05:07Z</time>
      </trkpt>
      <trkpt lat="31.170633248984814" lon="-5.601108390837908">
        <ele>1839.6199999999999</ele>
        <time>2019-03-12T15:05:08Z</time>
      </trkpt>
      <trkpt lat="31.170616066083312" lon="-5.600990541279316">
        <ele>1836.74</ele>
        <time>2019-03-12T15:05:09Z</time>
      </trkpt>
      <trkpt lat="31.170587819069624" lon="-5.600870680063963">
        <ele>1836.26</ele>
        <time>2019-03-12T15:05:10Z</time>
      </trkpt>
      <trkpt lat="31.170550184324384" lon="-5.600751237943769">
        <ele>1835.77</ele>
        <time>2019-03-12T15:05:11Z</time>
      </trkpt>
      <trkpt lat="31.170504251495004" lon="-5.600630957633257">
        <ele>1834.8099999999999</ele>
        <time>2019-03-12T15:05:12Z</time>
      </trkpt>
      <trkpt lat="31.17045228369534" lon="-5.600512605160475">
        <ele>1834.3299999999999</ele>
        <time>2019-03-12T15:05:20Z</time>
      </trkpt>
      <trkpt lat="31.170029500499368" lon="-5.59957617893815">
        <ele>1833.8499999999999</ele>
        <time>2019-03-12T15:05:21Z</time>
      </trkpt>
      <trkpt lat="31.170011227950454" lon="-5.599462352693081">
        <ele>1833.8499999999999</ele>
        <time>2019-03-12T15:05:22Z</time>
      </trkpt>
      <trkpt lat="31.170006534084678" lon="-5.599355734884739">
        <ele>1833.8499999999999</ele>
        <time>2019-03-12T15:05:24Z</time>
      </trkpt>
      <trkpt lat="31.170020699501038" lon="-5.599149288609624">
        <ele>1833.3699999999999</ele>
        <time>2019-03-12T15:05:26Z</time>
      </trkpt>
      <trkpt lat="31.170037966221571" lon="-5.598980896174908">
        <ele>1833.3699999999999</ele>
        <time>2019-03-12T15:05:27Z</time>
      </trkpt>
      <trkpt lat="31.170034948736429" lon="-5.598929431289434">
        <ele>1832.8900000000001</ele>
        <time>2019-03-12T15:05:28Z</time>
      </trkpt>
      <trkpt lat="31.170029332861304" lon="-5.598903866484761">
        <ele>1832.4100000000001</ele>
        <time>2019-03-12T15:05:29Z</time>
      </trkpt>
      <trkpt lat="31.170022962614894" lon="-5.598889114335179">
        <ele>1832.4100000000001</ele>
        <time>2019-03-12T15:05:30Z</time>
      </trkpt>
      <trkpt lat="31.170017095282674" lon="-5.598872937262058">
        <ele>1832.4100000000001</ele>
        <time>2019-03-12T15:05:31Z</time>
      </trkpt>
      <trkpt lat="31.170010305941105" lon="-5.598850641399622">
        <ele>1834.8099999999999</ele>
        <time>2019-03-12T15:05:32Z</time>
      </trkpt>
      <trkpt lat="31.169999074190855" lon="-5.598816946148872">
        <ele>1840.5799999999999</ele>
        <time>2019-03-12T15:05:35Z</time>
      </trkpt>
      <trkpt lat="31.169924223795533" lon="-5.598655929788947">
        <ele>1840.5799999999999</ele>
        <time>2019-03-12T15:05:36Z</time>
      </trkpt>
      <trkpt lat="31.169881895184517" lon="-5.598593652248383">
        <ele>1841.0599999999999</ele>
        <time>2019-03-12T15:05:37Z</time>
      </trkpt>
      <trkpt lat="31.169828837737441" lon="-5.598537493497133">
        <ele>1841.0599999999999</ele>
        <time>2019-03-12T15:05:48Z</time>
      </trkpt>
      <trkpt lat="31.169125009328127" lon="-5.59783760458231">
        <ele>1841.0599999999999</ele>
        <time>2019-03-12T15:06:00Z</time>
      </trkpt>
      <trkpt lat="31.168294111266732" lon="-5.597051717340946">
        <ele>1841.54</ele>
        <time>2019-03-12T15:06:01Z</time>
      </trkpt>
      <trkpt lat="31.168254129588604" lon="-5.596960773691535">
        <ele>1842.02</ele>
        <time>2019-03-12T15:06:02Z</time>
      </trkpt>
      <trkpt lat="31.168230576440692" lon="-5.596855077892542">
        <ele>1842.5</ele>
        <time>2019-03-12T15:06:05Z</time>
      </trkpt>
      <trkpt lat="31.168184978887439" lon="-5.596529860049486">
        <ele>1842.98</ele>
        <time>2019-03-12T15:06:06Z</time>
      </trkpt>
      <trkpt lat="31.168141309171915" lon="-5.596428187564015">
        <ele>1843.95</ele>
        <time>2019-03-12T15:06:07Z</time>
      </trkpt>
      <trkpt lat="31.168080624192953" lon="-5.596336573362351">
        <ele>1845.8699999999999</ele>
        <time>2019-03-12T15:06:08Z</time>
      </trkpt>
      <trkpt lat="31.168016670271754" lon="-5.596246551722288">
        <ele>1845.8699999999999</ele>
        <time>2019-03-12T15:06:09Z</time>
      </trkpt>
      <trkpt lat="31.167961936444044" lon="-5.596144879236817">
        <ele>1846.8299999999999</ele>
        <time>2019-03-12T15:06:10Z</time>
      </trkpt>
      <trkpt lat="31.16791826672852" lon="-5.596036585047841">
        <ele>1847.3099999999999</ele>
        <time>2019-03-12T15:06:11Z</time>
      </trkpt>
      <trkpt lat="31.167878117412329" lon="-5.595927620306611">
        <ele>1847.79</ele>
        <time>2019-03-12T15:06:15Z</time>
      </trkpt>
      <trkpt lat="31.167727243155241" lon="-5.595489665865898">
        <ele>1848.27</ele>
        <time>2019-03-12T15:06:16Z</time>
      </trkpt>
      <trkpt lat="31.167665384709835" lon="-5.595397967845202">
        <ele>1848.75</ele>
        <time>2019-03-12T15:06:18Z</time>
      </trkpt>
      <trkpt lat="31.167556587606668" lon="-5.595235442742705">
        <ele>1849.23</ele>
        <time>2019-03-12T15:06:19Z</time>
      </trkpt>
      <trkpt lat="31.167525323107839" lon="-5.595147684216499">
        <ele>1849.71</ele>
        <time>2019-03-12T15:06:20Z</time>
      </trkpt>
      <trkpt lat="31.167509229853749" lon="-5.595052801072598">
        <ele>1853.0799999999999</ele>
        <time>2019-03-12T15:06:21Z</time>
      </trkpt>
      <trkpt lat="31.167505122721195" lon="-5.594952553510666">
        <ele>1854.04</ele>
        <time>2019-03-12T15:06:22Z</time>
      </trkpt>
      <trkpt lat="31.167498836293817" lon="-5.594849456101656">
        <ele>1855</ele>
        <time>2019-03-12T15:06:23Z</time>
      </trkpt>
      <trkpt lat="31.167484670877457" lon="-5.594741748645902">
        <ele>1855.48</ele>
        <time>2019-03-12T15:06:24Z</time>
      </trkpt>
      <trkpt lat="31.167462877929211" lon="-5.594630604609847">
        <ele>1856.9200000000001</ele>
        <time>2019-03-12T15:06:33Z</time>
      </trkpt>
      <trkpt lat="31.167320050299168" lon="-5.593503070995212">
        <ele>1858.3699999999999</ele>
        <time>2019-03-12T15:06:35Z</time>
      </trkpt>
      <trkpt lat="31.167285181581974" lon="-5.593278938904405">
        <ele>1858.8499999999999</ele>
        <time>2019-03-12T15:06:36Z</time>
      </trkpt>
      <trkpt lat="31.167246205732226" lon="-5.593172572553158">
        <ele>1859.8099999999999</ele>
        <time>2019-03-12T15:06:37Z</time>
      </trkpt>
      <trkpt lat="31.16719021461904" lon="-5.593076851218939">
        <ele>1860.77</ele>
        <time>2019-03-12T15:06:39Z</time>
      </trkpt>
      <trkpt lat="31.167071023955941" lon="-5.592879625037313">
        <ele>1861.73</ele>
        <time>2019-03-12T15:06:42Z</time>
      </trkpt>
      <trkpt lat="31.166912354528904" lon="-5.592595981433988">
        <ele>1862.6900000000001</ele>
        <time>2019-03-12T15:06:43Z</time>
      </trkpt>
      <trkpt lat="31.166844796389341" lon="-5.592524819076061">
        <ele>1863.6500000000001</ele>
        <time>2019-03-12T15:06:44Z</time>
      </trkpt>
      <trkpt lat="31.16677975282073" lon="-5.592454159632325">
        <ele>1870.8599999999999</ele>
        <time>2019-03-12T15:06:45Z</time>
      </trkpt>
      <trkpt lat="31.166729209944606" lon="-5.592368999496102">
        <ele>1871.8199999999999</ele>
        <time>2019-03-12T15:06:46Z</time>
      </trkpt>
      <trkpt lat="31.166693419218063" lon="-5.592269003391266">
        <ele>1872.3</ele>
        <time>2019-03-12T15:06:47Z</time>
      </trkpt>
      <trkpt lat="31.166672045364976" lon="-5.592158446088433">
        <ele>1872.3</ele>
        <time>2019-03-12T15:06:48Z</time>
      </trkpt>
      <trkpt lat="31.166657460853457" lon="-5.592042692005634">
        <ele>1872.3</ele>
        <time>2019-03-12T15:06:57Z</time>
      </trkpt>
      <trkpt lat="31.16646995767951" lon="-5.591005934402347">
        <ele>1872.3</ele>
        <time>2019-03-12T15:06:58Z</time>
      </trkpt>
      <trkpt lat="31.166477501392365" lon="-5.59091717004776">
        <ele>1872.3</ele>
        <time>2019-03-12T15:06:59Z</time>
      </trkpt>
      <trkpt lat="31.166504407301545" lon="-5.590831255540252">
        <ele>1872.3</ele>
        <time>2019-03-12T15:07:01Z</time>
      </trkpt>
      <trkpt lat="31.16657255217433" lon="-5.590640315786004">
        <ele>1872.3</ele>
        <time>2019-03-12T15:07:02Z</time>
      </trkpt>
      <trkpt lat="31.166599960997701" lon="-5.590527830645442">
        <ele>1872.79</ele>
        <time>2019-03-12T15:07:03Z</time>
      </trkpt>
      <trkpt lat="31.166620412841439" lon="-5.590408220887184">
        <ele>1873.27</ele>
        <time>2019-03-12T15:07:04Z</time>
      </trkpt>
      <trkpt lat="31.166630135849118" lon="-5.590285174548626">
        <ele>1874.23</ele>
        <time>2019-03-12T15:07:05Z</time>
      </trkpt>
      <trkpt lat="31.166628627106547" lon="-5.590161457657814">
        <ele>1874.71</ele>
        <time>2019-03-12T15:07:06Z</time>
      </trkpt>
      <trkpt lat="31.16660775616765" lon="-5.590036567300558">
        <ele>1874.71</ele>
        <time>2019-03-12T15:07:07Z</time>
      </trkpt>
      <trkpt lat="31.166572300717235" lon="-5.589916873723269">
        <ele>1875.1900000000001</ele>
        <time>2019-03-12T15:07:08Z</time>
      </trkpt>
      <trkpt lat="31.166535085067153" lon="-5.589807070791721">
        <ele>1875.1900000000001</ele>
        <time>2019-03-12T15:07:11Z</time>
      </trkpt>
      <trkpt lat="31.16643232293427" lon="-5.589490821585059">
        <ele>1875.6700000000001</ele>
        <time>2019-03-12T15:07:12Z</time>
      </trkpt>
      <trkpt lat="31.16638882085681" lon="-5.589394345879555">
        <ele>1875.6700000000001</ele>
        <time>2019-03-12T15:07:13Z</time>
      </trkpt>
      <trkpt lat="31.166345318779349" lon="-5.589300384745002">
        <ele>1876.6300000000001</ele>
        <time>2019-03-12T15:07:14Z</time>
      </trkpt>
      <trkpt lat="31.166301481425762" lon="-5.589205333963037">
        <ele>1877.5899999999999</ele>
        <time>2019-03-12T15:07:15Z</time>
      </trkpt>
      <trkpt lat="31.166250519454479" lon="-5.589113552123308">
        <ele>1878.0699999999999</ele>
        <time>2019-03-12T15:07:16Z</time>
      </trkpt>
      <trkpt lat="31.166199557483196" lon="-5.589022943750024">
        <ele>1878.55</ele>
        <time>2019-03-12T15:07:17Z</time>
      </trkpt>
      <trkpt lat="31.166162174195051" lon="-5.588921857997775">
        <ele>1879.03</ele>
        <time>2019-03-12T15:07:18Z</time>
      </trkpt>
      <trkpt lat="31.166140548884869" lon="-5.588819514960051">
        <ele>1879.03</ele>
        <time>2019-03-12T15:07:19Z</time>
      </trkpt>
      <trkpt lat="31.166132250800729" lon="-5.588722284883261">
        <ele>1879.51</ele>
        <time>2019-03-12T15:07:20Z</time>
      </trkpt>
      <trkpt lat="31.166135352104902" lon="-5.588627317920327">
        <ele>1879.51</ele>
        <time>2019-03-12T15:07:21Z</time>
      </trkpt>
      <trkpt lat="31.166140381246805" lon="-5.588530171662569">
        <ele>1880</ele>
        <time>2019-03-12T15:07:22Z</time>
      </trkpt>
      <trkpt lat="31.166134513914585" lon="-5.588429169729352">
        <ele>1880.48</ele>
        <time>2019-03-12T15:07:23Z</time>
      </trkpt>
      <trkpt lat="31.166117582470179" lon="-5.588326323777437">
        <ele>1882.4000000000001</ele>
        <time>2019-03-12T15:07:24Z</time>
      </trkpt>
      <trkpt lat="31.166104506701231" lon="-5.588219454512">
        <ele>1883.3599999999999</ele>
        <time>2019-03-12T15:07:25Z</time>
      </trkpt>
      <trkpt lat="31.166109871119261" lon="-5.588110657408834">
        <ele>1884.8</ele>
        <time>2019-03-12T15:07:26Z</time>
      </trkpt>
      <trkpt lat="31.166132334619761" lon="-5.588000686839223">
        <ele>1885.28</ele>
        <time>2019-03-12T15:07:27Z</time>
      </trkpt>
      <trkpt lat="31.1661596596241" lon="-5.587892811745405">
        <ele>1886.24</ele>
        <time>2019-03-12T15:07:30Z</time>
      </trkpt>
      <trkpt lat="31.166243981570005" lon="-5.587566085159779">
        <ele>1886.72</ele>
        <time>2019-03-12T15:07:31Z</time>
      </trkpt>
      <trkpt lat="31.166254375129938" lon="-5.587456952780485">
        <ele>1887.6900000000001</ele>
        <time>2019-03-12T15:07:32Z</time>
      </trkpt>
      <trkpt lat="31.166252363473177" lon="-5.587346646934748">
        <ele>1893.9300000000001</ele>
        <time>2019-03-12T15:07:33Z</time>
      </trkpt>
      <trkpt lat="31.166239287704229" lon="-5.587236844003201">
        <ele>1894.9000000000001</ele>
        <time>2019-03-12T15:07:34Z</time>
      </trkpt>
      <trkpt lat="31.16621732711792" lon="-5.587127041071653">
        <ele>1898.26</ele>
        <time>2019-03-12T15:07:35Z</time>
      </trkpt>
      <trkpt lat="31.166197462007403" lon="-5.587017238140106">
        <ele>1899.7</ele>
        <time>2019-03-12T15:07:36Z</time>
      </trkpt>
      <trkpt lat="31.166183212772012" lon="-5.586908776313067">
        <ele>1900.1800000000001</ele>
        <time>2019-03-12T15:07:42Z</time>
      </trkpt>
      <trkpt lat="31.166133424267173" lon="-5.586311565712094">
        <ele>1900.6600000000001</ele>
        <time>2019-03-12T15:07:43Z</time>
      </trkpt>
      <trkpt lat="31.166110374033451" lon="-5.58623026125133">
        <ele>1902.1099999999999</ele>
        <time>2019-03-12T15:07:48Z</time>
      </trkpt>
      <trkpt lat="31.16593879647553" lon="-5.585860954597592">
        <ele>1902.1099999999999</ele>
        <time>2019-03-12T15:07:50Z</time>
      </trkpt>
      <trkpt lat="31.165855145081878" lon="-5.585723742842674">
        <ele>1902.5899999999999</ele>
        <time>2019-03-12T15:07:51Z</time>
      </trkpt>
      <trkpt lat="31.165824718773365" lon="-5.585654927417636">
        <ele>1903.0699999999999</ele>
        <time>2019-03-12T15:07:52Z</time>
      </trkpt>
      <trkpt lat="31.165797393769026" lon="-5.585591224953532">
        <ele>1903.0699999999999</ele>
        <time>2019-03-12T15:07:54Z</time>
      </trkpt>
      <trkpt lat="31.165748359635472" lon="-5.585477231070399">
        <ele>1903.55</ele>
        <time>2019-03-12T15:07:55Z</time>
      </trkpt>
      <trkpt lat="31.165748191997409" lon="-5.58541176840663">
        <ele>1904.03</ele>
        <time>2019-03-12T15:07:56Z</time>
      </trkpt>
      <trkpt lat="31.165770823135972" lon="-5.585354520007968">
        <ele>1904.51</ele>
        <time>2019-03-12T15:07:57Z</time>
      </trkpt>
      <trkpt lat="31.165805691853166" lon="-5.585308000445366">
        <ele>1904.99</ele>
        <time>2019-03-12T15:07:58Z</time>
      </trkpt>
      <trkpt lat="31.165839554741979" lon="-5.585261816158891">
        <ele>1905.47</ele>
        <time>2019-03-12T15:07:59Z</time>
      </trkpt>
      <trkpt lat="31.165868053212762" lon="-5.585209345445037">
        <ele>1906.9100000000001</ele>
        <time>2019-03-12T15:08:00Z</time>
      </trkpt>
      <trkpt lat="31.165891187265515" lon="-5.585152097046375">
        <ele>1907.3900000000001</ele>
        <time>2019-03-12T15:08:01Z</time>
      </trkpt>
      <trkpt lat="31.16590702906251" lon="-5.585087724030018">
        <ele>1910.76</ele>
        <time>2019-03-12T15:08:02Z</time>
      </trkpt>
      <trkpt lat="31.165913650766015" lon="-5.585018657147884">
        <ele>1911.24</ele>
        <time>2019-03-12T15:08:03Z</time>
      </trkpt>
      <trkpt lat="31.1659144051373" lon="-5.584946991875768">
        <ele>1911.72</ele>
        <time>2019-03-12T15:08:06Z</time>
      </trkpt>
      <trkpt lat="31.16591390222311" lon="-5.58472964912653">
        <ele>1912.2</ele>
        <time>2019-03-12T15:08:07Z</time>
      </trkpt>
      <trkpt lat="31.165920943021774" lon="-5.584659744054079">
        <ele>1912.6800000000001</ele>
        <time>2019-03-12T15:08:12Z</time>
      </trkpt>
      <trkpt lat="31.165949273854494" lon="-5.584324048832059">
        <ele>1912.6800000000001</ele>
        <time>2019-03-12T15:08:13Z</time>
      </trkpt>
      <trkpt lat="31.165966624394059" lon="-5.584253640845418">
        <ele>1913.1600000000001</ele>
        <time>2019-03-12T15:08:14Z</time>
      </trkpt>
      <trkpt lat="31.165993195027113" lon="-5.584189854562283">
        <ele>1913.6400000000001</ele>
        <time>2019-03-12T15:08:15Z</time>
      </trkpt>
      <trkpt lat="31.166028985753655" lon="-5.58413646183908">
        <ele>1914.1199999999999</ele>
        <time>2019-03-12T15:08:16Z</time>
      </trkpt>
      <trkpt lat="31.166064189746976" lon="-5.584086924791336">
        <ele>1914.5999999999999</ele>
        <time>2019-03-12T15:08:17Z</time>
      </trkpt>
      <trkpt lat="31.166089503094554" lon="-5.584033699706197">
        <ele>1914.5999999999999</ele>
        <time>2019-03-12T15:08:18Z</time>
      </trkpt>
      <trkpt lat="31.166089083999395" lon="-5.583981396630406">
        <ele>1914.5999999999999</ele>
        <time>2019-03-12T15:08:19Z</time>
      </trkpt>
      <trkpt lat="31.166060920804739" lon="-5.583942756056786">
        <ele>1915.0799999999999</ele>
        <time>2019-03-12T15:08:20Z</time>
      </trkpt>
      <trkpt lat="31.166022699326277" lon="-5.583930686116219">
        <ele>1915.5599999999999</ele>
        <time>2019-03-12T15:08:21Z</time>
      </trkpt>
      <trkpt lat="31.165989506989717" lon="-5.583945019170642">
        <ele>1916.04</ele>
        <time>2019-03-12T15:08:22Z</time>
      </trkpt>
      <trkpt lat="31.165966540575027" lon="-5.583975110203028">
        <ele>1916.53</ele>
        <time>2019-03-12T15:08:23Z</time>
      </trkpt>
      <trkpt lat="31.165949525311589" lon="-5.584014337509871">
        <ele>1917.01</ele>
        <time>2019-03-12T15:08:24Z</time>
      </trkpt>
      <trkpt lat="31.165935108438134" lon="-5.584057923406363">
        <ele>1917.97</ele>
        <time>2019-03-12T15:08:25Z</time>
      </trkpt>
      <trkpt lat="31.165917003527284" lon="-5.584104275330901">
        <ele>1918.45</ele>
        <time>2019-03-12T15:08:26Z</time>
      </trkpt>
      <trkpt lat="31.165894037112594" lon="-5.584151213988662">
        <ele>1918.9300000000001</ele>
        <time>2019-03-12T15:08:30Z</time>
      </trkpt>
      <trkpt lat="31.165763949975371" lon="-5.584336873143911">
        <ele>1919.8900000000001</ele>
        <time>2019-03-12T15:08:31Z</time>
      </trkpt>
      <trkpt lat="31.165726147592068" lon="-5.584379620850086">
        <ele>1920.3699999999999</ele>
        <time>2019-03-12T15:08:34Z</time>
      </trkpt>
      <trkpt lat="31.165612488985062" lon="-5.58450291864574">
        <ele>1920.8499999999999</ele>
        <time>2019-03-12T15:08:35Z</time>
      </trkpt>
      <trkpt lat="31.165581308305264" lon="-5.584552539512515">
        <ele>1920.8499999999999</ele>
        <time>2019-03-12T15:08:36Z</time>
      </trkpt>
      <trkpt lat="31.16556303575635" lon="-5.584611799567938">
        <ele>1921.3299999999999</ele>
        <time>2019-03-12T15:08:37Z</time>
      </trkpt>
      <trkpt lat="31.165555659681559" lon="-5.584674747660756">
        <ele>1921.8099999999999</ele>
        <time>2019-03-12T15:08:38Z</time>
      </trkpt>
      <trkpt lat="31.165547361597419" lon="-5.584737025201321">
        <ele>1921.8099999999999</ele>
        <time>2019-03-12T15:08:39Z</time>
      </trkpt>
      <trkpt lat="31.165523221716285" lon="-5.584793854504824">
        <ele>1922.29</ele>
        <time>2019-03-12T15:08:40Z</time>
      </trkpt>
      <trkpt lat="31.165484162047505" lon="-5.584842972457409">
        <ele>1922.29</ele>
        <time>2019-03-12T15:08:41Z</time>
      </trkpt>
      <trkpt lat="31.165436804294586" lon="-5.584886223077774">
        <ele>1923.25</ele>
        <time>2019-03-12T15:08:42Z</time>
      </trkpt>
      <trkpt lat="31.165381651371717" lon="-5.584924863651395">
        <ele>1923.74</ele>
        <time>2019-03-12T15:08:43Z</time>
      </trkpt>
      <trkpt lat="31.165320798754692" lon="-5.584964845329523">
        <ele>1924.7</ele>
        <time>2019-03-12T15:08:44Z</time>
      </trkpt>
      <trkpt lat="31.165257096290588" lon="-5.585013376548886">
        <ele>1925.1800000000001</ele>
        <time>2019-03-12T15:08:45Z</time>
      </trkpt>
      <trkpt lat="31.165195489302278" lon="-5.585073139518499">
        <ele>1925.6600000000001</ele>
        <time>2019-03-12T15:08:46Z</time>
      </trkpt>
      <trkpt lat="31.165140587836504" lon="-5.585138183087111">
        <ele>1926.6199999999999</ele>
        <time>2019-03-12T15:08:47Z</time>
      </trkpt>
      <trkpt lat="31.165097840130329" lon="-5.5852060765028">
        <ele>1926.6199999999999</ele>
        <time>2019-03-12T15:08:48Z</time>
      </trkpt>
      <trkpt lat="31.165069341659546" lon="-5.585279585793614">
        <ele>1927.0999999999999</ele>
        <time>2019-03-12T15:08:49Z</time>
      </trkpt>
      <trkpt lat="31.165052158758044" lon="-5.585357118397951">
        <ele>1928.0599999999999</ele>
        <time>2019-03-12T15:08:50Z</time>
      </trkpt>
      <trkpt lat="31.165036568418145" lon="-5.585433561354876">
        <ele>1927.5799999999999</ele>
        <time>2019-03-12T15:08:54Z</time>
      </trkpt>
      <trkpt lat="31.164969429373741" lon="-5.58568250387907">
        <ele>1926.6199999999999</ele>
        <time>2019-03-12T15:08:55Z</time>
      </trkpt>
      <trkpt lat="31.16494788788259" lon="-5.58571670204401">
        <ele>1926.6199999999999</ele>
        <time>2019-03-12T15:08:56Z</time>
      </trkpt>
      <trkpt lat="31.164928358048201" lon="-5.585733046755195">
        <ele>1929.02</ele>
        <time>2019-03-12T15:09:08Z</time>
      </trkpt>
      <trkpt lat="31.164923496544361" lon="-5.5857327952981">
        <ele>1929.02</ele>
        <time>2019-03-12T15:09:38Z</time>
      </trkpt>
      <trkpt lat="31.164929028600454" lon="-5.585730448365212">
        <ele>1929.5</ele>
        <time>2019-03-12T15:10:16Z</time>
      </trkpt>
      <trkpt lat="31.164925843477249" lon="-5.585726760327816">
        <ele>1929.98</ele>
        <time>2019-03-12T15:10:46Z</time>
      </trkpt>
      <trkpt lat="31.164921903982759" lon="-5.585725838318467">
        <ele>1930.46</ele>
        <time>2019-03-12T15:11:23Z</time>
      </trkpt>
      <trkpt lat="31.164885945618153" lon="-5.585726676508784">
        <ele>1931.4300000000001</ele>
        <time>2019-03-12T15:11:25Z</time>
      </trkpt>
      <trkpt lat="31.16481495089829" lon="-5.585703793913126">
        <ele>1931.9100000000001</ele>
        <time>2019-03-12T15:11:26Z</time>
      </trkpt>
      <trkpt lat="31.164779998362064" lon="-5.585671775043011">
        <ele>1932.3900000000001</ele>
        <time>2019-03-12T15:11:27Z</time>
      </trkpt>
      <trkpt lat="31.164755774661899" lon="-5.585626177489758">
        <ele>1933.3499999999999</ele>
        <time>2019-03-12T15:11:28Z</time>
      </trkpt>
      <trkpt lat="31.164747476577759" lon="-5.585569934919477">
        <ele>1933.8299999999999</ele>
        <time>2019-03-12T15:11:29Z</time>
      </trkpt>
      <trkpt lat="31.164756529033184" lon="-5.585514530539513">
        <ele>1933.8299999999999</ele>
        <time>2019-03-12T15:11:30Z</time>
      </trkpt>
      <trkpt lat="31.164771700277925" lon="-5.585462646558881">
        <ele>1934.3099999999999</ele>
        <time>2019-03-12T15:11:31Z</time>
      </trkpt>
      <trkpt lat="31.164789805188775" lon="-5.585413528606296">
        <ele>1934.79</ele>
        <time>2019-03-12T15:11:33Z</time>
      </trkpt>
      <trkpt lat="31.1648213211447" lon="-5.585300792008638">
        <ele>1934.79</ele>
        <time>2019-03-12T15:11:34Z</time>
      </trkpt>
      <trkpt lat="31.164829870685935" lon="-5.585234239697456">
        <ele>1938.1600000000001</ele>
        <time>2019-03-12T15:11:35Z</time>
      </trkpt>
      <trkpt lat="31.164839845150709" lon="-5.585164837539196">
        <ele>1939.1199999999999</ele>
        <time>2019-03-12T15:11:36Z</time>
      </trkpt>
      <trkpt lat="31.164855100214481" lon="-5.585092669352889">
        <ele>1948.25</ele>
        <time>2019-03-12T15:11:37Z</time>
      </trkpt>
      <trkpt lat="31.164875468239188" lon="-5.58502234518528">
        <ele>1950.1700000000001</ele>
        <time>2019-03-12T15:11:38Z</time>
      </trkpt>
      <trkpt lat="31.164899189025164" lon="-5.584951182827354">
        <ele>1951.1300000000001</ele>
        <time>2019-03-12T15:11:43Z</time>
      </trkpt>
      <trkpt lat="31.165054757148027" lon="-5.584603166207671">
        <ele>1952.0899999999999</ele>
        <time>2019-03-12T15:11:44Z</time>
      </trkpt>
      <trkpt lat="31.165080321952701" lon="-5.584526974707842">
        <ele>1953.0599999999999</ele>
        <time>2019-03-12T15:11:56Z</time>
      </trkpt>
      <trkpt lat="31.165297077968717" lon="-5.583531204611063">
        <ele>1954.02</ele>
        <time>2019-03-12T15:11:59Z</time>
      </trkpt>
      <trkpt lat="31.165342926979065" lon="-5.583283351734281">
        <ele>1956.4200000000001</ele>
        <time>2019-03-12T15:12:00Z</time>
      </trkpt>
      <trkpt lat="31.165344184264541" lon="-5.583201292902231">
        <ele>1957.3800000000001</ele>
        <time>2019-03-12T15:12:01Z</time>
      </trkpt>
      <trkpt lat="31.165347788482904" lon="-5.583122167736292">
        <ele>1957.8599999999999</ele>
        <time>2019-03-12T15:12:02Z</time>
      </trkpt>
      <trkpt lat="31.165356421843171" lon="-5.58304631151259">
        <ele>1958.3399999999999</ele>
        <time>2019-03-12T15:12:03Z</time>
      </trkpt>
      <trkpt lat="31.165365390479565" lon="-5.582978669553995">
        <ele>1958.8199999999999</ele>
        <time>2019-03-12T15:12:06Z</time>
      </trkpt>
      <trkpt lat="31.165405875071883" lon="-5.582760320976377">
        <ele>1958.8199999999999</ele>
        <time>2019-03-12T15:12:07Z</time>
      </trkpt>
      <trkpt lat="31.165434289723635" lon="-5.582682536914945">
        <ele>1960.27</ele>
        <time>2019-03-12T15:12:08Z</time>
      </trkpt>
      <trkpt lat="31.165467314422131" lon="-5.582615900784731">
        <ele>1959.78</ele>
        <time>2019-03-12T15:12:09Z</time>
      </trkpt>
      <trkpt lat="31.165503356605768" lon="-5.58256208896637">
        <ele>1959.78</ele>
        <time>2019-03-12T15:12:10Z</time>
      </trkpt>
      <trkpt lat="31.165538728237152" lon="-5.582518586888909">
        <ele>1959.3</ele>
        <time>2019-03-12T15:12:11Z</time>
      </trkpt>
      <trkpt lat="31.165576362982392" lon="-5.582480281591415">
        <ele>1959.3</ele>
        <time>2019-03-12T15:12:22Z</time>
      </trkpt>
      <trkpt lat="31.165779875591397" lon="-5.582203175872564">
        <ele>1959.3</ele>
        <time>2019-03-12T15:12:23Z</time>
      </trkpt>
      <trkpt lat="31.165771577507257" lon="-5.582175515592098">
        <ele>1957.8599999999999</ele>
        <time>2019-03-12T15:12:24Z</time>
      </trkpt>
      <trkpt lat="31.165760094299912" lon="-5.582154393196106">
        <ele>1957.3800000000001</ele>
        <time>2019-03-12T15:12:25Z</time>
      </trkpt>
      <trkpt lat="31.165748359635472" lon="-5.582140060141683">
        <ele>1957.3800000000001</ele>
        <time>2019-03-12T15:12:26Z</time>
      </trkpt>
      <trkpt lat="31.165737463161349" lon="-5.582130840048194">
        <ele>1956.9000000000001</ele>
        <time>2019-03-12T15:12:27Z</time>
      </trkpt>
      <trkpt lat="31.165727069601417" lon="-5.582121284678578">
        <ele>1956.9000000000001</ele>
        <time>2019-03-12T15:12:33Z</time>
      </trkpt>
      <trkpt lat="31.165555156767368" lon="-5.581991700455546">
        <ele>1956.4200000000001</ele>
        <time>2019-03-12T15:12:34Z</time>
      </trkpt>
      <trkpt lat="31.165510229766369" lon="-5.581943085417152">
        <ele>1954.02</ele>
        <time>2019-03-12T15:12:35Z</time>
      </trkpt>
      <trkpt lat="31.165471002459526" lon="-5.581882316619158">
        <ele>1953.54</ele>
        <time>2019-03-12T15:12:36Z</time>
      </trkpt>
      <trkpt lat="31.165441330522299" lon="-5.581807885318995">
        <ele>1953.54</ele>
        <time>2019-03-12T15:12:37Z</time>
      </trkpt>
      <trkpt lat="31.165420627221465" lon="-5.581723563373089">
        <ele>1953.0599999999999</ele>
        <time>2019-03-12T15:12:38Z</time>
      </trkpt>
      <trkpt lat="31.16540377959609" lon="-5.581638151779771">
        <ele>1952.5699999999999</ele>
        <time>2019-03-12T15:12:42Z</time>
      </trkpt>
      <trkpt lat="31.165287103503942" lon="-5.581317879259586">
        <ele>1952.5699999999999</ele>
        <time>2019-03-12T15:12:43Z</time>
      </trkpt>
      <trkpt lat="31.165243433788419" lon="-5.581263899803162">
        <ele>1951.6099999999999</ele>
        <time>2019-03-12T15:12:44Z</time>
      </trkpt>
      <trkpt lat="31.165197165682912" lon="-5.581227103248239">
        <ele>1951.1300000000001</ele>
        <time>2019-03-12T15:12:45Z</time>
      </trkpt>
      <trkpt lat="31.165147796273232" lon="-5.581203382462263">
        <ele>1950.6500000000001</ele>
        <time>2019-03-12T15:12:46Z</time>
      </trkpt>
      <trkpt lat="31.165094403550029" lon="-5.581197515130043">
        <ele>1950.1700000000001</ele>
        <time>2019-03-12T15:12:47Z</time>
      </trkpt>
      <trkpt lat="31.165035227313638" lon="-5.581204136833549">
        <ele>1949.6900000000001</ele>
        <time>2019-03-12T15:12:48Z</time>
      </trkpt>
      <trkpt lat="31.164974542334676" lon="-5.58121151290834">
        <ele>1949.21</ele>
        <time>2019-03-12T15:12:49Z</time>
      </trkpt>
      <trkpt lat="31.164915449917316" lon="-5.581208160147071">
        <ele>1948.25</ele>
        <time>2019-03-12T15:12:50Z</time>
      </trkpt>
      <trkpt lat="31.164863063022494" lon="-5.581184942275286">
        <ele>1947.29</ele>
        <time>2019-03-12T15:12:51Z</time>
      </trkpt>
      <trkpt lat="31.164824925363064" lon="-5.581140769645572">
        <ele>1946.8099999999999</ele>
        <time>2019-03-12T15:12:52Z</time>
      </trkpt>
      <trkpt lat="31.16480472497642" lon="-5.581078575924039">
        <ele>1946.8099999999999</ele>
        <time>2019-03-12T15:12:53Z</time>
      </trkpt>
      <trkpt lat="31.164800366386771" lon="-5.58100238442421">
        <ele>1946.3299999999999</ele>
        <time>2019-03-12T15:12:54Z</time>
      </trkpt>
      <trkpt lat="31.164803132414818" lon="-5.58091688901186">
        <ele>1946.8099999999999</ele>
        <time>2019-03-12T15:12:56Z</time>
      </trkpt>
      <trkpt lat="31.164793577045202" lon="-5.580735085532069">
        <ele>1946.8099999999999</ele>
        <time>2019-03-12T15:12:57Z</time>
      </trkpt>
      <trkpt lat="31.164772287011147" lon="-5.580643974244595">
        <ele>1947.29</ele>
        <time>2019-03-12T15:12:58Z</time>
      </trkpt>
      <trkpt lat="31.164739765226841" lon="-5.580554287880659">
        <ele>1947.77</ele>
        <time>2019-03-12T15:13:01Z</time>
      </trkpt>
      <trkpt lat="31.16461562924087" lon="-5.580312050879002">
        <ele>1947.77</ele>
        <time>2019-03-12T15:13:02Z</time>
      </trkpt>
      <trkpt lat="31.164575228467584" lon="-5.580264776945114">
        <ele>1947.29</ele>
        <time>2019-03-12T15:13:03Z</time>
      </trkpt>
      <trkpt lat="31.164527703076601" lon="-5.580234434455633">
        <ele>1947.29</ele>
        <time>2019-03-12T15:13:04Z</time>
      </trkpt>
      <trkpt lat="31.164473472163081" lon="-5.580218508839607">
        <ele>1946.8099999999999</ele>
        <time>2019-03-12T15:13:05Z</time>
      </trkpt>
      <trkpt lat="31.164419073611498" lon="-5.580211887136102">
        <ele>1946.3299999999999</ele>
        <time>2019-03-12T15:13:06Z</time>
      </trkpt>
      <trkpt lat="31.164371129125357" lon="-5.580205181613565">
        <ele>1945.8499999999999</ele>
        <time>2019-03-12T15:13:07Z</time>
      </trkpt>
      <trkpt lat="31.164329554885626" lon="-5.58019227348268">
        <ele>1945.3599999999999</ele>
        <time>2019-03-12T15:13:08Z</time>
      </trkpt>
      <trkpt lat="31.164300050586462" lon="-5.580168552696705">
        <ele>1944.8800000000001</ele>
        <time>2019-03-12T15:13:09Z</time>
      </trkpt>
      <trkpt lat="31.164286388084292" lon="-5.580138210207224">
        <ele>1944.4000000000001</ele>
        <time>2019-03-12T15:13:10Z</time>
      </trkpt>
      <trkpt lat="31.164289321750402" lon="-5.580101078376174">
        <ele>1943.4400000000001</ele>
        <time>2019-03-12T15:13:11Z</time>
      </trkpt>
      <trkpt lat="31.164310779422522" lon="-5.580064617097378">
        <ele>1942.48</ele>
        <time>2019-03-12T15:13:12Z</time>
      </trkpt>
      <trkpt lat="31.164346318691969" lon="-5.58004567399621">
        <ele>1942</ele>
        <time>2019-03-12T15:13:13Z</time>
      </trkpt>
      <trkpt lat="31.164390407502651" lon="-5.580047434195876">
        <ele>1941.52</ele>
        <time>2019-03-12T15:13:14Z</time>
      </trkpt>
      <trkpt lat="31.164442794397473" lon="-5.580061683431268">
        <ele>1941.04</ele>
        <time>2019-03-12T15:13:15Z</time>
      </trkpt>
      <trkpt lat="31.164501132443547" lon="-5.580080626532435">
        <ele>1940.5599999999999</ele>
        <time>2019-03-12T15:13:17Z</time>
      </trkpt>
      <trkpt lat="31.16461705416441" lon="-5.580115914344788">
        <ele>1940.0799999999999</ele>
        <time>2019-03-12T15:13:18Z</time>
      </trkpt>
      <trkpt lat="31.164670027792454" lon="-5.580154722556472">
        <ele>1939.5999999999999</ele>
        <time>2019-03-12T15:13:19Z</time>
      </trkpt>
      <trkpt lat="31.164718475192785" lon="-5.580218508839607">
        <ele>1939.1199999999999</ele>
        <time>2019-03-12T15:13:20Z</time>
      </trkpt>
      <trkpt lat="31.164765330031514" lon="-5.580296879634261">
        <ele>1938.6400000000001</ele>
        <time>2019-03-12T15:13:21Z</time>
      </trkpt>
      <trkpt lat="31.164813190698624" lon="-5.580373825505376">
        <ele>1938.1600000000001</ele>
        <time>2019-03-12T15:13:22Z</time>
      </trkpt>
      <trkpt lat="31.164861051365733" lon="-5.580443227663636">
        <ele>1937.6700000000001</ele>
        <time>2019-03-12T15:13:23Z</time>
      </trkpt>
      <trkpt lat="31.164904972538352" lon="-5.580509277060628">
        <ele>1937.1900000000001</ele>
        <time>2019-03-12T15:13:24Z</time>
      </trkpt>
      <trkpt lat="31.164938835427165" lon="-5.580579517409205">
        <ele>1936.71</ele>
        <time>2019-03-12T15:13:25Z</time>
      </trkpt>
      <trkpt lat="31.164961801841855" lon="-5.58065646328032">
        <ele>1935.75</ele>
        <time>2019-03-12T15:13:26Z</time>
      </trkpt>
      <trkpt lat="31.1649767216295" lon="-5.580733744427562">
        <ele>1935.27</ele>
        <time>2019-03-12T15:13:27Z</time>
      </trkpt>
      <trkpt lat="31.164993569254875" lon="-5.580808008089662">
        <ele>1934.79</ele>
        <time>2019-03-12T15:13:28Z</time>
      </trkpt>
      <trkpt lat="31.16502407938242" lon="-5.580867435783148">
        <ele>1934.3099999999999</ele>
        <time>2019-03-12T15:13:29Z</time>
      </trkpt>
      <trkpt lat="31.165062803775072" lon="-5.580903729423881">
        <ele>1934.3099999999999</ele>
        <time>2019-03-12T15:13:30Z</time>
      </trkpt>
      <trkpt lat="31.16511158645153" lon="-5.580909429118037">
        <ele>1933.8299999999999</ele>
        <time>2019-03-12T15:13:31Z</time>
      </trkpt>
      <trkpt lat="31.165168834850192" lon="-5.58088906109333">
        <ele>1932.8699999999999</ele>
        <time>2019-03-12T15:13:32Z</time>
      </trkpt>
      <trkpt lat="31.165230609476566" lon="-5.58084899559617">
        <ele>1932.3900000000001</ele>
        <time>2019-03-12T15:13:33Z</time>
      </trkpt>
      <trkpt lat="31.165293473750353" lon="-5.580806164070964">
        <ele>1931.4300000000001</ele>
        <time>2019-03-12T15:13:34Z</time>
      </trkpt>
      <trkpt lat="31.165358684957027" lon="-5.580774815753102">
        <ele>1930.95</ele>
        <time>2019-03-12T15:13:35Z</time>
      </trkpt>
      <trkpt lat="31.165424063801765" lon="-5.580768110230565">
        <ele>1929.98</ele>
        <time>2019-03-12T15:13:36Z</time>
      </trkpt>
      <trkpt lat="31.165486508980393" lon="-5.580787304788828">
        <ele>1929.5</ele>
        <time>2019-03-12T15:13:37Z</time>
      </trkpt>
      <trkpt lat="31.165544847026467" lon="-5.580820245668292">
        <ele>1928.54</ele>
        <time>2019-03-12T15:13:38Z</time>
      </trkpt>
      <trkpt lat="31.1656036041677" lon="-5.580842457711697">
        <ele>1927.5799999999999</ele>
        <time>2019-03-12T15:13:39Z</time>
      </trkpt>
      <trkpt lat="31.165657918900251" lon="-5.580835919827223">
        <ele>1926.6199999999999</ele>
        <time>2019-03-12T15:13:40Z</time>
      </trkpt>
      <trkpt lat="31.165697732940316" lon="-5.580801973119378">
        <ele>1925.6600000000001</ele>
        <time>2019-03-12T15:13:41Z</time>
      </trkpt>
      <trkpt lat="31.165724722668529" lon="-5.580746904015541">
        <ele>1924.22</ele>
        <time>2019-03-12T15:13:42Z</time>
      </trkpt>
      <trkpt lat="31.165743246674538" lon="-5.580677334219217">
        <ele>1923.74</ele>
        <time>2019-03-12T15:13:43Z</time>
      </trkpt>
      <trkpt lat="31.165750538930297" lon="-5.580600891262293">
        <ele>1923.74</ele>
        <time>2019-03-12T15:13:44Z</time>
      </trkpt>
      <trkpt lat="31.165749030187726" lon="-5.580527633428574">
        <ele>1923.25</ele>
        <time>2019-03-12T15:13:45Z</time>
      </trkpt>
      <trkpt lat="31.165744587779045" lon="-5.580455968156457">
        <ele>1922.29</ele>
        <time>2019-03-12T15:13:47Z</time>
      </trkpt>
      <trkpt lat="31.165734194219112" lon="-5.580302244052291">
        <ele>1921.8099999999999</ele>
        <time>2019-03-12T15:13:48Z</time>
      </trkpt>
      <trkpt lat="31.165739642456174" lon="-5.580219095572829">
        <ele>1918.9300000000001</ele>
        <time>2019-03-12T15:13:49Z</time>
      </trkpt>
      <trkpt lat="31.165759339928627" lon="-5.58013410307467">
        <ele>1917.97</ele>
        <time>2019-03-12T15:13:50Z</time>
      </trkpt>
      <trkpt lat="31.165793873369694" lon="-5.580052547156811">
        <ele>1917.01</ele>
        <time>2019-03-12T15:13:51Z</time>
      </trkpt>
      <trkpt lat="31.165839051827788" lon="-5.579977780580521">
        <ele>1916.53</ele>
        <time>2019-03-12T15:13:52Z</time>
      </trkpt>
      <trkpt lat="31.165881380438805" lon="-5.579903097823262">
        <ele>1915.5599999999999</ele>
        <time>2019-03-12T15:13:57Z</time>
      </trkpt>
      <trkpt lat="31.166054969653487" lon="-5.579519709572196">
        <ele>1915.0799999999999</ele>
        <time>2019-03-12T15:13:58Z</time>
      </trkpt>
      <trkpt lat="31.166066788136959" lon="-5.579453073441982">
        <ele>1914.5999999999999</ele>
        <time>2019-03-12T15:13:59Z</time>
      </trkpt>
      <trkpt lat="31.166064608842134" lon="-5.579398674890399">
        <ele>1914.1199999999999</ele>
        <time>2019-03-12T15:14:00Z</time>
      </trkpt>
      <trkpt lat="31.166047342121601" lon="-5.579353244975209">
        <ele>1914.1199999999999</ele>
        <time>2019-03-12T15:14:01Z</time>
      </trkpt>
      <trkpt lat="31.16601599380374" lon="-5.579314604401588">
        <ele>1913.6400000000001</ele>
        <time>2019-03-12T15:14:02Z</time>
      </trkpt>
      <trkpt lat="31.165973916649818" lon="-5.579287866130471">
        <ele>1913.1600000000001</ele>
        <time>2019-03-12T15:14:03Z</time>
      </trkpt>
      <trkpt lat="31.165924547240138" lon="-5.579267079010606">
        <ele>1912.6800000000001</ele>
        <time>2019-03-12T15:14:04Z</time>
      </trkpt>
      <trkpt lat="31.165875680744648" lon="-5.579245621338487">
        <ele>1912.2</ele>
        <time>2019-03-12T15:14:05Z</time>
      </trkpt>
      <trkpt lat="31.165829245001078" lon="-5.579217122867703">
        <ele>1911.72</ele>
        <time>2019-03-12T15:14:06Z</time>
      </trkpt>
      <trkpt lat="31.165790604427457" lon="-5.579174794256687">
        <ele>1911.24</ele>
        <time>2019-03-12T15:14:07Z</time>
      </trkpt>
      <trkpt lat="31.165763111785054" lon="-5.579112013801932">
        <ele>1910.76</ele>
        <time>2019-03-12T15:14:08Z</time>
      </trkpt>
      <trkpt lat="31.165749114006758" lon="-5.579031715169549">
        <ele>1909.3199999999999</ele>
        <time>2019-03-12T15:14:09Z</time>
      </trkpt>
      <trkpt lat="31.165738552808762" lon="-5.578943118453026">
        <ele>1908.8299999999999</ele>
        <time>2019-03-12T15:14:10Z</time>
      </trkpt>
      <trkpt lat="31.165732434019446" lon="-5.578853012993932">
        <ele>1908.8299999999999</ele>
        <time>2019-03-12T15:14:11Z</time>
      </trkpt>
      <trkpt lat="31.165732182562351" lon="-5.578769026324153">
        <ele>1908.8299999999999</ele>
        <time>2019-03-12T15:14:12Z</time>
      </trkpt>
      <trkpt lat="31.16574089974165" lon="-5.57868286035955">
        <ele>1908.3499999999999</ele>
        <time>2019-03-12T15:14:14Z</time>
      </trkpt>
      <trkpt lat="31.16575607098639" lon="-5.578519748523831">
        <ele>1907.8699999999999</ele>
        <time>2019-03-12T15:14:15Z</time>
      </trkpt>
      <trkpt lat="31.165732517838478" lon="-5.578460237011313">
        <ele>1906.9100000000001</ele>
        <time>2019-03-12T15:14:16Z</time>
      </trkpt>
      <trkpt lat="31.165686501190066" lon="-5.578423775732517">
        <ele>1906.4300000000001</ele>
        <time>2019-03-12T15:14:18Z</time>
      </trkpt>
      <trkpt lat="31.165575189515948" lon="-5.578368455171585">
        <ele>1906.4300000000001</ele>
        <time>2019-03-12T15:14:19Z</time>
      </trkpt>
      <trkpt lat="31.165525317192078" lon="-5.578315565362573">
        <ele>1905.95</ele>
        <time>2019-03-12T15:14:20Z</time>
      </trkpt>
      <trkpt lat="31.165482485666871" lon="-5.578241888433695">
        <ele>1905.47</ele>
        <time>2019-03-12T15:14:21Z</time>
      </trkpt>
      <trkpt lat="31.16544283926487" lon="-5.578161925077438">
        <ele>1903.55</ele>
        <time>2019-03-12T15:14:22Z</time>
      </trkpt>
      <trkpt lat="31.165398666635156" lon="-5.578098054975271">
        <ele>1903.55</ele>
        <time>2019-03-12T15:14:23Z</time>
      </trkpt>
      <trkpt lat="31.165349883958697" lon="-5.578046757727861">
        <ele>1903.0699999999999</ele>
        <time>2019-03-12T15:14:24Z</time>
      </trkpt>
      <trkpt lat="31.165305795148015" lon="-5.577984396368265">
        <ele>1902.5899999999999</ele>
        <time>2019-03-12T15:14:25Z</time>
      </trkpt>
      <trkpt lat="31.165269082412124" lon="-5.577903762459755">
        <ele>1902.1099999999999</ele>
        <time>2019-03-12T15:14:31Z</time>
      </trkpt>
      <trkpt lat="31.165065821260214" lon="-5.577406380325556">
        <ele>1901.1400000000001</ele>
        <time>2019-03-12T15:14:32Z</time>
      </trkpt>
      <trkpt lat="31.165055092424154" lon="-5.577354161068797">
        <ele>1900.6600000000001</ele>
        <time>2019-03-12T15:14:33Z</time>
      </trkpt>
      <trkpt lat="31.165063139051199" lon="-5.57729858905077">
        <ele>1899.7</ele>
        <time>2019-03-12T15:14:34Z</time>
      </trkpt>
      <trkpt lat="31.165095660835505" lon="-5.577241256833077">
        <ele>1898.74</ele>
        <time>2019-03-12T15:14:35Z</time>
      </trkpt>
      <trkpt lat="31.165137989446521" lon="-5.577177973464131">
        <ele>1898.26</ele>
        <time>2019-03-12T15:14:36Z</time>
      </trkpt>
      <trkpt lat="31.165168834850192" lon="-5.577111588791013">
        <ele>1895.3800000000001</ele>
        <time>2019-03-12T15:14:37Z</time>
      </trkpt>
      <trkpt lat="31.165180150419474" lon="-5.577043192461133">
        <ele>1894.9000000000001</ele>
        <time>2019-03-12T15:14:38Z</time>
      </trkpt>
      <trkpt lat="31.165177216753364" lon="-5.576972784474492">
        <ele>1894.9000000000001</ele>
        <time>2019-03-12T15:14:39Z</time>
      </trkpt>
      <trkpt lat="31.165171517059207" lon="-5.576901203021407">
        <ele>1894.9000000000001</ele>
        <time>2019-03-12T15:14:40Z</time>
      </trkpt>
      <trkpt lat="31.165162296965718" lon="-5.576826520264149">
        <ele>1894.9000000000001</ele>
        <time>2019-03-12T15:14:46Z</time>
      </trkpt>
      <trkpt lat="31.165071353316307" lon="-5.576333831995726">
        <ele>1894.4200000000001</ele>
        <time>2019-03-12T15:14:48Z</time>
      </trkpt>
      <trkpt lat="31.165031204000115" lon="-5.576185388490558">
        <ele>1894.4200000000001</ele>
        <time>2019-03-12T15:14:49Z</time>
      </trkpt>
      <trkpt lat="31.165033048018813" lon="-5.576110957190394">
        <ele>1893.9300000000001</ele>
        <time>2019-03-12T15:14:50Z</time>
      </trkpt>
      <trkpt lat="31.165052074939013" lon="-5.57603208348155">
        <ele>1892.01</ele>
        <time>2019-03-12T15:14:51Z</time>
      </trkpt>
      <trkpt lat="31.165080489590764" lon="-5.575948767364025">
        <ele>1891.05</ele>
        <time>2019-03-12T15:14:52Z</time>
      </trkpt>
      <trkpt lat="31.16510421037674" lon="-5.575863355770707">
        <ele>1890.5699999999999</ele>
        <time>2019-03-12T15:14:53Z</time>
      </trkpt>
      <trkpt lat="31.165115106850863" lon="-5.575773166492581">
        <ele>1888.1700000000001</ele>
        <time>2019-03-12T15:14:54Z</time>
      </trkpt>
      <trkpt lat="31.165122734382749" lon="-5.575678450986743">
        <ele>1887.21</ele>
        <time>2019-03-12T15:14:58Z</time>
      </trkpt>
      <trkpt lat="31.165125500410795" lon="-5.575303360819817">
        <ele>1885.76</ele>
        <time>2019-03-12T15:14:59Z</time>
      </trkpt>
      <trkpt lat="31.16513354703784" lon="-5.575212417170405">
        <ele>1885.28</ele>
        <time>2019-03-12T15:15:00Z</time>
      </trkpt>
      <trkpt lat="31.165148634463549" lon="-5.575119378045201">
        <ele>1884.8</ele>
        <time>2019-03-12T15:15:03Z</time>
      </trkpt>
      <trkpt lat="31.165206385776401" lon="-5.574845038354397">
        <ele>1884.3199999999999</ele>
        <time>2019-03-12T15:15:04Z</time>
      </trkpt>
      <trkpt lat="31.165211666375399" lon="-5.574758537113667">
        <ele>1884.3199999999999</ele>
        <time>2019-03-12T15:15:05Z</time>
      </trkpt>
      <trkpt lat="31.165209570899606" lon="-5.574674047529697">
        <ele>1883.8399999999999</ele>
        <time>2019-03-12T15:15:06Z</time>
      </trkpt>
      <trkpt lat="31.165208397433162" lon="-5.5745945032686">
        <ele>1882.8800000000001</ele>
        <time>2019-03-12T15:15:07Z</time>
      </trkpt>
      <trkpt lat="31.165217701345682" lon="-5.574520993977785">
        <ele>1882.8800000000001</ele>
        <time>2019-03-12T15:15:08Z</time>
      </trkpt>
      <trkpt lat="31.165243936702609" lon="-5.574457542970777">
        <ele>1882.4000000000001</ele>
        <time>2019-03-12T15:15:09Z</time>
      </trkpt>
      <trkpt lat="31.165287354961038" lon="-5.574409011751413">
        <ele>1881.9200000000001</ele>
        <time>2019-03-12T15:15:10Z</time>
      </trkpt>
      <trkpt lat="31.165337981656194" lon="-5.574368527159095">
        <ele>1881.9200000000001</ele>
        <time>2019-03-12T15:15:11Z</time>
      </trkpt>
      <trkpt lat="31.165381819009781" lon="-5.574327204376459">
        <ele>1881.4400000000001</ele>
        <time>2019-03-12T15:15:12Z</time>
      </trkpt>
      <trkpt lat="31.165409814566374" lon="-5.574278337880969">
        <ele>1881.4400000000001</ele>
        <time>2019-03-12T15:15:13Z</time>
      </trkpt>
      <trkpt lat="31.165419202297926" lon="-5.574228717014194">
        <ele>1880.96</ele>
        <time>2019-03-12T15:15:14Z</time>
      </trkpt>
      <trkpt lat="31.16540914401412" lon="-5.57418018579483">
        <ele>1875.6700000000001</ele>
        <time>2019-03-12T15:15:15Z</time>
      </trkpt>
      <trkpt lat="31.165376622229815" lon="-5.574138527736068">
        <ele>1875.1900000000001</ele>
        <time>2019-03-12T15:15:16Z</time>
      </trkpt>
      <trkpt lat="31.165329851210117" lon="-5.574103742837906">
        <ele>1874.23</ele>
        <time>2019-03-12T15:15:17Z</time>
      </trkpt>
      <trkpt lat="31.165277296677232" lon="-5.574069963768125">
        <ele>1873.27</ele>
        <time>2019-03-12T15:15:18Z</time>
      </trkpt>
      <trkpt lat="31.165222143754363" lon="-5.574034592136741">
        <ele>1872.79</ele>
        <time>2019-03-12T15:15:26Z</time>
      </trkpt>
      <trkpt lat="31.164823165163398" lon="-5.573679953813553">
        <ele>1871.8199999999999</ele>
        <time>2019-03-12T15:15:27Z</time>
      </trkpt>
      <trkpt lat="31.164788380265236" lon="-5.573615413159132">
        <ele>1871.3399999999999</ele>
        <time>2019-03-12T15:15:28Z</time>
      </trkpt>
      <trkpt lat="31.164764072746038" lon="-5.573542825877667">
        <ele>1870.3800000000001</ele>
        <time>2019-03-12T15:15:29Z</time>
      </trkpt>
      <trkpt lat="31.164753511548042" lon="-5.573464874178171">
        <ele>1869.9000000000001</ele>
        <time>2019-03-12T15:15:30Z</time>
      </trkpt>
      <trkpt lat="31.164753930643201" lon="-5.573382563889027">
        <ele>1868.9400000000001</ele>
        <time>2019-03-12T15:15:31Z</time>
      </trkpt>
      <trkpt lat="31.164765413850546" lon="-5.573301259428263">
        <ele>1868.46</ele>
        <time>2019-03-12T15:15:32Z</time>
      </trkpt>
      <trkpt lat="31.164775975048542" lon="-5.573221882805228">
        <ele>1867.5</ele>
        <time>2019-03-12T15:15:33Z</time>
      </trkpt>
      <trkpt lat="31.164776142686605" lon="-5.573146780952811">
        <ele>1866.0599999999999</ele>
        <time>2019-03-12T15:15:34Z</time>
      </trkpt>
      <trkpt lat="31.164768179878592" lon="-5.573078049346805">
        <ele>1866.0599999999999</ele>
        <time>2019-03-12T15:15:35Z</time>
      </trkpt>
      <trkpt lat="31.164759378880262" lon="-5.57301183231175">
        <ele>1866.0599999999999</ele>
        <time>2019-03-12T15:15:36Z</time>
      </trkpt>
      <trkpt lat="31.164763066917658" lon="-5.572943016886711">
        <ele>1866.0599999999999</ele>
        <time>2019-03-12T15:15:37Z</time>
      </trkpt>
      <trkpt lat="31.164774214848876" lon="-5.572878643870354">
        <ele>1866.0599999999999</ele>
        <time>2019-03-12T15:15:39Z</time>
      </trkpt>
      <trkpt lat="31.164768682792783" lon="-5.572788957506418">
        <ele>1866.0599999999999</ele>
        <time>2019-03-12T15:15:40Z</time>
      </trkpt>
      <trkpt lat="31.164746722206473" lon="-5.572760291397572">
        <ele>1865.0899999999999</ele>
        <time>2019-03-12T15:15:41Z</time>
      </trkpt>
      <trkpt lat="31.164714032784104" lon="-5.572741599753499">
        <ele>1864.6099999999999</ele>
        <time>2019-03-12T15:15:42Z</time>
      </trkpt>
      <trkpt lat="31.164671955630183" lon="-5.572729529812932">
        <ele>1863.1700000000001</ele>
        <time>2019-03-12T15:15:43Z</time>
      </trkpt>
      <trkpt lat="31.164618227630854" lon="-5.572713101282716">
        <ele>1862.21</ele>
        <time>2019-03-12T15:15:44Z</time>
      </trkpt>
      <trkpt lat="31.16456089541316" lon="-5.572686698287725">
        <ele>1861.25</ele>
        <time>2019-03-12T15:15:45Z</time>
      </trkpt>
      <trkpt lat="31.164506580680609" lon="-5.572646297514439">
        <ele>1860.77</ele>
        <time>2019-03-12T15:15:46Z</time>
      </trkpt>
      <trkpt lat="31.164459390565753" lon="-5.572589132934809">
        <ele>1860.29</ele>
        <time>2019-03-12T15:15:47Z</time>
      </trkpt>
      <trkpt lat="31.164419744163752" lon="-5.572518222033978">
        <ele>1860.29</ele>
        <time>2019-03-12T15:15:48Z</time>
      </trkpt>
      <trkpt lat="31.164397448301315" lon="-5.572444712743163">
        <ele>1860.29</ele>
        <time>2019-03-12T15:15:49Z</time>
      </trkpt>
      <trkpt lat="31.164385126903653" lon="-5.572388134896755">
        <ele>1859.8099999999999</ele>
        <time>2019-03-12T15:15:50Z</time>
      </trkpt>
      <trkpt lat="31.164372721686959" lon="-5.572351589798927">
        <ele>1859.8099999999999</ele>
        <time>2019-03-12T15:15:51Z</time>
      </trkpt>
      <trkpt lat="31.164354868233204" lon="-5.57231605052948">
        <ele>1859.3299999999999</ele>
        <time>2019-03-12T15:15:52Z</time>
      </trkpt>
      <trkpt lat="31.164331398904324" lon="-5.572268692776561">
        <ele>1858.8499999999999</ele>
        <time>2019-03-12T15:15:53Z</time>
      </trkpt>
      <trkpt lat="31.164306085556746" lon="-5.572205577045679">
        <ele>1858.3699999999999</ele>
        <time>2019-03-12T15:15:54Z</time>
      </trkpt>
      <trkpt lat="31.164280017837882" lon="-5.572123099118471">
        <ele>1856.9200000000001</ele>
        <time>2019-03-12T15:15:55Z</time>
      </trkpt>
      <trkpt lat="31.164254872128367" lon="-5.572024947032332">
        <ele>1856.4400000000001</ele>
        <time>2019-03-12T15:16:00Z</time>
      </trkpt>
      <trkpt lat="31.164140878245234" lon="-5.571507532149553">
        <ele>1855.96</ele>
        <time>2019-03-12T15:16:01Z</time>
      </trkpt>
      <trkpt lat="31.164143979549408" lon="-5.571405021473765">
        <ele>1855</ele>
        <time>2019-03-12T15:16:02Z</time>
      </trkpt>
      <trkpt lat="31.164164515212178" lon="-5.571296643465757">
        <ele>1854.52</ele>
        <time>2019-03-12T15:16:04Z</time>
      </trkpt>
      <trkpt lat="31.16421832703054" lon="-5.571082821115851">
        <ele>1853.5599999999999</ele>
        <time>2019-03-12T15:16:05Z</time>
      </trkpt>
      <trkpt lat="31.164232827723026" lon="-5.570975365117192">
        <ele>1852.1199999999999</ele>
        <time>2019-03-12T15:16:06Z</time>
      </trkpt>
      <trkpt lat="31.164250764995813" lon="-5.570869585499167">
        <ele>1851.1600000000001</ele>
        <time>2019-03-12T15:16:07Z</time>
      </trkpt>
      <trkpt lat="31.164284711703658" lon="-5.57076757773757">
        <ele>1850.6800000000001</ele>
        <time>2019-03-12T15:16:08Z</time>
      </trkpt>
      <trkpt lat="31.164327962324023" lon="-5.570675376802683">
        <ele>1850.1900000000001</ele>
        <time>2019-03-12T15:16:09Z</time>
      </trkpt>
      <trkpt lat="31.164373895153403" lon="-5.570585606619716">
        <ele>1850.1900000000001</ele>
        <time>2019-03-12T15:16:11Z</time>
      </trkpt>
      <trkpt lat="31.164455953985453" lon="-5.570414112880826">
        <ele>1850.1900000000001</ele>
        <time>2019-03-12T15:16:12Z</time>
      </trkpt>
      <trkpt lat="31.164505826309323" lon="-5.570353679358959">
        <ele>1850.1900000000001</ele>
        <time>2019-03-12T15:16:13Z</time>
      </trkpt>
      <trkpt lat="31.164565170183778" lon="-5.570319565013051">
        <ele>1850.1900000000001</ele>
        <time>2019-03-12T15:16:15Z</time>
      </trkpt>
      <trkpt lat="31.16467765532434" lon="-5.570278242230415">
        <ele>1850.1900000000001</ele>
        <time>2019-03-12T15:16:16Z</time>
      </trkpt>
      <trkpt lat="31.164715206250548" lon="-5.570241613313556">
        <ele>1850.1900000000001</ele>
        <time>2019-03-12T15:16:17Z</time>
      </trkpt>
      <trkpt lat="31.16473532281816" lon="-5.570195345208049">
        <ele>1849.71</ele>
        <time>2019-03-12T15:16:18Z</time>
      </trkpt>
      <trkpt lat="31.164737837389112" lon="-5.570144550874829">
        <ele>1849.71</ele>
        <time>2019-03-12T15:16:19Z</time>
      </trkpt>
      <trkpt lat="31.164722330868244" lon="-5.570093840360642">
        <ele>1849.23</ele>
        <time>2019-03-12T15:16:20Z</time>
      </trkpt>
      <trkpt lat="31.164696430787444" lon="-5.570044470950961">
        <ele>1849.23</ele>
        <time>2019-03-12T15:16:21Z</time>
      </trkpt>
      <trkpt lat="31.164674302563071" lon="-5.569992251694202">
        <ele>1849.71</ele>
        <time>2019-03-12T15:16:22Z</time>
      </trkpt>
      <trkpt lat="31.164663657546043" lon="-5.569936009123921">
        <ele>1850.1900000000001</ele>
        <time>2019-03-12T15:16:23Z</time>
      </trkpt>
      <trkpt lat="31.164662903174758" lon="-5.569872474297881">
        <ele>1850.1900000000001</ele>
        <time>2019-03-12T15:16:24Z</time>
      </trkpt>
      <trkpt lat="31.164670279249549" lon="-5.569807263091207">
        <ele>1850.1900000000001</ele>
        <time>2019-03-12T15:16:25Z</time>
      </trkpt>
      <trkpt lat="31.164690144360065" lon="-5.569745153188705">
        <ele>1848.27</ele>
        <time>2019-03-12T15:16:26Z</time>
      </trkpt>
      <trkpt lat="31.164718139916658" lon="-5.56968723423779">
        <ele>1847.79</ele>
        <time>2019-03-12T15:16:28Z</time>
      </trkpt>
      <trkpt lat="31.164767341688275" lon="-5.569554883986712">
        <ele>1845.8699999999999</ele>
        <time>2019-03-12T15:16:29Z</time>
      </trkpt>
      <trkpt lat="31.164777986705303" lon="-5.569479698315263">
        <ele>1845.8699999999999</ele>
        <time>2019-03-12T15:16:30Z</time>
      </trkpt>
      <trkpt lat="31.164787374436855" lon="-5.569399232044816">
        <ele>1845.8699999999999</ele>
        <time>2019-03-12T15:16:37Z</time>
      </trkpt>
      <trkpt lat="31.164838504046202" lon="-5.568806128576398">
        <ele>1845.8699999999999</ele>
        <time>2019-03-12T15:16:38Z</time>
      </trkpt>
      <trkpt lat="31.164823919534683" lon="-5.568725327029824">
        <ele>1845.8699999999999</ele>
        <time>2019-03-12T15:16:49Z</time>
      </trkpt>
      <trkpt lat="31.164657538756728" lon="-5.567773729562759">
        <ele>1845.8699999999999</ele>
        <time>2019-03-12T15:16:50Z</time>
      </trkpt>
      <trkpt lat="31.164670446887612" lon="-5.567699884995818">
        <ele>1845.8699999999999</ele>
        <time>2019-03-12T15:16:51Z</time>
      </trkpt>
      <trkpt lat="31.164696346968412" lon="-5.567629225552082">
        <ele>1845.8699999999999</ele>
        <time>2019-03-12T15:16:52Z</time>
      </trkpt>
      <trkpt lat="31.164737083017826" lon="-5.567566612735391">
        <ele>1845.3900000000001</ele>
        <time>2019-03-12T15:16:53Z</time>
      </trkpt>
      <trkpt lat="31.164791313931346" lon="-5.567512214183807">
        <ele>1844.9100000000001</ele>
        <time>2019-03-12T15:16:54Z</time>
      </trkpt>
      <trkpt lat="31.164844119921327" lon="-5.567460665479302">
        <ele>1844.4300000000001</ele>
        <time>2019-03-12T15:16:55Z</time>
      </trkpt>
      <trkpt lat="31.164894076064229" lon="-5.567406937479973">
        <ele>1843.95</ele>
        <time>2019-03-12T15:16:56Z</time>
      </trkpt>
      <trkpt lat="31.164935398846865" lon="-5.567343737930059">
        <ele>1843.47</ele>
        <time>2019-03-12T15:16:57Z</time>
      </trkpt>
      <trkpt lat="31.164963562041521" lon="-5.567270899191499">
        <ele>1842.98</ele>
        <time>2019-03-12T15:16:58Z</time>
      </trkpt>
      <trkpt lat="31.164972698315978" lon="-5.567186744883657">
        <ele>1842.02</ele>
        <time>2019-03-12T15:16:59Z</time>
      </trkpt>
      <trkpt lat="31.164962388575077" lon="-5.567093705758452">
        <ele>1841.54</ele>
        <time>2019-03-12T15:17:00Z</time>
      </trkpt>
      <trkpt lat="31.164938500151038" lon="-5.566996727138758">
        <ele>1841.54</ele>
        <time>2019-03-12T15:17:01Z</time>
      </trkpt>
      <trkpt lat="31.164902877062559" lon="-5.566899497061968">
        <ele>1841.54</ele>
        <time>2019-03-12T15:17:02Z</time>
      </trkpt>
      <trkpt lat="31.164858536794782" lon="-5.566803608089685">
        <ele>1841.54</ele>
        <time>2019-03-12T15:17:05Z</time>
      </trkpt>
      <trkpt lat="31.164708836004138" lon="-5.566546032205224">
        <ele>1841.0599999999999</ele>
        <time>2019-03-12T15:17:06Z</time>
      </trkpt>
      <trkpt lat="31.164653599262238" lon="-5.566498842090368">
        <ele>1840.5799999999999</ele>
        <time>2019-03-12T15:17:07Z</time>
      </trkpt>
      <trkpt lat="31.164607331156731" lon="-5.566462632268667">
        <ele>1838.1800000000001</ele>
        <time>2019-03-12T15:17:08Z</time>
      </trkpt>
      <trkpt lat="31.164566930383444" lon="-5.566421141847968">
        <ele>1837.7</ele>
        <time>2019-03-12T15:17:09Z</time>
      </trkpt>
      <trkpt lat="31.164532816037536" lon="-5.566372442990542">
        <ele>1837.22</ele>
        <time>2019-03-12T15:17:10Z</time>
      </trkpt>
      <trkpt lat="31.16449979133904" lon="-5.566317290067673">
        <ele>1837.22</ele>
        <time>2019-03-12T15:17:12Z</time>
      </trkpt>
      <trkpt lat="31.164432652294636" lon="-5.566187538206577">
        <ele>1836.74</ele>
        <time>2019-03-12T15:17:17Z</time>
      </trkpt>
      <trkpt lat="31.164270965382457" lon="-5.565797360613942">
        <ele>1836.74</ele>
        <time>2019-03-12T15:17:18Z</time>
      </trkpt>
      <trkpt lat="31.164254620671272" lon="-5.565721839666367">
        <ele>1835.29</ele>
        <time>2019-03-12T15:17:20Z</time>
      </trkpt>
      <trkpt lat="31.164225535467267" lon="-5.565557051450014">
        <ele>1835.29</ele>
        <time>2019-03-12T15:17:21Z</time>
      </trkpt>
      <trkpt lat="31.164199970662594" lon="-5.565474824979901">
        <ele>1835.29</ele>
        <time>2019-03-12T15:17:25Z</time>
      </trkpt>
      <trkpt lat="31.164098465815187" lon="-5.565115660429001">
        <ele>1834.3299999999999</ele>
        <time>2019-03-12T15:17:26Z</time>
      </trkpt>
      <trkpt lat="31.164095867425203" lon="-5.565022956579924">
        <ele>1833.8499999999999</ele>
        <time>2019-03-12T15:17:34Z</time>
      </trkpt>
      <trkpt lat="31.164176082238555" lon="-5.564326085150242">
        <ele>1833.8499999999999</ele>
        <time>2019-03-12T15:17:35Z</time>
      </trkpt>
      <trkpt lat="31.164209526032209" lon="-5.56423757225275">
        <ele>1833.3699999999999</ele>
        <time>2019-03-12T15:17:36Z</time>
      </trkpt>
      <trkpt lat="31.164247076958418" lon="-5.564153920859098">
        <ele>1833.3699999999999</ele>
        <time>2019-03-12T15:17:38Z</time>
      </trkpt>
      <trkpt lat="31.164315724745393" lon="-5.564001621678472">
        <ele>1832.8900000000001</ele>
        <time>2019-03-12T15:17:39Z</time>
      </trkpt>
      <trkpt lat="31.164339361712337" lon="-5.563924172893167">
        <ele>1833.3699999999999</ele>
        <time>2019-03-12T15:17:40Z</time>
      </trkpt>
      <trkpt lat="31.164356209337711" lon="-5.56384077295661">
        <ele>1833.8499999999999</ele>
        <time>2019-03-12T15:17:41Z</time>
      </trkpt>
      <trkpt lat="31.164365261793137" lon="-5.563751086592674">
        <ele>1833.3699999999999</ele>
        <time>2019-03-12T15:17:42Z</time>
      </trkpt>
      <trkpt lat="31.164367357268929" lon="-5.563658969476819">
        <ele>1832.4100000000001</ele>
        <time>2019-03-12T15:17:43Z</time>
      </trkpt>
      <trkpt lat="31.164365177974105" lon="-5.56356375105679">
        <ele>1832.8900000000001</ele>
        <time>2019-03-12T15:17:52Z</time>
      </trkpt>
      <trkpt lat="31.164319664239883" lon="-5.562725979834795">
        <ele>1834.3299999999999</ele>
        <time>2019-03-12T15:17:57Z</time>
      </trkpt>
      <trkpt lat="31.164319831877947" lon="-5.562489693984389">
        <ele>1829.05</ele>
        <time>2019-03-12T15:17:58Z</time>
      </trkpt>
      <trkpt lat="31.164321424439549" lon="-5.562426494434476">
        <ele>1823.76</ele>
        <time>2019-03-12T15:18:02Z</time>
      </trkpt>
      <trkpt lat="31.164317401126027" lon="-5.562093816697598">
        <ele>1823.76</ele>
        <time>2019-03-12T15:18:04Z</time>
      </trkpt>
      <trkpt lat="31.164333494380116" lon="-5.561925088986754">
        <ele>1823.28</ele>
        <time>2019-03-12T15:18:11Z</time>
      </trkpt>
      <trkpt lat="31.164384540170431" lon="-5.561464922502637">
        <ele>1823.28</ele>
        <time>2019-03-12T15:18:20Z</time>
      </trkpt>
      <trkpt lat="31.164526110514998" lon="-5.560516593977809">
        <ele>1822.8</ele>
        <time>2019-03-12T15:18:28Z</time>
      </trkpt>
      <trkpt lat="31.164566427469254" lon="-5.559864146634936">
        <ele>1822.8</ele>
        <time>2019-03-12T15:18:29Z</time>
      </trkpt>
      <trkpt lat="31.164554944261909" lon="-5.559802539646626">
        <ele>1822.3199999999999</ele>
        <time>2019-03-12T15:18:30Z</time>
      </trkpt>
      <trkpt lat="31.164539018645883" lon="-5.559743111953139">
        <ele>1822.3199999999999</ele>
        <time>2019-03-12T15:18:31Z</time>
      </trkpt>
      <trkpt lat="31.164525356143713" lon="-5.559682426974177">
        <ele>1821.8399999999999</ele>
        <time>2019-03-12T15:18:32Z</time>
      </trkpt>
      <trkpt lat="31.164518818259239" lon="-5.559618473052979">
        <ele>1821.8399999999999</ele>
        <time>2019-03-12T15:18:33Z</time>
      </trkpt>
      <trkpt lat="31.164521500468254" lon="-5.559553345665336">
        <ele>1821.8399999999999</ele>
        <time>2019-03-12T15:18:34Z</time>
      </trkpt>
      <trkpt lat="31.16453449241817" lon="-5.5594826862216">
        <ele>1821.8399999999999</ele>
        <time>2019-03-12T15:18:35Z</time>
      </trkpt>
      <trkpt lat="31.164555866271257" lon="-5.559406410902739">
        <ele>1822.3199999999999</ele>
        <time>2019-03-12T15:18:36Z</time>
      </trkpt>
      <trkpt lat="31.164581682533026" lon="-5.55932485498488">
        <ele>1822.3199999999999</ele>
        <time>2019-03-12T15:18:39Z</time>
      </trkpt>
      <trkpt lat="31.164653180167079" lon="-5.559082701802254">
        <ele>1822.3199999999999</ele>
        <time>2019-03-12T15:18:40Z</time>
      </trkpt>
      <trkpt lat="31.164668686687946" lon="-5.559002235531807">
        <ele>1821.8399999999999</ele>
        <time>2019-03-12T15:18:41Z</time>
      </trkpt>
      <trkpt lat="31.16468402557075" lon="-5.558926798403263">
        <ele>1820.3900000000001</ele>
        <time>2019-03-12T15:18:42Z</time>
      </trkpt>
      <trkpt lat="31.164707746356726" lon="-5.558853540569544">
        <ele>1820.8699999999999</ele>
        <time>2019-03-12T15:18:43Z</time>
      </trkpt>
      <trkpt lat="31.164735574275255" lon="-5.558790173381567">
        <ele>1821.3499999999999</ele>
        <time>2019-03-12T15:18:44Z</time>
      </trkpt>
      <trkpt lat="31.164766419678926" lon="-5.55873753502965">
        <ele>1822.3199999999999</ele>
        <time>2019-03-12T15:18:45Z</time>
      </trkpt>
      <trkpt lat="31.164799947291613" lon="-5.558686573058367">
        <ele>1822.8</ele>
        <time>2019-03-12T15:18:49Z</time>
      </trkpt>
      <trkpt lat="31.164946295320988" lon="-5.558488676324487">
        <ele>1822.8</ele>
        <time>2019-03-12T15:18:50Z</time>
      </trkpt>
      <trkpt lat="31.164983427152038" lon="-5.558443581685424">
        <ele>1823.28</ele>
        <time>2019-03-12T15:18:51Z</time>
      </trkpt>
      <trkpt lat="31.165015026926994" lon="-5.558390775695443">
        <ele>1823.76</ele>
        <time>2019-03-12T15:18:52Z</time>
      </trkpt>
      <trkpt lat="31.165038999170065" lon="-5.558333359658718">
        <ele>1824.24</ele>
        <time>2019-03-12T15:18:53Z</time>
      </trkpt>
      <trkpt lat="31.165055427700281" lon="-5.5582704115659">
        <ele>1825.2</ele>
        <time>2019-03-12T15:18:54Z</time>
      </trkpt>
      <trkpt lat="31.165068419650197" lon="-5.558202769607306">
        <ele>1826.6400000000001</ele>
        <time>2019-03-12T15:18:55Z</time>
      </trkpt>
      <trkpt lat="31.165086189284921" lon="-5.558135295286775">
        <ele>1823.76</ele>
        <time>2019-03-12T15:18:56Z</time>
      </trkpt>
      <trkpt lat="31.165104294195771" lon="-5.558069916442037">
        <ele>1823.28</ele>
        <time>2019-03-12T15:18:57Z</time>
      </trkpt>
      <trkpt lat="31.165117369964719" lon="-5.558002023026347">
        <ele>1819.4300000000001</ele>
        <time>2019-03-12T15:18:58Z</time>
      </trkpt>
      <trkpt lat="31.165128517895937" lon="-5.557931363582611">
        <ele>1818.95</ele>
        <time>2019-03-12T15:19:09Z</time>
      </trkpt>
      <trkpt lat="31.165273021906614" lon="-5.556951686739922">
        <ele>1817.99</ele>
        <time>2019-03-12T15:19:14Z</time>
      </trkpt>
      <trkpt lat="31.165433367714286" lon="-5.556511301547289">
        <ele>1816.55</ele>
        <time>2019-03-12T15:19:15Z</time>
      </trkpt>
      <trkpt lat="31.165468655526638" lon="-5.556446593254805">
        <ele>1817.03</ele>
        <time>2019-03-12T15:19:19Z</time>
      </trkpt>
      <trkpt lat="31.165594300255179" lon="-5.556196896359325">
        <ele>1817.03</ele>
        <time>2019-03-12T15:19:20Z</time>
      </trkpt>
      <trkpt lat="31.165623301640153" lon="-5.556128919124603">
        <ele>1817.03</ele>
        <time>2019-03-12T15:19:21Z</time>
      </trkpt>
      <trkpt lat="31.165659511461854" lon="-5.556054320186377">
        <ele>1817.03</ele>
        <time>2019-03-12T15:19:25Z</time>
      </trkpt>
      <trkpt lat="31.165825305506587" lon="-5.555781153962016">
        <ele>1816.55</ele>
        <time>2019-03-12T15:19:26Z</time>
      </trkpt>
      <trkpt lat="31.165853133425117" lon="-5.55573396384716">
        <ele>1814.1500000000001</ele>
        <time>2019-03-12T15:19:27Z</time>
      </trkpt>
      <trkpt lat="31.165882553905249" lon="-5.555695993825793">
        <ele>1814.1500000000001</ele>
        <time>2019-03-12T15:19:28Z</time>
      </trkpt>
      <trkpt lat="31.165912393480539" lon="-5.555662633851171">
        <ele>1813.6600000000001</ele>
        <time>2019-03-12T15:19:29Z</time>
      </trkpt>
      <trkpt lat="31.165939969941974" lon="-5.555625082924962">
        <ele>1813.6600000000001</ele>
        <time>2019-03-12T15:19:30Z</time>
      </trkpt>
      <trkpt lat="31.165967797860503" lon="-5.555583341047168">
        <ele>1813.1800000000001</ele>
        <time>2019-03-12T15:19:34Z</time>
      </trkpt>
      <trkpt lat="31.166105261072516" lon="-5.555342612788081">
        <ele>1813.6600000000001</ele>
        <time>2019-03-12T15:19:35Z</time>
      </trkpt>
      <trkpt lat="31.166133927181363" lon="-5.555265583097935">
        <ele>1814.1500000000001</ele>
        <time>2019-03-12T15:19:37Z</time>
      </trkpt>
      <trkpt lat="31.166190840303898" lon="-5.555126527324319">
        <ele>1814.1500000000001</ele>
        <time>2019-03-12T15:19:38Z</time>
      </trkpt>
      <trkpt lat="31.166229648515582" lon="-5.555065255612135">
        <ele>1814.1500000000001</ele>
        <time>2019-03-12T15:19:39Z</time>
      </trkpt>
      <trkpt lat="31.166266528889537" lon="-5.555002810433507">
        <ele>1814.1500000000001</ele>
        <time>2019-03-12T15:19:40Z</time>
      </trkpt>
      <trkpt lat="31.166297625750303" lon="-5.554934330284596">
        <ele>1813.1800000000001</ele>
        <time>2019-03-12T15:19:41Z</time>
      </trkpt>
      <trkpt lat="31.166323525831103" lon="-5.554860066622496">
        <ele>1813.1800000000001</ele>
        <time>2019-03-12T15:19:42Z</time>
      </trkpt>
      <trkpt lat="31.166352024301887" lon="-5.554782031103969">
        <ele>1809.8199999999999</ele>
        <time>2019-03-12T15:19:43Z</time>
      </trkpt>
      <trkpt lat="31.166385719552636" lon="-5.55469854734838">
        <ele>1809.3399999999999</ele>
        <time>2019-03-12T15:19:46Z</time>
      </trkpt>
      <trkpt lat="31.166503736749291" lon="-5.554430158808827">
        <ele>1808.8599999999999</ele>
        <time>2019-03-12T15:19:57Z</time>
      </trkpt>
      <trkpt lat="31.166890896856785" lon="-5.553552657365799">
        <ele>1808.3800000000001</ele>
        <time>2019-03-12T15:19:59Z</time>
      </trkpt>
      <trkpt lat="31.16695174947381" lon="-5.553409075364471">
        <ele>1807.9000000000001</ele>
        <time>2019-03-12T15:20:13Z</time>
      </trkpt>
      <trkpt lat="31.167409485206008" lon="-5.552389919757843">
        <ele>1807.4200000000001</ele>
        <time>2019-03-12T15:20:14Z</time>
      </trkpt>
      <trkpt lat="31.167432786896825" lon="-5.552306771278381">
        <ele>1806.9400000000001</ele>
        <time>2019-03-12T15:20:15Z</time>
      </trkpt>
      <trkpt lat="31.167451143264771" lon="-5.552222197875381">
        <ele>1806.45</ele>
        <time>2019-03-12T15:20:16Z</time>
      </trkpt>
      <trkpt lat="31.167462458834052" lon="-5.552139468491077">
        <ele>1805.97</ele>
        <time>2019-03-12T15:20:17Z</time>
      </trkpt>
      <trkpt lat="31.167464889585972" lon="-5.552054727450013">
        <ele>1805.97</ele>
        <time>2019-03-12T15:20:18Z</time>
      </trkpt>
      <trkpt lat="31.167459273710847" lon="-5.551968393847346">
        <ele>1805.97</ele>
        <time>2019-03-12T15:20:19Z</time>
      </trkpt>
      <trkpt lat="31.167446030303836" lon="-5.551882646977902">
        <ele>1804.53</ele>
        <time>2019-03-12T15:20:20Z</time>
      </trkpt>
      <trkpt lat="31.167427087202668" lon="-5.5517946369946">
        <ele>1804.53</ele>
        <time>2019-03-12T15:20:21Z</time>
      </trkpt>
      <trkpt lat="31.16741350851953" lon="-5.551704615354538">
        <ele>1804.53</ele>
        <time>2019-03-12T15:20:22Z</time>
      </trkpt>
      <trkpt lat="31.167408563196659" lon="-5.55161383934319">
        <ele>1804.05</ele>
        <time>2019-03-12T15:20:23Z</time>
      </trkpt>
      <trkpt lat="31.167410407215357" lon="-5.551524320617318">
        <ele>1803.5699999999999</ele>
        <time>2019-03-12T15:20:27Z</time>
      </trkpt>
      <trkpt lat="31.167451394721866" lon="-5.551190301775932">
        <ele>1801.1700000000001</ele>
        <time>2019-03-12T15:20:28Z</time>
      </trkpt>
      <trkpt lat="31.16747947409749" lon="-5.551129449158907">
        <ele>1797.8</ele>
        <time>2019-03-12T15:20:29Z</time>
      </trkpt>
      <trkpt lat="31.167516857385635" lon="-5.551068680360913">
        <ele>1797.3199999999999</ele>
        <time>2019-03-12T15:20:32Z</time>
      </trkpt>
      <trkpt lat="31.167661612853408" lon="-5.550829209387302">
        <ele>1796.8399999999999</ele>
        <time>2019-03-12T15:20:33Z</time>
      </trkpt>
      <trkpt lat="31.167700840160251" lon="-5.55072259157896">
        <ele>1796.8399999999999</ele>
        <time>2019-03-12T15:20:45Z</time>
      </trkpt>
      <trkpt lat="31.168169304728508" lon="-5.549442591145635">
        <ele>1796.8399999999999</ele>
        <time>2019-03-12T15:20:52Z</time>
      </trkpt>
      <trkpt lat="31.168410032987595" lon="-5.548635665327311">
        <ele>1796.3599999999999</ele>
        <time>2019-03-12T15:20:54Z</time>
      </trkpt>
      <trkpt lat="31.168440962210298" lon="-5.548478169366717">
        <ele>1796.3599999999999</ele>
        <time>2019-03-12T15:20:55Z</time>
      </trkpt>
      <trkpt lat="31.1684684548527" lon="-5.548407509922981">
        <ele>1794.9200000000001</ele>
        <time>2019-03-12T15:20:56Z</time>
      </trkpt>
      <trkpt lat="31.168495528399944" lon="-5.548331150785089">
        <ele>1794.9200000000001</ele>
        <time>2019-03-12T15:20:57Z</time>
      </trkpt>
      <trkpt lat="31.168511956930161" lon="-5.548251438885927">
        <ele>1794.9200000000001</ele>
        <time>2019-03-12T15:20:58Z</time>
      </trkpt>
      <trkpt lat="31.168522015213966" lon="-5.548170553520322">
        <ele>1794.9200000000001</ele>
        <time>2019-03-12T15:20:59Z</time>
      </trkpt>
      <trkpt lat="31.168542634695768" lon="-5.548087069764733">
        <ele>1794.9200000000001</ele>
        <time>2019-03-12T15:21:08Z</time>
      </trkpt>
      <trkpt lat="31.168755870312452" lon="-5.547213004902005">
        <ele>1793.96</ele>
        <time>2019-03-12T15:21:09Z</time>
      </trkpt>
      <trkpt lat="31.168786380439997" lon="-5.547127593308687">
        <ele>1793.96</ele>
        <time>2019-03-12T15:21:11Z</time>
      </trkpt>
      <trkpt lat="31.168848741799593" lon="-5.546982502564788">
        <ele>1793.48</ele>
        <time>2019-03-12T15:21:12Z</time>
      </trkpt>
      <trkpt lat="31.168884448707104" lon="-5.546927265822887">
        <ele>1793.48</ele>
        <time>2019-03-12T15:21:13Z</time>
      </trkpt>
      <trkpt lat="31.168927447870374" lon="-5.546874459832907">
        <ele>1793</ele>
        <time>2019-03-12T15:21:15Z</time>
      </trkpt>
      <trkpt lat="31.169022582471371" lon="-5.546756526455283">
        <ele>1793</ele>
        <time>2019-03-12T15:21:16Z</time>
      </trkpt>
      <trkpt lat="31.169063234701753" lon="-5.546684777364135">
        <ele>1791.55</ele>
        <time>2019-03-12T15:21:17Z</time>
      </trkpt>
      <trkpt lat="31.169092571362853" lon="-5.54661076515913">
        <ele>1789.1500000000001</ele>
        <time>2019-03-12T15:21:18Z</time>
      </trkpt>
      <trkpt lat="31.169110676273704" lon="-5.54653306491673">
        <ele>1790.1099999999999</ele>
        <time>2019-03-12T15:21:19Z</time>
      </trkpt>
      <trkpt lat="31.169125512242317" lon="-5.546451760455966">
        <ele>1790.5899999999999</ele>
        <time>2019-03-12T15:21:20Z</time>
      </trkpt>
      <trkpt lat="31.169140515848994" lon="-5.546367773786187">
        <ele>1791.0699999999999</ele>
        <time>2019-03-12T15:21:27Z</time>
      </trkpt>
      <trkpt lat="31.169354422017932" lon="-5.545698227360845">
        <ele>1791.0699999999999</ele>
        <time>2019-03-12T15:21:37Z</time>
      </trkpt>
      <trkpt lat="31.169626833871007" lon="-5.544660044834018">
        <ele>1790.5899999999999</ele>
        <time>2019-03-12T15:21:43Z</time>
      </trkpt>
      <trkpt lat="31.16968022659421" lon="-5.544264754280448">
        <ele>1790.5899999999999</ele>
        <time>2019-03-12T15:21:44Z</time>
      </trkpt>
      <trkpt lat="31.169678047299385" lon="-5.544203482568264">
        <ele>1791.55</ele>
        <time>2019-03-12T15:21:45Z</time>
      </trkpt>
      <trkpt lat="31.169663714244962" lon="-5.544146485626698">
        <ele>1792.03</ele>
        <time>2019-03-12T15:21:46Z</time>
      </trkpt>
      <trkpt lat="31.169640999287367" lon="-5.544087393209338">
        <ele>1792.03</ele>
        <time>2019-03-12T15:21:47Z</time>
      </trkpt>
      <trkpt lat="31.169617446139455" lon="-5.544018829241395">
        <ele>1792.03</ele>
        <time>2019-03-12T15:21:48Z</time>
      </trkpt>
      <trkpt lat="31.169601185247302" lon="-5.543944565579295">
        <ele>1792.03</ele>
        <time>2019-03-12T15:21:49Z</time>
      </trkpt>
      <trkpt lat="31.169587019830942" lon="-5.543873151764274">
        <ele>1792.03</ele>
        <time>2019-03-12T15:21:59Z</time>
      </trkpt>
      <trkpt lat="31.169262304902077" lon="-5.543059101328254">
        <ele>1792.03</ele>
        <time>2019-03-12T15:22:00Z</time>
      </trkpt>
      <trkpt lat="31.169209834188223" lon="-5.542978215962648">
        <ele>1792.03</ele>
        <time>2019-03-12T15:22:02Z</time>
      </trkpt>
      <trkpt lat="31.169111849740148" lon="-5.542820803821087">
        <ele>1791.55</ele>
        <time>2019-03-12T15:22:03Z</time>
      </trkpt>
      <trkpt lat="31.169078992679715" lon="-5.542733045294881">
        <ele>1791.55</ele>
        <time>2019-03-12T15:22:04Z</time>
      </trkpt>
      <trkpt lat="31.169057618826628" lon="-5.542641431093216">
        <ele>1790.5899999999999</ele>
        <time>2019-03-12T15:22:05Z</time>
      </trkpt>
      <trkpt lat="31.169049236923456" lon="-5.5425507389009">
        <ele>1789.6300000000001</ele>
        <time>2019-03-12T15:22:06Z</time>
      </trkpt>
      <trkpt lat="31.169048985466361" lon="-5.542460884898901">
        <ele>1789.1500000000001</ele>
        <time>2019-03-12T15:22:07Z</time>
      </trkpt>
      <trkpt lat="31.169053092598915" lon="-5.542375473305583">
        <ele>1787.71</ele>
        <time>2019-03-12T15:22:08Z</time>
      </trkpt>
      <trkpt lat="31.169053846970201" lon="-5.542291486635804">
        <ele>1782.9000000000001</ele>
        <time>2019-03-12T15:22:09Z</time>
      </trkpt>
      <trkpt lat="31.169050494208932" lon="-5.542209595441818">
        <ele>1780.02</ele>
        <time>2019-03-12T15:22:11Z</time>
      </trkpt>
      <trkpt lat="31.169043704867363" lon="-5.542074646800757">
        <ele>1780.02</ele>
        <time>2019-03-12T15:22:12Z</time>
      </trkpt>
      <trkpt lat="31.169050326570868" lon="-5.542027708142996">
        <ele>1779.54</ele>
        <time>2019-03-12T15:22:16Z</time>
      </trkpt>
      <trkpt lat="31.169102545827627" lon="-5.541821932420135">
        <ele>1779.0599999999999</ele>
        <time>2019-03-12T15:22:22Z</time>
      </trkpt>
      <trkpt lat="31.169166667386889" lon="-5.541514903306961">
        <ele>1779.0599999999999</ele>
        <time>2019-03-12T15:22:29Z</time>
      </trkpt>
      <trkpt lat="31.169284097850323" lon="-5.541169820353389">
        <ele>1778.5799999999999</ele>
        <time>2019-03-12T15:22:30Z</time>
      </trkpt>
      <trkpt lat="31.169293066486716" lon="-5.541122797876597">
        <ele>1779.0599999999999</ele>
        <time>2019-03-12T15:22:31Z</time>
      </trkpt>
      <trkpt lat="31.169298598542809" lon="-5.541076278313994">
        <ele>1779.0599999999999</ele>
        <time>2019-03-12T15:22:32Z</time>
      </trkpt>
      <trkpt lat="31.169302621856332" lon="-5.541031770408154">
        <ele>1778.5799999999999</ele>
        <time>2019-03-12T15:22:33Z</time>
      </trkpt>
      <trkpt lat="31.169304717332125" lon="-5.540989441797137">
        <ele>1777.6099999999999</ele>
        <time>2019-03-12T15:22:39Z</time>
      </trkpt>
      <trkpt lat="31.169320642948151" lon="-5.54063580930233">
        <ele>1776.6500000000001</ele>
        <time>2019-03-12T15:22:40Z</time>
      </trkpt>
      <trkpt lat="31.169334976002574" lon="-5.540546625852585">
        <ele>1776.6500000000001</ele>
        <time>2019-03-12T15:22:42Z</time>
      </trkpt>
      <trkpt lat="31.169378980994225" lon="-5.540375299751759">
        <ele>1776.1700000000001</ele>
        <time>2019-03-12T15:22:43Z</time>
      </trkpt>
      <trkpt lat="31.169406641274691" lon="-5.54029768332839">
        <ele>1776.1700000000001</ele>
        <time>2019-03-12T15:22:44Z</time>
      </trkpt>
      <trkpt lat="31.169423907995224" lon="-5.540219396352768">
        <ele>1776.6500000000001</ele>
        <time>2019-03-12T15:22:45Z</time>
      </trkpt>
      <trkpt lat="31.169433714821935" lon="-5.540142701938748">
        <ele>1776.6500000000001</ele>
        <time>2019-03-12T15:22:46Z</time>
      </trkpt>
      <trkpt lat="31.16944913752377" lon="-5.540079083293676">
        <ele>1775.6900000000001</ele>
        <time>2019-03-12T15:22:47Z</time>
      </trkpt>
      <trkpt lat="31.169476378709078" lon="-5.540034072473645">
        <ele>1777.1300000000001</ele>
        <time>2019-03-12T15:22:48Z</time>
      </trkpt>
      <trkpt lat="31.169504877179861" lon="-5.53999861702323">
        <ele>1777.1300000000001</ele>
        <time>2019-03-12T15:22:49Z</time>
      </trkpt>
      <trkpt lat="31.169531363993883" lon="-5.539958300068975">
        <ele>1777.6099999999999</ele>
        <time>2019-03-12T15:22:50Z</time>
      </trkpt>
      <trkpt lat="31.169558102265" lon="-5.539907924830914">
        <ele>1777.6099999999999</ele>
        <time>2019-03-12T15:22:58Z</time>
      </trkpt>
      <trkpt lat="31.169849541038275" lon="-5.539276683703065">
        <ele>1778.0999999999999</ele>
        <time>2019-03-12T15:23:10Z</time>
      </trkpt>
      <trkpt lat="31.170251788571477" lon="-5.538413682952523">
        <ele>1775.6900000000001</ele>
        <time>2019-03-12T15:23:11Z</time>
      </trkpt>
      <trkpt lat="31.170266373082995" lon="-5.538339000195265">
        <ele>1775.21</ele>
        <time>2019-03-12T15:23:21Z</time>
      </trkpt>
      <trkpt lat="31.170436693355441" lon="-5.537374746054411">
        <ele>1775.21</ele>
        <time>2019-03-12T15:23:23Z</time>
      </trkpt>
      <trkpt lat="31.170462761074305" lon="-5.537206185981631">
        <ele>1774.73</ele>
        <time>2019-03-12T15:23:32Z</time>
      </trkpt>
      <trkpt lat="31.170537946745753" lon="-5.536529934033752">
        <ele>1774.73</ele>
        <time>2019-03-12T15:23:42Z</time>
      </trkpt>
      <trkpt lat="31.170564014464617" lon="-5.535444058477879">
        <ele>1773.29</ele>
        <time>2019-03-12T15:23:44Z</time>
      </trkpt>
      <trkpt lat="31.170559655874968" lon="-5.535215735435486">
        <ele>1772.3299999999999</ele>
        <time>2019-03-12T15:23:45Z</time>
      </trkpt>
      <trkpt lat="31.170545071363449" lon="-5.535102160647512">
        <ele>1767.04</ele>
        <time>2019-03-12T15:23:48Z</time>
      </trkpt>
      <trkpt lat="31.170515147969127" lon="-5.534846931695938">
        <ele>1766.5599999999999</ele>
        <time>2019-03-12T15:23:49Z</time>
      </trkpt>
      <trkpt lat="31.170522021129727" lon="-5.534778367727995">
        <ele>1766.5599999999999</ele>
        <time>2019-03-12T15:23:55Z</time>
      </trkpt>
      <trkpt lat="31.170628303661942" lon="-5.534235388040543">
        <ele>1766.0799999999999</ele>
        <time>2019-03-12T15:23:56Z</time>
      </trkpt>
      <trkpt lat="31.170625202357769" lon="-5.534129608422518">
        <ele>1762.23</ele>
        <time>2019-03-12T15:24:07Z</time>
      </trkpt>
      <trkpt lat="31.170479189604521" lon="-5.533009367063642">
        <ele>1756.47</ele>
        <time>2019-03-12T15:24:08Z</time>
      </trkpt>
      <trkpt lat="31.170459743589163" lon="-5.532908951863647">
        <ele>1755.99</ele>
        <time>2019-03-12T15:24:09Z</time>
      </trkpt>
      <trkpt lat="31.170447254553437" lon="-5.532798729836941">
        <ele>1755.5</ele>
        <time>2019-03-12T15:24:10Z</time>
      </trkpt>
      <trkpt lat="31.170441722497344" lon="-5.53268289193511">
        <ele>1754.54</ele>
        <time>2019-03-12T15:24:19Z</time>
      </trkpt>
      <trkpt lat="31.170480446889997" lon="-5.531856268644333">
        <ele>1753.0999999999999</ele>
        <time>2019-03-12T15:24:29Z</time>
      </trkpt>
      <trkpt lat="31.170629477128386" lon="-5.5310601554811">
        <ele>1752.1400000000001</ele>
        <time>2019-03-12T15:24:30Z</time>
      </trkpt>
      <trkpt lat="31.170639954507351" lon="-5.531001230701804">
        <ele>1750.22</ele>
        <time>2019-03-12T15:24:31Z</time>
      </trkpt>
      <trkpt lat="31.17066191509366" lon="-5.530945910140872">
        <ele>1749.74</ele>
        <time>2019-03-12T15:24:32Z</time>
      </trkpt>
      <trkpt lat="31.17069510743022" lon="-5.530893942341209">
        <ele>1750.7</ele>
        <time>2019-03-12T15:24:34Z</time>
      </trkpt>
      <trkpt lat="31.170770712196827" lon="-5.530791431665421">
        <ele>1751.6600000000001</ele>
        <time>2019-03-12T15:24:35Z</time>
      </trkpt>
      <trkpt lat="31.170802479609847" lon="-5.530737871304154">
        <ele>1751.6600000000001</ele>
        <time>2019-03-12T15:24:37Z</time>
      </trkpt>
      <trkpt lat="31.170851849019527" lon="-5.530640725046396">
        <ele>1752.1400000000001</ele>
        <time>2019-03-12T15:24:38Z</time>
      </trkpt>
      <trkpt lat="31.170865427702665" lon="-5.530605437234044">
        <ele>1752.1400000000001</ele>
        <time>2019-03-12T15:24:46Z</time>
      </trkpt>
      <trkpt lat="31.170949330553412" lon="-5.530411899089813">
        <ele>1752.1400000000001</ele>
        <time>2019-03-12T15:24:49Z</time>
      </trkpt>
      <trkpt lat="31.171019487082958" lon="-5.530228251591325">
        <ele>1748.78</ele>
        <time>2019-03-12T15:24:50Z</time>
      </trkpt>
      <trkpt lat="31.171042872592807" lon="-5.530156837776303">
        <ele>1747.8099999999999</ele>
        <time>2019-03-12T15:24:51Z</time>
      </trkpt>
      <trkpt lat="31.171062234789133" lon="-5.530079640448093">
        <ele>1747.3299999999999</ele>
        <time>2019-03-12T15:24:52Z</time>
      </trkpt>
      <trkpt lat="31.171075981110334" lon="-5.529997078701854">
        <ele>1747.3299999999999</ele>
        <time>2019-03-12T15:24:53Z</time>
      </trkpt>
      <trkpt lat="31.171086290851235" lon="-5.52991284057498">
        <ele>1747.3299999999999</ele>
        <time>2019-03-12T15:25:06Z</time>
      </trkpt>
      <trkpt lat="31.171198105439544" lon="-5.528640551492572">
        <ele>1747.8099999999999</ele>
        <time>2019-03-12T15:25:14Z</time>
      </trkpt>
      <trkpt lat="31.171259209513664" lon="-5.527832787483931">
        <ele>1748.29</ele>
        <time>2019-03-12T15:25:15Z</time>
      </trkpt>
      <trkpt lat="31.171269351616502" lon="-5.527760786935687">
        <ele>1748.29</ele>
        <time>2019-03-12T15:25:16Z</time>
      </trkpt>
      <trkpt lat="31.171287037432194" lon="-5.52771158516407">
        <ele>1748.78</ele>
        <time>2019-03-12T15:25:17Z</time>
      </trkpt>
      <trkpt lat="31.171316206455231" lon="-5.527675794437528">
        <ele>1748.78</ele>
        <time>2019-03-12T15:25:18Z</time>
      </trkpt>
      <trkpt lat="31.171350236982107" lon="-5.527642099186778">
        <ele>1749.26</ele>
        <time>2019-03-12T15:25:19Z</time>
      </trkpt>
      <trkpt lat="31.171387201175094" lon="-5.527607649564743">
        <ele>1749.74</ele>
        <time>2019-03-12T15:25:20Z</time>
      </trkpt>
      <trkpt lat="31.171421650797129" lon="-5.527566913515329">
        <ele>1749.74</ele>
        <time>2019-03-12T15:25:21Z</time>
      </trkpt>
      <trkpt lat="31.171450400725007" lon="-5.527516203001142">
        <ele>1750.22</ele>
        <time>2019-03-12T15:25:22Z</time>
      </trkpt>
      <trkpt lat="31.171477641910315" lon="-5.52745945751667">
        <ele>1750.22</ele>
        <time>2019-03-12T15:25:23Z</time>
      </trkpt>
      <trkpt lat="31.171502284705639" lon="-5.527389636263251">
        <ele>1750.22</ele>
        <time>2019-03-12T15:25:24Z</time>
      </trkpt>
      <trkpt lat="31.171522233635187" lon="-5.527304895222187">
        <ele>1749.74</ele>
        <time>2019-03-12T15:25:25Z</time>
      </trkpt>
      <trkpt lat="31.171535812318325" lon="-5.527214286848903">
        <ele>1750.7</ele>
        <time>2019-03-12T15:25:26Z</time>
      </trkpt>
      <trkpt lat="31.17154142819345" lon="-5.527119068428874">
        <ele>1751.1800000000001</ele>
        <time>2019-03-12T15:25:27Z</time>
      </trkpt>
      <trkpt lat="31.171542014926672" lon="-5.527014043182135">
        <ele>1752.1400000000001</ele>
        <time>2019-03-12T15:25:28Z</time>
      </trkpt>
      <trkpt lat="31.171535896137357" lon="-5.526900049299002">
        <ele>1754.0599999999999</ele>
        <time>2019-03-12T15:25:29Z</time>
      </trkpt>
      <trkpt lat="31.171524412930012" lon="-5.5267827026546">
        <ele>1755.02</ele>
        <time>2019-03-12T15:25:37Z</time>
      </trkpt>
      <trkpt lat="31.171495076268911" lon="-5.525949373841286">
        <ele>1755.99</ele>
        <time>2019-03-12T15:25:43Z</time>
      </trkpt>
      <trkpt lat="31.171461967751384" lon="-5.525625664740801">
        <ele>1755.99</ele>
        <time>2019-03-12T15:25:50Z</time>
      </trkpt>
      <trkpt lat="31.171357864513993" lon="-5.524811027571559">
        <ele>1755.99</ele>
        <time>2019-03-12T15:25:59Z</time>
      </trkpt>
      <trkpt lat="31.171408323571086" lon="-5.523933274671435">
        <ele>1756.47</ele>
        <time>2019-03-12T15:26:01Z</time>
      </trkpt>
      <trkpt lat="31.171428859233856" lon="-5.52377468906343">
        <ele>1756.47</ele>
        <time>2019-03-12T15:26:03Z</time>
      </trkpt>
      <trkpt lat="31.171443108469248" lon="-5.52360855974257">
        <ele>1756.95</ele>
        <time>2019-03-12T15:26:04Z</time>
      </trkpt>
      <trkpt lat="31.171462219208479" lon="-5.523520968854427">
        <ele>1757.4300000000001</ele>
        <time>2019-03-12T15:26:05Z</time>
      </trkpt>
      <trkpt lat="31.171484347432852" lon="-5.52343119867146">
        <ele>1758.3900000000001</ele>
        <time>2019-03-12T15:26:06Z</time>
      </trkpt>
      <trkpt lat="31.171501781791449" lon="-5.523333298042417">
        <ele>1764.6400000000001</ele>
        <time>2019-03-12T15:26:07Z</time>
      </trkpt>
      <trkpt lat="31.171511588618159" lon="-5.523232212290168">
        <ele>1766.0799999999999</ele>
        <time>2019-03-12T15:26:08Z</time>
      </trkpt>
      <trkpt lat="31.171516533941031" lon="-5.523135485127568">
        <ele>1766.5599999999999</ele>
        <time>2019-03-12T15:26:10Z</time>
      </trkpt>
      <trkpt lat="31.171515779569745" lon="-5.522974971681833">
        <ele>1768.96</ele>
        <time>2019-03-12T15:26:17Z</time>
      </trkpt>
      <trkpt lat="31.171522988006473" lon="-5.522677917033434">
        <ele>1769.4400000000001</ele>
        <time>2019-03-12T15:26:30Z</time>
      </trkpt>
      <trkpt lat="31.171442605555058" lon="-5.521726822480559">
        <ele>1769.9200000000001</ele>
        <time>2019-03-12T15:26:33Z</time>
      </trkpt>
      <trkpt lat="31.171435983851552" lon="-5.521517442539334">
        <ele>1770.4100000000001</ele>
        <time>2019-03-12T15:26:34Z</time>
      </trkpt>
      <trkpt lat="31.171426428481936" lon="-5.521453153342009">
        <ele>1770.8900000000001</ele>
        <time>2019-03-12T15:26:43Z</time>
      </trkpt>
      <trkpt lat="31.171374293044209" lon="-5.520830126479268">
        <ele>1771.8499999999999</ele>
        <time>2019-03-12T15:26:44Z</time>
      </trkpt>
      <trkpt lat="31.171388793736696" lon="-5.520756365731359">
        <ele>1772.3299999999999</ele>
        <time>2019-03-12T15:26:45Z</time>
      </trkpt>
      <trkpt lat="31.171412682160735" lon="-5.520688639953733">
        <ele>1772.8099999999999</ele>
        <time>2019-03-12T15:26:46Z</time>
      </trkpt>
      <trkpt lat="31.171444617211819" lon="-5.520625021308661">
        <ele>1773.29</ele>
        <time>2019-03-12T15:26:47Z</time>
      </trkpt>
      <trkpt lat="31.17149063386023" lon="-5.520567018538714">
        <ele>1773.77</ele>
        <time>2019-03-12T15:26:48Z</time>
      </trkpt>
      <trkpt lat="31.171546373516321" lon="-5.520519996061921">
        <ele>1774.25</ele>
        <time>2019-03-12T15:26:49Z</time>
      </trkpt>
      <trkpt lat="31.171611249446869" lon="-5.520487893372774">
        <ele>1775.21</ele>
        <time>2019-03-12T15:26:50Z</time>
      </trkpt>
      <trkpt lat="31.17167972959578" lon="-5.520463837310672">
        <ele>1776.1700000000001</ele>
        <time>2019-03-12T15:26:51Z</time>
      </trkpt>
      <trkpt lat="31.17174812592566" lon="-5.520437769591808">
        <ele>1777.1300000000001</ele>
        <time>2019-03-12T15:26:52Z</time>
      </trkpt>
      <trkpt lat="31.171812666580081" lon="-5.520404493436217">
        <ele>1777.6099999999999</ele>
        <time>2019-03-12T15:26:53Z</time>
      </trkpt>
      <trkpt lat="31.171870669350028" lon="-5.520362332463265">
        <ele>1778.0999999999999</ele>
        <time>2019-03-12T15:26:54Z</time>
      </trkpt>
      <trkpt lat="31.171924397349358" lon="-5.520310867577791">
        <ele>1779.0599999999999</ele>
        <time>2019-03-12T15:26:55Z</time>
      </trkpt>
      <trkpt lat="31.171969827264547" lon="-5.5202516913414">
        <ele>1779.54</ele>
        <time>2019-03-12T15:26:56Z</time>
      </trkpt>
      <trkpt lat="31.172009473666549" lon="-5.52019159309566">
        <ele>1780.5</ele>
        <time>2019-03-12T15:26:57Z</time>
      </trkpt>
      <trkpt lat="31.172039397060871" lon="-5.520131075754762">
        <ele>1781.46</ele>
        <time>2019-03-12T15:26:58Z</time>
      </trkpt>
      <trkpt lat="31.172063536942005" lon="-5.520068630576134">
        <ele>1781.9400000000001</ele>
        <time>2019-03-12T15:26:59Z</time>
      </trkpt>
      <trkpt lat="31.172082312405109" lon="-5.520001575350761">
        <ele>1791.55</ele>
        <time>2019-03-12T15:27:00Z</time>
      </trkpt>
      <trkpt lat="31.172097651287913" lon="-5.519929910078645">
        <ele>1793.96</ele>
        <time>2019-03-12T15:27:02Z</time>
      </trkpt>
      <trkpt lat="31.17211801931262" lon="-5.519779622554779">
        <ele>1794.9200000000001</ele>
        <time>2019-03-12T15:27:03Z</time>
      </trkpt>
      <trkpt lat="31.172115840017796" lon="-5.519698401913047">
        <ele>1795.8800000000001</ele>
        <time>2019-03-12T15:27:04Z</time>
      </trkpt>
      <trkpt lat="31.17210578173399" lon="-5.519615923985839">
        <ele>1806.9400000000001</ele>
        <time>2019-03-12T15:27:17Z</time>
      </trkpt>
      <trkpt lat="31.171870585530996" lon="-5.51856491714716">
        <ele>1808.8599999999999</ele>
        <time>2019-03-12T15:27:20Z</time>
      </trkpt>
      <trkpt lat="31.171847116202116" lon="-5.518323266878724">
        <ele>1819.4300000000001</ele>
        <time>2019-03-12T15:27:21Z</time>
      </trkpt>
      <trkpt lat="31.171847283840179" lon="-5.518239447847009">
        <ele>1821.3499999999999</ele>
        <time>2019-03-12T15:27:22Z</time>
      </trkpt>
      <trkpt lat="31.171852396801114" lon="-5.518154371529818">
        <ele>1822.3199999999999</ele>
        <time>2019-03-12T15:27:36Z</time>
      </trkpt>
      <trkpt lat="31.172030428424478" lon="-5.516993729397655">
        <ele>1822.8</ele>
        <time>2019-03-12T15:27:38Z</time>
      </trkpt>
      <trkpt lat="31.172028249129653" lon="-5.516824247315526">
        <ele>1823.76</ele>
        <time>2019-03-12T15:27:52Z</time>
      </trkpt>
      <trkpt lat="31.171971000730991" lon="-5.515636699274182">
        <ele>1824.24</ele>
        <time>2019-03-12T15:27:54Z</time>
      </trkpt>
      <trkpt lat="31.171949962154031" lon="-5.515470067039132">
        <ele>1828.0799999999999</ele>
        <time>2019-03-12T15:27:55Z</time>
      </trkpt>
      <trkpt lat="31.171925403177738" lon="-5.51539178006351">
        <ele>1827.5999999999999</ele>
        <time>2019-03-12T15:27:56Z</time>
      </trkpt>
      <trkpt lat="31.171890031546354" lon="-5.515321036800742">
        <ele>1827.1199999999999</ele>
        <time>2019-03-12T15:27:57Z</time>
      </trkpt>
      <trkpt lat="31.171852229163051" lon="-5.51525641232729">
        <ele>1827.1199999999999</ele>
        <time>2019-03-12T15:27:58Z</time>
      </trkpt>
      <trkpt lat="31.17181459441781" lon="-5.515196733176708">
        <ele>1826.6400000000001</ele>
        <time>2019-03-12T15:28:04Z</time>
      </trkpt>
      <trkpt lat="31.171605130657554" lon="-5.514831868931651">
        <ele>1826.1600000000001</ele>
        <time>2019-03-12T15:28:15Z</time>
      </trkpt>
      <trkpt lat="31.171209756284952" lon="-5.51416676491499">
        <ele>1820.3900000000001</ele>
        <time>2019-03-12T15:28:16Z</time>
      </trkpt>
      <trkpt lat="31.171153681352735" lon="-5.514092249795795">
        <ele>1819.9100000000001</ele>
        <time>2019-03-12T15:28:17Z</time>
      </trkpt>
      <trkpt lat="31.171093499287963" lon="-5.514024440199137">
        <ele>1819.9100000000001</ele>
        <time>2019-03-12T15:28:20Z</time>
      </trkpt>
      <trkpt lat="31.170916222035885" lon="-5.51381254568696">
        <ele>1818.95</ele>
        <time>2019-03-12T15:28:21Z</time>
      </trkpt>
      <trkpt lat="31.170871211215854" lon="-5.513725457713008">
        <ele>1818.95</ele>
        <time>2019-03-12T15:28:33Z</time>
      </trkpt>
      <trkpt lat="31.170317586511374" lon="-5.512502286583185">
        <ele>1817.51</ele>
        <time>2019-03-12T15:28:34Z</time>
      </trkpt>
      <trkpt lat="31.170286992564797" lon="-5.512399943545461">
        <ele>1812.7</ele>
        <time>2019-03-12T15:28:35Z</time>
      </trkpt>
      <trkpt lat="31.170264193788171" lon="-5.512295421212912">
        <ele>1811.26</ele>
        <time>2019-03-12T15:28:38Z</time>
      </trkpt>
      <trkpt lat="31.170211555436254" lon="-5.512016387656331">
        <ele>1811.74</ele>
        <time>2019-03-12T15:28:39Z</time>
      </trkpt>
      <trkpt lat="31.170184481889009" lon="-5.511927036568523">
        <ele>1811.26</ele>
        <time>2019-03-12T15:28:45Z</time>
      </trkpt>
      <trkpt lat="31.170043582096696" lon="-5.511394115164876">
        <ele>1810.3</ele>
        <time>2019-03-12T15:28:55Z</time>
      </trkpt>
      <trkpt lat="31.169815929606557" lon="-5.510437907651067">
        <ele>1810.78</ele>
        <time>2019-03-12T15:29:04Z</time>
      </trkpt>
      <trkpt lat="31.169481240212917" lon="-5.509708430618048">
        <ele>1810.78</ele>
        <time>2019-03-12T15:29:11Z</time>
      </trkpt>
      <trkpt lat="31.169464560225606" lon="-5.509671214967966">
        <ele>1811.26</ele>
        <time>2019-03-12T15:29:53Z</time>
      </trkpt>
      <trkpt lat="31.169472690671682" lon="-5.509675489738584">
        <ele>1810.78</ele>
        <time>2019-03-12T15:30:26Z</time>
      </trkpt>
      <trkpt lat="31.169473780319095" lon="-5.509684290736914">
        <ele>1808.8599999999999</ele>
        <time>2019-03-12T15:31:05Z</time>
      </trkpt>
      <trkpt lat="31.169468834996223" lon="-5.50968311727047">
        <ele>1806.9400000000001</ele>
        <time>2019-03-12T15:31:36Z</time>
      </trkpt>
      <trkpt lat="31.169473780319095" lon="-5.50968118943274">
        <ele>1804.05</ele>
        <time>2019-03-12T15:31:51Z</time>
      </trkpt>
      <trkpt lat="31.169376131147146" lon="-5.509493183344603">
        <ele>1802.1300000000001</ele>
        <time>2019-03-12T15:31:57Z</time>
      </trkpt>
      <trkpt lat="31.169200027361512" lon="-5.509130749851465">
        <ele>1799.73</ele>
        <time>2019-03-12T15:32:06Z</time>
      </trkpt>
      <trkpt lat="31.169169936329126" lon="-5.508346622809768">
        <ele>1798.28</ele>
        <time>2019-03-12T15:32:18Z</time>
      </trkpt>
      <trkpt lat="31.169298849999905" lon="-5.507381530478597">
        <ele>1798.28</ele>
        <time>2019-03-12T15:32:29Z</time>
      </trkpt>
      <trkpt lat="31.169522730633616" lon="-5.506329853087664">
        <ele>1797.3199999999999</ele>
        <time>2019-03-12T15:32:33Z</time>
      </trkpt>
      <trkpt lat="31.169645274057984" lon="-5.505977477878332">
        <ele>1796.3599999999999</ele>
        <time>2019-03-12T15:32:46Z</time>
      </trkpt>
      <trkpt lat="31.169854570180178" lon="-5.504708122462034">
        <ele>1797.3199999999999</ele>
        <time>2019-03-12T15:32:49Z</time>
      </trkpt>
      <trkpt lat="31.169921373948455" lon="-5.504448870196939">
        <ele>1796.3599999999999</ele>
        <time>2019-03-12T15:32:55Z</time>
      </trkpt>
      <trkpt lat="31.170010892674327" lon="-5.503941597416997">
        <ele>1794.9200000000001</ele>
        <time>2019-03-12T15:32:59Z</time>
      </trkpt>
      <trkpt lat="31.170131508260965" lon="-5.503613445907831">
        <ele>1792.52</ele>
        <time>2019-03-12T15:33:03Z</time>
      </trkpt>
      <trkpt lat="31.170163610950112" lon="-5.503280097618699">
        <ele>1791.55</ele>
        <time>2019-03-12T15:33:13Z</time>
      </trkpt>
      <trkpt lat="31.170180961489677" lon="-5.502374852076173">
        <ele>1790.1099999999999</ele>
        <time>2019-03-12T15:33:20Z</time>
      </trkpt>
      <trkpt lat="31.170208537951112" lon="-5.501935053616762">
        <ele>1786.75</ele>
        <time>2019-03-12T15:33:24Z</time>
      </trkpt>
      <trkpt lat="31.170183140784502" lon="-5.501722237095237">
        <ele>1786.75</ele>
        <time>2019-03-12T15:33:29Z</time>
      </trkpt>
      <trkpt lat="31.170107200741768" lon="-5.501419398933649">
        <ele>1785.3099999999999</ele>
        <time>2019-03-12T15:33:32Z</time>
      </trkpt>
      <trkpt lat="31.170055065304041" lon="-5.50125427544117">
        <ele>1782.9000000000001</ele>
        <time>2019-03-12T15:33:37Z</time>
      </trkpt>
      <trkpt lat="31.169929169118404" lon="-5.501105496659875">
        <ele>1780.02</ele>
        <time>2019-03-12T15:33:47Z</time>
      </trkpt>
      <trkpt lat="31.169656673446298" lon="-5.500676846131682">
        <ele>1776.6500000000001</ele>
        <time>2019-03-12T15:33:49Z</time>
      </trkpt>
      <trkpt lat="31.169696990400553" lon="-5.500548016279936">
        <ele>1775.6900000000001</ele>
        <time>2019-03-12T15:33:57Z</time>
      </trkpt>
      <trkpt lat="31.169908801093698" lon="-5.500171585008502">
        <ele>1774.25</ele>
        <time>2019-03-12T15:34:01Z</time>
      </trkpt>
      <trkpt lat="31.170135196298361" lon="-5.500133112072945">
        <ele>1773.29</ele>
        <time>2019-03-12T15:34:11Z</time>
      </trkpt>
      <trkpt lat="31.170499222353101" lon="-5.499925492331386">
        <ele>1772.3299999999999</ele>
        <time>2019-03-12T15:34:21Z</time>
      </trkpt>
      <trkpt lat="31.170503413304687" lon="-5.499439425766468">
        <ele>1771.3699999999999</ele>
        <time>2019-03-12T15:34:24Z</time>
      </trkpt>
      <trkpt lat="31.170494947582483" lon="-5.499267177656293">
        <ele>1768.48</ele>
        <time>2019-03-12T15:34:27Z</time>
      </trkpt>
      <trkpt lat="31.170489750802517" lon="-5.499102808535099">
        <ele>1767.04</ele>
        <time>2019-03-12T15:34:33Z</time>
      </trkpt>
      <trkpt lat="31.170368045568466" lon="-5.49877792596817">
        <ele>1766.0799999999999</ele>
        <time>2019-03-12T15:34:37Z</time>
      </trkpt>
      <trkpt lat="31.170304762199521" lon="-5.498511465266347">
        <ele>1765.1199999999999</ele>
        <time>2019-03-12T15:34:42Z</time>
      </trkpt>
      <trkpt lat="31.170226559042931" lon="-5.498116174712777">
        <ele>1764.1600000000001</ele>
        <time>2019-03-12T15:34:50Z</time>
      </trkpt>
      <trkpt lat="31.170335775241256" lon="-5.497547630220652">
        <ele>1763.6800000000001</ele>
        <time>2019-03-12T15:34:52Z</time>
      </trkpt>
      <trkpt lat="31.170311216264963" lon="-5.49741268157959">
        <ele>1761.75</ele>
        <time>2019-03-12T15:34:54Z</time>
      </trkpt>
      <trkpt lat="31.170260170474648" lon="-5.497284019365907">
        <ele>1761.27</ele>
        <time>2019-03-12T15:34:57Z</time>
      </trkpt>
      <trkpt lat="31.170216416940093" lon="-5.497068017721176">
        <ele>1755.99</ele>
        <time>2019-03-12T15:35:01Z</time>
      </trkpt>
      <trkpt lat="31.170082055032253" lon="-5.496941367164254">
        <ele>1751.1800000000001</ele>
        <time>2019-03-12T15:35:04Z</time>
      </trkpt>
      <trkpt lat="31.169952973723412" lon="-5.49689719453454">
        <ele>1746.8499999999999</ele>
        <time>2019-03-12T15:35:08Z</time>
      </trkpt>
      <trkpt lat="31.169817941263318" lon="-5.496767610311508">
        <ele>1743.49</ele>
        <time>2019-03-12T15:35:13Z</time>
      </trkpt>
      <trkpt lat="31.169697577133775" lon="-5.496479775756598">
        <ele>1742.53</ele>
        <time>2019-03-12T15:35:20Z</time>
      </trkpt>
      <trkpt lat="31.169574614614248" lon="-5.495927492156625">
        <ele>1740.1199999999999</ele>
        <time>2019-03-12T15:35:27Z</time>
      </trkpt>
      <trkpt lat="31.169209750369191" lon="-5.495414938777685">
        <ele>1738.6800000000001</ele>
        <time>2019-03-12T15:35:34Z</time>
      </trkpt>
      <trkpt lat="31.168960137292743" lon="-5.49492753110826">
        <ele>1739.1600000000001</ele>
        <time>2019-03-12T15:35:41Z</time>
      </trkpt>
      <trkpt lat="31.168959550559521" lon="-5.494522769004107">
        <ele>1738.2</ele>
        <time>2019-03-12T15:35:42Z</time>
      </trkpt>
      <trkpt lat="31.16900104098022" lon="-5.494485385715962">
        <ele>1737.24</ele>
        <time>2019-03-12T15:35:46Z</time>
      </trkpt>
      <trkpt lat="31.169147891923785" lon="-5.494357896968722">
        <ele>1734.8399999999999</ele>
        <time>2019-03-12T15:35:50Z</time>
      </trkpt>
      <trkpt lat="31.169143784791231" lon="-5.494159832596779">
        <ele>1735.3199999999999</ele>
        <time>2019-03-12T15:36:01Z</time>
      </trkpt>
      <trkpt lat="31.168941194191575" lon="-5.49317579716444">
        <ele>1736.76</ele>
        <time>2019-03-12T15:36:05Z</time>
      </trkpt>
      <trkpt lat="31.168775064870715" lon="-5.49290657043457">
        <ele>1733.3900000000001</ele>
        <time>2019-03-12T15:36:08Z</time>
      </trkpt>
      <trkpt lat="31.168614383786917" lon="-5.492786876857281">
        <ele>1731.95</ele>
        <time>2019-03-12T15:36:15Z</time>
      </trkpt>
      <trkpt lat="31.168544981628656" lon="-5.492364764213562">
        <ele>1731.47</ele>
        <time>2019-03-12T15:36:17Z</time>
      </trkpt>
      <trkpt lat="31.168632488697767" lon="-5.492312796413899">
        <ele>1729.0699999999999</ele>
        <time>2019-03-12T15:36:26Z</time>
      </trkpt>
      <trkpt lat="31.169057786464691" lon="-5.491832513362169">
        <ele>1725.22</ele>
        <time>2019-03-12T15:36:34Z</time>
      </trkpt>
      <trkpt lat="31.169262807816267" lon="-5.491406796500087">
        <ele>1722.3399999999999</ele>
        <time>2019-03-12T15:36:40Z</time>
      </trkpt>
      <trkpt lat="31.169314188882709" lon="-5.491132708266377">
        <ele>1716.0899999999999</ele>
        <time>2019-03-12T15:36:42Z</time>
      </trkpt>
      <trkpt lat="31.169389206916094" lon="-5.491044195368886">
        <ele>1714.1700000000001</ele>
        <time>2019-03-12T15:36:47Z</time>
      </trkpt>
      <trkpt lat="31.169521054252982" lon="-5.490825260058045">
        <ele>1710.8</ele>
        <time>2019-03-12T15:36:52Z</time>
      </trkpt>
      <trkpt lat="31.169555000960827" lon="-5.490564582869411">
        <ele>1709.3599999999999</ele>
        <time>2019-03-12T15:36:56Z</time>
      </trkpt>
      <trkpt lat="31.169557264074683" lon="-5.490339864045382">
        <ele>1707.4400000000001</ele>
        <time>2019-03-12T15:37:05Z</time>
      </trkpt>
      <trkpt lat="31.169452825561166" lon="-5.48982722684741">
        <ele>1706</ele>
        <time>2019-03-12T15:37:07Z</time>
      </trkpt>
      <trkpt lat="31.169419465586543" lon="-5.489729661494494">
        <ele>1705.52</ele>
        <time>2019-03-12T15:37:11Z</time>
      </trkpt>
      <trkpt lat="31.169343357905746" lon="-5.489425314590335">
        <ele>1709.3599999999999</ele>
        <time>2019-03-12T15:37:15Z</time>
      </trkpt>
      <trkpt lat="31.16921410895884" lon="-5.489129852503538">
        <ele>1710.3199999999999</ele>
        <time>2019-03-12T15:37:20Z</time>
      </trkpt>
      <trkpt lat="31.169090056791902" lon="-5.488793905824423">
        <ele>1710.3199999999999</ele>
        <time>2019-03-12T15:37:29Z</time>
      </trkpt>
      <trkpt lat="31.169207487255335" lon="-5.488041043281555">
        <ele>1710.8</ele>
        <time>2019-03-12T15:37:30Z</time>
      </trkpt>
      <trkpt lat="31.169230453670025" lon="-5.487962504848838">
        <ele>1709.8399999999999</ele>
        <time>2019-03-12T15:37:43Z</time>
      </trkpt>
      <trkpt lat="31.169812828302383" lon="-5.486984755843878">
        <ele>1708.8800000000001</ele>
        <time>2019-03-12T15:37:52Z</time>
      </trkpt>
      <trkpt lat="31.170544400811195" lon="-5.486475555226207">
        <ele>1706.96</ele>
        <time>2019-03-12T15:37:56Z</time>
      </trkpt>
      <trkpt lat="31.170841120183468" lon="-5.486310431733728">
        <ele>1706.96</ele>
        <time>2019-03-12T15:38:00Z</time>
      </trkpt>
      <trkpt lat="31.171167595311999" lon="-5.486148241907358">
        <ele>1709.8399999999999</ele>
        <time>2019-03-12T15:38:04Z</time>
      </trkpt>
      <trkpt lat="31.171471942216158" lon="-5.486095855012536">
        <ele>1708.8800000000001</ele>
        <time>2019-03-12T15:38:07Z</time>
      </trkpt>
      <trkpt lat="31.171679897233844" lon="-5.486122677102685">
        <ele>1707.9200000000001</ele>
        <time>2019-03-12T15:38:15Z</time>
      </trkpt>
      <trkpt lat="31.171906292438507" lon="-5.485761668533087">
        <ele>1708.4000000000001</ele>
        <time>2019-03-12T15:38:17Z</time>
      </trkpt>
      <trkpt lat="31.171887684613466" lon="-5.485612386837602">
        <ele>1703.5899999999999</ele>
        <time>2019-03-12T15:38:23Z</time>
      </trkpt>
      <trkpt lat="31.172023555263877" lon="-5.485161440446973">
        <ele>1699.75</ele>
        <time>2019-03-12T15:38:27Z</time>
      </trkpt>
      <trkpt lat="31.172180213034153" lon="-5.484901266172528">
        <ele>1696.8599999999999</ele>
        <time>2019-03-12T15:38:32Z</time>
      </trkpt>
      <trkpt lat="31.172138890251517" lon="-5.484671769663692">
        <ele>1696.8599999999999</ele>
        <time>2019-03-12T15:38:34Z</time>
      </trkpt>
      <trkpt lat="31.172059262171388" lon="-5.484653078019619">
        <ele>1696.3800000000001</ele>
        <time>2019-03-12T15:38:43Z</time>
      </trkpt>
      <trkpt lat="31.171744773164392" lon="-5.484211184084415">
        <ele>1694.46</ele>
        <time>2019-03-12T15:38:50Z</time>
      </trkpt>
      <trkpt lat="31.171706216409802" lon="-5.483742300421">
        <ele>1692.54</ele>
        <time>2019-03-12T15:38:57Z</time>
      </trkpt>
      <trkpt lat="31.171841584146023" lon="-5.483264196664095">
        <ele>1690.6199999999999</ele>
        <time>2019-03-12T15:39:05Z</time>
      </trkpt>
      <trkpt lat="31.171829933300614" lon="-5.482678720727563">
        <ele>1688.6900000000001</ele>
        <time>2019-03-12T15:39:08Z</time>
      </trkpt>
      <trkpt lat="31.171848541125655" lon="-5.482449559494853">
        <ele>1688.21</ele>
        <time>2019-03-12T15:39:12Z</time>
      </trkpt>
      <trkpt lat="31.171914171427488" lon="-5.482195001095533">
        <ele>1685.8099999999999</ele>
        <time>2019-03-12T15:39:19Z</time>
      </trkpt>
      <trkpt lat="31.172046018764377" lon="-5.481982016935945">
        <ele>1685.3299999999999</ele>
        <time>2019-03-12T15:39:30Z</time>
      </trkpt>
      <trkpt lat="31.172131346538663" lon="-5.481911860406399">
        <ele>1683.4100000000001</ele>
        <time>2019-03-12T15:39:58Z</time>
      </trkpt>
      <trkpt lat="31.172129167243838" lon="-5.481918063014746">
        <ele>1681</ele>
        <time>2019-03-12T15:40:04Z</time>
      </trkpt>
      <trkpt lat="31.172178788110614" lon="-5.481877159327269">
        <ele>1677.1600000000001</ele>
        <time>2019-03-12T15:40:13Z</time>
      </trkpt>
      <trkpt lat="31.172283561900258" lon="-5.481707425788045">
        <ele>1677.6400000000001</ele>
        <time>2019-03-12T15:40:15Z</time>
      </trkpt>
      <trkpt lat="31.172308707609773" lon="-5.481647746637464">
        <ele>1675.23</ele>
        <time>2019-03-12T15:40:21Z</time>
      </trkpt>
      <trkpt lat="31.172443069517612" lon="-5.481410790234804">
        <ele>1672.8299999999999</ele>
        <time>2019-03-12T15:40:27Z</time>
      </trkpt>
      <trkpt lat="31.172498054802418" lon="-5.481127901002765">
        <ele>1673.79</ele>
        <time>2019-03-12T15:40:32Z</time>
      </trkpt>
      <trkpt lat="31.172475591301918" lon="-5.480743171647191">
        <ele>1676.2</ele>
        <time>2019-03-12T15:40:44Z</time>
      </trkpt>
      <trkpt lat="31.17224601097405" lon="-5.479791490361095">
        <ele>1677.6400000000001</ele>
        <time>2019-03-12T15:40:53Z</time>
      </trkpt>
      <trkpt lat="31.172267971560359" lon="-5.47900652512908">
        <ele>1681</ele>
        <time>2019-03-12T15:41:00Z</time>
      </trkpt>
      <trkpt lat="31.172424461692572" lon="-5.478378217667341">
        <ele>1685.8099999999999</ele>
        <time>2019-03-12T15:41:07Z</time>
      </trkpt>
      <trkpt lat="31.172697208821774" lon="-5.477715125307441">
        <ele>1686.77</ele>
        <time>2019-03-12T15:41:12Z</time>
      </trkpt>
      <trkpt lat="31.172973308712244" lon="-5.477436259388924">
        <ele>1688.6900000000001</ele>
        <time>2019-03-12T15:41:14Z</time>
      </trkpt>
      <trkpt lat="31.173098869621754" lon="-5.4773407895118">
        <ele>1686.77</ele>
        <time>2019-03-12T15:41:18Z</time>
      </trkpt>
      <trkpt lat="31.173375137150288" lon="-5.477256635203958">
        <ele>1685.3299999999999</ele>
        <time>2019-03-12T15:41:25Z</time>
      </trkpt>
      <trkpt lat="31.173801524564624" lon="-5.47747858799994">
        <ele>1681</ele>
        <time>2019-03-12T15:41:28Z</time>
      </trkpt>
      <trkpt lat="31.173906801268458" lon="-5.477675143629313">
        <ele>1678.5999999999999</ele>
        <time>2019-03-12T15:41:39Z</time>
      </trkpt>
      <trkpt lat="31.174314999952912" lon="-5.478535462170839">
        <ele>1676.2</ele>
        <time>2019-03-12T15:41:45Z</time>
      </trkpt>
      <trkpt lat="31.174545167014003" lon="-5.478964950889349">
        <ele>1675.23</ele>
        <time>2019-03-12T15:41:47Z</time>
      </trkpt>
      <trkpt lat="31.174621945247054" lon="-5.479070227593184">
        <ele>1672.3499999999999</ele>
        <time>2019-03-12T15:41:53Z</time>
      </trkpt>
      <trkpt lat="31.17486703209579" lon="-5.479018511250615">
        <ele>1668.51</ele>
        <time>2019-03-12T15:41:55Z</time>
      </trkpt>
      <trkpt lat="31.174933835864067" lon="-5.478890100494027">
        <ele>1668.02</ele>
        <time>2019-03-12T15:41:57Z</time>
      </trkpt>
      <trkpt lat="31.175013715401292" lon="-5.478776609525085">
        <ele>1667.54</ele>
        <time>2019-03-12T15:41:59Z</time>
      </trkpt>
      <trkpt lat="31.175079345703125" lon="-5.478675523772836">
        <ele>1667.54</ele>
        <time>2019-03-12T15:42:06Z</time>
      </trkpt>
      <trkpt lat="31.175437504425645" lon="-5.478384168818593">
        <ele>1665.6199999999999</ele>
        <time>2019-03-12T15:42:15Z</time>
      </trkpt>
      <trkpt lat="31.175855174660683" lon="-5.478114858269692">
        <ele>1664.1800000000001</ele>
        <time>2019-03-12T15:42:18Z</time>
      </trkpt>
      <trkpt lat="31.175891468301415" lon="-5.477955266833305">
        <ele>1661.78</ele>
        <time>2019-03-12T15:42:20Z</time>
      </trkpt>
      <trkpt lat="31.175905549898744" lon="-5.477823922410607">
        <ele>1657.45</ele>
        <time>2019-03-12T15:42:22Z</time>
      </trkpt>
      <trkpt lat="31.175914015620947" lon="-5.477679837495089">
        <ele>1653.1199999999999</ele>
        <time>2019-03-12T15:42:26Z</time>
      </trkpt>
      <trkpt lat="31.176003450527787" lon="-5.477389991283417">
        <ele>1650.72</ele>
        <time>2019-03-12T15:42:28Z</time>
      </trkpt>
      <trkpt lat="31.176071595400572" lon="-5.477259065955877">
        <ele>1647.3599999999999</ele>
        <time>2019-03-12T15:42:33Z</time>
      </trkpt>
      <trkpt lat="31.176018035039306" lon="-5.476945415139198">
        <ele>1644.47</ele>
        <time>2019-03-12T15:42:46Z</time>
      </trkpt>
      <trkpt lat="31.175676723942161" lon="-5.476231947541237">
        <ele>1641.5899999999999</ele>
        <time>2019-03-12T15:42:56Z</time>
      </trkpt>
      <trkpt lat="31.175398025661707" lon="-5.475658541545272">
        <ele>1642.0699999999999</ele>
        <time>2019-03-12T15:42:59Z</time>
      </trkpt>
      <trkpt lat="31.175366761162877" lon="-5.475426195189357">
        <ele>1641.1099999999999</ele>
        <time>2019-03-12T15:43:06Z</time>
      </trkpt>
      <trkpt lat="31.175244469195604" lon="-5.474955635145307">
        <ele>1635.3399999999999</ele>
        <time>2019-03-12T15:43:11Z</time>
      </trkpt>
      <trkpt lat="31.17520616389811" lon="-5.474534276872873">
        <ele>1631.01</ele>
        <time>2019-03-12T15:43:18Z</time>
      </trkpt>
      <trkpt lat="31.175173977389932" lon="-5.473832292482257">
        <ele>1630.53</ele>
        <time>2019-03-12T15:43:21Z</time>
      </trkpt>
      <trkpt lat="31.175066605210304" lon="-5.473592486232519">
        <ele>1630.05</ele>
        <time>2019-03-12T15:43:29Z</time>
      </trkpt>
      <trkpt lat="31.175073143094778" lon="-5.47289184294641">
        <ele>1628.6099999999999</ele>
        <time>2019-03-12T15:43:40Z</time>
      </trkpt>
      <trkpt lat="31.17518856190145" lon="-5.471817869693041">
        <ele>1627.1700000000001</ele>
        <time>2019-03-12T15:43:50Z</time>
      </trkpt>
      <trkpt lat="31.175065850839019" lon="-5.470737442374229">
        <ele>1623.8</ele>
        <time>2019-03-12T15:43:53Z</time>
      </trkpt>
      <trkpt lat="31.174993515014648" lon="-5.470427228137851">
        <ele>1621.4000000000001</ele>
        <time>2019-03-12T15:43:57Z</time>
      </trkpt>
      <trkpt lat="31.175003740936518" lon="-5.470015425235033">
        <ele>1623.8</ele>
        <time>2019-03-12T15:43:59Z</time>
      </trkpt>
      <trkpt lat="31.175055876374245" lon="-5.469801519066095">
        <ele>1625.73</ele>
        <time>2019-03-12T15:44:01Z</time>
      </trkpt>
      <trkpt lat="31.175127541646361" lon="-5.469602951779962">
        <ele>1627.1700000000001</ele>
        <time>2019-03-12T15:44:10Z</time>
      </trkpt>
      <trkpt lat="31.175295766443014" lon="-5.468663005158305">
        <ele>1627.6500000000001</ele>
        <time>2019-03-12T15:44:18Z</time>
      </trkpt>
      <trkpt lat="31.175392996519804" lon="-5.468063866719604">
        <ele>1626.21</ele>
        <time>2019-03-12T15:44:24Z</time>
      </trkpt>
      <trkpt lat="31.175233907997608" lon="-5.467683160677552">
        <ele>1625.25</ele>
        <time>2019-03-12T15:44:27Z</time>
      </trkpt>
      <trkpt lat="31.17521982640028" lon="-5.467453077435494">
        <ele>1624.28</ele>
        <time>2019-03-12T15:44:30Z</time>
      </trkpt>
      <trkpt lat="31.175173809751868" lon="-5.467204051092267">
        <ele>1625.25</ele>
        <time>2019-03-12T15:44:33Z</time>
      </trkpt>
      <trkpt lat="31.175137683749199" lon="-5.466973716393113">
        <ele>1623.3199999999999</ele>
        <time>2019-03-12T15:44:38Z</time>
      </trkpt>
      <trkpt lat="31.175207924097776" lon="-5.466513382270932">
        <ele>1622.8399999999999</ele>
        <time>2019-03-12T15:44:42Z</time>
      </trkpt>
      <trkpt lat="31.175344716757536" lon="-5.46615170314908">
        <ele>1624.28</ele>
        <time>2019-03-12T15:44:46Z</time>
      </trkpt>
      <trkpt lat="31.175555773079395" lon="-5.465833777561784">
        <ele>1625.25</ele>
        <time>2019-03-12T15:44:51Z</time>
      </trkpt>
      <trkpt lat="31.175873028114438" lon="-5.465513085946441">
        <ele>1626.6900000000001</ele>
        <time>2019-03-12T15:44:56Z</time>
      </trkpt>
      <trkpt lat="31.176136136054993" lon="-5.46528534963727">
        <ele>1627.1700000000001</ele>
        <time>2019-03-12T15:45:05Z</time>
      </trkpt>
      <trkpt lat="31.176604181528091" lon="-5.464754607528448">
        <ele>1627.6500000000001</ele>
        <time>2019-03-12T15:45:07Z</time>
      </trkpt>
      <trkpt lat="31.1766641959548" lon="-5.46459493227303">
        <ele>1628.1300000000001</ele>
        <time>2019-03-12T15:45:08Z</time>
      </trkpt>
      <trkpt lat="31.176706524565816" lon="-5.464521758258343">
        <ele>1628.1300000000001</ele>
        <time>2019-03-12T15:45:10Z</time>
      </trkpt>
      <trkpt lat="31.176800904795527" lon="-5.46437113545835">
        <ele>1628.6099999999999</ele>
        <time>2019-03-12T15:45:11Z</time>
      </trkpt>
      <trkpt lat="31.176839042454958" lon="-5.464285556226969">
        <ele>1629.0899999999999</ele>
        <time>2019-03-12T15:45:12Z</time>
      </trkpt>
      <trkpt lat="31.17686552926898" lon="-5.464190002530813">
        <ele>1629.5699999999999</ele>
        <time>2019-03-12T15:45:13Z</time>
      </trkpt>
      <trkpt lat="31.17688505910337" lon="-5.464086402207613">
        <ele>1630.05</ele>
        <time>2019-03-12T15:45:14Z</time>
      </trkpt>
      <trkpt lat="31.176899559795856" lon="-5.463982047513127">
        <ele>1630.53</ele>
        <time>2019-03-12T15:45:16Z</time>
      </trkpt>
      <trkpt lat="31.176939122378826" lon="-5.463812649250031">
        <ele>1630.53</ele>
        <time>2019-03-12T15:45:17Z</time>
      </trkpt>
      <trkpt lat="31.176969297230244" lon="-5.463748192414641">
        <ele>1631.01</ele>
        <time>2019-03-12T15:45:18Z</time>
      </trkpt>
      <trkpt lat="31.176997879520059" lon="-5.463689854368568">
        <ele>1631.01</ele>
        <time>2019-03-12T15:45:19Z</time>
      </trkpt>
      <trkpt lat="31.177024869248271" lon="-5.46362891793251">
        <ele>1630.53</ele>
        <time>2019-03-12T15:45:20Z</time>
      </trkpt>
      <trkpt lat="31.177045740187168" lon="-5.463564712554216">
        <ele>1630.05</ele>
        <time>2019-03-12T15:45:21Z</time>
      </trkpt>
      <trkpt lat="31.177059905603528" lon="-5.463501010090113">
        <ele>1630.05</ele>
        <time>2019-03-12T15:45:22Z</time>
      </trkpt>
      <trkpt lat="31.177078932523727" lon="-5.463436301797628">
        <ele>1634.3800000000001</ele>
        <time>2019-03-12T15:45:24Z</time>
      </trkpt>
      <trkpt lat="31.177123608067632" lon="-5.463276039808989">
        <ele>1635.3399999999999</ele>
        <time>2019-03-12T15:45:25Z</time>
      </trkpt>
      <trkpt lat="31.177130229771137" lon="-5.463182749226689">
        <ele>1635.3399999999999</ele>
        <time>2019-03-12T15:45:26Z</time>
      </trkpt>
      <trkpt lat="31.17712302133441" lon="-5.463083172217012">
        <ele>1635.8199999999999</ele>
        <time>2019-03-12T15:45:33Z</time>
      </trkpt>
      <trkpt lat="31.176921268925071" lon="-5.46235310845077">
        <ele>1635.8199999999999</ele>
        <time>2019-03-12T15:45:38Z</time>
      </trkpt>
      <trkpt lat="31.176697723567486" lon="-5.461933929473162">
        <ele>1635.8199999999999</ele>
        <time>2019-03-12T15:45:39Z</time>
      </trkpt>
      <trkpt lat="31.176647515967488" lon="-5.461883805692196">
        <ele>1635.3399999999999</ele>
        <time>2019-03-12T15:45:40Z</time>
      </trkpt>
      <trkpt lat="31.176591776311398" lon="-5.461851535364986">
        <ele>1634.8599999999999</ele>
        <time>2019-03-12T15:45:41Z</time>
      </trkpt>
      <trkpt lat="31.17653620429337" lon="-5.461832424625754">
        <ele>1634.3800000000001</ele>
        <time>2019-03-12T15:45:42Z</time>
      </trkpt>
      <trkpt lat="31.176474597305059" lon="-5.461818175390363">
        <ele>1634.3800000000001</ele>
        <time>2019-03-12T15:45:43Z</time>
      </trkpt>
      <trkpt lat="31.176413241773844" lon="-5.461796717718244">
        <ele>1633.9000000000001</ele>
        <time>2019-03-12T15:45:44Z</time>
      </trkpt>
      <trkpt lat="31.17635733447969" lon="-5.461762016639113">
        <ele>1633.9000000000001</ele>
        <time>2019-03-12T15:45:45Z</time>
      </trkpt>
      <trkpt lat="31.176317604258657" lon="-5.46171055175364">
        <ele>1633.4200000000001</ele>
        <time>2019-03-12T15:45:46Z</time>
      </trkpt>
      <trkpt lat="31.176298325881362" lon="-5.461645927280188">
        <ele>1632.9400000000001</ele>
        <time>2019-03-12T15:45:47Z</time>
      </trkpt>
      <trkpt lat="31.176292458549142" lon="-5.461574010550976">
        <ele>1632.46</ele>
        <time>2019-03-12T15:45:48Z</time>
      </trkpt>
      <trkpt lat="31.176296398043633" lon="-5.461493460461497">
        <ele>1632.46</ele>
        <time>2019-03-12T15:45:49Z</time>
      </trkpt>
      <trkpt lat="31.176307881250978" lon="-5.461403355002403">
        <ele>1632.46</ele>
        <time>2019-03-12T15:45:50Z</time>
      </trkpt>
      <trkpt lat="31.17632414214313" lon="-5.461308220401406">
        <ele>1632.46</ele>
        <time>2019-03-12T15:45:51Z</time>
      </trkpt>
      <trkpt lat="31.176344510167837" lon="-5.461221802979708">
        <ele>1632.46</ele>
        <time>2019-03-12T15:45:52Z</time>
      </trkpt>
      <trkpt lat="31.176367644220591" lon="-5.461147287860513">
        <ele>1631.98</ele>
        <time>2019-03-12T15:45:53Z</time>
      </trkpt>
      <trkpt lat="31.176401674747467" lon="-5.461076376959682">
        <ele>1631.98</ele>
        <time>2019-03-12T15:45:54Z</time>
      </trkpt>
      <trkpt lat="31.176447439938784" lon="-5.461006471887231">
        <ele>1631.98</ele>
        <time>2019-03-12T15:45:55Z</time>
      </trkpt>
      <trkpt lat="31.176500832661986" lon="-5.460937740281224">
        <ele>1631.49</ele>
        <time>2019-03-12T15:45:56Z</time>
      </trkpt>
      <trkpt lat="31.176559673622251" lon="-5.460871104151011">
        <ele>1631.49</ele>
        <time>2019-03-12T15:45:57Z</time>
      </trkpt>
      <trkpt lat="31.17662220261991" lon="-5.460810586810112">
        <ele>1631.49</ele>
        <time>2019-03-12T15:45:58Z</time>
      </trkpt>
      <trkpt lat="31.17668523453176" lon="-5.460749985650182">
        <ele>1631.98</ele>
        <time>2019-03-12T15:45:59Z</time>
      </trkpt>
      <trkpt lat="31.176742566749454" lon="-5.460687205195427">
        <ele>1632.9400000000001</ele>
        <time>2019-03-12T15:46:00Z</time>
      </trkpt>
      <trkpt lat="31.176780955865979" lon="-5.460615875199437">
        <ele>1633.9000000000001</ele>
        <time>2019-03-12T15:46:01Z</time>
      </trkpt>
      <trkpt lat="31.176801407709718" lon="-5.460536582395434">
        <ele>1634.3800000000001</ele>
        <time>2019-03-12T15:46:02Z</time>
      </trkpt>
      <trkpt lat="31.176813645288348" lon="-5.460452008992434">
        <ele>1634.8599999999999</ele>
        <time>2019-03-12T15:46:03Z</time>
      </trkpt>
      <trkpt lat="31.176811382174492" lon="-5.460366178303957">
        <ele>1635.8199999999999</ele>
        <time>2019-03-12T15:46:04Z</time>
      </trkpt>
      <trkpt lat="31.176798893138766" lon="-5.46028034761548">
        <ele>1635.8199999999999</ele>
        <time>2019-03-12T15:46:05Z</time>
      </trkpt>
      <trkpt lat="31.176776513457298" lon="-5.460199294611812">
        <ele>1635.3399999999999</ele>
        <time>2019-03-12T15:46:06Z</time>
      </trkpt>
      <trkpt lat="31.176747595891356" lon="-5.460124863311648">
        <ele>1631.98</ele>
        <time>2019-03-12T15:46:07Z</time>
      </trkpt>
      <trkpt lat="31.176714571192861" lon="-5.460059065371752">
        <ele>1634.3800000000001</ele>
        <time>2019-03-12T15:46:08Z</time>
      </trkpt>
      <trkpt lat="31.176683893427253" lon="-5.460000559687614">
        <ele>1636.78</ele>
        <time>2019-03-12T15:46:09Z</time>
      </trkpt>
      <trkpt lat="31.176657406613231" lon="-5.459947334602475">
        <ele>1638.22</ele>
        <time>2019-03-12T15:46:10Z</time>
      </trkpt>
      <trkpt lat="31.176637709140778" lon="-5.459889248013496">
        <ele>1638.7</ele>
        <time>2019-03-12T15:46:19Z</time>
      </trkpt>
      <trkpt lat="31.176450876519084" lon="-5.459180390462279">
        <ele>1647.8399999999999</ele>
        <time>2019-03-12T15:46:25Z</time>
      </trkpt>
      <trkpt lat="31.176413912326097" lon="-5.458703460171819">
        <ele>1649.28</ele>
        <time>2019-03-12T15:46:36Z</time>
      </trkpt>
      <trkpt lat="31.176476944237947" lon="-5.457691345363855">
        <ele>1650.24</ele>
        <time>2019-03-12T15:46:38Z</time>
      </trkpt>
      <trkpt lat="31.176474010571837" lon="-5.457505267113447">
        <ele>1650.72</ele>
        <time>2019-03-12T15:46:39Z</time>
      </trkpt>
      <trkpt lat="31.176464455202222" lon="-5.457414323464036">
        <ele>1651.6800000000001</ele>
        <time>2019-03-12T15:46:51Z</time>
      </trkpt>
      <trkpt lat="31.176192965358496" lon="-5.456508658826351">
        <ele>1652.1600000000001</ele>
        <time>2019-03-12T15:46:53Z</time>
      </trkpt>
      <trkpt lat="31.176128089427948" lon="-5.456347474828363">
        <ele>1652.6400000000001</ele>
        <time>2019-03-12T15:46:54Z</time>
      </trkpt>
      <trkpt lat="31.176106631755829" lon="-5.456256279721856">
        <ele>1652.1600000000001</ele>
        <time>2019-03-12T15:46:55Z</time>
      </trkpt>
      <trkpt lat="31.176092214882374" lon="-5.456161731854081">
        <ele>1652.1600000000001</ele>
        <time>2019-03-12T15:46:56Z</time>
      </trkpt>
      <trkpt lat="31.176084419712424" lon="-5.456073135137558">
        <ele>1651.6800000000001</ele>
        <time>2019-03-12T15:46:57Z</time>
      </trkpt>
      <trkpt lat="31.176082156598568" lon="-5.455996859818697">
        <ele>1651.2</ele>
        <time>2019-03-12T15:46:58Z</time>
      </trkpt>
      <trkpt lat="31.176084168255329" lon="-5.455926451832056">
        <ele>1650.72</ele>
        <time>2019-03-12T15:46:59Z</time>
      </trkpt>
      <trkpt lat="31.176092633977532" lon="-5.455850930884481">
        <ele>1650.24</ele>
        <time>2019-03-12T15:47:00Z</time>
      </trkpt>
      <trkpt lat="31.176110906526446" lon="-5.455770716071129">
        <ele>1650.24</ele>
        <time>2019-03-12T15:47:01Z</time>
      </trkpt>
      <trkpt lat="31.17613697424531" lon="-5.455690752714872">
        <ele>1649.76</ele>
        <time>2019-03-12T15:47:02Z</time>
      </trkpt>
      <trkpt lat="31.176170418038964" lon="-5.455610789358616">
        <ele>1649.76</ele>
        <time>2019-03-12T15:47:03Z</time>
      </trkpt>
      <trkpt lat="31.176213584840298" lon="-5.455527389422059">
        <ele>1649.76</ele>
        <time>2019-03-12T15:47:04Z</time>
      </trkpt>
      <trkpt lat="31.176256500184536" lon="-5.455441391095519">
        <ele>1649.76</ele>
        <time>2019-03-12T15:47:05Z</time>
      </trkpt>
      <trkpt lat="31.17628650739789" lon="-5.455351704731584">
        <ele>1649.76</ele>
        <time>2019-03-12T15:47:06Z</time>
      </trkpt>
      <trkpt lat="31.176291452720761" lon="-5.45526260510087">
        <ele>1649.76</ele>
        <time>2019-03-12T15:47:07Z</time>
      </trkpt>
      <trkpt lat="31.176271503791213" lon="-5.455180546268821">
        <ele>1649.76</ele>
        <time>2019-03-12T15:47:08Z</time>
      </trkpt>
      <trkpt lat="31.176240155473351" lon="-5.455101924017072">
        <ele>1650.24</ele>
        <time>2019-03-12T15:47:09Z</time>
      </trkpt>
      <trkpt lat="31.176216686144471" lon="-5.455017602071166">
        <ele>1650.72</ele>
        <time>2019-03-12T15:47:10Z</time>
      </trkpt>
      <trkpt lat="31.17619120515883" lon="-5.454930597916246">
        <ele>1651.2</ele>
        <time>2019-03-12T15:47:11Z</time>
      </trkpt>
      <trkpt lat="31.176153067499399" lon="-5.454846527427435">
        <ele>1651.2</ele>
        <time>2019-03-12T15:47:12Z</time>
      </trkpt>
      <trkpt lat="31.176107134670019" lon="-5.454777628183365">
        <ele>1651.6800000000001</ele>
        <time>2019-03-12T15:47:13Z</time>
      </trkpt>
      <trkpt lat="31.176061537116766" lon="-5.454725325107575">
        <ele>1652.1600000000001</ele>
        <time>2019-03-12T15:47:14Z</time>
      </trkpt>
      <trkpt lat="31.176015688106418" lon="-5.454687606543303">
        <ele>1652.6400000000001</ele>
        <time>2019-03-12T15:47:15Z</time>
      </trkpt>
      <trkpt lat="31.175960954278708" lon="-5.454669082537293">
        <ele>1652.6400000000001</ele>
        <time>2019-03-12T15:47:16Z</time>
      </trkpt>
      <trkpt lat="31.175900353118777" lon="-5.454673273488879">
        <ele>1653.1199999999999</ele>
        <time>2019-03-12T15:47:17Z</time>
      </trkpt>
      <trkpt lat="31.175850061699748" lon="-5.454703951254487">
        <ele>1657.9300000000001</ele>
        <time>2019-03-12T15:47:18Z</time>
      </trkpt>
      <trkpt lat="31.175811588764191" lon="-5.454750051721931">
        <ele>1659.8499999999999</ele>
        <time>2019-03-12T15:47:19Z</time>
      </trkpt>
      <trkpt lat="31.175775798037648" lon="-5.454802354797721">
        <ele>1660.3299999999999</ele>
        <time>2019-03-12T15:47:20Z</time>
      </trkpt>
      <trkpt lat="31.175737157464027" lon="-5.454858932644129">
        <ele>1660.8099999999999</ele>
        <time>2019-03-12T15:47:21Z</time>
      </trkpt>
      <trkpt lat="31.175691895186901" lon="-5.454915594309568">
        <ele>1661.3</ele>
        <time>2019-03-12T15:47:26Z</time>
      </trkpt>
      <trkpt lat="31.1754484847188" lon="-5.455206027254462">
        <ele>1661.78</ele>
        <time>2019-03-12T15:47:29Z</time>
      </trkpt>
      <trkpt lat="31.175365503877401" lon="-5.455311639234424">
        <ele>1662.26</ele>
        <time>2019-03-12T15:47:30Z</time>
      </trkpt>
      <trkpt lat="31.175338178873062" lon="-5.455302754417062">
        <ele>1667.0599999999999</ele>
        <time>2019-03-12T15:47:31Z</time>
      </trkpt>
      <trkpt lat="31.175319822505116" lon="-5.455274591222405">
        <ele>1667.54</ele>
        <time>2019-03-12T15:47:32Z</time>
      </trkpt>
      <trkpt lat="31.17531705647707" lon="-5.455238465219736">
        <ele>1668.51</ele>
        <time>2019-03-12T15:47:33Z</time>
      </trkpt>
      <trkpt lat="31.175327030941844" lon="-5.455200159922242">
        <ele>1669.95</ele>
        <time>2019-03-12T15:47:34Z</time>
      </trkpt>
      <trkpt lat="31.175344884395599" lon="-5.455158837139607">
        <ele>1670.9100000000001</ele>
        <time>2019-03-12T15:47:41Z</time>
      </trkpt>
      <trkpt lat="31.175455860793591" lon="-5.454849041998386">
        <ele>1671.3900000000001</ele>
        <time>2019-03-12T15:47:45Z</time>
      </trkpt>
      <trkpt lat="31.175518725067377" lon="-5.454640332609415">
        <ele>1672.3499999999999</ele>
        <time>2019-03-12T15:47:48Z</time>
      </trkpt>
      <trkpt lat="31.175547726452351" lon="-5.454412512481213">
        <ele>1672.8299999999999</ele>
        <time>2019-03-12T15:47:51Z</time>
      </trkpt>
      <trkpt lat="31.175542697310448" lon="-5.454180166125298">
        <ele>1677.1600000000001</ele>
        <time>2019-03-12T15:47:52Z</time>
      </trkpt>
      <trkpt lat="31.175534902140498" lon="-5.454101460054517">
        <ele>1677.1600000000001</ele>
        <time>2019-03-12T15:47:53Z</time>
      </trkpt>
      <trkpt lat="31.175521910190582" lon="-5.45402585528791">
        <ele>1676.6800000000001</ele>
        <time>2019-03-12T15:47:54Z</time>
      </trkpt>
      <trkpt lat="31.175511181354523" lon="-5.453950250521302">
        <ele>1677.1600000000001</ele>
        <time>2019-03-12T15:47:55Z</time>
      </trkpt>
      <trkpt lat="31.175506236031651" lon="-5.453873304650188">
        <ele>1677.6400000000001</ele>
        <time>2019-03-12T15:48:01Z</time>
      </trkpt>
      <trkpt lat="31.175523418933153" lon="-5.453506512567401">
        <ele>1678.1199999999999</ele>
        <time>2019-03-12T15:48:02Z</time>
      </trkpt>
      <trkpt lat="31.175556108355522" lon="-5.453454377129674">
        <ele>1679.0799999999999</ele>
        <time>2019-03-12T15:48:03Z</time>
      </trkpt>
      <trkpt lat="31.175590138882399" lon="-5.453397044911981">
        <ele>1679.5599999999999</ele>
        <time>2019-03-12T15:48:04Z</time>
      </trkpt>
      <trkpt lat="31.175615536049008" lon="-5.453335605561733">
        <ele>1680.52</ele>
        <time>2019-03-12T15:48:05Z</time>
      </trkpt>
      <trkpt lat="31.1756297852844" lon="-5.453270226716995">
        <ele>1681</ele>
        <time>2019-03-12T15:48:06Z</time>
      </trkpt>
      <trkpt lat="31.175630623474717" lon="-5.453203590586782">
        <ele>1681.48</ele>
        <time>2019-03-12T15:48:07Z</time>
      </trkpt>
      <trkpt lat="31.175619391724467" lon="-5.453137205913663">
        <ele>1685.8099999999999</ele>
        <time>2019-03-12T15:48:08Z</time>
      </trkpt>
      <trkpt lat="31.175605142489076" lon="-5.453067049384117">
        <ele>1687.73</ele>
        <time>2019-03-12T15:48:09Z</time>
      </trkpt>
      <trkpt lat="31.175595419481397" lon="-5.452993037179112">
        <ele>1688.6900000000001</ele>
        <time>2019-03-12T15:48:10Z</time>
      </trkpt>
      <trkpt lat="31.175588797777891" lon="-5.452918354421854">
        <ele>1688.6900000000001</ele>
        <time>2019-03-12T15:48:11Z</time>
      </trkpt>
      <trkpt lat="31.175586618483067" lon="-5.452842162922025">
        <ele>1689.1700000000001</ele>
        <time>2019-03-12T15:48:19Z</time>
      </trkpt>
      <trkpt lat="31.175591731444001" lon="-5.452226176857948">
        <ele>1689.6500000000001</ele>
        <time>2019-03-12T15:48:22Z</time>
      </trkpt>
      <trkpt lat="31.175628527998924" lon="-5.451997434720397">
        <ele>1690.6199999999999</ele>
        <time>2019-03-12T15:48:24Z</time>
      </trkpt>
      <trkpt lat="31.175632048398256" lon="-5.451871706172824">
        <ele>1690.6199999999999</ele>
        <time>2019-03-12T15:48:25Z</time>
      </trkpt>
      <trkpt lat="31.17562199011445" lon="-5.451819654554129">
        <ele>1691.0999999999999</ele>
        <time>2019-03-12T15:48:26Z</time>
      </trkpt>
      <trkpt lat="31.1756004486233" lon="-5.451776571571827">
        <ele>1692.0599999999999</ele>
        <time>2019-03-12T15:48:27Z</time>
      </trkpt>
      <trkpt lat="31.17556675337255" lon="-5.451743546873331">
        <ele>1695.4200000000001</ele>
        <time>2019-03-12T15:48:28Z</time>
      </trkpt>
      <trkpt lat="31.175527358427644" lon="-5.451725190505385">
        <ele>1700.23</ele>
        <time>2019-03-12T15:48:29Z</time>
      </trkpt>
      <trkpt lat="31.175487879663706" lon="-5.451723514124751">
        <ele>1700.71</ele>
        <time>2019-03-12T15:48:30Z</time>
      </trkpt>
      <trkpt lat="31.1754553578794" lon="-5.451727537438273">
        <ele>1701.6700000000001</ele>
        <time>2019-03-12T15:48:31Z</time>
      </trkpt>
      <trkpt lat="31.175418980419636" lon="-5.451739355921745">
        <ele>1702.1500000000001</ele>
        <time>2019-03-12T15:48:38Z</time>
      </trkpt>
      <trkpt lat="31.175112370401621" lon="-5.451777325943112">
        <ele>1701.6700000000001</ele>
        <time>2019-03-12T15:48:48Z</time>
      </trkpt>
      <trkpt lat="31.17458020336926" lon="-5.451946891844273">
        <ele>1702.1500000000001</ele>
        <time>2019-03-12T15:48:49Z</time>
      </trkpt>
      <trkpt lat="31.174527481198311" lon="-5.451944209635258">
        <ele>1702.6300000000001</ele>
        <time>2019-03-12T15:48:50Z</time>
      </trkpt>
      <trkpt lat="31.174483895301819" lon="-5.451920405030251">
        <ele>1703.5899999999999</ele>
        <time>2019-03-12T15:48:51Z</time>
      </trkpt>
      <trkpt lat="31.174456821754575" lon="-5.451880088075995">
        <ele>1704.0699999999999</ele>
        <time>2019-03-12T15:48:52Z</time>
      </trkpt>
      <trkpt lat="31.174449110403657" lon="-5.451826695352793">
        <ele>1705.04</ele>
        <time>2019-03-12T15:48:53Z</time>
      </trkpt>
      <trkpt lat="31.1744624376297" lon="-5.451770285144448">
        <ele>1705.52</ele>
        <time>2019-03-12T15:48:54Z</time>
      </trkpt>
      <trkpt lat="31.174492193385959" lon="-5.451722759753466">
        <ele>1706.48</ele>
        <time>2019-03-12T15:48:55Z</time>
      </trkpt>
      <trkpt lat="31.174528989940882" lon="-5.451680766418576">
        <ele>1709.8399999999999</ele>
        <time>2019-03-12T15:48:56Z</time>
      </trkpt>
      <trkpt lat="31.174566876143217" lon="-5.451639108359814">
        <ele>1708.8800000000001</ele>
        <time>2019-03-12T15:48:57Z</time>
      </trkpt>
      <trkpt lat="31.174601409584284" lon="-5.451591750606895">
        <ele>1708.4000000000001</ele>
        <time>2019-03-12T15:48:58Z</time>
      </trkpt>
      <trkpt lat="31.174634518101811" lon="-5.451547997072339">
        <ele>1707.4400000000001</ele>
        <time>2019-03-12T15:48:59Z</time>
      </trkpt>
      <trkpt lat="31.174670560285449" lon="-5.451505081728101">
        <ele>1702.1500000000001</ele>
        <time>2019-03-12T15:49:09Z</time>
      </trkpt>
      <trkpt lat="31.175090577453375" lon="-5.450970735400915">
        <ele>1700.23</ele>
        <time>2019-03-12T15:49:13Z</time>
      </trkpt>
      <trkpt lat="31.175274811685085" lon="-5.450755823403597">
        <ele>1700.23</ele>
        <time>2019-03-12T15:49:14Z</time>
      </trkpt>
      <trkpt lat="31.175316805019975" lon="-5.450687678530812">
        <ele>1698.3099999999999</ele>
        <time>2019-03-12T15:49:16Z</time>
      </trkpt>
      <trkpt lat="31.175389979034662" lon="-5.450549041852355">
        <ele>1700.23</ele>
        <time>2019-03-12T15:49:24Z</time>
      </trkpt>
      <trkpt lat="31.17576515302062" lon="-5.449726693332195">
        <ele>1699.27</ele>
        <time>2019-03-12T15:49:34Z</time>
      </trkpt>
      <trkpt lat="31.175835058093071" lon="-5.448606619611383">
        <ele>1698.79</ele>
        <time>2019-03-12T15:49:35Z</time>
      </trkpt>
      <trkpt lat="31.175835225731134" lon="-5.448518274351955">
        <ele>1698.79</ele>
        <time>2019-03-12T15:49:46Z</time>
      </trkpt>
      <trkpt lat="31.175891552120447" lon="-5.447431476786733">
        <ele>1699.27</ele>
        <time>2019-03-12T15:49:57Z</time>
      </trkpt>
      <trkpt lat="31.175901275128126" lon="-5.446265218779445">
        <ele>1698.79</ele>
        <time>2019-03-12T15:50:06Z</time>
      </trkpt>
      <trkpt lat="31.175929857417941" lon="-5.4456752166152">
        <ele>1698.79</ele>
        <time>2019-03-12T15:50:12Z</time>
      </trkpt>
      <trkpt lat="31.175962630659342" lon="-5.445050010457635">
        <ele>1695.4200000000001</ele>
        <time>2019-03-12T15:50:13Z</time>
      </trkpt>
      <trkpt lat="31.175990290939808" lon="-5.444955714046955">
        <ele>1694.46</ele>
        <time>2019-03-12T15:50:14Z</time>
      </trkpt>
      <trkpt lat="31.176027841866016" lon="-5.444866279140115">
        <ele>1694.9400000000001</ele>
        <time>2019-03-12T15:50:15Z</time>
      </trkpt>
      <trkpt lat="31.176074696704745" lon="-5.444777430966497">
        <ele>1694.9400000000001</ele>
        <time>2019-03-12T15:50:16Z</time>
      </trkpt>
      <trkpt lat="31.17612867616117" lon="-5.444685313850641">
        <ele>1694.46</ele>
        <time>2019-03-12T15:50:23Z</time>
      </trkpt>
      <trkpt lat="31.17655623704195" lon="-5.444011241197586">
        <ele>1693.5</ele>
        <time>2019-03-12T15:50:31Z</time>
      </trkpt>
      <trkpt lat="31.177047416567802" lon="-5.443317973986268">
        <ele>1693.5</ele>
        <time>2019-03-12T15:50:33Z</time>
      </trkpt>
      <trkpt lat="31.177136013284326" lon="-5.443124352023006">
        <ele>1693.5</ele>
        <time>2019-03-12T15:50:34Z</time>
      </trkpt>
      <trkpt lat="31.177161745727062" lon="-5.443032737821341">
        <ele>1693.5</ele>
        <time>2019-03-12T15:50:36Z</time>
      </trkpt>
      <trkpt lat="31.177198709920049" lon="-5.442834757268429">
        <ele>1693.5</ele>
        <time>2019-03-12T15:50:37Z</time>
      </trkpt>
      <trkpt lat="31.177199883386493" lon="-5.442728055641055">
        <ele>1693.98</ele>
        <time>2019-03-12T15:50:38Z</time>
      </trkpt>
      <trkpt lat="31.177190830931067" lon="-5.442622024565935">
        <ele>1694.46</ele>
        <time>2019-03-12T15:50:39Z</time>
      </trkpt>
      <trkpt lat="31.177169624716043" lon="-5.442515574395657">
        <ele>1695.4200000000001</ele>
        <time>2019-03-12T15:50:40Z</time>
      </trkpt>
      <trkpt lat="31.17714355699718" lon="-5.442411303520203">
        <ele>1695.9000000000001</ele>
        <time>2019-03-12T15:50:41Z</time>
      </trkpt>
      <trkpt lat="31.177118830382824" lon="-5.44231005012989">
        <ele>1697.8299999999999</ele>
        <time>2019-03-12T15:50:42Z</time>
      </trkpt>
      <trkpt lat="31.177106089890003" lon="-5.44221717864275">
        <ele>1697.8299999999999</ele>
        <time>2019-03-12T15:50:51Z</time>
      </trkpt>
      <trkpt lat="31.177101479843259" lon="-5.441232556477189">
        <ele>1696.3800000000001</ele>
        <time>2019-03-12T15:50:53Z</time>
      </trkpt>
      <trkpt lat="31.177102485671639" lon="-5.441024517640472">
        <ele>1695.9000000000001</ele>
        <time>2019-03-12T15:50:54Z</time>
      </trkpt>
      <trkpt lat="31.177093181759119" lon="-5.440927036106587">
        <ele>1693.98</ele>
        <time>2019-03-12T15:50:57Z</time>
      </trkpt>
      <trkpt lat="31.177068119868636" lon="-5.440668035298586">
        <ele>1693.5</ele>
        <time>2019-03-12T15:50:58Z</time>
      </trkpt>
      <trkpt lat="31.177070969715714" lon="-5.440585222095251">
        <ele>1693.5</ele>
        <time>2019-03-12T15:51:04Z</time>
      </trkpt>
      <trkpt lat="31.177112041041255" lon="-5.440123546868563">
        <ele>1693.5</ele>
        <time>2019-03-12T15:51:05Z</time>
      </trkpt>
      <trkpt lat="31.177138024941087" lon="-5.440040063112974">
        <ele>1693.5</ele>
        <time>2019-03-12T15:51:10Z</time>
      </trkpt>
      <trkpt lat="31.177311027422547" lon="-5.439683748409152">
        <ele>1693.5</ele>
        <time>2019-03-12T15:51:11Z</time>
      </trkpt>
      <trkpt lat="31.1773497518152" lon="-5.439628846943378">
        <ele>1693.02</ele>
        <time>2019-03-12T15:51:12Z</time>
      </trkpt>
      <trkpt lat="31.177392499521375" lon="-5.43957662768662">
        <ele>1691.5799999999999</ele>
        <time>2019-03-12T15:51:13Z</time>
      </trkpt>
      <trkpt lat="31.177440444007516" lon="-5.43953463435173">
        <ele>1691.0999999999999</ele>
        <time>2019-03-12T15:51:14Z</time>
      </trkpt>
      <trkpt lat="31.177488975226879" lon="-5.439501190558076">
        <ele>1690.6199999999999</ele>
        <time>2019-03-12T15:51:16Z</time>
      </trkpt>
      <trkpt lat="31.177578996866941" lon="-5.439428938552737">
        <ele>1690.6199999999999</ele>
        <time>2019-03-12T15:51:17Z</time>
      </trkpt>
      <trkpt lat="31.177620068192482" lon="-5.439378563314676">
        <ele>1690.6199999999999</ele>
        <time>2019-03-12T15:51:21Z</time>
      </trkpt>
      <trkpt lat="31.177782509475946" lon="-5.439186869189143">
        <ele>1690.1400000000001</ele>
        <time>2019-03-12T15:51:22Z</time>
      </trkpt>
      <trkpt lat="31.177803045138717" lon="-5.439148815348744">
        <ele>1690.1400000000001</ele>
        <time>2019-03-12T15:51:23Z</time>
      </trkpt>
      <trkpt lat="31.177810169756413" lon="-5.439117969945073">
        <ele>1689.6500000000001</ele>
        <time>2019-03-12T15:51:24Z</time>
      </trkpt>
      <trkpt lat="31.177812600508332" lon="-5.439086286351085">
        <ele>1689.1700000000001</ele>
        <time>2019-03-12T15:51:25Z</time>
      </trkpt>
      <trkpt lat="31.177812181413174" lon="-5.439048148691654">
        <ele>1688.21</ele>
        <time>2019-03-12T15:51:26Z</time>
      </trkpt>
      <trkpt lat="31.177800446748734" lon="-5.438995929434896">
        <ele>1687.73</ele>
        <time>2019-03-12T15:51:27Z</time>
      </trkpt>
      <trkpt lat="31.177784018218517" lon="-5.438940022140741">
        <ele>1687.25</ele>
        <time>2019-03-12T15:51:30Z</time>
      </trkpt>
      <trkpt lat="31.177715454250574" lon="-5.438741873949766">
        <ele>1679.0799999999999</ele>
        <time>2019-03-12T15:51:31Z</time>
      </trkpt>
      <trkpt lat="31.177681423723698" lon="-5.438674986362457">
        <ele>1678.1199999999999</ele>
        <time>2019-03-12T15:51:32Z</time>
      </trkpt>
      <trkpt lat="31.177637418732047" lon="-5.438616564497352">
        <ele>1677.6400000000001</ele>
        <time>2019-03-12T15:51:33Z</time>
      </trkpt>
      <trkpt lat="31.177594251930714" lon="-5.4385656863451">
        <ele>1677.1600000000001</ele>
        <time>2019-03-12T15:51:34Z</time>
      </trkpt>
      <trkpt lat="31.177552510052919" lon="-5.438525369390845">
        <ele>1676.6800000000001</ele>
        <time>2019-03-12T15:51:42Z</time>
      </trkpt>
      <trkpt lat="31.177185047417879" lon="-5.438139718025923">
        <ele>1675.72</ele>
        <time>2019-03-12T15:51:43Z</time>
      </trkpt>
      <trkpt lat="31.177151603624225" lon="-5.438091773539782">
        <ele>1675.23</ele>
        <time>2019-03-12T15:51:44Z</time>
      </trkpt>
      <trkpt lat="31.17713425308466" lon="-5.438040979206562">
        <ele>1674.27</ele>
        <time>2019-03-12T15:51:45Z</time>
      </trkpt>
      <trkpt lat="31.177136013284326" lon="-5.437992447987199">
        <ele>1673.79</ele>
        <time>2019-03-12T15:51:46Z</time>
      </trkpt>
      <trkpt lat="31.177150346338749" lon="-5.437947772443295">
        <ele>1673.3099999999999</ele>
        <time>2019-03-12T15:51:47Z</time>
      </trkpt>
      <trkpt lat="31.177177168428898" lon="-5.437900247052312">
        <ele>1673.3099999999999</ele>
        <time>2019-03-12T15:51:48Z</time>
      </trkpt>
      <trkpt lat="31.177210863679647" lon="-5.437851715832949">
        <ele>1670.9100000000001</ele>
        <time>2019-03-12T15:51:49Z</time>
      </trkpt>
      <trkpt lat="31.177247492596507" lon="-5.4378058668226">
        <ele>1662.74</ele>
        <time>2019-03-12T15:51:50Z</time>
      </trkpt>
      <trkpt lat="31.177288144826889" lon="-5.437765885144472">
        <ele>1656.01</ele>
        <time>2019-03-12T15:51:51Z</time>
      </trkpt>
      <trkpt lat="31.177324689924717" lon="-5.437739649787545">
        <ele>1648.8</ele>
        <time>2019-03-12T15:51:52Z</time>
      </trkpt>
      <trkpt lat="31.177353775128722" lon="-5.437727076932788">
        <ele>1648.3199999999999</ele>
        <time>2019-03-12T15:51:57Z</time>
      </trkpt>
      <trkpt lat="31.177540440112352" lon="-5.437621716409922">
        <ele>1647.8399999999999</ele>
        <time>2019-03-12T15:52:12Z</time>
      </trkpt>
      <trkpt lat="31.178082916885614" lon="-5.437243776395917">
        <ele>1647.8399999999999</ele>
        <time>2019-03-12T15:52:24Z</time>
      </trkpt>
      <trkpt lat="31.17849413305521" lon="-5.436994917690754">
        <ele>1646.8800000000001</ele>
        <time>2019-03-12T15:52:33Z</time>
      </trkpt>
      <trkpt lat="31.178829157724977" lon="-5.43676994740963">
        <ele>1643.03</ele>
        <time>2019-03-12T15:52:34Z</time>
      </trkpt>
      <trkpt lat="31.178869642317295" lon="-5.436740526929498">
        <ele>1641.5899999999999</ele>
        <time>2019-03-12T15:52:35Z</time>
      </trkpt>
      <trkpt lat="31.178905852138996" lon="-5.4367093462497">
        <ele>1641.5899999999999</ele>
        <time>2019-03-12T15:52:36Z</time>
      </trkpt>
      <trkpt lat="31.178940804675221" lon="-5.436674812808633">
        <ele>1641.1099999999999</ele>
        <time>2019-03-12T15:52:37Z</time>
      </trkpt>
      <trkpt lat="31.178974751383066" lon="-5.436640614643693">
        <ele>1640.1500000000001</ele>
        <time>2019-03-12T15:52:42Z</time>
      </trkpt>
      <trkpt lat="31.179139791056514" lon="-5.436488566920161">
        <ele>1638.7</ele>
        <time>2019-03-12T15:52:45Z</time>
      </trkpt>
      <trkpt lat="31.179275410249829" lon="-5.436357222497463">
        <ele>1637.74</ele>
        <time>2019-03-12T15:52:46Z</time>
      </trkpt>
      <trkpt lat="31.179312961176038" lon="-5.43629209510982">
        <ele>1636.78</ele>
        <time>2019-03-12T15:52:47Z</time>
      </trkpt>
      <trkpt lat="31.179334418848157" lon="-5.436222525313497">
        <ele>1635.8199999999999</ele>
        <time>2019-03-12T15:52:48Z</time>
      </trkpt>
      <trkpt lat="31.179326791316271" lon="-5.436156643554568">
        <ele>1635.3399999999999</ele>
        <time>2019-03-12T15:52:49Z</time>
      </trkpt>
      <trkpt lat="31.179292006418109" lon="-5.436104256659746">
        <ele>1634.8599999999999</ele>
        <time>2019-03-12T15:52:50Z</time>
      </trkpt>
      <trkpt lat="31.179240625351667" lon="-5.436076344922185">
        <ele>1634.3800000000001</ele>
        <time>2019-03-12T15:52:51Z</time>
      </trkpt>
      <trkpt lat="31.179178766906261" lon="-5.436073243618012">
        <ele>1633.9000000000001</ele>
        <time>2019-03-12T15:52:52Z</time>
      </trkpt>
      <trkpt lat="31.179112968966365" lon="-5.436080116778612">
        <ele>1633.4200000000001</ele>
        <time>2019-03-12T15:52:53Z</time>
      </trkpt>
      <trkpt lat="31.179050859063864" lon="-5.436076931655407">
        <ele>1627.1700000000001</ele>
        <time>2019-03-12T15:52:54Z</time>
      </trkpt>
      <trkpt lat="31.178989419713616" lon="-5.436060670763254">
        <ele>1626.21</ele>
        <time>2019-03-12T15:52:55Z</time>
      </trkpt>
      <trkpt lat="31.178927896544337" lon="-5.436023622751236">
        <ele>1625.73</ele>
        <time>2019-03-12T15:52:56Z</time>
      </trkpt>
      <trkpt lat="31.17886645719409" lon="-5.435972912237048">
        <ele>1625.73</ele>
        <time>2019-03-12T15:52:57Z</time>
      </trkpt>
      <trkpt lat="31.178809544071555" lon="-5.435916837304831">
        <ele>1624.77</ele>
        <time>2019-03-12T15:53:04Z</time>
      </trkpt>
      <trkpt lat="31.178443422541022" lon="-5.435524312779307">
        <ele>1624.77</ele>
        <time>2019-03-12T15:53:05Z</time>
      </trkpt>
      <trkpt lat="31.178403943777084" lon="-5.435472261160612">
        <ele>1623.8</ele>
        <time>2019-03-12T15:53:06Z</time>
      </trkpt>
      <trkpt lat="31.178376954048872" lon="-5.435413420200348">
        <ele>1622.8399999999999</ele>
        <time>2019-03-12T15:53:07Z</time>
      </trkpt>
      <trkpt lat="31.178363543003798" lon="-5.435341587290168">
        <ele>1621.8800000000001</ele>
        <time>2019-03-12T15:53:08Z</time>
      </trkpt>
      <trkpt lat="31.178356921300292" lon="-5.43526791036129">
        <ele>1614.1900000000001</ele>
        <time>2019-03-12T15:53:09Z</time>
      </trkpt>
      <trkpt lat="31.178359100595117" lon="-5.435190880671144">
        <ele>1613.71</ele>
        <time>2019-03-12T15:53:10Z</time>
      </trkpt>
      <trkpt lat="31.178355915471911" lon="-5.435111504048109">
        <ele>1612.75</ele>
        <time>2019-03-12T15:53:11Z</time>
      </trkpt>
      <trkpt lat="31.178342755883932" lon="-5.435029864311218">
        <ele>1612.27</ele>
        <time>2019-03-12T15:53:12Z</time>
      </trkpt>
      <trkpt lat="31.178321884945035" lon="-5.434948392212391">
        <ele>1611.79</ele>
        <time>2019-03-12T15:53:22Z</time>
      </trkpt>
      <trkpt lat="31.178100518882275" lon="-5.434147585183382">
        <ele>1611.3099999999999</ele>
        <time>2019-03-12T15:53:23Z</time>
      </trkpt>
      <trkpt lat="31.178068835288286" lon="-5.434078937396407">
        <ele>1610.8299999999999</ele>
        <time>2019-03-12T15:53:24Z</time>
      </trkpt>
      <trkpt lat="31.178030949085951" lon="-5.434023700654507">
        <ele>1610.3499999999999</ele>
        <time>2019-03-12T15:53:25Z</time>
      </trkpt>
      <trkpt lat="31.177988117560744" lon="-5.433978773653507">
        <ele>1610.3499999999999</ele>
        <time>2019-03-12T15:53:26Z</time>
      </trkpt>
      <trkpt lat="31.177948722615838" lon="-5.433942899107933">
        <ele>1609.8599999999999</ele>
        <time>2019-03-12T15:53:27Z</time>
      </trkpt>
      <trkpt lat="31.177916284650564" lon="-5.433914819732308">
        <ele>1609.3800000000001</ele>
        <time>2019-03-12T15:53:28Z</time>
      </trkpt>
      <trkpt lat="31.17789507843554" lon="-5.433881878852844">
        <ele>1608.4200000000001</ele>
        <time>2019-03-12T15:53:29Z</time>
      </trkpt>
      <trkpt lat="31.177890468388796" lon="-5.433845585212112">
        <ele>1607.9400000000001</ele>
        <time>2019-03-12T15:53:30Z</time>
      </trkpt>
      <trkpt lat="31.177906058728695" lon="-5.433815158903599">
        <ele>1607.9400000000001</ele>
        <time>2019-03-12T15:53:31Z</time>
      </trkpt>
      <trkpt lat="31.177936820313334" lon="-5.433802837505937">
        <ele>1606.5</ele>
        <time>2019-03-12T15:53:32Z</time>
      </trkpt>
      <trkpt lat="31.177974035963416" lon="-5.433812476694584">
        <ele>1606.02</ele>
        <time>2019-03-12T15:53:33Z</time>
      </trkpt>
      <trkpt lat="31.178016113117337" lon="-5.433834521099925">
        <ele>1605.54</ele>
        <time>2019-03-12T15:53:34Z</time>
      </trkpt>
      <trkpt lat="31.178065398707986" lon="-5.433866707608104">
        <ele>1605.0599999999999</ele>
        <time>2019-03-12T15:53:35Z</time>
      </trkpt>
      <trkpt lat="31.178122395649552" lon="-5.433907276019454">
        <ele>1605.54</ele>
        <time>2019-03-12T15:53:40Z</time>
      </trkpt>
      <trkpt lat="31.178400758653879" lon="-5.43413476087153">
        <ele>1605.54</ele>
        <time>2019-03-12T15:53:41Z</time>
      </trkpt>
      <trkpt lat="31.178449289873242" lon="-5.434162253513932">
        <ele>1606.02</ele>
        <time>2019-03-12T15:53:42Z</time>
      </trkpt>
      <trkpt lat="31.178499329835176" lon="-5.434163678437471">
        <ele>1606.5</ele>
        <time>2019-03-12T15:53:43Z</time>
      </trkpt>
      <trkpt lat="31.178542831912637" lon="-5.434139790013433">
        <ele>1606.02</ele>
        <time>2019-03-12T15:53:44Z</time>
      </trkpt>
      <trkpt lat="31.178571917116642" lon="-5.434091174975038">
        <ele>1606.02</ele>
        <time>2019-03-12T15:53:45Z</time>
      </trkpt>
      <trkpt lat="31.17858499288559" lon="-5.434033675119281">
        <ele>1605.54</ele>
        <time>2019-03-12T15:53:46Z</time>
      </trkpt>
      <trkpt lat="31.178585747256875" lon="-5.433970978483558">
        <ele>1605.54</ele>
        <time>2019-03-12T15:53:47Z</time>
      </trkpt>
      <trkpt lat="31.178577281534672" lon="-5.433903587982059">
        <ele>1605.0599999999999</ele>
        <time>2019-03-12T15:53:48Z</time>
      </trkpt>
      <trkpt lat="31.178558925166726" lon="-5.433830330148339">
        <ele>1604.0999999999999</ele>
        <time>2019-03-12T15:53:49Z</time>
      </trkpt>
      <trkpt lat="31.178532773628831" lon="-5.433749025687575">
        <ele>1603.1400000000001</ele>
        <time>2019-03-12T15:53:50Z</time>
      </trkpt>
      <trkpt lat="31.178508969023824" lon="-5.433660931885243">
        <ele>1602.6600000000001</ele>
        <time>2019-03-12T15:53:51Z</time>
      </trkpt>
      <trkpt lat="31.178495809435844" lon="-5.433567808941007">
        <ele>1602.1700000000001</ele>
        <time>2019-03-12T15:53:53Z</time>
      </trkpt>
      <trkpt lat="31.178470076993108" lon="-5.433387598022819">
        <ele>1601.6900000000001</ele>
        <time>2019-03-12T15:53:54Z</time>
      </trkpt>
      <trkpt lat="31.178444093093276" lon="-5.433304533362389">
        <ele>1600.73</ele>
        <time>2019-03-12T15:53:55Z</time>
      </trkpt>
      <trkpt lat="31.178406542167068" lon="-5.433232700452209">
        <ele>1599.77</ele>
        <time>2019-03-12T15:53:56Z</time>
      </trkpt>
      <trkpt lat="31.178360190242529" lon="-5.433176290243864">
        <ele>1599.29</ele>
        <time>2019-03-12T15:53:57Z</time>
      </trkpt>
      <trkpt lat="31.178307216614485" lon="-5.433129351586103">
        <ele>1598.8099999999999</ele>
        <time>2019-03-12T15:53:58Z</time>
      </trkpt>
      <trkpt lat="31.178259858861566" lon="-5.433073276653886">
        <ele>1598.3299999999999</ele>
        <time>2019-03-12T15:53:59Z</time>
      </trkpt>
      <trkpt lat="31.178230019286275" lon="-5.432993983849883">
        <ele>1597.8499999999999</ele>
        <time>2019-03-12T15:54:00Z</time>
      </trkpt>
      <trkpt lat="31.178223146125674" lon="-5.432903040200472">
        <ele>1597.8499999999999</ele>
        <time>2019-03-12T15:54:01Z</time>
      </trkpt>
      <trkpt lat="31.178232366219163" lon="-5.432814778760076">
        <ele>1598.8099999999999</ele>
        <time>2019-03-12T15:54:02Z</time>
      </trkpt>
      <trkpt lat="31.178248124197125" lon="-5.432729367166758">
        <ele>1599.29</ele>
        <time>2019-03-12T15:54:06Z</time>
      </trkpt>
      <trkpt lat="31.178339151665568" lon="-5.432378584519029">
        <ele>1600.25</ele>
        <time>2019-03-12T15:54:07Z</time>
      </trkpt>
      <trkpt lat="31.178380893543363" lon="-5.432300297543407">
        <ele>1601.21</ele>
        <time>2019-03-12T15:54:08Z</time>
      </trkpt>
      <trkpt lat="31.178435878828168" lon="-5.432224944233894">
        <ele>1602.6600000000001</ele>
        <time>2019-03-12T15:54:09Z</time>
      </trkpt>
      <trkpt lat="31.178494468331337" lon="-5.432157972827554">
        <ele>1603.1400000000001</ele>
        <time>2019-03-12T15:54:10Z</time>
      </trkpt>
      <trkpt lat="31.178549872711301" lon="-5.43209427036345">
        <ele>1602.6600000000001</ele>
        <time>2019-03-12T15:54:11Z</time>
      </trkpt>
      <trkpt lat="31.178594883531332" lon="-5.432024700567126">
        <ele>1602.6600000000001</ele>
        <time>2019-03-12T15:54:12Z</time>
      </trkpt>
      <trkpt lat="31.178632099181414" lon="-5.431956052780151">
        <ele>1602.1700000000001</ele>
        <time>2019-03-12T15:54:14Z</time>
      </trkpt>
      <trkpt lat="31.17871449328959" lon="-5.431827222928405">
        <ele>1603.1400000000001</ele>
        <time>2019-03-12T15:54:15Z</time>
      </trkpt>
      <trkpt lat="31.178768305107951" lon="-5.431764358654618">
        <ele>1603.6199999999999</ele>
        <time>2019-03-12T15:54:18Z</time>
      </trkpt>
      <trkpt lat="31.178927645087242" lon="-5.4315719101578">
        <ele>1604.5799999999999</ele>
        <time>2019-03-12T15:54:19Z</time>
      </trkpt>
      <trkpt lat="31.178974248468876" lon="-5.431506866589189">
        <ele>1605.54</ele>
        <time>2019-03-12T15:54:20Z</time>
      </trkpt>
      <trkpt lat="31.179022360593081" lon="-5.431448109447956">
        <ele>1605.54</ele>
        <time>2019-03-12T15:54:21Z</time>
      </trkpt>
      <trkpt lat="31.179082961753011" lon="-5.431396225467324">
        <ele>1605.54</ele>
        <time>2019-03-12T15:54:22Z</time>
      </trkpt>
      <trkpt lat="31.179140042513609" lon="-5.431363955140114">
        <ele>1605.54</ele>
        <time>2019-03-12T15:54:23Z</time>
      </trkpt>
      <trkpt lat="31.17918698117137" lon="-5.431346939876676">
        <ele>1606.02</ele>
        <time>2019-03-12T15:54:24Z</time>
      </trkpt>
      <trkpt lat="31.179230902343988" lon="-5.431333025917411">
        <ele>1606.02</ele>
        <time>2019-03-12T15:54:26Z</time>
      </trkpt>
      <trkpt lat="31.179309608414769" lon="-5.431298073381186">
        <ele>1606.5</ele>
        <time>2019-03-12T15:54:27Z</time>
      </trkpt>
      <trkpt lat="31.179350595921278" lon="-5.431264713406563">
        <ele>1606.5</ele>
        <time>2019-03-12T15:54:28Z</time>
      </trkpt>
      <trkpt lat="31.179392421618104" lon="-5.431220624595881">
        <ele>1613.23</ele>
        <time>2019-03-12T15:54:29Z</time>
      </trkpt>
      <trkpt lat="31.179433409124613" lon="-5.431166728958488">
        <ele>1616.1099999999999</ele>
        <time>2019-03-12T15:54:30Z</time>
      </trkpt>
      <trkpt lat="31.179472049698234" lon="-5.431103026494384">
        <ele>1616.1099999999999</ele>
        <time>2019-03-12T15:54:31Z</time>
      </trkpt>
      <trkpt lat="31.179505242034793" lon="-5.431031528860331">
        <ele>1616.5899999999999</ele>
        <time>2019-03-12T15:54:32Z</time>
      </trkpt>
      <trkpt lat="31.179539104923606" lon="-5.430953744798899">
        <ele>1617.0699999999999</ele>
        <time>2019-03-12T15:54:43Z</time>
      </trkpt>
      <trkpt lat="31.17987253703177" lon="-5.430169198662043">
        <ele>1617.5599999999999</ele>
        <time>2019-03-12T15:54:53Z</time>
      </trkpt>
      <trkpt lat="31.180129777640104" lon="-5.429368475452066">
        <ele>1620.4400000000001</ele>
        <time>2019-03-12T15:54:54Z</time>
      </trkpt>
      <trkpt lat="31.180134387686849" lon="-5.42926361784339">
        <ele>1619.96</ele>
        <time>2019-03-12T15:54:55Z</time>
      </trkpt>
      <trkpt lat="31.180129610002041" lon="-5.42915909551084">
        <ele>1619.48</ele>
        <time>2019-03-12T15:54:56Z</time>
      </trkpt>
      <trkpt lat="31.180119719356298" lon="-5.429063374176621">
        <ele>1618.52</ele>
        <time>2019-03-12T15:54:57Z</time>
      </trkpt>
      <trkpt lat="31.180107817053795" lon="-5.428975615650415">
        <ele>1613.71</ele>
        <time>2019-03-12T15:55:02Z</time>
      </trkpt>
      <trkpt lat="31.180113181471825" lon="-5.428606728091836">
        <ele>1609.3800000000001</ele>
        <time>2019-03-12T15:55:14Z</time>
      </trkpt>
      <trkpt lat="31.180391293019056" lon="-5.427582459524274">
        <ele>1607.9400000000001</ele>
        <time>2019-03-12T15:55:17Z</time>
      </trkpt>
      <trkpt lat="31.180438483133912" lon="-5.427382467314601">
        <ele>1606.5</ele>
        <time>2019-03-12T15:55:19Z</time>
      </trkpt>
      <trkpt lat="31.180459940806031" lon="-5.427245087921619">
        <ele>1606.02</ele>
        <time>2019-03-12T15:55:25Z</time>
      </trkpt>
      <trkpt lat="31.180530097335577" lon="-5.42686396278441">
        <ele>1605.54</ele>
        <time>2019-03-12T15:55:30Z</time>
      </trkpt>
      <trkpt lat="31.180503778159618" lon="-5.426417458802462">
        <ele>1604.5799999999999</ele>
        <time>2019-03-12T15:55:31Z</time>
      </trkpt>
      <trkpt lat="31.180509896948934" lon="-5.426320061087608">
        <ele>1604.5799999999999</ele>
        <time>2019-03-12T15:55:33Z</time>
      </trkpt>
      <trkpt lat="31.180527666583657" lon="-5.426156194880605">
        <ele>1602.1700000000001</ele>
        <time>2019-03-12T15:55:34Z</time>
      </trkpt>
      <trkpt lat="31.180515345185995" lon="-5.426099449396133">
        <ele>1601.21</ele>
        <time>2019-03-12T15:55:35Z</time>
      </trkpt>
      <trkpt lat="31.18048382923007" lon="-5.426058378070593">
        <ele>1600.73</ele>
        <time>2019-03-12T15:55:36Z</time>
      </trkpt>
      <trkpt lat="31.180438986048102" lon="-5.426030717790127">
        <ele>1600.25</ele>
        <time>2019-03-12T15:55:37Z</time>
      </trkpt>
      <trkpt lat="31.180381486192346" lon="-5.426008421927691">
        <ele>1600.25</ele>
        <time>2019-03-12T15:55:42Z</time>
      </trkpt>
      <trkpt lat="31.180123575031757" lon="-5.425882693380117">
        <ele>1600.73</ele>
        <time>2019-03-12T15:55:43Z</time>
      </trkpt>
      <trkpt lat="31.180083090439439" lon="-5.425827037543058">
        <ele>1601.21</ele>
        <time>2019-03-12T15:55:44Z</time>
      </trkpt>
      <trkpt lat="31.180057944729924" lon="-5.425752103328705">
        <ele>1601.21</ele>
        <time>2019-03-12T15:55:45Z</time>
      </trkpt>
      <trkpt lat="31.180048389360309" lon="-5.425665769726038">
        <ele>1601.6900000000001</ele>
        <time>2019-03-12T15:55:46Z</time>
      </trkpt>
      <trkpt lat="31.180046377703547" lon="-5.425573568791151">
        <ele>1601.6900000000001</ele>
        <time>2019-03-12T15:55:57Z</time>
      </trkpt>
      <trkpt lat="31.180076720193028" lon="-5.42441988363862">
        <ele>1601.21</ele>
        <time>2019-03-12T15:55:58Z</time>
      </trkpt>
      <trkpt lat="31.180098010227084" lon="-5.424314774572849">
        <ele>1600.73</ele>
        <time>2019-03-12T15:55:59Z</time>
      </trkpt>
      <trkpt lat="31.180115193128586" lon="-5.424225004389882">
        <ele>1600.73</ele>
        <time>2019-03-12T15:56:00Z</time>
      </trkpt>
      <trkpt lat="31.180122317746282" lon="-5.42414914816618">
        <ele>1599.77</ele>
        <time>2019-03-12T15:56:01Z</time>
      </trkpt>
      <trkpt lat="31.18011737242341" lon="-5.424075638875365">
        <ele>1598.3299999999999</ele>
        <time>2019-03-12T15:56:02Z</time>
      </trkpt>
      <trkpt lat="31.180094741284847" lon="-5.424000369384885">
        <ele>1597.8499999999999</ele>
        <time>2019-03-12T15:56:03Z</time>
      </trkpt>
      <trkpt lat="31.180058615282178" lon="-5.423929207026959">
        <ele>1597.3699999999999</ele>
        <time>2019-03-12T15:56:04Z</time>
      </trkpt>
      <trkpt lat="31.180010503157973" lon="-5.423855781555176">
        <ele>1597.3699999999999</ele>
        <time>2019-03-12T15:56:06Z</time>
      </trkpt>
      <trkpt lat="31.179906232282519" lon="-5.423686467111111">
        <ele>1597.8499999999999</ele>
        <time>2019-03-12T15:56:09Z</time>
      </trkpt>
      <trkpt lat="31.179781090468168" lon="-5.423428304493427">
        <ele>1598.3299999999999</ele>
        <time>2019-03-12T15:56:10Z</time>
      </trkpt>
      <trkpt lat="31.179735492914915" lon="-5.423374911770225">
        <ele>1598.3299999999999</ele>
        <time>2019-03-12T15:56:11Z</time>
      </trkpt>
      <trkpt lat="31.17968050763011" lon="-5.423339707776904">
        <ele>1598.3299999999999</ele>
        <time>2019-03-12T15:56:12Z</time>
      </trkpt>
      <trkpt lat="31.179618146270514" lon="-5.423329649493098">
        <ele>1595.9300000000001</ele>
        <time>2019-03-12T15:56:13Z</time>
      </trkpt>
      <trkpt lat="31.17955251596868" lon="-5.423336857929826">
        <ele>1595.45</ele>
        <time>2019-03-12T15:56:14Z</time>
      </trkpt>
      <trkpt lat="31.179487472400069" lon="-5.423345910385251">
        <ele>1594.96</ele>
        <time>2019-03-12T15:56:15Z</time>
      </trkpt>
      <trkpt lat="31.179425278678536" lon="-5.423348760232329">
        <ele>1594.48</ele>
        <time>2019-03-12T15:56:16Z</time>
      </trkpt>
      <trkpt lat="31.179360905662179" lon="-5.423342389985919">
        <ele>1593.52</ele>
        <time>2019-03-12T15:56:20Z</time>
      </trkpt>
      <trkpt lat="31.179106095805764" lon="-5.423309281468391">
        <ele>1593.04</ele>
        <time>2019-03-12T15:56:21Z</time>
      </trkpt>
      <trkpt lat="31.1790472548455" lon="-5.423301486298442">
        <ele>1592.0799999999999</ele>
        <time>2019-03-12T15:56:22Z</time>
      </trkpt>
      <trkpt lat="31.17898958735168" lon="-5.423304671421647">
        <ele>1591.5999999999999</ele>
        <time>2019-03-12T15:56:23Z</time>
      </trkpt>
      <trkpt lat="31.178930914029479" lon="-5.423316992819309">
        <ele>1591.1199999999999</ele>
        <time>2019-03-12T15:56:24Z</time>
      </trkpt>
      <trkpt lat="31.178869055584073" lon="-5.423329565674067">
        <ele>1590.6400000000001</ele>
        <time>2019-03-12T15:56:25Z</time>
      </trkpt>
      <trkpt lat="31.178807364776731" lon="-5.423333672806621">
        <ele>1591.1199999999999</ele>
        <time>2019-03-12T15:56:26Z</time>
      </trkpt>
      <trkpt lat="31.178746176883578" lon="-5.423330571502447">
        <ele>1593.04</ele>
        <time>2019-03-12T15:56:27Z</time>
      </trkpt>
      <trkpt lat="31.17868565954268" lon="-5.423324033617973">
        <ele>1593.04</ele>
        <time>2019-03-12T15:56:28Z</time>
      </trkpt>
      <trkpt lat="31.17861969396472" lon="-5.423310371115804">
        <ele>1593.04</ele>
        <time>2019-03-12T15:56:29Z</time>
      </trkpt>
      <trkpt lat="31.178546184673905" lon="-5.423287069424987">
        <ele>1592.5599999999999</ele>
        <time>2019-03-12T15:56:40Z</time>
      </trkpt>
      <trkpt lat="31.177716376259923" lon="-5.422959420830011">
        <ele>1592.0799999999999</ele>
        <time>2019-03-12T15:56:45Z</time>
      </trkpt>
      <trkpt lat="31.177493836730719" lon="-5.422841152176261">
        <ele>1591.1199999999999</ele>
        <time>2019-03-12T15:56:46Z</time>
      </trkpt>
      <trkpt lat="31.177460979670286" lon="-5.422806032001972">
        <ele>1590.6400000000001</ele>
        <time>2019-03-12T15:56:47Z</time>
      </trkpt>
      <trkpt lat="31.177432565018535" lon="-5.422762949019671">
        <ele>1588.72</ele>
        <time>2019-03-12T15:56:48Z</time>
      </trkpt>
      <trkpt lat="31.177403144538403" lon="-5.422717100009322">
        <ele>1586.79</ele>
        <time>2019-03-12T15:56:49Z</time>
      </trkpt>
      <trkpt lat="31.177366347983479" lon="-5.422678124159575">
        <ele>1582.95</ele>
        <time>2019-03-12T15:56:50Z</time>
      </trkpt>
      <trkpt lat="31.177321169525385" lon="-5.422650882974267">
        <ele>1582.47</ele>
        <time>2019-03-12T15:56:51Z</time>
      </trkpt>
      <trkpt lat="31.177270878106356" lon="-5.422628168016672">
        <ele>1581.99</ele>
        <time>2019-03-12T15:56:59Z</time>
      </trkpt>
      <trkpt lat="31.17711229249835" lon="-5.422575697302818">
        <ele>1581.51</ele>
        <time>2019-03-12T15:57:31Z</time>
      </trkpt>
      <trkpt lat="31.176963094621897" lon="-5.422535547986627">
        <ele>1581.03</ele>
        <time>2019-03-12T15:57:39Z</time>
      </trkpt>
      <trkpt lat="31.17648490704596" lon="-5.422273278236389">
        <ele>1580.54</ele>
        <time>2019-03-12T15:57:40Z</time>
      </trkpt>
      <trkpt lat="31.176421120762825" lon="-5.422252155840397">
        <ele>1580.0599999999999</ele>
        <time>2019-03-12T15:57:41Z</time>
      </trkpt>
      <trkpt lat="31.176356915384531" lon="-5.422240840271115">
        <ele>1580.0599999999999</ele>
        <time>2019-03-12T15:57:42Z</time>
      </trkpt>
      <trkpt lat="31.176296733319759" lon="-5.422235727310181">
        <ele>1580.0599999999999</ele>
        <time>2019-03-12T15:57:43Z</time>
      </trkpt>
      <trkpt lat="31.176236635074019" lon="-5.422235392034054">
        <ele>1579.5799999999999</ele>
        <time>2019-03-12T15:57:44Z</time>
      </trkpt>
      <trkpt lat="31.176177458837628" lon="-5.422242265194655">
        <ele>1579.5799999999999</ele>
        <time>2019-03-12T15:57:45Z</time>
      </trkpt>
      <trkpt lat="31.176116354763508" lon="-5.422256346791983">
        <ele>1580.0599999999999</ele>
        <time>2019-03-12T15:57:46Z</time>
      </trkpt>
      <trkpt lat="31.176053993403912" lon="-5.422274954617024">
        <ele>1582.95</ele>
        <time>2019-03-12T15:57:51Z</time>
      </trkpt>
      <trkpt lat="31.175797423347831" lon="-5.422386350110173">
        <ele>1582.95</ele>
        <time>2019-03-12T15:58:00Z</time>
      </trkpt>
      <trkpt lat="31.175140030682087" lon="-5.422709723934531">
        <ele>1582.95</ele>
        <time>2019-03-12T15:58:01Z</time>
      </trkpt>
      <trkpt lat="31.17506442591548" lon="-5.422726403921843">
        <ele>1583.9100000000001</ele>
        <time>2019-03-12T15:58:02Z</time>
      </trkpt>
      <trkpt lat="31.174989240244031" lon="-5.422728080302477">
        <ele>1583.9100000000001</ele>
        <time>2019-03-12T15:58:06Z</time>
      </trkpt>
      <trkpt lat="31.174715990200639" lon="-5.422733444720507">
        <ele>1583.4300000000001</ele>
        <time>2019-03-12T15:58:07Z</time>
      </trkpt>
      <trkpt lat="31.174653209745884" lon="-5.422726906836033">
        <ele>1583.4300000000001</ele>
        <time>2019-03-12T15:58:10Z</time>
      </trkpt>
      <trkpt lat="31.174453049898148" lon="-5.42268424294889">
        <ele>1582.95</ele>
        <time>2019-03-12T15:58:15Z</time>
      </trkpt>
      <trkpt lat="31.174207543954253" lon="-5.42264518328011">
        <ele>1582.95</ele>
        <time>2019-03-12T15:58:16Z</time>
      </trkpt>
      <trkpt lat="31.174145936965942" lon="-5.422620791941881">
        <ele>1583.4300000000001</ele>
        <time>2019-03-12T15:58:17Z</time>
      </trkpt>
      <trkpt lat="31.174086173996329" lon="-5.422577289864421">
        <ele>1584.8699999999999</ele>
        <time>2019-03-12T15:58:18Z</time>
      </trkpt>
      <trkpt lat="31.174033535644412" lon="-5.422509396448731">
        <ele>1584.8699999999999</ele>
        <time>2019-03-12T15:58:19Z</time>
      </trkpt>
      <trkpt lat="31.173990033566952" lon="-5.422425158321858">
        <ele>1584.3900000000001</ele>
        <time>2019-03-12T15:58:20Z</time>
      </trkpt>
      <trkpt lat="31.173953404650092" lon="-5.422336645424366">
        <ele>1584.3900000000001</ele>
        <time>2019-03-12T15:58:21Z</time>
      </trkpt>
      <trkpt lat="31.173923816531897" lon="-5.422258442267776">
        <ele>1583.9100000000001</ele>
        <time>2019-03-12T15:58:23Z</time>
      </trkpt>
      <trkpt lat="31.173882493749261" lon="-5.422141179442406">
        <ele>1583.4300000000001</ele>
        <time>2019-03-12T15:58:24Z</time>
      </trkpt>
      <trkpt lat="31.173858353868127" lon="-5.422107568010688">
        <ele>1582.95</ele>
        <time>2019-03-12T15:58:25Z</time>
      </trkpt>
      <trkpt lat="31.173832705244422" lon="-5.422084182500839">
        <ele>1584.8699999999999</ele>
        <time>2019-03-12T15:58:26Z</time>
      </trkpt>
      <trkpt lat="31.173796663060784" lon="-5.422071944922209">
        <ele>1585.8299999999999</ele>
        <time>2019-03-12T15:58:27Z</time>
      </trkpt>
      <trkpt lat="31.173749808222055" lon="-5.422076471149921">
        <ele>1586.3099999999999</ele>
        <time>2019-03-12T15:58:28Z</time>
      </trkpt>
      <trkpt lat="31.173691218718886" lon="-5.422099269926548">
        <ele>1586.79</ele>
        <time>2019-03-12T15:58:29Z</time>
      </trkpt>
      <trkpt lat="31.173624163493514" lon="-5.422131288796663">
        <ele>1587.27</ele>
        <time>2019-03-12T15:58:34Z</time>
      </trkpt>
      <trkpt lat="31.173248654231429" lon="-5.422278977930546">
        <ele>1587.75</ele>
        <time>2019-03-12T15:58:35Z</time>
      </trkpt>
      <trkpt lat="31.173181599006057" lon="-5.422285767272115">
        <ele>1588.24</ele>
        <time>2019-03-12T15:58:36Z</time>
      </trkpt>
      <trkpt lat="31.17311630398035" lon="-5.422279564663768">
        <ele>1588.72</ele>
        <time>2019-03-12T15:58:37Z</time>
      </trkpt>
      <trkpt lat="31.173049164935946" lon="-5.42226841673255">
        <ele>1588.72</ele>
        <time>2019-03-12T15:58:38Z</time>
      </trkpt>
      <trkpt lat="31.172978421673179" lon="-5.42226011864841">
        <ele>1589.2</ele>
        <time>2019-03-12T15:58:39Z</time>
      </trkpt>
      <trkpt lat="31.172905918210745" lon="-5.422266656532884">
        <ele>1589.6800000000001</ele>
        <time>2019-03-12T15:58:40Z</time>
      </trkpt>
      <trkpt lat="31.172832828015089" lon="-5.422282749786973">
        <ele>1590.1600000000001</ele>
        <time>2019-03-12T15:58:41Z</time>
      </trkpt>
      <trkpt lat="31.172757474705577" lon="-5.422294400632381">
        <ele>1591.1199999999999</ele>
        <time>2019-03-12T15:58:42Z</time>
      </trkpt>
      <trkpt lat="31.172679271548986" lon="-5.422292724251747">
        <ele>1591.1199999999999</ele>
        <time>2019-03-12T15:58:43Z</time>
      </trkpt>
      <trkpt lat="31.172608863562346" lon="-5.422277553007007">
        <ele>1590.6400000000001</ele>
        <time>2019-03-12T15:58:44Z</time>
      </trkpt>
      <trkpt lat="31.172545915469527" lon="-5.422252407297492">
        <ele>1586.79</ele>
        <time>2019-03-12T15:58:45Z</time>
      </trkpt>
      <trkpt lat="31.172486320137978" lon="-5.422226674854755">
        <ele>1585.8299999999999</ele>
        <time>2019-03-12T15:58:49Z</time>
      </trkpt>
      <trkpt lat="31.172254560515285" lon="-5.422119218856096">
        <ele>1584.8699999999999</ele>
        <time>2019-03-12T15:58:50Z</time>
      </trkpt>
      <trkpt lat="31.17219764739275" lon="-5.422075632959604">
        <ele>1581.03</ele>
        <time>2019-03-12T15:58:51Z</time>
      </trkpt>
      <trkpt lat="31.172136375680566" lon="-5.422018803656101">
        <ele>1572.8499999999999</ele>
        <time>2019-03-12T15:58:56Z</time>
      </trkpt>
      <trkpt lat="31.171887684613466" lon="-5.42168939486146">
        <ele>1572.3699999999999</ele>
        <time>2019-03-12T15:58:57Z</time>
      </trkpt>
      <trkpt lat="31.171856923028827" lon="-5.421624686568975">
        <ele>1571.4100000000001</ele>
        <time>2019-03-12T15:58:58Z</time>
      </trkpt>
      <trkpt lat="31.171830855309963" lon="-5.42155846953392">
        <ele>1567.0899999999999</ele>
        <time>2019-03-12T15:59:02Z</time>
      </trkpt>
      <trkpt lat="31.171753909438848" lon="-5.421328386291862">
        <ele>1563.72</ele>
        <time>2019-03-12T15:59:11Z</time>
      </trkpt>
      <trkpt lat="31.171611417084932" lon="-5.420809295028448">
        <ele>1562.76</ele>
        <time>2019-03-12T15:59:12Z</time>
      </trkpt>
      <trkpt lat="31.171615775674582" lon="-5.420759087428451">
        <ele>1562.28</ele>
        <time>2019-03-12T15:59:13Z</time>
      </trkpt>
      <trkpt lat="31.171627510339022" lon="-5.420701922848821">
        <ele>1561.8</ele>
        <time>2019-03-12T15:59:19Z</time>
      </trkpt>
      <trkpt lat="31.1717823240906" lon="-5.420218789950013">
        <ele>1561.3199999999999</ele>
        <time>2019-03-12T15:59:24Z</time>
      </trkpt>
      <trkpt lat="31.171903107315302" lon="-5.419782930985093">
        <ele>1560.8399999999999</ele>
        <time>2019-03-12T15:59:25Z</time>
      </trkpt>
      <trkpt lat="31.171947866678238" lon="-5.419713109731674">
        <ele>1560.3599999999999</ele>
        <time>2019-03-12T15:59:26Z</time>
      </trkpt>
      <trkpt lat="31.17200662381947" lon="-5.419645635411143">
        <ele>1556.51</ele>
        <time>2019-03-12T15:59:27Z</time>
      </trkpt>
      <trkpt lat="31.17207552306354" lon="-5.419582100585103">
        <ele>1556.51</ele>
        <time>2019-03-12T15:59:28Z</time>
      </trkpt>
      <trkpt lat="31.172149954363704" lon="-5.419525355100632">
        <ele>1556.03</ele>
        <time>2019-03-12T15:59:29Z</time>
      </trkpt>
      <trkpt lat="31.17222698405385" lon="-5.419476237148047">
        <ele>1555.55</ele>
        <time>2019-03-12T15:59:30Z</time>
      </trkpt>
      <trkpt lat="31.172305354848504" lon="-5.419431729242206">
        <ele>1555.0699999999999</ele>
        <time>2019-03-12T15:59:37Z</time>
      </trkpt>
      <trkpt lat="31.172827295958996" lon="-5.419047418981791">
        <ele>1554.5899999999999</ele>
        <time>2019-03-12T15:59:38Z</time>
      </trkpt>
      <trkpt lat="31.172872306779027" lon="-5.418970808386803">
        <ele>1554.1099999999999</ele>
        <time>2019-03-12T15:59:39Z</time>
      </trkpt>
      <trkpt lat="31.172893596813083" lon="-5.418886821717024">
        <ele>1553.1500000000001</ele>
        <time>2019-03-12T15:59:40Z</time>
      </trkpt>
      <trkpt lat="31.172889741137624" lon="-5.418801493942738">
        <ele>1552.6700000000001</ele>
        <time>2019-03-12T15:59:41Z</time>
      </trkpt>
      <trkpt lat="31.172863254323602" lon="-5.418723877519369">
        <ele>1549.78</ele>
        <time>2019-03-12T15:59:42Z</time>
      </trkpt>
      <trkpt lat="31.172829391434789" lon="-5.418659169226885">
        <ele>1548.8199999999999</ele>
        <time>2019-03-12T15:59:43Z</time>
      </trkpt>
      <trkpt lat="31.1727977078408" lon="-5.418606195598841">
        <ele>1548.3399999999999</ele>
        <time>2019-03-12T15:59:44Z</time>
      </trkpt>
      <trkpt lat="31.172773148864508" lon="-5.418549785390496">
        <ele>1545.9400000000001</ele>
        <time>2019-03-12T15:59:45Z</time>
      </trkpt>
      <trkpt lat="31.172758061438799" lon="-5.41848105378449">
        <ele>1543.53</ele>
        <time>2019-03-12T15:59:52Z</time>
      </trkpt>
      <trkpt lat="31.172659825533628" lon="-5.417953161522746">
        <ele>1543.05</ele>
        <time>2019-03-12T15:59:53Z</time>
      </trkpt>
      <trkpt lat="31.172637613490224" lon="-5.417910413816571">
        <ele>1542.5699999999999</ele>
        <time>2019-03-12T15:59:54Z</time>
      </trkpt>
      <trkpt lat="31.1726129706949" lon="-5.417883759364486">
        <ele>1542.5699999999999</ele>
        <time>2019-03-12T16:00:02Z</time>
      </trkpt>
      <trkpt lat="31.172601822763681" lon="-5.417879149317741">
        <ele>1542.0899999999999</ele>
        <time>2019-03-12T16:00:50Z</time>
      </trkpt>
      <trkpt lat="31.172603247687221" lon="-5.417881328612566">
        <ele>1541.1300000000001</ele>
        <time>2019-03-12T16:00:52Z</time>
      </trkpt>
      <trkpt lat="31.172543652355671" lon="-5.417849896475673">
        <ele>1541.6099999999999</ele>
        <time>2019-03-12T16:00:54Z</time>
      </trkpt>
      <trkpt lat="31.172449858859181" lon="-5.417845956981182">
        <ele>1539.6900000000001</ele>
        <time>2019-03-12T16:00:55Z</time>
      </trkpt>
      <trkpt lat="31.172394622117281" lon="-5.417856518179178">
        <ele>1536.3199999999999</ele>
        <time>2019-03-12T16:00:56Z</time>
      </trkpt>
      <trkpt lat="31.17233645170927" lon="-5.417875377461314">
        <ele>1534.8800000000001</ele>
        <time>2019-03-12T16:01:01Z</time>
      </trkpt>
      <trkpt lat="31.172038558870554" lon="-5.418002950027585">
        <ele>1535.3599999999999</ele>
        <time>2019-03-12T16:01:04Z</time>
      </trkpt>
      <trkpt lat="31.17184879258275" lon="-5.418031113222241">
        <ele>1536.3199999999999</ele>
        <time>2019-03-12T16:01:10Z</time>
      </trkpt>
      <trkpt lat="31.171485017985106" lon="-5.41816983371973">
        <ele>1538.73</ele>
        <time>2019-03-12T16:01:15Z</time>
      </trkpt>
      <trkpt lat="31.171140521764755" lon="-5.418208139017224">
        <ele>1541.1300000000001</ele>
        <time>2019-03-12T16:01:20Z</time>
      </trkpt>
      <trkpt lat="31.17083047516644" lon="-5.418159523978829">
        <ele>1541.6099999999999</ele>
        <time>2019-03-12T16:01:27Z</time>
      </trkpt>
      <trkpt lat="31.17033745162189" lon="-5.418114513158798">
        <ele>1545.9400000000001</ele>
        <time>2019-03-12T16:01:31Z</time>
      </trkpt>
      <trkpt lat="31.17005405947566" lon="-5.418182071298361">
        <ele>1548.8199999999999</ele>
        <time>2019-03-12T16:01:34Z</time>
      </trkpt>
      <trkpt lat="31.169837387278676" lon="-5.418257005512714">
        <ele>1546.4200000000001</ele>
        <time>2019-03-12T16:01:42Z</time>
      </trkpt>
      <trkpt lat="31.169404964894056" lon="-5.418632347136736">
        <ele>1545.9400000000001</ele>
        <time>2019-03-12T16:01:44Z</time>
      </trkpt>
      <trkpt lat="31.169279823079705" lon="-5.418700408190489">
        <ele>1541.1300000000001</ele>
        <time>2019-03-12T16:01:49Z</time>
      </trkpt>
      <trkpt lat="31.168935913592577" lon="-5.418839631602168">
        <ele>1536.8</ele>
        <time>2019-03-12T16:01:53Z</time>
      </trkpt>
      <trkpt lat="31.16862628608942" lon="-5.41889201849699">
        <ele>1534.8800000000001</ele>
        <time>2019-03-12T16:02:03Z</time>
      </trkpt>
      <trkpt lat="31.167769487947226" lon="-5.418975669890642">
        <ele>1530.5599999999999</ele>
        <time>2019-03-12T16:02:04Z</time>
      </trkpt>
      <trkpt lat="31.167704444378614" lon="-5.418982207775116">
        <ele>1530.0799999999999</ele>
        <time>2019-03-12T16:02:10Z</time>
      </trkpt>
      <trkpt lat="31.16748970001936" lon="-5.419232407584786">
        <ele>1528.6300000000001</ele>
        <time>2019-03-12T16:02:17Z</time>
      </trkpt>
      <trkpt lat="31.16729574277997" lon="-5.419275322929025">
        <ele>1528.1500000000001</ele>
        <time>2019-03-12T16:02:20Z</time>
      </trkpt>
      <trkpt lat="31.167245535179973" lon="-5.419022440910339">
        <ele>1528.6300000000001</ele>
        <time>2019-03-12T16:02:27Z</time>
      </trkpt>
      <trkpt lat="31.167006148025393" lon="-5.418711053207517">
        <ele>1529.1099999999999</ele>
        <time>2019-03-12T16:02:28Z</time>
      </trkpt>
      <trkpt lat="31.166947307065129" lon="-5.418752627447248">
        <ele>1530.5599999999999</ele>
        <time>2019-03-12T16:02:31Z</time>
      </trkpt>
      <trkpt lat="31.166744967922568" lon="-5.418912805616856">
        <ele>1529.1099999999999</ele>
        <time>2019-03-12T16:02:33Z</time>
      </trkpt>
      <trkpt lat="31.166616473346949" lon="-5.419041970744729">
        <ele>1527.6700000000001</ele>
        <time>2019-03-12T16:02:40Z</time>
      </trkpt>
      <trkpt lat="31.16614306345582" lon="-5.419205166399479">
        <ele>1523.3499999999999</ele>
        <time>2019-03-12T16:02:42Z</time>
      </trkpt>
      <trkpt lat="31.166006857529283" lon="-5.419285967946053">
        <ele>1519.98</ele>
        <time>2019-03-12T16:02:45Z</time>
      </trkpt>
      <trkpt lat="31.165814409032464" lon="-5.419355453923345">
        <ele>1515.1800000000001</ele>
        <time>2019-03-12T16:02:55Z</time>
      </trkpt>
      <trkpt lat="31.165274111554027" lon="-5.419731298461556">
        <ele>1507.48</ele>
        <time>2019-03-12T16:02:58Z</time>
      </trkpt>
      <trkpt lat="31.165129942819476" lon="-5.419887788593769">
        <ele>1501.24</ele>
        <time>2019-03-12T16:03:05Z</time>
      </trkpt>
      <trkpt lat="31.164630046114326" lon="-5.420014439150691">
        <ele>1498.3499999999999</ele>
        <time>2019-03-12T16:03:09Z</time>
      </trkpt>
      <trkpt lat="31.164390239864588" lon="-5.419817548245192">
        <ele>1495.47</ele>
        <time>2019-03-12T16:03:16Z</time>
      </trkpt>
      <trkpt lat="31.164065105840564" lon="-5.419805478304625">
        <ele>1493.55</ele>
        <time>2019-03-12T16:03:27Z</time>
      </trkpt>
      <trkpt lat="31.163661936298013" lon="-5.420358683913946">
        <ele>1492.0999999999999</ele>
        <time>2019-03-12T16:03:36Z</time>
      </trkpt>
      <trkpt lat="31.163351386785507" lon="-5.420676693320274">
        <ele>1482.97</ele>
        <time>2019-03-12T16:03:40Z</time>
      </trkpt>
      <trkpt lat="31.163123231381178" lon="-5.420717429369688">
        <ele>1476.72</ele>
        <time>2019-03-12T16:03:44Z</time>
      </trkpt>
      <trkpt lat="31.162861045449972" lon="-5.420628832653165">
        <ele>1470.47</ele>
        <time>2019-03-12T16:03:48Z</time>
      </trkpt>
      <trkpt lat="31.162658287212253" lon="-5.420636460185051">
        <ele>1465.1900000000001</ele>
        <time>2019-03-12T16:03:50Z</time>
      </trkpt>
      <trkpt lat="31.162575641646981" lon="-5.420725978910923">
        <ele>1462.78</ele>
        <time>2019-03-12T16:04:01Z</time>
      </trkpt>
      <trkpt lat="31.162097454071045" lon="-5.421158233657479">
        <ele>1461.8199999999999</ele>
        <time>2019-03-12T16:04:11Z</time>
      </trkpt>
      <trkpt lat="31.161728817969561" lon="-5.421614963561297">
        <ele>1457.5</ele>
        <time>2019-03-12T16:04:22Z</time>
      </trkpt>
      <trkpt lat="31.161334114149213" lon="-5.422022407874465">
        <ele>1448.8399999999999</ele>
        <time>2019-03-12T16:04:31Z</time>
      </trkpt>
      <trkpt lat="31.160918958485126" lon="-5.422220891341567">
        <ele>1445.96</ele>
        <time>2019-03-12T16:04:37Z</time>
      </trkpt>
      <trkpt lat="31.160958185791969" lon="-5.422081332653761">
        <ele>1444.04</ele>
        <time>2019-03-12T16:04:40Z</time>
      </trkpt>
      <trkpt lat="31.161061115562916" lon="-5.422024670988321">
        <ele>1442.5999999999999</ele>
        <time>2019-03-12T16:04:48Z</time>
      </trkpt>
      <trkpt lat="31.161230178549886" lon="-5.42158872820437">
        <ele>1439.23</ele>
        <time>2019-03-12T16:04:58Z</time>
      </trkpt>
      <trkpt lat="31.161448443308473" lon="-5.420989422127605">
        <ele>1437.79</ele>
        <time>2019-03-12T16:05:03Z</time>
      </trkpt>
      <trkpt lat="31.161468056961894" lon="-5.420729080215097">
        <ele>1435.3900000000001</ele>
        <time>2019-03-12T16:05:05Z</time>
      </trkpt>
      <trkpt lat="31.161493789404631" lon="-5.420597065240145">
        <ele>1432.5</ele>
        <time>2019-03-12T16:05:07Z</time>
      </trkpt>
      <trkpt lat="31.161498902365565" lon="-5.420465804636478">
        <ele>1430.0999999999999</ele>
        <time>2019-03-12T16:05:11Z</time>
      </trkpt>
      <trkpt lat="31.161547349765897" lon="-5.420241504907608">
        <ele>1427.7</ele>
        <time>2019-03-12T16:05:14Z</time>
      </trkpt>
      <trkpt lat="31.161587415263057" lon="-5.420116698369384">
        <ele>1422.8900000000001</ele>
        <time>2019-03-12T16:05:19Z</time>
      </trkpt>
      <trkpt lat="31.161453137174249" lon="-5.420085182413459">
        <ele>1418.0799999999999</ele>
        <time>2019-03-12T16:05:24Z</time>
      </trkpt>
      <trkpt lat="31.1612259875983" lon="-5.420213006436825">
        <ele>1413.28</ele>
        <time>2019-03-12T16:05:30Z</time>
      </trkpt>
      <trkpt lat="31.160995401442051" lon="-5.4203559178859">
        <ele>1411.8299999999999</ele>
        <time>2019-03-12T16:05:35Z</time>
      </trkpt>
      <trkpt lat="31.160898506641388" lon="-5.420217113569379">
        <ele>1410.3900000000001</ele>
        <time>2019-03-12T16:05:41Z</time>
      </trkpt>
      <trkpt lat="31.160874282941222" lon="-5.419888040050864">
        <ele>1411.8299999999999</ele>
        <time>2019-03-12T16:05:47Z</time>
      </trkpt>
      <trkpt lat="31.160682337358594" lon="-5.419594086706638">
        <ele>1413.76</ele>
        <time>2019-03-12T16:05:53Z</time>
      </trkpt>
      <trkpt lat="31.16069776006043" lon="-5.419312957674265">
        <ele>1414.24</ele>
        <time>2019-03-12T16:05:55Z</time>
      </trkpt>
      <trkpt lat="31.160778813064098" lon="-5.419230982661247">
        <ele>1420.49</ele>
        <time>2019-03-12T16:05:59Z</time>
      </trkpt>
      <trkpt lat="31.160822734236717" lon="-5.419065356254578">
        <ele>1421.45</ele>
        <time>2019-03-12T16:06:02Z</time>
      </trkpt>
      <trkpt lat="31.160768670961261" lon="-5.41897458024323">
        <ele>1420.49</ele>
        <time>2019-03-12T16:06:05Z</time>
      </trkpt>
      <trkpt lat="31.160718882456422" lon="-5.418817503377795">
        <ele>1421.9300000000001</ele>
        <time>2019-03-12T16:06:07Z</time>
      </trkpt>
      <trkpt lat="31.160674039274454" lon="-5.418703258037567">
        <ele>1423.8499999999999</ele>
        <time>2019-03-12T16:06:17Z</time>
      </trkpt>
      <trkpt lat="31.160554764792323" lon="-5.418119542300701">
        <ele>1423.3699999999999</ele>
        <time>2019-03-12T16:06:23Z</time>
      </trkpt>
      <trkpt lat="31.160673536360264" lon="-5.417730119079351">
        <ele>1422.4100000000001</ele>
        <time>2019-03-12T16:06:26Z</time>
      </trkpt>
      <trkpt lat="31.160692982375622" lon="-5.417471788823605">
        <ele>1421.45</ele>
        <time>2019-03-12T16:06:33Z</time>
      </trkpt>
      <trkpt lat="31.160441609099507" lon="-5.417153611779213">
        <ele>1420.49</ele>
        <time>2019-03-12T16:06:41Z</time>
      </trkpt>
      <trkpt lat="31.160087557509542" lon="-5.416962336748838">
        <ele>1420.49</ele>
        <time>2019-03-12T16:06:47Z</time>
      </trkpt>
      <trkpt lat="31.159821432083845" lon="-5.416806600987911">
        <ele>1418.0799999999999</ele>
        <time>2019-03-12T16:06:51Z</time>
      </trkpt>
      <trkpt lat="31.159673240035772" lon="-5.416656984016299">
        <ele>1417.1199999999999</ele>
        <time>2019-03-12T16:06:59Z</time>
      </trkpt>
      <trkpt lat="31.159525802358985" lon="-5.416349451988936">
        <ele>1416.1600000000001</ele>
        <time>2019-03-12T16:07:08Z</time>
      </trkpt>
      <trkpt lat="31.159489341080189" lon="-5.416169492527843">
        <ele>1414.72</ele>
        <time>2019-03-12T16:07:10Z</time>
      </trkpt>
      <trkpt lat="31.159487413242459" lon="-5.416173096746206">
        <ele>1413.76</ele>
        <time>2019-03-12T16:07:18Z</time>
      </trkpt>
      <trkpt lat="31.159327570348978" lon="-5.416394211351872">
        <ele>1409.9100000000001</ele>
        <time>2019-03-12T16:07:19Z</time>
      </trkpt>
      <trkpt lat="31.159294126555324" lon="-5.416437545791268">
        <ele>1409.4300000000001</ele>
        <time>2019-03-12T16:07:22Z</time>
      </trkpt>
      <trkpt lat="31.15918843075633" lon="-5.416537374258041">
        <ele>1406.0699999999999</ele>
        <time>2019-03-12T16:07:32Z</time>
      </trkpt>
      <trkpt lat="31.158850975334644" lon="-5.416506445035338">
        <ele>1405.0999999999999</ele>
        <time>2019-03-12T16:07:35Z</time>
      </trkpt>
      <trkpt lat="31.158723989501595" lon="-5.416472163051367">
        <ele>1403.6600000000001</ele>
        <time>2019-03-12T16:07:42Z</time>
      </trkpt>
      <trkpt lat="31.158469347283244" lon="-5.416693696752191">
        <ele>1401.74</ele>
        <time>2019-03-12T16:07:43Z</time>
      </trkpt>
      <trkpt lat="31.158458702266216" lon="-5.416735941544175">
        <ele>1401.26</ele>
        <time>2019-03-12T16:07:52Z</time>
      </trkpt>
      <trkpt lat="31.158080007880926" lon="-5.416918499395251">
        <ele>1400.78</ele>
        <time>2019-03-12T16:07:55Z</time>
      </trkpt>
      <trkpt lat="31.157913459464908" lon="-5.416867788881064">
        <ele>1397.4100000000001</ele>
        <time>2019-03-12T16:07:58Z</time>
      </trkpt>
      <trkpt lat="31.157778846099973" lon="-5.416790004819632">
        <ele>1394.05</ele>
        <time>2019-03-12T16:08:03Z</time>
      </trkpt>
      <trkpt lat="31.157690836116672" lon="-5.416952949017286">
        <ele>1393.5699999999999</ele>
        <time>2019-03-12T16:08:08Z</time>
      </trkpt>
      <trkpt lat="31.157717406749725" lon="-5.417301049456">
        <ele>1393.0899999999999</ele>
        <time>2019-03-12T16:08:11Z</time>
      </trkpt>
      <trkpt lat="31.15771422162652" lon="-5.417538089677692">
        <ele>1391.1700000000001</ele>
        <time>2019-03-12T16:08:19Z</time>
      </trkpt>
      <trkpt lat="31.157333431765437" lon="-5.418006721884012">
        <ele>1382.99</ele>
        <time>2019-03-12T16:08:25Z</time>
      </trkpt>
      <trkpt lat="31.157047105953097" lon="-5.418386338278651">
        <ele>1382.03</ele>
        <time>2019-03-12T16:08:27Z</time>
      </trkpt>
      <trkpt lat="31.156957671046257" lon="-5.418507708236575">
        <ele>1374.8199999999999</ele>
        <time>2019-03-12T16:08:29Z</time>
      </trkpt>
      <trkpt lat="31.15685323253274" lon="-5.418606614693999">
        <ele>1371.9400000000001</ele>
        <time>2019-03-12T16:08:35Z</time>
      </trkpt>
      <trkpt lat="31.156663717702031" lon="-5.41899754665792">
        <ele>1373.3800000000001</ele>
        <time>2019-03-12T16:08:44Z</time>
      </trkpt>
      <trkpt lat="31.156225427985191" lon="-5.419452851638198">
        <ele>1376.75</ele>
        <time>2019-03-12T16:08:45Z</time>
      </trkpt>
      <trkpt lat="31.156201036646962" lon="-5.41952770203352">
        <ele>1375.3</ele>
        <time>2019-03-12T16:08:52Z</time>
      </trkpt>
      <trkpt lat="31.156025435775518" lon="-5.420051068067551">
        <ele>1374.8199999999999</ele>
        <time>2019-03-12T16:08:56Z</time>
      </trkpt>
      <trkpt lat="31.155897444114089" lon="-5.420224322006106">
        <ele>1375.3</ele>
        <time>2019-03-12T16:09:00Z</time>
      </trkpt>
      <trkpt lat="31.155674653127789" lon="-5.420336723327637">
        <ele>1377.71</ele>
        <time>2019-03-12T16:09:04Z</time>
      </trkpt>
      <trkpt lat="31.155501734465361" lon="-5.420472091063857">
        <ele>1378.6700000000001</ele>
        <time>2019-03-12T16:09:07Z</time>
      </trkpt>
      <trkpt lat="31.155358655378222" lon="-5.420665629208088">
        <ele>1375.78</ele>
        <time>2019-03-12T16:09:16Z</time>
      </trkpt>
      <trkpt lat="31.154849706217647" lon="-5.42107910849154">
        <ele>1375.3</ele>
        <time>2019-03-12T16:09:20Z</time>
      </trkpt>
      <trkpt lat="31.154731856659055" lon="-5.421200143173337">
        <ele>1375.3</ele>
        <time>2019-03-12T16:09:28Z</time>
      </trkpt>
      <trkpt lat="31.154352659359574" lon="-5.421445984393358">
        <ele>1374.3399999999999</ele>
        <time>2019-03-12T16:09:34Z</time>
      </trkpt>
      <trkpt lat="31.154057197272778" lon="-5.421480350196362">
        <ele>1374.3399999999999</ele>
        <time>2019-03-12T16:09:38Z</time>
      </trkpt>
      <trkpt lat="31.15379543043673" lon="-5.421564923599362">
        <ele>1373.8599999999999</ele>
        <time>2019-03-12T16:09:46Z</time>
      </trkpt>
      <trkpt lat="31.153249936178327" lon="-5.421733483672142">
        <ele>1375.78</ele>
        <time>2019-03-12T16:09:50Z</time>
      </trkpt>
      <trkpt lat="31.15310593508184" lon="-5.421947641298175">
        <ele>1376.75</ele>
        <time>2019-03-12T16:09:53Z</time>
      </trkpt>
      <trkpt lat="31.15307223983109" lon="-5.422206642106175">
        <ele>1379.1500000000001</ele>
        <time>2019-03-12T16:09:55Z</time>
      </trkpt>
      <trkpt lat="31.15307274274528" lon="-5.422382494434714">
        <ele>1380.1099999999999</ele>
        <time>2019-03-12T16:10:01Z</time>
      </trkpt>
      <trkpt lat="31.152871744707227" lon="-5.42273604311049">
        <ele>1382.03</ele>
        <time>2019-03-12T16:10:04Z</time>
      </trkpt>
      <trkpt lat="31.152819776907563" lon="-5.422911057248712">
        <ele>1387.3199999999999</ele>
        <time>2019-03-12T16:10:14Z</time>
      </trkpt>
      <trkpt lat="31.152659682556987" lon="-5.42366785928607">
        <ele>1387.3199999999999</ele>
        <time>2019-03-12T16:10:21Z</time>
      </trkpt>
      <trkpt lat="31.152634788304567" lon="-5.424184184521437">
        <ele>1386.8399999999999</ele>
        <time>2019-03-12T16:10:24Z</time>
      </trkpt>
      <trkpt lat="31.152665298432112" lon="-5.424399264156818">
        <ele>1387.3199999999999</ele>
        <time>2019-03-12T16:10:30Z</time>
      </trkpt>
      <trkpt lat="31.15242775529623" lon="-5.424600597470999">
        <ele>1386.8399999999999</ele>
        <time>2019-03-12T16:10:37Z</time>
      </trkpt>
      <trkpt lat="31.152234803885221" lon="-5.4248664714396">
        <ele>1384.4400000000001</ele>
        <time>2019-03-12T16:10:42Z</time>
      </trkpt>
      <trkpt lat="31.152398083359003" lon="-5.42508490383625">
        <ele>1382.99</ele>
        <time>2019-03-12T16:10:44Z</time>
      </trkpt>
      <trkpt lat="31.152430772781372" lon="-5.425211302936077">
        <ele>1382.51</ele>
        <time>2019-03-12T16:10:52Z</time>
      </trkpt>
      <trkpt lat="31.152325328439474" lon="-5.425444655120373">
        <ele>1381.0699999999999</ele>
        <time>2019-03-12T16:10:54Z</time>
      </trkpt>
      <trkpt lat="31.152291968464851" lon="-5.425497964024544">
        <ele>1379.6300000000001</ele>
        <time>2019-03-12T16:11:01Z</time>
      </trkpt>
      <trkpt lat="31.152242012321949" lon="-5.42588621377945">
        <ele>1376.75</ele>
        <time>2019-03-12T16:11:05Z</time>
      </trkpt>
      <trkpt lat="31.152338907122612" lon="-5.426219813525677">
        <ele>1373.3800000000001</ele>
        <time>2019-03-12T16:11:07Z</time>
      </trkpt>
      <trkpt lat="31.152407638728619" lon="-5.426380578428507">
        <ele>1369.05</ele>
        <time>2019-03-12T16:11:14Z</time>
      </trkpt>
      <trkpt lat="31.152445357292891" lon="-5.426808893680573">
        <ele>1365.6900000000001</ele>
        <time>2019-03-12T16:11:18Z</time>
      </trkpt>
      <trkpt lat="31.15261148661375" lon="-5.426971586421132">
        <ele>1363.77</ele>
        <time>2019-03-12T16:11:23Z</time>
      </trkpt>
      <trkpt lat="31.152935363352299" lon="-5.427126148715615">
        <ele>1361.8399999999999</ele>
        <time>2019-03-12T16:11:30Z</time>
      </trkpt>
      <trkpt lat="31.153276842087507" lon="-5.427116760984063">
        <ele>1358.48</ele>
        <time>2019-03-12T16:11:36Z</time>
      </trkpt>
      <trkpt lat="31.153397541493177" lon="-5.427498975768685">
        <ele>1354.1500000000001</ele>
        <time>2019-03-12T16:11:41Z</time>
      </trkpt>
      <trkpt lat="31.153395362198353" lon="-5.42775864712894">
        <ele>1351.27</ele>
        <time>2019-03-12T16:11:46Z</time>
      </trkpt>
      <trkpt lat="31.153210792690516" lon="-5.428022174164653">
        <ele>1348.8699999999999</ele>
        <time>2019-03-12T16:11:48Z</time>
      </trkpt>
      <trkpt lat="31.15318363532424" lon="-5.428184950724244">
        <ele>1345.98</ele>
        <time>2019-03-12T16:11:53Z</time>
      </trkpt>
      <trkpt lat="31.153001915663481" lon="-5.428257118910551">
        <ele>1338.29</ele>
        <time>2019-03-12T16:11:58Z</time>
      </trkpt>
      <trkpt lat="31.15279471501708" lon="-5.428029047325254">
        <ele>1334.45</ele>
        <time>2019-03-12T16:12:02Z</time>
      </trkpt>
      <trkpt lat="31.152708129957318" lon="-5.428276564925909">
        <ele>1330.1199999999999</ele>
        <time>2019-03-12T16:12:05Z</time>
      </trkpt>
      <trkpt lat="31.152663202956319" lon="-5.428494494408369">
        <ele>1325.3099999999999</ele>
        <time>2019-03-12T16:12:08Z</time>
      </trkpt>
      <trkpt lat="31.152647277340293" lon="-5.428724074736238">
        <ele>1321.47</ele>
        <time>2019-03-12T16:12:15Z</time>
      </trkpt>
      <trkpt lat="31.152341086417437" lon="-5.429163789376617">
        <ele>1310.4100000000001</ele>
        <time>2019-03-12T16:12:19Z</time>
      </trkpt>
      <trkpt lat="31.152198342606425" lon="-5.429421616718173">
        <ele>1308.01</ele>
        <time>2019-03-12T16:12:23Z</time>
      </trkpt>
      <trkpt lat="31.152041768655181" lon="-5.429746583104134">
        <ele>1303.6900000000001</ele>
        <time>2019-03-12T16:12:29Z</time>
      </trkpt>
      <trkpt lat="31.151715628802776" lon="-5.430174227803946">
        <ele>1303.2</ele>
        <time>2019-03-12T16:12:33Z</time>
      </trkpt>
      <trkpt lat="31.151548074558377" lon="-5.430499110370874">
        <ele>1301.28</ele>
        <time>2019-03-12T16:12:44Z</time>
      </trkpt>
      <trkpt lat="31.151279686018825" lon="-5.431787827983499">
        <ele>1299.3599999999999</ele>
        <time>2019-03-12T16:12:49Z</time>
      </trkpt>
      <trkpt lat="31.151241213083267" lon="-5.432228883728385">
        <ele>1301.28</ele>
        <time>2019-03-12T16:12:56Z</time>
      </trkpt>
      <trkpt lat="31.151027139276266" lon="-5.43239576742053">
        <ele>1302.72</ele>
        <time>2019-03-12T16:12:57Z</time>
      </trkpt>
      <trkpt lat="31.150965867564082" lon="-5.432350002229214">
        <ele>1302.72</ele>
        <time>2019-03-12T16:12:59Z</time>
      </trkpt>
      <trkpt lat="31.150846760720015" lon="-5.432260818779469">
        <ele>1302.24</ele>
        <time>2019-03-12T16:13:05Z</time>
      </trkpt>
      <trkpt lat="31.150649534538388" lon="-5.432377578690648">
        <ele>1300.8</ele>
        <time>2019-03-12T16:13:11Z</time>
      </trkpt>
      <trkpt lat="31.15044048987329" lon="-5.432361904531717">
        <ele>1300.8</ele>
        <time>2019-03-12T16:13:17Z</time>
      </trkpt>
      <trkpt lat="31.150291878730059" lon="-5.431966530159116">
        <ele>1297.9200000000001</ele>
        <time>2019-03-12T16:13:20Z</time>
      </trkpt>
      <trkpt lat="31.150138238444924" lon="-5.432013049721718">
        <ele>1296.96</ele>
        <time>2019-03-12T16:13:27Z</time>
      </trkpt>
      <trkpt lat="31.149641862139106" lon="-5.432421248406172">
        <ele>1293.5899999999999</ele>
        <time>2019-03-12T16:13:30Z</time>
      </trkpt>
      <trkpt lat="31.149405827745795" lon="-5.432598777115345">
        <ele>1292.6300000000001</ele>
        <time>2019-03-12T16:13:33Z</time>
      </trkpt>
      <trkpt lat="31.14920474588871" lon="-5.432766247540712">
        <ele>1291.6700000000001</ele>
        <time>2019-03-12T16:13:38Z</time>
      </trkpt>
      <trkpt lat="31.149059319868684" lon="-5.433122729882598">
        <ele>1290.23</ele>
        <time>2019-03-12T16:13:44Z</time>
      </trkpt>
      <trkpt lat="31.14873661659658" lon="-5.433351388201118">
        <ele>1290.71</ele>
        <time>2019-03-12T16:13:48Z</time>
      </trkpt>
      <trkpt lat="31.148391617462039" lon="-5.433371588587761">
        <ele>1286.8599999999999</ele>
        <time>2019-03-12T16:13:50Z</time>
      </trkpt>
      <trkpt lat="31.148253232240677" lon="-5.433380389586091">
        <ele>1285.4200000000001</ele>
        <time>2019-03-12T16:13:54Z</time>
      </trkpt>
      <trkpt lat="31.148009151220322" lon="-5.433417605236173">
        <ele>1285.9000000000001</ele>
        <time>2019-03-12T16:13:59Z</time>
      </trkpt>
      <trkpt lat="31.147770686075091" lon="-5.433598905801773">
        <ele>1286.3800000000001</ele>
        <time>2019-03-12T16:14:08Z</time>
      </trkpt>
      <trkpt lat="31.147499280050397" lon="-5.434060329571366">
        <ele>1285.9000000000001</ele>
        <time>2019-03-12T16:14:12Z</time>
      </trkpt>
      <trkpt lat="31.1472228448838" lon="-5.434269458055496">
        <ele>1284.9400000000001</ele>
        <time>2019-03-12T16:14:16Z</time>
      </trkpt>
      <trkpt lat="31.147081693634391" lon="-5.434488477185369">
        <ele>1284.9400000000001</ele>
        <time>2019-03-12T16:14:19Z</time>
      </trkpt>
      <trkpt lat="31.147067863494158" lon="-5.434665670618415">
        <ele>1283.02</ele>
        <time>2019-03-12T16:14:21Z</time>
      </trkpt>
      <trkpt lat="31.147037940099835" lon="-5.434794584289193">
        <ele>1282.0599999999999</ele>
        <time>2019-03-12T16:14:27Z</time>
      </trkpt>
      <trkpt lat="31.146861668676138" lon="-5.435144528746605">
        <ele>1281.5699999999999</ele>
        <time>2019-03-12T16:14:34Z</time>
      </trkpt>
      <trkpt lat="31.14650652743876" lon="-5.435328176245093">
        <ele>1283.02</ele>
        <time>2019-03-12T16:14:36Z</time>
      </trkpt>
      <trkpt lat="31.146398736163974" lon="-5.435396991670132">
        <ele>1282.54</ele>
        <time>2019-03-12T16:14:42Z</time>
      </trkpt>
      <trkpt lat="31.14609656855464" lon="-5.43547217734158">
        <ele>1280.6099999999999</ele>
        <time>2019-03-12T16:14:54Z</time>
      </trkpt>
      <trkpt lat="31.145177157595754" lon="-5.435383412986994">
        <ele>1277.73</ele>
        <time>2019-03-12T16:14:55Z</time>
      </trkpt>
      <trkpt lat="31.145097697153687" lon="-5.435375114902854">
        <ele>1275.3299999999999</ele>
        <time>2019-03-12T16:14:59Z</time>
      </trkpt>
      <trkpt lat="31.14481489174068" lon="-5.435400092974305">
        <ele>1271</ele>
        <time>2019-03-12T16:15:07Z</time>
      </trkpt>
      <trkpt lat="31.144235199317336" lon="-5.43563436716795">
        <ele>1270.52</ele>
        <time>2019-03-12T16:15:12Z</time>
      </trkpt>
      <trkpt lat="31.143890451639891" lon="-5.435573095455766">
        <ele>1270.52</ele>
        <time>2019-03-12T16:15:19Z</time>
      </trkpt>
      <trkpt lat="31.143361888825893" lon="-5.43512667529285">
        <ele>1264.27</ele>
        <time>2019-03-12T16:15:26Z</time>
      </trkpt>
      <trkpt lat="31.14288043230772" lon="-5.434917965903878">
        <ele>1264.27</ele>
        <time>2019-03-12T16:15:32Z</time>
      </trkpt>
      <trkpt lat="31.142398221418262" lon="-5.434828028082848">
        <ele>1265.71</ele>
        <time>2019-03-12T16:15:34Z</time>
      </trkpt>
      <trkpt lat="31.14223544485867" lon="-5.434866920113564">
        <ele>1264.75</ele>
        <time>2019-03-12T16:15:36Z</time>
      </trkpt>
      <trkpt lat="31.142076188698411" lon="-5.434885108843446">
        <ele>1262.3499999999999</ele>
        <time>2019-03-12T16:15:47Z</time>
      </trkpt>
      <trkpt lat="31.141207488253713" lon="-5.434750746935606">
        <ele>1259.9400000000001</ele>
        <time>2019-03-12T16:15:52Z</time>
      </trkpt>
      <trkpt lat="31.14081647247076" lon="-5.434691067785025">
        <ele>1259.46</ele>
        <time>2019-03-12T16:15:56Z</time>
      </trkpt>
      <trkpt lat="31.140610110014677" lon="-5.434753764420748">
        <ele>1258.5</ele>
        <time>2019-03-12T16:16:00Z</time>
      </trkpt>
      <trkpt lat="31.140341302379966" lon="-5.434899525716901">
        <ele>1258.02</ele>
        <time>2019-03-12T16:16:05Z</time>
      </trkpt>
      <trkpt lat="31.13998188637197" lon="-5.434945123270154">
        <ele>1257.54</ele>
        <time>2019-03-12T16:16:09Z</time>
      </trkpt>
      <trkpt lat="31.139710228890181" lon="-5.434965323656797">
        <ele>1258.5</ele>
        <time>2019-03-12T16:16:15Z</time>
      </trkpt>
      <trkpt lat="31.139418287202716" lon="-5.435074791312218">
        <ele>1258.98</ele>
        <time>2019-03-12T16:16:21Z</time>
      </trkpt>
      <trkpt lat="31.139138080179691" lon="-5.435400428250432">
        <ele>1258.5</ele>
        <time>2019-03-12T16:16:25Z</time>
      </trkpt>
      <trkpt lat="31.139028696343303" lon="-5.435556499287486">
        <ele>1258.5</ele>
        <time>2019-03-12T16:16:30Z</time>
      </trkpt>
      <trkpt lat="31.139016961678863" lon="-5.435815248638392">
        <ele>1259.46</ele>
        <time>2019-03-12T16:16:39Z</time>
      </trkpt>
      <trkpt lat="31.139138415455818" lon="-5.436436850577593">
        <ele>1260.4300000000001</ele>
        <time>2019-03-12T16:16:43Z</time>
      </trkpt>
      <trkpt lat="31.139187533408403" lon="-5.436711944639683">
        <ele>1261.8699999999999</ele>
        <time>2019-03-12T16:16:50Z</time>
      </trkpt>
      <trkpt lat="31.139366822317243" lon="-5.437201028689742">
        <ele>1262.8299999999999</ele>
        <time>2019-03-12T16:16:54Z</time>
      </trkpt>
      <trkpt lat="31.139400014653802" lon="-5.437487019225955">
        <ele>1263.79</ele>
        <time>2019-03-12T16:17:00Z</time>
      </trkpt>
      <trkpt lat="31.139263221994042" lon="-5.437792455777526">
        <ele>1264.75</ele>
        <time>2019-03-12T16:17:06Z</time>
      </trkpt>
      <trkpt lat="31.139121148735285" lon="-5.437852134928107">
        <ele>1265.71</ele>
        <time>2019-03-12T16:17:10Z</time>
      </trkpt>
      <trkpt lat="31.139009669423103" lon="-5.438020024448633">
        <ele>1266.1900000000001</ele>
        <time>2019-03-12T16:17:18Z</time>
      </trkpt>
      <trkpt lat="31.138722421601415" lon="-5.438671046867967">
        <ele>1271</ele>
        <time>2019-03-12T16:17:20Z</time>
      </trkpt>
      <trkpt lat="31.138650504872203" lon="-5.438801804557443">
        <ele>1271.48</ele>
        <time>2019-03-12T16:17:24Z</time>
      </trkpt>
      <trkpt lat="31.138550927862525" lon="-5.439116880297661">
        <ele>1273.4000000000001</ele>
        <time>2019-03-12T16:17:28Z</time>
      </trkpt>
      <trkpt lat="31.138374488800764" lon="-5.439446792006493">
        <ele>1275.8099999999999</ele>
        <time>2019-03-12T16:17:30Z</time>
      </trkpt>
      <trkpt lat="31.138273822143674" lon="-5.43961719609797">
        <ele>1278.21</ele>
        <time>2019-03-12T16:17:37Z</time>
      </trkpt>
      <trkpt lat="31.137808542698622" lon="-5.439930511638522">
        <ele>1278.21</ele>
        <time>2019-03-12T16:17:38Z</time>
      </trkpt>
      <trkpt lat="31.137763950973749" lon="-5.43995875865221">
        <ele>1282.54</ele>
        <time>2019-03-12T16:17:42Z</time>
      </trkpt>
      <trkpt lat="31.137656159698963" lon="-5.440019108355045">
        <ele>1283.98</ele>
        <time>2019-03-12T16:17:47Z</time>
      </trkpt>
      <trkpt lat="31.137494388967752" lon="-5.440238798037171">
        <ele>1281.0899999999999</ele>
        <time>2019-03-12T16:17:56Z</time>
      </trkpt>
      <trkpt lat="31.137242848053575" lon="-5.440938519313932">
        <ele>1278.6900000000001</ele>
        <time>2019-03-12T16:18:00Z</time>
      </trkpt>
      <trkpt lat="31.137045035138726" lon="-5.441241776570678">
        <ele>1277.25</ele>
        <time>2019-03-12T16:18:09Z</time>
      </trkpt>
      <trkpt lat="31.136428043246269" lon="-5.441649639979005">
        <ele>1274.8499999999999</ele>
        <time>2019-03-12T16:18:17Z</time>
      </trkpt>
      <trkpt lat="31.135828318074346" lon="-5.441602198407054">
        <ele>1273.8800000000001</ele>
        <time>2019-03-12T16:18:23Z</time>
      </trkpt>
      <trkpt lat="31.135365217924118" lon="-5.441595576703548">
        <ele>1272.9200000000001</ele>
        <time>2019-03-12T16:18:26Z</time>
      </trkpt>
      <trkpt lat="31.135147623717785" lon="-5.441433722153306">
        <ele>1268.5999999999999</ele>
        <time>2019-03-12T16:18:29Z</time>
      </trkpt>
      <trkpt lat="31.134978225454688" lon="-5.441218391060829">
        <ele>1268.1199999999999</ele>
        <time>2019-03-12T16:18:35Z</time>
      </trkpt>
      <trkpt lat="31.134605063125491" lon="-5.440910272300243">
        <ele>1268.1199999999999</ele>
        <time>2019-03-12T16:18:38Z</time>
      </trkpt>
      <trkpt lat="31.134407920762897" lon="-5.44083240441978">
        <ele>1267.6400000000001</ele>
        <time>2019-03-12T16:18:40Z</time>
      </trkpt>
      <trkpt lat="31.13428546115756" lon="-5.440779179334641">
        <ele>1268.1199999999999</ele>
        <time>2019-03-12T16:18:50Z</time>
      </trkpt>
      <trkpt lat="31.133602000772953" lon="-5.440589329227805">
        <ele>1268.1199999999999</ele>
        <time>2019-03-12T16:18:53Z</time>
      </trkpt>
      <trkpt lat="31.133570903912187" lon="-5.440573487430811">
        <ele>1268.1199999999999</ele>
        <time>2019-03-12T16:18:55Z</time>
      </trkpt>
      <trkpt lat="31.133546093478799" lon="-5.440527889877558">
        <ele>1268.1199999999999</ele>
        <time>2019-03-12T16:18:56Z</time>
      </trkpt>
      <trkpt lat="31.133544165641069" lon="-5.440478017553687">
        <ele>1268.1199999999999</ele>
        <time>2019-03-12T16:18:57Z</time>
      </trkpt>
      <trkpt lat="31.13356277346611" lon="-5.440421188250184">
        <ele>1268.1199999999999</ele>
        <time>2019-03-12T16:18:58Z</time>
      </trkpt>
      <trkpt lat="31.133591439574957" lon="-5.440357904881239">
        <ele>1268.5999999999999</ele>
        <time>2019-03-12T16:18:59Z</time>
      </trkpt>
      <trkpt lat="31.13362186588347" lon="-5.440290933474898">
        <ele>1269.0799999999999</ele>
        <time>2019-03-12T16:19:00Z</time>
      </trkpt>
      <trkpt lat="31.133644245564938" lon="-5.440214155241847">
        <ele>1269.5599999999999</ele>
        <time>2019-03-12T16:19:01Z</time>
      </trkpt>
      <trkpt lat="31.133654722943902" lon="-5.440129414200783">
        <ele>1270.04</ele>
        <time>2019-03-12T16:19:02Z</time>
      </trkpt>
      <trkpt lat="31.133647263050079" lon="-5.440046600997448">
        <ele>1270.52</ele>
        <time>2019-03-12T16:19:03Z</time>
      </trkpt>
      <trkpt lat="31.133623709902167" lon="-5.439973259344697">
        <ele>1270.52</ele>
        <time>2019-03-12T16:19:04Z</time>
      </trkpt>
      <trkpt lat="31.133593032136559" lon="-5.439910814166069">
        <ele>1270.52</ele>
        <time>2019-03-12T16:19:05Z</time>
      </trkpt>
      <trkpt lat="31.13355883397162" lon="-5.439860187470913">
        <ele>1270.52</ele>
        <time>2019-03-12T16:19:07Z</time>
      </trkpt>
      <trkpt lat="31.133492700755596" lon="-5.439750552177429">
        <ele>1270.52</ele>
        <time>2019-03-12T16:19:08Z</time>
      </trkpt>
      <trkpt lat="31.133462022989988" lon="-5.439678132534027">
        <ele>1268.1199999999999</ele>
        <time>2019-03-12T16:19:09Z</time>
      </trkpt>
      <trkpt lat="31.133437799289823" lon="-5.439598504453898">
        <ele>1265.71</ele>
        <time>2019-03-12T16:19:10Z</time>
      </trkpt>
      <trkpt lat="31.133420029655099" lon="-5.439508398994803">
        <ele>1265.71</ele>
        <time>2019-03-12T16:19:11Z</time>
      </trkpt>
      <trkpt lat="31.13340687006712" lon="-5.439417706802487">
        <ele>1261.8699999999999</ele>
        <time>2019-03-12T16:19:12Z</time>
      </trkpt>
      <trkpt lat="31.133394548669457" lon="-5.439330535009503">
        <ele>1257.54</ele>
        <time>2019-03-12T16:19:19Z</time>
      </trkpt>
      <trkpt lat="31.13329354673624" lon="-5.438825273886323">
        <ele>1257.0599999999999</ele>
        <time>2019-03-12T16:19:25Z</time>
      </trkpt>
      <trkpt lat="31.133186258375645" lon="-5.438378686085343">
        <ele>1257.0599999999999</ele>
        <time>2019-03-12T16:19:26Z</time>
      </trkpt>
      <trkpt lat="31.133151892572641" lon="-5.438329903408885">
        <ele>1255.6199999999999</ele>
        <time>2019-03-12T16:19:36Z</time>
      </trkpt>
      <trkpt lat="31.132816784083843" lon="-5.43786009773612">
        <ele>1254.6600000000001</ele>
        <time>2019-03-12T16:19:46Z</time>
      </trkpt>
      <trkpt lat="31.13244915381074" lon="-5.43730060569942">
        <ele>1254.1800000000001</ele>
        <time>2019-03-12T16:19:49Z</time>
      </trkpt>
      <trkpt lat="31.13230163231492" lon="-5.437106480821967">
        <ele>1253.7</ele>
        <time>2019-03-12T16:19:50Z</time>
      </trkpt>
      <trkpt lat="31.132254526019096" lon="-5.437029534950852">
        <ele>1253.22</ele>
        <time>2019-03-12T16:19:55Z</time>
      </trkpt>
      <trkpt lat="31.132063418626785" lon="-5.436637178063393">
        <ele>1252.74</ele>
        <time>2019-03-12T16:20:01Z</time>
      </trkpt>
      <trkpt lat="31.131924614310265" lon="-5.436183298006654">
        <ele>1252.74</ele>
        <time>2019-03-12T16:20:02Z</time>
      </trkpt>
      <trkpt lat="31.131918830797076" lon="-5.43609419837594">
        <ele>1252.25</ele>
        <time>2019-03-12T16:20:04Z</time>
      </trkpt>
      <trkpt lat="31.131914556026459" lon="-5.43592220172286">
        <ele>1252.25</ele>
        <time>2019-03-12T16:20:05Z</time>
      </trkpt>
      <trkpt lat="31.131901228800416" lon="-5.435846177861095">
        <ele>1252.74</ele>
        <time>2019-03-12T16:20:06Z</time>
      </trkpt>
      <trkpt lat="31.131882788613439" lon="-5.435779206454754">
        <ele>1252.25</ele>
        <time>2019-03-12T16:20:07Z</time>
      </trkpt>
      <trkpt lat="31.131867030635476" lon="-5.435713576152921">
        <ele>1252.25</ele>
        <time>2019-03-12T16:20:08Z</time>
      </trkpt>
      <trkpt lat="31.131858229637146" lon="-5.435644509270787">
        <ele>1252.74</ele>
        <time>2019-03-12T16:20:09Z</time>
      </trkpt>
      <trkpt lat="31.131857307627797" lon="-5.435573849827051">
        <ele>1252.74</ele>
        <time>2019-03-12T16:20:10Z</time>
      </trkpt>
      <trkpt lat="31.131863174960017" lon="-5.435499921441078">
        <ele>1253.22</ele>
        <time>2019-03-12T16:20:11Z</time>
      </trkpt>
      <trkpt lat="31.131865940988064" lon="-5.435419622808695">
        <ele>1251.29</ele>
        <time>2019-03-12T16:20:12Z</time>
      </trkpt>
      <trkpt lat="31.131863426417112" lon="-5.435332451015711">
        <ele>1251.29</ele>
        <time>2019-03-12T16:20:16Z</time>
      </trkpt>
      <trkpt lat="31.131820259615779" lon="-5.434980997815728">
        <ele>1250.8099999999999</ele>
        <time>2019-03-12T16:20:17Z</time>
      </trkpt>
      <trkpt lat="31.131793521344662" lon="-5.434890892356634">
        <ele>1253.22</ele>
        <time>2019-03-12T16:20:27Z</time>
      </trkpt>
      <trkpt lat="31.131509207189083" lon="-5.4340844694525">
        <ele>1254.1800000000001</ele>
        <time>2019-03-12T16:20:34Z</time>
      </trkpt>
      <trkpt lat="31.131342072039843" lon="-5.433572251349688">
        <ele>1254.6600000000001</ele>
        <time>2019-03-12T16:20:35Z</time>
      </trkpt>
      <trkpt lat="31.131331762298942" lon="-5.433485331013799">
        <ele>1256.0999999999999</ele>
        <time>2019-03-12T16:20:36Z</time>
      </trkpt>
      <trkpt lat="31.131328409537673" lon="-5.433398159220815">
        <ele>1256.0999999999999</ele>
        <time>2019-03-12T16:20:49Z</time>
      </trkpt>
      <trkpt lat="31.131311729550362" lon="-5.432390319183469">
        <ele>1257.0599999999999</ele>
        <time>2019-03-12T16:20:50Z</time>
      </trkpt>
      <trkpt lat="31.131284236907959" lon="-5.432329215109348">
        <ele>1257.54</ele>
        <time>2019-03-12T16:20:51Z</time>
      </trkpt>
      <trkpt lat="31.131240399554372" lon="-5.432279175147414">
        <ele>1258.02</ele>
        <time>2019-03-12T16:21:02Z</time>
      </trkpt>
      <trkpt lat="31.130583174526691" lon="-5.431661261245608">
        <ele>1258.02</ele>
        <time>2019-03-12T16:21:03Z</time>
      </trkpt>
      <trkpt lat="31.130512515082955" lon="-5.431625219061971">
        <ele>1258.5</ele>
        <time>2019-03-12T16:21:08Z</time>
      </trkpt>
      <trkpt lat="31.13016290590167" lon="-5.431454479694367">
        <ele>1258.5</ele>
        <time>2019-03-12T16:21:09Z</time>
      </trkpt>
      <trkpt lat="31.130100712180138" lon="-5.431412486359477">
        <ele>1258.98</ele>
        <time>2019-03-12T16:21:11Z</time>
      </trkpt>
      <trkpt lat="31.129995016381145" lon="-5.431336043402553">
        <ele>1258.98</ele>
        <time>2019-03-12T16:21:12Z</time>
      </trkpt>
      <trkpt lat="31.129961237311363" lon="-5.431289356201887">
        <ele>1259.9400000000001</ele>
        <time>2019-03-12T16:21:13Z</time>
      </trkpt>
      <trkpt lat="31.12994791008532" lon="-5.431237472221255">
        <ele>1259.9400000000001</ele>
        <time>2019-03-12T16:21:14Z</time>
      </trkpt>
      <trkpt lat="31.129959812387824" lon="-5.431188438087702">
        <ele>1260.4300000000001</ele>
        <time>2019-03-12T16:21:15Z</time>
      </trkpt>
      <trkpt lat="31.129991244524717" lon="-5.431154910475016">
        <ele>1260.4300000000001</ele>
        <time>2019-03-12T16:21:16Z</time>
      </trkpt>
      <trkpt lat="31.130029214546084" lon="-5.431141583248973">
        <ele>1260.4300000000001</ele>
        <time>2019-03-12T16:21:17Z</time>
      </trkpt>
      <trkpt lat="31.130062909796834" lon="-5.431139571592212">
        <ele>1260.9100000000001</ele>
        <time>2019-03-12T16:21:18Z</time>
      </trkpt>
      <trkpt lat="31.130097610875964" lon="-5.431143091991544">
        <ele>1260.9100000000001</ele>
        <time>2019-03-12T16:21:19Z</time>
      </trkpt>
      <trkpt lat="31.130142789334059" lon="-5.431147199124098">
        <ele>1261.3900000000001</ele>
        <time>2019-03-12T16:21:20Z</time>
      </trkpt>
      <trkpt lat="31.130193248391151" lon="-5.431146109476686">
        <ele>1261.8699999999999</ele>
        <time>2019-03-12T16:21:21Z</time>
      </trkpt>
      <trkpt lat="31.13024546764791" lon="-5.431134542450309">
        <ele>1262.3499999999999</ele>
        <time>2019-03-12T16:21:22Z</time>
      </trkpt>
      <trkpt lat="31.130303386598825" lon="-5.431112581863999">
        <ele>1262.8299999999999</ele>
        <time>2019-03-12T16:21:23Z</time>
      </trkpt>
      <trkpt lat="31.130365077406168" lon="-5.431082909926772">
        <ele>1263.3099999999999</ele>
        <time>2019-03-12T16:21:24Z</time>
      </trkpt>
      <trkpt lat="31.130428947508335" lon="-5.431050304323435">
        <ele>1263.79</ele>
        <time>2019-03-12T16:21:27Z</time>
      </trkpt>
      <trkpt lat="31.130610667169094" lon="-5.43095332570374">
        <ele>1263.79</ele>
        <time>2019-03-12T16:21:28Z</time>
      </trkpt>
      <trkpt lat="31.13065442070365" lon="-5.430905967950821">
        <ele>1264.27</ele>
        <time>2019-03-12T16:21:29Z</time>
      </trkpt>
      <trkpt lat="31.130681242793798" lon="-5.430846624076366">
        <ele>1264.27</ele>
        <time>2019-03-12T16:21:30Z</time>
      </trkpt>
      <trkpt lat="31.13068719394505" lon="-5.430780155584216">
        <ele>1264.27</ele>
        <time>2019-03-12T16:21:31Z</time>
      </trkpt>
      <trkpt lat="31.13067495636642" lon="-5.43071486055851">
        <ele>1264.75</ele>
        <time>2019-03-12T16:21:32Z</time>
      </trkpt>
      <trkpt lat="31.130653079599142" lon="-5.43065283447504">
        <ele>1265.23</ele>
        <time>2019-03-12T16:21:33Z</time>
      </trkpt>
      <trkpt lat="31.130619468167424" lon="-5.430600782856345">
        <ele>1270.52</ele>
        <time>2019-03-12T16:21:34Z</time>
      </trkpt>
      <trkpt lat="31.130575044080615" lon="-5.430559879168868">
        <ele>1272.4400000000001</ele>
        <time>2019-03-12T16:21:35Z</time>
      </trkpt>
      <trkpt lat="31.130521735176444" lon="-5.430531548336148">
        <ele>1272.9200000000001</ele>
        <time>2019-03-12T16:21:36Z</time>
      </trkpt>
      <trkpt lat="31.13046633079648" lon="-5.430511515587568">
        <ele>1274.3599999999999</ele>
        <time>2019-03-12T16:21:37Z</time>
      </trkpt>
      <trkpt lat="31.130410842597485" lon="-5.430496260523796">
        <ele>1274.8499999999999</ele>
        <time>2019-03-12T16:21:50Z</time>
      </trkpt>
      <trkpt lat="31.129505345597863" lon="-5.430157883092761">
        <ele>1275.8099999999999</ele>
        <time>2019-03-12T16:21:55Z</time>
      </trkpt>
      <trkpt lat="31.129066133871675" lon="-5.430003488436341">
        <ele>1280.6099999999999</ele>
        <time>2019-03-12T16:21:56Z</time>
      </trkpt>
      <trkpt lat="31.128982733935118" lon="-5.429968200623989">
        <ele>1285.9000000000001</ele>
        <time>2019-03-12T16:21:59Z</time>
      </trkpt>
      <trkpt lat="31.128750806674361" lon="-5.429846243932843">
        <ele>1286.8599999999999</ele>
        <time>2019-03-12T16:22:00Z</time>
      </trkpt>
      <trkpt lat="31.128678973764181" lon="-5.429790504276753">
        <ele>1288.3</ele>
        <time>2019-03-12T16:22:01Z</time>
      </trkpt>
      <trkpt lat="31.12860856577754" lon="-5.429727053269744">
        <ele>1295.03</ele>
        <time>2019-03-12T16:22:12Z</time>
      </trkpt>
      <trkpt lat="31.127826366573572" lon="-5.429090531542897">
        <ele>1295.51</ele>
        <time>2019-03-12T16:22:19Z</time>
      </trkpt>
      <trkpt lat="31.12732688896358" lon="-5.428729271516204">
        <ele>1301.28</ele>
        <time>2019-03-12T16:22:20Z</time>
      </trkpt>
      <trkpt lat="31.127256648615003" lon="-5.428683422505856">
        <ele>1301.76</ele>
        <time>2019-03-12T16:22:21Z</time>
      </trkpt>
      <trkpt lat="31.12718665972352" lon="-5.428648889064789">
        <ele>1302.72</ele>
        <time>2019-03-12T16:22:28Z</time>
      </trkpt>
      <trkpt lat="31.126703359186649" lon="-5.428496925160289">
        <ele>1303.2</ele>
        <time>2019-03-12T16:22:29Z</time>
      </trkpt>
      <trkpt lat="31.12662423402071" lon="-5.42847060598433">
        <ele>1304.1700000000001</ele>
        <time>2019-03-12T16:22:36Z</time>
      </trkpt>
      <trkpt lat="31.126121738925576" lon="-5.428296010941267">
        <ele>1305.6099999999999</ele>
        <time>2019-03-12T16:22:37Z</time>
      </trkpt>
      <trkpt lat="31.126061892136931" lon="-5.428239852190018">
        <ele>1307.53</ele>
        <time>2019-03-12T16:22:38Z</time>
      </trkpt>
      <trkpt lat="31.126017300412059" lon="-5.428171623498201">
        <ele>1308.01</ele>
        <time>2019-03-12T16:22:39Z</time>
      </trkpt>
      <trkpt lat="31.12598218023777" lon="-5.428090738132596">
        <ele>1306.5699999999999</ele>
        <time>2019-03-12T16:22:40Z</time>
      </trkpt>
      <trkpt lat="31.125951418653131" lon="-5.428001638501883">
        <ele>1305.6099999999999</ele>
        <time>2019-03-12T16:22:43Z</time>
      </trkpt>
      <trkpt lat="31.125877154991031" lon="-5.42772394604981">
        <ele>1305.1300000000001</ele>
        <time>2019-03-12T16:22:49Z</time>
      </trkpt>
      <trkpt lat="31.125604324042797" lon="-5.427291188389063">
        <ele>1304.6500000000001</ele>
        <time>2019-03-12T16:22:51Z</time>
      </trkpt>
      <trkpt lat="31.125526875257492" lon="-5.427157916128635">
        <ele>1303.6900000000001</ele>
        <time>2019-03-12T16:22:54Z</time>
      </trkpt>
      <trkpt lat="31.125399470329285" lon="-5.426987512037158">
        <ele>1303.2</ele>
        <time>2019-03-12T16:22:55Z</time>
      </trkpt>
      <trkpt lat="31.125365104526281" lon="-5.426919115707278">
        <ele>1300.3199999999999</ele>
        <time>2019-03-12T16:22:56Z</time>
      </trkpt>
      <trkpt lat="31.125348508358002" lon="-5.426847618073225">
        <ele>1299.3599999999999</ele>
        <time>2019-03-12T16:22:57Z</time>
      </trkpt>
      <trkpt lat="31.125347167253494" lon="-5.426782071590424">
        <ele>1295.99</ele>
        <time>2019-03-12T16:22:58Z</time>
      </trkpt>
      <trkpt lat="31.125361835584044" lon="-5.426718033850193">
        <ele>1295.03</ele>
        <time>2019-03-12T16:22:59Z</time>
      </trkpt>
      <trkpt lat="31.125382455065846" lon="-5.426647458225489">
        <ele>1294.0699999999999</ele>
        <time>2019-03-12T16:23:02Z</time>
      </trkpt>
      <trkpt lat="31.125463340431452" lon="-5.426366161555052">
        <ele>1292.1500000000001</ele>
        <time>2019-03-12T16:23:03Z</time>
      </trkpt>
      <trkpt lat="31.125476080924273" lon="-5.426256777718663">
        <ele>1291.1900000000001</ele>
        <time>2019-03-12T16:23:07Z</time>
      </trkpt>
      <trkpt lat="31.12547792494297" lon="-5.425915466621518">
        <ele>1290.23</ele>
        <time>2019-03-12T16:23:08Z</time>
      </trkpt>
      <trkpt lat="31.125464765354991" lon="-5.425839107483625">
        <ele>1289.75</ele>
        <time>2019-03-12T16:23:09Z</time>
      </trkpt>
      <trkpt lat="31.125434674322605" lon="-5.425763837993145">
        <ele>1289.27</ele>
        <time>2019-03-12T16:23:11Z</time>
      </trkpt>
      <trkpt lat="31.125363763421774" lon="-5.425613969564438">
        <ele>1289.27</ele>
        <time>2019-03-12T16:23:12Z</time>
      </trkpt>
      <trkpt lat="31.125354375690222" lon="-5.425544818863273">
        <ele>1288.3</ele>
        <time>2019-03-12T16:23:13Z</time>
      </trkpt>
      <trkpt lat="31.125368792563677" lon="-5.425481619313359">
        <ele>1287.8199999999999</ele>
        <time>2019-03-12T16:23:14Z</time>
      </trkpt>
      <trkpt lat="31.12540265545249" lon="-5.425420850515366">
        <ele>1287.3399999999999</ele>
        <time>2019-03-12T16:23:15Z</time>
      </trkpt>
      <trkpt lat="31.12544079311192" lon="-5.425363350659609">
        <ele>1286.3800000000001</ele>
        <time>2019-03-12T16:23:16Z</time>
      </trkpt>
      <trkpt lat="31.125479685142636" lon="-5.425310544669628">
        <ele>1285.9000000000001</ele>
        <time>2019-03-12T16:23:18Z</time>
      </trkpt>
      <trkpt lat="31.125560570508242" lon="-5.425192276015878">
        <ele>1285.4200000000001</ele>
        <time>2019-03-12T16:23:19Z</time>
      </trkpt>
      <trkpt lat="31.125589488074183" lon="-5.42511667124927">
        <ele>1284.46</ele>
        <time>2019-03-12T16:23:20Z</time>
      </trkpt>
      <trkpt lat="31.125604659318924" lon="-5.425032852217555">
        <ele>1283.5</ele>
        <time>2019-03-12T16:23:21Z</time>
      </trkpt>
      <trkpt lat="31.12560885027051" lon="-5.424945345148444">
        <ele>1282.54</ele>
        <time>2019-03-12T16:23:22Z</time>
      </trkpt>
      <trkpt lat="31.125603318214417" lon="-5.424856496974826">
        <ele>1282.0599999999999</ele>
        <time>2019-03-12T16:23:23Z</time>
      </trkpt>
      <trkpt lat="31.125588063150644" lon="-5.424772845581174">
        <ele>1281.5699999999999</ele>
        <time>2019-03-12T16:23:24Z</time>
      </trkpt>
      <trkpt lat="31.125563755631447" lon="-5.424696989357472">
        <ele>1281.0899999999999</ele>
        <time>2019-03-12T16:23:25Z</time>
      </trkpt>
      <trkpt lat="31.125531904399395" lon="-5.424623228609562">
        <ele>1280.1300000000001</ele>
        <time>2019-03-12T16:23:26Z</time>
      </trkpt>
      <trkpt lat="31.125497538596392" lon="-5.424554497003555">
        <ele>1279.6500000000001</ele>
        <time>2019-03-12T16:23:27Z</time>
      </trkpt>
      <trkpt lat="31.125467196106911" lon="-5.424486938863993">
        <ele>1279.1700000000001</ele>
        <time>2019-03-12T16:23:28Z</time>
      </trkpt>
      <trkpt lat="31.125453533604741" lon="-5.424412842839956">
        <ele>1278.21</ele>
        <time>2019-03-12T16:23:29Z</time>
      </trkpt>
      <trkpt lat="31.125461077317595" lon="-5.424329694360495">
        <ele>1277.25</ele>
        <time>2019-03-12T16:23:30Z</time>
      </trkpt>
      <trkpt lat="31.125475326552987" lon="-5.424239421263337">
        <ele>1276.77</ele>
        <time>2019-03-12T16:23:31Z</time>
      </trkpt>
      <trkpt lat="31.125480942428112" lon="-5.424150656908751">
        <ele>1276.29</ele>
        <time>2019-03-12T16:23:32Z</time>
      </trkpt>
      <trkpt lat="31.125483205541968" lon="-5.424065161496401">
        <ele>1275.3299999999999</ele>
        <time>2019-03-12T16:23:33Z</time>
      </trkpt>
      <trkpt lat="31.125496197491884" lon="-5.423978576436639">
        <ele>1274.3599999999999</ele>
        <time>2019-03-12T16:23:34Z</time>
      </trkpt>
      <trkpt lat="31.125512374565005" lon="-5.42388922534883">
        <ele>1273.8800000000001</ele>
        <time>2019-03-12T16:23:35Z</time>
      </trkpt>
      <trkpt lat="31.125521678477526" lon="-5.423800544813275">
        <ele>1272.4400000000001</ele>
        <time>2019-03-12T16:23:36Z</time>
      </trkpt>
      <trkpt lat="31.125538107007742" lon="-5.423712115734816">
        <ele>1271.96</ele>
        <time>2019-03-12T16:23:37Z</time>
      </trkpt>
      <trkpt lat="31.12557171843946" lon="-5.423626787960529">
        <ele>1271.48</ele>
        <time>2019-03-12T16:23:38Z</time>
      </trkpt>
      <trkpt lat="31.125621926039457" lon="-5.423543807119131">
        <ele>1271</ele>
        <time>2019-03-12T16:23:39Z</time>
      </trkpt>
      <trkpt lat="31.125674061477184" lon="-5.423456216230989">
        <ele>1266.1900000000001</ele>
        <time>2019-03-12T16:23:40Z</time>
      </trkpt>
      <trkpt lat="31.12571781501174" lon="-5.423360662534833">
        <ele>1265.23</ele>
        <time>2019-03-12T16:23:41Z</time>
      </trkpt>
      <trkpt lat="31.125745810568333" lon="-5.423261420801282">
        <ele>1264.75</ele>
        <time>2019-03-12T16:23:42Z</time>
      </trkpt>
      <trkpt lat="31.125762155279517" lon="-5.423157820478082">
        <ele>1264.27</ele>
        <time>2019-03-12T16:23:43Z</time>
      </trkpt>
      <trkpt lat="31.125776236876845" lon="-5.423055225983262">
        <ele>1263.79</ele>
        <time>2019-03-12T16:23:50Z</time>
      </trkpt>
      <trkpt lat="31.125946557149291" lon="-5.422380231320858">
        <ele>1263.79</ele>
        <time>2019-03-12T16:23:51Z</time>
      </trkpt>
      <trkpt lat="31.125977486371994" lon="-5.422283168882132">
        <ele>1262.8299999999999</ele>
        <time>2019-03-12T16:23:52Z</time>
      </trkpt>
      <trkpt lat="31.126018473878503" lon="-5.422203959897161">
        <ele>1262.3499999999999</ele>
        <time>2019-03-12T16:23:53Z</time>
      </trkpt>
      <trkpt lat="31.126071531325579" lon="-5.422139167785645">
        <ele>1261.3900000000001</ele>
        <time>2019-03-12T16:23:54Z</time>
      </trkpt>
      <trkpt lat="31.126127019524574" lon="-5.422080410644412">
        <ele>1260.4300000000001</ele>
        <time>2019-03-12T16:23:55Z</time>
      </trkpt>
      <trkpt lat="31.126168090850115" lon="-5.422013439238071">
        <ele>1259.46</ele>
        <time>2019-03-12T16:23:56Z</time>
      </trkpt>
      <trkpt lat="31.126184435561299" lon="-5.421941271051765">
        <ele>1259.46</ele>
        <time>2019-03-12T16:23:57Z</time>
      </trkpt>
      <trkpt lat="31.126174125820398" lon="-5.421871533617377">
        <ele>1258.98</ele>
        <time>2019-03-12T16:23:58Z</time>
      </trkpt>
      <trkpt lat="31.126136658713222" lon="-5.421810681000352">
        <ele>1258.98</ele>
        <time>2019-03-12T16:23:59Z</time>
      </trkpt>
      <trkpt lat="31.126091480255127" lon="-5.421765921637416">
        <ele>1258.98</ele>
        <time>2019-03-12T16:24:00Z</time>
      </trkpt>
      <trkpt lat="31.126057952642441" lon="-5.421728203073144">
        <ele>1259.46</ele>
        <time>2019-03-12T16:24:01Z</time>
      </trkpt>
      <trkpt lat="31.126044206321239" lon="-5.421683359891176">
        <ele>1259.9400000000001</ele>
        <time>2019-03-12T16:24:02Z</time>
      </trkpt>
      <trkpt lat="31.126051247119904" lon="-5.421629548072815">
        <ele>1262.3499999999999</ele>
        <time>2019-03-12T16:24:03Z</time>
      </trkpt>
      <trkpt lat="31.126079494133592" lon="-5.421583447605372">
        <ele>1262.8299999999999</ele>
        <time>2019-03-12T16:24:04Z</time>
      </trkpt>
      <trkpt lat="31.126121319830418" lon="-5.421544136479497">
        <ele>1263.79</ele>
        <time>2019-03-12T16:24:05Z</time>
      </trkpt>
      <trkpt lat="31.126172197982669" lon="-5.421503400430083">
        <ele>1263.3099999999999</ele>
        <time>2019-03-12T16:24:06Z</time>
      </trkpt>
      <trkpt lat="31.12623380497098" lon="-5.421460149809718">
        <ele>1262.8299999999999</ele>
        <time>2019-03-12T16:24:09Z</time>
      </trkpt>
      <trkpt lat="31.126414686441422" lon="-5.421316400170326">
        <ele>1262.8299999999999</ele>
        <time>2019-03-12T16:24:10Z</time>
      </trkpt>
      <trkpt lat="31.126463552936912" lon="-5.421255296096206">
        <ele>1262.8299999999999</ele>
        <time>2019-03-12T16:24:21Z</time>
      </trkpt>
      <trkpt lat="31.12706545740366" lon="-5.42035105638206">
        <ele>1262.3499999999999</ele>
        <time>2019-03-12T16:24:23Z</time>
      </trkpt>
      <trkpt lat="31.127165704965591" lon="-5.420195739716291">
        <ele>1259.9400000000001</ele>
        <time>2019-03-12T16:24:24Z</time>
      </trkpt>
      <trkpt lat="31.12720032222569" lon="-5.420107394456863">
        <ele>1257.0599999999999</ele>
        <time>2019-03-12T16:24:25Z</time>
      </trkpt>
      <trkpt lat="31.127215828746557" lon="-5.420006979256868">
        <ele>1255.1400000000001</ele>
        <time>2019-03-12T16:24:26Z</time>
      </trkpt>
      <trkpt lat="31.127215912565589" lon="-5.419901283457875">
        <ele>1254.6600000000001</ele>
        <time>2019-03-12T16:24:27Z</time>
      </trkpt>
      <trkpt lat="31.127213062718511" lon="-5.419792905449867">
        <ele>1254.6600000000001</ele>
        <time>2019-03-12T16:24:38Z</time>
      </trkpt>
      <trkpt lat="31.127146845683455" lon="-5.418637795373797">
        <ele>1254.6600000000001</ele>
        <time>2019-03-12T16:24:47Z</time>
      </trkpt>
      <trkpt lat="31.127099404111505" lon="-5.417838832363486">
        <ele>1254.6600000000001</ele>
        <time>2019-03-12T16:24:51Z</time>
      </trkpt>
      <trkpt lat="31.127092866227031" lon="-5.417430885136128">
        <ele>1254.6600000000001</ele>
        <time>2019-03-12T16:24:52Z</time>
      </trkpt>
      <trkpt lat="31.127109713852406" lon="-5.417344467714429">
        <ele>1254.1800000000001</ele>
        <time>2019-03-12T16:24:53Z</time>
      </trkpt>
      <trkpt lat="31.127142319455743" lon="-5.417260732501745">
        <ele>1253.22</ele>
        <time>2019-03-12T16:24:54Z</time>
      </trkpt>
      <trkpt lat="31.127188168466091" lon="-5.417178925126791">
        <ele>1252.25</ele>
        <time>2019-03-12T16:24:55Z</time>
      </trkpt>
      <trkpt lat="31.127247260883451" lon="-5.417100889608264">
        <ele>1244.5599999999999</ele>
        <time>2019-03-12T16:24:56Z</time>
      </trkpt>
      <trkpt lat="31.127315992489457" lon="-5.41703031398356">
        <ele>1243.1199999999999</ele>
        <time>2019-03-12T16:24:57Z</time>
      </trkpt>
      <trkpt lat="31.127387322485447" lon="-5.416965186595917">
        <ele>1242.6400000000001</ele>
        <time>2019-03-12T16:24:59Z</time>
      </trkpt>
      <trkpt lat="31.127546578645706" lon="-5.416841302067041">
        <ele>1242.1600000000001</ele>
        <time>2019-03-12T16:25:00Z</time>
      </trkpt>
      <trkpt lat="31.127634923905134" lon="-5.416775839403272">
        <ele>1241.6800000000001</ele>
        <time>2019-03-12T16:25:13Z</time>
      </trkpt>
      <trkpt lat="31.128763714805245" lon="-5.415884759277105">
        <ele>1241.2</ele>
        <time>2019-03-12T16:25:16Z</time>
      </trkpt>
      <trkpt lat="31.128991283476353" lon="-5.415685437619686">
        <ele>1239.76</ele>
        <time>2019-03-12T16:25:17Z</time>
      </trkpt>
      <trkpt lat="31.129034282639623" lon="-5.415614526718855">
        <ele>1239.76</ele>
        <time>2019-03-12T16:25:18Z</time>
      </trkpt>
      <trkpt lat="31.129055740311742" lon="-5.415534814819694">
        <ele>1239.76</ele>
        <time>2019-03-12T16:25:19Z</time>
      </trkpt>
      <trkpt lat="31.129062697291374" lon="-5.41545401327312">
        <ele>1240.24</ele>
        <time>2019-03-12T16:25:20Z</time>
      </trkpt>
      <trkpt lat="31.129068061709404" lon="-5.41537145152688">
        <ele>1240.72</ele>
        <time>2019-03-12T16:25:32Z</time>
      </trkpt>
      <trkpt lat="31.129167973995209" lon="-5.414168564602733">
        <ele>1241.2</ele>
        <time>2019-03-12T16:25:33Z</time>
      </trkpt>
      <trkpt lat="31.129191778600216" lon="-5.414080638438463">
        <ele>1242.6400000000001</ele>
        <time>2019-03-12T16:25:34Z</time>
      </trkpt>
      <trkpt lat="31.129230167716742" lon="-5.414007548242807">
        <ele>1243.5999999999999</ele>
        <time>2019-03-12T16:25:36Z</time>
      </trkpt>
      <trkpt lat="31.12930728122592" lon="-5.413866564631462">
        <ele>1247.45</ele>
        <time>2019-03-12T16:25:37Z</time>
      </trkpt>
      <trkpt lat="31.129340641200542" lon="-5.413781739771366">
        <ele>1247.9300000000001</ele>
        <time>2019-03-12T16:25:38Z</time>
      </trkpt>
      <trkpt lat="31.129366038367152" lon="-5.413688365370035">
        <ele>1246.01</ele>
        <time>2019-03-12T16:25:41Z</time>
      </trkpt>
      <trkpt lat="31.129408786073327" lon="-5.413400027900934">
        <ele>1245.53</ele>
        <time>2019-03-12T16:25:42Z</time>
      </trkpt>
      <trkpt lat="31.129403673112392" lon="-5.41330598294735">
        <ele>1246.01</ele>
        <time>2019-03-12T16:25:48Z</time>
      </trkpt>
      <trkpt lat="31.129325637593865" lon="-5.412718746811152">
        <ele>1246.01</ele>
        <time>2019-03-12T16:25:49Z</time>
      </trkpt>
      <trkpt lat="31.12932438030839" lon="-5.412618080154061">
        <ele>1245.04</ele>
        <time>2019-03-12T16:25:59Z</time>
      </trkpt>
      <trkpt lat="31.129402248188853" lon="-5.411555925384164">
        <ele>1240.24</ele>
        <time>2019-03-12T16:26:00Z</time>
      </trkpt>
      <trkpt lat="31.12941138446331" lon="-5.411450816318393">
        <ele>1240.72</ele>
        <time>2019-03-12T16:26:11Z</time>
      </trkpt>
      <trkpt lat="31.129479948431253" lon="-5.410290760919452">
        <ele>1240.24</ele>
        <time>2019-03-12T16:26:12Z</time>
      </trkpt>
      <trkpt lat="31.129474667832255" lon="-5.410185819491744">
        <ele>1239.76</ele>
        <time>2019-03-12T16:26:15Z</time>
      </trkpt>
      <trkpt lat="31.12944801338017" lon="-5.409899158403277">
        <ele>1233.51</ele>
        <time>2019-03-12T16:26:22Z</time>
      </trkpt>
      <trkpt lat="31.12947634421289" lon="-5.409305552020669">
        <ele>1231.5899999999999</ele>
        <time>2019-03-12T16:26:23Z</time>
      </trkpt>
      <trkpt lat="31.129487743601203" lon="-5.409221984446049">
        <ele>1230.6199999999999</ele>
        <time>2019-03-12T16:26:25Z</time>
      </trkpt>
      <trkpt lat="31.12953401170671" lon="-5.409057196229696">
        <ele>1229.6600000000001</ele>
        <time>2019-03-12T16:26:26Z</time>
      </trkpt>
      <trkpt lat="31.12957357428968" lon="-5.408976143226028">
        <ele>1229.1800000000001</ele>
        <time>2019-03-12T16:26:37Z</time>
      </trkpt>
      <trkpt lat="31.129979509860277" lon="-5.40800929069519">
        <ele>1229.1800000000001</ele>
        <time>2019-03-12T16:26:42Z</time>
      </trkpt>
      <trkpt lat="31.130133736878633" lon="-5.407547112554312">
        <ele>1229.1800000000001</ele>
        <time>2019-03-12T16:26:43Z</time>
      </trkpt>
      <trkpt lat="31.130147650837898" lon="-5.407461365684867">
        <ele>1226.3</ele>
        <time>2019-03-12T16:26:45Z</time>
      </trkpt>
      <trkpt lat="31.130159050226212" lon="-5.407283334061503">
        <ele>1225.8199999999999</ele>
        <time>2019-03-12T16:26:51Z</time>
      </trkpt>
      <trkpt lat="31.130228200927377" lon="-5.406819311901927">
        <ele>1225.3399999999999</ele>
        <time>2019-03-12T16:26:52Z</time>
      </trkpt>
      <trkpt lat="31.130233565345407" lon="-5.406729876995087">
        <ele>1224.8599999999999</ele>
        <time>2019-03-12T16:26:53Z</time>
      </trkpt>
      <trkpt lat="31.130250580608845" lon="-5.406642118468881">
        <ele>1224.8599999999999</ele>
        <time>2019-03-12T16:27:01Z</time>
      </trkpt>
      <trkpt lat="31.130468929186463" lon="-5.405951114371419">
        <ele>1222.9300000000001</ele>
        <time>2019-03-12T16:27:02Z</time>
      </trkpt>
      <trkpt lat="31.130487369373441" lon="-5.405873833224177">
        <ele>1222.9300000000001</ele>
        <time>2019-03-12T16:27:03Z</time>
      </trkpt>
      <trkpt lat="31.130506144836545" lon="-5.405800910666585">
        <ele>1222.9300000000001</ele>
        <time>2019-03-12T16:27:04Z</time>
      </trkpt>
      <trkpt lat="31.130535397678614" lon="-5.405724970623851">
        <ele>1222.9300000000001</ele>
        <time>2019-03-12T16:27:05Z</time>
      </trkpt>
      <trkpt lat="31.130570266395807" lon="-5.405646096915007">
        <ele>1222.9300000000001</ele>
        <time>2019-03-12T16:27:14Z</time>
      </trkpt>
      <trkpt lat="31.130847372114658" lon="-5.404807655140758">
        <ele>1222.45</ele>
        <time>2019-03-12T16:27:15Z</time>
      </trkpt>
      <trkpt lat="31.130866231396794" lon="-5.404720567166805">
        <ele>1222.45</ele>
        <time>2019-03-12T16:27:16Z</time>
      </trkpt>
      <trkpt lat="31.130896238610148" lon="-5.404638424515724">
        <ele>1220.53</ele>
        <time>2019-03-12T16:27:17Z</time>
      </trkpt>
      <trkpt lat="31.130936639383435" lon="-5.404563238844276">
        <ele>1217.1700000000001</ele>
        <time>2019-03-12T16:27:18Z</time>
      </trkpt>
      <trkpt lat="31.130986260250211" lon="-5.404487801715732">
        <ele>1216.6900000000001</ele>
        <time>2019-03-12T16:27:19Z</time>
      </trkpt>
      <trkpt lat="31.131044011563063" lon="-5.404415130615234">
        <ele>1210.4400000000001</ele>
        <time>2019-03-12T16:27:20Z</time>
      </trkpt>
      <trkpt lat="31.131101762875915" lon="-5.404342459514737">
        <ele>1209.96</ele>
        <time>2019-03-12T16:27:24Z</time>
      </trkpt>
      <trkpt lat="31.131283231079578" lon="-5.404117153957486">
        <ele>1209</ele>
        <time>2019-03-12T16:27:30Z</time>
      </trkpt>
      <trkpt lat="31.131646921858191" lon="-5.403793444857001">
        <ele>1208.03</ele>
        <time>2019-03-12T16:27:31Z</time>
      </trkpt>
      <trkpt lat="31.131722442805767" lon="-5.403748350217938">
        <ele>1207.55</ele>
        <time>2019-03-12T16:27:40Z</time>
      </trkpt>
      <trkpt lat="31.132437586784363" lon="-5.403372589498758">
        <ele>1207.0699999999999</ele>
        <time>2019-03-12T16:27:41Z</time>
      </trkpt>
      <trkpt lat="31.132507994771004" lon="-5.403325147926807">
        <ele>1207.0699999999999</ele>
        <time>2019-03-12T16:27:42Z</time>
      </trkpt>
      <trkpt lat="31.132572116330266" lon="-5.403277119621635">
        <ele>1206.5899999999999</ele>
        <time>2019-03-12T16:27:44Z</time>
      </trkpt>
      <trkpt lat="31.13267588429153" lon="-5.403169160708785">
        <ele>1205.1500000000001</ele>
        <time>2019-03-12T16:27:45Z</time>
      </trkpt>
      <trkpt lat="31.132714776322246" lon="-5.403103195130825">
        <ele>1204.6700000000001</ele>
        <time>2019-03-12T16:27:46Z</time>
      </trkpt>
      <trkpt lat="31.132742688059807" lon="-5.403027171269059">
        <ele>1203.23</ele>
        <time>2019-03-12T16:27:47Z</time>
      </trkpt>
      <trkpt lat="31.132756266742945" lon="-5.402943938970566">
        <ele>1203.23</ele>
        <time>2019-03-12T16:27:48Z</time>
      </trkpt>
      <trkpt lat="31.132760960608721" lon="-5.402858946472406">
        <ele>1202.75</ele>
        <time>2019-03-12T16:27:52Z</time>
      </trkpt>
      <trkpt lat="31.132821729406714" lon="-5.40250682272017">
        <ele>1202.27</ele>
        <time>2019-03-12T16:27:54Z</time>
      </trkpt>
      <trkpt lat="31.132885180413723" lon="-5.402333317324519">
        <ele>1202.27</ele>
        <time>2019-03-12T16:28:00Z</time>
      </trkpt>
      <trkpt lat="31.133128087967634" lon="-5.401791846379638">
        <ele>1202.27</ele>
        <time>2019-03-12T16:28:01Z</time>
      </trkpt>
      <trkpt lat="31.133149713277817" lon="-5.401701405644417">
        <ele>1201.79</ele>
        <time>2019-03-12T16:28:04Z</time>
      </trkpt>
      <trkpt lat="31.133204195648432" lon="-5.401452630758286">
        <ele>1202.27</ele>
        <time>2019-03-12T16:28:05Z</time>
      </trkpt>
      <trkpt lat="31.133207213133574" lon="-5.401367554441094">
        <ele>1202.27</ele>
        <time>2019-03-12T16:28:06Z</time>
      </trkpt>
      <trkpt lat="31.133201010525227" lon="-5.401282729580998">
        <ele>1202.27</ele>
        <time>2019-03-12T16:28:09Z</time>
      </trkpt>
      <trkpt lat="31.133174858987331" lon="-5.401068571954966">
        <ele>1201.79</ele>
        <time>2019-03-12T16:28:10Z</time>
      </trkpt>
      <trkpt lat="31.133161028847098" lon="-5.4009925480932">
        <ele>1201.3</ele>
        <time>2019-03-12T16:28:11Z</time>
      </trkpt>
      <trkpt lat="31.133139152079821" lon="-5.400913590565324">
        <ele>1201.3</ele>
        <time>2019-03-12T16:28:12Z</time>
      </trkpt>
      <trkpt lat="31.13310587592423" lon="-5.400830106809735">
        <ele>1201.3</ele>
        <time>2019-03-12T16:28:13Z</time>
      </trkpt>
      <trkpt lat="31.133069330826402" lon="-5.400742348283529">
        <ele>1200.8199999999999</ele>
        <time>2019-03-12T16:28:24Z</time>
      </trkpt>
      <trkpt lat="31.132718715816736" lon="-5.399730820208788">
        <ele>1200.3399999999999</ele>
        <time>2019-03-12T16:28:35Z</time>
      </trkpt>
      <trkpt lat="31.132459882646799" lon="-5.398794393986464">
        <ele>1200.3399999999999</ele>
        <time>2019-03-12T16:28:36Z</time>
      </trkpt>
      <trkpt lat="31.132457284256816" lon="-5.398719375953078">
        <ele>1195.0599999999999</ele>
        <time>2019-03-12T16:28:37Z</time>
      </trkpt>
      <trkpt lat="31.132465833798051" lon="-5.398642932996154">
        <ele>1194.0899999999999</ele>
        <time>2019-03-12T16:28:38Z</time>
      </trkpt>
      <trkpt lat="31.132486201822758" lon="-5.398567579686642">
        <ele>1193.6099999999999</ele>
        <time>2019-03-12T16:28:39Z</time>
      </trkpt>
      <trkpt lat="31.132520567625761" lon="-5.398493818938732">
        <ele>1193.1300000000001</ele>
        <time>2019-03-12T16:28:40Z</time>
      </trkpt>
      <trkpt lat="31.13256448879838" lon="-5.398418130353093">
        <ele>1192.1700000000001</ele>
        <time>2019-03-12T16:28:46Z</time>
      </trkpt>
      <trkpt lat="31.132894651964307" lon="-5.397901134565473">
        <ele>1191.6900000000001</ele>
        <time>2019-03-12T16:28:47Z</time>
      </trkpt>
      <trkpt lat="31.132962880656123" lon="-5.397837851196528">
        <ele>1191.21</ele>
        <time>2019-03-12T16:28:48Z</time>
      </trkpt>
      <trkpt lat="31.133030354976654" lon="-5.397776663303375">
        <ele>1189.77</ele>
        <time>2019-03-12T16:28:49Z</time>
      </trkpt>
      <trkpt lat="31.133091039955616" lon="-5.397706590592861">
        <ele>1188.8099999999999</ele>
        <time>2019-03-12T16:28:50Z</time>
      </trkpt>
      <trkpt lat="31.133146528154612" lon="-5.397621430456638">
        <ele>1188.3299999999999</ele>
        <time>2019-03-12T16:28:51Z</time>
      </trkpt>
      <trkpt lat="31.133196149021387" lon="-5.397524032741785">
        <ele>1186.4000000000001</ele>
        <time>2019-03-12T16:28:52Z</time>
      </trkpt>
      <trkpt lat="31.133242417126894" lon="-5.39742604829371">
        <ele>1184.96</ele>
        <time>2019-03-12T16:28:54Z</time>
      </trkpt>
      <trkpt lat="31.133313495665789" lon="-5.397242903709412">
        <ele>1184.96</ele>
        <time>2019-03-12T16:28:55Z</time>
      </trkpt>
      <trkpt lat="31.133339647203684" lon="-5.397149696946144">
        <ele>1185.4400000000001</ele>
        <time>2019-03-12T16:28:56Z</time>
      </trkpt>
      <trkpt lat="31.13335900940001" lon="-5.397059759125114">
        <ele>1185.9200000000001</ele>
        <time>2019-03-12T16:28:58Z</time>
      </trkpt>
      <trkpt lat="31.13339371047914" lon="-5.396898491308093">
        <ele>1185.4400000000001</ele>
        <time>2019-03-12T16:29:01Z</time>
      </trkpt>
      <trkpt lat="31.133457161486149" lon="-5.396694643422961">
        <ele>1184.96</ele>
        <time>2019-03-12T16:29:02Z</time>
      </trkpt>
      <trkpt lat="31.133473506197333" lon="-5.396624738350511">
        <ele>1181.1199999999999</ele>
        <time>2019-03-12T16:29:03Z</time>
      </trkpt>
      <trkpt lat="31.133482726290822" lon="-5.396564304828644">
        <ele>1180.6400000000001</ele>
        <time>2019-03-12T16:29:05Z</time>
      </trkpt>
      <trkpt lat="31.133483899757266" lon="-5.396457016468048">
        <ele>1180.1600000000001</ele>
        <time>2019-03-12T16:29:06Z</time>
      </trkpt>
      <trkpt lat="31.133474176749587" lon="-5.396399265155196">
        <ele>1180.1600000000001</ele>
        <time>2019-03-12T16:29:07Z</time>
      </trkpt>
      <trkpt lat="31.133458083495498" lon="-5.39633053354919">
        <ele>1180.6400000000001</ele>
        <time>2019-03-12T16:29:12Z</time>
      </trkpt>
      <trkpt lat="31.133331600576639" lon="-5.395892327651382">
        <ele>1180.6400000000001</ele>
        <time>2019-03-12T16:29:13Z</time>
      </trkpt>
      <trkpt lat="31.133323218673468" lon="-5.395800210535526">
        <ele>1180.6400000000001</ele>
        <time>2019-03-12T16:29:19Z</time>
      </trkpt>
      <trkpt lat="31.133284075185657" lon="-5.395569540560246">
        <ele>1180.1600000000001</ele>
        <time>2019-03-12T16:29:22Z</time>
      </trkpt>
      <trkpt lat="31.133220791816711" lon="-5.39542218670249">
        <ele>1179.6700000000001</ele>
        <time>2019-03-12T16:29:23Z</time>
      </trkpt>
      <trkpt lat="31.133202519267797" lon="-5.395356304943562">
        <ele>1179.1900000000001</ele>
        <time>2019-03-12T16:29:24Z</time>
      </trkpt>
      <trkpt lat="31.133190114051104" lon="-5.395288160070777">
        <ele>1178.71</ele>
        <time>2019-03-12T16:29:25Z</time>
      </trkpt>
      <trkpt lat="31.133180810138583" lon="-5.395218841731548">
        <ele>1178.23</ele>
        <time>2019-03-12T16:29:26Z</time>
      </trkpt>
      <trkpt lat="31.133165555074811" lon="-5.395144075155258">
        <ele>1177.75</ele>
        <time>2019-03-12T16:29:27Z</time>
      </trkpt>
      <trkpt lat="31.133142001926899" lon="-5.395062100142241">
        <ele>1178.23</ele>
        <time>2019-03-12T16:29:28Z</time>
      </trkpt>
      <trkpt lat="31.133112413808703" lon="-5.39497459307313">
        <ele>1178.23</ele>
        <time>2019-03-12T16:29:35Z</time>
      </trkpt>
      <trkpt lat="31.132963970303535" lon="-5.394617775455117">
        <ele>1178.23</ele>
        <time>2019-03-12T16:29:37Z</time>
      </trkpt>
      <trkpt lat="31.132937567308545" lon="-5.394557761028409">
        <ele>1178.23</ele>
        <time>2019-03-12T16:29:43Z</time>
      </trkpt>
      <trkpt lat="31.13279465585947" lon="-5.394164314493537">
        <ele>1177.75</ele>
        <time>2019-03-12T16:29:44Z</time>
      </trkpt>
      <trkpt lat="31.132775964215398" lon="-5.3940867818892">
        <ele>1177.75</ele>
        <time>2019-03-12T16:29:45Z</time>
      </trkpt>
      <trkpt lat="31.132767247036099" lon="-5.394004136323929">
        <ele>1177.27</ele>
        <time>2019-03-12T16:29:46Z</time>
      </trkpt>
      <trkpt lat="31.132767247036099" lon="-5.393916880711913">
        <ele>1177.27</ele>
        <time>2019-03-12T16:29:47Z</time>
      </trkpt>
      <trkpt lat="31.132770096883178" lon="-5.393827864900231">
        <ele>1177.27</ele>
        <time>2019-03-12T16:29:48Z</time>
      </trkpt>
      <trkpt lat="31.132778311148286" lon="-5.393740274012089">
        <ele>1177.75</ele>
        <time>2019-03-12T16:29:49Z</time>
      </trkpt>
      <trkpt lat="31.132796667516232" lon="-5.393657963722944">
        <ele>1178.23</ele>
        <time>2019-03-12T16:29:50Z</time>
      </trkpt>
      <trkpt lat="31.132824495434761" lon="-5.393577665090561">
        <ele>1178.71</ele>
        <time>2019-03-12T16:29:51Z</time>
      </trkpt>
      <trkpt lat="31.132851736620069" lon="-5.393498204648495">
        <ele>1179.6700000000001</ele>
        <time>2019-03-12T16:29:52Z</time>
      </trkpt>
      <trkpt lat="31.132868165150285" lon="-5.393423186615109">
        <ele>1180.1600000000001</ele>
        <time>2019-03-12T16:29:53Z</time>
      </trkpt>
      <trkpt lat="31.132873948663473" lon="-5.393347581848502">
        <ele>1179.6700000000001</ele>
        <time>2019-03-12T16:29:54Z</time>
      </trkpt>
      <trkpt lat="31.132868165150285" lon="-5.393267702311277">
        <ele>1179.6700000000001</ele>
        <time>2019-03-12T16:29:55Z</time>
      </trkpt>
      <trkpt lat="31.132855424657464" lon="-5.393188409507275">
        <ele>1179.6700000000001</ele>
        <time>2019-03-12T16:29:56Z</time>
      </trkpt>
      <trkpt lat="31.132847126573324" lon="-5.393119258806109">
        <ele>1179.1900000000001</ele>
        <time>2019-03-12T16:30:00Z</time>
      </trkpt>
      <trkpt lat="31.132843773812056" lon="-5.392884397879243">
        <ele>1178.71</ele>
        <time>2019-03-12T16:30:01Z</time>
      </trkpt>
      <trkpt lat="31.132858525961637" lon="-5.392823042348027">
        <ele>1178.23</ele>
        <time>2019-03-12T16:30:02Z</time>
      </trkpt>
      <trkpt lat="31.132881995290518" lon="-5.392756825312972">
        <ele>1176.3099999999999</ele>
        <time>2019-03-12T16:30:03Z</time>
      </trkpt>
      <trkpt lat="31.132911248132586" lon="-5.392693877220154">
        <ele>1175.8299999999999</ele>
        <time>2019-03-12T16:30:04Z</time>
      </trkpt>
      <trkpt lat="31.132941590622067" lon="-5.392640316858888">
        <ele>1175.3499999999999</ele>
        <time>2019-03-12T16:30:05Z</time>
      </trkpt>
      <trkpt lat="31.132976962253451" lon="-5.392588516697288">
        <ele>1172.47</ele>
        <time>2019-03-12T16:30:06Z</time>
      </trkpt>
      <trkpt lat="31.133016357198358" lon="-5.392536800354719">
        <ele>1171.98</ele>
        <time>2019-03-12T16:30:12Z</time>
      </trkpt>
      <trkpt lat="31.133216684684157" lon="-5.392237985506654">
        <ele>1171.98</ele>
        <time>2019-03-12T16:30:13Z</time>
      </trkpt>
      <trkpt lat="31.133243925869465" lon="-5.392171600833535">
        <ele>1171.5</ele>
        <time>2019-03-12T16:30:14Z</time>
      </trkpt>
      <trkpt lat="31.133265467360616" lon="-5.392102366313338">
        <ele>1171.02</ele>
        <time>2019-03-12T16:30:25Z</time>
      </trkpt>
      <trkpt lat="31.133500831201673" lon="-5.39122142829001">
        <ele>1170.54</ele>
        <time>2019-03-12T16:30:26Z</time>
      </trkpt>
      <trkpt lat="31.133522456511855" lon="-5.39111053571105">
        <ele>1170.54</ele>
        <time>2019-03-12T16:30:27Z</time>
      </trkpt>
      <trkpt lat="31.133529664948583" lon="-5.390992602333427">
        <ele>1170.54</ele>
        <time>2019-03-12T16:30:30Z</time>
      </trkpt>
      <trkpt lat="31.133504686877131" lon="-5.390653889626265">
        <ele>1170.0599999999999</ele>
        <time>2019-03-12T16:30:31Z</time>
      </trkpt>
      <trkpt lat="31.133468141779304" lon="-5.39056328125298">
        <ele>1170.0599999999999</ele>
        <time>2019-03-12T16:30:32Z</time>
      </trkpt>
      <trkpt lat="31.133413156494498" lon="-5.390484407544136">
        <ele>1169.5799999999999</ele>
        <time>2019-03-12T16:30:33Z</time>
      </trkpt>
      <trkpt lat="31.133346688002348" lon="-5.390413496643305">
        <ele>1169.5799999999999</ele>
        <time>2019-03-12T16:30:34Z</time>
      </trkpt>
      <trkpt lat="31.133277369663119" lon="-5.390349794179201">
        <ele>1169.0999999999999</ele>
        <time>2019-03-12T16:30:35Z</time>
      </trkpt>
      <trkpt lat="31.133215259760618" lon="-5.390287349000573">
        <ele>1169.0999999999999</ele>
        <time>2019-03-12T16:30:38Z</time>
      </trkpt>
      <trkpt lat="31.13304384984076" lon="-5.390100600197911">
        <ele>1169.0999999999999</ele>
        <time>2019-03-12T16:30:39Z</time>
      </trkpt>
      <trkpt lat="31.13299255259335" lon="-5.390027426183224">
        <ele>1168.6199999999999</ele>
        <time>2019-03-12T16:30:40Z</time>
      </trkpt>
      <trkpt lat="31.132942261174321" lon="-5.389948384836316">
        <ele>1168.6199999999999</ele>
        <time>2019-03-12T16:30:42Z</time>
      </trkpt>
      <trkpt lat="31.132854921743274" lon="-5.389793068170548">
        <ele>1168.6199999999999</ele>
        <time>2019-03-12T16:30:43Z</time>
      </trkpt>
      <trkpt lat="31.132829356938601" lon="-5.389710338786244">
        <ele>1171.02</ele>
        <time>2019-03-12T16:30:44Z</time>
      </trkpt>
      <trkpt lat="31.132818544283509" lon="-5.389618892222643">
        <ele>1171.5</ele>
        <time>2019-03-12T16:30:45Z</time>
      </trkpt>
      <trkpt lat="31.132816448807716" lon="-5.389516549184918">
        <ele>1171.98</ele>
        <time>2019-03-12T16:30:46Z</time>
      </trkpt>
      <trkpt lat="31.132814520969987" lon="-5.389408087357879">
        <ele>1172.47</ele>
        <time>2019-03-12T16:30:48Z</time>
      </trkpt>
      <trkpt lat="31.132811000570655" lon="-5.389176663011313">
        <ele>1172.95</ele>
        <time>2019-03-12T16:30:57Z</time>
      </trkpt>
      <trkpt lat="31.132874116301537" lon="-5.388139151036739">
        <ele>1173.4300000000001</ele>
        <time>2019-03-12T16:30:58Z</time>
      </trkpt>
      <trkpt lat="31.132897082716227" lon="-5.388045106083155">
        <ele>1172.95</ele>
        <time>2019-03-12T16:30:59Z</time>
      </trkpt>
      <trkpt lat="31.132927928119898" lon="-5.387960197404027">
        <ele>1168.6199999999999</ele>
        <time>2019-03-12T16:31:02Z</time>
      </trkpt>
      <trkpt lat="31.133013926446438" lon="-5.387709746137261">
        <ele>1166.22</ele>
        <time>2019-03-12T16:31:07Z</time>
      </trkpt>
      <trkpt lat="31.13304678350687" lon="-5.38731244392693">
        <ele>1165.74</ele>
        <time>2019-03-12T16:31:08Z</time>
      </trkpt>
      <trkpt lat="31.133039658889174" lon="-5.387236922979355">
        <ele>1165.74</ele>
        <time>2019-03-12T16:31:09Z</time>
      </trkpt>
      <trkpt lat="31.133024068549275" lon="-5.387151846662164">
        <ele>1165.74</ele>
        <time>2019-03-12T16:31:20Z</time>
      </trkpt>
      <trkpt lat="31.132864141836762" lon="-5.38609279319644">
        <ele>1165.26</ele>
        <time>2019-03-12T16:31:27Z</time>
      </trkpt>
      <trkpt lat="31.132818628102541" lon="-5.385753242298961">
        <ele>1165.26</ele>
        <time>2019-03-12T16:31:34Z</time>
      </trkpt>
      <trkpt lat="31.132730869576335" lon="-5.385611839592457">
        <ele>1165.74</ele>
        <time>2019-03-12T16:31:36Z</time>
      </trkpt>
      <trkpt lat="31.132640764117241" lon="-5.385518213734031">
        <ele>1166.22</ele>
        <time>2019-03-12T16:31:37Z</time>
      </trkpt>
      <trkpt lat="31.13258108496666" lon="-5.385468257591128">
        <ele>1168.1400000000001</ele>
        <time>2019-03-12T16:31:38Z</time>
      </trkpt>
      <trkpt lat="31.132520232349634" lon="-5.385431377217174">
        <ele>1171.5</ele>
        <time>2019-03-12T16:31:39Z</time>
      </trkpt>
      <trkpt lat="31.132463151589036" lon="-5.385413439944387">
        <ele>1171.98</ele>
        <time>2019-03-12T16:31:40Z</time>
      </trkpt>
      <trkpt lat="31.13241545855999" lon="-5.385409081354737">
        <ele>1171.98</ele>
        <time>2019-03-12T16:31:41Z</time>
      </trkpt>
      <trkpt lat="31.132372878491879" lon="-5.385410925373435">
        <ele>1172.95</ele>
        <time>2019-03-12T16:31:50Z</time>
      </trkpt>
      <trkpt lat="31.13185646943748" lon="-5.385373122990131">
        <ele>1173.4300000000001</ele>
        <time>2019-03-12T16:31:58Z</time>
      </trkpt>
      <trkpt lat="31.131174098700285" lon="-5.385465994477272">
        <ele>1174.3900000000001</ele>
        <time>2019-03-12T16:31:59Z</time>
      </trkpt>
      <trkpt lat="31.131101511418819" lon="-5.385466748848558">
        <ele>1173.9100000000001</ele>
        <time>2019-03-12T16:32:00Z</time>
      </trkpt>
      <trkpt lat="31.131031690165401" lon="-5.385465994477272">
        <ele>1173.9100000000001</ele>
        <time>2019-03-12T16:32:04Z</time>
      </trkpt>
      <trkpt lat="31.130765816196799" lon="-5.385464150458574">
        <ele>1172.95</ele>
        <time>2019-03-12T16:32:05Z</time>
      </trkpt>
      <trkpt lat="31.130691049620509" lon="-5.385448643937707">
        <ele>1172.47</ele>
        <time>2019-03-12T16:32:09Z</time>
      </trkpt>
      <trkpt lat="31.130394246429205" lon="-5.385363148525357">
        <ele>1171.5</ele>
        <time>2019-03-12T16:32:10Z</time>
      </trkpt>
      <trkpt lat="31.130331633612514" lon="-5.385311432182789">
        <ele>1170.54</ele>
        <time>2019-03-12T16:32:11Z</time>
      </trkpt>
      <trkpt lat="31.130280504003167" lon="-5.385231552645564">
        <ele>1169.5799999999999</ele>
        <time>2019-03-12T16:32:12Z</time>
      </trkpt>
      <trkpt lat="31.130237923935056" lon="-5.38513608276844">
        <ele>1168.6199999999999</ele>
        <time>2019-03-12T16:32:13Z</time>
      </trkpt>
      <trkpt lat="31.130200121551752" lon="-5.385039187967777">
        <ele>1167.6600000000001</ele>
        <time>2019-03-12T16:32:14Z</time>
      </trkpt>
      <trkpt lat="31.130165504291654" lon="-5.384943382814527">
        <ele>1167.6600000000001</ele>
        <time>2019-03-12T16:32:15Z</time>
      </trkpt>
      <trkpt lat="31.130126696079969" lon="-5.384851098060608">
        <ele>1167.1800000000001</ele>
        <time>2019-03-12T16:32:16Z</time>
      </trkpt>
      <trkpt lat="31.130076739937067" lon="-5.384766440838575">
        <ele>1167.6600000000001</ele>
        <time>2019-03-12T16:32:17Z</time>
      </trkpt>
      <trkpt lat="31.130010858178139" lon="-5.384698631241918">
        <ele>1167.6600000000001</ele>
        <time>2019-03-12T16:32:18Z</time>
      </trkpt>
      <trkpt lat="31.129929386079311" lon="-5.384652866050601">
        <ele>1168.1400000000001</ele>
        <time>2019-03-12T16:32:19Z</time>
      </trkpt>
      <trkpt lat="31.129840789362788" lon="-5.38463182747364">
        <ele>1168.6199999999999</ele>
        <time>2019-03-12T16:32:20Z</time>
      </trkpt>
      <trkpt lat="31.129751857370138" lon="-5.38462889380753">
        <ele>1168.6199999999999</ele>
        <time>2019-03-12T16:32:21Z</time>
      </trkpt>
      <trkpt lat="31.129665104672313" lon="-5.384642137214541">
        <ele>1168.6199999999999</ele>
        <time>2019-03-12T16:32:22Z</time>
      </trkpt>
      <trkpt lat="31.129582207649946" lon="-5.384663594886661">
        <ele>1168.6199999999999</ele>
        <time>2019-03-12T16:32:23Z</time>
      </trkpt>
      <trkpt lat="31.129507692530751" lon="-5.384685890749097">
        <ele>1168.6199999999999</ele>
        <time>2019-03-12T16:32:24Z</time>
      </trkpt>
      <trkpt lat="31.129435105249286" lon="-5.384703492745757">
        <ele>1168.6199999999999</ele>
        <time>2019-03-12T16:32:25Z</time>
      </trkpt>
      <trkpt lat="31.12935857847333" lon="-5.384712377563119">
        <ele>1168.1400000000001</ele>
        <time>2019-03-12T16:32:31Z</time>
      </trkpt>
      <trkpt lat="31.12883672118187" lon="-5.3847461566329">
        <ele>1167.6600000000001</ele>
        <time>2019-03-12T16:32:32Z</time>
      </trkpt>
      <trkpt lat="31.128752399235964" lon="-5.384736265987158">
        <ele>1166.22</ele>
        <time>2019-03-12T16:32:33Z</time>
      </trkpt>
      <trkpt lat="31.128668244928122" lon="-5.384711539372802">
        <ele>1165.74</ele>
        <time>2019-03-12T16:32:34Z</time>
      </trkpt>
      <trkpt lat="31.128586018458009" lon="-5.384675832465291">
        <ele>1165.74</ele>
        <time>2019-03-12T16:32:35Z</time>
      </trkpt>
      <trkpt lat="31.128509575501084" lon="-5.384636437520385">
        <ele>1165.74</ele>
        <time>2019-03-12T16:32:37Z</time>
      </trkpt>
      <trkpt lat="31.128389462828636" lon="-5.384553875774145">
        <ele>1165.74</ele>
        <time>2019-03-12T16:32:43Z</time>
      </trkpt>
      <trkpt lat="31.128075057640672" lon="-5.384221533313394">
        <ele>1165.74</ele>
        <time>2019-03-12T16:32:45Z</time>
      </trkpt>
      <trkpt lat="31.127942875027657" lon="-5.384099995717406">
        <ele>1165.26</ele>
        <time>2019-03-12T16:32:46Z</time>
      </trkpt>
      <trkpt lat="31.127883112058043" lon="-5.384029755368829">
        <ele>1164.77</ele>
        <time>2019-03-12T16:32:47Z</time>
      </trkpt>
      <trkpt lat="31.127828797325492" lon="-5.383967226371169">
        <ele>1164.77</ele>
        <time>2019-03-12T16:32:48Z</time>
      </trkpt>
      <trkpt lat="31.127773812040687" lon="-5.383914588019252">
        <ele>1164.29</ele>
        <time>2019-03-12T16:32:49Z</time>
      </trkpt>
      <trkpt lat="31.127710863947868" lon="-5.383868822827935">
        <ele>1163.3299999999999</ele>
        <time>2019-03-12T16:32:50Z</time>
      </trkpt>
      <trkpt lat="31.127643305808306" lon="-5.383821129798889">
        <ele>1162.8499999999999</ele>
        <time>2019-03-12T16:32:51Z</time>
      </trkpt>
      <trkpt lat="31.127577759325504" lon="-5.383768910542131">
        <ele>1160.45</ele>
        <time>2019-03-12T16:32:52Z</time>
      </trkpt>
      <trkpt lat="31.127517409622669" lon="-5.383717613294721">
        <ele>1159.97</ele>
        <time>2019-03-12T16:32:56Z</time>
      </trkpt>
      <trkpt lat="31.127292523160577" lon="-5.383554920554161">
        <ele>1159.49</ele>
        <time>2019-03-12T16:32:59Z</time>
      </trkpt>
      <trkpt lat="31.127109043300152" lon="-5.383376134559512">
        <ele>1159.49</ele>
        <time>2019-03-12T16:33:00Z</time>
      </trkpt>
      <trkpt lat="31.127039054408669" lon="-5.383316287770867">
        <ele>1159.01</ele>
        <time>2019-03-12T16:33:07Z</time>
      </trkpt>
      <trkpt lat="31.126579809933901" lon="-5.382950669154525">
        <ele>1159.01</ele>
        <time>2019-03-12T16:33:08Z</time>
      </trkpt>
      <trkpt lat="31.126526668667793" lon="-5.382890906184912">
        <ele>1157.5599999999999</ele>
        <time>2019-03-12T16:33:09Z</time>
      </trkpt>
      <trkpt lat="31.126478556543589" lon="-5.382835082709789">
        <ele>1157.0799999999999</ele>
        <time>2019-03-12T16:33:10Z</time>
      </trkpt>
      <trkpt lat="31.126429103314877" lon="-5.382785378023982">
        <ele>1157.0799999999999</ele>
        <time>2019-03-12T16:33:11Z</time>
      </trkpt>
      <trkpt lat="31.126373112201691" lon="-5.382736176252365">
        <ele>1156.5999999999999</ele>
        <time>2019-03-12T16:33:12Z</time>
      </trkpt>
      <trkpt lat="31.126309745013714" lon="-5.382686387747526">
        <ele>1156.5999999999999</ele>
        <time>2019-03-12T16:33:24Z</time>
      </trkpt>
      <trkpt lat="31.125496197491884" lon="-5.38213150575757">
        <ele>1156.5999999999999</ele>
        <time>2019-03-12T16:33:32Z</time>
      </trkpt>
      <trkpt lat="31.124927569180727" lon="-5.381628591567278">
        <ele>1156.5999999999999</ele>
        <time>2019-03-12T16:33:33Z</time>
      </trkpt>
      <trkpt lat="31.124849449843168" lon="-5.38157251663506">
        <ele>1157.0799999999999</ele>
        <time>2019-03-12T16:33:35Z</time>
      </trkpt>
      <trkpt lat="31.124697318300605" lon="-5.381469000130892">
        <ele>1157.5599999999999</ele>
        <time>2019-03-12T16:33:36Z</time>
      </trkpt>
      <trkpt lat="31.124635543674231" lon="-5.381401525810361">
        <ele>1157.5599999999999</ele>
        <time>2019-03-12T16:33:37Z</time>
      </trkpt>
      <trkpt lat="31.124593047425151" lon="-5.381316533312202">
        <ele>1157.5599999999999</ele>
        <time>2019-03-12T16:33:38Z</time>
      </trkpt>
      <trkpt lat="31.124564716592431" lon="-5.381217710673809">
        <ele>1157.0799999999999</ele>
        <time>2019-03-12T16:33:39Z</time>
      </trkpt>
      <trkpt lat="31.124539570882916" lon="-5.38111662492156">
        <ele>1156.5999999999999</ele>
        <time>2019-03-12T16:33:41Z</time>
      </trkpt>
      <trkpt lat="31.124475784599781" lon="-5.380932223051786">
        <ele>1156.5999999999999</ele>
        <time>2019-03-12T16:33:42Z</time>
      </trkpt>
      <trkpt lat="31.124430522322655" lon="-5.380848655477166">
        <ele>1156.5999999999999</ele>
        <time>2019-03-12T16:33:43Z</time>
      </trkpt>
      <trkpt lat="31.124369250610471" lon="-5.380771877244115">
        <ele>1156.5999999999999</ele>
        <time>2019-03-12T16:33:44Z</time>
      </trkpt>
      <trkpt lat="31.124297250062227" lon="-5.380705744028091">
        <ele>1157.0799999999999</ele>
        <time>2019-03-12T16:33:45Z</time>
      </trkpt>
      <trkpt lat="31.124222567304969" lon="-5.380650842562318">
        <ele>1157.0799999999999</ele>
        <time>2019-03-12T16:33:46Z</time>
      </trkpt>
      <trkpt lat="31.124144196510315" lon="-5.380613459274173">
        <ele>1157.5599999999999</ele>
        <time>2019-03-12T16:33:47Z</time>
      </trkpt>
      <trkpt lat="31.124058282002807" lon="-5.380594599992037">
        <ele>1157.5599999999999</ele>
        <time>2019-03-12T16:33:48Z</time>
      </trkpt>
      <trkpt lat="31.123964237049222" lon="-5.380590492859483">
        <ele>1157.5599999999999</ele>
        <time>2019-03-12T16:33:49Z</time>
      </trkpt>
      <trkpt lat="31.123868431895971" lon="-5.380600467324257">
        <ele>1157.5599999999999</ele>
        <time>2019-03-12T16:33:50Z</time>
      </trkpt>
      <trkpt lat="31.12377799116075" lon="-5.380623266100884">
        <ele>1157.5599999999999</ele>
        <time>2019-03-12T16:33:51Z</time>
      </trkpt>
      <trkpt lat="31.12369442358613" lon="-5.380646903067827">
        <ele>1157.0799999999999</ele>
        <time>2019-03-12T16:33:52Z</time>
      </trkpt>
      <trkpt lat="31.123612783849239" lon="-5.380663247779012">
        <ele>1157.0799999999999</ele>
        <time>2019-03-12T16:33:53Z</time>
      </trkpt>
      <trkpt lat="31.123526701703668" lon="-5.380677077919245">
        <ele>1157.0799999999999</ele>
        <time>2019-03-12T16:33:54Z</time>
      </trkpt>
      <trkpt lat="31.123437099158764" lon="-5.380696523934603">
        <ele>1157.5599999999999</ele>
        <time>2019-03-12T16:33:55Z</time>
      </trkpt>
      <trkpt lat="31.123345736414194" lon="-5.380714042112231">
        <ele>1157.5599999999999</ele>
        <time>2019-03-12T16:33:56Z</time>
      </trkpt>
      <trkpt lat="31.123251607641578" lon="-5.380721753463149">
        <ele>1157.5599999999999</ele>
        <time>2019-03-12T16:33:57Z</time>
      </trkpt>
      <trkpt lat="31.123155634850264" lon="-5.380720579996705">
        <ele>1157.5599999999999</ele>
        <time>2019-03-12T16:33:58Z</time>
      </trkpt>
      <trkpt lat="31.123060751706362" lon="-5.380715131759644">
        <ele>1157.5599999999999</ele>
        <time>2019-03-12T16:34:02Z</time>
      </trkpt>
      <trkpt lat="31.122669987380505" lon="-5.380708258599043">
        <ele>1158.05</ele>
        <time>2019-03-12T16:34:04Z</time>
      </trkpt>
      <trkpt lat="31.122485920786858" lon="-5.380684705451131">
        <ele>1159.01</ele>
        <time>2019-03-12T16:34:05Z</time>
      </trkpt>
      <trkpt lat="31.12238684669137" lon="-5.380687387660146">
        <ele>1159.01</ele>
        <time>2019-03-12T16:34:07Z</time>
      </trkpt>
      <trkpt lat="31.122180316597223" lon="-5.380691913887858">
        <ele>1158.53</ele>
        <time>2019-03-12T16:34:08Z</time>
      </trkpt>
      <trkpt lat="31.122080404311419" lon="-5.380677077919245">
        <ele>1158.05</ele>
        <time>2019-03-12T16:34:09Z</time>
      </trkpt>
      <trkpt lat="31.121986526995897" lon="-5.380652183666825">
        <ele>1157.5599999999999</ele>
        <time>2019-03-12T16:34:13Z</time>
      </trkpt>
      <trkpt lat="31.121716964989901" lon="-5.380517821758986">
        <ele>1157.0799999999999</ele>
        <time>2019-03-12T16:34:15Z</time>
      </trkpt>
      <trkpt lat="31.121610766276717" lon="-5.380440205335617">
        <ele>1156.5999999999999</ele>
        <time>2019-03-12T16:34:17Z</time>
      </trkpt>
      <trkpt lat="31.121510183438659" lon="-5.380390249192715">
        <ele>1156.5999999999999</ele>
        <time>2019-03-12T16:34:18Z</time>
      </trkpt>
      <trkpt lat="31.121445139870048" lon="-5.380370384082198">
        <ele>1156.1199999999999</ele>
        <time>2019-03-12T16:34:19Z</time>
      </trkpt>
      <trkpt lat="31.121364422142506" lon="-5.380355045199394">
        <ele>1156.1199999999999</ele>
        <time>2019-03-12T16:34:20Z</time>
      </trkpt>
      <trkpt lat="31.121273981407285" lon="-5.380343981087208">
        <ele>1155.6400000000001</ele>
        <time>2019-03-12T16:34:21Z</time>
      </trkpt>
      <trkpt lat="31.12117943353951" lon="-5.3803357668221">
        <ele>1155.1600000000001</ele>
        <time>2019-03-12T16:34:26Z</time>
      </trkpt>
      <trkpt lat="31.120711304247379" lon="-5.380297964438796">
        <ele>1154.6800000000001</ele>
        <time>2019-03-12T16:34:35Z</time>
      </trkpt>
      <trkpt lat="31.11999599263072" lon="-5.380097636952996">
        <ele>1154.2</ele>
        <time>2019-03-12T16:34:36Z</time>
      </trkpt>
      <trkpt lat="31.119929356500506" lon="-5.380098642781377">
        <ele>1153.72</ele>
        <time>2019-03-12T16:34:38Z</time>
      </trkpt>
      <trkpt lat="31.119769681245089" lon="-5.380117166787386">
        <ele>1153.72</ele>
        <time>2019-03-12T16:34:40Z</time>
      </trkpt>
      <trkpt lat="31.119594164192677" lon="-5.380107359960675">
        <ele>1153.72</ele>
        <time>2019-03-12T16:34:41Z</time>
      </trkpt>
      <trkpt lat="31.119512440636754" lon="-5.380083974450827">
        <ele>1153.72</ele>
        <time>2019-03-12T16:34:42Z</time>
      </trkpt>
      <trkpt lat="31.119438763707876" lon="-5.380047094076872">
        <ele>1150.8399999999999</ele>
        <time>2019-03-12T16:34:43Z</time>
      </trkpt>
      <trkpt lat="31.119369948282838" lon="-5.380009291693568">
        <ele>1149.3900000000001</ele>
        <time>2019-03-12T16:34:44Z</time>
      </trkpt>
      <trkpt lat="31.119299875572324" lon="-5.379983391612768">
        <ele>1148.9100000000001</ele>
        <time>2019-03-12T16:34:45Z</time>
      </trkpt>
      <trkpt lat="31.119224354624748" lon="-5.379970148205757">
        <ele>1148.9100000000001</ele>
        <time>2019-03-12T16:34:46Z</time>
      </trkpt>
      <trkpt lat="31.119140787050128" lon="-5.379959922283888">
        <ele>1148.4300000000001</ele>
        <time>2019-03-12T16:34:56Z</time>
      </trkpt>
      <trkpt lat="31.118226991966367" lon="-5.37954518571496">
        <ele>1148.4300000000001</ele>
        <time>2019-03-12T16:35:00Z</time>
      </trkpt>
      <trkpt lat="31.117927925661206" lon="-5.379293141886592">
        <ele>1148.4300000000001</ele>
        <time>2019-03-12T16:35:08Z</time>
      </trkpt>
      <trkpt lat="31.117386789992452" lon="-5.378654440864921">
        <ele>1148.4300000000001</ele>
        <time>2019-03-12T16:35:17Z</time>
      </trkpt>
      <trkpt lat="31.116904746741056" lon="-5.377909541130066">
        <ele>1148.9100000000001</ele>
        <time>2019-03-12T16:35:21Z</time>
      </trkpt>
      <trkpt lat="31.116675836965442" lon="-5.377630172297359">
        <ele>1148.9100000000001</ele>
        <time>2019-03-12T16:35:22Z</time>
      </trkpt>
      <trkpt lat="31.116619929671288" lon="-5.377549873664975">
        <ele>1148.9100000000001</ele>
        <time>2019-03-12T16:35:23Z</time>
      </trkpt>
      <trkpt lat="31.116565866395831" lon="-5.377458427101374">
        <ele>1149.3900000000001</ele>
        <time>2019-03-12T16:35:24Z</time>
      </trkpt>
      <trkpt lat="31.116517586633563" lon="-5.377365136519074">
        <ele>1149.3900000000001</ele>
        <time>2019-03-12T16:35:25Z</time>
      </trkpt>
      <trkpt lat="31.116475760936737" lon="-5.377272767946124">
        <ele>1149.8699999999999</ele>
        <time>2019-03-12T16:35:28Z</time>
      </trkpt>
      <trkpt lat="31.116352211683989" lon="-5.377000775188208">
        <ele>1148.9100000000001</ele>
        <time>2019-03-12T16:35:36Z</time>
      </trkpt>
      <trkpt lat="31.115945605561137" lon="-5.376302730292082">
        <ele>1148.4300000000001</ele>
        <time>2019-03-12T16:35:39Z</time>
      </trkpt>
      <trkpt lat="31.115837814286351" lon="-5.3760583139956">
        <ele>1148.4300000000001</ele>
        <time>2019-03-12T16:35:48Z</time>
      </trkpt>
      <trkpt lat="31.115301288664341" lon="-5.375130102038384">
        <ele>1148.4300000000001</ele>
        <time>2019-03-12T16:35:51Z</time>
      </trkpt>
      <trkpt lat="31.115108672529459" lon="-5.374885182827711">
        <ele>1148.4300000000001</ele>
        <time>2019-03-12T16:35:55Z</time>
      </trkpt>
      <trkpt lat="31.114758728072047" lon="-5.374626265838742">
        <ele>1148.9100000000001</ele>
        <time>2019-03-12T16:35:56Z</time>
      </trkpt>
      <trkpt lat="31.114662922918797" lon="-5.374581338837743">
        <ele>1148.9100000000001</ele>
        <time>2019-03-12T16:35:58Z</time>
      </trkpt>
      <trkpt lat="31.11445446498692" lon="-5.374508583918214">
        <ele>1147.95</ele>
        <time>2019-03-12T16:35:59Z</time>
      </trkpt>
      <trkpt lat="31.114350529387593" lon="-5.374489724636078">
        <ele>1147.95</ele>
        <time>2019-03-12T16:36:00Z</time>
      </trkpt>
      <trkpt lat="31.11424676142633" lon="-5.374485701322556">
        <ele>1147.95</ele>
        <time>2019-03-12T16:36:01Z</time>
      </trkpt>
      <trkpt lat="31.114139221608639" lon="-5.374502213671804">
        <ele>1147.95</ele>
        <time>2019-03-12T16:36:02Z</time>
      </trkpt>
      <trkpt lat="31.114034280180931" lon="-5.374523671343923">
        <ele>1148.4300000000001</ele>
        <time>2019-03-12T16:36:12Z</time>
      </trkpt>
      <trkpt lat="31.11310631968081" lon="-5.374675719067454">
        <ele>1148.4300000000001</ele>
        <time>2019-03-12T16:36:13Z</time>
      </trkpt>
      <trkpt lat="31.113023338839412" lon="-5.374668342992663">
        <ele>1147.95</ele>
        <time>2019-03-12T16:36:15Z</time>
      </trkpt>
      <trkpt lat="31.112870452925563" lon="-5.374650908634067">
        <ele>1147.95</ele>
        <time>2019-03-12T16:36:16Z</time>
      </trkpt>
      <trkpt lat="31.112794345244765" lon="-5.374657530337572">
        <ele>1147.95</ele>
        <time>2019-03-12T16:36:17Z</time>
      </trkpt>
      <trkpt lat="31.112723853439093" lon="-5.374676892533898">
        <ele>1147.95</ele>
        <time>2019-03-12T16:36:19Z</time>
      </trkpt>
      <trkpt lat="31.112587312236428" lon="-5.374716287478805">
        <ele>1147.47</ele>
        <time>2019-03-12T16:36:20Z</time>
      </trkpt>
      <trkpt lat="31.112512713298202" lon="-5.374723160639405">
        <ele>1147.47</ele>
        <time>2019-03-12T16:36:21Z</time>
      </trkpt>
      <trkpt lat="31.112434258684516" lon="-5.374713353812695">
        <ele>1146.03</ele>
        <time>2019-03-12T16:36:22Z</time>
      </trkpt>
      <trkpt lat="31.112354043871164" lon="-5.374689549207687">
        <ele>1145.55</ele>
        <time>2019-03-12T16:36:23Z</time>
      </trkpt>
      <trkpt lat="31.112272823229432" lon="-5.37466038018465">
        <ele>1144.5899999999999</ele>
        <time>2019-03-12T16:36:28Z</time>
      </trkpt>
      <trkpt lat="31.11185104586184" lon="-5.37452501244843">
        <ele>1143.6300000000001</ele>
        <time>2019-03-12T16:36:29Z</time>
      </trkpt>
      <trkpt lat="31.111761694774032" lon="-5.374513948336244">
        <ele>1143.6300000000001</ele>
        <time>2019-03-12T16:36:32Z</time>
      </trkpt>
      <trkpt lat="31.111501017585397" lon="-5.374502213671804">
        <ele>1143.6300000000001</ele>
        <time>2019-03-12T16:36:33Z</time>
      </trkpt>
      <trkpt lat="31.111412923783064" lon="-5.374485701322556">
        <ele>1143.1400000000001</ele>
        <time>2019-03-12T16:36:35Z</time>
      </trkpt>
      <trkpt lat="31.111239418387413" lon="-5.374450078234077">
        <ele>1143.1400000000001</ele>
        <time>2019-03-12T16:36:37Z</time>
      </trkpt>
      <trkpt lat="31.111064655706286" lon="-5.374432560056448">
        <ele>1141.7</ele>
        <time>2019-03-12T16:36:38Z</time>
      </trkpt>
      <trkpt lat="31.110988715663552" lon="-5.37441018037498">
        <ele>1141.22</ele>
        <time>2019-03-12T16:36:40Z</time>
      </trkpt>
      <trkpt lat="31.110848905518651" lon="-5.374364834278822">
        <ele>1141.22</ele>
        <time>2019-03-12T16:36:41Z</time>
      </trkpt>
      <trkpt lat="31.11076726578176" lon="-5.374358547851443">
        <ele>1139.78</ele>
        <time>2019-03-12T16:36:43Z</time>
      </trkpt>
      <trkpt lat="31.110605159774423" lon="-5.374348321929574">
        <ele>1139.78</ele>
        <time>2019-03-12T16:36:52Z</time>
      </trkpt>
      <trkpt lat="31.109945001080632" lon="-5.374095775187016">
        <ele>1139.3</ele>
        <time>2019-03-12T16:36:53Z</time>
      </trkpt>
      <trkpt lat="31.109879789873958" lon="-5.374056044965982">
        <ele>1139.3</ele>
        <time>2019-03-12T16:36:54Z</time>
      </trkpt>
      <trkpt lat="31.109814662486315" lon="-5.374008938670158">
        <ele>1139.3</ele>
        <time>2019-03-12T16:36:58Z</time>
      </trkpt>
      <trkpt lat="31.109550632536411" lon="-5.373819591477513">
        <ele>1139.3</ele>
        <time>2019-03-12T16:37:05Z</time>
      </trkpt>
      <trkpt lat="31.109037240967155" lon="-5.373541563749313">
        <ele>1139.3</ele>
        <time>2019-03-12T16:37:07Z</time>
      </trkpt>
      <trkpt lat="31.108888546004891" lon="-5.373440058901906">
        <ele>1139.3</ele>
        <time>2019-03-12T16:37:08Z</time>
      </trkpt>
      <trkpt lat="31.108808498829603" lon="-5.373405609279871">
        <ele>1139.3</ele>
        <time>2019-03-12T16:37:10Z</time>
      </trkpt>
      <trkpt lat="31.108661983162165" lon="-5.373323801904917">
        <ele>1139.78</ele>
        <time>2019-03-12T16:37:11Z</time>
      </trkpt>
      <trkpt lat="31.108599454164505" lon="-5.373265966773033">
        <ele>1139.78</ele>
        <time>2019-03-12T16:37:12Z</time>
      </trkpt>
      <trkpt lat="31.108546229079366" lon="-5.373198073357344">
        <ele>1139.78</ele>
        <time>2019-03-12T16:37:13Z</time>
      </trkpt>
      <trkpt lat="31.108506750315428" lon="-5.373124564066529">
        <ele>1139.3</ele>
        <time>2019-03-12T16:37:14Z</time>
      </trkpt>
      <trkpt lat="31.108476407825947" lon="-5.373044013977051">
        <ele>1138.8199999999999</ele>
        <time>2019-03-12T16:37:15Z</time>
      </trkpt>
      <trkpt lat="31.108460063114762" lon="-5.37295307032764">
        <ele>1138.3399999999999</ele>
        <time>2019-03-12T16:37:16Z</time>
      </trkpt>
      <trkpt lat="31.108460063114762" lon="-5.372857348993421">
        <ele>1136.9000000000001</ele>
        <time>2019-03-12T16:37:17Z</time>
      </trkpt>
      <trkpt lat="31.108473306521773" lon="-5.372765818610787">
        <ele>1136.9000000000001</ele>
        <time>2019-03-12T16:37:18Z</time>
      </trkpt>
      <trkpt lat="31.108498703688383" lon="-5.372678143903613">
        <ele>1136.9000000000001</ele>
        <time>2019-03-12T16:37:19Z</time>
      </trkpt>
      <trkpt lat="31.108526028692722" lon="-5.372585356235504">
        <ele>1136.9000000000001</ele>
        <time>2019-03-12T16:37:20Z</time>
      </trkpt>
      <trkpt lat="31.108553521335125" lon="-5.372486114501953">
        <ele>1136.9000000000001</ele>
        <time>2019-03-12T16:37:23Z</time>
      </trkpt>
      <trkpt lat="31.108622923493385" lon="-5.372229795902968">
        <ele>1135.9400000000001</ele>
        <time>2019-03-12T16:37:24Z</time>
      </trkpt>
      <trkpt lat="31.108625857159495" lon="-5.372148407623172">
        <ele>1135.9400000000001</ele>
        <time>2019-03-12T16:37:26Z</time>
      </trkpt>
      <trkpt lat="31.108615463599563" lon="-5.371979847550392">
        <ele>1135.9400000000001</ele>
        <time>2019-03-12T16:37:27Z</time>
      </trkpt>
      <trkpt lat="31.108587719500065" lon="-5.371899632737041">
        <ele>1135.45</ele>
        <time>2019-03-12T16:37:28Z</time>
      </trkpt>
      <trkpt lat="31.108550922945142" lon="-5.371817657724023">
        <ele>1135.45</ele>
        <time>2019-03-12T16:37:34Z</time>
      </trkpt>
      <trkpt lat="31.108291167765856" lon="-5.371276857331395">
        <ele>1135.45</ele>
        <time>2019-03-12T16:37:38Z</time>
      </trkpt>
      <trkpt lat="31.108027137815952" lon="-5.370930265635252">
        <ele>1135.45</ele>
        <time>2019-03-12T16:37:39Z</time>
      </trkpt>
      <trkpt lat="31.107946000993252" lon="-5.370860360562801">
        <ele>1134.01</ele>
        <time>2019-03-12T16:37:42Z</time>
      </trkpt>
      <trkpt lat="31.107703261077404" lon="-5.370707809925079">
        <ele>1134.01</ele>
        <time>2019-03-12T16:37:43Z</time>
      </trkpt>
      <trkpt lat="31.107616843655705" lon="-5.370690291747451">
        <ele>1133.53</ele>
        <time>2019-03-12T16:37:45Z</time>
      </trkpt>
      <trkpt lat="31.107433615252376" lon="-5.370667492970824">
        <ele>1133.53</ele>
        <time>2019-03-12T16:37:46Z</time>
      </trkpt>
      <trkpt lat="31.107344515621662" lon="-5.370638994500041">
        <ele>1133.53</ele>
        <time>2019-03-12T16:37:56Z</time>
      </trkpt>
      <trkpt lat="31.106376321986318" lon="-5.370157957077026">
        <ele>1133.53</ele>
        <time>2019-03-12T16:37:57Z</time>
      </trkpt>
      <trkpt lat="31.106281103566289" lon="-5.370122585445643">
        <ele>1133.05</ele>
        <time>2019-03-12T16:37:58Z</time>
      </trkpt>
      <trkpt lat="31.106190159916878" lon="-5.370099283754826">
        <ele>1133.05</ele>
        <time>2019-03-12T16:37:59Z</time>
      </trkpt>
      <trkpt lat="31.106112878769636" lon="-5.370086207985878">
        <ele>1133.05</ele>
        <time>2019-03-12T16:38:00Z</time>
      </trkpt>
      <trkpt lat="31.106041800230742" lon="-5.370071791112423">
        <ele>1131.6099999999999</ele>
        <time>2019-03-12T16:38:01Z</time>
      </trkpt>
      <trkpt lat="31.105973068624735" lon="-5.37004379555583">
        <ele>1127.28</ele>
        <time>2019-03-12T16:38:02Z</time>
      </trkpt>
      <trkpt lat="31.105903750285506" lon="-5.37001202814281">
        <ele>1127.28</ele>
        <time>2019-03-12T16:38:03Z</time>
      </trkpt>
      <trkpt lat="31.105825714766979" lon="-5.369984116405249">
        <ele>1127.28</ele>
        <time>2019-03-12T16:38:04Z</time>
      </trkpt>
      <trkpt lat="31.105742985382676" lon="-5.369958803057671">
        <ele>1128.73</ele>
        <time>2019-03-12T16:38:09Z</time>
      </trkpt>
      <trkpt lat="31.105323052033782" lon="-5.369826452806592">
        <ele>1128.24</ele>
        <time>2019-03-12T16:38:19Z</time>
      </trkpt>
      <trkpt lat="31.104358294978738" lon="-5.369384894147515">
        <ele>1128.24</ele>
        <time>2019-03-12T16:38:20Z</time>
      </trkpt>
      <trkpt lat="31.104274978861213" lon="-5.369363185018301">
        <ele>1127.76</ele>
        <time>2019-03-12T16:38:21Z</time>
      </trkpt>
      <trkpt lat="31.104185208678246" lon="-5.369355138391256">
        <ele>1126.8</ele>
        <time>2019-03-12T16:38:29Z</time>
      </trkpt>
      <trkpt lat="31.103533934801817" lon="-5.369373997673392">
        <ele>1126.8</ele>
        <time>2019-03-12T16:38:31Z</time>
      </trkpt>
      <trkpt lat="31.103350957855582" lon="-5.369374584406614">
        <ele>1126.3199999999999</ele>
        <time>2019-03-12T16:38:32Z</time>
      </trkpt>
      <trkpt lat="31.103253895416856" lon="-5.369362933561206">
        <ele>1126.3199999999999</ele>
        <time>2019-03-12T16:38:33Z</time>
      </trkpt>
      <trkpt lat="31.103155994787812" lon="-5.369341056793928">
        <ele>1126.3199999999999</ele>
        <time>2019-03-12T16:38:38Z</time>
      </trkpt>
      <trkpt lat="31.102671856060624" lon="-5.369184399023652">
        <ele>1125.8399999999999</ele>
        <time>2019-03-12T16:38:39Z</time>
      </trkpt>
      <trkpt lat="31.102587534114718" lon="-5.369138801470399">
        <ele>1125.3599999999999</ele>
        <time>2019-03-12T16:38:40Z</time>
      </trkpt>
      <trkpt lat="31.102505559101701" lon="-5.369095131754875">
        <ele>1124.8800000000001</ele>
        <time>2019-03-12T16:38:41Z</time>
      </trkpt>
      <trkpt lat="31.102419141680002" lon="-5.369057916104794">
        <ele>1124.8800000000001</ele>
        <time>2019-03-12T16:38:42Z</time>
      </trkpt>
      <trkpt lat="31.102331802248955" lon="-5.369023382663727">
        <ele>1124.8800000000001</ele>
        <time>2019-03-12T16:38:43Z</time>
      </trkpt>
      <trkpt lat="31.102245217189193" lon="-5.368983987718821">
        <ele>1124.8800000000001</ele>
        <time>2019-03-12T16:38:44Z</time>
      </trkpt>
      <trkpt lat="31.10216005705297" lon="-5.368931852281094">
        <ele>1124.4000000000001</ele>
        <time>2019-03-12T16:38:45Z</time>
      </trkpt>
      <trkpt lat="31.102078417316079" lon="-5.36886865273118">
        <ele>1123.9200000000001</ele>
        <time>2019-03-12T16:38:46Z</time>
      </trkpt>
      <trkpt lat="31.101998873054981" lon="-5.368801597505808">
        <ele>1123.9200000000001</ele>
        <time>2019-03-12T16:38:56Z</time>
      </trkpt>
      <trkpt lat="31.101335864514112" lon="-5.368133308365941">
        <ele>1123.9200000000001</ele>
        <time>2019-03-12T16:38:57Z</time>
      </trkpt>
      <trkpt lat="31.10127073712647" lon="-5.368097350001335">
        <ele>1123.4400000000001</ele>
        <time>2019-03-12T16:38:59Z</time>
      </trkpt>
      <trkpt lat="31.101137632504106" lon="-5.368044711649418">
        <ele>1123.4400000000001</ele>
        <time>2019-03-12T16:39:00Z</time>
      </trkpt>
      <trkpt lat="31.101088095456362" lon="-5.368005987256765">
        <ele>1122.96</ele>
        <time>2019-03-12T16:39:01Z</time>
      </trkpt>
      <trkpt lat="31.101062782108784" lon="-5.367947313934565">
        <ele>1122</ele>
        <time>2019-03-12T16:39:02Z</time>
      </trkpt>
      <trkpt lat="31.101051298901439" lon="-5.367882018908858">
        <ele>1120.55</ele>
        <time>2019-03-12T16:39:03Z</time>
      </trkpt>
      <trkpt lat="31.101039228960872" lon="-5.367815550416708">
        <ele>1120.55</ele>
        <time>2019-03-12T16:39:04Z</time>
      </trkpt>
      <trkpt lat="31.101018358021975" lon="-5.367744890972972">
        <ele>1120.55</ele>
        <time>2019-03-12T16:39:05Z</time>
      </trkpt>
      <trkpt lat="31.100984578952193" lon="-5.36767054349184">
        <ele>1121.03</ele>
        <time>2019-03-12T16:39:06Z</time>
      </trkpt>
      <trkpt lat="31.100941244512796" lon="-5.367591669782996">
        <ele>1121.52</ele>
        <time>2019-03-12T16:39:10Z</time>
      </trkpt>
      <trkpt lat="31.100748209282756" lon="-5.367267373949289">
        <ele>1122</ele>
        <time>2019-03-12T16:39:11Z</time>
      </trkpt>
      <trkpt lat="31.100719794631004" lon="-5.367171484977007">
        <ele>1122</ele>
        <time>2019-03-12T16:39:12Z</time>
      </trkpt>
      <trkpt lat="31.100707305595279" lon="-5.367067214101553">
        <ele>1122</ele>
        <time>2019-03-12T16:39:13Z</time>
      </trkpt>
      <trkpt lat="31.100703617557883" lon="-5.366968810558319">
        <ele>1118.1500000000001</ele>
        <time>2019-03-12T16:39:14Z</time>
      </trkpt>
      <trkpt lat="31.100703030824661" lon="-5.366880046203733">
        <ele>1117.6700000000001</ele>
        <time>2019-03-12T16:39:16Z</time>
      </trkpt>
      <trkpt lat="31.100696576759219" lon="-5.366754485294223">
        <ele>1115.75</ele>
        <time>2019-03-12T16:39:17Z</time>
      </trkpt>
      <trkpt lat="31.100682662799954" lon="-5.366707378998399">
        <ele>1115.27</ele>
        <time>2019-03-12T16:39:18Z</time>
      </trkpt>
      <trkpt lat="31.100660869851708" lon="-5.366660440340638">
        <ele>1113.8199999999999</ele>
        <time>2019-03-12T16:39:23Z</time>
      </trkpt>
      <trkpt lat="31.100461296737194" lon="-5.366289541125298">
        <ele>1113.8199999999999</ele>
        <time>2019-03-12T16:39:24Z</time>
      </trkpt>
      <trkpt lat="31.100402874872088" lon="-5.366216115653515">
        <ele>1113.3399999999999</ele>
        <time>2019-03-12T16:39:28Z</time>
      </trkpt>
      <trkpt lat="31.100165583193302" lon="-5.365968430414796">
        <ele>1111.9000000000001</ele>
        <time>2019-03-12T16:39:29Z</time>
      </trkpt>
      <trkpt lat="31.100102551281452" lon="-5.36592174321413">
        <ele>1111.9000000000001</ele>
        <time>2019-03-12T16:39:34Z</time>
      </trkpt>
      <trkpt lat="31.099810441955924" lon="-5.365718984976411">
        <ele>1111.4200000000001</ele>
        <time>2019-03-12T16:39:35Z</time>
      </trkpt>
      <trkpt lat="31.099765934050083" lon="-5.365675231441855">
        <ele>1111.4200000000001</ele>
        <time>2019-03-12T16:39:36Z</time>
      </trkpt>
      <trkpt lat="31.099726371467113" lon="-5.365627706050873">
        <ele>1111.4200000000001</ele>
        <time>2019-03-12T16:39:48Z</time>
      </trkpt>
      <trkpt lat="31.099236281588674" lon="-5.365021442994475">
        <ele>1111.4200000000001</ele>
        <time>2019-03-12T16:39:56Z</time>
      </trkpt>
      <trkpt lat="31.098857168108225" lon="-5.364661775529385">
        <ele>1114.79</ele>
        <time>2019-03-12T16:40:04Z</time>
      </trkpt>
      <trkpt lat="31.098258532583714" lon="-5.364150144159794">
        <ele>1114.79</ele>
        <time>2019-03-12T16:40:06Z</time>
      </trkpt>
      <trkpt lat="31.098131882026792" lon="-5.364014022052288">
        <ele>1114.79</ele>
        <time>2019-03-12T16:40:07Z</time>
      </trkpt>
      <trkpt lat="31.098060049116611" lon="-5.363955181092024">
        <ele>1114.79</ele>
        <time>2019-03-12T16:40:18Z</time>
      </trkpt>
      <trkpt lat="31.097198724746704" lon="-5.363257806748152">
        <ele>1115.27</ele>
        <time>2019-03-12T16:40:30Z</time>
      </trkpt>
      <trkpt lat="31.096479892730713" lon="-5.362589349970222">
        <ele>1114.79</ele>
        <time>2019-03-12T16:40:31Z</time>
      </trkpt>
      <trkpt lat="31.096420800313354" lon="-5.362539310008287">
        <ele>1114.3099999999999</ele>
        <time>2019-03-12T16:40:32Z</time>
      </trkpt>
      <trkpt lat="31.096363384276628" lon="-5.362491449341178">
        <ele>1111.9000000000001</ele>
        <time>2019-03-12T16:40:33Z</time>
      </trkpt>
      <trkpt lat="31.096307476982474" lon="-5.362437553703785">
        <ele>1112.3800000000001</ele>
        <time>2019-03-12T16:40:34Z</time>
      </trkpt>
      <trkpt lat="31.096255928277969" lon="-5.362375779077411">
        <ele>1112.3800000000001</ele>
        <time>2019-03-12T16:40:35Z</time>
      </trkpt>
      <trkpt lat="31.096211671829224" lon="-5.362303778529167">
        <ele>1112.3800000000001</ele>
        <time>2019-03-12T16:40:36Z</time>
      </trkpt>
      <trkpt lat="31.096170349046588" lon="-5.362221049144864">
        <ele>1108.54</ele>
        <time>2019-03-12T16:40:46Z</time>
      </trkpt>
      <trkpt lat="31.095646396279335" lon="-5.361296525225043">
        <ele>1105.1700000000001</ele>
        <time>2019-03-12T16:40:47Z</time>
      </trkpt>
      <trkpt lat="31.095598703250289" lon="-5.361214298754931">
        <ele>1105.1700000000001</ele>
        <time>2019-03-12T16:40:48Z</time>
      </trkpt>
      <trkpt lat="31.095568193122745" lon="-5.361131317913532">
        <ele>1105.6500000000001</ele>
        <time>2019-03-12T16:40:49Z</time>
      </trkpt>
      <trkpt lat="31.095551680773497" lon="-5.361038949340582">
        <ele>1105.6500000000001</ele>
        <time>2019-03-12T16:40:59Z</time>
      </trkpt>
      <trkpt lat="31.095379013568163" lon="-5.359967155382037">
        <ele>1105.1700000000001</ele>
        <time>2019-03-12T16:41:09Z</time>
      </trkpt>
      <trkpt lat="31.095080953091383" lon="-5.358849847689271">
        <ele>1104.6900000000001</ele>
        <time>2019-03-12T16:41:10Z</time>
      </trkpt>
      <trkpt lat="31.095055975019932" lon="-5.358734345063567">
        <ele>1104.21</ele>
        <time>2019-03-12T16:41:18Z</time>
      </trkpt>
      <trkpt lat="31.094887750223279" lon="-5.357884084805846">
        <ele>1104.21</ele>
        <time>2019-03-12T16:41:19Z</time>
      </trkpt>
      <trkpt lat="31.09489462338388" lon="-5.357777466997504">
        <ele>1104.21</ele>
        <time>2019-03-12T16:41:20Z</time>
      </trkpt>
      <trkpt lat="31.094925804063678" lon="-5.357677638530731">
        <ele>1103.73</ele>
        <time>2019-03-12T16:41:21Z</time>
      </trkpt>
      <trkpt lat="31.094974167644978" lon="-5.357587030157447">
        <ele>1103.25</ele>
        <time>2019-03-12T16:41:22Z</time>
      </trkpt>
      <trkpt lat="31.095016077160835" lon="-5.357495835050941">
        <ele>1102.29</ele>
        <time>2019-03-12T16:41:23Z</time>
      </trkpt>
      <trkpt lat="31.095039043575525" lon="-5.357399359345436">
        <ele>1102.29</ele>
        <time>2019-03-12T16:41:24Z</time>
      </trkpt>
      <trkpt lat="31.095046754926443" lon="-5.35729642957449">
        <ele>1102.29</ele>
        <time>2019-03-12T16:41:25Z</time>
      </trkpt>
      <trkpt lat="31.095044910907745" lon="-5.357189476490021">
        <ele>1104.6900000000001</ele>
        <time>2019-03-12T16:41:26Z</time>
      </trkpt>
      <trkpt lat="31.095037283375859" lon="-5.357077661901712">
        <ele>1106.1300000000001</ele>
        <time>2019-03-12T16:41:31Z</time>
      </trkpt>
      <trkpt lat="31.094963690266013" lon="-5.356479110196233">
        <ele>1107.0999999999999</ele>
        <time>2019-03-12T16:41:32Z</time>
      </trkpt>
      <trkpt lat="31.094927899539471" lon="-5.356363691389561">
        <ele>1107.0999999999999</ele>
        <time>2019-03-12T16:41:45Z</time>
      </trkpt>
      <trkpt lat="31.094376621767879" lon="-5.354935331270099">
        <ele>1107.0999999999999</ele>
        <time>2019-03-12T16:41:54Z</time>
      </trkpt>
      <trkpt lat="31.093978146091104" lon="-5.354096721857786">
        <ele>1107.0999999999999</ele>
        <time>2019-03-12T16:42:04Z</time>
      </trkpt>
      <trkpt lat="31.093487301841378" lon="-5.3531738743186">
        <ele>1106.6099999999999</ele>
        <time>2019-03-12T16:42:15Z</time>
      </trkpt>
      <trkpt lat="31.092960247769952" lon="-5.352166201919317">
        <ele>1106.6099999999999</ele>
        <time>2019-03-12T16:42:17Z</time>
      </trkpt>
      <trkpt lat="31.092859245836735" lon="-5.351987332105637">
        <ele>1106.1300000000001</ele>
        <time>2019-03-12T16:42:28Z</time>
      </trkpt>
      <trkpt lat="31.092283828184009" lon="-5.350862396880984">
        <ele>1105.6500000000001</ele>
        <time>2019-03-12T16:42:39Z</time>
      </trkpt>
      <trkpt lat="31.091808993369341" lon="-5.349961342290044">
        <ele>1105.1700000000001</ele>
        <time>2019-03-12T16:42:42Z</time>
      </trkpt>
      <trkpt lat="31.091711511835456" lon="-5.349739138036966">
        <ele>1104.21</ele>
        <time>2019-03-12T16:42:43Z</time>
      </trkpt>
      <trkpt lat="31.091702627018094" lon="-5.349665209650993">
        <ele>1098.9200000000001</ele>
        <time>2019-03-12T16:42:44Z</time>
      </trkpt>
      <trkpt lat="31.091701118275523" lon="-5.349594969302416">
        <ele>1098.4400000000001</ele>
        <time>2019-03-12T16:42:46Z</time>
      </trkpt>
      <trkpt lat="31.091694161295891" lon="-5.349453147500753">
        <ele>1097.96</ele>
        <time>2019-03-12T16:42:47Z</time>
      </trkpt>
      <trkpt lat="31.091676726937294" lon="-5.349379470571876">
        <ele>1097</ele>
        <time>2019-03-12T16:42:49Z</time>
      </trkpt>
      <trkpt lat="31.091639762744308" lon="-5.349230607971549">
        <ele>1095.5599999999999</ele>
        <time>2019-03-12T16:43:01Z</time>
      </trkpt>
      <trkpt lat="31.091633895412087" lon="-5.348136350512505">
        <ele>1091.23</ele>
        <time>2019-03-12T16:43:02Z</time>
      </trkpt>
      <trkpt lat="31.091648479923606" lon="-5.34805110655725">
        <ele>1089.79</ele>
        <time>2019-03-12T16:43:03Z</time>
      </trkpt>
      <trkpt lat="31.091674296185374" lon="-5.347972400486469">
        <ele>1088.8299999999999</ele>
        <time>2019-03-12T16:43:04Z</time>
      </trkpt>
      <trkpt lat="31.091710673645139" lon="-5.347892520949245">
        <ele>1087.8699999999999</ele>
        <time>2019-03-12T16:43:07Z</time>
      </trkpt>
      <trkpt lat="31.091849310323596" lon="-5.34763477742672">
        <ele>1087.8699999999999</ele>
        <time>2019-03-12T16:43:16Z</time>
      </trkpt>
      <trkpt lat="31.091993311420083" lon="-5.346800778061152">
        <ele>1087.3900000000001</ele>
        <time>2019-03-12T16:43:21Z</time>
      </trkpt>
      <trkpt lat="31.091927932575345" lon="-5.346376318484545">
        <ele>1087.3900000000001</ele>
        <time>2019-03-12T16:43:24Z</time>
      </trkpt>
      <trkpt lat="31.091816956177354" lon="-5.346131650730968">
        <ele>1087.3900000000001</ele>
        <time>2019-03-12T16:43:34Z</time>
      </trkpt>
      <trkpt lat="31.091484948992729" lon="-5.345276780426502">
        <ele>1086.4300000000001</ele>
        <time>2019-03-12T16:43:35Z</time>
      </trkpt>
      <trkpt lat="31.091464580968022" lon="-5.345194889232516">
        <ele>1085.95</ele>
        <time>2019-03-12T16:43:36Z</time>
      </trkpt>
      <trkpt lat="31.091454271227121" lon="-5.345109812915325">
        <ele>1084.99</ele>
        <time>2019-03-12T16:43:38Z</time>
      </trkpt>
      <trkpt lat="31.091438513249159" lon="-5.344921723008156">
        <ele>1084.99</ele>
        <time>2019-03-12T16:43:39Z</time>
      </trkpt>
      <trkpt lat="31.091415211558342" lon="-5.344820637255907">
        <ele>1084.99</ele>
        <time>2019-03-12T16:43:45Z</time>
      </trkpt>
      <trkpt lat="31.091284202411771" lon="-5.344190988689661">
        <ele>1084.99</ele>
        <time>2019-03-12T16:43:46Z</time>
      </trkpt>
      <trkpt lat="31.091247741132975" lon="-5.344099123030901">
        <ele>1084.99</ele>
        <time>2019-03-12T16:43:48Z</time>
      </trkpt>
      <trkpt lat="31.091163167729974" lon="-5.343928467482328">
        <ele>1082.0999999999999</ele>
        <time>2019-03-12T16:43:49Z</time>
      </trkpt>
      <trkpt lat="31.091148499399424" lon="-5.343832578510046">
        <ele>1082.0999999999999</ele>
        <time>2019-03-12T16:43:50Z</time>
      </trkpt>
      <trkpt lat="31.091151013970375" lon="-5.343733420595527">
        <ele>1081.6199999999999</ele>
        <time>2019-03-12T16:43:51Z</time>
      </trkpt>
      <trkpt lat="31.091152606531978" lon="-5.343634430319071">
        <ele>1081.6199999999999</ele>
        <time>2019-03-12T16:43:52Z</time>
      </trkpt>
      <trkpt lat="31.091147493571043" lon="-5.3435361944139">
        <ele>1081.6199999999999</ele>
        <time>2019-03-12T16:44:00Z</time>
      </trkpt>
      <trkpt lat="31.091099884361029" lon="-5.342580657452345">
        <ele>1081.1400000000001</ele>
        <time>2019-03-12T16:44:04Z</time>
      </trkpt>
      <trkpt lat="31.091061579063535" lon="-5.342104062438011">
        <ele>1080.6600000000001</ele>
        <time>2019-03-12T16:44:05Z</time>
      </trkpt>
      <trkpt lat="31.091068787500262" lon="-5.341992331668735">
        <ele>1080.1800000000001</ele>
        <time>2019-03-12T16:44:07Z</time>
      </trkpt>
      <trkpt lat="31.091085970401764" lon="-5.341787980869412">
        <ele>1080.1800000000001</ele>
        <time>2019-03-12T16:44:08Z</time>
      </trkpt>
      <trkpt lat="31.091085635125637" lon="-5.341689242050052">
        <ele>1079.22</ele>
        <time>2019-03-12T16:44:13Z</time>
      </trkpt>
      <trkpt lat="31.091086724773049" lon="-5.341130336746573">
        <ele>1077.29</ele>
        <time>2019-03-12T16:44:14Z</time>
      </trkpt>
      <trkpt lat="31.091102482751012" lon="-5.341031597927213">
        <ele>1075.8499999999999</ele>
        <time>2019-03-12T16:44:16Z</time>
      </trkpt>
      <trkpt lat="31.091145146638155" lon="-5.340828923508525">
        <ele>1074.8900000000001</ele>
        <time>2019-03-12T16:44:17Z</time>
      </trkpt>
      <trkpt lat="31.091154785826802" lon="-5.340726915746927">
        <ele>1074.4100000000001</ele>
        <time>2019-03-12T16:44:26Z</time>
      </trkpt>
      <trkpt lat="31.09124556183815" lon="-5.339664425700903">
        <ele>1074.4100000000001</ele>
        <time>2019-03-12T16:44:41Z</time>
      </trkpt>
      <trkpt lat="31.091378415003419" lon="-5.337997935712338">
        <ele>1074.8900000000001</ele>
        <time>2019-03-12T16:44:51Z</time>
      </trkpt>
      <trkpt lat="31.091491486877203" lon="-5.336881298571825">
        <ele>1073.9300000000001</ele>
        <time>2019-03-12T16:44:55Z</time>
      </trkpt>
      <trkpt lat="31.091586286202073" lon="-5.33645692281425">
        <ele>1073.45</ele>
        <time>2019-03-12T16:45:01Z</time>
      </trkpt>
      <trkpt lat="31.091705728322268" lon="-5.335858622565866">
        <ele>1073.9300000000001</ele>
        <time>2019-03-12T16:45:03Z</time>
      </trkpt>
      <trkpt lat="31.091732885688543" lon="-5.335660893470049">
        <ele>1073.45</ele>
        <time>2019-03-12T16:45:07Z</time>
      </trkpt>
      <trkpt lat="31.091793235391378" lon="-5.335251437500119">
        <ele>1073.45</ele>
        <time>2019-03-12T16:45:12Z</time>
      </trkpt>
      <trkpt lat="31.091875964775681" lon="-5.334766041487455">
        <ele>1072.97</ele>
        <time>2019-03-12T16:45:21Z</time>
      </trkpt>
      <trkpt lat="31.092001441866159" lon="-5.333837242797017">
        <ele>1072.97</ele>
        <time>2019-03-12T16:45:33Z</time>
      </trkpt>
      <trkpt lat="31.092012673616409" lon="-5.33248096704483">
        <ele>1072.97</ele>
        <time>2019-03-12T16:45:39Z</time>
      </trkpt>
      <trkpt lat="31.092042848467827" lon="-5.331868752837181">
        <ele>1072.97</ele>
        <time>2019-03-12T16:45:40Z</time>
      </trkpt>
      <trkpt lat="31.092059528455138" lon="-5.331769092008472">
        <ele>1072.49</ele>
        <time>2019-03-12T16:45:41Z</time>
      </trkpt>
      <trkpt lat="31.092086266726255" lon="-5.331671191379428">
        <ele>1072.49</ele>
        <time>2019-03-12T16:45:42Z</time>
      </trkpt>
      <trkpt lat="31.092121889814734" lon="-5.331580583006144">
        <ele>1072.01</ele>
        <time>2019-03-12T16:45:43Z</time>
      </trkpt>
      <trkpt lat="31.092158183455467" lon="-5.331488801166415">
        <ele>1072.01</ele>
        <time>2019-03-12T16:45:44Z</time>
      </trkpt>
      <trkpt lat="31.092185508459806" lon="-5.331391571089625">
        <ele>1071.53</ele>
        <time>2019-03-12T16:45:45Z</time>
      </trkpt>
      <trkpt lat="31.092202691361308" lon="-5.331291742622852">
        <ele>1072.01</ele>
        <time>2019-03-12T16:45:46Z</time>
      </trkpt>
      <trkpt lat="31.092213336378336" lon="-5.331192584708333">
        <ele>1071.53</ele>
        <time>2019-03-12T16:45:47Z</time>
      </trkpt>
      <trkpt lat="31.092216856777668" lon="-5.331088230013847">
        <ele>1071.53</ele>
        <time>2019-03-12T16:45:48Z</time>
      </trkpt>
      <trkpt lat="31.092216186225414" lon="-5.330977337434888">
        <ele>1071.05</ele>
        <time>2019-03-12T16:45:49Z</time>
      </trkpt>
      <trkpt lat="31.092212665826082" lon="-5.330868875607848">
        <ele>1071.05</ele>
        <time>2019-03-12T16:45:50Z</time>
      </trkpt>
      <trkpt lat="31.092214928939939" lon="-5.330766113474965">
        <ele>1069.1199999999999</ele>
        <time>2019-03-12T16:45:51Z</time>
      </trkpt>
      <trkpt lat="31.092226076871157" lon="-5.330667039379478">
        <ele>1068.1600000000001</ele>
        <time>2019-03-12T16:45:52Z</time>
      </trkpt>
      <trkpt lat="31.092246696352959" lon="-5.33056796528399">
        <ele>1070.0799999999999</ele>
        <time>2019-03-12T16:45:53Z</time>
      </trkpt>
      <trkpt lat="31.092273769900203" lon="-5.330481212586165">
        <ele>1071.05</ele>
        <time>2019-03-12T16:45:54Z</time>
      </trkpt>
      <trkpt lat="31.092300759628415" lon="-5.330409379675984">
        <ele>1071.05</ele>
        <time>2019-03-12T16:46:00Z</time>
      </trkpt>
      <trkpt lat="31.092450628057122" lon="-5.32990830950439">
        <ele>1071.05</ele>
        <time>2019-03-12T16:46:05Z</time>
      </trkpt>
      <trkpt lat="31.092515168711543" lon="-5.32937178388238">
        <ele>1071.53</ele>
        <time>2019-03-12T16:46:11Z</time>
      </trkpt>
      <trkpt lat="31.092594712972641" lon="-5.328792342916131">
        <ele>1072.01</ele>
        <time>2019-03-12T16:46:13Z</time>
      </trkpt>
      <trkpt lat="31.092625893652439" lon="-5.328624034300447">
        <ele>1072.49</ele>
        <time>2019-03-12T16:46:14Z</time>
      </trkpt>
      <trkpt lat="31.092637544497848" lon="-5.328551698476076">
        <ele>1072.49</ele>
        <time>2019-03-12T16:46:15Z</time>
      </trkpt>
      <trkpt lat="31.092651374638081" lon="-5.328467460349202">
        <ele>1072.97</ele>
        <time>2019-03-12T16:46:22Z</time>
      </trkpt>
      <trkpt lat="31.092805853113532" lon="-5.327756255865097">
        <ele>1072.97</ele>
        <time>2019-03-12T16:46:23Z</time>
      </trkpt>
      <trkpt lat="31.092819096520543" lon="-5.327661205083132">
        <ele>1072.97</ele>
        <time>2019-03-12T16:46:24Z</time>
      </trkpt>
      <trkpt lat="31.092818090692163" lon="-5.327569339424372">
        <ele>1072.97</ele>
        <time>2019-03-12T16:46:25Z</time>
      </trkpt>
      <trkpt lat="31.09281993471086" lon="-5.327486610040069">
        <ele>1072.97</ele>
        <time>2019-03-12T16:46:26Z</time>
      </trkpt>
      <trkpt lat="31.092839045450091" lon="-5.327413184568286">
        <ele>1070.0799999999999</ele>
        <time>2019-03-12T16:46:27Z</time>
      </trkpt>
      <trkpt lat="31.092869639396667" lon="-5.327350487932563">
        <ele>1069.1199999999999</ele>
        <time>2019-03-12T16:46:28Z</time>
      </trkpt>
      <trkpt lat="31.09290350228548" lon="-5.327295335009694">
        <ele>1068.6400000000001</ele>
        <time>2019-03-12T16:46:29Z</time>
      </trkpt>
      <trkpt lat="31.092930240556598" lon="-5.327240601181984">
        <ele>1067.6800000000001</ele>
        <time>2019-03-12T16:46:30Z</time>
      </trkpt>
      <trkpt lat="31.092946836724877" lon="-5.327184610068798">
        <ele>1065.28</ele>
        <time>2019-03-12T16:46:39Z</time>
      </trkpt>
      <trkpt lat="31.093118833377957" lon="-5.326477847993374">
        <ele>1063.8399999999999</ele>
        <time>2019-03-12T16:46:41Z</time>
      </trkpt>
      <trkpt lat="31.093154791742563" lon="-5.326342144981027">
        <ele>1062.3900000000001</ele>
        <time>2019-03-12T16:46:42Z</time>
      </trkpt>
      <trkpt lat="31.09318345785141" lon="-5.326270814985037">
        <ele>1062.3900000000001</ele>
        <time>2019-03-12T16:46:45Z</time>
      </trkpt>
      <trkpt lat="31.093275994062424" lon="-5.32602665014565">
        <ele>1062.3900000000001</ele>
        <time>2019-03-12T16:46:56Z</time>
      </trkpt>
      <trkpt lat="31.093560140579939" lon="-5.325017552822828">
        <ele>1061.9100000000001</ele>
        <time>2019-03-12T16:47:08Z</time>
      </trkpt>
      <trkpt lat="31.093668602406979" lon="-5.323961433023214">
        <ele>1061.9100000000001</ele>
        <time>2019-03-12T16:47:19Z</time>
      </trkpt>
      <trkpt lat="31.093616550788283" lon="-5.322756366804242">
        <ele>1061.9100000000001</ele>
        <time>2019-03-12T16:47:22Z</time>
      </trkpt>
      <trkpt lat="31.09359928406775" lon="-5.322446571663022">
        <ele>1061.9100000000001</ele>
        <time>2019-03-12T16:47:23Z</time>
      </trkpt>
      <trkpt lat="31.093573970720172" lon="-5.32234531827271">
        <ele>1059.51</ele>
        <time>2019-03-12T16:47:24Z</time>
      </trkpt>
      <trkpt lat="31.093532480299473" lon="-5.322246160358191">
        <ele>1058.0699999999999</ele>
        <time>2019-03-12T16:47:25Z</time>
      </trkpt>
      <trkpt lat="31.093488475307822" lon="-5.322149265557528">
        <ele>1058.0699999999999</ele>
        <time>2019-03-12T16:47:26Z</time>
      </trkpt>
      <trkpt lat="31.093450337648392" lon="-5.322052119299769">
        <ele>1058.0699999999999</ele>
        <time>2019-03-12T16:47:27Z</time>
      </trkpt>
      <trkpt lat="31.093415468931198" lon="-5.321954386308789">
        <ele>1057.5899999999999</ele>
        <time>2019-03-12T16:47:37Z</time>
      </trkpt>
      <trkpt lat="31.093059238046408" lon="-5.320999938994646">
        <ele>1057.5899999999999</ele>
        <time>2019-03-12T16:47:40Z</time>
      </trkpt>
      <trkpt lat="31.092961672693491" lon="-5.320720737800002">
        <ele>1057.1099999999999</ele>
        <time>2019-03-12T16:47:41Z</time>
      </trkpt>
      <trkpt lat="31.092918924987316" lon="-5.320638595148921">
        <ele>1057.5899999999999</ele>
        <time>2019-03-12T16:47:42Z</time>
      </trkpt>
      <trkpt lat="31.092865783721209" lon="-5.320558631792665">
        <ele>1057.5899999999999</ele>
        <time>2019-03-12T16:47:48Z</time>
      </trkpt>
      <trkpt lat="31.092528495937586" lon="-5.320064686238766">
        <ele>1057.1099999999999</ele>
        <time>2019-03-12T16:47:49Z</time>
      </trkpt>
      <trkpt lat="31.092481641098857" lon="-5.319975586608052">
        <ele>1057.1099999999999</ele>
        <time>2019-03-12T16:47:50Z</time>
      </trkpt>
      <trkpt lat="31.092432187870145" lon="-5.319888079538941">
        <ele>1056.6300000000001</ele>
        <time>2019-03-12T16:47:52Z</time>
      </trkpt>
      <trkpt lat="31.092331185936928" lon="-5.319726392626762">
        <ele>1053.26</ele>
        <time>2019-03-12T16:47:53Z</time>
      </trkpt>
      <trkpt lat="31.0922980774194" lon="-5.319644836708903">
        <ele>1053.26</ele>
        <time>2019-03-12T16:47:54Z</time>
      </trkpt>
      <trkpt lat="31.092278631404042" lon="-5.31956403516233">
        <ele>1053.74</ele>
        <time>2019-03-12T16:47:55Z</time>
      </trkpt>
      <trkpt lat="31.092270333319902" lon="-5.31948390416801">
        <ele>1053.74</ele>
        <time>2019-03-12T16:47:56Z</time>
      </trkpt>
      <trkpt lat="31.092265304177999" lon="-5.319399749860168">
        <ele>1053.74</ele>
        <time>2019-03-12T16:48:06Z</time>
      </trkpt>
      <trkpt lat="31.092056091874838" lon="-5.318424180150032">
        <ele>1053.74</ele>
        <time>2019-03-12T16:48:10Z</time>
      </trkpt>
      <trkpt lat="31.091982247307897" lon="-5.318017574027181">
        <ele>1053.74</ele>
        <time>2019-03-12T16:48:13Z</time>
      </trkpt>
      <trkpt lat="31.091898176819086" lon="-5.317712891846895">
        <ele>1052.3</ele>
        <time>2019-03-12T16:48:14Z</time>
      </trkpt>
      <trkpt lat="31.091858362779021" lon="-5.31762127764523">
        <ele>1050.8599999999999</ele>
        <time>2019-03-12T16:48:17Z</time>
      </trkpt>
      <trkpt lat="31.091724168509245" lon="-5.317362360656261">
        <ele>1050.8599999999999</ele>
        <time>2019-03-12T16:48:18Z</time>
      </trkpt>
      <trkpt lat="31.091662226244807" lon="-5.317283403128386">
        <ele>1050.8599999999999</ele>
        <time>2019-03-12T16:48:19Z</time>
      </trkpt>
      <trkpt lat="31.091589974239469" lon="-5.317207798361778">
        <ele>1049.4200000000001</ele>
        <time>2019-03-12T16:48:31Z</time>
      </trkpt>
      <trkpt lat="31.090727727860212" lon="-5.316217476502061">
        <ele>1048.9400000000001</ele>
        <time>2019-03-12T16:48:42Z</time>
      </trkpt>
      <trkpt lat="31.089991629123688" lon="-5.315241320058703">
        <ele>1048.9400000000001</ele>
        <time>2019-03-12T16:48:50Z</time>
      </trkpt>
      <trkpt lat="31.08948603272438" lon="-5.314510250464082">
        <ele>1047.49</ele>
        <time>2019-03-12T16:48:52Z</time>
      </trkpt>
      <trkpt lat="31.089361980557442" lon="-5.314347054809332">
        <ele>1047.01</ele>
        <time>2019-03-12T16:49:03Z</time>
      </trkpt>
      <trkpt lat="31.08871053904295" lon="-5.313388081267476">
        <ele>1046.05</ele>
        <time>2019-03-12T16:49:05Z</time>
      </trkpt>
      <trkpt lat="31.088618841022253" lon="-5.313218850642443">
        <ele>1045.5699999999999</ele>
        <time>2019-03-12T16:49:06Z</time>
      </trkpt>
      <trkpt lat="31.088585313409567" lon="-5.313130421563983">
        <ele>1042.6900000000001</ele>
        <time>2019-03-12T16:49:11Z</time>
      </trkpt>
      <trkpt lat="31.088465787470341" lon="-5.312647623941302">
        <ele>1042.21</ele>
        <time>2019-03-12T16:49:12Z</time>
      </trkpt>
      <trkpt lat="31.088460339233279" lon="-5.312539497390389">
        <ele>1040.76</ele>
        <time>2019-03-12T16:49:17Z</time>
      </trkpt>
      <trkpt lat="31.088466960936785" lon="-5.311995930969715">
        <ele>1042.21</ele>
        <time>2019-03-12T16:49:18Z</time>
      </trkpt>
      <trkpt lat="31.088475761935115" lon="-5.311893839389086">
        <ele>1043.6500000000001</ele>
        <time>2019-03-12T16:49:30Z</time>
      </trkpt>
      <trkpt lat="31.088547762483358" lon="-5.310572599992156">
        <ele>1043.1700000000001</ele>
        <time>2019-03-12T16:49:31Z</time>
      </trkpt>
      <trkpt lat="31.088529573753476" lon="-5.310468664392829">
        <ele>1043.1700000000001</ele>
        <time>2019-03-12T16:49:41Z</time>
      </trkpt>
      <trkpt lat="31.088157165795565" lon="-5.309442803263664">
        <ele>1042.6900000000001</ele>
        <time>2019-03-12T16:49:51Z</time>
      </trkpt>
      <trkpt lat="31.087739244103432" lon="-5.308584999293089">
        <ele>1044.1300000000001</ele>
        <time>2019-03-12T16:50:02Z</time>
      </trkpt>
      <trkpt lat="31.087299278005958" lon="-5.307668522000313">
        <ele>1045.0899999999999</ele>
        <time>2019-03-12T16:50:03Z</time>
      </trkpt>
      <trkpt lat="31.087275641039014" lon="-5.307577913627029">
        <ele>1045.0899999999999</ele>
        <time>2019-03-12T16:50:05Z</time>
      </trkpt>
      <trkpt lat="31.087226690724492" lon="-5.307398624718189">
        <ele>1045.5699999999999</ele>
        <time>2019-03-12T16:50:06Z</time>
      </trkpt>
      <trkpt lat="31.087179500609636" lon="-5.307308854535222">
        <ele>1045.5699999999999</ele>
        <time>2019-03-12T16:50:18Z</time>
      </trkpt>
      <trkpt lat="31.086474666371942" lon="-5.306129101663828">
        <ele>1045.0899999999999</ele>
        <time>2019-03-12T16:50:21Z</time>
      </trkpt>
      <trkpt lat="31.086323205381632" lon="-5.305889546871185">
        <ele>1044.6099999999999</ele>
        <time>2019-03-12T16:50:22Z</time>
      </trkpt>
      <trkpt lat="31.086267465725541" lon="-5.30582332983613">
        <ele>1044.1300000000001</ele>
        <time>2019-03-12T16:50:24Z</time>
      </trkpt>
      <trkpt lat="31.086155315861106" lon="-5.305692488327622">
        <ele>1042.6900000000001</ele>
        <time>2019-03-12T16:50:25Z</time>
      </trkpt>
      <trkpt lat="31.0861193574965" lon="-5.305609758943319">
        <ele>1037.4000000000001</ele>
        <time>2019-03-12T16:50:26Z</time>
      </trkpt>
      <trkpt lat="31.086098151281476" lon="-5.305512277409434">
        <ele>1036.9200000000001</ele>
        <time>2019-03-12T16:50:27Z</time>
      </trkpt>
      <trkpt lat="31.086086751893163" lon="-5.305404989048839">
        <ele>1036.4400000000001</ele>
        <time>2019-03-12T16:50:28Z</time>
      </trkpt>
      <trkpt lat="31.086079543456435" lon="-5.305294599384069">
        <ele>1037.4000000000001</ele>
        <time>2019-03-12T16:50:30Z</time>
      </trkpt>
      <trkpt lat="31.08605288900435" lon="-5.305074574425817">
        <ele>1037.4000000000001</ele>
        <time>2019-03-12T16:50:38Z</time>
      </trkpt>
      <trkpt lat="31.085845688357949" lon="-5.304028764367104">
        <ele>1037.8800000000001</ele>
        <time>2019-03-12T16:50:39Z</time>
      </trkpt>
      <trkpt lat="31.085857003927231" lon="-5.303894821554422">
        <ele>1037.8800000000001</ele>
        <time>2019-03-12T16:50:49Z</time>
      </trkpt>
      <trkpt lat="31.086082980036736" lon="-5.302690425887704">
        <ele>1038.3599999999999</ele>
        <time>2019-03-12T16:50:56Z</time>
      </trkpt>
      <trkpt lat="31.086230501532555" lon="-5.301836393773556">
        <ele>1038.3599999999999</ele>
        <time>2019-03-12T16:50:57Z</time>
      </trkpt>
      <trkpt lat="31.086262268945575" lon="-5.30171980150044">
        <ele>1038.3599999999999</ele>
        <time>2019-03-12T16:50:58Z</time>
      </trkpt>
      <trkpt lat="31.08628548681736" lon="-5.301598096266389">
        <ele>1038.3599999999999</ele>
        <time>2019-03-12T16:50:59Z</time>
      </trkpt>
      <trkpt lat="31.086297305300832" lon="-5.301469853147864">
        <ele>1038.3599999999999</ele>
        <time>2019-03-12T16:51:00Z</time>
      </trkpt>
      <trkpt lat="31.086298394948244" lon="-5.301342280581594">
        <ele>1038.3599999999999</ele>
        <time>2019-03-12T16:51:02Z</time>
      </trkpt>
      <trkpt lat="31.086297053843737" lon="-5.301104234531522">
        <ele>1038.3599999999999</ele>
        <time>2019-03-12T16:51:03Z</time>
      </trkpt>
      <trkpt lat="31.086306693032384" lon="-5.300983870401979">
        <ele>1038.3599999999999</ele>
        <time>2019-03-12T16:51:05Z</time>
      </trkpt>
      <trkpt lat="31.086321780458093" lon="-5.300751524046063">
        <ele>1038.3599999999999</ele>
        <time>2019-03-12T16:51:06Z</time>
      </trkpt>
      <trkpt lat="31.086315745487809" lon="-5.300647001713514">
        <ele>1038.8399999999999</ele>
        <time>2019-03-12T16:51:08Z</time>
      </trkpt>
      <trkpt lat="31.08630359172821" lon="-5.30043519102037">
        <ele>1039.3199999999999</ele>
        <time>2019-03-12T16:51:09Z</time>
      </trkpt>
      <trkpt lat="31.086312979459763" lon="-5.300335614010692">
        <ele>1039.8</ele>
        <time>2019-03-12T16:51:10Z</time>
      </trkpt>
      <trkpt lat="31.086332257837057" lon="-5.300242155790329">
        <ele>1040.28</ele>
        <time>2019-03-12T16:51:11Z</time>
      </trkpt>
      <trkpt lat="31.086361929774284" lon="-5.300152637064457">
        <ele>1040.76</ele>
        <time>2019-03-12T16:51:12Z</time>
      </trkpt>
      <trkpt lat="31.08640274964273" lon="-5.300070159137249">
        <ele>1041.25</ele>
        <time>2019-03-12T16:51:13Z</time>
      </trkpt>
      <trkpt lat="31.086452202871442" lon="-5.299998242408037">
        <ele>1045.0899999999999</ele>
        <time>2019-03-12T16:51:14Z</time>
      </trkpt>
      <trkpt lat="31.08650878071785" lon="-5.29993730597198">
        <ele>1045.5699999999999</ele>
        <time>2019-03-12T16:51:15Z</time>
      </trkpt>
      <trkpt lat="31.08656887896359" lon="-5.299892127513886">
        <ele>1047.49</ele>
        <time>2019-03-12T16:51:16Z</time>
      </trkpt>
      <trkpt lat="31.086626965552568" lon="-5.299861282110214">
        <ele>1047.97</ele>
        <time>2019-03-12T16:51:17Z</time>
      </trkpt>
      <trkpt lat="31.086679520085454" lon="-5.299836890771985">
        <ele>1048.45</ele>
        <time>2019-03-12T16:51:23Z</time>
      </trkpt>
      <trkpt lat="31.086903987452388" lon="-5.29968174174428">
        <ele>1049.9000000000001</ele>
        <time>2019-03-12T16:51:24Z</time>
      </trkpt>
      <trkpt lat="31.086938353255391" lon="-5.299641843885183">
        <ele>1049.9000000000001</ele>
        <time>2019-03-12T16:51:29Z</time>
      </trkpt>
      <trkpt lat="31.087128119543195" lon="-5.29939491301775">
        <ele>1049.9000000000001</ele>
        <time>2019-03-12T16:51:30Z</time>
      </trkpt>
      <trkpt lat="31.087178075686097" lon="-5.299355769529939">
        <ele>1049.9000000000001</ele>
        <time>2019-03-12T16:51:31Z</time>
      </trkpt>
      <trkpt lat="31.087234737351537" lon="-5.299329366534948">
        <ele>1049.9000000000001</ele>
        <time>2019-03-12T16:51:33Z</time>
      </trkpt>
      <trkpt lat="31.087357532233" lon="-5.299273123964667">
        <ele>1050.3800000000001</ele>
        <time>2019-03-12T16:51:34Z</time>
      </trkpt>
      <trkpt lat="31.087415786460042" lon="-5.29922928661108">
        <ele>1050.3800000000001</ele>
        <time>2019-03-12T16:51:35Z</time>
      </trkpt>
      <trkpt lat="31.087465826421976" lon="-5.299173463135958">
        <ele>1049.9000000000001</ele>
        <time>2019-03-12T16:51:37Z</time>
      </trkpt>
      <trkpt lat="31.087560877203941" lon="-5.299074053764343">
        <ele>1049.9000000000001</ele>
        <time>2019-03-12T16:51:38Z</time>
      </trkpt>
      <trkpt lat="31.087616700679064" lon="-5.299049159511924">
        <ele>1048.9400000000001</ele>
        <time>2019-03-12T16:51:39Z</time>
      </trkpt>
      <trkpt lat="31.087674535810947" lon="-5.299038179218769">
        <ele>1044.1300000000001</ele>
        <time>2019-03-12T16:51:40Z</time>
      </trkpt>
      <trkpt lat="31.087727844715118" lon="-5.299025103449822">
        <ele>1042.21</ele>
        <time>2019-03-12T16:51:41Z</time>
      </trkpt>
      <trkpt lat="31.087778974324465" lon="-5.298997694626451">
        <ele>1041.73</ele>
        <time>2019-03-12T16:51:42Z</time>
      </trkpt>
      <trkpt lat="31.087828930467367" lon="-5.298954527825117">
        <ele>1040.76</ele>
        <time>2019-03-12T16:51:43Z</time>
      </trkpt>
      <trkpt lat="31.08787888661027" lon="-5.298898620530963">
        <ele>1038.8399999999999</ele>
        <time>2019-03-12T16:51:47Z</time>
      </trkpt>
      <trkpt lat="31.088105281814933" lon="-5.298642804846168">
        <ele>1038.3599999999999</ele>
        <time>2019-03-12T16:51:49Z</time>
      </trkpt>
      <trkpt lat="31.088200667873025" lon="-5.298499306663871">
        <ele>1036.4400000000001</ele>
        <time>2019-03-12T16:51:50Z</time>
      </trkpt>
      <trkpt lat="31.088246181607246" lon="-5.298444991931319">
        <ele>1035.96</ele>
        <time>2019-03-12T16:51:51Z</time>
      </trkpt>
      <trkpt lat="31.088290270417929" lon="-5.298406854271889">
        <ele>1034.04</ele>
        <time>2019-03-12T16:51:56Z</time>
      </trkpt>
      <trkpt lat="31.088581373915076" lon="-5.29820024035871">
        <ele>1034.04</ele>
        <time>2019-03-12T16:51:57Z</time>
      </trkpt>
      <trkpt lat="31.088654128834605" lon="-5.29817677102983">
        <ele>1034.04</ele>
        <time>2019-03-12T16:51:59Z</time>
      </trkpt>
      <trkpt lat="31.088822605088353" lon="-5.298146177083254">
        <ele>1033.55</ele>
        <time>2019-03-12T16:52:00Z</time>
      </trkpt>
      <trkpt lat="31.088917488232255" lon="-5.298116086050868">
        <ele>1033.55</ele>
        <time>2019-03-12T16:52:06Z</time>
      </trkpt>
      <trkpt lat="31.08948309905827" lon="-5.2979158423841">
        <ele>1033.55</ele>
        <time>2019-03-12T16:52:08Z</time>
      </trkpt>
      <trkpt lat="31.089642941951752" lon="-5.297831688076258">
        <ele>1033.0699999999999</ele>
        <time>2019-03-12T16:52:09Z</time>
      </trkpt>
      <trkpt lat="31.089726258069277" lon="-5.29781467281282">
        <ele>1032.5899999999999</ele>
        <time>2019-03-12T16:52:10Z</time>
      </trkpt>
      <trkpt lat="31.089807478711009" lon="-5.29782154597342">
        <ele>1032.5899999999999</ele>
        <time>2019-03-12T16:52:11Z</time>
      </trkpt>
      <trkpt lat="31.089879479259253" lon="-5.297856079414487">
        <ele>1032.1099999999999</ele>
        <time>2019-03-12T16:52:12Z</time>
      </trkpt>
      <trkpt lat="31.089940499514341" lon="-5.297906873747706">
        <ele>1031.6300000000001</ele>
        <time>2019-03-12T16:52:13Z</time>
      </trkpt>
      <trkpt lat="31.089997664093971" lon="-5.297952806577086">
        <ele>1031.1500000000001</ele>
        <time>2019-03-12T16:52:14Z</time>
      </trkpt>
      <trkpt lat="31.090057678520679" lon="-5.297979712486267">
        <ele>1031.1500000000001</ele>
        <time>2019-03-12T16:52:15Z</time>
      </trkpt>
      <trkpt lat="31.090118531137705" lon="-5.297986920922995">
        <ele>1031.1500000000001</ele>
        <time>2019-03-12T16:52:16Z</time>
      </trkpt>
      <trkpt lat="31.090179970487952" lon="-5.297979461029172">
        <ele>1031.1500000000001</ele>
        <time>2019-03-12T16:52:17Z</time>
      </trkpt>
      <trkpt lat="31.090240906924009" lon="-5.297968061640859">
        <ele>1031.1500000000001</ele>
        <time>2019-03-12T16:52:19Z</time>
      </trkpt>
      <trkpt lat="31.090346183627844" lon="-5.297938054427505">
        <ele>1031.1500000000001</ele>
        <time>2019-03-12T16:52:20Z</time>
      </trkpt>
      <trkpt lat="31.090390356257558" lon="-5.297917937859893">
        <ele>1031.1500000000001</ele>
        <time>2019-03-12T16:52:21Z</time>
      </trkpt>
      <trkpt lat="31.090428242459893" lon="-5.297892456874251">
        <ele>1031.6300000000001</ele>
        <time>2019-03-12T16:52:22Z</time>
      </trkpt>
      <trkpt lat="31.090459674596786" lon="-5.29785524122417">
        <ele>1031.6300000000001</ele>
        <time>2019-03-12T16:52:23Z</time>
      </trkpt>
      <trkpt lat="31.090483060106635" lon="-5.29780637472868">
        <ele>1031.6300000000001</ele>
        <time>2019-03-12T16:52:24Z</time>
      </trkpt>
      <trkpt lat="31.090499320998788" lon="-5.297747114673257">
        <ele>1031.6300000000001</ele>
        <time>2019-03-12T16:52:25Z</time>
      </trkpt>
      <trkpt lat="31.090508541092277" lon="-5.297677544876933">
        <ele>1031.1500000000001</ele>
        <time>2019-03-12T16:52:26Z</time>
      </trkpt>
      <trkpt lat="31.090511474758387" lon="-5.297599006444216">
        <ele>1031.6300000000001</ele>
        <time>2019-03-12T16:52:28Z</time>
      </trkpt>
      <trkpt lat="31.09052337706089" lon="-5.297426087781787">
        <ele>1031.6300000000001</ele>
        <time>2019-03-12T16:52:29Z</time>
      </trkpt>
      <trkpt lat="31.090546678751707" lon="-5.297348638996482">
        <ele>1031.1500000000001</ele>
        <time>2019-03-12T16:52:30Z</time>
      </trkpt>
      <trkpt lat="31.090588923543692" lon="-5.297284685075283">
        <ele>1031.1500000000001</ele>
        <time>2019-03-12T16:52:31Z</time>
      </trkpt>
      <trkpt lat="31.090650781989098" lon="-5.297241769731045">
        <ele>1030.6700000000001</ele>
        <time>2019-03-12T16:52:32Z</time>
      </trkpt>
      <trkpt lat="31.090729907155037" lon="-5.297222407534719">
        <ele>1030.1900000000001</ele>
        <time>2019-03-12T16:52:33Z</time>
      </trkpt>
      <trkpt lat="31.090814145281911" lon="-5.297217713668943">
        <ele>1029.23</ele>
        <time>2019-03-12T16:52:34Z</time>
      </trkpt>
      <trkpt lat="31.090897377580404" lon="-5.297215953469276">
        <ele>1029.23</ele>
        <time>2019-03-12T16:52:35Z</time>
      </trkpt>
      <trkpt lat="31.090983627364039" lon="-5.297204051166773">
        <ele>1029.71</ele>
        <time>2019-03-12T16:52:36Z</time>
      </trkpt>
      <trkpt lat="31.091075828298926" lon="-5.297176474705339">
        <ele>1029.71</ele>
        <time>2019-03-12T16:52:37Z</time>
      </trkpt>
      <trkpt lat="31.091162161901593" lon="-5.297134229913354">
        <ele>1029.23</ele>
        <time>2019-03-12T16:52:41Z</time>
      </trkpt>
      <trkpt lat="31.091427952051163" lon="-5.296958293765783">
        <ele>1029.23</ele>
        <time>2019-03-12T16:52:42Z</time>
      </trkpt>
      <trkpt lat="31.091477824375033" lon="-5.296901129186153">
        <ele>1028.75</ele>
        <time>2019-03-12T16:52:43Z</time>
      </trkpt>
      <trkpt lat="31.091521661728621" lon="-5.296830385923386">
        <ele>1025.8599999999999</ele>
        <time>2019-03-12T16:52:44Z</time>
      </trkpt>
      <trkpt lat="31.091551668941975" lon="-5.296744722872973">
        <ele>1025.8599999999999</ele>
        <time>2019-03-12T16:52:45Z</time>
      </trkpt>
      <trkpt lat="31.091560805216432" lon="-5.296648582443595">
        <ele>1025.8599999999999</ele>
        <time>2019-03-12T16:52:46Z</time>
      </trkpt>
      <trkpt lat="31.091552758589387" lon="-5.296541210263968">
        <ele>1026.3399999999999</ele>
        <time>2019-03-12T16:52:47Z</time>
      </trkpt>
      <trkpt lat="31.091540940105915" lon="-5.296428725123406">
        <ele>1026.8299999999999</ele>
        <time>2019-03-12T16:52:57Z</time>
      </trkpt>
      <trkpt lat="31.091429376974702" lon="-5.295102372765541">
        <ele>1026.8299999999999</ele>
        <time>2019-03-12T16:53:11Z</time>
      </trkpt>
      <trkpt lat="31.091262074187398" lon="-5.29321032576263">
        <ele>1027.79</ele>
        <time>2019-03-12T16:53:12Z</time>
      </trkpt>
      <trkpt lat="31.091258469969034" lon="-5.293080825358629">
        <ele>1028.75</ele>
        <time>2019-03-12T16:53:13Z</time>
      </trkpt>
      <trkpt lat="31.091265175491571" lon="-5.292948307469487">
        <ele>1029.71</ele>
        <time>2019-03-12T16:53:15Z</time>
      </trkpt>
      <trkpt lat="31.091294344514608" lon="-5.292686456814408">
        <ele>1032.1099999999999</ele>
        <time>2019-03-12T16:53:16Z</time>
      </trkpt>
      <trkpt lat="31.091324016451836" lon="-5.292564081028104">
        <ele>1033.0699999999999</ele>
        <time>2019-03-12T16:53:17Z</time>
      </trkpt>
      <trkpt lat="31.091360142454505" lon="-5.292455870658159">
        <ele>1030.1900000000001</ele>
        <time>2019-03-12T16:53:19Z</time>
      </trkpt>
      <trkpt lat="31.091427281498909" lon="-5.292254369705916">
        <ele>1030.1900000000001</ele>
        <time>2019-03-12T16:53:22Z</time>
      </trkpt>
      <trkpt lat="31.0915313847363" lon="-5.291941976174712">
        <ele>1030.1900000000001</ele>
        <time>2019-03-12T16:53:33Z</time>
      </trkpt>
      <trkpt lat="31.09210554510355" lon="-5.290707238018513">
        <ele>1029.71</ele>
        <time>2019-03-12T16:53:43Z</time>
      </trkpt>
      <trkpt lat="31.092766793444753" lon="-5.289608873426914">
        <ele>1029.71</ele>
        <time>2019-03-12T16:53:47Z</time>
      </trkpt>
      <trkpt lat="31.09296016395092" lon="-5.289180306717753">
        <ele>1029.71</ele>
        <time>2019-03-12T16:53:48Z</time>
      </trkpt>
      <trkpt lat="31.092980951070786" lon="-5.289089279249311">
        <ele>1029.71</ele>
        <time>2019-03-12T16:53:49Z</time>
      </trkpt>
      <trkpt lat="31.092988075688481" lon="-5.289002023637295">
        <ele>1031.6300000000001</ele>
        <time>2019-03-12T16:53:50Z</time>
      </trkpt>
      <trkpt lat="31.092979442328215" lon="-5.288914348930121">
        <ele>1033.0699999999999</ele>
        <time>2019-03-12T16:53:51Z</time>
      </trkpt>
      <trkpt lat="31.092960331588984" lon="-5.288823321461678">
        <ele>1032.5899999999999</ele>
        <time>2019-03-12T16:53:52Z</time>
      </trkpt>
      <trkpt lat="31.092935437336564" lon="-5.288730366155505">
        <ele>1032.5899999999999</ele>
        <time>2019-03-12T16:53:56Z</time>
      </trkpt>
      <trkpt lat="31.092813396826386" lon="-5.288362903520465">
        <ele>1033.0699999999999</ele>
        <time>2019-03-12T16:54:00Z</time>
      </trkpt>
      <trkpt lat="31.0926503688097" lon="-5.28799376450479">
        <ele>1033.55</ele>
        <time>2019-03-12T16:54:06Z</time>
      </trkpt>
      <trkpt lat="31.092470996081829" lon="-5.287312734872103">
        <ele>1033.55</ele>
        <time>2019-03-12T16:54:07Z</time>
      </trkpt>
      <trkpt lat="31.092460434883833" lon="-5.287182563915849">
        <ele>1033.0699999999999</ele>
        <time>2019-03-12T16:54:08Z</time>
      </trkpt>
      <trkpt lat="31.092466302216053" lon="-5.287046441808343">
        <ele>1031.6300000000001</ele>
        <time>2019-03-12T16:54:21Z</time>
      </trkpt>
      <trkpt lat="31.092696553096175" lon="-5.28517828322947">
        <ele>1030.1900000000001</ele>
        <time>2019-03-12T16:54:31Z</time>
      </trkpt>
      <trkpt lat="31.09283896163106" lon="-5.283701391890645">
        <ele>1028.75</ele>
        <time>2019-03-12T16:54:32Z</time>
      </trkpt>
      <trkpt lat="31.092851618304849" lon="-5.283557893708348">
        <ele>1028.27</ele>
        <time>2019-03-12T16:54:41Z</time>
      </trkpt>
      <trkpt lat="31.092987237498164" lon="-5.282292729243636">
        <ele>1027.79</ele>
        <time>2019-03-12T16:54:53Z</time>
      </trkpt>
      <trkpt lat="31.0931614972651" lon="-5.280581060796976">
        <ele>1027.3099999999999</ele>
        <time>2019-03-12T16:55:05Z</time>
      </trkpt>
      <trkpt lat="31.093359896913171" lon="-5.278910882771015">
        <ele>1027.3099999999999</ele>
        <time>2019-03-12T16:55:16Z</time>
      </trkpt>
      <trkpt lat="31.093571539968252" lon="-5.277352519333363">
        <ele>1026.8299999999999</ele>
        <time>2019-03-12T16:55:17Z</time>
      </trkpt>
      <trkpt lat="31.093577491119504" lon="-5.27723022736609">
        <ele>1026.8299999999999</ele>
        <time>2019-03-12T16:55:18Z</time>
      </trkpt>
      <trkpt lat="31.093580760061741" lon="-5.277103492990136">
        <ele>1026.8299999999999</ele>
        <time>2019-03-12T16:55:19Z</time>
      </trkpt>
      <trkpt lat="31.093594171106815" lon="-5.276972400024533">
        <ele>1022.98</ele>
        <time>2019-03-12T16:55:20Z</time>
      </trkpt>
      <trkpt lat="31.093607246875763" lon="-5.276833428069949">
        <ele>1021.0599999999999</ele>
        <time>2019-03-12T16:55:21Z</time>
      </trkpt>
      <trkpt lat="31.093616466969252" lon="-5.276687499135733">
        <ele>1020.58</ele>
        <time>2019-03-12T16:55:25Z</time>
      </trkpt>
      <trkpt lat="31.093680756166577" lon="-5.276096072047949">
        <ele>1019.13</ele>
        <time>2019-03-12T16:55:27Z</time>
      </trkpt>
      <trkpt lat="31.093743788078427" lon="-5.275813182815909">
        <ele>1017.21</ele>
        <time>2019-03-12T16:55:38Z</time>
      </trkpt>
      <trkpt lat="31.093870187178254" lon="-5.274306619539857">
        <ele>1014.33</ele>
        <time>2019-03-12T16:55:49Z</time>
      </trkpt>
      <trkpt lat="31.094046039506793" lon="-5.272994516417384">
        <ele>1010</ele>
        <time>2019-03-12T16:56:01Z</time>
      </trkpt>
      <trkpt lat="31.094148298725486" lon="-5.271806297823787">
        <ele>1009.52</ele>
        <time>2019-03-12T16:56:07Z</time>
      </trkpt>
      <trkpt lat="31.09419641084969" lon="-5.271273627877235">
        <ele>1006.16</ele>
        <time>2019-03-12T16:56:20Z</time>
      </trkpt>
      <trkpt lat="31.094224657863379" lon="-5.270187919959426">
        <ele>1002.3099999999999</ele>
        <time>2019-03-12T16:56:32Z</time>
      </trkpt>
      <trkpt lat="31.094230525195599" lon="-5.269187707453966">
        <ele>998.47000000000003</ele>
        <time>2019-03-12T16:56:41Z</time>
      </trkpt>
      <trkpt lat="31.094210660085082" lon="-5.268117506057024">
        <ele>995.10000000000002</ele>
        <time>2019-03-12T16:56:50Z</time>
      </trkpt>
      <trkpt lat="31.094196997582912" lon="-5.267108408734202">
        <ele>990.29999999999995</ele>
        <time>2019-03-12T16:56:59Z</time>
      </trkpt>
      <trkpt lat="31.094194734469056" lon="-5.26571030728519">
        <ele>986.45000000000005</ele>
        <time>2019-03-12T16:57:10Z</time>
      </trkpt>
      <trkpt lat="31.094240667298436" lon="-5.263853212818503">
        <ele>983.09000000000003</ele>
        <time>2019-03-12T16:57:21Z</time>
      </trkpt>
      <trkpt lat="31.094269081950188" lon="-5.262082787230611">
        <ele>979.24000000000001</ele>
        <time>2019-03-12T16:57:32Z</time>
      </trkpt>
      <trkpt lat="31.094275871291757" lon="-5.260014468804002">
        <ele>977.32000000000005</ele>
        <time>2019-03-12T16:57:43Z</time>
      </trkpt>
      <trkpt lat="31.094292048364878" lon="-5.25784632191062">
        <ele>976.84000000000003</ele>
        <time>2019-03-12T16:57:54Z</time>
      </trkpt>
      <trkpt lat="31.094315266236663" lon="-5.255922423675656">
        <ele>974.90999999999997</ele>
        <time>2019-03-12T16:58:04Z</time>
      </trkpt>
      <trkpt lat="31.094325575977564" lon="-5.254029203206301">
        <ele>973.95000000000005</ele>
        <time>2019-03-12T16:58:15Z</time>
      </trkpt>
      <trkpt lat="31.094333119690418" lon="-5.251822751015425">
        <ele>972.99000000000001</ele>
        <time>2019-03-12T16:58:24Z</time>
      </trkpt>
      <trkpt lat="31.094331862404943" lon="-5.250161625444889">
        <ele>970.59000000000003</ele>
        <time>2019-03-12T16:58:28Z</time>
      </trkpt>
      <trkpt lat="31.094320295378566" lon="-5.249398034065962">
        <ele>975.38999999999999</ele>
        <time>2019-03-12T16:58:35Z</time>
      </trkpt>
      <trkpt lat="31.094302022829652" lon="-5.247956346720457">
        <ele>972.50999999999999</ele>
        <time>2019-03-12T16:58:42Z</time>
      </trkpt>
      <trkpt lat="31.094477958977222" lon="-5.246421871706843">
        <ele>970.59000000000003</ele>
        <time>2019-03-12T16:58:44Z</time>
      </trkpt>
      <trkpt lat="31.094562448561192" lon="-5.245999675244093">
        <ele>967.22000000000003</ele>
        <time>2019-03-12T16:58:55Z</time>
      </trkpt>
      <trkpt lat="31.094956900924444" lon="-5.243714516982436">
        <ele>965.29999999999995</ele>
        <time>2019-03-12T17:01:09Z</time>
      </trkpt>
      <trkpt lat="31.095215147361159" lon="-5.242185909301043">
        <ele>962.89999999999998</ele>
        <time>2019-03-12T17:01:17Z</time>
      </trkpt>
      <trkpt lat="31.095440955832601" lon="-5.241125347092748">
        <ele>959.52999999999997</ele>
        <time>2019-03-12T17:01:28Z</time>
      </trkpt>
      <trkpt lat="31.095707165077329" lon="-5.239648874849081">
        <ele>956.16999999999996</ele>
        <time>2019-03-12T17:01:41Z</time>
      </trkpt>
      <trkpt lat="31.09607714228332" lon="-5.237578544765711">
        <ele>953.76999999999998</ele>
        <time>2019-03-12T17:01:51Z</time>
      </trkpt>
      <trkpt lat="31.096274787560105" lon="-5.236004842445254">
        <ele>952.32000000000005</ele>
        <time>2019-03-12T17:01:59Z</time>
      </trkpt>
      <trkpt lat="31.09651199541986" lon="-5.234707742929459">
        <ele>953.27999999999997</ele>
        <time>2019-03-12T17:02:11Z</time>
      </trkpt>
      <trkpt lat="31.096958750858903" lon="-5.232786191627383">
        <ele>955.69000000000005</ele>
        <time>2019-03-12T17:02:22Z</time>
      </trkpt>
      <trkpt lat="31.09741497784853" lon="-5.230948543176055">
        <ele>955.69000000000005</ele>
        <time>2019-03-12T17:02:33Z</time>
      </trkpt>
      <trkpt lat="31.097915293648839" lon="-5.22915598936379">
        <ele>955.69000000000005</ele>
        <time>2019-03-12T17:02:46Z</time>
      </trkpt>
      <trkpt lat="31.098530944436789" lon="-5.226912405341864">
        <ele>953.27999999999997</ele>
        <time>2019-03-12T17:02:57Z</time>
      </trkpt>
      <trkpt lat="31.099030841141939" lon="-5.225163521245122">
        <ele>950.39999999999998</ele>
        <time>2019-03-12T17:03:09Z</time>
      </trkpt>
      <trkpt lat="31.099532498046756" lon="-5.223380941897631">
        <ele>946.55999999999995</ele>
        <time>2019-03-12T17:03:18Z</time>
      </trkpt>
      <trkpt lat="31.099852016195655" lon="-5.222008489072323">
        <ele>941.75</ele>
        <time>2019-03-12T17:03:22Z</time>
      </trkpt>
      <trkpt lat="31.09988110139966" lon="-5.22138143889606">
        <ele>930.69000000000005</ele>
        <time>2019-03-12T17:03:31Z</time>
      </trkpt>
      <trkpt lat="31.099653448909521" lon="-5.22019112482667">
        <ele>924.92999999999995</ele>
        <time>2019-03-12T17:03:35Z</time>
      </trkpt>
      <trkpt lat="31.099590752273798" lon="-5.219866409897804">
        <ele>923.48000000000002</ele>
        <time>2019-03-12T17:03:39Z</time>
      </trkpt>
      <trkpt lat="31.09947751276195" lon="-5.21952954120934">
        <ele>921.55999999999995</ele>
        <time>2019-03-12T17:03:44Z</time>
      </trkpt>
      <trkpt lat="31.099410625174642" lon="-5.218913471326232">
        <ele>921.08000000000004</ele>
        <time>2019-03-12T17:03:54Z</time>
      </trkpt>
      <trkpt lat="31.099638445302844" lon="-5.217658784240484">
        <ele>921.08000000000004</ele>
        <time>2019-03-12T17:04:03Z</time>
      </trkpt>
      <trkpt lat="31.099849082529545" lon="-5.216269148513675">
        <ele>919.15999999999997</ele>
        <time>2019-03-12T17:04:12Z</time>
      </trkpt>
      <trkpt lat="31.09996072947979" lon="-5.214913878589869">
        <ele>917.72000000000003</ele>
        <time>2019-03-12T17:04:24Z</time>
      </trkpt>
      <trkpt lat="31.100149070844054" lon="-5.21300632506609">
        <ele>916.26999999999998</ele>
        <time>2019-03-12T17:04:29Z</time>
      </trkpt>
      <trkpt lat="31.100177736952901" lon="-5.212279111146927">
        <ele>914.35000000000002</ele>
        <time>2019-03-12T17:04:30Z</time>
      </trkpt>
      <trkpt lat="31.100189387798309" lon="-5.212135445326567">
        <ele>913.87</ele>
        <time>2019-03-12T17:04:41Z</time>
      </trkpt>
      <trkpt lat="31.100389128550887" lon="-5.210574232041836">
        <ele>913.38999999999999</ele>
        <time>2019-03-12T17:04:51Z</time>
      </trkpt>
      <trkpt lat="31.100533129647374" lon="-5.209272187203169">
        <ele>913.38999999999999</ele>
        <time>2019-03-12T17:05:01Z</time>
      </trkpt>
      <trkpt lat="31.100662043318152" lon="-5.207860674709082">
        <ele>912.90999999999997</ele>
        <time>2019-03-12T17:05:10Z</time>
      </trkpt>
      <trkpt lat="31.100793052464724" lon="-5.206667007878423">
        <ele>912.90999999999997</ele>
        <time>2019-03-12T17:05:13Z</time>
      </trkpt>
      <trkpt lat="31.100806295871735" lon="-5.206254199147224">
        <ele>912.90999999999997</ele>
        <time>2019-03-12T17:05:14Z</time>
      </trkpt>
      <trkpt lat="31.100822305306792" lon="-5.206133164465427">
        <ele>914.35000000000002</ele>
        <time>2019-03-12T17:05:15Z</time>
      </trkpt>
      <trkpt lat="31.100851893424988" lon="-5.206018667668104">
        <ele>915.30999999999995</ele>
        <time>2019-03-12T17:05:16Z</time>
      </trkpt>
      <trkpt lat="31.100885253399611" lon="-5.20590266212821">
        <ele>911.95000000000005</ele>
        <time>2019-03-12T17:05:17Z</time>
      </trkpt>
      <trkpt lat="31.100920038297772" lon="-5.205780956894159">
        <ele>911.95000000000005</ele>
        <time>2019-03-12T17:05:18Z</time>
      </trkpt>
      <trkpt lat="31.100962869822979" lon="-5.205657240003347">
        <ele>909.53999999999996</ele>
        <time>2019-03-12T17:05:27Z</time>
      </trkpt>
      <trkpt lat="31.101332260295749" lon="-5.204632803797722">
        <ele>909.53999999999996</ele>
        <time>2019-03-12T17:05:30Z</time>
      </trkpt>
      <trkpt lat="31.101435609161854" lon="-5.204332396388054">
        <ele>910.02999999999997</ele>
        <time>2019-03-12T17:05:39Z</time>
      </trkpt>
      <trkpt lat="31.101726964116096" lon="-5.203375602141023">
        <ele>908.58000000000004</ele>
        <time>2019-03-12T17:05:40Z</time>
      </trkpt>
      <trkpt lat="31.101755546405911" lon="-5.203276863321662">
        <ele>908.10000000000002</ele>
        <time>2019-03-12T17:05:46Z</time>
      </trkpt>
      <trkpt lat="31.101879682391882" lon="-5.202874783426523">
        <ele>908.10000000000002</ele>
        <time>2019-03-12T17:05:50Z</time>
      </trkpt>
      <trkpt lat="31.101927207782865" lon="-5.202634641900659">
        <ele>908.10000000000002</ele>
        <time>2019-03-12T17:05:58Z</time>
      </trkpt>
      <trkpt lat="31.102152764797211" lon="-5.201965011656284">
        <ele>907.62</ele>
        <time>2019-03-12T17:06:08Z</time>
      </trkpt>
      <trkpt lat="31.102434061467648" lon="-5.200937977060676">
        <ele>907.13999999999999</ele>
        <time>2019-03-12T17:06:09Z</time>
      </trkpt>
      <trkpt lat="31.10247228294611" lon="-5.200834544375539">
        <ele>907.13999999999999</ele>
        <time>2019-03-12T17:06:14Z</time>
      </trkpt>
      <trkpt lat="31.102626258507371" lon="-5.200302628800273">
        <ele>906.65999999999997</ele>
        <time>2019-03-12T17:06:16Z</time>
      </trkpt>
      <trkpt lat="31.102692726999521" lon="-5.200083022937179">
        <ele>904.74000000000001</ele>
        <time>2019-03-12T17:06:25Z</time>
      </trkpt>
      <trkpt lat="31.102973353117704" lon="-5.199165875092149">
        <ele>904.74000000000001</ele>
        <time>2019-03-12T17:06:33Z</time>
      </trkpt>
      <trkpt lat="31.103274682536721" lon="-5.198271609842777">
        <ele>904.25999999999999</ele>
        <time>2019-03-12T17:06:34Z</time>
      </trkpt>
      <trkpt lat="31.103325057774782" lon="-5.198135320097208">
        <ele>902.82000000000005</ele>
        <time>2019-03-12T17:06:38Z</time>
      </trkpt>
      <trkpt lat="31.103462185710669" lon="-5.197580186650157">
        <ele>902.33000000000004</ele>
        <time>2019-03-12T17:06:43Z</time>
      </trkpt>
      <trkpt lat="31.103639379143715" lon="-5.1970184314996">
        <ele>901.85000000000002</ele>
        <time>2019-03-12T17:06:45Z</time>
      </trkpt>
      <trkpt lat="31.103696711361408" lon="-5.19678583368659">
        <ele>900.40999999999997</ele>
        <time>2019-03-12T17:06:56Z</time>
      </trkpt>
      <trkpt lat="31.104131815955043" lon="-5.19533459097147">
        <ele>899.92999999999995</ele>
        <time>2019-03-12T17:07:06Z</time>
      </trkpt>
      <trkpt lat="31.104533057659864" lon="-5.193857867270708">
        <ele>898.97000000000003</ele>
        <time>2019-03-12T17:07:08Z</time>
      </trkpt>
      <trkpt lat="31.10462224110961" lon="-5.193558214232326">
        <ele>897.52999999999997</ele>
        <time>2019-03-12T17:07:15Z</time>
      </trkpt>
      <trkpt lat="31.104926588013768" lon="-5.192716671153903">
        <ele>897.04999999999995</ele>
        <time>2019-03-12T17:07:23Z</time>
      </trkpt>
      <trkpt lat="31.105466214939952" lon="-5.191776137799025">
        <ele>897.04999999999995</ele>
        <time>2019-03-12T17:07:26Z</time>
      </trkpt>
      <trkpt lat="31.105654891580343" lon="-5.191477574408054">
        <ele>896.57000000000005</ele>
        <time>2019-03-12T17:07:37Z</time>
      </trkpt>
      <trkpt lat="31.106204995885491" lon="-5.190291786566377">
        <ele>895.12</ele>
        <time>2019-03-12T17:07:42Z</time>
      </trkpt>
      <trkpt lat="31.106497356668115" lon="-5.189731623977423">
        <ele>893.67999999999995</ele>
        <time>2019-03-12T17:07:45Z</time>
      </trkpt>
      <trkpt lat="31.106682177633047" lon="-5.189432390034199">
        <ele>893.67999999999995</ele>
        <time>2019-03-12T17:07:55Z</time>
      </trkpt>
      <trkpt lat="31.1074098944664" lon="-5.188553463667631">
        <ele>893.67999999999995</ele>
        <time>2019-03-12T17:08:02Z</time>
      </trkpt>
      <trkpt lat="31.107939211651683" lon="-5.187728768214583">
        <ele>892.24000000000001</ele>
        <time>2019-03-12T17:08:13Z</time>
      </trkpt>
      <trkpt lat="31.108879745006561" lon="-5.186267383396626">
        <ele>892.24000000000001</ele>
        <time>2019-03-12T17:08:18Z</time>
      </trkpt>
      <trkpt lat="31.109262630343437" lon="-5.185604877769947">
        <ele>892.24000000000001</ele>
        <time>2019-03-12T17:08:19Z</time>
      </trkpt>
      <trkpt lat="31.109319208189845" lon="-5.18546431325376">
        <ele>892.24000000000001</ele>
        <time>2019-03-12T17:08:21Z</time>
      </trkpt>
      <trkpt lat="31.109430436044931" lon="-5.185179747641087">
        <ele>892.72000000000003</ele>
        <time>2019-03-12T17:08:27Z</time>
      </trkpt>
      <trkpt lat="31.109776441007853" lon="-5.184295205399394">
        <ele>892.24000000000001</ele>
        <time>2019-03-12T17:08:28Z</time>
      </trkpt>
      <trkpt lat="31.109841568395495" lon="-5.184154389426112">
        <ele>891.75999999999999</ele>
        <time>2019-03-12T17:08:30Z</time>
      </trkpt>
      <trkpt lat="31.109976097941399" lon="-5.183887174353004">
        <ele>891.75999999999999</ele>
        <time>2019-03-12T17:08:31Z</time>
      </trkpt>
      <trkpt lat="31.110020857304335" lon="-5.18375406973064">
        <ele>891.27999999999997</ele>
        <time>2019-03-12T17:08:34Z</time>
      </trkpt>
      <trkpt lat="31.110127978026867" lon="-5.183369172737002">
        <ele>891.27999999999997</ele>
        <time>2019-03-12T17:08:35Z</time>
      </trkpt>
      <trkpt lat="31.110175084322691" lon="-5.183262806385756">
        <ele>890.79999999999995</ele>
        <time>2019-03-12T17:08:44Z</time>
      </trkpt>
      <trkpt lat="31.110557550564408" lon="-5.18228623084724">
        <ele>890.32000000000005</ele>
        <time>2019-03-12T17:08:45Z</time>
      </trkpt>
      <trkpt lat="31.110564842820168" lon="-5.182196628302336">
        <ele>890.32000000000005</ele>
        <time>2019-03-12T17:08:46Z</time>
      </trkpt>
      <trkpt lat="31.110551934689283" lon="-5.182107361033559">
        <ele>890.32000000000005</ele>
        <time>2019-03-12T17:08:47Z</time>
      </trkpt>
      <trkpt lat="31.110536763444543" lon="-5.182013064622879">
        <ele>889.84000000000003</ele>
        <time>2019-03-12T17:08:48Z</time>
      </trkpt>
      <trkpt lat="31.110532404854894" lon="-5.18191734328866">
        <ele>889.84000000000003</ele>
        <time>2019-03-12T17:08:49Z</time>
      </trkpt>
      <trkpt lat="31.110536092892289" lon="-5.181827656924725">
        <ele>889.84000000000003</ele>
        <time>2019-03-12T17:08:51Z</time>
      </trkpt>
      <trkpt lat="31.110550593584776" lon="-5.181678710505366">
        <ele>890.32000000000005</ele>
        <time>2019-03-12T17:08:52Z</time>
      </trkpt>
      <trkpt lat="31.110565094277263" lon="-5.181619031354785">
        <ele>890.32000000000005</ele>
        <time>2019-03-12T17:08:53Z</time>
      </trkpt>
      <trkpt lat="31.110583115369081" lon="-5.181563459336758">
        <ele>890.32000000000005</ele>
        <time>2019-03-12T17:08:54Z</time>
      </trkpt>
      <trkpt lat="31.110608261078596" lon="-5.181508809328079">
        <ele>890.32000000000005</ele>
        <time>2019-03-12T17:08:55Z</time>
      </trkpt>
      <trkpt lat="31.110640028491616" lon="-5.181454243138433">
        <ele>890.79999999999995</ele>
        <time>2019-03-12T17:09:05Z</time>
      </trkpt>
      <trkpt lat="31.110965413972735" lon="-5.180972870439291">
        <ele>890.32000000000005</ele>
        <time>2019-03-12T17:09:06Z</time>
      </trkpt>
      <trkpt lat="31.11098762601614" lon="-5.180924674496055">
        <ele>890.32000000000005</ele>
        <time>2019-03-12T17:09:07Z</time>
      </trkpt>
      <trkpt lat="31.111002629622817" lon="-5.180876143276691">
        <ele>890.32000000000005</ele>
        <time>2019-03-12T17:09:08Z</time>
      </trkpt>
      <trkpt lat="31.111013358458877" lon="-5.180829372256994">
        <ele>890.32000000000005</ele>
        <time>2019-03-12T17:09:09Z</time>
      </trkpt>
      <trkpt lat="31.111021153628826" lon="-5.180781595408917">
        <ele>890.32000000000005</ele>
        <time>2019-03-12T17:09:12Z</time>
      </trkpt>
      <trkpt lat="31.111050825566053" lon="-5.18061806447804">
        <ele>890.32000000000005</ele>
        <time>2019-03-12T17:09:13Z</time>
      </trkpt>
      <trkpt lat="31.111070606857538" lon="-5.18056383356452">
        <ele>890.32000000000005</ele>
        <time>2019-03-12T17:09:14Z</time>
      </trkpt>
      <trkpt lat="31.111095584928989" lon="-5.18052033148706">
        <ele>889.84000000000003</ele>
        <time>2019-03-12T17:09:15Z</time>
      </trkpt>
      <trkpt lat="31.111119305714965" lon="-5.180488647893071">
        <ele>889.84000000000003</ele>
        <time>2019-03-12T17:09:16Z</time>
      </trkpt>
      <trkpt lat="31.111144032329321" lon="-5.180458892136812">
        <ele>889.36000000000001</ele>
        <time>2019-03-12T17:09:17Z</time>
      </trkpt>
      <trkpt lat="31.111168256029487" lon="-5.180423352867365">
        <ele>889.36000000000001</ele>
        <time>2019-03-12T17:09:18Z</time>
      </trkpt>
      <trkpt lat="31.111195581033826" lon="-5.180377503857017">
        <ele>889.36000000000001</ele>
        <time>2019-03-12T17:09:20Z</time>
      </trkpt>
      <trkpt lat="31.111257020384073" lon="-5.180251440033317">
        <ele>889.36000000000001</ele>
        <time>2019-03-12T17:09:22Z</time>
      </trkpt>
      <trkpt lat="31.111330697312951" lon="-5.180078353732824">
        <ele>889.84000000000003</ele>
        <time>2019-03-12T17:09:23Z</time>
      </trkpt>
      <trkpt lat="31.111376294866204" lon="-5.179986907169223">
        <ele>889.84000000000003</ele>
        <time>2019-03-12T17:09:24Z</time>
      </trkpt>
      <trkpt lat="31.111413091421127" lon="-5.179881462827325">
        <ele>889.84000000000003</ele>
        <time>2019-03-12T17:09:25Z</time>
      </trkpt>
      <trkpt lat="31.11143572255969" lon="-5.179764870554209">
        <ele>890.32000000000005</ele>
        <time>2019-03-12T17:09:26Z</time>
      </trkpt>
      <trkpt lat="31.111449804157019" lon="-5.179648194462061">
        <ele>890.32000000000005</ele>
        <time>2019-03-12T17:09:27Z</time>
      </trkpt>
      <trkpt lat="31.111454665660858" lon="-5.179551718756557">
        <ele>890.32000000000005</ele>
        <time>2019-03-12T17:09:28Z</time>
      </trkpt>
      <trkpt lat="31.111445194110274" lon="-5.179473431780934">
        <ele>890.32000000000005</ele>
        <time>2019-03-12T17:09:29Z</time>
      </trkpt>
      <trkpt lat="31.111423820257187" lon="-5.179405873641372">
        <ele>890.32000000000005</ele>
        <time>2019-03-12T17:09:30Z</time>
      </trkpt>
      <trkpt lat="31.111393477767706" lon="-5.179352145642042">
        <ele>890.79999999999995</ele>
        <time>2019-03-12T17:09:31Z</time>
      </trkpt>
      <trkpt lat="31.111353747546673" lon="-5.179310906678438">
        <ele>890.79999999999995</ele>
        <time>2019-03-12T17:09:32Z</time>
      </trkpt>
      <trkpt lat="31.111312340945005" lon="-5.179270338267088">
        <ele>891.27999999999997</ele>
        <time>2019-03-12T17:09:33Z</time>
      </trkpt>
      <trkpt lat="31.111270096153021" lon="-5.179220968857408">
        <ele>890.32000000000005</ele>
        <time>2019-03-12T17:09:34Z</time>
      </trkpt>
      <trkpt lat="31.111226007342339" lon="-5.179162211716175">
        <ele>890.32000000000005</ele>
        <time>2019-03-12T17:09:35Z</time>
      </trkpt>
      <trkpt lat="31.111170602962375" lon="-5.179111585021019">
        <ele>890.32000000000005</ele>
        <time>2019-03-12T17:09:36Z</time>
      </trkpt>
      <trkpt lat="31.11110245808959" lon="-5.179083924740553">
        <ele>889.84000000000003</ele>
        <time>2019-03-12T17:09:42Z</time>
      </trkpt>
      <trkpt lat="31.11086986027658" lon="-5.178761724382639">
        <ele>890.32000000000005</ele>
        <time>2019-03-12T17:09:51Z</time>
      </trkpt>
      <trkpt lat="31.110716387629509" lon="-5.177962342277169">
        <ele>890.32000000000005</ele>
        <time>2019-03-12T17:09:58Z</time>
      </trkpt>
      <trkpt lat="31.110600382089615" lon="-5.177414333447814">
        <ele>890.32000000000005</ele>
        <time>2019-03-12T17:10:00Z</time>
      </trkpt>
      <trkpt lat="31.110578672960401" lon="-5.177243761718273">
        <ele>891.27999999999997</ele>
        <time>2019-03-12T17:10:10Z</time>
      </trkpt>
      <trkpt lat="31.110394857823849" lon="-5.176307084038854">
        <ele>890.79999999999995</ele>
        <time>2019-03-12T17:10:21Z</time>
      </trkpt>
      <trkpt lat="31.110222609713674" lon="-5.175401419401169">
        <ele>890.32000000000005</ele>
        <time>2019-03-12T17:10:22Z</time>
      </trkpt>
      <trkpt lat="31.1102195084095" lon="-5.175316678360105">
        <ele>889.84000000000003</ele>
        <time>2019-03-12T17:10:27Z</time>
      </trkpt>
      <trkpt lat="31.110205091536045" lon="-5.174876963719726">
        <ele>889.36000000000001</ele>
        <time>2019-03-12T17:10:32Z</time>
      </trkpt>
      <trkpt lat="31.110216742381454" lon="-5.174463065341115">
        <ele>889.36000000000001</ele>
        <time>2019-03-12T17:10:33Z</time>
      </trkpt>
      <trkpt lat="31.110212132334709" lon="-5.174421910196543">
        <ele>890.79999999999995</ele>
        <time>2019-03-12T17:10:39Z</time>
      </trkpt>
      <trkpt lat="31.110191345214844" lon="-5.174290565773845">
        <ele>889.84000000000003</ele>
        <time>2019-03-12T17:10:40Z</time>
      </trkpt>
      <trkpt lat="31.110205175355077" lon="-5.174257038161159">
        <ele>888.88</ele>
        <time>2019-03-12T17:10:41Z</time>
      </trkpt>
      <trkpt lat="31.110230488702655" lon="-5.1742307189852">
        <ele>887.42999999999995</ele>
        <time>2019-03-12T17:10:51Z</time>
      </trkpt>
      <trkpt lat="31.110663916915655" lon="-5.173883372917771">
        <ele>888.39999999999998</ele>
        <time>2019-03-12T17:11:07Z</time>
      </trkpt>
      <trkpt lat="31.111597577109933" lon="-5.173089522868395">
        <ele>891.75999999999999</ele>
        <time>2019-03-12T17:11:22Z</time>
      </trkpt>
      <trkpt lat="31.112471390515566" lon="-5.172329787164927">
        <ele>892.72000000000003</ele>
        <time>2019-03-12T17:11:36Z</time>
      </trkpt>
      <trkpt lat="31.113178236410022" lon="-5.171522777527571">
        <ele>893.20000000000005</ele>
        <time>2019-03-12T17:11:47Z</time>
      </trkpt>
      <trkpt lat="31.113950293511152" lon="-5.170634295791388">
        <ele>893.67999999999995</ele>
        <time>2019-03-12T17:12:03Z</time>
      </trkpt>
      <trkpt lat="31.115194503217936" lon="-5.169177353382111">
        <ele>894.63999999999999</ele>
        <time>2019-03-12T17:12:08Z</time>
      </trkpt>
      <trkpt lat="31.115563223138452" lon="-5.168719198554754">
        <ele>895.12</ele>
        <time>2019-03-12T17:12:09Z</time>
      </trkpt>
      <trkpt lat="31.115622399374843" lon="-5.16861392185092">
        <ele>895.61000000000001</ele>
        <time>2019-03-12T17:12:10Z</time>
      </trkpt>
      <trkpt lat="31.115672271698713" lon="-5.168507639318705">
        <ele>896.09000000000003</ele>
        <time>2019-03-12T17:12:11Z</time>
      </trkpt>
      <trkpt lat="31.115711582824588" lon="-5.168404541909695">
        <ele>896.57000000000005</ele>
        <time>2019-03-12T17:12:12Z</time>
      </trkpt>
      <trkpt lat="31.115743014961481" lon="-5.168303288519383">
        <ele>895.61000000000001</ele>
        <time>2019-03-12T17:12:13Z</time>
      </trkpt>
      <trkpt lat="31.115765143185854" lon="-5.168205220252276">
        <ele>894.15999999999997</ele>
        <time>2019-03-12T17:12:14Z</time>
      </trkpt>
      <trkpt lat="31.115779979154468" lon="-5.168113186955452">
        <ele>893.67999999999995</ele>
        <time>2019-03-12T17:12:15Z</time>
      </trkpt>
      <trkpt lat="31.115788277238607" lon="-5.168026434257627">
        <ele>893.20000000000005</ele>
        <time>2019-03-12T17:12:16Z</time>
      </trkpt>
      <trkpt lat="31.115792216733098" lon="-5.167948650196195">
        <ele>890.32000000000005</ele>
        <time>2019-03-12T17:12:27Z</time>
      </trkpt>
      <trkpt lat="31.115778470411897" lon="-5.166916502639651">
        <ele>885.02999999999997</ele>
        <time>2019-03-12T17:12:43Z</time>
      </trkpt>
      <trkpt lat="31.115732453763485" lon="-5.165317403152585">
        <ele>882.63</ele>
        <time>2019-03-12T17:12:53Z</time>
      </trkpt>
      <trkpt lat="31.115833120420575" lon="-5.164245022460818">
        <ele>881.19000000000005</ele>
        <time>2019-03-12T17:13:07Z</time>
      </trkpt>
      <trkpt lat="31.116300914436579" lon="-5.162475435063243">
        <ele>879.25999999999999</ele>
        <time>2019-03-12T17:13:18Z</time>
      </trkpt>
      <trkpt lat="31.116578690707684" lon="-5.161570105701685">
        <ele>884.54999999999995</ele>
        <time>2019-03-12T17:13:34Z</time>
      </trkpt>
      <trkpt lat="31.117151929065585" lon="-5.160092962905765">
        <ele>886.47000000000003</ele>
        <time>2019-03-12T17:13:46Z</time>
      </trkpt>
      <trkpt lat="31.117733884602785" lon="-5.158564690500498">
        <ele>885.50999999999999</ele>
        <time>2019-03-12T17:13:55Z</time>
      </trkpt>
      <trkpt lat="31.118162535130978" lon="-5.157000795006752">
        <ele>885.02999999999997</ele>
        <time>2019-03-12T17:14:08Z</time>
      </trkpt>
      <trkpt lat="31.11827602609992" lon="-5.154460910707712">
        <ele>884.54999999999995</ele>
        <time>2019-03-12T17:14:19Z</time>
      </trkpt>
      <trkpt lat="31.118473755195737" lon="-5.152199724689126">
        <ele>884.54999999999995</ele>
        <time>2019-03-12T17:14:30Z</time>
      </trkpt>
      <trkpt lat="31.119199460372329" lon="-5.149927726015449">
        <ele>884.54999999999995</ele>
        <time>2019-03-12T17:14:45Z</time>
      </trkpt>
      <trkpt lat="31.120260190218687" lon="-5.146721312776208">
        <ele>884.54999999999995</ele>
        <time>2019-03-12T17:14:49Z</time>
      </trkpt>
      <trkpt lat="31.120674591511488" lon="-5.14588538557291">
        <ele>884.54999999999995</ele>
        <time>2019-03-12T17:14:50Z</time>
      </trkpt>
      <trkpt lat="31.12081591039896" lon="-5.145703162997961">
        <ele>884.54999999999995</ele>
        <time>2019-03-12T17:14:51Z</time>
      </trkpt>
      <trkpt lat="31.120973154902458" lon="-5.145537285134196">
        <ele>884.54999999999995</ele>
        <time>2019-03-12T17:14:52Z</time>
      </trkpt>
      <trkpt lat="31.121145319193602" lon="-5.145390937104821">
        <ele>894.15999999999997</ele>
        <time>2019-03-12T17:14:53Z</time>
      </trkpt>
      <trkpt lat="31.121330475434661" lon="-5.145261185243726">
        <ele>902.33000000000004</ele>
        <time>2019-03-12T17:14:54Z</time>
      </trkpt>
      <trkpt lat="31.121528623625636" lon="-5.145150544121862">
        <ele>912.42999999999995</ele>
        <time>2019-03-12T17:14:55Z</time>
      </trkpt>
      <trkpt lat="31.121737919747829" lon="-5.145056834444404">
        <ele>915.30999999999995</ele>
        <time>2019-03-12T17:14:56Z</time>
      </trkpt>
      <trkpt lat="31.121953502297401" lon="-5.144973853603005">
        <ele>916.26999999999998</ele>
        <time>2019-03-12T17:15:16Z</time>
      </trkpt>
      <trkpt lat="31.126404460519552" lon="-5.143308034166694">
        <ele>916.75</ele>
        <time>2019-03-12T17:15:34Z</time>
      </trkpt>
      <trkpt lat="31.130302380770445" lon="-5.141808427870274">
        <ele>917.24000000000001</ele>
        <time>2019-03-12T17:15:45Z</time>
      </trkpt>
      <trkpt lat="31.13235779106617" lon="-5.141151370480657">
        <ele>918.20000000000005</ele>
        <time>2019-03-12T17:15:51Z</time>
      </trkpt>
      <trkpt lat="31.133418353274465" lon="-5.141036622226238">
        <ele>918.67999999999995</ele>
        <time>2019-03-12T17:15:52Z</time>
      </trkpt>
      <trkpt lat="31.133585320785642" lon="-5.140966381877661">
        <ele>919.15999999999997</ele>
        <time>2019-03-12T17:15:53Z</time>
      </trkpt>
      <trkpt lat="31.133741978555918" lon="-5.140871331095696">
        <ele>919.63999999999999</ele>
        <time>2019-03-12T17:15:54Z</time>
      </trkpt>
      <trkpt lat="31.133890673518181" lon="-5.140756079927087">
        <ele>920.12</ele>
        <time>2019-03-12T17:15:55Z</time>
      </trkpt>
      <trkpt lat="31.134030567482114" lon="-5.140628842636943">
        <ele>908.10000000000002</ele>
        <time>2019-03-12T17:15:56Z</time>
      </trkpt>
      <trkpt lat="31.1341608222574" lon="-5.140488529577851">
        <ele>897.52999999999997</ele>
        <time>2019-03-12T17:15:57Z</time>
      </trkpt>
      <trkpt lat="31.134279174730182" lon="-5.140332458540797">
        <ele>893.67999999999995</ele>
        <time>2019-03-12T17:15:58Z</time>
      </trkpt>
      <trkpt lat="31.134390654042363" lon="-5.140165323391557">
        <ele>893.20000000000005</ele>
        <time>2019-03-12T17:16:10Z</time>
      </trkpt>
      <trkpt lat="31.135599324479699" lon="-5.13797152787447">
        <ele>892.24000000000001</ele>
        <time>2019-03-12T17:16:22Z</time>
      </trkpt>
      <trkpt lat="31.136485375463963" lon="-5.135157974436879">
        <ele>891.27999999999997</ele>
        <time>2019-03-12T17:16:37Z</time>
      </trkpt>
      <trkpt lat="31.137555912137032" lon="-5.131815355271101">
        <ele>890.79999999999995</ele>
        <time>2019-03-12T17:16:43Z</time>
      </trkpt>
      <trkpt lat="31.137833101674914" lon="-5.13068170286715">
        <ele>890.32000000000005</ele>
        <time>2019-03-12T17:16:44Z</time>
      </trkpt>
      <trkpt lat="31.137841651216149" lon="-5.130489422008395">
        <ele>883.11000000000001</ele>
        <time>2019-03-12T17:16:45Z</time>
      </trkpt>
      <trkpt lat="31.137829078361392" lon="-5.130298817530274">
        <ele>884.07000000000005</ele>
        <time>2019-03-12T17:16:46Z</time>
      </trkpt>
      <trkpt lat="31.137795550748706" lon="-5.130105949938297">
        <ele>884.54999999999995</ele>
        <time>2019-03-12T17:16:47Z</time>
      </trkpt>
      <trkpt lat="31.137747187167406" lon="-5.12991257943213">
        <ele>884.54999999999995</ele>
        <time>2019-03-12T17:16:48Z</time>
      </trkpt>
      <trkpt lat="31.137689771130681" lon="-5.129709653556347">
        <ele>885.02999999999997</ele>
        <time>2019-03-12T17:17:00Z</time>
      </trkpt>
      <trkpt lat="31.136924168094993" lon="-5.127036664634943">
        <ele>885.02999999999997</ele>
        <time>2019-03-12T17:17:03Z</time>
      </trkpt>
      <trkpt lat="31.136778825893998" lon="-5.126385139301419">
        <ele>885.02999999999997</ele>
        <time>2019-03-12T17:17:04Z</time>
      </trkpt>
      <trkpt lat="31.136759798973799" lon="-5.126174837350845">
        <ele>880.22000000000003</ele>
        <time>2019-03-12T17:17:05Z</time>
      </trkpt>
      <trkpt lat="31.136753344908357" lon="-5.125966882333159">
        <ele>879.74000000000001</ele>
        <time>2019-03-12T17:17:06Z</time>
      </trkpt>
      <trkpt lat="31.136760134249926" lon="-5.12576068751514">
        <ele>875.41999999999996</ele>
        <time>2019-03-12T17:17:07Z</time>
      </trkpt>
      <trkpt lat="31.136782933026552" lon="-5.125553486868739">
        <ele>873.00999999999999</ele>
        <time>2019-03-12T17:17:08Z</time>
      </trkpt>
      <trkpt lat="31.136813694611192" lon="-5.125343771651387">
        <ele>865.79999999999995</ele>
        <time>2019-03-12T17:17:18Z</time>
      </trkpt>
      <trkpt lat="31.137241842225194" lon="-5.123107228428125">
        <ele>865.79999999999995</ele>
        <time>2019-03-12T17:17:19Z</time>
      </trkpt>
      <trkpt lat="31.13732323050499" lon="-5.122891645878553">
        <ele>866.28999999999996</ele>
        <time>2019-03-12T17:17:30Z</time>
      </trkpt>
      <trkpt lat="31.138483956456184" lon="-5.120579665526748">
        <ele>866.28999999999996</ele>
        <time>2019-03-12T17:17:39Z</time>
      </trkpt>
      <trkpt lat="31.139489533379674" lon="-5.118932286277413">
        <ele>867.25</ele>
        <time>2019-03-12T17:17:55Z</time>
      </trkpt>
      <trkpt lat="31.14181618206203" lon="-5.116079254075885">
        <ele>867.73000000000002</ele>
        <time>2019-03-12T17:17:59Z</time>
      </trkpt>
      <trkpt lat="31.142419092357159" lon="-5.115433931350708">
        <ele>867.73000000000002</ele>
        <time>2019-03-12T17:18:00Z</time>
      </trkpt>
      <trkpt lat="31.142593352124095" lon="-5.115322954952717">
        <ele>868.21000000000004</ele>
        <time>2019-03-12T17:18:01Z</time>
      </trkpt>
      <trkpt lat="31.142780436202884" lon="-5.115235950797796">
        <ele>868.69000000000005</ele>
        <time>2019-03-12T17:18:05Z</time>
      </trkpt>
      <trkpt lat="31.143491556867957" lon="-5.114934789016843">
        <ele>868.69000000000005</ele>
        <time>2019-03-12T17:18:06Z</time>
      </trkpt>
      <trkpt lat="31.143635977059603" lon="-5.114832948893309">
        <ele>868.69000000000005</ele>
        <time>2019-03-12T17:18:07Z</time>
      </trkpt>
      <trkpt lat="31.143749887123704" lon="-5.11470939964056">
        <ele>868.21000000000004</ele>
        <time>2019-03-12T17:18:08Z</time>
      </trkpt>
      <trkpt lat="31.143832448869944" lon="-5.114562548696995">
        <ele>868.21000000000004</ele>
        <time>2019-03-12T17:18:09Z</time>
      </trkpt>
      <trkpt lat="31.143879303708673" lon="-5.114393485710025">
        <ele>867.25</ele>
        <time>2019-03-12T17:18:10Z</time>
      </trkpt>
      <trkpt lat="31.1438899487257" lon="-5.114211598411202">
        <ele>866.76999999999998</ele>
        <time>2019-03-12T17:18:11Z</time>
      </trkpt>
      <trkpt lat="31.143865389749408" lon="-5.114025855436921">
        <ele>866.28999999999996</ele>
        <time>2019-03-12T17:18:12Z</time>
      </trkpt>
      <trkpt lat="31.143811997026205" lon="-5.113841369748116">
        <ele>865.79999999999995</ele>
        <time>2019-03-12T17:18:13Z</time>
      </trkpt>
      <trkpt lat="31.143740331754088" lon="-5.113663589581847">
        <ele>865.32000000000005</ele>
        <time>2019-03-12T17:18:14Z</time>
      </trkpt>
      <trkpt lat="31.143664559349418" lon="-5.113487150520086">
        <ele>864.84000000000003</ele>
        <time>2019-03-12T17:18:15Z</time>
      </trkpt>
      <trkpt lat="31.143602700904012" lon="-5.113311214372516">
        <ele>864.84000000000003</ele>
        <time>2019-03-12T17:18:16Z</time>
      </trkpt>
      <trkpt lat="31.143569173291326" lon="-5.113136619329453">
        <ele>864.36000000000001</ele>
        <time>2019-03-12T17:18:17Z</time>
      </trkpt>
      <trkpt lat="31.143573112785816" lon="-5.112961186096072">
        <ele>875.89999999999998</ele>
        <time>2019-03-12T17:18:18Z</time>
      </trkpt>
      <trkpt lat="31.143611585721374" lon="-5.112789692357183">
        <ele>877.34000000000003</ele>
        <time>2019-03-12T17:18:19Z</time>
      </trkpt>
      <trkpt lat="31.143678389489651" lon="-5.11262389831245">
        <ele>878.77999999999997</ele>
        <time>2019-03-12T17:18:20Z</time>
      </trkpt>
      <trkpt lat="31.143757766112685" lon="-5.112461373209953">
        <ele>880.22000000000003</ele>
        <time>2019-03-12T17:18:30Z</time>
      </trkpt>
      <trkpt lat="31.1446946952492" lon="-5.110588436946273">
        <ele>881.19000000000005</ele>
        <time>2019-03-12T17:18:42Z</time>
      </trkpt>
      <trkpt lat="31.14573790691793" lon="-5.108365388587117">
        <ele>888.39999999999998</ele>
        <time>2019-03-12T17:18:43Z</time>
      </trkpt>
      <trkpt lat="31.145760789513588" lon="-5.108211245387793">
        <ele>884.54999999999995</ele>
        <time>2019-03-12T17:18:44Z</time>
      </trkpt>
      <trkpt lat="31.145756263285875" lon="-5.108059784397483">
        <ele>878.77999999999997</ele>
        <time>2019-03-12T17:18:45Z</time>
      </trkpt>
      <trkpt lat="31.145732207223773" lon="-5.107912346720696">
        <ele>878.29999999999995</ele>
        <time>2019-03-12T17:18:46Z</time>
      </trkpt>
      <trkpt lat="31.145699685439467" lon="-5.107766669243574">
        <ele>878.29999999999995</ele>
        <time>2019-03-12T17:18:55Z</time>
      </trkpt>
      <trkpt lat="31.145181264728308" lon="-5.106508964672685">
        <ele>877.82000000000005</ele>
        <time>2019-03-12T17:19:01Z</time>
      </trkpt>
      <trkpt lat="31.144592603668571" lon="-5.105323093011975">
        <ele>877.82000000000005</ele>
        <time>2019-03-12T17:19:11Z</time>
      </trkpt>
      <trkpt lat="31.14340765401721" lon="-5.103100463747978">
        <ele>877.34000000000003</ele>
        <time>2019-03-12T17:19:13Z</time>
      </trkpt>
      <trkpt lat="31.143282344564795" lon="-5.102755296975374">
        <ele>876.86000000000001</ele>
        <time>2019-03-12T17:19:14Z</time>
      </trkpt>
      <trkpt lat="31.143258791416883" lon="-5.102572152391076">
        <ele>876.38</ele>
        <time>2019-03-12T17:19:15Z</time>
      </trkpt>
      <trkpt lat="31.143258959054947" lon="-5.102382469922304">
        <ele>875.41999999999996</ele>
        <time>2019-03-12T17:19:16Z</time>
      </trkpt>
      <trkpt lat="31.143282679840922" lon="-5.102192535996437">
        <ele>871.09000000000003</ele>
        <time>2019-03-12T17:19:17Z</time>
      </trkpt>
      <trkpt lat="31.143332300707698" lon="-5.102006122469902">
        <ele>870.61000000000001</ele>
        <time>2019-03-12T17:19:18Z</time>
      </trkpt>
      <trkpt lat="31.143407905474305" lon="-5.101823061704636">
        <ele>870.13</ele>
        <time>2019-03-12T17:19:19Z</time>
      </trkpt>
      <trkpt lat="31.143502620980144" lon="-5.101643186062574">
        <ele>869.64999999999998</ele>
        <time>2019-03-12T17:19:20Z</time>
      </trkpt>
      <trkpt lat="31.143609322607517" lon="-5.101466663181782">
        <ele>869.16999999999996</ele>
        <time>2019-03-12T17:19:25Z</time>
      </trkpt>
      <trkpt lat="31.144123217090964" lon="-5.100646996870637">
        <ele>868.21000000000004</ele>
        <time>2019-03-12T17:19:26Z</time>
      </trkpt>
      <trkpt lat="31.144168814644217" lon="-5.100476089864969">
        <ele>865.79999999999995</ele>
        <time>2019-03-12T17:19:27Z</time>
      </trkpt>
      <trkpt lat="31.144178453832865" lon="-5.10029923170805">
        <ele>864.84000000000003</ele>
        <time>2019-03-12T17:19:28Z</time>
      </trkpt>
      <trkpt lat="31.14415280520916" lon="-5.100122541189194">
        <ele>863.88</ele>
        <time>2019-03-12T17:19:29Z</time>
      </trkpt>
      <trkpt lat="31.144099580124021" lon="-5.09994450956583">
        <ele>862.91999999999996</ele>
        <time>2019-03-12T17:19:30Z</time>
      </trkpt>
      <trkpt lat="31.144033363088965" lon="-5.099757509306073">
        <ele>862.44000000000005</ele>
        <time>2019-03-12T17:19:32Z</time>
      </trkpt>
      <trkpt lat="31.14390998147428" lon="-5.099369427189231">
        <ele>861.48000000000002</ele>
        <time>2019-03-12T17:19:33Z</time>
      </trkpt>
      <trkpt lat="31.143871005624533" lon="-5.099169267341495">
        <ele>861</ele>
        <time>2019-03-12T17:19:34Z</time>
      </trkpt>
      <trkpt lat="31.143856756389141" lon="-5.098965419456363">
        <ele>860.51999999999998</ele>
        <time>2019-03-12T17:19:35Z</time>
      </trkpt>
      <trkpt lat="31.143868993967772" lon="-5.098758554086089">
        <ele>859.08000000000004</ele>
        <time>2019-03-12T17:19:36Z</time>
      </trkpt>
      <trkpt lat="31.143907466903329" lon="-5.098549844697118">
        <ele>858.11000000000001</ele>
        <time>2019-03-12T17:19:37Z</time>
      </trkpt>
      <trkpt lat="31.143966475501657" lon="-5.098342057317495">
        <ele>857.63</ele>
        <time>2019-03-12T17:19:38Z</time>
      </trkpt>
      <trkpt lat="31.144037889316678" lon="-5.098134521394968">
        <ele>857.14999999999998</ele>
        <time>2019-03-12T17:19:49Z</time>
      </trkpt>
      <trkpt lat="31.144842971116304" lon="-5.09584148414433">
        <ele>855.71000000000004</ele>
        <time>2019-03-12T17:19:58Z</time>
      </trkpt>
      <trkpt lat="31.145525760948658" lon="-5.093781296163797">
        <ele>855.23000000000002</ele>
        <time>2019-03-12T17:20:04Z</time>
      </trkpt>
      <trkpt lat="31.1460589338094" lon="-5.092570781707764">
        <ele>855.23000000000002</ele>
        <time>2019-03-12T17:20:05Z</time>
      </trkpt>
      <trkpt lat="31.146176028996706" lon="-5.092422589659691">
        <ele>855.23000000000002</ele>
        <time>2019-03-12T17:20:06Z</time>
      </trkpt>
      <trkpt lat="31.146303182467818" lon="-5.092294933274388">
        <ele>855.23000000000002</ele>
        <time>2019-03-12T17:20:09Z</time>
      </trkpt>
      <trkpt lat="31.146654132753611" lon="-5.091961165890098">
        <ele>855.71000000000004</ele>
        <time>2019-03-12T17:20:10Z</time>
      </trkpt>
      <trkpt lat="31.146739711984992" lon="-5.091824205592275">
        <ele>855.71000000000004</ele>
        <time>2019-03-12T17:20:11Z</time>
      </trkpt>
      <trkpt lat="31.146797966212034" lon="-5.091667799279094">
        <ele>855.71000000000004</ele>
        <time>2019-03-12T17:20:12Z</time>
      </trkpt>
      <trkpt lat="31.146820764988661" lon="-5.091497143730521">
        <ele>855.71000000000004</ele>
        <time>2019-03-12T17:20:13Z</time>
      </trkpt>
      <trkpt lat="31.146807773038745" lon="-5.091324811801314">
        <ele>855.71000000000004</ele>
        <time>2019-03-12T17:20:14Z</time>
      </trkpt>
      <trkpt lat="31.146770473569632" lon="-5.091152647510171">
        <ele>855.23000000000002</ele>
        <time>2019-03-12T17:20:15Z</time>
      </trkpt>
      <trkpt lat="31.146726133301854" lon="-5.090980818495154">
        <ele>854.75</ele>
        <time>2019-03-12T17:20:17Z</time>
      </trkpt>
      <trkpt lat="31.146664191037416" lon="-5.09063171222806">
        <ele>854.26999999999998</ele>
        <time>2019-03-12T17:20:18Z</time>
      </trkpt>
      <trkpt lat="31.146653043106198" lon="-5.090452339500189">
        <ele>853.30999999999995</ele>
        <time>2019-03-12T17:20:19Z</time>
      </trkpt>
      <trkpt lat="31.146653294563293" lon="-5.090269614011049">
        <ele>852.83000000000004</ele>
        <time>2019-03-12T17:20:25Z</time>
      </trkpt>
      <trkpt lat="31.14674205891788" lon="-5.089148785918951">
        <ele>852.35000000000002</ele>
        <time>2019-03-12T17:20:26Z</time>
      </trkpt>
      <trkpt lat="31.146781453862786" lon="-5.088973687961698">
        <ele>854.75</ele>
        <time>2019-03-12T17:20:27Z</time>
      </trkpt>
      <trkpt lat="31.146845910698175" lon="-5.088804122060537">
        <ele>855.23000000000002</ele>
        <time>2019-03-12T17:20:28Z</time>
      </trkpt>
      <trkpt lat="31.146935429424047" lon="-5.08864302188158">
        <ele>855.71000000000004</ele>
        <time>2019-03-12T17:20:29Z</time>
      </trkpt>
      <trkpt lat="31.147045232355595" lon="-5.088494494557381">
        <ele>855.71000000000004</ele>
        <time>2019-03-12T17:20:30Z</time>
      </trkpt>
      <trkpt lat="31.147168949246407" lon="-5.088354097679257">
        <ele>855.71000000000004</ele>
        <time>2019-03-12T17:20:39Z</time>
      </trkpt>
      <trkpt lat="31.148216938599944" lon="-5.087091950699687">
        <ele>854.75</ele>
        <time>2019-03-12T17:20:40Z</time>
      </trkpt>
      <trkpt lat="31.148301344364882" lon="-5.086954068392515">
        <ele>859.08000000000004</ele>
        <time>2019-03-12T17:20:41Z</time>
      </trkpt>
      <trkpt lat="31.148380134254694" lon="-5.08680671453476">
        <ele>859.55999999999995</ele>
        <time>2019-03-12T17:20:42Z</time>
      </trkpt>
      <trkpt lat="31.148450374603271" lon="-5.086648967117071">
        <ele>860.51999999999998</ele>
        <time>2019-03-12T17:20:43Z</time>
      </trkpt>
      <trkpt lat="31.148517178371549" lon="-5.086484430357814">
        <ele>862.44000000000005</ele>
        <time>2019-03-12T17:20:57Z</time>
      </trkpt>
      <trkpt lat="31.149352770298719" lon="-5.084317121654749">
        <ele>861</ele>
        <time>2019-03-12T17:21:10Z</time>
      </trkpt>
      <trkpt lat="31.150217279791832" lon="-5.082074292004108">
        <ele>858.59000000000003</ele>
        <time>2019-03-12T17:21:18Z</time>
      </trkpt>
      <trkpt lat="31.151053961366415" lon="-5.080747101455927">
        <ele>859.08000000000004</ele>
        <time>2019-03-12T17:21:26Z</time>
      </trkpt>
      <trkpt lat="31.152160372585058" lon="-5.07976021617651">
        <ele>854.75</ele>
        <time>2019-03-12T17:21:35Z</time>
      </trkpt>
      <trkpt lat="31.153313219547272" lon="-5.079013556241989">
        <ele>857.63</ele>
        <time>2019-03-12T17:21:44Z</time>
      </trkpt>
      <trkpt lat="31.154107321053743" lon="-5.0778628885746">
        <ele>857.63</ele>
        <time>2019-03-12T17:21:56Z</time>
      </trkpt>
      <trkpt lat="31.155251450836658" lon="-5.075970254838467">
        <ele>858.11000000000001</ele>
        <time>2019-03-12T17:22:04Z</time>
      </trkpt>
      <trkpt lat="31.155666690319777" lon="-5.074360342696309">
        <ele>859.55999999999995</ele>
        <time>2019-03-12T17:22:14Z</time>
      </trkpt>
      <trkpt lat="31.155812870711088" lon="-5.072178114205599">
        <ele>859.08000000000004</ele>
        <time>2019-03-12T17:22:27Z</time>
      </trkpt>
      <trkpt lat="31.156137166544795" lon="-5.069382917135954">
        <ele>859.08000000000004</ele>
        <time>2019-03-12T17:22:28Z</time>
      </trkpt>
      <trkpt lat="31.156221320852637" lon="-5.069214105606079">
        <ele>859.08000000000004</ele>
        <time>2019-03-12T17:22:29Z</time>
      </trkpt>
      <trkpt lat="31.156320814043283" lon="-5.069056358188391">
        <ele>859.55999999999995</ele>
        <time>2019-03-12T17:22:38Z</time>
      </trkpt>
      <trkpt lat="31.157482545822859" lon="-5.067735286429524">
        <ele>859.55999999999995</ele>
        <time>2019-03-12T17:22:41Z</time>
      </trkpt>
      <trkpt lat="31.157887391746044" lon="-5.067261876538396">
        <ele>860.03999999999996</ele>
        <time>2019-03-12T17:22:42Z</time>
      </trkpt>
      <trkpt lat="31.157998703420162" lon="-5.06708225235343">
        <ele>860.03999999999996</ele>
        <time>2019-03-12T17:22:43Z</time>
      </trkpt>
      <trkpt lat="31.158093251287937" lon="-5.066894497722387">
        <ele>860.51999999999998</ele>
        <time>2019-03-12T17:22:44Z</time>
      </trkpt>
      <trkpt lat="31.158171789720654" lon="-5.066695092245936">
        <ele>860.51999999999998</ele>
        <time>2019-03-12T17:22:45Z</time>
      </trkpt>
      <trkpt lat="31.158234318718314" lon="-5.066486969590187">
        <ele>863.39999999999998</ele>
        <time>2019-03-12T17:22:46Z</time>
      </trkpt>
      <trkpt lat="31.158279161900282" lon="-5.066270213574171">
        <ele>857.63</ele>
        <time>2019-03-12T17:22:47Z</time>
      </trkpt>
      <trkpt lat="31.158308079466224" lon="-5.066050356253982">
        <ele>851.87</ele>
        <time>2019-03-12T17:22:48Z</time>
      </trkpt>
      <trkpt lat="31.158321239054203" lon="-5.06582991220057">
        <ele>848.5</ele>
        <time>2019-03-12T17:22:49Z</time>
      </trkpt>
      <trkpt lat="31.158328782767057" lon="-5.065607121214271">
        <ele>846.10000000000002</ele>
        <time>2019-03-12T17:23:06Z</time>
      </trkpt>
      <trkpt lat="31.158437915146351" lon="-5.061587663367391">
        <ele>845.62</ele>
        <time>2019-03-12T17:23:18Z</time>
      </trkpt>
      <trkpt lat="31.158383684232831" lon="-5.058676544576883">
        <ele>845.13999999999999</ele>
        <time>2019-03-12T17:23:37Z</time>
      </trkpt>
      <trkpt lat="31.157787730917335" lon="-5.053889891132712">
        <ele>845.13999999999999</ele>
        <time>2019-03-12T17:24:00Z</time>
      </trkpt>
      <trkpt lat="31.157054901123047" lon="-5.047940500080586">
        <ele>844.65999999999997</ele>
        <time>2019-03-12T17:24:10Z</time>
      </trkpt>
      <trkpt lat="31.156809478998184" lon="-5.045404555276036">
        <ele>844.17999999999995</ele>
        <time>2019-03-12T17:24:11Z</time>
      </trkpt>
      <trkpt lat="31.156839737668633" lon="-5.045162234455347">
        <ele>844.17999999999995</ele>
        <time>2019-03-12T17:24:12Z</time>
      </trkpt>
      <trkpt lat="31.156888352707028" lon="-5.044922344386578">
        <ele>843.21000000000004</ele>
        <time>2019-03-12T17:24:13Z</time>
      </trkpt>
      <trkpt lat="31.156956497579813" lon="-5.044688321650028">
        <ele>843.69000000000005</ele>
        <time>2019-03-12T17:24:14Z</time>
      </trkpt>
      <trkpt lat="31.157046100124717" lon="-5.044463519006968">
        <ele>844.17999999999995</ele>
        <time>2019-03-12T17:24:15Z</time>
      </trkpt>
      <trkpt lat="31.157150873914361" lon="-5.044246260076761">
        <ele>843.21000000000004</ele>
        <time>2019-03-12T17:24:16Z</time>
      </trkpt>
      <trkpt lat="31.157266795635223" lon="-5.044033611193299">
        <ele>843.69000000000005</ele>
        <time>2019-03-12T17:24:26Z</time>
      </trkpt>
      <trkpt lat="31.158339343965054" lon="-5.042140726000071">
        <ele>841.76999999999998</ele>
        <time>2019-03-12T17:24:27Z</time>
      </trkpt>
      <trkpt lat="31.158399442210793" lon="-5.04199949093163">
        <ele>841.28999999999996</ele>
        <time>2019-03-12T17:24:38Z</time>
      </trkpt>
      <trkpt lat="31.1588981654495" lon="-5.040247589349747">
        <ele>847.05999999999995</ele>
        <time>2019-03-12T17:24:50Z</time>
      </trkpt>
      <trkpt lat="31.159673156216741" lon="-5.038341879844666">
        <ele>850.89999999999998</ele>
        <time>2019-03-12T17:25:05Z</time>
      </trkpt>
      <trkpt lat="31.160916024819016" lon="-5.035850023850799">
        <ele>847.05999999999995</ele>
        <time>2019-03-12T17:25:19Z</time>
      </trkpt>
      <trkpt lat="31.161760250106454" lon="-5.033112410455942">
        <ele>849.46000000000004</ele>
        <time>2019-03-12T17:25:34Z</time>
      </trkpt>
      <trkpt lat="31.162913180887699" lon="-5.030022757127881">
        <ele>849.46000000000004</ele>
        <time>2019-03-12T17:25:47Z</time>
      </trkpt>
      <trkpt lat="31.164103914052248" lon="-5.027461415156722">
        <ele>848.98000000000002</ele>
        <time>2019-03-12T17:26:03Z</time>
      </trkpt>
      <trkpt lat="31.166108446195722" lon="-5.024692788720131">
        <ele>848.5</ele>
        <time>2019-03-12T17:26:12Z</time>
      </trkpt>
      <trkpt lat="31.167067252099514" lon="-5.022903755307198">
        <ele>848.5</ele>
        <time>2019-03-12T17:26:24Z</time>
      </trkpt>
      <trkpt lat="31.168173914775252" lon="-5.020539220422506">
        <ele>848.5</ele>
        <time>2019-03-12T17:26:25Z</time>
      </trkpt>
      <trkpt lat="31.168215908110142" lon="-5.020320536568761">
        <ele>848.5</ele>
        <time>2019-03-12T17:26:26Z</time>
      </trkpt>
      <trkpt lat="31.168236779049039" lon="-5.020099589601159">
        <ele>848.5</ele>
        <time>2019-03-12T17:26:27Z</time>
      </trkpt>
      <trkpt lat="31.168237365782261" lon="-5.019878977909684">
        <ele>848.5</ele>
        <time>2019-03-12T17:26:28Z</time>
      </trkpt>
      <trkpt lat="31.168223787099123" lon="-5.019659539684653">
        <ele>848.5</ele>
        <time>2019-03-12T17:26:29Z</time>
      </trkpt>
      <trkpt lat="31.168198138475418" lon="-5.019441358745098">
        <ele>848.5</ele>
        <time>2019-03-12T17:26:30Z</time>
      </trkpt>
      <trkpt lat="31.168163269758224" lon="-5.019226865842938">
        <ele>848.01999999999998</ele>
        <time>2019-03-12T17:26:33Z</time>
      </trkpt>
      <trkpt lat="31.168087748810649" lon="-5.018598809838295">
        <ele>848.01999999999998</ele>
        <time>2019-03-12T17:26:34Z</time>
      </trkpt>
      <trkpt lat="31.16809319704771" lon="-5.018390268087387">
        <ele>852.35000000000002</ele>
        <time>2019-03-12T17:26:35Z</time>
      </trkpt>
      <trkpt lat="31.168117336928844" lon="-5.018184240907431">
        <ele>852.83000000000004</ele>
        <time>2019-03-12T17:26:36Z</time>
      </trkpt>
      <trkpt lat="31.168163772672415" lon="-5.017984332516789">
        <ele>853.30999999999995</ele>
        <time>2019-03-12T17:26:37Z</time>
      </trkpt>
      <trkpt lat="31.16823292337358" lon="-5.017794398590922">
        <ele>853.78999999999996</ele>
        <time>2019-03-12T17:26:38Z</time>
      </trkpt>
      <trkpt lat="31.168312383815646" lon="-5.017610667273402">
        <ele>854.26999999999998</ele>
        <time>2019-03-12T17:26:51Z</time>
      </trkpt>
      <trkpt lat="31.169206984341145" lon="-5.015086960047483">
        <ele>854.75</ele>
        <time>2019-03-12T17:26:52Z</time>
      </trkpt>
      <trkpt lat="31.169285522773862" lon="-5.014889985322952">
        <ele>855.23000000000002</ele>
        <time>2019-03-12T17:26:53Z</time>
      </trkpt>
      <trkpt lat="31.169385183602571" lon="-5.014704829081893">
        <ele>856.19000000000005</ele>
        <time>2019-03-12T17:26:54Z</time>
      </trkpt>
      <trkpt lat="31.16950387135148" lon="-5.014536017552018">
        <ele>858.59000000000003</ele>
        <time>2019-03-12T17:26:55Z</time>
      </trkpt>
      <trkpt lat="31.169635467231274" lon="-5.014388998970389">
        <ele>865.32000000000005</ele>
        <time>2019-03-12T17:26:56Z</time>
      </trkpt>
      <trkpt lat="31.169774187728763" lon="-5.014262180775404">
        <ele>869.64999999999998</ele>
        <time>2019-03-12T17:26:57Z</time>
      </trkpt>
      <trkpt lat="31.169919697567821" lon="-5.01414961181581">
        <ele>869.64999999999998</ele>
        <time>2019-03-12T17:26:58Z</time>
      </trkpt>
      <trkpt lat="31.170070907101035" lon="-5.014042239636183">
        <ele>872.52999999999997</ele>
        <time>2019-03-12T17:27:07Z</time>
      </trkpt>
      <trkpt lat="31.171416202560067" lon="-5.012816973030567">
        <ele>873.00999999999999</ele>
        <time>2019-03-12T17:27:19Z</time>
      </trkpt>
      <trkpt lat="31.172874066978693" lon="-5.010537598282099">
        <ele>870.61000000000001</ele>
        <time>2019-03-12T17:27:29Z</time>
      </trkpt>
      <trkpt lat="31.173816947266459" lon="-5.008475733920932">
        <ele>871.57000000000005</ele>
        <time>2019-03-12T17:27:37Z</time>
      </trkpt>
      <trkpt lat="31.173965726047754" lon="-5.00654554925859">
        <ele>866.28999999999996</ele>
        <time>2019-03-12T17:27:54Z</time>
      </trkpt>
      <trkpt lat="31.174219194799662" lon="-5.0023452937603">
        <ele>862.44000000000005</ele>
        <time>2019-03-12T17:28:02Z</time>
      </trkpt>
      <trkpt lat="31.173938820138574" lon="-5.000311173498631">
        <ele>859.08000000000004</ele>
        <time>2019-03-12T17:28:22Z</time>
      </trkpt>
      <trkpt lat="31.173028293997049" lon="-4.995071394369006">
        <ele>854.75</ele>
        <time>2019-03-12T17:28:29Z</time>
      </trkpt>
      <trkpt lat="31.173010105267167" lon="-4.993336675688624">
        <ele>854.75</ele>
        <time>2019-03-12T17:28:42Z</time>
      </trkpt>
      <trkpt lat="31.17366841994226" lon="-4.989925073459745">
        <ele>853.78999999999996</ele>
        <time>2019-03-12T17:28:51Z</time>
      </trkpt>
      <trkpt lat="31.174353808164597" lon="-4.98768107034266">
        <ele>849.94000000000005</ele>
        <time>2019-03-12T17:29:04Z</time>
      </trkpt>
      <trkpt lat="31.175766326487064" lon="-4.984505837783217">
        <ele>849.46000000000004</ele>
        <time>2019-03-12T17:29:16Z</time>
      </trkpt>
      <trkpt lat="31.177247660234571" lon="-4.981663785874844">
        <ele>848.98000000000002</ele>
        <time>2019-03-12T17:29:17Z</time>
      </trkpt>
      <trkpt lat="31.177322426810861" lon="-4.981407634913921">
        <ele>846.58000000000004</ele>
        <time>2019-03-12T17:29:27Z</time>
      </trkpt>
      <trkpt lat="31.177820060402155" lon="-4.978775884956121">
        <ele>846.10000000000002</ele>
        <time>2019-03-12T17:29:35Z</time>
      </trkpt>
      <trkpt lat="31.177859539166093" lon="-4.976652581244707">
        <ele>848.5</ele>
        <time>2019-03-12T17:29:36Z</time>
      </trkpt>
      <trkpt lat="31.177901532500982" lon="-4.976398106664419">
        <ele>852.35000000000002</ele>
        <time>2019-03-12T17:29:37Z</time>
      </trkpt>
      <trkpt lat="31.177960708737373" lon="-4.976145559921861">
        <ele>853.78999999999996</ele>
        <time>2019-03-12T17:29:48Z</time>
      </trkpt>
      <trkpt lat="31.178840808570385" lon="-4.973457818850875">
        <ele>854.75</ele>
        <time>2019-03-12T17:29:57Z</time>
      </trkpt>
      <trkpt lat="31.179905058816075" lon="-4.971486143767834">
        <ele>852.83000000000004</ele>
        <time>2019-03-12T17:30:11Z</time>
      </trkpt>
      <trkpt lat="31.18151287548244" lon="-4.968298757448793">
        <ele>849.46000000000004</ele>
        <time>2019-03-12T17:30:28Z</time>
      </trkpt>
      <trkpt lat="31.183294449001551" lon="-4.964330345392227">
        <ele>846.58000000000004</ele>
        <time>2019-03-12T17:30:43Z</time>
      </trkpt>
      <trkpt lat="31.184855913743377" lon="-4.960643649101257">
        <ele>847.05999999999995</ele>
        <time>2019-03-12T17:30:53Z</time>
      </trkpt>
      <trkpt lat="31.185647752135992" lon="-4.958079205825925">
        <ele>846.58000000000004</ele>
        <time>2019-03-12T17:31:11Z</time>
      </trkpt>
      <trkpt lat="31.186681240797043" lon="-4.953323565423489">
        <ele>842.25</ele>
        <time>2019-03-12T17:31:27Z</time>
      </trkpt>
      <trkpt lat="31.187636107206345" lon="-4.949185168370605">
        <ele>842.25</ele>
        <time>2019-03-12T17:31:35Z</time>
      </trkpt>
      <trkpt lat="31.188408583402634" lon="-4.947168482467532">
        <ele>845.62</ele>
        <time>2019-03-12T17:31:46Z</time>
      </trkpt>
      <trkpt lat="31.188898589462042" lon="-4.944176394492388">
        <ele>847.53999999999996</ele>
        <time>2019-03-12T17:31:54Z</time>
      </trkpt>
      <trkpt lat="31.189527818933129" lon="-4.942272109910846">
        <ele>852.83000000000004</ele>
        <time>2019-03-12T17:32:04Z</time>
      </trkpt>
      <trkpt lat="31.189995445311069" lon="-4.939920231699944">
        <ele>850.89999999999998</ele>
        <time>2019-03-12T17:32:13Z</time>
      </trkpt>
      <trkpt lat="31.190396184101701" lon="-4.937770524993539">
        <ele>848.5</ele>
        <time>2019-03-12T17:32:28Z</time>
      </trkpt>
      <trkpt lat="31.19176578707993" lon="-4.9342255666852">
        <ele>849.94000000000005</ele>
        <time>2019-03-12T17:32:39Z</time>
      </trkpt>
      <trkpt lat="31.192603977397084" lon="-4.931393740698695">
        <ele>853.30999999999995</ele>
        <time>2019-03-12T17:32:58Z</time>
      </trkpt>
      <trkpt lat="31.193949524313211" lon="-4.926369376480579">
        <ele>855.71000000000004</ele>
        <time>2019-03-12T17:33:12Z</time>
      </trkpt>
      <trkpt lat="31.195023665204644" lon="-4.922613697126508">
        <ele>857.14999999999998</ele>
        <time>2019-03-12T17:33:21Z</time>
      </trkpt>
      <trkpt lat="31.19620056822896" lon="-4.920483604073525">
        <ele>858.59000000000003</ele>
        <time>2019-03-12T17:33:39Z</time>
      </trkpt>
      <trkpt lat="31.198576251044869" lon="-4.916170444339514">
        <ele>860.03999999999996</ele>
        <time>2019-03-12T17:33:54Z</time>
      </trkpt>
      <trkpt lat="31.199938394129276" lon="-4.912398001179099">
        <ele>859.08000000000004</ele>
        <time>2019-03-12T17:34:04Z</time>
      </trkpt>
      <trkpt lat="31.200605845078826" lon="-4.909832300618291">
        <ele>861.48000000000002</ele>
        <time>2019-03-12T17:34:25Z</time>
      </trkpt>
      <trkpt lat="31.200996274128556" lon="-4.904176443815231">
        <ele>864.84000000000003</ele>
        <time>2019-03-12T17:34:37Z</time>
      </trkpt>
      <trkpt lat="31.201424757018685" lon="-4.901027949526906">
        <ele>862.91999999999996</ele>
        <time>2019-03-12T17:34:54Z</time>
      </trkpt>
      <trkpt lat="31.202605599537492" lon="-4.896502560004592">
        <ele>858.59000000000003</ele>
        <time>2019-03-12T17:35:18Z</time>
      </trkpt>
      <trkpt lat="31.204301258549094" lon="-4.889998706057668">
        <ele>854.26999999999998</ele>
        <time>2019-03-12T17:35:36Z</time>
      </trkpt>
      <trkpt lat="31.205540271475911" lon="-4.885213896632195">
        <ele>849.94000000000005</ele>
        <time>2019-03-12T17:35:48Z</time>
      </trkpt>
      <trkpt lat="31.206115772947669" lon="-4.882008573040366">
        <ele>847.53999999999996</ele>
        <time>2019-03-12T17:36:08Z</time>
      </trkpt>
      <trkpt lat="31.206338731572032" lon="-4.876481965184212">
        <ele>840.80999999999995</ele>
        <time>2019-03-12T17:36:28Z</time>
      </trkpt>
      <trkpt lat="31.206360440701246" lon="-4.870772967115045">
        <ele>843.69000000000005</ele>
        <time>2019-03-12T17:36:46Z</time>
      </trkpt>
      <trkpt lat="31.206375360488892" lon="-4.865653300657868">
        <ele>838.40999999999997</ele>
        <time>2019-03-12T17:37:04Z</time>
      </trkpt>
      <trkpt lat="31.206392627209425" lon="-4.860543021932244">
        <ele>832.63999999999999</ele>
        <time>2019-03-12T17:37:14Z</time>
      </trkpt>
      <trkpt lat="31.206677528098226" lon="-4.857759140431881">
        <ele>833.12</ele>
        <time>2019-03-12T17:37:24Z</time>
      </trkpt>
      <trkpt lat="31.207292508333921" lon="-4.855055222287774">
        <ele>831.20000000000005</ele>
        <time>2019-03-12T17:37:39Z</time>
      </trkpt>
      <trkpt lat="31.208490952849388" lon="-4.850962087512016">
        <ele>831.20000000000005</ele>
        <time>2019-03-12T17:37:58Z</time>
      </trkpt>
      <trkpt lat="31.209757458418608" lon="-4.845610493794084">
        <ele>830.72000000000003</ele>
        <time>2019-03-12T17:38:15Z</time>
      </trkpt>
      <trkpt lat="31.210863282904029" lon="-4.840942695736885">
        <ele>830.72000000000003</ele>
        <time>2019-03-12T17:38:32Z</time>
      </trkpt>
      <trkpt lat="31.21186207048595" lon="-4.836375061422586">
        <ele>830.72000000000003</ele>
        <time>2019-03-12T17:38:45Z</time>
      </trkpt>
      <trkpt lat="31.212393399327993" lon="-4.832907384261489">
        <ele>830.24000000000001</ele>
        <time>2019-03-12T17:39:00Z</time>
      </trkpt>
      <trkpt lat="31.212993040680885" lon="-4.829032849520445">
        <ele>828.78999999999996</ele>
        <time>2019-03-12T17:39:13Z</time>
      </trkpt>
      <trkpt lat="31.213453710079193" lon="-4.825991643592715">
        <ele>827.35000000000002</ele>
        <time>2019-03-12T17:39:16Z</time>
      </trkpt>
      <trkpt lat="31.213588323444128" lon="-4.825417483225465">
        <ele>826.87</ele>
        <time>2019-03-12T17:39:17Z</time>
      </trkpt>
      <trkpt lat="31.213653702288866" lon="-4.825250012800098">
        <ele>826.87</ele>
        <time>2019-03-12T17:39:18Z</time>
      </trkpt>
      <trkpt lat="31.213733917102218" lon="-4.825092600658536">
        <ele>826.87</ele>
        <time>2019-03-12T17:39:27Z</time>
      </trkpt>
      <trkpt lat="31.214627511799335" lon="-4.823733475059271">
        <ele>826.87</ele>
        <time>2019-03-12T17:39:38Z</time>
      </trkpt>
      <trkpt lat="31.215881863608956" lon="-4.821896078065038">
        <ele>826.87</ele>
        <time>2019-03-12T17:39:39Z</time>
      </trkpt>
      <trkpt lat="31.216012453660369" lon="-4.821762470528483">
        <ele>826.87</ele>
        <time>2019-03-12T17:39:40Z</time>
      </trkpt>
      <trkpt lat="31.216162489727139" lon="-4.821648895740509">
        <ele>827.35000000000002</ele>
        <time>2019-03-12T17:39:41Z</time>
      </trkpt>
      <trkpt lat="31.216326523572206" lon="-4.821558203548193">
        <ele>831.20000000000005</ele>
        <time>2019-03-12T17:39:42Z</time>
      </trkpt>
      <trkpt lat="31.216498855501413" lon="-4.821496428921819">
        <ele>831.20000000000005</ele>
        <time>2019-03-12T17:39:43Z</time>
      </trkpt>
      <trkpt lat="31.216672193259001" lon="-4.82145837508142">
        <ele>831.20000000000005</ele>
        <time>2019-03-12T17:39:44Z</time>
      </trkpt>
      <trkpt lat="31.216844189912081" lon="-4.821437671780586">
        <ele>831.67999999999995</ele>
        <time>2019-03-12T17:39:45Z</time>
      </trkpt>
      <trkpt lat="31.21701811440289" lon="-4.82142417691648">
        <ele>831.67999999999995</ele>
        <time>2019-03-12T17:39:54Z</time>
      </trkpt>
      <trkpt lat="31.218495173379779" lon="-4.821249665692449">
        <ele>830.72000000000003</ele>
        <time>2019-03-12T17:39:55Z</time>
      </trkpt>
      <trkpt lat="31.218630708754063" lon="-4.821183951571584">
        <ele>830.72000000000003</ele>
        <time>2019-03-12T17:39:56Z</time>
      </trkpt>
      <trkpt lat="31.218759035691619" lon="-4.821094432845712">
        <ele>830.24000000000001</ele>
        <time>2019-03-12T17:39:57Z</time>
      </trkpt>
      <trkpt lat="31.218876801431179" lon="-4.820983959361911">
        <ele>830.24000000000001</ele>
        <time>2019-03-12T17:39:58Z</time>
      </trkpt>
      <trkpt lat="31.218988616019487" lon="-4.820863679051399">
        <ele>830.24000000000001</ele>
        <time>2019-03-12T17:40:02Z</time>
      </trkpt>
      <trkpt lat="31.219405028969049" lon="-4.820367218926549">
        <ele>830.24000000000001</ele>
        <time>2019-03-12T17:40:03Z</time>
      </trkpt>
      <trkpt lat="31.219486333429813" lon="-4.820221289992333">
        <ele>830.24000000000001</ele>
        <time>2019-03-12T17:40:04Z</time>
      </trkpt>
      <trkpt lat="31.219550203531981" lon="-4.820062452927232">
        <ele>827.83000000000004</ele>
        <time>2019-03-12T17:40:05Z</time>
      </trkpt>
      <trkpt lat="31.219597393646836" lon="-4.819893138483167">
        <ele>829.26999999999998</ele>
        <time>2019-03-12T17:40:06Z</time>
      </trkpt>
      <trkpt lat="31.219628239050508" lon="-4.819715190678835">
        <ele>828.30999999999995</ele>
        <time>2019-03-12T17:40:07Z</time>
      </trkpt>
      <trkpt lat="31.219641650095582" lon="-4.819529615342617">
        <ele>828.30999999999995</ele>
        <time>2019-03-12T17:40:08Z</time>
      </trkpt>
      <trkpt lat="31.219643075019121" lon="-4.819337166845799">
        <ele>828.30999999999995</ele>
        <time>2019-03-12T17:40:19Z</time>
      </trkpt>
      <trkpt lat="31.219559088349342" lon="-4.817044129595161">
        <ele>828.30999999999995</ele>
        <time>2019-03-12T17:40:29Z</time>
      </trkpt>
      <trkpt lat="31.219597477465868" lon="-4.815083434805274">
        <ele>828.30999999999995</ele>
        <time>2019-03-12T17:40:39Z</time>
      </trkpt>
      <trkpt lat="31.219689091667533" lon="-4.812658298760653">
        <ele>829.26999999999998</ele>
        <time>2019-03-12T17:40:45Z</time>
      </trkpt>
      <trkpt lat="31.219330178573728" lon="-4.811151148751378">
        <ele>830.24000000000001</ele>
        <time>2019-03-12T17:40:52Z</time>
      </trkpt>
      <trkpt lat="31.219074362888932" lon="-4.80942347086966">
        <ele>833.12</ele>
        <time>2019-03-12T17:41:05Z</time>
      </trkpt>
      <trkpt lat="31.219284916296601" lon="-4.806073810905218">
        <ele>834.08000000000004</ele>
        <time>2019-03-12T17:41:24Z</time>
      </trkpt>
      <trkpt lat="31.219608290120959" lon="-4.801079956814647">
        <ele>838.88999999999999</ele>
        <time>2019-03-12T17:41:41Z</time>
      </trkpt>
      <trkpt lat="31.219999641180038" lon="-4.796744417399168">
        <ele>841.28999999999996</ele>
        <time>2019-03-12T17:41:51Z</time>
      </trkpt>
      <trkpt lat="31.22074537910521" lon="-4.794078636914492">
        <ele>842.25</ele>
        <time>2019-03-12T17:42:09Z</time>
      </trkpt>
      <trkpt lat="31.22217214666307" lon="-4.7890271153301">
        <ele>842.25</ele>
        <time>2019-03-12T17:42:22Z</time>
      </trkpt>
      <trkpt lat="31.223037745803595" lon="-4.785366151481867">
        <ele>844.17999999999995</ele>
        <time>2019-03-12T17:42:43Z</time>
      </trkpt>
      <trkpt lat="31.224118927493691" lon="-4.779505273327231">
        <ele>843.21000000000004</ele>
        <time>2019-03-12T17:42:57Z</time>
      </trkpt>
      <trkpt lat="31.224963739514351" lon="-4.775665523484349">
        <ele>844.17999999999995</ele>
        <time>2019-03-12T17:43:09Z</time>
      </trkpt>
      <trkpt lat="31.225587939843535" lon="-4.772494817152619">
        <ele>842.73000000000002</ele>
        <time>2019-03-12T17:43:23Z</time>
      </trkpt>
      <trkpt lat="31.226036790758371" lon="-4.768850784748793">
        <ele>839.37</ele>
        <time>2019-03-12T17:43:39Z</time>
      </trkpt>
      <trkpt lat="31.22650969773531" lon="-4.764957306906581">
        <ele>837.92999999999995</ele>
        <time>2019-03-12T17:43:55Z</time>
      </trkpt>
      <trkpt lat="31.2270213291049" lon="-4.760860903188586">
        <ele>835.51999999999998</ele>
        <time>2019-03-12T17:44:12Z</time>
      </trkpt>
      <trkpt lat="31.227595238015056" lon="-4.75623426027596">
        <ele>833.60000000000002</ele>
        <time>2019-03-12T17:44:28Z</time>
      </trkpt>
      <trkpt lat="31.228140816092491" lon="-4.751684395596385">
        <ele>834.08000000000004</ele>
        <time>2019-03-12T17:44:48Z</time>
      </trkpt>
      <trkpt lat="31.228873897343874" lon="-4.745868612080813">
        <ele>837.45000000000005</ele>
        <time>2019-03-12T17:45:10Z</time>
      </trkpt>
      <trkpt lat="31.229655593633652" lon="-4.739430556073785">
        <ele>841.28999999999996</ele>
        <time>2019-03-12T17:45:22Z</time>
      </trkpt>
      <trkpt lat="31.230267388746142" lon="-4.735907055437565">
        <ele>843.69000000000005</ele>
        <time>2019-03-12T17:45:44Z</time>
      </trkpt>
      <trkpt lat="31.231858776882291" lon="-4.729547537863255">
        <ele>848.01999999999998</ele>
        <time>2019-03-12T17:46:03Z</time>
      </trkpt>
      <trkpt lat="31.233198707923293" lon="-4.724163673818111">
        <ele>850.89999999999998</ele>
        <time>2019-03-12T17:46:21Z</time>
      </trkpt>
      <trkpt lat="31.23444652184844" lon="-4.719175016507506">
        <ele>855.23000000000002</ele>
        <time>2019-03-12T17:46:41Z</time>
      </trkpt>
      <trkpt lat="31.235852753743529" lon="-4.713561404496431">
        <ele>852.83000000000004</ele>
        <time>2019-03-12T17:46:56Z</time>
      </trkpt>
      <trkpt lat="31.236888589337468" lon="-4.709420325234532">
        <ele>853.78999999999996</ele>
        <time>2019-03-12T17:47:14Z</time>
      </trkpt>
      <trkpt lat="31.238101786002517" lon="-4.704531999304891">
        <ele>853.30999999999995</ele>
        <time>2019-03-12T17:47:32Z</time>
      </trkpt>
      <trkpt lat="31.239310875535011" lon="-4.699674770236015">
        <ele>855.23000000000002</ele>
        <time>2019-03-12T17:47:48Z</time>
      </trkpt>
      <trkpt lat="31.240351488813758" lon="-4.695701496675611">
        <ele>856.66999999999996</ele>
        <time>2019-03-12T17:48:02Z</time>
      </trkpt>
      <trkpt lat="31.241588992998004" lon="-4.692410593852401">
        <ele>861.96000000000004</ele>
        <time>2019-03-12T17:48:22Z</time>
      </trkpt>
      <trkpt lat="31.243278784677386" lon="-4.687893083319068">
        <ele>862.91999999999996</ele>
        <time>2019-03-12T17:48:46Z</time>
      </trkpt>
      <trkpt lat="31.245237635448575" lon="-4.682682137936354">
        <ele>867.25</ele>
        <time>2019-03-12T17:49:00Z</time>
      </trkpt>
      <trkpt lat="31.24628160148859" lon="-4.6796162892133">
        <ele>867.73000000000002</ele>
        <time>2019-03-12T17:49:07Z</time>
      </trkpt>
      <trkpt lat="31.246211612597108" lon="-4.678041245788336">
        <ele>866.76999999999998</ele>
        <time>2019-03-12T17:49:19Z</time>
      </trkpt>
      <trkpt lat="31.24593660235405" lon="-4.67533053830266">
        <ele>862.91999999999996</ele>
        <time>2019-03-12T17:49:28Z</time>
      </trkpt>
      <trkpt lat="31.246405569836497" lon="-4.67312928289175">
        <ele>863.88</ele>
        <time>2019-03-12T17:49:40Z</time>
      </trkpt>
      <trkpt lat="31.247154492884874" lon="-4.670103415846825">
        <ele>867.25</ele>
        <time>2019-03-12T17:49:51Z</time>
      </trkpt>
      <trkpt lat="31.248209774494171" lon="-4.667626982554793">
        <ele>868.69000000000005</ele>
        <time>2019-03-12T17:49:57Z</time>
      </trkpt>
      <trkpt lat="31.249003289267421" lon="-4.666593661531806">
        <ele>868.69000000000005</ele>
        <time>2019-03-12T17:50:06Z</time>
      </trkpt>
      <trkpt lat="31.25050725415349" lon="-4.665632760152221">
        <ele>876.38</ele>
        <time>2019-03-12T17:50:19Z</time>
      </trkpt>
      <trkpt lat="31.252712113782763" lon="-4.664108427241445">
        <ele>876.86000000000001</ele>
        <time>2019-03-12T17:50:26Z</time>
      </trkpt>
      <trkpt lat="31.253434298560023" lon="-4.66291987337172">
        <ele>873.5</ele>
        <time>2019-03-12T17:50:33Z</time>
      </trkpt>
      <trkpt lat="31.253697155043483" lon="-4.661556808277965">
        <ele>870.13</ele>
        <time>2019-03-12T17:50:42Z</time>
      </trkpt>
      <trkpt lat="31.253559021279216" lon="-4.659694768488407">
        <ele>867.73000000000002</ele>
        <time>2019-03-12T17:50:56Z</time>
      </trkpt>
      <trkpt lat="31.253316700458527" lon="-4.656622968614101">
        <ele>864.36000000000001</ele>
        <time>2019-03-12T17:51:10Z</time>
      </trkpt>
      <trkpt lat="31.253370093181729" lon="-4.653341453522444">
        <ele>864.36000000000001</ele>
        <time>2019-03-12T17:51:26Z</time>
      </trkpt>
      <trkpt lat="31.253430023789406" lon="-4.649303639307618">
        <ele>864.36000000000001</ele>
        <time>2019-03-12T17:51:45Z</time>
      </trkpt>
      <trkpt lat="31.253511998802423" lon="-4.644198305904865">
        <ele>864.36000000000001</ele>
        <time>2019-03-12T17:51:57Z</time>
      </trkpt>
      <trkpt lat="31.253350311890244" lon="-4.640980577096343">
        <ele>866.76999999999998</ele>
        <time>2019-03-12T17:52:09Z</time>
      </trkpt>
      <trkpt lat="31.253060549497604" lon="-4.637993769720197">
        <ele>868.21000000000004</ele>
        <time>2019-03-12T17:52:13Z</time>
      </trkpt>
      <trkpt lat="31.253028195351362" lon="-4.637454142794013">
        <ele>867.25</ele>
        <time>2019-03-12T17:52:14Z</time>
      </trkpt>
      <trkpt lat="31.253011096268892" lon="-4.637333275750279">
        <ele>867.25</ele>
        <time>2019-03-12T17:52:21Z</time>
      </trkpt>
      <trkpt lat="31.252882685512304" lon="-4.636140195652843">
        <ele>868.21000000000004</ele>
        <time>2019-03-12T17:52:30Z</time>
      </trkpt>
      <trkpt lat="31.252670707181096" lon="-4.634029548615217">
        <ele>867.25</ele>
        <time>2019-03-12T17:52:42Z</time>
      </trkpt>
      <trkpt lat="31.252355966717005" lon="-4.630750045180321">
        <ele>866.76999999999998</ele>
        <time>2019-03-12T17:52:56Z</time>
      </trkpt>
      <trkpt lat="31.252003340050578" lon="-4.627118082717061">
        <ele>865.32000000000005</ele>
        <time>2019-03-12T17:52:58Z</time>
      </trkpt>
      <trkpt lat="31.251961849629879" lon="-4.626777861267328">
        <ele>864.84000000000003</ele>
        <time>2019-03-12T17:53:08Z</time>
      </trkpt>
      <trkpt lat="31.251757331192493" lon="-4.624906266108155">
        <ele>862.44000000000005</ele>
        <time>2019-03-12T17:53:19Z</time>
      </trkpt>
      <trkpt lat="31.251360112801194" lon="-4.622404854744673">
        <ele>861.96000000000004</ele>
        <time>2019-03-12T17:53:34Z</time>
      </trkpt>
      <trkpt lat="31.250782767310739" lon="-4.618832571431994">
        <ele>861.96000000000004</ele>
        <time>2019-03-12T17:53:52Z</time>
      </trkpt>
      <trkpt lat="31.250058654695749" lon="-4.614238869398832">
        <ele>861.48000000000002</ele>
        <time>2019-03-12T17:54:08Z</time>
      </trkpt>
      <trkpt lat="31.249423557892442" lon="-4.610267607495189">
        <ele>861.48000000000002</ele>
        <time>2019-03-12T17:54:26Z</time>
      </trkpt>
      <trkpt lat="31.2486572843045" lon="-4.605484055355191">
        <ele>861</ele>
        <time>2019-03-12T17:54:39Z</time>
      </trkpt>
      <trkpt lat="31.248149927705526" lon="-4.602070776745677">
        <ele>861</ele>
        <time>2019-03-12T17:54:40Z</time>
      </trkpt>
      <trkpt lat="31.248155878856778" lon="-4.601826863363385">
        <ele>859.08000000000004</ele>
        <time>2019-03-12T17:54:41Z</time>
      </trkpt>
      <trkpt lat="31.248186221346259" lon="-4.601580519229174">
        <ele>859.08000000000004</ele>
        <time>2019-03-12T17:54:42Z</time>
      </trkpt>
      <trkpt lat="31.248236680403352" lon="-4.601329816505313">
        <ele>858.59000000000003</ele>
        <time>2019-03-12T17:54:43Z</time>
      </trkpt>
      <trkpt lat="31.2483049929142" lon="-4.601079868152738">
        <ele>858.59000000000003</ele>
        <time>2019-03-12T17:54:44Z</time>
      </trkpt>
      <trkpt lat="31.248378669843078" lon="-4.600826483219862">
        <ele>858.11000000000001</ele>
        <time>2019-03-12T17:54:57Z</time>
      </trkpt>
      <trkpt lat="31.249255416914821" lon="-4.597521079704166">
        <ele>857.63</ele>
        <time>2019-03-12T17:54:58Z</time>
      </trkpt>
      <trkpt lat="31.249266983941197" lon="-4.597269706428051">
        <ele>857.14999999999998</ele>
        <time>2019-03-12T17:54:59Z</time>
      </trkpt>
      <trkpt lat="31.249247454106808" lon="-4.597015902400017">
        <ele>857.14999999999998</ele>
        <time>2019-03-12T17:55:00Z</time>
      </trkpt>
      <trkpt lat="31.249207388609648" lon="-4.596758913248777">
        <ele>854.75</ele>
        <time>2019-03-12T17:55:01Z</time>
      </trkpt>
      <trkpt lat="31.249158773571253" lon="-4.596499158069491">
        <ele>857.14999999999998</ele>
        <time>2019-03-12T17:55:13Z</time>
      </trkpt>
      <trkpt lat="31.248498447239399" lon="-4.593402296304703">
        <ele>858.59000000000003</ele>
        <time>2019-03-12T17:55:16Z</time>
      </trkpt>
      <trkpt lat="31.2481823656708" lon="-4.592707436531782">
        <ele>857.63</ele>
        <time>2019-03-12T17:55:17Z</time>
      </trkpt>
      <trkpt lat="31.24804406426847" lon="-4.592500822618604">
        <ele>852.35000000000002</ele>
        <time>2019-03-12T17:55:29Z</time>
      </trkpt>
      <trkpt lat="31.246482264250517" lon="-4.589975103735924">
        <ele>851.87</ele>
        <time>2019-03-12T17:55:45Z</time>
      </trkpt>
      <trkpt lat="31.244657104834914" lon="-4.586268374696374">
        <ele>848.5</ele>
        <time>2019-03-12T17:55:47Z</time>
      </trkpt>
      <trkpt lat="31.244505140930414" lon="-4.585839137434959">
        <ele>848.5</ele>
        <time>2019-03-12T17:55:56Z</time>
      </trkpt>
      <trkpt lat="31.243975991383195" lon="-4.583623800426722">
        <ele>847.53999999999996</ele>
        <time>2019-03-12T17:56:13Z</time>
      </trkpt>
      <trkpt lat="31.242945101112127" lon="-4.579267641529441">
        <ele>848.98000000000002</ele>
        <time>2019-03-12T17:56:28Z</time>
      </trkpt>
      <trkpt lat="31.242076400667429" lon="-4.575371732935309">
        <ele>846.10000000000002</ele>
        <time>2019-03-12T17:56:46Z</time>
      </trkpt>
      <trkpt lat="31.241593854501843" lon="-4.570755315944552">
        <ele>848.01999999999998</ele>
        <time>2019-03-12T17:56:50Z</time>
      </trkpt>
      <trkpt lat="31.241562254726887" lon="-4.569771531969309">
        <ele>848.5</ele>
        <time>2019-03-12T17:56:59Z</time>
      </trkpt>
      <trkpt lat="31.241988558322191" lon="-4.567462904378772">
        <ele>847.53999999999996</ele>
        <time>2019-03-12T17:57:11Z</time>
      </trkpt>
      <trkpt lat="31.242510583251715" lon="-4.564332263544202">
        <ele>851.87</ele>
        <time>2019-03-12T17:57:29Z</time>
      </trkpt>
      <trkpt lat="31.243044007569551" lon="-4.559415439143777">
        <ele>846.58000000000004</ele>
        <time>2019-03-12T17:57:40Z</time>
      </trkpt>
      <trkpt lat="31.243292530998588" lon="-4.556389320641756">
        <ele>841.76999999999998</ele>
        <time>2019-03-12T17:57:41Z</time>
      </trkpt>
      <trkpt lat="31.243250370025635" lon="-4.556125290691853">
        <ele>844.17999999999995</ele>
        <time>2019-03-12T17:57:51Z</time>
      </trkpt>
      <trkpt lat="31.242819121107459" lon="-4.553344426676631">
        <ele>838.88999999999999</ele>
        <time>2019-03-12T17:58:06Z</time>
      </trkpt>
      <trkpt lat="31.24227530322969" lon="-4.549167389050126">
        <ele>834.55999999999995</ele>
        <time>2019-03-12T17:58:15Z</time>
      </trkpt>
      <trkpt lat="31.242450568825006" lon="-4.54669120721519">
        <ele>831.20000000000005</ele>
        <time>2019-03-12T17:58:31Z</time>
      </trkpt>
      <trkpt lat="31.242646956816316" lon="-4.542122315615416">
        <ele>823.99000000000001</ele>
        <time>2019-03-12T17:58:42Z</time>
      </trkpt>
      <trkpt lat="31.242571352049708" lon="-4.539139615371823">
        <ele>823.50999999999999</ele>
        <time>2019-03-12T17:58:53Z</time>
      </trkpt>
      <trkpt lat="31.241851598024368" lon="-4.53621793538332">
        <ele>822.54999999999995</ele>
        <time>2019-03-12T17:59:17Z</time>
      </trkpt>
      <trkpt lat="31.239958880469203" lon="-4.529822878539562">
        <ele>821.10000000000002</ele>
        <time>2019-03-12T17:59:28Z</time>
      </trkpt>
      <trkpt lat="31.239124126732349" lon="-4.526935564354062">
        <ele>822.05999999999995</ele>
        <time>2019-03-12T17:59:39Z</time>
      </trkpt>
      <trkpt lat="31.238766890019178" lon="-4.52397339977324">
        <ele>823.02999999999997</ele>
        <time>2019-03-12T17:59:40Z</time>
      </trkpt>
      <trkpt lat="31.238779965788126" lon="-4.523718673735857">
        <ele>825.90999999999997</ele>
        <time>2019-03-12T17:59:41Z</time>
      </trkpt>
      <trkpt lat="31.238805530592799" lon="-4.523486495018005">
        <ele>826.38999999999999</ele>
        <time>2019-03-12T17:59:53Z</time>
      </trkpt>
      <trkpt lat="31.239109290763736" lon="-4.520739577710629">
        <ele>828.78999999999996</ele>
        <time>2019-03-12T18:00:05Z</time>
      </trkpt>
      <trkpt lat="31.239460743963718" lon="-4.517608098685741">
        <ele>829.75999999999999</ele>
        <time>2019-03-12T18:00:18Z</time>
      </trkpt>
      <trkpt lat="31.240100534632802" lon="-4.514349550008774">
        <ele>831.67999999999995</ele>
        <time>2019-03-12T18:00:24Z</time>
      </trkpt>
      <trkpt lat="31.240437068045139" lon="-4.513148926198483">
        <ele>831.20000000000005</ele>
        <time>2019-03-12T18:00:25Z</time>
      </trkpt>
      <trkpt lat="31.240532537922263" lon="-4.512977432459593">
        <ele>831.20000000000005</ele>
        <time>2019-03-12T18:00:38Z</time>
      </trkpt>
      <trkpt lat="31.242050752043724" lon="-4.510736195370555">
        <ele>830.72000000000003</ele>
        <time>2019-03-12T18:00:48Z</time>
      </trkpt>
      <trkpt lat="31.243507191538811" lon="-4.508989742025733">
        <ele>830.24000000000001</ele>
        <time>2019-03-12T18:00:56Z</time>
      </trkpt>
      <trkpt lat="31.244709743186831" lon="-4.507662132382393">
        <ele>829.75999999999999</ele>
        <time>2019-03-12T18:00:57Z</time>
      </trkpt>
      <trkpt lat="31.24482155777514" lon="-4.507477227598429">
        <ele>829.26999999999998</ele>
        <time>2019-03-12T18:00:58Z</time>
      </trkpt>
      <trkpt lat="31.244911160320044" lon="-4.507281677797437">
        <ele>828.78999999999996</ele>
        <time>2019-03-12T18:00:59Z</time>
      </trkpt>
      <trkpt lat="31.244982490316033" lon="-4.507078919559717">
        <ele>827.83000000000004</ele>
        <time>2019-03-12T18:01:00Z</time>
      </trkpt>
      <trkpt lat="31.245037978515029" lon="-4.506868701428175">
        <ele>826.87</ele>
        <time>2019-03-12T18:01:01Z</time>
      </trkpt>
      <trkpt lat="31.245072847232223" lon="-4.506652113050222">
        <ele>822.54999999999995</ele>
        <time>2019-03-12T18:01:02Z</time>
      </trkpt>
      <trkpt lat="31.245087180286646" lon="-4.506430495530367">
        <ele>821.58000000000004</ele>
        <time>2019-03-12T18:01:03Z</time>
      </trkpt>
      <trkpt lat="31.245082905516028" lon="-4.506200579926372">
        <ele>820.13999999999999</ele>
        <time>2019-03-12T18:01:04Z</time>
      </trkpt>
      <trkpt lat="31.245060861110687" lon="-4.505964880809188">
        <ele>819.17999999999995</ele>
        <time>2019-03-12T18:01:05Z</time>
      </trkpt>
      <trkpt lat="31.245027082040906" lon="-4.505724906921387">
        <ele>818.22000000000003</ele>
        <time>2019-03-12T18:01:09Z</time>
      </trkpt>
      <trkpt lat="31.244908478111029" lon="-4.504808178171516">
        <ele>817.25999999999999</ele>
        <time>2019-03-12T18:01:10Z</time>
      </trkpt>
      <trkpt lat="31.244908394291997" lon="-4.504588656127453">
        <ele>816.29999999999995</ele>
        <time>2019-03-12T18:01:11Z</time>
      </trkpt>
      <trkpt lat="31.244923984631896" lon="-4.504370139911771">
        <ele>815.82000000000005</ele>
        <time>2019-03-12T18:01:12Z</time>
      </trkpt>
      <trkpt lat="31.244962457567453" lon="-4.504153551533818">
        <ele>811.00999999999999</ele>
        <time>2019-03-12T18:01:13Z</time>
      </trkpt>
      <trkpt lat="31.245023058727384" lon="-4.503940483555198">
        <ele>810.52999999999997</ele>
        <time>2019-03-12T18:01:14Z</time>
      </trkpt>
      <trkpt lat="31.24510545283556" lon="-4.503730684518814">
        <ele>810.52999999999997</ele>
        <time>2019-03-12T18:01:15Z</time>
      </trkpt>
      <trkpt lat="31.245202599093318" lon="-4.503522729501128">
        <ele>810.04999999999995</ele>
        <time>2019-03-12T18:01:16Z</time>
      </trkpt>
      <trkpt lat="31.245312066748738" lon="-4.50331611558795">
        <ele>810.04999999999995</ele>
        <time>2019-03-12T18:01:22Z</time>
      </trkpt>
      <trkpt lat="31.245953617617488" lon="-4.502122616395354">
        <ele>810.04999999999995</ele>
        <time>2019-03-12T18:01:23Z</time>
      </trkpt>
      <trkpt lat="31.24601136893034" lon="-4.501925725489855">
        <ele>807.63999999999999</ele>
        <time>2019-03-12T18:01:24Z</time>
      </trkpt>
      <trkpt lat="31.246036095544696" lon="-4.50172321870923">
        <ele>803.79999999999995</ele>
        <time>2019-03-12T18:01:25Z</time>
      </trkpt>
      <trkpt lat="31.246023271232843" lon="-4.501515431329608">
        <ele>803.79999999999995</ele>
        <time>2019-03-12T18:01:26Z</time>
      </trkpt>
      <trkpt lat="31.245981780812144" lon="-4.501305548474193">
        <ele>803.32000000000005</ele>
        <time>2019-03-12T18:01:27Z</time>
      </trkpt>
      <trkpt lat="31.24592931009829" lon="-4.501092061400414">
        <ele>802.84000000000003</ele>
        <time>2019-03-12T18:01:37Z</time>
      </trkpt>
      <trkpt lat="31.245250040665269" lon="-4.498696094378829">
        <ele>800.91999999999996</ele>
        <time>2019-03-12T18:01:47Z</time>
      </trkpt>
      <trkpt lat="31.244432469829917" lon="-4.496277999132872">
        <ele>799.47000000000003</ele>
        <time>2019-03-12T18:01:48Z</time>
      </trkpt>
      <trkpt lat="31.244376394897699" lon="-4.49605068191886">
        <ele>798.99000000000001</ele>
        <time>2019-03-12T18:01:49Z</time>
      </trkpt>
      <trkpt lat="31.244349740445614" lon="-4.495818000286818">
        <ele>798.99000000000001</ele>
        <time>2019-03-12T18:01:50Z</time>
      </trkpt>
      <trkpt lat="31.244347309693694" lon="-4.495575176551938">
        <ele>798.99000000000001</ele>
        <time>2019-03-12T18:01:59Z</time>
      </trkpt>
      <trkpt lat="31.244542021304369" lon="-4.493170995265245">
        <ele>800.91999999999996</ele>
        <time>2019-03-12T18:02:15Z</time>
      </trkpt>
      <trkpt lat="31.244881991297007" lon="-4.48879555799067">
        <ele>804.75999999999999</ele>
        <time>2019-03-12T18:02:22Z</time>
      </trkpt>
      <trkpt lat="31.245117019861937" lon="-4.487010464072228">
        <ele>809.09000000000003</ele>
        <time>2019-03-12T18:02:23Z</time>
      </trkpt>
      <trkpt lat="31.245204443112016" lon="-4.486778536811471">
        <ele>809.57000000000005</ele>
        <time>2019-03-12T18:02:24Z</time>
      </trkpt>
      <trkpt lat="31.245310474187136" lon="-4.486547196283937">
        <ele>810.52999999999997</ele>
        <time>2019-03-12T18:02:35Z</time>
      </trkpt>
      <trkpt lat="31.246720561757684" lon="-4.48389901779592">
        <ele>810.52999999999997</ele>
        <time>2019-03-12T18:02:52Z</time>
      </trkpt>
      <trkpt lat="31.248905304819345" lon="-4.479788281023502">
        <ele>811.00999999999999</ele>
        <time>2019-03-12T18:03:02Z</time>
      </trkpt>
      <trkpt lat="31.249998304992914" lon="-4.477309584617615">
        <ele>811.00999999999999</ele>
        <time>2019-03-12T18:03:10Z</time>
      </trkpt>
      <trkpt lat="31.250543128699064" lon="-4.475447880104184">
        <ele>811.49000000000001</ele>
        <time>2019-03-12T18:03:11Z</time>
      </trkpt>
      <trkpt lat="31.250649243593216" lon="-4.475281164050102">
        <ele>811.97000000000003</ele>
        <time>2019-03-12T18:03:12Z</time>
      </trkpt>
      <trkpt lat="31.25077748671174" lon="-4.475128697231412">
        <ele>811.97000000000003</ele>
        <time>2019-03-12T18:03:13Z</time>
      </trkpt>
      <trkpt lat="31.250916374847293" lon="-4.474994922056794">
        <ele>811.97000000000003</ele>
        <time>2019-03-12T18:03:14Z</time>
      </trkpt>
      <trkpt lat="31.251063393428922" lon="-4.474884113296866">
        <ele>815.82000000000005</ele>
        <time>2019-03-12T18:03:15Z</time>
      </trkpt>
      <trkpt lat="31.251223739236593" lon="-4.474798366427422">
        <ele>818.22000000000003</ele>
        <time>2019-03-12T18:03:16Z</time>
      </trkpt>
      <trkpt lat="31.251397915184498" lon="-4.474738435819745">
        <ele>818.70000000000005</ele>
        <time>2019-03-12T18:03:17Z</time>
      </trkpt>
      <trkpt lat="31.251582149416208" lon="-4.474698202684522">
        <ele>819.17999999999995</ele>
        <time>2019-03-12T18:03:18Z</time>
      </trkpt>
      <trkpt lat="31.251774430274963" lon="-4.474667273461819">
        <ele>819.65999999999997</ele>
        <time>2019-03-12T18:03:29Z</time>
      </trkpt>
      <trkpt lat="31.254134271293879" lon="-4.474367285147309">
        <ele>819.65999999999997</ele>
        <time>2019-03-12T18:03:33Z</time>
      </trkpt>
      <trkpt lat="31.254889899864793" lon="-4.474220518022776">
        <ele>819.65999999999997</ele>
        <time>2019-03-12T18:03:34Z</time>
      </trkpt>
      <trkpt lat="31.255037086084485" lon="-4.474149690940976">
        <ele>820.13999999999999</ele>
        <time>2019-03-12T18:03:35Z</time>
      </trkpt>
      <trkpt lat="31.255170777440071" lon="-4.474055729806423">
        <ele>823.02999999999997</ele>
        <time>2019-03-12T18:03:36Z</time>
      </trkpt>
      <trkpt lat="31.255294661968946" lon="-4.473941903561354">
        <ele>824.95000000000005</ele>
        <time>2019-03-12T18:03:37Z</time>
      </trkpt>
      <trkpt lat="31.25541209243238" lon="-4.473814917728305">
        <ele>820.62</ele>
        <time>2019-03-12T18:03:38Z</time>
      </trkpt>
      <trkpt lat="31.25552105717361" lon="-4.473678879439831">
        <ele>812.45000000000005</ele>
        <time>2019-03-12T18:03:39Z</time>
      </trkpt>
      <trkpt lat="31.255622897297144" lon="-4.473540242761374">
        <ele>811.97000000000003</ele>
        <time>2019-03-12T18:03:53Z</time>
      </trkpt>
      <trkpt lat="31.257162820547819" lon="-4.471398666501045">
        <ele>811.97000000000003</ele>
        <time>2019-03-12T18:04:05Z</time>
      </trkpt>
      <trkpt lat="31.258519515395164" lon="-4.469414670020342">
        <ele>811.49000000000001</ele>
        <time>2019-03-12T18:04:13Z</time>
      </trkpt>
      <trkpt lat="31.259465580806136" lon="-4.468065686523914">
        <ele>811.00999999999999</ele>
        <time>2019-03-12T18:04:27Z</time>
      </trkpt>
      <trkpt lat="31.261301217600703" lon="-4.465812211856246">
        <ele>810.52999999999997</ele>
        <time>2019-03-12T18:04:28Z</time>
      </trkpt>
      <trkpt lat="31.261388473212719" lon="-4.46563208475709">
        <ele>806.20000000000005</ele>
        <time>2019-03-12T18:04:29Z</time>
      </trkpt>
      <trkpt lat="31.261453097686172" lon="-4.465442234650254">
        <ele>803.32000000000005</ele>
        <time>2019-03-12T18:04:30Z</time>
      </trkpt>
      <trkpt lat="31.261493749916553" lon="-4.465245008468628">
        <ele>800.44000000000005</ele>
        <time>2019-03-12T18:04:31Z</time>
      </trkpt>
      <trkpt lat="31.261515123769641" lon="-4.465038059279323">
        <ele>798.50999999999999</ele>
        <time>2019-03-12T18:04:32Z</time>
      </trkpt>
      <trkpt lat="31.261527361348271" lon="-4.464822309091687">
        <ele>797.54999999999995</ele>
        <time>2019-03-12T18:04:42Z</time>
      </trkpt>
      <trkpt lat="31.261581173166633" lon="-4.462394993752241">
        <ele>796.11000000000001</ele>
        <time>2019-03-12T18:04:56Z</time>
      </trkpt>
      <trkpt lat="31.261728191748261" lon="-4.45877811871469">
        <ele>795.14999999999998</ele>
        <time>2019-03-12T18:05:08Z</time>
      </trkpt>
      <trkpt lat="31.262108562514186" lon="-4.455790389329195">
        <ele>792.74000000000001</ele>
        <time>2019-03-12T18:05:15Z</time>
      </trkpt>
      <trkpt lat="31.262618098407984" lon="-4.454260105267167">
        <ele>790.82000000000005</ele>
        <time>2019-03-12T18:05:23Z</time>
      </trkpt>
      <trkpt lat="31.263170382007957" lon="-4.452389683574438">
        <ele>790.34000000000003</ele>
        <time>2019-03-12T18:05:42Z</time>
      </trkpt>
      <trkpt lat="31.264044530689716" lon="-4.447442432865501">
        <ele>787.94000000000005</ele>
        <time>2019-03-12T18:05:52Z</time>
      </trkpt>
      <trkpt lat="31.264313338324428" lon="-4.444701969623566">
        <ele>785.04999999999995</ele>
        <time>2019-03-12T18:06:10Z</time>
      </trkpt>
      <trkpt lat="31.264044865965843" lon="-4.43954668007791">
        <ele>783.13</ele>
        <time>2019-03-12T18:06:31Z</time>
      </trkpt>
      <trkpt lat="31.263765748590231" lon="-4.433615393936634">
        <ele>780.73000000000002</ele>
        <time>2019-03-12T18:06:37Z</time>
      </trkpt>
      <trkpt lat="31.264063976705074" lon="-4.432022664695978">
        <ele>781.69000000000005</ele>
        <time>2019-03-12T18:06:52Z</time>
      </trkpt>
      <trkpt lat="31.265129987150431" lon="-4.428015109151602">
        <ele>780.25</ele>
        <time>2019-03-12T18:07:10Z</time>
      </trkpt>
      <trkpt lat="31.266420045867562" lon="-4.423132231459022">
        <ele>779.28999999999996</ele>
        <time>2019-03-12T18:07:24Z</time>
      </trkpt>
      <trkpt lat="31.267339708283544" lon="-4.419628931209445">
        <ele>782.64999999999998</ele>
        <time>2019-03-12T18:07:44Z</time>
      </trkpt>
      <trkpt lat="31.268735714256763" lon="-4.414388397708535">
        <ele>780.73000000000002</ele>
        <time>2019-03-12T18:07:56Z</time>
      </trkpt>
      <trkpt lat="31.269384305924177" lon="-4.411191791296005">
        <ele>779.76999999999998</ele>
        <time>2019-03-12T18:08:15Z</time>
      </trkpt>
      <trkpt lat="31.269843718037009" lon="-4.405974140390754">
        <ele>779.76999999999998</ele>
        <time>2019-03-12T18:08:26Z</time>
      </trkpt>
      <trkpt lat="31.270234482362866" lon="-4.403069727122784">
        <ele>779.76999999999998</ele>
        <time>2019-03-13T08:58:10Z</time>
      </trkpt>
      <trkpt lat="31.270377142354846" lon="-4.402851965278387">
        <ele>780.25</ele>
        <time>2019-03-13T08:58:22Z</time>
      </trkpt>
      <trkpt lat="31.271047275513411" lon="-4.40274853259325">
        <ele>778.80999999999995</ele>
        <time>2019-03-13T08:58:28Z</time>
      </trkpt>
      <trkpt lat="31.271337373182178" lon="-4.402812151238322">
        <ele>778.80999999999995</ele>
        <time>2019-03-13T08:58:37Z</time>
      </trkpt>
      <trkpt lat="31.272094007581472" lon="-4.402892617508769">
        <ele>778.32000000000005</ele>
        <time>2019-03-13T08:58:41Z</time>
      </trkpt>
      <trkpt lat="31.272410340607166" lon="-4.402869064360857">
        <ele>778.32000000000005</ele>
        <time>2019-03-13T08:58:44Z</time>
      </trkpt>
      <trkpt lat="31.272681914269924" lon="-4.402880044654012">
        <ele>779.28999999999996</ele>
        <time>2019-03-13T08:58:51Z</time>
      </trkpt>
      <trkpt lat="31.273238388821483" lon="-4.403188331052661">
        <ele>779.28999999999996</ele>
        <time>2019-03-13T08:58:53Z</time>
      </trkpt>
      <trkpt lat="31.273356573656201" lon="-4.403316155076027">
        <ele>779.28999999999996</ele>
        <time>2019-03-13T08:59:04Z</time>
      </trkpt>
      <trkpt lat="31.274252599105239" lon="-4.40386550500989">
        <ele>780.25</ele>
        <time>2019-03-13T08:59:10Z</time>
      </trkpt>
      <trkpt lat="31.274834554642439" lon="-4.404120063409209">
        <ele>780.25</ele>
        <time>2019-03-13T08:59:23Z</time>
      </trkpt>
      <trkpt lat="31.27610994502902" lon="-4.405136369168758">
        <ele>781.21000000000004</ele>
        <time>2019-03-13T08:59:24Z</time>
      </trkpt>
      <trkpt lat="31.276195608079433" lon="-4.405231000855565">
        <ele>781.21000000000004</ele>
        <time>2019-03-13T08:59:30Z</time>
      </trkpt>
      <trkpt lat="31.276689972728491" lon="-4.40560357645154">
        <ele>782.16999999999996</ele>
        <time>2019-03-13T08:59:36Z</time>
      </trkpt>
      <trkpt lat="31.277185594663024" lon="-4.405716983601451">
        <ele>782.16999999999996</ele>
        <time>2019-03-13T08:59:42Z</time>
      </trkpt>
      <trkpt lat="31.277663698419929" lon="-4.405636349692941">
        <ele>784.57000000000005</ele>
        <time>2019-03-13T08:59:50Z</time>
      </trkpt>
      <trkpt lat="31.278176251798868" lon="-4.405669206753373">
        <ele>785.52999999999997</ele>
        <time>2019-03-13T08:59:58Z</time>
      </trkpt>
      <trkpt lat="31.278824172914028" lon="-4.405460329726338">
        <ele>786.98000000000002</ele>
        <time>2019-03-13T09:00:08Z</time>
      </trkpt>
      <trkpt lat="31.27950930967927" lon="-4.405371816828847">
        <ele>786.5</ele>
        <time>2019-03-13T09:00:17Z</time>
      </trkpt>
      <trkpt lat="31.280371807515621" lon="-4.405325464904308">
        <ele>786.98000000000002</ele>
        <time>2019-03-13T09:00:27Z</time>
      </trkpt>
      <trkpt lat="31.281391466036439" lon="-4.405264193192124">
        <ele>786.01999999999998</ele>
        <time>2019-03-13T09:00:38Z</time>
      </trkpt>
      <trkpt lat="31.282853102311492" lon="-4.404996726661921">
        <ele>786.5</ele>
        <time>2019-03-13T09:00:47Z</time>
      </trkpt>
      <trkpt lat="31.284004440531135" lon="-4.404732612892985">
        <ele>786.5</ele>
        <time>2019-03-13T09:00:56Z</time>
      </trkpt>
      <trkpt lat="31.285068020224571" lon="-4.404541170224547">
        <ele>787.46000000000004</ele>
        <time>2019-03-13T09:00:58Z</time>
      </trkpt>
      <trkpt lat="31.285228198394179" lon="-4.404541421681643">
        <ele>788.89999999999998</ele>
        <time>2019-03-13T09:01:07Z</time>
      </trkpt>
      <trkpt lat="31.286113578826189" lon="-4.404435474425554">
        <ele>788.89999999999998</ele>
        <time>2019-03-13T09:01:14Z</time>
      </trkpt>
      <trkpt lat="31.286571314558387" lon="-4.404298765584827">
        <ele>788.89999999999998</ele>
        <time>2019-03-13T09:01:23Z</time>
      </trkpt>
      <trkpt lat="31.287594577297568" lon="-4.403922250494361">
        <ele>789.86000000000001</ele>
        <time>2019-03-13T09:01:35Z</time>
      </trkpt>
      <trkpt lat="31.28907423466444" lon="-4.403329901397228">
        <ele>792.25999999999999</ele>
        <time>2019-03-13T09:01:46Z</time>
      </trkpt>
      <trkpt lat="31.290472419932485" lon="-4.402969228103757">
        <ele>795.63</ele>
        <time>2019-03-13T09:01:57Z</time>
      </trkpt>
      <trkpt lat="31.291696345433593" lon="-4.40271869301796">
        <ele>797.07000000000005</ele>
        <time>2019-03-13T09:02:02Z</time>
      </trkpt>
      <trkpt lat="31.292038997635245" lon="-4.402624815702438">
        <ele>799.47000000000003</ele>
        <time>2019-03-13T09:02:11Z</time>
      </trkpt>
      <trkpt lat="31.2928806245327" lon="-4.402522556483746">
        <ele>800.44000000000005</ele>
        <time>2019-03-13T09:02:23Z</time>
      </trkpt>
      <trkpt lat="31.294232709333301" lon="-4.402179485186935">
        <ele>797.54999999999995</ele>
        <time>2019-03-13T09:02:37Z</time>
      </trkpt>
      <trkpt lat="31.29588226787746" lon="-4.401909587904811">
        <ele>801.39999999999998</ele>
        <time>2019-03-13T09:02:48Z</time>
      </trkpt>
      <trkpt lat="31.297227060422301" lon="-4.401916544884443">
        <ele>802.36000000000001</ele>
        <time>2019-03-13T09:02:57Z</time>
      </trkpt>
      <trkpt lat="31.297957627102733" lon="-4.401741111651063">
        <ele>806.20000000000005</ele>
        <time>2019-03-13T09:03:03Z</time>
      </trkpt>
      <trkpt lat="31.298291981220245" lon="-4.401471968740225">
        <ele>811.00999999999999</ele>
        <time>2019-03-13T09:03:09Z</time>
      </trkpt>
      <trkpt lat="31.298482082784176" lon="-4.401133507490158">
        <ele>816.29999999999995</ele>
        <time>2019-03-13T09:03:24Z</time>
      </trkpt>
      <trkpt lat="31.298796823248267" lon="-4.400637717917562">
        <ele>823.02999999999997</ele>
        <time>2019-03-13T09:03:36Z</time>
      </trkpt>
      <trkpt lat="31.299307700246572" lon="-4.400114016607404">
        <ele>836</ele>
        <time>2019-03-13T09:03:45Z</time>
      </trkpt>
      <trkpt lat="31.29953526891768" lon="-4.399915533140302">
        <ele>836.48000000000002</ele>
        <time>2019-03-13T09:03:59Z</time>
      </trkpt>
      <trkpt lat="31.299920249730349" lon="-4.399767844006419">
        <ele>836</ele>
        <time>2019-03-13T09:04:12Z</time>
      </trkpt>
      <trkpt lat="31.300282180309296" lon="-4.399441704154015">
        <ele>836</ele>
        <time>2019-03-13T09:04:25Z</time>
      </trkpt>
      <trkpt lat="31.300604129210114" lon="-4.399154875427485">
        <ele>836.96000000000004</ele>
        <time>2019-03-13T09:06:21Z</time>
      </trkpt>
      <trkpt lat="31.300836140289903" lon="-4.398981537669897">
        <ele>836.48000000000002</ele>
        <time>2019-03-13T09:07:04Z</time>
      </trkpt>
      <trkpt lat="31.301051722839475" lon="-4.39881700091064">
        <ele>832.63999999999999</ele>
        <time>2019-03-13T09:07:53Z</time>
      </trkpt>
      <trkpt lat="31.301056165248156" lon="-4.39881700091064">
        <ele>831.20000000000005</ele>
        <time>2019-03-13T09:07:55Z</time>
      </trkpt>
      <trkpt lat="31.301316674798727" lon="-4.398745754733682">
        <ele>828.78999999999996</ele>
        <time>2019-03-13T09:08:04Z</time>
      </trkpt>
      <trkpt lat="31.301424466073513" lon="-4.398663444444537">
        <ele>829.26999999999998</ele>
        <time>2019-03-13T09:08:15Z</time>
      </trkpt>
      <trkpt lat="31.301478361710906" lon="-4.398471582680941">
        <ele>827.83000000000004</ele>
        <time>2019-03-13T09:08:24Z</time>
      </trkpt>
      <trkpt lat="31.301482887938619" lon="-4.398164553567767">
        <ele>826.38999999999999</ele>
        <time>2019-03-13T09:08:26Z</time>
      </trkpt>
      <trkpt lat="31.301563773304224" lon="-4.397868420928717">
        <ele>819.17999999999995</ele>
        <time>2019-03-13T09:08:29Z</time>
      </trkpt>
      <trkpt lat="31.301553966477513" lon="-4.397781919687986">
        <ele>814.85000000000002</ele>
        <time>2019-03-13T09:08:39Z</time>
      </trkpt>
      <trkpt lat="31.301553547382355" lon="-4.397775549441576">
        <ele>809.09000000000003</ele>
        <time>2019-03-13T09:08:41Z</time>
      </trkpt>
      <trkpt lat="31.30155480466783" lon="-4.397779991850257">
        <ele>806.67999999999995</ele>
        <time>2019-03-13T09:08:54Z</time>
      </trkpt>
      <trkpt lat="31.301552625373006" lon="-4.397784601897001">
        <ele>800.91999999999996</ele>
        <time>2019-03-13T09:09:07Z</time>
      </trkpt>
      <trkpt lat="31.301609622314572" lon="-4.397847382351756">
        <ele>795.63</ele>
        <time>2019-03-13T09:09:22Z</time>
      </trkpt>
      <trkpt lat="31.301477020606399" lon="-4.398157596588135">
        <ele>796.11000000000001</ele>
        <time>2019-03-13T09:09:36Z</time>
      </trkpt>
      <trkpt lat="31.301473332569003" lon="-4.398494716733694">
        <ele>796.11000000000001</ele>
        <time>2019-03-13T09:09:46Z</time>
      </trkpt>
      <trkpt lat="31.301450449973345" lon="-4.398576943203807">
        <ele>792.74000000000001</ele>
        <time>2019-03-13T09:10:00Z</time>
      </trkpt>
      <trkpt lat="31.30137350410223" lon="-4.398698229342699">
        <ele>797.07000000000005</ele>
        <time>2019-03-13T09:10:10Z</time>
      </trkpt>
      <trkpt lat="31.301070917397738" lon="-4.398816581815481">
        <ele>796.11000000000001</ele>
        <time>2019-03-13T09:10:25Z</time>
      </trkpt>
      <trkpt lat="31.301026241853833" lon="-4.398841224610806">
        <ele>795.14999999999998</ele>
        <time>2019-03-13T09:10:26Z</time>
      </trkpt>
      <trkpt lat="31.300944183021784" lon="-4.398894030600786">
        <ele>792.74000000000001</ele>
        <time>2019-03-13T09:10:34Z</time>
      </trkpt>
      <trkpt lat="31.300572948530316" lon="-4.39916686154902">
        <ele>788.89999999999998</ele>
        <time>2019-03-13T09:10:45Z</time>
      </trkpt>
      <trkpt lat="31.300268350169063" lon="-4.399449499323964">
        <ele>786.98000000000002</ele>
        <time>2019-03-13T09:11:23Z</time>
      </trkpt>
      <trkpt lat="31.299963835626841" lon="-4.399706237018108">
        <ele>786.98000000000002</ele>
        <time>2019-03-13T09:11:47Z</time>
      </trkpt>
      <trkpt lat="31.29972143098712" lon="-4.39986607991159">
        <ele>786.98000000000002</ele>
        <time>2019-03-13T09:11:56Z</time>
      </trkpt>
      <trkpt lat="31.29941750317812" lon="-4.399991557002068">
        <ele>785.52999999999997</ele>
        <time>2019-03-13T09:12:09Z</time>
      </trkpt>
      <trkpt lat="31.299127070233226" lon="-4.400305207818747">
        <ele>782.16999999999996</ele>
        <time>2019-03-13T09:12:15Z</time>
      </trkpt>
      <trkpt lat="31.298658521845937" lon="-4.40078616142273">
        <ele>781.69000000000005</ele>
        <time>2019-03-13T09:12:27Z</time>
      </trkpt>
      <trkpt lat="31.298635052517056" lon="-4.400815162807703">
        <ele>781.21000000000004</ele>
        <time>2019-03-13T09:12:40Z</time>
      </trkpt>
      <trkpt lat="31.298409914597869" lon="-4.401223948225379">
        <ele>779.76999999999998</ele>
        <time>2019-03-13T09:12:50Z</time>
      </trkpt>
      <trkpt lat="31.298271277919412" lon="-4.401821494102478">
        <ele>778.32000000000005</ele>
        <time>2019-03-13T09:13:01Z</time>
      </trkpt>
      <trkpt lat="31.298269936814904" lon="-4.401810513809323">
        <ele>778.32000000000005</ele>
        <time>2019-03-13T09:13:08Z</time>
      </trkpt>
      <trkpt lat="31.298241522163153" lon="-4.40194521099329">
        <ele>777.84000000000003</ele>
        <time>2019-03-13T09:13:10Z</time>
      </trkpt>
      <trkpt lat="31.298154853284359" lon="-4.402652056887746">
        <ele>778.32000000000005</ele>
        <time>2019-03-13T09:13:21Z</time>
      </trkpt>
      <trkpt lat="31.298443358391523" lon="-4.40372577868402">
        <ele>779.76999999999998</ele>
        <time>2019-03-13T09:13:31Z</time>
      </trkpt>
      <trkpt lat="31.298704789951444" lon="-4.404164906591177">
        <ele>780.25</ele>
        <time>2019-03-13T09:13:42Z</time>
      </trkpt>
      <trkpt lat="31.299454802647233" lon="-4.404816431924701">
        <ele>780.25</ele>
        <time>2019-03-13T09:13:51Z</time>
      </trkpt>
      <trkpt lat="31.300456523895264" lon="-4.405395705252886">
        <ele>780.73000000000002</ele>
        <time>2019-03-13T09:14:02Z</time>
      </trkpt>
      <trkpt lat="31.301279291510582" lon="-4.406044883653522">
        <ele>780.73000000000002</ele>
        <time>2019-03-13T09:14:15Z</time>
      </trkpt>
      <trkpt lat="31.302101807668805" lon="-4.40669515170157">
        <ele>780.25</ele>
        <time>2019-03-13T09:14:25Z</time>
      </trkpt>
      <trkpt lat="31.302256202325225" lon="-4.407224887982011">
        <ele>780.73000000000002</ele>
        <time>2019-03-13T09:14:27Z</time>
      </trkpt>
      <trkpt lat="31.302320156246424" lon="-4.407381126657128">
        <ele>780.25</ele>
        <time>2019-03-13T09:14:38Z</time>
      </trkpt>
      <trkpt lat="31.303071593865752" lon="-4.407985210418701">
        <ele>780.73000000000002</ele>
        <time>2019-03-13T09:14:50Z</time>
      </trkpt>
      <trkpt lat="31.303994776681066" lon="-4.408379411324859">
        <ele>779.76999999999998</ele>
        <time>2019-03-13T09:15:03Z</time>
      </trkpt>
      <trkpt lat="31.305148461833596" lon="-4.408422075212002">
        <ele>779.76999999999998</ele>
        <time>2019-03-13T09:15:11Z</time>
      </trkpt>
      <trkpt lat="31.305807195603848" lon="-4.408456776291132">
        <ele>779.76999999999998</ele>
        <time>2019-03-13T09:15:22Z</time>
      </trkpt>
      <trkpt lat="31.306054042652249" lon="-4.408467086032033">
        <ele>780.25</ele>
        <time>2019-03-13T09:15:31Z</time>
      </trkpt>
      <trkpt lat="31.306490739807487" lon="-4.408442443236709">
        <ele>780.25</ele>
        <time>2019-03-13T09:15:40Z</time>
      </trkpt>
      <trkpt lat="31.307398583739996" lon="-4.408457027748227">
        <ele>783.13</ele>
        <time>2019-03-13T09:15:43Z</time>
      </trkpt>
      <trkpt lat="31.307537220418453" lon="-4.408447807654738">
        <ele>785.04999999999995</ele>
        <time>2019-03-13T09:15:52Z</time>
      </trkpt>
      <trkpt lat="31.308346576988697" lon="-4.408508073538542">
        <ele>785.52999999999997</ele>
        <time>2019-03-13T09:15:57Z</time>
      </trkpt>
      <trkpt lat="31.309502860531211" lon="-4.408724410459399">
        <ele>785.52999999999997</ele>
        <time>2019-03-13T09:16:01Z</time>
      </trkpt>
      <trkpt lat="31.310670124366879" lon="-4.409200670197606">
        <ele>787.94000000000005</ele>
        <time>2019-03-13T09:16:11Z</time>
      </trkpt>
      <trkpt lat="31.311296168714762" lon="-4.409486074000597">
        <ele>788.41999999999996</ele>
        <time>2019-03-13T09:16:22Z</time>
      </trkpt>
      <trkpt lat="31.312183644622564" lon="-4.409965686500073">
        <ele>789.38</ele>
        <time>2019-03-13T09:16:33Z</time>
      </trkpt>
      <trkpt lat="31.312910858541727" lon="-4.410378243774176">
        <ele>790.34000000000003</ele>
        <time>2019-03-13T09:16:44Z</time>
      </trkpt>
      <trkpt lat="31.313705714419484" lon="-4.410639088600874">
        <ele>790.82000000000005</ele>
        <time>2019-03-13T09:16:56Z</time>
      </trkpt>
      <trkpt lat="31.31394786760211" lon="-4.410691978409886">
        <ele>790.82000000000005</ele>
        <time>2019-03-13T09:17:04Z</time>
      </trkpt>
      <trkpt lat="31.314607691019773" lon="-4.410787951201201">
        <ele>790.34000000000003</ele>
        <time>2019-03-13T09:17:12Z</time>
      </trkpt>
      <trkpt lat="31.315047657117248" lon="-4.410862131044269">
        <ele>792.25999999999999</ele>
        <time>2019-03-13T09:17:19Z</time>
      </trkpt>
      <trkpt lat="31.315388549119234" lon="-4.410958187654614">
        <ele>792.25999999999999</ele>
        <time>2019-03-13T09:17:28Z</time>
      </trkpt>
      <trkpt lat="31.316453302279115" lon="-4.410841427743435">
        <ele>792.74000000000001</ele>
        <time>2019-03-13T09:17:38Z</time>
      </trkpt>
      <trkpt lat="31.317579913884401" lon="-4.410532722249627">
        <ele>792.25999999999999</ele>
        <time>2019-03-13T09:17:48Z</time>
      </trkpt>
      <trkpt lat="31.318599991500378" lon="-4.410341111943126">
        <ele>792.25999999999999</ele>
        <time>2019-03-13T09:18:01Z</time>
      </trkpt>
      <trkpt lat="31.319871274754405" lon="-4.410447394475341">
        <ele>792.25999999999999</ele>
        <time>2019-03-13T09:18:12Z</time>
      </trkpt>
      <trkpt lat="31.321285972371697" lon="-4.4105064868927">
        <ele>791.29999999999995</ele>
        <time>2019-03-13T09:18:21Z</time>
      </trkpt>
      <trkpt lat="31.321999439969659" lon="-4.410480000078678">
        <ele>790.82000000000005</ele>
        <time>2019-03-13T09:18:31Z</time>
      </trkpt>
      <trkpt lat="31.322767306119204" lon="-4.410301968455315">
        <ele>790.82000000000005</ele>
        <time>2019-03-13T09:18:41Z</time>
      </trkpt>
      <trkpt lat="31.323240213096142" lon="-4.410101976245642">
        <ele>789.86000000000001</ele>
        <time>2019-03-13T09:18:48Z</time>
      </trkpt>
      <trkpt lat="31.324211005121469" lon="-4.409756809473038">
        <ele>789.86000000000001</ele>
        <time>2019-03-13T09:18:52Z</time>
      </trkpt>
      <trkpt lat="31.32536955177784" lon="-4.409625884145498">
        <ele>789.86000000000001</ele>
        <time>2019-03-13T09:18:57Z</time>
      </trkpt>
      <trkpt lat="31.326515190303326" lon="-4.409600989893079">
        <ele>790.82000000000005</ele>
        <time>2019-03-13T09:18:59Z</time>
      </trkpt>
      <trkpt lat="31.328235995024443" lon="-4.409631080925465">
        <ele>791.77999999999997</ele>
        <time>2019-03-13T09:19:11Z</time>
      </trkpt>
      <trkpt lat="31.32950090803206" lon="-4.409558326005936">
        <ele>791.77999999999997</ele>
        <time>2019-03-13T09:19:13Z</time>
      </trkpt>
      <trkpt lat="31.330308672040701" lon="-4.409436956048012">
        <ele>791.29999999999995</ele>
        <time>2019-03-13T09:19:24Z</time>
      </trkpt>
      <trkpt lat="31.331443330273032" lon="-4.409345258027315">
        <ele>791.29999999999995</ele>
        <time>2019-03-13T09:19:34Z</time>
      </trkpt>
      <trkpt lat="31.33258611895144" lon="-4.409043844789267">
        <ele>790.34000000000003</ele>
        <time>2019-03-13T09:19:43Z</time>
      </trkpt>
      <trkpt lat="31.333268908783793" lon="-4.408730864524841">
        <ele>793.71000000000004</ele>
        <time>2019-03-13T09:19:48Z</time>
      </trkpt>
      <trkpt lat="31.333565041422844" lon="-4.408456105738878">
        <ele>792.74000000000001</ele>
        <time>2019-03-13T09:19:58Z</time>
      </trkpt>
      <trkpt lat="31.33389076218009" lon="-4.408320989459753">
        <ele>793.71000000000004</ele>
        <time>2019-03-13T09:20:08Z</time>
      </trkpt>
      <trkpt lat="31.333982208743691" lon="-4.408322665840387">
        <ele>792.74000000000001</ele>
        <time>2019-03-13T09:20:18Z</time>
      </trkpt>
      <trkpt lat="31.334411697462201" lon="-4.408437749370933">
        <ele>792.74000000000001</ele>
        <time>2019-03-13T09:20:30Z</time>
      </trkpt>
      <trkpt lat="31.334502641111612" lon="-4.408453926444054">
        <ele>793.71000000000004</ele>
        <time>2019-03-13T09:20:43Z</time>
      </trkpt>
      <trkpt lat="31.335122985765338" lon="-4.408407742157579">
        <ele>795.63</ele>
        <time>2019-03-13T09:20:53Z</time>
      </trkpt>
      <trkpt lat="31.335877105593681" lon="-4.40811269916594">
        <ele>797.54999999999995</ele>
        <time>2019-03-13T09:21:01Z</time>
      </trkpt>
      <trkpt lat="31.33660800755024" lon="-4.40789083018899">
        <ele>797.07000000000005</ele>
        <time>2019-03-13T09:21:02Z</time>
      </trkpt>
      <trkpt lat="31.337032131850719" lon="-4.407883789390326">
        <ele>798.02999999999997</ele>
        <time>2019-03-13T09:21:07Z</time>
      </trkpt>
      <trkpt lat="31.33802505210042" lon="-4.407781530171633">
        <ele>798.50999999999999</ele>
        <time>2019-03-13T09:21:18Z</time>
      </trkpt>
      <trkpt lat="31.338978158310056" lon="-4.407780608162284">
        <ele>799.47000000000003</ele>
        <time>2019-03-13T09:21:35Z</time>
      </trkpt>
      <trkpt lat="31.339819869026542" lon="-4.407826038077474">
        <ele>800.91999999999996</ele>
        <time>2019-03-13T09:21:51Z</time>
      </trkpt>
      <trkpt lat="31.341066928580403" lon="-4.408012116327882">
        <ele>801.39999999999998</ele>
        <time>2019-03-13T09:22:06Z</time>
      </trkpt>
      <trkpt lat="31.34229714050889" lon="-4.408174557611346">
        <ele>802.36000000000001</ele>
        <time>2019-03-13T09:22:19Z</time>
      </trkpt>
      <trkpt lat="31.34318646043539" lon="-4.408127367496491">
        <ele>802.36000000000001</ele>
        <time>2019-03-13T09:22:30Z</time>
      </trkpt>
      <trkpt lat="31.343788532540202" lon="-4.408155279234052">
        <ele>802.36000000000001</ele>
        <time>2019-03-13T09:22:39Z</time>
      </trkpt>
      <trkpt lat="31.343868663534522" lon="-4.408171204850078">
        <ele>803.79999999999995</ele>
        <time>2019-03-13T09:22:53Z</time>
      </trkpt>
      <trkpt lat="31.344246016815305" lon="-4.408376896753907">
        <ele>805.24000000000001</ele>
        <time>2019-03-13T09:23:06Z</time>
      </trkpt>
      <trkpt lat="31.345206750556827" lon="-4.408921217545867">
        <ele>806.67999999999995</ele>
        <time>2019-03-13T09:23:16Z</time>
      </trkpt>
      <trkpt lat="31.347062671557069" lon="-4.409640468657017">
        <ele>807.63999999999999</ele>
        <time>2019-03-13T09:23:26Z</time>
      </trkpt>
      <trkpt lat="31.348932003602386" lon="-4.410088984295726">
        <ele>807.15999999999997</ele>
        <time>2019-03-13T09:23:35Z</time>
      </trkpt>
      <trkpt lat="31.350765964016318" lon="-4.410411519929767">
        <ele>807.15999999999997</ele>
        <time>2019-03-13T09:23:46Z</time>
      </trkpt>
      <trkpt lat="31.352256434038281" lon="-4.41077521070838">
        <ele>808.61000000000001</ele>
        <time>2019-03-13T09:23:57Z</time>
      </trkpt>
      <trkpt lat="31.353314565494657" lon="-4.411193216219544">
        <ele>809.09000000000003</ele>
        <time>2019-03-13T09:24:11Z</time>
      </trkpt>
      <trkpt lat="31.354168932884932" lon="-4.411550955846906">
        <ele>810.52999999999997</ele>
        <time>2019-03-13T09:24:18Z</time>
      </trkpt>
      <trkpt lat="31.355616319924593" lon="-4.41195672377944">
        <ele>813.40999999999997</ele>
        <time>2019-03-13T09:24:26Z</time>
      </trkpt>
      <trkpt lat="31.356962621212006" lon="-4.41235788166523">
        <ele>816.29999999999995</ele>
        <time>2019-03-13T09:24:36Z</time>
      </trkpt>
      <trkpt lat="31.357904579490423" lon="-4.412552760913968">
        <ele>816.29999999999995</ele>
        <time>2019-03-13T09:24:47Z</time>
      </trkpt>
      <trkpt lat="31.358785768970847" lon="-4.412728948518634">
        <ele>817.25999999999999</ele>
        <time>2019-03-13T09:24:58Z</time>
      </trkpt>
      <trkpt lat="31.359461601823568" lon="-4.413186432793737">
        <ele>816.77999999999997</ele>
        <time>2019-03-13T09:25:11Z</time>
      </trkpt>
      <trkpt lat="31.360383862629533" lon="-4.413732262328267">
        <ele>816.29999999999995</ele>
        <time>2019-03-13T09:25:21Z</time>
      </trkpt>
      <trkpt lat="31.361239990219474" lon="-4.413804765790701">
        <ele>815.34000000000003</ele>
        <time>2019-03-13T09:25:22Z</time>
      </trkpt>
      <trkpt lat="31.362561313435435" lon="-4.413911467418075">
        <ele>815.34000000000003</ele>
        <time>2019-03-13T09:25:27Z</time>
      </trkpt>
      <trkpt lat="31.363278888165951" lon="-4.413941977545619">
        <ele>815.34000000000003</ele>
        <time>2019-03-13T09:25:38Z</time>
      </trkpt>
      <trkpt lat="31.363819018006325" lon="-4.414141299203038">
        <ele>814.85000000000002</ele>
        <time>2019-03-13T09:25:48Z</time>
      </trkpt>
      <trkpt lat="31.364843370392919" lon="-4.414437431842089">
        <ele>813.40999999999997</ele>
        <time>2019-03-13T09:26:00Z</time>
      </trkpt>
      <trkpt lat="31.366100991144776" lon="-4.414746891707182">
        <ele>812.45000000000005</ele>
        <time>2019-03-13T09:26:15Z</time>
      </trkpt>
      <trkpt lat="31.367491884157062" lon="-4.414747310802341">
        <ele>812.45000000000005</ele>
        <time>2019-03-13T09:26:24Z</time>
      </trkpt>
      <trkpt lat="31.369230123236775" lon="-4.414467941969633">
        <ele>812.92999999999995</ele>
        <time>2019-03-13T09:26:35Z</time>
      </trkpt>
      <trkpt lat="31.370431166142225" lon="-4.414063766598702">
        <ele>813.40999999999997</ele>
        <time>2019-03-13T09:26:51Z</time>
      </trkpt>
      <trkpt lat="31.370507190003991" lon="-4.414042308926582">
        <ele>814.37</ele>
        <time>2019-03-13T09:27:02Z</time>
      </trkpt>
      <trkpt lat="31.370869036763906" lon="-4.41391808912158">
        <ele>814.85000000000002</ele>
        <time>2019-03-13T09:27:13Z</time>
      </trkpt>
      <trkpt lat="31.371950218454003" lon="-4.414131911471486">
        <ele>815.82000000000005</ele>
        <time>2019-03-13T09:27:21Z</time>
      </trkpt>
      <trkpt lat="31.373098539188504" lon="-4.414760554209352">
        <ele>816.29999999999995</ele>
        <time>2019-03-13T09:27:30Z</time>
      </trkpt>
      <trkpt lat="31.374468812718987" lon="-4.415661357343197">
        <ele>816.77999999999997</ele>
        <time>2019-03-13T09:27:42Z</time>
      </trkpt>
      <trkpt lat="31.375912679359317" lon="-4.416624689474702">
        <ele>816.29999999999995</ele>
        <time>2019-03-13T09:27:51Z</time>
      </trkpt>
      <trkpt lat="31.376613657921553" lon="-4.417147720232606">
        <ele>816.77999999999997</ele>
        <time>2019-03-13T09:28:02Z</time>
      </trkpt>
      <trkpt lat="31.377384625375271" lon="-4.41793411038816">
        <ele>817.74000000000001</ele>
        <time>2019-03-13T09:28:17Z</time>
      </trkpt>
      <trkpt lat="31.378609891980886" lon="-4.419206734746695">
        <ele>819.65999999999997</ele>
        <time>2019-03-13T09:28:28Z</time>
      </trkpt>
      <trkpt lat="31.379484795033932" lon="-4.420054145157337">
        <ele>820.62</ele>
        <time>2019-03-13T09:28:37Z</time>
      </trkpt>
      <trkpt lat="31.380190216004848" lon="-4.420851180329919">
        <ele>822.05999999999995</ele>
        <time>2019-03-13T09:28:46Z</time>
      </trkpt>
      <trkpt lat="31.380543345585465" lon="-4.421301791444421">
        <ele>822.54999999999995</ele>
        <time>2019-03-13T09:28:56Z</time>
      </trkpt>
      <trkpt lat="31.381249940022826" lon="-4.421990029513836">
        <ele>823.99000000000001</ele>
        <time>2019-03-13T09:29:10Z</time>
      </trkpt>
      <trkpt lat="31.382200112566352" lon="-4.42282184958458">
        <ele>824.47000000000003</ele>
        <time>2019-03-13T09:29:21Z</time>
      </trkpt>
      <trkpt lat="31.382907964289188" lon="-4.423362147063017">
        <ele>823.99000000000001</ele>
        <time>2019-03-13T09:29:32Z</time>
      </trkpt>
      <trkpt lat="31.38397766277194" lon="-4.424052815884352">
        <ele>823.50999999999999</ele>
        <time>2019-03-13T09:29:42Z</time>
      </trkpt>
      <trkpt lat="31.385263446718454" lon="-4.425258804112673">
        <ele>824.47000000000003</ele>
        <time>2019-03-13T09:29:51Z</time>
      </trkpt>
      <trkpt lat="31.386308670043945" lon="-4.426092887297273">
        <ele>824.95000000000005</ele>
        <time>2019-03-13T09:30:04Z</time>
      </trkpt>
      <trkpt lat="31.386757101863623" lon="-4.42657895386219">
        <ele>823.99000000000001</ele>
        <time>2019-03-13T09:30:15Z</time>
      </trkpt>
      <trkpt lat="31.387321120128036" lon="-4.426986984908581">
        <ele>824.47000000000003</ele>
        <time>2019-03-13T09:30:26Z</time>
      </trkpt>
      <trkpt lat="31.388245308771729" lon="-4.427502388134599">
        <ele>824.95000000000005</ele>
        <time>2019-03-13T09:30:36Z</time>
      </trkpt>
      <trkpt lat="31.389676686376333" lon="-4.428588012233377">
        <ele>825.90999999999997</ele>
        <time>2019-03-13T09:30:50Z</time>
      </trkpt>
      <trkpt lat="31.390609927475452" lon="-4.429313801229">
        <ele>827.83000000000004</ele>
        <time>2019-03-13T09:30:52Z</time>
      </trkpt>
      <trkpt lat="31.391394641250372" lon="-4.429814787581563">
        <ele>827.83000000000004</ele>
        <time>2019-03-13T09:30:57Z</time>
      </trkpt>
      <trkpt lat="31.391947511583567" lon="-4.4301772210747">
        <ele>827.35000000000002</ele>
        <time>2019-03-13T09:31:01Z</time>
      </trkpt>
      <trkpt lat="31.392754269763827" lon="-4.430582486093044">
        <ele>827.35000000000002</ele>
        <time>2019-03-13T09:31:13Z</time>
      </trkpt>
      <trkpt lat="31.394161004573107" lon="-4.431588314473629">
        <ele>827.35000000000002</ele>
        <time>2019-03-13T09:31:22Z</time>
      </trkpt>
      <trkpt lat="31.395196504890919" lon="-4.432484926655889">
        <ele>826.87</ele>
        <time>2019-03-13T09:31:36Z</time>
      </trkpt>
      <trkpt lat="31.396011896431446" lon="-4.433104852214456">
        <ele>827.83000000000004</ele>
        <time>2019-03-13T09:31:54Z</time>
      </trkpt>
      <trkpt lat="31.397000374272466" lon="-4.433933403342962">
        <ele>828.30999999999995</ele>
        <time>2019-03-13T09:32:06Z</time>
      </trkpt>
      <trkpt lat="31.39843912795186" lon="-4.435405433177948">
        <ele>829.75999999999999</ele>
        <time>2019-03-13T09:32:20Z</time>
      </trkpt>
      <trkpt lat="31.39861699193716" lon="-4.435580782592297">
        <ele>830.24000000000001</ele>
        <time>2019-03-13T09:32:30Z</time>
      </trkpt>
      <trkpt lat="31.398925026878715" lon="-4.435771806165576">
        <ele>830.72000000000003</ele>
        <time>2019-03-13T09:32:40Z</time>
      </trkpt>
      <trkpt lat="31.399106746539474" lon="-4.435859732329845">
        <ele>832.15999999999997</ele>
        <time>2019-03-13T09:32:51Z</time>
      </trkpt>
      <trkpt lat="31.399965137243271" lon="-4.436200456693769">
        <ele>834.08000000000004</ele>
        <time>2019-03-13T09:32:59Z</time>
      </trkpt>
      <trkpt lat="31.400942383334041" lon="-4.436634723097086">
        <ele>834.08000000000004</ele>
        <time>2019-03-13T09:33:11Z</time>
      </trkpt>
      <trkpt lat="31.402636785060167" lon="-4.437655135989189">
        <ele>832.15999999999997</ele>
        <time>2019-03-13T09:33:29Z</time>
      </trkpt>
      <trkpt lat="31.404639976099133" lon="-4.439300503581762">
        <ele>831.67999999999995</ele>
        <time>2019-03-13T09:33:44Z</time>
      </trkpt>
      <trkpt lat="31.405931375920773" lon="-4.440158475190401">
        <ele>833.12</ele>
        <time>2019-03-13T09:33:59Z</time>
      </trkpt>
      <trkpt lat="31.407462414354086" lon="-4.441390028223395">
        <ele>832.15999999999997</ele>
        <time>2019-03-13T09:34:03Z</time>
      </trkpt>
      <trkpt lat="31.408376041799784" lon="-4.442142806947231">
        <ele>833.12</ele>
        <time>2019-03-13T09:34:13Z</time>
      </trkpt>
      <trkpt lat="31.409204425290227" lon="-4.442754769697785">
        <ele>834.55999999999995</ele>
        <time>2019-03-13T09:34:14Z</time>
      </trkpt>
      <trkpt lat="31.410035323351622" lon="-4.443233208730817">
        <ele>834.55999999999995</ele>
        <time>2019-03-13T09:34:24Z</time>
      </trkpt>
      <trkpt lat="31.410816013813019" lon="-4.443763447925448">
        <ele>836.48000000000002</ele>
        <time>2019-03-13T09:34:35Z</time>
      </trkpt>
      <trkpt lat="31.412239009514451" lon="-4.444802217185497">
        <ele>836.48000000000002</ele>
        <time>2019-03-13T09:34:46Z</time>
      </trkpt>
      <trkpt lat="31.414169697090983" lon="-4.446247844025493">
        <ele>837.45000000000005</ele>
        <time>2019-03-13T09:34:56Z</time>
      </trkpt>
      <trkpt lat="31.415685648098588" lon="-4.447168512269855">
        <ele>837.92999999999995</ele>
        <time>2019-03-13T09:35:11Z</time>
      </trkpt>
      <trkpt lat="31.416822820901871" lon="-4.447750551626086">
        <ele>837.45000000000005</ele>
        <time>2019-03-13T09:35:25Z</time>
      </trkpt>
      <trkpt lat="31.417102441191673" lon="-4.447878878563643">
        <ele>840.80999999999995</ele>
        <time>2019-03-13T09:35:30Z</time>
      </trkpt>
      <trkpt lat="31.417565289884806" lon="-4.448210801929236">
        <ele>842.73000000000002</ele>
        <time>2019-03-13T09:35:42Z</time>
      </trkpt>
      <trkpt lat="31.417601918801665" lon="-4.448239216580987">
        <ele>841.28999999999996</ele>
        <time>2019-03-13T09:35:55Z</time>
      </trkpt>
      <trkpt lat="31.418135678395629" lon="-4.448810862377286">
        <ele>839.37</ele>
        <time>2019-03-13T09:36:09Z</time>
      </trkpt>
      <trkpt lat="31.41890924423933" lon="-4.449386363849044">
        <ele>839.37</ele>
        <time>2019-03-13T09:36:22Z</time>
      </trkpt>
      <trkpt lat="31.419638469815254" lon="-4.450160097330809">
        <ele>836.48000000000002</ele>
        <time>2019-03-13T09:36:31Z</time>
      </trkpt>
      <trkpt lat="31.420364677906036" lon="-4.450919162482023">
        <ele>836.96000000000004</ele>
        <time>2019-03-13T09:36:42Z</time>
      </trkpt>
      <trkpt lat="31.421657670289278" lon="-4.452348947525024">
        <ele>836.96000000000004</ele>
        <time>2019-03-13T09:36:56Z</time>
      </trkpt>
      <trkpt lat="31.423118133097887" lon="-4.453627271577716">
        <ele>836.96000000000004</ele>
        <time>2019-03-13T09:37:06Z</time>
      </trkpt>
      <trkpt lat="31.423506047576666" lon="-4.453957853838801">
        <ele>837.45000000000005</ele>
        <time>2019-03-13T09:37:13Z</time>
      </trkpt>
      <trkpt lat="31.424158830195665" lon="-4.454651540145278">
        <ele>836.96000000000004</ele>
        <time>2019-03-13T09:37:26Z</time>
      </trkpt>
      <trkpt lat="31.425033146515489" lon="-4.455411862581968">
        <ele>836.48000000000002</ele>
        <time>2019-03-13T09:37:41Z</time>
      </trkpt>
      <trkpt lat="31.426170654594898" lon="-4.456237144768238">
        <ele>836.48000000000002</ele>
        <time>2019-03-13T09:37:55Z</time>
      </trkpt>
      <trkpt lat="31.427288549020886" lon="-4.456726815551519">
        <ele>836.48000000000002</ele>
        <time>2019-03-13T09:38:06Z</time>
      </trkpt>
      <trkpt lat="31.428130846470594" lon="-4.456958156079054">
        <ele>837.45000000000005</ele>
        <time>2019-03-13T09:38:19Z</time>
      </trkpt>
      <trkpt lat="31.429209178313613" lon="-4.45712604559958">
        <ele>837.92999999999995</ele>
        <time>2019-03-13T09:38:31Z</time>
      </trkpt>
      <trkpt lat="31.43057425506413" lon="-4.457274153828621">
        <ele>838.40999999999997</ele>
        <time>2019-03-13T09:38:42Z</time>
      </trkpt>
      <trkpt lat="31.431312784552574" lon="-4.457384459674358">
        <ele>838.88999999999999</ele>
        <time>2019-03-13T09:38:53Z</time>
      </trkpt>
      <trkpt lat="31.431934470310807" lon="-4.457517648115754">
        <ele>838.40999999999997</ele>
        <time>2019-03-13T09:39:03Z</time>
      </trkpt>
      <trkpt lat="31.433348078280687" lon="-4.457455538213253">
        <ele>838.40999999999997</ele>
        <time>2019-03-13T09:39:13Z</time>
      </trkpt>
      <trkpt lat="31.434955475851893" lon="-4.457209780812264">
        <ele>838.40999999999997</ele>
        <time>2019-03-13T09:39:24Z</time>
      </trkpt>
      <trkpt lat="31.436634035781026" lon="-4.457064606249332">
        <ele>838.40999999999997</ele>
        <time>2019-03-13T09:39:38Z</time>
      </trkpt>
      <trkpt lat="31.437963154166937" lon="-4.457069132477045">
        <ele>838.40999999999997</ele>
        <time>2019-03-13T09:39:42Z</time>
      </trkpt>
      <trkpt lat="31.439535515382886" lon="-4.457209529355168">
        <ele>838.88999999999999</ele>
        <time>2019-03-13T09:39:47Z</time>
      </trkpt>
      <trkpt lat="31.440855162218213" lon="-4.457085225731134">
        <ele>838.88999999999999</ele>
        <time>2019-03-13T09:39:55Z</time>
      </trkpt>
      <trkpt lat="31.441894434392452" lon="-4.456969304010272">
        <ele>839.37</ele>
        <time>2019-03-13T09:40:05Z</time>
      </trkpt>
      <trkpt lat="31.443054154515266" lon="-4.45674785412848">
        <ele>839.37</ele>
        <time>2019-03-13T09:40:15Z</time>
      </trkpt>
      <trkpt lat="31.444289060309529" lon="-4.456836367025971">
        <ele>839.85000000000002</ele>
        <time>2019-03-13T09:40:26Z</time>
      </trkpt>
      <trkpt lat="31.445674002170563" lon="-4.456943403929472">
        <ele>838.88999999999999</ele>
        <time>2019-03-13T09:40:29Z</time>
      </trkpt>
      <trkpt lat="31.447231695055962" lon="-4.457050357013941">
        <ele>838.88999999999999</ele>
        <time>2019-03-13T09:40:33Z</time>
      </trkpt>
      <trkpt lat="31.449241675436497" lon="-4.457336347550154">
        <ele>839.37</ele>
        <time>2019-03-13T09:40:41Z</time>
      </trkpt>
      <trkpt lat="31.449790773913264" lon="-4.457326037809253">
        <ele>839.85000000000002</ele>
        <time>2019-03-13T09:40:45Z</time>
      </trkpt>
      <trkpt lat="31.45042771473527" lon="-4.457010291516781">
        <ele>840.33000000000004</ele>
        <time>2019-03-13T09:40:51Z</time>
      </trkpt>
      <trkpt lat="31.451189294457436" lon="-4.456251142546535">
        <ele>840.80999999999995</ele>
        <time>2019-03-13T09:41:01Z</time>
      </trkpt>
      <trkpt lat="31.452214987948537" lon="-4.455174654722214">
        <ele>841.28999999999996</ele>
        <time>2019-03-13T09:41:12Z</time>
      </trkpt>
      <trkpt lat="31.453110259026289" lon="-4.454157091677189">
        <ele>841.76999999999998</ele>
        <time>2019-03-13T09:41:24Z</time>
      </trkpt>
      <trkpt lat="31.453973762691021" lon="-4.453067611902952">
        <ele>842.73000000000002</ele>
        <time>2019-03-13T09:41:34Z</time>
      </trkpt>
      <trkpt lat="31.454188590869308" lon="-4.452780447900295">
        <ele>842.25</ele>
        <time>2019-03-13T09:41:43Z</time>
      </trkpt>
      <trkpt lat="31.454550856724381" lon="-4.452425641939044">
        <ele>842.73000000000002</ele>
        <time>2019-03-13T09:41:52Z</time>
      </trkpt>
      <trkpt lat="31.455351496115327" lon="-4.451947538182139">
        <ele>843.21000000000004</ele>
        <time>2019-03-13T09:42:01Z</time>
      </trkpt>
      <trkpt lat="31.455712001770735" lon="-4.451603544875979">
        <ele>844.17999999999995</ele>
        <time>2019-03-13T09:42:03Z</time>
      </trkpt>
      <trkpt lat="31.456403508782387" lon="-4.45126986131072">
        <ele>843.69000000000005</ele>
        <time>2019-03-13T09:42:12Z</time>
      </trkpt>
      <trkpt lat="31.457749223336577" lon="-4.451287379488349">
        <ele>843.21000000000004</ele>
        <time>2019-03-13T09:42:24Z</time>
      </trkpt>
      <trkpt lat="31.459212368354201" lon="-4.451080514118075">
        <ele>842.73000000000002</ele>
        <time>2019-03-13T09:42:33Z</time>
      </trkpt>
      <trkpt lat="31.460745334625244" lon="-4.450674746185541">
        <ele>843.69000000000005</ele>
        <time>2019-03-13T09:42:43Z</time>
      </trkpt>
      <trkpt lat="31.46197646856308" lon="-4.450175352394581">
        <ele>844.65999999999997</ele>
        <time>2019-03-13T09:42:54Z</time>
      </trkpt>
      <trkpt lat="31.462999060750008" lon="-4.450161689892411">
        <ele>845.13999999999999</ele>
        <time>2019-03-13T09:43:03Z</time>
      </trkpt>
      <trkpt lat="31.464152745902538" lon="-4.45012497715652">
        <ele>845.13999999999999</ele>
        <time>2019-03-13T09:43:13Z</time>
      </trkpt>
      <trkpt lat="31.465330738574266" lon="-4.449991369619966">
        <ele>844.65999999999997</ele>
        <time>2019-03-13T09:43:21Z</time>
      </trkpt>
      <trkpt lat="31.465513799339533" lon="-4.449962787330151">
        <ele>845.62</ele>
        <time>2019-03-13T09:43:28Z</time>
      </trkpt>
      <trkpt lat="31.466543013229966" lon="-4.449782995507121">
        <ele>842.25</ele>
        <time>2019-03-13T09:43:38Z</time>
      </trkpt>
      <trkpt lat="31.468358701094985" lon="-4.449575711041689">
        <ele>844.17999999999995</ele>
        <time>2019-03-13T09:43:42Z</time>
      </trkpt>
      <trkpt lat="31.469600396230817" lon="-4.449523827061057">
        <ele>845.62</ele>
        <time>2019-03-13T09:43:47Z</time>
      </trkpt>
      <trkpt lat="31.470847455784678" lon="-4.449539752677083">
        <ele>847.53999999999996</ele>
        <time>2019-03-13T09:43:55Z</time>
      </trkpt>
      <trkpt lat="31.472110776230693" lon="-4.449618039652705">
        <ele>849.46000000000004</ele>
        <time>2019-03-13T09:48:40Z</time>
      </trkpt>
      <trkpt lat="31.473217187449336" lon="-4.449472362175584">
        <ele>850.41999999999996</ele>
        <time>2019-03-13T09:48:50Z</time>
      </trkpt>
      <trkpt lat="31.474316976964474" lon="-4.449235238134861">
        <ele>850.41999999999996</ele>
        <time>2019-03-13T09:49:02Z</time>
      </trkpt>
      <trkpt lat="31.475091632455587" lon="-4.449229706078768">
        <ele>850.41999999999996</ele>
        <time>2019-03-13T09:49:14Z</time>
      </trkpt>
      <trkpt lat="31.475933762267232" lon="-4.449416035786271">
        <ele>850.41999999999996</ele>
        <time>2019-03-13T09:49:28Z</time>
      </trkpt>
      <trkpt lat="31.477049980312586" lon="-4.449365576729178">
        <ele>849.94000000000005</ele>
        <time>2019-03-13T09:49:42Z</time>
      </trkpt>
      <trkpt lat="31.477435799315572" lon="-4.449307071045041">
        <ele>849.46000000000004</ele>
        <time>2019-03-13T09:49:56Z</time>
      </trkpt>
      <trkpt lat="31.477914154529572" lon="-4.449100708588958">
        <ele>849.46000000000004</ele>
        <time>2019-03-13T09:50:10Z</time>
      </trkpt>
      <trkpt lat="31.478466102853417" lon="-4.449030552059412">
        <ele>849.46000000000004</ele>
        <time>2019-03-13T09:50:22Z</time>
      </trkpt>
      <trkpt lat="31.478682858869433" lon="-4.449025858193636">
        <ele>849.46000000000004</ele>
        <time>2019-03-13T09:50:35Z</time>
      </trkpt>
      <trkpt lat="31.479503698647022" lon="-4.449092829599977">
        <ele>848.5</ele>
        <time>2019-03-13T09:50:47Z</time>
      </trkpt>
      <trkpt lat="31.480756038799882" lon="-4.449223587289453">
        <ele>848.01999999999998</ele>
        <time>2019-03-13T09:50:59Z</time>
      </trkpt>
      <trkpt lat="31.482118852436543" lon="-4.449569927528501">
        <ele>847.53999999999996</ele>
        <time>2019-03-13T09:51:01Z</time>
      </trkpt>
      <trkpt lat="31.483907802030444" lon="-4.450274845585227">
        <ele>847.05999999999995</ele>
        <time>2019-03-13T09:51:07Z</time>
      </trkpt>
      <trkpt lat="31.485847290605307" lon="-4.450789326801896">
        <ele>846.58000000000004</ele>
        <time>2019-03-13T09:51:15Z</time>
      </trkpt>
      <trkpt lat="31.487820306792855" lon="-4.451050171628594">
        <ele>846.58000000000004</ele>
        <time>2019-03-13T09:51:16Z</time>
      </trkpt>
      <trkpt lat="31.489767171442509" lon="-4.451293582096696">
        <ele>846.58000000000004</ele>
        <time>2019-03-13T09:51:21Z</time>
      </trkpt>
      <trkpt lat="31.491471212357283" lon="-4.451439343392849">
        <ele>845.62</ele>
        <time>2019-03-13T09:51:32Z</time>
      </trkpt>
      <trkpt lat="31.493251193314791" lon="-4.451537830755115">
        <ele>845.62</ele>
        <time>2019-03-13T09:51:43Z</time>
      </trkpt>
      <trkpt lat="31.494807209819555" lon="-4.451535902917385">
        <ele>845.13999999999999</ele>
        <time>2019-03-13T09:51:46Z</time>
      </trkpt>
      <trkpt lat="31.496299859136343" lon="-4.451551744714379">
        <ele>844.65999999999997</ele>
        <time>2019-03-13T09:51:55Z</time>
      </trkpt>
      <trkpt lat="31.496516363695264" lon="-4.45158451795578">
        <ele>844.65999999999997</ele>
        <time>2019-03-13T09:51:57Z</time>
      </trkpt>
      <trkpt lat="31.497223461046815" lon="-4.451582338660955">
        <ele>844.17999999999995</ele>
        <time>2019-03-13T09:52:00Z</time>
      </trkpt>
      <trkpt lat="31.497943550348282" lon="-4.451325768604875">
        <ele>843.69000000000005</ele>
        <time>2019-03-13T09:52:05Z</time>
      </trkpt>
      <trkpt lat="31.498011527583003" lon="-4.451246475800872">
        <ele>844.17999999999995</ele>
        <time>2019-03-13T09:52:13Z</time>
      </trkpt>
      <trkpt lat="31.498393658548594" lon="-4.45085009559989">
        <ele>843.69000000000005</ele>
        <time>2019-03-13T09:52:14Z</time>
      </trkpt>
      <trkpt lat="31.49932874366641" lon="-4.449890535324812">
        <ele>843.69000000000005</ele>
        <time>2019-03-13T09:52:16Z</time>
      </trkpt>
      <trkpt lat="31.500235833227634" lon="-4.448741879314184">
        <ele>843.69000000000005</ele>
        <time>2019-03-13T09:52:24Z</time>
      </trkpt>
      <trkpt lat="31.500487877056003" lon="-4.448462426662445">
        <ele>843.69000000000005</ele>
        <time>2019-03-13T09:52:29Z</time>
      </trkpt>
      <trkpt lat="31.501396475359797" lon="-4.447981305420399">
        <ele>843.69000000000005</ele>
        <time>2019-03-13T09:52:42Z</time>
      </trkpt>
      <trkpt lat="31.501588672399521" lon="-4.447900000959635">
        <ele>843.21000000000004</ele>
        <time>2019-03-13T09:52:44Z</time>
      </trkpt>
      <trkpt lat="31.501879105344415" lon="-4.447838142514229">
        <ele>843.69000000000005</ele>
        <time>2019-03-13T09:52:47Z</time>
      </trkpt>
      <trkpt lat="31.502129305154085" lon="-4.447559108957648">
        <ele>843.69000000000005</ele>
        <time>2019-03-13T09:52:50Z</time>
      </trkpt>
      <trkpt lat="31.502557536587119" lon="-4.446848826482892">
        <ele>843.69000000000005</ele>
        <time>2019-03-13T09:52:52Z</time>
      </trkpt>
      <trkpt lat="31.502591399475932" lon="-4.446725528687239">
        <ele>843.21000000000004</ele>
        <time>2019-03-13T09:53:01Z</time>
      </trkpt>
      <trkpt lat="31.502658957615495" lon="-4.446479436010122">
        <ele>842.73000000000002</ele>
        <time>2019-03-13T09:53:04Z</time>
      </trkpt>
      <trkpt lat="31.503162542358041" lon="-4.445621129125357">
        <ele>842.73000000000002</ele>
        <time>2019-03-13T09:53:07Z</time>
      </trkpt>
      <trkpt lat="31.503583816811442" lon="-4.445222821086645">
        <ele>841.76999999999998</ele>
        <time>2019-03-13T09:53:15Z</time>
      </trkpt>
      <trkpt lat="31.504967333748937" lon="-4.444549418985844">
        <ele>841.28999999999996</ele>
        <time>2019-03-13T09:53:19Z</time>
      </trkpt>
      <trkpt lat="31.505152238532901" lon="-4.444443974643946">
        <ele>840.80999999999995</ele>
        <time>2019-03-13T09:53:26Z</time>
      </trkpt>
      <trkpt lat="31.50541702285409" lon="-4.444226212799549">
        <ele>840.80999999999995</ele>
        <time>2019-03-13T09:53:29Z</time>
      </trkpt>
      <trkpt lat="31.505613913759589" lon="-4.443979114294052">
        <ele>840.80999999999995</ele>
        <time>2019-03-13T09:53:34Z</time>
      </trkpt>
      <trkpt lat="31.505731679499149" lon="-4.44386126473546">
        <ele>842.25</ele>
        <time>2019-03-13T09:53:46Z</time>
      </trkpt>
      <trkpt lat="31.506221517920494" lon="-4.443133296445012">
        <ele>841.28999999999996</ele>
        <time>2019-03-13T09:53:48Z</time>
      </trkpt>
      <trkpt lat="31.506392257288098" lon="-4.442865327000618">
        <ele>841.28999999999996</ele>
        <time>2019-03-13T09:53:56Z</time>
      </trkpt>
      <trkpt lat="31.506540030241013" lon="-4.442618396133184">
        <ele>841.28999999999996</ele>
        <time>2019-03-13T09:53:58Z</time>
      </trkpt>
      <trkpt lat="31.507117124274373" lon="-4.442023113369942">
        <ele>841.28999999999996</ele>
        <time>2019-03-13T09:54:03Z</time>
      </trkpt>
      <trkpt lat="31.507365480065346" lon="-4.441756568849087">
        <ele>841.28999999999996</ele>
        <time>2019-03-13T09:54:07Z</time>
      </trkpt>
      <trkpt lat="31.507769236341119" lon="-4.441558253020048">
        <ele>841.28999999999996</ele>
        <time>2019-03-13T09:54:10Z</time>
      </trkpt>
      <trkpt lat="31.507850456982851" lon="-4.441381981596351">
        <ele>841.28999999999996</ele>
        <time>2019-03-13T09:54:16Z</time>
      </trkpt>
      <trkpt lat="31.508015831932425" lon="-4.440949559211731">
        <ele>840.80999999999995</ele>
        <time>2019-03-13T09:54:26Z</time>
      </trkpt>
      <trkpt lat="31.508658137172461" lon="-4.439978934824467">
        <ele>841.28999999999996</ele>
        <time>2019-03-13T09:54:28Z</time>
      </trkpt>
      <trkpt lat="31.50872946716845" lon="-4.439797718077898">
        <ele>840.80999999999995</ele>
        <time>2019-03-13T09:54:36Z</time>
      </trkpt>
      <trkpt lat="31.508848993107677" lon="-4.439159436151385">
        <ele>841.28999999999996</ele>
        <time>2019-03-13T09:54:37Z</time>
      </trkpt>
      <trkpt lat="31.508879335597157" lon="-4.438955001533032">
        <ele>839.85000000000002</ele>
        <time>2019-03-13T09:54:40Z</time>
      </trkpt>
      <trkpt lat="31.509009674191475" lon="-4.438632298260927">
        <ele>839.85000000000002</ele>
        <time>2019-03-13T09:54:43Z</time>
      </trkpt>
      <trkpt lat="31.50919265113771" lon="-4.438516795635223">
        <ele>839.85000000000002</ele>
        <time>2019-03-13T09:54:53Z</time>
      </trkpt>
      <trkpt lat="31.509396163746715" lon="-4.438370363786817">
        <ele>840.33000000000004</ele>
        <time>2019-03-13T09:54:59Z</time>
      </trkpt>
      <trkpt lat="31.509881559759378" lon="-4.438099209219217">
        <ele>840.33000000000004</ele>
        <time>2019-03-13T09:55:40Z</time>
      </trkpt>
      <trkpt lat="31.510361088439822" lon="-4.437795197591186">
        <ele>841.76999999999998</ele>
        <time>2019-03-13T09:55:43Z</time>
      </trkpt>
      <trkpt lat="31.510423785075545" lon="-4.437806932255626">
        <ele>842.73000000000002</ele>
        <time>2019-03-13T09:55:44Z</time>
      </trkpt>
      <trkpt lat="31.510903397575021" lon="-4.437780613079667">
        <ele>844.17999999999995</ele>
        <time>2019-03-13T09:55:45Z</time>
      </trkpt>
      <trkpt lat="31.510967770591378" lon="-4.437716491520405">
        <ele>845.62</ele>
        <time>2019-03-13T09:55:46Z</time>
      </trkpt>
      <trkpt lat="31.511152423918247" lon="-4.437538962811232">
        <ele>848.01999999999998</ele>
        <time>2019-03-13T09:55:53Z</time>
      </trkpt>
      <trkpt lat="31.511277481913567" lon="-4.437392447143793">
        <ele>848.98000000000002</ele>
        <time>2019-03-13T09:56:03Z</time>
      </trkpt>
      <trkpt lat="31.511836471036077" lon="-4.436700185760856">
        <ele>848.98000000000002</ele>
        <time>2019-03-13T09:56:15Z</time>
      </trkpt>
      <trkpt lat="31.512105949223042" lon="-4.436342446133494">
        <ele>848.98000000000002</ele>
        <time>2019-03-13T09:56:27Z</time>
      </trkpt>
      <trkpt lat="31.51211173273623" lon="-4.436348062008619">
        <ele>848.98000000000002</ele>
        <time>2019-03-13T09:56:42Z</time>
      </trkpt>
      <trkpt lat="31.512191444635391" lon="-4.43634613417089">
        <ele>848.98000000000002</ele>
        <time>2019-03-13T09:56:56Z</time>
      </trkpt>
      <trkpt lat="31.512231258675456" lon="-4.436378823593259">
        <ele>848.98000000000002</ele>
        <time>2019-03-13T09:57:01Z</time>
      </trkpt>
      <trkpt lat="31.512267636135221" lon="-4.436429953202605">
        <ele>849.46000000000004</ele>
        <time>2019-03-13T09:57:02Z</time>
      </trkpt>
      <trkpt lat="31.512310300022364" lon="-4.436497259885073">
        <ele>848.98000000000002</ele>
        <time>2019-03-13T09:57:03Z</time>
      </trkpt>
      <trkpt lat="31.512814136222005" lon="-4.43719195201993">
        <ele>848.01999999999998</ele>
        <time>2019-03-13T09:57:04Z</time>
      </trkpt>
      <trkpt lat="31.513960277661681" lon="-4.438398610800505">
        <ele>848.01999999999998</ele>
        <time>2019-03-13T09:57:05Z</time>
      </trkpt>
      <trkpt lat="31.51561327278614" lon="-4.439881704747677">
        <ele>847.53999999999996</ele>
        <time>2019-03-13T09:57:06Z</time>
      </trkpt>
      <trkpt lat="31.517193429172039" lon="-4.441710719838738">
        <ele>848.5</ele>
        <time>2019-03-13T09:57:18Z</time>
      </trkpt>
      <trkpt lat="31.519176755100489" lon="-4.444272313266993">
        <ele>849.46000000000004</ele>
        <time>2019-03-13T09:57:37Z</time>
      </trkpt>
      <trkpt lat="31.521152453497052" lon="-4.446627795696259">
        <ele>851.87</ele>
        <time>2019-03-13T09:57:52Z</time>
      </trkpt>
      <trkpt lat="31.52180858887732" lon="-4.447438661009073">
        <ele>851.87</ele>
        <time>2019-03-13T09:58:10Z</time>
      </trkpt>
      <trkpt lat="31.521899867802858" lon="-4.447616022080183">
        <ele>851.87</ele>
        <time>2019-03-13T09:58:25Z</time>
      </trkpt>
      <trkpt lat="31.521969186142087" lon="-4.44780595600605">
        <ele>851.87</ele>
        <time>2019-03-13T09:58:37Z</time>
      </trkpt>
      <trkpt lat="31.52202065102756" lon="-4.448008798062801">
        <ele>851.87</ele>
        <time>2019-03-13T09:58:48Z</time>
      </trkpt>
      <trkpt lat="31.522057615220547" lon="-4.44821541197598">
        <ele>851.87</ele>
        <time>2019-03-13T09:58:50Z</time>
      </trkpt>
      <trkpt lat="31.522085526958108" lon="-4.448420014232397">
        <ele>851.87</ele>
        <time>2019-03-13T09:58:51Z</time>
      </trkpt>
      <trkpt lat="31.522396579384804" lon="-4.450693437829614">
        <ele>852.83000000000004</ele>
        <time>2019-03-13T09:58:52Z</time>
      </trkpt>
      <trkpt lat="31.523261675611138" lon="-4.454140076413751">
        <ele>851.87</ele>
        <time>2019-03-13T09:58:53Z</time>
      </trkpt>
      <trkpt lat="31.523811193183064" lon="-4.456797474995256">
        <ele>855.71000000000004</ele>
        <time>2019-03-13T09:58:54Z</time>
      </trkpt>
      <trkpt lat="31.524508064612746" lon="-4.459848236292601">
        <ele>861</ele>
        <time>2019-03-13T09:59:03Z</time>
      </trkpt>
      <trkpt lat="31.525128660723567" lon="-4.462227523326874">
        <ele>862.44000000000005</ele>
        <time>2019-03-13T10:10:07Z</time>
      </trkpt>
      <trkpt lat="31.525897616520524" lon="-4.464073972776532">
        <ele>863.39999999999998</ele>
        <time>2019-03-13T10:10:16Z</time>
      </trkpt>
      <trkpt lat="31.526914341375232" lon="-4.465406946837902">
        <ele>863.39999999999998</ele>
        <time>2019-03-13T10:10:30Z</time>
      </trkpt>
      <trkpt lat="31.527080219238997" lon="-4.465673323720694">
        <ele>863.39999999999998</ele>
        <time>2019-03-13T10:10:46Z</time>
      </trkpt>
      <trkpt lat="31.527148615568876" lon="-4.465817827731371">
        <ele>860.51999999999998</ele>
        <time>2019-03-13T10:10:59Z</time>
      </trkpt>
      <trkpt lat="31.527207791805267" lon="-4.465965684503317">
        <ele>858.59000000000003</ele>
        <time>2019-03-13T10:11:09Z</time>
      </trkpt>
      <trkpt lat="31.527257161214948" lon="-4.466116391122341">
        <ele>858.59000000000003</ele>
        <time>2019-03-13T10:11:10Z</time>
      </trkpt>
      <trkpt lat="31.527295550331473" lon="-4.466268522664905">
        <ele>858.59000000000003</ele>
        <time>2019-03-13T10:11:11Z</time>
      </trkpt>
      <trkpt lat="31.527598304674029" lon="-4.467354062944651">
        <ele>859.08000000000004</ele>
        <time>2019-03-13T10:11:27Z</time>
      </trkpt>
      <trkpt lat="31.527762254700065" lon="-4.467969965189695">
        <ele>859.55999999999995</ele>
        <time>2019-03-13T10:11:42Z</time>
      </trkpt>
      <trkpt lat="31.528089065104723" lon="-4.469129433855414">
        <ele>859.55999999999995</ele>
        <time>2019-03-13T10:11:55Z</time>
      </trkpt>
      <trkpt lat="31.528736650943756" lon="-4.471453400328755">
        <ele>859.55999999999995</ele>
        <time>2019-03-13T10:12:06Z</time>
      </trkpt>
      <trkpt lat="31.529475348070264" lon="-4.474066710099578">
        <ele>859.55999999999995</ele>
        <time>2019-03-13T10:12:17Z</time>
      </trkpt>
      <trkpt lat="31.530076498165727" lon="-4.476207029074431">
        <ele>859.55999999999995</ele>
        <time>2019-03-13T10:12:26Z</time>
      </trkpt>
      <trkpt lat="31.530429124832153" lon="-4.477929091081023">
        <ele>859.55999999999995</ele>
        <time>2019-03-13T10:12:30Z</time>
      </trkpt>
      <trkpt lat="31.530414456501603" lon="-4.478118102997541">
        <ele>859.08000000000004</ele>
        <time>2019-03-13T10:12:31Z</time>
      </trkpt>
      <trkpt lat="31.5303869638592" lon="-4.478308539837599">
        <ele>857.63</ele>
        <time>2019-03-13T10:12:32Z</time>
      </trkpt>
      <trkpt lat="31.529837949201465" lon="-4.481342453509569">
        <ele>857.14999999999998</ele>
        <time>2019-03-13T10:12:33Z</time>
      </trkpt>
      <trkpt lat="31.529343752190471" lon="-4.484038827940822">
        <ele>857.14999999999998</ele>
        <time>2019-03-13T10:12:34Z</time>
      </trkpt>
      <trkpt lat="31.529126996174455" lon="-4.485757285729051">
        <ele>857.14999999999998</ele>
        <time>2019-03-13T10:12:50Z</time>
      </trkpt>
      <trkpt lat="31.529247611761093" lon="-4.48725488036871">
        <ele>858.11000000000001</ele>
        <time>2019-03-13T10:13:09Z</time>
      </trkpt>
      <trkpt lat="31.52961197309196" lon="-4.488867893815041">
        <ele>858.11000000000001</ele>
        <time>2019-03-13T10:13:20Z</time>
      </trkpt>
      <trkpt lat="31.529950853437185" lon="-4.489929461851716">
        <ele>858.11000000000001</ele>
        <time>2019-03-13T10:13:33Z</time>
      </trkpt>
      <trkpt lat="31.530065182596445" lon="-4.49027655646205">
        <ele>858.11000000000001</ele>
        <time>2019-03-13T10:13:34Z</time>
      </trkpt>
      <trkpt lat="31.530087646096945" lon="-4.490315951406956">
        <ele>857.14999999999998</ele>
        <time>2019-03-13T10:13:46Z</time>
      </trkpt>
      <trkpt lat="31.53010843321681" lon="-4.490340258926153">
        <ele>857.63</ele>
        <time>2019-03-13T10:13:59Z</time>
      </trkpt>
      <trkpt lat="31.530126370489597" lon="-4.49035182595253">
        <ele>856.66999999999996</ele>
        <time>2019-03-13T10:14:05Z</time>
      </trkpt>
      <trkpt lat="31.530140452086926" lon="-4.490357777103782">
        <ele>856.66999999999996</ele>
        <time>2019-03-13T10:14:11Z</time>
      </trkpt>
      <trkpt lat="31.530155371874571" lon="-4.4903395883739">
        <ele>856.66999999999996</ele>
        <time>2019-03-13T10:14:18Z</time>
      </trkpt>
      <trkpt lat="31.530173728242517" lon="-4.49034252204001">
        <ele>856.19000000000005</ele>
        <time>2019-03-13T10:14:25Z</time>
      </trkpt>
      <trkpt lat="31.530837826430798" lon="-4.490249399095774">
        <ele>855.71000000000004</ele>
        <time>2019-03-13T10:14:35Z</time>
      </trkpt>
      <trkpt lat="31.531934095546603" lon="-4.490079246461391">
        <ele>853.78999999999996</ele>
        <time>2019-03-13T10:14:40Z</time>
      </trkpt>
      <trkpt lat="31.532035181298852" lon="-4.490079833194614">
        <ele>853.30999999999995</ele>
        <time>2019-03-13T10:14:45Z</time>
      </trkpt>
      <trkpt lat="31.53326983563602" lon="-4.490485098212957">
        <ele>853.30999999999995</ele>
        <time>2019-03-13T10:14:53Z</time>
      </trkpt>
      <trkpt lat="31.534660644829273" lon="-4.490787098184228">
        <ele>853.30999999999995</ele>
        <time>2019-03-13T10:14:57Z</time>
      </trkpt>
      <trkpt lat="31.535178143531084" lon="-4.490914335474372">
        <ele>851.87</ele>
        <time>2019-03-13T10:15:02Z</time>
      </trkpt>
      <trkpt lat="31.53544963337481" lon="-4.491274002939463">
        <ele>852.35000000000002</ele>
        <time>2019-03-13T10:15:04Z</time>
      </trkpt>
      <trkpt lat="31.535619031637907" lon="-4.492076402530074">
        <ele>851.87</ele>
        <time>2019-03-13T10:15:12Z</time>
      </trkpt>
      <trkpt lat="31.535927904769778" lon="-4.492518547922373">
        <ele>851.87</ele>
        <time>2019-03-13T10:15:14Z</time>
      </trkpt>
      <trkpt lat="31.536601725965738" lon="-4.492892883718014">
        <ele>852.35000000000002</ele>
        <time>2019-03-13T10:15:24Z</time>
      </trkpt>
      <trkpt lat="31.536955693736672" lon="-4.493116261437535">
        <ele>852.35000000000002</ele>
        <time>2019-03-13T10:15:29Z</time>
      </trkpt>
      <trkpt lat="31.537251742556691" lon="-4.493324719369412">
        <ele>852.35000000000002</ele>
        <time>2019-03-13T10:15:35Z</time>
      </trkpt>
      <trkpt lat="31.537568243220448" lon="-4.493412980809808">
        <ele>852.35000000000002</ele>
        <time>2019-03-13T10:15:40Z</time>
      </trkpt>
      <trkpt lat="31.537668239325285" lon="-4.493414992466569">
        <ele>852.35000000000002</ele>
        <time>2019-03-13T10:15:49Z</time>
      </trkpt>
      <trkpt lat="31.537812491878867" lon="-4.49363493360579">
        <ele>852.35000000000002</ele>
        <time>2019-03-13T10:16:01Z</time>
      </trkpt>
      <trkpt lat="31.537856580689549" lon="-4.493764685466886">
        <ele>851.87</ele>
        <time>2019-03-13T10:16:02Z</time>
      </trkpt>
      <trkpt lat="31.538112815469503" lon="-4.494312275201082">
        <ele>852.35000000000002</ele>
        <time>2019-03-13T10:16:03Z</time>
      </trkpt>
      <trkpt lat="31.538172662258148" lon="-4.494426855817437">
        <ele>852.83000000000004</ele>
        <time>2019-03-13T10:16:04Z</time>
      </trkpt>
      <trkpt lat="31.53857197612524" lon="-4.494835389778018">
        <ele>852.83000000000004</ele>
        <time>2019-03-13T10:16:05Z</time>
      </trkpt>
      <trkpt lat="31.538753695785999" lon="-4.49511400423944">
        <ele>852.35000000000002</ele>
        <time>2019-03-13T10:16:12Z</time>
      </trkpt>
      <trkpt lat="31.538919825106859" lon="-4.49548926204443">
        <ele>852.35000000000002</ele>
        <time>2019-03-13T10:16:15Z</time>
      </trkpt>
      <trkpt lat="31.539131803438067" lon="-4.495639130473137">
        <ele>853.30999999999995</ele>
        <time>2019-03-13T10:16:16Z</time>
      </trkpt>
      <trkpt lat="31.539265075698495" lon="-4.495626892894507">
        <ele>853.78999999999996</ele>
        <time>2019-03-13T10:16:17Z</time>
      </trkpt>
      <trkpt lat="31.539471773430705" lon="-4.495670646429062">
        <ele>854.26999999999998</ele>
        <time>2019-03-13T10:16:20Z</time>
      </trkpt>
      <trkpt lat="31.539518963545561" lon="-4.495672658085823">
        <ele>854.75</ele>
        <time>2019-03-13T10:16:26Z</time>
      </trkpt>
      <trkpt lat="31.539560370147228" lon="-4.49566662311554">
        <ele>854.75</ele>
        <time>2019-03-13T10:16:32Z</time>
      </trkpt>
      <trkpt lat="31.539595322683454" lon="-4.495653714984655">
        <ele>855.23000000000002</ele>
        <time>2019-03-13T10:16:36Z</time>
      </trkpt>
      <trkpt lat="31.539624994620681" lon="-4.4956392981112">
        <ele>855.23000000000002</ele>
        <time>2019-03-13T10:16:39Z</time>
      </trkpt>
      <trkpt lat="31.53983797878027" lon="-4.495478617027402">
        <ele>856.19000000000005</ele>
        <time>2019-03-13T10:16:46Z</time>
      </trkpt>
      <trkpt lat="31.539964294061065" lon="-4.495328329503536">
        <ele>856.19000000000005</ele>
        <time>2019-03-13T10:16:49Z</time>
      </trkpt>
      <trkpt lat="31.540021877735853" lon="-4.49527963064611">
        <ele>856.19000000000005</ele>
        <time>2019-03-13T10:16:52Z</time>
      </trkpt>
      <trkpt lat="31.540086334571242" lon="-4.495235038921237">
        <ele>856.19000000000005</ele>
        <time>2019-03-13T10:16:54Z</time>
      </trkpt>
      <trkpt lat="31.540272580459714" lon="-4.495120039209724">
        <ele>856.19000000000005</ele>
        <time>2019-03-13T10:16:57Z</time>
      </trkpt>
      <trkpt lat="31.540537783876061" lon="-4.494913341477513">
        <ele>856.19000000000005</ele>
        <time>2019-03-13T10:16:58Z</time>
      </trkpt>
      <trkpt lat="31.540809357538819" lon="-4.494729191064835">
        <ele>856.19000000000005</ele>
        <time>2019-03-13T10:16:59Z</time>
      </trkpt>
      <trkpt lat="31.541053438559175" lon="-4.494652496650815">
        <ele>856.19000000000005</ele>
        <time>2019-03-13T10:17:00Z</time>
      </trkpt>
      <trkpt lat="31.541255610063672" lon="-4.494647048413754">
        <ele>857.14999999999998</ele>
        <time>2019-03-13T10:17:01Z</time>
      </trkpt>
      <trkpt lat="31.541765565052629" lon="-4.49467470869422">
        <ele>858.11000000000001</ele>
        <time>2019-03-13T10:17:02Z</time>
      </trkpt>
      <trkpt lat="31.541993049904704" lon="-4.494589800015092">
        <ele>859.55999999999995</ele>
        <time>2019-03-13T10:17:03Z</time>
      </trkpt>
      <trkpt lat="31.542189018800855" lon="-4.494474465027452">
        <ele>859.08000000000004</ele>
        <time>2019-03-13T10:17:04Z</time>
      </trkpt>
      <trkpt lat="31.542305527254939" lon="-4.494432890787721">
        <ele>858.59000000000003</ele>
        <time>2019-03-13T10:17:11Z</time>
      </trkpt>
      <trkpt lat="31.542421616613865" lon="-4.494348233565688">
        <ele>858.59000000000003</ele>
        <time>2019-03-13T10:17:18Z</time>
      </trkpt>
      <trkpt lat="31.542452881112695" lon="-4.494308084249497">
        <ele>858.59000000000003</ele>
        <time>2019-03-13T10:17:30Z</time>
      </trkpt>
      <trkpt lat="31.542488001286983" lon="-4.494272544980049">
        <ele>859.08000000000004</ele>
        <time>2019-03-13T10:17:43Z</time>
      </trkpt>
      <trkpt lat="31.54252739623189" lon="-4.49424278922379">
        <ele>859.55999999999995</ele>
        <time>2019-03-13T10:17:57Z</time>
      </trkpt>
      <trkpt lat="31.542570311576128" lon="-4.494220074266195">
        <ele>860.03999999999996</ele>
        <time>2019-03-13T10:18:09Z</time>
      </trkpt>
      <trkpt lat="31.542619094252586" lon="-4.49421001598239">
        <ele>861</ele>
        <time>2019-03-13T10:18:22Z</time>
      </trkpt>
      <trkpt lat="31.542671648785472" lon="-4.494216134771705">
        <ele>861.48000000000002</ele>
        <time>2019-03-13T10:18:28Z</time>
      </trkpt>
      <trkpt lat="31.542724873870611" lon="-4.494234239682555">
        <ele>860.03999999999996</ele>
        <time>2019-03-13T10:18:38Z</time>
      </trkpt>
      <trkpt lat="31.54311035759747" lon="-4.494313197210431">
        <ele>860.51999999999998</ele>
        <time>2019-03-13T10:18:48Z</time>
      </trkpt>
      <trkpt lat="31.543506989255548" lon="-4.49449541978538">
        <ele>860.51999999999998</ele>
        <time>2019-03-13T10:18:55Z</time>
      </trkpt>
      <trkpt lat="31.544396728277206" lon="-4.495063377544284">
        <ele>861.48000000000002</ele>
        <time>2019-03-13T10:18:59Z</time>
      </trkpt>
      <trkpt lat="31.545672453939915" lon="-4.495707107707858">
        <ele>861.48000000000002</ele>
        <time>2019-03-13T10:19:13Z</time>
      </trkpt>
      <trkpt lat="31.5470858104527" lon="-4.496756186708808">
        <ele>862.44000000000005</ele>
        <time>2019-03-13T10:19:21Z</time>
      </trkpt>
      <trkpt lat="31.548439990729094" lon="-4.497925378382206">
        <ele>864.84000000000003</ele>
        <time>2019-03-13T10:19:31Z</time>
      </trkpt>
      <trkpt lat="31.549856029450893" lon="-4.499222813174129">
        <ele>865.32000000000005</ele>
        <time>2019-03-13T10:19:43Z</time>
      </trkpt>
      <trkpt lat="31.550469333305955" lon="-4.499620031565428">
        <ele>865.79999999999995</ele>
        <time>2019-03-13T10:19:48Z</time>
      </trkpt>
      <trkpt lat="31.551281539723277" lon="-4.499847516417503">
        <ele>865.79999999999995</ele>
        <time>2019-03-13T10:19:53Z</time>
      </trkpt>
      <trkpt lat="31.552270436659455" lon="-4.500257223844528">
        <ele>865.79999999999995</ele>
        <time>2019-03-13T10:20:03Z</time>
      </trkpt>
      <trkpt lat="31.552822971716523" lon="-4.500334756448865">
        <ele>865.32000000000005</ele>
        <time>2019-03-13T10:20:13Z</time>
      </trkpt>
      <trkpt lat="31.553174592554569" lon="-4.500475069507957">
        <ele>865.79999999999995</ele>
        <time>2019-03-13T10:20:19Z</time>
      </trkpt>
      <trkpt lat="31.554400278255343" lon="-4.501460697501898">
        <ele>866.28999999999996</ele>
        <time>2019-03-13T10:20:30Z</time>
      </trkpt>
      <trkpt lat="31.555110644549131" lon="-4.502040641382337">
        <ele>867.25</ele>
        <time>2019-03-13T10:20:31Z</time>
      </trkpt>
      <trkpt lat="31.555740628391504" lon="-4.502682443708181">
        <ele>867.25</ele>
        <time>2019-03-13T10:20:42Z</time>
      </trkpt>
      <trkpt lat="31.556540597230196" lon="-4.503561956807971">
        <ele>867.25</ele>
        <time>2019-03-13T10:20:54Z</time>
      </trkpt>
      <trkpt lat="31.557007301598787" lon="-4.503921875730157">
        <ele>868.21000000000004</ele>
        <time>2019-03-13T10:21:03Z</time>
      </trkpt>
      <trkpt lat="31.557457409799099" lon="-4.504284141585231">
        <ele>868.21000000000004</ele>
        <time>2019-03-13T10:21:13Z</time>
      </trkpt>
      <trkpt lat="31.558312280103564" lon="-4.504838772118092">
        <ele>868.69000000000005</ele>
        <time>2019-03-13T10:21:25Z</time>
      </trkpt>
      <trkpt lat="31.559341242536902" lon="-4.505029879510403">
        <ele>869.16999999999996</ele>
        <time>2019-03-13T10:21:34Z</time>
      </trkpt>
      <trkpt lat="31.55989034101367" lon="-4.505137335509062">
        <ele>870.61000000000001</ele>
        <time>2019-03-13T10:21:48Z</time>
      </trkpt>
      <trkpt lat="31.560750575736165" lon="-4.505748962983489">
        <ele>871.57000000000005</ele>
        <time>2019-03-13T10:22:02Z</time>
      </trkpt>
      <trkpt lat="31.560825258493423" lon="-4.505817024037242">
        <ele>872.04999999999995</ele>
        <time>2019-03-13T10:22:18Z</time>
      </trkpt>
      <trkpt lat="31.561563368886709" lon="-4.506955286487937">
        <ele>872.52999999999997</ele>
        <time>2019-03-13T10:22:33Z</time>
      </trkpt>
      <trkpt lat="31.56258461996913" lon="-4.508045772090554">
        <ele>872.52999999999997</ele>
        <time>2019-03-13T10:22:46Z</time>
      </trkpt>
      <trkpt lat="31.563248550519347" lon="-4.509058808907867">
        <ele>874.46000000000004</ele>
        <time>2019-03-13T10:23:00Z</time>
      </trkpt>
      <trkpt lat="31.563942320644855" lon="-4.510074527934194">
        <ele>875.41999999999996</ele>
        <time>2019-03-13T10:23:09Z</time>
      </trkpt>
      <trkpt lat="31.564740780740976" lon="-4.511209605261684">
        <ele>874.94000000000005</ele>
        <time>2019-03-13T10:23:11Z</time>
      </trkpt>
      <trkpt lat="31.5656444337219" lon="-4.511793237179518">
        <ele>875.41999999999996</ele>
        <time>2019-03-13T10:23:15Z</time>
      </trkpt>
      <trkpt lat="31.567097688093781" lon="-4.512708373367786">
        <ele>876.38</ele>
        <time>2019-03-13T10:23:27Z</time>
      </trkpt>
      <trkpt lat="31.568556893616915" lon="-4.513932131230831">
        <ele>877.34000000000003</ele>
        <time>2019-03-13T10:23:39Z</time>
      </trkpt>
      <trkpt lat="31.570388171821833" lon="-4.515405502170324">
        <ele>877.82000000000005</ele>
        <time>2019-03-13T10:23:50Z</time>
      </trkpt>
      <trkpt lat="31.572231268510222" lon="-4.516593385487795">
        <ele>877.82000000000005</ele>
        <time>2019-03-13T10:23:56Z</time>
      </trkpt>
      <trkpt lat="31.573812095448375" lon="-4.517535176128149">
        <ele>879.25999999999999</ele>
        <time>2019-03-13T10:24:07Z</time>
      </trkpt>
      <trkpt lat="31.575507251545787" lon="-4.518393566831946">
        <ele>880.22000000000003</ele>
        <time>2019-03-13T10:24:21Z</time>
      </trkpt>
      <trkpt lat="31.576360696926713" lon="-4.519136706367135">
        <ele>880.22000000000003</ele>
        <time>2019-03-13T10:24:31Z</time>
      </trkpt>
      <trkpt lat="31.576525904238224" lon="-4.51932605355978">
        <ele>881.66999999999996</ele>
        <time>2019-03-13T10:24:45Z</time>
      </trkpt>
      <trkpt lat="31.576921446248889" lon="-4.519600309431553">
        <ele>881.19000000000005</ele>
        <time>2019-03-13T10:24:55Z</time>
      </trkpt>
      <trkpt lat="31.578323319554329" lon="-4.520253175869584">
        <ele>881.66999999999996</ele>
        <time>2019-03-13T10:25:05Z</time>
      </trkpt>
      <trkpt lat="31.579754110425711" lon="-4.520948119461536">
        <ele>881.19000000000005</ele>
        <time>2019-03-13T10:25:06Z</time>
      </trkpt>
      <trkpt lat="31.580990189686418" lon="-4.521741550415754">
        <ele>881.66999999999996</ele>
        <time>2019-03-13T10:25:17Z</time>
      </trkpt>
      <trkpt lat="31.581644145771861" lon="-4.522211272269487">
        <ele>881.66999999999996</ele>
        <time>2019-03-13T10:25:21Z</time>
      </trkpt>
      <trkpt lat="31.58286958001554" lon="-4.522783923894167">
        <ele>882.14999999999998</ele>
        <time>2019-03-13T10:25:28Z</time>
      </trkpt>
      <trkpt lat="31.584460297599435" lon="-4.523780196905136">
        <ele>882.63</ele>
        <time>2019-03-13T10:25:37Z</time>
      </trkpt>
      <trkpt lat="31.585398567840457" lon="-4.524454437196255">
        <ele>882.63</ele>
        <time>2019-03-13T10:25:41Z</time>
      </trkpt>
      <trkpt lat="31.586930193006992" lon="-4.525379212573171">
        <ele>883.59000000000003</ele>
        <time>2019-03-13T10:25:46Z</time>
      </trkpt>
      <trkpt lat="31.587961921468377" lon="-4.525939542800188">
        <ele>883.59000000000003</ele>
        <time>2019-03-13T10:25:50Z</time>
      </trkpt>
      <trkpt lat="31.589120887219906" lon="-4.526560893282294">
        <ele>883.59000000000003</ele>
        <time>2019-03-13T10:26:02Z</time>
      </trkpt>
      <trkpt lat="31.589229768142104" lon="-4.526589056476951">
        <ele>883.11000000000001</ele>
        <time>2019-03-13T10:26:09Z</time>
      </trkpt>
      <trkpt lat="31.590342465788126" lon="-4.527209820225835">
        <ele>884.07000000000005</ele>
        <time>2019-03-13T10:26:13Z</time>
      </trkpt>
      <trkpt lat="31.590717807412148" lon="-4.527346612885594">
        <ele>885.02999999999997</ele>
        <time>2019-03-13T10:26:22Z</time>
      </trkpt>
      <trkpt lat="31.591089041903615" lon="-4.52770016156137">
        <ele>885.50999999999999</ele>
        <time>2019-03-13T10:26:30Z</time>
      </trkpt>
      <trkpt lat="31.591382408514619" lon="-4.528199303895235">
        <ele>885.99000000000001</ele>
        <time>2019-03-13T10:26:51Z</time>
      </trkpt>
      <trkpt lat="31.591525319963694" lon="-4.528484288603067">
        <ele>886.47000000000003</ele>
        <time>2019-03-13T10:27:01Z</time>
      </trkpt>
      <trkpt lat="31.591549376025796" lon="-4.528898438438773">
        <ele>886.47000000000003</ele>
        <time>2019-03-13T10:27:18Z</time>
      </trkpt>
      <trkpt lat="31.59148265607655" lon="-4.5292286016047">
        <ele>888.88</ele>
        <time>2019-03-13T10:27:27Z</time>
      </trkpt>
      <trkpt lat="31.591494306921959" lon="-4.530479265376926">
        <ele>890.79999999999995</ele>
        <time>2019-03-13T10:27:35Z</time>
      </trkpt>
      <trkpt lat="31.591530768200755" lon="-4.531271019950509">
        <ele>892.72000000000003</ele>
        <time>2019-03-13T10:27:39Z</time>
      </trkpt>
      <trkpt lat="31.591624142602086" lon="-4.53165952116251">
        <ele>894.15999999999997</ele>
        <time>2019-03-13T10:27:55Z</time>
      </trkpt>
      <trkpt lat="31.592093193903565" lon="-4.532411964610219">
        <ele>894.63999999999999</ele>
        <time>2019-03-13T10:28:08Z</time>
      </trkpt>
      <trkpt lat="31.592316571623087" lon="-4.532572897151113">
        <ele>894.15999999999997</ele>
        <time>2019-03-13T10:28:22Z</time>
      </trkpt>
      <trkpt lat="31.592466020956635" lon="-4.532633246853948">
        <ele>894.15999999999997</ele>
        <time>2019-03-13T10:28:32Z</time>
      </trkpt>
      <trkpt lat="31.593150990083814" lon="-4.532879590988159">
        <ele>894.15999999999997</ele>
        <time>2019-03-13T10:28:47Z</time>
      </trkpt>
      <trkpt lat="31.594455046579242" lon="-4.533350486308336">
        <ele>894.15999999999997</ele>
        <time>2019-03-13T10:28:58Z</time>
      </trkpt>
      <trkpt lat="31.59526415169239" lon="-4.533397005870938">
        <ele>894.15999999999997</ele>
        <time>2019-03-13T10:29:05Z</time>
      </trkpt>
      <trkpt lat="31.596178114414215" lon="-4.53376597724855">
        <ele>894.63999999999999</ele>
        <time>2019-03-13T10:29:11Z</time>
      </trkpt>
      <trkpt lat="31.596609028056264" lon="-4.533721385523677">
        <ele>894.63999999999999</ele>
        <time>2019-03-13T10:29:21Z</time>
      </trkpt>
      <trkpt lat="31.598390266299248" lon="-4.533033398911357">
        <ele>894.63999999999999</ele>
        <time>2019-03-13T10:29:23Z</time>
      </trkpt>
      <trkpt lat="31.599788032472134" lon="-4.532433673739433">
        <ele>893.67999999999995</ele>
        <time>2019-03-13T10:29:27Z</time>
      </trkpt>
      <trkpt lat="31.601553512737155" lon="-4.531836463138461">
        <ele>894.63999999999999</ele>
        <time>2019-03-13T10:29:31Z</time>
      </trkpt>
      <trkpt lat="31.602873411029577" lon="-4.531347379088402">
        <ele>895.12</ele>
        <time>2019-03-13T10:29:33Z</time>
      </trkpt>
      <trkpt lat="31.605008952319622" lon="-4.530563838779926">
        <ele>896.09000000000003</ele>
        <time>2019-03-13T10:29:44Z</time>
      </trkpt>
      <trkpt lat="31.606407640501857" lon="-4.530094536021352">
        <ele>897.04999999999995</ele>
        <time>2019-03-13T10:29:55Z</time>
      </trkpt>
      <trkpt lat="31.606844589114189" lon="-4.529924802482128">
        <ele>898.00999999999999</ele>
        <time>2019-03-13T10:30:05Z</time>
      </trkpt>
      <trkpt lat="31.607215069234371" lon="-4.529759343713522">
        <ele>898.49000000000001</ele>
        <time>2019-03-13T10:30:18Z</time>
      </trkpt>
      <trkpt lat="31.60797824151814" lon="-4.529481399804354">
        <ele>898.97000000000003</ele>
        <time>2019-03-13T10:30:29Z</time>
      </trkpt>
      <trkpt lat="31.60817077383399" lon="-4.529429096728563">
        <ele>899.45000000000005</ele>
        <time>2019-03-13T10:30:40Z</time>
      </trkpt>
      <trkpt lat="31.608511079102755" lon="-4.529324490576983">
        <ele>899.92999999999995</ele>
        <time>2019-03-13T10:30:53Z</time>
      </trkpt>
      <trkpt lat="31.608770415186882" lon="-4.529163725674152">
        <ele>900.88999999999999</ele>
        <time>2019-03-13T10:30:55Z</time>
      </trkpt>
      <trkpt lat="31.608881643041968" lon="-4.529117709025741">
        <ele>901.37</ele>
        <time>2019-03-13T10:31:00Z</time>
      </trkpt>
      <trkpt lat="31.609589997678995" lon="-4.528982760384679">
        <ele>901.85000000000002</ele>
        <time>2019-03-13T10:31:04Z</time>
      </trkpt>
      <trkpt lat="31.610310757532716" lon="-4.528730129823089">
        <ele>901.37</ele>
        <time>2019-03-13T10:31:07Z</time>
      </trkpt>
      <trkpt lat="31.610993715003133" lon="-4.528491329401732">
        <ele>900.40999999999997</ele>
        <time>2019-03-13T10:31:14Z</time>
      </trkpt>
      <trkpt lat="31.611884040758014" lon="-4.528631307184696">
        <ele>900.40999999999997</ele>
        <time>2019-03-13T10:31:25Z</time>
      </trkpt>
      <trkpt lat="31.612772522494197" lon="-4.528770614415407">
        <ele>899.92999999999995</ele>
        <time>2019-03-13T10:31:35Z</time>
      </trkpt>
      <trkpt lat="31.613859739154577" lon="-4.528682939708233">
        <ele>899.45000000000005</ele>
        <time>2019-03-13T10:31:46Z</time>
      </trkpt>
      <trkpt lat="31.615329924970865" lon="-4.528300305828452">
        <ele>898.97000000000003</ele>
        <time>2019-03-13T10:31:59Z</time>
      </trkpt>
      <trkpt lat="31.615547938272357" lon="-4.52825034968555">
        <ele>898.49000000000001</ele>
        <time>2019-03-13T10:32:03Z</time>
      </trkpt>
      <trkpt lat="31.615866282954812" lon="-4.527942985296249">
        <ele>897.52999999999997</ele>
        <time>2019-03-13T10:32:09Z</time>
      </trkpt>
      <trkpt lat="31.615987317636609" lon="-4.527524141594768">
        <ele>897.52999999999997</ele>
        <time>2019-03-13T10:32:18Z</time>
      </trkpt>
      <trkpt lat="31.616087146103382" lon="-4.527205377817154">
        <ele>895.61000000000001</ele>
        <time>2019-03-13T10:32:21Z</time>
      </trkpt>
      <trkpt lat="31.616186890751123" lon="-4.526360314339399">
        <ele>893.67999999999995</ele>
        <time>2019-03-13T10:32:29Z</time>
      </trkpt>
      <trkpt lat="31.616031741723418" lon="-4.525047959759831">
        <ele>893.20000000000005</ele>
        <time>2019-03-13T10:32:38Z</time>
      </trkpt>
      <trkpt lat="31.615403350442648" lon="-4.523971891030669">
        <ele>891.27999999999997</ele>
        <time>2019-03-13T10:32:47Z</time>
      </trkpt>
      <trkpt lat="31.614485615864396" lon="-4.522913759574294">
        <ele>890.79999999999995</ele>
        <time>2019-03-13T10:33:00Z</time>
      </trkpt>
      <trkpt lat="31.613161778077483" lon="-4.522129548713565">
        <ele>889.36000000000001</ele>
        <time>2019-03-13T10:33:11Z</time>
      </trkpt>
      <trkpt lat="31.612805044278502" lon="-4.521955791860819">
        <ele>888.39999999999998</ele>
        <time>2019-03-13T10:33:13Z</time>
      </trkpt>
      <trkpt lat="31.612407155334949" lon="-4.52196417376399">
        <ele>889.84000000000003</ele>
        <time>2019-03-13T10:33:24Z</time>
      </trkpt>
      <trkpt lat="31.61230699159205" lon="-4.522027373313904">
        <ele>888.88</ele>
        <time>2019-03-13T10:33:27Z</time>
      </trkpt>
      <trkpt lat="31.612308835610747" lon="-4.522027457132936">
        <ele>886.95000000000005</ele>
        <time>2019-03-13T10:33:36Z</time>
      </trkpt>
      <trkpt lat="31.612188136205077" lon="-4.521859819069505">
        <ele>886.95000000000005</ele>
        <time>2019-03-13T10:33:47Z</time>
      </trkpt>
      <trkpt lat="31.612033741548657" lon="-4.521553041413426">
        <ele>886.95000000000005</ele>
        <time>2019-03-13T10:33:59Z</time>
      </trkpt>
      <trkpt lat="31.611654879525304" lon="-4.520846782252193">
        <ele>887.42999999999995</ele>
        <time>2019-03-13T10:34:05Z</time>
      </trkpt>
      <trkpt lat="31.610901933163404" lon="-4.519406855106354">
        <ele>886.47000000000003</ele>
        <time>2019-03-13T10:34:17Z</time>
      </trkpt>
      <trkpt lat="31.610211180523038" lon="-4.518233388662338">
        <ele>886.95000000000005</ele>
        <time>2019-03-13T10:34:18Z</time>
      </trkpt>
      <trkpt lat="31.610077824443579" lon="-4.518057201057673">
        <ele>886.95000000000005</ele>
        <time>2019-03-13T10:34:21Z</time>
      </trkpt>
      <trkpt lat="31.609129412099719" lon="-4.517079452052712">
        <ele>885.99000000000001</ele>
        <time>2019-03-13T10:34:27Z</time>
      </trkpt>
      <trkpt lat="31.608869908377528" lon="-4.516780804842711">
        <ele>885.02999999999997</ele>
        <time>2019-03-13T10:34:37Z</time>
      </trkpt>
      <trkpt lat="31.608054768294096" lon="-4.516208069398999">
        <ele>881.66999999999996</ele>
        <time>2019-03-13T10:34:47Z</time>
      </trkpt>
      <trkpt lat="31.607019770890474" lon="-4.515457889065146">
        <ele>879.25999999999999</ele>
        <time>2019-03-13T10:34:50Z</time>
      </trkpt>
      <trkpt lat="31.606021737679839" lon="-4.514315938577056">
        <ele>878.77999999999997</ele>
        <time>2019-03-13T10:35:00Z</time>
      </trkpt>
      <trkpt lat="31.605605743825436" lon="-4.513696935027838">
        <ele>878.77999999999997</ele>
        <time>2019-03-13T10:35:06Z</time>
      </trkpt>
      <trkpt lat="31.604980789124966" lon="-4.512907192111015">
        <ele>878.29999999999995</ele>
        <time>2019-03-13T10:35:14Z</time>
      </trkpt>
      <trkpt lat="31.604913314804435" lon="-4.512826474383473">
        <ele>878.29999999999995</ele>
        <time>2019-03-13T10:35:24Z</time>
      </trkpt>
      <trkpt lat="31.60475229844451" lon="-4.512541405856609">
        <ele>878.29999999999995</ele>
        <time>2019-03-13T10:35:28Z</time>
      </trkpt>
      <trkpt lat="31.604376453906298" lon="-4.511977136135101">
        <ele>878.77999999999997</ele>
        <time>2019-03-13T10:35:31Z</time>
      </trkpt>
      <trkpt lat="31.603757617995143" lon="-4.511017743498087">
        <ele>878.77999999999997</ele>
        <time>2019-03-13T10:35:34Z</time>
      </trkpt>
      <trkpt lat="31.603165687993169" lon="-4.509840589016676">
        <ele>878.77999999999997</ele>
        <time>2019-03-13T10:35:45Z</time>
      </trkpt>
      <trkpt lat="31.60304750315845" lon="-4.509561471641064">
        <ele>880.22000000000003</ele>
        <time>2019-03-13T10:35:50Z</time>
      </trkpt>
      <trkpt lat="31.602345686405897" lon="-4.508849680423737">
        <ele>881.19000000000005</ele>
        <time>2019-03-13T10:35:54Z</time>
      </trkpt>
      <trkpt lat="31.601969338953495" lon="-4.508392531424761">
        <ele>881.19000000000005</ele>
        <time>2019-03-13T10:36:00Z</time>
      </trkpt>
      <trkpt lat="31.601821146905422" lon="-4.507952313870192">
        <ele>880.71000000000004</ele>
        <time>2019-03-13T10:36:09Z</time>
      </trkpt>
      <trkpt lat="31.601821733638644" lon="-4.507921971380711">
        <ele>879.25999999999999</ele>
        <time>2019-03-13T10:36:14Z</time>
      </trkpt>
      <trkpt lat="31.601758701726794" lon="-4.507741592824459">
        <ele>878.29999999999995</ele>
        <time>2019-03-13T10:36:24Z</time>
      </trkpt>
      <trkpt lat="31.601705644279718" lon="-4.507584515959024">
        <ele>878.29999999999995</ele>
        <time>2019-03-13T10:36:34Z</time>
      </trkpt>
      <trkpt lat="31.601676978170872" lon="-4.507380416616797">
        <ele>877.82000000000005</ele>
        <time>2019-03-13T10:36:48Z</time>
      </trkpt>
      <trkpt lat="31.601767251268029" lon="-4.506573071703315">
        <ele>876.86000000000001</ele>
        <time>2019-03-13T10:36:58Z</time>
      </trkpt>
      <trkpt lat="31.601776136085391" lon="-4.506285823881626">
        <ele>876.86000000000001</ele>
        <time>2019-03-13T10:37:08Z</time>
      </trkpt>
      <trkpt lat="31.60167446359992" lon="-4.506037132814527">
        <ele>876.86000000000001</ele>
        <time>2019-03-13T10:37:17Z</time>
      </trkpt>
      <trkpt lat="31.601395681500435" lon="-4.50555601157248">
        <ele>876.38</ele>
        <time>2019-03-13T10:37:23Z</time>
      </trkpt>
      <trkpt lat="31.60122150555253" lon="-4.504793509840965">
        <ele>876.38</ele>
        <time>2019-03-13T10:37:31Z</time>
      </trkpt>
      <trkpt lat="31.600990584120154" lon="-4.504400733858347">
        <ele>876.86000000000001</ele>
        <time>2019-03-13T10:37:35Z</time>
      </trkpt>
      <trkpt lat="31.600279295817018" lon="-4.503795141354203">
        <ele>878.29999999999995</ele>
        <time>2019-03-13T10:37:38Z</time>
      </trkpt>
      <trkpt lat="31.599762970581651" lon="-4.503173371776938">
        <ele>878.77999999999997</ele>
        <time>2019-03-13T10:37:45Z</time>
      </trkpt>
      <trkpt lat="31.598748676478863" lon="-4.501942824572325">
        <ele>877.34000000000003</ele>
        <time>2019-03-13T10:37:50Z</time>
      </trkpt>
      <trkpt lat="31.598218185827136" lon="-4.500988712534308">
        <ele>873.98000000000002</ele>
        <time>2019-03-13T10:37:56Z</time>
      </trkpt>
      <trkpt lat="31.597586693242192" lon="-4.49996754527092">
        <ele>873.00999999999999</ele>
        <time>2019-03-13T10:38:05Z</time>
      </trkpt>
      <trkpt lat="31.597162149846554" lon="-4.499224154278636">
        <ele>872.52999999999997</ele>
        <time>2019-03-13T10:38:15Z</time>
      </trkpt>
      <trkpt lat="31.596794687211514" lon="-4.498687209561467">
        <ele>872.04999999999995</ele>
        <time>2019-03-13T10:38:24Z</time>
      </trkpt>
      <trkpt lat="31.596359666436911" lon="-4.498087232932448">
        <ele>871.57000000000005</ele>
        <time>2019-03-13T10:38:33Z</time>
      </trkpt>
      <trkpt lat="31.595975607633591" lon="-4.498043144121766">
        <ele>869.64999999999998</ele>
        <time>2019-03-13T10:38:44Z</time>
      </trkpt>
      <trkpt lat="31.59565550275147" lon="-4.498054962605238">
        <ele>869.16999999999996</ele>
        <time>2019-03-13T10:38:57Z</time>
      </trkpt>
      <trkpt lat="31.594904735684395" lon="-4.497780539095402">
        <ele>868.69000000000005</ele>
        <time>2019-03-13T10:39:07Z</time>
      </trkpt>
      <trkpt lat="31.594490250572562" lon="-4.497710131108761">
        <ele>868.21000000000004</ele>
        <time>2019-03-13T10:39:15Z</time>
      </trkpt>
      <trkpt lat="31.594083141535521" lon="-4.49762262403965">
        <ele>868.21000000000004</ele>
        <time>2019-03-13T10:39:24Z</time>
      </trkpt>
      <trkpt lat="31.593514597043395" lon="-4.497042344883084">
        <ele>867.73000000000002</ele>
        <time>2019-03-13T10:39:26Z</time>
      </trkpt>
      <trkpt lat="31.592974634841084" lon="-4.496498107910156">
        <ele>866.76999999999998</ele>
        <time>2019-03-13T10:39:32Z</time>
      </trkpt>
      <trkpt lat="31.592282457277179" lon="-4.495478617027402">
        <ele>865.79999999999995</ele>
        <time>2019-03-13T10:39:42Z</time>
      </trkpt>
      <trkpt lat="31.5917650423944" lon="-4.494300037622452">
        <ele>865.32000000000005</ele>
        <time>2019-03-13T10:39:53Z</time>
      </trkpt>
      <trkpt lat="31.590927774086595" lon="-4.492883076891303">
        <ele>865.79999999999995</ele>
        <time>2019-03-13T10:40:05Z</time>
      </trkpt>
      <trkpt lat="31.589907612651587" lon="-4.49099144898355">
        <ele>865.79999999999995</ele>
        <time>2019-03-13T10:40:16Z</time>
      </trkpt>
      <trkpt lat="31.588895414024591" lon="-4.489843714982271">
        <ele>867.73000000000002</ele>
        <time>2019-03-13T10:40:27Z</time>
      </trkpt>
      <trkpt lat="31.58808178268373" lon="-4.48914441280067">
        <ele>868.21000000000004</ele>
        <time>2019-03-13T10:40:37Z</time>
      </trkpt>
      <trkpt lat="31.587419947609305" lon="-4.488082258030772">
        <ele>867.73000000000002</ele>
        <time>2019-03-13T10:40:39Z</time>
      </trkpt>
      <trkpt lat="31.587315173819661" lon="-4.487802134826779">
        <ele>868.21000000000004</ele>
        <time>2019-03-13T10:40:45Z</time>
      </trkpt>
      <trkpt lat="31.587141081690788" lon="-4.486893117427826">
        <ele>867.73000000000002</ele>
        <time>2019-03-13T10:40:57Z</time>
      </trkpt>
      <trkpt lat="31.586539931595325" lon="-4.485554778948426">
        <ele>869.16999999999996</ele>
        <time>2019-03-13T10:41:01Z</time>
      </trkpt>
      <trkpt lat="31.585634266957641" lon="-4.484070427715778">
        <ele>871.09000000000003</ele>
        <time>2019-03-13T10:41:17Z</time>
      </trkpt>
      <trkpt lat="31.5847263392061" lon="-4.482464035972953">
        <ele>872.04999999999995</ele>
        <time>2019-03-13T10:41:24Z</time>
      </trkpt>
      <trkpt lat="31.583889070898294" lon="-4.481030646711588">
        <ele>874.94000000000005</ele>
        <time>2019-03-13T10:41:30Z</time>
      </trkpt>
      <trkpt lat="31.583363441750407" lon="-4.479782832786441">
        <ele>875.41999999999996</ele>
        <time>2019-03-13T10:41:44Z</time>
      </trkpt>
      <trkpt lat="31.583076613023877" lon="-4.479150334373117">
        <ele>875.41999999999996</ele>
        <time>2019-03-13T10:41:56Z</time>
      </trkpt>
      <trkpt lat="31.583053562790155" lon="-4.479060480371118">
        <ele>875.89999999999998</ele>
        <time>2019-03-13T10:42:10Z</time>
      </trkpt>
      <trkpt lat="31.583155067637563" lon="-4.478793684393168">
        <ele>875.89999999999998</ele>
        <time>2019-03-13T10:42:24Z</time>
      </trkpt>
      <trkpt lat="31.583561422303319" lon="-4.478473830968142">
        <ele>874.94000000000005</ele>
        <time>2019-03-13T10:42:36Z</time>
      </trkpt>
      <trkpt lat="31.583638703450561" lon="-4.478265540674329">
        <ele>874.94000000000005</ele>
        <time>2019-03-13T10:42:46Z</time>
      </trkpt>
      <trkpt lat="31.583569468930364" lon="-4.477136163040996">
        <ele>875.41999999999996</ele>
        <time>2019-03-13T10:43:00Z</time>
      </trkpt>
      <trkpt lat="31.583638535812497" lon="-4.476580526679754">
        <ele>875.89999999999998</ele>
        <time>2019-03-13T10:43:07Z</time>
      </trkpt>
      <trkpt lat="31.583843221887946" lon="-4.476206945255399">
        <ele>874.46000000000004</ele>
        <time>2019-03-13T10:43:18Z</time>
      </trkpt>
      <trkpt lat="31.584606729447842" lon="-4.475195417180657">
        <ele>873.00999999999999</ele>
        <time>2019-03-13T10:43:28Z</time>
      </trkpt>
      <trkpt lat="31.585508119314909" lon="-4.474053969606757">
        <ele>873.5</ele>
        <time>2019-03-13T10:43:33Z</time>
      </trkpt>
      <trkpt lat="31.586720813065767" lon="-4.472651425749064">
        <ele>873.5</ele>
        <time>2019-03-13T10:43:39Z</time>
      </trkpt>
      <trkpt lat="31.588129140436649" lon="-4.471178809180856">
        <ele>873.98000000000002</ele>
        <time>2019-03-13T10:43:48Z</time>
      </trkpt>
      <trkpt lat="31.589216692373157" lon="-4.470042558386922">
        <ele>874.94000000000005</ele>
        <time>2019-03-13T10:43:58Z</time>
      </trkpt>
      <trkpt lat="31.590032000094652" lon="-4.469111077487469">
        <ele>874.46000000000004</ele>
        <time>2019-03-13T10:44:06Z</time>
      </trkpt>
      <trkpt lat="31.591191720217466" lon="-4.467934090644121">
        <ele>874.46000000000004</ele>
        <time>2019-03-13T10:44:14Z</time>
      </trkpt>
      <trkpt lat="31.591392299160361" lon="-4.467655643820763">
        <ele>873.98000000000002</ele>
        <time>2019-03-13T10:44:25Z</time>
      </trkpt>
      <trkpt lat="31.591786667704582" lon="-4.467117609456182">
        <ele>873.5</ele>
        <time>2019-03-13T10:44:37Z</time>
      </trkpt>
      <trkpt lat="31.592050613835454" lon="-4.466762552037835">
        <ele>871.57000000000005</ele>
        <time>2019-03-13T10:44:49Z</time>
      </trkpt>
      <trkpt lat="31.592241553589702" lon="-4.466470526531339">
        <ele>872.04999999999995</ele>
        <time>2019-03-13T10:44:51Z</time>
      </trkpt>
      <trkpt lat="31.592484209686518" lon="-4.466202137991786">
        <ele>873.5</ele>
        <time>2019-03-13T10:44:57Z</time>
      </trkpt>
      <trkpt lat="31.592716975137591" lon="-4.465790418908">
        <ele>873.5</ele>
        <time>2019-03-13T10:45:08Z</time>
      </trkpt>
      <trkpt lat="31.592988967895508" lon="-4.465125147253275">
        <ele>874.94000000000005</ele>
        <time>2019-03-13T10:45:46Z</time>
      </trkpt>
      <trkpt lat="31.593223158270121" lon="-4.464508406817913">
        <ele>877.82000000000005</ele>
        <time>2019-03-13T10:45:57Z</time>
      </trkpt>
      <trkpt lat="31.59345667809248" lon="-4.463830646127462">
        <ele>877.82000000000005</ele>
        <time>2019-03-13T10:46:07Z</time>
      </trkpt>
      <trkpt lat="31.594061767682433" lon="-4.462934704497457">
        <ele>875.89999999999998</ele>
        <time>2019-03-13T10:46:22Z</time>
      </trkpt>
      <trkpt lat="31.594647746533155" lon="-4.461935246363282">
        <ele>875.41999999999996</ele>
        <time>2019-03-13T10:46:31Z</time>
      </trkpt>
      <trkpt lat="31.594974473118782" lon="-4.461338119581342">
        <ele>874.94000000000005</ele>
        <time>2019-03-13T10:46:45Z</time>
      </trkpt>
      <trkpt lat="31.595022920519114" lon="-4.461237285286188">
        <ele>874.94000000000005</ele>
        <time>2019-03-13T10:46:58Z</time>
      </trkpt>
      <trkpt lat="31.595012946054339" lon="-4.460998568683863">
        <ele>875.41999999999996</ele>
        <time>2019-03-13T10:47:11Z</time>
      </trkpt>
      <trkpt lat="31.5949787478894" lon="-4.460897315293551">
        <ele>876.38</ele>
        <time>2019-03-13T10:47:13Z</time>
      </trkpt>
      <trkpt lat="31.594957457855344" lon="-4.460814837366343">
        <ele>876.38</ele>
        <time>2019-03-13T10:47:17Z</time>
      </trkpt>
      <trkpt lat="31.594833908602595" lon="-4.459969941526651">
        <ele>880.22000000000003</ele>
        <time>2019-03-13T10:47:24Z</time>
      </trkpt>
      <trkpt lat="31.594656715169549" lon="-4.459184976294637">
        <ele>881.66999999999996</ele>
        <time>2019-03-13T10:47:28Z</time>
      </trkpt>
      <trkpt lat="31.594322025775909" lon="-4.457764578983188">
        <ele>882.63</ele>
        <time>2019-03-13T10:47:35Z</time>
      </trkpt>
      <trkpt lat="31.59399320371449" lon="-4.456800408661366">
        <ele>879.74000000000001</ele>
        <time>2019-03-13T10:47:40Z</time>
      </trkpt>
      <trkpt lat="31.593456091359258" lon="-4.455160740762949">
        <ele>879.25999999999999</ele>
        <time>2019-03-13T10:47:54Z</time>
      </trkpt>
      <trkpt lat="31.593078151345253" lon="-4.453389560803771">
        <ele>881.66999999999996</ele>
        <time>2019-03-13T10:48:06Z</time>
      </trkpt>
      <trkpt lat="31.592865502461791" lon="-4.451575549319387">
        <ele>884.54999999999995</ele>
        <time>2019-03-13T10:48:18Z</time>
      </trkpt>
      <trkpt lat="31.592816887423396" lon="-4.451357955113053">
        <ele>882.63</ele>
        <time>2019-03-13T10:48:27Z</time>
      </trkpt>
      <trkpt lat="31.592789394780993" lon="-4.450978254899383">
        <ele>883.11000000000001</ele>
        <time>2019-03-13T10:48:37Z</time>
      </trkpt>
      <trkpt lat="31.592694260179996" lon="-4.450387414544821">
        <ele>884.54999999999995</ele>
        <time>2019-03-13T10:48:49Z</time>
      </trkpt>
      <trkpt lat="31.592698954045773" lon="-4.449993297457695">
        <ele>885.02999999999997</ele>
        <time>2019-03-13T10:49:03Z</time>
      </trkpt>
      <trkpt lat="31.592504158616066" lon="-4.449306316673756">
        <ele>885.50999999999999</ele>
        <time>2019-03-13T10:49:19Z</time>
      </trkpt>
      <trkpt lat="31.592297125607729" lon="-4.448857046663761">
        <ele>884.54999999999995</ele>
        <time>2019-03-13T10:49:30Z</time>
      </trkpt>
      <trkpt lat="31.591524230316281" lon="-4.447561120614409">
        <ele>884.07000000000005</ele>
        <time>2019-03-13T10:49:33Z</time>
      </trkpt>
      <trkpt lat="31.590764913707972" lon="-4.446321101859212">
        <ele>885.02999999999997</ele>
        <time>2019-03-13T10:49:40Z</time>
      </trkpt>
      <trkpt lat="31.58989948220551" lon="-4.444972202181816">
        <ele>886.47000000000003</ele>
        <time>2019-03-13T10:49:58Z</time>
      </trkpt>
      <trkpt lat="31.589453648775816" lon="-4.444114817306399">
        <ele>886.47000000000003</ele>
        <time>2019-03-13T10:50:12Z</time>
      </trkpt>
      <trkpt lat="31.589199593290687" lon="-4.443163303658366">
        <ele>886.47000000000003</ele>
        <time>2019-03-13T10:50:28Z</time>
      </trkpt>
      <trkpt lat="31.588885858654976" lon="-4.441895205527544">
        <ele>887.42999999999995</ele>
        <time>2019-03-13T10:50:41Z</time>
      </trkpt>
      <trkpt lat="31.588497776538134" lon="-4.440256962552667">
        <ele>888.88</ele>
        <time>2019-03-13T10:50:53Z</time>
      </trkpt>
      <trkpt lat="31.587759917601943" lon="-4.438191996887326">
        <ele>891.75999999999999</ele>
        <time>2019-03-13T10:51:07Z</time>
      </trkpt>
      <trkpt lat="31.587540311738849" lon="-4.436633046716452">
        <ele>892.24000000000001</ele>
        <time>2019-03-13T10:51:20Z</time>
      </trkpt>
      <trkpt lat="31.58754575997591" lon="-4.436227027326822">
        <ele>890.32000000000005</ele>
        <time>2019-03-13T10:51:32Z</time>
      </trkpt>
      <trkpt lat="31.587443919852376" lon="-4.435309963300824">
        <ele>890.79999999999995</ele>
        <time>2019-03-13T10:51:50Z</time>
      </trkpt>
      <trkpt lat="31.586722321808338" lon="-4.433257402852178">
        <ele>892.24000000000001</ele>
        <time>2019-03-13T10:52:08Z</time>
      </trkpt>
      <trkpt lat="31.585985887795687" lon="-4.431534251198173">
        <ele>891.75999999999999</ele>
        <time>2019-03-13T10:52:23Z</time>
      </trkpt>
      <trkpt lat="31.585230594500899" lon="-4.429513961076737">
        <ele>891.27999999999997</ele>
        <time>2019-03-13T10:52:38Z</time>
      </trkpt>
      <trkpt lat="31.584679484367371" lon="-4.428071519359946">
        <ele>889.36000000000001</ele>
        <time>2019-03-13T10:52:41Z</time>
      </trkpt>
      <trkpt lat="31.584125272929668" lon="-4.42680568434298">
        <ele>888.88</ele>
        <time>2019-03-13T10:52:52Z</time>
      </trkpt>
      <trkpt lat="31.583400573581457" lon="-4.425342958420515">
        <ele>887.42999999999995</ele>
        <time>2019-03-13T10:53:03Z</time>
      </trkpt>
      <trkpt lat="31.582836136221886" lon="-4.423698680475354">
        <ele>885.50999999999999</ele>
        <time>2019-03-13T10:53:16Z</time>
      </trkpt>
      <trkpt lat="31.582071371376514" lon="-4.422344332560897">
        <ele>884.54999999999995</ele>
        <time>2019-03-13T10:53:27Z</time>
      </trkpt>
      <trkpt lat="31.580852642655373" lon="-4.420239385217428">
        <ele>885.99000000000001</ele>
        <time>2019-03-13T10:53:42Z</time>
      </trkpt>
      <trkpt lat="31.579710692167282" lon="-4.418107448145747">
        <ele>886.47000000000003</ele>
        <time>2019-03-13T10:53:54Z</time>
      </trkpt>
      <trkpt lat="31.578704863786697" lon="-4.416351271793246">
        <ele>882.63</ele>
        <time>2019-03-13T10:54:06Z</time>
      </trkpt>
      <trkpt lat="31.577647654339671" lon="-4.414828028529882">
        <ele>882.14999999999998</ele>
        <time>2019-03-13T10:54:16Z</time>
      </trkpt>
      <trkpt lat="31.577497785910964" lon="-4.414489064365625">
        <ele>881.19000000000005</ele>
        <time>2019-03-13T10:54:26Z</time>
      </trkpt>
      <trkpt lat="31.57741111703217" lon="-4.413053411990404">
        <ele>880.71000000000004</ele>
        <time>2019-03-13T10:54:40Z</time>
      </trkpt>
      <trkpt lat="31.577741866931319" lon="-4.411595547571778">
        <ele>878.77999999999997</ele>
        <time>2019-03-13T10:54:53Z</time>
      </trkpt>
      <trkpt lat="31.578538315370679" lon="-4.409958813339472">
        <ele>880.22000000000003</ele>
        <time>2019-03-13T10:54:55Z</time>
      </trkpt>
      <trkpt lat="31.579063357785344" lon="-4.408629443496466">
        <ele>880.22000000000003</ele>
        <time>2019-03-13T10:55:06Z</time>
      </trkpt>
      <trkpt lat="31.57952981069684" lon="-4.406602866947651">
        <ele>879.74000000000001</ele>
        <time>2019-03-13T10:55:16Z</time>
      </trkpt>
      <trkpt lat="31.580133978277445" lon="-4.405093202367425">
        <ele>878.77999999999997</ele>
        <time>2019-03-13T10:55:28Z</time>
      </trkpt>
      <trkpt lat="31.581024304032326" lon="-4.403915042057633">
        <ele>876.86000000000001</ele>
        <time>2019-03-13T10:55:43Z</time>
      </trkpt>
      <trkpt lat="31.581483716145158" lon="-4.402882726863027">
        <ele>875.89999999999998</ele>
        <time>2019-03-13T10:56:03Z</time>
      </trkpt>
      <trkpt lat="31.581561751663685" lon="-4.401539275422692">
        <ele>875.89999999999998</ele>
        <time>2019-03-13T10:56:17Z</time>
      </trkpt>
      <trkpt lat="31.581630231812596" lon="-4.399684779345989">
        <ele>875.89999999999998</ele>
        <time>2019-03-13T10:56:34Z</time>
      </trkpt>
      <trkpt lat="31.581480950117111" lon="-4.397760629653931">
        <ele>875.41999999999996</ele>
        <time>2019-03-13T10:56:46Z</time>
      </trkpt>
      <trkpt lat="31.581451948732138" lon="-4.397474639117718">
        <ele>874.46000000000004</ele>
        <time>2019-03-13T10:57:04Z</time>
      </trkpt>
      <trkpt lat="31.580961691215634" lon="-4.396020295098424">
        <ele>872.52999999999997</ele>
        <time>2019-03-13T10:57:18Z</time>
      </trkpt>
      <trkpt lat="31.580472523346543" lon="-4.394685057923198">
        <ele>872.52999999999997</ele>
        <time>2019-03-13T10:57:33Z</time>
      </trkpt>
      <trkpt lat="31.579827619716525" lon="-4.392995769158006">
        <ele>871.57000000000005</ele>
        <time>2019-03-13T10:57:47Z</time>
      </trkpt>
      <trkpt lat="31.579156899824739" lon="-4.390924097970128">
        <ele>870.13</ele>
        <time>2019-03-13T10:57:55Z</time>
      </trkpt>
      <trkpt lat="31.578253665938973" lon="-4.388183299452066">
        <ele>869.64999999999998</ele>
        <time>2019-03-13T10:58:02Z</time>
      </trkpt>
      <trkpt lat="31.577709261327982" lon="-4.386485461145639">
        <ele>869.16999999999996</ele>
        <time>2019-03-13T10:58:03Z</time>
      </trkpt>
      <trkpt lat="31.577068297192454" lon="-4.384421836584806">
        <ele>870.13</ele>
        <time>2019-03-13T10:58:15Z</time>
      </trkpt>
      <trkpt lat="31.576597569510341" lon="-4.382847715169191">
        <ele>869.16999999999996</ele>
        <time>2019-03-13T10:58:23Z</time>
      </trkpt>
      <trkpt lat="31.576043190434575" lon="-4.380285032093525">
        <ele>869.64999999999998</ele>
        <time>2019-03-13T10:58:26Z</time>
      </trkpt>
      <trkpt lat="31.575573720037937" lon="-4.378129625692964">
        <ele>868.69000000000005</ele>
        <time>2019-03-13T10:58:29Z</time>
      </trkpt>
      <trkpt lat="31.575043564662337" lon="-4.375837845727801">
        <ele>866.76999999999998</ele>
        <time>2019-03-13T10:58:40Z</time>
      </trkpt>
      <trkpt lat="31.574630504474044" lon="-4.373876396566629">
        <ele>867.73000000000002</ele>
        <time>2019-03-13T10:58:51Z</time>
      </trkpt>
      <trkpt lat="31.574515337124467" lon="-4.372749868780375">
        <ele>868.69000000000005</ele>
        <time>2019-03-13T10:59:02Z</time>
      </trkpt>
      <trkpt lat="31.574465297162533" lon="-4.37204453162849">
        <ele>869.16999999999996</ele>
        <time>2019-03-13T10:59:10Z</time>
      </trkpt>
      <trkpt lat="31.574448868632317" lon="-4.371944200247526">
        <ele>869.16999999999996</ele>
        <time>2019-03-13T10:59:16Z</time>
      </trkpt>
      <trkpt lat="31.57410554587841" lon="-4.370531095191836">
        <ele>868.69000000000005</ele>
        <time>2019-03-13T10:59:19Z</time>
      </trkpt>
      <trkpt lat="31.574002029374242" lon="-4.369605649262667">
        <ele>868.69000000000005</ele>
        <time>2019-03-13T10:59:25Z</time>
      </trkpt>
      <trkpt lat="31.573958192020655" lon="-4.369298703968525">
        <ele>868.69000000000005</ele>
        <time>2019-03-13T10:59:27Z</time>
      </trkpt>
      <trkpt lat="31.573892729356885" lon="-4.369006678462029">
        <ele>871.09000000000003</ele>
        <time>2019-03-13T10:59:31Z</time>
      </trkpt>
      <trkpt lat="31.573469359427691" lon="-4.36781058087945">
        <ele>872.04999999999995</ele>
        <time>2019-03-13T10:59:41Z</time>
      </trkpt>
      <trkpt lat="31.573085049167275" lon="-4.366323044523597">
        <ele>871.09000000000003</ele>
        <time>2019-03-13T10:59:49Z</time>
      </trkpt>
      <trkpt lat="31.572484821081161" lon="-4.365118648856878">
        <ele>871.09000000000003</ele>
        <time>2019-03-13T10:59:59Z</time>
      </trkpt>
      <trkpt lat="31.572078466415405" lon="-4.364425633102655">
        <ele>870.61000000000001</ele>
        <time>2019-03-13T11:00:09Z</time>
      </trkpt>
      <trkpt lat="31.571804378181696" lon="-4.364079544320703">
        <ele>871.09000000000003</ele>
        <time>2019-03-13T11:00:20Z</time>
      </trkpt>
      <trkpt lat="31.571683846414089" lon="-4.363955827429891">
        <ele>873.5</ele>
        <time>2019-03-13T11:00:31Z</time>
      </trkpt>
      <trkpt lat="31.571506652981043" lon="-4.363586688414216">
        <ele>874.46000000000004</ele>
        <time>2019-03-13T11:00:44Z</time>
      </trkpt>
      <trkpt lat="31.571469437330961" lon="-4.363386025652289">
        <ele>873.5</ele>
        <time>2019-03-13T11:00:57Z</time>
      </trkpt>
      <trkpt lat="31.571452002972364" lon="-4.362997189164162">
        <ele>873.5</ele>
        <time>2019-03-13T11:01:10Z</time>
      </trkpt>
      <trkpt lat="31.571408668532968" lon="-4.361844845116139">
        <ele>874.94000000000005</ele>
        <time>2019-03-13T11:01:27Z</time>
      </trkpt>
      <trkpt lat="31.571442112326622" lon="-4.361049151048064">
        <ele>875.89999999999998</ele>
        <time>2019-03-13T11:01:42Z</time>
      </trkpt>
      <trkpt lat="31.571500031277537" lon="-4.360217582434416">
        <ele>876.38</ele>
        <time>2019-03-13T11:01:57Z</time>
      </trkpt>
      <trkpt lat="31.571514280512929" lon="-4.359157606959343">
        <ele>876.86000000000001</ele>
        <time>2019-03-13T11:02:12Z</time>
      </trkpt>
      <trkpt lat="31.571669429540634" lon="-4.35765934176743">
        <ele>876.86000000000001</ele>
        <time>2019-03-13T11:02:26Z</time>
      </trkpt>
      <trkpt lat="31.571758026257157" lon="-4.356062924489379">
        <ele>876.38</ele>
        <time>2019-03-13T11:02:39Z</time>
      </trkpt>
      <trkpt lat="31.571537749841809" lon="-4.3541847076267">
        <ele>876.86000000000001</ele>
        <time>2019-03-13T11:02:53Z</time>
      </trkpt>
      <trkpt lat="31.571211945265532" lon="-4.352406905964017">
        <ele>876.38</ele>
        <time>2019-03-13T11:03:06Z</time>
      </trkpt>
      <trkpt lat="31.570531334728003" lon="-4.350632289424539">
        <ele>875.89999999999998</ele>
        <time>2019-03-13T11:03:19Z</time>
      </trkpt>
      <trkpt lat="31.56961158849299" lon="-4.348229449242353">
        <ele>875.41999999999996</ele>
        <time>2019-03-13T11:03:31Z</time>
      </trkpt>
      <trkpt lat="31.568828970193863" lon="-4.34600698761642">
        <ele>875.41999999999996</ele>
        <time>2019-03-13T11:03:43Z</time>
      </trkpt>
      <trkpt lat="31.568310633301735" lon="-4.343728199601173">
        <ele>875.89999999999998</ele>
        <time>2019-03-13T11:03:58Z</time>
      </trkpt>
      <trkpt lat="31.567877037450671" lon="-4.341366430744529">
        <ele>874.94000000000005</ele>
        <time>2019-03-13T11:04:11Z</time>
      </trkpt>
      <trkpt lat="31.567573361098766" lon="-4.339182274416089">
        <ele>874.94000000000005</ele>
        <time>2019-03-13T11:04:21Z</time>
      </trkpt>
      <trkpt lat="31.567291393876076" lon="-4.33733138255775">
        <ele>873.98000000000002</ele>
        <time>2019-03-13T11:04:34Z</time>
      </trkpt>
      <trkpt lat="31.566732153296471" lon="-4.335283432155848">
        <ele>873.5</ele>
        <time>2019-03-13T11:04:46Z</time>
      </trkpt>
      <trkpt lat="31.566035198047757" lon="-4.333263980224729">
        <ele>873.00999999999999</ele>
        <time>2019-03-13T11:05:00Z</time>
      </trkpt>
      <trkpt lat="31.565466318279505" lon="-4.331164732575417">
        <ele>871.57000000000005</ele>
        <time>2019-03-13T11:05:12Z</time>
      </trkpt>
      <trkpt lat="31.565264733508229" lon="-4.329156680032611">
        <ele>872.04999999999995</ele>
        <time>2019-03-13T11:05:24Z</time>
      </trkpt>
      <trkpt lat="31.565095251426101" lon="-4.327346105128527">
        <ele>872.52999999999997</ele>
        <time>2019-03-13T11:05:36Z</time>
      </trkpt>
      <trkpt lat="31.564781935885549" lon="-4.325164714828134">
        <ele>873.5</ele>
        <time>2019-03-13T11:05:48Z</time>
      </trkpt>
      <trkpt lat="31.564427465200424" lon="-4.323513647541404">
        <ele>873.5</ele>
        <time>2019-03-13T11:06:00Z</time>
      </trkpt>
      <trkpt lat="31.5640954580158" lon="-4.322262899950147">
        <ele>873.5</ele>
        <time>2019-03-13T11:06:14Z</time>
      </trkpt>
      <trkpt lat="31.563765546306968" lon="-4.320595487952232">
        <ele>873.98000000000002</ele>
        <time>2019-03-13T11:06:26Z</time>
      </trkpt>
      <trkpt lat="31.56354577280581" lon="-4.318904271349311">
        <ele>873.5</ele>
        <time>2019-03-13T11:06:42Z</time>
      </trkpt>
      <trkpt lat="31.563343685120344" lon="-4.316948102787137">
        <ele>873.00999999999999</ele>
        <time>2019-03-13T11:06:53Z</time>
      </trkpt>
      <trkpt lat="31.563130030408502" lon="-4.315397869795561">
        <ele>872.52999999999997</ele>
        <time>2019-03-13T11:07:03Z</time>
      </trkpt>
      <trkpt lat="31.56278545036912" lon="-4.313825173303485">
        <ele>872.52999999999997</ele>
        <time>2019-03-13T11:07:15Z</time>
      </trkpt>
      <trkpt lat="31.56262468546629" lon="-4.311973359435797">
        <ele>872.52999999999997</ele>
        <time>2019-03-13T11:07:25Z</time>
      </trkpt>
      <trkpt lat="31.562374988570809" lon="-4.31019882671535">
        <ele>871.57000000000005</ele>
        <time>2019-03-13T11:07:37Z</time>
      </trkpt>
      <trkpt lat="31.561983469873667" lon="-4.308553542941809">
        <ele>869.16999999999996</ele>
        <time>2019-03-13T11:07:48Z</time>
      </trkpt>
      <trkpt lat="31.561190877109766" lon="-4.306385898962617">
        <ele>868.21000000000004</ele>
        <time>2019-03-13T11:07:59Z</time>
      </trkpt>
      <trkpt lat="31.560443378984928" lon="-4.304592590779066">
        <ele>867.25</ele>
        <time>2019-03-13T11:08:10Z</time>
      </trkpt>
      <trkpt lat="31.559222973883152" lon="-4.30204750970006">
        <ele>867.73000000000002</ele>
        <time>2019-03-13T11:08:20Z</time>
      </trkpt>
      <trkpt lat="31.558441864326596" lon="-4.300381019711494">
        <ele>867.25</ele>
        <time>2019-03-13T11:08:32Z</time>
      </trkpt>
      <trkpt lat="31.557594621554017" lon="-4.299009656533599">
        <ele>866.28999999999996</ele>
        <time>2019-03-13T11:08:42Z</time>
      </trkpt>
      <trkpt lat="31.556499777361751" lon="-4.297478953376412">
        <ele>866.28999999999996</ele>
        <time>2019-03-13T11:08:52Z</time>
      </trkpt>
      <trkpt lat="31.555784130468965" lon="-4.296138435602188">
        <ele>866.28999999999996</ele>
        <time>2019-03-13T11:09:04Z</time>
      </trkpt>
      <trkpt lat="31.554665481671691" lon="-4.294596333056688">
        <ele>866.76999999999998</ele>
        <time>2019-03-13T11:09:20Z</time>
      </trkpt>
      <trkpt lat="31.553625706583261" lon="-4.293337622657418">
        <ele>868.69000000000005</ele>
        <time>2019-03-13T11:09:31Z</time>
      </trkpt>
      <trkpt lat="31.552760526537895" lon="-4.292044378817082">
        <ele>869.64999999999998</ele>
        <time>2019-03-13T11:09:32Z</time>
      </trkpt>
      <trkpt lat="31.552053177729249" lon="-4.290701849386096">
        <ele>868.69000000000005</ele>
        <time>2019-03-13T11:09:42Z</time>
      </trkpt>
      <trkpt lat="31.551469545811415" lon="-4.289286816492677">
        <ele>868.69000000000005</ele>
        <time>2019-03-13T11:09:54Z</time>
      </trkpt>
      <trkpt lat="31.551013654097915" lon="-4.287511445581913">
        <ele>868.21000000000004</ele>
        <time>2019-03-13T11:10:07Z</time>
      </trkpt>
      <trkpt lat="31.550602521747351" lon="-4.286229684948921">
        <ele>866.28999999999996</ele>
        <time>2019-03-13T11:10:21Z</time>
      </trkpt>
      <trkpt lat="31.549984440207481" lon="-4.284913223236799">
        <ele>865.79999999999995</ele>
        <time>2019-03-13T11:10:34Z</time>
      </trkpt>
      <trkpt lat="31.549191847443581" lon="-4.283279674127698">
        <ele>865.32000000000005</ele>
        <time>2019-03-13T11:10:45Z</time>
      </trkpt>
      <trkpt lat="31.548216110095382" lon="-4.280968280509114">
        <ele>865.32000000000005</ele>
        <time>2019-03-13T11:11:00Z</time>
      </trkpt>
      <trkpt lat="31.547563327476382" lon="-4.279592810198665">
        <ele>863.88</ele>
        <time>2019-03-13T11:11:14Z</time>
      </trkpt>
      <trkpt lat="31.547496020793915" lon="-4.279487365856767">
        <ele>863.39999999999998</ele>
        <time>2019-03-13T11:11:25Z</time>
      </trkpt>
      <trkpt lat="31.546582225710154" lon="-4.27856988273561">
        <ele>861.96000000000004</ele>
        <time>2019-03-13T11:11:37Z</time>
      </trkpt>
      <trkpt lat="31.545426612719893" lon="-4.277051165699959">
        <ele>861.48000000000002</ele>
        <time>2019-03-13T11:11:51Z</time>
      </trkpt>
      <trkpt lat="31.544280974194407" lon="-4.275125171989203">
        <ele>862.91999999999996</ele>
        <time>2019-03-13T11:12:08Z</time>
      </trkpt>
      <trkpt lat="31.543169198557734" lon="-4.273042939603329">
        <ele>863.39999999999998</ele>
        <time>2019-03-13T11:12:23Z</time>
      </trkpt>
      <trkpt lat="31.542251631617546" lon="-4.271140079945326">
        <ele>862.44000000000005</ele>
        <time>2019-03-13T11:12:40Z</time>
      </trkpt>
      <trkpt lat="31.541551407426596" lon="-4.269719263538718">
        <ele>861.96000000000004</ele>
        <time>2019-03-13T11:12:56Z</time>
      </trkpt>
      <trkpt lat="31.540571143850684" lon="-4.267721101641655">
        <ele>862.44000000000005</ele>
        <time>2019-03-13T11:13:10Z</time>
      </trkpt>
      <trkpt lat="31.539883408695459" lon="-4.265812626108527">
        <ele>861.48000000000002</ele>
        <time>2019-03-13T11:13:24Z</time>
      </trkpt>
      <trkpt lat="31.53947789222002" lon="-4.264550395309925">
        <ele>862.44000000000005</ele>
        <time>2019-03-13T11:13:36Z</time>
      </trkpt>
      <trkpt lat="31.538861570879817" lon="-4.262982727959752">
        <ele>860.03999999999996</ele>
        <time>2019-03-13T11:13:48Z</time>
      </trkpt>
      <trkpt lat="31.538163358345628" lon="-4.260743083432317">
        <ele>857.63</ele>
        <time>2019-03-13T11:14:01Z</time>
      </trkpt>
      <trkpt lat="31.537389121949673" lon="-4.258086523041129">
        <ele>857.14999999999998</ele>
        <time>2019-03-13T11:14:14Z</time>
      </trkpt>
      <trkpt lat="31.536723263561726" lon="-4.255632637068629">
        <ele>857.63</ele>
        <time>2019-03-13T11:14:33Z</time>
      </trkpt>
      <trkpt lat="31.53583369217813" lon="-4.252857221290469">
        <ele>858.11000000000001</ele>
        <time>2019-03-13T11:14:50Z</time>
      </trkpt>
      <trkpt lat="31.534876059740782" lon="-4.250174928456545">
        <ele>858.11000000000001</ele>
        <time>2019-03-13T11:15:05Z</time>
      </trkpt>
      <trkpt lat="31.534048179164529" lon="-4.247948862612248">
        <ele>856.19000000000005</ele>
        <time>2019-03-13T11:15:18Z</time>
      </trkpt>
      <trkpt lat="31.533100605010986" lon="-4.245637217536569">
        <ele>854.75</ele>
        <time>2019-03-13T11:15:32Z</time>
      </trkpt>
      <trkpt lat="31.5323780849576" lon="-4.243644922971726">
        <ele>853.30999999999995</ele>
        <time>2019-03-13T11:15:47Z</time>
      </trkpt>
      <trkpt lat="31.531571997329593" lon="-4.241746924817562">
        <ele>853.30999999999995</ele>
        <time>2019-03-13T11:15:50Z</time>
      </trkpt>
      <trkpt lat="31.530626937747002" lon="-4.239805173128843">
        <ele>852.35000000000002</ele>
        <time>2019-03-13T11:16:04Z</time>
      </trkpt>
      <trkpt lat="31.529857227578759" lon="-4.237828468903899">
        <ele>852.35000000000002</ele>
        <time>2019-03-13T11:16:11Z</time>
      </trkpt>
      <trkpt lat="31.528753163293004" lon="-4.234659522771835">
        <ele>852.35000000000002</ele>
        <time>2019-03-13T11:16:16Z</time>
      </trkpt>
      <trkpt lat="31.527719255536795" lon="-4.231868265196681">
        <ele>851.38</ele>
        <time>2019-03-13T11:16:21Z</time>
      </trkpt>
      <trkpt lat="31.526661878451705" lon="-4.229580424726009">
        <ele>850.41999999999996</ele>
        <time>2019-03-13T11:16:28Z</time>
      </trkpt>
      <trkpt lat="31.525474078953266" lon="-4.227821147069335">
        <ele>850.89999999999998</ele>
        <time>2019-03-13T11:16:32Z</time>
      </trkpt>
      <trkpt lat="31.524170022457838" lon="-4.225876545533538">
        <ele>850.89999999999998</ele>
        <time>2019-03-13T11:16:36Z</time>
      </trkpt>
      <trkpt lat="31.522775860503316" lon="-4.223800348117948">
        <ele>851.38</ele>
        <time>2019-03-13T11:16:43Z</time>
      </trkpt>
      <trkpt lat="31.522507974877954" lon="-4.223395921289921">
        <ele>850.89999999999998</ele>
        <time>2019-03-13T11:16:51Z</time>
      </trkpt>
      <trkpt lat="31.521205259487033" lon="-4.221747284755111">
        <ele>850.41999999999996</ele>
        <time>2019-03-13T11:17:01Z</time>
      </trkpt>
      <trkpt lat="31.520538059994578" lon="-4.22083985991776">
        <ele>849.94000000000005</ele>
        <time>2019-03-13T11:17:02Z</time>
      </trkpt>
      <trkpt lat="31.52004704810679" lon="-4.220342058688402">
        <ele>849.94000000000005</ele>
        <time>2019-03-13T11:17:05Z</time>
      </trkpt>
      <trkpt lat="31.519615966826677" lon="-4.220082219690085">
        <ele>849.46000000000004</ele>
        <time>2019-03-13T11:17:09Z</time>
      </trkpt>
      <trkpt lat="31.519131325185299" lon="-4.219673434272409">
        <ele>848.5</ele>
        <time>2019-03-13T11:17:12Z</time>
      </trkpt>
      <trkpt lat="31.51894667185843" lon="-4.21948878094554">
        <ele>848.01999999999998</ele>
        <time>2019-03-13T11:17:23Z</time>
      </trkpt>
      <trkpt lat="31.518704937770963" lon="-4.219355257228017">
        <ele>847.53999999999996</ele>
        <time>2019-03-13T11:17:27Z</time>
      </trkpt>
      <trkpt lat="31.518172770738602" lon="-4.218903221189976">
        <ele>847.05999999999995</ele>
        <time>2019-03-13T11:17:31Z</time>
      </trkpt>
      <trkpt lat="31.517651667818427" lon="-4.218226717785001">
        <ele>846.10000000000002</ele>
        <time>2019-03-13T11:17:38Z</time>
      </trkpt>
      <trkpt lat="31.516931159421802" lon="-4.217462791129947">
        <ele>845.13999999999999</ele>
        <time>2019-03-13T11:17:41Z</time>
      </trkpt>
      <trkpt lat="31.516868798062205" lon="-4.21738869510591">
        <ele>844.65999999999997</ele>
        <time>2019-03-13T11:17:47Z</time>
      </trkpt>
      <trkpt lat="31.516743740066886" lon="-4.217170514166355">
        <ele>844.65999999999997</ele>
        <time>2019-03-13T11:17:49Z</time>
      </trkpt>
      <trkpt lat="31.51654064655304" lon="-4.216922409832478">
        <ele>844.17999999999995</ele>
        <time>2019-03-13T11:17:52Z</time>
      </trkpt>
      <trkpt lat="31.5164131578058" lon="-4.216731050983071">
        <ele>844.17999999999995</ele>
        <time>2019-03-13T11:17:55Z</time>
      </trkpt>
      <trkpt lat="31.516067069023848" lon="-4.215715499594808">
        <ele>841.76999999999998</ele>
        <time>2019-03-13T11:18:00Z</time>
      </trkpt>
      <trkpt lat="31.515898257493973" lon="-4.215345857664943">
        <ele>841.76999999999998</ele>
        <time>2019-03-13T11:20:00Z</time>
      </trkpt>
      <trkpt lat="31.515668258070946" lon="-4.215012509375811">
        <ele>841.28999999999996</ele>
        <time>2019-03-13T11:20:10Z</time>
      </trkpt>
      <trkpt lat="31.515286965295672" lon="-4.214582266286016">
        <ele>840.33000000000004</ele>
        <time>2019-03-13T11:20:14Z</time>
      </trkpt>
      <trkpt lat="31.515067694708705" lon="-4.214439354836941">
        <ele>839.85000000000002</ele>
        <time>2019-03-13T11:20:23Z</time>
      </trkpt>
      <trkpt lat="31.514625046402216" lon="-4.214089997112751">
        <ele>838.40999999999997</ele>
        <time>2019-03-13T11:20:24Z</time>
      </trkpt>
      <trkpt lat="31.514449026435614" lon="-4.214009866118431">
        <ele>838.88999999999999</ele>
        <time>2019-03-13T11:20:26Z</time>
      </trkpt>
      <trkpt lat="31.514205113053322" lon="-4.213918503373861">
        <ele>837.45000000000005</ele>
        <time>2019-03-13T11:20:36Z</time>
      </trkpt>
      <trkpt lat="31.51398953050375" lon="-4.213796546682715">
        <ele>836</ele>
        <time>2019-03-13T11:20:47Z</time>
      </trkpt>
      <trkpt lat="31.513768248260021" lon="-4.213568475097418">
        <ele>834.55999999999995</ele>
        <time>2019-03-13T11:20:55Z</time>
      </trkpt>
      <trkpt lat="31.513600023463368" lon="-4.213527571409941">
        <ele>834.08000000000004</ele>
        <time>2019-03-13T11:20:58Z</time>
      </trkpt>
      <trkpt lat="31.51354000903666" lon="-4.213510053232312">
        <ele>832.15999999999997</ele>
        <time>2019-03-13T11:21:02Z</time>
      </trkpt>
      <trkpt lat="31.513392487540841" lon="-4.213372087106109">
        <ele>830.72000000000003</ele>
        <time>2019-03-13T11:21:10Z</time>
      </trkpt>
      <trkpt lat="31.512916563078761" lon="-4.212833298370242">
        <ele>831.20000000000005</ele>
        <time>2019-03-13T11:21:15Z</time>
      </trkpt>
      <trkpt lat="31.512862080708146" lon="-4.21276330947876">
        <ele>831.20000000000005</ele>
        <time>2019-03-13T11:21:26Z</time>
      </trkpt>
      <trkpt lat="31.512755462899804" lon="-4.212659122422338">
        <ele>831.67999999999995</ele>
        <time>2019-03-13T11:21:36Z</time>
      </trkpt>
      <trkpt lat="31.512059345841408" lon="-4.211877090856433">
        <ele>831.67999999999995</ele>
        <time>2019-03-13T11:21:47Z</time>
      </trkpt>
      <trkpt lat="31.511263651773334" lon="-4.21096907928586">
        <ele>830.72000000000003</ele>
        <time>2019-03-13T11:21:51Z</time>
      </trkpt>
      <trkpt lat="31.510851178318262" lon="-4.210335072129965">
        <ele>830.24000000000001</ele>
        <time>2019-03-13T11:22:03Z</time>
      </trkpt>
      <trkpt lat="31.510706674307585" lon="-4.210149915888906">
        <ele>830.72000000000003</ele>
        <time>2019-03-13T11:22:13Z</time>
      </trkpt>
      <trkpt lat="31.510513303801417" lon="-4.209844395518303">
        <ele>829.26999999999998</ele>
        <time>2019-03-13T11:22:14Z</time>
      </trkpt>
      <trkpt lat="31.510004522278905" lon="-4.209344917908311">
        <ele>829.75999999999999</ele>
        <time>2019-03-13T11:22:20Z</time>
      </trkpt>
      <trkpt lat="31.509662372991443" lon="-4.208958093076944">
        <ele>829.26999999999998</ele>
        <time>2019-03-13T11:22:32Z</time>
      </trkpt>
      <trkpt lat="31.509031970053911" lon="-4.207953773438931">
        <ele>829.75999999999999</ele>
        <time>2019-03-13T11:22:34Z</time>
      </trkpt>
      <trkpt lat="31.508520841598511" lon="-4.207247849553824">
        <ele>829.75999999999999</ele>
        <time>2019-03-13T11:22:45Z</time>
      </trkpt>
      <trkpt lat="31.507968557998538" lon="-4.206250319257379">
        <ele>828.78999999999996</ele>
        <time>2019-03-13T11:23:03Z</time>
      </trkpt>
      <trkpt lat="31.507857833057642" lon="-4.20597237534821">
        <ele>828.78999999999996</ele>
        <time>2019-03-13T11:23:06Z</time>
      </trkpt>
      <trkpt lat="31.507372269406915" lon="-4.205116499215365">
        <ele>828.78999999999996</ele>
        <time>2019-03-13T11:23:13Z</time>
      </trkpt>
      <trkpt lat="31.506960466504097" lon="-4.204471008852124">
        <ele>828.78999999999996</ele>
        <time>2019-03-13T11:23:25Z</time>
      </trkpt>
      <trkpt lat="31.506927106529474" lon="-4.204416694119573">
        <ele>828.78999999999996</ele>
        <time>2019-03-13T11:23:40Z</time>
      </trkpt>
      <trkpt lat="31.506659220904112" lon="-4.204043950885534">
        <ele>826.38999999999999</ele>
        <time>2019-03-13T11:23:52Z</time>
      </trkpt>
      <trkpt lat="31.506181620061398" lon="-4.203174244612455">
        <ele>824.95000000000005</ele>
        <time>2019-03-13T11:24:01Z</time>
      </trkpt>
      <trkpt lat="31.506106602028012" lon="-4.203048180788755">
        <ele>823.50999999999999</ele>
        <time>2019-03-13T11:24:19Z</time>
      </trkpt>
      <trkpt lat="31.505812900140882" lon="-4.202436469495297">
        <ele>822.05999999999995</ele>
        <time>2019-03-13T11:24:29Z</time>
      </trkpt>
      <trkpt lat="31.505807200446725" lon="-4.20243026688695">
        <ele>822.05999999999995</ele>
        <time>2019-03-13T11:24:46Z</time>
      </trkpt>
      <trkpt lat="31.505705444142222" lon="-4.202391039580107">
        <ele>821.58000000000004</ele>
        <time>2019-03-13T11:25:07Z</time>
      </trkpt>
      <trkpt lat="31.505128601565957" lon="-4.202376706525683">
        <ele>821.58000000000004</ele>
        <time>2019-03-13T11:25:23Z</time>
      </trkpt>
      <trkpt lat="31.503650201484561" lon="-4.202182330191135">
        <ele>821.58000000000004</ele>
        <time>2019-03-13T11:25:37Z</time>
      </trkpt>
      <trkpt lat="31.501405946910381" lon="-4.201895082369447">
        <ele>822.05999999999995</ele>
        <time>2019-03-13T11:25:38Z</time>
      </trkpt>
      <trkpt lat="31.499674413353205" lon="-4.201776562258601">
        <time>2019-03-13T11:25:39Z</time>
      </trkpt>
      <trkpt lat="31.498401537537575" lon="-4.202190628275275">
        <time>2019-03-13T11:25:40Z</time>
      </trkpt>
      <trkpt lat="31.495817145332694" lon="-4.203505413606763">
        <time>2019-03-13T11:25:41Z</time>
      </trkpt>
      <trkpt lat="31.494464306160808" lon="-4.204486515372992">
        <time>2019-03-13T11:25:47Z</time>
      </trkpt>
      <trkpt lat="31.49238626472652" lon="-4.206831771880388"/>
      <trkpt lat="31.489964984357357" lon="-4.209589585661888"/>
      <trkpt lat="31.488213082775474" lon="-4.211587747558951"/>
      <trkpt lat="31.486896118149161" lon="-4.213085258379579"/>
      <trkpt lat="31.486862674355507" lon="-4.21313563361764"/>
      <trkpt lat="31.486846078187227" lon="-4.213177124038339"/>
      <trkpt lat="31.486844904720783" lon="-4.213211992755532"/>
      <trkpt lat="31.486854460090399" lon="-4.213238563388586"/>
      <trkpt lat="31.486969878897071" lon="-4.213401926681399"/>
      <trkpt lat="31.487149083986878" lon="-4.21356906183064">
        <ele>813.348389</ele>
        <time>2019-04-15T14:16:34Z</time>
      </trkpt>
      <trkpt lat="31.442100964486599" lon="-4.230277966707945">
        <ele>0</ele>
        <time>2019-03-13T11:33:39Z</time>
      </trkpt>
      <trkpt lat="31.288223303854465" lon="-4.093415653333068">
        <ele>755.68658400000004</ele>
        <time>2019-04-15T14:22:39Z</time>
      </trkpt>
      <trkpt lat="31.214398015290499" lon="-4.030545009300113">
        <ele>744.78955099999996</ele>
        <time>2019-03-13T13:39:45Z</time>
      </trkpt>
      <trkpt lat="31.20325000025332" lon="-4.027883000671864">
        <ele>712.456909</ele>
        <time>2019-03-13T13:41:38Z</time>
      </trkpt>
      <trkpt lat="31.097803981974721" lon="-4.009772976860404">
        <ele>690.84252900000001</ele>
        <time>2019-03-13T14:10:18Z</time>
      </trkpt>
      <trkpt lat="31.100395331159234" lon="-4.017954468727112">
        <ele>635.32293700000002</ele>
        <time>2019-04-21T16:26:54Z</time>
      </trkpt>
      <trkpt lat="30.910154962912202" lon="-3.990229982882738">
        <ele>634.25860599999999</ele>
        <time>2019-03-13T14:31:39Z</time>
      </trkpt>
      <trkpt lat="30.751659376546741" lon="-4.193145800381899">
        <ele>639.660706</ele>
        <time>2019-04-15T14:28:50Z</time>
      </trkpt>
      <trkpt lat="30.71283096447587" lon="-4.356290996074677">
        <ele>643.32104500000003</ele>
        <time>2019-03-14T08:25:19Z</time>
      </trkpt>
      <trkpt lat="30.686071990057826" lon="-4.416311038658023">
        <ele>648.12268099999994</ele>
        <time>2019-03-14T08:37:14Z</time>
      </trkpt>
      <trkpt lat="30.694637037813663" lon="-4.419214027002454">
        <ele>646.72582999999997</ele>
        <time>2019-03-14T09:08:32Z</time>
      </trkpt>
      <trkpt lat="30.709208976477385" lon="-4.44688000716269">
        <ele>662.02941899999996</ele>
        <time>2019-03-14T09:15:16Z</time>
      </trkpt>
      <trkpt lat="30.719134993851185" lon="-4.5331019628793">
        <ele>660.98651099999995</ele>
        <time>2019-03-14T09:50:19Z</time>
      </trkpt>
      <trkpt lat="30.717955995351076" lon="-4.544748030602932">
        <ele>653.51617399999998</ele>
        <time>2019-03-14T09:52:16Z</time>
      </trkpt>
      <trkpt lat="30.6775529589504" lon="-4.694399032741785">
        <ele>665.61633300000005</ele>
        <time>2019-03-14T10:17:06Z</time>
      </trkpt>
      <trkpt lat="30.669361995533109" lon="-4.686631020158529">
        <ele>661.74896200000001</ele>
        <time>2019-03-14T11:17:36Z</time>
      </trkpt>
      <trkpt lat="30.664782961830497" lon="-4.693739041686058">
        <ele>843.22039800000005</ele>
        <time>2019-03-14T11:19:35Z</time>
      </trkpt>
      <trkpt lat="30.640892023220658" lon="-4.750190572813153">
        <ele>785.544983</ele>
        <time>2019-04-15T14:47:49Z</time>
      </trkpt>
      <trkpt lat="30.637099966406822" lon="-4.811506038531661">
        <ele>822.05999999999995</ele>
        <time>2019-03-14T11:42:29Z</time>
      </trkpt>
      <trkpt lat="30.631979964673519" lon="-4.86601104028523">
        <ele>823.02999999999997</ele>
        <time>2019-03-14T11:50:28Z</time>
      </trkpt>
      <trkpt lat="30.545155014842749" lon="-5.334444008767605">
        <ele>822.54999999999995</ele>
        <time>2019-03-14T12:41:43Z</time>
      </trkpt>
      <trkpt lat="30.398333994671702" lon="-5.665518036112189">
        <ele>822.05999999999995</ele>
        <time>2019-03-14T14:59:27Z</time>
      </trkpt>
      <trkpt lat="30.239333063364029" lon="-5.602702628821135">
        <ele>822.05999999999995</ele>
        <time>2019-04-15T14:56:23Z</time>
      </trkpt>
      <trkpt lat="31.487149083986878" lon="-4.21356906183064">
        <ele>822.05999999999995</ele>
        <time>2019-03-13T11:26:25Z</time>
      </trkpt>
      <trkpt lat="31.486906511709094" lon="-4.213329507037997">
        <ele>822.05999999999995</ele>
        <time>2019-03-13T11:26:32Z</time>
      </trkpt>
      <trkpt lat="31.486838702112436" lon="-4.213280640542507">
        <ele>821.10000000000002</ele>
        <time>2019-03-13T11:26:34Z</time>
      </trkpt>
      <trkpt lat="31.486814981326461" lon="-4.213272929191589">
        <ele>821.10000000000002</ele>
        <time>2019-03-13T11:26:35Z</time>
      </trkpt>
      <trkpt lat="31.486685900017619" lon="-4.21329933218658">
        <ele>821.10000000000002</ele>
        <time>2019-03-13T11:26:40Z</time>
      </trkpt>
      <trkpt lat="31.486652120947838" lon="-4.213335542008281">
        <ele>821.10000000000002</ele>
        <time>2019-03-13T11:26:41Z</time>
      </trkpt>
      <trkpt lat="31.486220452934504" lon="-4.213855220004916">
        <ele>820.62</ele>
        <time>2019-03-13T11:26:49Z</time>
      </trkpt>
      <trkpt lat="31.485258881002665" lon="-4.214948890730739">
        <ele>821.58000000000004</ele>
        <time>2019-03-13T11:27:01Z</time>
      </trkpt>
      <trkpt lat="31.483939988538623" lon="-4.216345399618149">
        <ele>821.58000000000004</ele>
        <time>2019-03-13T11:27:16Z</time>
      </trkpt>
      <trkpt lat="31.48286584764719" lon="-4.216802883893251">
        <ele>822.05999999999995</ele>
        <time>2019-03-13T11:27:26Z</time>
      </trkpt>
      <trkpt lat="31.481272783130407" lon="-4.21680917032063">
        <ele>821.10000000000002</ele>
        <time>2019-03-13T11:27:39Z</time>
      </trkpt>
      <trkpt lat="31.479294821619987" lon="-4.216739684343338">
        <ele>820.62</ele>
        <time>2019-03-13T11:27:53Z</time>
      </trkpt>
      <trkpt lat="31.476717302575707" lon="-4.216655697673559">
        <ele>820.62</ele>
        <time>2019-03-13T11:28:09Z</time>
      </trkpt>
      <trkpt lat="31.474049258977175" lon="-4.216470709070563">
        <ele>820.62</ele>
        <time>2019-03-13T11:28:25Z</time>
      </trkpt>
      <trkpt lat="31.472772443667054" lon="-4.216434666886926">
        <ele>820.62</ele>
        <time>2019-03-13T11:28:34Z</time>
      </trkpt>
      <trkpt lat="31.471003526821733" lon="-4.216936742886901">
        <ele>820.62</ele>
        <time>2019-03-13T11:28:47Z</time>
      </trkpt>
      <trkpt lat="31.469695279374719" lon="-4.217418786138296">
        <ele>820.13999999999999</ele>
        <time>2019-03-13T11:28:57Z</time>
      </trkpt>
      <trkpt lat="31.469449773430824" lon="-4.217454744502902">
        <ele>820.13999999999999</ele>
        <time>2019-03-13T11:28:59Z</time>
      </trkpt>
      <trkpt lat="31.469337372109294" lon="-4.217440830543637">
        <ele>819.17999999999995</ele>
        <time>2019-03-13T11:29:00Z</time>
      </trkpt>
      <trkpt lat="31.469232682138681" lon="-4.217401267960668">
        <ele>818.70000000000005</ele>
        <time>2019-03-13T11:29:01Z</time>
      </trkpt>
      <trkpt lat="31.469139056280255" lon="-4.217334883287549">
        <ele>818.70000000000005</ele>
        <time>2019-03-13T11:29:02Z</time>
      </trkpt>
      <trkpt lat="31.469059847295284" lon="-4.217251734808087">
        <ele>818.22000000000003</ele>
        <time>2019-03-13T11:29:03Z</time>
      </trkpt>
      <trkpt lat="31.468992037698627" lon="-4.217164143919945">
        <ele>817.74000000000001</ele>
        <time>2019-03-13T11:29:04Z</time>
      </trkpt>
      <trkpt lat="31.468330454081297" lon="-4.216448077932">
        <ele>817.74000000000001</ele>
        <time>2019-03-13T11:29:13Z</time>
      </trkpt>
      <trkpt lat="31.468235990032554" lon="-4.216386890038848">
        <ele>817.74000000000001</ele>
        <time>2019-03-13T11:29:14Z</time>
      </trkpt>
      <trkpt lat="31.468137754127383" lon="-4.216343052685261">
        <ele>818.22000000000003</ele>
        <time>2019-03-13T11:29:15Z</time>
      </trkpt>
      <trkpt lat="31.468037087470293" lon="-4.216321595013142">
        <ele>818.22000000000003</ele>
        <time>2019-03-13T11:29:16Z</time>
      </trkpt>
      <trkpt lat="31.467930385842919" lon="-4.216322684660554">
        <ele>818.70000000000005</ele>
        <time>2019-03-13T11:29:17Z</time>
      </trkpt>
      <trkpt lat="31.467822594568133" lon="-4.216348081827164">
        <ele>819.17999999999995</ele>
        <time>2019-03-13T11:29:18Z</time>
      </trkpt>
      <trkpt lat="31.467716060578823" lon="-4.216392086818814">
        <ele>819.17999999999995</ele>
        <time>2019-03-13T11:29:19Z</time>
      </trkpt>
      <trkpt lat="31.467613885179162" lon="-4.216449670493603">
        <ele>818.70000000000005</ele>
        <time>2019-03-13T11:29:20Z</time>
      </trkpt>
      <trkpt lat="31.467515733093023" lon="-4.216510271653533">
        <ele>818.70000000000005</ele>
        <time>2019-03-13T11:29:21Z</time>
      </trkpt>
      <trkpt lat="31.466691708192229" lon="-4.216930288821459">
        <ele>818.70000000000005</ele>
        <time>2019-03-13T11:29:31Z</time>
      </trkpt>
      <trkpt lat="31.46640638820827" lon="-4.217038583010435">
        <ele>818.22000000000003</ele>
        <time>2019-03-13T11:29:35Z</time>
      </trkpt>
      <trkpt lat="31.466323994100094" lon="-4.217083426192403">
        <ele>818.22000000000003</ele>
        <time>2019-03-13T11:29:36Z</time>
      </trkpt>
      <trkpt lat="31.466141687706113" lon="-4.217174621298909">
        <ele>818.22000000000003</ele>
        <time>2019-03-13T11:29:38Z</time>
      </trkpt>
      <trkpt lat="31.46604236215353" lon="-4.217195827513933">
        <ele>817.74000000000001</ele>
        <time>2019-03-13T11:29:39Z</time>
      </trkpt>
      <trkpt lat="31.465940857306123" lon="-4.217194737866521">
        <ele>817.74000000000001</ele>
        <time>2019-03-13T11:29:40Z</time>
      </trkpt>
      <trkpt lat="31.465835999697447" lon="-4.217168167233467">
        <ele>817.74000000000001</ele>
        <time>2019-03-13T11:29:41Z</time>
      </trkpt>
      <trkpt lat="31.465726951137185" lon="-4.21712776646018">
        <ele>818.22000000000003</ele>
        <time>2019-03-13T11:29:42Z</time>
      </trkpt>
      <trkpt lat="31.465614382177591" lon="-4.217080995440483">
        <ele>818.22000000000003</ele>
        <time>2019-03-13T11:29:43Z</time>
      </trkpt>
      <trkpt lat="31.464134221896529" lon="-4.216591827571392">
        <ele>818.70000000000005</ele>
        <time>2019-03-13T11:29:55Z</time>
      </trkpt>
      <trkpt lat="31.464005559682846" lon="-4.216602724045515">
        <ele>819.65999999999997</ele>
        <time>2019-03-13T11:29:56Z</time>
      </trkpt>
      <trkpt lat="31.463878154754639" lon="-4.216632647439838">
        <ele>819.65999999999997</ele>
        <time>2019-03-13T11:29:57Z</time>
      </trkpt>
      <trkpt lat="31.463750582188368" lon="-4.216678580269218">
        <ele>819.65999999999997</ele>
        <time>2019-03-13T11:29:58Z</time>
      </trkpt>
      <trkpt lat="31.463626530021429" lon="-4.216738762333989">
        <ele>819.65999999999997</ele>
        <time>2019-03-13T11:29:59Z</time>
      </trkpt>
      <trkpt lat="31.463505998253822" lon="-4.216807745397091">
        <ele>819.65999999999997</ele>
        <time>2019-03-13T11:30:00Z</time>
      </trkpt>
      <trkpt lat="31.462927311658859" lon="-4.217259446159005">
        <ele>819.65999999999997</ele>
        <time>2019-03-13T11:30:07Z</time>
      </trkpt>
      <trkpt lat="31.462822118774056" lon="-4.217370925471187">
        <ele>819.65999999999997</ele>
        <time>2019-03-13T11:30:10Z</time>
      </trkpt>
      <trkpt lat="31.462776102125645" lon="-4.217401519417763">
        <ele>819.65999999999997</ele>
        <time>2019-03-13T11:30:11Z</time>
      </trkpt>
      <trkpt lat="31.462720530107617" lon="-4.217440243810415">
        <ele>820.13999999999999</ele>
        <time>2019-03-13T11:30:12Z</time>
      </trkpt>
      <trkpt lat="31.462658923119307" lon="-4.21749665401876">
        <ele>819.65999999999997</ele>
        <time>2019-03-13T11:30:13Z</time>
      </trkpt>
      <trkpt lat="31.462595053017139" lon="-4.217565720900893">
        <ele>817.74000000000001</ele>
        <time>2019-03-13T11:30:14Z</time>
      </trkpt>
      <trkpt lat="31.462530512362719" lon="-4.217640403658152">
        <ele>816.77999999999997</ele>
        <time>2019-03-13T11:30:15Z</time>
      </trkpt>
      <trkpt lat="31.461687879636884" lon="-4.218359319493175">
        <ele>815.82000000000005</ele>
        <time>2019-03-13T11:30:25Z</time>
      </trkpt>
      <trkpt lat="31.460817335173488" lon="-4.219240760430694">
        <ele>815.34000000000003</ele>
        <time>2019-03-13T11:30:34Z</time>
      </trkpt>
      <trkpt lat="31.459564240649343" lon="-4.220598209649324">
        <ele>814.85000000000002</ele>
        <time>2019-03-13T11:30:46Z</time>
      </trkpt>
      <trkpt lat="31.45838113501668" lon="-4.221663298085332">
        <ele>814.85000000000002</ele>
        <time>2019-03-13T11:30:56Z</time>
      </trkpt>
      <trkpt lat="31.457175482064486" lon="-4.222232177853584">
        <ele>814.85000000000002</ele>
        <time>2019-03-13T11:31:05Z</time>
      </trkpt>
      <trkpt lat="31.455192323774099" lon="-4.223729437217116">
        <ele>814.85000000000002</ele>
        <time>2019-03-13T11:31:21Z</time>
      </trkpt>
      <trkpt lat="31.453922549262643" lon="-4.224829729646444">
        <ele>815.34000000000003</ele>
        <time>2019-03-13T11:31:32Z</time>
      </trkpt>
      <trkpt lat="31.452496033161879" lon="-4.225789122283459">
        <ele>815.34000000000003</ele>
        <time>2019-03-13T11:31:44Z</time>
      </trkpt>
      <trkpt lat="31.45153496414423" lon="-4.226047117263079">
        <ele>815.34000000000003</ele>
        <time>2019-03-13T11:31:52Z</time>
      </trkpt>
      <trkpt lat="31.44954040646553" lon="-4.226441066712141">
        <ele>814.37</ele>
        <time>2019-03-13T11:32:07Z</time>
      </trkpt>
      <trkpt lat="31.448225621134043" lon="-4.227014891803265">
        <ele>814.37</ele>
        <time>2019-03-13T11:32:18Z</time>
      </trkpt>
      <trkpt lat="31.447246195748448" lon="-4.227465586736798">
        <ele>813.88999999999999</ele>
        <time>2019-03-13T11:32:28Z</time>
      </trkpt>
      <trkpt lat="31.446991553530097" lon="-4.227556362748146">
        <ele>813.88999999999999</ele>
        <time>2019-03-13T11:32:36Z</time>
      </trkpt>
      <trkpt lat="31.446501631289721" lon="-4.227727269753814">
        <ele>813.40999999999997</ele>
        <time>2019-03-13T11:32:44Z</time>
      </trkpt>
      <trkpt lat="31.445557828992605" lon="-4.22815315425396">
        <ele>813.40999999999997</ele>
        <time>2019-03-13T11:32:55Z</time>
      </trkpt>
      <trkpt lat="31.445371666923165" lon="-4.228274943307042">
        <ele>813.88999999999999</ele>
        <time>2019-03-13T11:32:58Z</time>
      </trkpt>
      <trkpt lat="31.44531718455255" lon="-4.228332275524736">
        <ele>813.88999999999999</ele>
        <time>2019-03-13T11:32:59Z</time>
      </trkpt>
      <trkpt lat="31.445272844284773" lon="-4.228398660197854">
        <ele>813.88999999999999</ele>
        <time>2019-03-13T11:33:00Z</time>
      </trkpt>
      <trkpt lat="31.44523018039763" lon="-4.228461943566799">
        <ele>813.88999999999999</ele>
        <time>2019-03-13T11:33:01Z</time>
      </trkpt>
      <trkpt lat="31.445178464055061" lon="-4.228503769263625">
        <ele>813.88999999999999</ele>
        <time>2019-03-13T11:33:02Z</time>
      </trkpt>
      <trkpt lat="31.445118030533195" lon="-4.228520365431905">
        <ele>813.88999999999999</ele>
        <time>2019-03-13T11:33:03Z</time>
      </trkpt>
      <trkpt lat="31.445051310583949" lon="-4.228524556383491">
        <ele>813.40999999999997</ele>
        <time>2019-03-13T11:33:04Z</time>
      </trkpt>
      <trkpt lat="31.444980315864086" lon="-4.228534111753106">
        <ele>813.40999999999997</ele>
        <time>2019-03-13T11:33:05Z</time>
      </trkpt>
      <trkpt lat="31.444906638935208" lon="-4.228557161986828">
        <ele>817.74000000000001</ele>
        <time>2019-03-13T11:33:06Z</time>
      </trkpt>
      <trkpt lat="31.444836901500821" lon="-4.228590102866292">
        <ele>819.65999999999997</ele>
        <time>2019-03-13T11:33:07Z</time>
      </trkpt>
      <trkpt lat="31.444139275699854" lon="-4.229049850255251">
        <ele>821.10000000000002</ele>
        <time>2019-03-13T11:33:16Z</time>
      </trkpt>
      <trkpt lat="31.442716531455517" lon="-4.229999436065555">
        <ele>822.54999999999995</ele>
        <time>2019-03-13T11:33:30Z</time>
      </trkpt>
      <trkpt lat="31.442129546776414" lon="-4.23026405274868">
        <ele>825.42999999999995</ele>
        <time>2019-03-13T11:33:38Z</time>
      </trkpt>
      <trkpt lat="31.441405015066266" lon="-4.230568315833807">
        <ele>825.42999999999995</ele>
        <time>2019-03-13T13:03:10Z</time>
      </trkpt>
      <trkpt lat="31.440681573003531" lon="-4.230875344946981">
        <ele>824.47000000000003</ele>
        <time>2019-03-13T13:03:24Z</time>
      </trkpt>
      <trkpt lat="31.439733160659671" lon="-4.231309024617076">
        <ele>823.50999999999999</ele>
        <time>2019-03-13T13:03:36Z</time>
      </trkpt>
      <trkpt lat="31.43867326900363" lon="-4.231769274920225">
        <ele>821.10000000000002</ele>
        <time>2019-03-13T13:03:50Z</time>
      </trkpt>
      <trkpt lat="31.437917724251747" lon="-4.232108322903514">
        <ele>820.62</ele>
        <time>2019-03-13T13:04:04Z</time>
      </trkpt>
      <trkpt lat="31.43727483227849" lon="-4.232440916821361">
        <ele>820.62</ele>
        <time>2019-03-13T13:04:15Z</time>
      </trkpt>
      <trkpt lat="31.436191638931632" lon="-4.232972413301468">
        <ele>820.62</ele>
        <time>2019-03-13T13:04:30Z</time>
      </trkpt>
      <trkpt lat="31.435630386695266" lon="-4.233280532062054">
        <ele>820.62</ele>
        <time>2019-03-13T13:04:40Z</time>
      </trkpt>
      <trkpt lat="31.435583028942347" lon="-4.233313640579581">
        <ele>820.62</ele>
        <time>2019-03-13T13:04:51Z</time>
      </trkpt>
      <trkpt lat="31.435542125254869" lon="-4.233320010825992">
        <ele>820.62</ele>
        <time>2019-03-13T13:04:52Z</time>
      </trkpt>
      <trkpt lat="31.435497365891933" lon="-4.233314227312803">
        <ele>822.54999999999995</ele>
        <time>2019-03-13T13:04:53Z</time>
      </trkpt>
      <trkpt lat="31.435454869642854" lon="-4.233291009441018">
        <ele>822.05999999999995</ele>
        <time>2019-03-13T13:04:54Z</time>
      </trkpt>
      <trkpt lat="31.435419414192438" lon="-4.233249519020319">
        <ele>820.62</ele>
        <time>2019-03-13T13:04:55Z</time>
      </trkpt>
      <trkpt lat="31.435387646779418" lon="-4.233193527907133">
        <ele>820.62</ele>
        <time>2019-03-13T13:04:56Z</time>
      </trkpt>
      <trkpt lat="31.435355376452208" lon="-4.233127478510141">
        <ele>821.10000000000002</ele>
        <time>2019-03-13T13:04:57Z</time>
      </trkpt>
      <trkpt lat="31.435021692886949" lon="-4.232451729476452">
        <ele>822.05999999999995</ele>
        <time>2019-03-13T13:05:06Z</time>
      </trkpt>
      <trkpt lat="31.434618858620524" lon="-4.231580682098866">
        <ele>819.65999999999997</ele>
        <time>2019-03-13T13:05:17Z</time>
      </trkpt>
      <trkpt lat="31.434403778985143" lon="-4.231137949973345">
        <ele>816.77999999999997</ele>
        <time>2019-03-13T13:05:24Z</time>
      </trkpt>
      <trkpt lat="31.434380477294326" lon="-4.231079192832112">
        <ele>813.40999999999997</ele>
        <time>2019-03-13T13:05:25Z</time>
      </trkpt>
      <trkpt lat="31.434350721538067" lon="-4.231018340215087">
        <ele>811.97000000000003</ele>
        <time>2019-03-13T13:05:26Z</time>
      </trkpt>
      <trkpt lat="31.433886867016554" lon="-4.230123655870557">
        <ele>812.92999999999995</ele>
        <time>2019-03-13T13:05:41Z</time>
      </trkpt>
      <trkpt lat="31.433611605316401" lon="-4.229565672576428">
        <ele>813.40999999999997</ele>
        <time>2019-03-13T13:05:53Z</time>
      </trkpt>
      <trkpt lat="31.433249339461327" lon="-4.22886117361486">
        <ele>814.37</ele>
        <time>2019-03-13T13:06:08Z</time>
      </trkpt>
      <trkpt lat="31.43275941722095" lon="-4.227935560047627">
        <ele>814.85000000000002</ele>
        <time>2019-03-13T13:06:22Z</time>
      </trkpt>
      <trkpt lat="31.432056175544858" lon="-4.226600825786591">
        <ele>819.65999999999997</ele>
        <time>2019-03-13T13:06:35Z</time>
      </trkpt>
      <trkpt lat="31.431203065440059" lon="-4.224899634718895">
        <ele>823.99000000000001</ele>
        <time>2019-03-13T13:06:47Z</time>
      </trkpt>
      <trkpt lat="31.431147996336222" lon="-4.224728811532259">
        <ele>824.47000000000003</ele>
        <time>2019-03-13T13:06:48Z</time>
      </trkpt>
      <trkpt lat="31.431104578077793" lon="-4.224544912576675">
        <ele>823.99000000000001</ele>
        <time>2019-03-13T13:06:49Z</time>
      </trkpt>
      <trkpt lat="31.431072307750583" lon="-4.224351122975349">
        <ele>819.17999999999995</ele>
        <time>2019-03-13T13:06:50Z</time>
      </trkpt>
      <trkpt lat="31.43086208961904" lon="-4.222435271367431">
        <ele>816.77999999999997</ele>
        <time>2019-03-13T13:06:59Z</time>
      </trkpt>
      <trkpt lat="31.430299580097198" lon="-4.220979670062661">
        <ele>817.74000000000001</ele>
        <time>2019-03-13T13:07:07Z</time>
      </trkpt>
      <trkpt lat="31.429146900773048" lon="-4.218490077182651">
        <ele>816.77999999999997</ele>
        <time>2019-03-13T13:07:20Z</time>
      </trkpt>
      <trkpt lat="31.428031353279948" lon="-4.217257015407085">
        <ele>812.45000000000005</ele>
        <time>2019-03-13T13:07:28Z</time>
      </trkpt>
      <trkpt lat="31.425228361040354" lon="-4.214440863579512">
        <ele>807.15999999999997</ele>
        <time>2019-03-13T13:07:46Z</time>
      </trkpt>
      <trkpt lat="31.422459650784731" lon="-4.211652539670467">
        <ele>802.84000000000003</ele>
        <time>2019-03-13T13:08:02Z</time>
      </trkpt>
      <trkpt lat="31.41903187148273" lon="-4.208204643800855">
        <ele>797.54999999999995</ele>
        <time>2019-03-13T13:08:21Z</time>
      </trkpt>
      <trkpt lat="31.416330132633448" lon="-4.205809347331524">
        <ele>791.29999999999995</ele>
        <time>2019-03-13T13:08:35Z</time>
      </trkpt>
      <trkpt lat="31.411879006773233" lon="-4.2020183801651">
        <ele>787.94000000000005</ele>
        <time>2019-03-13T13:08:57Z</time>
      </trkpt>
      <trkpt lat="31.407318077981472" lon="-4.198116771876812">
        <ele>787.94000000000005</ele>
        <time>2019-03-13T13:09:19Z</time>
      </trkpt>
      <trkpt lat="31.403950396925211" lon="-4.195235325023532">
        <ele>788.41999999999996</ele>
        <time>2019-03-13T13:09:36Z</time>
      </trkpt>
      <trkpt lat="31.399786099791527" lon="-4.19168533757329">
        <ele>787.46000000000004</ele>
        <time>2019-03-13T13:09:57Z</time>
      </trkpt>
      <trkpt lat="31.395346624776721" lon="-4.187883138656616">
        <ele>786.98000000000002</ele>
        <time>2019-03-13T13:10:19Z</time>
      </trkpt>
      <trkpt lat="31.390790306031704" lon="-4.184016985818744">
        <ele>786.98000000000002</ele>
        <time>2019-03-13T13:10:42Z</time>
      </trkpt>
      <trkpt lat="31.388801364228129" lon="-4.182013962417841">
        <ele>786.98000000000002</ele>
        <time>2019-03-13T13:10:53Z</time>
      </trkpt>
      <trkpt lat="31.386287128552794" lon="-4.178366241976619">
        <ele>786.98000000000002</ele>
        <time>2019-03-13T13:11:10Z</time>
      </trkpt>
      <trkpt lat="31.383620509877801" lon="-4.174519032239914">
        <ele>787.46000000000004</ele>
        <time>2019-03-13T13:11:29Z</time>
      </trkpt>
      <trkpt lat="31.383215161040425" lon="-4.174101864919066">
        <ele>787.46000000000004</ele>
        <time>2019-03-13T13:11:32Z</time>
      </trkpt>
      <trkpt lat="31.383064454421401" lon="-4.174008574336767">
        <ele>787.46000000000004</ele>
        <time>2019-03-13T13:11:33Z</time>
      </trkpt>
      <trkpt lat="31.382901091128588" lon="-4.173942189663649">
        <ele>787.46000000000004</ele>
        <time>2019-03-13T13:11:34Z</time>
      </trkpt>
      <trkpt lat="31.382724987342954" lon="-4.173903465270996">
        <ele>785.52999999999997</ele>
        <time>2019-03-13T13:11:35Z</time>
      </trkpt>
      <trkpt lat="31.382543602958322" lon="-4.17388753965497">
        <ele>784.57000000000005</ele>
        <time>2019-03-13T13:11:36Z</time>
      </trkpt>
      <trkpt lat="31.382357189431787" lon="-4.173887707293034">
        <ele>786.01999999999998</ele>
        <time>2019-03-13T13:11:37Z</time>
      </trkpt>
      <trkpt lat="31.379936411976814" lon="-4.173803720623255">
        <ele>786.01999999999998</ele>
        <time>2019-03-13T13:11:49Z</time>
      </trkpt>
      <trkpt lat="31.378787336871028" lon="-4.173219418153167">
        <ele>786.5</ele>
        <time>2019-03-13T13:11:55Z</time>
      </trkpt>
      <trkpt lat="31.37737381272018" lon="-4.171807067468762">
        <ele>786.5</ele>
        <time>2019-03-13T13:12:03Z</time>
      </trkpt>
      <trkpt lat="31.373704634606838" lon="-4.168031858280301">
        <ele>786.5</ele>
        <time>2019-03-13T13:12:23Z</time>
      </trkpt>
      <trkpt lat="31.371557945385575" lon="-4.165668748319149">
        <ele>786.5</ele>
        <time>2019-03-13T13:12:36Z</time>
      </trkpt>
      <trkpt lat="31.371448645368218" lon="-4.165456937626004">
        <ele>786.98000000000002</ele>
        <time>2019-03-13T13:12:37Z</time>
      </trkpt>
      <trkpt lat="31.371357198804617" lon="-4.165238672867417">
        <ele>788.41999999999996</ele>
        <time>2019-03-13T13:12:38Z</time>
      </trkpt>
      <trkpt lat="31.371281929314137" lon="-4.165011439472437">
        <ele>797.07000000000005</ele>
        <time>2019-03-13T13:12:39Z</time>
      </trkpt>
      <trkpt lat="31.371220657601953" lon="-4.164773980155587">
        <ele>783.61000000000001</ele>
        <time>2019-03-13T13:12:40Z</time>
      </trkpt>
      <trkpt lat="31.371173551306129" lon="-4.164527971297503">
        <ele>782.64999999999998</ele>
        <time>2019-03-13T13:12:41Z</time>
      </trkpt>
      <trkpt lat="31.371134323999286" lon="-4.164278190582991">
        <ele>783.61000000000001</ele>
        <time>2019-03-13T13:12:42Z</time>
      </trkpt>
      <trkpt lat="31.370557062327862" lon="-4.159937370568514">
        <ele>784.09000000000003</ele>
        <time>2019-03-13T13:12:59Z</time>
      </trkpt>
      <trkpt lat="31.370114162564278" lon="-4.156554099172354">
        <ele>785.04999999999995</ele>
        <time>2019-03-13T13:13:13Z</time>
      </trkpt>
      <trkpt lat="31.369776707142591" lon="-4.153756722807884">
        <ele>785.04999999999995</ele>
        <time>2019-03-13T13:13:24Z</time>
      </trkpt>
      <trkpt lat="31.369021246209741" lon="-4.1506337095052">
        <ele>784.57000000000005</ele>
        <time>2019-03-13T13:13:37Z</time>
      </trkpt>
      <trkpt lat="31.368174757808447" lon="-4.149585468694568">
        <ele>784.57000000000005</ele>
        <time>2019-03-13T13:13:43Z</time>
      </trkpt>
      <trkpt lat="31.364895673468709" lon="-4.146462623029947">
        <ele>784.57000000000005</ele>
        <time>2019-03-13T13:14:02Z</time>
      </trkpt>
      <trkpt lat="31.363003961741924" lon="-4.144379552453756">
        <ele>784.57000000000005</ele>
        <time>2019-03-13T13:14:13Z</time>
      </trkpt>
      <trkpt lat="31.359932413324714" lon="-4.140686485916376">
        <ele>784.57000000000005</ele>
        <time>2019-03-13T13:14:31Z</time>
      </trkpt>
      <trkpt lat="31.356438752263784" lon="-4.136473909020424">
        <ele>785.04999999999995</ele>
        <time>2019-03-13T13:14:52Z</time>
      </trkpt>
      <trkpt lat="31.355484137311578" lon="-4.13540312089026">
        <ele>784.57000000000005</ele>
        <time>2019-03-13T13:14:58Z</time>
      </trkpt>
      <trkpt lat="31.355304680764675" lon="-4.135280577465892">
        <ele>784.57000000000005</ele>
        <time>2019-03-13T13:14:59Z</time>
      </trkpt>
      <trkpt lat="31.355116674676538" lon="-4.135186448693276">
        <ele>783.13</ele>
        <time>2019-03-13T13:15:00Z</time>
      </trkpt>
      <trkpt lat="31.354919364675879" lon="-4.135121237486601">
        <ele>780.25</ele>
        <time>2019-03-13T13:15:01Z</time>
      </trkpt>
      <trkpt lat="31.354714008048177" lon="-4.135084021836519">
        <ele>779.28999999999996</ele>
        <time>2019-03-13T13:15:02Z</time>
      </trkpt>
      <trkpt lat="31.354503957554698" lon="-4.135072203353047">
        <ele>777.84000000000003</ele>
        <time>2019-03-13T13:15:03Z</time>
      </trkpt>
      <trkpt lat="31.354290470480919" lon="-4.135074215009809">
        <ele>777.84000000000003</ele>
        <time>2019-03-13T13:15:04Z</time>
      </trkpt>
      <trkpt lat="31.351503320038319" lon="-4.135197009891272">
        <ele>776.88</ele>
        <time>2019-03-13T13:15:16Z</time>
      </trkpt>
      <trkpt lat="31.346748769283295" lon="-4.135353667661548">
        <ele>775.44000000000005</ele>
        <time>2019-03-13T13:15:36Z</time>
      </trkpt>
      <trkpt lat="31.345361731946468" lon="-4.134992826730013">
        <ele>773.51999999999998</ele>
        <time>2019-03-13T13:15:42Z</time>
      </trkpt>
      <trkpt lat="31.34408793412149" lon="-4.134113565087318">
        <ele>772.08000000000004</ele>
        <time>2019-03-13T13:15:48Z</time>
      </trkpt>
      <trkpt lat="31.340853441506624" lon="-4.131149807944894">
        <ele>772.08000000000004</ele>
        <time>2019-03-13T13:16:04Z</time>
      </trkpt>
      <trkpt lat="31.336481105536222" lon="-4.127166979014874">
        <ele>771.11000000000001</ele>
        <time>2019-03-13T13:16:25Z</time>
      </trkpt>
      <trkpt lat="31.333467978984118" lon="-4.12443389184773">
        <ele>771.11000000000001</ele>
        <time>2019-03-13T13:16:40Z</time>
      </trkpt>
      <trkpt lat="31.329892762005329" lon="-4.121187077835202">
        <ele>771.11000000000001</ele>
        <time>2019-03-13T13:16:59Z</time>
      </trkpt>
      <trkpt lat="31.326682660728693" lon="-4.118259781971574">
        <ele>770.63</ele>
        <time>2019-03-13T13:17:16Z</time>
      </trkpt>
      <trkpt lat="31.325047099962831" lon="-4.116217028349638">
        <ele>770.63</ele>
        <time>2019-03-13T13:17:26Z</time>
      </trkpt>
      <trkpt lat="31.323774727061391" lon="-4.114537965506315">
        <ele>770.14999999999998</ele>
        <time>2019-03-13T13:17:35Z</time>
      </trkpt>
      <trkpt lat="31.323686046525836" lon="-4.114371165633202">
        <ele>770.63</ele>
        <time>2019-03-13T13:17:36Z</time>
      </trkpt>
      <trkpt lat="31.323616309091449" lon="-4.114191625267267">
        <ele>769.19000000000005</ele>
        <time>2019-03-13T13:17:37Z</time>
      </trkpt>
      <trkpt lat="31.323559647426009" lon="-4.114002780988812">
        <ele>767.75</ele>
        <time>2019-03-13T13:17:38Z</time>
      </trkpt>
      <trkpt lat="31.323516648262739" lon="-4.113806979730725">
        <ele>766.78999999999996</ele>
        <time>2019-03-13T13:17:39Z</time>
      </trkpt>
      <trkpt lat="31.323485048487782" lon="-4.113606819882989">
        <ele>765.83000000000004</ele>
        <time>2019-03-13T13:17:40Z</time>
      </trkpt>
      <trkpt lat="31.322995126247406" lon="-4.111855002120137">
        <ele>768.23000000000002</ele>
        <time>2019-03-13T13:17:49Z</time>
      </trkpt>
      <trkpt lat="31.32219691760838" lon="-4.110808521509171">
        <ele>771.11000000000001</ele>
        <time>2019-03-13T13:17:55Z</time>
      </trkpt>
      <trkpt lat="31.320259775966406" lon="-4.109089057892561">
        <ele>772.55999999999995</ele>
        <time>2019-03-13T13:18:06Z</time>
      </trkpt>
      <trkpt lat="31.318304277956486" lon="-4.106899788603187">
        <ele>771.60000000000002</ele>
        <time>2019-03-13T13:18:18Z</time>
      </trkpt>
      <trkpt lat="31.316940626129508" lon="-4.105563377961516">
        <ele>769.19000000000005</ele>
        <time>2019-03-13T13:18:27Z</time>
      </trkpt>
      <trkpt lat="31.315948711708188" lon="-4.104085899889469">
        <ele>769.66999999999996</ele>
        <time>2019-03-13T13:18:37Z</time>
      </trkpt>
      <trkpt lat="31.315097697079182" lon="-4.102191003039479">
        <ele>769.66999999999996</ele>
        <time>2019-03-13T13:18:50Z</time>
      </trkpt>
      <trkpt lat="31.314053228124976" lon="-4.099856140092015">
        <ele>770.14999999999998</ele>
        <time>2019-03-13T13:19:02Z</time>
      </trkpt>
      <trkpt lat="31.312536774203181" lon="-4.096464738249779">
        <ele>772.08000000000004</ele>
        <time>2019-03-13T13:19:17Z</time>
      </trkpt>
      <trkpt lat="31.311449389904737" lon="-4.093629894778132">
        <ele>771.11000000000001</ele>
        <time>2019-03-13T13:19:29Z</time>
      </trkpt>
      <trkpt lat="31.311294408515096" lon="-4.093195712193847">
        <ele>770.63</ele>
        <time>2019-03-13T13:19:31Z</time>
      </trkpt>
      <trkpt lat="31.310562919825315" lon="-4.092198684811592">
        <ele>770.14999999999998</ele>
        <time>2019-03-13T13:19:37Z</time>
      </trkpt>
      <trkpt lat="31.310398550704122" lon="-4.092091144993901">
        <ele>770.14999999999998</ele>
        <time>2019-03-13T13:19:38Z</time>
      </trkpt>
      <trkpt lat="31.307750288397074" lon="-4.090723469853401">
        <ele>770.63</ele>
        <time>2019-03-13T13:19:52Z</time>
      </trkpt>
      <trkpt lat="31.306032836437225" lon="-4.090327005833387">
        <ele>770.63</ele>
        <time>2019-03-13T13:20:00Z</time>
      </trkpt>
      <trkpt lat="31.302427863702178" lon="-4.08971730619669">
        <ele>770.63</ele>
        <time>2019-03-13T13:20:17Z</time>
      </trkpt>
      <trkpt lat="31.301414156332612" lon="-4.089666176587343">
        <ele>770.63</ele>
        <time>2019-03-13T13:20:23Z</time>
      </trkpt>
      <trkpt lat="31.301253223791718" lon="-4.089705152437091">
        <ele>770.14999999999998</ele>
        <time>2019-03-13T13:20:24Z</time>
      </trkpt>
      <trkpt lat="31.301093632355332" lon="-4.089757036417723">
        <ele>768.23000000000002</ele>
        <time>2019-03-13T13:20:25Z</time>
      </trkpt>
      <trkpt lat="31.299623446539044" lon="-4.090534122660756">
        <ele>768.23000000000002</ele>
        <time>2019-03-13T13:20:34Z</time>
      </trkpt>
      <trkpt lat="31.299316920340061" lon="-4.090795386582613">
        <ele>766.30999999999995</ele>
        <time>2019-03-13T13:20:36Z</time>
      </trkpt>
      <trkpt lat="31.299180882051587" lon="-4.090949445962906">
        <ele>766.30999999999995</ele>
        <time>2019-03-13T13:20:37Z</time>
      </trkpt>
      <trkpt lat="31.297644730657339" lon="-4.09306051209569">
        <ele>766.30999999999995</ele>
        <time>2019-03-13T13:20:49Z</time>
      </trkpt>
      <trkpt lat="31.295729717239738" lon="-4.095700811594725">
        <ele>766.30999999999995</ele>
        <time>2019-03-13T13:21:04Z</time>
      </trkpt>
      <trkpt lat="31.294986410066485" lon="-4.096717704087496">
        <ele>765.83000000000004</ele>
        <time>2019-03-13T13:21:11Z</time>
      </trkpt>
      <trkpt lat="31.294242097064853" lon="-4.097068989649415">
        <ele>765.83000000000004</ele>
        <time>2019-03-13T13:21:17Z</time>
      </trkpt>
      <trkpt lat="31.294100945815444" lon="-4.097067983821034">
        <ele>767.26999999999998</ele>
        <time>2019-03-13T13:21:18Z</time>
      </trkpt>
      <trkpt lat="31.293960213661194" lon="-4.097048034891486">
        <ele>768.71000000000004</ele>
        <time>2019-03-13T13:21:19Z</time>
      </trkpt>
      <trkpt lat="31.293820822611451" lon="-4.097006712108851">
        <ele>769.19000000000005</ele>
        <time>2019-03-13T13:21:20Z</time>
      </trkpt>
      <trkpt lat="31.293682521209121" lon="-4.096950385719538">
        <ele>769.19000000000005</ele>
        <time>2019-03-13T13:21:21Z</time>
      </trkpt>
      <trkpt lat="31.293544722720981" lon="-4.096885425969958">
        <ele>769.19000000000005</ele>
        <time>2019-03-13T13:21:22Z</time>
      </trkpt>
      <trkpt lat="31.291509009897709" lon="-4.095784965902567">
        <ele>769.19000000000005</ele>
        <time>2019-03-13T13:21:36Z</time>
      </trkpt>
      <trkpt lat="31.289199879392982" lon="-4.09422542899847">
        <ele>767.75</ele>
        <time>2019-03-13T13:21:52Z</time>
      </trkpt>
      <trkpt lat="31.288341321051121" lon="-4.093510368838906">
        <ele>768.23000000000002</ele>
        <time>2019-03-13T13:22:00Z</time>
      </trkpt>
      <trkpt lat="31.288242163136601" lon="-4.093426801264286">
        <ele>767.75</ele>
        <time>2019-03-13T13:22:02Z</time>
      </trkpt>
      <trkpt lat="31.288203941658139" lon="-4.093418167904019">
        <ele>768.71000000000004</ele>
        <time>2019-03-13T13:22:03Z</time>
      </trkpt>
      <trkpt lat="31.288168653845787" lon="-4.093426465988159">
        <ele>770.14999999999998</ele>
        <time>2019-03-13T13:22:04Z</time>
      </trkpt>
      <trkpt lat="31.287658615037799" lon="-4.093470638617873">
        <ele>771.11000000000001</ele>
        <time>2019-03-13T13:22:16Z</time>
      </trkpt>
      <trkpt lat="31.286682961508632" lon="-4.09326184540987">
        <ele>769.66999999999996</ele>
        <time>2019-03-13T13:22:29Z</time>
      </trkpt>
      <trkpt lat="31.285362727940083" lon="-4.092716602608562">
        <ele>771.11000000000001</ele>
        <time>2019-03-13T13:22:42Z</time>
      </trkpt>
      <trkpt lat="31.283670924603939" lon="-4.091831305995584">
        <ele>770.63</ele>
        <time>2019-03-13T13:22:56Z</time>
      </trkpt>
      <trkpt lat="31.281554158776999" lon="-4.090483747422695">
        <ele>765.83000000000004</ele>
        <time>2019-03-13T13:23:13Z</time>
      </trkpt>
      <trkpt lat="31.279946090653539" lon="-4.089356129989028">
        <ele>763.89999999999998</ele>
        <time>2019-03-13T13:23:27Z</time>
      </trkpt>
      <trkpt lat="31.27816510386765" lon="-4.087905222550035">
        <ele>766.30999999999995</ele>
        <time>2019-03-13T13:23:43Z</time>
      </trkpt>
      <trkpt lat="31.275948593392968" lon="-4.086710046976805">
        <ele>766.78999999999996</ele>
        <time>2019-03-13T13:23:59Z</time>
      </trkpt>
      <trkpt lat="31.274695498868823" lon="-4.085940420627594">
        <ele>763.89999999999998</ele>
        <time>2019-03-13T13:24:09Z</time>
      </trkpt>
      <trkpt lat="31.273682797327638" lon="-4.085260229185224">
        <ele>763.41999999999996</ele>
        <time>2019-03-13T13:24:18Z</time>
      </trkpt>
      <trkpt lat="31.273176530376077" lon="-4.085040120407939">
        <ele>763.89999999999998</ele>
        <time>2019-03-13T13:24:25Z</time>
      </trkpt>
      <trkpt lat="31.272220239043236" lon="-4.084567129611969">
        <ele>763.89999999999998</ele>
        <time>2019-03-13T13:24:35Z</time>
      </trkpt>
      <trkpt lat="31.27131943590939" lon="-4.083808735013008">
        <ele>764.38999999999999</ele>
        <time>2019-03-13T13:24:45Z</time>
      </trkpt>
      <trkpt lat="31.270498763769865" lon="-4.083332475274801">
        <ele>767.26999999999998</ele>
        <time>2019-03-13T13:24:53Z</time>
      </trkpt>
      <trkpt lat="31.26970156095922" lon="-4.082923186942935">
        <ele>768.23000000000002</ele>
        <time>2019-03-13T13:25:02Z</time>
      </trkpt>
      <trkpt lat="31.269103260710835" lon="-4.08263904042542">
        <ele>769.19000000000005</ele>
        <time>2019-03-13T13:25:08Z</time>
      </trkpt>
      <trkpt lat="31.268864125013351" lon="-4.082411471754313">
        <ele>770.14999999999998</ele>
        <time>2019-03-13T13:25:12Z</time>
      </trkpt>
      <trkpt lat="31.268419045954943" lon="-4.082125900313258">
        <ele>775.44000000000005</ele>
        <time>2019-03-13T13:25:21Z</time>
      </trkpt>
      <trkpt lat="31.267671044915915" lon="-4.081639582291246">
        <ele>773.51999999999998</ele>
        <time>2019-03-13T13:25:31Z</time>
      </trkpt>
      <trkpt lat="31.266522975638509" lon="-4.08098210580647">
        <ele>773.03999999999996</ele>
        <time>2019-03-13T13:25:41Z</time>
      </trkpt>
      <trkpt lat="31.264956397935748" lon="-4.080137796700001">
        <ele>772.55999999999995</ele>
        <time>2019-03-13T13:25:53Z</time>
      </trkpt>
      <trkpt lat="31.262526148930192" lon="-4.078802894800901">
        <ele>772.08000000000004</ele>
        <time>2019-03-13T13:26:11Z</time>
      </trkpt>
      <trkpt lat="31.260706102475524" lon="-4.077854817733169">
        <ele>770.14999999999998</ele>
        <time>2019-03-13T13:26:25Z</time>
      </trkpt>
      <trkpt lat="31.258573997765779" lon="-4.076729463413358">
        <ele>768.71000000000004</ele>
        <time>2019-03-13T13:26:42Z</time>
      </trkpt>
      <trkpt lat="31.257028207182884" lon="-4.075916167348623">
        <ele>769.19000000000005</ele>
        <time>2019-03-13T13:26:54Z</time>
      </trkpt>
      <trkpt lat="31.255482751876116" lon="-4.074915032833815">
        <ele>769.66999999999996</ele>
        <time>2019-03-13T13:27:06Z</time>
      </trkpt>
      <trkpt lat="31.254260083660483" lon="-4.07402453944087">
        <ele>770.63</ele>
        <time>2019-03-13T13:27:16Z</time>
      </trkpt>
      <trkpt lat="31.253358358517289" lon="-4.073421712964773">
        <ele>770.63</ele>
        <time>2019-03-13T13:27:26Z</time>
      </trkpt>
      <trkpt lat="31.252950327470899" lon="-4.073126083239913">
        <ele>770.63</ele>
        <time>2019-03-13T13:27:35Z</time>
      </trkpt>
      <trkpt lat="31.252762405201793" lon="-4.073035977780819">
        <ele>771.11000000000001</ele>
        <time>2019-03-13T13:27:38Z</time>
      </trkpt>
      <trkpt lat="31.252496615052223" lon="-4.072817461565137">
        <ele>771.11000000000001</ele>
        <time>2019-03-13T13:27:43Z</time>
      </trkpt>
      <trkpt lat="31.252063354477286" lon="-4.072644207626581">
        <ele>772.08000000000004</ele>
        <time>2019-03-13T13:27:50Z</time>
      </trkpt>
      <trkpt lat="31.251169508323073" lon="-4.072358217090368">
        <ele>769.66999999999996</ele>
        <time>2019-03-13T13:28:01Z</time>
      </trkpt>
      <trkpt lat="31.250597191974521" lon="-4.072131821885705">
        <ele>768.23000000000002</ele>
        <time>2019-03-13T13:28:10Z</time>
      </trkpt>
      <trkpt lat="31.250161752104759" lon="-4.072032496333122">
        <ele>767.75</ele>
        <time>2019-03-13T13:28:16Z</time>
      </trkpt>
      <trkpt lat="31.249179225414991" lon="-4.071396812796593">
        <ele>763.41999999999996</ele>
        <time>2019-03-13T13:28:27Z</time>
      </trkpt>
      <trkpt lat="31.248025372624397" lon="-4.070710754022002">
        <ele>761.5</ele>
        <time>2019-03-13T13:28:37Z</time>
      </trkpt>
      <trkpt lat="31.246547643095255" lon="-4.069891339167953">
        <ele>760.05999999999995</ele>
        <time>2019-03-13T13:28:49Z</time>
      </trkpt>
      <trkpt lat="31.246128128841519" lon="-4.069649940356612">
        <ele>760.05999999999995</ele>
        <time>2019-03-13T13:28:55Z</time>
      </trkpt>
      <trkpt lat="31.246096529066563" lon="-4.06963518820703">
        <ele>760.05999999999995</ele>
        <time>2019-03-13T13:28:56Z</time>
      </trkpt>
      <trkpt lat="31.245487667620182" lon="-4.069326315075159">
        <ele>759.58000000000004</ele>
        <time>2019-03-13T13:29:06Z</time>
      </trkpt>
      <trkpt lat="31.244262736290693" lon="-4.068620558828116">
        <ele>759.58000000000004</ele>
        <time>2019-03-13T13:29:19Z</time>
      </trkpt>
      <trkpt lat="31.243497971445322" lon="-4.06821621581912">
        <ele>758.62</ele>
        <time>2019-03-13T13:29:29Z</time>
      </trkpt>
      <trkpt lat="31.243351958692074" lon="-4.068157626315951">
        <ele>757.65999999999997</ele>
        <time>2019-03-13T13:29:32Z</time>
      </trkpt>
      <trkpt lat="31.243129670619965" lon="-4.068041453137994">
        <ele>757.65999999999997</ele>
        <time>2019-03-13T13:29:37Z</time>
      </trkpt>
      <trkpt lat="31.242456855252385" lon="-4.067590339109302">
        <ele>759.10000000000002</ele>
        <time>2019-03-13T13:29:49Z</time>
      </trkpt>
      <trkpt lat="31.241704747080803" lon="-4.067199658602476">
        <ele>760.53999999999996</ele>
        <time>2019-03-13T13:29:58Z</time>
      </trkpt>
      <trkpt lat="31.240727500990033" lon="-4.066492393612862">
        <ele>761.01999999999998</ele>
        <time>2019-03-13T13:30:08Z</time>
      </trkpt>
      <trkpt lat="31.239650258794427" lon="-4.065497377887368">
        <ele>761.5</ele>
        <time>2019-03-13T13:30:19Z</time>
      </trkpt>
      <trkpt lat="31.238932097330689" lon="-4.06494626775384">
        <ele>762.46000000000004</ele>
        <time>2019-03-13T13:30:29Z</time>
      </trkpt>
      <trkpt lat="31.237950325012207" lon="-4.064208408817649">
        <ele>763.41999999999996</ele>
        <time>2019-03-13T13:30:38Z</time>
      </trkpt>
      <trkpt lat="31.236871154978871" lon="-4.063188498839736">
        <ele>763.89999999999998</ele>
        <time>2019-03-13T13:30:48Z</time>
      </trkpt>
      <trkpt lat="31.236407300457358" lon="-4.06278558075428">
        <ele>764.38999999999999</ele>
        <time>2019-03-13T13:30:54Z</time>
      </trkpt>
      <trkpt lat="31.236279560253024" lon="-4.062685165554285">
        <ele>764.87</ele>
        <time>2019-03-13T13:30:57Z</time>
      </trkpt>
      <trkpt lat="31.23602282255888" lon="-4.062516186386347">
        <ele>764.87</ele>
        <time>2019-03-13T13:31:04Z</time>
      </trkpt>
      <trkpt lat="31.235538432374597" lon="-4.061921155080199">
        <ele>764.38999999999999</ele>
        <time>2019-03-13T13:31:13Z</time>
      </trkpt>
      <trkpt lat="31.235266188159585" lon="-4.061564253643155">
        <ele>765.83000000000004</ele>
        <time>2019-03-13T13:31:18Z</time>
      </trkpt>
      <trkpt lat="31.23511103913188" lon="-4.061427293345332">
        <ele>766.78999999999996</ele>
        <time>2019-03-13T13:31:22Z</time>
      </trkpt>
      <trkpt lat="31.234619272872806" lon="-4.061034433543682">
        <ele>767.75</ele>
        <time>2019-03-13T13:31:32Z</time>
      </trkpt>
      <trkpt lat="31.234493963420391" lon="-4.060898395255208">
        <ele>767.26999999999998</ele>
        <time>2019-03-13T13:31:39Z</time>
      </trkpt>
      <trkpt lat="31.23414795845747" lon="-4.06067811883986">
        <ele>767.75</ele>
        <time>2019-03-13T13:31:46Z</time>
      </trkpt>
      <trkpt lat="31.233443291857839" lon="-4.060011841356754">
        <ele>768.23000000000002</ele>
        <time>2019-03-13T13:31:55Z</time>
      </trkpt>
      <trkpt lat="31.232419945299625" lon="-4.058711137622595">
        <ele>768.71000000000004</ele>
        <time>2019-03-13T13:32:08Z</time>
      </trkpt>
      <trkpt lat="31.231821225956082" lon="-4.058079980313778">
        <ele>770.14999999999998</ele>
        <time>2019-03-13T13:32:17Z</time>
      </trkpt>
      <trkpt lat="31.230969289317727" lon="-4.057385036721826">
        <ele>771.11000000000001</ele>
        <time>2019-03-13T13:32:27Z</time>
      </trkpt>
      <trkpt lat="31.229916187003255" lon="-4.056900646537542">
        <ele>770.14999999999998</ele>
        <time>2019-03-13T13:32:37Z</time>
      </trkpt>
      <trkpt lat="31.229582084342837" lon="-4.056666791439056">
        <ele>771.11000000000001</ele>
        <time>2019-03-13T13:32:41Z</time>
      </trkpt>
      <trkpt lat="31.229014964774251" lon="-4.056194638833404">
        <ele>769.66999999999996</ele>
        <time>2019-03-13T13:32:50Z</time>
      </trkpt>
      <trkpt lat="31.22828833758831" lon="-4.055555518716574">
        <ele>770.63</ele>
        <time>2019-03-13T13:32:59Z</time>
      </trkpt>
      <trkpt lat="31.227130629122257" lon="-4.054524293169379">
        <ele>771.11000000000001</ele>
        <time>2019-03-13T13:33:11Z</time>
      </trkpt>
      <trkpt lat="31.226472984999418" lon="-4.05398047529161">
        <ele>772.08000000000004</ele>
        <time>2019-03-13T13:33:19Z</time>
      </trkpt>
      <trkpt lat="31.225741831585765" lon="-4.053258039057255">
        <ele>774</ele>
        <time>2019-03-13T13:33:29Z</time>
      </trkpt>
      <trkpt lat="31.224826360121369" lon="-4.052799548953772">
        <ele>774.48000000000002</ele>
        <time>2019-03-13T13:33:39Z</time>
      </trkpt>
      <trkpt lat="31.224480690434575" lon="-4.052469469606876">
        <ele>774.48000000000002</ele>
        <time>2019-03-13T13:33:43Z</time>
      </trkpt>
      <trkpt lat="31.223621880635619" lon="-4.051780477166176">
        <ele>773.51999999999998</ele>
        <time>2019-03-13T13:33:53Z</time>
      </trkpt>
      <trkpt lat="31.222873209044337" lon="-4.05111369676888">
        <ele>772.55999999999995</ele>
        <time>2019-03-13T13:34:02Z</time>
      </trkpt>
      <trkpt lat="31.222232747823" lon="-4.050230914726853">
        <ele>771.60000000000002</ele>
        <time>2019-03-13T13:34:11Z</time>
      </trkpt>
      <trkpt lat="31.222192514687777" lon="-4.050146173685789">
        <ele>770.14999999999998</ele>
        <time>2019-03-13T13:34:12Z</time>
      </trkpt>
      <trkpt lat="31.222045496106148" lon="-4.049262721091509">
        <ele>769.19000000000005</ele>
        <time>2019-03-13T13:34:21Z</time>
      </trkpt>
      <trkpt lat="31.221929574385285" lon="-4.048021277412772">
        <ele>764.87</ele>
        <time>2019-03-13T13:34:32Z</time>
      </trkpt>
      <trkpt lat="31.221881713718176" lon="-4.047570750117302">
        <ele>764.38999999999999</ele>
        <time>2019-03-13T13:34:37Z</time>
      </trkpt>
      <trkpt lat="31.221916079521179" lon="-4.047192726284266">
        <ele>762.94000000000005</ele>
        <time>2019-03-13T13:34:41Z</time>
      </trkpt>
      <trkpt lat="31.222012052312493" lon="-4.046786706894636">
        <ele>762.46000000000004</ele>
        <time>2019-03-13T13:34:45Z</time>
      </trkpt>
      <trkpt lat="31.221896214410663" lon="-4.046394601464272">
        <ele>761.5</ele>
        <time>2019-03-13T13:34:50Z</time>
      </trkpt>
      <trkpt lat="31.221174113452435" lon="-4.045494804158807">
        <ele>760.53999999999996</ele>
        <time>2019-03-13T13:35:00Z</time>
      </trkpt>
      <trkpt lat="31.22095107100904" lon="-4.045151062309742">
        <ele>760.53999999999996</ele>
        <time>2019-03-13T13:35:04Z</time>
      </trkpt>
      <trkpt lat="31.220759125426412" lon="-4.04424942098558">
        <ele>760.05999999999995</ele>
        <time>2019-03-13T13:35:13Z</time>
      </trkpt>
      <trkpt lat="31.220723753795028" lon="-4.04375396668911">
        <ele>759.10000000000002</ele>
        <time>2019-03-13T13:35:20Z</time>
      </trkpt>
      <trkpt lat="31.220533819869161" lon="-4.042924325913191">
        <ele>758.62</ele>
        <time>2019-03-13T13:35:28Z</time>
      </trkpt>
      <trkpt lat="31.220268532633781" lon="-4.041722444817424">
        <ele>758.13999999999999</ele>
        <time>2019-03-13T13:35:38Z</time>
      </trkpt>
      <trkpt lat="31.220234166830778" lon="-4.041623286902905">
        <ele>758.13999999999999</ele>
        <time>2019-03-13T13:35:39Z</time>
      </trkpt>
      <trkpt lat="31.220108773559332" lon="-4.040318308398128">
        <ele>757.65999999999997</ele>
        <time>2019-03-13T13:35:51Z</time>
      </trkpt>
      <trkpt lat="31.220107097178698" lon="-4.038933450356126">
        <ele>757.65999999999997</ele>
        <time>2019-03-13T13:36:06Z</time>
      </trkpt>
      <trkpt lat="31.220108103007078" lon="-4.038809649646282">
        <ele>758.62</ele>
        <time>2019-03-13T13:36:08Z</time>
      </trkpt>
      <trkpt lat="31.220017159357667" lon="-4.038253342732787">
        <ele>759.10000000000002</ele>
        <time>2019-03-13T13:36:18Z</time>
      </trkpt>
      <trkpt lat="31.220050938427448" lon="-4.038088554516435">
        <ele>757.65999999999997</ele>
        <time>2019-03-13T13:36:22Z</time>
      </trkpt>
      <trkpt lat="31.220106678083539" lon="-4.037792170420289">
        <ele>758.13999999999999</ele>
        <time>2019-03-13T13:36:34Z</time>
      </trkpt>
      <trkpt lat="31.220127297565341" lon="-4.037382127717137">
        <ele>758.62</ele>
        <time>2019-03-13T13:36:53Z</time>
      </trkpt>
      <trkpt lat="31.220173900946975" lon="-4.036880722269416">
        <ele>759.10000000000002</ele>
        <time>2019-03-13T13:37:13Z</time>
      </trkpt>
      <trkpt lat="31.220162166282535" lon="-4.036521725356579">
        <ele>759.10000000000002</ele>
        <time>2019-03-13T13:37:29Z</time>
      </trkpt>
      <trkpt lat="31.220160238444805" lon="-4.035917725414038">
        <ele>759.10000000000002</ele>
        <time>2019-03-13T13:37:44Z</time>
      </trkpt>
      <trkpt lat="31.220175409689546" lon="-4.035569876432419">
        <ele>759.10000000000002</ele>
        <time>2019-03-13T13:37:54Z</time>
      </trkpt>
      <trkpt lat="31.220150012522936" lon="-4.034825479611754">
        <ele>759.10000000000002</ele>
        <time>2019-03-13T13:38:04Z</time>
      </trkpt>
      <trkpt lat="31.220144312828779" lon="-4.034089297056198">
        <ele>758.13999999999999</ele>
        <time>2019-03-13T13:38:13Z</time>
      </trkpt>
      <trkpt lat="31.219801409170032" lon="-4.033778328448534">
        <ele>758.13999999999999</ele>
        <time>2019-03-13T13:38:20Z</time>
      </trkpt>
      <trkpt lat="31.218956261873245" lon="-4.033229146152735">
        <ele>756.69000000000005</ele>
        <time>2019-03-13T13:38:31Z</time>
      </trkpt>
      <trkpt lat="31.218165345489979" lon="-4.032705361023545">
        <ele>756.69000000000005</ele>
        <time>2019-03-13T13:38:41Z</time>
      </trkpt>
      <trkpt lat="31.218092758208513" lon="-4.03263671323657">
        <ele>756.69000000000005</ele>
        <time>2019-03-13T13:38:42Z</time>
      </trkpt>
      <trkpt lat="31.217789836227894" lon="-4.0322604496032">
        <ele>756.21000000000004</ele>
        <time>2019-03-13T13:38:47Z</time>
      </trkpt>
      <trkpt lat="31.216879980638623" lon="-4.03174689039588">
        <ele>755.25</ele>
        <time>2019-03-13T13:38:57Z</time>
      </trkpt>
      <trkpt lat="31.216558618471026" lon="-4.031650833785534">
        <ele>755.73000000000002</ele>
        <time>2019-03-13T13:39:01Z</time>
      </trkpt>
      <trkpt lat="31.216175649315119" lon="-4.031446315348148">
        <ele>753.33000000000004</ele>
        <time>2019-03-13T13:39:07Z</time>
      </trkpt>
      <trkpt lat="31.215783376246691" lon="-4.031131071969867">
        <ele>751.40999999999997</ele>
        <time>2019-03-13T13:39:14Z</time>
      </trkpt>
      <trkpt lat="31.21511684730649" lon="-4.030766040086746">
        <ele>750.45000000000005</ele>
        <time>2019-03-13T13:39:25Z</time>
      </trkpt>
      <trkpt lat="31.214542351663113" lon="-4.030612148344517">
        <ele>750.45000000000005</ele>
        <time>2019-03-13T13:39:35Z</time>
      </trkpt>
      <trkpt lat="31.214403128251433" lon="-4.030547188594937">
        <ele>746.60000000000002</ele>
        <time>2019-03-13T13:39:45Z</time>
      </trkpt>
      <trkpt lat="31.213916977867484" lon="-4.030463201925159">
        <ele>744.20000000000005</ele>
        <time>2019-03-13T13:39:59Z</time>
      </trkpt>
      <trkpt lat="31.21317945420742" lon="-4.030306963250041">
        <ele>742.75999999999999</ele>
        <time>2019-03-13T13:40:10Z</time>
      </trkpt>
      <trkpt lat="31.212831605225801" lon="-4.030215851962566">
        <ele>741.30999999999995</ele>
        <time>2019-03-13T13:40:14Z</time>
      </trkpt>
      <trkpt lat="31.212506387382746" lon="-4.030100265517831">
        <ele>742.27999999999997</ele>
        <time>2019-03-13T13:40:18Z</time>
      </trkpt>
      <trkpt lat="31.211174167692661" lon="-4.029794577509165">
        <ele>743.72000000000003</ele>
        <time>2019-03-13T13:40:30Z</time>
      </trkpt>
      <trkpt lat="31.209206935018301" lon="-4.029287388548255">
        <ele>744.67999999999995</ele>
        <time>2019-03-13T13:40:44Z</time>
      </trkpt>
      <trkpt lat="31.207501804456115" lon="-4.028897294774652">
        <ele>745.63999999999999</ele>
        <time>2019-03-13T13:40:56Z</time>
      </trkpt>
      <trkpt lat="31.206231024116278" lon="-4.028666624799371">
        <ele>748.51999999999998</ele>
        <time>2019-03-13T13:41:07Z</time>
      </trkpt>
      <trkpt lat="31.20531102642417" lon="-4.028311399742961">
        <ele>749.49000000000001</ele>
        <time>2019-03-13T13:41:17Z</time>
      </trkpt>
      <trkpt lat="31.204205118119717" lon="-4.028025241568685">
        <ele>749</ele>
        <time>2019-03-13T13:41:28Z</time>
      </trkpt>
      <trkpt lat="31.203358294442296" lon="-4.027893142774701">
        <ele>749</ele>
        <time>2019-03-13T13:41:37Z</time>
      </trkpt>
      <trkpt lat="31.202931320294738" lon="-4.028026079759002">
        <ele>749</ele>
        <time>2019-03-13T13:41:42Z</time>
      </trkpt>
      <trkpt lat="31.20201232843101" lon="-4.028686657547951">
        <ele>749.49000000000001</ele>
        <time>2019-03-13T13:41:52Z</time>
      </trkpt>
      <trkpt lat="31.201251000165939" lon="-4.028879692777991">
        <ele>749.97000000000003</ele>
        <time>2019-03-13T13:42:00Z</time>
      </trkpt>
      <trkpt lat="31.201161062344909" lon="-4.028911627829075">
        <ele>749.97000000000003</ele>
        <time>2019-03-13T13:42:01Z</time>
      </trkpt>
      <trkpt lat="31.200800975784659" lon="-4.028899138793349">
        <ele>749.49000000000001</ele>
        <time>2019-03-13T13:42:05Z</time>
      </trkpt>
      <trkpt lat="31.200421694666147" lon="-4.028936186805368">
        <ele>748.51999999999998</ele>
        <time>2019-03-13T13:42:09Z</time>
      </trkpt>
      <trkpt lat="31.199844600632787" lon="-4.029010785743594">
        <ele>749</ele>
        <time>2019-03-13T13:42:15Z</time>
      </trkpt>
      <trkpt lat="31.199583252891898" lon="-4.029124695807695">
        <ele>748.51999999999998</ele>
        <time>2019-03-13T13:42:19Z</time>
      </trkpt>
      <trkpt lat="31.199437407776713" lon="-4.029228463768959">
        <ele>744.67999999999995</ele>
        <time>2019-03-13T13:42:21Z</time>
      </trkpt>
      <trkpt lat="31.199084026739001" lon="-4.029366513714194">
        <ele>742.75999999999999</ele>
        <time>2019-03-13T13:42:25Z</time>
      </trkpt>
      <trkpt lat="31.198821505531669" lon="-4.029377913102508">
        <ele>741.30999999999995</ele>
        <time>2019-03-13T13:42:28Z</time>
      </trkpt>
      <trkpt lat="31.198471141979098" lon="-4.029557704925537">
        <ele>741.30999999999995</ele>
        <time>2019-03-13T13:42:33Z</time>
      </trkpt>
      <trkpt lat="31.198367541655898" lon="-4.029691480100155">
        <ele>740.35000000000002</ele>
        <time>2019-03-13T13:42:35Z</time>
      </trkpt>
      <trkpt lat="31.197698749601841" lon="-4.030094146728516">
        <ele>739.87</ele>
        <time>2019-03-13T13:42:45Z</time>
      </trkpt>
      <trkpt lat="31.197026101872325" lon="-4.03051164932549">
        <ele>739.38999999999999</ele>
        <time>2019-03-13T13:42:52Z</time>
      </trkpt>
      <trkpt lat="31.196253374218941" lon="-4.030828149989247">
        <ele>739.38999999999999</ele>
        <time>2019-03-13T13:43:00Z</time>
      </trkpt>
      <trkpt lat="31.1959049385041" lon="-4.031228385865688">
        <ele>738.90999999999997</ele>
        <time>2019-03-13T13:43:06Z</time>
      </trkpt>
      <trkpt lat="31.19552968069911" lon="-4.031565841287375">
        <ele>738.90999999999997</ele>
        <time>2019-03-13T13:43:11Z</time>
      </trkpt>
      <trkpt lat="31.194867845624685" lon="-4.031795086339116">
        <ele>737.47000000000003</ele>
        <time>2019-03-13T13:43:19Z</time>
      </trkpt>
      <trkpt lat="31.194452941417694" lon="-4.031564919278026">
        <ele>736.50999999999999</ele>
        <time>2019-03-13T13:43:26Z</time>
      </trkpt>
      <trkpt lat="31.194209363311529" lon="-4.031447069719434">
        <ele>736.99000000000001</ele>
        <time>2019-03-13T13:43:30Z</time>
      </trkpt>
      <trkpt lat="31.193988500162959" lon="-4.031451344490051">
        <ele>737.47000000000003</ele>
        <time>2019-03-13T13:43:33Z</time>
      </trkpt>
      <trkpt lat="31.193605782464147" lon="-4.031582185998559">
        <ele>737.47000000000003</ele>
        <time>2019-03-13T13:43:38Z</time>
      </trkpt>
      <trkpt lat="31.192564833909273" lon="-4.031622083857656">
        <ele>736.50999999999999</ele>
        <time>2019-03-13T13:43:49Z</time>
      </trkpt>
      <trkpt lat="31.19185664691031" lon="-4.031683774664998">
        <ele>736.50999999999999</ele>
        <time>2019-03-13T13:43:56Z</time>
      </trkpt>
      <trkpt lat="31.19101376272738" lon="-4.031879911199212">
        <ele>737.47000000000003</ele>
        <time>2019-03-13T13:44:06Z</time>
      </trkpt>
      <trkpt lat="31.190223935991526" lon="-4.032070934772492">
        <ele>736.99000000000001</ele>
        <time>2019-03-13T13:44:16Z</time>
      </trkpt>
      <trkpt lat="31.189926881343126" lon="-4.032130530104041">
        <ele>738.90999999999997</ele>
        <time>2019-03-13T13:44:20Z</time>
      </trkpt>
      <trkpt lat="31.188860032707453" lon="-4.032442839816213">
        <ele>740.83000000000004</ele>
        <time>2019-03-13T13:44:30Z</time>
      </trkpt>
      <trkpt lat="31.187368724495173" lon="-4.032680634409189">
        <ele>740.83000000000004</ele>
        <time>2019-03-13T13:44:41Z</time>
      </trkpt>
      <trkpt lat="31.185434935614467" lon="-4.032997051253915">
        <ele>738.90999999999997</ele>
        <time>2019-03-13T13:44:53Z</time>
      </trkpt>
      <trkpt lat="31.184102213010192" lon="-4.033190337941051">
        <ele>734.58000000000004</ele>
        <time>2019-03-13T13:45:02Z</time>
      </trkpt>
      <trkpt lat="31.182631943374872" lon="-4.03332662768662">
        <ele>734.58000000000004</ele>
        <time>2019-03-13T13:45:14Z</time>
      </trkpt>
      <trkpt lat="31.181522766128182" lon="-4.033373314887285">
        <ele>735.07000000000005</ele>
        <time>2019-03-13T13:45:23Z</time>
      </trkpt>
      <trkpt lat="31.181434839963913" lon="-4.033355293795466">
        <ele>734.10000000000002</ele>
        <time>2019-03-13T13:45:24Z</time>
      </trkpt>
      <trkpt lat="31.180917844176292" lon="-4.033411117270589">
        <ele>736.50999999999999</ele>
        <time>2019-03-13T13:45:30Z</time>
      </trkpt>
      <trkpt lat="31.179749071598053" lon="-4.033380104228854">
        <ele>736.99000000000001</ele>
        <time>2019-03-13T13:45:40Z</time>
      </trkpt>
      <trkpt lat="31.179077429696918" lon="-4.033501306548715">
        <ele>739.87</ele>
        <time>2019-03-13T13:45:48Z</time>
      </trkpt>
      <trkpt lat="31.177941346541047" lon="-4.03370875865221">
        <ele>740.35000000000002</ele>
        <time>2019-03-13T13:46:00Z</time>
      </trkpt>
      <trkpt lat="31.177092595025897" lon="-4.033690234646201">
        <ele>736.02999999999997</ele>
        <time>2019-03-13T13:46:09Z</time>
      </trkpt>
      <trkpt lat="31.176445595920086" lon="-4.03385971672833">
        <ele>729.29999999999995</ele>
        <time>2019-03-13T13:46:16Z</time>
      </trkpt>
      <trkpt lat="31.176193887367845" lon="-4.033862985670567">
        <ele>730.25999999999999</ele>
        <time>2019-03-13T13:46:19Z</time>
      </trkpt>
      <trkpt lat="31.175827514380217" lon="-4.033961221575737">
        <ele>731.22000000000003</ele>
        <time>2019-03-13T13:46:24Z</time>
      </trkpt>
      <trkpt lat="31.175615787506104" lon="-4.034073958173394">
        <ele>731.70000000000005</ele>
        <time>2019-03-13T13:46:28Z</time>
      </trkpt>
      <trkpt lat="31.17521052248776" lon="-4.034112766385078">
        <ele>731.22000000000003</ele>
        <time>2019-03-13T13:46:34Z</time>
      </trkpt>
      <trkpt lat="31.174545250833035" lon="-4.034400936216116">
        <ele>732.17999999999995</ele>
        <time>2019-03-13T13:47:47Z</time>
      </trkpt>
      <trkpt lat="31.17398701608181" lon="-4.034813074395061">
        <ele>730.74000000000001</ele>
        <time>2019-03-13T13:47:56Z</time>
      </trkpt>
      <trkpt lat="31.172736017033458" lon="-4.035586137324572">
        <ele>729.29999999999995</ele>
        <time>2019-03-13T13:48:09Z</time>
      </trkpt>
      <trkpt lat="31.171341268345714" lon="-4.036095924675465">
        <ele>728.34000000000003</ele>
        <time>2019-03-13T13:48:22Z</time>
      </trkpt>
      <trkpt lat="31.170136872678995" lon="-4.036333132535219">
        <ele>727.86000000000001</ele>
        <time>2019-03-13T13:48:33Z</time>
      </trkpt>
      <trkpt lat="31.168998358771205" lon="-4.036501524969935">
        <ele>726.88999999999999</ele>
        <time>2019-03-13T13:48:43Z</time>
      </trkpt>
      <trkpt lat="31.168217249214649" lon="-4.036317290738225">
        <ele>725.92999999999995</ele>
        <time>2019-03-13T13:48:51Z</time>
      </trkpt>
      <trkpt lat="31.167432367801666" lon="-4.036198267713189">
        <ele>726.88999999999999</ele>
        <time>2019-03-13T13:49:01Z</time>
      </trkpt>
      <trkpt lat="31.166170137003064" lon="-4.036193825304508">
        <ele>727.86000000000001</ele>
        <time>2019-03-13T13:49:12Z</time>
      </trkpt>
      <trkpt lat="31.164642535150051" lon="-4.036048902198672">
        <ele>725.92999999999995</ele>
        <time>2019-03-13T13:49:24Z</time>
      </trkpt>
      <trkpt lat="31.163574177771807" lon="-4.035753607749939">
        <ele>725.45000000000005</ele>
        <time>2019-03-13T13:49:34Z</time>
      </trkpt>
      <trkpt lat="31.162202311679721" lon="-4.035598710179329">
        <ele>726.40999999999997</ele>
        <time>2019-03-13T13:49:46Z</time>
      </trkpt>
      <trkpt lat="31.161032617092133" lon="-4.035014910623431">
        <ele>727.37</ele>
        <time>2019-03-13T13:49:57Z</time>
      </trkpt>
      <trkpt lat="31.159889074042439" lon="-4.034282667562366">
        <ele>726.88999999999999</ele>
        <time>2019-03-13T13:50:08Z</time>
      </trkpt>
      <trkpt lat="31.158655006438494" lon="-4.033118337392807">
        <ele>725.45000000000005</ele>
        <time>2019-03-13T13:50:20Z</time>
      </trkpt>
      <trkpt lat="31.157859144732356" lon="-4.032367654144764">
        <ele>725.45000000000005</ele>
        <time>2019-03-13T13:50:29Z</time>
      </trkpt>
      <trkpt lat="31.156592136248946" lon="-4.03138680383563">
        <ele>724.97000000000003</ele>
        <time>2019-03-13T13:50:41Z</time>
      </trkpt>
      <trkpt lat="31.155458567664027" lon="-4.030522461980581">
        <ele>724.97000000000003</ele>
        <time>2019-03-13T13:50:51Z</time>
      </trkpt>
      <trkpt lat="31.154774520546198" lon="-4.030081238597632">
        <ele>724.97000000000003</ele>
        <time>2019-03-13T13:50:58Z</time>
      </trkpt>
      <trkpt lat="31.153572387993336" lon="-4.029827183112502">
        <ele>724.97000000000003</ele>
        <time>2019-03-13T13:51:07Z</time>
      </trkpt>
      <trkpt lat="31.151910843327641" lon="-4.029353521764278">
        <ele>725.45000000000005</ele>
        <time>2019-03-13T13:51:19Z</time>
      </trkpt>
      <trkpt lat="31.150670070201159" lon="-4.028898887336254">
        <ele>724.00999999999999</ele>
        <time>2019-03-13T13:51:29Z</time>
      </trkpt>
      <trkpt lat="31.150216106325388" lon="-4.028690094128251">
        <ele>723.52999999999997</ele>
        <time>2019-03-13T13:51:37Z</time>
      </trkpt>
      <trkpt lat="31.150010833516717" lon="-4.028568975627422">
        <ele>723.04999999999995</ele>
        <time>2019-03-13T13:51:40Z</time>
      </trkpt>
      <trkpt lat="31.149768093600869" lon="-4.028346603736281">
        <ele>724.00999999999999</ele>
        <time>2019-03-13T13:51:44Z</time>
      </trkpt>
      <trkpt lat="31.148599153384566" lon="-4.02762140147388">
        <ele>723.52999999999997</ele>
        <time>2019-03-13T13:51:57Z</time>
      </trkpt>
      <trkpt lat="31.147348154336214" lon="-4.026624457910657">
        <ele>721.61000000000001</ele>
        <time>2019-03-13T13:52:11Z</time>
      </trkpt>
      <trkpt lat="31.14632623270154" lon="-4.025877462700009">
        <ele>721.13</ele>
        <time>2019-03-13T13:52:23Z</time>
      </trkpt>
      <trkpt lat="31.145115382969379" lon="-4.025370692834258">
        <ele>720.15999999999997</ele>
        <time>2019-03-13T13:52:35Z</time>
      </trkpt>
      <trkpt lat="31.143513014540076" lon="-4.02432169765234">
        <ele>721.13</ele>
        <time>2019-03-13T13:52:52Z</time>
      </trkpt>
      <trkpt lat="31.143048154190183" lon="-4.02407786808908">
        <ele>721.13</ele>
        <time>2019-03-13T13:52:57Z</time>
      </trkpt>
      <trkpt lat="31.141964625567198" lon="-4.023807467892766">
        <ele>720.15999999999997</ele>
        <time>2019-03-13T13:53:08Z</time>
      </trkpt>
      <trkpt lat="31.141095841303468" lon="-4.023302625864744">
        <ele>719.20000000000005</ele>
        <time>2019-03-13T13:53:18Z</time>
      </trkpt>
      <trkpt lat="31.140685379505157" lon="-4.022882273420692">
        <ele>717.75999999999999</ele>
        <time>2019-03-13T13:53:27Z</time>
      </trkpt>
      <trkpt lat="31.140054976567626" lon="-4.022578177973628">
        <ele>717.27999999999997</ele>
        <time>2019-03-13T13:53:35Z</time>
      </trkpt>
      <trkpt lat="31.139755910262465" lon="-4.022286403924227">
        <ele>717.27999999999997</ele>
        <time>2019-03-13T13:53:40Z</time>
      </trkpt>
      <trkpt lat="31.138918558135629" lon="-4.021702855825424">
        <ele>717.27999999999997</ele>
        <time>2019-03-13T13:53:51Z</time>
      </trkpt>
      <trkpt lat="31.137833436951041" lon="-4.02137378230691">
        <ele>718.24000000000001</ele>
        <time>2019-03-13T13:54:02Z</time>
      </trkpt>
      <trkpt lat="31.13638948649168" lon="-4.021156691014767">
        <ele>716.79999999999995</ele>
        <time>2019-03-13T13:54:15Z</time>
      </trkpt>
      <trkpt lat="31.135344766080379" lon="-4.021071949973702">
        <ele>716.79999999999995</ele>
        <time>2019-03-13T13:54:26Z</time>
      </trkpt>
      <trkpt lat="31.134325945749879" lon="-4.020947394892573">
        <ele>717.27999999999997</ele>
        <time>2019-03-13T13:54:35Z</time>
      </trkpt>
      <trkpt lat="31.133697303012013" lon="-4.020583787932992">
        <ele>717.75999999999999</ele>
        <time>2019-03-13T13:54:42Z</time>
      </trkpt>
      <trkpt lat="31.133348448202014" lon="-4.020330319181085">
        <ele>717.75999999999999</ele>
        <time>2019-03-13T13:54:48Z</time>
      </trkpt>
      <trkpt lat="31.132701952010393" lon="-4.019526159390807">
        <ele>718.72000000000003</ele>
        <time>2019-03-13T13:55:00Z</time>
      </trkpt>
      <trkpt lat="31.132156457751989" lon="-4.019072782248259">
        <ele>719.20000000000005</ele>
        <time>2019-03-13T13:55:08Z</time>
      </trkpt>
      <trkpt lat="31.131835179403424" lon="-4.018949149176478">
        <ele>718.24000000000001</ele>
        <time>2019-03-13T13:55:13Z</time>
      </trkpt>
      <trkpt lat="31.13142010755837" lon="-4.018669109791517">
        <ele>717.75999999999999</ele>
        <time>2019-03-13T13:55:20Z</time>
      </trkpt>
      <trkpt lat="31.130475215613842" lon="-4.018168458715081">
        <ele>718.72000000000003</ele>
        <time>2019-03-13T13:55:32Z</time>
      </trkpt>
      <trkpt lat="31.130048828199506" lon="-4.017972992733121">
        <ele>719.20000000000005</ele>
        <time>2019-03-13T13:55:39Z</time>
      </trkpt>
      <trkpt lat="31.129376599565148" lon="-4.017542917281389">
        <ele>718.72000000000003</ele>
        <time>2019-03-13T13:55:48Z</time>
      </trkpt>
      <trkpt lat="31.128654833883047" lon="-4.016969595104456">
        <ele>718.24000000000001</ele>
        <time>2019-03-13T13:55:57Z</time>
      </trkpt>
      <trkpt lat="31.128007750958204" lon="-4.016599031165242">
        <ele>718.72000000000003</ele>
        <time>2019-03-13T13:56:07Z</time>
      </trkpt>
      <trkpt lat="31.127586225047708" lon="-4.016368864104152">
        <ele>717.75999999999999</ele>
        <time>2019-03-13T13:56:16Z</time>
      </trkpt>
      <trkpt lat="31.127194790169597" lon="-4.016053453087807">
        <ele>717.27999999999997</ele>
        <time>2019-03-13T13:56:26Z</time>
      </trkpt>
      <trkpt lat="31.127136871218681" lon="-4.015828398987651">
        <ele>716.79999999999995</ele>
        <time>2019-03-13T13:56:36Z</time>
      </trkpt>
      <trkpt lat="31.127156233415008" lon="-4.015676937997341">
        <ele>716.79999999999995</ele>
        <time>2019-03-13T13:56:40Z</time>
      </trkpt>
      <trkpt lat="31.127073839306831" lon="-4.015622120350599">
        <ele>716.79999999999995</ele>
        <time>2019-03-13T13:56:44Z</time>
      </trkpt>
      <trkpt lat="31.126826824620366" lon="-4.015641398727894">
        <ele>716.32000000000005</ele>
        <time>2019-03-13T13:56:50Z</time>
      </trkpt>
      <trkpt lat="31.126237828284502" lon="-4.015369154512882">
        <ele>716.79999999999995</ele>
        <time>2019-03-13T13:57:03Z</time>
      </trkpt>
      <trkpt lat="31.12607060931623" lon="-4.015306290239096">
        <ele>715.84000000000003</ele>
        <time>2019-03-13T13:57:06Z</time>
      </trkpt>
      <trkpt lat="31.125483037903905" lon="-4.014734057709575">
        <ele>716.32000000000005</ele>
        <time>2019-03-13T13:57:17Z</time>
      </trkpt>
      <trkpt lat="31.125296456739306" lon="-4.014468351379037">
        <ele>716.32000000000005</ele>
        <time>2019-03-13T13:57:21Z</time>
      </trkpt>
      <trkpt lat="31.124976519495249" lon="-4.014208009466529">
        <ele>713.44000000000005</ele>
        <time>2019-03-13T13:57:26Z</time>
      </trkpt>
      <trkpt lat="31.124834362417459" lon="-4.014130728319287">
        <ele>713.44000000000005</ele>
        <time>2019-03-13T13:57:28Z</time>
      </trkpt>
      <trkpt lat="31.1244488786906" lon="-4.013782795518637">
        <ele>713.91999999999996</ele>
        <time>2019-03-13T13:57:34Z</time>
      </trkpt>
      <trkpt lat="31.12370221875608" lon="-4.013433018699288">
        <ele>713.44000000000005</ele>
        <time>2019-03-13T13:57:43Z</time>
      </trkpt>
      <trkpt lat="31.12366558983922" lon="-4.013417428359389">
        <ele>714.39999999999998</ele>
        <time>2019-03-13T13:57:44Z</time>
      </trkpt>
      <trkpt lat="31.122844917699695" lon="-4.013060610741377">
        <ele>714.39999999999998</ele>
        <time>2019-03-13T14:01:22Z</time>
      </trkpt>
      <trkpt lat="31.121754348278046" lon="-4.01269088499248">
        <ele>714.88</ele>
        <time>2019-03-13T14:01:32Z</time>
      </trkpt>
      <trkpt lat="31.119981408119202" lon="-4.012068444862962">
        <ele>716.32000000000005</ele>
        <time>2019-03-13T14:01:46Z</time>
      </trkpt>
      <trkpt lat="31.118714567273855" lon="-4.011613391339779">
        <ele>714.39999999999998</ele>
        <time>2019-03-13T14:01:57Z</time>
      </trkpt>
      <trkpt lat="31.118287676945329" lon="-4.011371741071343">
        <ele>713.44000000000005</ele>
        <time>2019-03-13T14:02:03Z</time>
      </trkpt>
      <trkpt lat="31.118177957832813" lon="-4.011281635612249">
        <ele>713.91999999999996</ele>
        <time>2019-03-13T14:02:06Z</time>
      </trkpt>
      <trkpt lat="31.117936475202441" lon="-4.011149955913425">
        <ele>714.39999999999998</ele>
        <time>2019-03-13T14:02:10Z</time>
      </trkpt>
      <trkpt lat="31.117650317028165" lon="-4.010953651741147">
        <ele>714.39999999999998</ele>
        <time>2019-03-13T14:02:16Z</time>
      </trkpt>
      <trkpt lat="31.11696501262486" lon="-4.010776374489069">
        <ele>714.88</ele>
        <time>2019-03-13T14:02:30Z</time>
      </trkpt>
      <trkpt lat="31.116167474538088" lon="-4.010603372007608">
        <ele>715.36000000000001</ele>
        <time>2019-03-13T14:02:41Z</time>
      </trkpt>
      <trkpt lat="31.1154277715832" lon="-4.010322326794267">
        <ele>715.84000000000003</ele>
        <time>2019-03-13T14:02:49Z</time>
      </trkpt>
      <trkpt lat="31.115328697487712" lon="-4.010312184691429">
        <ele>715.84000000000003</ele>
        <time>2019-03-13T14:02:50Z</time>
      </trkpt>
      <trkpt lat="31.115135913714767" lon="-4.010300617665052">
        <ele>716.79999999999995</ele>
        <time>2019-03-13T14:02:52Z</time>
      </trkpt>
      <trkpt lat="31.115044467151165" lon="-4.010277986526489">
        <ele>716.79999999999995</ele>
        <time>2019-03-13T14:02:53Z</time>
      </trkpt>
      <trkpt lat="31.114952098578215" lon="-4.01023649610579">
        <ele>717.27999999999997</ele>
        <time>2019-03-13T14:02:54Z</time>
      </trkpt>
      <trkpt lat="31.114859143272042" lon="-4.010181846097112">
        <ele>720.15999999999997</ele>
        <time>2019-03-13T14:02:55Z</time>
      </trkpt>
      <trkpt lat="31.114766774699092" lon="-4.010121999308467">
        <ele>720.15999999999997</ele>
        <time>2019-03-13T14:02:56Z</time>
      </trkpt>
      <trkpt lat="31.11406990326941" lon="-4.009831231087446">
        <ele>720.15999999999997</ele>
        <time>2019-03-13T14:03:04Z</time>
      </trkpt>
      <trkpt lat="31.113973511382937" lon="-4.009792087599635">
        <ele>720.15999999999997</ele>
        <time>2019-03-13T14:03:05Z</time>
      </trkpt>
      <trkpt lat="31.11387787386775" lon="-4.009741879999638">
        <ele>720.15999999999997</ele>
        <time>2019-03-13T14:03:06Z</time>
      </trkpt>
      <trkpt lat="31.112891491502523" lon="-4.009311133995652">
        <ele>720.15999999999997</ele>
        <time>2019-03-13T14:03:17Z</time>
      </trkpt>
      <trkpt lat="31.112806079909205" lon="-4.009293699637055">
        <ele>720.15999999999997</ele>
        <time>2019-03-13T14:03:18Z</time>
      </trkpt>
      <trkpt lat="31.112717315554619" lon="-4.009286155924201">
        <ele>720.15999999999997</ele>
        <time>2019-03-13T14:03:19Z</time>
      </trkpt>
      <trkpt lat="31.112626288086176" lon="-4.009285988286138">
        <ele>719.67999999999995</ele>
        <time>2019-03-13T14:03:20Z</time>
      </trkpt>
      <trkpt lat="31.112532829865813" lon="-4.009291604161263">
        <ele>719.67999999999995</ele>
        <time>2019-03-13T14:03:21Z</time>
      </trkpt>
      <trkpt lat="31.112190177664161" lon="-4.009327730163932">
        <ele>719.20000000000005</ele>
        <time>2019-03-13T14:03:25Z</time>
      </trkpt>
      <trkpt lat="31.112120691686869" lon="-4.009324293583632">
        <ele>719.20000000000005</ele>
        <time>2019-03-13T14:03:26Z</time>
      </trkpt>
      <trkpt lat="31.112064281478524" lon="-4.009313229471445">
        <ele>718.72000000000003</ele>
        <time>2019-03-13T14:03:27Z</time>
      </trkpt>
      <trkpt lat="31.112013822421432" lon="-4.009299231693149">
        <ele>718.72000000000003</ele>
        <time>2019-03-13T14:03:28Z</time>
      </trkpt>
      <trkpt lat="31.111962357535958" lon="-4.009280791506171">
        <ele>718.72000000000003</ele>
        <time>2019-03-13T14:03:29Z</time>
      </trkpt>
      <trkpt lat="31.111909048631787" lon="-4.00925774127245">
        <ele>716.32000000000005</ele>
        <time>2019-03-13T14:03:30Z</time>
      </trkpt>
      <trkpt lat="31.111853057518601" lon="-4.009228907525539">
        <ele>716.32000000000005</ele>
        <time>2019-03-13T14:03:31Z</time>
      </trkpt>
      <trkpt lat="31.111794551834464" lon="-4.009190015494824">
        <ele>713.91999999999996</ele>
        <time>2019-03-13T14:03:32Z</time>
      </trkpt>
      <trkpt lat="31.11120019108057" lon="-4.00859565474093">
        <ele>714.88</ele>
        <time>2019-03-13T14:03:42Z</time>
      </trkpt>
      <trkpt lat="31.110929874703288" lon="-4.008448803797364">
        <ele>713.91999999999996</ele>
        <time>2019-03-13T14:03:47Z</time>
      </trkpt>
      <trkpt lat="31.110416147857904" lon="-4.008229281753302">
        <ele>712.95000000000005</ele>
        <time>2019-03-13T14:03:56Z</time>
      </trkpt>
      <trkpt lat="31.110297963023186" lon="-4.008266078308225">
        <ele>712.47000000000003</ele>
        <time>2019-03-13T14:03:58Z</time>
      </trkpt>
      <trkpt lat="31.109483325853944" lon="-4.00850135833025">
        <ele>712.47000000000003</ele>
        <time>2019-03-13T14:04:09Z</time>
      </trkpt>
      <trkpt lat="31.109311245381832" lon="-4.008611496537924">
        <ele>711.99000000000001</ele>
        <time>2019-03-13T14:04:43Z</time>
      </trkpt>
      <trkpt lat="31.108573889359832" lon="-4.00876522064209">
        <ele>711.99000000000001</ele>
        <time>2019-03-13T14:04:55Z</time>
      </trkpt>
      <trkpt lat="31.107993694022298" lon="-4.008861277252436">
        <ele>711.99000000000001</ele>
        <time>2019-03-13T14:05:03Z</time>
      </trkpt>
      <trkpt lat="31.10793761909008" lon="-4.008875945582986">
        <ele>711.50999999999999</ele>
        <time>2019-03-13T14:05:04Z</time>
      </trkpt>
      <trkpt lat="31.107837120071054" lon="-4.008911484852433">
        <ele>711.99000000000001</ele>
        <time>2019-03-13T14:05:06Z</time>
      </trkpt>
      <trkpt lat="31.107250470668077" lon="-4.009146513417363">
        <ele>711.99000000000001</ele>
        <time>2019-03-13T14:05:16Z</time>
      </trkpt>
      <trkpt lat="31.107194311916828" lon="-4.009181130677462">
        <ele>711.99000000000001</ele>
        <time>2019-03-13T14:05:17Z</time>
      </trkpt>
      <trkpt lat="31.107142176479101" lon="-4.009223207831383">
        <ele>712.47000000000003</ele>
        <time>2019-03-13T14:05:18Z</time>
      </trkpt>
      <trkpt lat="31.107092471793294" lon="-4.009269056841731">
        <ele>711.99000000000001</ele>
        <time>2019-03-13T14:05:19Z</time>
      </trkpt>
      <trkpt lat="31.107048131525517" lon="-4.009317168965936">
        <ele>711.99000000000001</ele>
        <time>2019-03-13T14:05:20Z</time>
      </trkpt>
      <trkpt lat="31.106639932841063" lon="-4.009781945496798">
        <ele>711.99000000000001</ele>
        <time>2019-03-13T14:05:31Z</time>
      </trkpt>
      <trkpt lat="31.106605315580964" lon="-4.009822513908148">
        <ele>711.50999999999999</ele>
        <time>2019-03-13T14:05:32Z</time>
      </trkpt>
      <trkpt lat="31.106388978660107" lon="-4.010026110336185">
        <ele>712.47000000000003</ele>
        <time>2019-03-13T14:05:37Z</time>
      </trkpt>
      <trkpt lat="31.106230141595006" lon="-4.010292906314135">
        <ele>712.47000000000003</ele>
        <time>2019-03-13T14:05:41Z</time>
      </trkpt>
      <trkpt lat="31.105891931802034" lon="-4.011018695309758">
        <ele>712.47000000000003</ele>
        <time>2019-03-13T14:05:52Z</time>
      </trkpt>
      <trkpt lat="31.105476608499885" lon="-4.011507192626596">
        <ele>712.47000000000003</ele>
        <time>2019-03-13T14:06:01Z</time>
      </trkpt>
      <trkpt lat="31.105397986248136" lon="-4.011719590052962">
        <ele>712.47000000000003</ele>
        <time>2019-03-13T14:06:04Z</time>
      </trkpt>
      <trkpt lat="31.104860957711935" lon="-4.012459125369787">
        <ele>711.99000000000001</ele>
        <time>2019-03-13T14:06:14Z</time>
      </trkpt>
      <trkpt lat="31.104733049869537" lon="-4.012601366266608">
        <ele>712.47000000000003</ele>
        <time>2019-03-13T14:06:16Z</time>
      </trkpt>
      <trkpt lat="31.104555772617459" lon="-4.012891296297312">
        <ele>711.99000000000001</ele>
        <time>2019-03-13T14:06:20Z</time>
      </trkpt>
      <trkpt lat="31.104465583339334" lon="-4.012998249381781">
        <ele>711.99000000000001</ele>
        <time>2019-03-13T14:06:22Z</time>
      </trkpt>
      <trkpt lat="31.104131061583757" lon="-4.013327322900295">
        <ele>712.47000000000003</ele>
        <time>2019-03-13T14:06:29Z</time>
      </trkpt>
      <trkpt lat="31.103661004453897" lon="-4.013668466359377">
        <ele>712.47000000000003</ele>
        <time>2019-03-13T14:06:37Z</time>
      </trkpt>
      <trkpt lat="31.103169908747077" lon="-4.013843815773726">
        <ele>712.47000000000003</ele>
        <time>2019-03-13T14:06:44Z</time>
      </trkpt>
      <trkpt lat="31.102667329832911" lon="-4.013754883781076">
        <ele>712.47000000000003</ele>
        <time>2019-03-13T14:06:51Z</time>
      </trkpt>
      <trkpt lat="31.102599436417222" lon="-4.01370576582849">
        <ele>711.99000000000001</ele>
        <time>2019-03-13T14:06:52Z</time>
      </trkpt>
      <trkpt lat="31.102537158876657" lon="-4.013652540743351">
        <ele>711.99000000000001</ele>
        <time>2019-03-13T14:06:53Z</time>
      </trkpt>
      <trkpt lat="31.102375220507383" lon="-4.013476353138685">
        <ele>711.02999999999997</ele>
        <time>2019-03-13T14:06:56Z</time>
      </trkpt>
      <trkpt lat="31.102327359840274" lon="-4.013401167467237">
        <ele>711.02999999999997</ele>
        <time>2019-03-13T14:06:57Z</time>
      </trkpt>
      <trkpt lat="31.10228612087667" lon="-4.013320114463568">
        <ele>711.02999999999997</ele>
        <time>2019-03-13T14:06:58Z</time>
      </trkpt>
      <trkpt lat="31.102254018187523" lon="-4.013236127793789">
        <ele>710.07000000000005</ele>
        <time>2019-03-13T14:06:59Z</time>
      </trkpt>
      <trkpt lat="31.102231470867991" lon="-4.013147447258234">
        <ele>710.54999999999995</ele>
        <time>2019-03-13T14:07:00Z</time>
      </trkpt>
      <trkpt lat="31.101917736232281" lon="-4.011666113510728">
        <ele>710.54999999999995</ele>
        <time>2019-03-13T14:07:16Z</time>
      </trkpt>
      <trkpt lat="31.101829558610916" lon="-4.011253053322434">
        <ele>710.54999999999995</ele>
        <time>2019-03-13T14:07:25Z</time>
      </trkpt>
      <trkpt lat="31.101627638563514" lon="-4.010480828583241">
        <ele>711.02999999999997</ele>
        <time>2019-03-13T14:07:39Z</time>
      </trkpt>
      <trkpt lat="31.101367799565196" lon="-4.009390007704496">
        <ele>711.02999999999997</ele>
        <time>2019-03-13T14:07:53Z</time>
      </trkpt>
      <trkpt lat="31.101165879517794" lon="-4.008554499596357">
        <ele>711.50999999999999</ele>
        <time>2019-03-13T14:08:02Z</time>
      </trkpt>
      <trkpt lat="31.100979885086417" lon="-4.008181672543287">
        <ele>711.50999999999999</ele>
        <time>2019-03-13T14:08:08Z</time>
      </trkpt>
      <trkpt lat="31.100855832919478" lon="-4.008064577355981">
        <ele>711.50999999999999</ele>
        <time>2019-03-13T14:08:11Z</time>
      </trkpt>
      <trkpt lat="31.100613176822662" lon="-4.007752938196063">
        <ele>711.50999999999999</ele>
        <time>2019-03-13T14:08:21Z</time>
      </trkpt>
      <trkpt lat="31.100566405802965" lon="-4.007475413382053">
        <ele>711.50999999999999</ele>
        <time>2019-03-13T14:08:28Z</time>
      </trkpt>
      <trkpt lat="31.100370520725846" lon="-4.007126893848181">
        <ele>711.50999999999999</ele>
        <time>2019-03-13T14:08:39Z</time>
      </trkpt>
      <trkpt lat="31.100062904879451" lon="-4.007096383720636">
        <ele>711.50999999999999</ele>
        <time>2019-03-13T14:08:47Z</time>
      </trkpt>
      <trkpt lat="31.100018564611673" lon="-4.007099820300937">
        <ele>711.50999999999999</ele>
        <time>2019-03-13T14:08:48Z</time>
      </trkpt>
      <trkpt lat="31.099973637610674" lon="-4.007109291851521">
        <ele>711.50999999999999</ele>
        <time>2019-03-13T14:08:49Z</time>
      </trkpt>
      <trkpt lat="31.099930051714182" lon="-4.007125217467547">
        <ele>711.99000000000001</ele>
        <time>2019-03-13T14:08:50Z</time>
      </trkpt>
      <trkpt lat="31.099892081692815" lon="-4.007146591320634">
        <ele>711.99000000000001</ele>
        <time>2019-03-13T14:08:51Z</time>
      </trkpt>
      <trkpt lat="31.099864840507507" lon="-4.007165618240833">
        <ele>712.47000000000003</ele>
        <time>2019-03-13T14:08:52Z</time>
      </trkpt>
      <trkpt lat="31.099792001768947" lon="-4.007322946563363">
        <ele>712.47000000000003</ele>
        <time>2019-03-13T14:09:00Z</time>
      </trkpt>
      <trkpt lat="31.099701309576631" lon="-4.007631987333298">
        <ele>712.47000000000003</ele>
        <time>2019-03-13T14:09:07Z</time>
      </trkpt>
      <trkpt lat="31.09967390075326" lon="-4.007667861878872">
        <ele>712.47000000000003</ele>
        <time>2019-03-13T14:09:08Z</time>
      </trkpt>
      <trkpt lat="31.099641127511859" lon="-4.007695270702243">
        <ele>712.95000000000005</ele>
        <time>2019-03-13T14:09:09Z</time>
      </trkpt>
      <trkpt lat="31.099609108641744" lon="-4.00771664455533">
        <ele>713.91999999999996</ele>
        <time>2019-03-13T14:09:10Z</time>
      </trkpt>
      <trkpt lat="31.099576586857438" lon="-4.007735839113593">
        <ele>713.91999999999996</ele>
        <time>2019-03-13T14:09:11Z</time>
      </trkpt>
      <trkpt lat="31.099208202213049" lon="-4.00807136669755">
        <ele>711.99000000000001</ele>
        <time>2019-03-13T14:09:25Z</time>
      </trkpt>
      <trkpt lat="31.099191270768642" lon="-4.008129620924592">
        <ele>712.47000000000003</ele>
        <time>2019-03-13T14:09:27Z</time>
      </trkpt>
      <trkpt lat="31.099180206656456" lon="-4.008145295083523">
        <ele>713.44000000000005</ele>
        <time>2019-03-13T14:09:28Z</time>
      </trkpt>
      <trkpt lat="31.099101668223739" lon="-4.008260797709227">
        <ele>715.84000000000003</ele>
        <time>2019-03-13T14:09:35Z</time>
      </trkpt>
      <trkpt lat="31.098833698779345" lon="-4.00872565805912">
        <ele>717.27999999999997</ele>
        <time>2019-03-13T14:09:48Z</time>
      </trkpt>
      <trkpt lat="31.098407059907913" lon="-4.009242737665772">
        <ele>717.27999999999997</ele>
        <time>2019-03-13T14:10:04Z</time>
      </trkpt>
      <trkpt lat="31.097720749676228" lon="-4.009823771193624">
        <ele>717.27999999999997</ele>
        <time>2019-03-13T14:10:20Z</time>
      </trkpt>
      <trkpt lat="31.097452864050865" lon="-4.009937681257725">
        <ele>716.79999999999995</ele>
        <time>2019-03-13T14:10:31Z</time>
      </trkpt>
      <trkpt lat="31.097071571275592" lon="-4.010175811126828">
        <ele>714.88</ele>
        <time>2019-03-13T14:10:49Z</time>
      </trkpt>
      <trkpt lat="31.096616350114346" lon="-4.010430872440338">
        <ele>714.88</ele>
        <time>2019-03-13T14:11:06Z</time>
      </trkpt>
      <trkpt lat="31.096448712050915" lon="-4.010566072538495">
        <ele>714.88</ele>
        <time>2019-03-13T14:11:11Z</time>
      </trkpt>
      <trkpt lat="31.095842197537422" lon="-4.010948203504086">
        <ele>714.39999999999998</ele>
        <time>2019-03-13T14:11:29Z</time>
      </trkpt>
      <trkpt lat="31.095332661643624" lon="-4.011390851810575">
        <ele>713.91999999999996</ele>
        <time>2019-03-13T14:11:46Z</time>
      </trkpt>
      <trkpt lat="31.095181284472346" lon="-4.011551700532436">
        <ele>713.91999999999996</ele>
        <time>2019-03-13T14:11:56Z</time>
      </trkpt>
      <trkpt lat="31.095185894519091" lon="-4.011574583128095">
        <ele>712.47000000000003</ele>
        <time>2019-03-13T14:11:57Z</time>
      </trkpt>
      <trkpt lat="31.095201568678021" lon="-4.011600483208895">
        <ele>712.47000000000003</ele>
        <time>2019-03-13T14:11:58Z</time>
      </trkpt>
      <trkpt lat="31.09522252343595" lon="-4.011622527614236">
        <ele>712.47000000000003</ele>
        <time>2019-03-13T14:11:59Z</time>
      </trkpt>
      <trkpt lat="31.095246244221926" lon="-4.011646080762148">
        <ele>713.91999999999996</ele>
        <time>2019-03-13T14:12:00Z</time>
      </trkpt>
      <trkpt lat="31.095271557569504" lon="-4.011673321947455">
        <ele>717.27999999999997</ele>
        <time>2019-03-13T14:12:01Z</time>
      </trkpt>
      <trkpt lat="31.095737842842937" lon="-4.012251840904355">
        <ele>718.72000000000003</ele>
        <time>2019-03-13T14:12:15Z</time>
      </trkpt>
      <trkpt lat="31.096318960189819" lon="-4.012991711497307">
        <ele>718.24000000000001</ele>
        <time>2019-03-13T14:12:27Z</time>
      </trkpt>
      <trkpt lat="31.096784910187125" lon="-4.013586910441518">
        <ele>719.67999999999995</ele>
        <time>2019-03-13T14:12:41Z</time>
      </trkpt>
      <trkpt lat="31.097196293994784" lon="-4.014124190434814">
        <ele>718.72000000000003</ele>
        <time>2019-03-13T14:12:54Z</time>
      </trkpt>
      <trkpt lat="31.09765981324017" lon="-4.01470547541976">
        <ele>718.72000000000003</ele>
        <time>2019-03-13T14:13:03Z</time>
      </trkpt>
      <trkpt lat="31.098322067409754" lon="-4.015497397631407">
        <ele>718.72000000000003</ele>
        <time>2019-03-13T14:13:16Z</time>
      </trkpt>
      <trkpt lat="31.099169394001365" lon="-4.01652954518795">
        <ele>718.24000000000001</ele>
        <time>2019-03-13T14:13:27Z</time>
      </trkpt>
      <trkpt lat="31.100167678669095" lon="-4.017624473199248">
        <ele>718.24000000000001</ele>
        <time>2019-03-13T14:13:39Z</time>
      </trkpt>
      <trkpt lat="31.10040538944304" lon="-4.017863776534796">
        <ele>718.24000000000001</ele>
        <time>2019-03-13T14:13:46Z</time>
      </trkpt>
      <trkpt lat="31.100412430241704" lon="-4.01791037991643">
        <ele>718.72000000000003</ele>
        <time>2019-03-13T14:13:47Z</time>
      </trkpt>
      <trkpt lat="31.100395331159234" lon="-4.017954468727112">
        <ele>717.27999999999997</ele>
        <time>2019-03-13T14:13:48Z</time>
      </trkpt>
      <trkpt lat="31.100357361137867" lon="-4.017983721569181">
        <ele>714.88</ele>
        <time>2019-03-13T14:13:49Z</time>
      </trkpt>
      <trkpt lat="31.100306818261743" lon="-4.017999144271016">
        <ele>712.95000000000005</ele>
        <time>2019-03-13T14:13:50Z</time>
      </trkpt>
      <trkpt lat="31.100246384739876" lon="-4.018009454011917">
        <ele>709.59000000000003</ele>
        <time>2019-03-13T14:13:51Z</time>
      </trkpt>
      <trkpt lat="31.099400063976645" lon="-4.018134260550141">
        <ele>711.02999999999997</ele>
        <time>2019-03-13T14:14:00Z</time>
      </trkpt>
      <trkpt lat="31.097810938954353" lon="-4.018367612734437">
        <ele>710.54999999999995</ele>
        <time>2019-03-13T14:14:12Z</time>
      </trkpt>
      <trkpt lat="31.096238661557436" lon="-4.018401559442282">
        <ele>710.07000000000005</ele>
        <time>2019-03-13T14:14:22Z</time>
      </trkpt>
      <trkpt lat="31.094930917024612" lon="-4.017815580591559">
        <ele>709.59000000000003</ele>
        <time>2019-03-13T14:14:30Z</time>
      </trkpt>
      <trkpt lat="31.09196875244379" lon="-4.015980614349246">
        <ele>709.59000000000003</ele>
        <time>2019-03-13T14:14:48Z</time>
      </trkpt>
      <trkpt lat="31.089036343619227" lon="-4.014172554016113">
        <ele>712.95000000000005</ele>
        <time>2019-03-13T14:15:07Z</time>
      </trkpt>
      <trkpt lat="31.086401659995317" lon="-4.012551661580801">
        <ele>712.95000000000005</ele>
        <time>2019-03-13T14:15:24Z</time>
      </trkpt>
      <trkpt lat="31.083391550928354" lon="-4.010753491893411">
        <ele>713.44000000000005</ele>
        <time>2019-03-13T14:15:43Z</time>
      </trkpt>
      <trkpt lat="31.081940140575171" lon="-4.010483929887414">
        <ele>712.47000000000003</ele>
        <time>2019-03-13T14:15:52Z</time>
      </trkpt>
      <trkpt lat="31.079025836661458" lon="-4.010670175775886">
        <ele>712.47000000000003</ele>
        <time>2019-03-13T14:16:09Z</time>
      </trkpt>
      <trkpt lat="31.076147155836225" lon="-4.010962788015604">
        <ele>711.99000000000001</ele>
        <time>2019-03-13T14:16:26Z</time>
      </trkpt>
      <trkpt lat="31.073254477232695" lon="-4.011523621156812">
        <ele>712.47000000000003</ele>
        <time>2019-03-13T14:16:44Z</time>
      </trkpt>
      <trkpt lat="31.07170382514596" lon="-4.011823106557131">
        <ele>712.47000000000003</ele>
        <time>2019-03-13T14:16:55Z</time>
      </trkpt>
      <trkpt lat="31.069432999938726" lon="-4.012261144816876">
        <ele>712.47000000000003</ele>
        <time>2019-03-13T14:17:08Z</time>
      </trkpt>
      <trkpt lat="31.066440911963582" lon="-4.012842932716012">
        <ele>711.99000000000001</ele>
        <time>2019-03-13T14:17:24Z</time>
      </trkpt>
      <trkpt lat="31.062951860949397" lon="-4.013510383665562">
        <ele>711.50999999999999</ele>
        <time>2019-03-13T14:17:41Z</time>
      </trkpt>
      <trkpt lat="31.059818537905812" lon="-4.014006173238158">
        <ele>711.99000000000001</ele>
        <time>2019-03-13T14:17:56Z</time>
      </trkpt>
      <trkpt lat="31.057512424886227" lon="-4.01366176083684">
        <ele>711.99000000000001</ele>
        <time>2019-03-13T14:18:07Z</time>
      </trkpt>
      <trkpt lat="31.054414473474026" lon="-4.01311257854104">
        <ele>711.50999999999999</ele>
        <time>2019-03-13T14:18:22Z</time>
      </trkpt>
      <trkpt lat="31.053268332034349" lon="-4.012441774830222">
        <ele>711.50999999999999</ele>
        <time>2019-03-13T14:18:29Z</time>
      </trkpt>
      <trkpt lat="31.051220716908574" lon="-4.010957423597574">
        <ele>709.59000000000003</ele>
        <time>2019-03-13T14:18:42Z</time>
      </trkpt>
      <trkpt lat="31.047891341149807" lon="-4.008583165705204">
        <ele>708.14999999999998</ele>
        <time>2019-03-13T14:19:01Z</time>
      </trkpt>
      <trkpt lat="31.046302048489451" lon="-4.007439119741321">
        <ele>707.66999999999996</ele>
        <time>2019-03-13T14:19:11Z</time>
      </trkpt>
      <trkpt lat="31.044085118919611" lon="-4.006032384932041">
        <ele>707.66999999999996</ele>
        <time>2019-03-13T14:19:26Z</time>
      </trkpt>
      <trkpt lat="31.042655920609832" lon="-4.005879163742065">
        <ele>707.66999999999996</ele>
        <time>2019-03-13T14:19:34Z</time>
      </trkpt>
      <trkpt lat="31.038716593757272" lon="-4.00623120367527">
        <ele>707.66999999999996</ele>
        <time>2019-03-13T14:19:55Z</time>
      </trkpt>
      <trkpt lat="31.035382272675633" lon="-4.006507219746709">
        <ele>707.19000000000005</ele>
        <time>2019-03-13T14:20:13Z</time>
      </trkpt>
      <trkpt lat="31.03156054392457" lon="-4.006834616884589">
        <ele>707.19000000000005</ele>
        <time>2019-03-13T14:20:34Z</time>
      </trkpt>
      <trkpt lat="31.029899502173066" lon="-4.006679970771074">
        <ele>706.23000000000002</ele>
        <time>2019-03-13T14:20:43Z</time>
      </trkpt>
      <trkpt lat="31.02692786604166" lon="-4.005670789629221">
        <ele>705.25999999999999</ele>
        <time>2019-03-13T14:20:59Z</time>
      </trkpt>
      <trkpt lat="31.023160619661212" lon="-4.004395483061671">
        <ele>705.25999999999999</ele>
        <time>2019-03-13T14:21:18Z</time>
      </trkpt>
      <trkpt lat="31.01875358261168" lon="-4.002994615584612">
        <ele>704.77999999999997</ele>
        <time>2019-03-13T14:21:39Z</time>
      </trkpt>
      <trkpt lat="31.014767484739423" lon="-4.001802708953619">
        <ele>702.86000000000001</ele>
        <time>2019-03-13T14:21:57Z</time>
      </trkpt>
      <trkpt lat="31.010621795430779" lon="-4.000572916120291">
        <ele>700.46000000000004</ele>
        <time>2019-03-13T14:22:14Z</time>
      </trkpt>
      <trkpt lat="31.006351048126817" lon="-3.999146148562431">
        <ele>700.94000000000005</ele>
        <time>2019-03-13T14:22:31Z</time>
      </trkpt>
      <trkpt lat="31.001319056376815" lon="-3.99768459610641">
        <ele>701.89999999999998</ele>
        <time>2019-03-13T14:22:51Z</time>
      </trkpt>
      <trkpt lat="30.997217204421759" lon="-3.996486151590943">
        <ele>702.38</ele>
        <time>2019-03-13T14:23:08Z</time>
      </trkpt>
      <trkpt lat="30.99581440910697" lon="-3.99566019885242">
        <ele>701.89999999999998</ele>
        <time>2019-03-13T14:23:15Z</time>
      </trkpt>
      <trkpt lat="30.991902491077781" lon="-3.992789480835199">
        <ele>706.71000000000004</ele>
        <time>2019-03-13T14:23:35Z</time>
      </trkpt>
      <trkpt lat="30.990369273349643" lon="-3.991548456251621">
        <ele>707.66999999999996</ele>
        <time>2019-03-13T14:23:44Z</time>
      </trkpt>
      <trkpt lat="30.989325810223818" lon="-3.989952290430665">
        <ele>708.63</ele>
        <time>2019-03-13T14:23:52Z</time>
      </trkpt>
      <trkpt lat="30.986967477947474" lon="-3.985839961096644">
        <ele>708.14999999999998</ele>
        <time>2019-03-13T14:24:11Z</time>
      </trkpt>
      <trkpt lat="30.985343819484115" lon="-3.983022216707468">
        <ele>706.71000000000004</ele>
        <time>2019-03-13T14:24:25Z</time>
      </trkpt>
      <trkpt lat="30.983913782984018" lon="-3.980532288551331">
        <ele>703.34000000000003</ele>
        <time>2019-03-13T14:24:39Z</time>
      </trkpt>
      <trkpt lat="30.983093110844493" lon="-3.978480314835906">
        <ele>699.01999999999998</ele>
        <time>2019-03-13T14:24:50Z</time>
      </trkpt>
      <trkpt lat="30.98199063912034" lon="-3.975817300379276">
        <ele>703.82000000000005</ele>
        <time>2019-03-13T14:25:05Z</time>
      </trkpt>
      <trkpt lat="30.981027306988835" lon="-3.9748265594244">
        <ele>707.66999999999996</ele>
        <time>2019-03-13T14:25:13Z</time>
      </trkpt>
      <trkpt lat="30.979709420353174" lon="-3.974144691601396">
        <ele>708.63</ele>
        <time>2019-03-13T14:25:22Z</time>
      </trkpt>
      <trkpt lat="30.978253735229373" lon="-3.973732134327292">
        <ele>708.14999999999998</ele>
        <time>2019-03-13T14:25:32Z</time>
      </trkpt>
      <trkpt lat="30.976008726283908" lon="-3.973419992253184">
        <ele>708.14999999999998</ele>
        <time>2019-03-13T14:25:46Z</time>
      </trkpt>
      <trkpt lat="30.973304975777864" lon="-3.973028222098947">
        <ele>708.14999999999998</ele>
        <time>2019-03-13T14:26:03Z</time>
      </trkpt>
      <trkpt lat="30.971043454483151" lon="-3.972699232399464">
        <ele>706.23000000000002</ele>
        <time>2019-03-13T14:26:17Z</time>
      </trkpt>
      <trkpt lat="30.968739101663232" lon="-3.9725661277771">
        <ele>700.94000000000005</ele>
        <time>2019-03-13T14:26:31Z</time>
      </trkpt>
      <trkpt lat="30.967245362699032" lon="-3.972748685628176">
        <ele>694.69000000000005</ele>
        <time>2019-03-13T14:26:40Z</time>
      </trkpt>
      <trkpt lat="30.9660071041435" lon="-3.973410185426474">
        <ele>693.73000000000002</ele>
        <time>2019-03-13T14:26:47Z</time>
      </trkpt>
      <trkpt lat="30.963810961693525" lon="-3.974938374012709">
        <ele>693.73000000000002</ele>
        <time>2019-03-13T14:26:58Z</time>
      </trkpt>
      <trkpt lat="30.960438754409552" lon="-3.977189585566521">
        <ele>691.33000000000004</ele>
        <time>2019-03-13T14:27:15Z</time>
      </trkpt>
      <trkpt lat="30.958958761766553" lon="-3.977616559714079">
        <ele>691.33000000000004</ele>
        <time>2019-03-13T14:27:22Z</time>
      </trkpt>
      <trkpt lat="30.954925389960408" lon="-3.978216201066971">
        <ele>691.33000000000004</ele>
        <time>2019-03-13T14:27:40Z</time>
      </trkpt>
      <trkpt lat="30.95101741142571" lon="-3.978782566264272">
        <ele>691.33000000000004</ele>
        <time>2019-03-13T14:27:58Z</time>
      </trkpt>
      <trkpt lat="30.949146151542664" lon="-3.978752726688981">
        <ele>688.91999999999996</ele>
        <time>2019-03-13T14:28:07Z</time>
      </trkpt>
      <trkpt lat="30.945097021758556" lon="-3.97822835482657">
        <ele>695.16999999999996</ele>
        <time>2019-03-13T14:28:26Z</time>
      </trkpt>
      <trkpt lat="30.940977903082967" lon="-3.977688811719418">
        <ele>696.61000000000001</ele>
        <time>2019-03-13T14:28:45Z</time>
      </trkpt>
      <trkpt lat="30.935996286571026" lon="-3.977033346891403">
        <ele>694.21000000000004</ele>
        <time>2019-03-13T14:29:07Z</time>
      </trkpt>
      <trkpt lat="30.930526172742248" lon="-3.976339073851705">
        <ele>695.64999999999998</ele>
        <time>2019-03-13T14:29:31Z</time>
      </trkpt>
      <trkpt lat="30.928790783509612" lon="-3.976534875109792">
        <ele>696.61000000000001</ele>
        <time>2019-03-13T14:29:39Z</time>
      </trkpt>
      <trkpt lat="30.926670245826244" lon="-3.976914994418621">
        <ele>690.84000000000003</ele>
        <time>2019-03-13T14:29:50Z</time>
      </trkpt>
      <trkpt lat="30.924857743084431" lon="-3.977742455899715">
        <ele>691.33000000000004</ele>
        <time>2019-03-13T14:30:01Z</time>
      </trkpt>
      <trkpt lat="30.92207838781178" lon="-3.979126894846559">
        <ele>690.84000000000003</ele>
        <time>2019-03-13T14:30:17Z</time>
      </trkpt>
      <trkpt lat="30.919875288382173" lon="-3.980927914381027">
        <ele>690.84000000000003</ele>
        <time>2019-03-13T14:30:31Z</time>
      </trkpt>
      <trkpt lat="30.91671472415328" lon="-3.983715819194913">
        <ele>690.84000000000003</ele>
        <time>2019-03-13T14:30:51Z</time>
      </trkpt>
      <trkpt lat="30.913221398368478" lon="-3.987140916287899">
        <ele>691.33000000000004</ele>
        <time>2019-03-13T14:31:13Z</time>
      </trkpt>
      <trkpt lat="30.911240670830011" lon="-3.989093396812677">
        <ele>691.33000000000004</ele>
        <time>2019-03-13T14:31:27Z</time>
      </trkpt>
      <trkpt lat="30.910340035334229" lon="-3.990013813599944">
        <ele>691.33000000000004</ele>
        <time>2019-03-13T14:31:36Z</time>
      </trkpt>
      <trkpt lat="30.910105928778648" lon="-3.990276670083404">
        <ele>691.33000000000004</ele>
        <time>2019-03-13T14:31:40Z</time>
      </trkpt>
      <trkpt lat="30.910048596560955" lon="-3.9903200045228">
        <ele>691.80999999999995</ele>
        <time>2019-03-13T14:31:41Z</time>
      </trkpt>
      <trkpt lat="30.909990174695849" lon="-3.990354873239994">
        <ele>691.33000000000004</ele>
        <time>2019-03-13T14:31:42Z</time>
      </trkpt>
      <trkpt lat="30.909928902983665" lon="-3.990382282063365">
        <ele>691.33000000000004</ele>
        <time>2019-03-13T14:31:43Z</time>
      </trkpt>
      <trkpt lat="30.909868888556957" lon="-3.990397537127137">
        <ele>690.84000000000003</ele>
        <time>2019-03-13T14:31:44Z</time>
      </trkpt>
      <trkpt lat="30.909808538854122" lon="-3.990400470793247">
        <ele>689.39999999999998</ele>
        <time>2019-03-13T14:31:45Z</time>
      </trkpt>
      <trkpt lat="30.909748608246446" lon="-3.990397620946169">
        <ele>688.91999999999996</ele>
        <time>2019-03-13T14:31:46Z</time>
      </trkpt>
      <trkpt lat="30.909073613584042" lon="-3.990437351167202">
        <ele>689.39999999999998</ele>
        <time>2019-03-13T14:31:58Z</time>
      </trkpt>
      <trkpt lat="30.908416556194425" lon="-3.990707332268357">
        <ele>688.91999999999996</ele>
        <time>2019-03-13T14:32:11Z</time>
      </trkpt>
      <trkpt lat="30.90764818713069" lon="-3.991164565086365">
        <ele>688.91999999999996</ele>
        <time>2019-03-13T14:32:24Z</time>
      </trkpt>
      <trkpt lat="30.906815612688661" lon="-3.991763954982162">
        <ele>689.39999999999998</ele>
        <time>2019-03-13T14:32:34Z</time>
      </trkpt>
      <trkpt lat="30.906237345188856" lon="-3.992128986865282">
        <ele>690.84000000000003</ele>
        <time>2019-03-13T14:32:41Z</time>
      </trkpt>
      <trkpt lat="30.905723115429282" lon="-3.992393687367439">
        <ele>694.21000000000004</ele>
        <time>2019-03-13T14:32:50Z</time>
      </trkpt>
      <trkpt lat="30.90507410466671" lon="-3.992947060614824">
        <ele>694.69000000000005</ele>
        <time>2019-03-13T14:33:02Z</time>
      </trkpt>
      <trkpt lat="30.90501350350678" lon="-3.992997603490949">
        <ele>694.69000000000005</ele>
        <time>2019-03-13T14:33:03Z</time>
      </trkpt>
      <trkpt lat="30.904434733092785" lon="-3.993824813514948">
        <ele>694.21000000000004</ele>
        <time>2019-03-13T14:33:13Z</time>
      </trkpt>
      <trkpt lat="30.904091829434037" lon="-3.994248099625111">
        <ele>693.25</ele>
        <time>2019-03-13T14:33:18Z</time>
      </trkpt>
      <trkpt lat="30.903552370145917" lon="-3.994651520624757">
        <ele>692.76999999999998</ele>
        <time>2019-03-13T14:33:26Z</time>
      </trkpt>
      <trkpt lat="30.903329411521554" lon="-3.995010014623404">
        <ele>691.80999999999995</ele>
        <time>2019-03-13T14:33:30Z</time>
      </trkpt>
      <trkpt lat="30.903108716011047" lon="-3.995532291010022">
        <ele>688.44000000000005</ele>
        <time>2019-03-13T14:33:35Z</time>
      </trkpt>
      <trkpt lat="30.903055490925908" lon="-3.995619798079133">
        <ele>687</ele>
        <time>2019-03-13T14:33:36Z</time>
      </trkpt>
      <trkpt lat="30.902994051575661" lon="-3.995700851082802">
        <ele>687</ele>
        <time>2019-03-13T14:33:37Z</time>
      </trkpt>
      <trkpt lat="30.902926241979003" lon="-3.995781317353249">
        <ele>686.51999999999998</ele>
        <time>2019-03-13T14:33:38Z</time>
      </trkpt>
      <trkpt lat="30.902849631384015" lon="-3.995864633470774">
        <ele>686.03999999999996</ele>
        <time>2019-03-13T14:33:39Z</time>
      </trkpt>
      <trkpt lat="30.902217635884881" lon="-3.996475506573916">
        <ele>685.55999999999995</ele>
        <time>2019-03-13T14:33:47Z</time>
      </trkpt>
      <trkpt lat="30.901677422225475" lon="-3.997003398835659">
        <ele>685.08000000000004</ele>
        <time>2019-03-13T14:33:54Z</time>
      </trkpt>
      <trkpt lat="30.901631405577064" lon="-3.997069532051683">
        <ele>685.08000000000004</ele>
        <time>2019-03-13T14:33:55Z</time>
      </trkpt>
      <trkpt lat="30.901586897671223" lon="-3.997135329991579">
        <ele>685.08000000000004</ele>
        <time>2019-03-13T14:33:56Z</time>
      </trkpt>
      <trkpt lat="30.901533840224147" lon="-3.997198361903429">
        <ele>685.55999999999995</ele>
        <time>2019-03-13T14:33:57Z</time>
      </trkpt>
      <trkpt lat="30.901473993435502" lon="-3.997257119044662">
        <ele>685.55999999999995</ele>
        <time>2019-03-13T14:33:58Z</time>
      </trkpt>
      <trkpt lat="30.901413140818477" lon="-3.997308500111103">
        <ele>687</ele>
        <time>2019-03-13T14:33:59Z</time>
      </trkpt>
      <trkpt lat="30.901349438354373" lon="-3.997352421283722">
        <ele>685.55999999999995</ele>
        <time>2019-03-13T14:34:00Z</time>
      </trkpt>
      <trkpt lat="30.901280790567398" lon="-3.997398437932134">
        <ele>686.03999999999996</ele>
        <time>2019-03-13T14:34:01Z</time>
      </trkpt>
      <trkpt lat="30.90120904147625" lon="-3.997453926131129">
        <ele>685.55999999999995</ele>
        <time>2019-03-13T14:34:02Z</time>
      </trkpt>
      <trkpt lat="30.900681149214506" lon="-3.997952900826931">
        <ele>686.03999999999996</ele>
        <time>2019-03-13T14:34:10Z</time>
      </trkpt>
      <trkpt lat="30.899841533973813" lon="-3.998815231025219">
        <ele>686.03999999999996</ele>
        <time>2019-03-13T14:34:22Z</time>
      </trkpt>
      <trkpt lat="30.899241473525763" lon="-3.999381009489298">
        <ele>686.03999999999996</ele>
        <time>2019-03-13T14:34:30Z</time>
      </trkpt>
      <trkpt lat="30.899031506851315" lon="-3.999569937586784">
        <ele>685.55999999999995</ele>
        <time>2019-03-13T14:34:33Z</time>
      </trkpt>
      <trkpt lat="30.898903850466013" lon="-3.999710083007813">
        <ele>685.08000000000004</ele>
        <time>2019-03-13T14:34:35Z</time>
      </trkpt>
      <trkpt lat="30.89832223020494" lon="-4.000267144292593">
        <ele>686.03999999999996</ele>
        <time>2019-03-13T14:34:44Z</time>
      </trkpt>
      <trkpt lat="30.898252157494426" lon="-4.000344425439835">
        <ele>687.48000000000002</ele>
        <time>2019-03-13T14:34:45Z</time>
      </trkpt>
      <trkpt lat="30.897465515881777" lon="-4.00113576091826">
        <ele>688.44000000000005</ele>
        <time>2019-03-13T14:34:57Z</time>
      </trkpt>
      <trkpt lat="30.897195115685463" lon="-4.001397276297212">
        <ele>688.44000000000005</ele>
        <time>2019-03-13T14:35:01Z</time>
      </trkpt>
      <trkpt lat="30.897077349945903" lon="-4.001536834985018">
        <ele>688.91999999999996</ele>
        <time>2019-03-13T14:35:03Z</time>
      </trkpt>
      <trkpt lat="30.896319877356291" lon="-4.00223228149116">
        <ele>691.80999999999995</ele>
        <time>2019-03-13T14:35:14Z</time>
      </trkpt>
      <trkpt lat="30.895588556304574" lon="-4.002973577007651">
        <ele>692.76999999999998</ele>
        <time>2019-03-13T14:35:24Z</time>
      </trkpt>
      <trkpt lat="30.895012468099594" lon="-4.003460314124823">
        <ele>693.73000000000002</ele>
        <time>2019-03-13T14:35:31Z</time>
      </trkpt>
      <trkpt lat="30.894940216094255" lon="-4.003529213368893">
        <ele>691.80999999999995</ele>
        <time>2019-03-13T14:35:32Z</time>
      </trkpt>
      <trkpt lat="30.894875088706613" lon="-4.003609428182244">
        <ele>691.80999999999995</ele>
        <time>2019-03-13T14:35:33Z</time>
      </trkpt>
      <trkpt lat="30.894127171486616" lon="-4.004417695105076">
        <ele>689.88</ele>
        <time>2019-03-13T14:35:43Z</time>
      </trkpt>
      <trkpt lat="30.893299374729395" lon="-4.005300644785166">
        <ele>691.33000000000004</ele>
        <time>2019-03-13T14:35:54Z</time>
      </trkpt>
      <trkpt lat="30.892645502462983" lon="-4.006187869235873">
        <ele>688.91999999999996</ele>
        <time>2019-03-13T14:36:03Z</time>
      </trkpt>
      <trkpt lat="30.891893645748496" lon="-4.007273660972714">
        <ele>689.88</ele>
        <time>2019-03-13T14:36:14Z</time>
      </trkpt>
      <trkpt lat="30.891150757670403" lon="-4.008327769115567">
        <ele>693.73000000000002</ele>
        <time>2019-03-13T14:36:24Z</time>
      </trkpt>
      <trkpt lat="30.89037274941802" lon="-4.009439712390304">
        <ele>694.69000000000005</ele>
        <time>2019-03-13T14:36:35Z</time>
      </trkpt>
      <trkpt lat="30.889748884364963" lon="-4.010348645970225">
        <ele>698.52999999999997</ele>
        <time>2019-03-13T14:36:45Z</time>
      </trkpt>
      <trkpt lat="30.889524165540934" lon="-4.010644946247339">
        <ele>699.5</ele>
        <time>2019-03-13T14:37:57Z</time>
      </trkpt>
      <trkpt lat="30.88908763602376" lon="-4.011264704167843">
        <ele>699.98000000000002</ele>
        <time>2019-03-13T14:38:09Z</time>
      </trkpt>
      <trkpt lat="30.888147186487913" lon="-4.012608574703336">
        <ele>703.34000000000003</ele>
        <time>2019-03-13T14:38:28Z</time>
      </trkpt>
      <trkpt lat="30.887256944552064" lon="-4.013894191011787">
        <ele>704.29999999999995</ele>
        <time>2019-03-13T14:38:43Z</time>
      </trkpt>
      <trkpt lat="30.886547919362783" lon="-4.014882501214743">
        <ele>706.23000000000002</ele>
        <time>2019-03-13T14:38:54Z</time>
      </trkpt>
      <trkpt lat="30.886014578863978" lon="-4.015887156128883">
        <ele>707.19000000000005</ele>
        <time>2019-03-13T14:39:05Z</time>
      </trkpt>
      <trkpt lat="30.885448968037963" lon="-4.017082834616303">
        <ele>706.23000000000002</ele>
        <time>2019-03-13T14:39:17Z</time>
      </trkpt>
      <trkpt lat="30.884801717475057" lon="-4.018454113975167">
        <ele>704.77999999999997</ele>
        <time>2019-03-13T14:39:31Z</time>
      </trkpt>
      <trkpt lat="30.884412042796612" lon="-4.019300434738398">
        <ele>702.38</ele>
        <time>2019-03-13T14:39:40Z</time>
      </trkpt>
      <trkpt lat="30.883755572140217" lon="-4.020740194246173">
        <ele>700.94000000000005</ele>
        <time>2019-03-13T14:39:54Z</time>
      </trkpt>
      <trkpt lat="30.883244108408689" lon="-4.021756583824754">
        <ele>699.98000000000002</ele>
        <time>2019-03-13T14:40:04Z</time>
      </trkpt>
      <trkpt lat="30.882690148428082" lon="-4.022949747741222">
        <ele>699.98000000000002</ele>
        <time>2019-03-13T14:40:16Z</time>
      </trkpt>
      <trkpt lat="30.882114060223103" lon="-4.024204351007938">
        <ele>699.98000000000002</ele>
        <time>2019-03-13T14:40:30Z</time>
      </trkpt>
      <trkpt lat="30.881705777719617" lon="-4.025129545480013">
        <ele>699.98000000000002</ele>
        <time>2019-03-13T14:40:42Z</time>
      </trkpt>
      <trkpt lat="30.881700329482555" lon="-4.025133149698377">
        <ele>699.98000000000002</ele>
        <time>2019-03-13T14:40:55Z</time>
      </trkpt>
      <trkpt lat="30.881695887073874" lon="-4.025128791108728">
        <ele>699.98000000000002</ele>
        <time>2019-03-13T14:41:30Z</time>
      </trkpt>
      <trkpt lat="30.881683398038149" lon="-4.02513918466866">
        <ele>699.98000000000002</ele>
        <time>2019-03-13T14:41:31Z</time>
      </trkpt>
      <trkpt lat="30.881666382774711" lon="-4.025153433904052">
        <ele>699.98000000000002</ele>
        <time>2019-03-13T14:41:32Z</time>
      </trkpt>
      <trkpt lat="30.881648194044828" lon="-4.025173550471664">
        <ele>698.52999999999997</ele>
        <time>2019-03-13T14:41:33Z</time>
      </trkpt>
      <trkpt lat="30.881630340591073" lon="-4.025201462209225">
        <ele>699.5</ele>
        <time>2019-03-13T14:41:34Z</time>
      </trkpt>
      <trkpt lat="30.881612654775381" lon="-4.025238258764148">
        <ele>697.57000000000005</ele>
        <time>2019-03-13T14:41:35Z</time>
      </trkpt>
      <trkpt lat="30.881594466045499" lon="-4.025276396423578">
        <ele>696.61000000000001</ele>
        <time>2019-03-13T14:41:36Z</time>
      </trkpt>
      <trkpt lat="30.881409225985408" lon="-4.025682415813208">
        <ele>696.13</ele>
        <time>2019-03-13T14:41:49Z</time>
      </trkpt>
      <trkpt lat="30.881192721426487" lon="-4.026148784905672">
        <ele>696.13</ele>
        <time>2019-03-13T14:41:58Z</time>
      </trkpt>
      <trkpt lat="30.880668433383107" lon="-4.027247820049524">
        <ele>696.13</ele>
        <time>2019-03-13T14:42:13Z</time>
      </trkpt>
      <trkpt lat="30.880139283835888" lon="-4.028382981196046">
        <ele>694.69000000000005</ele>
        <time>2019-03-13T14:42:27Z</time>
      </trkpt>
      <trkpt lat="30.879615917801857" lon="-4.02950456365943">
        <ele>693.25</ele>
        <time>2019-03-13T14:42:38Z</time>
      </trkpt>
      <trkpt lat="30.879198247566819" lon="-4.030559007078409">
        <ele>692.76999999999998</ele>
        <time>2019-03-13T14:42:48Z</time>
      </trkpt>
      <trkpt lat="30.879044272005558" lon="-4.030967289581895">
        <ele>692.28999999999996</ele>
        <time>2019-03-13T14:42:53Z</time>
      </trkpt>
      <trkpt lat="30.879022059962153" lon="-4.031052952632308">
        <ele>691.80999999999995</ele>
        <time>2019-03-13T14:42:54Z</time>
      </trkpt>
      <trkpt lat="30.878655267879367" lon="-4.032209403812885">
        <ele>689.88</ele>
        <time>2019-03-13T14:43:06Z</time>
      </trkpt>
      <trkpt lat="30.878224857151508" lon="-4.03355335816741">
        <ele>687.96000000000004</ele>
        <time>2019-03-13T14:43:19Z</time>
      </trkpt>
      <trkpt lat="30.877961162477732" lon="-4.034376628696919">
        <ele>690.36000000000001</ele>
        <time>2019-03-13T14:43:28Z</time>
      </trkpt>
      <trkpt lat="30.877632424235344" lon="-4.035206018015742">
        <ele>692.28999999999996</ele>
        <time>2019-03-13T14:43:36Z</time>
      </trkpt>
      <trkpt lat="30.876941336318851" lon="-4.036654913797975">
        <ele>687.96000000000004</ele>
        <time>2019-03-13T14:43:48Z</time>
      </trkpt>
      <trkpt lat="30.876509919762611" lon="-4.037470808252692">
        <ele>687.96000000000004</ele>
        <time>2019-03-13T14:43:56Z</time>
      </trkpt>
      <trkpt lat="30.876015303656459" lon="-4.038376221433282">
        <ele>687.48000000000002</ele>
        <time>2019-03-13T14:44:05Z</time>
      </trkpt>
      <trkpt lat="30.875467797741294" lon="-4.039428737014532">
        <ele>687.48000000000002</ele>
        <time>2019-03-13T14:44:16Z</time>
      </trkpt>
      <trkpt lat="30.875004194676876" lon="-4.040287965908647">
        <ele>687</ele>
        <time>2019-03-13T14:44:26Z</time>
      </trkpt>
      <trkpt lat="30.874554924666882" lon="-4.041180135682225">
        <ele>687.48000000000002</ele>
        <time>2019-03-13T14:44:35Z</time>
      </trkpt>
      <trkpt lat="30.874511590227485" lon="-4.041270408779383">
        <ele>688.44000000000005</ele>
        <time>2019-03-13T14:44:36Z</time>
      </trkpt>
      <trkpt lat="30.874431543052197" lon="-4.041469311341643">
        <ele>687.96000000000004</ele>
        <time>2019-03-13T14:44:38Z</time>
      </trkpt>
      <trkpt lat="30.874385442584753" lon="-4.041561177000403">
        <ele>687.96000000000004</ele>
        <time>2019-03-13T14:44:39Z</time>
      </trkpt>
      <trkpt lat="30.874034240841866" lon="-4.042184455320239">
        <ele>687.96000000000004</ele>
        <time>2019-03-13T14:44:46Z</time>
      </trkpt>
      <trkpt lat="30.873503582552075" lon="-4.043207801878452">
        <ele>685.55999999999995</ele>
        <time>2019-03-13T14:44:58Z</time>
      </trkpt>
      <trkpt lat="30.873061437159777" lon="-4.04407599940896">
        <ele>685.08000000000004</ele>
        <time>2019-03-13T14:45:08Z</time>
      </trkpt>
      <trkpt lat="30.872741499915719" lon="-4.044744204729796">
        <ele>685.55999999999995</ele>
        <time>2019-03-13T14:45:16Z</time>
      </trkpt>
      <trkpt lat="30.872537400573492" lon="-4.045229433104396">
        <ele>685.55999999999995</ele>
        <time>2019-03-13T14:45:21Z</time>
      </trkpt>
      <trkpt lat="30.872038593515754" lon="-4.046390075236559">
        <ele>685.55999999999995</ele>
        <time>2019-03-13T14:45:32Z</time>
      </trkpt>
      <trkpt lat="30.871595190837979" lon="-4.047430269420147">
        <ele>685.08000000000004</ele>
        <time>2019-03-13T14:45:43Z</time>
      </trkpt>
      <trkpt lat="30.87120627053082" lon="-4.04837784357369">
        <ele>685.55999999999995</ele>
        <time>2019-03-13T14:45:55Z</time>
      </trkpt>
      <trkpt lat="30.870942743495107" lon="-4.04907907359302">
        <ele>685.55999999999995</ele>
        <time>2019-03-13T14:46:03Z</time>
      </trkpt>
      <trkpt lat="30.870889015495777" lon="-4.049254590645433">
        <ele>686.03999999999996</ele>
        <time>2019-03-13T14:46:05Z</time>
      </trkpt>
      <trkpt lat="30.870847441256046" lon="-4.049335727468133">
        <ele>689.39999999999998</ele>
        <time>2019-03-13T14:46:06Z</time>
      </trkpt>
      <trkpt lat="30.870796898379922" lon="-4.049415942281485">
        <ele>689.39999999999998</ele>
        <time>2019-03-13T14:46:07Z</time>
      </trkpt>
      <trkpt lat="30.870746020227671" lon="-4.049499426037073">
        <ele>689.39999999999998</ele>
        <time>2019-03-13T14:46:08Z</time>
      </trkpt>
      <trkpt lat="30.870698075741529" lon="-4.049594141542912">
        <ele>689.39999999999998</ele>
        <time>2019-03-13T14:46:09Z</time>
      </trkpt>
      <trkpt lat="30.870316699147224" lon="-4.050536183640361">
        <ele>689.39999999999998</ele>
        <time>2019-03-13T14:46:17Z</time>
      </trkpt>
      <trkpt lat="30.869921073317528" lon="-4.051425168290734">
        <ele>689.39999999999998</ele>
        <time>2019-03-13T14:46:27Z</time>
      </trkpt>
      <trkpt lat="30.869899783283472" lon="-4.051493899896741">
        <ele>689.88</ele>
        <time>2019-03-13T14:46:28Z</time>
      </trkpt>
      <trkpt lat="30.869886707514524" lon="-4.051559362560511">
        <ele>689.88</ele>
        <time>2019-03-13T14:46:29Z</time>
      </trkpt>
      <trkpt lat="30.869882684201002" lon="-4.051622310653329">
        <ele>689.88</ele>
        <time>2019-03-13T14:46:30Z</time>
      </trkpt>
      <trkpt lat="30.869889138266444" lon="-4.051682660356164">
        <ele>689.88</ele>
        <time>2019-03-13T14:46:31Z</time>
      </trkpt>
      <trkpt lat="30.869901794940233" lon="-4.051743093878031">
        <ele>689.39999999999998</ele>
        <time>2019-03-13T14:46:32Z</time>
      </trkpt>
      <trkpt lat="30.869920821860433" lon="-4.051879635080695">
        <ele>688.91999999999996</ele>
        <time>2019-03-13T14:46:34Z</time>
      </trkpt>
      <trkpt lat="30.869918977841735" lon="-4.051945684477687">
        <ele>688.44000000000005</ele>
        <time>2019-03-13T14:46:35Z</time>
      </trkpt>
      <trkpt lat="30.869908668100834" lon="-4.052004190161824">
        <ele>687</ele>
        <time>2019-03-13T14:46:36Z</time>
      </trkpt>
      <trkpt lat="30.869893748313189" lon="-4.05205967836082">
        <ele>686.51999999999998</ele>
        <time>2019-03-13T14:46:37Z</time>
      </trkpt>
      <trkpt lat="30.869872709736228" lon="-4.052113573998213">
        <ele>685.08000000000004</ele>
        <time>2019-03-13T14:46:38Z</time>
      </trkpt>
      <trkpt lat="30.869841277599335" lon="-4.052165960893035">
        <ele>684.12</ele>
        <time>2019-03-13T14:46:39Z</time>
      </trkpt>
      <trkpt lat="30.869799703359604" lon="-4.052224466577172">
        <ele>684.12</ele>
        <time>2019-03-13T14:46:40Z</time>
      </trkpt>
      <trkpt lat="30.869430648162961" lon="-4.052667785435915">
        <ele>684.60000000000002</ele>
        <time>2019-03-13T14:46:46Z</time>
      </trkpt>
      <trkpt lat="30.869375914335251" lon="-4.052766775712371">
        <ele>684.12</ele>
        <time>2019-03-13T14:46:47Z</time>
      </trkpt>
      <trkpt lat="30.868927482515574" lon="-4.053794397041202">
        <ele>683.63</ele>
        <time>2019-03-13T14:46:56Z</time>
      </trkpt>
      <trkpt lat="30.868701757863164" lon="-4.054164122790098">
        <ele>684.12</ele>
        <time>2019-03-13T14:47:01Z</time>
      </trkpt>
      <trkpt lat="30.868667894974351" lon="-4.054235452786088">
        <ele>684.60000000000002</ele>
        <time>2019-03-13T14:47:02Z</time>
      </trkpt>
      <trkpt lat="30.868321051821113" lon="-4.054944645613432">
        <ele>684.12</ele>
        <time>2019-03-13T14:47:11Z</time>
      </trkpt>
      <trkpt lat="30.867891311645508" lon="-4.055714188143611">
        <ele>684.60000000000002</ele>
        <time>2019-03-13T14:47:20Z</time>
      </trkpt>
      <trkpt lat="30.867392756044865" lon="-4.056588839739561">
        <ele>684.12</ele>
        <time>2019-03-13T14:47:31Z</time>
      </trkpt>
      <trkpt lat="30.866896882653236" lon="-4.05743314884603">
        <ele>684.12</ele>
        <time>2019-03-13T14:47:40Z</time>
      </trkpt>
      <trkpt lat="30.866715079173446" lon="-4.057839587330818">
        <ele>684.12</ele>
        <time>2019-03-13T14:47:44Z</time>
      </trkpt>
      <trkpt lat="30.866649700328708" lon="-4.057933464646339">
        <ele>684.12</ele>
        <time>2019-03-13T14:47:45Z</time>
      </trkpt>
      <trkpt lat="30.86625206284225" lon="-4.058569399639964">
        <ele>684.12</ele>
        <time>2019-03-13T14:47:52Z</time>
      </trkpt>
      <trkpt lat="30.865885689854622" lon="-4.059367189183831">
        <ele>684.12</ele>
        <time>2019-03-13T14:48:00Z</time>
      </trkpt>
      <trkpt lat="30.865433737635612" lon="-4.060419118031859">
        <ele>684.60000000000002</ele>
        <time>2019-03-13T14:48:09Z</time>
      </trkpt>
      <trkpt lat="30.864890506491065" lon="-4.061684617772698">
        <ele>684.60000000000002</ele>
        <time>2019-03-13T14:48:20Z</time>
      </trkpt>
      <trkpt lat="30.864754468202591" lon="-4.061962142586708">
        <ele>685.08000000000004</ele>
        <time>2019-03-13T14:48:23Z</time>
      </trkpt>
      <trkpt lat="30.864620944485068" lon="-4.062217539176345">
        <ele>685.08000000000004</ele>
        <time>2019-03-13T14:48:26Z</time>
      </trkpt>
      <trkpt lat="30.864592529833317" lon="-4.06230915337801">
        <ele>685.08000000000004</ele>
        <time>2019-03-13T14:48:27Z</time>
      </trkpt>
      <trkpt lat="30.864559002220631" lon="-4.062456926330924">
        <ele>685.08000000000004</ele>
        <time>2019-03-13T14:48:29Z</time>
      </trkpt>
      <trkpt lat="30.864279130473733" lon="-4.063238287344575">
        <ele>685.55999999999995</ele>
        <time>2019-03-13T14:48:39Z</time>
      </trkpt>
      <trkpt lat="30.863845534622669" lon="-4.064111011102796">
        <ele>685.55999999999995</ele>
        <time>2019-03-13T14:48:49Z</time>
      </trkpt>
      <trkpt lat="30.863657025620341" lon="-4.064440252259374">
        <ele>686.03999999999996</ele>
        <time>2019-03-13T14:48:53Z</time>
      </trkpt>
      <trkpt lat="30.863618887960911" lon="-4.064536057412624">
        <ele>686.03999999999996</ele>
        <time>2019-03-13T14:48:54Z</time>
      </trkpt>
      <trkpt lat="30.863584103062749" lon="-4.064641501754522">
        <ele>686.51999999999998</ele>
        <time>2019-03-13T14:48:55Z</time>
      </trkpt>
      <trkpt lat="30.86355778388679" lon="-4.064756752923131">
        <ele>682.66999999999996</ele>
        <time>2019-03-13T14:48:56Z</time>
      </trkpt>
      <trkpt lat="30.863538924604654" lon="-4.064875021576881">
        <ele>679.30999999999995</ele>
        <time>2019-03-13T14:48:57Z</time>
      </trkpt>
      <trkpt lat="30.863492907956243" lon="-4.065092699602246">
        <ele>678.83000000000004</ele>
        <time>2019-03-13T14:48:59Z</time>
      </trkpt>
      <trkpt lat="30.863424092531204" lon="-4.065293362364173">
        <ele>679.30999999999995</ele>
        <time>2019-03-13T14:49:01Z</time>
      </trkpt>
      <trkpt lat="30.863010445609689" lon="-4.066287623718381">
        <ele>679.78999999999996</ele>
        <time>2019-03-13T14:49:10Z</time>
      </trkpt>
      <trkpt lat="30.862553296610713" lon="-4.06740895472467">
        <ele>678.83000000000004</ele>
        <time>2019-03-13T14:49:20Z</time>
      </trkpt>
      <trkpt lat="30.862012328580022" lon="-4.068699013441801">
        <ele>678.83000000000004</ele>
        <time>2019-03-13T14:49:31Z</time>
      </trkpt>
      <trkpt lat="30.861675627529621" lon="-4.069520607590675">
        <ele>679.30999999999995</ele>
        <time>2019-03-13T14:49:40Z</time>
      </trkpt>
      <trkpt lat="30.861459625884891" lon="-4.070114213973284">
        <ele>679.30999999999995</ele>
        <time>2019-03-13T14:49:49Z</time>
      </trkpt>
      <trkpt lat="30.861450489610434" lon="-4.070180347189307">
        <ele>679.78999999999996</ele>
        <time>2019-03-13T14:49:56Z</time>
      </trkpt>
      <trkpt lat="30.8613848593086" lon="-4.070276068523526">
        <ele>679.30999999999995</ele>
        <time>2019-03-13T14:50:09Z</time>
      </trkpt>
      <trkpt lat="30.861368263140321" lon="-4.070321582257748">
        <ele>679.30999999999995</ele>
        <time>2019-03-13T14:50:10Z</time>
      </trkpt>
      <trkpt lat="30.861355941742659" lon="-4.070370448753238">
        <ele>679.30999999999995</ele>
        <time>2019-03-13T14:50:11Z</time>
      </trkpt>
      <trkpt lat="30.861218897625804" lon="-4.070963468402624">
        <ele>678.35000000000002</ele>
        <time>2019-03-13T14:50:20Z</time>
      </trkpt>
      <trkpt lat="30.861169444397092" lon="-4.071169076487422">
        <ele>680.26999999999998</ele>
        <time>2019-03-13T14:50:23Z</time>
      </trkpt>
      <trkpt lat="30.861115967854857" lon="-4.071311317384243">
        <ele>680.26999999999998</ele>
        <time>2019-03-13T14:50:25Z</time>
      </trkpt>
      <trkpt lat="30.861097695305943" lon="-4.071384826675057">
        <ele>683.63</ele>
        <time>2019-03-13T14:50:26Z</time>
      </trkpt>
      <trkpt lat="30.861084870994091" lon="-4.07145825214684">
        <ele>684.12</ele>
        <time>2019-03-13T14:50:27Z</time>
      </trkpt>
      <trkpt lat="30.860833413898945" lon="-4.072670945897698">
        <ele>684.12</ele>
        <time>2019-03-13T14:50:42Z</time>
      </trkpt>
      <trkpt lat="30.860577262938023" lon="-4.073880957439542">
        <ele>684.12</ele>
        <time>2019-03-13T14:50:53Z</time>
      </trkpt>
      <trkpt lat="30.860421443358064" lon="-4.074604650959373">
        <ele>683.63</ele>
        <time>2019-03-13T14:51:01Z</time>
      </trkpt>
      <trkpt lat="30.860223881900311" lon="-4.075512159615755">
        <ele>683.63</ele>
        <time>2019-03-13T14:51:10Z</time>
      </trkpt>
      <trkpt lat="30.860199574381113" lon="-4.075599499046803">
        <ele>684.12</ele>
        <time>2019-03-13T14:51:11Z</time>
      </trkpt>
      <trkpt lat="30.860165962949395" lon="-4.075666135177016">
        <ele>684.60000000000002</ele>
        <time>2019-03-13T14:51:12Z</time>
      </trkpt>
      <trkpt lat="30.860124388709664" lon="-4.075719192624092">
        <ele>684.60000000000002</ele>
        <time>2019-03-13T14:51:13Z</time>
      </trkpt>
      <trkpt lat="30.860075857490301" lon="-4.075769567862153">
        <ele>684.60000000000002</ele>
        <time>2019-03-13T14:51:14Z</time>
      </trkpt>
      <trkpt lat="30.860019950196147" lon="-4.075822457671166">
        <ele>685.55999999999995</ele>
        <time>2019-03-13T14:51:15Z</time>
      </trkpt>
      <trkpt lat="30.859759021550417" lon="-4.076155470684171">
        <ele>686.51999999999998</ele>
        <time>2019-03-13T14:51:20Z</time>
      </trkpt>
      <trkpt lat="30.85972691886127" lon="-4.076222945004702">
        <ele>686.51999999999998</ele>
        <time>2019-03-13T14:51:21Z</time>
      </trkpt>
      <trkpt lat="30.859565734863281" lon="-4.077006820589304">
        <ele>686.03999999999996</ele>
        <time>2019-03-13T14:51:29Z</time>
      </trkpt>
      <trkpt lat="30.859427349641919" lon="-4.077701345086098">
        <ele>685.55999999999995</ele>
        <time>2019-03-13T14:51:38Z</time>
      </trkpt>
      <trkpt lat="30.859125098213553" lon="-4.078636430203915">
        <ele>684.12</ele>
        <time>2019-03-13T14:51:48Z</time>
      </trkpt>
      <trkpt lat="30.858781188726425" lon="-4.079907545819879">
        <ele>684.12</ele>
        <time>2019-03-13T14:51:59Z</time>
      </trkpt>
      <trkpt lat="30.858720000833273" lon="-4.080130252987146">
        <ele>683.14999999999998</ele>
        <time>2019-03-13T14:52:01Z</time>
      </trkpt>
      <trkpt lat="30.858446750789881" lon="-4.081297935917974">
        <ele>682.66999999999996</ele>
        <time>2019-03-13T14:52:10Z</time>
      </trkpt>
      <trkpt lat="30.858242064714432" lon="-4.082577768713236">
        <ele>682.19000000000005</ele>
        <time>2019-03-13T14:52:20Z</time>
      </trkpt>
      <trkpt lat="30.857936460524797" lon="-4.084432935342193">
        <ele>680.26999999999998</ele>
        <time>2019-03-13T14:52:34Z</time>
      </trkpt>
      <trkpt lat="30.857578217983246" lon="-4.085653256624937">
        <ele>675.94000000000005</ele>
        <time>2019-03-13T14:52:43Z</time>
      </trkpt>
      <trkpt lat="30.857601184397936" lon="-4.087164010852575">
        <ele>675.46000000000004</ele>
        <time>2019-03-13T14:52:53Z</time>
      </trkpt>
      <trkpt lat="30.857754237949848" lon="-4.087963895872235">
        <ele>674.98000000000002</ele>
        <time>2019-03-13T14:53:00Z</time>
      </trkpt>
      <trkpt lat="30.857855742797256" lon="-4.088495476171374">
        <ele>672.58000000000004</ele>
        <time>2019-03-13T14:53:05Z</time>
      </trkpt>
      <trkpt lat="30.857815342023969" lon="-4.089051615446806">
        <ele>672.58000000000004</ele>
        <time>2019-03-13T14:53:11Z</time>
      </trkpt>
      <trkpt lat="30.857637897133827" lon="-4.089698949828744">
        <ele>672.58000000000004</ele>
        <time>2019-03-13T14:53:16Z</time>
      </trkpt>
      <trkpt lat="30.857621133327484" lon="-4.089859714731574">
        <ele>672.58000000000004</ele>
        <time>2019-03-13T14:53:17Z</time>
      </trkpt>
      <trkpt lat="30.857615852728486" lon="-4.090029448270798">
        <ele>671.62</ele>
        <time>2019-03-13T14:53:18Z</time>
      </trkpt>
      <trkpt lat="30.857566567137837" lon="-4.091827953234315">
        <ele>668.73000000000002</ele>
        <time>2019-03-13T14:53:29Z</time>
      </trkpt>
      <trkpt lat="30.857556425035" lon="-4.092601938173175">
        <ele>668.73000000000002</ele>
        <time>2019-03-13T14:53:37Z</time>
      </trkpt>
      <trkpt lat="30.857549132779241" lon="-4.092691792175174">
        <ele>667.76999999999998</ele>
        <time>2019-03-13T14:53:38Z</time>
      </trkpt>
      <trkpt lat="30.857534380629659" lon="-4.092882731929421">
        <ele>667.76999999999998</ele>
        <time>2019-03-13T14:53:40Z</time>
      </trkpt>
      <trkpt lat="30.857493141666055" lon="-4.094099448993802">
        <ele>668.73000000000002</ele>
        <time>2019-03-13T14:53:51Z</time>
      </trkpt>
      <trkpt lat="30.857346123084426" lon="-4.095458323135972">
        <ele>668.25</ele>
        <time>2019-03-13T14:54:02Z</time>
      </trkpt>
      <trkpt lat="30.85731795988977" lon="-4.095564940944314">
        <ele>667.76999999999998</ele>
        <time>2019-03-13T14:54:03Z</time>
      </trkpt>
      <trkpt lat="30.85705267265439" lon="-4.096370190382004">
        <ele>666.80999999999995</ele>
        <time>2019-03-13T14:54:11Z</time>
      </trkpt>
      <trkpt lat="30.857040770351887" lon="-4.096478819847107">
        <ele>665.85000000000002</ele>
        <time>2019-03-13T14:54:12Z</time>
      </trkpt>
      <trkpt lat="30.857002716511488" lon="-4.09683614037931">
        <ele>665.37</ele>
        <time>2019-03-13T14:54:15Z</time>
      </trkpt>
      <trkpt lat="30.856745559722185" lon="-4.097594115883112">
        <ele>664.40999999999997</ele>
        <time>2019-03-13T14:54:22Z</time>
      </trkpt>
      <trkpt lat="30.856454875320196" lon="-4.098507324233651">
        <ele>664.40999999999997</ele>
        <time>2019-03-13T14:54:31Z</time>
      </trkpt>
      <trkpt lat="30.856015328317881" lon="-4.099905677139759">
        <ele>666.33000000000004</ele>
        <time>2019-03-13T14:54:42Z</time>
      </trkpt>
      <trkpt lat="30.855474611744285" lon="-4.101556409150362">
        <ele>666.80999999999995</ele>
        <time>2019-03-13T14:54:53Z</time>
      </trkpt>
      <trkpt lat="30.855064317584038" lon="-4.102825596928597">
        <ele>666.80999999999995</ele>
        <time>2019-03-13T14:55:02Z</time>
      </trkpt>
      <trkpt lat="30.854897769168019" lon="-4.103253660723567">
        <ele>666.33000000000004</ele>
        <time>2019-03-13T14:55:07Z</time>
      </trkpt>
      <trkpt lat="30.854859463870525" lon="-4.103296995162964">
        <ele>665.37</ele>
        <time>2019-03-13T14:55:08Z</time>
      </trkpt>
      <trkpt lat="30.85443165153265" lon="-4.103942653164268">
        <ele>668.25</ele>
        <time>2019-03-13T14:55:18Z</time>
      </trkpt>
      <trkpt lat="30.854339450597763" lon="-4.104178017005324">
        <ele>669.22000000000003</ele>
        <time>2019-03-13T14:55:21Z</time>
      </trkpt>
      <trkpt lat="30.854290332645178" lon="-4.104254711419344">
        <ele>668.73000000000002</ele>
        <time>2019-03-13T14:55:22Z</time>
      </trkpt>
      <trkpt lat="30.854160161688924" lon="-4.104387061670423">
        <ele>667.76999999999998</ele>
        <time>2019-03-13T14:55:24Z</time>
      </trkpt>
      <trkpt lat="30.853872327134013" lon="-4.104675063863397">
        <ele>666.33000000000004</ele>
        <time>2019-03-13T14:55:28Z</time>
      </trkpt>
      <trkpt lat="30.853269333019853" lon="-4.104920318350196">
        <ele>666.33000000000004</ele>
        <time>2019-03-13T14:55:34Z</time>
      </trkpt>
      <trkpt lat="30.852671032771468" lon="-4.105229275301099">
        <ele>666.33000000000004</ele>
        <time>2019-03-13T14:55:41Z</time>
      </trkpt>
      <trkpt lat="30.852641025558114" lon="-4.105327846482396">
        <ele>666.33000000000004</ele>
        <time>2019-03-13T14:55:42Z</time>
      </trkpt>
      <trkpt lat="30.852398704737425" lon="-4.105705702677369">
        <ele>666.80999999999995</ele>
        <time>2019-03-13T14:55:47Z</time>
      </trkpt>
      <trkpt lat="30.851971982046962" lon="-4.106131251901388">
        <ele>666.33000000000004</ele>
        <time>2019-03-13T14:55:56Z</time>
      </trkpt>
      <trkpt lat="30.851772828027606" lon="-4.106443980708718">
        <ele>666.80999999999995</ele>
        <time>2019-03-13T14:56:00Z</time>
      </trkpt>
      <trkpt lat="30.851577529683709" lon="-4.106962066143751">
        <ele>665.85000000000002</ele>
        <time>2019-03-13T14:56:06Z</time>
      </trkpt>
      <trkpt lat="30.851487591862679" lon="-4.107190389186144">
        <ele>667.28999999999996</ele>
        <time>2019-03-13T14:56:12Z</time>
      </trkpt>
      <trkpt lat="30.851316014304757" lon="-4.107614429667592">
        <ele>667.28999999999996</ele>
        <time>2019-03-13T14:56:22Z</time>
      </trkpt>
      <trkpt lat="30.851088277995586" lon="-4.108308618888259">
        <ele>666.80999999999995</ele>
        <time>2019-03-13T14:56:33Z</time>
      </trkpt>
      <trkpt lat="30.851007141172886" lon="-4.108964754268527">
        <ele>666.33000000000004</ele>
        <time>2019-03-13T14:56:43Z</time>
      </trkpt>
      <trkpt lat="30.850858949124813" lon="-4.109388459473848">
        <ele>666.33000000000004</ele>
        <time>2019-03-13T14:56:51Z</time>
      </trkpt>
      <trkpt lat="30.850700698792934" lon="-4.110185829922557">
        <ele>666.80999999999995</ele>
        <time>2019-03-13T14:57:04Z</time>
      </trkpt>
      <trkpt lat="30.850687120109797" lon="-4.11025146022439">
        <ele>666.33000000000004</ele>
        <time>2019-03-13T14:57:05Z</time>
      </trkpt>
      <trkpt lat="30.850497772917151" lon="-4.111028965562582">
        <ele>666.33000000000004</ele>
        <time>2019-03-13T14:57:15Z</time>
      </trkpt>
      <trkpt lat="30.850286046043038" lon="-4.111923901364207">
        <ele>666.80999999999995</ele>
        <time>2019-03-13T14:57:27Z</time>
      </trkpt>
      <trkpt lat="30.850189486518502" lon="-4.112235708162189">
        <ele>666.80999999999995</ele>
        <time>2019-03-13T14:57:31Z</time>
      </trkpt>
      <trkpt lat="30.849965773522854" lon="-4.112790087237954">
        <ele>666.33000000000004</ele>
        <time>2019-03-13T14:57:41Z</time>
      </trkpt>
      <trkpt lat="30.849760249257088" lon="-4.113548398017883">
        <ele>666.33000000000004</ele>
        <time>2019-03-13T14:57:51Z</time>
      </trkpt>
      <trkpt lat="30.849754298105836" lon="-4.113612100481987">
        <ele>666.33000000000004</ele>
        <time>2019-03-13T14:57:52Z</time>
      </trkpt>
      <trkpt lat="30.849656648933887" lon="-4.114300925284624">
        <ele>666.33000000000004</ele>
        <time>2019-03-13T14:58:02Z</time>
      </trkpt>
      <trkpt lat="30.849637957289815" lon="-4.114361610263586">
        <ele>666.80999999999995</ele>
        <time>2019-03-13T14:58:03Z</time>
      </trkpt>
      <trkpt lat="30.849613565951586" lon="-4.114420032128692">
        <ele>666.80999999999995</ele>
        <time>2019-03-13T14:58:04Z</time>
      </trkpt>
      <trkpt lat="30.849584899842739" lon="-4.114471077919006">
        <ele>666.80999999999995</ele>
        <time>2019-03-13T14:58:05Z</time>
      </trkpt>
      <trkpt lat="30.849555311724544" lon="-4.114511897787452">
        <ele>666.80999999999995</ele>
        <time>2019-03-13T14:58:06Z</time>
      </trkpt>
      <trkpt lat="30.849527148529887" lon="-4.1145543102175">
        <ele>666.33000000000004</ele>
        <time>2019-03-13T14:58:07Z</time>
      </trkpt>
      <trkpt lat="30.849502338096499" lon="-4.114606194198132">
        <ele>666.33000000000004</ele>
        <time>2019-03-13T14:58:08Z</time>
      </trkpt>
      <trkpt lat="30.849482556805015" lon="-4.11466570571065">
        <ele>666.33000000000004</ele>
        <time>2019-03-13T14:58:09Z</time>
      </trkpt>
      <trkpt lat="30.849464954808354" lon="-4.114725217223167">
        <ele>666.33000000000004</ele>
        <time>2019-03-13T14:58:10Z</time>
      </trkpt>
      <trkpt lat="30.849400162696838" lon="-4.114949097856879">
        <ele>665.85000000000002</ele>
        <time>2019-03-13T14:58:14Z</time>
      </trkpt>
      <trkpt lat="30.849326821044087" lon="-4.115321924909949">
        <ele>666.33000000000004</ele>
        <time>2019-03-13T14:58:21Z</time>
      </trkpt>
      <trkpt lat="30.849301004782319" lon="-4.115371545776725">
        <ele>668.73000000000002</ele>
        <time>2019-03-13T14:58:22Z</time>
      </trkpt>
      <trkpt lat="30.849267309531569" lon="-4.115417813882232">
        <ele>673.05999999999995</ele>
        <time>2019-03-13T14:58:23Z</time>
      </trkpt>
      <trkpt lat="30.849190866574645" lon="-4.115486964583397">
        <ele>675.94000000000005</ele>
        <time>2019-03-13T14:58:25Z</time>
      </trkpt>
      <trkpt lat="30.849009566009045" lon="-4.115646472200751">
        <ele>678.35000000000002</ele>
        <time>2019-03-13T14:58:30Z</time>
      </trkpt>
      <trkpt lat="30.848654340952635" lon="-4.116042265668511">
        <ele>678.83000000000004</ele>
        <time>2019-03-13T14:58:37Z</time>
      </trkpt>
      <trkpt lat="30.84838486276567" lon="-4.116241419687867">
        <ele>679.30999999999995</ele>
        <time>2019-03-13T14:58:41Z</time>
      </trkpt>
      <trkpt lat="30.848203981295228" lon="-4.116416601464152">
        <ele>679.30999999999995</ele>
        <time>2019-03-13T14:58:45Z</time>
      </trkpt>
      <trkpt lat="30.848096022382379" lon="-4.116580551490188">
        <ele>679.78999999999996</ele>
        <time>2019-03-13T14:58:49Z</time>
      </trkpt>
      <trkpt lat="30.847803158685565" lon="-4.116881797090173">
        <ele>675.94000000000005</ele>
        <time>2019-03-13T14:58:56Z</time>
      </trkpt>
      <trkpt lat="30.847719591110945" lon="-4.11703216843307">
        <ele>671.13999999999999</ele>
        <time>2019-03-13T14:58:58Z</time>
      </trkpt>
      <trkpt lat="30.847475761547685" lon="-4.117305334657431">
        <ele>667.76999999999998</ele>
        <time>2019-03-13T14:59:02Z</time>
      </trkpt>
      <trkpt lat="30.847307872027159" lon="-4.117611944675446">
        <ele>668.25</ele>
        <time>2019-03-13T14:59:06Z</time>
      </trkpt>
      <trkpt lat="30.847273338586092" lon="-4.118100022897124">
        <ele>666.33000000000004</ele>
        <time>2019-03-13T14:59:12Z</time>
      </trkpt>
      <trkpt lat="30.847098072990775" lon="-4.118769485503435">
        <ele>666.80999999999995</ele>
        <time>2019-03-13T14:59:23Z</time>
      </trkpt>
      <trkpt lat="30.84693755954504" lon="-4.119376251474023">
        <ele>668.73000000000002</ele>
        <time>2019-03-13T14:59:30Z</time>
      </trkpt>
      <trkpt lat="30.8468031976372" lon="-4.12026540376246">
        <ele>668.73000000000002</ele>
        <time>2019-03-13T14:59:40Z</time>
      </trkpt>
      <trkpt lat="30.846722647547722" lon="-4.120575366541743">
        <ele>670.65999999999997</ele>
        <time>2019-03-13T14:59:44Z</time>
      </trkpt>
      <trkpt lat="30.846237083896995" lon="-4.12145035341382">
        <ele>674.01999999999998</ele>
        <time>2019-03-13T14:59:56Z</time>
      </trkpt>
      <trkpt lat="30.846083024516702" lon="-4.121979083865881">
        <ele>671.62</ele>
        <time>2019-03-13T15:00:02Z</time>
      </trkpt>
      <trkpt lat="30.845706006512046" lon="-4.122387282550335">
        <ele>671.13999999999999</ele>
        <time>2019-03-13T15:00:09Z</time>
      </trkpt>
      <trkpt lat="30.845622941851616" lon="-4.122396586462855">
        <ele>670.65999999999997</ele>
        <time>2019-03-13T15:00:10Z</time>
      </trkpt>
      <trkpt lat="30.845109885558486" lon="-4.122413266450167">
        <ele>668.25</ele>
        <time>2019-03-13T15:00:16Z</time>
      </trkpt>
      <trkpt lat="30.844758348539472" lon="-4.122739741578698">
        <ele>667.76999999999998</ele>
        <time>2019-03-13T15:00:23Z</time>
      </trkpt>
      <trkpt lat="30.844884244725108" lon="-4.123280206695199">
        <ele>667.28999999999996</ele>
        <time>2019-03-13T15:00:30Z</time>
      </trkpt>
      <trkpt lat="30.844970913603902" lon="-4.123556390404701">
        <ele>666.33000000000004</ele>
        <time>2019-03-13T15:00:38Z</time>
      </trkpt>
      <trkpt lat="30.844984911382198" lon="-4.124112110584974">
        <ele>666.80999999999995</ele>
        <time>2019-03-13T15:00:46Z</time>
      </trkpt>
      <trkpt lat="30.845027910545468" lon="-4.125327989459038">
        <ele>667.28999999999996</ele>
        <time>2019-03-13T15:00:59Z</time>
      </trkpt>
      <trkpt lat="30.845121117308736" lon="-4.126140866428614">
        <ele>666.80999999999995</ele>
        <time>2019-03-13T15:01:09Z</time>
      </trkpt>
      <trkpt lat="30.845186244696379" lon="-4.126735059544444">
        <ele>666.80999999999995</ele>
        <time>2019-03-13T15:01:16Z</time>
      </trkpt>
      <trkpt lat="30.845133606344461" lon="-4.127363534644246">
        <ele>666.80999999999995</ele>
        <time>2019-03-13T15:01:23Z</time>
      </trkpt>
      <trkpt lat="30.845236452296376" lon="-4.128191918134689">
        <ele>666.80999999999995</ele>
        <time>2019-03-13T15:01:31Z</time>
      </trkpt>
      <trkpt lat="30.845408448949456" lon="-4.129254743456841">
        <ele>666.80999999999995</ele>
        <time>2019-03-13T15:01:41Z</time>
      </trkpt>
      <trkpt lat="30.845441641286016" lon="-4.1295694001019">
        <ele>666.80999999999995</ele>
        <time>2019-03-13T15:01:44Z</time>
      </trkpt>
      <trkpt lat="30.845531076192856" lon="-4.130081115290523">
        <ele>667.28999999999996</ele>
        <time>2019-03-13T15:01:51Z</time>
      </trkpt>
      <trkpt lat="30.845694439485669" lon="-4.131072191521525">
        <ele>666.80999999999995</ele>
        <time>2019-03-13T15:02:04Z</time>
      </trkpt>
      <trkpt lat="30.845730062574148" lon="-4.131331108510494">
        <ele>666.33000000000004</ele>
        <time>2019-03-13T15:02:08Z</time>
      </trkpt>
      <trkpt lat="30.845745149999857" lon="-4.131390703842044">
        <ele>665.37</ele>
        <time>2019-03-13T15:02:09Z</time>
      </trkpt>
      <trkpt lat="30.845765518024564" lon="-4.131446275860071">
        <ele>665.37</ele>
        <time>2019-03-13T15:02:10Z</time>
      </trkpt>
      <trkpt lat="30.845785299316049" lon="-4.131498243659735">
        <ele>665.37</ele>
        <time>2019-03-13T15:02:11Z</time>
      </trkpt>
      <trkpt lat="30.845808433368802" lon="-4.131552390754223">
        <ele>665.37</ele>
        <time>2019-03-13T15:02:12Z</time>
      </trkpt>
      <trkpt lat="30.845831818878651" lon="-4.131610225886107">
        <ele>665.37</ele>
        <time>2019-03-13T15:02:13Z</time>
      </trkpt>
      <trkpt lat="30.846124598756433" lon="-4.132295781746507">
        <ele>665.37</ele>
        <time>2019-03-13T15:02:22Z</time>
      </trkpt>
      <trkpt lat="30.846167933195829" lon="-4.132360238581896">
        <ele>665.85000000000002</ele>
        <time>2019-03-13T15:02:23Z</time>
      </trkpt>
      <trkpt lat="30.8463179692626" lon="-4.132546316832304">
        <ele>665.85000000000002</ele>
        <time>2019-03-13T15:02:26Z</time>
      </trkpt>
      <trkpt lat="30.846362309530377" lon="-4.13261747919023">
        <ele>666.33000000000004</ele>
        <time>2019-03-13T15:02:27Z</time>
      </trkpt>
      <trkpt lat="30.846402207389474" lon="-4.13269073702395">
        <ele>666.33000000000004</ele>
        <time>2019-03-13T15:02:28Z</time>
      </trkpt>
      <trkpt lat="30.846435902640224" lon="-4.132766090333462">
        <ele>665.85000000000002</ele>
        <time>2019-03-13T15:02:29Z</time>
      </trkpt>
      <trkpt lat="30.846461718901992" lon="-4.132839431986213">
        <ele>666.33000000000004</ele>
        <time>2019-03-13T15:02:30Z</time>
      </trkpt>
      <trkpt lat="30.846479069441557" lon="-4.132914282381535">
        <ele>666.33000000000004</ele>
        <time>2019-03-13T15:02:31Z</time>
      </trkpt>
      <trkpt lat="30.846490133553743" lon="-4.132993407547474">
        <ele>666.33000000000004</ele>
        <time>2019-03-13T15:02:32Z</time>
      </trkpt>
      <trkpt lat="30.84648703224957" lon="-4.133329438045621">
        <ele>666.80999999999995</ele>
        <time>2019-03-13T15:02:36Z</time>
      </trkpt>
      <trkpt lat="30.846394160762429" lon="-4.133684663102031">
        <ele>666.80999999999995</ele>
        <time>2019-03-13T15:02:41Z</time>
      </trkpt>
      <trkpt lat="30.846374798566103" lon="-4.133918518200517">
        <ele>666.80999999999995</ele>
        <time>2019-03-13T15:02:44Z</time>
      </trkpt>
      <trkpt lat="30.846385778859258" lon="-4.134002923965454">
        <ele>666.80999999999995</ele>
        <time>2019-03-13T15:02:45Z</time>
      </trkpt>
      <trkpt lat="30.846406817436218" lon="-4.13408825173974">
        <ele>667.76999999999998</ele>
        <time>2019-03-13T15:02:46Z</time>
      </trkpt>
      <trkpt lat="30.846428191289306" lon="-4.134174333885312">
        <ele>668.73000000000002</ele>
        <time>2019-03-13T15:02:47Z</time>
      </trkpt>
      <trkpt lat="30.846440680325031" lon="-4.134260332211852">
        <ele>669.70000000000005</ele>
        <time>2019-03-13T15:02:48Z</time>
      </trkpt>
      <trkpt lat="30.846444116905332" lon="-4.13435161113739">
        <ele>670.17999999999995</ele>
        <time>2019-03-13T15:02:49Z</time>
      </trkpt>
      <trkpt lat="30.846434561535716" lon="-4.134445991367102">
        <ele>670.65999999999997</ele>
        <time>2019-03-13T15:02:50Z</time>
      </trkpt>
      <trkpt lat="30.846421485766768" lon="-4.134539533406496">
        <ele>671.13999999999999</ele>
        <time>2019-03-13T15:02:51Z</time>
      </trkpt>
      <trkpt lat="30.846397681161761" lon="-4.134624609723687">
        <ele>670.65999999999997</ele>
        <time>2019-03-13T15:02:52Z</time>
      </trkpt>
      <trkpt lat="30.846360381692648" lon="-4.134700130671263">
        <ele>672.58000000000004</ele>
        <time>2019-03-13T15:02:53Z</time>
      </trkpt>
      <trkpt lat="30.846313778311014" lon="-4.134758887812495">
        <ele>673.05999999999995</ele>
        <time>2019-03-13T15:02:54Z</time>
      </trkpt>
      <trkpt lat="30.846258038654923" lon="-4.134802222251892">
        <ele>673.53999999999996</ele>
        <time>2019-03-13T15:02:55Z</time>
      </trkpt>
      <trkpt lat="30.846192743629217" lon="-4.134833570569754">
        <ele>674.98000000000002</ele>
        <time>2019-03-13T15:02:56Z</time>
      </trkpt>
      <trkpt lat="30.846112612634897" lon="-4.134857123717666">
        <ele>676.41999999999996</ele>
        <time>2019-03-13T15:02:57Z</time>
      </trkpt>
      <trkpt lat="30.845405850559473" lon="-4.135201033204794">
        <ele>677.38999999999999</ele>
        <time>2019-03-13T15:03:05Z</time>
      </trkpt>
      <trkpt lat="30.845328820869327" lon="-4.135232381522656">
        <ele>676.90999999999997</ele>
        <time>2019-03-13T15:03:06Z</time>
      </trkpt>
      <trkpt lat="30.845248270779848" lon="-4.135252833366394">
        <ele>677.38999999999999</ele>
        <time>2019-03-13T15:03:07Z</time>
      </trkpt>
      <trkpt lat="30.844979714602232" lon="-4.135335898026824">
        <ele>676.90999999999997</ele>
        <time>2019-03-13T15:03:10Z</time>
      </trkpt>
      <trkpt lat="30.844803191721439" lon="-4.135426841676235">
        <ele>674.5</ele>
        <time>2019-03-13T15:03:12Z</time>
      </trkpt>
      <trkpt lat="30.844717193394899" lon="-4.135467577725649">
        <ele>674.98000000000002</ele>
        <time>2019-03-13T15:03:13Z</time>
      </trkpt>
      <trkpt lat="30.843968940898776" lon="-4.135868567973375">
        <ele>674.5</ele>
        <time>2019-03-13T15:03:23Z</time>
      </trkpt>
      <trkpt lat="30.842913240194321" lon="-4.136150367558003">
        <ele>671.62</ele>
        <time>2019-03-13T15:03:36Z</time>
      </trkpt>
      <trkpt lat="30.842142943292856" lon="-4.136329153552651">
        <ele>669.22000000000003</ele>
        <time>2019-03-13T15:03:45Z</time>
      </trkpt>
      <trkpt lat="30.841409359127283" lon="-4.13674782961607">
        <ele>667.28999999999996</ele>
        <time>2019-03-13T15:03:53Z</time>
      </trkpt>
      <trkpt lat="30.840445775538683" lon="-4.137461548671126">
        <ele>667.28999999999996</ele>
        <time>2019-03-13T15:04:03Z</time>
      </trkpt>
      <trkpt lat="30.839817887172103" lon="-4.13792297244072">
        <ele>667.76999999999998</ele>
        <time>2019-03-13T15:04:10Z</time>
      </trkpt>
      <trkpt lat="30.838834019377828" lon="-4.138644067570567">
        <ele>667.28999999999996</ele>
        <time>2019-03-13T15:04:21Z</time>
      </trkpt>
      <trkpt lat="30.837897676974535" lon="-4.139328617602587">
        <ele>668.73000000000002</ele>
        <time>2019-03-13T15:04:30Z</time>
      </trkpt>
      <trkpt lat="30.836729742586613" lon="-4.140168149024248">
        <ele>669.22000000000003</ele>
        <time>2019-03-13T15:04:41Z</time>
      </trkpt>
      <trkpt lat="30.835798932239413" lon="-4.140716409310699">
        <ele>669.70000000000005</ele>
        <time>2019-03-13T15:04:52Z</time>
      </trkpt>
      <trkpt lat="30.834719678387046" lon="-4.140952695161104">
        <ele>670.65999999999997</ele>
        <time>2019-03-13T15:05:03Z</time>
      </trkpt>
      <trkpt lat="30.833455184474587" lon="-4.140952192246914">
        <ele>671.62</ele>
        <time>2019-03-13T15:05:14Z</time>
      </trkpt>
      <trkpt lat="30.832123383879662" lon="-4.140832833945751">
        <ele>672.10000000000002</ele>
        <time>2019-03-13T15:05:25Z</time>
      </trkpt>
      <trkpt lat="30.831078328192234" lon="-4.14039982482791">
        <ele>673.53999999999996</ele>
        <time>2019-03-13T15:05:35Z</time>
      </trkpt>
      <trkpt lat="30.830448176711798" lon="-4.140118528157473">
        <ele>675.94000000000005</ele>
        <time>2019-03-13T15:05:43Z</time>
      </trkpt>
      <trkpt lat="30.829610824584961" lon="-4.139729188755155">
        <ele>675.94000000000005</ele>
        <time>2019-03-13T15:05:53Z</time>
      </trkpt>
      <trkpt lat="30.828929040580988" lon="-4.139422159641981">
        <ele>675.46000000000004</ele>
        <time>2019-03-13T15:06:02Z</time>
      </trkpt>
      <trkpt lat="30.828512962907553" lon="-4.139247983694077">
        <ele>675.94000000000005</ele>
        <time>2019-03-13T15:06:09Z</time>
      </trkpt>
      <trkpt lat="30.82774568349123" lon="-4.138883873820305">
        <ele>676.90999999999997</ele>
        <time>2019-03-13T15:06:18Z</time>
      </trkpt>
      <trkpt lat="30.827074376866221" lon="-4.138630656525493">
        <ele>677.38999999999999</ele>
        <time>2019-03-13T15:06:25Z</time>
      </trkpt>
      <trkpt lat="30.82634381018579" lon="-4.138484979048371">
        <ele>677.87</ele>
        <time>2019-03-13T15:06:37Z</time>
      </trkpt>
      <trkpt lat="30.82607114687562" lon="-4.138439800590277">
        <ele>676.90999999999997</ele>
        <time>2019-03-13T15:06:44Z</time>
      </trkpt>
      <trkpt lat="30.825606035068631" lon="-4.13835346698761">
        <ele>676.90999999999997</ele>
        <time>2019-03-13T15:06:53Z</time>
      </trkpt>
      <trkpt lat="30.825062803924084" lon="-4.138270234689117">
        <ele>677.38999999999999</ele>
        <time>2019-03-13T15:07:00Z</time>
      </trkpt>
      <trkpt lat="30.824229810386896" lon="-4.138118186965585">
        <ele>676.41999999999996</ele>
        <time>2019-03-13T15:07:11Z</time>
      </trkpt>
      <trkpt lat="30.823219371959567" lon="-4.137949626892805">
        <ele>675.46000000000004</ele>
        <time>2019-03-13T15:07:20Z</time>
      </trkpt>
      <trkpt lat="30.822221925482154" lon="-4.137781821191311">
        <ele>674.01999999999998</ele>
        <time>2019-03-13T15:07:30Z</time>
      </trkpt>
      <trkpt lat="30.821299916133285" lon="-4.137710491195321">
        <ele>671.62</ele>
        <time>2019-03-13T15:07:39Z</time>
      </trkpt>
      <trkpt lat="30.820111278444529" lon="-4.137688195332885">
        <ele>672.10000000000002</ele>
        <time>2019-03-13T15:07:49Z</time>
      </trkpt>
      <trkpt lat="30.818941332399845" lon="-4.137665564194322">
        <ele>672.58000000000004</ele>
        <time>2019-03-13T15:07:58Z</time>
      </trkpt>
      <trkpt lat="30.817825114354491" lon="-4.137628935277462">
        <ele>673.53999999999996</ele>
        <time>2019-03-13T15:08:08Z</time>
      </trkpt>
      <trkpt lat="30.816583251580596" lon="-4.137591803446412">
        <ele>668.25</ele>
        <time>2019-03-13T15:08:20Z</time>
      </trkpt>
      <trkpt lat="30.815262263640761" lon="-4.13751888088882">
        <ele>666.33000000000004</ele>
        <time>2019-03-13T15:08:31Z</time>
      </trkpt>
      <trkpt lat="30.814525075256824" lon="-4.137314362451434">
        <ele>666.33000000000004</ele>
        <time>2019-03-13T15:08:38Z</time>
      </trkpt>
      <trkpt lat="30.813267370685935" lon="-4.136772304773331">
        <ele>667.28999999999996</ele>
        <time>2019-03-13T15:08:50Z</time>
      </trkpt>
      <trkpt lat="30.811939174309373" lon="-4.13621230982244">
        <ele>668.73000000000002</ele>
        <time>2019-03-13T15:09:02Z</time>
      </trkpt>
      <trkpt lat="30.811460064724088" lon="-4.135997816920281">
        <ele>667.76999999999998</ele>
        <time>2019-03-13T15:09:11Z</time>
      </trkpt>
      <trkpt lat="30.811312207952142" lon="-4.135935204103589">
        <ele>668.25</ele>
        <time>2019-03-13T15:09:15Z</time>
      </trkpt>
      <trkpt lat="30.81116845831275" lon="-4.135900670662522">
        <ele>668.73000000000002</ele>
        <time>2019-03-13T15:09:18Z</time>
      </trkpt>
      <trkpt lat="30.810997802764177" lon="-4.135983400046825">
        <ele>670.17999999999995</ele>
        <time>2019-03-13T15:09:22Z</time>
      </trkpt>
      <trkpt lat="30.8104526437819" lon="-4.13670290261507">
        <ele>667.28999999999996</ele>
        <time>2019-03-13T15:09:35Z</time>
      </trkpt>
      <trkpt lat="30.810021311044693" lon="-4.13737085647881">
        <ele>665.37</ele>
        <time>2019-03-13T15:09:45Z</time>
      </trkpt>
      <trkpt lat="30.809621410444379" lon="-4.138281969353557">
        <ele>662.97000000000003</ele>
        <time>2019-03-13T15:09:55Z</time>
      </trkpt>
      <trkpt lat="30.809326367452741" lon="-4.138519931584597">
        <ele>662.49000000000001</ele>
        <time>2019-03-13T15:09:59Z</time>
      </trkpt>
      <trkpt lat="30.809015985578299" lon="-4.138644989579916">
        <ele>661.51999999999998</ele>
        <time>2019-03-13T15:10:03Z</time>
      </trkpt>
      <trkpt lat="30.808658245950937" lon="-4.138698382303119">
        <ele>661.51999999999998</ele>
        <time>2019-03-13T15:10:07Z</time>
      </trkpt>
      <trkpt lat="30.808224147185683" lon="-4.13889829069376">
        <ele>661.03999999999996</ele>
        <time>2019-03-13T15:10:12Z</time>
      </trkpt>
      <trkpt lat="30.807409845292568" lon="-4.139619721099734">
        <ele>660.55999999999995</ele>
        <time>2019-03-13T15:10:23Z</time>
      </trkpt>
      <trkpt lat="30.806580455973744" lon="-4.140066225081682">
        <ele>660.55999999999995</ele>
        <time>2019-03-13T15:10:33Z</time>
      </trkpt>
      <trkpt lat="30.805590134114027" lon="-4.140308713540435">
        <ele>660.55999999999995</ele>
        <time>2019-03-13T15:10:43Z</time>
      </trkpt>
      <trkpt lat="30.804795529693365" lon="-4.140496971085668">
        <ele>661.51999999999998</ele>
        <time>2019-03-13T15:10:52Z</time>
      </trkpt>
      <trkpt lat="30.804351791739464" lon="-4.140596715733409">
        <ele>659.60000000000002</ele>
        <time>2019-03-13T15:11:00Z</time>
      </trkpt>
      <trkpt lat="30.803446965292096" lon="-4.14081028662622">
        <ele>660.08000000000004</ele>
        <time>2019-03-13T15:11:10Z</time>
      </trkpt>
      <trkpt lat="30.802483968436718" lon="-4.14105361327529">
        <ele>660.55999999999995</ele>
        <time>2019-03-13T15:11:20Z</time>
      </trkpt>
      <trkpt lat="30.801962530240417" lon="-4.141181940212846">
        <ele>660.55999999999995</ele>
        <time>2019-03-13T15:11:28Z</time>
      </trkpt>
      <trkpt lat="30.801295330747962" lon="-4.141347063705325">
        <ele>660.08000000000004</ele>
        <time>2019-03-13T15:11:38Z</time>
      </trkpt>
      <trkpt lat="30.800670208409429" lon="-4.141648728400469">
        <ele>659.60000000000002</ele>
        <time>2019-03-13T15:11:46Z</time>
      </trkpt>
      <trkpt lat="30.799680389463902" lon="-4.142240574583411">
        <ele>660.08000000000004</ele>
        <time>2019-03-13T15:11:59Z</time>
      </trkpt>
      <trkpt lat="30.799544434994459" lon="-4.142316766083241">
        <ele>659.60000000000002</ele>
        <time>2019-03-13T15:12:01Z</time>
      </trkpt>
      <trkpt lat="30.799244614318013" lon="-4.142352305352688">
        <ele>659.60000000000002</ele>
        <time>2019-03-13T15:12:05Z</time>
      </trkpt>
      <trkpt lat="30.798440705984831" lon="-4.142191624268889">
        <ele>658.63999999999999</ele>
        <time>2019-03-13T15:12:17Z</time>
      </trkpt>
      <trkpt lat="30.797604694962502" lon="-4.142245016992092">
        <ele>658.15999999999997</ele>
        <time>2019-03-13T15:12:28Z</time>
      </trkpt>
      <trkpt lat="30.796885192394257" lon="-4.142273683100939">
        <ele>657.67999999999995</ele>
        <time>2019-03-13T15:12:38Z</time>
      </trkpt>
      <trkpt lat="30.796184884384274" lon="-4.142421036958695">
        <ele>658.15999999999997</ele>
        <time>2019-03-13T15:12:46Z</time>
      </trkpt>
      <trkpt lat="30.795426405966282" lon="-4.142614407464862">
        <ele>658.15999999999997</ele>
        <time>2019-03-13T15:12:58Z</time>
      </trkpt>
      <trkpt lat="30.794507414102554" lon="-4.142768550664187">
        <ele>657.20000000000005</ele>
        <time>2019-03-13T15:13:08Z</time>
      </trkpt>
      <trkpt lat="30.792838074266911" lon="-4.143028222024441">
        <ele>657.20000000000005</ele>
        <time>2019-03-13T15:13:22Z</time>
      </trkpt>
      <trkpt lat="30.791595624759793" lon="-4.143224693834782">
        <ele>657.20000000000005</ele>
        <time>2019-03-13T15:13:32Z</time>
      </trkpt>
      <trkpt lat="30.790630029514432" lon="-4.143407586961985">
        <ele>657.20000000000005</ele>
        <time>2019-03-13T15:13:43Z</time>
      </trkpt>
      <trkpt lat="30.78986375592649" lon="-4.143523257225752">
        <ele>657.67999999999995</ele>
        <time>2019-03-13T15:13:52Z</time>
      </trkpt>
      <trkpt lat="30.788739491254091" lon="-4.143767924979329">
        <ele>658.15999999999997</ele>
        <time>2019-03-13T15:14:04Z</time>
      </trkpt>
      <trkpt lat="30.787749085575342" lon="-4.143748478963971">
        <ele>657.67999999999995</ele>
        <time>2019-03-13T15:14:14Z</time>
      </trkpt>
      <trkpt lat="30.787586811929941" lon="-4.143749149516225">
        <ele>656.72000000000003</ele>
        <time>2019-03-13T15:14:16Z</time>
      </trkpt>
      <trkpt lat="30.787283051759005" lon="-4.143627528101206">
        <ele>656.72000000000003</ele>
        <time>2019-03-13T15:14:20Z</time>
      </trkpt>
      <trkpt lat="30.786733953282237" lon="-4.143084129318595">
        <ele>656.72000000000003</ele>
        <time>2019-03-13T15:14:28Z</time>
      </trkpt>
      <trkpt lat="30.786172030493617" lon="-4.142919005826116">
        <ele>656.24000000000001</ele>
        <time>2019-03-13T15:14:35Z</time>
      </trkpt>
      <trkpt lat="30.785148600116372" lon="-4.142980948090553">
        <ele>655.75999999999999</ele>
        <time>2019-03-13T15:14:47Z</time>
      </trkpt>
      <trkpt lat="30.784214353188872" lon="-4.143201475962997">
        <ele>655.75999999999999</ele>
        <time>2019-03-13T15:14:56Z</time>
      </trkpt>
      <trkpt lat="30.783218163996935" lon="-4.143499117344618">
        <ele>656.24000000000001</ele>
        <time>2019-03-13T15:15:07Z</time>
      </trkpt>
      <trkpt lat="30.783122023567557" lon="-4.143523843958974">
        <ele>656.72000000000003</ele>
        <time>2019-03-13T15:15:08Z</time>
      </trkpt>
      <trkpt lat="30.782114937901497" lon="-4.143632473424077">
        <ele>657.20000000000005</ele>
        <time>2019-03-13T15:15:19Z</time>
      </trkpt>
      <trkpt lat="30.780670735985041" lon="-4.143801955506206">
        <ele>656.72000000000003</ele>
        <time>2019-03-13T15:15:31Z</time>
      </trkpt>
      <trkpt lat="30.779132070019841" lon="-4.144037822261453">
        <ele>656.24000000000001</ele>
        <time>2019-03-13T15:15:43Z</time>
      </trkpt>
      <trkpt lat="30.777877969667315" lon="-4.144530594348908">
        <ele>655.75999999999999</ele>
        <time>2019-03-13T15:15:54Z</time>
      </trkpt>
      <trkpt lat="30.776353720575571" lon="-4.14576550014317">
        <ele>655.27999999999997</ele>
        <time>2019-03-13T15:16:08Z</time>
      </trkpt>
      <trkpt lat="30.775994807481766" lon="-4.146111505106092">
        <ele>655.75999999999999</ele>
        <time>2019-03-13T15:16:12Z</time>
      </trkpt>
      <trkpt lat="30.775710577145219" lon="-4.146616347134113">
        <ele>656.24000000000001</ele>
        <time>2019-03-13T15:16:17Z</time>
      </trkpt>
      <trkpt lat="30.775047484785318" lon="-4.14778939448297">
        <ele>655.75999999999999</ele>
        <time>2019-03-13T15:16:27Z</time>
      </trkpt>
      <trkpt lat="30.774808097630739" lon="-4.148552902042866">
        <ele>655.27999999999997</ele>
        <time>2019-03-13T15:16:33Z</time>
      </trkpt>
      <trkpt lat="30.77460584230721" lon="-4.1497150529176">
        <ele>654.30999999999995</ele>
        <time>2019-03-13T15:16:42Z</time>
      </trkpt>
      <trkpt lat="30.774592263624072" lon="-4.150273706763983">
        <ele>655.27999999999997</ele>
        <time>2019-03-13T15:16:46Z</time>
      </trkpt>
      <trkpt lat="30.774679351598024" lon="-4.150789696723223">
        <ele>655.75999999999999</ele>
        <time>2019-03-13T15:16:50Z</time>
      </trkpt>
      <trkpt lat="30.774733498692513" lon="-4.151307111606002">
        <ele>656.72000000000003</ele>
        <time>2019-03-13T15:16:54Z</time>
      </trkpt>
      <trkpt lat="30.774859143421054" lon="-4.151926869526506">
        <ele>656.72000000000003</ele>
        <time>2019-03-13T15:16:59Z</time>
      </trkpt>
      <trkpt lat="30.7749033998698" lon="-4.152392065152526">
        <ele>657.20000000000005</ele>
        <time>2019-03-13T15:17:03Z</time>
      </trkpt>
      <trkpt lat="30.775090483948588" lon="-4.153526471927762">
        <ele>657.67999999999995</ele>
        <time>2019-03-13T15:17:14Z</time>
      </trkpt>
      <trkpt lat="30.775489797815681" lon="-4.154127957299352">
        <ele>656.72000000000003</ele>
        <time>2019-03-13T15:17:23Z</time>
      </trkpt>
      <trkpt lat="30.77584502287209" lon="-4.15465853177011">
        <ele>655.27999999999997</ele>
        <time>2019-03-13T15:17:33Z</time>
      </trkpt>
      <trkpt lat="30.775882992893457" lon="-4.154732460156083">
        <ele>656.24000000000001</ele>
        <time>2019-03-13T15:17:35Z</time>
      </trkpt>
      <trkpt lat="30.775986174121499" lon="-4.154854835942388">
        <ele>656.24000000000001</ele>
        <time>2019-03-13T15:17:38Z</time>
      </trkpt>
      <trkpt lat="30.776464277878404" lon="-4.155685398727655">
        <ele>656.72000000000003</ele>
        <time>2019-03-13T15:17:49Z</time>
      </trkpt>
      <trkpt lat="30.776854790747166" lon="-4.156336337327957">
        <ele>655.27999999999997</ele>
        <time>2019-03-13T15:17:58Z</time>
      </trkpt>
      <trkpt lat="30.776940789073706" lon="-4.156503221020103">
        <ele>655.75999999999999</ele>
        <time>2019-03-13T15:18:01Z</time>
      </trkpt>
      <trkpt lat="30.777133572846651" lon="-4.156727520748973">
        <ele>656.24000000000001</ele>
        <time>2019-03-13T15:18:07Z</time>
      </trkpt>
      <trkpt lat="30.777269694954157" lon="-4.156850567087531">
        <ele>656.24000000000001</ele>
        <time>2019-03-13T15:18:10Z</time>
      </trkpt>
      <trkpt lat="30.777378408238292" lon="-4.15722624398768">
        <ele>656.72000000000003</ele>
        <time>2019-03-13T15:18:17Z</time>
      </trkpt>
      <trkpt lat="30.777162993326783" lon="-4.157581301406026">
        <ele>658.15999999999997</ele>
        <time>2019-03-13T15:18:25Z</time>
      </trkpt>
      <trkpt lat="30.77671380713582" lon="-4.158208770677447">
        <ele>658.15999999999997</ele>
        <time>2019-03-13T15:18:35Z</time>
      </trkpt>
      <trkpt lat="30.776669969782233" lon="-4.158290410414338">
        <ele>660.08000000000004</ele>
        <time>2019-03-13T15:18:36Z</time>
      </trkpt>
      <trkpt lat="30.776243498548865" lon="-4.159178053960204">
        <ele>664.88999999999999</ele>
        <time>2019-03-13T15:18:46Z</time>
      </trkpt>
      <trkpt lat="30.775757264345884" lon="-4.160024458542466">
        <ele>663.92999999999995</ele>
        <time>2019-03-13T15:18:55Z</time>
      </trkpt>
      <trkpt lat="30.775524582713842" lon="-4.160987036302686">
        <ele>663.92999999999995</ele>
        <time>2019-03-13T15:19:05Z</time>
      </trkpt>
      <trkpt lat="30.77519659884274" lon="-4.162194868549705">
        <ele>661.51999999999998</ele>
        <time>2019-03-13T15:19:17Z</time>
      </trkpt>
      <trkpt lat="30.774741545319557" lon="-4.163146382197738">
        <ele>659.12</ele>
        <time>2019-03-13T15:19:26Z</time>
      </trkpt>
      <trkpt lat="30.774519676342607" lon="-4.163349056616426">
        <ele>658.63999999999999</ele>
        <time>2019-03-13T15:19:32Z</time>
      </trkpt>
      <trkpt lat="30.77440015040338" lon="-4.163404628634453">
        <ele>657.67999999999995</ele>
        <time>2019-03-13T15:19:40Z</time>
      </trkpt>
      <trkpt lat="30.774362599477172" lon="-4.16342843323946">
        <ele>658.63999999999999</ele>
        <time>2019-03-13T15:19:42Z</time>
      </trkpt>
      <trkpt lat="30.774243660271168" lon="-4.163601184263825">
        <ele>659.60000000000002</ele>
        <time>2019-03-13T15:19:46Z</time>
      </trkpt>
      <trkpt lat="30.773829845711589" lon="-4.164313729852438">
        <ele>659.60000000000002</ele>
        <time>2019-03-13T15:19:59Z</time>
      </trkpt>
      <trkpt lat="30.773792546242476" lon="-4.164365781471133">
        <ele>660.55999999999995</ele>
        <time>2019-03-13T15:20:00Z</time>
      </trkpt>
      <trkpt lat="30.77332072891295" lon="-4.165167510509491">
        <ele>663.45000000000005</ele>
        <time>2019-03-13T15:20:13Z</time>
      </trkpt>
      <trkpt lat="30.773245207965374" lon="-4.165387619286776">
        <ele>663.92999999999995</ele>
        <time>2019-03-13T15:20:16Z</time>
      </trkpt>
      <trkpt lat="30.773118557408452" lon="-4.165593646466732">
        <ele>664.40999999999997</ele>
        <time>2019-03-13T15:20:20Z</time>
      </trkpt>
      <trkpt lat="30.773076564073563" lon="-4.165636645630002">
        <ele>661.03999999999996</ele>
        <time>2019-03-13T15:20:21Z</time>
      </trkpt>
      <trkpt lat="30.772545235231519" lon="-4.166073258966208">
        <ele>660.08000000000004</ele>
        <time>2019-03-13T15:20:30Z</time>
      </trkpt>
      <trkpt lat="30.771959340199828" lon="-4.166601905599237">
        <ele>659.60000000000002</ele>
        <time>2019-03-13T15:20:41Z</time>
      </trkpt>
      <trkpt lat="30.771873006597161" lon="-4.166675666347146">
        <ele>659.60000000000002</ele>
        <time>2019-03-13T15:20:43Z</time>
      </trkpt>
      <trkpt lat="30.771823721006513" lon="-4.166714642196894">
        <ele>659.60000000000002</ele>
        <time>2019-03-13T15:20:44Z</time>
      </trkpt>
      <trkpt lat="30.771160461008549" lon="-4.167307578027248">
        <ele>659.60000000000002</ele>
        <time>2019-03-13T15:20:55Z</time>
      </trkpt>
      <trkpt lat="30.770430732518435" lon="-4.167924989014864">
        <ele>659.60000000000002</ele>
        <time>2019-03-13T15:21:07Z</time>
      </trkpt>
      <trkpt lat="30.770378932356834" lon="-4.167979303747416">
        <ele>660.55999999999995</ele>
        <time>2019-03-13T15:21:08Z</time>
      </trkpt>
      <trkpt lat="30.770334172993898" lon="-4.168034708127379">
        <ele>662.49000000000001</ele>
        <time>2019-03-13T15:21:09Z</time>
      </trkpt>
      <trkpt lat="30.770283630117774" lon="-4.16808407753706">
        <ele>660.55999999999995</ele>
        <time>2019-03-13T15:21:10Z</time>
      </trkpt>
      <trkpt lat="30.770229231566191" lon="-4.168126909062266">
        <ele>660.08000000000004</ele>
        <time>2019-03-13T15:21:11Z</time>
      </trkpt>
      <trkpt lat="30.770172737538815" lon="-4.168167728930712">
        <ele>659.60000000000002</ele>
        <time>2019-03-13T15:21:12Z</time>
      </trkpt>
      <trkpt lat="30.769645851105452" lon="-4.168630409985781">
        <ele>659.60000000000002</ele>
        <time>2019-03-13T15:21:21Z</time>
      </trkpt>
      <trkpt lat="30.769087113440037" lon="-4.169126786291599">
        <ele>659.60000000000002</ele>
        <time>2019-03-13T15:21:30Z</time>
      </trkpt>
      <trkpt lat="30.768343722447753" lon="-4.169790716841817">
        <ele>659.60000000000002</ele>
        <time>2019-03-13T15:21:41Z</time>
      </trkpt>
      <trkpt lat="30.768230734393001" lon="-4.169871686026454">
        <ele>659.60000000000002</ele>
        <time>2019-03-13T15:21:43Z</time>
      </trkpt>
      <trkpt lat="30.768042476847768" lon="-4.169988362118602">
        <ele>659.60000000000002</ele>
        <time>2019-03-13T15:21:46Z</time>
      </trkpt>
      <trkpt lat="30.767988497391343" lon="-4.170045526698232">
        <ele>659.12</ele>
        <time>2019-03-13T15:21:47Z</time>
      </trkpt>
      <trkpt lat="30.767941558733582" lon="-4.170108307152987">
        <ele>659.12</ele>
        <time>2019-03-13T15:21:48Z</time>
      </trkpt>
      <trkpt lat="30.767893781885505" lon="-4.1701680701226">
        <ele>659.12</ele>
        <time>2019-03-13T15:21:49Z</time>
      </trkpt>
      <trkpt lat="30.767843993380666" lon="-4.170221127569675">
        <ele>659.12</ele>
        <time>2019-03-13T15:21:50Z</time>
      </trkpt>
      <trkpt lat="30.767787583172321" lon="-4.170271586626768">
        <ele>659.12</ele>
        <time>2019-03-13T15:21:51Z</time>
      </trkpt>
      <trkpt lat="30.767725137993693" lon="-4.170317854732275">
        <ele>659.12</ele>
        <time>2019-03-13T15:21:52Z</time>
      </trkpt>
      <trkpt lat="30.767599325627089" lon="-4.170420113950968">
        <ele>659.12</ele>
        <time>2019-03-13T15:21:54Z</time>
      </trkpt>
      <trkpt lat="30.767545513808727" lon="-4.170480631291866">
        <ele>659.60000000000002</ele>
        <time>2019-03-13T15:21:55Z</time>
      </trkpt>
      <trkpt lat="30.767491366714239" lon="-4.170544166117907">
        <ele>659.12</ele>
        <time>2019-03-13T15:21:56Z</time>
      </trkpt>
      <trkpt lat="30.767435459420085" lon="-4.170599738135934">
        <ele>660.08000000000004</ele>
        <time>2019-03-13T15:21:57Z</time>
      </trkpt>
      <trkpt lat="30.767378211021423" lon="-4.170644581317902">
        <ele>660.08000000000004</ele>
        <time>2019-03-13T15:21:58Z</time>
      </trkpt>
      <trkpt lat="30.767321046441793" lon="-4.17069093324244">
        <ele>659.60000000000002</ele>
        <time>2019-03-13T15:21:59Z</time>
      </trkpt>
      <trkpt lat="30.7672602776438" lon="-4.170742062851787">
        <ele>659.60000000000002</ele>
        <time>2019-03-13T15:22:00Z</time>
      </trkpt>
      <trkpt lat="30.766689050942659" lon="-4.171224776655436">
        <ele>659.12</ele>
        <time>2019-03-13T15:22:09Z</time>
      </trkpt>
      <trkpt lat="30.765915988013148" lon="-4.171901782974601">
        <ele>659.12</ele>
        <time>2019-03-13T15:22:22Z</time>
      </trkpt>
      <trkpt lat="30.765854129567742" lon="-4.171939585357904">
        <ele>658.63999999999999</ele>
        <time>2019-03-13T15:22:23Z</time>
      </trkpt>
      <trkpt lat="30.765792857855558" lon="-4.17197990231216">
        <ele>659.12</ele>
        <time>2019-03-13T15:22:24Z</time>
      </trkpt>
      <trkpt lat="30.765734100714326" lon="-4.172033797949553">
        <ele>659.12</ele>
        <time>2019-03-13T15:22:25Z</time>
      </trkpt>
      <trkpt lat="30.765677103772759" lon="-4.172094315290451">
        <ele>657.20000000000005</ele>
        <time>2019-03-13T15:22:26Z</time>
      </trkpt>
      <trkpt lat="30.765623124316335" lon="-4.172155251726508">
        <ele>657.20000000000005</ele>
        <time>2019-03-13T15:22:27Z</time>
      </trkpt>
      <trkpt lat="30.765566378831863" lon="-4.172210488468409">
        <ele>657.20000000000005</ele>
        <time>2019-03-13T15:22:28Z</time>
      </trkpt>
      <trkpt lat="30.765508795157075" lon="-4.172260025516152">
        <ele>656.72000000000003</ele>
        <time>2019-03-13T15:22:29Z</time>
      </trkpt>
      <trkpt lat="30.764822149649262" lon="-4.172874921932817">
        <ele>656.72000000000003</ele>
        <time>2019-03-13T15:22:40Z</time>
      </trkpt>
      <trkpt lat="30.763929141685367" lon="-4.173644129186869">
        <ele>656.72000000000003</ele>
        <time>2019-03-13T15:22:54Z</time>
      </trkpt>
      <trkpt lat="30.763185666874051" lon="-4.174316274002194">
        <ele>657.20000000000005</ele>
        <time>2019-03-13T15:23:06Z</time>
      </trkpt>
      <trkpt lat="30.76250933110714" lon="-4.174916921183467">
        <ele>657.20000000000005</ele>
        <time>2019-03-13T15:23:16Z</time>
      </trkpt>
      <trkpt lat="30.761860739439726" lon="-4.175541624426842">
        <ele>657.20000000000005</ele>
        <time>2019-03-13T15:23:26Z</time>
      </trkpt>
      <trkpt lat="30.761707099154592" lon="-4.175711693242192">
        <ele>657.20000000000005</ele>
        <time>2019-03-13T15:23:29Z</time>
      </trkpt>
      <trkpt lat="30.761664854362607" lon="-4.175772545859218">
        <ele>657.20000000000005</ele>
        <time>2019-03-13T15:23:30Z</time>
      </trkpt>
      <trkpt lat="30.761619592085481" lon="-4.175831219181418">
        <ele>658.63999999999999</ele>
        <time>2019-03-13T15:23:31Z</time>
      </trkpt>
      <trkpt lat="30.761333769187331" lon="-4.176154509186745">
        <ele>657.20000000000005</ele>
        <time>2019-03-13T15:23:36Z</time>
      </trkpt>
      <trkpt lat="30.761288506910205" lon="-4.176215026527643">
        <ele>656.72000000000003</ele>
        <time>2019-03-13T15:23:37Z</time>
      </trkpt>
      <trkpt lat="30.761081054806709" lon="-4.176521636545658">
        <ele>656.24000000000001</ele>
        <time>2019-03-13T15:23:42Z</time>
      </trkpt>
      <trkpt lat="30.761045012623072" lon="-4.176589362323284">
        <ele>658.63999999999999</ele>
        <time>2019-03-13T15:23:43Z</time>
      </trkpt>
      <trkpt lat="30.760706467553973" lon="-4.177166037261486">
        <ele>659.12</ele>
        <time>2019-03-13T15:23:52Z</time>
      </trkpt>
      <trkpt lat="30.760337077081203" lon="-4.177906159311533">
        <ele>659.60000000000002</ele>
        <time>2019-03-13T15:24:00Z</time>
      </trkpt>
      <trkpt lat="30.759997107088566" lon="-4.178568916395307">
        <ele>659.12</ele>
        <time>2019-03-13T15:24:07Z</time>
      </trkpt>
      <trkpt lat="30.759903229773045" lon="-4.178797658532858">
        <ele>659.12</ele>
        <time>2019-03-13T15:24:09Z</time>
      </trkpt>
      <trkpt lat="30.759474746882915" lon="-4.179624281823635">
        <ele>658.63999999999999</ele>
        <time>2019-03-13T15:24:18Z</time>
      </trkpt>
      <trkpt lat="30.759061519056559" lon="-4.18043615296483">
        <ele>658.63999999999999</ele>
        <time>2019-03-13T15:24:28Z</time>
      </trkpt>
      <trkpt lat="30.758566064760089" lon="-4.181412644684315">
        <ele>657.67999999999995</ele>
        <time>2019-03-13T15:24:39Z</time>
      </trkpt>
      <trkpt lat="30.758229028433561" lon="-4.182073390111327">
        <ele>657.67999999999995</ele>
        <time>2019-03-13T15:24:47Z</time>
      </trkpt>
      <trkpt lat="30.758075220510364" lon="-4.18233247473836">
        <ele>657.67999999999995</ele>
        <time>2019-03-13T15:24:50Z</time>
      </trkpt>
      <trkpt lat="30.758034735918045" lon="-4.18243121355772">
        <ele>657.67999999999995</ele>
        <time>2019-03-13T15:24:51Z</time>
      </trkpt>
      <trkpt lat="30.757949408143759" lon="-4.182627769187093">
        <ele>657.20000000000005</ele>
        <time>2019-03-13T15:24:53Z</time>
      </trkpt>
      <trkpt lat="30.757279526442289" lon="-4.183736275881529">
        <ele>657.20000000000005</ele>
        <time>2019-03-13T15:25:05Z</time>
      </trkpt>
      <trkpt lat="30.757058579474688" lon="-4.184213457629085">
        <ele>657.20000000000005</ele>
        <time>2019-03-13T15:25:10Z</time>
      </trkpt>
      <trkpt lat="30.757015496492386" lon="-4.184291241690517">
        <ele>658.63999999999999</ele>
        <time>2019-03-13T15:25:11Z</time>
      </trkpt>
      <trkpt lat="30.756967384368181" lon="-4.18436374515295">
        <ele>657.20000000000005</ele>
        <time>2019-03-13T15:25:12Z</time>
      </trkpt>
      <trkpt lat="30.756850121542811" lon="-4.184513781219721">
        <ele>657.20000000000005</ele>
        <time>2019-03-13T15:25:14Z</time>
      </trkpt>
      <trkpt lat="30.756792370229959" lon="-4.184602126479149">
        <ele>656.72000000000003</ele>
        <time>2019-03-13T15:25:15Z</time>
      </trkpt>
      <trkpt lat="30.756493555381894" lon="-4.185089701786637">
        <ele>655.27999999999997</ele>
        <time>2019-03-13T15:25:21Z</time>
      </trkpt>
      <trkpt lat="30.75597982853651" lon="-4.185993690043688">
        <ele>655.27999999999997</ele>
        <time>2019-03-13T15:25:32Z</time>
      </trkpt>
      <trkpt lat="30.755556458607316" lon="-4.186709672212601">
        <ele>655.27999999999997</ele>
        <time>2019-03-13T15:25:42Z</time>
      </trkpt>
      <trkpt lat="30.755039546638727" lon="-4.187608547508717">
        <ele>654.79999999999995</ele>
        <time>2019-03-13T15:25:53Z</time>
      </trkpt>
      <trkpt lat="30.754666551947594" lon="-4.188260575756431">
        <ele>653.35000000000002</ele>
        <time>2019-03-13T15:26:02Z</time>
      </trkpt>
      <trkpt lat="30.754077387973666" lon="-4.189266571775079">
        <ele>651.42999999999995</ele>
        <time>2019-03-13T15:26:14Z</time>
      </trkpt>
      <trkpt lat="30.753449248149991" lon="-4.190299557521939">
        <ele>653.35000000000002</ele>
        <time>2019-03-13T15:26:26Z</time>
      </trkpt>
      <trkpt lat="30.752808870747685" lon="-4.191381577402353">
        <ele>655.75999999999999</ele>
        <time>2019-03-13T15:26:39Z</time>
      </trkpt>
      <trkpt lat="30.752126667648554" lon="-4.192372988909483">
        <ele>655.27999999999997</ele>
        <time>2019-03-13T15:26:51Z</time>
      </trkpt>
      <trkpt lat="30.751635991036892" lon="-4.193184524774551">
        <ele>654.79999999999995</ele>
        <time>2019-03-13T15:27:01Z</time>
      </trkpt>
      <trkpt lat="30.751442452892661" lon="-4.193395748734474">
        <ele>652.87</ele>
        <time>2019-03-14T07:56:24Z</time>
      </trkpt>
      <trkpt lat="30.751046072691679" lon="-4.193931771442294">
        <ele>653.83000000000004</ele>
        <time>2019-03-14T07:56:33Z</time>
      </trkpt>
      <trkpt lat="30.750109311193228" lon="-4.195247897878289">
        <ele>653.83000000000004</ele>
        <time>2019-03-14T07:56:48Z</time>
      </trkpt>
      <trkpt lat="30.749873947352171" lon="-4.195522405207157">
        <ele>655.75999999999999</ele>
        <time>2019-03-14T07:56:52Z</time>
      </trkpt>
      <trkpt lat="30.749245136976242" lon="-4.1965027526021">
        <ele>655.27999999999997</ele>
        <time>2019-03-14T07:57:02Z</time>
      </trkpt>
      <trkpt lat="30.748188765719533" lon="-4.198063714429736">
        <ele>654.79999999999995</ele>
        <time>2019-03-14T07:57:15Z</time>
      </trkpt>
      <trkpt lat="30.747549645602703" lon="-4.198998548090458">
        <ele>654.30999999999995</ele>
        <time>2019-03-14T07:57:25Z</time>
      </trkpt>
      <trkpt lat="30.747044049203396" lon="-4.199795918539167">
        <ele>654.30999999999995</ele>
        <time>2019-03-14T07:57:34Z</time>
      </trkpt>
      <trkpt lat="30.746574075892568" lon="-4.201093856245279">
        <ele>653.35000000000002</ele>
        <time>2019-03-14T07:57:46Z</time>
      </trkpt>
      <trkpt lat="30.746510205790401" lon="-4.201403316110373">
        <ele>651.90999999999997</ele>
        <time>2019-03-14T07:57:49Z</time>
      </trkpt>
      <trkpt lat="30.746502494439483" lon="-4.201585035771132">
        <ele>651.90999999999997</ele>
        <time>2019-03-14T07:57:51Z</time>
      </trkpt>
      <trkpt lat="30.746480533853173" lon="-4.201675560325384">
        <ele>651.90999999999997</ele>
        <time>2019-03-14T07:57:52Z</time>
      </trkpt>
      <trkpt lat="30.746454549953341" lon="-4.201772874221206">
        <ele>651.90999999999997</ele>
        <time>2019-03-14T07:57:53Z</time>
      </trkpt>
      <trkpt lat="30.746212815865874" lon="-4.203034769743681">
        <ele>652.38999999999999</ele>
        <time>2019-03-14T07:58:04Z</time>
      </trkpt>
      <trkpt lat="30.746065881103277" lon="-4.203927610069513">
        <ele>652.38999999999999</ele>
        <time>2019-03-14T07:58:12Z</time>
      </trkpt>
      <trkpt lat="30.745776537805796" lon="-4.20553551055491">
        <ele>655.75999999999999</ele>
        <time>2019-03-14T07:58:25Z</time>
      </trkpt>
      <trkpt lat="30.745487613603473" lon="-4.207128239795566">
        <ele>655.27999999999997</ele>
        <time>2019-03-14T07:58:38Z</time>
      </trkpt>
      <trkpt lat="30.745178153738379" lon="-4.208864634856582">
        <ele>656.24000000000001</ele>
        <time>2019-03-14T07:58:51Z</time>
      </trkpt>
      <trkpt lat="30.744985872879624" lon="-4.210039107128978">
        <ele>656.24000000000001</ele>
        <time>2019-03-14T07:59:02Z</time>
      </trkpt>
      <trkpt lat="30.744820330291986" lon="-4.211015179753304">
        <ele>655.27999999999997</ele>
        <time>2019-03-14T07:59:12Z</time>
      </trkpt>
      <trkpt lat="30.744621846824884" lon="-4.212159560993314">
        <ele>655.75999999999999</ele>
        <time>2019-03-14T07:59:25Z</time>
      </trkpt>
      <trkpt lat="30.744420262053609" lon="-4.213318694382906">
        <ele>655.75999999999999</ele>
        <time>2019-03-14T07:59:37Z</time>
      </trkpt>
      <trkpt lat="30.7442238740623" lon="-4.214459639042616">
        <ele>654.30999999999995</ele>
        <time>2019-03-14T07:59:49Z</time>
      </trkpt>
      <trkpt lat="30.744077693670988" lon="-4.215263212099671">
        <ele>654.30999999999995</ele>
        <time>2019-03-14T07:59:58Z</time>
      </trkpt>
      <trkpt lat="30.74390385299921" lon="-4.216277087107301">
        <ele>653.83000000000004</ele>
        <time>2019-03-14T08:00:08Z</time>
      </trkpt>
      <trkpt lat="30.743762282654643" lon="-4.217108907178044">
        <ele>653.83000000000004</ele>
        <time>2019-03-14T08:00:17Z</time>
      </trkpt>
      <trkpt lat="30.743701513856649" lon="-4.218170810490847">
        <ele>651.42999999999995</ele>
        <time>2019-03-14T08:00:26Z</time>
      </trkpt>
      <trkpt lat="30.74368835426867" lon="-4.219747614115477">
        <ele>652.38999999999999</ele>
        <time>2019-03-14T08:00:38Z</time>
      </trkpt>
      <trkpt lat="30.743594476953149" lon="-4.220809433609247">
        <ele>651.42999999999995</ele>
        <time>2019-03-14T08:00:47Z</time>
      </trkpt>
      <trkpt lat="30.743596320971847" lon="-4.220910519361496">
        <ele>657.67999999999995</ele>
        <time>2019-03-14T08:00:48Z</time>
      </trkpt>
      <trkpt lat="30.743605541065335" lon="-4.221010766923428">
        <ele>656.24000000000001</ele>
        <time>2019-03-14T08:00:49Z</time>
      </trkpt>
      <trkpt lat="30.74356279335916" lon="-4.222170151770115">
        <ele>656.24000000000001</ele>
        <time>2019-03-14T08:00:59Z</time>
      </trkpt>
      <trkpt lat="30.743454918265343" lon="-4.223681995645165">
        <ele>656.72000000000003</ele>
        <time>2019-03-14T08:01:10Z</time>
      </trkpt>
      <trkpt lat="30.743493810296059" lon="-4.224783042445779">
        <ele>656.72000000000003</ele>
        <time>2019-03-14T08:01:19Z</time>
      </trkpt>
      <trkpt lat="30.743734035640955" lon="-4.226037729531527">
        <ele>657.20000000000005</ele>
        <time>2019-03-14T08:01:31Z</time>
      </trkpt>
      <trkpt lat="30.743833528831601" lon="-4.226743988692761">
        <ele>658.15999999999997</ele>
        <time>2019-03-14T08:01:39Z</time>
      </trkpt>
      <trkpt lat="30.7438940461725" lon="-4.227031571790576">
        <ele>660.08000000000004</ele>
        <time>2019-03-14T08:01:42Z</time>
      </trkpt>
      <trkpt lat="30.743965376168489" lon="-4.227211615070701">
        <ele>667.76999999999998</ele>
        <time>2019-03-14T08:01:44Z</time>
      </trkpt>
      <trkpt lat="30.743990438058972" lon="-4.227313371375203">
        <ele>668.25</ele>
        <time>2019-03-14T08:01:45Z</time>
      </trkpt>
      <trkpt lat="30.744006028398871" lon="-4.227422336116433">
        <ele>667.76999999999998</ele>
        <time>2019-03-14T08:01:46Z</time>
      </trkpt>
      <trkpt lat="30.744130918756127" lon="-4.228447694331408">
        <ele>662.97000000000003</ele>
        <time>2019-03-14T08:01:56Z</time>
      </trkpt>
      <trkpt lat="30.744037628173828" lon="-4.229402141645551">
        <ele>661.51999999999998</ele>
        <time>2019-03-14T08:02:05Z</time>
      </trkpt>
      <trkpt lat="30.74370495043695" lon="-4.230220634490252">
        <ele>662.49000000000001</ele>
        <time>2019-03-14T08:02:13Z</time>
      </trkpt>
      <trkpt lat="30.743595063686371" lon="-4.230387350544334">
        <ele>661.51999999999998</ele>
        <time>2019-03-14T08:02:16Z</time>
      </trkpt>
      <trkpt lat="30.74357008561492" lon="-4.230450466275215">
        <ele>660.55999999999995</ele>
        <time>2019-03-14T08:02:17Z</time>
      </trkpt>
      <trkpt lat="30.743247549980879" lon="-4.231179691851139">
        <ele>660.08000000000004</ele>
        <time>2019-03-14T08:02:25Z</time>
      </trkpt>
      <trkpt lat="30.74280146509409" lon="-4.23219557851553">
        <ele>659.60000000000002</ele>
        <time>2019-03-14T08:02:36Z</time>
      </trkpt>
      <trkpt lat="30.742429392412305" lon="-4.233365692198277">
        <ele>659.60000000000002</ele>
        <time>2019-03-14T08:02:46Z</time>
      </trkpt>
      <trkpt lat="30.742429979145527" lon="-4.233930632472038">
        <ele>659.60000000000002</ele>
        <time>2019-03-14T08:02:53Z</time>
      </trkpt>
      <trkpt lat="30.742434002459049" lon="-4.234036579728127">
        <ele>658.63999999999999</ele>
        <time>2019-03-14T08:03:00Z</time>
      </trkpt>
      <trkpt lat="30.742426374927163" lon="-4.234030963853002">
        <ele>657.20000000000005</ele>
        <time>2019-03-14T08:03:26Z</time>
      </trkpt>
      <trkpt lat="30.742467781528831" lon="-4.234273871406913">
        <ele>659.12</ele>
        <time>2019-03-14T08:03:37Z</time>
      </trkpt>
      <trkpt lat="30.742591917514801" lon="-4.235038887709379">
        <ele>660.55999999999995</ele>
        <time>2019-03-14T08:03:46Z</time>
      </trkpt>
      <trkpt lat="30.742721753194928" lon="-4.23585930839181">
        <ele>663.45000000000005</ele>
        <time>2019-03-14T08:03:56Z</time>
      </trkpt>
      <trkpt lat="30.742833064869046" lon="-4.236532542854548">
        <ele>664.40999999999997</ele>
        <time>2019-03-14T08:04:04Z</time>
      </trkpt>
      <trkpt lat="30.743017634376884" lon="-4.237679773941636">
        <ele>662.00999999999999</ele>
        <time>2019-03-14T08:04:14Z</time>
      </trkpt>
      <trkpt lat="30.743177141994238" lon="-4.238594239577651">
        <ele>659.60000000000002</ele>
        <time>2019-03-14T08:04:24Z</time>
      </trkpt>
      <trkpt lat="30.743376212194562" lon="-4.239786146208644">
        <ele>659.12</ele>
        <time>2019-03-14T08:04:35Z</time>
      </trkpt>
      <trkpt lat="30.743568325415254" lon="-4.240962630137801">
        <ele>659.12</ele>
        <time>2019-03-14T08:04:46Z</time>
      </trkpt>
      <trkpt lat="30.743624987080693" lon="-4.241355070844293">
        <ele>656.72000000000003</ele>
        <time>2019-03-14T08:04:51Z</time>
      </trkpt>
      <trkpt lat="30.743704447522759" lon="-4.242136431857944">
        <ele>654.30999999999995</ele>
        <time>2019-03-14T08:04:59Z</time>
      </trkpt>
      <trkpt lat="30.743743255734444" lon="-4.242851072922349">
        <ele>651.90999999999997</ele>
        <time>2019-03-14T08:05:06Z</time>
      </trkpt>
      <trkpt lat="30.74357888661325" lon="-4.243934936821461">
        <ele>651.42999999999995</ele>
        <time>2019-03-14T08:05:16Z</time>
      </trkpt>
      <trkpt lat="30.743449134752154" lon="-4.244566345587373">
        <ele>651.42999999999995</ele>
        <time>2019-03-14T08:05:24Z</time>
      </trkpt>
      <trkpt lat="30.743306055665016" lon="-4.245206136256456">
        <ele>651.42999999999995</ele>
        <time>2019-03-14T08:05:31Z</time>
      </trkpt>
      <trkpt lat="30.743107488378882" lon="-4.246065448969603">
        <ele>649.99000000000001</ele>
        <time>2019-03-14T08:05:40Z</time>
      </trkpt>
      <trkpt lat="30.742877405136824" lon="-4.246981758624315">
        <ele>649.50999999999999</ele>
        <time>2019-03-14T08:05:48Z</time>
      </trkpt>
      <trkpt lat="30.74252343736589" lon="-4.248252203688026">
        <ele>648.07000000000005</ele>
        <time>2019-03-14T08:05:58Z</time>
      </trkpt>
      <trkpt lat="30.742305926978588" lon="-4.248724859207869">
        <ele>647.59000000000003</ele>
        <time>2019-03-14T08:06:04Z</time>
      </trkpt>
      <trkpt lat="30.74226887896657" lon="-4.248789818957448">
        <ele>646.13999999999999</ele>
        <time>2019-03-14T08:06:12Z</time>
      </trkpt>
      <trkpt lat="30.742224873974919" lon="-4.248848240822554">
        <ele>644.70000000000005</ele>
        <time>2019-03-14T08:06:45Z</time>
      </trkpt>
      <trkpt lat="30.741927484050393" lon="-4.249344700947404">
        <ele>645.17999999999995</ele>
        <time>2019-03-14T08:06:52Z</time>
      </trkpt>
      <trkpt lat="30.741239413619041" lon="-4.250429319217801">
        <ele>645.65999999999997</ele>
        <time>2019-03-14T08:07:02Z</time>
      </trkpt>
      <trkpt lat="30.740668270736933" lon="-4.251836389303207">
        <ele>644.70000000000005</ele>
        <time>2019-03-14T08:07:13Z</time>
      </trkpt>
      <trkpt lat="30.740220090374351" lon="-4.253972098231316">
        <ele>645.17999999999995</ele>
        <time>2019-03-14T08:07:27Z</time>
      </trkpt>
      <trkpt lat="30.74012185446918" lon="-4.254880109801889">
        <ele>645.65999999999997</ele>
        <time>2019-03-14T08:07:34Z</time>
      </trkpt>
      <trkpt lat="30.740288319066167" lon="-4.256209982559085">
        <ele>645.65999999999997</ele>
        <time>2019-03-14T08:07:44Z</time>
      </trkpt>
      <trkpt lat="30.740760639309883" lon="-4.257788294926286">
        <ele>645.65999999999997</ele>
        <time>2019-03-14T08:07:57Z</time>
      </trkpt>
      <trkpt lat="30.740914698690176" lon="-4.258927563205361">
        <ele>645.65999999999997</ele>
        <time>2019-03-14T08:08:07Z</time>
      </trkpt>
      <trkpt lat="30.740939173847437" lon="-4.260144699364901">
        <ele>646.13999999999999</ele>
        <time>2019-03-14T08:08:18Z</time>
      </trkpt>
      <trkpt lat="30.740913525223732" lon="-4.26034058444202">
        <ele>646.62</ele>
        <time>2019-03-14T08:08:20Z</time>
      </trkpt>
      <trkpt lat="30.740893073379993" lon="-4.260432533919811">
        <ele>646.62</ele>
        <time>2019-03-14T08:08:21Z</time>
      </trkpt>
      <trkpt lat="30.740818809717894" lon="-4.260822627693415">
        <ele>647.10000000000002</ele>
        <time>2019-03-14T08:08:25Z</time>
      </trkpt>
      <trkpt lat="30.740817803889513" lon="-4.261996680870652">
        <ele>646.62</ele>
        <time>2019-03-14T08:08:35Z</time>
      </trkpt>
      <trkpt lat="30.74092224240303" lon="-4.263236280530691">
        <ele>646.13999999999999</ele>
        <time>2019-03-14T08:08:45Z</time>
      </trkpt>
      <trkpt lat="30.741087114438415" lon="-4.264405220746994">
        <ele>647.10000000000002</ele>
        <time>2019-03-14T08:08:54Z</time>
      </trkpt>
      <trkpt lat="30.740917045623064" lon="-4.265720257535577">
        <ele>646.62</ele>
        <time>2019-03-14T08:09:05Z</time>
      </trkpt>
      <trkpt lat="30.740644969046116" lon="-4.266958013176918">
        <ele>646.62</ele>
        <time>2019-03-14T08:09:16Z</time>
      </trkpt>
      <trkpt lat="30.740014901384711" lon="-4.268187386915088">
        <ele>647.10000000000002</ele>
        <time>2019-03-14T08:09:27Z</time>
      </trkpt>
      <trkpt lat="30.739230439066887" lon="-4.269466632977128">
        <ele>646.62</ele>
        <time>2019-03-14T08:09:39Z</time>
      </trkpt>
      <trkpt lat="30.73873900808394" lon="-4.270626772195101">
        <ele>646.62</ele>
        <time>2019-03-14T08:09:50Z</time>
      </trkpt>
      <trkpt lat="30.737928813323379" lon="-4.271869724616408">
        <ele>647.59000000000003</ele>
        <time>2019-03-14T08:10:03Z</time>
      </trkpt>
      <trkpt lat="30.737538887187839" lon="-4.272381775081158">
        <ele>645.17999999999995</ele>
        <time>2019-03-14T08:10:10Z</time>
      </trkpt>
      <trkpt lat="30.736969755962491" lon="-4.273437894880772">
        <ele>644.22000000000003</ele>
        <time>2019-03-14T08:10:21Z</time>
      </trkpt>
      <trkpt lat="30.736221671104431" lon="-4.274642374366522">
        <ele>644.70000000000005</ele>
        <time>2019-03-14T08:10:32Z</time>
      </trkpt>
      <trkpt lat="30.735874325037003" lon="-4.275327008217573">
        <ele>646.13999999999999</ele>
        <time>2019-03-14T08:10:41Z</time>
      </trkpt>
      <trkpt lat="30.735676931217313" lon="-4.275727076455951">
        <ele>646.62</ele>
        <time>2019-03-14T08:10:51Z</time>
      </trkpt>
      <trkpt lat="30.735678523778915" lon="-4.275718946009874">
        <ele>646.13999999999999</ele>
        <time>2019-03-14T08:11:25Z</time>
      </trkpt>
      <trkpt lat="30.735680032521486" lon="-4.275712575763464">
        <ele>646.62</ele>
        <time>2019-03-14T08:12:01Z</time>
      </trkpt>
      <trkpt lat="30.735625717788935" lon="-4.275827575474978">
        <ele>646.62</ele>
        <time>2019-03-14T08:12:28Z</time>
      </trkpt>
      <trkpt lat="30.735339978709817" lon="-4.276436436921358">
        <ele>647.10000000000002</ele>
        <time>2019-03-14T08:12:48Z</time>
      </trkpt>
      <trkpt lat="30.734772607684135" lon="-4.277623649686575">
        <ele>646.13999999999999</ele>
        <time>2019-03-14T08:13:00Z</time>
      </trkpt>
      <trkpt lat="30.734071377664804" lon="-4.279159884899855">
        <ele>645.17999999999995</ele>
        <time>2019-03-14T08:13:13Z</time>
      </trkpt>
      <trkpt lat="30.733581203967333" lon="-4.280220530927181">
        <ele>644.22000000000003</ele>
        <time>2019-03-14T08:13:23Z</time>
      </trkpt>
      <trkpt lat="30.732598844915628" lon="-4.282280970364809">
        <ele>644.22000000000003</ele>
        <time>2019-03-14T08:13:41Z</time>
      </trkpt>
      <trkpt lat="30.73184547945857" lon="-4.283852158114314">
        <ele>644.70000000000005</ele>
        <time>2019-03-14T08:13:54Z</time>
      </trkpt>
      <trkpt lat="30.731216166168451" lon="-4.285236094146967">
        <ele>645.17999999999995</ele>
        <time>2019-03-14T08:14:05Z</time>
      </trkpt>
      <trkpt lat="30.730855325236917" lon="-4.286427414044738">
        <ele>645.17999999999995</ele>
        <time>2019-03-14T08:14:15Z</time>
      </trkpt>
      <trkpt lat="30.730450730770826" lon="-4.28748051635921">
        <ele>644.70000000000005</ele>
        <time>2019-03-14T08:14:25Z</time>
      </trkpt>
      <trkpt lat="30.730418041348457" lon="-4.28755721077323">
        <ele>645.17999999999995</ele>
        <time>2019-03-14T08:14:26Z</time>
      </trkpt>
      <trkpt lat="30.730097601190209" lon="-4.288273109123111">
        <ele>646.62</ele>
        <time>2019-03-14T08:14:34Z</time>
      </trkpt>
      <trkpt lat="30.729555627331138" lon="-4.289304669946432">
        <ele>647.10000000000002</ele>
        <time>2019-03-14T08:14:44Z</time>
      </trkpt>
      <trkpt lat="30.728853140026331" lon="-4.290440836921334">
        <ele>648.07000000000005</ele>
        <time>2019-03-14T08:14:55Z</time>
      </trkpt>
      <trkpt lat="30.72820857167244" lon="-4.291566107422113">
        <ele>647.59000000000003</ele>
        <time>2019-03-14T08:15:06Z</time>
      </trkpt>
      <trkpt lat="30.727505832910538" lon="-4.293019026517868">
        <ele>646.62</ele>
        <time>2019-03-14T08:15:19Z</time>
      </trkpt>
      <trkpt lat="30.726793119683862" lon="-4.294560290873051">
        <ele>647.10000000000002</ele>
        <time>2019-03-14T08:15:32Z</time>
      </trkpt>
      <trkpt lat="30.726396655663848" lon="-4.295452795922756">
        <ele>647.10000000000002</ele>
        <time>2019-03-14T08:15:41Z</time>
      </trkpt>
      <trkpt lat="30.725704310461879" lon="-4.29693941026926">
        <ele>647.10000000000002</ele>
        <time>2019-03-14T08:15:53Z</time>
      </trkpt>
      <trkpt lat="30.724688842892647" lon="-4.299099929630756">
        <ele>647.10000000000002</ele>
        <time>2019-03-14T08:16:09Z</time>
      </trkpt>
      <trkpt lat="30.724066821858287" lon="-4.300490655004978">
        <ele>647.59000000000003</ele>
        <time>2019-03-14T08:16:20Z</time>
      </trkpt>
      <trkpt lat="30.72400345467031" lon="-4.300610097125173">
        <ele>647.59000000000003</ele>
        <time>2019-03-14T08:16:21Z</time>
      </trkpt>
      <trkpt lat="30.723928855732083" lon="-4.300721408799291">
        <ele>647.59000000000003</ele>
        <time>2019-03-14T08:16:22Z</time>
      </trkpt>
      <trkpt lat="30.723734647035599" lon="-4.301005806773901">
        <ele>647.59000000000003</ele>
        <time>2019-03-14T08:16:25Z</time>
      </trkpt>
      <trkpt lat="30.723688211292028" lon="-4.301102533936501">
        <ele>647.59000000000003</ele>
        <time>2019-03-14T08:16:26Z</time>
      </trkpt>
      <trkpt lat="30.723654516041279" lon="-4.301207223907113">
        <ele>647.59000000000003</ele>
        <time>2019-03-14T08:16:27Z</time>
      </trkpt>
      <trkpt lat="30.723623000085354" lon="-4.301320882514119">
        <ele>647.59000000000003</ele>
        <time>2019-03-14T08:16:28Z</time>
      </trkpt>
      <trkpt lat="30.72358226403594" lon="-4.301433702930808">
        <ele>646.62</ele>
        <time>2019-03-14T08:16:29Z</time>
      </trkpt>
      <trkpt lat="30.723534990102053" lon="-4.301542500033975">
        <ele>644.70000000000005</ele>
        <time>2019-03-14T08:16:30Z</time>
      </trkpt>
      <trkpt lat="30.723486877977848" lon="-4.301638221368194">
        <ele>643.74000000000001</ele>
        <time>2019-03-14T08:16:31Z</time>
      </trkpt>
      <trkpt lat="30.723303901031613" lon="-4.301935862749815">
        <ele>643.74000000000001</ele>
        <time>2019-03-14T08:16:35Z</time>
      </trkpt>
      <trkpt lat="30.723263919353485" lon="-4.302016831934452">
        <ele>643.74000000000001</ele>
        <time>2019-03-14T08:16:36Z</time>
      </trkpt>
      <trkpt lat="30.722732925787568" lon="-4.303110502660275">
        <ele>643.74000000000001</ele>
        <time>2019-03-14T08:16:47Z</time>
      </trkpt>
      <trkpt lat="30.722395554184914" lon="-4.303839476779103">
        <ele>643.74000000000001</ele>
        <time>2019-03-14T08:16:55Z</time>
      </trkpt>
      <trkpt lat="30.721832709386945" lon="-4.305023839697242">
        <ele>643.74000000000001</ele>
        <time>2019-03-14T08:17:05Z</time>
      </trkpt>
      <trkpt lat="30.721183195710182" lon="-4.306337619200349">
        <ele>643.25999999999999</ele>
        <time>2019-03-14T08:17:16Z</time>
      </trkpt>
      <trkpt lat="30.7210096064955" lon="-4.306634673848748">
        <ele>642.77999999999997</ele>
        <time>2019-03-14T08:17:19Z</time>
      </trkpt>
      <trkpt lat="30.720805758610368" lon="-4.306921670213342">
        <ele>642.77999999999997</ele>
        <time>2019-03-14T08:17:22Z</time>
      </trkpt>
      <trkpt lat="30.720753036439419" lon="-4.3070222530514">
        <ele>642.77999999999997</ele>
        <time>2019-03-14T08:17:23Z</time>
      </trkpt>
      <trkpt lat="30.72071154601872" lon="-4.307121830061078">
        <ele>643.25999999999999</ele>
        <time>2019-03-14T08:17:24Z</time>
      </trkpt>
      <trkpt lat="30.720543153584003" lon="-4.307641256600618">
        <ele>642.29999999999995</ele>
        <time>2019-03-14T08:17:29Z</time>
      </trkpt>
      <trkpt lat="30.720493113622069" lon="-4.307729182764888">
        <ele>641.34000000000003</ele>
        <time>2019-03-14T08:17:30Z</time>
      </trkpt>
      <trkpt lat="30.720446426421404" lon="-4.307808978483081">
        <ele>641.34000000000003</ele>
        <time>2019-03-14T08:17:31Z</time>
      </trkpt>
      <trkpt lat="30.720413317903876" lon="-4.307877458631992">
        <ele>640.86000000000001</ele>
        <time>2019-03-14T08:17:32Z</time>
      </trkpt>
      <trkpt lat="30.720386328175664" lon="-4.307937221601605">
        <ele>640.86000000000001</ele>
        <time>2019-03-14T08:17:33Z</time>
      </trkpt>
      <trkpt lat="30.720101930201054" lon="-4.308572402223945">
        <ele>641.82000000000005</ele>
        <time>2019-03-14T08:17:44Z</time>
      </trkpt>
      <trkpt lat="30.71993856690824" lon="-4.30894548073411">
        <ele>642.29999999999995</ele>
        <time>2019-03-14T08:17:49Z</time>
      </trkpt>
      <trkpt lat="30.719869751483202" lon="-4.309216970577836">
        <ele>642.29999999999995</ele>
        <time>2019-03-14T08:17:52Z</time>
      </trkpt>
      <trkpt lat="30.719834715127945" lon="-4.309305986389518">
        <ele>642.29999999999995</ele>
        <time>2019-03-14T08:17:53Z</time>
      </trkpt>
      <trkpt lat="30.71979196742177" lon="-4.309393661096692">
        <ele>642.29999999999995</ele>
        <time>2019-03-14T08:17:54Z</time>
      </trkpt>
      <trkpt lat="30.719648636877537" lon="-4.309647884219885">
        <ele>641.82000000000005</ele>
        <time>2019-03-14T08:17:58Z</time>
      </trkpt>
      <trkpt lat="30.719616785645485" lon="-4.309700354933739">
        <ele>641.34000000000003</ele>
        <time>2019-03-14T08:17:59Z</time>
      </trkpt>
      <trkpt lat="30.719543946906924" lon="-4.309805883094668">
        <ele>641.34000000000003</ele>
        <time>2019-03-14T08:18:01Z</time>
      </trkpt>
      <trkpt lat="30.719513352960348" lon="-4.309862460941076">
        <ele>641.34000000000003</ele>
        <time>2019-03-14T08:18:02Z</time>
      </trkpt>
      <trkpt lat="30.719473538920283" lon="-4.309917781502008">
        <ele>641.34000000000003</ele>
        <time>2019-03-14T08:18:03Z</time>
      </trkpt>
      <trkpt lat="30.719429450109601" lon="-4.309978801757097">
        <ele>641.34000000000003</ele>
        <time>2019-03-14T08:18:04Z</time>
      </trkpt>
      <trkpt lat="30.719388462603092" lon="-4.310052981600165">
        <ele>641.34000000000003</ele>
        <time>2019-03-14T08:18:05Z</time>
      </trkpt>
      <trkpt lat="30.719353090971708" lon="-4.310133615508676">
        <ele>641.34000000000003</ele>
        <time>2019-03-14T08:18:06Z</time>
      </trkpt>
      <trkpt lat="30.719324424862862" lon="-4.310219110921025">
        <ele>641.34000000000003</ele>
        <time>2019-03-14T08:18:07Z</time>
      </trkpt>
      <trkpt lat="30.719301542267203" lon="-4.310307875275612">
        <ele>641.34000000000003</ele>
        <time>2019-03-14T08:18:08Z</time>
      </trkpt>
      <trkpt lat="30.719280503690243" lon="-4.310397645458579">
        <ele>641.34000000000003</ele>
        <time>2019-03-14T08:18:09Z</time>
      </trkpt>
      <trkpt lat="30.719256363809109" lon="-4.310481464490295">
        <ele>641.34000000000003</ele>
        <time>2019-03-14T08:18:10Z</time>
      </trkpt>
      <trkpt lat="30.719228452071548" lon="-4.31055354885757">
        <ele>640.86000000000001</ele>
        <time>2019-03-14T08:18:11Z</time>
      </trkpt>
      <trkpt lat="30.719197690486908" lon="-4.310615239664912">
        <ele>640.86000000000001</ele>
        <time>2019-03-14T08:18:12Z</time>
      </trkpt>
      <trkpt lat="30.719163240864873" lon="-4.310670392587781">
        <ele>640.38</ele>
        <time>2019-03-14T08:18:13Z</time>
      </trkpt>
      <trkpt lat="30.71912401355803" lon="-4.310725796967745">
        <ele>641.34000000000003</ele>
        <time>2019-03-14T08:18:14Z</time>
      </trkpt>
      <trkpt lat="30.71908688172698" lon="-4.310788409784436">
        <ele>640.86000000000001</ele>
        <time>2019-03-14T08:18:15Z</time>
      </trkpt>
      <trkpt lat="30.719054024666548" lon="-4.310863427817822">
        <ele>641.34000000000003</ele>
        <time>2019-03-14T08:18:16Z</time>
      </trkpt>
      <trkpt lat="30.719017563387752" lon="-4.310947163030505">
        <ele>640.86000000000001</ele>
        <time>2019-03-14T08:18:17Z</time>
      </trkpt>
      <trkpt lat="30.718849338591099" lon="-4.311234997585416">
        <ele>640.86000000000001</ele>
        <time>2019-03-14T08:18:21Z</time>
      </trkpt>
      <trkpt lat="30.718740373849869" lon="-4.311367515474558">
        <ele>640.86000000000001</ele>
        <time>2019-03-14T08:18:25Z</time>
      </trkpt>
      <trkpt lat="30.718721179291606" lon="-4.311419231817126">
        <ele>640.86000000000001</ele>
        <time>2019-03-14T08:18:26Z</time>
      </trkpt>
      <trkpt lat="30.718471650034189" lon="-4.3120595254004">
        <ele>640.86000000000001</ele>
        <time>2019-03-14T08:18:33Z</time>
      </trkpt>
      <trkpt lat="30.718311639502645" lon="-4.312363369390369">
        <ele>640.86000000000001</ele>
        <time>2019-03-14T08:18:36Z</time>
      </trkpt>
      <trkpt lat="30.718278530985117" lon="-4.312466215342283">
        <ele>640.86000000000001</ele>
        <time>2019-03-14T08:18:37Z</time>
      </trkpt>
      <trkpt lat="30.718260426074266" lon="-4.312559170648456">
        <ele>641.34000000000003</ele>
        <time>2019-03-14T08:18:38Z</time>
      </trkpt>
      <trkpt lat="30.718258330598474" lon="-4.312644330784679">
        <ele>641.34000000000003</ele>
        <time>2019-03-14T08:18:39Z</time>
      </trkpt>
      <trkpt lat="30.718255396932364" lon="-4.312735693529248">
        <ele>639.88999999999999</ele>
        <time>2019-03-14T08:18:40Z</time>
      </trkpt>
      <trkpt lat="30.718238465487957" lon="-4.312829319387674">
        <ele>639.40999999999997</ele>
        <time>2019-03-14T08:18:41Z</time>
      </trkpt>
      <trkpt lat="30.71821566671133" lon="-4.312932249158621">
        <ele>638.92999999999995</ele>
        <time>2019-03-14T08:18:42Z</time>
      </trkpt>
      <trkpt lat="30.718055907636881" lon="-4.313984513282776">
        <ele>639.40999999999997</ele>
        <time>2019-03-14T08:18:51Z</time>
      </trkpt>
      <trkpt lat="30.717860190197825" lon="-4.315537763759494">
        <ele>638.92999999999995</ele>
        <time>2019-03-14T08:19:04Z</time>
      </trkpt>
      <trkpt lat="30.717721553519368" lon="-4.316599331796169">
        <ele>638.45000000000005</ele>
        <time>2019-03-14T08:19:13Z</time>
      </trkpt>
      <trkpt lat="30.717569924890995" lon="-4.317766260355711">
        <ele>638.45000000000005</ele>
        <time>2019-03-14T08:19:24Z</time>
      </trkpt>
      <trkpt lat="30.717430366203189" lon="-4.318888261914253">
        <ele>638.45000000000005</ele>
        <time>2019-03-14T08:19:36Z</time>
      </trkpt>
      <trkpt lat="30.717269936576486" lon="-4.320156192407012">
        <ele>638.45000000000005</ele>
        <time>2019-03-14T08:19:48Z</time>
      </trkpt>
      <trkpt lat="30.717094503343105" lon="-4.321507522836328">
        <ele>638.45000000000005</ele>
        <time>2019-03-14T08:20:00Z</time>
      </trkpt>
      <trkpt lat="30.716883866116405" lon="-4.323004027828574">
        <ele>638.45000000000005</ele>
        <time>2019-03-14T08:20:13Z</time>
      </trkpt>
      <trkpt lat="30.716717904433608" lon="-4.324315125122666">
        <ele>637.97000000000003</ele>
        <time>2019-03-14T08:20:24Z</time>
      </trkpt>
      <trkpt lat="30.716574657708406" lon="-4.325687829405069">
        <ele>637.97000000000003</ele>
        <time>2019-03-14T08:20:35Z</time>
      </trkpt>
      <trkpt lat="30.716570131480694" lon="-4.325813474133611">
        <ele>637.97000000000003</ele>
        <time>2019-03-14T08:20:36Z</time>
      </trkpt>
      <trkpt lat="30.716563928872347" lon="-4.326161071658135">
        <ele>638.45000000000005</ele>
        <time>2019-03-14T08:20:39Z</time>
      </trkpt>
      <trkpt lat="30.716540375724435" lon="-4.326260481029749">
        <ele>638.45000000000005</ele>
        <time>2019-03-14T08:20:40Z</time>
      </trkpt>
      <trkpt lat="30.716512966901064" lon="-4.326361399143934">
        <ele>638.45000000000005</ele>
        <time>2019-03-14T08:20:41Z</time>
      </trkpt>
      <trkpt lat="30.716489665210247" lon="-4.326468519866467">
        <ele>638.45000000000005</ele>
        <time>2019-03-14T08:20:42Z</time>
      </trkpt>
      <trkpt lat="30.716471979394555" lon="-4.326581591740251">
        <ele>638.45000000000005</ele>
        <time>2019-03-14T08:20:43Z</time>
      </trkpt>
      <trkpt lat="30.716463178396225" lon="-4.32669734582305">
        <ele>638.45000000000005</ele>
        <time>2019-03-14T08:20:44Z</time>
      </trkpt>
      <trkpt lat="30.716460831463337" lon="-4.326816285029054">
        <ele>637.97000000000003</ele>
        <time>2019-03-14T08:20:45Z</time>
      </trkpt>
      <trkpt lat="30.71625187061727" lon="-4.328028308227658">
        <ele>637.00999999999999</ele>
        <time>2019-03-14T08:20:55Z</time>
      </trkpt>
      <trkpt lat="30.716091692447662" lon="-4.329324904829264">
        <ele>637.49000000000001</ele>
        <time>2019-03-14T08:21:06Z</time>
      </trkpt>
      <trkpt lat="30.715844007208943" lon="-4.331193063408136">
        <ele>637.49000000000001</ele>
        <time>2019-03-14T08:21:20Z</time>
      </trkpt>
      <trkpt lat="30.715779885649681" lon="-4.332843208685517">
        <ele>637.49000000000001</ele>
        <time>2019-03-14T08:21:33Z</time>
      </trkpt>
      <trkpt lat="30.715553406625986" lon="-4.334534592926502">
        <ele>637.97000000000003</ele>
        <time>2019-03-14T08:21:46Z</time>
      </trkpt>
      <trkpt lat="30.715667735785246" lon="-4.336189767345786">
        <ele>637.97000000000003</ele>
        <time>2019-03-14T08:21:59Z</time>
      </trkpt>
      <trkpt lat="30.715565560385585" lon="-4.337140778079629">
        <ele>637.00999999999999</ele>
        <time>2019-03-14T08:22:07Z</time>
      </trkpt>
      <trkpt lat="30.715530775487423" lon="-4.337252676486969">
        <ele>637.00999999999999</ele>
        <time>2019-03-14T08:22:08Z</time>
      </trkpt>
      <trkpt lat="30.715090641751885" lon="-4.338388340547681">
        <ele>637.00999999999999</ele>
        <time>2019-03-14T08:22:18Z</time>
      </trkpt>
      <trkpt lat="30.715074967592955" lon="-4.338507447391748">
        <ele>636.52999999999997</ele>
        <time>2019-03-14T08:22:19Z</time>
      </trkpt>
      <trkpt lat="30.715069267898798" lon="-4.338630493730307">
        <ele>636.52999999999997</ele>
        <time>2019-03-14T08:22:20Z</time>
      </trkpt>
      <trkpt lat="30.715065244585276" lon="-4.3389883171767">
        <ele>636.52999999999997</ele>
        <time>2019-03-14T08:22:23Z</time>
      </trkpt>
      <trkpt lat="30.715052168816328" lon="-4.339097449555993">
        <ele>636.52999999999997</ele>
        <time>2019-03-14T08:22:24Z</time>
      </trkpt>
      <trkpt lat="30.714891739189625" lon="-4.33993580751121">
        <ele>636.52999999999997</ele>
        <time>2019-03-14T08:22:31Z</time>
      </trkpt>
      <trkpt lat="30.714753437787294" lon="-4.340294469147921">
        <ele>636.52999999999997</ele>
        <time>2019-03-14T08:22:34Z</time>
      </trkpt>
      <trkpt lat="30.714721502736211" lon="-4.340417012572289">
        <ele>637.00999999999999</ele>
        <time>2019-03-14T08:22:35Z</time>
      </trkpt>
      <trkpt lat="30.714697949588299" lon="-4.340541819110513">
        <ele>637.00999999999999</ele>
        <time>2019-03-14T08:22:36Z</time>
      </trkpt>
      <trkpt lat="30.714647993445396" lon="-4.341776641085744">
        <ele>637.00999999999999</ele>
        <time>2019-03-14T08:22:46Z</time>
      </trkpt>
      <trkpt lat="30.714629469439387" lon="-4.341879906132817">
        <ele>637.49000000000001</ele>
        <time>2019-03-14T08:22:47Z</time>
      </trkpt>
      <trkpt lat="30.714592505246401" lon="-4.341979399323463">
        <ele>637.00999999999999</ele>
        <time>2019-03-14T08:22:48Z</time>
      </trkpt>
      <trkpt lat="30.714549338445067" lon="-4.342080485075712">
        <ele>636.04999999999995</ele>
        <time>2019-03-14T08:22:49Z</time>
      </trkpt>
      <trkpt lat="30.714513463899493" lon="-4.342189449816942">
        <ele>635.09000000000003</ele>
        <time>2019-03-14T08:22:50Z</time>
      </trkpt>
      <trkpt lat="30.714487982913852" lon="-4.342307550832629">
        <ele>635.57000000000005</ele>
        <time>2019-03-14T08:22:51Z</time>
      </trkpt>
      <trkpt lat="30.714465687051415" lon="-4.342431100085378">
        <ele>636.04999999999995</ele>
        <time>2019-03-14T08:22:52Z</time>
      </trkpt>
      <trkpt lat="30.714269634336233" lon="-4.343786286190152">
        <ele>635.57000000000005</ele>
        <time>2019-03-14T08:23:02Z</time>
      </trkpt>
      <trkpt lat="30.714070899412036" lon="-4.345526704564691">
        <ele>636.52999999999997</ele>
        <time>2019-03-14T08:23:15Z</time>
      </trkpt>
      <trkpt lat="30.713860681280494" lon="-4.347522016614676">
        <ele>635.09000000000003</ele>
        <time>2019-03-14T08:23:30Z</time>
      </trkpt>
      <trkpt lat="30.713666137307882" lon="-4.349785633385181">
        <ele>634.61000000000001</ele>
        <time>2019-03-14T08:23:46Z</time>
      </trkpt>
      <trkpt lat="30.7134441845119" lon="-4.352549398317933">
        <ele>635.09000000000003</ele>
        <time>2019-03-14T08:24:03Z</time>
      </trkpt>
      <trkpt lat="30.713167916983366" lon="-4.354423424229026">
        <ele>635.57000000000005</ele>
        <time>2019-03-14T08:24:15Z</time>
      </trkpt>
      <trkpt lat="30.713100358843803" lon="-4.354831958189607">
        <ele>635.57000000000005</ele>
        <time>2019-03-14T08:24:21Z</time>
      </trkpt>
      <trkpt lat="30.713095245882869" lon="-4.354816535487771">
        <ele>636.04999999999995</ele>
        <time>2019-03-14T08:24:43Z</time>
      </trkpt>
      <trkpt lat="30.713061634451151" lon="-4.354997333139181">
        <ele>636.04999999999995</ele>
        <time>2019-03-14T08:25:07Z</time>
      </trkpt>
      <trkpt lat="30.712936660274863" lon="-4.355689259245992">
        <ele>636.04999999999995</ele>
        <time>2019-03-14T08:25:14Z</time>
      </trkpt>
      <trkpt lat="30.712711019441485" lon="-4.3569615483284">
        <ele>636.04999999999995</ele>
        <time>2019-03-14T08:25:25Z</time>
      </trkpt>
      <trkpt lat="30.712424777448177" lon="-4.358746558427811">
        <ele>637.49000000000001</ele>
        <time>2019-03-14T08:25:42Z</time>
      </trkpt>
      <trkpt lat="30.712253451347351" lon="-4.359820364043117">
        <ele>637.97000000000003</ele>
        <time>2019-03-14T08:25:51Z</time>
      </trkpt>
      <trkpt lat="30.712006436660886" lon="-4.361579222604632">
        <ele>639.88999999999999</ele>
        <time>2019-03-14T08:26:01Z</time>
      </trkpt>
      <trkpt lat="30.711658168584108" lon="-4.364106953144074">
        <ele>642.77999999999997</ele>
        <time>2019-03-14T08:26:14Z</time>
      </trkpt>
      <trkpt lat="30.711199259385467" lon="-4.367649732157588">
        <ele>646.13999999999999</ele>
        <time>2019-03-14T08:26:31Z</time>
      </trkpt>
      <trkpt lat="30.710986610502005" lon="-4.369173478335142">
        <ele>648.54999999999995</ele>
        <time>2019-03-14T08:26:40Z</time>
      </trkpt>
      <trkpt lat="30.710833221673965" lon="-4.370376616716385">
        <ele>650.95000000000005</ele>
        <time>2019-03-14T08:26:51Z</time>
      </trkpt>
      <trkpt lat="30.710657704621553" lon="-4.371708752587438">
        <ele>655.27999999999997</ele>
        <time>2019-03-14T08:27:02Z</time>
      </trkpt>
      <trkpt lat="30.710493922233582" lon="-4.373045833781362">
        <ele>661.03999999999996</ele>
        <time>2019-03-14T08:27:12Z</time>
      </trkpt>
      <trkpt lat="30.710300803184509" lon="-4.374505458399653">
        <ele>662.00999999999999</ele>
        <time>2019-03-14T08:27:24Z</time>
      </trkpt>
      <trkpt lat="30.710071306675673" lon="-4.375524781644344">
        <ele>662.49000000000001</ele>
        <time>2019-03-14T08:27:34Z</time>
      </trkpt>
      <trkpt lat="30.709772994741797" lon="-4.376250822097063">
        <ele>662.49000000000001</ele>
        <time>2019-03-14T08:27:42Z</time>
      </trkpt>
      <trkpt lat="30.709332190454006" lon="-4.377222787588835">
        <ele>662.97000000000003</ele>
        <time>2019-03-14T08:27:53Z</time>
      </trkpt>
      <trkpt lat="30.709016695618629" lon="-4.377831481397152">
        <ele>662.97000000000003</ele>
        <time>2019-03-14T08:28:02Z</time>
      </trkpt>
      <trkpt lat="30.708654848858714" lon="-4.378463644534349">
        <ele>662.97000000000003</ele>
        <time>2019-03-14T08:28:10Z</time>
      </trkpt>
      <trkpt lat="30.70844697766006" lon="-4.378883829340339">
        <ele>662.97000000000003</ele>
        <time>2019-03-14T08:28:14Z</time>
      </trkpt>
      <trkpt lat="30.708410181105137" lon="-4.37899187207222">
        <ele>663.45000000000005</ele>
        <time>2019-03-14T08:28:15Z</time>
      </trkpt>
      <trkpt lat="30.708375396206975" lon="-4.379095053300262">
        <ele>663.92999999999995</ele>
        <time>2019-03-14T08:28:16Z</time>
      </trkpt>
      <trkpt lat="30.708334157243371" lon="-4.379194211214781">
        <ele>663.92999999999995</ele>
        <time>2019-03-14T08:28:17Z</time>
      </trkpt>
      <trkpt lat="30.708285123109818" lon="-4.379290686920285">
        <ele>664.40999999999997</ele>
        <time>2019-03-14T08:28:18Z</time>
      </trkpt>
      <trkpt lat="30.708228712901473" lon="-4.379385150969029">
        <ele>665.37</ele>
        <time>2019-03-14T08:28:19Z</time>
      </trkpt>
      <trkpt lat="30.707794446498156" lon="-4.380246810615063">
        <ele>665.37</ele>
        <time>2019-03-14T08:28:28Z</time>
      </trkpt>
      <trkpt lat="30.707531254738569" lon="-4.380713514983654">
        <ele>664.88999999999999</ele>
        <time>2019-03-14T08:28:35Z</time>
      </trkpt>
      <trkpt lat="30.70750879123807" lon="-4.380771517753601">
        <ele>664.88999999999999</ele>
        <time>2019-03-14T08:28:36Z</time>
      </trkpt>
      <trkpt lat="30.707463780418038" lon="-4.380892384797335">
        <ele>663.45000000000005</ele>
        <time>2019-03-14T08:28:38Z</time>
      </trkpt>
      <trkpt lat="30.707017779350281" lon="-4.381774077191949">
        <ele>663.45000000000005</ele>
        <time>2019-03-14T08:28:51Z</time>
      </trkpt>
      <trkpt lat="30.706439428031445" lon="-4.382907226681709">
        <ele>663.45000000000005</ele>
        <time>2019-03-14T08:29:02Z</time>
      </trkpt>
      <trkpt lat="30.705946488305926" lon="-4.383907858282328">
        <ele>661.03999999999996</ele>
        <time>2019-03-14T08:29:13Z</time>
      </trkpt>
      <trkpt lat="30.705428067594767" lon="-4.384930450469255">
        <ele>662.00999999999999</ele>
        <time>2019-03-14T08:29:25Z</time>
      </trkpt>
      <trkpt lat="30.704825911670923" lon="-4.386157225817442">
        <ele>661.03999999999996</ele>
        <time>2019-03-14T08:29:39Z</time>
      </trkpt>
      <trkpt lat="30.704311178997159" lon="-4.387187026441097">
        <ele>660.55999999999995</ele>
        <time>2019-03-14T08:29:53Z</time>
      </trkpt>
      <trkpt lat="30.703931394964457" lon="-4.387931423261762">
        <ele>660.55999999999995</ele>
        <time>2019-03-14T08:30:06Z</time>
      </trkpt>
      <trkpt lat="30.703368550166488" lon="-4.389058286324143">
        <ele>660.08000000000004</ele>
        <time>2019-03-14T08:30:19Z</time>
      </trkpt>
      <trkpt lat="30.702702524140477" lon="-4.390370221808553">
        <ele>658.63999999999999</ele>
        <time>2019-03-14T08:30:33Z</time>
      </trkpt>
      <trkpt lat="30.702294073998928" lon="-4.391280915588141">
        <ele>658.63999999999999</ele>
        <time>2019-03-14T08:30:43Z</time>
      </trkpt>
      <trkpt lat="30.701957624405622" lon="-4.391914587467909">
        <ele>658.15999999999997</ele>
        <time>2019-03-14T08:30:50Z</time>
      </trkpt>
      <trkpt lat="30.701404754072428" lon="-4.39302921295166">
        <ele>657.67999999999995</ele>
        <time>2019-03-14T08:31:02Z</time>
      </trkpt>
      <trkpt lat="30.700975181534886" lon="-4.393894812092185">
        <ele>657.67999999999995</ele>
        <time>2019-03-14T08:31:13Z</time>
      </trkpt>
      <trkpt lat="30.7004632987082" lon="-4.394871136173606">
        <ele>657.67999999999995</ele>
        <time>2019-03-14T08:31:26Z</time>
      </trkpt>
      <trkpt lat="30.700435219332576" lon="-4.394946908578277">
        <ele>657.67999999999995</ele>
        <time>2019-03-14T08:31:27Z</time>
      </trkpt>
      <trkpt lat="30.700418036431074" lon="-4.395026536658406">
        <ele>657.20000000000005</ele>
        <time>2019-03-14T08:31:28Z</time>
      </trkpt>
      <trkpt lat="30.700383502990007" lon="-4.395182188600302">
        <ele>655.27999999999997</ele>
        <time>2019-03-14T08:31:30Z</time>
      </trkpt>
      <trkpt lat="30.700346119701862" lon="-4.395260559394956">
        <ele>653.83000000000004</ele>
        <time>2019-03-14T08:31:31Z</time>
      </trkpt>
      <trkpt lat="30.700298007577658" lon="-4.395337253808975">
        <ele>652.87</ele>
        <time>2019-03-14T08:31:32Z</time>
      </trkpt>
      <trkpt lat="30.700125927105546" lon="-4.395577646791935">
        <ele>651.90999999999997</ele>
        <time>2019-03-14T08:31:35Z</time>
      </trkpt>
      <trkpt lat="30.700079156085849" lon="-4.39567169174552">
        <ele>650.47000000000003</ele>
        <time>2019-03-14T08:31:36Z</time>
      </trkpt>
      <trkpt lat="30.699457218870521" lon="-4.396903160959482">
        <ele>649.02999999999997</ele>
        <time>2019-03-14T08:31:49Z</time>
      </trkpt>
      <trkpt lat="30.698676193132997" lon="-4.397988617420197">
        <ele>648.54999999999995</ele>
        <time>2019-03-14T08:32:01Z</time>
      </trkpt>
      <trkpt lat="30.697942860424519" lon="-4.398793028667569">
        <ele>648.54999999999995</ele>
        <time>2019-03-14T08:32:12Z</time>
      </trkpt>
      <trkpt lat="30.697066197171807" lon="-4.399752421304584">
        <ele>646.62</ele>
        <time>2019-03-14T08:32:26Z</time>
      </trkpt>
      <trkpt lat="30.696055758744478" lon="-4.400820946320891">
        <ele>646.13999999999999</ele>
        <time>2019-03-14T08:32:41Z</time>
      </trkpt>
      <trkpt lat="30.695235589519143" lon="-4.401733567938209">
        <ele>646.13999999999999</ele>
        <time>2019-03-14T08:32:53Z</time>
      </trkpt>
      <trkpt lat="30.694697219878435" lon="-4.402292557060719">
        <ele>645.65999999999997</ele>
        <time>2019-03-14T08:33:02Z</time>
      </trkpt>
      <trkpt lat="30.694611053913832" lon="-4.402436893433332">
        <ele>645.65999999999997</ele>
        <time>2019-03-14T08:33:04Z</time>
      </trkpt>
      <trkpt lat="30.693927258253098" lon="-4.40328405238688">
        <ele>644.70000000000005</ele>
        <time>2019-03-14T08:33:17Z</time>
      </trkpt>
      <trkpt lat="30.693352092057467" lon="-4.404171528294683">
        <ele>643.74000000000001</ele>
        <time>2019-03-14T08:33:29Z</time>
      </trkpt>
      <trkpt lat="30.692748595029116" lon="-4.405147349461913">
        <ele>642.77999999999997</ele>
        <time>2019-03-14T08:33:43Z</time>
      </trkpt>
      <trkpt lat="30.692222379148006" lon="-4.405838353559375">
        <ele>643.25999999999999</ele>
        <time>2019-03-14T08:33:54Z</time>
      </trkpt>
      <trkpt lat="30.691905543208122" lon="-4.406251246109605">
        <ele>642.77999999999997</ele>
        <time>2019-03-14T08:34:01Z</time>
      </trkpt>
      <trkpt lat="30.691715441644192" lon="-4.406448220834136">
        <ele>642.77999999999997</ele>
        <time>2019-03-14T08:34:05Z</time>
      </trkpt>
      <trkpt lat="30.691273463889956" lon="-4.407016849145293">
        <ele>642.29999999999995</ele>
        <time>2019-03-14T08:34:14Z</time>
      </trkpt>
      <trkpt lat="30.690652448683977" lon="-4.407810950651765">
        <ele>641.82000000000005</ele>
        <time>2019-03-14T08:34:28Z</time>
      </trkpt>
      <trkpt lat="30.690226228907704" lon="-4.408374466001988">
        <ele>640.86000000000001</ele>
        <time>2019-03-14T08:34:40Z</time>
      </trkpt>
      <trkpt lat="30.689771007746458" lon="-4.4088798109442">
        <ele>640.38</ele>
        <time>2019-03-14T08:34:48Z</time>
      </trkpt>
      <trkpt lat="30.689614517614245" lon="-4.409099500626326">
        <ele>640.38</ele>
        <time>2019-03-14T08:34:51Z</time>
      </trkpt>
      <trkpt lat="30.688897697255015" lon="-4.409984378144145">
        <ele>640.86000000000001</ele>
        <time>2019-03-14T08:35:03Z</time>
      </trkpt>
      <trkpt lat="30.688711116090417" lon="-4.410283109173179">
        <ele>639.88999999999999</ele>
        <time>2019-03-14T08:35:07Z</time>
      </trkpt>
      <trkpt lat="30.688348095864058" lon="-4.411235544830561">
        <ele>639.88999999999999</ele>
        <time>2019-03-14T08:35:19Z</time>
      </trkpt>
      <trkpt lat="30.688069984316826" lon="-4.412046745419502">
        <ele>639.40999999999997</ele>
        <time>2019-03-14T08:35:31Z</time>
      </trkpt>
      <trkpt lat="30.688029248267412" lon="-4.412253443151712">
        <ele>638.45000000000005</ele>
        <time>2019-03-14T08:35:34Z</time>
      </trkpt>
      <trkpt lat="30.687919948250055" lon="-4.41251085139811">
        <ele>637.00999999999999</ele>
        <time>2019-03-14T08:35:38Z</time>
      </trkpt>
      <trkpt lat="30.687679555267096" lon="-4.412979315966368">
        <ele>636.04999999999995</ele>
        <time>2019-03-14T08:35:45Z</time>
      </trkpt>
      <trkpt lat="30.687605207785964" lon="-4.413291038945317">
        <ele>636.04999999999995</ele>
        <time>2019-03-14T08:35:49Z</time>
      </trkpt>
      <trkpt lat="30.687524992972612" lon="-4.413498993963003">
        <ele>636.04999999999995</ele>
        <time>2019-03-14T08:35:52Z</time>
      </trkpt>
      <trkpt lat="30.687121571972966" lon="-4.414330143481493">
        <ele>634.13</ele>
        <time>2019-03-14T08:36:05Z</time>
      </trkpt>
      <trkpt lat="30.686718737706542" lon="-4.415348377078772">
        <ele>634.13</ele>
        <time>2019-03-14T08:36:19Z</time>
      </trkpt>
      <trkpt lat="30.68648655898869" lon="-4.41585305146873">
        <ele>633.64999999999998</ele>
        <time>2019-03-14T08:36:27Z</time>
      </trkpt>
      <trkpt lat="30.686455629765987" lon="-4.415892530232668">
        <ele>636.04999999999995</ele>
        <time>2019-03-14T08:36:28Z</time>
      </trkpt>
      <trkpt lat="30.686420509591699" lon="-4.415921280160546">
        <ele>637.00999999999999</ele>
        <time>2019-03-14T08:36:35Z</time>
      </trkpt>
      <trkpt lat="30.68637466058135" lon="-4.415986407548189">
        <ele>637.49000000000001</ele>
        <time>2019-03-14T08:37:02Z</time>
      </trkpt>
      <trkpt lat="30.686074169352651" lon="-4.416308104991913">
        <ele>637.97000000000003</ele>
        <time>2019-03-14T08:37:14Z</time>
      </trkpt>
      <trkpt lat="30.686044665053487" lon="-4.416327886283398">
        <ele>637.97000000000003</ele>
        <time>2019-03-14T08:37:27Z</time>
      </trkpt>
      <trkpt lat="30.686246333643794" lon="-4.416352948173881">
        <ele>638.45000000000005</ele>
        <time>2019-03-14T09:06:59Z</time>
      </trkpt>
      <trkpt lat="30.686456551775336" lon="-4.416311290115118">
        <ele>638.45000000000005</ele>
        <time>2019-03-14T09:07:09Z</time>
      </trkpt>
      <trkpt lat="30.686517404392362" lon="-4.416314894333482">
        <ele>638.92999999999995</ele>
        <time>2019-03-14T09:07:16Z</time>
      </trkpt>
      <trkpt lat="30.687180496752262" lon="-4.416354037821293">
        <ele>638.92999999999995</ele>
        <time>2019-03-14T09:07:22Z</time>
      </trkpt>
      <trkpt lat="30.687590455636382" lon="-4.416584623977542">
        <ele>639.88999999999999</ele>
        <time>2019-03-14T09:07:32Z</time>
      </trkpt>
      <trkpt lat="30.687997816130519" lon="-4.416895341128111">
        <ele>639.40999999999997</ele>
        <time>2019-03-14T09:07:44Z</time>
      </trkpt>
      <trkpt lat="30.688948910683393" lon="-4.417186109349132">
        <ele>640.38</ele>
        <time>2019-03-14T09:07:57Z</time>
      </trkpt>
      <trkpt lat="30.690119862556458" lon="-4.417521636933088">
        <ele>639.88999999999999</ele>
        <time>2019-03-14T09:08:10Z</time>
      </trkpt>
      <trkpt lat="30.691374633461237" lon="-4.417950203642249">
        <ele>639.88999999999999</ele>
        <time>2019-03-14T09:08:19Z</time>
      </trkpt>
      <trkpt lat="30.692637031897902" lon="-4.418413555249572">
        <ele>639.88999999999999</ele>
        <time>2019-03-14T09:08:26Z</time>
      </trkpt>
      <trkpt lat="30.693529201671481" lon="-4.41873349249363">
        <ele>639.88999999999999</ele>
        <time>2019-03-14T09:08:31Z</time>
      </trkpt>
      <trkpt lat="30.694181816652417" lon="-4.41906969062984">
        <ele>640.86000000000001</ele>
        <time>2019-03-14T09:08:43Z</time>
      </trkpt>
      <trkpt lat="30.694560930132866" lon="-4.419180164113641">
        <ele>640.86000000000001</ele>
        <time>2019-03-14T09:08:51Z</time>
      </trkpt>
      <trkpt lat="30.694992681965232" lon="-4.419413600116968">
        <ele>640.86000000000001</ele>
        <time>2019-03-14T09:09:00Z</time>
      </trkpt>
      <trkpt lat="30.695149758830667" lon="-4.419575287029147">
        <ele>641.34000000000003</ele>
        <time>2019-03-14T09:09:13Z</time>
      </trkpt>
      <trkpt lat="30.695644626393914" lon="-4.42008264362812">
        <ele>640.86000000000001</ele>
        <time>2019-03-14T09:09:19Z</time>
      </trkpt>
      <trkpt lat="30.696285255253315" lon="-4.420719752088189">
        <ele>640.86000000000001</ele>
        <time>2019-03-14T09:09:23Z</time>
      </trkpt>
      <trkpt lat="30.696646934375167" lon="-4.421060644090176">
        <ele>640.86000000000001</ele>
        <time>2019-03-14T09:09:29Z</time>
      </trkpt>
      <trkpt lat="30.696859583258629" lon="-4.421178409829736">
        <ele>642.29999999999995</ele>
        <time>2019-03-14T09:09:33Z</time>
      </trkpt>
      <trkpt lat="30.697227548807859" lon="-4.421211602166295">
        <ele>642.29999999999995</ele>
        <time>2019-03-14T09:09:45Z</time>
      </trkpt>
      <trkpt lat="30.697477329522371" lon="-4.421293074265122">
        <ele>641.82000000000005</ele>
        <time>2019-03-14T09:09:46Z</time>
      </trkpt>
      <trkpt lat="30.698446528986096" lon="-4.421725580468774">
        <ele>640.38</ele>
        <time>2019-03-14T09:09:59Z</time>
      </trkpt>
      <trkpt lat="30.698529928922653" lon="-4.421768663451076">
        <ele>641.34000000000003</ele>
        <time>2019-03-14T09:10:03Z</time>
      </trkpt>
      <trkpt lat="30.699590323492885" lon="-4.422417003661394">
        <ele>641.82000000000005</ele>
        <time>2019-03-14T09:10:08Z</time>
      </trkpt>
      <trkpt lat="30.699973041191697" lon="-4.42251356318593">
        <ele>639.40999999999997</ele>
        <time>2019-03-14T09:10:19Z</time>
      </trkpt>
      <trkpt lat="30.70037336088717" lon="-4.422703664749861">
        <ele>638.45000000000005</ele>
        <time>2019-03-14T09:10:27Z</time>
      </trkpt>
      <trkpt lat="30.701322359964252" lon="-4.423324596136808">
        <ele>637.97000000000003</ele>
        <time>2019-03-14T09:10:34Z</time>
      </trkpt>
      <trkpt lat="30.702072791755199" lon="-4.42372583784163">
        <ele>637.00999999999999</ele>
        <time>2019-03-14T09:10:45Z</time>
      </trkpt>
      <trkpt lat="30.702538741752505" lon="-4.424303518608213">
        <ele>638.92999999999995</ele>
        <time>2019-03-14T09:10:47Z</time>
      </trkpt>
      <trkpt lat="30.702775362879038" lon="-4.42528210580349">
        <ele>639.88999999999999</ele>
        <time>2019-03-14T09:10:58Z</time>
      </trkpt>
      <trkpt lat="30.702828168869019" lon="-4.425509758293629">
        <ele>639.88999999999999</ele>
        <time>2019-03-14T09:11:05Z</time>
      </trkpt>
      <trkpt lat="30.703244581818581" lon="-4.426719853654504">
        <ele>639.40999999999997</ele>
        <time>2019-03-14T09:11:13Z</time>
      </trkpt>
      <trkpt lat="30.703449016436934" lon="-4.427121179178357">
        <ele>639.40999999999997</ele>
        <time>2019-03-14T09:11:19Z</time>
      </trkpt>
      <trkpt lat="30.703728049993515" lon="-4.427577406167984">
        <ele>638.92999999999995</ele>
        <time>2019-03-14T09:11:29Z</time>
      </trkpt>
      <trkpt lat="30.703952433541417" lon="-4.428009325638413">
        <ele>638.92999999999995</ele>
        <time>2019-03-14T09:11:40Z</time>
      </trkpt>
      <trkpt lat="30.704160472378135" lon="-4.428787920624018">
        <ele>638.92999999999995</ele>
        <time>2019-03-14T09:11:49Z</time>
      </trkpt>
      <trkpt lat="30.704311095178127" lon="-4.429425280541182">
        <ele>639.88999999999999</ele>
        <time>2019-03-14T09:11:53Z</time>
      </trkpt>
      <trkpt lat="30.704558277502656" lon="-4.430183339864016">
        <ele>639.88999999999999</ele>
        <time>2019-03-14T09:11:58Z</time>
      </trkpt>
      <trkpt lat="30.704712923616171" lon="-4.43048701621592">
        <ele>640.38</ele>
        <time>2019-03-14T09:12:05Z</time>
      </trkpt>
      <trkpt lat="30.704934373497963" lon="-4.430761439725757">
        <ele>639.88999999999999</ele>
        <time>2019-03-14T09:12:10Z</time>
      </trkpt>
      <trkpt lat="30.705252634361386" lon="-4.431328307837248">
        <ele>639.88999999999999</ele>
        <time>2019-03-14T09:12:15Z</time>
      </trkpt>
      <trkpt lat="30.705516831949353" lon="-4.431772716343403">
        <ele>640.38</ele>
        <time>2019-03-14T09:12:23Z</time>
      </trkpt>
      <trkpt lat="30.705799218267202" lon="-4.432157697156072">
        <ele>639.88999999999999</ele>
        <time>2019-03-14T09:12:27Z</time>
      </trkpt>
      <trkpt lat="30.706245386973023" lon="-4.432666394859552">
        <ele>639.88999999999999</ele>
        <time>2019-03-14T09:12:29Z</time>
      </trkpt>
      <trkpt lat="30.706379916518927" lon="-4.432951798662543">
        <ele>639.88999999999999</ele>
        <time>2019-03-14T09:12:37Z</time>
      </trkpt>
      <trkpt lat="30.706427190452814" lon="-4.433133015409112">
        <ele>640.86000000000001</ele>
        <time>2019-03-14T09:12:38Z</time>
      </trkpt>
      <trkpt lat="30.706778559833765" lon="-4.433674905449152">
        <ele>640.86000000000001</ele>
        <time>2019-03-14T09:12:40Z</time>
      </trkpt>
      <trkpt lat="30.706794736906886" lon="-4.433757634833455">
        <ele>640.86000000000001</ele>
        <time>2019-03-14T09:12:50Z</time>
      </trkpt>
      <trkpt lat="30.706821558997035" lon="-4.433946060016751">
        <ele>641.34000000000003</ele>
        <time>2019-03-14T09:12:51Z</time>
      </trkpt>
      <trkpt lat="30.707115763798356" lon="-4.434713758528233">
        <ele>641.82000000000005</ele>
        <time>2019-03-14T09:13:00Z</time>
      </trkpt>
      <trkpt lat="30.707144513726234" lon="-4.434743011370301">
        <ele>639.88999999999999</ele>
        <time>2019-03-14T09:13:10Z</time>
      </trkpt>
      <trkpt lat="30.707437880337238" lon="-4.435417838394642">
        <ele>640.86000000000001</ele>
        <time>2019-03-14T09:13:21Z</time>
      </trkpt>
      <trkpt lat="30.707698473706841" lon="-4.436400951817632">
        <ele>641.34000000000003</ele>
        <time>2019-03-14T09:13:22Z</time>
      </trkpt>
      <trkpt lat="30.708104241639376" lon="-4.437551032751799">
        <ele>641.34000000000003</ele>
        <time>2019-03-14T09:13:31Z</time>
      </trkpt>
      <trkpt lat="30.708147995173931" lon="-4.437645161524415">
        <ele>641.82000000000005</ele>
        <time>2019-03-14T09:13:36Z</time>
      </trkpt>
      <trkpt lat="30.708284871652722" lon="-4.438671441748738">
        <ele>642.77999999999997</ele>
        <time>2019-03-14T09:13:47Z</time>
      </trkpt>
      <trkpt lat="30.708398949354887" lon="-4.439210565760732">
        <ele>642.77999999999997</ele>
        <time>2019-03-14T09:13:53Z</time>
      </trkpt>
      <trkpt lat="30.709084924310446" lon="-4.440278168767691">
        <ele>643.25999999999999</ele>
        <time>2019-03-14T09:13:59Z</time>
      </trkpt>
      <trkpt lat="30.709530422464013" lon="-4.440698018297553">
        <ele>643.25999999999999</ele>
        <time>2019-03-14T09:14:03Z</time>
      </trkpt>
      <trkpt lat="30.709770480170846" lon="-4.441223312169313">
        <ele>643.74000000000001</ele>
        <time>2019-03-14T09:14:08Z</time>
      </trkpt>
      <trkpt lat="30.709773162379861" lon="-4.44159253500402">
        <ele>643.74000000000001</ele>
        <time>2019-03-14T09:14:13Z</time>
      </trkpt>
      <trkpt lat="30.70985815487802" lon="-4.442013641819358">
        <ele>643.25999999999999</ele>
        <time>2019-03-14T09:14:18Z</time>
      </trkpt>
      <trkpt lat="30.709888329729438" lon="-4.44233869202435">
        <ele>643.74000000000001</ele>
        <time>2019-03-14T09:14:26Z</time>
      </trkpt>
      <trkpt lat="30.709973154589534" lon="-4.442584365606308">
        <ele>642.77999999999997</ele>
        <time>2019-03-14T09:14:29Z</time>
      </trkpt>
      <trkpt lat="30.709904674440622" lon="-4.443130446597934">
        <ele>641.82000000000005</ele>
        <time>2019-03-14T09:14:39Z</time>
      </trkpt>
      <trkpt lat="30.709802666679025" lon="-4.443357931450009">
        <ele>641.82000000000005</ele>
        <time>2019-03-14T09:14:42Z</time>
      </trkpt>
      <trkpt lat="30.709349876269698" lon="-4.444146919995546">
        <ele>643.25999999999999</ele>
        <time>2019-03-14T09:14:46Z</time>
      </trkpt>
      <trkpt lat="30.709174945950508" lon="-4.444294860586524">
        <ele>643.25999999999999</ele>
        <time>2019-03-14T09:14:50Z</time>
      </trkpt>
      <trkpt lat="30.708952154964209" lon="-4.444504743441939">
        <ele>641.82000000000005</ele>
        <time>2019-03-14T09:14:57Z</time>
      </trkpt>
      <trkpt lat="30.708829443901777" lon="-4.444811604917049">
        <ele>641.34000000000003</ele>
        <time>2019-03-14T09:15:02Z</time>
      </trkpt>
      <trkpt lat="30.708980234339833" lon="-4.445509649813175">
        <ele>640.86000000000001</ele>
        <time>2019-03-14T09:15:07Z</time>
      </trkpt>
      <trkpt lat="30.709233535453677" lon="-4.445980712771416">
        <ele>640.86000000000001</ele>
        <time>2019-03-14T09:15:10Z</time>
      </trkpt>
      <trkpt lat="30.709299417212605" lon="-4.446433503180742">
        <ele>640.38</ele>
        <time>2019-03-14T09:15:16Z</time>
      </trkpt>
      <trkpt lat="30.709242671728134" lon="-4.446665849536657">
        <ele>640.38</ele>
        <time>2019-03-14T09:15:42Z</time>
      </trkpt>
      <trkpt lat="30.709211658686399" lon="-4.446874391287565">
        <ele>639.40999999999997</ele>
        <time>2019-03-14T09:15:49Z</time>
      </trkpt>
      <trkpt lat="30.709220794960856" lon="-4.446960557252169">
        <ele>638.92999999999995</ele>
        <time>2019-03-14T09:15:52Z</time>
      </trkpt>
      <trkpt lat="30.70940813049674" lon="-4.447385435923934">
        <ele>638.92999999999995</ele>
        <time>2019-03-14T09:15:59Z</time>
      </trkpt>
      <trkpt lat="30.709522543475032" lon="-4.44754402153194">
        <ele>638.92999999999995</ele>
        <time>2019-03-14T09:16:03Z</time>
      </trkpt>
      <trkpt lat="30.709875002503395" lon="-4.447715347632766">
        <ele>639.88999999999999</ele>
        <time>2019-03-14T09:16:08Z</time>
      </trkpt>
      <trkpt lat="30.710110198706388" lon="-4.447811152786017">
        <ele>641.82000000000005</ele>
        <time>2019-03-14T09:16:12Z</time>
      </trkpt>
      <trkpt lat="30.71035411208868" lon="-4.447902515530586">
        <ele>642.29999999999995</ele>
        <time>2019-03-14T09:16:17Z</time>
      </trkpt>
      <trkpt lat="30.710591403767467" lon="-4.447896229103208">
        <ele>642.77999999999997</ele>
        <time>2019-03-14T09:16:25Z</time>
      </trkpt>
      <trkpt lat="30.710886614397168" lon="-4.447934115305543">
        <ele>642.77999999999997</ele>
        <time>2019-03-14T09:16:27Z</time>
      </trkpt>
      <trkpt lat="30.711321383714676" lon="-4.447920955717564">
        <ele>643.25999999999999</ele>
        <time>2019-03-14T09:16:32Z</time>
      </trkpt>
      <trkpt lat="30.711434874683619" lon="-4.447923135012388">
        <ele>644.22000000000003</ele>
        <time>2019-03-14T09:16:40Z</time>
      </trkpt>
      <trkpt lat="30.711694713681936" lon="-4.447805788367987">
        <ele>644.70000000000005</ele>
        <time>2019-03-14T09:16:47Z</time>
      </trkpt>
      <trkpt lat="30.71199101395905" lon="-4.447931097820401">
        <ele>644.70000000000005</ele>
        <time>2019-03-14T09:16:59Z</time>
      </trkpt>
      <trkpt lat="30.711842318996787" lon="-4.448220608755946">
        <ele>645.17999999999995</ele>
        <time>2019-03-14T09:17:00Z</time>
      </trkpt>
      <trkpt lat="30.711529506370425" lon="-4.448921252042055">
        <ele>645.17999999999995</ele>
        <time>2019-03-14T09:17:07Z</time>
      </trkpt>
      <trkpt lat="30.711499834433198" lon="-4.448997192084789">
        <ele>644.70000000000005</ele>
        <time>2019-03-14T09:17:09Z</time>
      </trkpt>
      <trkpt lat="30.71130495518446" lon="-4.449496669694781">
        <ele>644.70000000000005</ele>
        <time>2019-03-14T09:17:21Z</time>
      </trkpt>
      <trkpt lat="30.711247287690639" lon="-4.449618794023991">
        <ele>644.70000000000005</ele>
        <time>2019-03-14T09:17:22Z</time>
      </trkpt>
      <trkpt lat="30.710750743746758" lon="-4.450446087867022">
        <ele>645.17999999999995</ele>
        <time>2019-03-14T09:17:26Z</time>
      </trkpt>
      <trkpt lat="30.710712941363454" lon="-4.450521608814597">
        <ele>645.17999999999995</ele>
        <time>2019-03-14T09:17:31Z</time>
      </trkpt>
      <trkpt lat="30.710658542811871" lon="-4.450829727575183">
        <ele>645.65999999999997</ele>
        <time>2019-03-14T09:17:33Z</time>
      </trkpt>
      <trkpt lat="30.710711348801851" lon="-4.45112275891006">
        <ele>645.65999999999997</ele>
        <time>2019-03-14T09:17:42Z</time>
      </trkpt>
      <trkpt lat="30.710759796202183" lon="-4.451214708387852">
        <ele>645.65999999999997</ele>
        <time>2019-03-14T09:17:47Z</time>
      </trkpt>
      <trkpt lat="30.711046205833554" lon="-4.451722232624888">
        <ele>646.13999999999999</ele>
        <time>2019-03-14T09:17:48Z</time>
      </trkpt>
      <trkpt lat="30.710842777043581" lon="-4.452031273394823">
        <ele>646.13999999999999</ele>
        <time>2019-03-14T09:17:53Z</time>
      </trkpt>
      <trkpt lat="30.71077479980886" lon="-4.452062034979463">
        <ele>646.13999999999999</ele>
        <time>2019-03-14T09:17:56Z</time>
      </trkpt>
      <trkpt lat="30.710426867008209" lon="-4.452228918671608">
        <ele>646.13999999999999</ele>
        <time>2019-03-14T09:18:00Z</time>
      </trkpt>
      <trkpt lat="30.710254618898034" lon="-4.452395550906658">
        <ele>645.65999999999997</ele>
        <time>2019-03-14T09:18:04Z</time>
      </trkpt>
      <trkpt lat="30.710100559517741" lon="-4.452534690499306">
        <ele>645.65999999999997</ele>
        <time>2019-03-14T09:18:16Z</time>
      </trkpt>
      <trkpt lat="30.709953708574176" lon="-4.452735772356391">
        <ele>646.13999999999999</ele>
        <time>2019-03-14T09:18:28Z</time>
      </trkpt>
      <trkpt lat="30.709416177123785" lon="-4.453734392300248">
        <ele>646.13999999999999</ele>
        <time>2019-03-14T09:18:38Z</time>
      </trkpt>
      <trkpt lat="30.708974618464708" lon="-4.454848347231746">
        <ele>645.65999999999997</ele>
        <time>2019-03-14T09:18:41Z</time>
      </trkpt>
      <trkpt lat="30.708713438361883" lon="-4.455843949690461">
        <ele>646.13999999999999</ele>
        <time>2019-03-14T09:18:45Z</time>
      </trkpt>
      <trkpt lat="30.708713941276073" lon="-4.456100016832352">
        <ele>645.65999999999997</ele>
        <time>2019-03-14T09:18:54Z</time>
      </trkpt>
      <trkpt lat="30.708649903535843" lon="-4.456287520006299">
        <ele>645.17999999999995</ele>
        <time>2019-03-14T09:19:00Z</time>
      </trkpt>
      <trkpt lat="30.708374390378594" lon="-4.456700412556529">
        <ele>645.65999999999997</ele>
        <time>2019-03-14T09:19:12Z</time>
      </trkpt>
      <trkpt lat="30.708131482824683" lon="-4.4570024125278">
        <ele>645.65999999999997</ele>
        <time>2019-03-14T09:19:25Z</time>
      </trkpt>
      <trkpt lat="30.707677351310849" lon="-4.45775200612843">
        <ele>644.22000000000003</ele>
        <time>2019-03-14T09:19:34Z</time>
      </trkpt>
      <trkpt lat="30.707620605826378" lon="-4.457806907594204">
        <ele>644.22000000000003</ele>
        <time>2019-03-14T09:19:38Z</time>
      </trkpt>
      <trkpt lat="30.707237049937248" lon="-4.458010252565146">
        <ele>643.74000000000001</ele>
        <time>2019-03-14T09:19:45Z</time>
      </trkpt>
      <trkpt lat="30.707021886482835" lon="-4.45808032527566">
        <ele>643.74000000000001</ele>
        <time>2019-03-14T09:19:53Z</time>
      </trkpt>
      <trkpt lat="30.706921303644776" lon="-4.458243437111378">
        <ele>643.74000000000001</ele>
        <time>2019-03-14T09:20:03Z</time>
      </trkpt>
      <trkpt lat="30.706991879269481" lon="-4.458512663841248">
        <ele>643.74000000000001</ele>
        <time>2019-03-14T09:20:10Z</time>
      </trkpt>
      <trkpt lat="30.707193212583661" lon="-4.459492508322001">
        <ele>643.25999999999999</ele>
        <time>2019-03-14T09:20:19Z</time>
      </trkpt>
      <trkpt lat="30.707245264202356" lon="-4.46000263094902">
        <ele>643.74000000000001</ele>
        <time>2019-03-14T09:20:25Z</time>
      </trkpt>
      <trkpt lat="30.707312822341919" lon="-4.460277305915952">
        <ele>644.22000000000003</ele>
        <time>2019-03-14T09:20:31Z</time>
      </trkpt>
      <trkpt lat="30.707399910315871" lon="-4.460490541532636">
        <ele>644.22000000000003</ele>
        <time>2019-03-14T09:20:37Z</time>
      </trkpt>
      <trkpt lat="30.707487082108855" lon="-4.461064282804728">
        <ele>643.74000000000001</ele>
        <time>2019-03-14T09:20:44Z</time>
      </trkpt>
      <trkpt lat="30.707769803702831" lon="-4.461626121774316">
        <ele>643.74000000000001</ele>
        <time>2019-03-14T09:20:47Z</time>
      </trkpt>
      <trkpt lat="30.707931406795979" lon="-4.461957961320877">
        <ele>644.22000000000003</ele>
        <time>2019-03-14T09:20:54Z</time>
      </trkpt>
      <trkpt lat="30.707990750670433" lon="-4.462024429813027">
        <ele>643.74000000000001</ele>
        <time>2019-03-14T09:21:00Z</time>
      </trkpt>
      <trkpt lat="30.707973232492805" lon="-4.462251495569944">
        <ele>643.74000000000001</ele>
        <time>2019-03-14T09:21:07Z</time>
      </trkpt>
      <trkpt lat="30.707708448171616" lon="-4.462519465014339">
        <ele>643.74000000000001</ele>
        <time>2019-03-14T09:21:15Z</time>
      </trkpt>
      <trkpt lat="30.707661593332887" lon="-4.462790032848716">
        <ele>643.25999999999999</ele>
        <time>2019-03-14T09:21:16Z</time>
      </trkpt>
      <trkpt lat="30.707764606922865" lon="-4.463089350610972">
        <ele>642.29999999999995</ele>
        <time>2019-03-14T09:21:26Z</time>
      </trkpt>
      <trkpt lat="30.707777263596654" lon="-4.463129583746195">
        <ele>642.77999999999997</ele>
        <time>2019-03-14T09:21:33Z</time>
      </trkpt>
      <trkpt lat="30.707812551409006" lon="-4.463914716616273">
        <ele>642.29999999999995</ele>
        <time>2019-03-14T09:21:42Z</time>
      </trkpt>
      <trkpt lat="30.707781538367271" lon="-4.464425258338451">
        <ele>641.82000000000005</ele>
        <time>2019-03-14T09:21:48Z</time>
      </trkpt>
      <trkpt lat="30.707785142585635" lon="-4.464690545573831">
        <ele>633.16999999999996</ele>
        <time>2019-03-14T09:21:52Z</time>
      </trkpt>
      <trkpt lat="30.707761254161596" lon="-4.464860279113054">
        <ele>635.09000000000003</ele>
        <time>2019-03-14T09:21:59Z</time>
      </trkpt>
      <trkpt lat="30.707777766510844" lon="-4.46508290246129">
        <ele>635.09000000000003</ele>
        <time>2019-03-14T09:22:01Z</time>
      </trkpt>
      <trkpt lat="30.707806432619691" lon="-4.465434774756432">
        <ele>637.49000000000001</ele>
        <time>2019-03-14T09:22:05Z</time>
      </trkpt>
      <trkpt lat="30.707773994654417" lon="-4.465524712577462">
        <ele>637.97000000000003</ele>
        <time>2019-03-14T09:22:08Z</time>
      </trkpt>
      <trkpt lat="30.707760667428374" lon="-4.465694027021527">
        <ele>639.40999999999997</ele>
        <time>2019-03-14T09:32:55Z</time>
      </trkpt>
      <trkpt lat="30.707775168120861" lon="-4.465840458869934">
        <ele>639.40999999999997</ele>
        <time>2019-03-14T09:33:05Z</time>
      </trkpt>
      <trkpt lat="30.707799224182963" lon="-4.466035589575768">
        <ele>639.88999999999999</ele>
        <time>2019-03-14T09:33:09Z</time>
      </trkpt>
      <trkpt lat="30.707820178940892" lon="-4.466354101896286">
        <ele>640.86000000000001</ele>
        <time>2019-03-14T09:33:16Z</time>
      </trkpt>
      <trkpt lat="30.707841301336884" lon="-4.466514866799116">
        <ele>641.34000000000003</ele>
        <time>2019-03-14T09:33:18Z</time>
      </trkpt>
      <trkpt lat="30.707728564739227" lon="-4.466900015249848">
        <ele>642.29999999999995</ele>
        <time>2019-03-14T09:33:28Z</time>
      </trkpt>
      <trkpt lat="30.70767542347312" lon="-4.467015434056521">
        <ele>640.86000000000001</ele>
        <time>2019-03-14T09:33:32Z</time>
      </trkpt>
      <trkpt lat="30.707554891705513" lon="-4.467614907771349">
        <ele>642.29999999999995</ele>
        <time>2019-03-14T09:33:34Z</time>
      </trkpt>
      <trkpt lat="30.707605769857764" lon="-4.46787441149354">
        <ele>642.29999999999995</ele>
        <time>2019-03-14T09:33:38Z</time>
      </trkpt>
      <trkpt lat="30.707663856446743" lon="-4.467990081757307">
        <ele>642.29999999999995</ele>
        <time>2019-03-14T09:33:49Z</time>
      </trkpt>
      <trkpt lat="30.707827722653747" lon="-4.46827850304544">
        <ele>642.77999999999997</ele>
        <time>2019-03-14T09:33:55Z</time>
      </trkpt>
      <trkpt lat="30.708183953538537" lon="-4.469349961727858">
        <ele>644.22000000000003</ele>
        <time>2019-03-14T09:34:01Z</time>
      </trkpt>
      <trkpt lat="30.708369612693787" lon="-4.470013557001948">
        <ele>645.17999999999995</ele>
        <time>2019-03-14T09:34:09Z</time>
      </trkpt>
      <trkpt lat="30.708430297672749" lon="-4.470623172819614">
        <ele>646.62</ele>
        <time>2019-03-14T09:34:11Z</time>
      </trkpt>
      <trkpt lat="30.708419820293784" lon="-4.471130026504397">
        <ele>647.10000000000002</ele>
        <time>2019-03-14T09:34:14Z</time>
      </trkpt>
      <trkpt lat="30.708404565230012" lon="-4.471265142783523">
        <ele>648.07000000000005</ele>
        <time>2019-03-14T09:34:17Z</time>
      </trkpt>
      <trkpt lat="30.708360811695457" lon="-4.471482653170824">
        <ele>648.54999999999995</ele>
        <time>2019-03-14T09:34:22Z</time>
      </trkpt>
      <trkpt lat="30.708343544974923" lon="-4.471669234335423">
        <ele>648.54999999999995</ele>
        <time>2019-03-14T09:34:30Z</time>
      </trkpt>
      <trkpt lat="30.708436919376254" lon="-4.472034852951765">
        <ele>648.54999999999995</ele>
        <time>2019-03-14T09:34:37Z</time>
      </trkpt>
      <trkpt lat="30.708506237715483" lon="-4.472802132368088">
        <ele>647.59000000000003</ele>
        <time>2019-03-14T09:34:45Z</time>
      </trkpt>
      <trkpt lat="30.708171967417002" lon="-4.473327677696943">
        <ele>648.07000000000005</ele>
        <time>2019-03-14T09:34:51Z</time>
      </trkpt>
      <trkpt lat="30.707715740427375" lon="-4.473695978522301">
        <ele>649.02999999999997</ele>
        <time>2019-03-14T09:34:53Z</time>
      </trkpt>
      <trkpt lat="30.707474509254098" lon="-4.473926983773708">
        <ele>651.90999999999997</ele>
        <time>2019-03-14T09:34:57Z</time>
      </trkpt>
      <trkpt lat="30.707345092669129" lon="-4.473959840834141">
        <ele>652.38999999999999</ele>
        <time>2019-03-14T09:34:59Z</time>
      </trkpt>
      <trkpt lat="30.707119032740593" lon="-4.4741899240762">
        <ele>653.35000000000002</ele>
        <time>2019-03-14T09:35:03Z</time>
      </trkpt>
      <trkpt lat="30.707036554813385" lon="-4.474360747262836">
        <ele>653.83000000000004</ele>
        <time>2019-03-14T09:35:07Z</time>
      </trkpt>
      <trkpt lat="30.706901606172323" lon="-4.474557470530272">
        <ele>652.87</ele>
        <time>2019-03-14T09:35:12Z</time>
      </trkpt>
      <trkpt lat="30.706769255921245" lon="-4.474643720313907">
        <ele>653.35000000000002</ele>
        <time>2019-03-14T09:35:18Z</time>
      </trkpt>
      <trkpt lat="30.706533389165998" lon="-4.474899284541607">
        <ele>653.35000000000002</ele>
        <time>2019-03-14T09:35:20Z</time>
      </trkpt>
      <trkpt lat="30.706194592639804" lon="-4.475173708051443">
        <ele>653.83000000000004</ele>
        <time>2019-03-14T09:35:25Z</time>
      </trkpt>
      <trkpt lat="30.706025864928961" lon="-4.475206062197685">
        <ele>654.30999999999995</ele>
        <time>2019-03-14T09:35:30Z</time>
      </trkpt>
      <trkpt lat="30.705834925174713" lon="-4.475526418536902">
        <ele>652.87</ele>
        <time>2019-03-14T09:35:34Z</time>
      </trkpt>
      <trkpt lat="30.705701150000095" lon="-4.47597979567945">
        <ele>650.47000000000003</ele>
        <time>2019-03-14T09:35:38Z</time>
      </trkpt>
      <trkpt lat="30.705495039001107" lon="-4.476311635226011">
        <ele>649.99000000000001</ele>
        <time>2019-03-14T09:35:41Z</time>
      </trkpt>
      <trkpt lat="30.705508282408118" lon="-4.476578515022993">
        <ele>652.38999999999999</ele>
        <time>2019-03-14T09:35:47Z</time>
      </trkpt>
      <trkpt lat="30.705588329583406" lon="-4.476711032912135">
        <ele>652.87</ele>
        <time>2019-03-14T09:35:56Z</time>
      </trkpt>
      <trkpt lat="30.705854455009103" lon="-4.476911192759872">
        <ele>651.90999999999997</ele>
        <time>2019-03-14T09:36:01Z</time>
      </trkpt>
      <trkpt lat="30.706452168524265" lon="-4.47727027349174">
        <ele>650.47000000000003</ele>
        <time>2019-03-14T09:36:06Z</time>
      </trkpt>
      <trkpt lat="30.706726675853133" lon="-4.477612171322107">
        <ele>650.47000000000003</ele>
        <time>2019-03-14T09:36:10Z</time>
      </trkpt>
      <trkpt lat="30.706848381087184" lon="-4.477916015312076">
        <ele>649.50999999999999</ele>
        <time>2019-03-14T09:36:19Z</time>
      </trkpt>
      <trkpt lat="30.706963883712888" lon="-4.478119779378176">
        <ele>646.62</ele>
        <time>2019-03-14T09:36:26Z</time>
      </trkpt>
      <trkpt lat="30.707376189529896" lon="-4.478509705513716">
        <ele>646.62</ele>
        <time>2019-03-14T09:36:30Z</time>
      </trkpt>
      <trkpt lat="30.707698725163937" lon="-4.478979343548417">
        <ele>649.02999999999997</ele>
        <time>2019-03-14T09:36:35Z</time>
      </trkpt>
      <trkpt lat="30.708007849752903" lon="-4.479197189211845">
        <ele>649.50999999999999</ele>
        <time>2019-03-14T09:36:37Z</time>
      </trkpt>
      <trkpt lat="30.708375312387943" lon="-4.479575715959072">
        <ele>649.99000000000001</ele>
        <time>2019-03-14T09:36:44Z</time>
      </trkpt>
      <trkpt lat="30.708462651818991" lon="-4.479674622416496">
        <ele>650.95000000000005</ele>
        <time>2019-03-14T09:37:30Z</time>
      </trkpt>
      <trkpt lat="30.708628864958882" lon="-4.479824407026172">
        <ele>650.95000000000005</ele>
        <time>2019-03-14T09:37:34Z</time>
      </trkpt>
      <trkpt lat="30.708659961819649" lon="-4.479837566614151">
        <ele>649.99000000000001</ele>
        <time>2019-03-14T09:37:42Z</time>
      </trkpt>
      <trkpt lat="30.708620818331838" lon="-4.479934545233846">
        <ele>649.99000000000001</ele>
        <time>2019-03-14T09:37:46Z</time>
      </trkpt>
      <trkpt lat="30.70854127407074" lon="-4.480396388098598">
        <ele>650.47000000000003</ele>
        <time>2019-03-14T09:37:48Z</time>
      </trkpt>
      <trkpt lat="30.708578489720821" lon="-4.480666788294911">
        <ele>651.42999999999995</ele>
        <time>2019-03-14T09:37:57Z</time>
      </trkpt>
      <trkpt lat="30.708647137507796" lon="-4.480777597054839">
        <ele>651.90999999999997</ele>
        <time>2019-03-14T09:37:59Z</time>
      </trkpt>
      <trkpt lat="30.708963889628649" lon="-4.481590306386352">
        <ele>653.83000000000004</ele>
        <time>2019-03-14T09:38:04Z</time>
      </trkpt>
      <trkpt lat="30.709057012572885" lon="-4.481771271675825">
        <ele>653.83000000000004</ele>
        <time>2019-03-14T09:38:06Z</time>
      </trkpt>
      <trkpt lat="30.709237223491073" lon="-4.482214171439409">
        <ele>653.83000000000004</ele>
        <time>2019-03-14T09:38:11Z</time>
      </trkpt>
      <trkpt lat="30.709291035309434" lon="-4.482370493933559">
        <ele>653.35000000000002</ele>
        <time>2019-03-14T09:38:19Z</time>
      </trkpt>
      <trkpt lat="30.709267985075712" lon="-4.482806185260415">
        <ele>652.38999999999999</ele>
        <time>2019-03-14T09:38:21Z</time>
      </trkpt>
      <trkpt lat="30.709017282351851" lon="-4.483528705313802">
        <ele>651.90999999999997</ele>
        <time>2019-03-14T09:38:27Z</time>
      </trkpt>
      <trkpt lat="30.708953496068716" lon="-4.483697433024645">
        <ele>651.42999999999995</ele>
        <time>2019-03-14T09:38:31Z</time>
      </trkpt>
      <trkpt lat="30.7087074033916" lon="-4.484141003340483">
        <ele>651.90999999999997</ele>
        <time>2019-03-14T09:38:35Z</time>
      </trkpt>
      <trkpt lat="30.708614448085427" lon="-4.484477872028947">
        <ele>652.38999999999999</ele>
        <time>2019-03-14T09:38:37Z</time>
      </trkpt>
      <trkpt lat="30.708483522757888" lon="-4.484816920012236">
        <ele>652.38999999999999</ele>
        <time>2019-03-14T09:38:41Z</time>
      </trkpt>
      <trkpt lat="30.708407834172249" lon="-4.484943235293031">
        <ele>652.87</ele>
        <time>2019-03-14T09:38:43Z</time>
      </trkpt>
      <trkpt lat="30.708373719826341" lon="-4.485174994915724">
        <ele>653.83000000000004</ele>
        <time>2019-03-14T09:38:47Z</time>
      </trkpt>
      <trkpt lat="30.708400793373585" lon="-4.485281193628907">
        <ele>654.30999999999995</ele>
        <time>2019-03-14T09:38:50Z</time>
      </trkpt>
      <trkpt lat="30.708304736763239" lon="-4.485470373183489">
        <ele>655.27999999999997</ele>
        <time>2019-03-14T09:38:54Z</time>
      </trkpt>
      <trkpt lat="30.708141792565584" lon="-4.485629294067621">
        <ele>656.24000000000001</ele>
        <time>2019-03-14T09:38:57Z</time>
      </trkpt>
      <trkpt lat="30.707872565835714" lon="-4.485847055912018">
        <ele>659.60000000000002</ele>
        <time>2019-03-14T09:39:04Z</time>
      </trkpt>
      <trkpt lat="30.707730744034052" lon="-4.486043276265264">
        <ele>660.08000000000004</ele>
        <time>2019-03-14T09:39:07Z</time>
      </trkpt>
      <trkpt lat="30.707437293604016" lon="-4.486519871279597">
        <ele>661.03999999999996</ele>
        <time>2019-03-14T09:39:11Z</time>
      </trkpt>
      <trkpt lat="30.707287592813373" lon="-4.486665213480592">
        <ele>659.60000000000002</ele>
        <time>2019-03-14T09:39:16Z</time>
      </trkpt>
      <trkpt lat="30.707157338038087" lon="-4.486927483230829">
        <ele>659.60000000000002</ele>
        <time>2019-03-14T09:39:24Z</time>
      </trkpt>
      <trkpt lat="30.707200085744262" lon="-4.48717181570828">
        <ele>660.55999999999995</ele>
        <time>2019-03-14T09:39:37Z</time>
      </trkpt>
      <trkpt lat="30.707313241437078" lon="-4.48771420866251">
        <ele>660.08000000000004</ele>
        <time>2019-03-14T09:39:38Z</time>
      </trkpt>
      <trkpt lat="30.706740003079176" lon="-4.488624734804034">
        <ele>659.60000000000002</ele>
        <time>2019-03-14T09:39:44Z</time>
      </trkpt>
      <trkpt lat="30.706692142412066" lon="-4.488694975152612">
        <ele>659.12</ele>
        <time>2019-03-14T09:39:48Z</time>
      </trkpt>
      <trkpt lat="30.706645036116242" lon="-4.489125218242407">
        <ele>659.12</ele>
        <time>2019-03-14T09:39:52Z</time>
      </trkpt>
      <trkpt lat="30.706806806847453" lon="-4.489345494657755">
        <ele>659.12</ele>
        <time>2019-03-14T09:40:00Z</time>
      </trkpt>
      <trkpt lat="30.706966063007712" lon="-4.489596532657743">
        <ele>660.55999999999995</ele>
        <time>2019-03-14T09:40:02Z</time>
      </trkpt>
      <trkpt lat="30.707159852609038" lon="-4.490288123488426">
        <ele>660.55999999999995</ele>
        <time>2019-03-14T09:40:07Z</time>
      </trkpt>
      <trkpt lat="30.707218442112207" lon="-4.490462969988585">
        <ele>662.00999999999999</ele>
        <time>2019-03-14T09:40:12Z</time>
      </trkpt>
      <trkpt lat="30.707307709380984" lon="-4.490890027955174">
        <ele>662.97000000000003</ele>
        <time>2019-03-14T09:40:15Z</time>
      </trkpt>
      <trkpt lat="30.707249287515879" lon="-4.491336280480027">
        <ele>662.97000000000003</ele>
        <time>2019-03-14T09:40:19Z</time>
      </trkpt>
      <trkpt lat="30.707247108221054" lon="-4.49158170260489">
        <ele>662.00999999999999</ele>
        <time>2019-03-14T09:40:29Z</time>
      </trkpt>
      <trkpt lat="30.707156918942928" lon="-4.491861993446946">
        <ele>660.55999999999995</ele>
        <time>2019-03-14T09:40:33Z</time>
      </trkpt>
      <trkpt lat="30.706877131015062" lon="-4.492535060271621">
        <ele>660.08000000000004</ele>
        <time>2019-03-14T09:40:37Z</time>
      </trkpt>
      <trkpt lat="30.706743774935603" lon="-4.492845609784126">
        <ele>658.63999999999999</ele>
        <time>2019-03-14T09:40:41Z</time>
      </trkpt>
      <trkpt lat="30.706747127696872" lon="-4.493130845949054">
        <ele>658.63999999999999</ele>
        <time>2019-03-14T09:40:44Z</time>
      </trkpt>
      <trkpt lat="30.70692683570087" lon="-4.493366125971079">
        <ele>657.20000000000005</ele>
        <time>2019-03-14T09:40:56Z</time>
      </trkpt>
      <trkpt lat="30.7070426736027" lon="-4.493583301082254">
        <ele>657.20000000000005</ele>
        <time>2019-03-14T09:41:07Z</time>
      </trkpt>
      <trkpt lat="30.707698138430715" lon="-4.494124101474881">
        <ele>657.20000000000005</ele>
        <time>2019-03-14T09:41:09Z</time>
      </trkpt>
      <trkpt lat="30.708418814465404" lon="-4.494752660393715">
        <ele>657.20000000000005</ele>
        <time>2019-03-14T09:41:22Z</time>
      </trkpt>
      <trkpt lat="30.708522582426667" lon="-4.494908060878515">
        <ele>657.20000000000005</ele>
        <time>2019-03-14T09:41:24Z</time>
      </trkpt>
      <trkpt lat="30.709209982305765" lon="-4.495874494314194">
        <ele>657.67999999999995</ele>
        <time>2019-03-14T09:41:33Z</time>
      </trkpt>
      <trkpt lat="30.709284329786897" lon="-4.496030565351248">
        <ele>657.20000000000005</ele>
        <time>2019-03-14T09:41:36Z</time>
      </trkpt>
      <trkpt lat="30.709627736359835" lon="-4.496539011597633">
        <ele>655.75999999999999</ele>
        <time>2019-03-14T09:41:38Z</time>
      </trkpt>
      <trkpt lat="30.709766456857324" lon="-4.496753169223666">
        <ele>654.79999999999995</ele>
        <time>2019-03-14T09:41:43Z</time>
      </trkpt>
      <trkpt lat="30.709883216768503" lon="-4.496870264410973">
        <ele>654.30999999999995</ele>
        <time>2019-03-14T09:41:48Z</time>
      </trkpt>
      <trkpt lat="30.710076671093702" lon="-4.497177712619305">
        <ele>652.38999999999999</ele>
        <time>2019-03-14T09:41:51Z</time>
      </trkpt>
      <trkpt lat="30.71030231192708" lon="-4.49745993129909">
        <ele>651.42999999999995</ele>
        <time>2019-03-14T09:41:53Z</time>
      </trkpt>
      <trkpt lat="30.710416808724403" lon="-4.497685823589563">
        <ele>650.47000000000003</ele>
        <time>2019-03-14T09:42:02Z</time>
      </trkpt>
      <trkpt lat="30.710499119013548" lon="-4.497845498844981">
        <ele>650.47000000000003</ele>
        <time>2019-03-14T09:42:12Z</time>
      </trkpt>
      <trkpt lat="30.710752923041582" lon="-4.498496018350124">
        <ele>649.50999999999999</ele>
        <time>2019-03-14T09:42:14Z</time>
      </trkpt>
      <trkpt lat="30.711225410923362" lon="-4.499214431270957">
        <ele>649.99000000000001</ele>
        <time>2019-03-14T09:42:20Z</time>
      </trkpt>
      <trkpt lat="30.711324904114008" lon="-4.499353487044573">
        <ele>650.95000000000005</ele>
        <time>2019-03-14T09:42:24Z</time>
      </trkpt>
      <trkpt lat="30.71172715164721" lon="-4.499641321599484">
        <ele>650.95000000000005</ele>
        <time>2019-03-14T09:42:31Z</time>
      </trkpt>
      <trkpt lat="30.711938124150038" lon="-4.499819688498974">
        <ele>651.42999999999995</ele>
        <time>2019-03-14T09:42:35Z</time>
      </trkpt>
      <trkpt lat="30.712199974805117" lon="-4.500316819176078">
        <ele>651.90999999999997</ele>
        <time>2019-03-14T09:42:39Z</time>
      </trkpt>
      <trkpt lat="30.712262922897935" lon="-4.500653520226479">
        <ele>651.90999999999997</ele>
        <time>2019-03-14T09:42:42Z</time>
      </trkpt>
      <trkpt lat="30.712218331173062" lon="-4.501058030873537">
        <ele>654.79999999999995</ele>
        <time>2019-03-14T09:42:47Z</time>
      </trkpt>
      <trkpt lat="30.712130572646856" lon="-4.501322731375694">
        <ele>655.27999999999997</ele>
        <time>2019-03-14T09:42:53Z</time>
      </trkpt>
      <trkpt lat="30.712117999792099" lon="-4.501711400225759">
        <ele>655.75999999999999</ele>
        <time>2019-03-14T09:42:57Z</time>
      </trkpt>
      <trkpt lat="30.712200310081244" lon="-4.502090010792017">
        <ele>656.24000000000001</ele>
        <time>2019-03-14T09:43:05Z</time>
      </trkpt>
      <trkpt lat="30.71239409968257" lon="-4.502212135121226">
        <ele>657.67999999999995</ele>
        <time>2019-03-14T09:43:06Z</time>
      </trkpt>
      <trkpt lat="30.712649999186397" lon="-4.502655705437064">
        <ele>658.63999999999999</ele>
        <time>2019-03-14T09:43:18Z</time>
      </trkpt>
      <trkpt lat="30.712627619504929" lon="-4.502731394022703">
        <ele>660.08000000000004</ele>
        <time>2019-03-14T09:43:23Z</time>
      </trkpt>
      <trkpt lat="30.712349591776729" lon="-4.503732528537512">
        <ele>659.60000000000002</ele>
        <time>2019-03-14T09:43:26Z</time>
      </trkpt>
      <trkpt lat="30.712245488539338" lon="-4.504212392494083">
        <ele>660.08000000000004</ele>
        <time>2019-03-14T09:43:35Z</time>
      </trkpt>
      <trkpt lat="30.712129650637507" lon="-4.504425041377544">
        <ele>660.08000000000004</ele>
        <time>2019-03-14T09:43:41Z</time>
      </trkpt>
      <trkpt lat="30.711776353418827" lon="-4.505346715450287">
        <ele>660.08000000000004</ele>
        <time>2019-03-14T09:43:45Z</time>
      </trkpt>
      <trkpt lat="30.711602512747049" lon="-4.505991116166115">
        <ele>658.63999999999999</ele>
        <time>2019-03-14T09:43:55Z</time>
      </trkpt>
      <trkpt lat="30.711528668180108" lon="-4.506329745054245">
        <ele>660.08000000000004</ele>
        <time>2019-03-14T09:43:59Z</time>
      </trkpt>
      <trkpt lat="30.711441747844219" lon="-4.507129797711968">
        <ele>660.55999999999995</ele>
        <time>2019-03-14T09:44:02Z</time>
      </trkpt>
      <trkpt lat="30.71144518442452" lon="-4.507527435198426">
        <ele>661.03999999999996</ele>
        <time>2019-03-14T09:44:05Z</time>
      </trkpt>
      <trkpt lat="30.711499247699976" lon="-4.507747795432806">
        <ele>661.51999999999998</ele>
        <time>2019-03-14T09:44:12Z</time>
      </trkpt>
      <trkpt lat="30.711571164429188" lon="-4.507968490943313">
        <ele>661.03999999999996</ele>
        <time>2019-03-14T09:44:17Z</time>
      </trkpt>
      <trkpt lat="30.711662527173758" lon="-4.508394291624427">
        <ele>659.12</ele>
        <time>2019-03-14T09:44:23Z</time>
      </trkpt>
      <trkpt lat="30.711883893236518" lon="-4.508512979373336">
        <ele>659.12</ele>
        <time>2019-03-14T09:44:28Z</time>
      </trkpt>
      <trkpt lat="30.712082795798779" lon="-4.50885278172791">
        <ele>658.15999999999997</ele>
        <time>2019-03-14T09:44:37Z</time>
      </trkpt>
      <trkpt lat="30.712256301194429" lon="-4.509171796962619">
        <ele>657.67999999999995</ele>
        <time>2019-03-14T09:44:48Z</time>
      </trkpt>
      <trkpt lat="30.712470710277557" lon="-4.509953241795301">
        <ele>656.72000000000003</ele>
        <time>2019-03-14T09:44:52Z</time>
      </trkpt>
      <trkpt lat="30.712714958935976" lon="-4.510779781267047">
        <ele>655.27999999999997</ele>
        <time>2019-03-14T09:45:00Z</time>
      </trkpt>
      <trkpt lat="30.712793078273535" lon="-4.510976755991578">
        <ele>655.75999999999999</ele>
        <time>2019-03-14T09:45:02Z</time>
      </trkpt>
      <trkpt lat="30.713202366605401" lon="-4.511163085699081">
        <ele>656.24000000000001</ele>
        <time>2019-03-14T09:45:11Z</time>
      </trkpt>
      <trkpt lat="30.713316528126597" lon="-4.511218573898077">
        <ele>655.27999999999997</ele>
        <time>2019-03-14T09:45:13Z</time>
      </trkpt>
      <trkpt lat="30.713993115350604" lon="-4.511377410963178">
        <ele>653.83000000000004</ele>
        <time>2019-03-14T09:45:17Z</time>
      </trkpt>
      <trkpt lat="30.714138876646757" lon="-4.511389397084713">
        <ele>653.35000000000002</ele>
        <time>2019-03-14T09:45:26Z</time>
      </trkpt>
      <trkpt lat="30.71437943726778" lon="-4.51148989610374">
        <ele>652.87</ele>
        <time>2019-03-14T09:45:33Z</time>
      </trkpt>
      <trkpt lat="30.71471119299531" lon="-4.511636663228273">
        <ele>652.87</ele>
        <time>2019-03-14T09:45:37Z</time>
      </trkpt>
      <trkpt lat="30.714910933747888" lon="-4.511614954099059">
        <ele>652.38999999999999</ele>
        <time>2019-03-14T09:45:41Z</time>
      </trkpt>
      <trkpt lat="30.715184938162565" lon="-4.511594586074352">
        <ele>651.90999999999997</ele>
        <time>2019-03-14T09:45:49Z</time>
      </trkpt>
      <trkpt lat="30.715498672798276" lon="-4.511489477008581">
        <ele>651.42999999999995</ele>
        <time>2019-03-14T09:45:51Z</time>
      </trkpt>
      <trkpt lat="30.716082220897079" lon="-4.511523507535458">
        <ele>650.47000000000003</ele>
        <time>2019-03-14T09:45:58Z</time>
      </trkpt>
      <trkpt lat="30.716225383803248" lon="-4.511642614379525">
        <ele>649.02999999999997</ele>
        <time>2019-03-14T09:46:06Z</time>
      </trkpt>
      <trkpt lat="30.716782109811902" lon="-4.511915445327759">
        <ele>649.50999999999999</ele>
        <time>2019-03-14T09:46:11Z</time>
      </trkpt>
      <trkpt lat="30.717346714809537" lon="-4.512335378676653">
        <ele>648.07000000000005</ele>
        <time>2019-03-14T09:46:14Z</time>
      </trkpt>
      <trkpt lat="30.717865889891982" lon="-4.51241978444159">
        <ele>648.54999999999995</ele>
        <time>2019-03-14T09:46:20Z</time>
      </trkpt>
      <trkpt lat="30.718166213482618" lon="-4.51240855269134">
        <ele>647.59000000000003</ele>
        <time>2019-03-14T09:46:22Z</time>
      </trkpt>
      <trkpt lat="30.718560833483934" lon="-4.512747013941407">
        <ele>647.10000000000002</ele>
        <time>2019-03-14T09:46:26Z</time>
      </trkpt>
      <trkpt lat="30.718593690544367" lon="-4.512958992272615">
        <ele>647.59000000000003</ele>
        <time>2019-03-14T09:46:33Z</time>
      </trkpt>
      <trkpt lat="30.718670636415482" lon="-4.513340704143047">
        <ele>646.13999999999999</ele>
        <time>2019-03-14T09:46:40Z</time>
      </trkpt>
      <trkpt lat="30.718978671357036" lon="-4.513909248635173">
        <ele>647.10000000000002</ele>
        <time>2019-03-14T09:46:46Z</time>
      </trkpt>
      <trkpt lat="30.719184279441833" lon="-4.514376623556018">
        <ele>648.07000000000005</ele>
        <time>2019-03-14T09:46:51Z</time>
      </trkpt>
      <trkpt lat="30.719135329127312" lon="-4.514767890796065">
        <ele>648.54999999999995</ele>
        <time>2019-03-14T09:46:56Z</time>
      </trkpt>
      <trkpt lat="30.718990741297603" lon="-4.515112806111574">
        <ele>649.02999999999997</ele>
        <time>2019-03-14T09:47:00Z</time>
      </trkpt>
      <trkpt lat="30.718810530379415" lon="-4.515464762225747">
        <ele>648.07000000000005</ele>
        <time>2019-03-14T09:47:09Z</time>
      </trkpt>
      <trkpt lat="30.718797957524657" lon="-4.515758464112878">
        <ele>648.07000000000005</ele>
        <time>2019-03-14T09:47:23Z</time>
      </trkpt>
      <trkpt lat="30.718967355787754" lon="-4.516399428248406">
        <ele>647.59000000000003</ele>
        <time>2019-03-14T09:47:27Z</time>
      </trkpt>
      <trkpt lat="30.719164833426476" lon="-4.517580438405275">
        <ele>647.59000000000003</ele>
        <time>2019-03-14T09:47:33Z</time>
      </trkpt>
      <trkpt lat="30.719239935278893" lon="-4.517900124192238">
        <ele>648.07000000000005</ele>
        <time>2019-03-14T09:47:36Z</time>
      </trkpt>
      <trkpt lat="30.719276648014784" lon="-4.518324751406908">
        <ele>648.54999999999995</ele>
        <time>2019-03-14T09:47:49Z</time>
      </trkpt>
      <trkpt lat="30.71927840821445" lon="-4.518555840477347">
        <ele>648.07000000000005</ele>
        <time>2019-03-14T09:47:52Z</time>
      </trkpt>
      <trkpt lat="30.719170365482569" lon="-4.519475335255265">
        <ele>647.59000000000003</ele>
        <time>2019-03-14T09:47:55Z</time>
      </trkpt>
      <trkpt lat="30.71910104714334" lon="-4.519725870341063">
        <ele>648.07000000000005</ele>
        <time>2019-03-14T09:48:07Z</time>
      </trkpt>
      <trkpt lat="30.719035165384412" lon="-4.520001551136375">
        <ele>648.07000000000005</ele>
        <time>2019-03-14T09:48:11Z</time>
      </trkpt>
      <trkpt lat="30.718714222311974" lon="-4.521111398935318">
        <ele>648.07000000000005</ele>
        <time>2019-03-14T09:48:17Z</time>
      </trkpt>
      <trkpt lat="30.718726627528667" lon="-4.521474670618773">
        <ele>648.54999999999995</ele>
        <time>2019-03-14T09:48:24Z</time>
      </trkpt>
      <trkpt lat="30.718782115727663" lon="-4.521791338920593">
        <ele>648.54999999999995</ele>
        <time>2019-03-14T09:48:27Z</time>
      </trkpt>
      <trkpt lat="30.718886302784085" lon="-4.522044388577342">
        <ele>649.02999999999997</ele>
        <time>2019-03-14T09:48:33Z</time>
      </trkpt>
      <trkpt lat="30.718887140974402" lon="-4.522170033305883">
        <ele>649.50999999999999</ele>
        <time>2019-03-14T09:48:35Z</time>
      </trkpt>
      <trkpt lat="30.718882447108626" lon="-4.522547470405698">
        <ele>649.02999999999997</ele>
        <time>2019-03-14T09:48:40Z</time>
      </trkpt>
      <trkpt lat="30.718896193429828" lon="-4.522722736001015">
        <ele>648.54999999999995</ele>
        <time>2019-03-14T09:48:44Z</time>
      </trkpt>
      <trkpt lat="30.718997530639172" lon="-4.523087432608008">
        <ele>647.10000000000002</ele>
        <time>2019-03-14T09:48:46Z</time>
      </trkpt>
      <trkpt lat="30.719051593914628" lon="-4.52339488081634">
        <ele>646.13999999999999</ele>
        <time>2019-03-14T09:48:48Z</time>
      </trkpt>
      <trkpt lat="30.7190409488976" lon="-4.523558327928186">
        <ele>646.13999999999999</ele>
        <time>2019-03-14T09:48:57Z</time>
      </trkpt>
      <trkpt lat="30.719051091000438" lon="-4.523716829717159">
        <ele>646.62</ele>
        <time>2019-03-14T09:48:58Z</time>
      </trkpt>
      <trkpt lat="30.719380415976048" lon="-4.524473296478391">
        <ele>647.10000000000002</ele>
        <time>2019-03-14T09:49:06Z</time>
      </trkpt>
      <trkpt lat="30.719417715445161" lon="-4.524542028084397">
        <ele>647.59000000000003</ele>
        <time>2019-03-14T09:49:15Z</time>
      </trkpt>
      <trkpt lat="30.719767492264509" lon="-4.525154577568173">
        <ele>648.54999999999995</ele>
        <time>2019-03-14T09:49:23Z</time>
      </trkpt>
      <trkpt lat="30.719811245799065" lon="-4.525806773453951">
        <ele>648.54999999999995</ele>
        <time>2019-03-14T09:49:31Z</time>
      </trkpt>
      <trkpt lat="30.71981443092227" lon="-4.526473637670279">
        <ele>648.07000000000005</ele>
        <time>2019-03-14T09:49:38Z</time>
      </trkpt>
      <trkpt lat="30.719913505017757" lon="-4.527713069692254">
        <ele>647.59000000000003</ele>
        <time>2019-03-14T09:49:43Z</time>
      </trkpt>
      <trkpt lat="30.719995647668839" lon="-4.528714623302221">
        <ele>648.07000000000005</ele>
        <time>2019-03-14T09:49:49Z</time>
      </trkpt>
      <trkpt lat="30.71988383308053" lon="-4.529224243015051">
        <ele>648.07000000000005</ele>
        <time>2019-03-14T09:50:00Z</time>
      </trkpt>
      <trkpt lat="30.719607817009091" lon="-4.529799576848745">
        <ele>648.54999999999995</ele>
        <time>2019-03-14T09:50:10Z</time>
      </trkpt>
      <trkpt lat="30.719384020194411" lon="-4.531049821525812">
        <ele>649.02999999999997</ele>
        <time>2019-03-14T09:50:20Z</time>
      </trkpt>
      <trkpt lat="30.719213699921966" lon="-4.532050536945462">
        <ele>649.02999999999997</ele>
        <time>2019-03-14T09:50:31Z</time>
      </trkpt>
      <trkpt lat="30.719136502593756" lon="-4.533214364200831">
        <ele>649.50999999999999</ele>
        <time>2019-03-14T09:50:35Z</time>
      </trkpt>
      <trkpt lat="30.719074811786413" lon="-4.53450039960444">
        <ele>649.02999999999997</ele>
        <time>2019-03-14T09:50:44Z</time>
      </trkpt>
      <trkpt lat="30.719031812623143" lon="-4.534903736785054">
        <ele>648.54999999999995</ele>
        <time>2019-03-14T09:50:50Z</time>
      </trkpt>
      <trkpt lat="30.718997195363045" lon="-4.535338757559657">
        <ele>647.59000000000003</ele>
        <time>2019-03-14T09:50:53Z</time>
      </trkpt>
      <trkpt lat="30.718976827338338" lon="-4.53580311499536">
        <ele>647.10000000000002</ele>
        <time>2019-03-14T09:51:02Z</time>
      </trkpt>
      <trkpt lat="30.718950424343348" lon="-4.536064546555281">
        <ele>647.59000000000003</ele>
        <time>2019-03-14T09:51:08Z</time>
      </trkpt>
      <trkpt lat="30.718799298629165" lon="-4.53684339299798">
        <ele>647.10000000000002</ele>
        <time>2019-03-14T09:51:14Z</time>
      </trkpt>
      <trkpt lat="30.718616740778089" lon="-4.537334656342864">
        <ele>646.13999999999999</ele>
        <time>2019-03-14T09:51:19Z</time>
      </trkpt>
      <trkpt lat="30.718507021665573" lon="-4.538027923554182">
        <ele>646.62</ele>
        <time>2019-03-14T09:51:31Z</time>
      </trkpt>
      <trkpt lat="30.718510793522" lon="-4.538524132221937">
        <ele>646.13999999999999</ele>
        <time>2019-03-14T09:51:39Z</time>
      </trkpt>
      <trkpt lat="30.718721095472574" lon="-4.539861548691988">
        <ele>647.10000000000002</ele>
        <time>2019-03-14T09:51:43Z</time>
      </trkpt>
      <trkpt lat="30.718689747154713" lon="-4.541004169732332">
        <ele>647.59000000000003</ele>
        <time>2019-03-14T09:51:49Z</time>
      </trkpt>
      <trkpt lat="30.718639204278588" lon="-4.541512783616781">
        <ele>647.59000000000003</ele>
        <time>2019-03-14T09:51:56Z</time>
      </trkpt>
      <trkpt lat="30.718721011653543" lon="-4.542084261775017">
        <ele>646.62</ele>
        <time>2019-03-14T09:52:03Z</time>
      </trkpt>
      <trkpt lat="30.71861389093101" lon="-4.542650459334254">
        <ele>646.13999999999999</ele>
        <time>2019-03-14T09:52:09Z</time>
      </trkpt>
      <trkpt lat="30.718375174328685" lon="-4.543316820636392">
        <ele>646.62</ele>
        <time>2019-03-14T09:52:18Z</time>
      </trkpt>
      <trkpt lat="30.718262270092964" lon="-4.543964238837361">
        <ele>646.13999999999999</ele>
        <time>2019-03-14T09:52:31Z</time>
      </trkpt>
      <trkpt lat="30.717846024781466" lon="-4.545013317838311">
        <ele>646.13999999999999</ele>
        <time>2019-03-14T09:52:42Z</time>
      </trkpt>
      <trkpt lat="30.717219393700361" lon="-4.546691374853253">
        <ele>646.13999999999999</ele>
        <time>2019-03-14T09:52:52Z</time>
      </trkpt>
      <trkpt lat="30.716878501698375" lon="-4.548386363312602">
        <ele>646.13999999999999</ele>
        <time>2019-03-14T09:53:06Z</time>
      </trkpt>
      <trkpt lat="30.716698877513409" lon="-4.54989611171186">
        <ele>646.62</ele>
        <time>2019-03-14T09:53:22Z</time>
      </trkpt>
      <trkpt lat="30.716171488165855" lon="-4.552114214748144">
        <ele>646.13999999999999</ele>
        <time>2019-03-14T09:53:31Z</time>
      </trkpt>
      <trkpt lat="30.715401442721486" lon="-4.554818468168378">
        <ele>646.62</ele>
        <time>2019-03-14T09:53:40Z</time>
      </trkpt>
      <trkpt lat="30.714978827163577" lon="-4.556209277361631">
        <ele>646.62</ele>
        <time>2019-03-14T09:53:50Z</time>
      </trkpt>
      <trkpt lat="30.714607508853078" lon="-4.557627830654383">
        <ele>646.13999999999999</ele>
        <time>2019-03-14T09:53:51Z</time>
      </trkpt>
      <trkpt lat="30.714148264378309" lon="-4.559139255434275">
        <ele>646.13999999999999</ele>
        <time>2019-03-14T09:54:02Z</time>
      </trkpt>
      <trkpt lat="30.714102918282151" lon="-4.559268169105053">
        <ele>646.13999999999999</ele>
        <time>2019-03-14T09:54:11Z</time>
      </trkpt>
      <trkpt lat="30.71367435157299" lon="-4.56066987477243">
        <ele>646.13999999999999</ele>
        <time>2019-03-14T09:54:20Z</time>
      </trkpt>
      <trkpt lat="30.713390121236444" lon="-4.561688359826803">
        <ele>646.62</ele>
        <time>2019-03-14T09:54:27Z</time>
      </trkpt>
      <trkpt lat="30.712990891188383" lon="-4.562996104359627">
        <ele>645.17999999999995</ele>
        <time>2019-03-14T09:54:30Z</time>
      </trkpt>
      <trkpt lat="30.71295753121376" lon="-4.563750978559256">
        <ele>644.70000000000005</ele>
        <time>2019-03-14T09:54:35Z</time>
      </trkpt>
      <trkpt lat="30.712932804599404" lon="-4.564050296321511">
        <ele>644.70000000000005</ele>
        <time>2019-03-14T09:54:39Z</time>
      </trkpt>
      <trkpt lat="30.712752677500248" lon="-4.564522700384259">
        <ele>645.17999999999995</ele>
        <time>2019-03-14T09:54:43Z</time>
      </trkpt>
      <trkpt lat="30.712623596191406" lon="-4.564950512722135">
        <ele>645.17999999999995</ele>
        <time>2019-03-14T09:54:55Z</time>
      </trkpt>
      <trkpt lat="30.712576573714614" lon="-4.565405314788222">
        <ele>645.17999999999995</ele>
        <time>2019-03-14T09:55:06Z</time>
      </trkpt>
      <trkpt lat="30.712226377800107" lon="-4.566875332966447">
        <ele>645.17999999999995</ele>
        <time>2019-03-14T09:55:15Z</time>
      </trkpt>
      <trkpt lat="30.711816167458892" lon="-4.56832766532898">
        <ele>645.65999999999997</ele>
        <time>2019-03-14T09:55:20Z</time>
      </trkpt>
      <trkpt lat="30.711714830249548" lon="-4.569611856713891">
        <ele>647.10000000000002</ele>
        <time>2019-03-14T09:55:24Z</time>
      </trkpt>
      <trkpt lat="30.711594549939036" lon="-4.570254078134894">
        <ele>647.10000000000002</ele>
        <time>2019-03-14T09:55:29Z</time>
      </trkpt>
      <trkpt lat="30.711621036753058" lon="-4.57063989713788">
        <ele>646.13999999999999</ele>
        <time>2019-03-14T09:55:33Z</time>
      </trkpt>
      <trkpt lat="30.711663281545043" lon="-4.57103175111115">
        <ele>646.13999999999999</ele>
        <time>2019-03-14T09:55:38Z</time>
      </trkpt>
      <trkpt lat="30.711685074493289" lon="-4.571276586502791">
        <ele>645.65999999999997</ele>
        <time>2019-03-14T09:55:51Z</time>
      </trkpt>
      <trkpt lat="30.711697312071919" lon="-4.57166307605803">
        <ele>645.65999999999997</ele>
        <time>2019-03-14T09:55:56Z</time>
      </trkpt>
      <trkpt lat="30.711264135316014" lon="-4.572974340990186">
        <ele>645.17999999999995</ele>
        <time>2019-03-14T09:56:04Z</time>
      </trkpt>
      <trkpt lat="30.711052995175123" lon="-4.573522601276636">
        <ele>645.17999999999995</ele>
        <time>2019-03-14T09:56:10Z</time>
      </trkpt>
      <trkpt lat="30.710780750960112" lon="-4.574026772752404">
        <ele>644.70000000000005</ele>
        <time>2019-03-14T09:56:13Z</time>
      </trkpt>
      <trkpt lat="30.71053390391171" lon="-4.574528345838189">
        <ele>645.17999999999995</ele>
        <time>2019-03-14T09:56:15Z</time>
      </trkpt>
      <trkpt lat="30.710441032424569" lon="-4.574833195656538">
        <ele>645.17999999999995</ele>
        <time>2019-03-14T09:56:17Z</time>
      </trkpt>
      <trkpt lat="30.710359308868647" lon="-4.575035534799099">
        <ele>647.10000000000002</ele>
        <time>2019-03-14T09:56:24Z</time>
      </trkpt>
      <trkpt lat="30.710293259471655" lon="-4.575251201167703">
        <ele>648.54999999999995</ele>
        <time>2019-03-14T09:56:27Z</time>
      </trkpt>
      <trkpt lat="30.710067199543118" lon="-4.57591655664146">
        <ele>649.99000000000001</ele>
        <time>2019-03-14T09:56:39Z</time>
      </trkpt>
      <trkpt lat="30.709909787401557" lon="-4.576191734522581">
        <ele>649.99000000000001</ele>
        <time>2019-03-14T09:56:47Z</time>
      </trkpt>
      <trkpt lat="30.709270080551505" lon="-4.577659489586949">
        <ele>650.95000000000005</ele>
        <time>2019-03-14T09:56:51Z</time>
      </trkpt>
      <trkpt lat="30.708682425320148" lon="-4.578706473112106">
        <ele>651.42999999999995</ele>
        <time>2019-03-14T09:57:02Z</time>
      </trkpt>
      <trkpt lat="30.708555188030005" lon="-4.579315837472677">
        <ele>652.38999999999999</ele>
        <time>2019-03-14T09:57:11Z</time>
      </trkpt>
      <trkpt lat="30.708467178046703" lon="-4.581048712134361">
        <ele>652.38999999999999</ele>
        <time>2019-03-14T09:57:20Z</time>
      </trkpt>
      <trkpt lat="30.70839467458427" lon="-4.582473384216428">
        <ele>652.87</ele>
        <time>2019-03-14T09:57:21Z</time>
      </trkpt>
      <trkpt lat="30.708447061479092" lon="-4.58390417508781">
        <ele>651.90999999999997</ele>
        <time>2019-03-14T09:57:32Z</time>
      </trkpt>
      <trkpt lat="30.708439685404301" lon="-4.584049684926868">
        <ele>651.42999999999995</ele>
        <time>2019-03-14T09:57:37Z</time>
      </trkpt>
      <trkpt lat="30.708513110876083" lon="-4.585718857124448">
        <ele>651.90999999999997</ele>
        <time>2019-03-14T09:57:45Z</time>
      </trkpt>
      <trkpt lat="30.708459969609976" lon="-4.586542462930083">
        <ele>651.42999999999995</ele>
        <time>2019-03-14T09:57:56Z</time>
      </trkpt>
      <trkpt lat="30.708791138604283" lon="-4.587634038180113">
        <ele>651.42999999999995</ele>
        <time>2019-03-14T09:58:06Z</time>
      </trkpt>
      <trkpt lat="30.709096072241664" lon="-4.589261133223772">
        <ele>650.95000000000005</ele>
        <time>2019-03-14T09:58:15Z</time>
      </trkpt>
      <trkpt lat="30.709289191290736" lon="-4.59060424938798">
        <ele>651.90999999999997</ele>
        <time>2019-03-14T09:58:23Z</time>
      </trkpt>
      <trkpt lat="30.709584737196565" lon="-4.59164653904736">
        <ele>649.99000000000001</ele>
        <time>2019-03-14T09:58:28Z</time>
      </trkpt>
      <trkpt lat="30.70988698862493" lon="-4.592573745176196">
        <ele>650.47000000000003</ele>
        <time>2019-03-14T09:58:40Z</time>
      </trkpt>
      <trkpt lat="30.710093602538109" lon="-4.593041790649295">
        <ele>650.47000000000003</ele>
        <time>2019-03-14T09:58:45Z</time>
      </trkpt>
      <trkpt lat="30.71036827750504" lon="-4.594204612076283">
        <ele>651.42999999999995</ele>
        <time>2019-03-14T09:58:48Z</time>
      </trkpt>
      <trkpt lat="30.710450923070312" lon="-4.594725212082267">
        <ele>652.87</ele>
        <time>2019-03-14T09:58:54Z</time>
      </trkpt>
      <trkpt lat="30.710545219480991" lon="-4.595015561208129">
        <ele>653.83000000000004</ele>
        <time>2019-03-14T09:59:03Z</time>
      </trkpt>
      <trkpt lat="30.710573466494679" lon="-4.595471788197756">
        <ele>653.83000000000004</ele>
        <time>2019-03-14T09:59:04Z</time>
      </trkpt>
      <trkpt lat="30.710370289161801" lon="-4.596326071768999">
        <ele>655.27999999999997</ele>
        <time>2019-03-14T09:59:10Z</time>
      </trkpt>
      <trkpt lat="30.710351010784507" lon="-4.596429420635104">
        <ele>655.75999999999999</ele>
        <time>2019-03-14T09:59:19Z</time>
      </trkpt>
      <trkpt lat="30.710440445691347" lon="-4.597042640671134">
        <ele>655.75999999999999</ele>
        <time>2019-03-14T09:59:26Z</time>
      </trkpt>
      <trkpt lat="30.710744624957442" lon="-4.597949311137199">
        <ele>655.75999999999999</ele>
        <time>2019-03-14T09:59:34Z</time>
      </trkpt>
      <trkpt lat="30.710727274417877" lon="-4.598687002435327">
        <ele>655.27999999999997</ele>
        <time>2019-03-14T09:59:35Z</time>
      </trkpt>
      <trkpt lat="30.71065410040319" lon="-4.599470542743802">
        <ele>655.27999999999997</ele>
        <time>2019-03-14T09:59:41Z</time>
      </trkpt>
      <trkpt lat="30.710707409307361" lon="-4.599547907710075">
        <ele>654.79999999999995</ele>
        <time>2019-03-14T09:59:48Z</time>
      </trkpt>
      <trkpt lat="30.711006391793489" lon="-4.599855020642281">
        <ele>654.79999999999995</ele>
        <time>2019-03-14T09:59:50Z</time>
      </trkpt>
      <trkpt lat="30.711163049563766" lon="-4.600411243736744">
        <ele>654.30999999999995</ele>
        <time>2019-03-14T09:59:53Z</time>
      </trkpt>
      <trkpt lat="30.711156176403165" lon="-4.60064853541553">
        <ele>654.30999999999995</ele>
        <time>2019-03-14T10:00:01Z</time>
      </trkpt>
      <trkpt lat="30.711192302405834" lon="-4.600933687761426">
        <ele>654.30999999999995</ele>
        <time>2019-03-14T10:00:02Z</time>
      </trkpt>
      <trkpt lat="30.711193727329373" lon="-4.601707756519318">
        <ele>654.79999999999995</ele>
        <time>2019-03-14T10:00:06Z</time>
      </trkpt>
      <trkpt lat="30.711203450337052" lon="-4.601820828393102">
        <ele>655.27999999999997</ele>
        <time>2019-03-14T10:00:10Z</time>
      </trkpt>
      <trkpt lat="30.711218453943729" lon="-4.602292897179723">
        <ele>656.72000000000003</ele>
        <time>2019-03-14T10:00:22Z</time>
      </trkpt>
      <trkpt lat="30.7112976629287" lon="-4.602665724232793">
        <ele>657.67999999999995</ele>
        <time>2019-03-14T10:00:29Z</time>
      </trkpt>
      <trkpt lat="30.711750034242868" lon="-4.603767609223723">
        <ele>658.63999999999999</ele>
        <time>2019-03-14T10:00:39Z</time>
      </trkpt>
      <trkpt lat="30.712098134681582" lon="-4.604638991877437">
        <ele>658.63999999999999</ele>
        <time>2019-03-14T10:00:47Z</time>
      </trkpt>
      <trkpt lat="30.712302988395095" lon="-4.605973307043314">
        <ele>658.15999999999997</ele>
        <time>2019-03-14T10:00:54Z</time>
      </trkpt>
      <trkpt lat="30.71259199641645" lon="-4.607206704095006">
        <ele>658.63999999999999</ele>
        <time>2019-03-14T10:01:04Z</time>
      </trkpt>
      <trkpt lat="30.712841777130961" lon="-4.608280090615153">
        <ele>658.63999999999999</ele>
        <time>2019-03-14T10:01:12Z</time>
      </trkpt>
      <trkpt lat="30.713073955848813" lon="-4.609781038016081">
        <ele>658.63999999999999</ele>
        <time>2019-03-14T10:01:21Z</time>
      </trkpt>
      <trkpt lat="30.713098514825106" lon="-4.610856352373958">
        <ele>659.60000000000002</ele>
        <time>2019-03-14T10:01:24Z</time>
      </trkpt>
      <trkpt lat="30.713060209527612" lon="-4.612324945628643">
        <ele>659.60000000000002</ele>
        <time>2019-03-14T10:01:30Z</time>
      </trkpt>
      <trkpt lat="30.713074374943972" lon="-4.612796595320106">
        <ele>659.12</ele>
        <time>2019-03-14T10:01:32Z</time>
      </trkpt>
      <trkpt lat="30.713253831490874" lon="-4.613585164770484">
        <ele>658.63999999999999</ele>
        <time>2019-03-14T10:01:39Z</time>
      </trkpt>
      <trkpt lat="30.71332055144012" lon="-4.613797478377819">
        <ele>656.24000000000001</ele>
        <time>2019-03-14T10:01:50Z</time>
      </trkpt>
      <trkpt lat="30.713517861440778" lon="-4.614622257649899">
        <ele>653.83000000000004</ele>
        <time>2019-03-14T10:02:01Z</time>
      </trkpt>
      <trkpt lat="30.713617019355297" lon="-4.616365442052484">
        <ele>653.83000000000004</ele>
        <time>2019-03-14T10:02:06Z</time>
      </trkpt>
      <trkpt lat="30.713925557211041" lon="-4.618169227614999">
        <ele>653.83000000000004</ele>
        <time>2019-03-14T10:02:10Z</time>
      </trkpt>
      <trkpt lat="30.714173661544919" lon="-4.618957797065377">
        <ele>654.79999999999995</ele>
        <time>2019-03-14T10:02:19Z</time>
      </trkpt>
      <trkpt lat="30.714455209672451" lon="-4.619534136727452">
        <ele>652.87</ele>
        <time>2019-03-14T10:02:28Z</time>
      </trkpt>
      <trkpt lat="30.714778834953904" lon="-4.620767114683986">
        <ele>652.38999999999999</ele>
        <time>2019-03-14T10:02:40Z</time>
      </trkpt>
      <trkpt lat="30.71512215770781" lon="-4.622130431234837">
        <ele>651.90999999999997</ele>
        <time>2019-03-14T10:02:50Z</time>
      </trkpt>
      <trkpt lat="30.715625742450356" lon="-4.624156756326556">
        <ele>651.90999999999997</ele>
        <time>2019-03-14T10:02:51Z</time>
      </trkpt>
      <trkpt lat="30.715952385216951" lon="-4.625722160562873">
        <ele>651.90999999999997</ele>
        <time>2019-03-14T10:02:56Z</time>
      </trkpt>
      <trkpt lat="30.715987253934145" lon="-4.625835735350847">
        <ele>651.90999999999997</ele>
        <time>2019-03-14T10:03:05Z</time>
      </trkpt>
      <trkpt lat="30.716025643050671" lon="-4.626290537416935">
        <ele>651.90999999999997</ele>
        <time>2019-03-14T10:03:12Z</time>
      </trkpt>
      <trkpt lat="30.716208787634969" lon="-4.627195866778493">
        <ele>652.38999999999999</ele>
        <time>2019-03-14T10:03:21Z</time>
      </trkpt>
      <trkpt lat="30.716269221156836" lon="-4.628005810081959">
        <ele>651.90999999999997</ele>
        <time>2019-03-14T10:03:26Z</time>
      </trkpt>
      <trkpt lat="30.716498298570514" lon="-4.629079280421138">
        <ele>650.47000000000003</ele>
        <time>2019-03-14T10:03:30Z</time>
      </trkpt>
      <trkpt lat="30.716524785384536" lon="-4.629538943991065">
        <ele>650.47000000000003</ele>
        <time>2019-03-14T10:03:36Z</time>
      </trkpt>
      <trkpt lat="30.716544231399894" lon="-4.629867598414421">
        <ele>649.99000000000001</ele>
        <time>2019-03-14T10:03:48Z</time>
      </trkpt>
      <trkpt lat="30.71650642901659" lon="-4.630341175943613">
        <ele>649.99000000000001</ele>
        <time>2019-03-14T10:03:59Z</time>
      </trkpt>
      <trkpt lat="30.716501399874687" lon="-4.631529562175274">
        <ele>650.47000000000003</ele>
        <time>2019-03-14T10:04:01Z</time>
      </trkpt>
      <trkpt lat="30.716448090970516" lon="-4.632526086643338">
        <ele>651.42999999999995</ele>
        <time>2019-03-14T10:04:09Z</time>
      </trkpt>
      <trkpt lat="30.716399978846312" lon="-4.632703363895416">
        <ele>652.38999999999999</ele>
        <time>2019-03-14T10:04:17Z</time>
      </trkpt>
      <trkpt lat="30.715956324711442" lon="-4.633370898663998">
        <ele>651.90999999999997</ele>
        <time>2019-03-14T10:04:27Z</time>
      </trkpt>
      <trkpt lat="30.715644098818302" lon="-4.634258626028895">
        <ele>652.38999999999999</ele>
        <time>2019-03-14T10:04:37Z</time>
      </trkpt>
      <trkpt lat="30.715449638664722" lon="-4.635572321712971">
        <ele>651.90999999999997</ele>
        <time>2019-03-14T10:04:40Z</time>
      </trkpt>
      <trkpt lat="30.71544025093317" lon="-4.636787278577685">
        <ele>650.95000000000005</ele>
        <time>2019-03-14T10:04:44Z</time>
      </trkpt>
      <trkpt lat="30.715512502938509" lon="-4.637122889980674">
        <ele>650.47000000000003</ele>
        <time>2019-03-14T10:04:54Z</time>
      </trkpt>
      <trkpt lat="30.715545024722815" lon="-4.637571992352605">
        <ele>650.47000000000003</ele>
        <time>2019-03-14T10:04:55Z</time>
      </trkpt>
      <trkpt lat="30.71538845077157" lon="-4.638819135725498">
        <ele>649.50999999999999</ele>
        <time>2019-03-14T10:05:01Z</time>
      </trkpt>
      <trkpt lat="30.71538308635354" lon="-4.638937907293439">
        <ele>653.35000000000002</ele>
        <time>2019-03-14T10:05:14Z</time>
      </trkpt>
      <trkpt lat="30.715252328664064" lon="-4.639614410698414">
        <ele>655.75999999999999</ele>
        <time>2019-03-14T10:05:25Z</time>
      </trkpt>
      <trkpt lat="30.715051665902138" lon="-4.640945708379149">
        <ele>655.75999999999999</ele>
        <time>2019-03-14T10:05:30Z</time>
      </trkpt>
      <trkpt lat="30.714948484674096" lon="-4.641935778781772">
        <ele>656.24000000000001</ele>
        <time>2019-03-14T10:05:32Z</time>
      </trkpt>
      <trkpt lat="30.714913699775934" lon="-4.642347749322653">
        <ele>654.79999999999995</ele>
        <time>2019-03-14T10:05:39Z</time>
      </trkpt>
      <trkpt lat="30.714919650927186" lon="-4.642508598044515">
        <ele>654.79999999999995</ele>
        <time>2019-03-14T10:05:50Z</time>
      </trkpt>
      <trkpt lat="30.715152081102133" lon="-4.643068509176374">
        <ele>655.27999999999997</ele>
        <time>2019-03-14T10:06:02Z</time>
      </trkpt>
      <trkpt lat="30.715191978961229" lon="-4.644109373912215">
        <ele>657.20000000000005</ele>
        <time>2019-03-14T10:06:09Z</time>
      </trkpt>
      <trkpt lat="30.715196002274752" lon="-4.64524663053453">
        <ele>657.20000000000005</ele>
        <time>2019-03-14T10:06:15Z</time>
      </trkpt>
      <trkpt lat="30.715287448838353" lon="-4.645997229963541">
        <ele>656.72000000000003</ele>
        <time>2019-03-14T10:06:18Z</time>
      </trkpt>
      <trkpt lat="30.715154260396957" lon="-4.646515985950828">
        <ele>653.35000000000002</ele>
        <time>2019-03-14T10:06:22Z</time>
      </trkpt>
      <trkpt lat="30.714965919032693" lon="-4.646748583763838">
        <ele>653.83000000000004</ele>
        <time>2019-03-14T10:06:27Z</time>
      </trkpt>
      <trkpt lat="30.714832730591297" lon="-4.647131385281682">
        <ele>653.83000000000004</ele>
        <time>2019-03-14T10:06:30Z</time>
      </trkpt>
      <trkpt lat="30.71478545665741" lon="-4.647657852619886">
        <ele>652.87</ele>
        <time>2019-03-14T10:06:39Z</time>
      </trkpt>
      <trkpt lat="30.714720161631703" lon="-4.647915344685316">
        <ele>654.30999999999995</ele>
        <time>2019-03-14T10:06:43Z</time>
      </trkpt>
      <trkpt lat="30.714199058711529" lon="-4.648584723472595">
        <ele>657.67999999999995</ele>
        <time>2019-03-14T10:06:57Z</time>
      </trkpt>
      <trkpt lat="30.714098559692502" lon="-4.648926788941026">
        <ele>658.63999999999999</ele>
        <time>2019-03-14T10:07:00Z</time>
      </trkpt>
      <trkpt lat="30.714010968804359" lon="-4.65026487596333">
        <ele>659.60000000000002</ele>
        <time>2019-03-14T10:07:04Z</time>
      </trkpt>
      <trkpt lat="30.714004682376981" lon="-4.650581125169992">
        <ele>659.12</ele>
        <time>2019-03-14T10:07:17Z</time>
      </trkpt>
      <trkpt lat="30.713906949386001" lon="-4.65088882483542">
        <ele>657.20000000000005</ele>
        <time>2019-03-14T10:07:29Z</time>
      </trkpt>
      <trkpt lat="30.713226171210408" lon="-4.651647973805666">
        <ele>656.24000000000001</ele>
        <time>2019-03-14T10:07:36Z</time>
      </trkpt>
      <trkpt lat="30.712558887898922" lon="-4.652446266263723">
        <ele>656.24000000000001</ele>
        <time>2019-03-14T10:07:44Z</time>
      </trkpt>
      <trkpt lat="30.712168207392097" lon="-4.652930907905102">
        <ele>657.20000000000005</ele>
        <time>2019-03-14T10:07:46Z</time>
      </trkpt>
      <trkpt lat="30.71181608363986" lon="-4.653569189831615">
        <ele>656.24000000000001</ele>
        <time>2019-03-14T10:07:59Z</time>
      </trkpt>
      <trkpt lat="30.711747100576758" lon="-4.653712017461658">
        <ele>655.27999999999997</ele>
        <time>2019-03-14T10:08:06Z</time>
      </trkpt>
      <trkpt lat="30.711525063961744" lon="-4.654393801465631">
        <ele>653.83000000000004</ele>
        <time>2019-03-14T10:08:11Z</time>
      </trkpt>
      <trkpt lat="30.711360527202487" lon="-4.654893195256591">
        <ele>652.87</ele>
        <time>2019-03-14T10:08:13Z</time>
      </trkpt>
      <trkpt lat="30.711229601874948" lon="-4.655410274863243">
        <ele>653.35000000000002</ele>
        <time>2019-03-14T10:08:22Z</time>
      </trkpt>
      <trkpt lat="30.711153745651245" lon="-4.655607417225838">
        <ele>654.79999999999995</ele>
        <time>2019-03-14T10:08:26Z</time>
      </trkpt>
      <trkpt lat="30.710876723751426" lon="-4.656505873426795">
        <ele>655.75999999999999</ele>
        <time>2019-03-14T10:08:28Z</time>
      </trkpt>
      <trkpt lat="30.710723586380482" lon="-4.656909126788378">
        <ele>655.75999999999999</ele>
        <time>2019-03-14T10:08:32Z</time>
      </trkpt>
      <trkpt lat="30.710645969957113" lon="-4.657115237787366">
        <ele>655.75999999999999</ele>
        <time>2019-03-14T10:08:43Z</time>
      </trkpt>
      <trkpt lat="30.710378838703036" lon="-4.657430481165648">
        <ele>657.20000000000005</ele>
        <time>2019-03-14T10:08:53Z</time>
      </trkpt>
      <trkpt lat="30.709701497107744" lon="-4.658171525225043">
        <ele>660.55999999999995</ele>
        <time>2019-03-14T10:09:04Z</time>
      </trkpt>
      <trkpt lat="30.709231020882726" lon="-4.658998148515821">
        <ele>663.45000000000005</ele>
        <time>2019-03-14T10:09:13Z</time>
      </trkpt>
      <trkpt lat="30.708416467532516" lon="-4.659810941666365">
        <ele>663.45000000000005</ele>
        <time>2019-03-14T10:09:22Z</time>
      </trkpt>
      <trkpt lat="30.70764952339232" lon="-4.660420808941126">
        <ele>663.92999999999995</ele>
        <time>2019-03-14T10:09:37Z</time>
      </trkpt>
      <trkpt lat="30.706913508474827" lon="-4.660996645689011">
        <ele>663.45000000000005</ele>
        <time>2019-03-14T10:09:49Z</time>
      </trkpt>
      <trkpt lat="30.705511467531323" lon="-4.662136668339372">
        <ele>662.97000000000003</ele>
        <time>2019-03-14T10:10:00Z</time>
      </trkpt>
      <trkpt lat="30.704442942515016" lon="-4.663122380152345">
        <ele>661.51999999999998</ele>
        <time>2019-03-14T10:10:09Z</time>
      </trkpt>
      <trkpt lat="30.703592766076326" lon="-4.663989236578345">
        <ele>658.15999999999997</ele>
        <time>2019-03-14T10:10:21Z</time>
      </trkpt>
      <trkpt lat="30.702868904918432" lon="-4.664666578173637">
        <ele>658.63999999999999</ele>
        <time>2019-03-14T10:10:23Z</time>
      </trkpt>
      <trkpt lat="30.701846648007631" lon="-4.665434025228024">
        <ele>659.60000000000002</ele>
        <time>2019-03-14T10:10:34Z</time>
      </trkpt>
      <trkpt lat="30.701708178967237" lon="-4.665557406842709">
        <ele>662.00999999999999</ele>
        <time>2019-03-14T10:10:42Z</time>
      </trkpt>
      <trkpt lat="30.701051205396652" lon="-4.666526187211275">
        <ele>662.49000000000001</ele>
        <time>2019-03-14T10:10:47Z</time>
      </trkpt>
      <trkpt lat="30.700561702251434" lon="-4.667273601517081">
        <ele>662.97000000000003</ele>
        <time>2019-03-14T10:10:57Z</time>
      </trkpt>
      <trkpt lat="30.700365230441093" lon="-4.667766038328409">
        <ele>657.67999999999995</ele>
        <time>2019-03-14T10:11:00Z</time>
      </trkpt>
      <trkpt lat="30.700263390317559" lon="-4.668975379317999">
        <ele>657.67999999999995</ele>
        <time>2019-03-14T10:11:09Z</time>
      </trkpt>
      <trkpt lat="30.700215613469481" lon="-4.66932138428092">
        <ele>656.72000000000003</ele>
        <time>2019-03-14T10:11:24Z</time>
      </trkpt>
      <trkpt lat="30.6998261064291" lon="-4.670300725847483">
        <ele>654.30999999999995</ele>
        <time>2019-03-14T10:11:25Z</time>
      </trkpt>
      <trkpt lat="30.699115237221122" lon="-4.671888509765267">
        <ele>653.83000000000004</ele>
        <time>2019-03-14T10:11:29Z</time>
      </trkpt>
      <trkpt lat="30.699067628011107" lon="-4.67198976315558">
        <ele>654.30999999999995</ele>
        <time>2019-03-14T10:11:40Z</time>
      </trkpt>
      <trkpt lat="30.698976097628474" lon="-4.67244615778327">
        <ele>654.79999999999995</ele>
        <time>2019-03-14T10:11:44Z</time>
      </trkpt>
      <trkpt lat="30.699094701558352" lon="-4.673747196793556">
        <ele>654.79999999999995</ele>
        <time>2019-03-14T10:11:48Z</time>
      </trkpt>
      <trkpt lat="30.699123786762357" lon="-4.674164447933435">
        <ele>655.75999999999999</ele>
        <time>2019-03-14T10:11:58Z</time>
      </trkpt>
      <trkpt lat="30.699231578037143" lon="-4.674576334655285">
        <ele>656.24000000000001</ele>
        <time>2019-03-14T10:12:02Z</time>
      </trkpt>
      <trkpt lat="30.699688224121928" lon="-4.675550730898976">
        <ele>657.20000000000005</ele>
        <time>2019-03-14T10:12:07Z</time>
      </trkpt>
      <trkpt lat="30.699823005124927" lon="-4.675994971767068">
        <ele>657.20000000000005</ele>
        <time>2019-03-14T10:12:13Z</time>
      </trkpt>
      <trkpt lat="30.699725188314915" lon="-4.676524456590414">
        <ele>657.67999999999995</ele>
        <time>2019-03-14T10:12:15Z</time>
      </trkpt>
      <trkpt lat="30.699320007115602" lon="-4.676738614216447">
        <ele>657.20000000000005</ele>
        <time>2019-03-14T10:12:22Z</time>
      </trkpt>
      <trkpt lat="30.699128564447165" lon="-4.676694273948669">
        <ele>657.67999999999995</ele>
        <time>2019-03-14T10:12:27Z</time>
      </trkpt>
      <trkpt lat="30.698416940867901" lon="-4.676913963630796">
        <ele>656.72000000000003</ele>
        <time>2019-03-14T10:12:29Z</time>
      </trkpt>
      <trkpt lat="30.698003880679607" lon="-4.677296010777354">
        <ele>657.67999999999995</ele>
        <time>2019-03-14T10:12:33Z</time>
      </trkpt>
      <trkpt lat="30.697824843227863" lon="-4.677424756810069">
        <ele>661.51999999999998</ele>
        <time>2019-03-14T10:12:44Z</time>
      </trkpt>
      <trkpt lat="30.697500379756093" lon="-4.677780736237764">
        <ele>662.49000000000001</ele>
        <time>2019-03-14T10:12:48Z</time>
      </trkpt>
      <trkpt lat="30.696371253579855" lon="-4.678439553827047">
        <ele>660.08000000000004</ele>
        <time>2019-03-14T10:12:53Z</time>
      </trkpt>
      <trkpt lat="30.696031786501408" lon="-4.67872261069715">
        <ele>657.67999999999995</ele>
        <time>2019-03-14T10:12:58Z</time>
      </trkpt>
      <trkpt lat="30.695584528148174" lon="-4.678955040872097">
        <ele>657.20000000000005</ele>
        <time>2019-03-14T10:13:04Z</time>
      </trkpt>
      <trkpt lat="30.695084631443024" lon="-4.67906903475523">
        <ele>657.67999999999995</ele>
        <time>2019-03-14T10:13:14Z</time>
      </trkpt>
      <trkpt lat="30.694542657583952" lon="-4.67944722622633">
        <ele>660.55999999999995</ele>
        <time>2019-03-14T10:13:23Z</time>
      </trkpt>
      <trkpt lat="30.693579996004701" lon="-4.679846037179232">
        <ele>662.97000000000003</ele>
        <time>2019-03-14T10:13:31Z</time>
      </trkpt>
      <trkpt lat="30.692798215895891" lon="-4.680376360192895">
        <ele>662.49000000000001</ele>
        <time>2019-03-14T10:13:38Z</time>
      </trkpt>
      <trkpt lat="30.692032864317298" lon="-4.680950688198209">
        <ele>659.60000000000002</ele>
        <time>2019-03-14T10:13:42Z</time>
      </trkpt>
      <trkpt lat="30.691358037292957" lon="-4.681036099791527">
        <ele>659.60000000000002</ele>
        <time>2019-03-14T10:13:47Z</time>
      </trkpt>
      <trkpt lat="30.690979510545731" lon="-4.681195858865976">
        <ele>660.08000000000004</ele>
        <time>2019-03-14T10:13:53Z</time>
      </trkpt>
      <trkpt lat="30.690595200285316" lon="-4.681539768353105">
        <ele>665.37</ele>
        <time>2019-03-14T10:14:04Z</time>
      </trkpt>
      <trkpt lat="30.690188175067306" lon="-4.681821148842573">
        <ele>663.45000000000005</ele>
        <time>2019-03-14T10:14:15Z</time>
      </trkpt>
      <trkpt lat="30.689475126564503" lon="-4.682485247030854">
        <ele>659.12</ele>
        <time>2019-03-14T10:14:26Z</time>
      </trkpt>
      <trkpt lat="30.688735255971551" lon="-4.683286305516958">
        <ele>659.60000000000002</ele>
        <time>2019-03-14T10:14:28Z</time>
      </trkpt>
      <trkpt lat="30.687960935756564" lon="-4.684204291552305">
        <ele>661.51999999999998</ele>
        <time>2019-03-14T10:14:39Z</time>
      </trkpt>
      <trkpt lat="30.68783906288445" lon="-4.68431644141674">
        <ele>666.80999999999995</ele>
        <time>2019-03-14T10:14:46Z</time>
      </trkpt>
      <trkpt lat="30.687230201438069" lon="-4.685147842392325">
        <ele>667.76999999999998</ele>
        <time>2019-03-14T10:14:49Z</time>
      </trkpt>
      <trkpt lat="30.687100533396006" lon="-4.685747735202313">
        <ele>665.85000000000002</ele>
        <time>2019-03-14T10:15:00Z</time>
      </trkpt>
      <trkpt lat="30.687150740996003" lon="-4.68606230802834">
        <ele>663.45000000000005</ele>
        <time>2019-03-14T10:15:04Z</time>
      </trkpt>
      <trkpt lat="30.687052002176642" lon="-4.687247006222606">
        <ele>662.49000000000001</ele>
        <time>2019-03-14T10:15:10Z</time>
      </trkpt>
      <trkpt lat="30.686957119032741" lon="-4.687687307596207">
        <ele>663.92999999999995</ele>
        <time>2019-03-14T10:15:16Z</time>
      </trkpt>
      <trkpt lat="30.686590829864144" lon="-4.688286948949099">
        <ele>663.45000000000005</ele>
        <time>2019-03-14T10:15:19Z</time>
      </trkpt>
      <trkpt lat="30.686168633401394" lon="-4.688631277531385">
        <ele>662.49000000000001</ele>
        <time>2019-03-14T10:15:23Z</time>
      </trkpt>
      <trkpt lat="30.685922540724277" lon="-4.688725573942065">
        <ele>664.40999999999997</ele>
        <time>2019-03-14T10:15:27Z</time>
      </trkpt>
      <trkpt lat="30.685569997876883" lon="-4.68901164829731">
        <ele>664.40999999999997</ele>
        <time>2019-03-14T10:15:33Z</time>
      </trkpt>
      <trkpt lat="30.685245702043176" lon="-4.689400903880596">
        <ele>662.97000000000003</ele>
        <time>2019-03-14T10:15:41Z</time>
      </trkpt>
      <trkpt lat="30.684743206948042" lon="-4.689841205254197">
        <ele>662.00999999999999</ele>
        <time>2019-03-14T10:15:43Z</time>
      </trkpt>
      <trkpt lat="30.684135602787137" lon="-4.690101379528642">
        <ele>663.45000000000005</ele>
        <time>2019-03-14T10:15:55Z</time>
      </trkpt>
      <trkpt lat="30.683976346626878" lon="-4.690240770578384">
        <ele>663.92999999999995</ele>
        <time>2019-03-14T10:16:05Z</time>
      </trkpt>
      <trkpt lat="30.682997675612569" lon="-4.691170072183013">
        <ele>662.97000000000003</ele>
        <time>2019-03-14T10:16:07Z</time>
      </trkpt>
      <trkpt lat="30.682382360100746" lon="-4.691779688000679">
        <ele>662.49000000000001</ele>
        <time>2019-03-14T10:16:10Z</time>
      </trkpt>
      <trkpt lat="30.682256883010268" lon="-4.691874487325549">
        <ele>662.00999999999999</ele>
        <time>2019-03-14T10:16:14Z</time>
      </trkpt>
      <trkpt lat="30.681977011263371" lon="-4.691999461501837">
        <ele>662.00999999999999</ele>
        <time>2019-03-14T10:16:22Z</time>
      </trkpt>
      <trkpt lat="30.681558502838016" lon="-4.69202259555459">
        <ele>661.51999999999998</ele>
        <time>2019-03-14T10:16:31Z</time>
      </trkpt>
      <trkpt lat="30.680778315290809" lon="-4.692196436226368">
        <ele>659.12</ele>
        <time>2019-03-14T10:16:39Z</time>
      </trkpt>
      <trkpt lat="30.679972060024738" lon="-4.692805716767907">
        <ele>659.12</ele>
        <time>2019-03-14T10:16:47Z</time>
      </trkpt>
      <trkpt lat="30.679532596841455" lon="-4.693163204938173">
        <ele>659.12</ele>
        <time>2019-03-14T10:16:56Z</time>
      </trkpt>
      <trkpt lat="30.678905630484223" lon="-4.69368196092546">
        <ele>659.12</ele>
        <time>2019-03-14T10:17:00Z</time>
      </trkpt>
      <trkpt lat="30.678182104602456" lon="-4.694155622273684">
        <ele>659.12</ele>
        <time>2019-03-14T10:17:08Z</time>
      </trkpt>
      <trkpt lat="30.677866106852889" lon="-4.694337341934443">
        <ele>659.12</ele>
        <time>2019-03-14T10:17:25Z</time>
      </trkpt>
      <trkpt lat="30.677534518763423" lon="-4.694403894245625">
        <ele>659.60000000000002</ele>
        <time>2019-03-14T10:17:26Z</time>
      </trkpt>
      <trkpt lat="30.677442736923695" lon="-4.694418227300048">
        <ele>659.60000000000002</ele>
        <time>2019-03-14T10:17:27Z</time>
      </trkpt>
      <trkpt lat="30.677399737760425" lon="-4.694413868710399">
        <ele>659.60000000000002</ele>
        <time>2019-03-14T10:17:36Z</time>
      </trkpt>
      <trkpt lat="30.677350033074617" lon="-4.694403139874339">
        <ele>660.08000000000004</ele>
        <time>2019-03-14T10:17:37Z</time>
      </trkpt>
      <trkpt lat="30.676653329282999" lon="-4.694179175421596">
        <ele>660.08000000000004</ele>
        <time>2019-03-14T10:17:38Z</time>
      </trkpt>
      <trkpt lat="30.676559787243605" lon="-4.694139780476689">
        <ele>660.08000000000004</ele>
        <time>2019-03-14T10:17:39Z</time>
      </trkpt>
      <trkpt lat="30.676473202183843" lon="-4.694081693887711">
        <ele>660.08000000000004</ele>
        <time>2019-03-14T10:17:40Z</time>
      </trkpt>
      <trkpt lat="30.676398351788521" lon="-4.694005167111754">
        <ele>659.60000000000002</ele>
        <time>2019-03-14T10:17:41Z</time>
      </trkpt>
      <trkpt lat="30.676336158066988" lon="-4.693913133814931">
        <ele>660.08000000000004</ele>
        <time>2019-03-14T10:17:42Z</time>
      </trkpt>
      <trkpt lat="30.676284106448293" lon="-4.693809533491731">
        <ele>660.08000000000004</ele>
        <time>2019-03-14T10:17:53Z</time>
      </trkpt>
      <trkpt lat="30.6762370839715" lon="-4.693698389455676">
        <ele>660.08000000000004</ele>
        <time>2019-03-14T10:17:54Z</time>
      </trkpt>
      <trkpt lat="30.675712795928121" lon="-4.692365331575275">
        <ele>660.08000000000004</ele>
        <time>2019-03-14T10:17:55Z</time>
      </trkpt>
      <trkpt lat="30.675658984109759" lon="-4.692276986315846">
        <ele>661.51999999999998</ele>
        <time>2019-03-14T10:17:56Z</time>
      </trkpt>
      <trkpt lat="30.675594694912434" lon="-4.692212278023362">
        <ele>661.51999999999998</ele>
        <time>2019-03-14T10:17:57Z</time>
      </trkpt>
      <trkpt lat="30.675519090145826" lon="-4.692168356850743">
        <ele>661.51999999999998</ele>
        <time>2019-03-14T10:17:58Z</time>
      </trkpt>
      <trkpt lat="30.675435857847333" lon="-4.692138349637389">
        <ele>662.00999999999999</ele>
        <time>2019-03-14T10:18:09Z</time>
      </trkpt>
      <trkpt lat="30.675346003845334" lon="-4.692112449556589">
        <ele>662.00999999999999</ele>
        <time>2019-03-14T10:18:10Z</time>
      </trkpt>
      <trkpt lat="30.674186535179615" lon="-4.691824447363615">
        <ele>657.20000000000005</ele>
        <time>2019-03-14T10:18:18Z</time>
      </trkpt>
      <trkpt lat="30.674089472740889" lon="-4.691769713535905">
        <ele>659.12</ele>
        <time>2019-03-14T10:18:19Z</time>
      </trkpt>
      <trkpt lat="30.673484047874808" lon="-4.691202929243445">
        <ele>660.55999999999995</ele>
        <time>2019-03-14T10:18:20Z</time>
      </trkpt>
      <trkpt lat="30.673433756455779" lon="-4.691105028614402">
        <ele>661.03999999999996</ele>
        <time>2019-03-14T10:18:21Z</time>
      </trkpt>
      <trkpt lat="30.673393104225397" lon="-4.69100184738636">
        <ele>661.03999999999996</ele>
        <time>2019-03-14T10:18:22Z</time>
      </trkpt>
      <trkpt lat="30.673361755907536" lon="-4.690899001434445">
        <ele>661.03999999999996</ele>
        <time>2019-03-14T11:16:27Z</time>
      </trkpt>
      <trkpt lat="30.67333753220737" lon="-4.69079858623445">
        <ele>661.03999999999996</ele>
        <time>2019-03-14T11:16:37Z</time>
      </trkpt>
      <trkpt lat="30.673284307122231" lon="-4.690517457202077">
        <ele>660.55999999999995</ele>
        <time>2019-03-14T11:16:48Z</time>
      </trkpt>
      <trkpt lat="30.673174168914557" lon="-4.690066510811448">
        <ele>661.03999999999996</ele>
        <time>2019-03-14T11:16:53Z</time>
      </trkpt>
      <trkpt lat="30.672978535294533" lon="-4.689663508906961">
        <ele>661.03999999999996</ele>
        <time>2019-03-14T11:16:54Z</time>
      </trkpt>
      <trkpt lat="30.672877533361316" lon="-4.689515987411141">
        <ele>661.03999999999996</ele>
        <time>2019-03-14T11:16:55Z</time>
      </trkpt>
      <trkpt lat="30.672836881130934" lon="-4.689484555274248">
        <ele>662.00999999999999</ele>
        <time>2019-03-14T11:16:57Z</time>
      </trkpt>
      <trkpt lat="30.672787427902222" lon="-4.689454045146704">
        <ele>662.00999999999999</ele>
        <time>2019-03-14T11:16:58Z</time>
      </trkpt>
      <trkpt lat="30.672672595828772" lon="-4.68939520418644">
        <ele>661.03999999999996</ele>
        <time>2019-03-14T11:16:59Z</time>
      </trkpt>
      <trkpt lat="30.672614341601729" lon="-4.689350193366408">
        <ele>661.03999999999996</ele>
        <time>2019-03-14T11:17:00Z</time>
      </trkpt>
      <trkpt lat="30.672557093203068" lon="-4.689284563064575">
        <ele>659.60000000000002</ele>
        <time>2019-03-14T11:17:01Z</time>
      </trkpt>
      <trkpt lat="30.672506550326943" lon="-4.689202168956399">
        <ele>660.08000000000004</ele>
        <time>2019-03-14T11:17:07Z</time>
      </trkpt>
      <trkpt lat="30.672459192574024" lon="-4.689116002991796">
        <ele>660.08000000000004</ele>
        <time>2019-03-14T11:17:08Z</time>
      </trkpt>
      <trkpt lat="30.672093154862523" lon="-4.68857335858047">
        <ele>659.60000000000002</ele>
        <time>2019-03-14T11:17:22Z</time>
      </trkpt>
      <trkpt lat="30.67200992256403" lon="-4.688497250899673">
        <ele>660.08000000000004</ele>
        <time>2019-03-14T11:17:33Z</time>
      </trkpt>
      <trkpt lat="30.670638140290976" lon="-4.687439119443297">
        <ele>659.60000000000002</ele>
        <time>2019-03-14T11:18:16Z</time>
      </trkpt>
      <trkpt lat="30.669549414888024" lon="-4.686751887202263">
        <ele>656.72000000000003</ele>
        <time>2019-03-14T11:18:22Z</time>
      </trkpt>
      <trkpt lat="30.669213887304068" lon="-4.686522055417299">
        <ele>654.30999999999995</ele>
        <time>2019-03-14T11:18:24Z</time>
      </trkpt>
      <trkpt lat="30.669041890650988" lon="-4.686511578038335">
        <ele>653.83000000000004</ele>
        <time>2019-03-14T11:18:29Z</time>
      </trkpt>
      <trkpt lat="30.668949689716101" lon="-4.686531443148851">
        <ele>654.30999999999995</ele>
        <time>2019-03-14T11:18:37Z</time>
      </trkpt>
      <trkpt lat="30.668667890131474" lon="-4.686645017936826">
        <ele>653.83000000000004</ele>
        <time>2019-03-14T11:18:45Z</time>
      </trkpt>
      <trkpt lat="30.668193893507123" lon="-4.687145669013262">
        <ele>654.30999999999995</ele>
        <time>2019-03-14T11:18:58Z</time>
      </trkpt>
      <trkpt lat="30.667738923802972" lon="-4.688190054148436">
        <ele>653.35000000000002</ele>
        <time>2019-03-14T11:19:10Z</time>
      </trkpt>
      <trkpt lat="30.666957395151258" lon="-4.690065924078226">
        <ele>653.35000000000002</ele>
        <time>2019-03-14T11:19:14Z</time>
      </trkpt>
      <trkpt lat="30.666237976402044" lon="-4.691463522613049">
        <ele>653.35000000000002</ele>
        <time>2019-03-14T11:19:18Z</time>
      </trkpt>
      <trkpt lat="30.666017699986696" lon="-4.691808437928557">
        <ele>653.83000000000004</ele>
        <time>2019-03-14T11:19:23Z</time>
      </trkpt>
      <trkpt lat="30.665727937594056" lon="-4.692117730155587">
        <ele>654.79999999999995</ele>
        <time>2019-03-14T11:19:27Z</time>
      </trkpt>
      <trkpt lat="30.665283361449838" lon="-4.692448312416673">
        <ele>654.79999999999995</ele>
        <time>2019-03-14T11:19:36Z</time>
      </trkpt>
      <trkpt lat="30.665108766406775" lon="-4.692778391763568">
        <ele>654.30999999999995</ele>
        <time>2019-03-14T11:19:46Z</time>
      </trkpt>
      <trkpt lat="30.66471766680479" lon="-4.693864602595568">
        <ele>653.83000000000004</ele>
        <time>2019-03-14T11:19:57Z</time>
      </trkpt>
      <trkpt lat="30.663876626640558" lon="-4.695073524489999">
        <ele>653.35000000000002</ele>
        <time>2019-03-14T11:20:06Z</time>
      </trkpt>
      <trkpt lat="30.662843640893698" lon="-4.696311028674245">
        <ele>653.83000000000004</ele>
        <time>2019-03-14T11:20:15Z</time>
      </trkpt>
      <trkpt lat="30.661827083677053" lon="-4.697470916435123">
        <ele>653.83000000000004</ele>
        <time>2019-03-14T11:20:25Z</time>
      </trkpt>
      <trkpt lat="30.660814633592963" lon="-4.69866206869483">
        <ele>653.35000000000002</ele>
        <time>2019-03-14T11:20:37Z</time>
      </trkpt>
      <trkpt lat="30.659799333661795" lon="-4.699872164055705">
        <ele>653.35000000000002</ele>
        <time>2019-03-14T11:20:51Z</time>
      </trkpt>
      <trkpt lat="30.658196546137333" lon="-4.701955318450928">
        <ele>653.35000000000002</ele>
        <time>2019-03-14T11:21:05Z</time>
      </trkpt>
      <trkpt lat="30.656294859945774" lon="-4.704600563272834">
        <ele>653.35000000000002</ele>
        <time>2019-03-14T11:21:21Z</time>
      </trkpt>
      <trkpt lat="30.654363417997956" lon="-4.707453344017267">
        <ele>653.35000000000002</ele>
        <time>2019-03-14T11:21:30Z</time>
      </trkpt>
      <trkpt lat="30.652217986062169" lon="-4.710594629868865">
        <ele>654.30999999999995</ele>
        <time>2019-03-14T11:21:40Z</time>
      </trkpt>
      <trkpt lat="30.651209307834506" lon="-4.712196495383978">
        <ele>654.79999999999995</ele>
        <time>2019-03-14T11:21:51Z</time>
      </trkpt>
      <trkpt lat="30.650290986523032" lon="-4.713802468031645">
        <ele>654.30999999999995</ele>
        <time>2019-03-14T11:22:01Z</time>
      </trkpt>
      <trkpt lat="30.649390183389187" lon="-4.715550178661943">
        <ele>654.30999999999995</ele>
        <time>2019-03-14T11:22:11Z</time>
      </trkpt>
      <trkpt lat="30.648693479597569" lon="-4.717093789950013">
        <ele>655.27999999999997</ele>
        <time>2019-03-14T11:22:22Z</time>
      </trkpt>
      <trkpt lat="30.647969450801611" lon="-4.718702277168632">
        <ele>655.27999999999997</ele>
        <time>2019-03-14T11:22:32Z</time>
      </trkpt>
      <trkpt lat="30.647200411185622" lon="-4.720350662246347">
        <ele>653.83000000000004</ele>
        <time>2019-03-14T11:22:40Z</time>
      </trkpt>
      <trkpt lat="30.646541677415371" lon="-4.721944145858288">
        <ele>653.35000000000002</ele>
        <time>2019-03-14T11:22:49Z</time>
      </trkpt>
      <trkpt lat="30.646081762388349" lon="-4.723400333896279">
        <ele>653.35000000000002</ele>
        <time>2019-03-14T11:23:00Z</time>
      </trkpt>
      <trkpt lat="30.645411461591721" lon="-4.724900526925921">
        <ele>652.87</ele>
        <time>2019-03-14T11:23:13Z</time>
      </trkpt>
      <trkpt lat="30.644650803878903" lon="-4.726746138185263">
        <ele>652.38999999999999</ele>
        <time>2019-03-14T11:23:23Z</time>
      </trkpt>
      <trkpt lat="30.643852595239878" lon="-4.728960553184152">
        <ele>651.90999999999997</ele>
        <time>2019-03-14T11:23:31Z</time>
      </trkpt>
      <trkpt lat="30.64340558834374" lon="-4.730270309373736">
        <ele>651.90999999999997</ele>
        <time>2019-03-14T11:23:41Z</time>
      </trkpt>
      <trkpt lat="30.643084142357111" lon="-4.731531701982021">
        <ele>651.90999999999997</ele>
        <time>2019-03-14T11:23:47Z</time>
      </trkpt>
      <trkpt lat="30.642784824594855" lon="-4.733155863359571">
        <ele>651.42999999999995</ele>
        <time>2019-03-14T11:23:52Z</time>
      </trkpt>
      <trkpt lat="30.642621964216232" lon="-4.733804622665048">
        <ele>651.42999999999995</ele>
        <time>2019-03-14T11:24:02Z</time>
      </trkpt>
      <trkpt lat="30.642471089959145" lon="-4.734196392819285">
        <ele>653.83000000000004</ele>
        <time>2019-03-14T11:24:13Z</time>
      </trkpt>
      <trkpt lat="30.642298758029938" lon="-4.735058974474669">
        <ele>655.27999999999997</ele>
        <time>2019-03-14T11:24:23Z</time>
      </trkpt>
      <trkpt lat="30.641917381435633" lon="-4.736143676564097">
        <ele>655.75999999999999</ele>
        <time>2019-03-14T11:24:35Z</time>
      </trkpt>
      <trkpt lat="30.641673216596246" lon="-4.737146655097604">
        <ele>655.75999999999999</ele>
        <time>2019-03-14T11:24:46Z</time>
      </trkpt>
      <trkpt lat="30.641539273783565" lon="-4.7386509552598">
        <ele>655.75999999999999</ele>
        <time>2019-03-14T11:24:54Z</time>
      </trkpt>
      <trkpt lat="30.641561150550842" lon="-4.740207390859723">
        <ele>655.75999999999999</ele>
        <time>2019-03-14T11:25:03Z</time>
      </trkpt>
      <trkpt lat="30.641671037301421" lon="-4.741222942247987">
        <ele>655.75999999999999</ele>
        <time>2019-03-14T11:25:13Z</time>
      </trkpt>
      <trkpt lat="30.641738511621952" lon="-4.742606459185481">
        <ele>655.75999999999999</ele>
        <time>2019-03-14T11:25:25Z</time>
      </trkpt>
      <trkpt lat="30.641786707565188" lon="-4.744280828163028">
        <ele>655.75999999999999</ele>
        <time>2019-03-14T11:25:36Z</time>
      </trkpt>
      <trkpt lat="30.6419328879565" lon="-4.746309835463762">
        <ele>655.75999999999999</ele>
        <time>2019-03-14T11:25:37Z</time>
      </trkpt>
      <trkpt lat="30.642048306763172" lon="-4.747800389304757">
        <ele>655.75999999999999</ele>
        <time>2019-03-14T11:25:38Z</time>
      </trkpt>
      <trkpt lat="30.642038835212588" lon="-4.747905833646655">
        <ele>656.24000000000001</ele>
        <time>2019-03-14T11:25:39Z</time>
      </trkpt>
      <trkpt lat="30.642021652311087" lon="-4.748007422313094">
        <ele>656.24000000000001</ele>
        <time>2019-03-14T11:25:40Z</time>
      </trkpt>
      <trkpt lat="30.641998518258333" lon="-4.748106244951487">
        <ele>656.24000000000001</ele>
        <time>2019-03-14T11:25:41Z</time>
      </trkpt>
      <trkpt lat="30.641966750845313" lon="-4.748205486685038">
        <ele>656.24000000000001</ele>
        <time>2019-03-14T11:25:42Z</time>
      </trkpt>
      <trkpt lat="30.641929032281041" lon="-4.74830430932343">
        <ele>656.24000000000001</ele>
        <time>2019-03-14T11:25:53Z</time>
      </trkpt>
      <trkpt lat="30.641885530203581" lon="-4.748404221609235">
        <ele>651.42999999999995</ele>
        <time>2019-03-14T11:26:01Z</time>
      </trkpt>
      <trkpt lat="30.641211541369557" lon="-4.74951415322721">
        <ele>651.42999999999995</ele>
        <time>2019-03-14T11:26:02Z</time>
      </trkpt>
      <trkpt lat="30.640902584418654" lon="-4.750077836215496">
        <ele>651.90999999999997</ele>
        <time>2019-03-14T11:26:03Z</time>
      </trkpt>
      <trkpt lat="30.64089210703969" lon="-4.750135755166411">
        <ele>652.38999999999999</ele>
        <time>2019-03-14T11:26:04Z</time>
      </trkpt>
      <trkpt lat="30.640892023220658" lon="-4.750190572813153">
        <ele>653.35000000000002</ele>
        <time>2019-03-14T11:26:05Z</time>
      </trkpt>
      <trkpt lat="30.640901662409306" lon="-4.750237762928009">
        <ele>653.35000000000002</ele>
        <time>2019-03-14T11:33:13Z</time>
      </trkpt>
      <trkpt lat="30.640916163101792" lon="-4.750277241691947">
        <ele>654.30999999999995</ele>
        <time>2019-03-14T11:33:41Z</time>
      </trkpt>
      <trkpt lat="30.640967041254044" lon="-4.750316804274917">
        <ele>654.79999999999995</ele>
        <time>2019-03-14T11:33:53Z</time>
      </trkpt>
      <trkpt lat="30.641051614657044" lon="-4.75045963190496">
        <ele>655.27999999999997</ele>
        <time>2019-03-14T11:34:10Z</time>
      </trkpt>
      <trkpt lat="30.641337186098099" lon="-4.751097243279219">
        <ele>653.83000000000004</ele>
        <time>2019-03-14T11:34:16Z</time>
      </trkpt>
      <trkpt lat="30.641843117773533" lon="-4.75222117267549">
        <ele>652.87</ele>
        <time>2019-03-14T11:34:17Z</time>
      </trkpt>
      <trkpt lat="30.642000027000904" lon="-4.752680836245418">
        <ele>652.87</ele>
        <time>2019-03-14T11:34:28Z</time>
      </trkpt>
      <trkpt lat="30.642010336741805" lon="-4.75276499055326">
        <ele>652.87</ele>
        <time>2019-03-14T11:34:41Z</time>
      </trkpt>
      <trkpt lat="30.642165653407574" lon="-4.753590691834688">
        <ele>653.35000000000002</ele>
        <time>2019-03-14T11:34:55Z</time>
      </trkpt>
      <trkpt lat="30.642333710566163" lon="-4.754674388095737">
        <ele>653.83000000000004</ele>
        <time>2019-03-14T11:35:07Z</time>
      </trkpt>
      <trkpt lat="30.642506293952465" lon="-4.756048852577806">
        <ele>654.30999999999995</ele>
        <time>2019-03-14T11:35:22Z</time>
      </trkpt>
      <trkpt lat="30.642799912020564" lon="-4.757422897964716">
        <ele>654.79999999999995</ele>
        <time>2019-03-14T11:35:23Z</time>
      </trkpt>
      <trkpt lat="30.643310369923711" lon="-4.759105900302529">
        <ele>655.75999999999999</ele>
        <time>2019-03-14T11:35:36Z</time>
      </trkpt>
      <trkpt lat="30.643328139558434" lon="-4.759219726547599">
        <ele>655.75999999999999</ele>
        <time>2019-03-14T11:35:53Z</time>
      </trkpt>
      <trkpt lat="30.643551936373115" lon="-4.760910859331489">
        <ele>656.24000000000001</ele>
        <time>2019-03-14T11:36:06Z</time>
      </trkpt>
      <trkpt lat="30.643900623545051" lon="-4.7634850256145">
        <ele>655.75999999999999</ele>
        <time>2019-03-14T11:36:20Z</time>
      </trkpt>
      <trkpt lat="30.644106566905975" lon="-4.765487546101213">
        <ele>657.20000000000005</ele>
        <time>2019-03-14T11:36:33Z</time>
      </trkpt>
      <trkpt lat="30.644253669306636" lon="-4.767446145415306">
        <ele>657.67999999999995</ele>
        <time>2019-03-14T11:36:45Z</time>
      </trkpt>
      <trkpt lat="30.644348133355379" lon="-4.769630217924714">
        <ele>658.15999999999997</ele>
        <time>2019-03-14T11:36:56Z</time>
      </trkpt>
      <trkpt lat="30.644407225772738" lon="-4.771411204710603">
        <ele>659.60000000000002</ele>
        <time>2019-03-14T11:37:10Z</time>
      </trkpt>
      <trkpt lat="30.644590621814132" lon="-4.773121196776629">
        <ele>660.08000000000004</ele>
        <time>2019-03-14T11:37:21Z</time>
      </trkpt>
      <trkpt lat="30.644887760281563" lon="-4.775538202375174">
        <ele>660.08000000000004</ele>
        <time>2019-03-14T11:37:33Z</time>
      </trkpt>
      <trkpt lat="30.645124213770032" lon="-4.777442906051874">
        <ele>661.51999999999998</ele>
        <time>2019-03-14T11:37:44Z</time>
      </trkpt>
      <trkpt lat="30.645349267870188" lon="-4.77913923561573">
        <ele>662.49000000000001</ele>
        <time>2019-03-14T11:37:54Z</time>
      </trkpt>
      <trkpt lat="30.645526042208076" lon="-4.780736323446035">
        <ele>662.97000000000003</ele>
        <time>2019-03-14T11:38:05Z</time>
      </trkpt>
      <trkpt lat="30.645596198737621" lon="-4.781937953084707">
        <ele>663.45000000000005</ele>
        <time>2019-03-14T11:38:15Z</time>
      </trkpt>
      <trkpt lat="30.645557558164001" lon="-4.783381903544068">
        <ele>663.92999999999995</ele>
        <time>2019-03-14T11:38:25Z</time>
      </trkpt>
      <trkpt lat="30.645627044141293" lon="-4.784797104075551">
        <ele>664.40999999999997</ele>
        <time>2019-03-14T11:38:37Z</time>
      </trkpt>
      <trkpt lat="30.64561908133328" lon="-4.786320850253105">
        <ele>663.92999999999995</ele>
        <time>2019-03-14T11:38:50Z</time>
      </trkpt>
      <trkpt lat="30.645454796031117" lon="-4.787980383262038">
        <ele>663.45000000000005</ele>
        <time>2019-03-14T11:39:03Z</time>
      </trkpt>
      <trkpt lat="30.645219767466187" lon="-4.789911154657602">
        <ele>664.88999999999999</ele>
        <time>2019-03-14T11:39:13Z</time>
      </trkpt>
      <trkpt lat="30.644890777766705" lon="-4.791678981855512">
        <ele>665.37</ele>
        <time>2019-03-14T11:39:22Z</time>
      </trkpt>
      <trkpt lat="30.644592884927988" lon="-4.792926125228405">
        <ele>665.85000000000002</ele>
        <time>2019-03-14T11:39:31Z</time>
      </trkpt>
      <trkpt lat="30.644376631826162" lon="-4.793800441548228">
        <ele>667.28999999999996</ele>
        <time>2019-03-14T11:39:41Z</time>
      </trkpt>
      <trkpt lat="30.644001374021173" lon="-4.794755391776562">
        <ele>667.76999999999998</ele>
        <time>2019-03-14T11:39:54Z</time>
      </trkpt>
      <trkpt lat="30.643549840897322" lon="-4.796308223158121">
        <ele>667.76999999999998</ele>
        <time>2019-03-14T11:40:04Z</time>
      </trkpt>
      <trkpt lat="30.642960341647267" lon="-4.798239581286907">
        <ele>668.25</ele>
        <time>2019-03-14T11:40:17Z</time>
      </trkpt>
      <trkpt lat="30.642424486577511" lon="-4.799512540921569">
        <ele>669.22000000000003</ele>
        <time>2019-03-14T11:40:28Z</time>
      </trkpt>
      <trkpt lat="30.641887038946152" lon="-4.800892872735858">
        <ele>669.70000000000005</ele>
        <time>2019-03-14T11:40:39Z</time>
      </trkpt>
      <trkpt lat="30.641373647376895" lon="-4.802170107141137">
        <ele>670.17999999999995</ele>
        <time>2019-03-14T11:40:49Z</time>
      </trkpt>
      <trkpt lat="30.640983134508133" lon="-4.803194040432572">
        <ele>669.70000000000005</ele>
        <time>2019-03-14T11:41:00Z</time>
      </trkpt>
      <trkpt lat="30.640721451491117" lon="-4.803788065910339">
        <ele>669.70000000000005</ele>
        <time>2019-03-14T11:41:11Z</time>
      </trkpt>
      <trkpt lat="30.640345020219684" lon="-4.804515950381756">
        <ele>669.70000000000005</ele>
        <time>2019-03-14T11:41:19Z</time>
      </trkpt>
      <trkpt lat="30.639962051063776" lon="-4.80544064193964">
        <ele>669.22000000000003</ele>
        <time>2019-03-14T11:41:29Z</time>
      </trkpt>
      <trkpt lat="30.639722412452102" lon="-4.80618386529386">
        <ele>668.25</ele>
        <time>2019-03-14T11:41:34Z</time>
      </trkpt>
      <trkpt lat="30.639155879616737" lon="-4.807214168831706">
        <ele>666.80999999999995</ele>
        <time>2019-03-14T11:41:39Z</time>
      </trkpt>
      <trkpt lat="30.638806186616421" lon="-4.807771565392613">
        <ele>666.80999999999995</ele>
        <time>2019-03-14T11:41:44Z</time>
      </trkpt>
      <trkpt lat="30.638368232175708" lon="-4.808218656107783">
        <ele>666.80999999999995</ele>
        <time>2019-03-14T11:41:46Z</time>
      </trkpt>
      <trkpt lat="30.638142423704267" lon="-4.808624759316444">
        <ele>666.80999999999995</ele>
        <time>2019-03-14T11:41:51Z</time>
      </trkpt>
      <trkpt lat="30.638107303529978" lon="-4.808782087638974">
        <ele>666.80999999999995</ele>
        <time>2019-03-14T11:42:04Z</time>
      </trkpt>
      <trkpt lat="30.637999763712287" lon="-4.80904963798821">
        <ele>666.80999999999995</ele>
        <time>2019-03-14T11:42:15Z</time>
      </trkpt>
      <trkpt lat="30.637496346607804" lon="-4.809788083657622">
        <ele>666.80999999999995</ele>
        <time>2019-03-14T11:42:18Z</time>
      </trkpt>
      <trkpt lat="30.637102983891964" lon="-4.810441536828876">
        <ele>666.33000000000004</ele>
        <time>2019-03-14T11:42:20Z</time>
      </trkpt>
      <trkpt lat="30.636994941160083" lon="-4.810641026124358">
        <ele>666.33000000000004</ele>
        <time>2019-03-14T11:42:21Z</time>
      </trkpt>
      <trkpt lat="30.636943895369768" lon="-4.810796342790127">
        <ele>665.85000000000002</ele>
        <time>2019-03-14T11:42:22Z</time>
      </trkpt>
      <trkpt lat="30.636932915076613" lon="-4.810878150165081">
        <ele>668.25</ele>
        <time>2019-03-14T11:42:23Z</time>
      </trkpt>
      <trkpt lat="30.636931154876947" lon="-4.810960711911321">
        <ele>664.88999999999999</ele>
        <time>2019-03-14T11:42:24Z</time>
      </trkpt>
      <trkpt lat="30.636936519294977" lon="-4.811045788228512">
        <ele>663.92999999999995</ele>
        <time>2019-03-14T11:42:25Z</time>
      </trkpt>
      <trkpt lat="30.63694984652102" lon="-4.811130193993449">
        <ele>664.88999999999999</ele>
        <time>2019-03-14T11:42:26Z</time>
      </trkpt>
      <trkpt lat="30.636972058564425" lon="-4.811211917549372">
        <ele>665.37</ele>
        <time>2019-03-14T11:42:29Z</time>
      </trkpt>
      <trkpt lat="30.637001814320683" lon="-4.811292216181755">
        <ele>664.40999999999997</ele>
        <time>2019-03-14T11:42:42Z</time>
      </trkpt>
      <trkpt lat="30.637089489027858" lon="-4.811483910307288">
        <ele>664.40999999999997</ele>
        <time>2019-03-14T11:42:52Z</time>
      </trkpt>
      <trkpt lat="30.637352094054222" lon="-4.812093107029796">
        <ele>663.92999999999995</ele>
        <time>2019-03-14T11:43:01Z</time>
      </trkpt>
      <trkpt lat="30.637582680210471" lon="-4.812706410884857">
        <ele>663.92999999999995</ele>
        <time>2019-03-14T11:43:12Z</time>
      </trkpt>
      <trkpt lat="30.637667253613472" lon="-4.813511911779642">
        <ele>663.92999999999995</ele>
        <time>2019-03-14T11:43:24Z</time>
      </trkpt>
      <trkpt lat="30.6373808439821" lon="-4.814965417608619">
        <ele>663.92999999999995</ele>
        <time>2019-03-14T11:43:34Z</time>
      </trkpt>
      <trkpt lat="30.637036515399814" lon="-4.816668704152107">
        <ele>662.97000000000003</ele>
        <time>2019-03-14T11:43:39Z</time>
      </trkpt>
      <trkpt lat="30.636812383309007" lon="-4.817955829203129">
        <ele>661.51999999999998</ele>
        <time>2019-03-14T11:43:49Z</time>
      </trkpt>
      <trkpt lat="30.636641224846244" lon="-4.818619843572378">
        <ele>662.00999999999999</ele>
        <time>2019-03-14T11:43:59Z</time>
      </trkpt>
      <trkpt lat="30.636464534327388" lon="-4.819943010807037">
        <ele>662.49000000000001</ele>
        <time>2019-03-14T11:44:01Z</time>
      </trkpt>
      <trkpt lat="30.636293375864625" lon="-4.820986976847053">
        <ele>661.51999999999998</ele>
        <time>2019-03-14T11:44:13Z</time>
      </trkpt>
      <trkpt lat="30.636256830766797" lon="-4.821184286847711">
        <ele>661.03999999999996</ele>
        <time>2019-03-14T11:44:26Z</time>
      </trkpt>
      <trkpt lat="30.636081732809544" lon="-4.822253733873367">
        <ele>661.03999999999996</ele>
        <time>2019-03-14T11:44:39Z</time>
      </trkpt>
      <trkpt lat="30.635850895196199" lon="-4.823427870869637">
        <ele>661.03999999999996</ele>
        <time>2019-03-14T11:44:49Z</time>
      </trkpt>
      <trkpt lat="30.635746875777841" lon="-4.824620448052883">
        <ele>661.51999999999998</ele>
        <time>2019-03-14T11:45:00Z</time>
      </trkpt>
      <trkpt lat="30.635652076452971" lon="-4.825664162635803">
        <ele>662.00999999999999</ele>
        <time>2019-03-14T11:45:10Z</time>
      </trkpt>
      <trkpt lat="30.635508997365832" lon="-4.826719025149941">
        <ele>661.51999999999998</ele>
        <time>2019-03-14T11:45:19Z</time>
      </trkpt>
      <trkpt lat="30.635298108682036" lon="-4.827798111364245">
        <ele>661.51999999999998</ele>
        <time>2019-03-14T11:45:30Z</time>
      </trkpt>
      <trkpt lat="30.63513751141727" lon="-4.828477213159204">
        <ele>661.51999999999998</ele>
        <time>2019-03-14T11:45:39Z</time>
      </trkpt>
      <trkpt lat="30.634873230010271" lon="-4.829725362360477">
        <ele>661.51999999999998</ele>
        <time>2019-03-14T11:45:49Z</time>
      </trkpt>
      <trkpt lat="30.634636357426643" lon="-4.830639744177461">
        <ele>661.51999999999998</ele>
        <time>2019-03-14T11:45:57Z</time>
      </trkpt>
      <trkpt lat="30.63438112847507" lon="-4.831614810973406">
        <ele>661.03999999999996</ele>
        <time>2019-03-14T11:46:06Z</time>
      </trkpt>
      <trkpt lat="30.63419203273952" lon="-4.832502286881208">
        <ele>661.51999999999998</ele>
        <time>2019-03-14T11:46:15Z</time>
      </trkpt>
      <trkpt lat="30.633990531787276" lon="-4.833588497713208">
        <ele>661.51999999999998</ele>
        <time>2019-03-14T11:46:26Z</time>
      </trkpt>
      <trkpt lat="30.63387444242835" lon="-4.834569348022342">
        <ele>662.00999999999999</ele>
        <time>2019-03-14T11:46:34Z</time>
      </trkpt>
      <trkpt lat="30.633901935070753" lon="-4.83590760268271">
        <ele>662.49000000000001</ele>
        <time>2019-03-14T11:46:45Z</time>
      </trkpt>
      <trkpt lat="30.634021377190948" lon="-4.836719892919064">
        <ele>663.45000000000005</ele>
        <time>2019-03-14T11:46:53Z</time>
      </trkpt>
      <trkpt lat="30.634359167888761" lon="-4.838101901113987">
        <ele>663.45000000000005</ele>
        <time>2019-03-14T11:47:04Z</time>
      </trkpt>
      <trkpt lat="30.634499480947852" lon="-4.838874125853181">
        <ele>663.92999999999995</ele>
        <time>2019-03-14T11:47:15Z</time>
      </trkpt>
      <trkpt lat="30.634567625820637" lon="-4.839896550402045">
        <ele>663.92999999999995</ele>
        <time>2019-03-14T11:47:26Z</time>
      </trkpt>
      <trkpt lat="30.634512808173895" lon="-4.840969350188971">
        <ele>663.45000000000005</ele>
        <time>2019-03-14T11:47:35Z</time>
      </trkpt>
      <trkpt lat="30.634416164830327" lon="-4.842083305120468">
        <ele>665.37</ele>
        <time>2019-03-14T11:47:44Z</time>
      </trkpt>
      <trkpt lat="30.63426436856389" lon="-4.842898277565837">
        <ele>664.88999999999999</ele>
        <time>2019-03-14T11:47:52Z</time>
      </trkpt>
      <trkpt lat="30.633938983082771" lon="-4.844124801456928">
        <ele>664.88999999999999</ele>
        <time>2019-03-14T11:48:02Z</time>
      </trkpt>
      <trkpt lat="30.633687190711498" lon="-4.845291310921311">
        <ele>663.92999999999995</ele>
        <time>2019-03-14T11:48:14Z</time>
      </trkpt>
      <trkpt lat="30.633392734453082" lon="-4.846959058195353">
        <ele>664.40999999999997</ele>
        <time>2019-03-14T11:48:26Z</time>
      </trkpt>
      <trkpt lat="30.633045388385653" lon="-4.848831072449684">
        <ele>663.92999999999995</ele>
        <time>2019-03-14T11:48:36Z</time>
      </trkpt>
      <trkpt lat="30.632734755054116" lon="-4.85066226683557">
        <ele>663.92999999999995</ele>
        <time>2019-03-14T11:48:45Z</time>
      </trkpt>
      <trkpt lat="30.632466785609722" lon="-4.851945955306292">
        <ele>665.37</ele>
        <time>2019-03-14T11:48:55Z</time>
      </trkpt>
      <trkpt lat="30.63220820389688" lon="-4.853475820273161">
        <ele>664.40999999999997</ele>
        <time>2019-03-14T11:49:06Z</time>
      </trkpt>
      <trkpt lat="30.631920620799065" lon="-4.855260411277413">
        <ele>663.92999999999995</ele>
        <time>2019-03-14T11:49:13Z</time>
      </trkpt>
      <trkpt lat="30.631633624434471" lon="-4.857091857120395">
        <ele>664.40999999999997</ele>
        <time>2019-03-14T11:49:19Z</time>
      </trkpt>
      <trkpt lat="30.631602443754673" lon="-4.857981931418181">
        <ele>663.92999999999995</ele>
        <time>2019-03-14T11:49:20Z</time>
      </trkpt>
      <trkpt lat="30.631598923355341" lon="-4.858650891110301">
        <ele>663.92999999999995</ele>
        <time>2019-03-14T11:49:31Z</time>
      </trkpt>
      <trkpt lat="30.631607975810766" lon="-4.858748372644186">
        <ele>663.92999999999995</ele>
        <time>2019-03-14T11:49:40Z</time>
      </trkpt>
      <trkpt lat="30.631768237799406" lon="-4.859887640923262">
        <ele>663.92999999999995</ele>
        <time>2019-03-14T11:49:50Z</time>
      </trkpt>
      <trkpt lat="30.63202790915966" lon="-4.861321030184627">
        <ele>663.92999999999995</ele>
        <time>2019-03-14T11:49:55Z</time>
      </trkpt>
      <trkpt lat="30.63222480006516" lon="-4.862808482721448">
        <ele>663.92999999999995</ele>
        <time>2019-03-14T11:49:57Z</time>
      </trkpt>
      <trkpt lat="30.632227985188365" lon="-4.863385073840618">
        <ele>663.92999999999995</ele>
        <time>2019-03-14T11:49:58Z</time>
      </trkpt>
      <trkpt lat="30.632187584415078" lon="-4.863578444346786">
        <ele>663.92999999999995</ele>
        <time>2019-03-14T11:50:00Z</time>
      </trkpt>
      <trkpt lat="30.632155649363995" lon="-4.863668633624911">
        <ele>663.45000000000005</ele>
        <time>2019-03-14T11:50:01Z</time>
      </trkpt>
      <trkpt lat="30.632093288004398" lon="-4.863857729360461">
        <ele>663.45000000000005</ele>
        <time>2019-03-14T11:50:02Z</time>
      </trkpt>
      <trkpt lat="30.632073590531945" lon="-4.863965101540089">
        <ele>663.45000000000005</ele>
        <time>2019-03-14T11:50:03Z</time>
      </trkpt>
      <trkpt lat="30.632061436772346" lon="-4.86407607793808">
        <ele>663.45000000000005</ele>
        <time>2019-03-14T11:50:04Z</time>
      </trkpt>
      <trkpt lat="30.632057832553983" lon="-4.864186383783817">
        <ele>663.45000000000005</ele>
        <time>2019-03-14T11:50:05Z</time>
      </trkpt>
      <trkpt lat="30.632062442600727" lon="-4.86429350450635">
        <ele>662.97000000000003</ele>
        <time>2019-03-14T11:50:13Z</time>
      </trkpt>
      <trkpt lat="30.632072919979692" lon="-4.864398194476962">
        <ele>662.97000000000003</ele>
        <time>2019-03-14T11:50:14Z</time>
      </trkpt>
      <trkpt lat="30.63209974206984" lon="-4.865072099491954">
        <ele>662.49000000000001</ele>
        <time>2019-03-14T11:50:17Z</time>
      </trkpt>
      <trkpt lat="30.632114410400391" lon="-4.865141836926341">
        <ele>662.49000000000001</ele>
        <time>2019-03-14T11:50:18Z</time>
      </trkpt>
      <trkpt lat="30.632156152278185" lon="-4.865351216867566">
        <ele>662.49000000000001</ele>
        <time>2019-03-14T11:50:19Z</time>
      </trkpt>
      <trkpt lat="30.632154308259487" lon="-4.865427743643522">
        <ele>662.00999999999999</ele>
        <time>2019-03-14T11:50:20Z</time>
      </trkpt>
      <trkpt lat="30.632137376815081" lon="-4.865505443885922">
        <ele>662.00999999999999</ele>
        <time>2019-03-14T11:50:21Z</time>
      </trkpt>
      <trkpt lat="30.632109381258488" lon="-4.865579456090927">
        <ele>661.51999999999998</ele>
        <time>2019-03-14T11:50:22Z</time>
      </trkpt>
      <trkpt lat="30.632074261084199" lon="-4.865641565993428">
        <ele>661.51999999999998</ele>
        <time>2019-03-14T11:50:23Z</time>
      </trkpt>
      <trkpt lat="30.632036374881864" lon="-4.865692025050521">
        <ele>661.51999999999998</ele>
        <time>2019-03-14T11:50:24Z</time>
      </trkpt>
      <trkpt lat="30.632003517821431" lon="-4.865737287327647">
        <ele>662.00999999999999</ele>
        <time>2019-03-14T11:50:25Z</time>
      </trkpt>
      <trkpt lat="30.631982814520597" lon="-4.865786321461201">
        <ele>662.00999999999999</ele>
        <time>2019-03-14T11:50:26Z</time>
      </trkpt>
      <trkpt lat="30.631975186988711" lon="-4.865838708356023">
        <ele>662.00999999999999</ele>
        <time>2019-03-14T11:50:27Z</time>
      </trkpt>
      <trkpt lat="30.631976192817092" lon="-4.865895956754684">
        <ele>662.97000000000003</ele>
        <time>2019-03-14T11:50:31Z</time>
      </trkpt>
      <trkpt lat="30.631979629397392" lon="-4.865954043343663">
        <ele>662.97000000000003</ele>
        <time>2019-03-14T11:50:44Z</time>
      </trkpt>
      <trkpt lat="30.631974516436458" lon="-4.866172475740314">
        <ele>662.97000000000003</ele>
        <time>2019-03-14T11:50:47Z</time>
      </trkpt>
      <trkpt lat="30.631905952468514" lon="-4.867200432345271">
        <ele>662.97000000000003</ele>
        <time>2019-03-14T11:50:48Z</time>
      </trkpt>
      <trkpt lat="30.631877453997731" lon="-4.867464797571302">
        <ele>664.40999999999997</ele>
        <time>2019-03-14T11:50:49Z</time>
      </trkpt>
      <trkpt lat="30.631857169792056" lon="-4.867549873888493">
        <ele>665.37</ele>
        <time>2019-03-14T11:51:03Z</time>
      </trkpt>
      <trkpt lat="30.631833532825112" lon="-4.867634447291493">
        <ele>664.40999999999997</ele>
        <time>2019-03-14T11:51:13Z</time>
      </trkpt>
      <trkpt lat="30.631332546472549" lon="-4.868648322299123">
        <ele>665.37</ele>
        <time>2019-03-14T11:51:14Z</time>
      </trkpt>
      <trkpt lat="30.630967933684587" lon="-4.869383918121457">
        <ele>665.85000000000002</ele>
        <time>2019-03-14T11:51:15Z</time>
      </trkpt>
      <trkpt lat="30.63094018958509" lon="-4.869471592828631">
        <ele>666.33000000000004</ele>
        <time>2019-03-14T11:51:26Z</time>
      </trkpt>
      <trkpt lat="30.630921665579081" lon="-4.869565637782216">
        <ele>665.37</ele>
        <time>2019-03-14T11:51:35Z</time>
      </trkpt>
      <trkpt lat="30.630742963403463" lon="-4.870498878881335">
        <ele>665.85000000000002</ele>
        <time>2019-03-14T11:51:47Z</time>
      </trkpt>
      <trkpt lat="30.630616815760732" lon="-4.871400184929371">
        <ele>665.85000000000002</ele>
        <time>2019-03-14T11:51:54Z</time>
      </trkpt>
      <trkpt lat="30.630446746945381" lon="-4.872681526467204">
        <ele>665.37</ele>
        <time>2019-03-14T11:52:04Z</time>
      </trkpt>
      <trkpt lat="30.630374830216169" lon="-4.87341083586216">
        <ele>665.85000000000002</ele>
        <time>2019-03-14T11:52:07Z</time>
      </trkpt>
      <trkpt lat="30.630196882411838" lon="-4.874554043635726">
        <ele>665.37</ele>
        <time>2019-03-14T11:52:12Z</time>
      </trkpt>
      <trkpt lat="30.63017500564456" lon="-4.874917985871434">
        <ele>664.40999999999997</ele>
        <time>2019-03-14T11:52:21Z</time>
      </trkpt>
      <trkpt lat="30.630194200202823" lon="-4.875450488179922">
        <ele>665.37</ele>
        <time>2019-03-14T11:52:27Z</time>
      </trkpt>
      <trkpt lat="30.630029831081629" lon="-4.876486407592893">
        <ele>666.80999999999995</ele>
        <time>2019-03-14T11:52:37Z</time>
      </trkpt>
      <trkpt lat="30.629912065342069" lon="-4.877116978168488">
        <ele>667.76999999999998</ele>
        <time>2019-03-14T11:52:50Z</time>
      </trkpt>
      <trkpt lat="30.629759849980474" lon="-4.878400834277272">
        <ele>667.28999999999996</ele>
        <time>2019-03-14T11:53:00Z</time>
      </trkpt>
      <trkpt lat="30.629279231652617" lon="-4.88029120489955">
        <ele>668.73000000000002</ele>
        <time>2019-03-14T11:53:12Z</time>
      </trkpt>
      <trkpt lat="30.629100361838937" lon="-4.881854513660073">
        <ele>669.22000000000003</ele>
        <time>2019-03-14T11:53:23Z</time>
      </trkpt>
      <trkpt lat="30.628942362964153" lon="-4.883821830153465">
        <ele>668.25</ele>
        <time>2019-03-14T11:53:34Z</time>
      </trkpt>
      <trkpt lat="30.628841193392873" lon="-4.885617066174746">
        <ele>668.73000000000002</ele>
        <time>2019-03-14T11:53:46Z</time>
      </trkpt>
      <trkpt lat="30.628644889220595" lon="-4.887366285547614">
        <ele>668.73000000000002</ele>
        <time>2019-03-14T11:53:58Z</time>
      </trkpt>
      <trkpt lat="30.628461493179202" lon="-4.888808056712151">
        <ele>669.22000000000003</ele>
        <time>2019-03-14T11:54:12Z</time>
      </trkpt>
      <trkpt lat="30.62822487205267" lon="-4.890753077343106">
        <ele>669.22000000000003</ele>
        <time>2019-03-14T11:54:23Z</time>
      </trkpt>
      <trkpt lat="30.627959249541163" lon="-4.893146110698581">
        <ele>669.70000000000005</ele>
        <time>2019-03-14T11:54:37Z</time>
      </trkpt>
      <trkpt lat="30.627616178244352" lon="-4.894987363368273">
        <ele>669.70000000000005</ele>
        <time>2019-03-14T11:54:48Z</time>
      </trkpt>
      <trkpt lat="30.6271508987993" lon="-4.897304372861981">
        <ele>670.17999999999995</ele>
        <time>2019-03-14T11:54:59Z</time>
      </trkpt>
      <trkpt lat="30.626829117536545" lon="-4.899007827043533">
        <ele>671.62</ele>
        <time>2019-03-14T11:55:08Z</time>
      </trkpt>
      <trkpt lat="30.62647070735693" lon="-4.9007364269346">
        <ele>671.13999999999999</ele>
        <time>2019-03-14T11:55:21Z</time>
      </trkpt>
      <trkpt lat="30.626178178936243" lon="-4.902045177295804">
        <ele>671.62</ele>
        <time>2019-03-14T11:55:33Z</time>
      </trkpt>
      <trkpt lat="30.625786492601037" lon="-4.904163368046284">
        <ele>673.05999999999995</ele>
        <time>2019-03-14T11:55:44Z</time>
      </trkpt>
      <trkpt lat="30.625337725505233" lon="-4.906395552679896">
        <ele>673.53999999999996</ele>
        <time>2019-03-14T11:55:59Z</time>
      </trkpt>
      <trkpt lat="30.624962216243148" lon="-4.908526232466102">
        <ele>674.01999999999998</ele>
        <time>2019-03-14T11:56:13Z</time>
      </trkpt>
      <trkpt lat="30.624433401972055" lon="-4.911436596885324">
        <ele>674.5</ele>
        <time>2019-03-14T11:56:27Z</time>
      </trkpt>
      <trkpt lat="30.623946245759726" lon="-4.914188040420413">
        <ele>675.94000000000005</ele>
        <time>2019-03-14T11:56:37Z</time>
      </trkpt>
      <trkpt lat="30.623421622440219" lon="-4.91677469573915">
        <ele>675.46000000000004</ele>
        <time>2019-03-14T11:56:48Z</time>
      </trkpt>
      <trkpt lat="30.622980147600174" lon="-4.918612847104669">
        <ele>676.41999999999996</ele>
        <time>2019-03-14T11:56:58Z</time>
      </trkpt>
      <trkpt lat="30.62244538217783" lon="-4.920908398926258">
        <ele>676.41999999999996</ele>
        <time>2019-03-14T11:57:09Z</time>
      </trkpt>
      <trkpt lat="30.622033243998885" lon="-4.923065984621644">
        <ele>676.41999999999996</ele>
        <time>2019-03-14T11:57:20Z</time>
      </trkpt>
      <trkpt lat="30.621433351188898" lon="-4.925386011600494">
        <ele>675.94000000000005</ele>
        <time>2019-03-14T11:57:33Z</time>
      </trkpt>
      <trkpt lat="30.620594574138522" lon="-4.927923548966646">
        <ele>676.90999999999997</ele>
        <time>2019-03-14T11:57:41Z</time>
      </trkpt>
      <trkpt lat="30.619725622236729" lon="-4.930842379108071">
        <ele>676.90999999999997</ele>
        <time>2019-03-14T11:57:54Z</time>
      </trkpt>
      <trkpt lat="30.619254978373647" lon="-4.932454554364085">
        <ele>677.38999999999999</ele>
        <time>2019-03-14T11:58:06Z</time>
      </trkpt>
      <trkpt lat="30.618471186608076" lon="-4.935437003150582">
        <ele>677.38999999999999</ele>
        <time>2019-03-14T11:58:15Z</time>
      </trkpt>
      <trkpt lat="30.61769443564117" lon="-4.938034303486347">
        <ele>678.35000000000002</ele>
        <time>2019-03-14T11:58:24Z</time>
      </trkpt>
      <trkpt lat="30.617054225876927" lon="-4.939789474010468">
        <ele>678.35000000000002</ele>
        <time>2019-03-14T11:58:32Z</time>
      </trkpt>
      <trkpt lat="30.616517700254917" lon="-4.941475577652454">
        <ele>678.83000000000004</ele>
        <time>2019-03-14T11:58:41Z</time>
      </trkpt>
      <trkpt lat="30.616073962301016" lon="-4.942978452891111">
        <ele>678.35000000000002</ele>
        <time>2019-03-14T11:58:51Z</time>
      </trkpt>
      <trkpt lat="30.615607928484678" lon="-4.944623736664653">
        <ele>679.78999999999996</ele>
        <time>2019-03-14T11:59:03Z</time>
      </trkpt>
      <trkpt lat="30.615202831104398" lon="-4.946599015966058">
        <ele>679.78999999999996</ele>
        <time>2019-03-14T11:59:12Z</time>
      </trkpt>
      <trkpt lat="30.614691032096744" lon="-4.949042005464435">
        <ele>679.30999999999995</ele>
        <time>2019-03-14T11:59:25Z</time>
      </trkpt>
      <trkpt lat="30.61430873349309" lon="-4.95098409242928">
        <ele>679.78999999999996</ele>
        <time>2019-03-14T11:59:34Z</time>
      </trkpt>
      <trkpt lat="30.613641534000635" lon="-4.953869730234146">
        <ele>680.26999999999998</ele>
        <time>2019-03-14T11:59:44Z</time>
      </trkpt>
      <trkpt lat="30.613253200426698" lon="-4.95565339922905">
        <ele>681.23000000000002</ele>
        <time>2019-03-14T11:59:54Z</time>
      </trkpt>
      <trkpt lat="30.612884815782309" lon="-4.957623649388552">
        <ele>681.71000000000004</ele>
        <time>2019-03-14T12:00:05Z</time>
      </trkpt>
      <trkpt lat="30.612644422799349" lon="-4.959916435182095">
        <ele>681.23000000000002</ele>
        <time>2019-03-14T12:00:16Z</time>
      </trkpt>
      <trkpt lat="30.61236304230988" lon="-4.962349282577634">
        <ele>681.71000000000004</ele>
        <time>2019-03-14T12:00:27Z</time>
      </trkpt>
      <trkpt lat="30.612107729539275" lon="-4.964803587645292">
        <ele>681.71000000000004</ele>
        <time>2019-03-14T12:00:36Z</time>
      </trkpt>
      <trkpt lat="30.611883094534278" lon="-4.967132080346346">
        <ele>682.19000000000005</ele>
        <time>2019-03-14T12:00:47Z</time>
      </trkpt>
      <trkpt lat="30.611551590263844" lon="-4.969133595004678">
        <ele>682.19000000000005</ele>
        <time>2019-03-14T12:00:56Z</time>
      </trkpt>
      <trkpt lat="30.611294014379382" lon="-4.971600640565157">
        <ele>682.66999999999996</ele>
        <time>2019-03-14T12:01:03Z</time>
      </trkpt>
      <trkpt lat="30.611126460134983" lon="-4.973346255719662">
        <ele>684.12</ele>
        <time>2019-03-14T12:01:12Z</time>
      </trkpt>
      <trkpt lat="30.611137188971043" lon="-4.97463564388454">
        <ele>684.12</ele>
        <time>2019-03-14T12:01:25Z</time>
      </trkpt>
      <trkpt lat="30.61127683147788" lon="-4.976275311782956">
        <ele>684.12</ele>
        <time>2019-03-14T12:01:35Z</time>
      </trkpt>
      <trkpt lat="30.611607581377029" lon="-4.979182993993163">
        <ele>684.12</ele>
        <time>2019-03-14T12:01:45Z</time>
      </trkpt>
      <trkpt lat="30.611808244138956" lon="-4.98118962161243">
        <ele>683.63</ele>
        <time>2019-03-14T12:01:53Z</time>
      </trkpt>
      <trkpt lat="30.611943863332272" lon="-4.982793247327209">
        <ele>685.08000000000004</ele>
        <time>2019-03-14T12:02:01Z</time>
      </trkpt>
      <trkpt lat="30.612186435610056" lon="-4.984024548903108">
        <ele>685.08000000000004</ele>
        <time>2019-03-14T12:02:09Z</time>
      </trkpt>
      <trkpt lat="30.612501678988338" lon="-4.98541971668601">
        <ele>684.60000000000002</ele>
        <time>2019-03-14T12:02:18Z</time>
      </trkpt>
      <trkpt lat="30.612825723364949" lon="-4.987016217783094">
        <ele>684.60000000000002</ele>
        <time>2019-03-14T12:02:27Z</time>
      </trkpt>
      <trkpt lat="30.613082209601998" lon="-4.988520182669163">
        <ele>684.60000000000002</ele>
        <time>2019-03-14T12:02:33Z</time>
      </trkpt>
      <trkpt lat="30.61330265365541" lon="-4.990279376506805">
        <ele>685.55999999999995</ele>
        <time>2019-03-14T12:02:43Z</time>
      </trkpt>
      <trkpt lat="30.613302318379283" lon="-4.991462985053659">
        <ele>686.51999999999998</ele>
        <time>2019-03-14T12:02:52Z</time>
      </trkpt>
      <trkpt lat="30.613365266472101" lon="-4.993571368977428">
        <ele>687</ele>
        <time>2019-03-14T12:03:00Z</time>
      </trkpt>
      <trkpt lat="30.613371636718512" lon="-4.995571961626411">
        <ele>687</ele>
        <time>2019-03-14T12:03:10Z</time>
      </trkpt>
      <trkpt lat="30.613437434658408" lon="-4.996935278177261">
        <ele>687</ele>
        <time>2019-03-14T12:03:23Z</time>
      </trkpt>
      <trkpt lat="30.613500382751226" lon="-4.99887116253376">
        <ele>687.48000000000002</ele>
        <time>2019-03-14T12:03:32Z</time>
      </trkpt>
      <trkpt lat="30.613520164042711" lon="-5.001695025712252">
        <ele>688.44000000000005</ele>
        <time>2019-03-14T12:03:40Z</time>
      </trkpt>
      <trkpt lat="30.613553691655397" lon="-5.003429325297475">
        <ele>689.39999999999998</ele>
        <time>2019-03-14T12:03:49Z</time>
      </trkpt>
      <trkpt lat="30.613451432436705" lon="-5.004864558577538">
        <ele>688.91999999999996</ele>
        <time>2019-03-14T12:03:57Z</time>
      </trkpt>
      <trkpt lat="30.613351436331868" lon="-5.005972478538752">
        <ele>689.88</ele>
        <time>2019-03-14T12:04:08Z</time>
      </trkpt>
      <trkpt lat="30.613283459097147" lon="-5.007297825068235">
        <ele>690.36000000000001</ele>
        <time>2019-03-14T12:04:18Z</time>
      </trkpt>
      <trkpt lat="30.613313633948565" lon="-5.009053498506546">
        <ele>689.88</ele>
        <time>2019-03-14T12:04:30Z</time>
      </trkpt>
      <trkpt lat="30.613325787708163" lon="-5.011152410879731">
        <ele>689.39999999999998</ele>
        <time>2019-03-14T12:04:40Z</time>
      </trkpt>
      <trkpt lat="30.613195113837719" lon="-5.013662204146385">
        <ele>689.88</ele>
        <time>2019-03-14T12:04:52Z</time>
      </trkpt>
      <trkpt lat="30.613065445795655" lon="-5.015669669955969">
        <ele>690.36000000000001</ele>
        <time>2019-03-14T12:05:04Z</time>
      </trkpt>
      <trkpt lat="30.612885905429721" lon="-5.018010148778558">
        <ele>691.33000000000004</ele>
        <time>2019-03-14T12:05:12Z</time>
      </trkpt>
      <trkpt lat="30.612714998424053" lon="-5.020614825189114">
        <ele>692.28999999999996</ele>
        <time>2019-03-14T12:05:24Z</time>
      </trkpt>
      <trkpt lat="30.612655403092504" lon="-5.022218953818083">
        <ele>692.28999999999996</ele>
        <time>2019-03-14T12:05:35Z</time>
      </trkpt>
      <trkpt lat="30.612734360620379" lon="-5.024655153974891">
        <ele>692.76999999999998</ele>
        <time>2019-03-14T12:05:42Z</time>
      </trkpt>
      <trkpt lat="30.612863274291158" lon="-5.026961518451572">
        <ele>694.21000000000004</ele>
        <time>2019-03-14T12:05:50Z</time>
      </trkpt>
      <trkpt lat="30.612960839644074" lon="-5.028244704008102">
        <ele>694.21000000000004</ele>
        <time>2019-03-14T12:05:59Z</time>
      </trkpt>
      <trkpt lat="30.613121520727873" lon="-5.029926700517535">
        <ele>694.69000000000005</ele>
        <time>2019-03-14T12:06:12Z</time>
      </trkpt>
      <trkpt lat="30.613352777436376" lon="-5.031867781654">
        <ele>694.69000000000005</ele>
        <time>2019-03-14T12:06:22Z</time>
      </trkpt>
      <trkpt lat="30.613711858168244" lon="-5.034692063927651">
        <ele>696.61000000000001</ele>
        <time>2019-03-14T12:06:31Z</time>
      </trkpt>
      <trkpt lat="30.613844124600291" lon="-5.036874795332551">
        <ele>696.13</ele>
        <time>2019-03-14T12:06:38Z</time>
      </trkpt>
      <trkpt lat="30.613937079906464" lon="-5.038764579221606">
        <ele>695.64999999999998</ele>
        <time>2019-03-14T12:06:47Z</time>
      </trkpt>
      <trkpt lat="30.613931966945529" lon="-5.039882976561785">
        <ele>696.13</ele>
        <time>2019-03-14T12:06:57Z</time>
      </trkpt>
      <trkpt lat="30.613822415471077" lon="-5.041262805461884">
        <ele>696.13</ele>
        <time>2019-03-14T12:07:10Z</time>
      </trkpt>
      <trkpt lat="30.613598870113492" lon="-5.04309986717999">
        <ele>696.61000000000001</ele>
        <time>2019-03-14T12:07:25Z</time>
      </trkpt>
      <trkpt lat="30.613283710554242" lon="-5.045885173603892">
        <ele>695.64999999999998</ele>
        <time>2019-03-14T12:07:36Z</time>
      </trkpt>
      <trkpt lat="30.612975927069783" lon="-5.049058562144637">
        <ele>696.13</ele>
        <time>2019-03-14T12:07:47Z</time>
      </trkpt>
      <trkpt lat="30.61275782994926" lon="-5.051279263570905">
        <ele>696.61000000000001</ele>
        <time>2019-03-14T12:07:59Z</time>
      </trkpt>
      <trkpt lat="30.612625060603023" lon="-5.053546400740743">
        <ele>696.61000000000001</ele>
        <time>2019-03-14T12:08:13Z</time>
      </trkpt>
      <trkpt lat="30.612499583512545" lon="-5.056126601994038">
        <ele>698.04999999999995</ele>
        <time>2019-03-14T12:08:24Z</time>
      </trkpt>
      <trkpt lat="30.612282156944275" lon="-5.059153474867344">
        <ele>699.01999999999998</ele>
        <time>2019-03-14T12:08:37Z</time>
      </trkpt>
      <trkpt lat="30.61211627908051" lon="-5.061487918719649">
        <ele>700.46000000000004</ele>
        <time>2019-03-14T12:08:47Z</time>
      </trkpt>
      <trkpt lat="30.611972277984023" lon="-5.063768299296498">
        <ele>699.01999999999998</ele>
        <time>2019-03-14T12:08:57Z</time>
      </trkpt>
      <trkpt lat="30.612008487805724" lon="-5.065398411825299">
        <ele>698.52999999999997</ele>
        <time>2019-03-14T12:09:07Z</time>
      </trkpt>
      <trkpt lat="30.612010331824422" lon="-5.067127514630556">
        <ele>699.01999999999998</ele>
        <time>2019-03-14T12:09:18Z</time>
      </trkpt>
      <trkpt lat="30.611908994615078" lon="-5.068599209189415">
        <ele>699.98000000000002</ele>
        <time>2019-03-14T12:09:29Z</time>
      </trkpt>
      <trkpt lat="30.611660219728947" lon="-5.070340717211366">
        <ele>699.01999999999998</ele>
        <time>2019-03-14T12:09:39Z</time>
      </trkpt>
      <trkpt lat="30.611323770135641" lon="-5.071823308244348">
        <ele>700.46000000000004</ele>
        <time>2019-03-14T12:09:49Z</time>
      </trkpt>
      <trkpt lat="30.610921606421471" lon="-5.07343296892941">
        <ele>699.01999999999998</ele>
        <time>2019-03-14T12:10:00Z</time>
      </trkpt>
      <trkpt lat="30.610501421615481" lon="-5.075179589912295">
        <ele>699.5</ele>
        <time>2019-03-14T12:10:07Z</time>
      </trkpt>
      <trkpt lat="30.609964393079281" lon="-5.077144308015704">
        <ele>699.98000000000002</ele>
        <time>2019-03-14T12:10:12Z</time>
      </trkpt>
      <trkpt lat="30.609398195520043" lon="-5.078221131116152">
        <ele>700.46000000000004</ele>
        <time>2019-03-14T12:10:21Z</time>
      </trkpt>
      <trkpt lat="30.609074402600527" lon="-5.078952116891742">
        <ele>700.46000000000004</ele>
        <time>2019-03-14T12:10:30Z</time>
      </trkpt>
      <trkpt lat="30.608785226941109" lon="-5.08005291223526">
        <ele>699.98000000000002</ele>
        <time>2019-03-14T12:10:38Z</time>
      </trkpt>
      <trkpt lat="30.608460176736116" lon="-5.081477332860231">
        <ele>699.98000000000002</ele>
        <time>2019-03-14T12:10:46Z</time>
      </trkpt>
      <trkpt lat="30.608331765979528" lon="-5.082568991929293">
        <ele>699.98000000000002</ele>
        <time>2019-03-14T12:10:54Z</time>
      </trkpt>
      <trkpt lat="30.608211401849985" lon="-5.083621088415384">
        <ele>700.94000000000005</ele>
        <time>2019-03-14T12:11:02Z</time>
      </trkpt>
      <trkpt lat="30.608079805970192" lon="-5.08462205529213">
        <ele>702.38</ele>
        <time>2019-03-14T12:11:11Z</time>
      </trkpt>
      <trkpt lat="30.607977798208594" lon="-5.085707008838654">
        <ele>702.38</ele>
        <time>2019-03-14T12:11:20Z</time>
      </trkpt>
      <trkpt lat="30.607683844864368" lon="-5.087001761421561">
        <ele>702.38</ele>
        <time>2019-03-14T12:11:28Z</time>
      </trkpt>
      <trkpt lat="30.607417467981577" lon="-5.088595747947693">
        <ele>701.89999999999998</ele>
        <time>2019-03-14T12:11:36Z</time>
      </trkpt>
      <trkpt lat="30.607300037518144" lon="-5.089748091995716">
        <ele>701.89999999999998</ele>
        <time>2019-03-14T12:11:44Z</time>
      </trkpt>
      <trkpt lat="30.607276232913136" lon="-5.090735144913197">
        <ele>702.38</ele>
        <time>2019-03-14T12:11:54Z</time>
      </trkpt>
      <trkpt lat="30.607098704203963" lon="-5.09175656363368">
        <ele>702.38</ele>
        <time>2019-03-14T12:12:05Z</time>
      </trkpt>
      <trkpt lat="30.606840709224343" lon="-5.093091130256653">
        <ele>703.34000000000003</ele>
        <time>2019-03-14T12:12:16Z</time>
      </trkpt>
      <trkpt lat="30.60651901178062" lon="-5.094817718490958">
        <ele>703.82000000000005</ele>
        <time>2019-03-14T12:12:27Z</time>
      </trkpt>
      <trkpt lat="30.606203097850084" lon="-5.096740946173668">
        <ele>704.29999999999995</ele>
        <time>2019-03-14T12:12:38Z</time>
      </trkpt>
      <trkpt lat="30.605928590521216" lon="-5.098668364807963">
        <ele>704.77999999999997</ele>
        <time>2019-03-14T12:12:45Z</time>
      </trkpt>
      <trkpt lat="30.60567176900804" lon="-5.100490003824234">
        <ele>704.77999999999997</ele>
        <time>2019-03-14T12:12:54Z</time>
      </trkpt>
      <trkpt lat="30.605593901127577" lon="-5.101514272391796">
        <ele>705.75</ele>
        <time>2019-03-14T12:13:03Z</time>
      </trkpt>
      <trkpt lat="30.605433220043778" lon="-5.102711794897914">
        <ele>706.23000000000002</ele>
        <time>2019-03-14T12:13:11Z</time>
      </trkpt>
      <trkpt lat="30.605234485119581" lon="-5.104267224669457">
        <ele>705.75</ele>
        <time>2019-03-14T12:13:20Z</time>
      </trkpt>
      <trkpt lat="30.604963079094887" lon="-5.105777895078063">
        <ele>706.71000000000004</ele>
        <time>2019-03-14T12:13:28Z</time>
      </trkpt>
      <trkpt lat="30.604519424960017" lon="-5.107414294034243">
        <ele>708.14999999999998</ele>
        <time>2019-03-14T12:13:37Z</time>
      </trkpt>
      <trkpt lat="30.604157578200102" lon="-5.108515005558729">
        <ele>708.14999999999998</ele>
        <time>2019-03-14T12:13:49Z</time>
      </trkpt>
      <trkpt lat="30.603683078661561" lon="-5.11000488884747">
        <ele>709.11000000000001</ele>
        <time>2019-03-14T12:13:58Z</time>
      </trkpt>
      <trkpt lat="30.602856958284974" lon="-5.112391300499439">
        <ele>709.59000000000003</ele>
        <time>2019-03-14T12:14:07Z</time>
      </trkpt>
      <trkpt lat="30.602168971672654" lon="-5.114031555131078">
        <ele>709.11000000000001</ele>
        <time>2019-03-14T12:14:16Z</time>
      </trkpt>
      <trkpt lat="30.601553907617927" lon="-5.115848667919636">
        <ele>710.07000000000005</ele>
        <time>2019-03-14T12:14:23Z</time>
      </trkpt>
      <trkpt lat="30.601225001737475" lon="-5.117746749892831">
        <ele>710.54999999999995</ele>
        <time>2019-03-14T12:14:31Z</time>
      </trkpt>
      <trkpt lat="30.601002965122461" lon="-5.118948211893439">
        <ele>711.02999999999997</ele>
        <time>2019-03-14T12:14:42Z</time>
      </trkpt>
      <trkpt lat="30.600804565474391" lon="-5.119991423562169">
        <ele>711.99000000000001</ele>
        <time>2019-03-14T12:14:53Z</time>
      </trkpt>
      <trkpt lat="30.600282792001963" lon="-5.121777523308992">
        <ele>711.99000000000001</ele>
        <time>2019-03-14T12:15:02Z</time>
      </trkpt>
      <trkpt lat="30.599786080420017" lon="-5.123702427372336">
        <ele>713.44000000000005</ele>
        <time>2019-03-14T12:15:11Z</time>
      </trkpt>
      <trkpt lat="30.599437560886145" lon="-5.124942446127534">
        <ele>714.39999999999998</ele>
        <time>2019-03-14T12:15:21Z</time>
      </trkpt>
      <trkpt lat="30.599141176789999" lon="-5.126240300014615">
        <ele>714.39999999999998</ele>
        <time>2019-03-14T12:15:30Z</time>
      </trkpt>
      <trkpt lat="30.598940346390009" lon="-5.128030674532056">
        <ele>714.88</ele>
        <time>2019-03-14T12:15:42Z</time>
      </trkpt>
      <trkpt lat="30.598643710836768" lon="-5.12932131998241">
        <ele>714.88</ele>
        <time>2019-03-14T12:15:53Z</time>
      </trkpt>
      <trkpt lat="30.598171390593052" lon="-5.131248738616705">
        <ele>715.84000000000003</ele>
        <time>2019-03-14T12:16:05Z</time>
      </trkpt>
      <trkpt lat="30.59766998514533" lon="-5.133366091176868">
        <ele>715.36000000000001</ele>
        <time>2019-03-14T12:16:21Z</time>
      </trkpt>
      <trkpt lat="30.597011251375079" lon="-5.135992644354701">
        <ele>715.84000000000003</ele>
        <time>2019-03-14T12:16:35Z</time>
      </trkpt>
      <trkpt lat="30.596140203997493" lon="-5.139801129698753">
        <ele>716.32000000000005</ele>
        <time>2019-03-14T12:16:43Z</time>
      </trkpt>
      <trkpt lat="30.595366386696696" lon="-5.143175600096583">
        <ele>717.75999999999999</ele>
        <time>2019-03-14T12:16:45Z</time>
      </trkpt>
      <trkpt lat="30.594990206882358" lon="-5.144834294915199">
        <ele>718.24000000000001</ele>
        <time>2019-03-14T12:16:52Z</time>
      </trkpt>
      <trkpt lat="30.594923319295049" lon="-5.145113244652748">
        <ele>717.75999999999999</ele>
        <time>2019-03-14T12:17:01Z</time>
      </trkpt>
      <trkpt lat="30.594611680135131" lon="-5.145958559587598">
        <ele>717.75999999999999</ele>
        <time>2019-03-14T12:17:11Z</time>
      </trkpt>
      <trkpt lat="30.594282522797585" lon="-5.147305363789201">
        <ele>718.24000000000001</ele>
        <time>2019-03-14T12:17:20Z</time>
      </trkpt>
      <trkpt lat="30.59384984895587" lon="-5.149070508778095">
        <ele>718.24000000000001</ele>
        <time>2019-03-14T12:17:32Z</time>
      </trkpt>
      <trkpt lat="30.59344382956624" lon="-5.15065586194396">
        <ele>718.72000000000003</ele>
        <time>2019-03-14T12:17:42Z</time>
      </trkpt>
      <trkpt lat="30.592910824343562" lon="-5.152902966365218">
        <ele>718.24000000000001</ele>
        <time>2019-03-14T12:17:54Z</time>
      </trkpt>
      <trkpt lat="30.592467673122883" lon="-5.15439142473042">
        <ele>719.67999999999995</ele>
        <time>2019-03-14T12:18:02Z</time>
      </trkpt>
      <trkpt lat="30.591831989586353" lon="-5.156187918037176">
        <ele>719.67999999999995</ele>
        <time>2019-03-14T12:18:08Z</time>
      </trkpt>
      <trkpt lat="30.591672230511904" lon="-5.157496836036444">
        <ele>721.13</ele>
        <time>2019-03-14T12:18:16Z</time>
      </trkpt>
      <trkpt lat="30.591551447287202" lon="-5.157962031662464">
        <ele>721.61000000000001</ele>
        <time>2019-03-14T12:18:24Z</time>
      </trkpt>
      <trkpt lat="30.591369308531284" lon="-5.158440386876464">
        <ele>720.64999999999998</ele>
        <time>2019-03-14T12:18:36Z</time>
      </trkpt>
      <trkpt lat="30.590941663831472" lon="-5.159384189173579">
        <ele>722.57000000000005</ele>
        <time>2019-03-14T12:18:41Z</time>
      </trkpt>
      <trkpt lat="30.590275386348367" lon="-5.161103066056967">
        <ele>722.57000000000005</ele>
        <time>2019-03-14T12:18:50Z</time>
      </trkpt>
      <trkpt lat="30.590029461309314" lon="-5.161757189780474">
        <ele>722.57000000000005</ele>
        <time>2019-03-14T12:19:00Z</time>
      </trkpt>
      <trkpt lat="30.589715810492635" lon="-5.162283321842551">
        <ele>722.57000000000005</ele>
        <time>2019-03-14T12:19:10Z</time>
      </trkpt>
      <trkpt lat="30.589091442525387" lon="-5.1633445546031">
        <ele>723.04999999999995</ele>
        <time>2019-03-14T12:19:20Z</time>
      </trkpt>
      <trkpt lat="30.58836012147367" lon="-5.164954131469131">
        <ele>723.52999999999997</ele>
        <time>2019-03-14T12:19:32Z</time>
      </trkpt>
      <trkpt lat="30.587710775434971" lon="-5.167033681645989">
        <ele>724.00999999999999</ele>
        <time>2019-03-14T12:19:39Z</time>
      </trkpt>
      <trkpt lat="30.586899239569902" lon="-5.169546911492944">
        <ele>724.97000000000003</ele>
        <time>2019-03-14T12:19:41Z</time>
      </trkpt>
      <trkpt lat="30.586525071412325" lon="-5.170528013259172">
        <ele>724.97000000000003</ele>
        <time>2019-03-14T12:19:43Z</time>
      </trkpt>
      <trkpt lat="30.586451310664415" lon="-5.170743679627776">
        <ele>724.97000000000003</ele>
        <time>2019-03-14T12:19:52Z</time>
      </trkpt>
      <trkpt lat="30.586412083357573" lon="-5.170944090932608">
        <ele>726.40999999999997</ele>
        <time>2019-03-14T12:19:58Z</time>
      </trkpt>
      <trkpt lat="30.586061719805002" lon="-5.172064835205674">
        <ele>726.40999999999997</ele>
        <time>2019-03-14T12:20:02Z</time>
      </trkpt>
      <trkpt lat="30.585908582434058" lon="-5.172921381890774">
        <ele>727.86000000000001</ele>
        <time>2019-03-14T12:20:13Z</time>
      </trkpt>
      <trkpt lat="30.585701800882816" lon="-5.173407699912787">
        <ele>728.34000000000003</ele>
        <time>2019-03-14T12:20:24Z</time>
      </trkpt>
      <trkpt lat="30.584968971088529" lon="-5.174711169674993">
        <ele>729.29999999999995</ele>
        <time>2019-03-14T12:20:34Z</time>
      </trkpt>
      <trkpt lat="30.584512911736965" lon="-5.175862843170762">
        <ele>730.74000000000001</ele>
        <time>2019-03-14T12:20:44Z</time>
      </trkpt>
      <trkpt lat="30.584047380834818" lon="-5.177082996815443">
        <ele>731.70000000000005</ele>
        <time>2019-03-14T12:20:59Z</time>
      </trkpt>
      <trkpt lat="30.583636919036508" lon="-5.178484451025724">
        <ele>732.17999999999995</ele>
        <time>2019-03-14T12:21:11Z</time>
      </trkpt>
      <trkpt lat="30.582770733162761" lon="-5.180589146912098">
        <ele>732.65999999999997</ele>
        <time>2019-03-14T12:21:22Z</time>
      </trkpt>
      <trkpt lat="30.582209564745426" lon="-5.182333420962095">
        <ele>733.13999999999999</ele>
        <time>2019-03-14T12:21:34Z</time>
      </trkpt>
      <trkpt lat="30.581539431586862" lon="-5.184126561507583">
        <ele>734.58000000000004</ele>
        <time>2019-03-14T12:21:47Z</time>
      </trkpt>
      <trkpt lat="30.580866867676377" lon="-5.186037048697472">
        <ele>735.54999999999995</ele>
        <time>2019-03-14T12:22:00Z</time>
      </trkpt>
      <trkpt lat="30.58024300262332" lon="-5.188185246661305">
        <ele>736.50999999999999</ele>
        <time>2019-03-14T12:22:11Z</time>
      </trkpt>
      <trkpt lat="30.579772442579269" lon="-5.190525054931641">
        <ele>737.47000000000003</ele>
        <time>2019-03-14T12:22:15Z</time>
      </trkpt>
      <trkpt lat="30.579443871974945" lon="-5.192538220435381">
        <ele>738.42999999999995</ele>
        <time>2019-03-14T12:22:25Z</time>
      </trkpt>
      <trkpt lat="30.579438339918852" lon="-5.193183962255716">
        <ele>739.87</ele>
        <time>2019-03-14T12:22:39Z</time>
      </trkpt>
      <trkpt lat="30.579141201451421" lon="-5.194693123921752">
        <ele>741.30999999999995</ele>
        <time>2019-03-14T12:22:42Z</time>
      </trkpt>
      <trkpt lat="30.578596126288176" lon="-5.196981634944677">
        <ele>742.27999999999997</ele>
        <time>2019-03-14T12:22:48Z</time>
      </trkpt>
      <trkpt lat="30.578519264236093" lon="-5.197409279644489">
        <ele>742.75999999999999</ele>
        <time>2019-03-14T12:22:57Z</time>
      </trkpt>
      <trkpt lat="30.578590761870146" lon="-5.198158705607057">
        <ele>743.72000000000003</ele>
        <time>2019-03-14T12:23:08Z</time>
      </trkpt>
      <trkpt lat="30.578440641984344" lon="-5.199471982195973">
        <ele>744.67999999999995</ele>
        <time>2019-03-14T12:23:21Z</time>
      </trkpt>
      <trkpt lat="30.578090781345963" lon="-5.201041912660003">
        <ele>745.15999999999997</ele>
        <time>2019-03-14T12:23:31Z</time>
      </trkpt>
      <trkpt lat="30.577641511335969" lon="-5.203136131167412">
        <ele>745.63999999999999</ele>
        <time>2019-03-14T12:23:41Z</time>
      </trkpt>
      <trkpt lat="30.577337918803096" lon="-5.204803040251136">
        <ele>747.08000000000004</ele>
        <time>2019-03-14T12:23:51Z</time>
      </trkpt>
      <trkpt lat="30.577096771448851" lon="-5.206671450287104">
        <ele>748.51999999999998</ele>
        <time>2019-03-14T12:23:57Z</time>
      </trkpt>
      <trkpt lat="30.576787227764726" lon="-5.208512954413891">
        <ele>749</ele>
        <time>2019-03-14T12:24:00Z</time>
      </trkpt>
      <trkpt lat="30.576672730967402" lon="-5.209534373134375">
        <ele>749.97000000000003</ele>
        <time>2019-03-14T12:24:09Z</time>
      </trkpt>
      <trkpt lat="30.576646747067571" lon="-5.209868140518665">
        <ele>750.92999999999995</ele>
        <time>2019-03-14T12:24:12Z</time>
      </trkpt>
      <trkpt lat="30.576492855325341" lon="-5.211063483729959">
        <ele>751.40999999999997</ele>
        <time>2019-03-14T12:24:24Z</time>
      </trkpt>
      <trkpt lat="30.576487742364407" lon="-5.211511496454477">
        <ele>752.37</ele>
        <time>2019-03-14T12:24:36Z</time>
      </trkpt>
      <trkpt lat="30.5763447470963" lon="-5.213316958397627">
        <ele>753.80999999999995</ele>
        <time>2019-03-14T12:24:47Z</time>
      </trkpt>
      <trkpt lat="30.576155902817845" lon="-5.214907675981522">
        <ele>753.80999999999995</ele>
        <time>2019-03-14T12:24:57Z</time>
      </trkpt>
      <trkpt lat="30.576161770150065" lon="-5.216580620035529">
        <ele>754.76999999999998</ele>
        <time>2019-03-14T12:25:06Z</time>
      </trkpt>
      <trkpt lat="30.576225640252233" lon="-5.218189442530274">
        <ele>755.73000000000002</ele>
        <time>2019-03-14T12:25:16Z</time>
      </trkpt>
      <trkpt lat="30.576249528676271" lon="-5.219691479578614">
        <ele>757.17999999999995</ele>
        <time>2019-03-14T12:25:25Z</time>
      </trkpt>
      <trkpt lat="30.57642144151032" lon="-5.221273815259337">
        <ele>757.65999999999997</ele>
        <time>2019-03-14T12:25:31Z</time>
      </trkpt>
      <trkpt lat="30.57657390832901" lon="-5.222644088789821">
        <ele>758.13999999999999</ele>
        <time>2019-03-14T12:25:41Z</time>
      </trkpt>
      <trkpt lat="30.576689159497619" lon="-5.223537096753717">
        <ele>758.62</ele>
        <time>2019-03-14T12:25:50Z</time>
      </trkpt>
      <trkpt lat="30.576935587450862" lon="-5.225064279511571">
        <ele>760.53999999999996</ele>
        <time>2019-03-14T12:25:59Z</time>
      </trkpt>
      <trkpt lat="30.577241778373718" lon="-5.226697744801641">
        <ele>760.53999999999996</ele>
        <time>2019-03-14T12:26:07Z</time>
      </trkpt>
      <trkpt lat="30.577297601848841" lon="-5.228211851790547">
        <ele>761.98000000000002</ele>
        <time>2019-03-14T12:26:14Z</time>
      </trkpt>
      <trkpt lat="30.577291902154684" lon="-5.229538036510348">
        <ele>763.89999999999998</ele>
        <time>2019-03-14T12:26:17Z</time>
      </trkpt>
      <trkpt lat="30.577385108917952" lon="-5.230601280927658">
        <ele>764.38999999999999</ele>
        <time>2019-03-14T12:26:22Z</time>
      </trkpt>
      <trkpt lat="30.577496839687228" lon="-5.231032026931644">
        <ele>765.35000000000002</ele>
        <time>2019-03-14T12:26:29Z</time>
      </trkpt>
      <trkpt lat="30.577553668990731" lon="-5.23170274682343">
        <ele>765.83000000000004</ele>
        <time>2019-03-14T12:26:30Z</time>
      </trkpt>
      <trkpt lat="30.577909983694553" lon="-5.23251386359334">
        <ele>766.30999999999995</ele>
        <time>2019-03-14T12:26:37Z</time>
      </trkpt>
      <trkpt lat="30.577965388074517" lon="-5.232629952952266">
        <ele>768.23000000000002</ele>
        <time>2019-03-14T12:26:45Z</time>
      </trkpt>
      <trkpt lat="30.578311728313565" lon="-5.233565289527178">
        <ele>769.66999999999996</ele>
        <time>2019-03-14T12:26:53Z</time>
      </trkpt>
      <trkpt lat="30.57838230393827" lon="-5.234699612483382">
        <ele>770.14999999999998</ele>
        <time>2019-03-14T12:27:01Z</time>
      </trkpt>
      <trkpt lat="30.578397642821074" lon="-5.236093774437904">
        <ele>770.14999999999998</ele>
        <time>2019-03-14T12:27:09Z</time>
      </trkpt>
      <trkpt lat="30.578318433836102" lon="-5.237379809841514">
        <ele>770.14999999999998</ele>
        <time>2019-03-14T12:27:17Z</time>
      </trkpt>
      <trkpt lat="30.578162530437112" lon="-5.238838763907552">
        <ele>770.14999999999998</ele>
        <time>2019-03-14T12:27:30Z</time>
      </trkpt>
      <trkpt lat="30.578140066936612" lon="-5.240099402144551">
        <ele>770.14999999999998</ele>
        <time>2019-03-14T12:27:33Z</time>
      </trkpt>
      <trkpt lat="30.578019032254815" lon="-5.241738231852651">
        <ele>770.14999999999998</ele>
        <time>2019-03-14T12:27:37Z</time>
      </trkpt>
      <trkpt lat="30.57797578163445" lon="-5.242163948714733">
        <ele>770.14999999999998</ele>
        <time>2019-03-14T12:27:40Z</time>
      </trkpt>
      <trkpt lat="30.578072844073176" lon="-5.24273106828332">
        <ele>770.14999999999998</ele>
        <time>2019-03-14T12:27:41Z</time>
      </trkpt>
      <trkpt lat="30.578219024464488" lon="-5.243151504546404">
        <ele>769.66999999999996</ele>
        <time>2019-03-14T12:27:42Z</time>
      </trkpt>
      <trkpt lat="30.57822740636766" lon="-5.243298774585128">
        <ele>769.66999999999996</ele>
        <time>2019-03-14T12:27:43Z</time>
      </trkpt>
      <trkpt lat="30.578215420246124" lon="-5.243445876985788">
        <ele>769.66999999999996</ele>
        <time>2019-03-14T12:27:44Z</time>
      </trkpt>
      <trkpt lat="30.578193292021751" lon="-5.243586273863912">
        <ele>770.63</ele>
        <time>2019-03-14T12:27:45Z</time>
      </trkpt>
      <trkpt lat="30.578168900683522" lon="-5.243706470355392">
        <ele>770.63</ele>
        <time>2019-03-14T12:27:47Z</time>
      </trkpt>
      <trkpt lat="30.578145179897547" lon="-5.243806634098291">
        <ele>770.14999999999998</ele>
        <time>2019-03-14T12:27:48Z</time>
      </trkpt>
      <trkpt lat="30.578096397221088" lon="-5.243990952149034">
        <ele>770.63</ele>
        <time>2019-03-14T12:27:50Z</time>
      </trkpt>
      <trkpt lat="30.57807988487184" lon="-5.244090529158711">
        <ele>770.63</ele>
        <time>2019-03-14T12:27:51Z</time>
      </trkpt>
      <trkpt lat="30.578053314238787" lon="-5.244286246597767">
        <ele>771.11000000000001</ele>
        <time>2019-03-14T12:27:57Z</time>
      </trkpt>
      <trkpt lat="30.578028168529272" lon="-5.244380291551352">
        <ele>771.60000000000002</ele>
        <time>2019-03-14T12:27:58Z</time>
      </trkpt>
      <trkpt lat="30.577820716425776" lon="-5.244907094165683">
        <ele>771.60000000000002</ele>
        <time>2019-03-14T12:27:59Z</time>
      </trkpt>
      <trkpt lat="30.577780148014426" lon="-5.244979932904244">
        <ele>771.60000000000002</ele>
        <time>2019-03-14T12:28:00Z</time>
      </trkpt>
      <trkpt lat="30.577736729755998" lon="-5.245048496872187">
        <ele>771.60000000000002</ele>
        <time>2019-03-14T12:28:01Z</time>
      </trkpt>
      <trkpt lat="30.577686773613095" lon="-5.245106164366007">
        <ele>771.60000000000002</ele>
        <time>2019-03-14T12:28:05Z</time>
      </trkpt>
      <trkpt lat="30.577636146917939" lon="-5.245155952870846">
        <ele>772.55999999999995</ele>
        <time>2019-03-14T12:28:09Z</time>
      </trkpt>
      <trkpt lat="30.577458785846829" lon="-5.245333146303892">
        <ele>773.51999999999998</ele>
        <time>2019-03-14T12:28:10Z</time>
      </trkpt>
      <trkpt lat="30.577275808900595" lon="-5.245507908985019">
        <ele>773.51999999999998</ele>
        <time>2019-03-14T12:28:11Z</time>
      </trkpt>
      <trkpt lat="30.577229037880898" lon="-5.245570857077837">
        <ele>774.48000000000002</ele>
        <time>2019-03-14T12:28:12Z</time>
      </trkpt>
      <trkpt lat="30.577187715098262" lon="-5.245642438530922">
        <ele>776.39999999999998</ele>
        <time>2019-03-14T12:28:13Z</time>
      </trkpt>
      <trkpt lat="30.577151840552688" lon="-5.245725084096193">
        <ele>776.88</ele>
        <time>2019-03-14T12:28:24Z</time>
      </trkpt>
      <trkpt lat="30.577118899673223" lon="-5.245817536488175">
        <ele>780.73000000000002</ele>
        <time>2019-03-14T12:28:34Z</time>
      </trkpt>
      <trkpt lat="30.576828802004457" lon="-5.246925204992294">
        <ele>780.73000000000002</ele>
        <time>2019-03-14T12:28:35Z</time>
      </trkpt>
      <trkpt lat="30.576588911935687" lon="-5.24817050434649">
        <ele>780.25</ele>
        <time>2019-03-14T12:28:43Z</time>
      </trkpt>
      <trkpt lat="30.576572818681598" lon="-5.248320791870356">
        <ele>780.25</ele>
        <time>2019-03-14T12:28:52Z</time>
      </trkpt>
      <trkpt lat="30.576614895835519" lon="-5.249705398455262">
        <ele>780.25</ele>
        <time>2019-03-14T12:29:01Z</time>
      </trkpt>
      <trkpt lat="30.576661331579089" lon="-5.251424694433808">
        <ele>780.25</ele>
        <time>2019-03-14T12:29:08Z</time>
      </trkpt>
      <trkpt lat="30.576666360720992" lon="-5.252835117280483">
        <ele>780.73000000000002</ele>
        <time>2019-03-14T12:29:09Z</time>
      </trkpt>
      <trkpt lat="30.576582960784435" lon="-5.25394513271749">
        <ele>781.21000000000004</ele>
        <time>2019-03-14T12:29:10Z</time>
      </trkpt>
      <trkpt lat="30.576546164229512" lon="-5.254080248996615">
        <ele>781.21000000000004</ele>
        <time>2019-03-14T12:29:11Z</time>
      </trkpt>
      <trkpt lat="30.576496543362737" lon="-5.254207318648696">
        <ele>781.21000000000004</ele>
        <time>2019-03-14T12:29:12Z</time>
      </trkpt>
      <trkpt lat="30.576440300792456" lon="-5.254313768818975">
        <ele>781.21000000000004</ele>
        <time>2019-03-14T12:29:14Z</time>
      </trkpt>
      <trkpt lat="30.576392272487283" lon="-5.254398426041007">
        <ele>782.64999999999998</ele>
        <time>2019-03-14T12:29:15Z</time>
      </trkpt>
      <trkpt lat="30.576339550316334" lon="-5.254510324448347">
        <ele>783.13</ele>
        <time>2019-03-14T12:29:16Z</time>
      </trkpt>
      <trkpt lat="30.576324965804815" lon="-5.254557766020298">
        <ele>783.61000000000001</ele>
        <time>2019-03-14T12:29:17Z</time>
      </trkpt>
      <trkpt lat="30.576309626922011" lon="-5.254606883972883">
        <ele>784.57000000000005</ele>
        <time>2019-03-14T12:29:18Z</time>
      </trkpt>
      <trkpt lat="30.576297640800476" lon="-5.25466145016253">
        <ele>785.04999999999995</ele>
        <time>2019-03-14T12:29:19Z</time>
      </trkpt>
      <trkpt lat="30.576290600001812" lon="-5.254723140969873">
        <ele>786.01999999999998</ele>
        <time>2019-03-14T12:29:22Z</time>
      </trkpt>
      <trkpt lat="30.576284481212497" lon="-5.254796734079719">
        <ele>786.01999999999998</ele>
        <time>2019-03-14T12:29:23Z</time>
      </trkpt>
      <trkpt lat="30.576243745163083" lon="-5.255049867555499">
        <ele>786.98000000000002</ele>
        <time>2019-03-14T12:29:24Z</time>
      </trkpt>
      <trkpt lat="30.576204182580113" lon="-5.255133435130119">
        <ele>787.46000000000004</ele>
        <time>2019-03-14T12:29:26Z</time>
      </trkpt>
      <trkpt lat="30.576148526743054" lon="-5.255222031846643">
        <ele>787.94000000000005</ele>
        <time>2019-03-14T12:29:36Z</time>
      </trkpt>
      <trkpt lat="30.576019529253244" lon="-5.255431244149804">
        <ele>788.41999999999996</ele>
        <time>2019-03-14T12:29:38Z</time>
      </trkpt>
      <trkpt lat="30.575508316978812" lon="-5.25666480883956">
        <ele>788.89999999999998</ele>
        <time>2019-03-14T12:29:39Z</time>
      </trkpt>
      <trkpt lat="30.575422402471304" lon="-5.256905369460583">
        <ele>789.86000000000001</ele>
        <time>2019-03-14T12:29:42Z</time>
      </trkpt>
      <trkpt lat="30.575391221791506" lon="-5.257033780217171">
        <ele>792.74000000000001</ele>
        <time>2019-03-14T12:29:43Z</time>
      </trkpt>
      <trkpt lat="30.575304636731744" lon="-5.257414821535349">
        <ele>792.74000000000001</ele>
        <time>2019-03-14T12:29:44Z</time>
      </trkpt>
      <trkpt lat="30.57525560259819" lon="-5.257541220635176">
        <ele>792.25999999999999</ele>
        <time>2019-03-14T12:29:45Z</time>
      </trkpt>
      <trkpt lat="30.575190642848611" lon="-5.257659321650863">
        <ele>791.77999999999997</ele>
        <time>2019-03-14T12:29:46Z</time>
      </trkpt>
      <trkpt lat="30.575117720291018" lon="-5.257763676345348">
        <ele>791.77999999999997</ele>
        <time>2019-03-14T12:29:54Z</time>
      </trkpt>
      <trkpt lat="30.575044294819236" lon="-5.257856464013457">
        <ele>792.25999999999999</ele>
        <time>2019-03-14T12:29:59Z</time>
      </trkpt>
      <trkpt lat="30.574433002620935" lon="-5.258731199428439">
        <ele>792.25999999999999</ele>
        <time>2019-03-14T12:30:00Z</time>
      </trkpt>
      <trkpt lat="30.574081549420953" lon="-5.2593410667032">
        <ele>792.25999999999999</ele>
        <time>2019-03-14T12:30:02Z</time>
      </trkpt>
      <trkpt lat="30.573995048180223" lon="-5.259440811350942">
        <ele>791.77999999999997</ele>
        <time>2019-03-14T12:30:03Z</time>
      </trkpt>
      <trkpt lat="30.57383612729609" lon="-5.259608868509531">
        <ele>791.77999999999997</ele>
        <time>2019-03-14T12:30:04Z</time>
      </trkpt>
      <trkpt lat="30.573779297992587" lon="-5.259690592065454">
        <ele>791.29999999999995</ele>
        <time>2019-03-14T12:30:06Z</time>
      </trkpt>
      <trkpt lat="30.573738729581237" lon="-5.259779691696167">
        <ele>790.82000000000005</ele>
        <time>2019-03-14T12:30:07Z</time>
      </trkpt>
      <trkpt lat="30.573660945519805" lon="-5.259954873472452">
        <ele>788.89999999999998</ele>
        <time>2019-03-14T12:30:09Z</time>
      </trkpt>
      <trkpt lat="30.57360696606338" lon="-5.260034669190645">
        <ele>788.89999999999998</ele>
        <time>2019-03-14T12:30:11Z</time>
      </trkpt>
      <trkpt lat="30.573483416810632" lon="-5.26020054705441">
        <ele>789.86000000000001</ele>
        <time>2019-03-14T12:30:13Z</time>
      </trkpt>
      <trkpt lat="30.573381325230002" lon="-5.260387714952231">
        <ele>789.86000000000001</ele>
        <time>2019-03-14T12:30:14Z</time>
      </trkpt>
      <trkpt lat="30.573284178972244" lon="-5.260579828172922">
        <ele>790.82000000000005</ele>
        <time>2019-03-14T12:30:21Z</time>
      </trkpt>
      <trkpt lat="30.57322190143168" lon="-5.260668676346541">
        <ele>791.29999999999995</ele>
        <time>2019-03-14T12:30:26Z</time>
      </trkpt>
      <trkpt lat="30.572771960869431" lon="-5.261380886659026">
        <ele>791.29999999999995</ele>
        <time>2019-03-14T12:30:27Z</time>
      </trkpt>
      <trkpt lat="30.572533998638391" lon="-5.261873574927449">
        <ele>791.77999999999997</ele>
        <time>2019-03-14T12:30:36Z</time>
      </trkpt>
      <trkpt lat="30.572509439662099" lon="-5.261940378695726">
        <ele>792.25999999999999</ele>
        <time>2019-03-14T12:30:49Z</time>
      </trkpt>
      <trkpt lat="30.572200231254101" lon="-5.262779239565134">
        <ele>792.25999999999999</ele>
        <time>2019-03-14T12:31:00Z</time>
      </trkpt>
      <trkpt lat="30.571620035916567" lon="-5.264303656294942">
        <ele>792.74000000000001</ele>
        <time>2019-03-14T12:31:01Z</time>
      </trkpt>
      <trkpt lat="30.570942778140306" lon="-5.265662530437112">
        <ele>795.14999999999998</ele>
        <time>2019-03-14T12:31:02Z</time>
      </trkpt>
      <trkpt lat="30.570853678509593" lon="-5.265758838504553">
        <ele>796.11000000000001</ele>
        <time>2019-03-14T12:31:03Z</time>
      </trkpt>
      <trkpt lat="30.570759465917945" lon="-5.265833018347621">
        <ele>795.63</ele>
        <time>2019-03-14T12:31:04Z</time>
      </trkpt>
      <trkpt lat="30.570657374337316" lon="-5.265883225947619">
        <ele>794.66999999999996</ele>
        <time>2019-03-14T12:31:05Z</time>
      </trkpt>
      <trkpt lat="30.57054815813899" lon="-5.2659135684371">
        <ele>794.66999999999996</ele>
        <time>2019-03-14T12:31:11Z</time>
      </trkpt>
      <trkpt lat="30.570435421541333" lon="-5.26593217626214">
        <ele>794.66999999999996</ele>
        <time>2019-03-14T12:31:21Z</time>
      </trkpt>
      <trkpt lat="30.569995874539018" lon="-5.266086738556624">
        <ele>794.66999999999996</ele>
        <time>2019-03-14T12:31:32Z</time>
      </trkpt>
      <trkpt lat="30.569403106346726" lon="-5.266367197036743">
        <ele>794.66999999999996</ele>
        <time>2019-03-14T12:31:33Z</time>
      </trkpt>
      <trkpt lat="30.568994907662272" lon="-5.266763493418694">
        <ele>795.14999999999998</ele>
        <time>2019-03-14T12:31:37Z</time>
      </trkpt>
      <trkpt lat="30.568980239331722" lon="-5.266818394884467">
        <ele>795.14999999999998</ele>
        <time>2019-03-14T12:31:38Z</time>
      </trkpt>
      <trkpt lat="30.568924332037568" lon="-5.26714738458395">
        <ele>795.14999999999998</ele>
        <time>2019-03-14T12:31:39Z</time>
      </trkpt>
      <trkpt lat="30.568886613473296" lon="-5.267238076776266">
        <ele>795.14999999999998</ele>
        <time>2019-03-14T12:31:40Z</time>
      </trkpt>
      <trkpt lat="30.568837076425552" lon="-5.267327008768916">
        <ele>794.66999999999996</ele>
        <time>2019-03-14T12:31:41Z</time>
      </trkpt>
      <trkpt lat="30.568775637075305" lon="-5.267417952418327">
        <ele>794.66999999999996</ele>
        <time>2019-03-14T12:31:42Z</time>
      </trkpt>
      <trkpt lat="30.568703720346093" lon="-5.267510404810309">
        <ele>794.66999999999996</ele>
        <time>2019-03-14T12:31:44Z</time>
      </trkpt>
      <trkpt lat="30.568624762818217" lon="-5.267596822232008">
        <ele>795.14999999999998</ele>
        <time>2019-03-14T12:31:45Z</time>
      </trkpt>
      <trkpt lat="30.568466931581497" lon="-5.2677664719522">
        <ele>795.63</ele>
        <time>2019-03-14T12:31:53Z</time>
      </trkpt>
      <trkpt lat="30.568390488624573" lon="-5.267868395894766">
        <ele>795.63</ele>
        <time>2019-03-14T12:31:55Z</time>
      </trkpt>
      <trkpt lat="30.567824291065335" lon="-5.268655037507415">
        <ele>795.63</ele>
        <time>2019-03-14T12:31:56Z</time>
      </trkpt>
      <trkpt lat="30.567750278860331" lon="-5.268786968663335">
        <ele>796.11000000000001</ele>
        <time>2019-03-14T12:31:59Z</time>
      </trkpt>
      <trkpt lat="30.56772580370307" lon="-5.268831644207239">
        <ele>796.59000000000003</ele>
        <time>2019-03-14T12:32:00Z</time>
      </trkpt>
      <trkpt lat="30.567614492028952" lon="-5.268992492929101">
        <ele>797.07000000000005</ele>
        <time>2019-03-14T12:32:01Z</time>
      </trkpt>
      <trkpt lat="30.567556656897068" lon="-5.269050160422921">
        <ele>797.54999999999995</ele>
        <time>2019-03-14T12:32:02Z</time>
      </trkpt>
      <trkpt lat="30.567482393234968" lon="-5.269104558974505">
        <ele>797.54999999999995</ele>
        <time>2019-03-14T12:32:03Z</time>
      </trkpt>
      <trkpt lat="30.567396562546492" lon="-5.269146300852299">
        <ele>800.44000000000005</ele>
        <time>2019-03-14T12:32:04Z</time>
      </trkpt>
      <trkpt lat="30.567306708544493" lon="-5.269179157912731">
        <ele>800.44000000000005</ele>
        <time>2019-03-14T12:32:05Z</time>
      </trkpt>
      <trkpt lat="30.567206460982561" lon="-5.269205309450626">
        <ele>800.44000000000005</ele>
        <time>2019-03-14T12:32:11Z</time>
      </trkpt>
      <trkpt lat="30.567098334431648" lon="-5.269227856770158">
        <ele>800.44000000000005</ele>
        <time>2019-03-14T12:32:12Z</time>
      </trkpt>
      <trkpt lat="30.566477905958891" lon="-5.2694898750633">
        <ele>800.44000000000005</ele>
        <time>2019-03-14T12:32:15Z</time>
      </trkpt>
      <trkpt lat="30.566405486315489" lon="-5.269555505365133">
        <ele>800.44000000000005</ele>
        <time>2019-03-14T12:32:25Z</time>
      </trkpt>
      <trkpt lat="30.566220665350556" lon="-5.269789528101683">
        <ele>799.95000000000005</ele>
        <time>2019-03-14T12:32:35Z</time>
      </trkpt>
      <trkpt lat="30.565348695963621" lon="-5.270608691498637">
        <ele>800.44000000000005</ele>
        <time>2019-03-14T12:32:36Z</time>
      </trkpt>
      <trkpt lat="30.564506314694881" lon="-5.271314447745681">
        <ele>800.44000000000005</ele>
        <time>2019-03-14T12:32:37Z</time>
      </trkpt>
      <trkpt lat="30.56444956921041" lon="-5.271370690315962">
        <ele>801.39999999999998</ele>
        <time>2019-03-14T12:32:38Z</time>
      </trkpt>
      <trkpt lat="30.564403468742967" lon="-5.271423915401101">
        <ele>803.32000000000005</ele>
        <time>2019-03-14T12:32:47Z</time>
      </trkpt>
      <trkpt lat="30.564367678016424" lon="-5.271472362801433">
        <ele>803.79999999999995</ele>
        <time>2019-03-14T12:32:56Z</time>
      </trkpt>
      <trkpt lat="30.564107922837138" lon="-5.271942252293229">
        <ele>803.79999999999995</ele>
        <time>2019-03-14T12:33:04Z</time>
      </trkpt>
      <trkpt lat="30.563780525699258" lon="-5.272389678284526">
        <ele>804.27999999999997</ele>
        <time>2019-03-14T12:33:14Z</time>
      </trkpt>
      <trkpt lat="30.563420606777072" lon="-5.272857556119561">
        <ele>804.27999999999997</ele>
        <time>2019-03-14T12:33:23Z</time>
      </trkpt>
      <trkpt lat="30.56276137009263" lon="-5.273605892434716">
        <ele>804.27999999999997</ele>
        <time>2019-03-14T12:33:36Z</time>
      </trkpt>
      <trkpt lat="30.562271028757095" lon="-5.274763852357864">
        <ele>804.27999999999997</ele>
        <time>2019-03-14T12:33:46Z</time>
      </trkpt>
      <trkpt lat="30.561565440148115" lon="-5.276510054245591">
        <ele>805.24000000000001</ele>
        <time>2019-03-14T12:33:53Z</time>
      </trkpt>
      <trkpt lat="30.561187332496047" lon="-5.277818134054542">
        <ele>805.24000000000001</ele>
        <time>2019-03-14T12:33:54Z</time>
      </trkpt>
      <trkpt lat="30.561064537614584" lon="-5.278885401785374">
        <ele>807.15999999999997</ele>
        <time>2019-03-14T12:34:03Z</time>
      </trkpt>
      <trkpt lat="30.561032267287374" lon="-5.27901615947485">
        <ele>809.57000000000005</ele>
        <time>2019-03-14T12:34:04Z</time>
      </trkpt>
      <trkpt lat="30.560755832120776" lon="-5.279890391975641">
        <ele>810.04999999999995</ele>
        <time>2019-03-14T12:34:05Z</time>
      </trkpt>
      <trkpt lat="30.560739487409592" lon="-5.279988795518875">
        <ele>811.97000000000003</ele>
        <time>2019-03-14T12:34:15Z</time>
      </trkpt>
      <trkpt lat="30.560734122991562" lon="-5.280088037252426">
        <ele>813.40999999999997</ele>
        <time>2019-03-14T12:34:22Z</time>
      </trkpt>
      <trkpt lat="30.560593139380217" lon="-5.281095374375582">
        <ele>812.45000000000005</ele>
        <time>2019-03-14T12:34:30Z</time>
      </trkpt>
      <trkpt lat="30.560461627319455" lon="-5.281600719317794">
        <ele>812.45000000000005</ele>
        <time>2019-03-14T12:34:40Z</time>
      </trkpt>
      <trkpt lat="30.560254342854023" lon="-5.282251490280032">
        <ele>813.88999999999999</ele>
        <time>2019-03-14T12:34:46Z</time>
      </trkpt>
      <trkpt lat="30.559806581586599" lon="-5.283264108002186">
        <ele>813.88999999999999</ele>
        <time>2019-03-14T12:34:57Z</time>
      </trkpt>
      <trkpt lat="30.559544395655394" lon="-5.283868778496981">
        <ele>813.88999999999999</ele>
        <time>2019-03-14T12:35:08Z</time>
      </trkpt>
      <trkpt lat="30.559019017964602" lon="-5.285342149436474">
        <ele>815.34000000000003</ele>
        <time>2019-03-14T12:35:12Z</time>
      </trkpt>
      <trkpt lat="30.558375623077154" lon="-5.286623071879149">
        <ele>815.34000000000003</ele>
        <time>2019-03-14T12:35:21Z</time>
      </trkpt>
      <trkpt lat="30.558142689988017" lon="-5.286905039101839">
        <ele>814.85000000000002</ele>
        <time>2019-03-14T12:35:33Z</time>
      </trkpt>
      <trkpt lat="30.557737424969673" lon="-5.287718838080764">
        <ele>815.82000000000005</ele>
        <time>2019-03-14T12:35:42Z</time>
      </trkpt>
      <trkpt lat="30.55711816996336" lon="-5.288869338110089">
        <ele>816.29999999999995</ele>
        <time>2019-03-14T12:35:43Z</time>
      </trkpt>
      <trkpt lat="30.556575944647193" lon="-5.289732003584504">
        <ele>816.29999999999995</ele>
        <time>2019-03-14T12:35:53Z</time>
      </trkpt>
      <trkpt lat="30.556514002382755" lon="-5.289818840101361">
        <ele>816.77999999999997</ele>
        <time>2019-03-14T12:35:56Z</time>
      </trkpt>
      <trkpt lat="30.555918468162417" lon="-5.290702963247895">
        <ele>817.25999999999999</ele>
        <time>2019-03-14T12:35:57Z</time>
      </trkpt>
      <trkpt lat="30.555759631097317" lon="-5.290947379544377">
        <ele>817.25999999999999</ele>
        <time>2019-03-14T12:36:05Z</time>
      </trkpt>
      <trkpt lat="30.555731970816851" lon="-5.291018709540367">
        <ele>817.74000000000001</ele>
        <time>2019-03-14T12:36:10Z</time>
      </trkpt>
      <trkpt lat="30.555641110986471" lon="-5.291358763352037">
        <ele>817.74000000000001</ele>
        <time>2019-03-14T12:36:11Z</time>
      </trkpt>
      <trkpt lat="30.555484285578132" lon="-5.291750198230147">
        <ele>817.25999999999999</ele>
        <time>2019-03-14T12:36:12Z</time>
      </trkpt>
      <trkpt lat="30.55545779876411" lon="-5.291844410821796">
        <ele>817.74000000000001</ele>
        <time>2019-03-14T12:36:13Z</time>
      </trkpt>
      <trkpt lat="30.555436005815864" lon="-5.291945245116949">
        <ele>817.25999999999999</ele>
        <time>2019-03-14T12:36:14Z</time>
      </trkpt>
      <trkpt lat="30.555420415475965" lon="-5.292052365839481">
        <ele>817.25999999999999</ele>
        <time>2019-03-14T12:36:17Z</time>
      </trkpt>
      <trkpt lat="30.555410608649254" lon="-5.292167197912931">
        <ele>818.70000000000005</ele>
        <time>2019-03-14T12:36:18Z</time>
      </trkpt>
      <trkpt lat="30.555359898135066" lon="-5.292499456554651">
        <ele>818.70000000000005</ele>
        <time>2019-03-14T12:36:21Z</time>
      </trkpt>
      <trkpt lat="30.555330393835902" lon="-5.292592747136951">
        <ele>819.65999999999997</ele>
        <time>2019-03-14T12:36:22Z</time>
      </trkpt>
      <trkpt lat="30.555254118517041" lon="-5.292819142341614">
        <ele>820.13999999999999</ele>
        <time>2019-03-14T12:36:25Z</time>
      </trkpt>
      <trkpt lat="30.555240539833903" lon="-5.292900362983346">
        <ele>820.62</ele>
        <time>2019-03-14T12:36:26Z</time>
      </trkpt>
      <trkpt lat="30.555193349719048" lon="-5.293173948302865">
        <ele>821.58000000000004</ele>
        <time>2019-03-14T12:36:35Z</time>
      </trkpt>
      <trkpt lat="30.555161833763123" lon="-5.293269501999021">
        <ele>822.05999999999995</ele>
        <time>2019-03-14T12:36:36Z</time>
      </trkpt>
      <trkpt lat="30.554843405261636" lon="-5.294125210493803">
        <ele>822.05999999999995</ele>
        <time>2019-03-14T12:36:47Z</time>
      </trkpt>
      <trkpt lat="30.554811218753457" lon="-5.294215399771929">
        <ele>822.05999999999995</ele>
        <time>2019-03-14T12:36:48Z</time>
      </trkpt>
      <trkpt lat="30.554395979270339" lon="-5.295395571738482">
        <ele>823.50999999999999</ele>
        <time>2019-03-14T12:36:49Z</time>
      </trkpt>
      <trkpt lat="30.554335713386536" lon="-5.295511325821281">
        <ele>824.95000000000005</ele>
        <time>2019-03-14T12:36:51Z</time>
      </trkpt>
      <trkpt lat="30.554265137761831" lon="-5.295611741021276">
        <ele>825.42999999999995</ele>
        <time>2019-03-14T12:36:52Z</time>
      </trkpt>
      <trkpt lat="30.554113844409585" lon="-5.295792454853654">
        <ele>825.42999999999995</ele>
        <time>2019-03-14T12:36:53Z</time>
      </trkpt>
      <trkpt lat="30.55404863320291" lon="-5.295892618596554">
        <ele>826.87</ele>
        <time>2019-03-14T12:37:02Z</time>
      </trkpt>
      <trkpt lat="30.553992809727788" lon="-5.296003678813577">
        <ele>826.87</ele>
        <time>2019-03-14T12:37:10Z</time>
      </trkpt>
      <trkpt lat="30.553563153371215" lon="-5.296986373141408">
        <ele>826.87</ele>
        <time>2019-03-14T12:37:19Z</time>
      </trkpt>
      <trkpt lat="30.553341787308455" lon="-5.297537734732032">
        <ele>827.83000000000004</ele>
        <time>2019-03-14T12:37:24Z</time>
      </trkpt>
      <trkpt lat="30.553066274151206" lon="-5.298592010512948">
        <ele>827.83000000000004</ele>
        <time>2019-03-14T12:37:34Z</time>
      </trkpt>
      <trkpt lat="30.552876591682434" lon="-5.299169356003404">
        <ele>827.83000000000004</ele>
        <time>2019-03-14T12:37:43Z</time>
      </trkpt>
      <trkpt lat="30.552544500678778" lon="-5.300279958173633">
        <ele>827.35000000000002</ele>
        <time>2019-03-14T12:37:44Z</time>
      </trkpt>
      <trkpt lat="30.552184246480465" lon="-5.301170870661736">
        <ele>827.35000000000002</ele>
        <time>2019-03-14T12:37:49Z</time>
      </trkpt>
      <trkpt lat="30.552143342792988" lon="-5.301270028576255">
        <ele>827.35000000000002</ele>
        <time>2019-03-14T12:37:55Z</time>
      </trkpt>
      <trkpt lat="30.551926167681813" lon="-5.301802530884743">
        <ele>827.83000000000004</ele>
        <time>2019-03-14T12:37:57Z</time>
      </trkpt>
      <trkpt lat="30.551546467468143" lon="-5.30244491994381">
        <ele>829.26999999999998</ele>
        <time>2019-03-14T12:38:00Z</time>
      </trkpt>
      <trkpt lat="30.55146130733192" lon="-5.302691431716085">
        <ele>829.26999999999998</ele>
        <time>2019-03-14T12:38:01Z</time>
      </trkpt>
      <trkpt lat="30.551369190216064" lon="-5.302993096411228">
        <ele>829.26999999999998</ele>
        <time>2019-03-14T12:38:03Z</time>
      </trkpt>
      <trkpt lat="30.551330298185349" lon="-5.303067695349455">
        <ele>828.78999999999996</ele>
        <time>2019-03-14T12:38:04Z</time>
      </trkpt>
      <trkpt lat="30.551249329000711" lon="-5.303207254037261">
        <ele>828.30999999999995</ele>
        <time>2019-03-14T12:38:06Z</time>
      </trkpt>
      <trkpt lat="30.551221081987023" lon="-5.303274057805538">
        <ele>829.75999999999999</ele>
        <time>2019-03-14T12:38:16Z</time>
      </trkpt>
      <trkpt lat="30.551175149157643" lon="-5.303413281217217">
        <ele>829.26999999999998</ele>
        <time>2019-03-14T12:38:19Z</time>
      </trkpt>
      <trkpt lat="30.550817074254155" lon="-5.304331351071596">
        <ele>830.72000000000003</ele>
        <time>2019-03-14T12:38:20Z</time>
      </trkpt>
      <trkpt lat="30.550653794780374" lon="-5.304590770974755">
        <ele>831.20000000000005</ele>
        <time>2019-03-14T12:38:21Z</time>
      </trkpt>
      <trkpt lat="30.55059595964849" lon="-5.304663106799126">
        <ele>831.67999999999995</ele>
        <time>2019-03-14T12:38:28Z</time>
      </trkpt>
      <trkpt lat="30.550542650744319" lon="-5.304743405431509">
        <ele>831.20000000000005</ele>
        <time>2019-03-14T12:38:37Z</time>
      </trkpt>
      <trkpt lat="30.550121963024139" lon="-5.305497525259852">
        <ele>831.67999999999995</ele>
        <time>2019-03-14T12:38:48Z</time>
      </trkpt>
      <trkpt lat="30.549635645002127" lon="-5.306446524336934">
        <ele>833.12</ele>
        <time>2019-03-14T12:38:59Z</time>
      </trkpt>
      <trkpt lat="30.548989484086633" lon="-5.30789852142334">
        <ele>832.63999999999999</ele>
        <time>2019-03-14T12:39:09Z</time>
      </trkpt>
      <trkpt lat="30.548463016748428" lon="-5.309398211538792">
        <ele>833.12</ele>
        <time>2019-03-14T12:39:19Z</time>
      </trkpt>
      <trkpt lat="30.547917941585183" lon="-5.310648204758763">
        <ele>832.15999999999997</ele>
        <time>2019-03-14T12:39:29Z</time>
      </trkpt>
      <trkpt lat="30.547318048775196" lon="-5.312056196853519">
        <ele>833.12</ele>
        <time>2019-03-14T12:39:39Z</time>
      </trkpt>
      <trkpt lat="30.546813709661365" lon="-5.313537195324898">
        <ele>834.08000000000004</ele>
        <time>2019-03-14T12:39:46Z</time>
      </trkpt>
      <trkpt lat="30.546344742178917" lon="-5.315075609833002">
        <ele>834.08000000000004</ele>
        <time>2019-03-14T12:39:51Z</time>
      </trkpt>
      <trkpt lat="30.546162603422999" lon="-5.315861161798239">
        <ele>834.55999999999995</ele>
        <time>2019-03-14T12:40:00Z</time>
      </trkpt>
      <trkpt lat="30.546005861833692" lon="-5.316404141485691">
        <ele>836</ele>
        <time>2019-03-14T12:40:10Z</time>
      </trkpt>
      <trkpt lat="30.545858340337873" lon="-5.31760417856276">
        <ele>836.48000000000002</ele>
        <time>2019-03-14T12:40:19Z</time>
      </trkpt>
      <trkpt lat="30.545541169121861" lon="-5.319227166473866">
        <ele>837.45000000000005</ele>
        <time>2019-03-14T12:40:33Z</time>
      </trkpt>
      <trkpt lat="30.545259034261107" lon="-5.320707075297833">
        <ele>840.80999999999995</ele>
        <time>2019-03-14T12:40:44Z</time>
      </trkpt>
      <trkpt lat="30.544736422598362" lon="-5.323260286822915">
        <ele>841.76999999999998</ele>
        <time>2019-03-14T12:40:55Z</time>
      </trkpt>
      <trkpt lat="30.544287320226431" lon="-5.325030544772744">
        <ele>841.76999999999998</ele>
        <time>2019-03-14T12:41:06Z</time>
      </trkpt>
      <trkpt lat="30.543854059651494" lon="-5.326930806040764">
        <ele>843.21000000000004</ele>
        <time>2019-03-14T12:41:15Z</time>
      </trkpt>
      <trkpt lat="30.543630011379719" lon="-5.328984288498759">
        <ele>843.69000000000005</ele>
        <time>2019-03-14T12:41:26Z</time>
      </trkpt>
      <trkpt lat="30.543825896456838" lon="-5.330783883109689">
        <ele>844.65999999999997</ele>
        <time>2019-03-14T12:41:35Z</time>
      </trkpt>
      <trkpt lat="30.544246416538954" lon="-5.332773914560676">
        <ele>844.17999999999995</ele>
        <time>2019-03-14T12:41:36Z</time>
      </trkpt>
      <trkpt lat="30.544660650193691" lon="-5.334087945520878">
        <ele>844.17999999999995</ele>
        <time>2019-03-14T12:41:37Z</time>
      </trkpt>
      <trkpt lat="30.544715384021401" lon="-5.334183163940907">
        <ele>844.17999999999995</ele>
        <time>2019-03-14T12:41:42Z</time>
      </trkpt>
      <trkpt lat="30.544779757037759" lon="-5.334248123690486">
        <ele>843.21000000000004</ele>
        <time>2019-03-14T12:41:43Z</time>
      </trkpt>
      <trkpt lat="30.545126097276807" lon="-5.334416683763266">
        <ele>842.25</ele>
        <time>2019-03-14T12:41:51Z</time>
      </trkpt>
      <trkpt lat="30.545156607404351" lon="-5.334445098415017">
        <ele>839.85000000000002</ele>
        <time>2019-03-14T12:41:57Z</time>
      </trkpt>
      <trkpt lat="30.545160714536905" lon="-5.334453480318189">
        <ele>836</ele>
        <time>2019-03-14T12:41:58Z</time>
      </trkpt>
      <trkpt lat="30.545178484171629" lon="-5.334518942981958">
        <ele>833.60000000000002</ele>
        <time>2019-03-14T12:41:59Z</time>
      </trkpt>
      <trkpt lat="30.54516389966011" lon="-5.334571246057749">
        <ele>831.67999999999995</ele>
        <time>2019-03-14T12:42:06Z</time>
      </trkpt>
      <trkpt lat="30.545134227722883" lon="-5.334623549133539">
        <ele>829.75999999999999</ele>
        <time>2019-03-14T12:42:14Z</time>
      </trkpt>
      <trkpt lat="30.544737428426743" lon="-5.335191255435348">
        <ele>826.87</ele>
        <time>2019-03-14T12:42:24Z</time>
      </trkpt>
      <trkpt lat="30.543948775157332" lon="-5.336315436288714">
        <ele>827.35000000000002</ele>
        <time>2019-03-14T12:42:41Z</time>
      </trkpt>
      <trkpt lat="30.542655782774091" lon="-5.338141769170761">
        <ele>826.87</ele>
        <time>2019-03-14T12:42:58Z</time>
      </trkpt>
      <trkpt lat="30.540196867659688" lon="-5.341550186276436">
        <ele>826.87</ele>
        <time>2019-03-14T12:43:21Z</time>
      </trkpt>
      <trkpt lat="30.537307457998395" lon="-5.344932954758406">
        <ele>826.38999999999999</ele>
        <time>2019-03-14T12:43:36Z</time>
      </trkpt>
      <trkpt lat="30.533122876659036" lon="-5.349735785275698">
        <ele>825.90999999999997</ele>
        <time>2019-03-14T12:43:53Z</time>
      </trkpt>
      <trkpt lat="30.53054359741509" lon="-5.353198349475861">
        <ele>824.47000000000003</ele>
        <time>2019-03-14T12:44:08Z</time>
      </trkpt>
      <trkpt lat="30.527689307928085" lon="-5.357608823105693">
        <ele>822.54999999999995</ele>
        <time>2019-03-14T12:44:15Z</time>
      </trkpt>
      <trkpt lat="30.525230811908841" lon="-5.361415715888143">
        <ele>823.02999999999997</ele>
        <time>2019-03-14T12:44:23Z</time>
      </trkpt>
      <trkpt lat="30.524370577186346" lon="-5.362762939184904">
        <ele>822.54999999999995</ele>
        <time>2019-03-14T12:44:32Z</time>
      </trkpt>
      <trkpt lat="30.523821311071515" lon="-5.363618144765496">
        <ele>827.35000000000002</ele>
        <time>2019-03-14T12:44:41Z</time>
      </trkpt>
      <trkpt lat="30.523044560104609" lon="-5.364838130772114">
        <ele>830.24000000000001</ele>
        <time>2019-03-14T12:44:56Z</time>
      </trkpt>
      <trkpt lat="30.521918870508671" lon="-5.366613669320941">
        <ele>833.12</ele>
        <time>2019-03-14T12:45:14Z</time>
      </trkpt>
      <trkpt lat="30.519889527931809" lon="-5.369993923231959">
        <ele>835.03999999999996</ele>
        <time>2019-03-14T12:45:34Z</time>
      </trkpt>
      <trkpt lat="30.517541840672493" lon="-5.374301467090845">
        <ele>836.96000000000004</ele>
        <time>2019-03-14T12:45:49Z</time>
      </trkpt>
      <trkpt lat="30.514925848692656" lon="-5.379274534061551">
        <ele>838.40999999999997</ele>
        <time>2019-03-14T12:46:01Z</time>
      </trkpt>
      <trkpt lat="30.513071017339826" lon="-5.38280725479126">
        <ele>836.96000000000004</ele>
        <time>2019-03-14T12:46:11Z</time>
      </trkpt>
      <trkpt lat="30.511401006951928" lon="-5.38575709797442">
        <ele>835.51999999999998</ele>
        <time>2019-03-14T12:46:27Z</time>
      </trkpt>
      <trkpt lat="30.509610380977392" lon="-5.387926669791341">
        <ele>836</ele>
        <time>2019-03-14T12:46:42Z</time>
      </trkpt>
      <trkpt lat="30.50671610981226" lon="-5.390956308692694">
        <ele>839.37</ele>
        <time>2019-03-14T12:46:52Z</time>
      </trkpt>
      <trkpt lat="30.503945220261812" lon="-5.393859632313252">
        <ele>843.21000000000004</ele>
        <time>2019-03-14T12:47:03Z</time>
      </trkpt>
      <trkpt lat="30.50238735973835" lon="-5.395652940496802">
        <ele>846.58000000000004</ele>
        <time>2019-03-14T12:47:17Z</time>
      </trkpt>
      <trkpt lat="30.501052457839251" lon="-5.397340385243297">
        <ele>846.10000000000002</ele>
        <time>2019-03-14T12:47:28Z</time>
      </trkpt>
      <trkpt lat="30.499543715268373" lon="-5.399434100836515">
        <ele>846.58000000000004</ele>
        <time>2019-03-14T12:47:37Z</time>
      </trkpt>
      <trkpt lat="30.498420791700482" lon="-5.400950806215406">
        <ele>849.46000000000004</ele>
        <time>2019-03-14T12:47:51Z</time>
      </trkpt>
      <trkpt lat="30.497295437380672" lon="-5.402572201564908">
        <ele>851.87</ele>
        <time>2019-03-14T12:48:04Z</time>
      </trkpt>
      <trkpt lat="30.495398696511984" lon="-5.405349461361766">
        <ele>856.66999999999996</ele>
        <time>2019-03-14T12:48:20Z</time>
      </trkpt>
      <trkpt lat="30.493673114106059" lon="-5.408056816086173">
        <ele>858.59000000000003</ele>
        <time>2019-03-14T12:48:32Z</time>
      </trkpt>
      <trkpt lat="30.491787185892463" lon="-5.411297092214227">
        <ele>860.51999999999998</ele>
        <time>2019-03-14T12:48:44Z</time>
      </trkpt>
      <trkpt lat="30.490440214052796" lon="-5.413709990680218">
        <ele>866.28999999999996</ele>
        <time>2019-03-14T12:49:02Z</time>
      </trkpt>
      <trkpt lat="30.489207319915295" lon="-5.415892722085118">
        <ele>865.79999999999995</ele>
        <time>2019-03-14T12:49:10Z</time>
      </trkpt>
      <trkpt lat="30.487467404454947" lon="-5.419046329334378">
        <ele>866.28999999999996</ele>
        <time>2019-03-14T12:49:21Z</time>
      </trkpt>
      <trkpt lat="30.4866564553231" lon="-5.420881044119597">
        <ele>868.21000000000004</ele>
        <time>2019-03-14T12:49:30Z</time>
      </trkpt>
      <trkpt lat="30.485839387401938" lon="-5.423531150445342">
        <ele>869.64999999999998</ele>
        <time>2019-03-14T12:49:41Z</time>
      </trkpt>
      <trkpt lat="30.485338652506471" lon="-5.426071453839541">
        <ele>871.09000000000003</ele>
        <time>2019-03-14T12:49:57Z</time>
      </trkpt>
      <trkpt lat="30.484996419399977" lon="-5.429104529321194">
        <ele>875.89999999999998</ele>
        <time>2019-03-14T12:50:08Z</time>
      </trkpt>
      <trkpt lat="30.484473221004009" lon="-5.433432944118977">
        <ele>881.19000000000005</ele>
        <time>2019-03-14T12:50:19Z</time>
      </trkpt>
      <trkpt lat="30.484065525233746" lon="-5.436821663752198">
        <ele>884.07000000000005</ele>
        <time>2019-03-14T12:50:30Z</time>
      </trkpt>
      <trkpt lat="30.483338898047805" lon="-5.440104268491268">
        <ele>887.90999999999997</ele>
        <time>2019-03-14T12:50:43Z</time>
      </trkpt>
      <trkpt lat="30.482152020558715" lon="-5.443150335922837">
        <ele>891.75999999999999</ele>
        <time>2019-03-14T12:51:04Z</time>
      </trkpt>
      <trkpt lat="30.480261733755469" lon="-5.446643158793449">
        <ele>894.63999999999999</ele>
        <time>2019-03-14T12:51:20Z</time>
      </trkpt>
      <trkpt lat="30.477084573358297" lon="-5.452390797436237">
        <ele>899.45000000000005</ele>
        <time>2019-03-14T12:51:35Z</time>
      </trkpt>
      <trkpt lat="30.474878624081612" lon="-5.456539336591959">
        <ele>902.82000000000005</ele>
        <time>2019-03-14T12:51:49Z</time>
      </trkpt>
      <trkpt lat="30.47317567281425" lon="-5.46036483719945">
        <ele>904.74000000000001</ele>
        <time>2019-03-14T12:52:05Z</time>
      </trkpt>
      <trkpt lat="30.471782013773918" lon="-5.46429293230176">
        <ele>909.53999999999996</ele>
        <time>2019-03-14T12:52:20Z</time>
      </trkpt>
      <trkpt lat="30.470427079126239" lon="-5.468552699312568">
        <ele>916.26999999999998</ele>
        <time>2019-03-14T12:52:39Z</time>
      </trkpt>
      <trkpt lat="30.469115227460861" lon="-5.472154319286346">
        <ele>923.96000000000004</ele>
        <time>2019-03-14T12:52:57Z</time>
      </trkpt>
      <trkpt lat="30.467322589829564" lon="-5.476605277508497">
        <ele>926.85000000000002</ele>
        <time>2019-03-14T12:53:14Z</time>
      </trkpt>
      <trkpt lat="30.465674204751849" lon="-5.480655748397112">
        <ele>930.21000000000004</ele>
        <time>2019-03-14T12:53:24Z</time>
      </trkpt>
      <trkpt lat="30.464115170761943" lon="-5.484718540683389">
        <ele>930.69000000000005</ele>
        <time>2019-03-14T12:53:35Z</time>
      </trkpt>
      <trkpt lat="30.463543860241771" lon="-5.487466380000114">
        <ele>932.62</ele>
        <time>2019-03-14T12:53:54Z</time>
      </trkpt>
      <trkpt lat="30.463427770882845" lon="-5.490565840154886">
        <ele>930.21000000000004</ele>
        <time>2019-03-14T12:54:17Z</time>
      </trkpt>
      <trkpt lat="30.463744439184666" lon="-5.495811067521572">
        <ele>932.13999999999999</ele>
        <time>2019-03-14T12:54:31Z</time>
      </trkpt>
      <trkpt lat="30.464131934568286" lon="-5.502092884853482">
        <ele>936.46000000000004</ele>
        <time>2019-03-14T12:54:43Z</time>
      </trkpt>
      <trkpt lat="30.464170994237065" lon="-5.505633736029267">
        <ele>938.86000000000001</ele>
        <time>2019-03-14T12:54:58Z</time>
      </trkpt>
      <trkpt lat="30.463970582932234" lon="-5.508235478773713">
        <ele>940.78999999999996</ele>
        <time>2019-03-14T12:55:11Z</time>
      </trkpt>
      <trkpt lat="30.463557187467813" lon="-5.510953310877085">
        <ele>941.75</ele>
        <time>2019-03-14T14:47:23Z</time>
      </trkpt>
      <trkpt lat="30.463138511404395" lon="-5.512897912412882">
        <ele>944.63</ele>
        <time>2019-03-14T14:47:31Z</time>
      </trkpt>
      <trkpt lat="30.46297699213028" lon="-5.513571817427874">
        <ele>947.51999999999998</ele>
        <time>2019-03-14T14:47:44Z</time>
      </trkpt>
      <trkpt lat="30.462697874754667" lon="-5.514508076012135">
        <ele>950.39999999999998</ele>
        <time>2019-03-14T14:47:58Z</time>
      </trkpt>
      <trkpt lat="30.462055401876569" lon="-5.516613190993667">
        <ele>952.32000000000005</ele>
        <time>2019-03-14T14:48:16Z</time>
      </trkpt>
      <trkpt lat="30.461245626211166" lon="-5.519274696707726">
        <ele>953.76999999999998</ele>
        <time>2019-03-14T14:48:31Z</time>
      </trkpt>
      <trkpt lat="30.46029687859118" lon="-5.52241531200707">
        <ele>958.57000000000005</ele>
        <time>2019-03-14T14:48:50Z</time>
      </trkpt>
      <trkpt lat="30.459432369098067" lon="-5.525254681706429">
        <ele>964.82000000000005</ele>
        <time>2019-03-14T14:49:09Z</time>
      </trkpt>
      <trkpt lat="30.458243982866406" lon="-5.529187386855483">
        <ele>967.70000000000005</ele>
        <time>2019-03-14T14:49:28Z</time>
      </trkpt>
      <trkpt lat="30.456961216405034" lon="-5.533008109778166">
        <ele>967.22000000000003</ele>
        <time>2019-03-14T14:49:44Z</time>
      </trkpt>
      <trkpt lat="30.455328254029155" lon="-5.53674777969718">
        <ele>963.38</ele>
        <time>2019-03-14T14:49:59Z</time>
      </trkpt>
      <trkpt lat="30.453613651916385" lon="-5.539907338097692">
        <ele>952.32000000000005</ele>
        <time>2019-03-14T14:50:19Z</time>
      </trkpt>
      <trkpt lat="30.451632589101791" lon="-5.542899426072836">
        <ele>948.48000000000002</ele>
        <time>2019-03-14T14:50:40Z</time>
      </trkpt>
      <trkpt lat="30.448800260201097" lon="-5.546920225024223">
        <ele>946.55999999999995</ele>
        <time>2019-03-14T14:51:00Z</time>
      </trkpt>
      <trkpt lat="30.445782607421279" lon="-5.551196085289121">
        <ele>944.63</ele>
        <time>2019-03-14T14:51:22Z</time>
      </trkpt>
      <trkpt lat="30.442795297130942" lon="-5.555447051301599">
        <ele>940.30999999999995</ele>
        <time>2019-03-14T14:51:43Z</time>
      </trkpt>
      <trkpt lat="30.439503639936447" lon="-5.560111915692687">
        <ele>936.46000000000004</ele>
        <time>2019-03-14T14:52:02Z</time>
      </trkpt>
      <trkpt lat="30.436275936663151" lon="-5.564682064577937">
        <ele>932.13999999999999</ele>
        <time>2019-03-14T14:52:17Z</time>
      </trkpt>
      <trkpt lat="30.43318728916347" lon="-5.569060184061527">
        <ele>928.28999999999996</ele>
        <time>2019-03-14T14:52:35Z</time>
      </trkpt>
      <trkpt lat="30.43080179952085" lon="-5.572435660287738">
        <ele>915.78999999999996</ele>
        <time>2019-03-14T14:52:48Z</time>
      </trkpt>
      <trkpt lat="30.428241631016135" lon="-5.57625194080174">
        <ele>913.38999999999999</ele>
        <time>2019-03-14T14:53:04Z</time>
      </trkpt>
      <trkpt lat="30.426807990297675" lon="-5.579368500038981">
        <ele>903.77999999999997</ele>
        <time>2019-03-14T14:53:23Z</time>
      </trkpt>
      <trkpt lat="30.425496893003583" lon="-5.583446966484189">
        <ele>905.70000000000005</ele>
        <time>2019-03-14T14:53:39Z</time>
      </trkpt>
      <trkpt lat="30.423983205109835" lon="-5.588318612426519">
        <ele>891.27999999999997</ele>
        <time>2019-03-14T14:53:47Z</time>
      </trkpt>
      <trkpt lat="30.422774869948626" lon="-5.592394229024649">
        <ele>878.29999999999995</ele>
        <time>2019-03-14T14:54:04Z</time>
      </trkpt>
      <trkpt lat="30.422644028440118" lon="-5.594366826117039">
        <ele>863.88</ele>
        <time>2019-03-14T14:54:13Z</time>
      </trkpt>
      <trkpt lat="30.422746958211064" lon="-5.598634220659733">
        <ele>855.23000000000002</ele>
        <time>2019-03-14T14:54:24Z</time>
      </trkpt>
      <trkpt lat="30.422378154471517" lon="-5.600846204906702">
        <ele>849.46000000000004</ele>
        <time>2019-03-14T14:54:39Z</time>
      </trkpt>
      <trkpt lat="30.422031981870532" lon="-5.603733938187361">
        <ele>846.58000000000004</ele>
        <time>2019-03-14T14:54:54Z</time>
      </trkpt>
      <trkpt lat="30.421856883913279" lon="-5.607604868710041">
        <ele>838.88999999999999</ele>
        <time>2019-03-14T14:55:11Z</time>
      </trkpt>
      <trkpt lat="30.421874653548002" lon="-5.611467333510518">
        <ele>829.26999999999998</ele>
        <time>2019-03-14T14:55:31Z</time>
      </trkpt>
      <trkpt lat="30.421931818127632" lon="-5.616094982251525">
        <ele>824.47000000000003</ele>
        <time>2019-03-14T14:55:44Z</time>
      </trkpt>
      <trkpt lat="30.422001052647829" lon="-5.62158303335309">
        <ele>819.17999999999995</ele>
        <time>2019-03-14T14:55:54Z</time>
      </trkpt>
      <trkpt lat="30.421868786215782" lon="-5.625035036355257">
        <ele>813.88999999999999</ele>
        <time>2019-03-14T14:56:05Z</time>
      </trkpt>
      <trkpt lat="30.421287333592772" lon="-5.62756628729403">
        <ele>808.13</ele>
        <time>2019-03-14T14:56:17Z</time>
      </trkpt>
      <trkpt lat="30.420257030054927" lon="-5.630029141902924">
        <ele>801.39999999999998</ele>
        <time>2019-03-14T14:56:36Z</time>
      </trkpt>
      <trkpt lat="30.418729679659009" lon="-5.632513873279095">
        <ele>796.59000000000003</ele>
        <time>2019-03-14T14:56:53Z</time>
      </trkpt>
      <trkpt lat="30.416221814230084" lon="-5.636522267013788">
        <ele>791.77999999999997</ele>
        <time>2019-03-14T14:57:08Z</time>
      </trkpt>
      <trkpt lat="30.414212672039866" lon="-5.640274090692401">
        <ele>787.94000000000005</ele>
        <time>2019-03-14T14:57:24Z</time>
      </trkpt>
      <trkpt lat="30.412626145407557" lon="-5.643483940511942">
        <ele>785.52999999999997</ele>
        <time>2019-03-14T14:57:41Z</time>
      </trkpt>
      <trkpt lat="30.410974742844701" lon="-5.646803928539157">
        <ele>784.09000000000003</ele>
        <time>2019-03-14T14:57:59Z</time>
      </trkpt>
      <trkpt lat="30.409028297290206" lon="-5.650274120271206">
        <ele>784.57000000000005</ele>
        <time>2019-03-14T14:58:17Z</time>
      </trkpt>
      <trkpt lat="30.406572734937072" lon="-5.653859563171864">
        <ele>784.09000000000003</ele>
        <time>2019-03-14T14:58:37Z</time>
      </trkpt>
      <trkpt lat="30.404070653021336" lon="-5.657409885898233">
        <ele>784.09000000000003</ele>
        <time>2019-03-14T14:58:51Z</time>
      </trkpt>
      <trkpt lat="30.401292890310287" lon="-5.661334209144115">
        <ele>784.09000000000003</ele>
        <time>2019-03-14T14:59:54Z</time>
      </trkpt>
      <trkpt lat="30.399390198290348" lon="-5.664021698758006">
        <ele>783.61000000000001</ele>
        <time>2019-03-14T15:00:03Z</time>
      </trkpt>
      <trkpt lat="30.398304155096412" lon="-5.665629263967276">
        <ele>783.61000000000001</ele>
        <time>2019-03-14T15:00:13Z</time>
      </trkpt>
      <trkpt lat="30.398204578086734" lon="-5.665552485734224">
        <ele>783.13</ele>
        <time>2019-03-14T15:00:24Z</time>
      </trkpt>
      <trkpt lat="30.398087231442332" lon="-5.665489453822374">
        <ele>782.16999999999996</ele>
        <time>2019-03-14T15:00:32Z</time>
      </trkpt>
      <trkpt lat="30.397326573729515" lon="-5.665318546816707">
        <ele>781.21000000000004</ele>
        <time>2019-03-14T15:00:43Z</time>
      </trkpt>
      <trkpt lat="30.396260479465127" lon="-5.665056193247438">
        <ele>780.73000000000002</ele>
        <time>2019-03-14T15:00:54Z</time>
      </trkpt>
      <trkpt lat="30.395524716004729" lon="-5.664895176887512">
        <ele>780.25</ele>
        <time>2019-03-14T15:01:07Z</time>
      </trkpt>
      <trkpt lat="30.394513607025146" lon="-5.664480272680521">
        <ele>779.76999999999998</ele>
        <time>2019-03-14T15:01:17Z</time>
      </trkpt>
      <trkpt lat="30.393405267968774" lon="-5.664093615487218">
        <ele>779.76999999999998</ele>
        <time>2019-03-14T15:01:22Z</time>
      </trkpt>
      <trkpt lat="30.391961149871349" lon="-5.663634287193418">
        <ele>779.76999999999998</ele>
        <time>2019-03-14T15:01:28Z</time>
      </trkpt>
      <trkpt lat="30.390833616256714" lon="-5.663368916139007">
        <ele>780.25</ele>
        <time>2019-03-14T15:01:34Z</time>
      </trkpt>
      <trkpt lat="30.390265323221684" lon="-5.663304543122649">
        <ele>780.25</ele>
        <time>2019-03-14T15:01:39Z</time>
      </trkpt>
      <trkpt lat="30.389899034053087" lon="-5.663202283903956">
        <ele>780.25</ele>
        <time>2019-03-14T15:01:43Z</time>
      </trkpt>
      <trkpt lat="30.389713542535901" lon="-5.663003632798791">
        <ele>779.28999999999996</ele>
        <time>2019-03-14T15:01:50Z</time>
      </trkpt>
      <trkpt lat="30.389438532292843" lon="-5.662717390805483">
        <ele>778.80999999999995</ele>
        <time>2019-03-14T15:01:56Z</time>
      </trkpt>
      <trkpt lat="30.389310959726572" lon="-5.662579257041216">
        <ele>781.21000000000004</ele>
        <time>2019-03-14T15:01:58Z</time>
      </trkpt>
      <trkpt lat="30.389075931161642" lon="-5.662381527945399">
        <ele>780.25</ele>
        <time>2019-03-14T15:02:07Z</time>
      </trkpt>
      <trkpt lat="30.388939473778009" lon="-5.662142727524042">
        <ele>780.25</ele>
        <time>2019-03-14T15:02:11Z</time>
      </trkpt>
      <trkpt lat="30.388828497380018" lon="-5.662075001746416">
        <ele>777.84000000000003</ele>
        <time>2019-03-14T15:02:17Z</time>
      </trkpt>
      <trkpt lat="30.388313261792064" lon="-5.661540655419231">
        <ele>777.84000000000003</ele>
        <time>2019-03-14T15:02:22Z</time>
      </trkpt>
      <trkpt lat="30.388148054480553" lon="-5.66124209202826">
        <ele>777.84000000000003</ele>
        <time>2019-03-14T15:02:35Z</time>
      </trkpt>
      <trkpt lat="30.388031043112278" lon="-5.660741608589888">
        <ele>778.32000000000005</ele>
        <time>2019-03-14T15:02:41Z</time>
      </trkpt>
      <trkpt lat="30.387842450290918" lon="-5.660452768206596">
        <ele>777.84000000000003</ele>
        <time>2019-03-14T15:02:51Z</time>
      </trkpt>
      <trkpt lat="30.387004092335701" lon="-5.659938203170896">
        <ele>778.32000000000005</ele>
        <time>2019-03-14T15:03:05Z</time>
      </trkpt>
      <trkpt lat="30.386581560596824" lon="-5.659775175154209">
        <ele>778.32000000000005</ele>
        <time>2019-03-14T15:03:11Z</time>
      </trkpt>
      <trkpt lat="30.386022068560123" lon="-5.659229764714837">
        <ele>778.80999999999995</ele>
        <time>2019-03-14T15:03:14Z</time>
      </trkpt>
      <trkpt lat="30.38543994538486" lon="-5.658244891092181">
        <ele>779.28999999999996</ele>
        <time>2019-03-14T15:03:17Z</time>
      </trkpt>
      <trkpt lat="30.385214472189546" lon="-5.657900897786021">
        <ele>778.32000000000005</ele>
        <time>2019-03-14T15:03:29Z</time>
      </trkpt>
      <trkpt lat="30.38511548191309" lon="-5.65777868963778">
        <ele>777.84000000000003</ele>
        <time>2019-03-14T15:03:30Z</time>
      </trkpt>
      <trkpt lat="30.384962176904082" lon="-5.657631084322929">
        <ele>778.80999999999995</ele>
        <time>2019-03-14T15:03:38Z</time>
      </trkpt>
      <trkpt lat="30.384510476142168" lon="-5.656899092718959">
        <ele>778.80999999999995</ele>
        <time>2019-03-14T15:03:43Z</time>
      </trkpt>
      <trkpt lat="30.384474350139499" lon="-5.656834132969379">
        <ele>778.80999999999995</ele>
        <time>2019-03-14T15:03:49Z</time>
      </trkpt>
      <trkpt lat="30.384068498387933" lon="-5.656418725848198">
        <ele>780.25</ele>
        <time>2019-03-14T15:03:53Z</time>
      </trkpt>
      <trkpt lat="30.383779658004642" lon="-5.656211692839861">
        <ele>779.76999999999998</ele>
        <time>2019-03-14T15:03:56Z</time>
      </trkpt>
      <trkpt lat="30.38342728279531" lon="-5.656064925715327">
        <ele>780.25</ele>
        <time>2019-03-14T15:04:10Z</time>
      </trkpt>
      <trkpt lat="30.383269032463431" lon="-5.655939197167754">
        <ele>779.76999999999998</ele>
        <time>2019-03-14T15:04:22Z</time>
      </trkpt>
      <trkpt lat="30.383196277543902" lon="-5.655858647078276">
        <ele>780.25</ele>
        <time>2019-03-14T15:04:25Z</time>
      </trkpt>
      <trkpt lat="30.382577525451779" lon="-5.655410885810852">
        <ele>778.80999999999995</ele>
        <time>2019-03-14T15:04:31Z</time>
      </trkpt>
      <trkpt lat="30.381998168304563" lon="-5.654998831450939">
        <ele>778.80999999999995</ele>
        <time>2019-03-14T15:04:35Z</time>
      </trkpt>
      <trkpt lat="30.381819549947977" lon="-5.654904367402196">
        <ele>778.32000000000005</ele>
        <time>2019-03-14T15:04:40Z</time>
      </trkpt>
      <trkpt lat="30.381490811705589" lon="-5.654669757932425">
        <ele>777.84000000000003</ele>
        <time>2019-03-14T15:04:48Z</time>
      </trkpt>
      <trkpt lat="30.381258884444833" lon="-5.654508573934436">
        <ele>777.36000000000001</ele>
        <time>2019-03-14T15:04:51Z</time>
      </trkpt>
      <trkpt lat="30.380934085696936" lon="-5.654364237561822">
        <ele>776.39999999999998</ele>
        <time>2019-03-14T15:04:57Z</time>
      </trkpt>
      <trkpt lat="30.380580453202128" lon="-5.653953272849321">
        <ele>776.88</ele>
        <time>2019-03-14T15:05:05Z</time>
      </trkpt>
      <trkpt lat="30.38048230111599" lon="-5.653799800202251">
        <ele>776.39999999999998</ele>
        <time>2019-03-14T15:05:16Z</time>
      </trkpt>
      <trkpt lat="30.380352465435863" lon="-5.653432505205274">
        <ele>774.96000000000004</ele>
        <time>2019-03-14T15:05:18Z</time>
      </trkpt>
      <trkpt lat="30.380035964772105" lon="-5.653192363679409">
        <ele>774.48000000000002</ele>
        <time>2019-03-14T15:05:22Z</time>
      </trkpt>
      <trkpt lat="30.379556939005852" lon="-5.652657682076097">
        <ele>774</ele>
        <time>2019-03-14T15:05:30Z</time>
      </trkpt>
      <trkpt lat="30.37945669144392" lon="-5.652548130601645">
        <ele>774</ele>
        <time>2019-03-14T15:05:36Z</time>
      </trkpt>
      <trkpt lat="30.379364993423223" lon="-5.65226155333221">
        <ele>774.48000000000002</ele>
        <time>2019-03-14T15:05:42Z</time>
      </trkpt>
      <trkpt lat="30.379437999799848" lon="-5.651681106537581">
        <ele>774.48000000000002</ele>
        <time>2019-03-14T15:05:53Z</time>
      </trkpt>
      <trkpt lat="30.379304392263293" lon="-5.651388913393021">
        <ele>775.91999999999996</ele>
        <time>2019-03-14T15:05:57Z</time>
      </trkpt>
      <trkpt lat="30.378897953778505" lon="-5.651060007512569">
        <ele>775.44000000000005</ele>
        <time>2019-03-14T15:06:01Z</time>
      </trkpt>
      <trkpt lat="30.378199405968189" lon="-5.650225421413779">
        <ele>774.96000000000004</ele>
        <time>2019-03-14T15:06:06Z</time>
      </trkpt>
      <trkpt lat="30.377983739599586" lon="-5.649877153337002">
        <ele>774.96000000000004</ele>
        <time>2019-03-14T15:06:15Z</time>
      </trkpt>
      <trkpt lat="30.377767402678728" lon="-5.649575404822826">
        <ele>774.96000000000004</ele>
        <time>2019-03-14T15:06:17Z</time>
      </trkpt>
      <trkpt lat="30.377457942813635" lon="-5.649379435926676">
        <ele>774.96000000000004</ele>
        <time>2019-03-14T15:06:22Z</time>
      </trkpt>
      <trkpt lat="30.377012109383941" lon="-5.649070646613836">
        <ele>776.88</ele>
        <time>2019-03-14T15:06:26Z</time>
      </trkpt>
      <trkpt lat="30.376940695568919" lon="-5.64901121892035">
        <ele>777.36000000000001</ele>
        <time>2019-03-14T15:06:28Z</time>
      </trkpt>
      <trkpt lat="30.376694435253739" lon="-5.648826481774449">
        <ele>777.36000000000001</ele>
        <time>2019-03-14T15:06:30Z</time>
      </trkpt>
      <trkpt lat="30.376407774165273" lon="-5.648733023554087">
        <ele>777.84000000000003</ele>
        <time>2019-03-14T15:06:33Z</time>
      </trkpt>
      <trkpt lat="30.376273160800338" lon="-5.648737549781799">
        <ele>777.36000000000001</ele>
        <time>2019-03-14T15:06:37Z</time>
      </trkpt>
      <trkpt lat="30.376145672053099" lon="-5.648728581145406">
        <ele>778.32000000000005</ele>
        <time>2019-03-14T15:06:49Z</time>
      </trkpt>
      <trkpt lat="30.375937465578318" lon="-5.648735370486975">
        <ele>778.80999999999995</ele>
        <time>2019-03-14T15:07:00Z</time>
      </trkpt>
      <trkpt lat="30.375626161694527" lon="-5.648685246706009">
        <ele>778.80999999999995</ele>
        <time>2019-03-14T15:07:09Z</time>
      </trkpt>
      <trkpt lat="30.374739607796073" lon="-5.648208735510707">
        <ele>779.28999999999996</ele>
        <time>2019-03-14T15:07:15Z</time>
      </trkpt>
      <trkpt lat="30.374204842373729" lon="-5.647843116894364">
        <ele>781.21000000000004</ele>
        <time>2019-03-14T15:07:24Z</time>
      </trkpt>
      <trkpt lat="30.373583491891623" lon="-5.647421674802899">
        <ele>781.69000000000005</ele>
        <time>2019-03-14T15:07:34Z</time>
      </trkpt>
      <trkpt lat="30.373345194384456" lon="-5.647258395329118">
        <ele>782.64999999999998</ele>
        <time>2019-03-14T15:07:47Z</time>
      </trkpt>
      <trkpt lat="30.372797939926386" lon="-5.64689302816987">
        <ele>782.64999999999998</ele>
        <time>2019-03-14T15:07:57Z</time>
      </trkpt>
      <trkpt lat="30.3720045927912" lon="-5.646357927471399">
        <ele>783.13</ele>
        <time>2019-03-14T15:08:12Z</time>
      </trkpt>
      <trkpt lat="30.371114267036319" lon="-5.64574034884572">
        <ele>781.69000000000005</ele>
        <time>2019-03-14T15:08:25Z</time>
      </trkpt>
      <trkpt lat="30.370381353422999" lon="-5.645231483504176">
        <ele>781.69000000000005</ele>
        <time>2019-03-14T15:08:32Z</time>
      </trkpt>
      <trkpt lat="30.36911585368216" lon="-5.644388934597373">
        <ele>781.69000000000005</ele>
        <time>2019-03-14T15:08:47Z</time>
      </trkpt>
      <trkpt lat="30.367948841303587" lon="-5.643600281327963">
        <ele>782.16999999999996</ele>
        <time>2019-03-14T15:09:01Z</time>
      </trkpt>
      <trkpt lat="30.367376105859876" lon="-5.643196441233158">
        <ele>782.16999999999996</ele>
        <time>2019-03-14T15:09:15Z</time>
      </trkpt>
      <trkpt lat="30.366211943328381" lon="-5.642413822934032">
        <ele>781.69000000000005</ele>
        <time>2019-03-14T15:09:29Z</time>
      </trkpt>
      <trkpt lat="30.364919202402234" lon="-5.641542440280318">
        <ele>779.28999999999996</ele>
        <time>2019-03-14T15:09:42Z</time>
      </trkpt>
      <trkpt lat="30.363836344331503" lon="-5.640803491696715">
        <ele>777.36000000000001</ele>
        <time>2019-03-14T15:09:43Z</time>
      </trkpt>
      <trkpt lat="30.362766897305846" lon="-5.640078205615282">
        <ele>774.96000000000004</ele>
        <time>2019-03-14T15:09:44Z</time>
      </trkpt>
      <trkpt lat="30.361874308437109" lon="-5.63946926034987">
        <ele>773.03999999999996</ele>
        <time>2019-03-14T15:09:45Z</time>
      </trkpt>
      <trkpt lat="30.36180105060339" lon="-5.639431038871408">
        <ele>771.11000000000001</ele>
        <time>2019-03-14T15:09:46Z</time>
      </trkpt>
      <trkpt lat="30.361719997599721" lon="-5.639400193467736">
        <ele>770.14999999999998</ele>
        <time>2019-03-14T15:10:03Z</time>
      </trkpt>
      <trkpt lat="30.361632574349642" lon="-5.639378987252712">
        <ele>767.75</ele>
        <time>2019-03-14T15:10:22Z</time>
      </trkpt>
      <trkpt lat="30.361544145271182" lon="-5.63936373218894">
        <ele>760.05999999999995</ele>
        <time>2019-03-14T15:10:38Z</time>
      </trkpt>
      <trkpt lat="30.360058536753058" lon="-5.639086710289121">
        <ele>759.10000000000002</ele>
        <time>2019-03-14T15:10:55Z</time>
      </trkpt>
      <trkpt lat="30.358467986807227" lon="-5.638777418062091">
        <ele>758.62</ele>
        <time>2019-03-14T15:11:09Z</time>
      </trkpt>
      <trkpt lat="30.357126044109464" lon="-5.638520009815693">
        <ele>756.69000000000005</ele>
        <time>2019-03-14T15:11:22Z</time>
      </trkpt>
      <trkpt lat="30.355652924627066" lon="-5.638258662074804">
        <ele>756.21000000000004</ele>
        <time>2019-03-14T15:11:36Z</time>
      </trkpt>
      <trkpt lat="30.354347191751003" lon="-5.638006534427404">
        <ele>754.28999999999996</ele>
        <time>2019-03-14T15:11:49Z</time>
      </trkpt>
      <trkpt lat="30.353224519640207" lon="-5.637798579409719">
        <ele>753.33000000000004</ele>
        <time>2019-03-14T15:11:50Z</time>
      </trkpt>
      <trkpt lat="30.352047448977828" lon="-5.637582326307893">
        <ele>752.85000000000002</ele>
        <time>2019-03-14T15:11:51Z</time>
      </trkpt>
      <trkpt lat="30.351222585886717" lon="-5.637539494782686">
        <ele>752.37</ele>
        <time>2019-03-14T15:11:53Z</time>
      </trkpt>
      <trkpt lat="30.35115041770041" lon="-5.637550055980682">
        <ele>752.37</ele>
        <time>2019-03-14T15:11:54Z</time>
      </trkpt>
      <trkpt lat="30.351081183180213" lon="-5.637561790645123">
        <ele>751.88999999999999</ele>
        <time>2019-03-14T15:11:59Z</time>
      </trkpt>
      <trkpt lat="30.350945563986897" lon="-5.637578722089529">
        <ele>751.88999999999999</ele>
        <time>2019-03-14T15:12:02Z</time>
      </trkpt>
      <trkpt lat="30.350880520418286" lon="-5.637600179761648">
        <ele>752.85000000000002</ele>
        <time>2019-03-14T15:12:03Z</time>
      </trkpt>
      <trkpt lat="30.350553458556533" lon="-5.637715179473162">
        <ele>752.85000000000002</ele>
        <time>2019-03-14T15:12:04Z</time>
      </trkpt>
      <trkpt lat="30.35035640001297" lon="-5.637824479490519">
        <ele>752.85000000000002</ele>
        <time>2019-03-14T15:12:05Z</time>
      </trkpt>
      <trkpt lat="30.350287752225995" lon="-5.637839734554291">
        <ele>752.37</ele>
        <time>2019-03-14T15:12:06Z</time>
      </trkpt>
      <trkpt lat="30.350216338410974" lon="-5.637835711240768">
        <ele>752.37</ele>
        <time>2019-03-14T15:12:07Z</time>
      </trkpt>
      <trkpt lat="30.350142493844032" lon="-5.637816516682506">
        <ele>751.88999999999999</ele>
        <time>2019-03-14T15:12:10Z</time>
      </trkpt>
      <trkpt lat="30.350074265152216" lon="-5.637790448963642">
        <ele>751.40999999999997</ele>
        <time>2019-03-14T15:12:11Z</time>
      </trkpt>
      <trkpt lat="30.350007461383939" lon="-5.637761866673827">
        <ele>750.92999999999995</ele>
        <time>2019-03-14T15:12:12Z</time>
      </trkpt>
      <trkpt lat="30.349834458902478" lon="-5.637657847255468">
        <ele>750.45000000000005</ele>
        <time>2019-03-14T15:12:14Z</time>
      </trkpt>
      <trkpt lat="30.349790789186954" lon="-5.63760906457901">
        <ele>749.49000000000001</ele>
        <time>2019-03-14T15:12:15Z</time>
      </trkpt>
      <trkpt lat="30.349750472232699" lon="-5.637552067637444">
        <ele>749.49000000000001</ele>
        <time>2019-03-14T15:12:16Z</time>
      </trkpt>
      <trkpt lat="30.349672771990299" lon="-5.637420304119587">
        <ele>748.51999999999998</ele>
        <time>2019-03-14T15:12:17Z</time>
      </trkpt>
      <trkpt lat="30.349652655422688" lon="-5.637351740151644">
        <ele>748.03999999999996</ele>
        <time>2019-03-14T15:12:18Z</time>
      </trkpt>
      <trkpt lat="30.349651984870434" lon="-5.637277476489544">
        <ele>747.55999999999995</ele>
        <time>2019-03-14T15:12:19Z</time>
      </trkpt>
      <trkpt lat="30.349664557725191" lon="-5.637199189513922">
        <ele>747.08000000000004</ele>
        <time>2019-03-14T15:12:21Z</time>
      </trkpt>
      <trkpt lat="30.349683584645391" lon="-5.637117130681872">
        <ele>746.60000000000002</ele>
        <time>2019-03-14T15:12:22Z</time>
      </trkpt>
      <trkpt lat="30.349704958498478" lon="-5.637034485116601">
        <ele>746.12</ele>
        <time>2019-03-14T15:12:23Z</time>
      </trkpt>
      <trkpt lat="30.349736977368593" lon="-5.636874809861183">
        <ele>745.63999999999999</ele>
        <time>2019-03-14T15:12:24Z</time>
      </trkpt>
      <trkpt lat="30.349731193855405" lon="-5.636799205094576">
        <ele>745.15999999999997</ele>
        <time>2019-03-14T15:12:25Z</time>
      </trkpt>
      <trkpt lat="30.349704204127192" lon="-5.636730138212442">
        <ele>744.67999999999995</ele>
        <time>2019-03-14T15:12:26Z</time>
      </trkpt>
      <trkpt lat="30.34966304898262" lon="-5.636668028309941">
        <ele>744.67999999999995</ele>
        <time>2019-03-14T15:12:27Z</time>
      </trkpt>
      <trkpt lat="30.349617702886462" lon="-5.636604828760028">
        <ele>743.72000000000003</ele>
        <time>2019-03-14T15:12:28Z</time>
      </trkpt>
      <trkpt lat="30.349577218294144" lon="-5.63653115183115">
        <ele>743.72000000000003</ele>
        <time>2019-03-14T15:12:29Z</time>
      </trkpt>
      <trkpt lat="30.349545031785965" lon="-5.636448422446847">
        <ele>740.83000000000004</ele>
        <time>2019-03-14T15:12:30Z</time>
      </trkpt>
      <trkpt lat="30.34951988607645" lon="-5.636366279795766">
        <ele>739.38999999999999</ele>
        <time>2019-03-14T15:12:31Z</time>
      </trkpt>
      <trkpt lat="30.349492058157921" lon="-5.636289920657873">
        <ele>739.38999999999999</ele>
        <time>2019-03-14T15:12:32Z</time>
      </trkpt>
      <trkpt lat="30.3494534175843" lon="-5.636221440508962">
        <ele>739.38999999999999</ele>
        <time>2019-03-14T15:12:33Z</time>
      </trkpt>
      <trkpt lat="30.349406814202666" lon="-5.636160420253873">
        <ele>736.02999999999997</ele>
        <time>2019-03-14T15:12:34Z</time>
      </trkpt>
      <trkpt lat="30.349346967414021" lon="-5.636106859892607">
        <ele>736.50999999999999</ele>
        <time>2019-03-14T15:12:43Z</time>
      </trkpt>
      <trkpt lat="30.349278403446078" lon="-5.636055897921324">
        <ele>734.10000000000002</ele>
        <time>2019-03-14T15:12:53Z</time>
      </trkpt>
      <trkpt lat="30.349206486716866" lon="-5.636014072224498">
        <ele>734.10000000000002</ele>
        <time>2019-03-14T15:12:55Z</time>
      </trkpt>
      <trkpt lat="30.348481955006719" lon="-5.635756999254227">
        <ele>734.10000000000002</ele>
        <time>2019-03-14T15:12:56Z</time>
      </trkpt>
      <trkpt lat="30.34751602448523" lon="-5.635706959292293">
        <ele>732.65999999999997</ele>
        <time>2019-03-14T15:13:09Z</time>
      </trkpt>
      <trkpt lat="30.347341010347009" lon="-5.635713748633862">
        <ele>732.65999999999997</ele>
        <time>2019-03-14T15:13:16Z</time>
      </trkpt>
      <trkpt lat="30.347253168001771" lon="-5.635699080303311">
        <ele>730.25999999999999</ele>
        <time>2019-03-14T15:13:48Z</time>
      </trkpt>
      <trkpt lat="30.346068302169442" lon="-5.635524149984121">
        <ele>729.77999999999997</ele>
        <time>2019-03-14T15:14:05Z</time>
      </trkpt>
      <trkpt lat="30.345910722389817" lon="-5.63549816608429">
        <ele>727.86000000000001</ele>
        <time>2019-03-14T15:14:13Z</time>
      </trkpt>
      <trkpt lat="30.345915416255593" lon="-5.635503530502319">
        <ele>727.37</ele>
        <time>2019-03-14T15:14:23Z</time>
      </trkpt>
      <trkpt lat="30.345667647197843" lon="-5.635463465005159">
        <ele>725.92999999999995</ele>
        <time>2019-03-14T15:14:33Z</time>
      </trkpt>
      <trkpt lat="30.344996927306056" lon="-5.635348968207836">
        <ele>726.40999999999997</ele>
        <time>2019-03-14T15:14:41Z</time>
      </trkpt>
      <trkpt lat="30.343783646821976" lon="-5.635156184434891">
        <ele>724.49000000000001</ele>
        <time>2019-03-14T15:14:52Z</time>
      </trkpt>
      <trkpt lat="30.342524433508515" lon="-5.634940350428224">
        <ele>723.04999999999995</ele>
        <time>2019-03-14T15:15:04Z</time>
      </trkpt>
      <trkpt lat="30.341594126075506" lon="-5.634953174740076">
        <ele>721.13</ele>
        <time>2019-03-14T15:15:13Z</time>
      </trkpt>
      <trkpt lat="30.340325692668557" lon="-5.634985864162445">
        <ele>719.20000000000005</ele>
        <time>2019-03-14T15:15:25Z</time>
      </trkpt>
      <trkpt lat="30.338852992281318" lon="-5.634799031540752">
        <ele>717.27999999999997</ele>
        <time>2019-03-14T15:15:34Z</time>
      </trkpt>
      <trkpt lat="30.337759992107749" lon="-5.634470377117395">
        <ele>717.75999999999999</ele>
        <time>2019-03-14T15:15:43Z</time>
      </trkpt>
      <trkpt lat="30.336193665862083" lon="-5.633813152089715">
        <ele>716.79999999999995</ele>
        <time>2019-03-14T15:15:55Z</time>
      </trkpt>
      <trkpt lat="30.335204768925905" lon="-5.633380142971873">
        <ele>714.39999999999998</ele>
        <time>2019-03-14T15:16:05Z</time>
      </trkpt>
      <trkpt lat="30.33419156447053" lon="-5.632897932082415">
        <ele>713.91999999999996</ele>
        <time>2019-03-14T15:16:18Z</time>
      </trkpt>
      <trkpt lat="30.332611240446568" lon="-5.632378840819001">
        <ele>711.99000000000001</ele>
        <time>2019-03-14T15:16:30Z</time>
      </trkpt>
      <trkpt lat="30.33125102519989" lon="-5.632133418694139">
        <ele>711.02999999999997</ele>
        <time>2019-03-14T15:16:41Z</time>
      </trkpt>
      <trkpt lat="30.329366773366928" lon="-5.631712479516864">
        <ele>710.07000000000005</ele>
        <time>2019-03-14T15:16:52Z</time>
      </trkpt>
      <trkpt lat="30.327676394954324" lon="-5.631263293325901">
        <ele>710.07000000000005</ele>
        <time>2019-03-14T15:17:06Z</time>
      </trkpt>
      <trkpt lat="30.326198833063245" lon="-5.631111497059465">
        <ele>708.63</ele>
        <time>2019-03-14T15:17:17Z</time>
      </trkpt>
      <trkpt lat="30.324605265632272" lon="-5.631056092679501">
        <ele>707.19000000000005</ele>
        <time>2019-03-14T15:17:29Z</time>
      </trkpt>
      <trkpt lat="30.322485314682126" lon="-5.630824835970998">
        <ele>706.23000000000002</ele>
        <time>2019-03-14T15:17:40Z</time>
      </trkpt>
      <trkpt lat="30.32087741419673" lon="-5.630561979487538">
        <ele>704.77999999999997</ele>
        <time>2019-03-14T15:17:53Z</time>
      </trkpt>
      <trkpt lat="30.319077065214515" lon="-5.630006091669202">
        <ele>704.77999999999997</ele>
        <time>2019-03-14T15:18:01Z</time>
      </trkpt>
      <trkpt lat="30.317530268803239" lon="-5.629536537453532">
        <ele>704.29999999999995</ele>
        <time>2019-03-14T15:18:10Z</time>
      </trkpt>
      <trkpt lat="30.315498998388648" lon="-5.629172176122665">
        <ele>704.29999999999995</ele>
        <time>2019-03-14T15:18:22Z</time>
      </trkpt>
      <trkpt lat="30.314499959349632" lon="-5.629187598824501">
        <ele>705.25999999999999</ele>
        <time>2019-03-14T15:18:32Z</time>
      </trkpt>
      <trkpt lat="30.313098253682256" lon="-5.629115095362067">
        <ele>703.82000000000005</ele>
        <time>2019-03-14T15:18:45Z</time>
      </trkpt>
      <trkpt lat="30.311351465061307" lon="-5.628900518640876">
        <ele>703.34000000000003</ele>
        <time>2019-03-14T15:18:57Z</time>
      </trkpt>
      <trkpt lat="30.310002230107784" lon="-5.628566835075617">
        <ele>702.38</ele>
        <time>2019-03-14T15:19:03Z</time>
      </trkpt>
      <trkpt lat="30.308178663253784" lon="-5.627722023054957">
        <ele>700.94000000000005</ele>
        <time>2019-03-14T15:19:04Z</time>
      </trkpt>
      <trkpt lat="30.30648241750896" lon="-5.626753326505423">
        <ele>700.46000000000004</ele>
        <time>2019-03-14T15:19:11Z</time>
      </trkpt>
      <trkpt lat="30.305887218564749" lon="-5.626440346240997">
        <ele>699.01999999999998</ele>
        <time>2019-03-14T15:19:20Z</time>
      </trkpt>
      <trkpt lat="30.305825024843216" lon="-5.62639944255352">
        <ele>697.09000000000003</ele>
        <time>2019-03-14T15:19:28Z</time>
      </trkpt>
      <trkpt lat="30.305379442870617" lon="-5.626004571095109">
        <ele>696.61000000000001</ele>
        <time>2019-03-14T15:19:34Z</time>
      </trkpt>
      <trkpt lat="30.304529266431928" lon="-5.624970747157931">
        <ele>695.64999999999998</ele>
        <time>2019-03-14T15:19:42Z</time>
      </trkpt>
      <trkpt lat="30.303546153008938" lon="-5.624155774712563">
        <ele>695.16999999999996</ele>
        <time>2019-03-14T15:19:48Z</time>
      </trkpt>
      <trkpt lat="30.302798906341195" lon="-5.623601479455829">
        <ele>694.69000000000005</ele>
        <time>2019-03-14T15:19:59Z</time>
      </trkpt>
      <trkpt lat="30.301673719659448" lon="-5.623106360435486">
        <ele>694.69000000000005</ele>
        <time>2019-03-14T15:20:12Z</time>
      </trkpt>
      <trkpt lat="30.300948014482856" lon="-5.623037209734321">
        <ele>694.21000000000004</ele>
        <time>2019-03-14T15:20:23Z</time>
      </trkpt>
      <trkpt lat="30.299334498122334" lon="-5.622561704367399">
        <ele>693.73000000000002</ele>
        <time>2019-03-14T15:20:34Z</time>
      </trkpt>
      <trkpt lat="30.297228209674358" lon="-5.622090892866254">
        <ele>692.28999999999996</ele>
        <time>2019-03-14T15:20:37Z</time>
      </trkpt>
      <trkpt lat="30.295428782701492" lon="-5.621552271768451">
        <ele>691.33000000000004</ele>
        <time>2019-03-14T15:20:48Z</time>
      </trkpt>
      <trkpt lat="30.29365936294198" lon="-5.620907200500369">
        <ele>691.80999999999995</ele>
        <time>2019-03-14T15:20:58Z</time>
      </trkpt>
      <trkpt lat="30.293178241699934" lon="-5.620726821944118">
        <ele>691.33000000000004</ele>
        <time>2019-03-14T15:21:07Z</time>
      </trkpt>
      <trkpt lat="30.291345035657287" lon="-5.620454577729106">
        <ele>690.84000000000003</ele>
        <time>2019-03-14T15:21:17Z</time>
      </trkpt>
      <trkpt lat="30.289838640019298" lon="-5.620365645736456">
        <ele>691.33000000000004</ele>
        <time>2019-03-14T15:21:27Z</time>
      </trkpt>
      <trkpt lat="30.288435090333223" lon="-5.620370171964169">
        <ele>690.84000000000003</ele>
        <time>2019-03-14T15:21:36Z</time>
      </trkpt>
      <trkpt lat="30.286851413547993" lon="-5.620246035978198">
        <ele>691.33000000000004</ele>
        <time>2019-03-14T15:21:46Z</time>
      </trkpt>
      <trkpt lat="30.28540788218379" lon="-5.620068423449993">
        <ele>690.84000000000003</ele>
        <time>2019-03-14T15:21:56Z</time>
      </trkpt>
      <trkpt lat="30.284353354945779" lon="-5.619941018521786">
        <ele>690.84000000000003</ele>
        <time>2019-03-14T15:22:00Z</time>
      </trkpt>
      <trkpt lat="30.283289020881057" lon="-5.620209826156497">
        <ele>690.36000000000001</ele>
        <time>2019-03-14T15:22:09Z</time>
      </trkpt>
      <trkpt lat="30.282461475580931" lon="-5.62020655721426">
        <ele>688.44000000000005</ele>
        <time>2019-03-14T15:22:14Z</time>
      </trkpt>
      <trkpt lat="30.282256789505482" lon="-5.620102537795901">
        <ele>687.96000000000004</ele>
        <time>2019-03-14T15:22:18Z</time>
      </trkpt>
      <trkpt lat="30.281793186441064" lon="-5.619597947224975">
        <ele>687.96000000000004</ele>
        <time>2019-03-14T15:22:20Z</time>
      </trkpt>
      <trkpt lat="30.281442068517208" lon="-5.619243644177914">
        <ele>687.96000000000004</ele>
        <time>2019-03-14T15:22:29Z</time>
      </trkpt>
      <trkpt lat="30.28114752843976" lon="-5.619141468778253">
        <ele>687.48000000000002</ele>
        <time>2019-03-14T15:22:38Z</time>
      </trkpt>
      <trkpt lat="30.280972849577665" lon="-5.619173487648368">
        <ele>687</ele>
        <time>2019-03-14T15:22:53Z</time>
      </trkpt>
      <trkpt lat="30.280047403648496" lon="-5.618919264525175">
        <ele>687</ele>
        <time>2019-03-14T15:22:57Z</time>
      </trkpt>
      <trkpt lat="30.27900050394237" lon="-5.618530679494143">
        <ele>687</ele>
        <time>2019-03-14T15:23:01Z</time>
      </trkpt>
      <trkpt lat="30.27711583301425" lon="-5.617978647351265">
        <ele>686.51999999999998</ele>
        <time>2019-03-14T15:23:10Z</time>
      </trkpt>
      <trkpt lat="30.27666631154716" lon="-5.61790656298399">
        <ele>686.51999999999998</ele>
        <time>2019-03-14T15:23:22Z</time>
      </trkpt>
      <trkpt lat="30.276303542777896" lon="-5.617889128625393">
        <ele>686.51999999999998</ele>
        <time>2019-03-14T15:23:34Z</time>
      </trkpt>
      <trkpt lat="30.275354124605656" lon="-5.617556031793356">
        <ele>686.51999999999998</ele>
        <time>2019-03-14T15:23:41Z</time>
      </trkpt>
      <trkpt lat="30.274052834138274" lon="-5.617223773151636">
        <ele>685.55999999999995</ele>
        <time>2019-03-14T15:23:50Z</time>
      </trkpt>
      <trkpt lat="30.272755566984415" lon="-5.61672848649323">
        <ele>685.08000000000004</ele>
        <time>2019-03-14T15:23:52Z</time>
      </trkpt>
      <trkpt lat="30.272048301994801" lon="-5.616339901462197">
        <ele>685.55999999999995</ele>
        <time>2019-03-14T15:24:03Z</time>
      </trkpt>
      <trkpt lat="30.271478584036231" lon="-5.61571016907692">
        <ele>685.08000000000004</ele>
        <time>2019-03-14T15:24:09Z</time>
      </trkpt>
      <trkpt lat="30.271391244605184" lon="-5.615590643137693">
        <ele>685.08000000000004</ele>
        <time>2019-03-14T15:24:13Z</time>
      </trkpt>
      <trkpt lat="30.270915823057294" lon="-5.614768629893661">
        <ele>683.14999999999998</ele>
        <time>2019-03-14T15:24:24Z</time>
      </trkpt>
      <trkpt lat="30.270758327096701" lon="-5.6144402269274">
        <ele>681.23000000000002</ele>
        <time>2019-03-14T15:24:36Z</time>
      </trkpt>
      <trkpt lat="30.270642153918743" lon="-5.614176196977496">
        <ele>681.23000000000002</ele>
        <time>2019-03-14T15:24:43Z</time>
      </trkpt>
      <trkpt lat="30.26981620118022" lon="-5.613204566761851">
        <ele>681.71000000000004</ele>
        <time>2019-03-14T15:24:45Z</time>
      </trkpt>
      <trkpt lat="30.269007431343198" lon="-5.612005703151226">
        <ele>682.19000000000005</ele>
        <time>2019-03-14T15:24:53Z</time>
      </trkpt>
      <trkpt lat="30.268849013373256" lon="-5.611688531935215">
        <ele>682.66999999999996</ele>
        <time>2019-03-14T15:25:26Z</time>
      </trkpt>
      <trkpt lat="30.268829902634025" lon="-5.6116633862257">
        <ele>682.19000000000005</ele>
        <time>2019-03-14T15:25:56Z</time>
      </trkpt>
      <trkpt lat="30.268707359209657" lon="-5.611722227185965">
        <ele>682.19000000000005</ele>
        <time>2019-03-14T15:26:04Z</time>
      </trkpt>
      <trkpt lat="30.268711633980274" lon="-5.611718455329537">
        <ele>681.71000000000004</ele>
        <time>2019-03-14T15:26:14Z</time>
      </trkpt>
      <trkpt lat="30.26870802976191" lon="-5.611720299348235">
        <ele>682.66999999999996</ele>
        <time>2019-03-14T15:26:25Z</time>
      </trkpt>
      <trkpt lat="30.268496554344893" lon="-5.611907802522183">
        <ele>682.19000000000005</ele>
        <time>2019-03-14T15:26:35Z</time>
      </trkpt>
      <trkpt lat="30.267838826403022" lon="-5.612470144405961">
        <ele>681.23000000000002</ele>
        <time>2019-03-14T15:26:39Z</time>
      </trkpt>
      <trkpt lat="30.267082275822759" lon="-5.613072216510773">
        <ele>680.75</ele>
        <time>2019-03-14T15:26:47Z</time>
      </trkpt>
      <trkpt lat="30.266509540379047" lon="-5.613508829846978">
        <ele>681.23000000000002</ele>
        <time>2019-03-14T15:26:57Z</time>
      </trkpt>
      <trkpt lat="30.26626830920577" lon="-5.613730028271675">
        <ele>681.23000000000002</ele>
        <time>2019-03-14T15:27:06Z</time>
      </trkpt>
      <trkpt lat="30.265868827700615" lon="-5.614033369347453">
        <ele>680.75</ele>
        <time>2019-03-14T15:27:12Z</time>
      </trkpt>
      <trkpt lat="30.265350323170424" lon="-5.614463528618217">
        <ele>680.75</ele>
        <time>2019-03-14T15:27:59Z</time>
      </trkpt>
      <trkpt lat="30.26499442756176" lon="-5.614728899672627">
        <ele>680.26999999999998</ele>
        <time>2019-03-14T15:28:07Z</time>
      </trkpt>
      <trkpt lat="30.264647332951427" lon="-5.614897627383471">
        <ele>679.78999999999996</ele>
        <time>2019-03-14T15:28:14Z</time>
      </trkpt>
      <trkpt lat="30.264158500358462" lon="-5.615142630413175">
        <ele>680.26999999999998</ele>
        <time>2019-03-14T15:28:16Z</time>
      </trkpt>
      <trkpt lat="30.263546705245972" lon="-5.615156125277281">
        <ele>679.78999999999996</ele>
        <time>2019-03-14T15:28:25Z</time>
      </trkpt>
      <trkpt lat="30.263166083022952" lon="-5.615193508565426">
        <ele>681.23000000000002</ele>
        <time>2019-03-14T15:28:27Z</time>
      </trkpt>
      <trkpt lat="30.263048987835646" lon="-5.615194346755743">
        <ele>680.75</ele>
        <time>2019-03-14T15:28:39Z</time>
      </trkpt>
      <trkpt lat="30.262462003156543" lon="-5.615211613476276">
        <ele>678.83000000000004</ele>
        <time>2019-03-14T15:28:50Z</time>
      </trkpt>
      <trkpt lat="30.26232504285872" lon="-5.615198286250234">
        <ele>678.35000000000002</ele>
        <time>2019-03-14T15:28:58Z</time>
      </trkpt>
      <trkpt lat="30.261475620791316" lon="-5.615233071148396">
        <ele>678.35000000000002</ele>
        <time>2019-03-14T15:29:11Z</time>
      </trkpt>
      <trkpt lat="30.260620666667819" lon="-5.615163585171104">
        <ele>678.83000000000004</ele>
        <time>2019-03-14T15:29:28Z</time>
      </trkpt>
      <trkpt lat="30.259888423606753" lon="-5.614862842485309">
        <ele>677.87</ele>
        <time>2019-03-14T15:29:38Z</time>
      </trkpt>
      <trkpt lat="30.258887205272913" lon="-5.613898923620582">
        <ele>677.87</ele>
        <time>2019-03-14T15:29:49Z</time>
      </trkpt>
      <trkpt lat="30.257507041096687" lon="-5.612585982307792">
        <ele>678.35000000000002</ele>
        <time>2019-03-14T15:29:58Z</time>
      </trkpt>
      <trkpt lat="30.256498362869024" lon="-5.612223129719496">
        <ele>679.30999999999995</ele>
        <time>2019-03-14T15:30:05Z</time>
      </trkpt>
      <trkpt lat="30.255359094589949" lon="-5.6116599496454">
        <ele>679.30999999999995</ele>
        <time>2019-03-14T15:30:09Z</time>
      </trkpt>
      <trkpt lat="30.25436919182539" lon="-5.61119525693357">
        <ele>679.30999999999995</ele>
        <time>2019-03-14T15:30:18Z</time>
      </trkpt>
      <trkpt lat="30.25368413887918" lon="-5.610638028010726">
        <ele>678.35000000000002</ele>
        <time>2019-03-14T15:30:23Z</time>
      </trkpt>
      <trkpt lat="30.253241322934628" lon="-5.610457230359316">
        <ele>676.90999999999997</ele>
        <time>2019-03-14T15:30:27Z</time>
      </trkpt>
      <trkpt lat="30.252439677715302" lon="-5.610398389399052">
        <ele>675.94000000000005</ele>
        <time>2019-03-14T15:30:38Z</time>
      </trkpt>
      <trkpt lat="30.25195000693202" lon="-5.610429486259818">
        <ele>675.94000000000005</ele>
        <time>2019-03-14T15:30:42Z</time>
      </trkpt>
      <trkpt lat="30.251596458256245" lon="-5.610526632517576">
        <ele>675.46000000000004</ele>
        <time>2019-03-14T15:30:48Z</time>
      </trkpt>
      <trkpt lat="30.25070839561522" lon="-5.611093752086163">
        <ele>674.98000000000002</ele>
        <time>2019-03-14T15:30:57Z</time>
      </trkpt>
      <trkpt lat="30.250432379543781" lon="-5.611389465630055">
        <ele>675.46000000000004</ele>
        <time>2019-03-14T15:31:06Z</time>
      </trkpt>
      <trkpt lat="30.250076400116086" lon="-5.611520726233721">
        <ele>675.46000000000004</ele>
        <time>2019-03-14T15:31:17Z</time>
      </trkpt>
      <trkpt lat="30.249553034082055" lon="-5.611342862248421">
        <ele>674.98000000000002</ele>
        <time>2019-03-14T15:31:27Z</time>
      </trkpt>
      <trkpt lat="30.248532453551888" lon="-5.61092653311789">
        <ele>675.46000000000004</ele>
        <time>2019-03-14T15:31:33Z</time>
      </trkpt>
      <trkpt lat="30.247180368751287" lon="-5.610405178740621">
        <ele>675.46000000000004</ele>
        <time>2019-03-14T15:31:38Z</time>
      </trkpt>
      <trkpt lat="30.246170433238149" lon="-5.609935540705919">
        <ele>676.90999999999997</ele>
        <time>2019-03-14T15:31:49Z</time>
      </trkpt>
      <trkpt lat="30.245503485202789" lon="-5.609873849898577">
        <ele>676.90999999999997</ele>
        <time>2019-03-14T15:31:59Z</time>
      </trkpt>
      <trkpt lat="30.245012305676937" lon="-5.609662961214781">
        <ele>676.90999999999997</ele>
        <time>2019-03-14T15:32:11Z</time>
      </trkpt>
      <trkpt lat="30.244192136451602" lon="-5.608869194984436">
        <ele>677.38999999999999</ele>
        <time>2019-03-14T15:32:23Z</time>
      </trkpt>
      <trkpt lat="30.243634404614568" lon="-5.60829964466393">
        <ele>677.38999999999999</ele>
        <time>2019-03-14T15:32:26Z</time>
      </trkpt>
      <trkpt lat="30.243194941431284" lon="-5.607635797932744">
        <ele>677.38999999999999</ele>
        <time>2019-03-14T15:32:38Z</time>
      </trkpt>
      <trkpt lat="30.242688590660691" lon="-5.606944039463997">
        <ele>676.90999999999997</ele>
        <time>2019-03-14T15:32:50Z</time>
      </trkpt>
      <trkpt lat="30.242586582899094" lon="-5.606854604557157">
        <ele>676.90999999999997</ele>
        <time>2019-03-14T15:33:03Z</time>
      </trkpt>
      <trkpt lat="30.242165140807629" lon="-5.606689648702741">
        <ele>676.90999999999997</ele>
        <time>2019-03-14T15:33:05Z</time>
      </trkpt>
      <trkpt lat="30.24171520024538" lon="-5.606564842164516">
        <ele>676.41999999999996</ele>
        <time>2019-03-14T15:33:06Z</time>
      </trkpt>
      <trkpt lat="30.24102377705276" lon="-5.606480017304421">
        <ele>675.94000000000005</ele>
        <time>2019-03-14T15:42:40Z</time>
      </trkpt>
      <trkpt lat="30.24090894497931" lon="-5.606449842453003">
        <ele>676.41999999999996</ele>
        <time>2019-03-14T15:42:52Z</time>
      </trkpt>
      <trkpt lat="30.240847002714872" lon="-5.606442885473371">
        <ele>675.94000000000005</ele>
        <time>2019-03-14T15:42:55Z</time>
      </trkpt>
      <trkpt lat="30.240248953923583" lon="-5.606275917962194">
        <time>2019-03-14T15:42:59Z</time>
      </trkpt>
      <trkpt lat="30.24008852429688" lon="-5.605296576395631">
        <time>2019-03-14T15:43:12Z</time>
      </trkpt>
      <trkpt lat="30.240029599517584" lon="-5.605094823986292">
        <time>2019-03-14T15:43:15Z</time>
      </trkpt>
      <trkpt lat="30.239926753565669" lon="-5.604832638055086">
        <time>2019-03-14T15:43:20Z</time>
      </trkpt>
      <trkpt lat="30.239672111347318" lon="-5.603913897648454">
        <time>2019-03-14T15:43:31Z</time>
      </trkpt>
      <trkpt lat="30.239623328670859" lon="-5.603677108883858"/>
      <trkpt lat="30.239518135786057" lon="-5.603371923789382"/>
      <trkpt lat="30.239333063364029" lon="-5.602702628821135"/>
      <trkpt lat="30.239258045330644" lon="-5.602634316310287">
        <ele>675.80291699999998</ele>
        <time>2019-04-16T08:23:25Z</time>
      </trkpt>
      <trkpt lat="30.225795032456517" lon="-5.598238008096814">
        <ele>630.40570100000002</ele>
        <time>2019-03-14T15:53:22Z</time>
      </trkpt>
      <trkpt lat="30.009635975584388" lon="-5.50246998667717">
        <ele>617.16857900000002</ele>
        <time>2019-03-14T16:21:10Z</time>
      </trkpt>
      <trkpt lat="30.010711038485169" lon="-5.508503029122949">
        <ele>616.684753</ele>
        <time>2019-03-14T16:22:32Z</time>
      </trkpt>
      <trkpt lat="30.010006036609411" lon="-5.514537999406457">
        <ele>617.832764</ele>
        <time>2019-03-14T16:24:23Z</time>
      </trkpt>
      <trkpt lat="29.988623969256878" lon="-5.584060018882155">
        <ele>617.42913799999997</ele>
        <time>2019-03-14T16:39:56Z</time>
      </trkpt>
      <trkpt lat="29.98940097168088" lon="-5.584226986393333">
        <ele>617.74114999999995</ele>
        <time>2019-03-14T16:40:14Z</time>
      </trkpt>
      <trkpt lat="29.9906259868294" lon="-5.584024982526898">
        <ele>534.22668499999997</ele>
        <time>2019-03-14T16:40:56Z</time>
      </trkpt>
      <trkpt lat="29.868864007294178" lon="-6.006924016401172">
        <ele>531.65741000000003</ele>
        <time>2019-03-14T18:05:07Z</time>
      </trkpt>
      <trkpt lat="29.88315599039197" lon="-6.118684038519859">
        <ele>496.40277099999997</ele>
        <time>2019-03-15T08:27:42Z</time>
      </trkpt>
      <trkpt lat="29.884253600612283" lon="-6.12070013768971">
        <ele>474.82488999999998</ele>
        <time>2019-04-21T11:23:04Z</time>
      </trkpt>
      <trkpt lat="29.845052026212215" lon="-6.201970987021923">
        <ele>476.21795700000001</ele>
        <time>2019-03-15T08:08:30Z</time>
      </trkpt>
      <trkpt lat="29.953526007011533" lon="-6.353451004251838">
        <ele>0</ele>
        <time>2019-03-15T09:36:24Z</time>
      </trkpt>
      <trkpt lat="29.943753965198994" lon="-6.382115017622709">
        <ele>648.52484100000004</ele>
        <time>2019-03-15T09:41:04Z</time>
      </trkpt>
      <trkpt lat="30.051874984055758" lon="-6.864583315327764">
        <ele>677.87</ele>
        <time>2019-04-16T08:41:03Z</time>
      </trkpt>
      <trkpt lat="30.06032201461494" lon="-6.869331998750567">
        <ele>677.38999999999999</ele>
        <time>2019-03-15T11:14:53Z</time>
      </trkpt>
      <trkpt lat="30.090082967653871" lon="-6.87765983864665">
        <ele>677.87</ele>
        <time>2019-04-16T08:42:34Z</time>
      </trkpt>
      <trkpt lat="30.128604182973504" lon="-6.86765662394464">
        <ele>677.38999999999999</ele>
        <time>2019-04-16T08:46:17Z</time>
      </trkpt>
      <trkpt lat="30.239246394485235" lon="-5.602633729577065">
        <ele>676.90999999999997</ele>
        <time>2019-03-14T15:49:53Z</time>
      </trkpt>
      <trkpt lat="30.238994266837835" lon="-5.603017704561353">
        <ele>677.38999999999999</ele>
        <time>2019-03-14T15:50:01Z</time>
      </trkpt>
      <trkpt lat="30.23867298848927" lon="-5.603485079482198">
        <ele>677.87</ele>
        <time>2019-03-14T15:50:14Z</time>
      </trkpt>
      <trkpt lat="30.238300999626517" lon="-5.604092516005039">
        <ele>678.83000000000004</ele>
        <time>2019-03-14T15:50:27Z</time>
      </trkpt>
      <trkpt lat="30.23829622194171" lon="-5.604100478813052">
        <ele>679.30999999999995</ele>
        <time>2019-03-14T15:50:38Z</time>
      </trkpt>
      <trkpt lat="30.23810519836843" lon="-5.604185303673148">
        <ele>679.30999999999995</ele>
        <time>2019-03-14T15:50:50Z</time>
      </trkpt>
      <trkpt lat="30.238060690462589" lon="-5.604186644777656">
        <ele>679.78999999999996</ele>
        <time>2019-03-14T15:50:51Z</time>
      </trkpt>
      <trkpt lat="30.237532127648592" lon="-5.604342631995678">
        <ele>679.78999999999996</ele>
        <time>2019-03-14T15:51:01Z</time>
      </trkpt>
      <trkpt lat="30.237355185672641" lon="-5.604445142671466">
        <ele>679.78999999999996</ele>
        <time>2019-03-14T15:51:05Z</time>
      </trkpt>
      <trkpt lat="30.236965427175164" lon="-5.60446391813457">
        <ele>680.26999999999998</ele>
        <time>2019-03-14T15:51:12Z</time>
      </trkpt>
      <trkpt lat="30.236004525795579" lon="-5.604101233184338">
        <ele>680.26999999999998</ele>
        <time>2019-03-14T15:51:23Z</time>
      </trkpt>
      <trkpt lat="30.235913246870041" lon="-5.604068962857127">
        <ele>679.78999999999996</ele>
        <time>2019-03-14T15:51:24Z</time>
      </trkpt>
      <trkpt lat="30.235735047608614" lon="-5.604026047512889">
        <ele>679.30999999999995</ele>
        <time>2019-03-14T15:51:26Z</time>
      </trkpt>
      <trkpt lat="30.23464129306376" lon="-5.603538053110242">
        <ele>678.83000000000004</ele>
        <time>2019-03-14T15:51:38Z</time>
      </trkpt>
      <trkpt lat="30.234360247850418" lon="-5.603375779464841">
        <ele>679.30999999999995</ele>
        <time>2019-03-14T15:51:41Z</time>
      </trkpt>
      <trkpt lat="30.233513424172997" lon="-5.602966574952006">
        <ele>679.30999999999995</ele>
        <time>2019-03-14T15:51:50Z</time>
      </trkpt>
      <trkpt lat="30.232988968491554" lon="-5.60278401710093">
        <ele>677.87</ele>
        <time>2019-03-14T15:51:55Z</time>
      </trkpt>
      <trkpt lat="30.231847353279591" lon="-5.602361653000116">
        <ele>675.94000000000005</ele>
        <time>2019-03-14T15:52:06Z</time>
      </trkpt>
      <trkpt lat="30.231742411851883" lon="-5.602349080145359">
        <ele>675.94000000000005</ele>
        <time>2019-03-14T15:52:07Z</time>
      </trkpt>
      <trkpt lat="30.230850912630558" lon="-5.601886818185449">
        <ele>675.94000000000005</ele>
        <time>2019-03-14T15:52:16Z</time>
      </trkpt>
      <trkpt lat="30.230078855529428" lon="-5.601310729980469">
        <ele>674.98000000000002</ele>
        <time>2019-03-14T15:52:24Z</time>
      </trkpt>
      <trkpt lat="30.229236306622624" lon="-5.600443286821246">
        <ele>674.98000000000002</ele>
        <time>2019-03-14T15:52:35Z</time>
      </trkpt>
      <trkpt lat="30.229077637195587" lon="-5.600351002067328">
        <ele>675.94000000000005</ele>
        <time>2019-03-14T15:52:37Z</time>
      </trkpt>
      <trkpt lat="30.228093098849058" lon="-5.599520355463028">
        <ele>674.5</ele>
        <time>2019-03-14T15:52:49Z</time>
      </trkpt>
      <trkpt lat="30.226962044835091" lon="-5.598647128790617">
        <ele>674.5</ele>
        <time>2019-03-14T15:53:02Z</time>
      </trkpt>
      <trkpt lat="30.226077502593398" lon="-5.598256615921855">
        <ele>674.5</ele>
        <time>2019-03-14T15:53:12Z</time>
      </trkpt>
      <trkpt lat="30.225850185379386" lon="-5.598192242905498">
        <ele>674.5</ele>
        <time>2019-03-14T15:53:18Z</time>
      </trkpt>
      <trkpt lat="30.225748512893915" lon="-5.59825049713254">
        <ele>674.5</ele>
        <time>2019-03-14T15:53:29Z</time>
      </trkpt>
      <trkpt lat="30.225716577842832" lon="-5.598235912621021">
        <ele>673.05999999999995</ele>
        <time>2019-03-14T15:53:30Z</time>
      </trkpt>
      <trkpt lat="30.225688247010112" lon="-5.598206911236048">
        <ele>673.05999999999995</ele>
        <time>2019-03-14T15:53:31Z</time>
      </trkpt>
      <trkpt lat="30.225663520395756" lon="-5.598166007548571">
        <ele>674.98000000000002</ele>
        <time>2019-03-14T15:53:32Z</time>
      </trkpt>
      <trkpt lat="30.225638709962368" lon="-5.598113955929875">
        <ele>674.5</ele>
        <time>2019-03-14T15:53:33Z</time>
      </trkpt>
      <trkpt lat="30.225271331146359" lon="-5.597288003191352">
        <ele>673.53999999999996</ele>
        <time>2019-03-14T15:53:43Z</time>
      </trkpt>
      <trkpt lat="30.224583009257913" lon="-5.595735590904951">
        <ele>671.13999999999999</ele>
        <time>2019-03-14T15:53:55Z</time>
      </trkpt>
      <trkpt lat="30.22333636879921" lon="-5.59280569665134">
        <ele>671.13999999999999</ele>
        <time>2019-03-14T15:54:13Z</time>
      </trkpt>
      <trkpt lat="30.221979841589928" lon="-5.589564582332969">
        <ele>671.13999999999999</ele>
        <time>2019-03-14T15:54:31Z</time>
      </trkpt>
      <trkpt lat="30.22065432742238" lon="-5.586443999782205">
        <ele>669.22000000000003</ele>
        <time>2019-03-14T15:54:46Z</time>
      </trkpt>
      <trkpt lat="30.218785833567381" lon="-5.582005111500621">
        <ele>669.22000000000003</ele>
        <time>2019-03-14T15:55:07Z</time>
      </trkpt>
      <trkpt lat="30.216660769656301" lon="-5.576984435319901">
        <ele>668.25</ele>
        <time>2019-03-14T15:55:32Z</time>
      </trkpt>
      <trkpt lat="30.215583192184567" lon="-5.574406664818525">
        <ele>668.25</ele>
        <time>2019-03-14T15:55:46Z</time>
      </trkpt>
      <trkpt lat="30.214403187856078" lon="-5.571617335081101">
        <ele>668.25</ele>
        <time>2019-03-14T15:56:04Z</time>
      </trkpt>
      <trkpt lat="30.213393671438098" lon="-5.569233102723956">
        <ele>668.73000000000002</ele>
        <time>2019-03-14T15:56:19Z</time>
      </trkpt>
      <trkpt lat="30.212088776752353" lon="-5.566272865980864">
        <ele>669.22000000000003</ele>
        <time>2019-03-14T15:56:36Z</time>
      </trkpt>
      <trkpt lat="30.211211442947388" lon="-5.565250525251031">
        <ele>668.73000000000002</ele>
        <time>2019-03-14T15:56:43Z</time>
      </trkpt>
      <trkpt lat="30.210048956796527" lon="-5.564824556931853">
        <ele>668.73000000000002</ele>
        <time>2019-03-14T15:56:50Z</time>
      </trkpt>
      <trkpt lat="30.208865096792579" lon="-5.565027398988605">
        <ele>666.80999999999995</ele>
        <time>2019-03-14T15:56:57Z</time>
      </trkpt>
      <trkpt lat="30.206932984292507" lon="-5.566069018095732">
        <ele>666.33000000000004</ele>
        <time>2019-03-14T15:57:09Z</time>
      </trkpt>
      <trkpt lat="30.204757796600461" lon="-5.567251369357109">
        <ele>665.85000000000002</ele>
        <time>2019-03-14T15:57:24Z</time>
      </trkpt>
      <trkpt lat="30.204329397529364" lon="-5.56699781678617">
        <ele>665.85000000000002</ele>
        <time>2019-03-14T15:57:30Z</time>
      </trkpt>
      <trkpt lat="30.203698156401515" lon="-5.56544448249042">
        <ele>665.85000000000002</ele>
        <time>2019-03-14T15:57:41Z</time>
      </trkpt>
      <trkpt lat="30.20263759419322" lon="-5.562845421954989">
        <ele>666.33000000000004</ele>
        <time>2019-03-14T15:57:56Z</time>
      </trkpt>
      <trkpt lat="30.201959498226643" lon="-5.561174405738711">
        <ele>667.76999999999998</ele>
        <time>2019-03-14T15:58:07Z</time>
      </trkpt>
      <trkpt lat="30.201312666758895" lon="-5.560198500752449">
        <ele>667.76999999999998</ele>
        <time>2019-03-14T15:58:15Z</time>
      </trkpt>
      <trkpt lat="30.201205797493458" lon="-5.560104455798864">
        <ele>667.28999999999996</ele>
        <time>2019-03-14T15:58:16Z</time>
      </trkpt>
      <trkpt lat="30.199840888381004" lon="-5.559304989874363">
        <ele>667.28999999999996</ele>
        <time>2019-03-14T15:58:27Z</time>
      </trkpt>
      <trkpt lat="30.197623707354069" lon="-5.558149460703135">
        <ele>667.28999999999996</ele>
        <time>2019-03-14T15:58:44Z</time>
      </trkpt>
      <trkpt lat="30.195743227377534" lon="-5.557026956230402">
        <ele>666.33000000000004</ele>
        <time>2019-03-14T15:58:59Z</time>
      </trkpt>
      <trkpt lat="30.193525711074471" lon="-5.555475885048509">
        <ele>665.37</ele>
        <time>2019-03-14T15:59:17Z</time>
      </trkpt>
      <trkpt lat="30.191374747082591" lon="-5.554001927375794">
        <ele>664.88999999999999</ele>
        <time>2019-03-14T15:59:35Z</time>
      </trkpt>
      <trkpt lat="30.189117165282369" lon="-5.55244205519557">
        <ele>663.92999999999995</ele>
        <time>2019-03-14T15:59:54Z</time>
      </trkpt>
      <trkpt lat="30.188035313040018" lon="-5.551348300650716">
        <ele>662.49000000000001</ele>
        <time>2019-03-14T16:00:04Z</time>
      </trkpt>
      <trkpt lat="30.18730390816927" lon="-5.549969645217061">
        <ele>661.03999999999996</ele>
        <time>2019-03-14T16:00:14Z</time>
      </trkpt>
      <trkpt lat="30.186263294890523" lon="-5.547484746202827">
        <ele>659.60000000000002</ele>
        <time>2019-03-14T16:00:31Z</time>
      </trkpt>
      <trkpt lat="30.185734480619431" lon="-5.545566631481051">
        <ele>659.60000000000002</ele>
        <time>2019-03-14T16:00:43Z</time>
      </trkpt>
      <trkpt lat="30.185381099581718" lon="-5.542402798309922">
        <ele>659.60000000000002</ele>
        <time>2019-03-14T16:01:00Z</time>
      </trkpt>
      <trkpt lat="30.184979857876897" lon="-5.539090521633625">
        <ele>659.60000000000002</ele>
        <time>2019-03-14T16:01:16Z</time>
      </trkpt>
      <trkpt lat="30.184442242607474" lon="-5.537947816774249">
        <ele>659.12</ele>
        <time>2019-03-14T16:01:22Z</time>
      </trkpt>
      <trkpt lat="30.182631835341454" lon="-5.535558052361012">
        <ele>657.67999999999995</ele>
        <time>2019-03-14T16:01:36Z</time>
      </trkpt>
      <trkpt lat="30.181085290387273" lon="-5.533117661252618">
        <ele>658.15999999999997</ele>
        <time>2019-03-14T16:01:48Z</time>
      </trkpt>
      <trkpt lat="30.180150372907519" lon="-5.531739089637995">
        <ele>658.63999999999999</ele>
        <time>2019-03-14T16:01:55Z</time>
      </trkpt>
      <trkpt lat="30.178646324202418" lon="-5.530371079221368">
        <ele>659.60000000000002</ele>
        <time>2019-03-14T16:02:04Z</time>
      </trkpt>
      <trkpt lat="30.177573189139366" lon="-5.528946407139301">
        <ele>664.88999999999999</ele>
        <time>2019-03-14T16:02:12Z</time>
      </trkpt>
      <trkpt lat="30.176938092336059" lon="-5.528167812153697">
        <ele>671.13999999999999</ele>
        <time>2019-03-14T16:02:17Z</time>
      </trkpt>
      <trkpt lat="30.176788391545415" lon="-5.528058763593435">
        <ele>675.94000000000005</ele>
        <time>2019-03-14T16:02:18Z</time>
      </trkpt>
      <trkpt lat="30.176630727946758" lon="-5.527967400848866">
        <ele>677.38999999999999</ele>
        <time>2019-03-14T16:02:19Z</time>
      </trkpt>
      <trkpt lat="30.174745805561543" lon="-5.526872724294663">
        <ele>675.94000000000005</ele>
        <time>2019-03-14T16:02:30Z</time>
      </trkpt>
      <trkpt lat="30.173167660832405" lon="-5.525835212320089">
        <ele>675.94000000000005</ele>
        <time>2019-03-14T16:02:40Z</time>
      </trkpt>
      <trkpt lat="30.171928899362683" lon="-5.524678006768227">
        <ele>671.13999999999999</ele>
        <time>2019-03-14T16:02:49Z</time>
      </trkpt>
      <trkpt lat="30.171037651598454" lon="-5.523162055760622">
        <ele>668.25</ele>
        <time>2019-03-14T16:02:57Z</time>
      </trkpt>
      <trkpt lat="30.169719932600856" lon="-5.52085560746491">
        <ele>663.45000000000005</ele>
        <time>2019-03-14T16:03:09Z</time>
      </trkpt>
      <trkpt lat="30.168436830863357" lon="-5.51911904476583">
        <ele>657.67999999999995</ele>
        <time>2019-03-14T16:03:19Z</time>
      </trkpt>
      <trkpt lat="30.166874947026372" lon="-5.517992600798607">
        <ele>655.27999999999997</ele>
        <time>2019-03-14T16:03:28Z</time>
      </trkpt>
      <trkpt lat="30.165536608546972" lon="-5.517442915588617">
        <ele>654.79999999999995</ele>
        <time>2019-03-14T16:03:35Z</time>
      </trkpt>
      <trkpt lat="30.163803901523352" lon="-5.516898427158594">
        <ele>655.75999999999999</ele>
        <time>2019-03-14T16:03:44Z</time>
      </trkpt>
      <trkpt lat="30.161883942782879" lon="-5.51577533595264">
        <ele>655.75999999999999</ele>
        <time>2019-03-14T16:03:55Z</time>
      </trkpt>
      <trkpt lat="30.160351563245058" lon="-5.514989700168371">
        <ele>655.27999999999997</ele>
        <time>2019-03-14T16:04:04Z</time>
      </trkpt>
      <trkpt lat="30.159253617748618" lon="-5.514247147366405">
        <ele>655.75999999999999</ele>
        <time>2019-03-14T16:04:11Z</time>
      </trkpt>
      <trkpt lat="30.158209484070539" lon="-5.513929473236203">
        <ele>654.30999999999995</ele>
        <time>2019-03-14T16:04:17Z</time>
      </trkpt>
      <trkpt lat="30.158048132434487" lon="-5.513850431889296">
        <ele>652.87</ele>
        <time>2019-03-14T16:04:18Z</time>
      </trkpt>
      <trkpt lat="30.157893653959036" lon="-5.513751525431871">
        <ele>653.83000000000004</ele>
        <time>2019-03-14T16:04:19Z</time>
      </trkpt>
      <trkpt lat="30.15698597766459" lon="-5.51313285715878">
        <ele>659.60000000000002</ele>
        <time>2019-03-14T16:04:25Z</time>
      </trkpt>
      <trkpt lat="30.155161153525114" lon="-5.512250997126102">
        <ele>662.00999999999999</ele>
        <time>2019-03-14T16:04:36Z</time>
      </trkpt>
      <trkpt lat="30.153727345168591" lon="-5.511192362755537">
        <ele>662.00999999999999</ele>
        <time>2019-03-14T16:04:45Z</time>
      </trkpt>
      <trkpt lat="30.151865556836128" lon="-5.509627629071474">
        <ele>660.55999999999995</ele>
        <time>2019-03-14T16:04:57Z</time>
      </trkpt>
      <trkpt lat="30.150610785931349" lon="-5.507790315896273">
        <ele>657.67999999999995</ele>
        <time>2019-03-14T16:05:08Z</time>
      </trkpt>
      <trkpt lat="30.149970995262265" lon="-5.506794629618526">
        <ele>657.20000000000005</ele>
        <time>2019-03-14T16:05:14Z</time>
      </trkpt>
      <trkpt lat="30.149832358583808" lon="-5.50667317584157">
        <ele>657.67999999999995</ele>
        <time>2019-03-14T16:05:15Z</time>
      </trkpt>
      <trkpt lat="30.14809931628406" lon="-5.505450926721096">
        <ele>657.67999999999995</ele>
        <time>2019-03-14T16:05:26Z</time>
      </trkpt>
      <trkpt lat="30.146223111078143" lon="-5.504118874669075">
        <ele>657.67999999999995</ele>
        <time>2019-03-14T16:05:38Z</time>
      </trkpt>
      <trkpt lat="30.146110374480486" lon="-5.503995073959231">
        <ele>658.15999999999997</ele>
        <time>2019-03-14T16:05:39Z</time>
      </trkpt>
      <trkpt lat="30.146013479679823" lon="-5.5038498993963">
        <ele>658.63999999999999</ele>
        <time>2019-03-14T16:05:40Z</time>
      </trkpt>
      <trkpt lat="30.145932594314218" lon="-5.503684692084789">
        <ele>658.63999999999999</ele>
        <time>2019-03-14T16:05:41Z</time>
      </trkpt>
      <trkpt lat="30.145855648443103" lon="-5.503514623269439">
        <ele>658.63999999999999</ele>
        <time>2019-03-14T16:05:42Z</time>
      </trkpt>
      <trkpt lat="30.145765878260136" lon="-5.50334757193923">
        <ele>659.12</ele>
        <time>2019-03-14T16:05:43Z</time>
      </trkpt>
      <trkpt lat="30.145660517737269" lon="-5.503194518387318">
        <ele>660.08000000000004</ele>
        <time>2019-03-14T16:05:44Z</time>
      </trkpt>
      <trkpt lat="30.145534537732601" lon="-5.503058731555939">
        <ele>661.51999999999998</ele>
        <time>2019-03-14T16:05:45Z</time>
      </trkpt>
      <trkpt lat="30.145396152511239" lon="-5.50293711014092">
        <ele>661.51999999999998</ele>
        <time>2019-03-14T16:05:46Z</time>
      </trkpt>
      <trkpt lat="30.145249050110579" lon="-5.502819092944264">
        <ele>663.92999999999995</ele>
        <time>2019-03-14T16:05:47Z</time>
      </trkpt>
      <trkpt lat="30.143874753266573" lon="-5.501383859664202">
        <ele>662.49000000000001</ele>
        <time>2019-03-14T16:05:57Z</time>
      </trkpt>
      <trkpt lat="30.14262760989368" lon="-5.499450908973813">
        <ele>658.63999999999999</ele>
        <time>2019-03-14T16:06:08Z</time>
      </trkpt>
      <trkpt lat="30.141498148441315" lon="-5.497964965179563">
        <ele>658.15999999999997</ele>
        <time>2019-03-14T16:06:17Z</time>
      </trkpt>
      <trkpt lat="30.140111781656742" lon="-5.49606604501605">
        <ele>657.67999999999995</ele>
        <time>2019-03-14T16:06:29Z</time>
      </trkpt>
      <trkpt lat="30.13841712847352" lon="-5.494522685185075">
        <ele>657.20000000000005</ele>
        <time>2019-03-14T16:06:41Z</time>
      </trkpt>
      <trkpt lat="30.136472778394818" lon="-5.492773298174143">
        <ele>657.20000000000005</ele>
        <time>2019-03-14T16:06:54Z</time>
      </trkpt>
      <trkpt lat="30.135452281683683" lon="-5.49161609262228">
        <ele>657.20000000000005</ele>
        <time>2019-03-14T16:07:02Z</time>
      </trkpt>
      <trkpt lat="30.134465899318457" lon="-5.490686874836683">
        <ele>657.20000000000005</ele>
        <time>2019-03-14T16:07:09Z</time>
      </trkpt>
      <trkpt lat="30.133782774209976" lon="-5.490178512409329">
        <ele>657.20000000000005</ele>
        <time>2019-03-14T16:07:14Z</time>
      </trkpt>
      <trkpt lat="30.133665511384606" lon="-5.490071643143892">
        <ele>657.20000000000005</ele>
        <time>2019-03-14T16:07:15Z</time>
      </trkpt>
      <trkpt lat="30.133559228852391" lon="-5.489947674795985">
        <ele>658.63999999999999</ele>
        <time>2019-03-14T16:07:16Z</time>
      </trkpt>
      <trkpt lat="30.133466441184282" lon="-5.489806439727545">
        <ele>658.63999999999999</ele>
        <time>2019-03-14T16:07:17Z</time>
      </trkpt>
      <trkpt lat="30.133386561647058" lon="-5.489650117233396">
        <ele>658.63999999999999</ele>
        <time>2019-03-14T16:07:18Z</time>
      </trkpt>
      <trkpt lat="30.133312549442053" lon="-5.489484071731567">
        <ele>659.12</ele>
        <time>2019-03-14T16:07:19Z</time>
      </trkpt>
      <trkpt lat="30.132670914754272" lon="-5.487666707485914">
        <ele>658.63999999999999</ele>
        <time>2019-03-14T16:07:29Z</time>
      </trkpt>
      <trkpt lat="30.132655156776309" lon="-5.487481383606792">
        <ele>660.08000000000004</ele>
        <time>2019-03-14T16:07:30Z</time>
      </trkpt>
      <trkpt lat="30.132660521194339" lon="-5.487294383347035">
        <ele>661.51999999999998</ele>
        <time>2019-03-14T16:07:31Z</time>
      </trkpt>
      <trkpt lat="30.13268549926579" lon="-5.487106125801802">
        <ele>661.51999999999998</ele>
        <time>2019-03-14T16:07:32Z</time>
      </trkpt>
      <trkpt lat="30.132723720744252" lon="-5.48691644333303">
        <ele>661.51999999999998</ele>
        <time>2019-03-14T16:07:33Z</time>
      </trkpt>
      <trkpt lat="30.133208362385631" lon="-5.485124057158828">
        <ele>661.51999999999998</ele>
        <time>2019-03-14T16:07:43Z</time>
      </trkpt>
      <trkpt lat="30.133879417553544" lon="-5.48402326181531">
        <ele>662.00999999999999</ele>
        <time>2019-03-14T16:07:51Z</time>
      </trkpt>
      <trkpt lat="30.133917387574911" lon="-5.483891917392612">
        <ele>662.00999999999999</ele>
        <time>2019-03-14T16:07:52Z</time>
      </trkpt>
      <trkpt lat="30.13392711058259" lon="-5.483756130561233">
        <ele>662.00999999999999</ele>
        <time>2019-03-14T16:07:53Z</time>
      </trkpt>
      <trkpt lat="30.133912693709135" lon="-5.483617996796966">
        <ele>662.49000000000001</ele>
        <time>2019-03-14T16:07:54Z</time>
      </trkpt>
      <trkpt lat="30.133882351219654" lon="-5.483480868861079">
        <ele>662.97000000000003</ele>
        <time>2019-03-14T16:07:55Z</time>
      </trkpt>
      <trkpt lat="30.133842369541526" lon="-5.483342651277781">
        <ele>663.45000000000005</ele>
        <time>2019-03-14T16:07:56Z</time>
      </trkpt>
      <trkpt lat="30.133798029273748" lon="-5.483203763142228">
        <ele>664.40999999999997</ele>
        <time>2019-03-14T16:07:57Z</time>
      </trkpt>
      <trkpt lat="30.13332512229681" lon="-5.481728883460164">
        <ele>665.85000000000002</ele>
        <time>2019-03-14T16:08:07Z</time>
      </trkpt>
      <trkpt lat="30.133309112861753" lon="-5.481583122164011">
        <ele>666.80999999999995</ele>
        <time>2019-03-14T16:08:08Z</time>
      </trkpt>
      <trkpt lat="30.133320344612002" lon="-5.481439875438809">
        <ele>668.25</ele>
        <time>2019-03-14T16:08:09Z</time>
      </trkpt>
      <trkpt lat="30.133357560262084" lon="-5.481308866292238">
        <ele>669.70000000000005</ele>
        <time>2019-03-14T16:08:10Z</time>
      </trkpt>
      <trkpt lat="30.133411204442382" lon="-5.481196967884898">
        <ele>679.78999999999996</ele>
        <time>2019-03-14T16:08:11Z</time>
      </trkpt>
      <trkpt lat="30.133473817259073" lon="-5.481105269864202">
        <ele>680.75</ele>
        <time>2019-03-14T16:08:12Z</time>
      </trkpt>
      <trkpt lat="30.133542129769921" lon="-5.481027150526643">
        <ele>681.23000000000002</ele>
        <time>2019-03-14T16:08:13Z</time>
      </trkpt>
      <trkpt lat="30.133607005700469" lon="-5.480955569073558">
        <ele>681.71000000000004</ele>
        <time>2019-03-14T16:08:14Z</time>
      </trkpt>
      <trkpt lat="30.134453913196921" lon="-5.480215027928352">
        <ele>682.66999999999996</ele>
        <time>2019-03-14T16:08:25Z</time>
      </trkpt>
      <trkpt lat="30.1345085632056" lon="-5.480138249695301">
        <ele>683.63</ele>
        <time>2019-03-14T16:08:26Z</time>
      </trkpt>
      <trkpt lat="30.134528763592243" lon="-5.480048060417175">
        <ele>684.60000000000002</ele>
        <time>2019-03-14T16:08:27Z</time>
      </trkpt>
      <trkpt lat="30.134506719186902" lon="-5.479964911937714">
        <ele>685.55999999999995</ele>
        <time>2019-03-14T16:08:28Z</time>
      </trkpt>
      <trkpt lat="30.134450979530811" lon="-5.47990900464356">
        <ele>686.03999999999996</ele>
        <time>2019-03-14T16:08:29Z</time>
      </trkpt>
      <trkpt lat="30.134380236268044" lon="-5.479894755408168">
        <ele>693.25</ele>
        <time>2019-03-14T16:08:30Z</time>
      </trkpt>
      <trkpt lat="30.134306978434324" lon="-5.479916296899319">
        <ele>696.13</ele>
        <time>2019-03-14T16:08:31Z</time>
      </trkpt>
      <trkpt lat="30.134235396981239" lon="-5.479958206415176">
        <ele>697.09000000000003</ele>
        <time>2019-03-14T16:08:32Z</time>
      </trkpt>
      <trkpt lat="30.134163061156869" lon="-5.48000673763454">
        <ele>698.04999999999995</ele>
        <time>2019-03-14T16:08:33Z</time>
      </trkpt>
      <trkpt lat="30.133289415389299" lon="-5.480630435049534">
        <ele>698.52999999999997</ele>
        <time>2019-03-14T16:08:43Z</time>
      </trkpt>
      <trkpt lat="30.132951037958264" lon="-5.480938386172056">
        <ele>699.01999999999998</ele>
        <time>2019-03-14T16:08:47Z</time>
      </trkpt>
      <trkpt lat="30.13285263441503" lon="-5.480984738096595">
        <ele>699.01999999999998</ele>
        <time>2019-03-14T16:08:48Z</time>
      </trkpt>
      <trkpt lat="30.132748950272799" lon="-5.481007872149348">
        <ele>699.5</ele>
        <time>2019-03-14T16:08:49Z</time>
      </trkpt>
      <trkpt lat="30.132642332464457" lon="-5.481004016473889">
        <ele>699.98000000000002</ele>
        <time>2019-03-14T16:08:50Z</time>
      </trkpt>
      <trkpt lat="30.132535630837083" lon="-5.480973087251186">
        <ele>700.46000000000004</ele>
        <time>2019-03-14T16:08:51Z</time>
      </trkpt>
      <trkpt lat="30.132432449609041" lon="-5.48091659322381">
        <ele>701.41999999999996</ele>
        <time>2019-03-14T16:08:52Z</time>
      </trkpt>
      <trkpt lat="30.132343601435423" lon="-5.480831516906619">
        <ele>702.38</ele>
        <time>2019-03-14T16:08:53Z</time>
      </trkpt>
      <trkpt lat="30.132267996668816" lon="-5.480723055079579">
        <ele>702.86000000000001</ele>
        <time>2019-03-14T16:08:54Z</time>
      </trkpt>
      <trkpt lat="30.132202198728919" lon="-5.48060042783618">
        <ele>703.34000000000003</ele>
        <time>2019-03-14T16:08:55Z</time>
      </trkpt>
      <trkpt lat="30.132142100483179" lon="-5.480470759794116">
        <ele>703.82000000000005</ele>
        <time>2019-03-14T16:08:56Z</time>
      </trkpt>
      <trkpt lat="30.132006732746959" lon="-5.480230450630188">
        <ele>704.29999999999995</ele>
        <time>2019-03-14T16:08:58Z</time>
      </trkpt>
      <trkpt lat="30.131916962563992" lon="-5.48013866879046">
        <ele>704.77999999999997</ele>
        <time>2019-03-14T16:08:59Z</time>
      </trkpt>
      <trkpt lat="30.131811518222094" lon="-5.480075469240546">
        <ele>705.25999999999999</ele>
        <time>2019-03-14T16:09:00Z</time>
      </trkpt>
      <trkpt lat="30.131696937605739" lon="-5.48004730604589">
        <ele>705.75</ele>
        <time>2019-03-14T16:09:01Z</time>
      </trkpt>
      <trkpt lat="30.131577914580703" lon="-5.48005267046392">
        <ele>706.23000000000002</ele>
        <time>2019-03-14T16:09:02Z</time>
      </trkpt>
      <trkpt lat="30.131455287337303" lon="-5.480074966326356">
        <ele>707.19000000000005</ele>
        <time>2019-03-14T16:09:03Z</time>
      </trkpt>
      <trkpt lat="30.131329223513603" lon="-5.480087120085955">
        <ele>708.14999999999998</ele>
        <time>2019-03-14T16:09:04Z</time>
      </trkpt>
      <trkpt lat="30.131204333156347" lon="-5.480077480897307">
        <ele>708.63</ele>
        <time>2019-03-14T16:09:05Z</time>
      </trkpt>
      <trkpt lat="30.131084974855185" lon="-5.480036493390799">
        <ele>719.20000000000005</ele>
        <time>2019-03-14T16:09:06Z</time>
      </trkpt>
      <trkpt lat="30.130970980972052" lon="-5.479972036555409">
        <ele>724.00999999999999</ele>
        <time>2019-03-14T16:09:07Z</time>
      </trkpt>
      <trkpt lat="30.130860507488251" lon="-5.479894252493978">
        <ele>724.97000000000003</ele>
        <time>2019-03-14T16:09:08Z</time>
      </trkpt>
      <trkpt lat="30.13075246475637" lon="-5.47981278039515">
        <ele>728.82000000000005</ele>
        <time>2019-03-14T16:09:09Z</time>
      </trkpt>
      <trkpt lat="30.129413791000843" lon="-5.478946007788181">
        <ele>730.25999999999999</ele>
        <time>2019-03-14T16:09:21Z</time>
      </trkpt>
      <trkpt lat="30.128903165459633" lon="-5.478547029197216">
        <ele>730.74000000000001</ele>
        <time>2019-03-14T16:09:26Z</time>
      </trkpt>
      <trkpt lat="30.128825046122074" lon="-5.478440998122096">
        <ele>731.22000000000003</ele>
        <time>2019-03-14T16:09:27Z</time>
      </trkpt>
      <trkpt lat="30.128620695322752" lon="-5.478127263486385">
        <ele>731.70000000000005</ele>
        <time>2019-03-14T16:09:30Z</time>
      </trkpt>
      <trkpt lat="30.128541402518749" lon="-5.478048138320446">
        <ele>727.37</ele>
        <time>2019-03-14T16:09:31Z</time>
      </trkpt>
      <trkpt lat="30.128447273746133" lon="-5.477990973740816">
        <ele>713.91999999999996</ele>
        <time>2019-03-14T16:09:32Z</time>
      </trkpt>
      <trkpt lat="30.128340991213918" lon="-5.477953338995576">
        <ele>710.07000000000005</ele>
        <time>2019-03-14T16:09:33Z</time>
      </trkpt>
      <trkpt lat="30.128227332606912" lon="-5.477918302640319">
        <ele>710.07000000000005</ele>
        <time>2019-03-14T16:09:34Z</time>
      </trkpt>
      <trkpt lat="30.126895112916827" lon="-5.477680927142501">
        <ele>709.59000000000003</ele>
        <time>2019-03-14T16:09:44Z</time>
      </trkpt>
      <trkpt lat="30.124837439507246" lon="-5.477520162239671">
        <ele>709.59000000000003</ele>
        <time>2019-03-14T16:09:57Z</time>
      </trkpt>
      <trkpt lat="30.123927667737007" lon="-5.477497195824981">
        <ele>701.41999999999996</ele>
        <time>2019-03-14T16:10:05Z</time>
      </trkpt>
      <trkpt lat="30.123837729915977" lon="-5.477511361241341">
        <ele>692.28999999999996</ele>
        <time>2019-03-14T16:10:06Z</time>
      </trkpt>
      <trkpt lat="30.123746450990438" lon="-5.477540194988251">
        <ele>678.83000000000004</ele>
        <time>2019-03-14T16:10:07Z</time>
      </trkpt>
      <trkpt lat="30.123649556189775" lon="-5.477585038170219">
        <ele>677.38999999999999</ele>
        <time>2019-03-14T16:10:08Z</time>
      </trkpt>
      <trkpt lat="30.122194709256291" lon="-5.478354413062334">
        <ele>675.94000000000005</ele>
        <time>2019-03-14T16:10:21Z</time>
      </trkpt>
      <trkpt lat="30.120850838720798" lon="-5.478698238730431">
        <ele>674.98000000000002</ele>
        <time>2019-03-14T16:10:30Z</time>
      </trkpt>
      <trkpt lat="30.118544306606054" lon="-5.478833438828588">
        <ele>672.58000000000004</ele>
        <time>2019-03-14T16:10:44Z</time>
      </trkpt>
      <trkpt lat="30.118381530046463" lon="-5.478817261755467">
        <ele>672.58000000000004</ele>
        <time>2019-03-14T16:10:45Z</time>
      </trkpt>
      <trkpt lat="30.118219926953316" lon="-5.478779207915068">
        <ele>673.05999999999995</ele>
        <time>2019-03-14T16:10:46Z</time>
      </trkpt>
      <trkpt lat="30.118064107373357" lon="-5.478724809363484">
        <ele>673.53999999999996</ele>
        <time>2019-03-14T16:10:47Z</time>
      </trkpt>
      <trkpt lat="30.11652066372335" lon="-5.478137573227286">
        <ele>674.01999999999998</ele>
        <time>2019-03-14T16:10:58Z</time>
      </trkpt>
      <trkpt lat="30.116371382027864" lon="-5.47812701202929">
        <ele>674.01999999999998</ele>
        <time>2019-03-14T16:10:59Z</time>
      </trkpt>
      <trkpt lat="30.116218747571111" lon="-5.478136567398906">
        <ele>673.53999999999996</ele>
        <time>2019-03-14T16:11:00Z</time>
      </trkpt>
      <trkpt lat="30.116063430905342" lon="-5.478165149688721">
        <ele>670.65999999999997</ele>
        <time>2019-03-14T16:11:01Z</time>
      </trkpt>
      <trkpt lat="30.11590551584959" lon="-5.478209657594562">
        <ele>665.37</ele>
        <time>2019-03-14T16:11:02Z</time>
      </trkpt>
      <trkpt lat="30.115747265517712" lon="-5.478265564888716">
        <ele>662.00999999999999</ele>
        <time>2019-03-14T16:11:03Z</time>
      </trkpt>
      <trkpt lat="30.113436626270413" lon="-5.479279942810535">
        <ele>659.12</ele>
        <time>2019-03-14T16:11:17Z</time>
      </trkpt>
      <trkpt lat="30.111372666433454" lon="-5.480396496132016">
        <ele>657.20000000000005</ele>
        <time>2019-03-14T16:11:30Z</time>
      </trkpt>
      <trkpt lat="30.109596876427531" lon="-5.481969946995378">
        <ele>654.30999999999995</ele>
        <time>2019-03-14T16:11:43Z</time>
      </trkpt>
      <trkpt lat="30.108220484107733" lon="-5.482671009376645">
        <ele>651.90999999999997</ele>
        <time>2019-03-14T16:11:51Z</time>
      </trkpt>
      <trkpt lat="30.105311963707209" lon="-5.483626713976264">
        <ele>649.50999999999999</ele>
        <time>2019-03-14T16:12:06Z</time>
      </trkpt>
      <trkpt lat="30.101784523576498" lon="-5.484789535403252">
        <ele>648.54999999999995</ele>
        <time>2019-03-14T16:12:25Z</time>
      </trkpt>
      <trkpt lat="30.098641393706203" lon="-5.485834339633584">
        <ele>644.70000000000005</ele>
        <time>2019-03-14T16:12:43Z</time>
      </trkpt>
      <trkpt lat="30.096305692568421" lon="-5.486277407035232">
        <ele>642.29999999999995</ele>
        <time>2019-03-14T16:12:56Z</time>
      </trkpt>
      <trkpt lat="30.092807840555906" lon="-5.486696502193809">
        <ele>639.88999999999999</ele>
        <time>2019-03-14T16:13:14Z</time>
      </trkpt>
      <trkpt lat="30.090123368427157" lon="-5.486880652606487">
        <ele>638.45000000000005</ele>
        <time>2019-03-14T16:13:28Z</time>
      </trkpt>
      <trkpt lat="30.08802386932075" lon="-5.486441608518362">
        <ele>636.04999999999995</ele>
        <time>2019-03-14T16:13:39Z</time>
      </trkpt>
      <trkpt lat="30.08490932174027" lon="-5.485453214496374">
        <ele>634.13</ele>
        <time>2019-03-14T16:13:56Z</time>
      </trkpt>
      <trkpt lat="30.081777591258287" lon="-5.484460461884737">
        <ele>632.20000000000005</ele>
        <time>2019-03-14T16:14:15Z</time>
      </trkpt>
      <trkpt lat="30.078838393092155" lon="-5.483676921576262">
        <ele>630.27999999999997</ele>
        <time>2019-03-14T16:14:32Z</time>
      </trkpt>
      <trkpt lat="30.076034814119339" lon="-5.483330665156245">
        <ele>631.72000000000003</ele>
        <time>2019-03-14T16:14:48Z</time>
      </trkpt>
      <trkpt lat="30.073336344212294" lon="-5.483011398464441">
        <ele>633.16999999999996</ele>
        <time>2019-03-14T16:15:02Z</time>
      </trkpt>
      <trkpt lat="30.069523081183434" lon="-5.482543772086501">
        <ele>635.09000000000003</ele>
        <time>2019-03-14T16:15:21Z</time>
      </trkpt>
      <trkpt lat="30.066652446985245" lon="-5.482213189825416">
        <ele>635.57000000000005</ele>
        <time>2019-03-14T16:15:36Z</time>
      </trkpt>
      <trkpt lat="30.063396831974387" lon="-5.481817731633782">
        <ele>635.57000000000005</ele>
        <time>2019-03-14T16:15:52Z</time>
      </trkpt>
      <trkpt lat="30.060267699882388" lon="-5.4815733153373">
        <ele>635.57000000000005</ele>
        <time>2019-03-14T16:16:08Z</time>
      </trkpt>
      <trkpt lat="30.058971606194973" lon="-5.481840446591377">
        <ele>635.09000000000003</ele>
        <time>2019-03-14T16:16:16Z</time>
      </trkpt>
      <trkpt lat="30.057725720107555" lon="-5.482441177591682">
        <ele>635.57000000000005</ele>
        <time>2019-03-14T16:16:25Z</time>
      </trkpt>
      <trkpt lat="30.055808359757066" lon="-5.483584301546216">
        <ele>636.04999999999995</ele>
        <time>2019-03-14T16:16:39Z</time>
      </trkpt>
      <trkpt lat="30.053732581436634" lon="-5.484947199001908">
        <ele>636.04999999999995</ele>
        <time>2019-03-14T16:16:54Z</time>
      </trkpt>
      <trkpt lat="30.051094461232424" lon="-5.486665489152074">
        <ele>638.45000000000005</ele>
        <time>2019-03-14T16:17:12Z</time>
      </trkpt>
      <trkpt lat="30.048451395705342" lon="-5.488400962203741">
        <ele>640.38</ele>
        <time>2019-03-14T16:17:30Z</time>
      </trkpt>
      <trkpt lat="30.045653264969587" lon="-5.490237437188625">
        <ele>638.45000000000005</ele>
        <time>2019-03-14T16:17:47Z</time>
      </trkpt>
      <trkpt lat="30.043128132820129" lon="-5.491631347686052">
        <ele>637.00999999999999</ele>
        <time>2019-03-14T16:18:01Z</time>
      </trkpt>
      <trkpt lat="30.040015932172537" lon="-5.493289958685637">
        <ele>635.09000000000003</ele>
        <time>2019-03-14T16:18:18Z</time>
      </trkpt>
      <trkpt lat="30.038111479952931" lon="-5.494294781237841">
        <ele>633.64999999999998</ele>
        <time>2019-03-14T16:18:30Z</time>
      </trkpt>
      <trkpt lat="30.03608507104218" lon="-5.49538635648787">
        <ele>634.13</ele>
        <time>2019-03-14T16:18:42Z</time>
      </trkpt>
      <trkpt lat="30.032806824892759" lon="-5.496970620006323">
        <ele>636.04999999999995</ele>
        <time>2019-03-14T16:19:00Z</time>
      </trkpt>
      <trkpt lat="30.029880786314607" lon="-5.49821357242763">
        <ele>636.04999999999995</ele>
        <time>2019-03-14T16:19:16Z</time>
      </trkpt>
      <trkpt lat="30.027732672169805" lon="-5.498950257897377">
        <ele>634.13</ele>
        <time>2019-03-14T16:19:29Z</time>
      </trkpt>
      <trkpt lat="30.025490010157228" lon="-5.499185957014561">
        <ele>632.67999999999995</ele>
        <time>2019-03-14T16:19:41Z</time>
      </trkpt>
      <trkpt lat="30.021903896704316" lon="-5.49948058091104">
        <ele>631.24000000000001</ele>
        <time>2019-03-14T16:19:59Z</time>
      </trkpt>
      <trkpt lat="30.019050445407629" lon="-5.499774450436235">
        <ele>630.27999999999997</ele>
        <time>2019-03-14T16:20:14Z</time>
      </trkpt>
      <trkpt lat="30.016453983262181" lon="-5.50051792524755">
        <ele>630.27999999999997</ele>
        <time>2019-03-14T16:20:27Z</time>
      </trkpt>
      <trkpt lat="30.0136589538306" lon="-5.501317055895925">
        <ele>630.27999999999997</ele>
        <time>2019-03-14T16:20:42Z</time>
      </trkpt>
      <trkpt lat="30.011652577668428" lon="-5.501891048625112">
        <ele>630.27999999999997</ele>
        <time>2019-03-14T16:20:54Z</time>
      </trkpt>
      <trkpt lat="30.010017100721598" lon="-5.502353897318244">
        <ele>626.91999999999996</ele>
        <time>2019-03-14T16:21:05Z</time>
      </trkpt>
      <trkpt lat="30.009619547054172" lon="-5.502482643350959">
        <ele>624.50999999999999</ele>
        <time>2019-03-14T16:21:11Z</time>
      </trkpt>
      <trkpt lat="30.009604543447495" lon="-5.50250175409019">
        <ele>622.59000000000003</ele>
        <time>2019-03-14T16:21:12Z</time>
      </trkpt>
      <trkpt lat="30.009599514305592" lon="-5.502528659999371">
        <ele>618.75</ele>
        <time>2019-03-14T16:21:13Z</time>
      </trkpt>
      <trkpt lat="30.009618876501918" lon="-5.502627650275827">
        <ele>617.29999999999995</ele>
        <time>2019-03-14T16:21:23Z</time>
      </trkpt>
      <trkpt lat="30.009664222598076" lon="-5.502876592800021">
        <ele>617.29999999999995</ele>
        <time>2019-03-14T16:21:35Z</time>
      </trkpt>
      <trkpt lat="30.009847786277533" lon="-5.503876302391291">
        <ele>617.29999999999995</ele>
        <time>2019-03-14T16:21:45Z</time>
      </trkpt>
      <trkpt lat="30.010208878666162" lon="-5.505817299708724">
        <ele>617.77999999999997</ele>
        <time>2019-03-14T16:22:00Z</time>
      </trkpt>
      <trkpt lat="30.010398058220744" lon="-5.506780967116356">
        <ele>616.82000000000005</ele>
        <time>2019-03-14T16:22:09Z</time>
      </trkpt>
      <trkpt lat="30.010523870587349" lon="-5.507430732250214">
        <ele>616.82000000000005</ele>
        <time>2019-03-14T16:22:19Z</time>
      </trkpt>
      <trkpt lat="30.010687904432416" lon="-5.508399931713939">
        <ele>617.29999999999995</ele>
        <time>2019-03-14T16:22:29Z</time>
      </trkpt>
      <trkpt lat="30.010711289942265" lon="-5.508504705503583">
        <ele>617.29999999999995</ele>
        <time>2019-03-14T16:22:36Z</time>
      </trkpt>
      <trkpt lat="30.01070274040103" lon="-5.508494228124619">
        <ele>617.77999999999997</ele>
        <time>2019-03-14T16:23:01Z</time>
      </trkpt>
      <trkpt lat="30.010786727070808" lon="-5.508582321926951">
        <ele>618.25999999999999</ele>
        <time>2019-03-14T16:23:08Z</time>
      </trkpt>
      <trkpt lat="30.010838527232409" lon="-5.508867725729942">
        <ele>618.75</ele>
        <time>2019-03-14T16:23:14Z</time>
      </trkpt>
      <trkpt lat="30.010821428149939" lon="-5.509015247225761">
        <ele>618.25999999999999</ele>
        <time>2019-03-14T16:23:17Z</time>
      </trkpt>
      <trkpt lat="30.010835090652108" lon="-5.509246755391359">
        <ele>618.25999999999999</ele>
        <time>2019-03-14T16:23:21Z</time>
      </trkpt>
      <trkpt lat="30.011040447279811" lon="-5.510321063920856">
        <ele>618.25999999999999</ele>
        <time>2019-03-14T16:23:32Z</time>
      </trkpt>
      <trkpt lat="30.011245468631387" lon="-5.511577259749174">
        <ele>618.25999999999999</ele>
        <time>2019-03-14T16:23:43Z</time>
      </trkpt>
      <trkpt lat="30.011248234659433" lon="-5.511920331045985">
        <ele>618.25999999999999</ele>
        <time>2019-03-14T16:23:48Z</time>
      </trkpt>
      <trkpt lat="30.01116743311286" lon="-5.512257618829608">
        <ele>618.25999999999999</ele>
        <time>2019-03-14T16:23:52Z</time>
      </trkpt>
      <trkpt lat="30.011112112551928" lon="-5.512309921905398">
        <ele>618.25999999999999</ele>
        <time>2019-03-14T16:23:53Z</time>
      </trkpt>
      <trkpt lat="30.011041620746255" lon="-5.512339426204562">
        <ele>618.75</ele>
        <time>2019-03-14T16:23:54Z</time>
      </trkpt>
      <trkpt lat="30.010968027636409" lon="-5.512355016544461">
        <ele>618.75</ele>
        <time>2019-03-14T16:23:55Z</time>
      </trkpt>
      <trkpt lat="30.010893763974309" lon="-5.512375300750136">
        <ele>618.25999999999999</ele>
        <time>2019-03-14T16:23:56Z</time>
      </trkpt>
      <trkpt lat="30.010822685435414" lon="-5.51241553388536">
        <ele>618.25999999999999</ele>
        <time>2019-03-14T16:23:57Z</time>
      </trkpt>
      <trkpt lat="30.010759402066469" lon="-5.512476973235607">
        <ele>618.75</ele>
        <time>2019-03-14T16:23:58Z</time>
      </trkpt>
      <trkpt lat="30.01070567406714" lon="-5.512553583830595">
        <ele>618.75</ele>
        <time>2019-03-14T16:23:59Z</time>
      </trkpt>
      <trkpt lat="30.010659992694855" lon="-5.512640001252294">
        <ele>618.25999999999999</ele>
        <time>2019-03-14T16:24:00Z</time>
      </trkpt>
      <trkpt lat="30.010608779266477" lon="-5.512722143903375">
        <ele>618.25999999999999</ele>
        <time>2019-03-14T16:24:01Z</time>
      </trkpt>
      <trkpt lat="30.01054298132658" lon="-5.512792384251952">
        <ele>618.25999999999999</ele>
        <time>2019-03-14T16:24:02Z</time>
      </trkpt>
      <trkpt lat="30.010462263599038" lon="-5.512844435870647">
        <ele>618.25999999999999</ele>
        <time>2019-03-14T16:24:03Z</time>
      </trkpt>
      <trkpt lat="30.01029571518302" lon="-5.512934038415551">
        <ele>617.77999999999997</ele>
        <time>2019-03-14T16:24:05Z</time>
      </trkpt>
      <trkpt lat="30.010224217548966" lon="-5.512996232137084">
        <ele>617.77999999999997</ele>
        <time>2019-03-14T16:24:06Z</time>
      </trkpt>
      <trkpt lat="30.010162442922592" lon="-5.513074854388833">
        <ele>617.29999999999995</ele>
        <time>2019-03-14T16:24:07Z</time>
      </trkpt>
      <trkpt lat="30.0101154204458" lon="-5.513170408084989">
        <ele>616.34000000000003</ele>
        <time>2019-03-14T16:24:08Z</time>
      </trkpt>
      <trkpt lat="30.010081809014082" lon="-5.513279372826219">
        <ele>616.34000000000003</ele>
        <time>2019-03-14T16:24:09Z</time>
      </trkpt>
      <trkpt lat="30.010059596970677" lon="-5.513399401679635">
        <ele>616.82000000000005</ele>
        <time>2019-03-14T16:24:10Z</time>
      </trkpt>
      <trkpt lat="30.010043503716588" lon="-5.513527225703001">
        <ele>613.94000000000005</ele>
        <time>2019-03-14T16:24:11Z</time>
      </trkpt>
      <trkpt lat="30.009976448491216" lon="-5.514325937256217">
        <ele>613.94000000000005</ele>
        <time>2019-03-14T16:24:17Z</time>
      </trkpt>
      <trkpt lat="30.009985417127609" lon="-5.514417300000787">
        <ele>613.46000000000004</ele>
        <time>2019-03-14T16:24:18Z</time>
      </trkpt>
      <trkpt lat="30.010005868971348" lon="-5.51453766413033">
        <ele>613.46000000000004</ele>
        <time>2019-03-14T16:24:22Z</time>
      </trkpt>
      <trkpt lat="30.010016513988376" lon="-5.514556271955371">
        <ele>612.98000000000002</ele>
        <time>2019-03-14T16:24:56Z</time>
      </trkpt>
      <trkpt lat="30.010126568377018" lon="-5.514716785401106">
        <ele>612.98000000000002</ele>
        <time>2019-03-14T16:25:00Z</time>
      </trkpt>
      <trkpt lat="30.010148696601391" lon="-5.514780655503273">
        <ele>612.5</ele>
        <time>2019-03-14T16:25:01Z</time>
      </trkpt>
      <trkpt lat="30.010159509256482" lon="-5.514849219471216">
        <ele>612.5</ele>
        <time>2019-03-14T16:25:02Z</time>
      </trkpt>
      <trkpt lat="30.010161269456148" lon="-5.514917867258191">
        <ele>612.5</ele>
        <time>2019-03-14T16:25:03Z</time>
      </trkpt>
      <trkpt lat="30.010152300819755" lon="-5.514984168112278">
        <ele>612.5</ele>
        <time>2019-03-14T16:25:04Z</time>
      </trkpt>
      <trkpt lat="30.010139057412744" lon="-5.515049546957016">
        <ele>612.5</ele>
        <time>2019-03-14T16:25:05Z</time>
      </trkpt>
      <trkpt lat="30.01011835411191" lon="-5.515184244140983">
        <ele>612.5</ele>
        <time>2019-03-14T16:25:07Z</time>
      </trkpt>
      <trkpt lat="30.010116593912244" lon="-5.515252724289894">
        <ele>612.5</ele>
        <time>2019-03-14T16:25:08Z</time>
      </trkpt>
      <trkpt lat="30.010122880339622" lon="-5.515319528058171">
        <ele>612.98000000000002</ele>
        <time>2019-03-14T16:25:09Z</time>
      </trkpt>
      <trkpt lat="30.010139979422092" lon="-5.51538641564548">
        <ele>614.89999999999998</ele>
        <time>2019-03-14T16:25:10Z</time>
      </trkpt>
      <trkpt lat="30.01016529276967" lon="-5.515450704842806">
        <ele>615.38</ele>
        <time>2019-03-14T16:25:11Z</time>
      </trkpt>
      <trkpt lat="30.010189516469836" lon="-5.51551734097302">
        <ele>615.38</ele>
        <time>2019-03-14T16:25:12Z</time>
      </trkpt>
      <trkpt lat="30.010267551988363" lon="-5.515733510255814">
        <ele>614.89999999999998</ele>
        <time>2019-03-14T16:25:15Z</time>
      </trkpt>
      <trkpt lat="30.010699974372983" lon="-5.51664512604475">
        <ele>614.89999999999998</ele>
        <time>2019-03-14T16:25:26Z</time>
      </trkpt>
      <trkpt lat="30.010925028473139" lon="-5.517309978604317">
        <ele>615.38</ele>
        <time>2019-03-14T16:25:32Z</time>
      </trkpt>
      <trkpt lat="30.011201044544578" lon="-5.518034175038338">
        <ele>614.89999999999998</ele>
        <time>2019-03-14T16:25:40Z</time>
      </trkpt>
      <trkpt lat="30.011220909655094" lon="-5.518118916079402">
        <ele>616.34000000000003</ele>
        <time>2019-03-14T16:25:41Z</time>
      </trkpt>
      <trkpt lat="30.011234739795327" lon="-5.518206339329481">
        <ele>616.34000000000003</ele>
        <time>2019-03-14T16:25:42Z</time>
      </trkpt>
      <trkpt lat="30.011243373155594" lon="-5.518292924389243">
        <ele>616.34000000000003</ele>
        <time>2019-03-14T16:25:43Z</time>
      </trkpt>
      <trkpt lat="30.011247396469116" lon="-5.518380263820291">
        <ele>617.29999999999995</ele>
        <time>2019-03-14T16:25:44Z</time>
      </trkpt>
      <trkpt lat="30.011272458359599" lon="-5.519038662314415">
        <ele>617.77999999999997</ele>
        <time>2019-03-14T16:25:51Z</time>
      </trkpt>
      <trkpt lat="30.011294838041067" lon="-5.519139999523759">
        <ele>618.25999999999999</ele>
        <time>2019-03-14T16:25:52Z</time>
      </trkpt>
      <trkpt lat="30.011325180530548" lon="-5.519238822162151">
        <ele>619.23000000000002</ele>
        <time>2019-03-14T16:25:53Z</time>
      </trkpt>
      <trkpt lat="30.011681746691465" lon="-5.520477332174778">
        <ele>619.23000000000002</ele>
        <time>2019-03-14T16:26:05Z</time>
      </trkpt>
      <trkpt lat="30.01179926097393" lon="-5.521033555269241">
        <ele>619.23000000000002</ele>
        <time>2019-03-14T16:26:11Z</time>
      </trkpt>
      <trkpt lat="30.011828849092126" lon="-5.521125504747033">
        <ele>619.23000000000002</ele>
        <time>2019-03-14T16:26:12Z</time>
      </trkpt>
      <trkpt lat="30.011973520740867" lon="-5.521612074226141">
        <ele>619.71000000000004</ele>
        <time>2019-03-14T16:26:19Z</time>
      </trkpt>
      <trkpt lat="30.011972431093454" lon="-5.521664544939995">
        <ele>619.71000000000004</ele>
        <time>2019-03-14T16:26:20Z</time>
      </trkpt>
      <trkpt lat="30.011966228485107" lon="-5.521715842187405">
        <ele>619.71000000000004</ele>
        <time>2019-03-14T16:26:21Z</time>
      </trkpt>
      <trkpt lat="30.01195902004838" lon="-5.521762110292912">
        <ele>619.71000000000004</ele>
        <time>2019-03-14T16:26:22Z</time>
      </trkpt>
      <trkpt lat="30.011952146887779" lon="-5.521797984838486">
        <ele>619.71000000000004</ele>
        <time>2019-03-14T16:26:23Z</time>
      </trkpt>
      <trkpt lat="30.011931946501136" lon="-5.521907536312938">
        <ele>620.19000000000005</ele>
        <time>2019-03-14T16:26:32Z</time>
      </trkpt>
      <trkpt lat="30.011880984529853" lon="-5.522072408348322">
        <ele>620.19000000000005</ele>
        <time>2019-03-14T16:26:35Z</time>
      </trkpt>
      <trkpt lat="30.011846534907818" lon="-5.522133428603411">
        <ele>621.14999999999998</ele>
        <time>2019-03-14T16:26:36Z</time>
      </trkpt>
      <trkpt lat="30.011803954839706" lon="-5.522190760821104">
        <ele>621.14999999999998</ele>
        <time>2019-03-14T16:26:37Z</time>
      </trkpt>
      <trkpt lat="30.011754333972931" lon="-5.522242393344641">
        <ele>621.14999999999998</ele>
        <time>2019-03-14T16:26:38Z</time>
      </trkpt>
      <trkpt lat="30.011699348688126" lon="-5.522290002554655">
        <ele>621.14999999999998</ele>
        <time>2019-03-14T16:26:39Z</time>
      </trkpt>
      <trkpt lat="30.01148016192019" lon="-5.522456970065832">
        <ele>621.14999999999998</ele>
        <time>2019-03-14T16:26:43Z</time>
      </trkpt>
      <trkpt lat="30.011428026482463" lon="-5.522509608417749">
        <ele>621.14999999999998</ele>
        <time>2019-03-14T16:26:44Z</time>
      </trkpt>
      <trkpt lat="30.011378908529878" lon="-5.522571047767997">
        <ele>621.14999999999998</ele>
        <time>2019-03-14T16:26:45Z</time>
      </trkpt>
      <trkpt lat="30.011331550776958" lon="-5.522639192640781">
        <ele>620.66999999999996</ele>
        <time>2019-03-14T16:26:46Z</time>
      </trkpt>
      <trkpt lat="30.011282432824373" lon="-5.522712366655469">
        <ele>620.66999999999996</ele>
        <time>2019-03-14T16:26:47Z</time>
      </trkpt>
      <trkpt lat="30.011226190254092" lon="-5.522783780470491">
        <ele>620.66999999999996</ele>
        <time>2019-03-14T16:26:48Z</time>
      </trkpt>
      <trkpt lat="30.010936260223389" lon="-5.523089887574315">
        <ele>621.14999999999998</ele>
        <time>2019-03-14T16:26:53Z</time>
      </trkpt>
      <trkpt lat="30.010629147291183" lon="-5.523324999958277">
        <ele>620.66999999999996</ele>
        <time>2019-03-14T16:26:58Z</time>
      </trkpt>
      <trkpt lat="30.010574916377664" lon="-5.523384176194668">
        <ele>621.14999999999998</ele>
        <time>2019-03-14T16:26:59Z</time>
      </trkpt>
      <trkpt lat="30.010404093191028" lon="-5.523577211424708">
        <ele>621.63</ele>
        <time>2019-03-14T16:27:02Z</time>
      </trkpt>
      <trkpt lat="30.010336535051465" lon="-5.523632196709514">
        <ele>621.63</ele>
        <time>2019-03-14T16:27:03Z</time>
      </trkpt>
      <trkpt lat="30.009870501235127" lon="-5.523870242759585">
        <ele>621.63</ele>
        <time>2019-03-14T16:27:10Z</time>
      </trkpt>
      <trkpt lat="30.009803781285882" lon="-5.523892203345895">
        <ele>621.63</ele>
        <time>2019-03-14T16:27:11Z</time>
      </trkpt>
      <trkpt lat="30.009737564250827" lon="-5.523913325741887">
        <ele>621.63</ele>
        <time>2019-03-14T16:27:12Z</time>
      </trkpt>
      <trkpt lat="30.009677466005087" lon="-5.523941405117512">
        <ele>621.63</ele>
        <time>2019-03-14T16:27:13Z</time>
      </trkpt>
      <trkpt lat="30.009624995291233" lon="-5.523977363482118">
        <ele>621.63</ele>
        <time>2019-03-14T16:27:14Z</time>
      </trkpt>
      <trkpt lat="30.009578475728631" lon="-5.524020530283451">
        <ele>621.63</ele>
        <time>2019-03-14T16:27:15Z</time>
      </trkpt>
      <trkpt lat="30.009538577869534" lon="-5.524071240797639">
        <ele>621.63</ele>
        <time>2019-03-14T16:27:16Z</time>
      </trkpt>
      <trkpt lat="30.009499685838819" lon="-5.52412454970181">
        <ele>621.63</ele>
        <time>2019-03-14T16:27:17Z</time>
      </trkpt>
      <trkpt lat="30.009408742189407" lon="-5.524291768670082">
        <ele>623.07000000000005</ele>
        <time>2019-03-14T16:27:20Z</time>
      </trkpt>
      <trkpt lat="30.009326096624136" lon="-5.524480361491442">
        <ele>622.59000000000003</ele>
        <time>2019-03-14T16:27:23Z</time>
      </trkpt>
      <trkpt lat="30.009288713335991" lon="-5.524533418938518">
        <ele>623.07000000000005</ele>
        <time>2019-03-14T16:27:24Z</time>
      </trkpt>
      <trkpt lat="30.008972631767392" lon="-5.524892080575228">
        <ele>623.07000000000005</ele>
        <time>2019-03-14T16:27:33Z</time>
      </trkpt>
      <trkpt lat="30.008608270436525" lon="-5.525261806324124">
        <ele>623.07000000000005</ele>
        <time>2019-03-14T16:27:39Z</time>
      </trkpt>
      <trkpt lat="30.008385060355067" lon="-5.52539449185133">
        <ele>623.54999999999995</ele>
        <time>2019-03-14T16:27:42Z</time>
      </trkpt>
      <trkpt lat="30.008231922984123" lon="-5.525458278134465">
        <ele>623.54999999999995</ele>
        <time>2019-03-14T16:27:44Z</time>
      </trkpt>
      <trkpt lat="30.008166208863258" lon="-5.525499768555164">
        <ele>623.07000000000005</ele>
        <time>2019-03-14T16:27:45Z</time>
      </trkpt>
      <trkpt lat="30.00810862518847" lon="-5.525554250925779">
        <ele>623.07000000000005</ele>
        <time>2019-03-14T16:27:46Z</time>
      </trkpt>
      <trkpt lat="30.008063362911344" lon="-5.525624323636293">
        <ele>622.11000000000001</ele>
        <time>2019-03-14T16:27:47Z</time>
      </trkpt>
      <trkpt lat="30.008033607155085" lon="-5.525707891210914">
        <ele>622.11000000000001</ele>
        <time>2019-03-14T16:27:48Z</time>
      </trkpt>
      <trkpt lat="30.008012484759092" lon="-5.525802941992879">
        <ele>621.14999999999998</ele>
        <time>2019-03-14T16:27:49Z</time>
      </trkpt>
      <trkpt lat="30.007993374019861" lon="-5.52590461447835">
        <ele>620.19000000000005</ele>
        <time>2019-03-14T16:27:50Z</time>
      </trkpt>
      <trkpt lat="30.007562376558781" lon="-5.526730231940746">
        <ele>619.71000000000004</ele>
        <time>2019-03-14T16:28:00Z</time>
      </trkpt>
      <trkpt lat="30.006819572299719" lon="-5.52766221575439">
        <ele>619.71000000000004</ele>
        <time>2019-03-14T16:28:13Z</time>
      </trkpt>
      <trkpt lat="30.006353035569191" lon="-5.528135877102613">
        <ele>618.75</ele>
        <time>2019-03-14T16:28:23Z</time>
      </trkpt>
      <trkpt lat="30.006013149395585" lon="-5.52855153568089">
        <ele>617.77999999999997</ele>
        <time>2019-03-14T16:28:31Z</time>
      </trkpt>
      <trkpt lat="30.005652392283082" lon="-5.528931403532624">
        <ele>617.77999999999997</ele>
        <time>2019-03-14T16:28:37Z</time>
      </trkpt>
      <trkpt lat="30.005605034530163" lon="-5.529000554233789">
        <ele>617.77999999999997</ele>
        <time>2019-03-14T16:28:38Z</time>
      </trkpt>
      <trkpt lat="30.005021737888455" lon="-5.529926586896181">
        <ele>617.77999999999997</ele>
        <time>2019-03-14T16:28:51Z</time>
      </trkpt>
      <trkpt lat="30.004679672420025" lon="-5.530426986515522">
        <ele>617.77999999999997</ele>
        <time>2019-03-14T16:28:58Z</time>
      </trkpt>
      <trkpt lat="30.004617227241397" lon="-5.530487587675452">
        <ele>617.77999999999997</ele>
        <time>2019-03-14T16:28:59Z</time>
      </trkpt>
      <trkpt lat="30.004553273320198" lon="-5.530546680092812">
        <ele>617.77999999999997</ele>
        <time>2019-03-14T16:29:00Z</time>
      </trkpt>
      <trkpt lat="30.00449426472187" lon="-5.530611975118518">
        <ele>617.77999999999997</ele>
        <time>2019-03-14T16:29:01Z</time>
      </trkpt>
      <trkpt lat="30.004443051293492" lon="-5.530686406418681">
        <ele>617.77999999999997</ele>
        <time>2019-03-14T16:29:02Z</time>
      </trkpt>
      <trkpt lat="30.004405248910189" lon="-5.53077282384038">
        <ele>617.77999999999997</ele>
        <time>2019-03-14T16:29:03Z</time>
      </trkpt>
      <trkpt lat="30.00438236631453" lon="-5.530866198241711">
        <ele>617.29999999999995</ele>
        <time>2019-03-14T16:29:04Z</time>
      </trkpt>
      <trkpt lat="30.004377169534564" lon="-5.530965020880103">
        <ele>617.77999999999997</ele>
        <time>2019-03-14T16:29:05Z</time>
      </trkpt>
      <trkpt lat="30.004391837865114" lon="-5.531061999499798">
        <ele>617.77999999999997</ele>
        <time>2019-03-14T16:29:06Z</time>
      </trkpt>
      <trkpt lat="30.004423270002007" lon="-5.531151602044702">
        <ele>618.75</ele>
        <time>2019-03-14T16:29:07Z</time>
      </trkpt>
      <trkpt lat="30.004460485652089" lon="-5.531243132427335">
        <ele>618.25999999999999</ele>
        <time>2019-03-14T16:29:08Z</time>
      </trkpt>
      <trkpt lat="30.004757791757584" lon="-5.53257929161191">
        <ele>617.77999999999997</ele>
        <time>2019-03-14T16:29:21Z</time>
      </trkpt>
      <trkpt lat="30.004892908036709" lon="-5.533301057294011">
        <ele>618.25999999999999</ele>
        <time>2019-03-14T16:29:28Z</time>
      </trkpt>
      <trkpt lat="30.00523547641933" lon="-5.534048052504659">
        <ele>618.25999999999999</ele>
        <time>2019-03-14T16:29:36Z</time>
      </trkpt>
      <trkpt lat="30.005268333479762" lon="-5.534147713333368">
        <ele>618.25999999999999</ele>
        <time>2019-03-14T16:29:37Z</time>
      </trkpt>
      <trkpt lat="30.005658594891429" lon="-5.535759218037128">
        <ele>618.75</ele>
        <time>2019-03-14T16:29:52Z</time>
      </trkpt>
      <trkpt lat="30.005706455558538" lon="-5.535950912162662">
        <ele>620.66999999999996</ele>
        <time>2019-03-14T16:29:54Z</time>
      </trkpt>
      <trkpt lat="30.005716346204281" lon="-5.536040598526597">
        <ele>621.14999999999998</ele>
        <time>2019-03-14T16:29:55Z</time>
      </trkpt>
      <trkpt lat="30.005670078098774" lon="-5.537100909277797">
        <ele>621.14999999999998</ele>
        <time>2019-03-14T16:30:04Z</time>
      </trkpt>
      <trkpt lat="30.005633113905787" lon="-5.537230828776956">
        <ele>621.14999999999998</ele>
        <time>2019-03-14T16:30:05Z</time>
      </trkpt>
      <trkpt lat="30.005021821707487" lon="-5.538561036810279">
        <ele>621.14999999999998</ele>
        <time>2019-03-14T16:30:15Z</time>
      </trkpt>
      <trkpt lat="30.004792660474777" lon="-5.538892205804586">
        <ele>621.14999999999998</ele>
        <time>2019-03-14T16:30:18Z</time>
      </trkpt>
      <trkpt lat="30.004704315215349" lon="-5.538978287950158">
        <ele>621.63</ele>
        <time>2019-03-14T16:30:19Z</time>
      </trkpt>
      <trkpt lat="30.004609515890479" lon="-5.539060179144144">
        <ele>621.63</ele>
        <time>2019-03-14T16:30:20Z</time>
      </trkpt>
      <trkpt lat="30.003609387204051" lon="-5.539763001725078">
        <ele>621.63</ele>
        <time>2019-03-14T16:30:30Z</time>
      </trkpt>
      <trkpt lat="30.003523388877511" lon="-5.539846317842603">
        <ele>622.11000000000001</ele>
        <time>2019-03-14T16:30:31Z</time>
      </trkpt>
      <trkpt lat="30.002706404775381" lon="-5.540685011073947">
        <ele>622.11000000000001</ele>
        <time>2019-03-14T16:30:42Z</time>
      </trkpt>
      <trkpt lat="30.002570785582066" lon="-5.540804285556078">
        <ele>622.11000000000001</ele>
        <time>2019-03-14T16:30:44Z</time>
      </trkpt>
      <trkpt lat="30.002502724528313" lon="-5.540850469842553">
        <ele>622.11000000000001</ele>
        <time>2019-03-14T16:30:45Z</time>
      </trkpt>
      <trkpt lat="30.002004001289606" lon="-5.541061274707317">
        <ele>621.63</ele>
        <time>2019-03-14T16:30:52Z</time>
      </trkpt>
      <trkpt lat="30.001935940235853" lon="-5.541094299405813">
        <ele>621.63</ele>
        <time>2019-03-14T16:30:53Z</time>
      </trkpt>
      <trkpt lat="30.001876428723335" lon="-5.541134616360068">
        <ele>622.11000000000001</ele>
        <time>2019-03-14T16:30:54Z</time>
      </trkpt>
      <trkpt lat="30.001762434840202" lon="-5.541213992983103">
        <ele>622.11000000000001</ele>
        <time>2019-03-14T16:30:56Z</time>
      </trkpt>
      <trkpt lat="30.001638634130359" lon="-5.541286831721664">
        <ele>622.11000000000001</ele>
        <time>2019-03-14T16:30:58Z</time>
      </trkpt>
      <trkpt lat="30.001586666330695" lon="-5.541333770379424">
        <ele>621.63</ele>
        <time>2019-03-14T16:30:59Z</time>
      </trkpt>
      <trkpt lat="30.00154291279614" lon="-5.541387498378754">
        <ele>621.63</ele>
        <time>2019-03-14T16:31:00Z</time>
      </trkpt>
      <trkpt lat="30.001498069614172" lon="-5.541440472006798">
        <ele>622.11000000000001</ele>
        <time>2019-03-14T16:31:01Z</time>
      </trkpt>
      <trkpt lat="30.001444593071938" lon="-5.541486656293273">
        <ele>622.59000000000003</ele>
        <time>2019-03-14T16:31:02Z</time>
      </trkpt>
      <trkpt lat="30.001384830102324" lon="-5.541522614657879">
        <ele>622.11000000000001</ele>
        <time>2019-03-14T16:31:03Z</time>
      </trkpt>
      <trkpt lat="30.001326240599155" lon="-5.54155538789928">
        <ele>621.14999999999998</ele>
        <time>2019-03-14T16:31:04Z</time>
      </trkpt>
      <trkpt lat="30.000902451574802" lon="-5.541860992088914">
        <ele>621.14999999999998</ele>
        <time>2019-03-14T16:31:11Z</time>
      </trkpt>
      <trkpt lat="30.000296859070659" lon="-5.54228444583714">
        <ele>620.66999999999996</ele>
        <time>2019-03-14T16:31:20Z</time>
      </trkpt>
      <trkpt lat="29.999635862186551" lon="-5.542846703901887">
        <ele>620.66999999999996</ele>
        <time>2019-03-14T16:31:30Z</time>
      </trkpt>
      <trkpt lat="29.998886184766889" lon="-5.543549526482821">
        <ele>620.66999999999996</ele>
        <time>2019-03-14T16:31:40Z</time>
      </trkpt>
      <trkpt lat="29.998757941648364" lon="-5.543657569214702">
        <ele>621.14999999999998</ele>
        <time>2019-03-14T16:31:42Z</time>
      </trkpt>
      <trkpt lat="29.998540431261063" lon="-5.543803498148918">
        <ele>621.14999999999998</ele>
        <time>2019-03-14T16:31:45Z</time>
      </trkpt>
      <trkpt lat="29.998472286388278" lon="-5.543863093480468">
        <ele>622.11000000000001</ele>
        <time>2019-03-14T16:31:46Z</time>
      </trkpt>
      <trkpt lat="29.998408500105143" lon="-5.543931489810348">
        <ele>620.66999999999996</ele>
        <time>2019-03-14T16:31:47Z</time>
      </trkpt>
      <trkpt lat="29.998007090762258" lon="-5.544361984357238">
        <ele>620.66999999999996</ele>
        <time>2019-03-14T16:31:56Z</time>
      </trkpt>
      <trkpt lat="29.997562346979976" lon="-5.544584356248379">
        <ele>620.66999999999996</ele>
        <time>2019-03-14T16:32:05Z</time>
      </trkpt>
      <trkpt lat="29.996853489428759" lon="-5.544783342629671">
        <ele>621.14999999999998</ele>
        <time>2019-03-14T16:32:16Z</time>
      </trkpt>
      <trkpt lat="29.996448727324605" lon="-5.545027423650026">
        <ele>619.71000000000004</ele>
        <time>2019-03-14T16:32:24Z</time>
      </trkpt>
      <trkpt lat="29.995580362156034" lon="-5.545645086094737">
        <ele>618.75</ele>
        <time>2019-03-14T16:32:38Z</time>
      </trkpt>
      <trkpt lat="29.995518587529659" lon="-5.545674506574869">
        <ele>618.25999999999999</ele>
        <time>2019-03-14T16:32:39Z</time>
      </trkpt>
      <trkpt lat="29.994961861521006" lon="-5.546016320586205">
        <ele>618.25999999999999</ele>
        <time>2019-03-14T16:32:50Z</time>
      </trkpt>
      <trkpt lat="29.994240431115031" lon="-5.54656776599586">
        <ele>618.75</ele>
        <time>2019-03-14T16:33:01Z</time>
      </trkpt>
      <trkpt lat="29.993308195844293" lon="-5.5474360473454">
        <ele>618.75</ele>
        <time>2019-03-14T16:33:13Z</time>
      </trkpt>
      <trkpt lat="29.992370763793588" lon="-5.548602472990751">
        <ele>618.75</ele>
        <time>2019-03-14T16:33:26Z</time>
      </trkpt>
      <trkpt lat="29.991603903472424" lon="-5.549208568409085">
        <ele>618.75</ele>
        <time>2019-03-14T16:33:36Z</time>
      </trkpt>
      <trkpt lat="29.991523940116167" lon="-5.549240587279201">
        <ele>618.75</ele>
        <time>2019-03-14T16:33:37Z</time>
      </trkpt>
      <trkpt lat="29.991440288722515" lon="-5.549264475703239">
        <ele>618.25999999999999</ele>
        <time>2019-03-14T16:33:38Z</time>
      </trkpt>
      <trkpt lat="29.990845927968621" lon="-5.549480225890875">
        <ele>617.77999999999997</ele>
        <time>2019-03-14T16:33:46Z</time>
      </trkpt>
      <trkpt lat="29.990793624892831" lon="-5.549530433490872">
        <ele>617.77999999999997</ele>
        <time>2019-03-14T16:33:47Z</time>
      </trkpt>
      <trkpt lat="29.990437142550945" lon="-5.549934776499867">
        <ele>618.25999999999999</ele>
        <time>2019-03-14T16:33:53Z</time>
      </trkpt>
      <trkpt lat="29.990357598289847" lon="-5.549995293840766">
        <ele>618.25999999999999</ele>
        <time>2019-03-14T16:33:54Z</time>
      </trkpt>
      <trkpt lat="29.989752843976021" lon="-5.550352111458778">
        <ele>618.25999999999999</ele>
        <time>2019-03-14T16:34:02Z</time>
      </trkpt>
      <trkpt lat="29.989526281133294" lon="-5.550436601042748">
        <ele>618.25999999999999</ele>
        <time>2019-03-14T16:34:05Z</time>
      </trkpt>
      <trkpt lat="29.989297203719616" lon="-5.550498710945249">
        <ele>617.77999999999997</ele>
        <time>2019-03-14T16:34:08Z</time>
      </trkpt>
      <trkpt lat="29.989226208999753" lon="-5.550535675138235">
        <ele>617.77999999999997</ele>
        <time>2019-03-14T16:34:09Z</time>
      </trkpt>
      <trkpt lat="29.989154459908605" lon="-5.550583871081471">
        <ele>617.77999999999997</ele>
        <time>2019-03-14T16:34:10Z</time>
      </trkpt>
      <trkpt lat="29.988494887948036" lon="-5.551205640658736">
        <ele>617.77999999999997</ele>
        <time>2019-03-14T16:34:19Z</time>
      </trkpt>
      <trkpt lat="29.987776894122362" lon="-5.551847359165549">
        <ele>618.25999999999999</ele>
        <time>2019-03-14T16:34:30Z</time>
      </trkpt>
      <trkpt lat="29.987710509449244" lon="-5.551908630877733">
        <ele>617.77999999999997</ele>
        <time>2019-03-14T16:34:31Z</time>
      </trkpt>
      <trkpt lat="29.987638844177127" lon="-5.551958754658699">
        <ele>617.77999999999997</ele>
        <time>2019-03-14T16:34:32Z</time>
      </trkpt>
      <trkpt lat="29.987566089257598" lon="-5.551998233422637">
        <ele>617.77999999999997</ele>
        <time>2019-03-14T16:34:33Z</time>
      </trkpt>
      <trkpt lat="29.98730038292706" lon="-5.552104180678725">
        <ele>617.29999999999995</ele>
        <time>2019-03-14T16:34:37Z</time>
      </trkpt>
      <trkpt lat="29.987261490896344" lon="-5.552135026082397">
        <ele>617.29999999999995</ele>
        <time>2019-03-14T16:34:38Z</time>
      </trkpt>
      <trkpt lat="29.987246403470635" lon="-5.552174085751176">
        <ele>617.29999999999995</ele>
        <time>2019-03-14T16:34:39Z</time>
      </trkpt>
      <trkpt lat="29.987247660756111" lon="-5.552215911448002">
        <ele>617.29999999999995</ele>
        <time>2019-03-14T16:34:40Z</time>
      </trkpt>
      <trkpt lat="29.987258389592171" lon="-5.552262263372541">
        <ele>617.29999999999995</ele>
        <time>2019-03-14T16:34:41Z</time>
      </trkpt>
      <trkpt lat="29.987275740131736" lon="-5.552312973886728">
        <ele>617.77999999999997</ele>
        <time>2019-03-14T16:34:42Z</time>
      </trkpt>
      <trkpt lat="29.987299209460616" lon="-5.552368629723787">
        <ele>619.23000000000002</ele>
        <time>2019-03-14T16:34:43Z</time>
      </trkpt>
      <trkpt lat="29.987327205017209" lon="-5.552426716312766">
        <ele>619.23000000000002</ele>
        <time>2019-03-14T16:34:44Z</time>
      </trkpt>
      <trkpt lat="29.987691817805171" lon="-5.553407147526741">
        <ele>620.66999999999996</ele>
        <time>2019-03-14T16:34:57Z</time>
      </trkpt>
      <trkpt lat="29.988003792241216" lon="-5.554360924288631">
        <ele>622.11000000000001</ele>
        <time>2019-03-14T16:35:08Z</time>
      </trkpt>
      <trkpt lat="29.988410146906972" lon="-5.555499270558357">
        <ele>622.59000000000003</ele>
        <time>2019-03-14T16:35:22Z</time>
      </trkpt>
      <trkpt lat="29.988725893199444" lon="-5.556390350684524">
        <ele>622.11000000000001</ele>
        <time>2019-03-14T16:35:31Z</time>
      </trkpt>
      <trkpt lat="29.989396193996072" lon="-5.558395050466061">
        <ele>621.14999999999998</ele>
        <time>2019-03-14T16:35:47Z</time>
      </trkpt>
      <trkpt lat="29.989820988848805" lon="-5.559643870219588">
        <ele>620.66999999999996</ele>
        <time>2019-03-14T16:35:59Z</time>
      </trkpt>
      <trkpt lat="29.990162886679173" lon="-5.560744078829885">
        <ele>620.66999999999996</ele>
        <time>2019-03-14T16:36:11Z</time>
      </trkpt>
      <trkpt lat="29.990425491705537" lon="-5.561971021816135">
        <ele>620.66999999999996</ele>
        <time>2019-03-14T16:36:24Z</time>
      </trkpt>
      <trkpt lat="29.990643840283155" lon="-5.563306175172329">
        <ele>620.66999999999996</ele>
        <time>2019-03-14T16:36:37Z</time>
      </trkpt>
      <trkpt lat="29.990600841119885" lon="-5.564765045419335">
        <ele>620.66999999999996</ele>
        <time>2019-03-14T16:36:48Z</time>
      </trkpt>
      <trkpt lat="29.990441668778658" lon="-5.565987545996904">
        <ele>620.66999999999996</ele>
        <time>2019-03-14T16:36:59Z</time>
      </trkpt>
      <trkpt lat="29.990120809525251" lon="-5.567329069599509">
        <ele>621.14999999999998</ele>
        <time>2019-03-14T16:37:10Z</time>
      </trkpt>
      <trkpt lat="29.990025088191032" lon="-5.56782117113471">
        <ele>621.14999999999998</ele>
        <time>2019-03-14T16:37:14Z</time>
      </trkpt>
      <trkpt lat="29.990027518942952" lon="-5.567926531657577">
        <ele>621.14999999999998</ele>
        <time>2019-03-14T16:37:15Z</time>
      </trkpt>
      <trkpt lat="29.990036236122251" lon="-5.568117219954729">
        <ele>621.14999999999998</ele>
        <time>2019-03-14T16:37:17Z</time>
      </trkpt>
      <trkpt lat="29.990027938038111" lon="-5.568192573264241">
        <ele>621.14999999999998</ele>
        <time>2019-03-14T16:37:18Z</time>
      </trkpt>
      <trkpt lat="29.990015365183353" lon="-5.568240266293287">
        <ele>620.19000000000005</ele>
        <time>2019-03-14T16:37:19Z</time>
      </trkpt>
      <trkpt lat="29.989997344091535" lon="-5.568275051191449">
        <ele>620.19000000000005</ele>
        <time>2019-03-14T16:37:20Z</time>
      </trkpt>
      <trkpt lat="29.989975718781352" lon="-5.568311512470245">
        <ele>620.19000000000005</ele>
        <time>2019-03-14T16:37:21Z</time>
      </trkpt>
      <trkpt lat="29.989952584728599" lon="-5.568360881879926">
        <ele>620.66999999999996</ele>
        <time>2019-03-14T16:37:22Z</time>
      </trkpt>
      <trkpt lat="29.989617057144642" lon="-5.569115588441491">
        <ele>620.19000000000005</ele>
        <time>2019-03-14T16:37:31Z</time>
      </trkpt>
      <trkpt lat="29.989193519577384" lon="-5.569849424064159">
        <ele>620.19000000000005</ele>
        <time>2019-03-14T16:37:39Z</time>
      </trkpt>
      <trkpt lat="29.989158902317286" lon="-5.569954700767994">
        <ele>619.71000000000004</ele>
        <time>2019-03-14T16:37:40Z</time>
      </trkpt>
      <trkpt lat="29.9891356844455" lon="-5.570065593346953">
        <ele>620.66999999999996</ele>
        <time>2019-03-14T16:37:41Z</time>
      </trkpt>
      <trkpt lat="29.989120597019792" lon="-5.570181431248784">
        <ele>620.19000000000005</ele>
        <time>2019-03-14T16:37:42Z</time>
      </trkpt>
      <trkpt lat="29.989107605069876" lon="-5.570302298292518">
        <ele>618.25999999999999</ele>
        <time>2019-03-14T16:37:43Z</time>
      </trkpt>
      <trkpt lat="29.989056307822466" lon="-5.570882074534893">
        <ele>619.23000000000002</ele>
        <time>2019-03-14T16:37:48Z</time>
      </trkpt>
      <trkpt lat="29.989017080515623" lon="-5.571154402568936">
        <ele>619.23000000000002</ele>
        <time>2019-03-14T16:37:51Z</time>
      </trkpt>
      <trkpt lat="29.989013057202101" lon="-5.571309886872768">
        <ele>619.23000000000002</ele>
        <time>2019-03-14T16:37:53Z</time>
      </trkpt>
      <trkpt lat="29.988861931487918" lon="-5.57231068611145">
        <ele>619.23000000000002</ele>
        <time>2019-03-14T16:38:03Z</time>
      </trkpt>
      <trkpt lat="29.988412242382765" lon="-5.573576604947448">
        <ele>618.25999999999999</ele>
        <time>2019-03-14T16:38:15Z</time>
      </trkpt>
      <trkpt lat="29.988318784162402" lon="-5.573855387046933">
        <ele>617.29999999999995</ele>
        <time>2019-03-14T16:38:18Z</time>
      </trkpt>
      <trkpt lat="29.988302523270249" lon="-5.573947755619884">
        <ele>617.29999999999995</ele>
        <time>2019-03-14T16:38:19Z</time>
      </trkpt>
      <trkpt lat="29.988291710615158" lon="-5.574047081172466">
        <ele>617.77999999999997</ele>
        <time>2019-03-14T16:38:20Z</time>
      </trkpt>
      <trkpt lat="29.988378379493952" lon="-5.575106469914317">
        <ele>618.25999999999999</ele>
        <time>2019-03-14T16:38:29Z</time>
      </trkpt>
      <trkpt lat="29.988515842705965" lon="-5.57684663683176">
        <ele>618.25999999999999</ele>
        <time>2019-03-14T16:38:42Z</time>
      </trkpt>
      <trkpt lat="29.988559512421489" lon="-5.57743102312088">
        <ele>617.77999999999997</ele>
        <time>2019-03-14T16:38:47Z</time>
      </trkpt>
      <trkpt lat="29.988806527107954" lon="-5.577919268980622">
        <ele>617.77999999999997</ele>
        <time>2019-03-14T16:38:53Z</time>
      </trkpt>
      <trkpt lat="29.988977769389749" lon="-5.57821674272418">
        <ele>617.77999999999997</ele>
        <time>2019-03-14T16:38:58Z</time>
      </trkpt>
      <trkpt lat="29.989016158506274" lon="-5.578506253659725">
        <ele>618.25999999999999</ele>
        <time>2019-03-14T16:39:01Z</time>
      </trkpt>
      <trkpt lat="29.988962598145008" lon="-5.57903615757823">
        <ele>617.77999999999997</ele>
        <time>2019-03-14T16:39:06Z</time>
      </trkpt>
      <trkpt lat="29.989032167941332" lon="-5.579699166119099">
        <ele>619.23000000000002</ele>
        <time>2019-03-14T16:39:12Z</time>
      </trkpt>
      <trkpt lat="29.989001322537661" lon="-5.580201828852296">
        <ele>618.25999999999999</ele>
        <time>2019-03-14T16:39:18Z</time>
      </trkpt>
      <trkpt lat="29.988946253433824" lon="-5.580538446083665">
        <ele>618.25999999999999</ele>
        <time>2019-03-14T16:39:22Z</time>
      </trkpt>
      <trkpt lat="29.988914737477899" lon="-5.580924013629556">
        <ele>617.77999999999997</ele>
        <time>2019-03-14T16:39:26Z</time>
      </trkpt>
      <trkpt lat="29.98861625790596" lon="-5.582304010167718">
        <ele>617.77999999999997</ele>
        <time>2019-03-14T16:39:38Z</time>
      </trkpt>
      <trkpt lat="29.988599829375744" lon="-5.58336297981441">
        <ele>618.25999999999999</ele>
        <time>2019-03-14T16:39:47Z</time>
      </trkpt>
      <trkpt lat="29.988623047247529" lon="-5.583571437746286">
        <ele>618.25999999999999</ele>
        <time>2019-03-14T16:39:49Z</time>
      </trkpt>
      <trkpt lat="29.988626148551702" lon="-5.584076782688499">
        <ele>618.25999999999999</ele>
        <time>2019-03-14T16:39:57Z</time>
      </trkpt>
      <trkpt lat="29.988642828539014" lon="-5.58412816375494">
        <ele>618.25999999999999</ele>
        <time>2019-03-14T16:40:01Z</time>
      </trkpt>
      <trkpt lat="29.988672751933336" lon="-5.584148280322552">
        <ele>617.29999999999995</ele>
        <time>2019-03-14T16:40:02Z</time>
      </trkpt>
      <trkpt lat="29.988709716126323" lon="-5.584160936996341">
        <ele>616.82000000000005</ele>
        <time>2019-03-14T16:40:03Z</time>
      </trkpt>
      <trkpt lat="29.98875162564218" lon="-5.584165463224053">
        <ele>616.82000000000005</ele>
        <time>2019-03-14T16:40:04Z</time>
      </trkpt>
      <trkpt lat="29.988802671432495" lon="-5.584168564528227">
        <ele>616.82000000000005</ele>
        <time>2019-03-14T16:40:05Z</time>
      </trkpt>
      <trkpt lat="29.989511612802744" lon="-5.58423469774425">
        <ele>617.29999999999995</ele>
        <time>2019-03-14T16:40:16Z</time>
      </trkpt>
      <trkpt lat="29.990322142839432" lon="-5.584212653338909">
        <ele>617.77999999999997</ele>
        <time>2019-03-14T16:40:31Z</time>
      </trkpt>
      <trkpt lat="29.990416271612048" lon="-5.584173845127225">
        <ele>617.77999999999997</ele>
        <time>2019-03-14T16:40:33Z</time>
      </trkpt>
      <trkpt lat="29.990618526935577" lon="-5.584031017497182">
        <ele>617.77999999999997</ele>
        <time>2019-03-14T16:40:43Z</time>
      </trkpt>
      <trkpt lat="29.990716679021716" lon="-5.58390436694026">
        <ele>617.77999999999997</ele>
        <time>2019-03-14T16:41:01Z</time>
      </trkpt>
      <trkpt lat="29.990769987925887" lon="-5.583853153511882">
        <ele>618.25999999999999</ele>
        <time>2019-03-14T16:41:03Z</time>
      </trkpt>
      <trkpt lat="29.990802761167288" lon="-5.58384770527482">
        <ele>618.25999999999999</ele>
        <time>2019-03-14T16:41:04Z</time>
      </trkpt>
      <trkpt lat="29.990836372599006" lon="-5.58385650627315">
        <ele>618.25999999999999</ele>
        <time>2019-03-14T16:41:05Z</time>
      </trkpt>
      <trkpt lat="29.990867804735899" lon="-5.583879053592682">
        <ele>618.25999999999999</ele>
        <time>2019-03-14T16:41:06Z</time>
      </trkpt>
      <trkpt lat="29.990890938788652" lon="-5.583913000300527">
        <ele>618.25999999999999</ele>
        <time>2019-03-14T16:41:07Z</time>
      </trkpt>
      <trkpt lat="29.990903092548251" lon="-5.58395960368216">
        <ele>618.25999999999999</ele>
        <time>2019-03-14T16:41:08Z</time>
      </trkpt>
      <trkpt lat="29.990911222994328" lon="-5.584011068567634">
        <ele>619.23000000000002</ele>
        <time>2019-03-14T16:41:09Z</time>
      </trkpt>
      <trkpt lat="29.990935446694493" lon="-5.584112070500851">
        <ele>620.66999999999996</ele>
        <time>2019-03-14T16:41:11Z</time>
      </trkpt>
      <trkpt lat="29.990963274613023" lon="-5.584151800721884">
        <ele>620.19000000000005</ele>
        <time>2019-03-14T16:41:12Z</time>
      </trkpt>
      <trkpt lat="29.990996466949582" lon="-5.584180550649762">
        <ele>620.19000000000005</ele>
        <time>2019-03-14T16:41:13Z</time>
      </trkpt>
      <trkpt lat="29.991063186898828" lon="-5.584217766299844">
        <ele>620.19000000000005</ele>
        <time>2019-03-14T16:41:21Z</time>
      </trkpt>
      <trkpt lat="29.991082884371281" lon="-5.584237882867456">
        <ele>620.19000000000005</ele>
        <time>2019-03-14T16:41:54Z</time>
      </trkpt>
      <trkpt lat="29.991149352863431" lon="-5.584369394928217">
        <ele>621.14999999999998</ele>
        <time>2019-03-14T16:41:58Z</time>
      </trkpt>
      <trkpt lat="29.991147425025702" lon="-5.5844203568995">
        <ele>621.63</ele>
        <time>2019-03-14T16:41:59Z</time>
      </trkpt>
      <trkpt lat="29.991137785837054" lon="-5.584472240880132">
        <ele>621.63</ele>
        <time>2019-03-14T16:42:00Z</time>
      </trkpt>
      <trkpt lat="29.990997053682804" lon="-5.585275394842029">
        <ele>622.11000000000001</ele>
        <time>2019-03-14T16:42:11Z</time>
      </trkpt>
      <trkpt lat="29.990669572725892" lon="-5.586630161851645">
        <ele>622.59000000000003</ele>
        <time>2019-03-14T16:42:24Z</time>
      </trkpt>
      <trkpt lat="29.990452062338591" lon="-5.588791351765394">
        <ele>623.54999999999995</ele>
        <time>2019-03-14T16:42:41Z</time>
      </trkpt>
      <trkpt lat="29.990493720397353" lon="-5.590588515624404">
        <ele>624.02999999999997</ele>
        <time>2019-03-14T16:42:54Z</time>
      </trkpt>
      <trkpt lat="29.990621628239751" lon="-5.592002961784601">
        <ele>624.50999999999999</ele>
        <time>2019-03-14T16:43:05Z</time>
      </trkpt>
      <trkpt lat="29.990804940462112" lon="-5.593394106253982">
        <ele>626.44000000000005</ele>
        <time>2019-03-14T16:43:15Z</time>
      </trkpt>
      <trkpt lat="29.99125043861568" lon="-5.59528942219913">
        <ele>626.91999999999996</ele>
        <time>2019-03-14T16:43:28Z</time>
      </trkpt>
      <trkpt lat="29.991516899317503" lon="-5.597465028986335">
        <ele>627.88</ele>
        <time>2019-03-14T16:43:42Z</time>
      </trkpt>
      <trkpt lat="29.991836668923497" lon="-5.599734345450997">
        <ele>627.88</ele>
        <time>2019-03-14T16:43:57Z</time>
      </trkpt>
      <trkpt lat="29.992324328050017" lon="-5.601467220112681">
        <ele>627.39999999999998</ele>
        <time>2019-03-14T16:44:09Z</time>
      </trkpt>
      <trkpt lat="29.992987839505076" lon="-5.603530677035451">
        <ele>626.91999999999996</ele>
        <time>2019-03-14T16:44:24Z</time>
      </trkpt>
      <trkpt lat="29.993911106139421" lon="-5.605888590216637">
        <ele>626.91999999999996</ele>
        <time>2019-03-14T16:44:41Z</time>
      </trkpt>
      <trkpt lat="29.994585178792477" lon="-5.607692208141089">
        <ele>626.91999999999996</ele>
        <time>2019-03-14T16:44:55Z</time>
      </trkpt>
      <trkpt lat="29.994603116065264" lon="-5.607782145962119">
        <ele>627.39999999999998</ele>
        <time>2019-03-14T16:44:56Z</time>
      </trkpt>
      <trkpt lat="29.994635637849569" lon="-5.608025891706348">
        <ele>627.88</ele>
        <time>2019-03-14T16:44:59Z</time>
      </trkpt>
      <trkpt lat="29.994784835726023" lon="-5.608837511390448">
        <ele>627.88</ele>
        <time>2019-03-14T16:45:10Z</time>
      </trkpt>
      <trkpt lat="29.99493420124054" lon="-5.609272867441177">
        <ele>628.36000000000001</ele>
        <time>2019-03-14T16:45:14Z</time>
      </trkpt>
      <trkpt lat="29.995474498718977" lon="-5.610228236764669">
        <ele>627.39999999999998</ele>
        <time>2019-03-14T16:45:23Z</time>
      </trkpt>
      <trkpt lat="29.996101129800081" lon="-5.611347891390324">
        <ele>628.84000000000003</ele>
        <time>2019-03-14T16:45:33Z</time>
      </trkpt>
      <trkpt lat="29.99615041539073" lon="-5.611460795626044">
        <ele>628.84000000000003</ele>
        <time>2019-03-14T16:45:34Z</time>
      </trkpt>
      <trkpt lat="29.996777633205056" lon="-5.613277405500412">
        <ele>628.84000000000003</ele>
        <time>2019-03-14T16:45:48Z</time>
      </trkpt>
      <trkpt lat="29.997211983427405" lon="-5.614499486982822">
        <ele>630.27999999999997</ele>
        <time>2019-03-14T16:45:58Z</time>
      </trkpt>
      <trkpt lat="29.997638706117868" lon="-5.615828270092607">
        <ele>630.27999999999997</ele>
        <time>2019-03-14T16:46:08Z</time>
      </trkpt>
      <trkpt lat="29.997814055532217" lon="-5.616196151822805">
        <ele>631.24000000000001</ele>
        <time>2019-03-14T16:46:11Z</time>
      </trkpt>
      <trkpt lat="29.997883206233382" lon="-5.616317857056856">
        <ele>631.24000000000001</ele>
        <time>2019-03-14T16:46:12Z</time>
      </trkpt>
      <trkpt lat="29.998468179255724" lon="-5.617488725110889">
        <ele>631.72000000000003</ele>
        <time>2019-03-14T16:46:22Z</time>
      </trkpt>
      <trkpt lat="29.999130601063371" lon="-5.618735952302814">
        <ele>632.67999999999995</ele>
        <time>2019-03-14T16:46:32Z</time>
      </trkpt>
      <trkpt lat="29.999988153576851" lon="-5.620379224419594">
        <ele>633.16999999999996</ele>
        <time>2019-03-14T16:46:45Z</time>
      </trkpt>
      <trkpt lat="30.000110780820251" lon="-5.620578546077013">
        <ele>633.64999999999998</ele>
        <time>2019-03-14T16:46:47Z</time>
      </trkpt>
      <trkpt lat="30.000181524083018" lon="-5.620661191642284">
        <ele>633.64999999999998</ele>
        <time>2019-03-14T16:46:48Z</time>
      </trkpt>
      <trkpt lat="30.00039903447032" lon="-5.620932681486011">
        <ele>633.64999999999998</ele>
        <time>2019-03-14T16:46:51Z</time>
      </trkpt>
      <trkpt lat="30.000886777415872" lon="-5.62164899893105">
        <ele>633.64999999999998</ele>
        <time>2019-03-14T16:46:58Z</time>
      </trkpt>
      <trkpt lat="30.000950647518039" lon="-5.621756119653583">
        <ele>634.13</ele>
        <time>2019-03-14T16:46:59Z</time>
      </trkpt>
      <trkpt lat="30.001006219536066" lon="-5.621869023889303">
        <ele>634.61000000000001</ele>
        <time>2019-03-14T16:47:00Z</time>
      </trkpt>
      <trkpt lat="30.001512486487627" lon="-5.622805533930659">
        <ele>635.09000000000003</ele>
        <time>2019-03-14T16:47:08Z</time>
      </trkpt>
      <trkpt lat="30.001607537269592" lon="-5.62289890833199">
        <ele>636.04999999999995</ele>
        <time>2019-03-14T16:47:09Z</time>
      </trkpt>
      <trkpt lat="30.001878691837192" lon="-5.623175259679556">
        <ele>637.49000000000001</ele>
        <time>2019-03-14T16:47:12Z</time>
      </trkpt>
      <trkpt lat="30.001954464241862" lon="-5.623286906629801">
        <ele>637.97000000000003</ele>
        <time>2019-03-14T16:47:13Z</time>
      </trkpt>
      <trkpt lat="30.002109780907631" lon="-5.623508607968688">
        <ele>637.97000000000003</ele>
        <time>2019-03-14T16:47:15Z</time>
      </trkpt>
      <trkpt lat="30.002784859389067" lon="-5.624534301459789">
        <ele>638.45000000000005</ele>
        <time>2019-03-14T16:47:24Z</time>
      </trkpt>
      <trkpt lat="30.003518695011735" lon="-5.625669378787279">
        <ele>638.45000000000005</ele>
        <time>2019-03-14T16:47:34Z</time>
      </trkpt>
      <trkpt lat="30.003721620887518" lon="-5.626026783138514">
        <ele>638.92999999999995</ele>
        <time>2019-03-14T16:47:37Z</time>
      </trkpt>
      <trkpt lat="30.003806110471487" lon="-5.626135412603617">
        <ele>638.92999999999995</ele>
        <time>2019-03-14T16:47:38Z</time>
      </trkpt>
      <trkpt lat="30.004635499790311" lon="-5.627204859629273">
        <ele>638.92999999999995</ele>
        <time>2019-03-14T16:47:48Z</time>
      </trkpt>
      <trkpt lat="30.004813531413674" lon="-5.627405270934105">
        <ele>638.92999999999995</ele>
        <time>2019-03-14T16:47:50Z</time>
      </trkpt>
      <trkpt lat="30.004885867238045" lon="-5.627513397485018">
        <ele>638.92999999999995</ele>
        <time>2019-03-14T16:47:51Z</time>
      </trkpt>
      <trkpt lat="30.004943702369928" lon="-5.627632001414895">
        <ele>638.92999999999995</ele>
        <time>2019-03-14T16:47:52Z</time>
      </trkpt>
      <trkpt lat="30.005055433139205" lon="-5.627882452681661">
        <ele>638.92999999999995</ele>
        <time>2019-03-14T16:47:54Z</time>
      </trkpt>
      <trkpt lat="30.00512751750648" lon="-5.627999296411872">
        <ele>638.92999999999995</ele>
        <time>2019-03-14T16:47:55Z</time>
      </trkpt>
      <trkpt lat="30.005213683471084" lon="-5.62810231000185">
        <ele>639.40999999999997</ele>
        <time>2019-03-14T16:47:56Z</time>
      </trkpt>
      <trkpt lat="30.005309488624334" lon="-5.628193002194166">
        <ele>639.40999999999997</ele>
        <time>2019-03-14T16:47:57Z</time>
      </trkpt>
      <trkpt lat="30.005406467244029" lon="-5.628282185643911">
        <ele>640.38</ele>
        <time>2019-03-14T16:47:58Z</time>
      </trkpt>
      <trkpt lat="30.005496740341187" lon="-5.628380589187145">
        <ele>640.38</ele>
        <time>2019-03-14T16:47:59Z</time>
      </trkpt>
      <trkpt lat="30.005578882992268" lon="-5.628488464280963">
        <ele>640.38</ele>
        <time>2019-03-14T16:48:00Z</time>
      </trkpt>
      <trkpt lat="30.005654487758875" lon="-5.628603547811508">
        <ele>641.34000000000003</ele>
        <time>2019-03-14T16:48:01Z</time>
      </trkpt>
      <trkpt lat="30.006083473563194" lon="-5.629467889666557">
        <ele>641.34000000000003</ele>
        <time>2019-03-14T16:48:08Z</time>
      </trkpt>
      <trkpt lat="30.006148349493742" lon="-5.629582973197103">
        <ele>641.34000000000003</ele>
        <time>2019-03-14T16:48:09Z</time>
      </trkpt>
      <trkpt lat="30.006227642297745" lon="-5.62968791462481">
        <ele>641.34000000000003</ele>
        <time>2019-03-14T16:48:10Z</time>
      </trkpt>
      <trkpt lat="30.007210085168481" lon="-5.631012758240104">
        <ele>641.34000000000003</ele>
        <time>2019-03-14T16:48:22Z</time>
      </trkpt>
      <trkpt lat="30.008098399266601" lon="-5.632284125313163">
        <ele>641.34000000000003</ele>
        <time>2019-03-14T16:48:33Z</time>
      </trkpt>
      <trkpt lat="30.008584298193455" lon="-5.632977811619639">
        <ele>641.82000000000005</ele>
        <time>2019-03-14T16:48:39Z</time>
      </trkpt>
      <trkpt lat="30.008715642616153" lon="-5.633217701688409">
        <ele>641.82000000000005</ele>
        <time>2019-03-14T16:48:41Z</time>
      </trkpt>
      <trkpt lat="30.008792001754045" lon="-5.633329097181559">
        <ele>641.82000000000005</ele>
        <time>2019-03-14T16:48:42Z</time>
      </trkpt>
      <trkpt lat="30.009882571175694" lon="-5.634858291596174">
        <ele>641.82000000000005</ele>
        <time>2019-03-14T16:48:55Z</time>
      </trkpt>
      <trkpt lat="30.011211354285479" lon="-5.636701388284564">
        <ele>641.82000000000005</ele>
        <time>2019-03-14T16:49:11Z</time>
      </trkpt>
      <trkpt lat="30.01130623742938" lon="-5.636796019971371">
        <ele>641.82000000000005</ele>
        <time>2019-03-14T16:49:12Z</time>
      </trkpt>
      <trkpt lat="30.011400701478124" lon="-5.636889478191733">
        <ele>642.29999999999995</ele>
        <time>2019-03-14T16:49:13Z</time>
      </trkpt>
      <trkpt lat="30.011489298194647" lon="-5.63699341379106">
        <ele>642.29999999999995</ele>
        <time>2019-03-14T16:49:14Z</time>
      </trkpt>
      <trkpt lat="30.011570518836379" lon="-5.637104138731957">
        <ele>642.29999999999995</ele>
        <time>2019-03-14T16:49:15Z</time>
      </trkpt>
      <trkpt lat="30.011647464707494" lon="-5.637220060452819">
        <ele>642.77999999999997</ele>
        <time>2019-03-14T16:49:16Z</time>
      </trkpt>
      <trkpt lat="30.012605348601937" lon="-5.638428227975965">
        <ele>643.25999999999999</ele>
        <time>2019-03-14T16:49:27Z</time>
      </trkpt>
      <trkpt lat="30.012671481817961" lon="-5.638543562963605">
        <ele>643.25999999999999</ele>
        <time>2019-03-14T16:49:28Z</time>
      </trkpt>
      <trkpt lat="30.012712217867374" lon="-5.638669291511178">
        <ele>643.25999999999999</ele>
        <time>2019-03-14T16:49:29Z</time>
      </trkpt>
      <trkpt lat="30.012775836512446" lon="-5.638918234035373">
        <ele>643.25999999999999</ele>
        <time>2019-03-14T16:49:31Z</time>
      </trkpt>
      <trkpt lat="30.012827888131142" lon="-5.639029294252396">
        <ele>643.25999999999999</ele>
        <time>2019-03-14T16:49:32Z</time>
      </trkpt>
      <trkpt lat="30.012900223955512" lon="-5.639124847948551">
        <ele>643.25999999999999</ele>
        <time>2019-03-14T16:49:33Z</time>
      </trkpt>
      <trkpt lat="30.013063084334135" lon="-5.63930556178093">
        <ele>643.74000000000001</ele>
        <time>2019-03-14T16:49:35Z</time>
      </trkpt>
      <trkpt lat="30.013131313025951" lon="-5.639411928132176">
        <ele>643.74000000000001</ele>
        <time>2019-03-14T16:49:36Z</time>
      </trkpt>
      <trkpt lat="30.013188226148486" lon="-5.639530196785927">
        <ele>643.74000000000001</ele>
        <time>2019-03-14T16:49:37Z</time>
      </trkpt>
      <trkpt lat="30.013237427920103" lon="-5.639655841514468">
        <ele>643.74000000000001</ele>
        <time>2019-03-14T16:49:38Z</time>
      </trkpt>
      <trkpt lat="30.013285204768181" lon="-5.639783833175898">
        <ele>644.22000000000003</ele>
        <time>2019-03-14T16:49:39Z</time>
      </trkpt>
      <trkpt lat="30.013341028243303" lon="-5.63990905880928">
        <ele>645.17999999999995</ele>
        <time>2019-03-14T16:49:40Z</time>
      </trkpt>
      <trkpt lat="30.013407915830612" lon="-5.640030428767204">
        <ele>645.17999999999995</ele>
        <time>2019-03-14T16:49:41Z</time>
      </trkpt>
      <trkpt lat="30.013483185321093" lon="-5.640146937221289">
        <ele>645.17999999999995</ele>
        <time>2019-03-14T16:49:42Z</time>
      </trkpt>
      <trkpt lat="30.014435788616538" lon="-5.641578650102019">
        <ele>645.17999999999995</ele>
        <time>2019-03-14T16:49:54Z</time>
      </trkpt>
      <trkpt lat="30.015621408820152" lon="-5.643399283289909">
        <ele>645.65999999999997</ele>
        <time>2019-03-14T16:50:08Z</time>
      </trkpt>
      <trkpt lat="30.016701584681869" lon="-5.645028473809362">
        <ele>645.65999999999997</ele>
        <time>2019-03-14T16:50:21Z</time>
      </trkpt>
      <trkpt lat="30.016948850825429" lon="-5.6454495806247">
        <ele>645.65999999999997</ele>
        <time>2019-03-14T16:50:25Z</time>
      </trkpt>
      <trkpt lat="30.016983048990369" lon="-5.645539602264762">
        <ele>645.65999999999997</ele>
        <time>2019-03-14T16:50:26Z</time>
      </trkpt>
      <trkpt lat="30.017007272690535" lon="-5.645625935867429">
        <ele>645.65999999999997</ele>
        <time>2019-03-14T16:50:27Z</time>
      </trkpt>
      <trkpt lat="30.017127972096205" lon="-5.646099681034684">
        <ele>645.65999999999997</ele>
        <time>2019-03-14T16:50:32Z</time>
      </trkpt>
      <trkpt lat="30.017178850248456" lon="-5.646199006587267">
        <ele>646.62</ele>
        <time>2019-03-14T16:50:33Z</time>
      </trkpt>
      <trkpt lat="30.017245067283511" lon="-5.646296991035342">
        <ele>649.02999999999997</ele>
        <time>2019-03-14T16:50:34Z</time>
      </trkpt>
      <trkpt lat="30.017321426421404" lon="-5.646390030160546">
        <ele>650.95000000000005</ele>
        <time>2019-03-14T16:50:35Z</time>
      </trkpt>
      <trkpt lat="30.01740382052958" lon="-5.646481141448021">
        <ele>651.90999999999997</ele>
        <time>2019-03-14T16:50:36Z</time>
      </trkpt>
      <trkpt lat="30.018598828464746" lon="-5.647664749994874">
        <ele>653.35000000000002</ele>
        <time>2019-03-14T16:50:48Z</time>
      </trkpt>
      <trkpt lat="30.020239502191544" lon="-5.649026390165091">
        <ele>653.83000000000004</ele>
        <time>2019-03-14T16:51:03Z</time>
      </trkpt>
      <trkpt lat="30.021696360781789" lon="-5.650398591533303">
        <ele>653.83000000000004</ele>
        <time>2019-03-14T16:51:17Z</time>
      </trkpt>
      <trkpt lat="30.023055402562022" lon="-5.65179736353457">
        <ele>655.27999999999997</ele>
        <time>2019-03-14T16:51:30Z</time>
      </trkpt>
      <trkpt lat="30.024531623348594" lon="-5.653437534347177">
        <ele>656.24000000000001</ele>
        <time>2019-03-14T16:51:45Z</time>
      </trkpt>
      <trkpt lat="30.026028379797935" lon="-5.655091786757112">
        <ele>657.20000000000005</ele>
        <time>2019-03-14T16:52:01Z</time>
      </trkpt>
      <trkpt lat="30.027407370507717" lon="-5.656700022518635">
        <ele>657.20000000000005</ele>
        <time>2019-03-14T16:52:16Z</time>
      </trkpt>
      <trkpt lat="30.028883842751384" lon="-5.658478830009699">
        <ele>658.15999999999997</ele>
        <time>2019-03-14T16:52:31Z</time>
      </trkpt>
      <trkpt lat="30.030307592824101" lon="-5.660082288086414">
        <ele>659.60000000000002</ele>
        <time>2019-03-14T16:52:46Z</time>
      </trkpt>
      <trkpt lat="30.031770151108503" lon="-5.662050442770124">
        <ele>660.08000000000004</ele>
        <time>2019-03-14T16:53:02Z</time>
      </trkpt>
      <trkpt lat="30.03270179964602" lon="-5.663799913600087">
        <ele>661.03999999999996</ele>
        <time>2019-03-14T16:53:15Z</time>
      </trkpt>
      <trkpt lat="30.033624395728111" lon="-5.665581151843071">
        <ele>661.51999999999998</ele>
        <time>2019-03-14T16:53:29Z</time>
      </trkpt>
      <trkpt lat="30.03423317335546" lon="-5.666748164221644">
        <ele>662.97000000000003</ele>
        <time>2019-03-14T16:53:39Z</time>
      </trkpt>
      <trkpt lat="30.035100700333714" lon="-5.668402668088675">
        <ele>663.92999999999995</ele>
        <time>2019-03-14T16:53:52Z</time>
      </trkpt>
      <trkpt lat="30.035852305591106" lon="-5.669716112315655">
        <ele>664.40999999999997</ele>
        <time>2019-03-14T16:54:04Z</time>
      </trkpt>
      <trkpt lat="30.036963159218431" lon="-5.671226447448134">
        <ele>665.37</ele>
        <time>2019-03-14T16:54:17Z</time>
      </trkpt>
      <trkpt lat="30.038065295666456" lon="-5.672907689586282">
        <ele>665.85000000000002</ele>
        <time>2019-03-14T16:54:30Z</time>
      </trkpt>
      <trkpt lat="30.038922261446714" lon="-5.674563786014915">
        <ele>669.22000000000003</ele>
        <time>2019-03-14T16:54:42Z</time>
      </trkpt>
      <trkpt lat="30.03941411152482" lon="-5.675516305491328">
        <ele>671.13999999999999</ele>
        <time>2019-03-14T16:54:49Z</time>
      </trkpt>
      <trkpt lat="30.039623994380236" lon="-5.676087448373437">
        <ele>672.10000000000002</ele>
        <time>2019-03-14T16:54:53Z</time>
      </trkpt>
      <trkpt lat="30.040447097271681" lon="-5.677355462685227">
        <ele>673.05999999999995</ele>
        <time>2019-03-14T16:55:03Z</time>
      </trkpt>
      <trkpt lat="30.041880989447236" lon="-5.679307440295816">
        <ele>673.05999999999995</ele>
        <time>2019-03-14T16:55:19Z</time>
      </trkpt>
      <trkpt lat="30.042824624106288" lon="-5.680567491799593">
        <ele>672.58000000000004</ele>
        <time>2019-03-14T16:55:30Z</time>
      </trkpt>
      <trkpt lat="30.043557118624449" lon="-5.681566279381514">
        <ele>672.58000000000004</ele>
        <time>2019-03-14T16:55:39Z</time>
      </trkpt>
      <trkpt lat="30.044573843479156" lon="-5.682890871539712">
        <ele>672.58000000000004</ele>
        <time>2019-03-14T16:55:50Z</time>
      </trkpt>
      <trkpt lat="30.044716168195009" lon="-5.683113830164075">
        <ele>672.58000000000004</ele>
        <time>2019-03-14T16:55:52Z</time>
      </trkpt>
      <trkpt lat="30.044771153479815" lon="-5.683226315304637">
        <ele>674.01999999999998</ele>
        <time>2019-03-14T16:55:53Z</time>
      </trkpt>
      <trkpt lat="30.044822869822383" lon="-5.683335866779089">
        <ele>673.53999999999996</ele>
        <time>2019-03-14T16:55:54Z</time>
      </trkpt>
      <trkpt lat="30.044874669983983" lon="-5.683446507900953">
        <ele>673.53999999999996</ele>
        <time>2019-03-14T16:55:55Z</time>
      </trkpt>
      <trkpt lat="30.044921357184649" lon="-5.683561256155372">
        <ele>674.01999999999998</ele>
        <time>2019-03-14T16:55:56Z</time>
      </trkpt>
      <trkpt lat="30.045358221977949" lon="-5.684697339311242">
        <ele>674.01999999999998</ele>
        <time>2019-03-14T16:56:06Z</time>
      </trkpt>
      <trkpt lat="30.04583615809679" lon="-5.685657653957605">
        <ele>674.01999999999998</ele>
        <time>2019-03-14T16:56:16Z</time>
      </trkpt>
      <trkpt lat="30.046566724777222" lon="-5.687021724879742">
        <ele>674.5</ele>
        <time>2019-03-14T16:56:27Z</time>
      </trkpt>
      <trkpt lat="30.04738605581224" lon="-5.688695590943098">
        <ele>674.98000000000002</ele>
        <time>2019-03-14T16:56:39Z</time>
      </trkpt>
      <trkpt lat="30.047711860388517" lon="-5.690188240259886">
        <ele>674.98000000000002</ele>
        <time>2019-03-14T16:56:49Z</time>
      </trkpt>
      <trkpt lat="30.04774765111506" lon="-5.690317573025823">
        <ele>675.46000000000004</ele>
        <time>2019-03-14T16:56:50Z</time>
      </trkpt>
      <trkpt lat="30.048145372420549" lon="-5.691914074122906">
        <ele>675.46000000000004</ele>
        <time>2019-03-14T16:57:01Z</time>
      </trkpt>
      <trkpt lat="30.048191640526056" lon="-5.692372899502516">
        <ele>675.46000000000004</ele>
        <time>2019-03-14T16:57:04Z</time>
      </trkpt>
      <trkpt lat="30.048220558091998" lon="-5.692517990246415">
        <ele>675.94000000000005</ele>
        <time>2019-03-14T16:57:05Z</time>
      </trkpt>
      <trkpt lat="30.048257103189826" lon="-5.692659141495824">
        <ele>675.94000000000005</ele>
        <time>2019-03-14T16:57:06Z</time>
      </trkpt>
      <trkpt lat="30.048339664936066" lon="-5.692944377660751">
        <ele>676.41999999999996</ele>
        <time>2019-03-14T16:57:08Z</time>
      </trkpt>
      <trkpt lat="30.048366487026215" lon="-5.693092737346888">
        <ele>676.41999999999996</ele>
        <time>2019-03-14T16:57:09Z</time>
      </trkpt>
      <trkpt lat="30.048434128984809" lon="-5.693824728950858">
        <ele>675.94000000000005</ele>
        <time>2019-03-14T16:57:14Z</time>
      </trkpt>
      <trkpt lat="30.048456508666277" lon="-5.693952636793256">
        <ele>675.94000000000005</ele>
        <time>2019-03-14T16:57:15Z</time>
      </trkpt>
      <trkpt lat="30.048487605527043" lon="-5.694081801921129">
        <ele>675.94000000000005</ele>
        <time>2019-03-14T16:57:16Z</time>
      </trkpt>
      <trkpt lat="30.048533454537392" lon="-5.694212978705764">
        <ele>675.94000000000005</ele>
        <time>2019-03-14T16:57:17Z</time>
      </trkpt>
      <trkpt lat="30.04859397187829" lon="-5.694344658404589">
        <ele>677.87</ele>
        <time>2019-03-14T16:57:18Z</time>
      </trkpt>
      <trkpt lat="30.048665385693312" lon="-5.694476589560509">
        <ele>679.30999999999995</ele>
        <time>2019-03-14T16:57:19Z</time>
      </trkpt>
      <trkpt lat="30.048739230260253" lon="-5.694610029459">
        <ele>680.75</ele>
        <time>2019-03-14T16:57:20Z</time>
      </trkpt>
      <trkpt lat="30.049368711188436" lon="-5.695987930521369">
        <ele>679.30999999999995</ele>
        <time>2019-03-14T16:57:30Z</time>
      </trkpt>
      <trkpt lat="30.049796691164374" lon="-5.697280671447516">
        <ele>680.26999999999998</ele>
        <time>2019-03-14T16:57:39Z</time>
      </trkpt>
      <trkpt lat="30.050404211506248" lon="-5.699171964079142">
        <ele>680.26999999999998</ele>
        <time>2019-03-14T16:57:52Z</time>
      </trkpt>
      <trkpt lat="30.050893547013402" lon="-5.701258974149823">
        <ele>681.23000000000002</ele>
        <time>2019-03-14T16:58:06Z</time>
      </trkpt>
      <trkpt lat="30.051467372104526" lon="-5.702926302328706">
        <ele>682.66999999999996</ele>
        <time>2019-03-14T16:58:18Z</time>
      </trkpt>
      <trkpt lat="30.051722098141909" lon="-5.703769186511636">
        <ele>683.63</ele>
        <time>2019-03-14T16:58:25Z</time>
      </trkpt>
      <trkpt lat="30.051740873605013" lon="-5.703893657773733">
        <ele>684.60000000000002</ele>
        <time>2019-03-14T16:58:26Z</time>
      </trkpt>
      <trkpt lat="30.051794433966279" lon="-5.705335261300206">
        <ele>684.12</ele>
        <time>2019-03-14T16:58:36Z</time>
      </trkpt>
      <trkpt lat="30.052151922136545" lon="-5.706964116543531">
        <ele>685.08000000000004</ele>
        <time>2019-03-14T16:58:46Z</time>
      </trkpt>
      <trkpt lat="30.052811745554209" lon="-5.708755748346448">
        <ele>685.55999999999995</ele>
        <time>2019-03-14T16:58:57Z</time>
      </trkpt>
      <trkpt lat="30.05338934250176" lon="-5.710099115967751">
        <ele>686.03999999999996</ele>
        <time>2019-03-14T16:59:06Z</time>
      </trkpt>
      <trkpt lat="30.05406366661191" lon="-5.712186964228749">
        <ele>686.51999999999998</ele>
        <time>2019-03-14T16:59:19Z</time>
      </trkpt>
      <trkpt lat="30.054785516113043" lon="-5.714590223506093">
        <ele>687</ele>
        <time>2019-03-14T16:59:33Z</time>
      </trkpt>
      <trkpt lat="30.055169407278299" lon="-5.715918838977814">
        <ele>687.96000000000004</ele>
        <time>2019-03-14T16:59:42Z</time>
      </trkpt>
      <trkpt lat="30.055552124977112" lon="-5.717535372823477">
        <ele>687.96000000000004</ele>
        <time>2019-03-14T16:59:53Z</time>
      </trkpt>
      <trkpt lat="30.055941548198462" lon="-5.719248466193676">
        <ele>687</ele>
        <time>2019-03-14T17:00:04Z</time>
      </trkpt>
      <trkpt lat="30.056354273110628" lon="-5.721068512648344">
        <ele>687</ele>
        <time>2019-03-14T17:00:16Z</time>
      </trkpt>
      <trkpt lat="30.056922985240817" lon="-5.723514435812831">
        <ele>686.03999999999996</ele>
        <time>2019-03-14T17:00:31Z</time>
      </trkpt>
      <trkpt lat="30.057368064299226" lon="-5.725075313821435">
        <ele>683.14999999999998</ele>
        <time>2019-03-14T17:00:42Z</time>
      </trkpt>
      <trkpt lat="30.058075748383999" lon="-5.726665863767266">
        <ele>682.66999999999996</ele>
        <time>2019-03-14T17:00:53Z</time>
      </trkpt>
      <trkpt lat="30.058321757242084" lon="-5.72781041264534">
        <ele>682.19000000000005</ele>
        <time>2019-03-14T17:01:01Z</time>
      </trkpt>
      <trkpt lat="30.058673210442066" lon="-5.729454439133406">
        <ele>681.71000000000004</ele>
        <time>2019-03-14T17:01:12Z</time>
      </trkpt>
      <trkpt lat="30.058925924822688" lon="-5.730193387717009">
        <ele>680.75</ele>
        <time>2019-03-14T17:01:19Z</time>
      </trkpt>
      <trkpt lat="30.05895241163671" lon="-5.730287684127688">
        <ele>679.78999999999996</ele>
        <time>2019-03-14T17:01:20Z</time>
      </trkpt>
      <trkpt lat="30.058973282575607" lon="-5.730391032993794">
        <ele>679.30999999999995</ele>
        <time>2019-03-14T17:01:21Z</time>
      </trkpt>
      <trkpt lat="30.058985603973269" lon="-5.730502847582102">
        <ele>678.83000000000004</ele>
        <time>2019-03-14T17:01:22Z</time>
      </trkpt>
      <trkpt lat="30.058994656428695" lon="-5.730617428198457">
        <ele>678.83000000000004</ele>
        <time>2019-03-14T17:01:23Z</time>
      </trkpt>
      <trkpt lat="30.05901494063437" lon="-5.730720441788435">
        <ele>678.35000000000002</ele>
        <time>2019-03-14T17:01:24Z</time>
      </trkpt>
      <trkpt lat="30.059048468247056" lon="-5.730811469256878">
        <ele>678.35000000000002</ele>
        <time>2019-03-14T17:01:25Z</time>
      </trkpt>
      <trkpt lat="30.059094233438373" lon="-5.730893276631832">
        <ele>678.35000000000002</ele>
        <time>2019-03-14T17:01:26Z</time>
      </trkpt>
      <trkpt lat="30.059151565656066" lon="-5.730964941903949">
        <ele>678.35000000000002</ele>
        <time>2019-03-14T17:01:27Z</time>
      </trkpt>
      <trkpt lat="30.059211077168584" lon="-5.731031829491258">
        <ele>677.87</ele>
        <time>2019-03-14T17:01:28Z</time>
      </trkpt>
      <trkpt lat="30.059262793511152" lon="-5.731107601895928">
        <ele>676.90999999999997</ele>
        <time>2019-03-14T17:01:29Z</time>
      </trkpt>
      <trkpt lat="30.059300931170583" lon="-5.731198210269213">
        <ele>675.94000000000005</ele>
        <time>2019-03-14T17:01:30Z</time>
      </trkpt>
      <trkpt lat="30.059321383014321" lon="-5.731301559135318">
        <ele>674.98000000000002</ele>
        <time>2019-03-14T17:01:31Z</time>
      </trkpt>
      <trkpt lat="30.05933010019362" lon="-5.731415720656514">
        <ele>673.53999999999996</ele>
        <time>2019-03-14T17:01:32Z</time>
      </trkpt>
      <trkpt lat="30.059337308630347" lon="-5.731532145291567">
        <ele>672.58000000000004</ele>
        <time>2019-03-14T17:01:33Z</time>
      </trkpt>
      <trkpt lat="30.059351809322834" lon="-5.731649324297905">
        <ele>671.62</ele>
        <time>2019-03-14T17:01:34Z</time>
      </trkpt>
      <trkpt lat="30.059375949203968" lon="-5.73176633566618">
        <ele>670.65999999999997</ele>
        <time>2019-03-14T17:01:35Z</time>
      </trkpt>
      <trkpt lat="30.059397658333182" lon="-5.731890639290214">
        <ele>670.17999999999995</ele>
        <time>2019-03-14T17:01:36Z</time>
      </trkpt>
      <trkpt lat="30.05941073410213" lon="-5.732019720599055">
        <ele>669.22000000000003</ele>
        <time>2019-03-14T17:01:37Z</time>
      </trkpt>
      <trkpt lat="30.059413500130177" lon="-5.732149304822087">
        <ele>667.28999999999996</ele>
        <time>2019-03-14T17:01:38Z</time>
      </trkpt>
      <trkpt lat="30.059422887861729" lon="-5.732268998399377">
        <ele>667.28999999999996</ele>
        <time>2019-03-14T17:01:39Z</time>
      </trkpt>
      <trkpt lat="30.059447698295116" lon="-5.732384249567986">
        <ele>667.76999999999998</ele>
        <time>2019-03-14T17:01:40Z</time>
      </trkpt>
      <trkpt lat="30.059482315555215" lon="-5.73249589651823">
        <ele>668.25</ele>
        <time>2019-03-14T17:01:41Z</time>
      </trkpt>
      <trkpt lat="30.05984173156321" lon="-5.733641954138875">
        <ele>668.25</ele>
        <time>2019-03-14T17:01:52Z</time>
      </trkpt>
      <trkpt lat="30.059852208942175" lon="-5.733753768727183">
        <ele>668.25</ele>
        <time>2019-03-14T17:01:53Z</time>
      </trkpt>
      <trkpt lat="30.059852292761207" lon="-5.733861057087779">
        <ele>668.25</ele>
        <time>2019-03-14T17:01:54Z</time>
      </trkpt>
      <trkpt lat="30.059840641915798" lon="-5.733958706259728">
        <ele>668.25</ele>
        <time>2019-03-14T17:01:55Z</time>
      </trkpt>
      <trkpt lat="30.059820525348186" lon="-5.734039591625333">
        <ele>667.28999999999996</ele>
        <time>2019-03-14T17:01:56Z</time>
      </trkpt>
      <trkpt lat="30.059799402952194" lon="-5.734103797003627">
        <ele>666.80999999999995</ele>
        <time>2019-03-14T17:01:57Z</time>
      </trkpt>
      <trkpt lat="30.059707034379244" lon="-5.734285935759544">
        <ele>666.33000000000004</ele>
        <time>2019-03-14T17:02:04Z</time>
      </trkpt>
      <trkpt lat="30.059673506766558" lon="-5.73431602679193">
        <ele>666.33000000000004</ele>
        <time>2019-03-14T17:02:05Z</time>
      </trkpt>
      <trkpt lat="30.059463540092111" lon="-5.734506715089083">
        <ele>666.33000000000004</ele>
        <time>2019-03-14T17:02:10Z</time>
      </trkpt>
      <trkpt lat="30.059261955320835" lon="-5.734666306525469">
        <ele>666.33000000000004</ele>
        <time>2019-03-14T17:02:14Z</time>
      </trkpt>
      <trkpt lat="30.059214849025011" lon="-5.734700001776218">
        <ele>666.33000000000004</ele>
        <time>2019-03-14T17:02:15Z</time>
      </trkpt>
      <trkpt lat="30.059171430766582" lon="-5.734737133607268">
        <ele>665.37</ele>
        <time>2019-03-14T17:02:16Z</time>
      </trkpt>
      <trkpt lat="30.05913270637393" lon="-5.734779797494412">
        <ele>663.45000000000005</ele>
        <time>2019-03-14T17:02:17Z</time>
      </trkpt>
      <trkpt lat="30.059099346399307" lon="-5.734829166904092">
        <ele>660.08000000000004</ele>
        <time>2019-03-14T17:02:18Z</time>
      </trkpt>
      <trkpt lat="30.059068417176604" lon="-5.734880045056343">
        <ele>660.08000000000004</ele>
        <time>2019-03-14T17:02:19Z</time>
      </trkpt>
      <trkpt lat="30.058995829895139" lon="-5.734983813017607">
        <ele>659.60000000000002</ele>
        <time>2019-03-14T17:02:21Z</time>
      </trkpt>
      <trkpt lat="30.058232992887497" lon="-5.735653024166822">
        <ele>658.63999999999999</ele>
        <time>2019-03-14T17:02:34Z</time>
      </trkpt>
      <trkpt lat="30.057443166151643" lon="-5.73616398498416">
        <ele>658.15999999999997</ele>
        <time>2019-03-14T17:02:46Z</time>
      </trkpt>
      <trkpt lat="30.05738734267652" lon="-5.736206313595176">
        <ele>657.67999999999995</ele>
        <time>2019-03-14T17:02:47Z</time>
      </trkpt>
      <trkpt lat="30.057034799829125" lon="-5.736503954976797">
        <ele>656.24000000000001</ele>
        <time>2019-03-14T17:02:54Z</time>
      </trkpt>
      <trkpt lat="30.056794490665197" lon="-5.736675364896655">
        <ele>654.30999999999995</ele>
        <time>2019-03-14T17:02:59Z</time>
      </trkpt>
      <trkpt lat="30.056516127660871" lon="-5.736872926354408">
        <ele>652.87</ele>
        <time>2019-03-14T17:03:05Z</time>
      </trkpt>
      <trkpt lat="30.056474134325981" lon="-5.736911734566093">
        <ele>651.42999999999995</ele>
        <time>2019-03-14T17:03:06Z</time>
      </trkpt>
      <trkpt lat="30.05573334172368" lon="-5.737516488879919">
        <ele>651.42999999999995</ele>
        <time>2019-03-14T17:03:21Z</time>
      </trkpt>
      <trkpt lat="30.055145770311356" lon="-5.738029796630144">
        <ele>650.95000000000005</ele>
        <time>2019-03-14T17:03:33Z</time>
      </trkpt>
      <trkpt lat="30.05450832657516" lon="-5.738611416891217">
        <ele>650.47000000000003</ele>
        <time>2019-03-14T17:03:46Z</time>
      </trkpt>
      <trkpt lat="30.054104821756482" lon="-5.739032356068492">
        <ele>650.47000000000003</ele>
        <time>2019-03-14T17:03:55Z</time>
      </trkpt>
      <trkpt lat="30.054071545600891" lon="-5.739088095724583">
        <ele>650.47000000000003</ele>
        <time>2019-03-14T17:03:56Z</time>
      </trkpt>
      <trkpt lat="30.05404070019722" lon="-5.739148948341608">
        <ele>649.99000000000001</ele>
        <time>2019-03-14T17:03:57Z</time>
      </trkpt>
      <trkpt lat="30.053972555324435" lon="-5.739285657182336">
        <ele>649.50999999999999</ele>
        <time>2019-03-14T17:03:59Z</time>
      </trkpt>
      <trkpt lat="30.053925113752484" lon="-5.739340307191014">
        <ele>649.02999999999997</ele>
        <time>2019-03-14T17:04:00Z</time>
      </trkpt>
      <trkpt lat="30.053870882838964" lon="-5.739379702135921">
        <ele>648.54999999999995</ele>
        <time>2019-03-14T17:04:01Z</time>
      </trkpt>
      <trkpt lat="30.053815143182874" lon="-5.739410798996687">
        <ele>647.10000000000002</ele>
        <time>2019-03-14T17:04:02Z</time>
      </trkpt>
      <trkpt lat="30.053757894784212" lon="-5.73943393304944">
        <ele>647.10000000000002</ele>
        <time>2019-03-14T17:04:03Z</time>
      </trkpt>
      <trkpt lat="30.053697377443314" lon="-5.739447679370642">
        <ele>646.62</ele>
        <time>2019-03-14T17:04:04Z</time>
      </trkpt>
      <trkpt lat="30.053632836788893" lon="-5.739452205598354">
        <ele>646.62</ele>
        <time>2019-03-14T17:04:05Z</time>
      </trkpt>
      <trkpt lat="30.053000757470727" lon="-5.739498725160956">
        <ele>647.10000000000002</ele>
        <time>2019-03-14T17:04:14Z</time>
      </trkpt>
      <trkpt lat="30.052945353090763" lon="-5.739516075700522">
        <ele>647.10000000000002</ele>
        <time>2019-03-14T17:04:15Z</time>
      </trkpt>
      <trkpt lat="30.05273018963635" lon="-5.739608695730567">
        <ele>647.10000000000002</ele>
        <time>2019-03-14T17:04:20Z</time>
      </trkpt>
      <trkpt lat="30.052690543234348" lon="-5.739633589982987">
        <ele>646.13999999999999</ele>
        <time>2019-03-14T17:04:21Z</time>
      </trkpt>
      <trkpt lat="30.052650226280093" lon="-5.739668626338244">
        <ele>646.13999999999999</ele>
        <time>2019-03-14T17:04:22Z</time>
      </trkpt>
      <trkpt lat="30.052609657868743" lon="-5.739708105102181">
        <ele>646.13999999999999</ele>
        <time>2019-03-14T17:04:23Z</time>
      </trkpt>
      <trkpt lat="30.052572023123503" lon="-5.739749763160944">
        <ele>646.13999999999999</ele>
        <time>2019-03-14T17:04:24Z</time>
      </trkpt>
      <trkpt lat="30.052304724231362" lon="-5.740051008760929">
        <ele>646.13999999999999</ele>
        <time>2019-03-14T17:04:30Z</time>
      </trkpt>
      <trkpt lat="30.052272118628025" lon="-5.740105323493481">
        <ele>645.65999999999997</ele>
        <time>2019-03-14T17:04:31Z</time>
      </trkpt>
      <trkpt lat="30.052244709804654" lon="-5.740158632397652">
        <ele>645.65999999999997</ele>
        <time>2019-03-14T17:04:32Z</time>
      </trkpt>
      <trkpt lat="30.052219144999981" lon="-5.740211773663759">
        <ele>645.17999999999995</ele>
        <time>2019-03-14T17:04:33Z</time>
      </trkpt>
      <trkpt lat="30.052196346223354" lon="-5.740260304883122">
        <ele>645.17999999999995</ele>
        <time>2019-03-14T17:04:34Z</time>
      </trkpt>
      <trkpt lat="30.052174050360918" lon="-5.740306153893471">
        <ele>645.17999999999995</ele>
        <time>2019-03-14T17:04:35Z</time>
      </trkpt>
      <trkpt lat="30.05214823409915" lon="-5.740355439484119">
        <ele>645.65999999999997</ele>
        <time>2019-03-14T17:04:36Z</time>
      </trkpt>
      <trkpt lat="30.051999287679791" lon="-5.740544451400638">
        <ele>645.65999999999997</ele>
        <time>2019-03-14T17:04:40Z</time>
      </trkpt>
      <trkpt lat="30.051950924098492" lon="-5.740585858002305">
        <ele>645.65999999999997</ele>
        <time>2019-03-14T17:04:41Z</time>
      </trkpt>
      <trkpt lat="30.05190004594624" lon="-5.740624833852053">
        <ele>645.65999999999997</ele>
        <time>2019-03-14T17:04:42Z</time>
      </trkpt>
      <trkpt lat="30.051167216151953" lon="-5.74129655957222">
        <ele>645.65999999999997</ele>
        <time>2019-03-14T17:04:56Z</time>
      </trkpt>
      <trkpt lat="30.051082894206047" lon="-5.741396807134152">
        <ele>645.17999999999995</ele>
        <time>2019-03-14T17:04:58Z</time>
      </trkpt>
      <trkpt lat="30.051040146499872" lon="-5.741445673629642">
        <ele>642.29999999999995</ele>
        <time>2019-03-14T17:04:59Z</time>
      </trkpt>
      <trkpt lat="30.050991447642446" lon="-5.741492109373212">
        <ele>642.29999999999995</ele>
        <time>2019-03-14T17:05:00Z</time>
      </trkpt>
      <trkpt lat="30.050940988585353" lon="-5.741544915363193">
        <ele>641.34000000000003</ele>
        <time>2019-03-14T17:05:01Z</time>
      </trkpt>
      <trkpt lat="30.050885584205389" lon="-5.741599397733808">
        <ele>638.45000000000005</ele>
        <time>2019-03-14T17:05:02Z</time>
      </trkpt>
      <trkpt lat="30.050087375566363" lon="-5.742092588916421">
        <ele>637.97000000000003</ele>
        <time>2019-03-14T17:05:14Z</time>
      </trkpt>
      <trkpt lat="30.049340799450874" lon="-5.742499362677336">
        <ele>637.97000000000003</ele>
        <time>2019-03-14T17:05:28Z</time>
      </trkpt>
      <trkpt lat="30.048651890829206" lon="-5.743187265470624">
        <ele>637.97000000000003</ele>
        <time>2019-03-14T17:05:43Z</time>
      </trkpt>
      <trkpt lat="30.048083681613207" lon="-5.743784559890628">
        <ele>637.97000000000003</ele>
        <time>2019-03-14T17:05:55Z</time>
      </trkpt>
      <trkpt lat="30.04805451259017" lon="-5.743854381144047">
        <ele>639.40999999999997</ele>
        <time>2019-03-14T17:05:56Z</time>
      </trkpt>
      <trkpt lat="30.048037245869637" lon="-5.743927303701639">
        <ele>637.97000000000003</ele>
        <time>2019-03-14T17:05:57Z</time>
      </trkpt>
      <trkpt lat="30.048028528690338" lon="-5.743999471887946">
        <ele>636.04999999999995</ele>
        <time>2019-03-14T17:05:58Z</time>
      </trkpt>
      <trkpt lat="30.048023080453277" lon="-5.744069125503302">
        <ele>634.61000000000001</ele>
        <time>2019-03-14T17:05:59Z</time>
      </trkpt>
      <trkpt lat="30.047961138188839" lon="-5.744432648643851">
        <ele>632.67999999999995</ele>
        <time>2019-03-14T17:06:05Z</time>
      </trkpt>
      <trkpt lat="30.047650337219238" lon="-5.745242172852159">
        <ele>632.20000000000005</ele>
        <time>2019-03-14T17:06:16Z</time>
      </trkpt>
      <trkpt lat="30.047048181295395" lon="-5.746166696771979">
        <ele>630.27999999999997</ele>
        <time>2019-03-14T17:06:31Z</time>
      </trkpt>
      <trkpt lat="30.046300012618303" lon="-5.746862813830376">
        <ele>630.75999999999999</ele>
        <time>2019-03-14T17:06:45Z</time>
      </trkpt>
      <trkpt lat="30.045404406264424" lon="-5.747491959482431">
        <ele>629.32000000000005</ele>
        <time>2019-03-14T17:06:58Z</time>
      </trkpt>
      <trkpt lat="30.044447192922235" lon="-5.748061342164874">
        <ele>627.88</ele>
        <time>2019-03-14T17:07:11Z</time>
      </trkpt>
      <trkpt lat="30.043580504134297" lon="-5.748569620773196">
        <ele>626.44000000000005</ele>
        <time>2019-03-14T17:07:24Z</time>
      </trkpt>
      <trkpt lat="30.042832084000111" lon="-5.748891988769174">
        <ele>625.96000000000004</ele>
        <time>2019-03-14T17:07:36Z</time>
      </trkpt>
      <trkpt lat="30.042191036045551" lon="-5.749173285439611">
        <ele>625.96000000000004</ele>
        <time>2019-03-14T17:07:45Z</time>
      </trkpt>
      <trkpt lat="30.041287634521723" lon="-5.74933304451406">
        <ele>625.96000000000004</ele>
        <time>2019-03-14T17:07:57Z</time>
      </trkpt>
      <trkpt lat="30.040329750627279" lon="-5.74947620742023">
        <ele>624.99000000000001</ele>
        <time>2019-03-14T17:08:12Z</time>
      </trkpt>
      <trkpt lat="30.040214164182544" lon="-5.74950696900487">
        <ele>624.99000000000001</ele>
        <time>2019-03-14T17:08:14Z</time>
      </trkpt>
      <trkpt lat="30.040161944925785" lon="-5.749529767781496">
        <ele>624.99000000000001</ele>
        <time>2019-03-14T17:08:15Z</time>
      </trkpt>
      <trkpt lat="30.039457194507122" lon="-5.749976271763444">
        <ele>624.50999999999999</ele>
        <time>2019-03-14T17:08:30Z</time>
      </trkpt>
      <trkpt lat="30.038847913965583" lon="-5.750391008332372">
        <ele>624.50999999999999</ele>
        <time>2019-03-14T17:08:44Z</time>
      </trkpt>
      <trkpt lat="30.038801562041044" lon="-5.750432917848229">
        <ele>624.50999999999999</ele>
        <time>2019-03-14T17:08:45Z</time>
      </trkpt>
      <trkpt lat="30.038715731352568" lon="-5.750509444624186">
        <ele>624.02999999999997</ele>
        <time>2019-03-14T17:08:47Z</time>
      </trkpt>
      <trkpt lat="30.038547087460756" lon="-5.750627126544714">
        <ele>624.02999999999997</ele>
        <time>2019-03-14T17:08:51Z</time>
      </trkpt>
      <trkpt lat="30.038356482982635" lon="-5.750816809013486">
        <ele>623.54999999999995</ele>
        <time>2019-03-14T17:08:56Z</time>
      </trkpt>
      <trkpt lat="30.038314573466778" lon="-5.750852599740028">
        <ele>622.59000000000003</ele>
        <time>2019-03-14T17:08:57Z</time>
      </trkpt>
      <trkpt lat="30.038196723908186" lon="-5.750950751826167">
        <ele>621.63</ele>
        <time>2019-03-14T17:09:00Z</time>
      </trkpt>
      <trkpt lat="30.038158250972629" lon="-5.75098461471498">
        <ele>621.14999999999998</ele>
        <time>2019-03-14T17:09:01Z</time>
      </trkpt>
      <trkpt lat="30.038073342293501" lon="-5.751055609434843">
        <ele>619.23000000000002</ele>
        <time>2019-03-14T17:09:03Z</time>
      </trkpt>
      <trkpt lat="30.037484429776669" lon="-5.75158559717238">
        <ele>618.75</ele>
        <time>2019-03-14T17:09:15Z</time>
      </trkpt>
      <trkpt lat="30.03655462525785" lon="-5.752306692302227">
        <ele>618.75</ele>
        <time>2019-03-14T17:09:29Z</time>
      </trkpt>
      <trkpt lat="30.036269221454859" lon="-5.752530656754971">
        <ele>618.75</ele>
        <time>2019-03-14T17:09:33Z</time>
      </trkpt>
      <trkpt lat="30.035286191850901" lon="-5.753370188176632">
        <ele>619.23000000000002</ele>
        <time>2019-03-14T17:09:47Z</time>
      </trkpt>
      <trkpt lat="30.034310035407543" lon="-5.754368305206299">
        <ele>618.75</ele>
        <time>2019-03-14T17:10:01Z</time>
      </trkpt>
      <trkpt lat="30.034210626035929" lon="-5.754474001005292">
        <ele>617.29999999999995</ele>
        <time>2019-03-14T17:10:03Z</time>
      </trkpt>
      <trkpt lat="30.034170560538769" lon="-5.754518928006291">
        <ele>617.77999999999997</ele>
        <time>2019-03-14T17:10:04Z</time>
      </trkpt>
      <trkpt lat="30.033586341887712" lon="-5.75512477196753">
        <ele>617.77999999999997</ele>
        <time>2019-03-14T17:10:16Z</time>
      </trkpt>
      <trkpt lat="30.032810932025313" lon="-5.755822062492371">
        <ele>616.34000000000003</ele>
        <time>2019-03-14T17:10:30Z</time>
      </trkpt>
      <trkpt lat="30.031881630420685" lon="-5.756526393815875">
        <ele>617.29999999999995</ele>
        <time>2019-03-14T17:10:44Z</time>
      </trkpt>
      <trkpt lat="30.031246114522219" lon="-5.756989158689976">
        <ele>616.34000000000003</ele>
        <time>2019-03-14T17:10:55Z</time>
      </trkpt>
      <trkpt lat="30.030543375760317" lon="-5.757534150034189">
        <ele>614.41999999999996</ele>
        <time>2019-03-14T17:11:08Z</time>
      </trkpt>
      <trkpt lat="30.030212458223104" lon="-5.757773872464895">
        <ele>614.41999999999996</ele>
        <time>2019-03-14T17:11:15Z</time>
      </trkpt>
      <trkpt lat="30.029981788247824" lon="-5.757915861904621">
        <ele>612.98000000000002</ele>
        <time>2019-03-14T17:11:20Z</time>
      </trkpt>
      <trkpt lat="30.029348870739341" lon="-5.758103616535664">
        <ele>612.98000000000002</ele>
        <time>2019-03-14T17:11:30Z</time>
      </trkpt>
      <trkpt lat="30.028539262712002" lon="-5.758344177156687">
        <ele>613.94000000000005</ele>
        <time>2019-03-14T17:11:42Z</time>
      </trkpt>
      <trkpt lat="30.027757901698351" lon="-5.758548695594072">
        <ele>614.41999999999996</ele>
        <time>2019-03-14T17:11:53Z</time>
      </trkpt>
      <trkpt lat="30.026799011975527" lon="-5.758805349469185">
        <ele>615.38</ele>
        <time>2019-03-14T17:12:05Z</time>
      </trkpt>
      <trkpt lat="30.025764685124159" lon="-5.759064182639122">
        <ele>613.94000000000005</ele>
        <time>2019-03-14T17:12:20Z</time>
      </trkpt>
      <trkpt lat="30.024941163137555" lon="-5.758941723033786">
        <ele>613.46000000000004</ele>
        <time>2019-03-14T17:12:31Z</time>
      </trkpt>
      <trkpt lat="30.023801475763321" lon="-5.758661180734634">
        <ele>612.98000000000002</ele>
        <time>2019-03-14T17:12:46Z</time>
      </trkpt>
      <trkpt lat="30.023363018408418" lon="-5.75860820710659">
        <ele>613.46000000000004</ele>
        <time>2019-03-14T17:12:52Z</time>
      </trkpt>
      <trkpt lat="30.022498173639178" lon="-5.758867794647813">
        <ele>613.46000000000004</ele>
        <time>2019-03-14T17:13:05Z</time>
      </trkpt>
      <trkpt lat="30.021637268364429" lon="-5.759137524291873">
        <ele>613.94000000000005</ele>
        <time>2019-03-14T17:13:17Z</time>
      </trkpt>
      <trkpt lat="30.020854147151113" lon="-5.759066613391042">
        <ele>613.94000000000005</ele>
        <time>2019-03-14T17:13:28Z</time>
      </trkpt>
      <trkpt lat="30.019849240779877" lon="-5.758797721937299">
        <ele>613.46000000000004</ele>
        <time>2019-03-14T17:13:44Z</time>
      </trkpt>
      <trkpt lat="30.019003255292773" lon="-5.758551210165024">
        <ele>613.46000000000004</ele>
        <time>2019-03-14T17:13:58Z</time>
      </trkpt>
      <trkpt lat="30.018622716888785" lon="-5.75847527012229">
        <ele>612.98000000000002</ele>
        <time>2019-03-14T17:14:05Z</time>
      </trkpt>
      <trkpt lat="30.018570832908154" lon="-5.758484490215778">
        <ele>612.5</ele>
        <time>2019-03-14T17:14:06Z</time>
      </trkpt>
      <trkpt lat="30.018524397164583" lon="-5.758499158546329">
        <ele>612.01999999999998</ele>
        <time>2019-03-14T17:14:07Z</time>
      </trkpt>
      <trkpt lat="30.018479805439711" lon="-5.758522460237145">
        <ele>611.53999999999996</ele>
        <time>2019-03-14T17:14:08Z</time>
      </trkpt>
      <trkpt lat="30.018437895923853" lon="-5.758553557097912">
        <ele>611.53999999999996</ele>
        <time>2019-03-14T17:14:09Z</time>
      </trkpt>
      <trkpt lat="30.018401183187962" lon="-5.758590772747994">
        <ele>612.01999999999998</ele>
        <time>2019-03-14T17:14:10Z</time>
      </trkpt>
      <trkpt lat="30.018368242308497" lon="-5.758631257340312">
        <ele>612.01999999999998</ele>
        <time>2019-03-14T17:14:11Z</time>
      </trkpt>
      <trkpt lat="30.018171351402998" lon="-5.75888816267252">
        <ele>612.01999999999998</ele>
        <time>2019-03-14T17:14:18Z</time>
      </trkpt>
      <trkpt lat="30.018137153238058" lon="-5.758919343352318">
        <ele>610.57000000000005</ele>
        <time>2019-03-14T17:14:19Z</time>
      </trkpt>
      <trkpt lat="30.018022153526545" lon="-5.759010454639792">
        <ele>610.57000000000005</ele>
        <time>2019-03-14T17:14:22Z</time>
      </trkpt>
      <trkpt lat="30.017989715561271" lon="-5.759053621441126">
        <ele>610.09000000000003</ele>
        <time>2019-03-14T17:14:23Z</time>
      </trkpt>
      <trkpt lat="30.017970772460103" lon="-5.759104583412409">
        <ele>610.57000000000005</ele>
        <time>2019-03-14T17:14:24Z</time>
      </trkpt>
      <trkpt lat="30.017745215445757" lon="-5.759854847565293">
        <ele>609.13</ele>
        <time>2019-03-14T17:14:39Z</time>
      </trkpt>
      <trkpt lat="30.017392924055457" lon="-5.760360024869442">
        <ele>608.64999999999998</ele>
        <time>2019-03-14T17:14:49Z</time>
      </trkpt>
      <trkpt lat="30.017073238268495" lon="-5.760740982368588">
        <ele>610.09000000000003</ele>
        <time>2019-03-14T17:14:58Z</time>
      </trkpt>
      <trkpt lat="30.016639642417431" lon="-5.761266779154539">
        <ele>610.09000000000003</ele>
        <time>2019-03-14T17:15:10Z</time>
      </trkpt>
      <trkpt lat="30.016115522012115" lon="-5.761921908706427">
        <ele>610.09000000000003</ele>
        <time>2019-03-14T17:15:21Z</time>
      </trkpt>
      <trkpt lat="30.015342123806477" lon="-5.762797985225916">
        <ele>609.61000000000001</ele>
        <time>2019-03-14T17:15:35Z</time>
      </trkpt>
      <trkpt lat="30.014665117487311" lon="-5.763423945754767">
        <ele>609.61000000000001</ele>
        <time>2019-03-14T17:15:46Z</time>
      </trkpt>
      <trkpt lat="30.014392454177141" lon="-5.763620249927044">
        <ele>609.61000000000001</ele>
        <time>2019-03-14T17:15:51Z</time>
      </trkpt>
      <trkpt lat="30.014331182464957" lon="-5.763643886893988">
        <ele>609.13</ele>
        <time>2019-03-14T17:15:52Z</time>
      </trkpt>
      <trkpt lat="30.014264797791839" lon="-5.763661069795489">
        <ele>608.64999999999998</ele>
        <time>2019-03-14T17:15:53Z</time>
      </trkpt>
      <trkpt lat="30.014193970710039" lon="-5.763671630993486">
        <ele>608.64999999999998</ele>
        <time>2019-03-14T17:15:54Z</time>
      </trkpt>
      <trkpt lat="30.014119371771812" lon="-5.763677833601832">
        <ele>608.16999999999996</ele>
        <time>2019-03-14T17:15:55Z</time>
      </trkpt>
      <trkpt lat="30.012970380485058" lon="-5.763716055080295">
        <ele>608.16999999999996</ele>
        <time>2019-03-14T17:16:10Z</time>
      </trkpt>
      <trkpt lat="30.012041162699461" lon="-5.763729885220528">
        <ele>607.69000000000005</ele>
        <time>2019-03-14T17:16:25Z</time>
      </trkpt>
      <trkpt lat="30.011985255405307" lon="-5.763756623491645">
        <ele>607.21000000000004</ele>
        <time>2019-03-14T17:16:26Z</time>
      </trkpt>
      <trkpt lat="30.011930605396628" lon="-5.763789899647236">
        <ele>607.21000000000004</ele>
        <time>2019-03-14T17:16:27Z</time>
      </trkpt>
      <trkpt lat="30.011879140511155" lon="-5.763828288763762">
        <ele>606.73000000000002</ele>
        <time>2019-03-14T17:16:28Z</time>
      </trkpt>
      <trkpt lat="30.01183245331049" lon="-5.763871036469936">
        <ele>607.69000000000005</ele>
        <time>2019-03-14T17:16:29Z</time>
      </trkpt>
      <trkpt lat="30.011788699775934" lon="-5.763917472213507">
        <ele>607.21000000000004</ele>
        <time>2019-03-14T17:16:30Z</time>
      </trkpt>
      <trkpt lat="30.011747544631362" lon="-5.76396893709898">
        <ele>608.16999999999996</ele>
        <time>2019-03-14T17:16:31Z</time>
      </trkpt>
      <trkpt lat="30.01170689240098" lon="-5.764025095850229">
        <ele>607.21000000000004</ele>
        <time>2019-03-14T17:16:32Z</time>
      </trkpt>
      <trkpt lat="30.01118159852922" lon="-5.764688774943352">
        <ele>605.76999999999998</ele>
        <time>2019-03-14T17:16:44Z</time>
      </trkpt>
      <trkpt lat="30.010582711547613" lon="-5.765248602256179">
        <ele>604.33000000000004</ele>
        <time>2019-03-14T17:16:57Z</time>
      </trkpt>
      <trkpt lat="30.009856084361672" lon="-5.765711953863502">
        <ele>605.28999999999996</ele>
        <time>2019-03-14T17:17:10Z</time>
      </trkpt>
      <trkpt lat="30.00892611220479" lon="-5.76603633351624">
        <ele>604.80999999999995</ele>
        <time>2019-03-14T17:17:24Z</time>
      </trkpt>
      <trkpt lat="30.00793763436377" lon="-5.76637739315629">
        <ele>604.80999999999995</ele>
        <time>2019-03-14T17:17:37Z</time>
      </trkpt>
      <trkpt lat="30.007208324968815" lon="-5.766590293496847">
        <ele>604.80999999999995</ele>
        <time>2019-03-14T17:17:46Z</time>
      </trkpt>
      <trkpt lat="30.006628800183535" lon="-5.766626419499517">
        <ele>605.28999999999996</ele>
        <time>2019-03-14T17:17:54Z</time>
      </trkpt>
      <trkpt lat="30.006228312849998" lon="-5.766628012061119">
        <ele>605.28999999999996</ele>
        <time>2019-03-14T17:18:00Z</time>
      </trkpt>
      <trkpt lat="30.006161006167531" lon="-5.766638657078147">
        <ele>604.80999999999995</ele>
        <time>2019-03-14T17:18:01Z</time>
      </trkpt>
      <trkpt lat="30.00609110109508" lon="-5.766657767817378">
        <ele>603.85000000000002</ele>
        <time>2019-03-14T17:18:02Z</time>
      </trkpt>
      <trkpt lat="30.005488526076078" lon="-5.766840409487486">
        <ele>603.85000000000002</ele>
        <time>2019-03-14T17:18:10Z</time>
      </trkpt>
      <trkpt lat="30.005402779206634" lon="-5.766842337325215">
        <ele>603.85000000000002</ele>
        <time>2019-03-14T17:18:11Z</time>
      </trkpt>
      <trkpt lat="30.004414217546582" lon="-5.766823561862111">
        <ele>602.39999999999998</ele>
        <time>2019-03-14T17:18:22Z</time>
      </trkpt>
      <trkpt lat="30.003612572327256" lon="-5.767088010907173">
        <ele>602.39999999999998</ele>
        <time>2019-03-14T17:18:31Z</time>
      </trkpt>
      <trkpt lat="30.003363126888871" lon="-5.767216673120856">
        <ele>601.91999999999996</ele>
        <time>2019-03-14T17:18:34Z</time>
      </trkpt>
      <trkpt lat="30.003289030864835" lon="-5.767264030873776">
        <ele>599.51999999999998</ele>
        <time>2019-03-14T17:18:35Z</time>
      </trkpt>
      <trkpt lat="30.002455031499267" lon="-5.767555637285113">
        <ele>600.48000000000002</ele>
        <time>2019-03-14T17:18:45Z</time>
      </trkpt>
      <trkpt lat="30.001912387087941" lon="-5.767714725807309">
        <ele>599.51999999999998</ele>
        <time>2019-03-14T17:18:51Z</time>
      </trkpt>
      <trkpt lat="30.001102527603507" lon="-5.767967691645026">
        <ele>599.03999999999996</ele>
        <time>2019-03-14T17:19:00Z</time>
      </trkpt>
      <trkpt lat="30.000402806326747" lon="-5.768537577241659">
        <ele>599.03999999999996</ele>
        <time>2019-03-14T17:19:10Z</time>
      </trkpt>
      <trkpt lat="30.000247908756137" lon="-5.768629610538483">
        <ele>598.55999999999995</ele>
        <time>2019-03-14T17:19:12Z</time>
      </trkpt>
      <trkpt lat="29.999759243801236" lon="-5.768813509494066">
        <ele>598.08000000000004</ele>
        <time>2019-03-14T17:19:17Z</time>
      </trkpt>
      <trkpt lat="29.998702872544527" lon="-5.769613226875663">
        <ele>597.60000000000002</ele>
        <time>2019-03-14T17:19:29Z</time>
      </trkpt>
      <trkpt lat="29.998609833419323" lon="-5.769660919904709">
        <ele>598.55999999999995</ele>
        <time>2019-03-14T17:19:30Z</time>
      </trkpt>
      <trkpt lat="29.998157294467092" lon="-5.770078087225556">
        <ele>598.55999999999995</ele>
        <time>2019-03-14T17:19:36Z</time>
      </trkpt>
      <trkpt lat="29.997978759929538" lon="-5.770348571240902">
        <ele>597.60000000000002</ele>
        <time>2019-03-14T17:19:39Z</time>
      </trkpt>
      <trkpt lat="29.997688075527549" lon="-5.770600028336048">
        <ele>596.63999999999999</ele>
        <time>2019-03-14T17:19:43Z</time>
      </trkpt>
      <trkpt lat="29.997542984783649" lon="-5.770689882338047">
        <ele>596.14999999999998</ele>
        <time>2019-03-14T17:19:47Z</time>
      </trkpt>
      <trkpt lat="29.997415076941252" lon="-5.770753165706992">
        <ele>596.14999999999998</ele>
        <time>2019-03-14T17:19:50Z</time>
      </trkpt>
      <trkpt lat="29.996645282953978" lon="-5.770971765741706">
        <ele>595.66999999999996</ele>
        <time>2019-03-14T17:19:59Z</time>
      </trkpt>
      <trkpt lat="29.99545706436038" lon="-5.771317770704627">
        <ele>595.19000000000005</ele>
        <time>2019-03-14T17:20:10Z</time>
      </trkpt>
      <trkpt lat="29.995227819308639" lon="-5.77134576626122">
        <ele>595.19000000000005</ele>
        <time>2019-03-14T17:20:12Z</time>
      </trkpt>
      <trkpt lat="29.994048653170466" lon="-5.771447271108627">
        <ele>595.19000000000005</ele>
        <time>2019-03-14T17:20:22Z</time>
      </trkpt>
      <trkpt lat="29.992620879784226" lon="-5.771671067923307">
        <ele>593.75</ele>
        <time>2019-03-14T17:20:32Z</time>
      </trkpt>
      <trkpt lat="29.991248175501823" lon="-5.771807944402099">
        <ele>592.78999999999996</ele>
        <time>2019-03-14T17:20:42Z</time>
      </trkpt>
      <trkpt lat="29.990810807794333" lon="-5.771840717643499">
        <ele>592.30999999999995</ele>
        <time>2019-03-14T17:20:45Z</time>
      </trkpt>
      <trkpt lat="29.989812690764666" lon="-5.771785229444504">
        <ele>592.30999999999995</ele>
        <time>2019-03-14T17:20:53Z</time>
      </trkpt>
      <trkpt lat="29.98836312443018" lon="-5.772021934390068">
        <ele>590.38999999999999</ele>
        <time>2019-03-14T17:21:05Z</time>
      </trkpt>
      <trkpt lat="29.986485578119755" lon="-5.772114135324955">
        <ele>589.42999999999995</ele>
        <time>2019-03-14T17:21:19Z</time>
      </trkpt>
      <trkpt lat="29.984765946865082" lon="-5.772020928561688">
        <ele>588.95000000000005</ele>
        <time>2019-03-14T17:21:31Z</time>
      </trkpt>
      <trkpt lat="29.983199452981353" lon="-5.772030232474208">
        <ele>588.46000000000004</ele>
        <time>2019-03-14T17:21:42Z</time>
      </trkpt>
      <trkpt lat="29.981266753748059" lon="-5.772139364853501">
        <ele>587.98000000000002</ele>
        <time>2019-03-14T17:21:55Z</time>
      </trkpt>
      <trkpt lat="29.979156609624624" lon="-5.772032579407096">
        <ele>587.98000000000002</ele>
        <time>2019-03-14T17:22:08Z</time>
      </trkpt>
      <trkpt lat="29.977010590955615" lon="-5.771940881386399">
        <ele>587.01999999999998</ele>
        <time>2019-03-14T17:22:22Z</time>
      </trkpt>
      <trkpt lat="29.976074416190386" lon="-5.771889500319958">
        <ele>586.53999999999996</ele>
        <time>2019-03-14T17:22:30Z</time>
      </trkpt>
      <trkpt lat="29.975999230518937" lon="-5.771896205842495">
        <ele>586.05999999999995</ele>
        <time>2019-03-14T17:22:31Z</time>
      </trkpt>
      <trkpt lat="29.97593049891293" lon="-5.771908946335316">
        <ele>585.10000000000002</ele>
        <time>2019-03-14T17:22:32Z</time>
      </trkpt>
      <trkpt lat="29.975588014349341" lon="-5.772037357091904">
        <ele>585.58000000000004</ele>
        <time>2019-03-14T17:22:37Z</time>
      </trkpt>
      <trkpt lat="29.975531101226807" lon="-5.772073147818446">
        <ele>586.05999999999995</ele>
        <time>2019-03-14T17:22:38Z</time>
      </trkpt>
      <trkpt lat="29.975484916940331" lon="-5.772112291306257">
        <ele>587.01999999999998</ele>
        <time>2019-03-14T17:22:39Z</time>
      </trkpt>
      <trkpt lat="29.975184090435505" lon="-5.772431725636125">
        <ele>586.53999999999996</ele>
        <time>2019-03-14T17:22:46Z</time>
      </trkpt>
      <trkpt lat="29.975044950842857" lon="-5.772542031481862">
        <ele>586.53999999999996</ele>
        <time>2019-03-14T17:22:49Z</time>
      </trkpt>
      <trkpt lat="29.974917713552713" lon="-5.772693241015077">
        <ele>587.5</ele>
        <time>2019-03-14T17:22:52Z</time>
      </trkpt>
      <trkpt lat="29.974549496546388" lon="-5.773256840184331">
        <ele>587.5</ele>
        <time>2019-03-14T17:22:59Z</time>
      </trkpt>
      <trkpt lat="29.974060077220201" lon="-5.774295441806316">
        <ele>587.01999999999998</ele>
        <time>2019-03-14T17:23:08Z</time>
      </trkpt>
      <trkpt lat="29.973928146064281" lon="-5.774519825354219">
        <ele>587.98000000000002</ele>
        <time>2019-03-14T17:23:10Z</time>
      </trkpt>
      <trkpt lat="29.9734091386199" lon="-5.775644676759839">
        <ele>587.5</ele>
        <time>2019-03-14T17:23:20Z</time>
      </trkpt>
      <trkpt lat="29.97316874563694" lon="-5.776168210431933">
        <ele>586.53999999999996</ele>
        <time>2019-03-14T17:23:28Z</time>
      </trkpt>
      <trkpt lat="29.972840175032616" lon="-5.776889305561781">
        <ele>585.58000000000004</ele>
        <time>2019-03-14T17:23:37Z</time>
      </trkpt>
      <trkpt lat="29.9726786557585" lon="-5.777163142338395">
        <ele>586.05999999999995</ele>
        <time>2019-03-14T17:23:42Z</time>
      </trkpt>
      <trkpt lat="29.972644960507751" lon="-5.777200609445572">
        <ele>586.05999999999995</ele>
        <time>2019-03-14T17:23:43Z</time>
      </trkpt>
      <trkpt lat="29.972273809835315" lon="-5.77758701518178">
        <ele>586.53999999999996</ele>
        <time>2019-03-14T17:23:51Z</time>
      </trkpt>
      <trkpt lat="29.971756646409631" lon="-5.778270727023482">
        <ele>586.53999999999996</ele>
        <time>2019-03-14T17:24:02Z</time>
      </trkpt>
      <trkpt lat="29.9712073802948" lon="-5.779041275382042">
        <ele>586.53999999999996</ele>
        <time>2019-03-14T17:24:11Z</time>
      </trkpt>
      <trkpt lat="29.971088357269764" lon="-5.779178068041802">
        <ele>587.01999999999998</ele>
        <time>2019-03-14T17:24:13Z</time>
      </trkpt>
      <trkpt lat="29.970929017290473" lon="-5.779417622834444">
        <ele>587.01999999999998</ele>
        <time>2019-03-14T17:24:16Z</time>
      </trkpt>
      <trkpt lat="29.970625173300505" lon="-5.780020281672478">
        <ele>587.01999999999998</ele>
        <time>2019-03-14T17:24:25Z</time>
      </trkpt>
      <trkpt lat="29.970611510798335" lon="-5.78008733689785">
        <ele>587.5</ele>
        <time>2019-03-14T17:24:26Z</time>
      </trkpt>
      <trkpt lat="29.970607152208686" lon="-5.780153553932905">
        <ele>588.95000000000005</ele>
        <time>2019-03-14T17:24:27Z</time>
      </trkpt>
      <trkpt lat="29.970604134723544" lon="-5.780206276103854">
        <ele>590.38999999999999</ele>
        <time>2019-03-14T17:24:28Z</time>
      </trkpt>
      <trkpt lat="29.970592819154263" lon="-5.780257154256105">
        <ele>590.38999999999999</ele>
        <time>2019-03-14T17:24:29Z</time>
      </trkpt>
      <trkpt lat="29.970573959872127" lon="-5.780310044065118">
        <ele>590.87</ele>
        <time>2019-03-14T17:24:30Z</time>
      </trkpt>
      <trkpt lat="29.970304565504193" lon="-5.78095612116158">
        <ele>590.38999999999999</ele>
        <time>2019-03-14T17:24:37Z</time>
      </trkpt>
      <trkpt lat="29.969881949946284" lon="-5.781813254579902">
        <ele>590.87</ele>
        <time>2019-03-14T17:24:44Z</time>
      </trkpt>
      <trkpt lat="29.969842219725251" lon="-5.781918950378895">
        <ele>591.35000000000002</ele>
        <time>2019-03-14T17:24:45Z</time>
      </trkpt>
      <trkpt lat="29.969455311074853" lon="-5.783278159797192">
        <ele>591.35000000000002</ele>
        <time>2019-03-14T17:24:56Z</time>
      </trkpt>
      <trkpt lat="29.9689606949687" lon="-5.784805342555046">
        <ele>589.90999999999997</ele>
        <time>2019-03-14T17:25:07Z</time>
      </trkpt>
      <trkpt lat="29.968489715829492" lon="-5.786201432347298">
        <ele>589.42999999999995</ele>
        <time>2019-03-14T17:25:17Z</time>
      </trkpt>
      <trkpt lat="29.967846320942044" lon="-5.78787655569613">
        <ele>588.95000000000005</ele>
        <time>2019-03-14T17:25:29Z</time>
      </trkpt>
      <trkpt lat="29.966739574447274" lon="-5.790091222152114">
        <ele>588.46000000000004</ele>
        <time>2019-03-14T17:25:45Z</time>
      </trkpt>
      <trkpt lat="29.965740870684385" lon="-5.792035991325975">
        <ele>588.95000000000005</ele>
        <time>2019-03-14T17:25:58Z</time>
      </trkpt>
      <trkpt lat="29.964939476922154" lon="-5.794168766587973">
        <ele>588.46000000000004</ele>
        <time>2019-03-14T17:26:11Z</time>
      </trkpt>
      <trkpt lat="29.96458156965673" lon="-5.795075185596943">
        <ele>589.42999999999995</ele>
        <time>2019-03-14T17:26:18Z</time>
      </trkpt>
      <trkpt lat="29.964060047641397" lon="-5.796322915703058">
        <ele>589.42999999999995</ele>
        <time>2019-03-14T17:26:28Z</time>
      </trkpt>
      <trkpt lat="29.963801465928555" lon="-5.797100588679314">
        <ele>588.95000000000005</ele>
        <time>2019-03-14T17:26:36Z</time>
      </trkpt>
      <trkpt lat="29.963354291394353" lon="-5.798362148925662">
        <ele>589.90999999999997</ele>
        <time>2019-03-14T17:26:46Z</time>
      </trkpt>
      <trkpt lat="29.962817598134279" lon="-5.799944316968322">
        <ele>589.90999999999997</ele>
        <time>2019-03-14T17:26:58Z</time>
      </trkpt>
      <trkpt lat="29.962507886812091" lon="-5.800888538360596">
        <ele>589.90999999999997</ele>
        <time>2019-03-14T17:27:07Z</time>
      </trkpt>
      <trkpt lat="29.96192928403616" lon="-5.80257791094482">
        <ele>589.90999999999997</ele>
        <time>2019-03-14T17:27:21Z</time>
      </trkpt>
      <trkpt lat="29.961629630997777" lon="-5.803517438471317">
        <ele>589.42999999999995</ele>
        <time>2019-03-14T17:27:29Z</time>
      </trkpt>
      <trkpt lat="29.961588978767395" lon="-5.803604945540428">
        <ele>589.90999999999997</ele>
        <time>2019-03-14T17:27:30Z</time>
      </trkpt>
      <trkpt lat="29.96154623106122" lon="-5.803675521165133">
        <ele>590.87</ele>
        <time>2019-03-14T17:27:31Z</time>
      </trkpt>
      <trkpt lat="29.961465010419488" lon="-5.803778199478984">
        <ele>591.83000000000004</ele>
        <time>2019-03-14T17:27:33Z</time>
      </trkpt>
      <trkpt lat="29.961350178346038" lon="-5.803903006017208">
        <ele>591.83000000000004</ele>
        <time>2019-03-14T17:27:36Z</time>
      </trkpt>
      <trkpt lat="29.960975423455238" lon="-5.804623011499643">
        <ele>591.83000000000004</ele>
        <time>2019-03-14T17:27:44Z</time>
      </trkpt>
      <trkpt lat="29.960335800424218" lon="-5.80560889095068">
        <ele>591.35000000000002</ele>
        <time>2019-03-14T17:27:54Z</time>
      </trkpt>
      <trkpt lat="29.960189368575811" lon="-5.805797651410103">
        <ele>591.35000000000002</ele>
        <time>2019-03-14T17:27:56Z</time>
      </trkpt>
      <trkpt lat="29.960103118792176" lon="-5.805885661393404">
        <ele>591.83000000000004</ele>
        <time>2019-03-14T17:27:57Z</time>
      </trkpt>
      <trkpt lat="29.95929460041225" lon="-5.806864248588681">
        <ele>592.30999999999995</ele>
        <time>2019-03-14T17:28:07Z</time>
      </trkpt>
      <trkpt lat="29.958373680710793" lon="-5.807985160499811">
        <ele>592.78999999999996</ele>
        <time>2019-03-14T17:28:18Z</time>
      </trkpt>
      <trkpt lat="29.957834640517831" lon="-5.808734921738505">
        <ele>593.26999999999998</ele>
        <time>2019-03-14T17:28:26Z</time>
      </trkpt>
      <trkpt lat="29.957215385511518" lon="-5.809592977166176">
        <ele>592.78999999999996</ele>
        <time>2019-03-14T17:28:37Z</time>
      </trkpt>
      <trkpt lat="29.956676093861461" lon="-5.810336116701365">
        <ele>593.26999999999998</ele>
        <time>2019-03-14T17:28:47Z</time>
      </trkpt>
      <trkpt lat="29.956213077530265" lon="-5.81094766035676">
        <ele>593.75</ele>
        <time>2019-03-14T17:28:56Z</time>
      </trkpt>
      <trkpt lat="29.955627685412765" lon="-5.811761626973748">
        <ele>594.23000000000002</ele>
        <time>2019-03-14T17:29:06Z</time>
      </trkpt>
      <trkpt lat="29.955567335709929" lon="-5.811863383278251">
        <ele>594.23000000000002</ele>
        <time>2019-03-14T17:29:07Z</time>
      </trkpt>
      <trkpt lat="29.95551310479641" lon="-5.811973018571734">
        <ele>595.19000000000005</ele>
        <time>2019-03-14T17:29:08Z</time>
      </trkpt>
      <trkpt lat="29.955294588580728" lon="-5.812417594715953">
        <ele>595.19000000000005</ele>
        <time>2019-03-14T17:29:12Z</time>
      </trkpt>
      <trkpt lat="29.954470312222838" lon="-5.813684770837426">
        <ele>595.19000000000005</ele>
        <time>2019-03-14T17:29:23Z</time>
      </trkpt>
      <trkpt lat="29.953599097207189" lon="-5.814795959740877">
        <ele>595.66999999999996</ele>
        <time>2019-03-14T17:29:33Z</time>
      </trkpt>
      <trkpt lat="29.953260719776154" lon="-5.815390823408961">
        <ele>595.66999999999996</ele>
        <time>2019-03-14T17:29:38Z</time>
      </trkpt>
      <trkpt lat="29.952520849183202" lon="-5.816028937697411">
        <ele>595.66999999999996</ele>
        <time>2019-03-14T17:29:46Z</time>
      </trkpt>
      <trkpt lat="29.952325718477368" lon="-5.816243262961507">
        <ele>595.66999999999996</ele>
        <time>2019-03-14T17:29:49Z</time>
      </trkpt>
      <trkpt lat="29.95162314735353" lon="-5.817214725539088">
        <ele>595.66999999999996</ele>
        <time>2019-03-14T17:30:01Z</time>
      </trkpt>
      <trkpt lat="29.951559193432331" lon="-5.817307764664292">
        <ele>596.14999999999998</ele>
        <time>2019-03-14T17:30:02Z</time>
      </trkpt>
      <trkpt lat="29.951502364128828" lon="-5.817408934235573">
        <ele>596.14999999999998</ele>
        <time>2019-03-14T17:30:03Z</time>
      </trkpt>
      <trkpt lat="29.951453246176243" lon="-5.817520916461945">
        <ele>596.14999999999998</ele>
        <time>2019-03-14T17:30:04Z</time>
      </trkpt>
      <trkpt lat="29.951408905908465" lon="-5.81763650290668">
        <ele>596.63999999999999</ele>
        <time>2019-03-14T17:30:05Z</time>
      </trkpt>
      <trkpt lat="29.951366409659386" lon="-5.817753681913018">
        <ele>597.12</ele>
        <time>2019-03-14T17:30:06Z</time>
      </trkpt>
      <trkpt lat="29.951317710801959" lon="-5.817864993587136">
        <ele>597.12</ele>
        <time>2019-03-14T17:30:07Z</time>
      </trkpt>
      <trkpt lat="29.951263396069407" lon="-5.817971862852573">
        <ele>597.60000000000002</ele>
        <time>2019-03-14T17:30:08Z</time>
      </trkpt>
      <trkpt lat="29.95120145380497" lon="-5.818077055737376">
        <ele>597.12</ele>
        <time>2019-03-14T17:30:09Z</time>
      </trkpt>
      <trkpt lat="29.95053693652153" lon="-5.818998226895928">
        <ele>597.60000000000002</ele>
        <time>2019-03-14T17:30:18Z</time>
      </trkpt>
      <trkpt lat="29.950299393385649" lon="-5.81924800761044">
        <ele>597.12</ele>
        <time>2019-03-14T17:30:21Z</time>
      </trkpt>
      <trkpt lat="29.950237786397338" lon="-5.81934473477304">
        <ele>596.63999999999999</ele>
        <time>2019-03-14T17:30:22Z</time>
      </trkpt>
      <trkpt lat="29.950143992900848" lon="-5.819501308724284">
        <ele>596.63999999999999</ele>
        <time>2019-03-14T17:30:24Z</time>
      </trkpt>
      <trkpt lat="29.949542256072164" lon="-5.820103799924254">
        <ele>595.66999999999996</ele>
        <time>2019-03-14T17:30:35Z</time>
      </trkpt>
      <trkpt lat="29.949476877227426" lon="-5.820156103000045">
        <ele>595.19000000000005</ele>
        <time>2019-03-14T17:30:36Z</time>
      </trkpt>
      <trkpt lat="29.949423568323255" lon="-5.820211758837104">
        <ele>595.66999999999996</ele>
        <time>2019-03-14T17:30:37Z</time>
      </trkpt>
      <trkpt lat="29.949377803131938" lon="-5.820269845426083">
        <ele>597.12</ele>
        <time>2019-03-14T17:30:38Z</time>
      </trkpt>
      <trkpt lat="29.948911936953664" lon="-5.820936961099505">
        <ele>597.60000000000002</ele>
        <time>2019-03-14T17:30:50Z</time>
      </trkpt>
      <trkpt lat="29.948610439896584" lon="-5.821395451202989">
        <ele>597.60000000000002</ele>
        <time>2019-03-14T17:31:01Z</time>
      </trkpt>
      <trkpt lat="29.948353450745344" lon="-5.821763416752219">
        <ele>597.60000000000002</ele>
        <time>2019-03-14T17:31:10Z</time>
      </trkpt>
      <trkpt lat="29.948208443820477" lon="-5.822041109204292">
        <ele>598.08000000000004</ele>
        <time>2019-03-14T17:31:15Z</time>
      </trkpt>
      <trkpt lat="29.948077937588096" lon="-5.822250405326486">
        <ele>597.60000000000002</ele>
        <time>2019-03-14T17:31:18Z</time>
      </trkpt>
      <trkpt lat="29.948043404147029" lon="-5.82233321852982">
        <ele>597.60000000000002</ele>
        <time>2019-03-14T17:31:19Z</time>
      </trkpt>
      <trkpt lat="29.948016917333007" lon="-5.82242114469409">
        <ele>598.08000000000004</ele>
        <time>2019-03-14T17:31:20Z</time>
      </trkpt>
      <trkpt lat="29.947679042816162" lon="-5.823296885937452">
        <ele>598.08000000000004</ele>
        <time>2019-03-14T17:31:30Z</time>
      </trkpt>
      <trkpt lat="29.947312250733376" lon="-5.824433974921703">
        <ele>598.55999999999995</ele>
        <time>2019-03-14T17:31:40Z</time>
      </trkpt>
      <trkpt lat="29.947070432826877" lon="-5.825580786913633">
        <ele>598.55999999999995</ele>
        <time>2019-03-14T17:31:50Z</time>
      </trkpt>
      <trkpt lat="29.946925677359104" lon="-5.826068194583058">
        <ele>598.08000000000004</ele>
        <time>2019-03-14T17:31:55Z</time>
      </trkpt>
      <trkpt lat="29.946880666539073" lon="-5.826143128797412">
        <ele>598.08000000000004</ele>
        <time>2019-03-14T17:31:56Z</time>
      </trkpt>
      <trkpt lat="29.946819562464952" lon="-5.826206915080547">
        <ele>598.08000000000004</ele>
        <time>2019-03-14T17:31:57Z</time>
      </trkpt>
      <trkpt lat="29.946679919958115" lon="-5.826335158199072">
        <ele>598.55999999999995</ele>
        <time>2019-03-14T17:31:59Z</time>
      </trkpt>
      <trkpt lat="29.94661764241755" lon="-5.826410762965679">
        <ele>598.55999999999995</ele>
        <time>2019-03-14T17:32:00Z</time>
      </trkpt>
      <trkpt lat="29.946570452302694" lon="-5.82649189978838">
        <ele>598.55999999999995</ele>
        <time>2019-03-14T17:32:01Z</time>
      </trkpt>
      <trkpt lat="29.946538936346769" lon="-5.826577143743634">
        <ele>599.51999999999998</ele>
        <time>2019-03-14T17:32:02Z</time>
      </trkpt>
      <trkpt lat="29.946518987417221" lon="-5.826668925583363">
        <ele>599.03999999999996</ele>
        <time>2019-03-14T17:32:03Z</time>
      </trkpt>
      <trkpt lat="29.946507001295686" lon="-5.826769508421421">
        <ele>599.51999999999998</ele>
        <time>2019-03-14T17:32:04Z</time>
      </trkpt>
      <trkpt lat="29.946496523916721" lon="-5.826876712962985">
        <ele>600</ele>
        <time>2019-03-14T17:32:05Z</time>
      </trkpt>
      <trkpt lat="29.946197038516402" lon="-5.828134249895811">
        <ele>600</ele>
        <time>2019-03-14T17:32:16Z</time>
      </trkpt>
      <trkpt lat="29.94618471711874" lon="-5.828256458044052">
        <ele>600</ele>
        <time>2019-03-14T17:32:17Z</time>
      </trkpt>
      <trkpt lat="29.94592722505331" lon="-5.829486167058349">
        <ele>600</ele>
        <time>2019-03-14T17:32:28Z</time>
      </trkpt>
      <trkpt lat="29.945900654420257" lon="-5.829579625278711">
        <ele>600.48000000000002</ele>
        <time>2019-03-14T17:32:29Z</time>
      </trkpt>
      <trkpt lat="29.945864528417587" lon="-5.829674676060677">
        <ele>600.96000000000004</ele>
        <time>2019-03-14T17:32:30Z</time>
      </trkpt>
      <trkpt lat="29.945815745741129" lon="-5.829768972471356">
        <ele>601.44000000000005</ele>
        <time>2019-03-14T17:32:31Z</time>
      </trkpt>
      <trkpt lat="29.945759167894721" lon="-5.829865699633956">
        <ele>601.44000000000005</ele>
        <time>2019-03-14T17:32:32Z</time>
      </trkpt>
      <trkpt lat="29.945361614227295" lon="-5.830995244905353">
        <ele>600.96000000000004</ele>
        <time>2019-03-14T17:32:42Z</time>
      </trkpt>
      <trkpt lat="29.94499490596354" lon="-5.832440201193094">
        <ele>601.91999999999996</ele>
        <time>2019-03-14T17:32:55Z</time>
      </trkpt>
      <trkpt lat="29.944962551817298" lon="-5.832749577239156">
        <ele>602.88</ele>
        <time>2019-03-14T17:32:58Z</time>
      </trkpt>
      <trkpt lat="29.944941177964211" lon="-5.832848232239485">
        <ele>603.36000000000001</ele>
        <time>2019-03-14T17:32:59Z</time>
      </trkpt>
      <trkpt lat="29.944913936778903" lon="-5.83294864743948">
        <ele>603.85000000000002</ele>
        <time>2019-03-14T17:33:00Z</time>
      </trkpt>
      <trkpt lat="29.94453901425004" lon="-5.834213392809033">
        <ele>603.85000000000002</ele>
        <time>2019-03-14T17:33:14Z</time>
      </trkpt>
      <trkpt lat="29.944224273785949" lon="-5.835271943360567">
        <ele>604.33000000000004</ele>
        <time>2019-03-14T17:33:29Z</time>
      </trkpt>
      <trkpt lat="29.943887991830707" lon="-5.836280956864357">
        <ele>604.80999999999995</ele>
        <time>2019-03-14T17:33:42Z</time>
      </trkpt>
      <trkpt lat="29.943411061540246" lon="-5.837281001731753">
        <ele>604.80999999999995</ele>
        <time>2019-03-14T17:33:52Z</time>
      </trkpt>
      <trkpt lat="29.943261193111539" lon="-5.8381403144449">
        <ele>604.80999999999995</ele>
        <time>2019-03-14T17:34:00Z</time>
      </trkpt>
      <trkpt lat="29.943235376849771" lon="-5.838235951960087">
        <ele>604.80999999999995</ele>
        <time>2019-03-14T17:34:01Z</time>
      </trkpt>
      <trkpt lat="29.943199586123228" lon="-5.838326476514339">
        <ele>604.80999999999995</ele>
        <time>2019-03-14T17:34:02Z</time>
      </trkpt>
      <trkpt lat="29.943155078217387" lon="-5.838413648307324">
        <ele>604.33000000000004</ele>
        <time>2019-03-14T17:34:03Z</time>
      </trkpt>
      <trkpt lat="29.943108558654785" lon="-5.838504927232862">
        <ele>605.28999999999996</ele>
        <time>2019-03-14T17:34:04Z</time>
      </trkpt>
      <trkpt lat="29.943071259185672" lon="-5.838602492585778">
        <ele>604.80999999999995</ele>
        <time>2019-03-14T17:34:05Z</time>
      </trkpt>
      <trkpt lat="29.943046448752284" lon="-5.838708858937025">
        <ele>605.28999999999996</ele>
        <time>2019-03-14T17:34:06Z</time>
      </trkpt>
      <trkpt lat="29.94302717037499" lon="-5.838817153126001">
        <ele>605.76999999999998</ele>
        <time>2019-03-14T17:34:07Z</time>
      </trkpt>
      <trkpt lat="29.942633304744959" lon="-5.839839912950993">
        <ele>605.28999999999996</ele>
        <time>2019-03-14T17:34:17Z</time>
      </trkpt>
      <trkpt lat="29.942514868453145" lon="-5.840121041983366">
        <ele>604.80999999999995</ele>
        <time>2019-03-14T17:34:20Z</time>
      </trkpt>
      <trkpt lat="29.9423807580024" lon="-5.840489426627755">
        <ele>604.80999999999995</ele>
        <time>2019-03-14T17:34:24Z</time>
      </trkpt>
      <trkpt lat="29.942280007526278" lon="-5.840671481564641">
        <ele>605.28999999999996</ele>
        <time>2019-03-14T17:34:26Z</time>
      </trkpt>
      <trkpt lat="29.94223902001977" lon="-5.840765107423067">
        <ele>604.80999999999995</ele>
        <time>2019-03-14T17:34:27Z</time>
      </trkpt>
      <trkpt lat="29.94197616353631" lon="-5.841298615559936">
        <ele>604.80999999999995</ele>
        <time>2019-03-14T17:34:33Z</time>
      </trkpt>
      <trkpt lat="29.941937439143658" lon="-5.841388553380966">
        <ele>605.28999999999996</ele>
        <time>2019-03-14T17:34:34Z</time>
      </trkpt>
      <trkpt lat="29.941814392805099" lon="-5.841672951355577">
        <ele>604.80999999999995</ele>
        <time>2019-03-14T17:34:37Z</time>
      </trkpt>
      <trkpt lat="29.94153686799109" lon="-5.842175278812647">
        <ele>604.33000000000004</ele>
        <time>2019-03-14T17:34:43Z</time>
      </trkpt>
      <trkpt lat="29.941511806100607" lon="-5.842264546081424">
        <ele>604.33000000000004</ele>
        <time>2019-03-14T17:34:44Z</time>
      </trkpt>
      <trkpt lat="29.941436368972063" lon="-5.842530503869057">
        <ele>603.85000000000002</ele>
        <time>2019-03-14T17:34:47Z</time>
      </trkpt>
      <trkpt lat="29.941163286566734" lon="-5.843220250681043">
        <ele>604.33000000000004</ele>
        <time>2019-03-14T17:34:56Z</time>
      </trkpt>
      <trkpt lat="29.94116211310029" lon="-5.843293592333794">
        <ele>604.33000000000004</ele>
        <time>2019-03-14T17:34:57Z</time>
      </trkpt>
      <trkpt lat="29.941111905500293" lon="-5.843784688040614">
        <ele>604.33000000000004</ele>
        <time>2019-03-14T17:35:04Z</time>
      </trkpt>
      <trkpt lat="29.941087262704968" lon="-5.843850150704384">
        <ele>604.80999999999995</ele>
        <time>2019-03-14T17:35:05Z</time>
      </trkpt>
      <trkpt lat="29.940596586093307" lon="-5.844497485086322">
        <ele>605.28999999999996</ele>
        <time>2019-03-14T17:35:15Z</time>
      </trkpt>
      <trkpt lat="29.940542690455914" lon="-5.844585075974464">
        <ele>605.28999999999996</ele>
        <time>2019-03-14T17:35:16Z</time>
      </trkpt>
      <trkpt lat="29.940440766513348" lon="-5.844772327691317">
        <ele>605.28999999999996</ele>
        <time>2019-03-14T17:35:18Z</time>
      </trkpt>
      <trkpt lat="29.940377818420529" lon="-5.844864696264267">
        <ele>605.28999999999996</ele>
        <time>2019-03-14T17:35:19Z</time>
      </trkpt>
      <trkpt lat="29.94011596776545" lon="-5.845264345407486">
        <ele>605.28999999999996</ele>
        <time>2019-03-14T17:35:23Z</time>
      </trkpt>
      <trkpt lat="29.94006559252739" lon="-5.845378590747714">
        <ele>605.76999999999998</ele>
        <time>2019-03-14T17:35:24Z</time>
      </trkpt>
      <trkpt lat="29.940016055479646" lon="-5.845491075888276">
        <ele>605.28999999999996</ele>
        <time>2019-03-14T17:35:25Z</time>
      </trkpt>
      <trkpt lat="29.939960399642587" lon="-5.845596520230174">
        <ele>604.80999999999995</ele>
        <time>2019-03-14T17:35:26Z</time>
      </trkpt>
      <trkpt lat="29.939898625016212" lon="-5.845701545476914">
        <ele>604.80999999999995</ele>
        <time>2019-03-14T17:35:27Z</time>
      </trkpt>
      <trkpt lat="29.939832827076316" lon="-5.845798440277576">
        <ele>604.80999999999995</ele>
        <time>2019-03-14T17:35:28Z</time>
      </trkpt>
      <trkpt lat="29.939766526222229" lon="-5.845889719203115">
        <ele>604.80999999999995</ele>
        <time>2019-03-14T17:35:29Z</time>
      </trkpt>
      <trkpt lat="29.939187504351139" lon="-5.846775434911251">
        <ele>604.80999999999995</ele>
        <time>2019-03-14T17:35:39Z</time>
      </trkpt>
      <trkpt lat="29.938874775543809" lon="-5.847176006063819">
        <ele>604.80999999999995</ele>
        <time>2019-03-14T17:35:44Z</time>
      </trkpt>
      <trkpt lat="29.938822304829955" lon="-5.847253706306219">
        <ele>605.28999999999996</ele>
        <time>2019-03-14T17:35:45Z</time>
      </trkpt>
      <trkpt lat="29.938773522153497" lon="-5.847337106242776">
        <ele>605.28999999999996</ele>
        <time>2019-03-14T17:35:46Z</time>
      </trkpt>
      <trkpt lat="29.938734462484717" lon="-5.847417404875159">
        <ele>605.28999999999996</ele>
        <time>2019-03-14T17:35:47Z</time>
      </trkpt>
      <trkpt lat="29.938701689243317" lon="-5.847496781498194">
        <ele>605.28999999999996</ele>
        <time>2019-03-14T17:35:48Z</time>
      </trkpt>
      <trkpt lat="29.938670340925455" lon="-5.847583282738924">
        <ele>605.28999999999996</ele>
        <time>2019-03-14T17:35:49Z</time>
      </trkpt>
      <trkpt lat="29.938645027577877" lon="-5.847676992416382">
        <ele>604.80999999999995</ele>
        <time>2019-03-14T17:35:50Z</time>
      </trkpt>
      <trkpt lat="29.938625246286392" lon="-5.847781179472804">
        <ele>605.28999999999996</ele>
        <time>2019-03-14T17:35:51Z</time>
      </trkpt>
      <trkpt lat="29.938542516902089" lon="-5.848181499168277">
        <ele>604.80999999999995</ele>
        <time>2019-03-14T17:35:55Z</time>
      </trkpt>
      <trkpt lat="29.938498931005597" lon="-5.848267748951912">
        <ele>604.80999999999995</ele>
        <time>2019-03-14T17:35:56Z</time>
      </trkpt>
      <trkpt lat="29.938155775889754" lon="-5.848815925419331">
        <ele>605.28999999999996</ele>
        <time>2019-03-14T17:36:04Z</time>
      </trkpt>
      <trkpt lat="29.938096515834332" lon="-5.848886417225003">
        <ele>605.28999999999996</ele>
        <time>2019-03-14T17:36:05Z</time>
      </trkpt>
      <trkpt lat="29.937809268012643" lon="-5.849205432459712">
        <ele>605.28999999999996</ele>
        <time>2019-03-14T17:36:09Z</time>
      </trkpt>
      <trkpt lat="29.937744140625" lon="-5.849304758012295">
        <ele>605.28999999999996</ele>
        <time>2019-03-14T17:36:10Z</time>
      </trkpt>
      <trkpt lat="29.937688233330846" lon="-5.849409699440002">
        <ele>605.28999999999996</ele>
        <time>2019-03-14T17:36:11Z</time>
      </trkpt>
      <trkpt lat="29.937643809244037" lon="-5.849514724686742">
        <ele>604.33000000000004</ele>
        <time>2019-03-14T17:36:12Z</time>
      </trkpt>
      <trkpt lat="29.93760441429913" lon="-5.849617905914784">
        <ele>604.33000000000004</ele>
        <time>2019-03-14T17:36:13Z</time>
      </trkpt>
      <trkpt lat="29.937467370182276" lon="-5.849987883120775">
        <ele>604.80999999999995</ele>
        <time>2019-03-14T17:36:17Z</time>
      </trkpt>
      <trkpt lat="29.937420347705483" lon="-5.850073713809252">
        <ele>605.28999999999996</ele>
        <time>2019-03-14T17:36:18Z</time>
      </trkpt>
      <trkpt lat="29.936814587563276" lon="-5.850935457274318">
        <ele>604.80999999999995</ele>
        <time>2019-03-14T17:36:29Z</time>
      </trkpt>
      <trkpt lat="29.936765385791659" lon="-5.851014917716384">
        <ele>604.80999999999995</ele>
        <time>2019-03-14T17:36:30Z</time>
      </trkpt>
      <trkpt lat="29.936397671699524" lon="-5.851588826626539">
        <ele>604.33000000000004</ele>
        <time>2019-03-14T17:36:38Z</time>
      </trkpt>
      <trkpt lat="29.936257777735591" lon="-5.851825615391135">
        <ele>604.33000000000004</ele>
        <time>2019-03-14T17:36:41Z</time>
      </trkpt>
      <trkpt lat="29.936201283708215" lon="-5.851901639252901">
        <ele>604.80999999999995</ele>
        <time>2019-03-14T17:36:42Z</time>
      </trkpt>
      <trkpt lat="29.936138838529587" lon="-5.851975064724684">
        <ele>604.33000000000004</ele>
        <time>2019-03-14T17:36:43Z</time>
      </trkpt>
      <trkpt lat="29.936075387522578" lon="-5.85204916074872">
        <ele>604.33000000000004</ele>
        <time>2019-03-14T17:36:44Z</time>
      </trkpt>
      <trkpt lat="29.936023838818073" lon="-5.852127028629184">
        <ele>604.33000000000004</ele>
        <time>2019-03-14T17:36:45Z</time>
      </trkpt>
      <trkpt lat="29.93598067201674" lon="-5.85221135057509">
        <ele>604.80999999999995</ele>
        <time>2019-03-14T17:36:46Z</time>
      </trkpt>
      <trkpt lat="29.935944797471166" lon="-5.852297684177756">
        <ele>604.33000000000004</ele>
        <time>2019-03-14T17:36:47Z</time>
      </trkpt>
      <trkpt lat="29.935920154675841" lon="-5.852386867627502">
        <ele>603.85000000000002</ele>
        <time>2019-03-14T17:36:48Z</time>
      </trkpt>
      <trkpt lat="29.935902133584023" lon="-5.852476553991437">
        <ele>603.85000000000002</ele>
        <time>2019-03-14T17:36:49Z</time>
      </trkpt>
      <trkpt lat="29.935829378664494" lon="-5.852735806256533">
        <ele>603.85000000000002</ele>
        <time>2019-03-14T17:36:52Z</time>
      </trkpt>
      <trkpt lat="29.935791241005063" lon="-5.852807220071554">
        <ele>603.85000000000002</ele>
        <time>2019-03-14T17:36:53Z</time>
      </trkpt>
      <trkpt lat="29.935705829411745" lon="-5.852939067408443">
        <ele>603.85000000000002</ele>
        <time>2019-03-14T17:36:55Z</time>
      </trkpt>
      <trkpt lat="29.935653191059828" lon="-5.852996902540326">
        <ele>603.85000000000002</ele>
        <time>2019-03-14T17:36:56Z</time>
      </trkpt>
      <trkpt lat="29.935596948489547" lon="-5.853053480386734">
        <ele>603.85000000000002</ele>
        <time>2019-03-14T17:36:57Z</time>
      </trkpt>
      <trkpt lat="29.935531821101904" lon="-5.853109052404761">
        <ele>603.85000000000002</ele>
        <time>2019-03-14T17:36:58Z</time>
      </trkpt>
      <trkpt lat="29.935460072010756" lon="-5.85316470824182">
        <ele>603.85000000000002</ele>
        <time>2019-03-14T17:36:59Z</time>
      </trkpt>
      <trkpt lat="29.935387652367353" lon="-5.85323017090559">
        <ele>603.85000000000002</ele>
        <time>2019-03-14T17:37:00Z</time>
      </trkpt>
      <trkpt lat="29.935317663475871" lon="-5.853303344920278">
        <ele>603.85000000000002</ele>
        <time>2019-03-14T17:37:01Z</time>
      </trkpt>
      <trkpt lat="29.935249015688896" lon="-5.853386074304581">
        <ele>603.85000000000002</ele>
        <time>2019-03-14T17:37:02Z</time>
      </trkpt>
      <trkpt lat="29.935185397043824" lon="-5.853471653535962">
        <ele>603.85000000000002</ele>
        <time>2019-03-14T17:37:03Z</time>
      </trkpt>
      <trkpt lat="29.935129238292575" lon="-5.853558154776692">
        <ele>603.85000000000002</ele>
        <time>2019-03-14T17:37:04Z</time>
      </trkpt>
      <trkpt lat="29.935081880539656" lon="-5.853643231093884">
        <ele>603.85000000000002</ele>
        <time>2019-03-14T17:37:05Z</time>
      </trkpt>
      <trkpt lat="29.935039971023798" lon="-5.853727972134948">
        <ele>604.33000000000004</ele>
        <time>2019-03-14T17:37:06Z</time>
      </trkpt>
      <trkpt lat="29.934589192271233" lon="-5.854367092251778">
        <ele>604.33000000000004</ele>
        <time>2019-03-14T17:37:14Z</time>
      </trkpt>
      <trkpt lat="29.934544013813138" lon="-5.854450576007366">
        <ele>603.85000000000002</ele>
        <time>2019-03-14T17:37:15Z</time>
      </trkpt>
      <trkpt lat="29.934506798163056" lon="-5.85453531704843">
        <ele>603.85000000000002</ele>
        <time>2019-03-14T17:37:16Z</time>
      </trkpt>
      <trkpt lat="29.934320887550712" lon="-5.854960950091481">
        <ele>603.85000000000002</ele>
        <time>2019-03-14T17:37:22Z</time>
      </trkpt>
      <trkpt lat="29.934277972206473" lon="-5.855024820193648">
        <ele>603.85000000000002</ele>
        <time>2019-03-14T17:37:23Z</time>
      </trkpt>
      <trkpt lat="29.934228016063571" lon="-5.855088019743562">
        <ele>603.36000000000001</ele>
        <time>2019-03-14T17:37:24Z</time>
      </trkpt>
      <trkpt lat="29.934179568663239" lon="-5.855149542912841">
        <ele>603.36000000000001</ele>
        <time>2019-03-14T17:37:25Z</time>
      </trkpt>
      <trkpt lat="29.934137323871255" lon="-5.855219531804323">
        <ele>603.36000000000001</ele>
        <time>2019-03-14T17:37:26Z</time>
      </trkpt>
      <trkpt lat="29.934100778773427" lon="-5.855295555666089">
        <ele>603.36000000000001</ele>
        <time>2019-03-14T17:37:27Z</time>
      </trkpt>
      <trkpt lat="29.934072783216834" lon="-5.855379123240709">
        <ele>602.39999999999998</ele>
        <time>2019-03-14T17:37:28Z</time>
      </trkpt>
      <trkpt lat="29.93404814042151" lon="-5.855465037748218">
        <ele>602.88</ele>
        <time>2019-03-14T17:37:29Z</time>
      </trkpt>
      <trkpt lat="29.933948395773768" lon="-5.855721775442362">
        <ele>602.88</ele>
        <time>2019-03-14T17:37:32Z</time>
      </trkpt>
      <trkpt lat="29.933898942545056" lon="-5.855804001912475">
        <ele>602.88</ele>
        <time>2019-03-14T17:37:33Z</time>
      </trkpt>
      <trkpt lat="29.933636840432882" lon="-5.856214379891753">
        <ele>602.39999999999998</ele>
        <time>2019-03-14T17:37:38Z</time>
      </trkpt>
      <trkpt lat="29.933514380827546" lon="-5.856483019888401">
        <ele>602.39999999999998</ele>
        <time>2019-03-14T17:37:41Z</time>
      </trkpt>
      <trkpt lat="29.933461407199502" lon="-5.856567760929465">
        <ele>600.96000000000004</ele>
        <time>2019-03-14T17:37:42Z</time>
      </trkpt>
      <trkpt lat="29.933159574866295" lon="-5.856963805854321">
        <ele>600.96000000000004</ele>
        <time>2019-03-14T17:37:47Z</time>
      </trkpt>
      <trkpt lat="29.933117916807532" lon="-5.857052905485034">
        <ele>601.91999999999996</ele>
        <time>2019-03-14T17:37:48Z</time>
      </trkpt>
      <trkpt lat="29.933093106374145" lon="-5.857143346220255">
        <ele>601.91999999999996</ele>
        <time>2019-03-14T17:37:49Z</time>
      </trkpt>
      <trkpt lat="29.933006688952446" lon="-5.857497062534094">
        <ele>600.96000000000004</ele>
        <time>2019-03-14T17:37:53Z</time>
      </trkpt>
      <trkpt lat="29.932965114712715" lon="-5.857571242377162">
        <ele>600.96000000000004</ele>
        <time>2019-03-14T17:37:54Z</time>
      </trkpt>
      <trkpt lat="29.932814324274659" lon="-5.857796967029572">
        <ele>600.96000000000004</ele>
        <time>2019-03-14T17:37:57Z</time>
      </trkpt>
      <trkpt lat="29.932751879096031" lon="-5.857867375016213">
        <ele>600.48000000000002</ele>
        <time>2019-03-14T17:37:58Z</time>
      </trkpt>
      <trkpt lat="29.932148130610585" lon="-5.858654687181115">
        <ele>600.48000000000002</ele>
        <time>2019-03-14T17:38:07Z</time>
      </trkpt>
      <trkpt lat="29.932106556370854" lon="-5.858751749619842">
        <ele>599.51999999999998</ele>
        <time>2019-03-14T17:38:08Z</time>
      </trkpt>
      <trkpt lat="29.931605821475387" lon="-5.859645260497928">
        <ele>599.03999999999996</ele>
        <time>2019-03-14T17:38:18Z</time>
      </trkpt>
      <trkpt lat="29.931318238377571" lon="-5.860015237703919">
        <ele>599.03999999999996</ele>
        <time>2019-03-14T17:38:23Z</time>
      </trkpt>
      <trkpt lat="29.931269455701113" lon="-5.860104085877538">
        <ele>598.08000000000004</ele>
        <time>2019-03-14T17:38:24Z</time>
      </trkpt>
      <trkpt lat="29.930515587329865" lon="-5.861249305307865">
        <ele>597.60000000000002</ele>
        <time>2019-03-14T17:38:37Z</time>
      </trkpt>
      <trkpt lat="29.930023485794663" lon="-5.862067881971598">
        <ele>596.63999999999999</ele>
        <time>2019-03-14T17:38:46Z</time>
      </trkpt>
      <trkpt lat="29.92997981607914" lon="-5.86216427385807">
        <ele>595.66999999999996</ele>
        <time>2019-03-14T17:38:47Z</time>
      </trkpt>
      <trkpt lat="29.929518140852451" lon="-5.863094832748175">
        <ele>596.14999999999998</ele>
        <time>2019-03-14T17:38:57Z</time>
      </trkpt>
      <trkpt lat="29.928785897791386" lon="-5.864086579531431">
        <ele>595.66999999999996</ele>
        <time>2019-03-14T17:39:09Z</time>
      </trkpt>
      <trkpt lat="29.928215341642499" lon="-5.865093665197492">
        <ele>594.23000000000002</ele>
        <time>2019-03-14T17:39:20Z</time>
      </trkpt>
      <trkpt lat="29.927771771326661" lon="-5.865995306521654">
        <ele>591.35000000000002</ele>
        <time>2019-03-14T17:39:30Z</time>
      </trkpt>
      <trkpt lat="29.92722007445991" lon="-5.866972971707583">
        <ele>590.38999999999999</ele>
        <time>2019-03-14T17:39:41Z</time>
      </trkpt>
      <trkpt lat="29.926694864407182" lon="-5.867696916684508">
        <ele>589.90999999999997</ele>
        <time>2019-03-14T17:39:50Z</time>
      </trkpt>
      <trkpt lat="29.925795821473002" lon="-5.8690529409796">
        <ele>587.98000000000002</ele>
        <time>2019-03-14T17:40:02Z</time>
      </trkpt>
      <trkpt lat="29.924610871821642" lon="-5.87088187225163">
        <ele>587.98000000000002</ele>
        <time>2019-03-14T17:40:18Z</time>
      </trkpt>
      <trkpt lat="29.924005027860403" lon="-5.872133709490299">
        <ele>587.5</ele>
        <time>2019-03-14T17:40:29Z</time>
      </trkpt>
      <trkpt lat="29.923348305746913" lon="-5.873273145407438">
        <ele>587.5</ele>
        <time>2019-03-14T17:40:40Z</time>
      </trkpt>
      <trkpt lat="29.923066589981318" lon="-5.874252822250128">
        <ele>587.5</ele>
        <time>2019-03-14T17:40:50Z</time>
      </trkpt>
      <trkpt lat="29.923028536140919" lon="-5.874320715665817">
        <ele>587.98000000000002</ele>
        <time>2019-03-14T17:40:51Z</time>
      </trkpt>
      <trkpt lat="29.922860395163298" lon="-5.874595725908876">
        <ele>587.98000000000002</ele>
        <time>2019-03-14T17:40:56Z</time>
      </trkpt>
      <trkpt lat="29.922825107350945" lon="-5.874656913802028">
        <ele>588.46000000000004</ele>
        <time>2019-03-14T17:40:57Z</time>
      </trkpt>
      <trkpt lat="29.922335604205728" lon="-5.875473981723189">
        <ele>587.5</ele>
        <time>2019-03-14T17:41:07Z</time>
      </trkpt>
      <trkpt lat="29.922156566753983" lon="-5.87578528560698">
        <ele>587.01999999999998</ele>
        <time>2019-03-14T17:41:11Z</time>
      </trkpt>
      <trkpt lat="29.922103593125939" lon="-5.87585954926908">
        <ele>585.58000000000004</ele>
        <time>2019-03-14T17:41:12Z</time>
      </trkpt>
      <trkpt lat="29.922037208452821" lon="-5.87593037635088">
        <ele>585.58000000000004</ele>
        <time>2019-03-14T17:41:13Z</time>
      </trkpt>
      <trkpt lat="29.921239838004112" lon="-5.876798070967197">
        <ele>584.62</ele>
        <time>2019-03-14T17:41:23Z</time>
      </trkpt>
      <trkpt lat="29.920529974624515" lon="-5.877910768613219">
        <ele>584.62</ele>
        <time>2019-03-14T17:41:34Z</time>
      </trkpt>
      <trkpt lat="29.919822793453932" lon="-5.879162522032857">
        <ele>584.62</ele>
        <time>2019-03-14T17:41:45Z</time>
      </trkpt>
      <trkpt lat="29.919427754357457" lon="-5.879851011559367">
        <ele>584.13999999999999</ele>
        <time>2019-03-14T17:41:53Z</time>
      </trkpt>
      <trkpt lat="29.91925491951406" lon="-5.880464902147651">
        <ele>584.13999999999999</ele>
        <time>2019-03-14T17:41:59Z</time>
      </trkpt>
      <trkpt lat="29.919215859845281" lon="-5.880555594339967">
        <ele>583.17999999999995</ele>
        <time>2019-03-14T17:42:00Z</time>
      </trkpt>
      <trkpt lat="29.91916841827333" lon="-5.880640838295221">
        <ele>583.17999999999995</ele>
        <time>2019-03-14T17:42:01Z</time>
      </trkpt>
      <trkpt lat="29.918829035013914" lon="-5.88115431368351">
        <ele>583.17999999999995</ele>
        <time>2019-03-14T17:42:09Z</time>
      </trkpt>
      <trkpt lat="29.918296867981553" lon="-5.882015386596322">
        <ele>583.17999999999995</ele>
        <time>2019-03-14T17:42:21Z</time>
      </trkpt>
      <trkpt lat="29.917915994301438" lon="-5.882696164771915">
        <ele>583.17999999999995</ele>
        <time>2019-03-14T17:42:31Z</time>
      </trkpt>
      <trkpt lat="29.917802838608623" lon="-5.882880399003625">
        <ele>582.70000000000005</ele>
        <time>2019-03-14T17:42:34Z</time>
      </trkpt>
      <trkpt lat="29.917782302945852" lon="-5.88292951695621">
        <ele>582.70000000000005</ele>
        <time>2019-03-14T17:42:35Z</time>
      </trkpt>
      <trkpt lat="29.91776168346405" lon="-5.882978048175573">
        <ele>582.70000000000005</ele>
        <time>2019-03-14T17:42:36Z</time>
      </trkpt>
      <trkpt lat="29.917733939364552" lon="-5.883027585223317">
        <ele>583.17999999999995</ele>
        <time>2019-03-14T17:42:37Z</time>
      </trkpt>
      <trkpt lat="29.917699322104454" lon="-5.883087934926152">
        <ele>582.70000000000005</ele>
        <time>2019-03-14T17:42:38Z</time>
      </trkpt>
      <trkpt lat="29.917555572465062" lon="-5.883305110037327">
        <ele>582.70000000000005</ele>
        <time>2019-03-14T17:42:41Z</time>
      </trkpt>
      <trkpt lat="29.917219122871757" lon="-5.88381146080792">
        <ele>582.70000000000005</ele>
        <time>2019-03-14T17:42:48Z</time>
      </trkpt>
      <trkpt lat="29.916793741285801" lon="-5.884496429935098">
        <ele>582.22000000000003</ele>
        <time>2019-03-14T17:42:58Z</time>
      </trkpt>
      <trkpt lat="29.916447233408689" lon="-5.884870514273644">
        <ele>582.22000000000003</ele>
        <time>2019-03-14T17:43:06Z</time>
      </trkpt>
      <trkpt lat="29.916400462388992" lon="-5.884926589205861">
        <ele>582.22000000000003</ele>
        <time>2019-03-14T17:43:07Z</time>
      </trkpt>
      <trkpt lat="29.916352601721883" lon="-5.884967744350433">
        <ele>581.73000000000002</ele>
        <time>2019-03-14T17:43:08Z</time>
      </trkpt>
      <trkpt lat="29.916196279227734" lon="-5.885066650807858">
        <ele>581.73000000000002</ele>
        <time>2019-03-14T17:43:11Z</time>
      </trkpt>
      <trkpt lat="29.916151603683829" lon="-5.885115098208189">
        <ele>581.73000000000002</ele>
        <time>2019-03-14T17:43:12Z</time>
      </trkpt>
      <trkpt lat="29.916114052757621" lon="-5.885169077664614">
        <ele>581.73000000000002</ele>
        <time>2019-03-14T17:43:13Z</time>
      </trkpt>
      <trkpt lat="29.916048170998693" lon="-5.88528080843389">
        <ele>581.25</ele>
        <time>2019-03-14T17:43:15Z</time>
      </trkpt>
      <trkpt lat="29.916022187098861" lon="-5.885342583060265">
        <ele>580.76999999999998</ele>
        <time>2019-03-14T17:43:16Z</time>
      </trkpt>
      <trkpt lat="29.916001735255122" lon="-5.88540687225759">
        <ele>580.28999999999996</ele>
        <time>2019-03-14T17:43:17Z</time>
      </trkpt>
      <trkpt lat="29.915990168228745" lon="-5.885474849492312">
        <ele>579.80999999999995</ele>
        <time>2019-03-14T17:43:18Z</time>
      </trkpt>
      <trkpt lat="29.915984719991684" lon="-5.885545508936048">
        <ele>579.80999999999995</ele>
        <time>2019-03-14T17:43:19Z</time>
      </trkpt>
      <trkpt lat="29.915984217077494" lon="-5.885617425665259">
        <ele>579.80999999999995</ele>
        <time>2019-03-14T17:43:20Z</time>
      </trkpt>
      <trkpt lat="29.915973152965307" lon="-5.885765952989459">
        <ele>579.33000000000004</ele>
        <time>2019-03-14T17:43:22Z</time>
      </trkpt>
      <trkpt lat="29.915952868759632" lon="-5.885835690423846">
        <ele>579.33000000000004</ele>
        <time>2019-03-14T17:43:23Z</time>
      </trkpt>
      <trkpt lat="29.915927806869149" lon="-5.885901069268584">
        <ele>580.28999999999996</ele>
        <time>2019-03-14T17:43:24Z</time>
      </trkpt>
      <trkpt lat="29.915896793827415" lon="-5.885961083695293">
        <ele>581.73000000000002</ele>
        <time>2019-03-14T17:43:25Z</time>
      </trkpt>
      <trkpt lat="29.915857147425413" lon="-5.88602059520781">
        <ele>580.76999999999998</ele>
        <time>2019-03-14T17:43:26Z</time>
      </trkpt>
      <trkpt lat="29.915813896805048" lon="-5.886081028729677">
        <ele>580.76999999999998</ele>
        <time>2019-03-14T17:43:27Z</time>
      </trkpt>
      <trkpt lat="29.915432436391711" lon="-5.886619063094258">
        <ele>580.28999999999996</ele>
        <time>2019-03-14T17:43:38Z</time>
      </trkpt>
      <trkpt lat="29.91502046585083" lon="-5.887185512110591">
        <ele>580.28999999999996</ele>
        <time>2019-03-14T17:43:49Z</time>
      </trkpt>
      <trkpt lat="29.914791975170374" lon="-5.887513412162662">
        <ele>580.76999999999998</ele>
        <time>2019-03-14T17:43:55Z</time>
      </trkpt>
      <trkpt lat="29.914743024855852" lon="-5.887567307800055">
        <ele>580.76999999999998</ele>
        <time>2019-03-14T17:43:56Z</time>
      </trkpt>
      <trkpt lat="29.914651578292251" lon="-5.887656323611736">
        <ele>579.80999999999995</ele>
        <time>2019-03-14T17:43:58Z</time>
      </trkpt>
      <trkpt lat="29.914614027366042" lon="-5.887704184278846">
        <ele>579.80999999999995</ele>
        <time>2019-03-14T17:43:59Z</time>
      </trkpt>
      <trkpt lat="29.914532890543342" lon="-5.88782018981874">
        <ele>579.33000000000004</ele>
        <time>2019-03-14T17:44:01Z</time>
      </trkpt>
      <trkpt lat="29.914472121745348" lon="-5.887878611683846">
        <ele>578.85000000000002</ele>
        <time>2019-03-14T17:44:02Z</time>
      </trkpt>
      <trkpt lat="29.914102144539356" lon="-5.888131996616721">
        <ele>578.37</ele>
        <time>2019-03-14T17:44:07Z</time>
      </trkpt>
      <trkpt lat="29.914019498974085" lon="-5.888165524229407">
        <ele>578.37</ele>
        <time>2019-03-14T17:44:08Z</time>
      </trkpt>
      <trkpt lat="29.913929393514991" lon="-5.888192765414715">
        <ele>578.37</ele>
        <time>2019-03-14T17:44:09Z</time>
      </trkpt>
      <trkpt lat="29.913407284766436" lon="-5.888275243341923">
        <ele>577.88999999999999</ele>
        <time>2019-03-14T17:44:15Z</time>
      </trkpt>
      <trkpt lat="29.913234114646912" lon="-5.88825604878366">
        <ele>577.88999999999999</ele>
        <time>2019-03-14T17:44:17Z</time>
      </trkpt>
      <trkpt lat="29.913004701957107" lon="-5.888219084590673">
        <ele>577.88999999999999</ele>
        <time>2019-03-14T17:44:20Z</time>
      </trkpt>
      <trkpt lat="29.912928007543087" lon="-5.888230819255114">
        <ele>577.88999999999999</ele>
        <time>2019-03-14T17:44:21Z</time>
      </trkpt>
      <trkpt lat="29.912432134151459" lon="-5.888413209468126">
        <ele>577.40999999999997</ele>
        <time>2019-03-14T17:44:28Z</time>
      </trkpt>
      <trkpt lat="29.912382597103715" lon="-5.88845050893724">
        <ele>577.40999999999997</ele>
        <time>2019-03-14T17:44:29Z</time>
      </trkpt>
      <trkpt lat="29.912287713959813" lon="-5.888535417616367">
        <ele>576.92999999999995</ele>
        <time>2019-03-14T17:44:31Z</time>
      </trkpt>
      <trkpt lat="29.912063078954816" lon="-5.888798525556922">
        <ele>577.40999999999997</ele>
        <time>2019-03-14T17:44:36Z</time>
      </trkpt>
      <trkpt lat="29.912027874961495" lon="-5.888849571347237">
        <ele>577.40999999999997</ele>
        <time>2019-03-14T17:44:37Z</time>
      </trkpt>
      <trkpt lat="29.911995520815253" lon="-5.888895085081458">
        <ele>577.40999999999997</ele>
        <time>2019-03-14T17:44:38Z</time>
      </trkpt>
      <trkpt lat="29.911662759259343" lon="-5.889598662033677">
        <ele>577.40999999999997</ele>
        <time>2019-03-14T17:44:50Z</time>
      </trkpt>
      <trkpt lat="29.91143686696887" lon="-5.889883227646351">
        <ele>576.92999999999995</ele>
        <time>2019-03-14T17:44:55Z</time>
      </trkpt>
      <trkpt lat="29.911377187818289" lon="-5.889928657561541">
        <ele>576.45000000000005</ele>
        <time>2019-03-14T17:44:56Z</time>
      </trkpt>
      <trkpt lat="29.911271492019296" lon="-5.890006525442004">
        <ele>576.45000000000005</ele>
        <time>2019-03-14T17:44:58Z</time>
      </trkpt>
      <trkpt lat="29.911232097074389" lon="-5.890056397765875">
        <ele>576.45000000000005</ele>
        <time>2019-03-14T17:44:59Z</time>
      </trkpt>
      <trkpt lat="29.911196054890752" lon="-5.890117334201932">
        <ele>575.97000000000003</ele>
        <time>2019-03-14T17:45:00Z</time>
      </trkpt>
      <trkpt lat="29.911166047677398" lon="-5.890179947018623">
        <ele>576.92999999999995</ele>
        <time>2019-03-14T17:45:01Z</time>
      </trkpt>
      <trkpt lat="29.91114123724401" lon="-5.890244487673044">
        <ele>576.92999999999995</ele>
        <time>2019-03-14T17:45:02Z</time>
      </trkpt>
      <trkpt lat="29.911123299971223" lon="-5.890312464907765">
        <ele>576.92999999999995</ele>
        <time>2019-03-14T17:45:03Z</time>
      </trkpt>
      <trkpt lat="29.911106871441007" lon="-5.890379520133138">
        <ele>576.92999999999995</ele>
        <time>2019-03-14T17:45:04Z</time>
      </trkpt>
      <trkpt lat="29.910917356610298" lon="-5.891073038801551">
        <ele>576.45000000000005</ele>
        <time>2019-03-14T17:45:15Z</time>
      </trkpt>
      <trkpt lat="29.910878883674741" lon="-5.891148140653968">
        <ele>576.92999999999995</ele>
        <time>2019-03-14T17:45:16Z</time>
      </trkpt>
      <trkpt lat="29.910594066604972" lon="-5.891675697639585">
        <ele>578.85000000000002</ele>
        <time>2019-03-14T17:45:24Z</time>
      </trkpt>
      <trkpt lat="29.910064665600657" lon="-5.892606927081943">
        <ele>578.37</ele>
        <time>2019-03-14T17:45:35Z</time>
      </trkpt>
      <trkpt lat="29.909981517121196" lon="-5.892768697813153">
        <ele>578.37</ele>
        <time>2019-03-14T17:45:37Z</time>
      </trkpt>
      <trkpt lat="29.909655293449759" lon="-5.89343355037272">
        <ele>578.37</ele>
        <time>2019-03-14T17:45:45Z</time>
      </trkpt>
      <trkpt lat="29.909297470003366" lon="-5.894196722656488">
        <ele>578.37</ele>
        <time>2019-03-14T17:45:53Z</time>
      </trkpt>
      <trkpt lat="29.909251537173986" lon="-5.894275680184364">
        <ele>578.37</ele>
        <time>2019-03-14T17:45:54Z</time>
      </trkpt>
      <trkpt lat="29.909202335402369" lon="-5.89434533379972">
        <ele>578.37</ele>
        <time>2019-03-14T17:45:55Z</time>
      </trkpt>
      <trkpt lat="29.909040397033095" lon="-5.894593019038439">
        <ele>578.37</ele>
        <time>2019-03-14T17:45:58Z</time>
      </trkpt>
      <trkpt lat="29.908847697079182" lon="-5.89501672424376">
        <ele>578.37</ele>
        <time>2019-03-14T17:46:02Z</time>
      </trkpt>
      <trkpt lat="29.908785922452807" lon="-5.895117977634072">
        <ele>578.85000000000002</ele>
        <time>2019-03-14T17:46:03Z</time>
      </trkpt>
      <trkpt lat="29.908345118165016" lon="-5.895631704479456">
        <ele>578.85000000000002</ele>
        <time>2019-03-14T17:46:09Z</time>
      </trkpt>
      <trkpt lat="29.908286863937974" lon="-5.895717451348901">
        <ele>578.85000000000002</ele>
        <time>2019-03-14T17:46:10Z</time>
      </trkpt>
      <trkpt lat="29.908138001337647" lon="-5.895960526540875">
        <ele>578.37</ele>
        <time>2019-03-14T17:46:13Z</time>
      </trkpt>
      <trkpt lat="29.908075220882893" lon="-5.896036550402641">
        <ele>579.80999999999995</ele>
        <time>2019-03-14T17:46:14Z</time>
      </trkpt>
      <trkpt lat="29.907945385202765" lon="-5.896183820441365">
        <ele>579.33000000000004</ele>
        <time>2019-03-14T17:46:16Z</time>
      </trkpt>
      <trkpt lat="29.907897943630815" lon="-5.896252719685435">
        <ele>578.37</ele>
        <time>2019-03-14T17:46:17Z</time>
      </trkpt>
      <trkpt lat="29.907860979437828" lon="-5.89631793089211">
        <ele>578.85000000000002</ele>
        <time>2019-03-14T17:46:18Z</time>
      </trkpt>
      <trkpt lat="29.907323364168406" lon="-5.897022346034646">
        <ele>578.85000000000002</ele>
        <time>2019-03-14T17:46:28Z</time>
      </trkpt>
      <trkpt lat="29.907260751351714" lon="-5.897101806476712">
        <ele>579.33000000000004</ele>
        <time>2019-03-14T17:46:29Z</time>
      </trkpt>
      <trkpt lat="29.90669472143054" lon="-5.897930609062314">
        <ele>578.85000000000002</ele>
        <time>2019-03-14T17:46:39Z</time>
      </trkpt>
      <trkpt lat="29.906046129763126" lon="-5.8987723197788">
        <ele>579.33000000000004</ele>
        <time>2019-03-14T17:46:50Z</time>
      </trkpt>
      <trkpt lat="29.905642373487353" lon="-5.899307923391461">
        <ele>578.37</ele>
        <time>2019-03-14T17:46:58Z</time>
      </trkpt>
      <trkpt lat="29.904984058812261" lon="-5.900212833657861">
        <ele>578.37</ele>
        <time>2019-03-14T17:47:08Z</time>
      </trkpt>
      <trkpt lat="29.904416101053357" lon="-5.901047587394714">
        <ele>578.37</ele>
        <time>2019-03-14T17:47:18Z</time>
      </trkpt>
      <trkpt lat="29.904247457161546" lon="-5.901281107217073">
        <ele>578.37</ele>
        <time>2019-03-14T17:47:21Z</time>
      </trkpt>
      <trkpt lat="29.904050985351205" lon="-5.901515800505877">
        <ele>577.88999999999999</ele>
        <time>2019-03-14T17:47:24Z</time>
      </trkpt>
      <trkpt lat="29.903431562706828" lon="-5.902330772951245">
        <ele>577.88999999999999</ele>
        <time>2019-03-14T17:47:34Z</time>
      </trkpt>
      <trkpt lat="29.903358053416014" lon="-5.902412161231041">
        <ele>577.88999999999999</ele>
        <time>2019-03-14T17:47:35Z</time>
      </trkpt>
      <trkpt lat="29.903295356780291" lon="-5.902496483176947">
        <ele>577.40999999999997</ele>
        <time>2019-03-14T17:47:36Z</time>
      </trkpt>
      <trkpt lat="29.90323911421001" lon="-5.902587007731199">
        <ele>577.88999999999999</ele>
        <time>2019-03-14T17:47:37Z</time>
      </trkpt>
      <trkpt lat="29.903187900781631" lon="-5.902685830369592">
        <ele>577.88999999999999</ele>
        <time>2019-03-14T17:47:38Z</time>
      </trkpt>
      <trkpt lat="29.903140710666776" lon="-5.902782557532191">
        <ele>576.45000000000005</ele>
        <time>2019-03-14T17:47:39Z</time>
      </trkpt>
      <trkpt lat="29.90303979255259" lon="-5.902954805642366">
        <ele>576.92999999999995</ele>
        <time>2019-03-14T17:47:41Z</time>
      </trkpt>
      <trkpt lat="29.902973994612694" lon="-5.903031332418323">
        <ele>576.92999999999995</ele>
        <time>2019-03-14T17:47:42Z</time>
      </trkpt>
      <trkpt lat="29.90289612673223" lon="-5.903103919699788">
        <ele>576.92999999999995</ele>
        <time>2019-03-14T17:47:43Z</time>
      </trkpt>
      <trkpt lat="29.902294557541609" lon="-5.903644468635321">
        <ele>576.45000000000005</ele>
        <time>2019-03-14T17:47:51Z</time>
      </trkpt>
      <trkpt lat="29.902231357991695" lon="-5.903725354000926">
        <ele>575.00999999999999</ele>
        <time>2019-03-14T17:47:52Z</time>
      </trkpt>
      <trkpt lat="29.902171595022082" lon="-5.90381889604032">
        <ele>575.00999999999999</ele>
        <time>2019-03-14T17:47:53Z</time>
      </trkpt>
      <trkpt lat="29.90211870521307" lon="-5.903920903801918">
        <ele>574.52999999999997</ele>
        <time>2019-03-14T17:47:54Z</time>
      </trkpt>
      <trkpt lat="29.902071766555309" lon="-5.904026264324784">
        <ele>574.03999999999996</ele>
        <time>2019-03-14T17:47:55Z</time>
      </trkpt>
      <trkpt lat="29.901697849854827" lon="-5.904851378872991">
        <ele>575.00999999999999</ele>
        <time>2019-03-14T17:48:03Z</time>
      </trkpt>
      <trkpt lat="29.901587627828121" lon="-5.904999990016222">
        <ele>575.00999999999999</ele>
        <time>2019-03-14T17:48:05Z</time>
      </trkpt>
      <trkpt lat="29.901090329512954" lon="-5.905637936666608">
        <ele>574.52999999999997</ele>
        <time>2019-03-14T17:48:15Z</time>
      </trkpt>
      <trkpt lat="29.900556150823832" lon="-5.906337574124336">
        <ele>574.52999999999997</ele>
        <time>2019-03-14T17:48:27Z</time>
      </trkpt>
      <trkpt lat="29.899933878332376" lon="-5.907171489670873">
        <ele>575.00999999999999</ele>
        <time>2019-03-14T17:48:40Z</time>
      </trkpt>
      <trkpt lat="29.89961301907897" lon="-5.907542891800404">
        <ele>574.03999999999996</ele>
        <time>2019-03-14T17:48:47Z</time>
      </trkpt>
      <trkpt lat="29.899147320538759" lon="-5.90799618512392">
        <ele>572.12</ele>
        <time>2019-03-14T17:48:56Z</time>
      </trkpt>
      <trkpt lat="29.898850517347455" lon="-5.908293826505542">
        <ele>571.63999999999999</ele>
        <time>2019-03-14T17:49:06Z</time>
      </trkpt>
      <trkpt lat="29.898669216781855" lon="-5.908661959692836">
        <ele>573.55999999999995</ele>
        <time>2019-03-14T17:49:11Z</time>
      </trkpt>
      <trkpt lat="29.898670976981521" lon="-5.909629315137863">
        <ele>573.08000000000004</ele>
        <time>2019-03-14T17:49:21Z</time>
      </trkpt>
      <trkpt lat="29.898690255358815" lon="-5.910797668620944">
        <ele>571.15999999999997</ele>
        <time>2019-03-14T17:49:32Z</time>
      </trkpt>
      <trkpt lat="29.898682963103056" lon="-5.910887438803911">
        <ele>570.67999999999995</ele>
        <time>2019-03-14T17:49:33Z</time>
      </trkpt>
      <trkpt lat="29.898663265630603" lon="-5.91178790666163">
        <ele>570.20000000000005</ele>
        <time>2019-03-14T17:49:44Z</time>
      </trkpt>
      <trkpt lat="29.89870467223227" lon="-5.912843691185117">
        <ele>569.24000000000001</ele>
        <time>2019-03-14T17:49:54Z</time>
      </trkpt>
      <trkpt lat="29.898756388574839" lon="-5.914055965840817">
        <ele>569.24000000000001</ele>
        <time>2019-03-14T17:50:03Z</time>
      </trkpt>
      <trkpt lat="29.898711964488029" lon="-5.915222223848105">
        <ele>570.20000000000005</ele>
        <time>2019-03-14T17:50:12Z</time>
      </trkpt>
      <trkpt lat="29.898244254291058" lon="-5.917017459869385">
        <ele>572.60000000000002</ele>
        <time>2019-03-14T17:50:26Z</time>
      </trkpt>
      <trkpt lat="29.897915767505765" lon="-5.918050948530436">
        <ele>572.60000000000002</ele>
        <time>2019-03-14T17:50:36Z</time>
      </trkpt>
      <trkpt lat="29.897752655670047" lon="-5.918558305129409">
        <ele>571.15999999999997</ele>
        <time>2019-03-14T17:50:42Z</time>
      </trkpt>
      <trkpt lat="29.897281341254711" lon="-5.91936212964356">
        <ele>569.24000000000001</ele>
        <time>2019-03-14T17:50:52Z</time>
      </trkpt>
      <trkpt lat="29.896511882543564" lon="-5.920438701286912">
        <ele>568.27999999999997</ele>
        <time>2019-03-14T17:51:05Z</time>
      </trkpt>
      <trkpt lat="29.895998742431402" lon="-5.921157449483872">
        <ele>565.87</ele>
        <time>2019-03-14T17:51:13Z</time>
      </trkpt>
      <trkpt lat="29.895413685590029" lon="-5.92233644798398">
        <ele>564.42999999999995</ele>
        <time>2019-03-14T17:51:24Z</time>
      </trkpt>
      <trkpt lat="29.894626038148999" lon="-5.923759527504444">
        <ele>564.42999999999995</ele>
        <time>2019-03-14T17:51:37Z</time>
      </trkpt>
      <trkpt lat="29.893578551709652" lon="-5.925543950870633">
        <ele>564.42999999999995</ele>
        <time>2019-03-14T17:51:53Z</time>
      </trkpt>
      <trkpt lat="29.892610190436244" lon="-5.92729945667088">
        <ele>562.99000000000001</ele>
        <time>2019-03-14T17:52:06Z</time>
      </trkpt>
      <trkpt lat="29.892047848552465" lon="-5.928432857617736">
        <ele>562.02999999999997</ele>
        <time>2019-03-14T17:52:16Z</time>
      </trkpt>
      <trkpt lat="29.891682816669345" lon="-5.92897399328649">
        <ele>562.99000000000001</ele>
        <time>2019-03-14T17:52:21Z</time>
      </trkpt>
      <trkpt lat="29.891529344022274" lon="-5.929160322993994">
        <ele>562.02999999999997</ele>
        <time>2019-03-14T17:52:23Z</time>
      </trkpt>
      <trkpt lat="29.89091738127172" lon="-5.930215269327164">
        <ele>560.11000000000001</ele>
        <time>2019-03-14T17:52:34Z</time>
      </trkpt>
      <trkpt lat="29.890626445412636" lon="-5.930726313963532">
        <ele>559.62</ele>
        <time>2019-03-14T17:52:41Z</time>
      </trkpt>
      <trkpt lat="29.890254540368915" lon="-5.931403068825603">
        <ele>560.11000000000001</ele>
        <time>2019-03-14T17:52:51Z</time>
      </trkpt>
      <trkpt lat="29.889723965898156" lon="-5.932516437023878">
        <ele>558.65999999999997</ele>
        <time>2019-03-14T17:53:01Z</time>
      </trkpt>
      <trkpt lat="29.888866916298866" lon="-5.933959549292922">
        <ele>556.74000000000001</ele>
        <time>2019-03-14T17:53:12Z</time>
      </trkpt>
      <trkpt lat="29.888368025422096" lon="-5.934834536164999">
        <ele>555.29999999999995</ele>
        <time>2019-03-14T17:53:18Z</time>
      </trkpt>
      <trkpt lat="29.887831835076213" lon="-5.935926027595997">
        <ele>555.77999999999997</ele>
        <time>2019-03-14T17:53:27Z</time>
      </trkpt>
      <trkpt lat="29.88716815598309" lon="-5.937452288344502">
        <ele>554.34000000000003</ele>
        <time>2019-03-14T17:53:38Z</time>
      </trkpt>
      <trkpt lat="29.886452928185463" lon="-5.939244087785482">
        <ele>553.86000000000001</ele>
        <time>2019-03-14T17:53:49Z</time>
      </trkpt>
      <trkpt lat="29.88579947501421" lon="-5.940802115947008">
        <ele>554.82000000000005</ele>
        <time>2019-03-14T17:54:00Z</time>
      </trkpt>
      <trkpt lat="29.885074524208903" lon="-5.942549575120211">
        <ele>552.89999999999998</ele>
        <time>2019-03-14T17:54:12Z</time>
      </trkpt>
      <trkpt lat="29.8845583666116" lon="-5.943811638280749">
        <ele>551.45000000000005</ele>
        <time>2019-03-14T17:54:21Z</time>
      </trkpt>
      <trkpt lat="29.883702406659722" lon="-5.945725059136748">
        <ele>550.97000000000003</ele>
        <time>2019-03-14T17:54:33Z</time>
      </trkpt>
      <trkpt lat="29.883354222401977" lon="-5.946471970528364">
        <ele>550.49000000000001</ele>
        <time>2019-03-14T17:54:40Z</time>
      </trkpt>
      <trkpt lat="29.88258576951921" lon="-5.948070483282208">
        <ele>550.00999999999999</ele>
        <time>2019-03-14T17:54:52Z</time>
      </trkpt>
      <trkpt lat="29.881787309423089" lon="-5.94964493997395">
        <ele>548.57000000000005</ele>
        <time>2019-03-14T17:55:03Z</time>
      </trkpt>
      <trkpt lat="29.881012905389071" lon="-5.951202800497413">
        <ele>548.57000000000005</ele>
        <time>2019-03-14T17:55:15Z</time>
      </trkpt>
      <trkpt lat="29.880308322608471" lon="-5.952617581933737">
        <ele>548.57000000000005</ele>
        <time>2019-03-14T17:55:26Z</time>
      </trkpt>
      <trkpt lat="29.879599548876286" lon="-5.953801106661558">
        <ele>546.16999999999996</ele>
        <time>2019-03-14T17:55:36Z</time>
      </trkpt>
      <trkpt lat="29.878475368022919" lon="-5.955551499500871">
        <ele>545.69000000000005</ele>
        <time>2019-03-14T17:55:49Z</time>
      </trkpt>
      <trkpt lat="29.877410531044006" lon="-5.957025121897459">
        <ele>545.20000000000005</ele>
        <time>2019-03-14T17:56:02Z</time>
      </trkpt>
      <trkpt lat="29.876144276931882" lon="-5.958785070106387">
        <ele>543.75999999999999</ele>
        <time>2019-03-14T17:56:17Z</time>
      </trkpt>
      <trkpt lat="29.87520114518702" lon="-5.960294902324677">
        <ele>542.32000000000005</ele>
        <time>2019-03-14T17:56:29Z</time>
      </trkpt>
      <trkpt lat="29.874445013701916" lon="-5.961700463667512">
        <ele>542.32000000000005</ele>
        <time>2019-03-14T17:56:40Z</time>
      </trkpt>
      <trkpt lat="29.87383833155036" lon="-5.962962275370956">
        <ele>540.88</ele>
        <time>2019-03-14T17:56:50Z</time>
      </trkpt>
      <trkpt lat="29.873108016327024" lon="-5.964628513902426">
        <ele>541.36000000000001</ele>
        <time>2019-03-14T17:57:02Z</time>
      </trkpt>
      <trkpt lat="29.872418185696006" lon="-5.966310929507017">
        <ele>541.84000000000003</ele>
        <time>2019-03-14T17:57:13Z</time>
      </trkpt>
      <trkpt lat="29.871640931814909" lon="-5.968210101127625">
        <ele>541.36000000000001</ele>
        <time>2019-03-14T17:57:25Z</time>
      </trkpt>
      <trkpt lat="29.871199876070023" lon="-5.969605436548591">
        <ele>539.91999999999996</ele>
        <time>2019-03-14T17:57:34Z</time>
      </trkpt>
      <trkpt lat="29.870992926880717" lon="-5.97099700011313">
        <ele>539.91999999999996</ele>
        <time>2019-03-14T17:57:43Z</time>
      </trkpt>
      <trkpt lat="29.870891002938151" lon="-5.972176836803556">
        <ele>540.39999999999998</ele>
        <time>2019-03-14T17:57:52Z</time>
      </trkpt>
      <trkpt lat="29.87079125829041" lon="-5.973359858617187">
        <ele>542.32000000000005</ele>
        <time>2019-03-14T17:58:02Z</time>
      </trkpt>
      <trkpt lat="29.870705427601933" lon="-5.974843455478549">
        <ele>542.32000000000005</ele>
        <time>2019-03-14T17:58:14Z</time>
      </trkpt>
      <trkpt lat="29.87060409039259" lon="-5.976530481129885">
        <ele>541.36000000000001</ele>
        <time>2019-03-14T17:58:26Z</time>
      </trkpt>
      <trkpt lat="29.870529239997268" lon="-5.977769158780575">
        <ele>540.88</ele>
        <time>2019-03-14T17:58:35Z</time>
      </trkpt>
      <trkpt lat="29.870462184771895" lon="-5.97883022390306">
        <ele>540.39999999999998</ele>
        <time>2019-03-14T17:58:44Z</time>
      </trkpt>
      <trkpt lat="29.870433937758207" lon="-5.979226604104042">
        <ele>540.88</ele>
        <time>2019-03-14T17:58:48Z</time>
      </trkpt>
      <trkpt lat="29.870355566963553" lon="-5.980551363900304">
        <ele>541.36000000000001</ele>
        <time>2019-03-14T17:58:59Z</time>
      </trkpt>
      <trkpt lat="29.870259761810303" lon="-5.98197746090591">
        <ele>541.84000000000003</ele>
        <time>2019-03-14T17:59:11Z</time>
      </trkpt>
      <trkpt lat="29.870162699371576" lon="-5.9835753031075">
        <ele>539.91999999999996</ele>
        <time>2019-03-14T17:59:23Z</time>
      </trkpt>
      <trkpt lat="29.870092626661062" lon="-5.984616419300437">
        <ele>538.96000000000004</ele>
        <time>2019-03-14T17:59:32Z</time>
      </trkpt>
      <trkpt lat="29.870003946125507" lon="-5.986050143837929">
        <ele>538.96000000000004</ele>
        <time>2019-03-14T17:59:44Z</time>
      </trkpt>
      <trkpt lat="29.869888527318835" lon="-5.987754687666893">
        <ele>538.96000000000004</ele>
        <time>2019-03-14T17:59:57Z</time>
      </trkpt>
      <trkpt lat="29.869791548699141" lon="-5.989275416359305">
        <ele>540.88</ele>
        <time>2019-03-14T18:00:08Z</time>
      </trkpt>
      <trkpt lat="29.869712088257074" lon="-5.990535719320178">
        <ele>541.36000000000001</ele>
        <time>2019-03-14T18:00:17Z</time>
      </trkpt>
      <trkpt lat="29.869584934785962" lon="-5.992415780201554">
        <ele>540.39999999999998</ele>
        <time>2019-03-14T18:00:29Z</time>
      </trkpt>
      <trkpt lat="29.869424672797322" lon="-5.99463053047657">
        <ele>541.36000000000001</ele>
        <time>2019-03-14T18:00:42Z</time>
      </trkpt>
      <trkpt lat="29.869351331144571" lon="-5.995641136541963">
        <ele>540.39999999999998</ele>
        <time>2019-03-14T18:00:50Z</time>
      </trkpt>
      <trkpt lat="29.869272541254759" lon="-5.996959777548909">
        <ele>540.39999999999998</ele>
        <time>2019-03-14T18:01:00Z</time>
      </trkpt>
      <trkpt lat="29.869176484644413" lon="-5.998718719929457">
        <ele>537.50999999999999</ele>
        <time>2019-03-14T18:01:13Z</time>
      </trkpt>
      <trkpt lat="29.869103897362947" lon="-6.000164346769452">
        <ele>537.02999999999997</ele>
        <time>2019-03-14T18:01:23Z</time>
      </trkpt>
      <trkpt lat="29.869075147435069" lon="-6.001099599525333">
        <ele>537.02999999999997</ele>
        <time>2019-03-14T18:01:31Z</time>
      </trkpt>
      <trkpt lat="29.869164582341909" lon="-6.002434166148305">
        <ele>537.50999999999999</ele>
        <time>2019-03-14T18:01:41Z</time>
      </trkpt>
      <trkpt lat="29.869308164343238" lon="-6.003163475543261">
        <ele>537.99000000000001</ele>
        <time>2019-03-14T18:04:12Z</time>
      </trkpt>
      <trkpt lat="29.8691978584975" lon="-6.003444017842412">
        <ele>539.44000000000005</ele>
        <time>2019-03-14T18:04:16Z</time>
      </trkpt>
      <trkpt lat="29.868887979537249" lon="-6.003914661705494">
        <ele>538.96000000000004</ele>
        <time>2019-03-14T18:04:22Z</time>
      </trkpt>
      <trkpt lat="29.868726544082165" lon="-6.004441296681762">
        <ele>538.48000000000002</ele>
        <time>2019-03-14T18:04:28Z</time>
      </trkpt>
      <trkpt lat="29.868739368394017" lon="-6.004707254469395">
        <ele>536.07000000000005</ele>
        <time>2019-03-14T18:04:32Z</time>
      </trkpt>
      <trkpt lat="29.868651861324906" lon="-6.005617780610919">
        <ele>533.66999999999996</ele>
        <time>2019-03-14T18:04:42Z</time>
      </trkpt>
      <trkpt lat="29.868593774735928" lon="-6.005842415615916">
        <ele>532.23000000000002</ele>
        <time>2019-03-14T18:04:44Z</time>
      </trkpt>
      <trkpt lat="29.86866183578968" lon="-6.006438285112381">
        <ele>531.75</ele>
        <time>2019-03-14T18:04:50Z</time>
      </trkpt>
      <trkpt lat="29.868859732523561" lon="-6.006909012794495">
        <ele>531.26999999999998</ele>
        <time>2019-03-14T18:05:00Z</time>
      </trkpt>
      <trkpt lat="29.868864510208368" lon="-6.006924351677299">
        <ele>531.26999999999998</ele>
        <time>2019-03-14T18:05:09Z</time>
      </trkpt>
      <trkpt lat="29.868957297876477" lon="-6.007057121023536">
        <ele>531.26999999999998</ele>
        <time>2019-03-14T18:05:24Z</time>
      </trkpt>
      <trkpt lat="29.869291987270117" lon="-6.00772432051599">
        <ele>531.26999999999998</ele>
        <time>2019-03-14T18:05:34Z</time>
      </trkpt>
      <trkpt lat="29.869654588401318" lon="-6.008440218865871">
        <ele>532.23000000000002</ele>
        <time>2019-03-14T18:05:45Z</time>
      </trkpt>
      <trkpt lat="29.869770258665085" lon="-6.008640043437481">
        <ele>528.86000000000001</ele>
        <time>2019-03-14T18:05:49Z</time>
      </trkpt>
      <trkpt lat="29.869786771014333" lon="-6.008690921589732">
        <ele>528.86000000000001</ele>
        <time>2019-03-14T18:05:50Z</time>
      </trkpt>
      <trkpt lat="29.869810407981277" lon="-6.008786391466856">
        <ele>528.86000000000001</ele>
        <time>2019-03-14T18:05:52Z</time>
      </trkpt>
      <trkpt lat="29.869871847331524" lon="-6.009197356179357">
        <ele>528.86000000000001</ele>
        <time>2019-03-14T18:06:02Z</time>
      </trkpt>
      <trkpt lat="29.869899759069085" lon="-6.009448394179344">
        <ele>528.86000000000001</ele>
        <time>2019-03-15T07:14:50Z</time>
      </trkpt>
      <trkpt lat="29.869895400479436" lon="-6.009537829086185">
        <ele>528.38</ele>
        <time>2019-03-15T07:14:51Z</time>
      </trkpt>
      <trkpt lat="29.869884923100471" lon="-6.009628605097532">
        <ele>528.86000000000001</ele>
        <time>2019-03-15T07:14:52Z</time>
      </trkpt>
      <trkpt lat="29.869844689965248" lon="-6.009887102991343">
        <ele>527.89999999999998</ele>
        <time>2019-03-15T07:14:55Z</time>
      </trkpt>
      <trkpt lat="29.869817616418004" lon="-6.009973520413041">
        <ele>528.38</ele>
        <time>2019-03-15T07:14:56Z</time>
      </trkpt>
      <trkpt lat="29.869779562577605" lon="-6.010057674720883">
        <ele>528.38</ele>
        <time>2019-03-15T07:14:57Z</time>
      </trkpt>
      <trkpt lat="29.869240019470453" lon="-6.011085547506809">
        <ele>527.41999999999996</ele>
        <time>2019-03-15T07:15:09Z</time>
      </trkpt>
      <trkpt lat="29.86889979802072" lon="-6.012080814689398">
        <ele>527.89999999999998</ele>
        <time>2019-03-15T07:15:21Z</time>
      </trkpt>
      <trkpt lat="29.868772393092513" lon="-6.012301510199904">
        <ele>526.94000000000005</ele>
        <time>2019-03-15T07:15:28Z</time>
      </trkpt>
      <trkpt lat="29.8686349298805" lon="-6.012711804360151">
        <ele>526.46000000000004</ele>
        <time>2019-03-15T07:15:38Z</time>
      </trkpt>
      <trkpt lat="29.868374923244119" lon="-6.013703970238566">
        <ele>526.46000000000004</ele>
        <time>2019-03-15T07:15:48Z</time>
      </trkpt>
      <trkpt lat="29.868160597980022" lon="-6.014966955408454">
        <ele>526.94000000000005</ele>
        <time>2019-03-15T07:16:00Z</time>
      </trkpt>
      <trkpt lat="29.868066553026438" lon="-6.016549291089177">
        <ele>526.94000000000005</ele>
        <time>2019-03-15T07:16:14Z</time>
      </trkpt>
      <trkpt lat="29.868196388706565" lon="-6.01764346472919">
        <ele>527.89999999999998</ele>
        <time>2019-03-15T07:16:25Z</time>
      </trkpt>
      <trkpt lat="29.868370313197374" lon="-6.018752977252007">
        <ele>528.86000000000001</ele>
        <time>2019-03-15T07:16:36Z</time>
      </trkpt>
      <trkpt lat="29.868654794991016" lon="-6.020087376236916">
        <ele>529.34000000000003</ele>
        <time>2019-03-15T07:16:48Z</time>
      </trkpt>
      <trkpt lat="29.868675246834755" lon="-6.020192820578814">
        <ele>529.34000000000003</ele>
        <time>2019-03-15T07:16:49Z</time>
      </trkpt>
      <trkpt lat="29.868890326470137" lon="-6.02137316018343">
        <ele>529.34000000000003</ele>
        <time>2019-03-15T07:17:00Z</time>
      </trkpt>
      <trkpt lat="29.869025526568294" lon="-6.022148737683892">
        <ele>530.78999999999996</ele>
        <time>2019-03-15T07:17:08Z</time>
      </trkpt>
      <trkpt lat="29.869107501581311" lon="-6.022489462047815">
        <ele>533.19000000000005</ele>
        <time>2019-03-15T07:17:12Z</time>
      </trkpt>
      <trkpt lat="29.869142789393663" lon="-6.022574370726943">
        <ele>536.07000000000005</ele>
        <time>2019-03-15T07:17:13Z</time>
      </trkpt>
      <trkpt lat="29.869186040014029" lon="-6.022660536691546">
        <ele>536.07000000000005</ele>
        <time>2019-03-15T07:17:14Z</time>
      </trkpt>
      <trkpt lat="29.869946027174592" lon="-6.023639459162951">
        <ele>535.59000000000003</ele>
        <time>2019-03-15T07:17:26Z</time>
      </trkpt>
      <trkpt lat="29.871076997369528" lon="-6.024760790169239">
        <ele>535.59000000000003</ele>
        <time>2019-03-15T07:17:39Z</time>
      </trkpt>
      <trkpt lat="29.871624419465661" lon="-6.02543075568974">
        <ele>536.07000000000005</ele>
        <time>2019-03-15T07:17:48Z</time>
      </trkpt>
      <trkpt lat="29.871688121929765" lon="-6.025485657155514">
        <ele>536.54999999999995</ele>
        <time>2019-03-15T07:17:49Z</time>
      </trkpt>
      <trkpt lat="29.871825417503715" lon="-6.025581797584891">
        <ele>536.54999999999995</ele>
        <time>2019-03-15T07:17:51Z</time>
      </trkpt>
      <trkpt lat="29.871899848803878" lon="-6.025620689615607">
        <ele>537.50999999999999</ele>
        <time>2019-03-15T07:17:52Z</time>
      </trkpt>
      <trkpt lat="29.871974447742105" lon="-6.025649188086391">
        <ele>537.02999999999997</ele>
        <time>2019-03-15T07:17:53Z</time>
      </trkpt>
      <trkpt lat="29.872050303965807" lon="-6.025672238320112">
        <ele>535.11000000000001</ele>
        <time>2019-03-15T07:17:54Z</time>
      </trkpt>
      <trkpt lat="29.87212716601789" lon="-6.02569461800158">
        <ele>535.11000000000001</ele>
        <time>2019-03-15T07:17:55Z</time>
      </trkpt>
      <trkpt lat="29.872415419667959" lon="-6.02580257691443">
        <ele>535.11000000000001</ele>
        <time>2019-03-15T07:17:59Z</time>
      </trkpt>
      <trkpt lat="29.873142130672932" lon="-6.026488216593862">
        <ele>535.11000000000001</ele>
        <time>2019-03-15T07:18:10Z</time>
      </trkpt>
      <trkpt lat="29.873529626056552" lon="-6.027504187077284">
        <ele>534.63</ele>
        <time>2019-03-15T07:18:21Z</time>
      </trkpt>
      <trkpt lat="29.873563069850206" lon="-6.027576941996813">
        <ele>534.14999999999998</ele>
        <time>2019-03-15T07:18:22Z</time>
      </trkpt>
      <trkpt lat="29.873600201681256" lon="-6.027645841240883">
        <ele>534.14999999999998</ele>
        <time>2019-03-15T07:18:23Z</time>
      </trkpt>
      <trkpt lat="29.873638674616814" lon="-6.027709543704987">
        <ele>534.14999999999998</ele>
        <time>2019-03-15T07:18:24Z</time>
      </trkpt>
      <trkpt lat="29.873813185840845" lon="-6.027972484007478">
        <ele>534.63</ele>
        <time>2019-03-15T07:18:29Z</time>
      </trkpt>
      <trkpt lat="29.873995073139668" lon="-6.028618812561035">
        <ele>534.63</ele>
        <time>2019-03-15T07:18:39Z</time>
      </trkpt>
      <trkpt lat="29.874046957120299" lon="-6.02885702624917">
        <ele>535.11000000000001</ele>
        <time>2019-03-15T07:18:42Z</time>
      </trkpt>
      <trkpt lat="29.874057937413454" lon="-6.02892885915935">
        <ele>535.59000000000003</ele>
        <time>2019-03-15T07:18:43Z</time>
      </trkpt>
      <trkpt lat="29.874186012893915" lon="-6.029634783044457">
        <ele>535.59000000000003</ele>
        <time>2019-03-15T07:18:53Z</time>
      </trkpt>
      <trkpt lat="29.874326912686229" lon="-6.030295947566629">
        <ele>535.59000000000003</ele>
        <time>2019-03-15T07:19:03Z</time>
      </trkpt>
      <trkpt lat="29.874452808871865" lon="-6.030908077955246">
        <ele>535.59000000000003</ele>
        <time>2019-03-15T07:19:10Z</time>
      </trkpt>
      <trkpt lat="29.874450545758009" lon="-6.030990472063422">
        <ele>535.11000000000001</ele>
        <time>2019-03-15T07:19:11Z</time>
      </trkpt>
      <trkpt lat="29.874436296522617" lon="-6.031075716018677">
        <ele>535.59000000000003</ele>
        <time>2019-03-15T07:19:12Z</time>
      </trkpt>
      <trkpt lat="29.874413078650832" lon="-6.031166911125183">
        <ele>537.50999999999999</ele>
        <time>2019-03-15T07:19:13Z</time>
      </trkpt>
      <trkpt lat="29.874392542988062" lon="-6.031263638287783">
        <ele>537.50999999999999</ele>
        <time>2019-03-15T07:19:14Z</time>
      </trkpt>
      <trkpt lat="29.874222222715616" lon="-6.032288493588567">
        <ele>537.99000000000001</ele>
        <time>2019-03-15T07:19:23Z</time>
      </trkpt>
      <trkpt lat="29.873983087018132" lon="-6.033714171499014">
        <ele>537.50999999999999</ele>
        <time>2019-03-15T07:19:35Z</time>
      </trkpt>
      <trkpt lat="29.873833218589425" lon="-6.035342523828149">
        <ele>536.54999999999995</ele>
        <time>2019-03-15T07:19:48Z</time>
      </trkpt>
      <trkpt lat="29.873771360144019" lon="-6.036353213712573">
        <ele>535.11000000000001</ele>
        <time>2019-03-15T07:19:57Z</time>
      </trkpt>
      <trkpt lat="29.873742191120982" lon="-6.037379326298833">
        <ele>535.11000000000001</ele>
        <time>2019-03-15T07:20:06Z</time>
      </trkpt>
      <trkpt lat="29.873989038169384" lon="-6.038537872955203">
        <ele>535.11000000000001</ele>
        <time>2019-03-15T07:20:17Z</time>
      </trkpt>
      <trkpt lat="29.874284081161022" lon="-6.039647301658988">
        <ele>536.07000000000005</ele>
        <time>2019-03-15T07:20:28Z</time>
      </trkpt>
      <trkpt lat="29.874464543536305" lon="-6.040234956890345">
        <ele>536.07000000000005</ele>
        <time>2019-03-15T07:20:36Z</time>
      </trkpt>
      <trkpt lat="29.874660680070519" lon="-6.040840884670615">
        <ele>535.59000000000003</ele>
        <time>2019-03-15T07:20:45Z</time>
      </trkpt>
      <trkpt lat="29.874836951494217" lon="-6.041431473568082">
        <ele>535.59000000000003</ele>
        <time>2019-03-15T07:20:53Z</time>
      </trkpt>
      <trkpt lat="29.875143058598042" lon="-6.042293384671211">
        <ele>535.59000000000003</ele>
        <time>2019-03-15T07:21:03Z</time>
      </trkpt>
      <trkpt lat="29.875402059406042" lon="-6.042955974116921">
        <ele>537.99000000000001</ele>
        <time>2019-03-15T07:21:12Z</time>
      </trkpt>
      <trkpt lat="29.875434748828411" lon="-6.043039541691542">
        <ele>539.44000000000005</ele>
        <time>2019-03-15T07:21:13Z</time>
      </trkpt>
      <trkpt lat="29.875460816547275" lon="-6.043123109266162">
        <ele>539.91999999999996</ele>
        <time>2019-03-15T07:21:14Z</time>
      </trkpt>
      <trkpt lat="29.875479089096189" lon="-6.043200055137277">
        <ele>539.44000000000005</ele>
        <time>2019-03-15T07:21:15Z</time>
      </trkpt>
      <trkpt lat="29.87570732831955" lon="-6.044224407523871">
        <ele>538.48000000000002</ele>
        <time>2019-03-15T07:21:27Z</time>
      </trkpt>
      <trkpt lat="29.875878570601344" lon="-6.044922284781933">
        <ele>540.88</ele>
        <time>2019-03-15T07:21:37Z</time>
      </trkpt>
      <trkpt lat="29.876099182292819" lon="-6.046006735414267">
        <ele>542.32000000000005</ele>
        <time>2019-03-15T07:21:50Z</time>
      </trkpt>
      <trkpt lat="29.876284003257751" lon="-6.0473139770329">
        <ele>543.75999999999999</ele>
        <time>2019-03-15T07:22:04Z</time>
      </trkpt>
      <trkpt lat="29.876454323530197" lon="-6.048120148479939">
        <ele>544.72000000000003</ele>
        <time>2019-03-15T07:22:14Z</time>
      </trkpt>
      <trkpt lat="29.876553062349558" lon="-6.049022292718291">
        <ele>540.39999999999998</ele>
        <time>2019-03-15T07:22:25Z</time>
      </trkpt>
      <trkpt lat="29.876528922468424" lon="-6.049908930435777">
        <ele>540.88</ele>
        <time>2019-03-15T07:22:35Z</time>
      </trkpt>
      <trkpt lat="29.876439739018679" lon="-6.051024058833718">
        <ele>540.88</ele>
        <time>2019-03-15T07:22:46Z</time>
      </trkpt>
      <trkpt lat="29.876240165904164" lon="-6.052344040945172">
        <ele>541.36000000000001</ele>
        <time>2019-03-15T07:23:00Z</time>
      </trkpt>
      <trkpt lat="29.876085352152586" lon="-6.053160103037953">
        <ele>541.36000000000001</ele>
        <time>2019-03-15T07:23:12Z</time>
      </trkpt>
      <trkpt lat="29.87603522837162" lon="-6.053983122110367">
        <ele>541.84000000000003</ele>
        <time>2019-03-15T07:23:21Z</time>
      </trkpt>
      <trkpt lat="29.87604646012187" lon="-6.054170457646251">
        <ele>541.84000000000003</ele>
        <time>2019-03-15T07:23:23Z</time>
      </trkpt>
      <trkpt lat="29.876065738499165" lon="-6.054251594468951">
        <ele>542.32000000000005</ele>
        <time>2019-03-15T07:23:24Z</time>
      </trkpt>
      <trkpt lat="29.876084933057427" lon="-6.054330551996827">
        <ele>542.79999999999995</ele>
        <time>2019-03-15T07:23:25Z</time>
      </trkpt>
      <trkpt lat="29.876098847016692" lon="-6.05441621504724">
        <ele>545.69000000000005</ele>
        <time>2019-03-15T07:23:26Z</time>
      </trkpt>
      <trkpt lat="29.876105217263103" lon="-6.054510343819857">
        <ele>544.24000000000001</ele>
        <time>2019-03-15T07:23:27Z</time>
      </trkpt>
      <trkpt lat="29.876105887815356" lon="-6.054609837010503">
        <ele>543.75999999999999</ele>
        <time>2019-03-15T07:23:28Z</time>
      </trkpt>
      <trkpt lat="29.876102535054088" lon="-6.054713018238545">
        <ele>543.27999999999997</ele>
        <time>2019-03-15T07:23:29Z</time>
      </trkpt>
      <trkpt lat="29.875936908647418" lon="-6.056037442758679">
        <ele>543.27999999999997</ele>
        <time>2019-03-15T07:23:41Z</time>
      </trkpt>
      <trkpt lat="29.875535750761628" lon="-6.056989962235093">
        <ele>542.32000000000005</ele>
        <time>2019-03-15T07:23:52Z</time>
      </trkpt>
      <trkpt lat="29.875405495986342" lon="-6.057250387966633">
        <ele>541.84000000000003</ele>
        <time>2019-03-15T07:23:56Z</time>
      </trkpt>
      <trkpt lat="29.87538680434227" lon="-6.057316856458783">
        <ele>541.36000000000001</ele>
        <time>2019-03-15T07:23:57Z</time>
      </trkpt>
      <trkpt lat="29.875376829877496" lon="-6.057372093200684">
        <ele>538.96000000000004</ele>
        <time>2019-03-15T07:23:58Z</time>
      </trkpt>
      <trkpt lat="29.875368447974324" lon="-6.05741978622973">
        <ele>538.48000000000002</ele>
        <time>2019-03-15T07:23:59Z</time>
      </trkpt>
      <trkpt lat="29.875361071899533" lon="-6.057470915839076">
        <ele>539.91999999999996</ele>
        <time>2019-03-15T07:24:00Z</time>
      </trkpt>
      <trkpt lat="29.875356378033757" lon="-6.057531936094165">
        <ele>540.39999999999998</ele>
        <time>2019-03-15T07:24:01Z</time>
      </trkpt>
      <trkpt lat="29.875370124354959" lon="-6.057880539447069">
        <ele>540.39999999999998</ele>
        <time>2019-03-15T07:24:06Z</time>
      </trkpt>
      <trkpt lat="29.87538043409586" lon="-6.057949690148234">
        <ele>541.36000000000001</ele>
        <time>2019-03-15T07:24:07Z</time>
      </trkpt>
      <trkpt lat="29.875529631972313" lon="-6.058472972363234">
        <ele>541.36000000000001</ele>
        <time>2019-03-15T07:24:14Z</time>
      </trkpt>
      <trkpt lat="29.875574810430408" lon="-6.058547236025333">
        <ele>541.84000000000003</ele>
        <time>2019-03-15T07:24:15Z</time>
      </trkpt>
      <trkpt lat="29.875626442953944" lon="-6.058617727831006">
        <ele>545.20000000000005</ele>
        <time>2019-03-15T07:24:16Z</time>
      </trkpt>
      <trkpt lat="29.87583783455193" lon="-6.058898102492094">
        <ele>545.69000000000005</ele>
        <time>2019-03-15T07:24:20Z</time>
      </trkpt>
      <trkpt lat="29.875875636935234" lon="-6.058977479115129">
        <ele>544.72000000000003</ele>
        <time>2019-03-15T07:24:21Z</time>
      </trkpt>
      <trkpt lat="29.87590522505343" lon="-6.059061717242003">
        <ele>545.20000000000005</ele>
        <time>2019-03-15T07:24:22Z</time>
      </trkpt>
      <trkpt lat="29.876178558915854" lon="-6.06004424393177">
        <ele>545.20000000000005</ele>
        <time>2019-03-15T07:24:33Z</time>
      </trkpt>
      <trkpt lat="29.87638508901" lon="-6.061025429517031">
        <ele>545.20000000000005</ele>
        <time>2019-03-15T07:24:43Z</time>
      </trkpt>
      <trkpt lat="29.876587344333529" lon="-6.06209646910429">
        <ele>545.20000000000005</ele>
        <time>2019-03-15T07:24:54Z</time>
      </trkpt>
      <trkpt lat="29.876703936606646" lon="-6.06307078152895">
        <ele>545.20000000000005</ele>
        <time>2019-03-15T07:25:04Z</time>
      </trkpt>
      <trkpt lat="29.876708211377263" lon="-6.063160132616758">
        <ele>545.20000000000005</ele>
        <time>2019-03-15T07:25:05Z</time>
      </trkpt>
      <trkpt lat="29.87672220915556" lon="-6.063252668827772">
        <ele>545.69000000000005</ele>
        <time>2019-03-15T07:25:06Z</time>
      </trkpt>
      <trkpt lat="29.876743583008647" lon="-6.063348641619086">
        <ele>545.20000000000005</ele>
        <time>2019-03-15T07:25:07Z</time>
      </trkpt>
      <trkpt lat="29.876776440069079" lon="-6.063439417630434">
        <ele>547.61000000000001</ele>
        <time>2019-03-15T07:25:08Z</time>
      </trkpt>
      <trkpt lat="29.876813488081098" lon="-6.063523655757308">
        <ele>548.09000000000003</ele>
        <time>2019-03-15T07:25:09Z</time>
      </trkpt>
      <trkpt lat="29.876844165846705" lon="-6.063614180311561">
        <ele>546.16999999999996</ele>
        <time>2019-03-15T07:25:10Z</time>
      </trkpt>
      <trkpt lat="29.876866461709142" lon="-6.063711075112224">
        <ele>547.61000000000001</ele>
        <time>2019-03-15T07:25:11Z</time>
      </trkpt>
      <trkpt lat="29.876966876909137" lon="-6.065076403319836">
        <ele>547.13</ele>
        <time>2019-03-15T07:25:24Z</time>
      </trkpt>
      <trkpt lat="29.877110626548529" lon="-6.066250205039978">
        <ele>547.61000000000001</ele>
        <time>2019-03-15T07:25:35Z</time>
      </trkpt>
      <trkpt lat="29.877345487475395" lon="-6.067310431972146">
        <ele>547.61000000000001</ele>
        <time>2019-03-15T07:25:46Z</time>
      </trkpt>
      <trkpt lat="29.877415644004941" lon="-6.068449700251222">
        <ele>548.09000000000003</ele>
        <time>2019-03-15T07:25:58Z</time>
      </trkpt>
      <trkpt lat="29.877578755840659" lon="-6.069199293851852">
        <ele>548.09000000000003</ele>
        <time>2019-03-15T07:26:08Z</time>
      </trkpt>
      <trkpt lat="29.877843121066689" lon="-6.070006303489208">
        <ele>549.04999999999995</ele>
        <time>2019-03-15T07:26:18Z</time>
      </trkpt>
      <trkpt lat="29.878100948408246" lon="-6.071484368294478">
        <ele>549.04999999999995</ele>
        <time>2019-03-15T07:26:34Z</time>
      </trkpt>
      <trkpt lat="29.878328517079353" lon="-6.072902670130134">
        <ele>549.04999999999995</ele>
        <time>2019-03-15T07:26:50Z</time>
      </trkpt>
      <trkpt lat="29.878521049395204" lon="-6.074159704148769">
        <ele>548.57000000000005</ele>
        <time>2019-03-15T07:27:05Z</time>
      </trkpt>
      <trkpt lat="29.878668067976832" lon="-6.075124880298972">
        <ele>548.57000000000005</ele>
        <time>2019-03-15T07:27:19Z</time>
      </trkpt>
      <trkpt lat="29.878809722140431" lon="-6.076313182711601">
        <ele>549.04999999999995</ele>
        <time>2019-03-15T07:27:32Z</time>
      </trkpt>
      <trkpt lat="29.879060843959451" lon="-6.077591339126229">
        <ele>550.00999999999999</ele>
        <time>2019-03-15T07:27:46Z</time>
      </trkpt>
      <trkpt lat="29.879236193373799" lon="-6.078750304877758">
        <ele>550.49000000000001</ele>
        <time>2019-03-15T07:28:00Z</time>
      </trkpt>
      <trkpt lat="29.879327220842242" lon="-6.079868031665683">
        <ele>550.49000000000001</ele>
        <time>2019-03-15T07:28:13Z</time>
      </trkpt>
      <trkpt lat="29.879452949389815" lon="-6.08090135268867">
        <ele>550.00999999999999</ele>
        <time>2019-03-15T07:28:25Z</time>
      </trkpt>
      <trkpt lat="29.879506593570113" lon="-6.082034418359399">
        <ele>550.00999999999999</ele>
        <time>2019-03-15T07:28:39Z</time>
      </trkpt>
      <trkpt lat="29.87953039817512" lon="-6.082788957282901">
        <ele>550.00999999999999</ele>
        <time>2019-03-15T07:28:49Z</time>
      </trkpt>
      <trkpt lat="29.879514807835221" lon="-6.082853749394417">
        <ele>549.52999999999997</ele>
        <time>2019-03-15T07:28:50Z</time>
      </trkpt>
      <trkpt lat="29.879489913582802" lon="-6.082917284220457">
        <ele>550.49000000000001</ele>
        <time>2019-03-15T07:28:51Z</time>
      </trkpt>
      <trkpt lat="29.879457224160433" lon="-6.082980232313275">
        <ele>550.97000000000003</ele>
        <time>2019-03-15T07:28:52Z</time>
      </trkpt>
      <trkpt lat="29.879424199461937" lon="-6.083038235083222">
        <ele>550.97000000000003</ele>
        <time>2019-03-15T07:28:53Z</time>
      </trkpt>
      <trkpt lat="29.879348762333393" lon="-6.083182068541646">
        <ele>550.97000000000003</ele>
        <time>2019-03-15T07:28:56Z</time>
      </trkpt>
      <trkpt lat="29.879295118153095" lon="-6.083416761830449">
        <ele>550.97000000000003</ele>
        <time>2019-03-15T07:29:00Z</time>
      </trkpt>
      <trkpt lat="29.879290843382478" lon="-6.083493456244469">
        <ele>550.97000000000003</ele>
        <time>2019-03-15T07:29:01Z</time>
      </trkpt>
      <trkpt lat="29.879294950515032" lon="-6.083578197285533">
        <ele>550.97000000000003</ele>
        <time>2019-03-15T07:29:02Z</time>
      </trkpt>
      <trkpt lat="29.879307858645916" lon="-6.083666123449802">
        <ele>550.00999999999999</ele>
        <time>2019-03-15T07:29:03Z</time>
      </trkpt>
      <trkpt lat="29.879328142851591" lon="-6.083753714337945">
        <ele>550.00999999999999</ele>
        <time>2019-03-15T07:29:04Z</time>
      </trkpt>
      <trkpt lat="29.879354294389486" lon="-6.083840886130929">
        <ele>550.49000000000001</ele>
        <time>2019-03-15T07:29:05Z</time>
      </trkpt>
      <trkpt lat="29.879382373765111" lon="-6.083924369886518">
        <ele>550.49000000000001</ele>
        <time>2019-03-15T07:29:06Z</time>
      </trkpt>
      <trkpt lat="29.87944976426661" lon="-6.084158895537257">
        <ele>550.49000000000001</ele>
        <time>2019-03-15T07:29:09Z</time>
      </trkpt>
      <trkpt lat="29.879462504759431" lon="-6.084245899692178">
        <ele>549.52999999999997</ele>
        <time>2019-03-15T07:29:10Z</time>
      </trkpt>
      <trkpt lat="29.879569876939058" lon="-6.08538206666708">
        <ele>549.52999999999997</ele>
        <time>2019-03-15T07:29:23Z</time>
      </trkpt>
      <trkpt lat="29.879659228026867" lon="-6.085718851536512">
        <ele>549.52999999999997</ele>
        <time>2019-03-15T07:29:27Z</time>
      </trkpt>
      <trkpt lat="29.879672052338719" lon="-6.08580325730145">
        <ele>549.04999999999995</ele>
        <time>2019-03-15T07:29:28Z</time>
      </trkpt>
      <trkpt lat="29.879882438108325" lon="-6.087212841957808">
        <ele>549.52999999999997</ele>
        <time>2019-03-15T07:29:43Z</time>
      </trkpt>
      <trkpt lat="29.880008418112993" lon="-6.088522095233202">
        <ele>549.52999999999997</ele>
        <time>2019-03-15T07:29:57Z</time>
      </trkpt>
      <trkpt lat="29.88007664680481" lon="-6.089688604697585">
        <ele>549.04999999999995</ele>
        <time>2019-03-15T07:30:10Z</time>
      </trkpt>
      <trkpt lat="29.88024964928627" lon="-6.090781185775995">
        <ele>547.61000000000001</ele>
        <time>2019-03-15T07:30:23Z</time>
      </trkpt>
      <trkpt lat="29.88023011945188" lon="-6.091409074142575">
        <ele>549.04999999999995</ele>
        <time>2019-03-15T07:30:30Z</time>
      </trkpt>
      <trkpt lat="29.880242692306638" lon="-6.091497419402003">
        <ele>549.04999999999995</ele>
        <time>2019-03-15T07:30:31Z</time>
      </trkpt>
      <trkpt lat="29.880262054502964" lon="-6.091585764661431">
        <ele>548.57000000000005</ele>
        <time>2019-03-15T07:30:32Z</time>
      </trkpt>
      <trkpt lat="29.88052524626255" lon="-6.092793764546514">
        <ele>548.57000000000005</ele>
        <time>2019-03-15T07:30:46Z</time>
      </trkpt>
      <trkpt lat="29.880567574873567" lon="-6.094001680612564">
        <ele>548.09000000000003</ele>
        <time>2019-03-15T07:31:00Z</time>
      </trkpt>
      <trkpt lat="29.880571262910962" lon="-6.095289727672935">
        <ele>547.61000000000001</ele>
        <time>2019-03-15T07:31:15Z</time>
      </trkpt>
      <trkpt lat="29.880643347278237" lon="-6.095651658251882">
        <ele>547.13</ele>
        <time>2019-03-15T07:31:19Z</time>
      </trkpt>
      <trkpt lat="29.88093227148056" lon="-6.096855467185378">
        <ele>546.16999999999996</ele>
        <time>2019-03-15T07:31:32Z</time>
      </trkpt>
      <trkpt lat="29.881165204569697" lon="-6.098365131765604">
        <ele>546.16999999999996</ele>
        <time>2019-03-15T07:31:48Z</time>
      </trkpt>
      <trkpt lat="29.881323203444481" lon="-6.099810758605599">
        <ele>545.69000000000005</ele>
        <time>2019-03-15T07:32:03Z</time>
      </trkpt>
      <trkpt lat="29.881428061053157" lon="-6.100914319977164">
        <ele>544.72000000000003</ele>
        <time>2019-03-15T07:32:15Z</time>
      </trkpt>
      <trkpt lat="29.881551861763" lon="-6.102370508015156">
        <ele>544.24000000000001</ele>
        <time>2019-03-15T07:32:29Z</time>
      </trkpt>
      <trkpt lat="29.881643308326602" lon="-6.103545483201742">
        <ele>543.75999999999999</ele>
        <time>2019-03-15T07:32:42Z</time>
      </trkpt>
      <trkpt lat="29.881565775722265" lon="-6.105008712038398">
        <ele>542.79999999999995</ele>
        <time>2019-03-15T07:32:59Z</time>
      </trkpt>
      <trkpt lat="29.881594525650144" lon="-6.106496416032314">
        <ele>542.32000000000005</ele>
        <time>2019-03-15T07:33:15Z</time>
      </trkpt>
      <trkpt lat="29.881739784032106" lon="-6.107092034071684">
        <ele>541.84000000000003</ele>
        <time>2019-03-15T07:33:22Z</time>
      </trkpt>
      <trkpt lat="29.881748082116246" lon="-6.107174009084702">
        <ele>542.32000000000005</ele>
        <time>2019-03-15T07:33:23Z</time>
      </trkpt>
      <trkpt lat="29.881771216169" lon="-6.108524333685637">
        <ele>542.32000000000005</ele>
        <time>2019-03-15T07:33:38Z</time>
      </trkpt>
      <trkpt lat="29.881673315539956" lon="-6.109378030523658">
        <ele>541.84000000000003</ele>
        <time>2019-03-15T07:33:49Z</time>
      </trkpt>
      <trkpt lat="29.881422277539968" lon="-6.109863677993417">
        <ele>542.32000000000005</ele>
        <time>2019-03-15T07:33:59Z</time>
      </trkpt>
      <trkpt lat="29.881225554272532" lon="-6.110192835330963">
        <ele>542.32000000000005</ele>
        <time>2019-03-15T07:34:04Z</time>
      </trkpt>
      <trkpt lat="29.881190937012434" lon="-6.110274977982044">
        <ele>536.07000000000005</ele>
        <time>2019-03-15T07:34:05Z</time>
      </trkpt>
      <trkpt lat="29.88111893646419" lon="-6.110602710396051">
        <ele>531.75</ele>
        <time>2019-03-15T07:34:09Z</time>
      </trkpt>
      <trkpt lat="29.881122373044491" lon="-6.110751153901219">
        <ele>530.78999999999996</ele>
        <time>2019-03-15T07:34:11Z</time>
      </trkpt>
      <trkpt lat="29.881133269518614" lon="-6.110822316259146">
        <ele>530.29999999999995</ele>
        <time>2019-03-15T07:34:12Z</time>
      </trkpt>
      <trkpt lat="29.881361927837133" lon="-6.11165564507246">
        <ele>530.29999999999995</ele>
        <time>2019-03-15T07:34:24Z</time>
      </trkpt>
      <trkpt lat="29.881465444341302" lon="-6.112159313634038">
        <ele>529.82000000000005</ele>
        <time>2019-03-15T07:34:31Z</time>
      </trkpt>
      <trkpt lat="29.881497882306576" lon="-6.112575139850378">
        <ele>529.82000000000005</ele>
        <time>2019-03-15T07:34:37Z</time>
      </trkpt>
      <trkpt lat="29.881507689133286" lon="-6.112705897539854">
        <ele>529.34000000000003</ele>
        <time>2019-03-15T07:34:39Z</time>
      </trkpt>
      <trkpt lat="29.881517831236124" lon="-6.112769097089768">
        <ele>526.46000000000004</ele>
        <time>2019-03-15T07:34:40Z</time>
      </trkpt>
      <trkpt lat="29.88159972243011" lon="-6.113463873043656">
        <ele>527.41999999999996</ele>
        <time>2019-03-15T07:34:50Z</time>
      </trkpt>
      <trkpt lat="29.881603410467505" lon="-6.114225788041949">
        <ele>527.41999999999996</ele>
        <time>2019-03-15T07:34:59Z</time>
      </trkpt>
      <trkpt lat="29.881633501499891" lon="-6.114313714206219">
        <ele>527.89999999999998</ele>
        <time>2019-03-15T07:35:00Z</time>
      </trkpt>
      <trkpt lat="29.881871631368995" lon="-6.115135308355093">
        <ele>527.89999999999998</ele>
        <time>2019-03-15T07:35:11Z</time>
      </trkpt>
      <trkpt lat="29.882012028247118" lon="-6.115561611950398">
        <ele>528.38</ele>
        <time>2019-03-15T07:35:18Z</time>
      </trkpt>
      <trkpt lat="29.882026026025414" lon="-6.11561743542552">
        <ele>529.82000000000005</ele>
        <time>2019-03-15T07:35:19Z</time>
      </trkpt>
      <trkpt lat="29.88203851506114" lon="-6.115678707137704">
        <ele>530.29999999999995</ele>
        <time>2019-03-15T07:35:20Z</time>
      </trkpt>
      <trkpt lat="29.882048992440104" lon="-6.115744337439537">
        <ele>531.26999999999998</ele>
        <time>2019-03-15T07:35:21Z</time>
      </trkpt>
      <trkpt lat="29.882058883085847" lon="-6.115810135379434">
        <ele>534.14999999999998</ele>
        <time>2019-03-15T07:35:22Z</time>
      </trkpt>
      <trkpt lat="29.882083022966981" lon="-6.115934103727341">
        <ele>535.11000000000001</ele>
        <time>2019-03-15T07:35:24Z</time>
      </trkpt>
      <trkpt lat="29.88209911622107" lon="-6.115984730422497">
        <ele>534.14999999999998</ele>
        <time>2019-03-15T07:35:25Z</time>
      </trkpt>
      <trkpt lat="29.882114538922906" lon="-6.116025885567069">
        <ele>534.14999999999998</ele>
        <time>2019-03-15T07:35:26Z</time>
      </trkpt>
      <trkpt lat="29.882324086502194" lon="-6.116512957960367">
        <ele>533.66999999999996</ele>
        <time>2019-03-15T07:35:36Z</time>
      </trkpt>
      <trkpt lat="29.882448390126228" lon="-6.116756871342659">
        <ele>533.19000000000005</ele>
        <time>2019-03-15T07:35:41Z</time>
      </trkpt>
      <trkpt lat="29.882526760920882" lon="-6.116922413930297">
        <ele>533.19000000000005</ele>
        <time>2019-03-15T07:35:44Z</time>
      </trkpt>
      <trkpt lat="29.882567496970296" lon="-6.116973459720612">
        <ele>533.19000000000005</ele>
        <time>2019-03-15T07:35:45Z</time>
      </trkpt>
      <trkpt lat="29.88273580558598" lon="-6.117148641496897">
        <ele>533.19000000000005</ele>
        <time>2019-03-15T07:35:49Z</time>
      </trkpt>
      <trkpt lat="29.882803363725543" lon="-6.117237824946642">
        <ele>533.19000000000005</ele>
        <time>2019-03-15T07:35:51Z</time>
      </trkpt>
      <trkpt lat="29.882825240492821" lon="-6.117292977869511">
        <ele>533.19000000000005</ele>
        <time>2019-03-15T07:35:52Z</time>
      </trkpt>
      <trkpt lat="29.88284032791853" lon="-6.117353746667504">
        <ele>533.19000000000005</ele>
        <time>2019-03-15T07:35:53Z</time>
      </trkpt>
      <trkpt lat="29.882847033441067" lon="-6.11741996370256">
        <ele>532.71000000000004</ele>
        <time>2019-03-15T07:35:54Z</time>
      </trkpt>
      <trkpt lat="29.882850721478462" lon="-6.117493724450469">
        <ele>531.75</ele>
        <time>2019-03-15T07:35:55Z</time>
      </trkpt>
      <trkpt lat="29.882851727306843" lon="-6.117569915950298">
        <ele>528.86000000000001</ele>
        <time>2019-03-15T07:35:56Z</time>
      </trkpt>
      <trkpt lat="29.882859354838729" lon="-6.117700003087521">
        <ele>528.38</ele>
        <time>2019-03-15T07:35:58Z</time>
      </trkpt>
      <trkpt lat="29.882870838046074" lon="-6.117757922038436">
        <ele>528.38</ele>
        <time>2019-03-15T07:35:59Z</time>
      </trkpt>
      <trkpt lat="29.882883075624704" lon="-6.11783092841506">
        <ele>529.82000000000005</ele>
        <time>2019-03-15T07:36:05Z</time>
      </trkpt>
      <trkpt lat="29.882872430607677" lon="-6.117817182093859">
        <ele>530.78999999999996</ele>
        <time>2019-03-15T07:36:46Z</time>
      </trkpt>
      <trkpt lat="29.882951723411679" lon="-6.118056904524565">
        <ele>530.29999999999995</ele>
        <time>2019-03-15T07:37:03Z</time>
      </trkpt>
      <trkpt lat="29.883131179958582" lon="-6.118610696867108">
        <ele>530.29999999999995</ele>
        <time>2019-03-15T07:37:15Z</time>
      </trkpt>
      <trkpt lat="29.88316529430449" lon="-6.118777748197317">
        <ele>530.78999999999996</ele>
        <time>2019-03-15T07:37:28Z</time>
      </trkpt>
      <trkpt lat="29.883195050060749" lon="-6.119088800624013">
        <ele>530.78999999999996</ele>
        <time>2019-03-15T07:37:38Z</time>
      </trkpt>
      <trkpt lat="29.883314659819007" lon="-6.119483169168234">
        <ele>531.26999999999998</ele>
        <time>2019-03-15T07:37:46Z</time>
      </trkpt>
      <trkpt lat="29.883341984823346" lon="-6.119536645710468">
        <ele>531.26999999999998</ele>
        <time>2019-03-15T07:37:47Z</time>
      </trkpt>
      <trkpt lat="29.883380206301808" lon="-6.119578806683421">
        <ele>532.23000000000002</ele>
        <time>2019-03-15T07:37:48Z</time>
      </trkpt>
      <trkpt lat="29.883427228778601" lon="-6.119607472792268">
        <ele>532.23000000000002</ele>
        <time>2019-03-15T07:37:49Z</time>
      </trkpt>
      <trkpt lat="29.883475508540869" lon="-6.119624068960547">
        <ele>532.71000000000004</ele>
        <time>2019-03-15T07:37:50Z</time>
      </trkpt>
      <trkpt lat="29.883526638150215" lon="-6.119635552167893">
        <ele>532.71000000000004</ele>
        <time>2019-03-15T07:37:51Z</time>
      </trkpt>
      <trkpt lat="29.883633004501462" lon="-6.119672264903784">
        <ele>533.19000000000005</ele>
        <time>2019-03-15T07:37:53Z</time>
      </trkpt>
      <trkpt lat="29.883684888482094" lon="-6.119702272117138">
        <ele>533.19000000000005</ele>
        <time>2019-03-15T07:37:54Z</time>
      </trkpt>
      <trkpt lat="29.883733000606298" lon="-6.119738565757871">
        <ele>533.66999999999996</ele>
        <time>2019-03-15T07:37:55Z</time>
      </trkpt>
      <trkpt lat="29.883779101073742" lon="-6.11978106200695">
        <ele>533.66999999999996</ele>
        <time>2019-03-15T07:37:56Z</time>
      </trkpt>
      <trkpt lat="29.883820759132504" lon="-6.119829509407282">
        <ele>533.66999999999996</ele>
        <time>2019-03-15T07:37:57Z</time>
      </trkpt>
      <trkpt lat="29.883858561515808" lon="-6.119880974292755">
        <ele>534.14999999999998</ele>
        <time>2019-03-15T07:37:58Z</time>
      </trkpt>
      <trkpt lat="29.884179504588246" lon="-6.12038305029273">
        <ele>534.14999999999998</ele>
        <time>2019-03-15T07:38:07Z</time>
      </trkpt>
      <trkpt lat="29.884204734116793" lon="-6.120448848232627">
        <ele>534.14999999999998</ele>
        <time>2019-03-15T07:38:08Z</time>
      </trkpt>
      <trkpt lat="29.884224096313119" lon="-6.120515987277031">
        <ele>533.66999999999996</ele>
        <time>2019-03-15T07:38:09Z</time>
      </trkpt>
      <trkpt lat="29.88423784263432" lon="-6.120586227625608">
        <ele>534.63</ele>
        <time>2019-03-15T07:38:10Z</time>
      </trkpt>
      <trkpt lat="29.88424857147038" lon="-6.120653785765171">
        <ele>535.59000000000003</ele>
        <time>2019-03-15T07:38:11Z</time>
      </trkpt>
      <trkpt lat="29.884255025535822" lon="-6.120713548734784">
        <ele>535.59000000000003</ele>
        <time>2019-03-15T07:38:12Z</time>
      </trkpt>
      <trkpt lat="29.884135751053691" lon="-6.120938351377845">
        <ele>533.19000000000005</ele>
        <time>2019-03-15T07:38:17Z</time>
      </trkpt>
      <trkpt lat="29.883823189884424" lon="-6.121179582551122">
        <ele>531.75</ele>
        <time>2019-03-15T07:38:23Z</time>
      </trkpt>
      <trkpt lat="29.883679188787937" lon="-6.121231215074658">
        <ele>530.78999999999996</ele>
        <time>2019-03-15T07:38:26Z</time>
      </trkpt>
      <trkpt lat="29.883476765826344" lon="-6.121371863409877">
        <ele>531.26999999999998</ele>
        <time>2019-03-15T07:38:31Z</time>
      </trkpt>
      <trkpt lat="29.882915345951915" lon="-6.12171065993607">
        <ele>528.86000000000001</ele>
        <time>2019-03-15T07:38:41Z</time>
      </trkpt>
      <trkpt lat="29.88252374343574" lon="-6.121939150616527">
        <ele>529.34000000000003</ele>
        <time>2019-03-15T07:38:49Z</time>
      </trkpt>
      <trkpt lat="29.881928544491529" lon="-6.12224911339581">
        <ele>529.82000000000005</ele>
        <time>2019-03-15T07:38:58Z</time>
      </trkpt>
      <trkpt lat="29.881313145160675" lon="-6.122620096430183">
        <ele>531.26999999999998</ele>
        <time>2019-03-15T07:39:09Z</time>
      </trkpt>
      <trkpt lat="29.880837891250849" lon="-6.12289946526289">
        <ele>531.75</ele>
        <time>2019-03-15T07:39:18Z</time>
      </trkpt>
      <trkpt lat="29.880330702289939" lon="-6.123190401121974">
        <ele>528.86000000000001</ele>
        <time>2019-03-15T07:39:28Z</time>
      </trkpt>
      <trkpt lat="29.879658808931708" lon="-6.123581919819117">
        <ele>527.41999999999996</ele>
        <time>2019-03-15T07:39:40Z</time>
      </trkpt>
      <trkpt lat="29.879371142014861" lon="-6.123741930350661">
        <ele>527.89999999999998</ele>
        <time>2019-03-15T07:39:46Z</time>
      </trkpt>
      <trkpt lat="29.879103926941752" lon="-6.123798508197069">
        <ele>528.38</ele>
        <time>2019-03-15T07:39:52Z</time>
      </trkpt>
      <trkpt lat="29.878475535660982" lon="-6.124121714383364">
        <ele>527.89999999999998</ele>
        <time>2019-03-15T07:40:02Z</time>
      </trkpt>
      <trkpt lat="29.877991983667016" lon="-6.124532679095864">
        <ele>526.94000000000005</ele>
        <time>2019-03-15T07:40:11Z</time>
      </trkpt>
      <trkpt lat="29.877730133011937" lon="-6.124852700158954">
        <ele>527.41999999999996</ele>
        <time>2019-03-15T07:40:17Z</time>
      </trkpt>
      <trkpt lat="29.877585545182228" lon="-6.125168949365616">
        <ele>527.41999999999996</ele>
        <time>2019-03-15T07:40:21Z</time>
      </trkpt>
      <trkpt lat="29.877503989264369" lon="-6.125353435054421">
        <ele>527.41999999999996</ele>
        <time>2019-03-15T07:40:24Z</time>
      </trkpt>
      <trkpt lat="29.877331154420972" lon="-6.125881494954228">
        <ele>527.89999999999998</ele>
        <time>2019-03-15T07:40:31Z</time>
      </trkpt>
      <trkpt lat="29.877194697037339" lon="-6.126080481335521">
        <ele>531.75</ele>
        <time>2019-03-15T07:40:34Z</time>
      </trkpt>
      <trkpt lat="29.877066956833005" lon="-6.126336045563221">
        <ele>532.71000000000004</ele>
        <time>2019-03-15T07:40:38Z</time>
      </trkpt>
      <trkpt lat="29.8767857439816" lon="-6.126982877030969">
        <ele>532.71000000000004</ele>
        <time>2019-03-15T07:40:48Z</time>
      </trkpt>
      <trkpt lat="29.876461867243052" lon="-6.127403397113085">
        <ele>533.19000000000005</ele>
        <time>2019-03-15T07:40:56Z</time>
      </trkpt>
      <trkpt lat="29.875981332734227" lon="-6.128304032608867">
        <ele>534.63</ele>
        <time>2019-03-15T07:41:08Z</time>
      </trkpt>
      <trkpt lat="29.875863566994667" lon="-6.128562027588487">
        <ele>534.14999999999998</ele>
        <time>2019-03-15T07:41:11Z</time>
      </trkpt>
      <trkpt lat="29.875570451840758" lon="-6.129699954763055">
        <ele>537.99000000000001</ele>
        <time>2019-03-15T07:41:21Z</time>
      </trkpt>
      <trkpt lat="29.875251185148954" lon="-6.130521884188056">
        <ele>537.02999999999997</ele>
        <time>2019-03-15T07:41:30Z</time>
      </trkpt>
      <trkpt lat="29.875135347247124" lon="-6.131017589941621">
        <ele>536.54999999999995</ele>
        <time>2019-03-15T07:41:35Z</time>
      </trkpt>
      <trkpt lat="29.875047253444791" lon="-6.131334342062473">
        <ele>536.54999999999995</ele>
        <time>2019-03-15T07:41:38Z</time>
      </trkpt>
      <trkpt lat="29.874566970393062" lon="-6.132421139627695">
        <ele>534.63</ele>
        <time>2019-03-15T07:41:49Z</time>
      </trkpt>
      <trkpt lat="29.873997336253524" lon="-6.133825946599245">
        <ele>534.14999999999998</ele>
        <time>2019-03-15T07:42:01Z</time>
      </trkpt>
      <trkpt lat="29.873676057904959" lon="-6.135177277028561">
        <ele>533.66999999999996</ele>
        <time>2019-03-15T07:42:11Z</time>
      </trkpt>
      <trkpt lat="29.873642278835177" lon="-6.135460082441568">
        <ele>533.19000000000005</ele>
        <time>2019-03-15T07:42:13Z</time>
      </trkpt>
      <trkpt lat="29.873697264119983" lon="-6.136220069602132">
        <ele>532.71000000000004</ele>
        <time>2019-03-15T07:42:19Z</time>
      </trkpt>
      <trkpt lat="29.873657617717981" lon="-6.136523075401783">
        <ele>534.14999999999998</ele>
        <time>2019-03-15T07:42:22Z</time>
      </trkpt>
      <trkpt lat="29.873652504757047" lon="-6.136844772845507">
        <ele>534.63</ele>
        <time>2019-03-15T07:42:25Z</time>
      </trkpt>
      <trkpt lat="29.873498948290944" lon="-6.137775080278516">
        <ele>534.14999999999998</ele>
        <time>2019-03-15T07:42:34Z</time>
      </trkpt>
      <trkpt lat="29.873513700440526" lon="-6.138148913159967">
        <ele>535.11000000000001</ele>
        <time>2019-03-15T07:42:38Z</time>
      </trkpt>
      <trkpt lat="29.873340362682939" lon="-6.138817789033055">
        <ele>534.63</ele>
        <time>2019-03-15T07:42:46Z</time>
      </trkpt>
      <trkpt lat="29.873041044920683" lon="-6.139730997383595">
        <ele>533.66999999999996</ele>
        <time>2019-03-15T07:42:55Z</time>
      </trkpt>
      <trkpt lat="29.872950101271272" lon="-6.141002615913749">
        <ele>534.14999999999998</ele>
        <time>2019-03-15T07:43:06Z</time>
      </trkpt>
      <trkpt lat="29.872848512604833" lon="-6.141673838719726">
        <ele>533.19000000000005</ele>
        <time>2019-03-15T07:43:12Z</time>
      </trkpt>
      <trkpt lat="29.872870640829206" lon="-6.142323100939393">
        <ele>532.23000000000002</ele>
        <time>2019-03-15T07:43:18Z</time>
      </trkpt>
      <trkpt lat="29.87272865138948" lon="-6.142857614904642">
        <ele>535.59000000000003</ele>
        <time>2019-03-15T07:43:24Z</time>
      </trkpt>
      <trkpt lat="29.872514074668288" lon="-6.143463710322976">
        <ele>534.63</ele>
        <time>2019-03-15T07:43:32Z</time>
      </trkpt>
      <trkpt lat="29.872378455474973" lon="-6.143589438870549">
        <ele>532.71000000000004</ele>
        <time>2019-03-15T07:43:34Z</time>
      </trkpt>
      <trkpt lat="29.87197034060955" lon="-6.143775936216116">
        <ele>533.19000000000005</ele>
        <time>2019-03-15T07:43:40Z</time>
      </trkpt>
      <trkpt lat="29.871125612407923" lon="-6.144153457134962">
        <ele>535.11000000000001</ele>
        <time>2019-03-15T07:43:52Z</time>
      </trkpt>
      <trkpt lat="29.870083490386605" lon="-6.144687552005053">
        <ele>534.63</ele>
        <time>2019-03-15T07:44:04Z</time>
      </trkpt>
      <trkpt lat="29.869029046967626" lon="-6.145242266356945">
        <ele>533.19000000000005</ele>
        <time>2019-03-15T07:44:16Z</time>
      </trkpt>
      <trkpt lat="29.868070995435119" lon="-6.145734116435051">
        <ele>533.66999999999996</ele>
        <time>2019-03-15T07:44:28Z</time>
      </trkpt>
      <trkpt lat="29.867512257769704" lon="-6.146022118628025">
        <ele>532.23000000000002</ele>
        <time>2019-03-15T07:44:35Z</time>
      </trkpt>
      <trkpt lat="29.867252083495259" lon="-6.146278604865074">
        <ele>532.23000000000002</ele>
        <time>2019-03-15T07:44:39Z</time>
      </trkpt>
      <trkpt lat="29.866436440497637" lon="-6.147403120994568">
        <ele>533.66999999999996</ele>
        <time>2019-03-15T07:44:53Z</time>
      </trkpt>
      <trkpt lat="29.865636052563787" lon="-6.148542305454612">
        <ele>532.71000000000004</ele>
        <time>2019-03-15T07:45:07Z</time>
      </trkpt>
      <trkpt lat="29.865093072876334" lon="-6.149292653426528">
        <ele>534.63</ele>
        <time>2019-03-15T07:45:17Z</time>
      </trkpt>
      <trkpt lat="29.864994417876005" lon="-6.149461884051561">
        <ele>533.66999999999996</ele>
        <time>2019-03-15T07:45:19Z</time>
      </trkpt>
      <trkpt lat="29.864690490067005" lon="-6.150332093238831">
        <ele>530.29999999999995</ele>
        <time>2019-03-15T07:45:29Z</time>
      </trkpt>
      <trkpt lat="29.864490330219269" lon="-6.150818495079875">
        <ele>522.13</ele>
        <time>2019-03-15T07:45:35Z</time>
      </trkpt>
      <trkpt lat="29.864167124032974" lon="-6.151822898536921">
        <ele>517.33000000000004</ele>
        <time>2019-03-15T07:45:46Z</time>
      </trkpt>
      <trkpt lat="29.863847689703107" lon="-6.152639631181955">
        <ele>516.85000000000002</ele>
        <time>2019-03-15T07:45:56Z</time>
      </trkpt>
      <trkpt lat="29.863441837951541" lon="-6.153380675241351">
        <ele>516.37</ele>
        <time>2019-03-15T07:46:07Z</time>
      </trkpt>
      <trkpt lat="29.862858289852738" lon="-6.154030272737145">
        <ele>515.39999999999998</ele>
        <time>2019-03-15T07:46:18Z</time>
      </trkpt>
      <trkpt lat="29.862174745649099" lon="-6.155134504660964">
        <ele>514.91999999999996</ele>
        <time>2019-03-15T07:46:31Z</time>
      </trkpt>
      <trkpt lat="29.861953463405371" lon="-6.155820311978459">
        <ele>514.44000000000005</ele>
        <time>2019-03-15T07:46:38Z</time>
      </trkpt>
      <trkpt lat="29.861959917470813" lon="-6.156242927536368">
        <ele>513.96000000000004</ele>
        <time>2019-03-15T07:46:42Z</time>
      </trkpt>
      <trkpt lat="29.862046418711543" lon="-6.156643079593778">
        <ele>513.48000000000002</ele>
        <time>2019-03-15T07:46:46Z</time>
      </trkpt>
      <trkpt lat="29.861960001289845" lon="-6.157144987955689">
        <ele>512.51999999999998</ele>
        <time>2019-03-15T07:46:51Z</time>
      </trkpt>
      <trkpt lat="29.861757913604379" lon="-6.157658798620105">
        <ele>511.56</ele>
        <time>2019-03-15T07:46:56Z</time>
      </trkpt>
      <trkpt lat="29.861732767894864" lon="-6.157896090298891">
        <ele>511.56</ele>
        <time>2019-03-15T07:46:58Z</time>
      </trkpt>
      <trkpt lat="29.861410316079855" lon="-6.159074082970619">
        <ele>510.12</ele>
        <time>2019-03-15T07:47:08Z</time>
      </trkpt>
      <trkpt lat="29.86100404523313" lon="-6.159549588337541">
        <ele>508.67000000000002</ele>
        <time>2019-03-15T07:47:14Z</time>
      </trkpt>
      <trkpt lat="29.859808450564742" lon="-6.16007387638092">
        <ele>507.23000000000002</ele>
        <time>2019-03-15T07:47:25Z</time>
      </trkpt>
      <trkpt lat="29.859596807509661" lon="-6.160196252167225">
        <ele>507.70999999999998</ele>
        <time>2019-03-15T07:47:27Z</time>
      </trkpt>
      <trkpt lat="29.858868839219213" lon="-6.160452822223306">
        <ele>507.70999999999998</ele>
        <time>2019-03-15T07:47:34Z</time>
      </trkpt>
      <trkpt lat="29.857756895944476" lon="-6.160780051723123">
        <ele>507.70999999999998</ele>
        <time>2019-03-15T07:47:45Z</time>
      </trkpt>
      <trkpt lat="29.856678145006299" lon="-6.161229237914085">
        <ele>506.75</ele>
        <time>2019-03-15T07:47:55Z</time>
      </trkpt>
      <trkpt lat="29.856391064822674" lon="-6.16145521402359">
        <ele>505.79000000000002</ele>
        <time>2019-03-15T07:47:58Z</time>
      </trkpt>
      <trkpt lat="29.856163747608662" lon="-6.161728966981173">
        <ele>505.31</ele>
        <time>2019-03-15T07:48:01Z</time>
      </trkpt>
      <trkpt lat="29.855815982446074" lon="-6.161933653056622">
        <ele>504.35000000000002</ele>
        <time>2019-03-15T07:48:05Z</time>
      </trkpt>
      <trkpt lat="29.855366796255112" lon="-6.162088299170137">
        <ele>503.38999999999999</ele>
        <time>2019-03-15T07:48:09Z</time>
      </trkpt>
      <trkpt lat="29.85482725314796" lon="-6.1627999227494">
        <ele>501.94999999999999</ele>
        <time>2019-03-15T07:48:16Z</time>
      </trkpt>
      <trkpt lat="29.85446859151125" lon="-6.164323920384049">
        <ele>501.94999999999999</ele>
        <time>2019-03-15T07:48:27Z</time>
      </trkpt>
      <trkpt lat="29.854425005614758" lon="-6.165769547224045">
        <ele>501.94999999999999</ele>
        <time>2019-03-15T07:48:37Z</time>
      </trkpt>
      <trkpt lat="29.854163071140647" lon="-6.167570985853672">
        <ele>502.43000000000001</ele>
        <time>2019-03-15T07:48:49Z</time>
      </trkpt>
      <trkpt lat="29.853861071169376" lon="-6.169369742274284">
        <ele>502.43000000000001</ele>
        <time>2019-03-15T07:49:01Z</time>
      </trkpt>
      <trkpt lat="29.853880349546671" lon="-6.169785233214498">
        <ele>501.94999999999999</ele>
        <time>2019-03-15T07:49:04Z</time>
      </trkpt>
      <trkpt lat="29.853690164163709" lon="-6.170622752979398">
        <ele>502.91000000000003</ele>
        <time>2019-03-15T07:49:11Z</time>
      </trkpt>
      <trkpt lat="29.853522274643183" lon="-6.170985270291567">
        <ele>503.38999999999999</ele>
        <time>2019-03-15T07:49:15Z</time>
      </trkpt>
      <trkpt lat="29.853097479790449" lon="-6.171497907489538">
        <ele>503.38999999999999</ele>
        <time>2019-03-15T07:49:21Z</time>
      </trkpt>
      <trkpt lat="29.852825235575438" lon="-6.171883977949619">
        <ele>502.91000000000003</ele>
        <time>2019-03-15T07:49:25Z</time>
      </trkpt>
      <trkpt lat="29.852621806785464" lon="-6.17248110473156">
        <ele>502.43000000000001</ele>
        <time>2019-03-15T08:00:51Z</time>
      </trkpt>
      <trkpt lat="29.852482499554753" lon="-6.172777321189642">
        <ele>500.98000000000002</ele>
        <time>2019-03-15T08:00:57Z</time>
      </trkpt>
      <trkpt lat="29.852431872859597" lon="-6.172845801338553">
        <ele>501.45999999999998</ele>
        <time>2019-03-15T08:00:58Z</time>
      </trkpt>
      <trkpt lat="29.852314274758101" lon="-6.172984270378947">
        <ele>500.5</ele>
        <time>2019-03-15T08:01:00Z</time>
      </trkpt>
      <trkpt lat="29.852101290598512" lon="-6.173335136845708">
        <ele>500.5</ele>
        <time>2019-03-15T08:01:04Z</time>
      </trkpt>
      <trkpt lat="29.851720836013556" lon="-6.174329398199916">
        <ele>499.54000000000002</ele>
        <time>2019-03-15T08:01:15Z</time>
      </trkpt>
      <trkpt lat="29.851627964526415" lon="-6.174522265791893">
        <ele>499.06</ele>
        <time>2019-03-15T08:01:17Z</time>
      </trkpt>
      <trkpt lat="29.851014744490385" lon="-6.175154764205217">
        <ele>499.06</ele>
        <time>2019-03-15T08:01:26Z</time>
      </trkpt>
      <trkpt lat="29.851014744490385" lon="-6.175154764205217">
        <ele>499.06</ele>
        <time>2019-03-15T08:01:26Z</time>
      </trkpt>
      <trkpt lat="29.850223073735833" lon="-6.176241226494312">
        <ele>499.06</ele>
        <time>2019-03-15T08:01:39Z</time>
      </trkpt>
      <trkpt lat="29.849413465708494" lon="-6.177384685724974">
        <ele>500.01999999999998</ele>
        <time>2019-03-15T08:01:53Z</time>
      </trkpt>
      <trkpt lat="29.849351355805993" lon="-6.177469007670879">
        <ele>502.91000000000003</ele>
        <time>2019-03-15T08:01:54Z</time>
      </trkpt>
      <trkpt lat="29.849012643098831" lon="-6.177835967391729">
        <ele>503.38999999999999</ele>
        <time>2019-03-15T08:01:59Z</time>
      </trkpt>
      <trkpt lat="29.848901331424713" lon="-6.178001593798399">
        <ele>502.43000000000001</ele>
        <time>2019-03-15T08:02:01Z</time>
      </trkpt>
      <trkpt lat="29.848378216847777" lon="-6.178807010874152">
        <ele>500.5</ele>
        <time>2019-03-15T08:02:11Z</time>
      </trkpt>
      <trkpt lat="29.847968425601721" lon="-6.1791499145329">
        <ele>500.5</ele>
        <time>2019-03-15T08:02:18Z</time>
      </trkpt>
      <trkpt lat="29.847477748990059" lon="-6.179351415485144">
        <ele>500.01999999999998</ele>
        <time>2019-03-15T08:02:27Z</time>
      </trkpt>
      <trkpt lat="29.847250515595078" lon="-6.179362563416362">
        <ele>500.5</ele>
        <time>2019-03-15T08:02:36Z</time>
      </trkpt>
      <trkpt lat="29.846591027453542" lon="-6.179451243951917">
        <ele>502.43000000000001</ele>
        <time>2019-03-15T08:02:44Z</time>
      </trkpt>
      <trkpt lat="29.846406793221831" lon="-6.179448394104838">
        <ele>499.06</ele>
        <time>2019-03-15T08:02:46Z</time>
      </trkpt>
      <trkpt lat="29.845875212922692" lon="-6.179271200671792">
        <ele>497.13999999999999</ele>
        <time>2019-03-15T08:02:52Z</time>
      </trkpt>
      <trkpt lat="29.844880700111389" lon="-6.179186040535569">
        <ele>497.13999999999999</ele>
        <time>2019-03-15T08:03:02Z</time>
      </trkpt>
      <trkpt lat="29.844110989943147" lon="-6.179294250905514">
        <ele>497.13999999999999</ele>
        <time>2019-03-15T08:03:11Z</time>
      </trkpt>
      <trkpt lat="29.843042297288775" lon="-6.17954621091485">
        <ele>497.13999999999999</ele>
        <time>2019-03-15T08:03:22Z</time>
      </trkpt>
      <trkpt lat="29.841950219124556" lon="-6.179687110707164">
        <ele>497.13999999999999</ele>
        <time>2019-03-15T08:03:33Z</time>
      </trkpt>
      <trkpt lat="29.84043326228857" lon="-6.17979146540165">
        <ele>496.66000000000003</ele>
        <time>2019-03-15T08:03:46Z</time>
      </trkpt>
      <trkpt lat="29.839966138824821" lon="-6.17983840405941">
        <ele>497.13999999999999</ele>
        <time>2019-03-15T08:03:51Z</time>
      </trkpt>
      <trkpt lat="29.838887136429548" lon="-6.179797751829028">
        <ele>497.13999999999999</ele>
        <time>2019-03-15T08:04:02Z</time>
      </trkpt>
      <trkpt lat="29.837576458230615" lon="-6.179801523685455">
        <ele>497.13999999999999</ele>
        <time>2019-03-15T08:04:14Z</time>
      </trkpt>
      <trkpt lat="29.836252368986607" lon="-6.179815521463752">
        <ele>497.13999999999999</ele>
        <time>2019-03-15T08:04:26Z</time>
      </trkpt>
      <trkpt lat="29.834977732971311" lon="-6.17978953756392">
        <ele>497.13999999999999</ele>
        <time>2019-03-15T08:04:37Z</time>
      </trkpt>
      <trkpt lat="29.834763575345278" lon="-6.179792219772935">
        <ele>496.66000000000003</ele>
        <time>2019-03-15T08:04:39Z</time>
      </trkpt>
      <trkpt lat="29.834565343335271" lon="-6.179828094318509">
        <ele>496.66000000000003</ele>
        <time>2019-03-15T08:04:41Z</time>
      </trkpt>
      <trkpt lat="29.834005180746317" lon="-6.179842846468091">
        <ele>496.18000000000001</ele>
        <time>2019-03-15T08:04:48Z</time>
      </trkpt>
      <trkpt lat="29.834005851298571" lon="-6.179966228082776">
        <ele>496.66000000000003</ele>
        <time>2019-03-15T08:04:53Z</time>
      </trkpt>
      <trkpt lat="29.834473393857479" lon="-6.180518344044685">
        <ele>496.18000000000001</ele>
        <time>2019-03-15T08:05:01Z</time>
      </trkpt>
      <trkpt lat="29.835532195866108" lon="-6.181697845458984">
        <ele>496.18000000000001</ele>
        <time>2019-03-15T08:05:13Z</time>
      </trkpt>
      <trkpt lat="29.835825730115175" lon="-6.182147366926074">
        <ele>496.66000000000003</ele>
        <time>2019-03-15T08:05:19Z</time>
      </trkpt>
      <trkpt lat="29.83593444339931" lon="-6.182391531765461">
        <ele>496.18000000000001</ele>
        <time>2019-03-15T08:05:22Z</time>
      </trkpt>
      <trkpt lat="29.836605079472065" lon="-6.183513198047876">
        <ele>496.66000000000003</ele>
        <time>2019-03-15T08:05:33Z</time>
      </trkpt>
      <trkpt lat="29.836657801643014" lon="-6.183612020686269">
        <ele>496.66000000000003</ele>
        <time>2019-03-15T08:05:34Z</time>
      </trkpt>
      <trkpt lat="29.836759809404612" lon="-6.183903375640512">
        <ele>495.69999999999999</ele>
        <time>2019-03-15T08:05:37Z</time>
      </trkpt>
      <trkpt lat="29.83685745857656" lon="-6.184423053637147">
        <ele>496.18000000000001</ele>
        <time>2019-03-15T08:05:43Z</time>
      </trkpt>
      <trkpt lat="29.837324917316437" lon="-6.185415722429752">
        <ele>496.18000000000001</ele>
        <time>2019-03-15T08:05:53Z</time>
      </trkpt>
      <trkpt lat="29.838176853954792" lon="-6.187428887933493">
        <ele>495.69999999999999</ele>
        <time>2019-03-15T08:06:08Z</time>
      </trkpt>
      <trkpt lat="29.839204223826528" lon="-6.18948882445693">
        <ele>495.22000000000003</ele>
        <time>2019-03-15T08:06:23Z</time>
      </trkpt>
      <trkpt lat="29.84018599614501" lon="-6.191762918606401">
        <ele>495.69999999999999</ele>
        <time>2019-03-15T08:06:39Z</time>
      </trkpt>
      <trkpt lat="29.841071292757988" lon="-6.194151006639004">
        <ele>495.69999999999999</ele>
        <time>2019-03-15T08:06:56Z</time>
      </trkpt>
      <trkpt lat="29.841808816418052" lon="-6.196263832971454">
        <ele>495.69999999999999</ele>
        <time>2019-03-15T08:07:12Z</time>
      </trkpt>
      <trkpt lat="29.84233595430851" lon="-6.197569146752358">
        <ele>495.69999999999999</ele>
        <time>2019-03-15T08:07:26Z</time>
      </trkpt>
      <trkpt lat="29.842532342299819" lon="-6.198082705959678">
        <ele>496.66000000000003</ele>
        <time>2019-03-15T08:07:37Z</time>
      </trkpt>
      <trkpt lat="29.842760162428021" lon="-6.198774632066488">
        <ele>496.18000000000001</ele>
        <time>2019-03-15T08:07:48Z</time>
      </trkpt>
      <trkpt lat="29.842947581782937" lon="-6.19921644218266">
        <ele>496.18000000000001</ele>
        <time>2019-03-15T08:07:53Z</time>
      </trkpt>
      <trkpt lat="29.843489807099104" lon="-6.19991909712553">
        <ele>496.18000000000001</ele>
        <time>2019-03-15T08:08:03Z</time>
      </trkpt>
      <trkpt lat="29.843964390456676" lon="-6.200682101771236">
        <ele>495.69999999999999</ele>
        <time>2019-03-15T08:08:12Z</time>
      </trkpt>
      <trkpt lat="29.844441404566169" lon="-6.201289119198918">
        <ele>495.22000000000003</ele>
        <time>2019-03-15T08:08:20Z</time>
      </trkpt>
      <trkpt lat="29.845049427822232" lon="-6.201967550441623">
        <ele>495.69999999999999</ele>
        <time>2019-03-15T08:08:30Z</time>
      </trkpt>
      <trkpt lat="29.845111034810543" lon="-6.202057069167495">
        <ele>504.35000000000002</ele>
        <time>2019-03-15T08:08:37Z</time>
      </trkpt>
      <trkpt lat="29.845499200746417" lon="-6.2024868093431">
        <ele>504.35000000000002</ele>
        <time>2019-03-15T08:08:46Z</time>
      </trkpt>
      <trkpt lat="29.845765074715018" lon="-6.202929122373462">
        <ele>504.35000000000002</ele>
        <time>2019-03-15T08:08:52Z</time>
      </trkpt>
      <trkpt lat="29.846428418532014" lon="-6.203955570235848">
        <ele>504.35000000000002</ele>
        <time>2019-03-15T08:09:04Z</time>
      </trkpt>
      <trkpt lat="29.846651963889599" lon="-6.204180875793099">
        <ele>503.38999999999999</ele>
        <time>2015-11-09T14:47:22Z</time>
      </trkpt>
      <trkpt lat="29.846984641626477" lon="-6.204495280981064">
        <ele>503.38999999999999</ele>
        <time>2015-11-09T14:47:26Z</time>
      </trkpt>
      <trkpt lat="29.847218915820122" lon="-6.204752437770367">
        <ele>503.87</ele>
        <time>2015-11-09T14:47:29Z</time>
      </trkpt>
      <trkpt lat="29.847372556105256" lon="-6.204968774691224">
        <ele>503.38999999999999</ele>
        <time>2015-11-09T14:47:32Z</time>
      </trkpt>
      <trkpt lat="29.847720069810748" lon="-6.205488117411733">
        <ele>503.87</ele>
        <time>2015-11-09T14:47:41Z</time>
      </trkpt>
      <trkpt lat="29.847899945452809" lon="-6.20568928308785">
        <ele>503.38999999999999</ele>
        <time>2015-11-09T14:47:44Z</time>
      </trkpt>
      <trkpt lat="29.848100189119577" lon="-6.205995138734579">
        <ele>502.91000000000003</ele>
        <time>2015-11-09T14:47:48Z</time>
      </trkpt>
      <trkpt lat="29.848637133836746" lon="-6.206777505576611">
        <ele>502.91000000000003</ele>
        <time>2015-11-09T14:47:59Z</time>
      </trkpt>
      <trkpt lat="29.84868424013257" lon="-6.206842549145222">
        <ele>502.43000000000001</ele>
        <time>2015-11-09T14:48:00Z</time>
      </trkpt>
      <trkpt lat="29.848840227350593" lon="-6.207006750628352">
        <ele>502.43000000000001</ele>
        <time>2015-11-09T14:48:03Z</time>
      </trkpt>
      <trkpt lat="29.849217077717185" lon="-6.207235157489777">
        <ele>502.43000000000001</ele>
        <time>2015-11-09T14:48:08Z</time>
      </trkpt>
      <trkpt lat="29.849454620853066" lon="-6.207428863272071">
        <ele>501.94999999999999</ele>
        <time>2015-11-09T14:48:12Z</time>
      </trkpt>
      <trkpt lat="29.8498500790447" lon="-6.208107210695744">
        <ele>501.94999999999999</ele>
        <time>2015-11-09T14:48:21Z</time>
      </trkpt>
      <trkpt lat="29.849957870319486" lon="-6.208285326138139">
        <ele>501.45999999999998</ele>
        <time>2015-11-09T14:48:23Z</time>
      </trkpt>
      <trkpt lat="29.85045257024467" lon="-6.208977922797203">
        <ele>501.45999999999998</ele>
        <time>2015-11-09T14:48:31Z</time>
      </trkpt>
      <trkpt lat="29.8507428355515" lon="-6.209314120933414">
        <ele>501.94999999999999</ele>
        <time>2015-11-09T14:48:35Z</time>
      </trkpt>
      <trkpt lat="29.850875688716769" lon="-6.209495170041919">
        <ele>501.94999999999999</ele>
        <time>2015-11-09T14:48:37Z</time>
      </trkpt>
      <trkpt lat="29.851408526301384" lon="-6.210698643699288">
        <ele>501.94999999999999</ele>
        <time>2015-11-09T14:48:49Z</time>
      </trkpt>
      <trkpt lat="29.851874895393848" lon="-6.211318485438824">
        <ele>502.43000000000001</ele>
        <time>2015-11-09T14:48:57Z</time>
      </trkpt>
      <trkpt lat="29.852087628096342" lon="-6.211612774059176">
        <ele>501.94999999999999</ele>
        <time>2015-11-09T14:49:01Z</time>
      </trkpt>
      <trkpt lat="29.852254847064614" lon="-6.211831709370017">
        <ele>502.43000000000001</ele>
        <time>2015-11-09T14:49:04Z</time>
      </trkpt>
      <trkpt lat="29.85246179625392" lon="-6.212159274145961">
        <ele>502.43000000000001</ele>
        <time>2015-11-09T14:49:08Z</time>
      </trkpt>
      <trkpt lat="29.852755833417177" lon="-6.212653303518891">
        <ele>502.43000000000001</ele>
        <time>2015-11-09T14:49:14Z</time>
      </trkpt>
      <trkpt lat="29.853216418996453" lon="-6.213239282369614">
        <ele>502.43000000000001</ele>
        <time>2015-11-09T14:49:22Z</time>
      </trkpt>
      <trkpt lat="29.853461589664221" lon="-6.213564751669765">
        <ele>501.45999999999998</ele>
        <time>2015-11-09T14:49:27Z</time>
      </trkpt>
      <trkpt lat="29.85371170565486" lon="-6.213764408603311">
        <ele>501.94999999999999</ele>
        <time>2015-11-09T14:49:31Z</time>
      </trkpt>
      <trkpt lat="29.854219732806087" lon="-6.214095074683428">
        <ele>501.45999999999998</ele>
        <time>2015-11-09T14:49:37Z</time>
      </trkpt>
      <trkpt lat="29.854380749166012" lon="-6.214213343337178">
        <ele>501.45999999999998</ele>
        <time>2015-11-09T14:49:39Z</time>
      </trkpt>
      <trkpt lat="29.85471929423511" lon="-6.214435547590256">
        <ele>500.5</ele>
        <time>2015-11-09T14:49:43Z</time>
      </trkpt>
      <trkpt lat="29.854879723861814" lon="-6.214559599757195">
        <ele>500.98000000000002</ele>
        <time>2015-11-09T14:49:45Z</time>
      </trkpt>
      <trkpt lat="29.855044847354293" lon="-6.214682813733816">
        <ele>500.98000000000002</ele>
        <time>2015-11-09T14:49:47Z</time>
      </trkpt>
      <trkpt lat="29.85526311211288" lon="-6.21491365134716">
        <ele>500.5</ele>
        <time>2015-11-09T14:49:50Z</time>
      </trkpt>
      <trkpt lat="29.855476347729564" lon="-6.215233169496059">
        <ele>500.98000000000002</ele>
        <time>2015-11-09T14:49:54Z</time>
      </trkpt>
      <trkpt lat="29.855659240856767" lon="-6.215445902198553">
        <ele>501.45999999999998</ele>
        <time>2015-11-09T14:49:57Z</time>
      </trkpt>
      <trkpt lat="29.855871554464102" lon="-6.215756200253964">
        <ele>501.45999999999998</ele>
        <time>2015-11-09T14:50:01Z</time>
      </trkpt>
      <trkpt lat="29.856585692614317" lon="-6.216510068625212">
        <ele>500.98000000000002</ele>
        <time>2015-11-09T14:50:11Z</time>
      </trkpt>
      <trkpt lat="29.857380799949169" lon="-6.21731037274003">
        <ele>501.45999999999998</ele>
        <time>2015-11-09T14:50:22Z</time>
      </trkpt>
      <trkpt lat="29.857954373583198" lon="-6.218006405979395">
        <ele>500.98000000000002</ele>
        <time>2015-11-09T14:50:31Z</time>
      </trkpt>
      <trkpt lat="29.858192671090364" lon="-6.218402534723282">
        <ele>500.5</ele>
        <time>2015-11-09T14:50:36Z</time>
      </trkpt>
      <trkpt lat="29.858328625559807" lon="-6.218600012362003">
        <ele>500.98000000000002</ele>
        <time>2015-11-09T14:50:40Z</time>
      </trkpt>
      <trkpt lat="29.858458209782839" lon="-6.218814253807068">
        <ele>500.98000000000002</ele>
        <time>2015-11-09T14:50:44Z</time>
      </trkpt>
      <trkpt lat="29.859010828658938" lon="-6.21947206556797">
        <ele>500.98000000000002</ele>
        <time>2015-11-09T14:50:53Z</time>
      </trkpt>
      <trkpt lat="29.859137227758765" lon="-6.219577342271805">
        <ele>501.45999999999998</ele>
        <time>2015-11-09T14:50:55Z</time>
      </trkpt>
      <trkpt lat="29.859293969348073" lon="-6.219877246767283">
        <ele>501.45999999999998</ele>
        <time>2015-11-09T14:50:59Z</time>
      </trkpt>
      <trkpt lat="29.859380722045898" lon="-6.220146724954248">
        <ele>501.45999999999998</ele>
        <time>2015-11-09T14:51:02Z</time>
      </trkpt>
      <trkpt lat="29.859837116673589" lon="-6.221029674634337">
        <ele>501.94999999999999</ele>
        <time>2015-11-09T14:51:11Z</time>
      </trkpt>
      <trkpt lat="29.860346652567387" lon="-6.221878929063678">
        <ele>501.94999999999999</ele>
        <time>2015-11-09T14:51:20Z</time>
      </trkpt>
      <trkpt lat="29.860627362504601" lon="-6.22220054268837">
        <ele>501.94999999999999</ele>
        <time>2015-11-09T14:51:24Z</time>
      </trkpt>
      <trkpt lat="29.860932547599077" lon="-6.222687195986509">
        <ele>500.98000000000002</ele>
        <time>2015-11-09T14:51:29Z</time>
      </trkpt>
      <trkpt lat="29.861068921163678" lon="-6.223061950877309">
        <ele>501.94999999999999</ele>
        <time>2015-11-09T14:51:33Z</time>
      </trkpt>
      <trkpt lat="29.861108986660838" lon="-6.223278120160103">
        <ele>502.43000000000001</ele>
        <time>2015-11-09T14:51:35Z</time>
      </trkpt>
      <trkpt lat="29.861123822629452" lon="-6.223499653860927">
        <ele>501.94999999999999</ele>
        <time>2015-11-09T14:51:37Z</time>
      </trkpt>
      <trkpt lat="29.861107226461172" lon="-6.223835935816169">
        <ele>501.45999999999998</ele>
        <time>2015-11-09T14:51:40Z</time>
      </trkpt>
      <trkpt lat="29.861271344125271" lon="-6.224737325683236">
        <ele>501.94999999999999</ele>
        <time>2015-11-09T14:51:49Z</time>
      </trkpt>
      <trkpt lat="29.861454321071506" lon="-6.225149882957339">
        <ele>501.45999999999998</ele>
        <time>2015-11-09T14:51:56Z</time>
      </trkpt>
      <trkpt lat="29.861472174525261" lon="-6.225215680897236">
        <ele>501.94999999999999</ele>
        <time>2015-11-09T14:51:58Z</time>
      </trkpt>
      <trkpt lat="29.861508635804057" lon="-6.225321125239134">
        <ele>501.94999999999999</ele>
        <time>2015-11-09T14:52:00Z</time>
      </trkpt>
      <trkpt lat="29.861858580261469" lon="-6.22577341273427">
        <ele>501.94999999999999</ele>
        <time>2015-11-09T14:52:08Z</time>
      </trkpt>
      <trkpt lat="29.862119844183326" lon="-6.226214803755283">
        <ele>501.94999999999999</ele>
        <time>2015-11-09T14:52:13Z</time>
      </trkpt>
      <trkpt lat="29.862332493066788" lon="-6.226874710991979">
        <ele>502.43000000000001</ele>
        <time>2015-11-09T14:52:19Z</time>
      </trkpt>
      <trkpt lat="29.862470710650086" lon="-6.227319454774261">
        <ele>501.45999999999998</ele>
        <time>2015-11-09T14:52:24Z</time>
      </trkpt>
      <trkpt lat="29.86253340728581" lon="-6.227463372051716">
        <ele>501.45999999999998</ele>
        <time>2015-11-09T14:52:26Z</time>
      </trkpt>
      <trkpt lat="29.862740188837051" lon="-6.227814573794603">
        <ele>500.5</ele>
        <time>2015-11-09T14:52:32Z</time>
      </trkpt>
      <trkpt lat="29.863074794411659" lon="-6.228230819106102">
        <ele>500.98000000000002</ele>
        <time>2015-11-09T14:52:41Z</time>
      </trkpt>
      <trkpt lat="29.863323820754886" lon="-6.228603310883045">
        <ele>500.98000000000002</ele>
        <time>2015-11-09T14:52:47Z</time>
      </trkpt>
      <trkpt lat="29.863384338095784" lon="-6.228944705799222">
        <ele>500.5</ele>
        <time>2015-11-09T14:52:51Z</time>
      </trkpt>
      <trkpt lat="29.863484166562557" lon="-6.229430940002203">
        <ele>500.98000000000002</ele>
        <time>2015-11-09T14:52:56Z</time>
      </trkpt>
      <trkpt lat="29.863592628389597" lon="-6.229710811749101">
        <ele>500.5</ele>
        <time>2015-11-09T14:53:00Z</time>
      </trkpt>
      <trkpt lat="29.863760350272059" lon="-6.230071820318699">
        <ele>500.98000000000002</ele>
        <time>2015-11-09T14:53:05Z</time>
      </trkpt>
      <trkpt lat="29.864132674410939" lon="-6.23042855411768">
        <ele>501.45999999999998</ele>
        <time>2015-11-09T14:53:11Z</time>
      </trkpt>
      <trkpt lat="29.864479014649987" lon="-6.230621337890625">
        <ele>500.5</ele>
        <time>2015-11-09T14:53:16Z</time>
      </trkpt>
      <trkpt lat="29.865108663216233" lon="-6.231077816337347">
        <ele>500.01999999999998</ele>
        <time>2015-11-09T14:53:24Z</time>
      </trkpt>
      <trkpt lat="29.865377470850945" lon="-6.231233384460211">
        <ele>499.06</ele>
        <time>2015-11-09T14:53:27Z</time>
      </trkpt>
      <trkpt lat="29.865744262933731" lon="-6.231283089146018">
        <ele>498.57999999999998</ele>
        <time>2015-11-09T14:53:31Z</time>
      </trkpt>
      <trkpt lat="29.8663036711514" lon="-6.230939347296953">
        <ele>499.54000000000002</ele>
        <time>2015-11-09T14:53:38Z</time>
      </trkpt>
      <trkpt lat="29.866467621177435" lon="-6.230876818299294">
        <ele>499.54000000000002</ele>
        <time>2015-11-09T14:53:40Z</time>
      </trkpt>
      <trkpt lat="29.867061143741012" lon="-6.231081504374743">
        <ele>499.54000000000002</ele>
        <time>2015-11-09T14:53:48Z</time>
      </trkpt>
      <trkpt lat="29.867225093767047" lon="-6.231315778568387">
        <ele>499.06</ele>
        <time>2015-11-09T14:53:53Z</time>
      </trkpt>
      <trkpt lat="29.867687858641148" lon="-6.231820033863187">
        <ele>499.06</ele>
        <time>2015-11-09T14:54:02Z</time>
      </trkpt>
      <trkpt lat="29.867784334346652" lon="-6.231939056888223">
        <ele>499.54000000000002</ele>
        <time>2015-11-09T14:54:04Z</time>
      </trkpt>
      <trkpt lat="29.868022128939629" lon="-6.232055984437466">
        <ele>498.57999999999998</ele>
        <time>2015-11-09T14:54:09Z</time>
      </trkpt>
      <trkpt lat="29.868324548006058" lon="-6.232021534815431">
        <ele>499.06</ele>
        <time>2015-11-09T14:54:15Z</time>
      </trkpt>
      <trkpt lat="29.868618585169315" lon="-6.232122955843806">
        <ele>499.06</ele>
        <time>2015-11-09T14:54:20Z</time>
      </trkpt>
      <trkpt lat="29.86887289211154" lon="-6.232338286936283">
        <ele>500.01999999999998</ele>
        <time>2015-11-09T14:54:24Z</time>
      </trkpt>
      <trkpt lat="29.869201546534896" lon="-6.232771798968315">
        <ele>500.5</ele>
        <time>2015-11-09T14:54:30Z</time>
      </trkpt>
      <trkpt lat="29.869396174326539" lon="-6.232991237193346">
        <ele>500.5</ele>
        <time>2015-11-09T14:54:33Z</time>
      </trkpt>
      <trkpt lat="29.869582755491138" lon="-6.233278401196003">
        <ele>501.45999999999998</ele>
        <time>2015-11-09T14:54:37Z</time>
      </trkpt>
      <trkpt lat="29.870043341070414" lon="-6.23380302451551">
        <ele>500.98000000000002</ele>
        <time>2015-11-09T14:54:45Z</time>
      </trkpt>
      <trkpt lat="29.870687406510115" lon="-6.234367042779923">
        <ele>500.98000000000002</ele>
        <time>2015-11-09T14:54:55Z</time>
      </trkpt>
      <trkpt lat="29.871066771447659" lon="-6.234656721353531">
        <ele>500.5</ele>
        <time>2015-11-09T14:55:01Z</time>
      </trkpt>
      <trkpt lat="29.871449656784534" lon="-6.23501144349575">
        <ele>500.5</ele>
        <time>2015-11-09T14:55:09Z</time>
      </trkpt>
      <trkpt lat="29.871721649542451" lon="-6.235179333016276">
        <ele>500.01999999999998</ele>
        <time>2015-11-09T14:55:14Z</time>
      </trkpt>
      <trkpt lat="29.872195729985833" lon="-6.235419725999236">
        <ele>500.01999999999998</ele>
        <time>2015-11-09T14:55:22Z</time>
      </trkpt>
      <trkpt lat="29.872225988656282" lon="-6.235474459826946">
        <ele>500.01999999999998</ele>
        <time>2015-11-09T14:55:23Z</time>
      </trkpt>
      <trkpt lat="29.87241055816412" lon="-6.235813088715076">
        <ele>500.5</ele>
        <time>2015-11-09T14:55:28Z</time>
      </trkpt>
      <trkpt lat="29.872563192620873" lon="-6.236112490296364">
        <ele>500.5</ele>
        <time>2015-11-09T14:55:33Z</time>
      </trkpt>
      <trkpt lat="29.87261239439249" lon="-6.236259257420898">
        <ele>500.5</ele>
        <time>2015-11-09T14:55:35Z</time>
      </trkpt>
      <trkpt lat="29.872670145705342" lon="-6.236603669822216">
        <ele>500.98000000000002</ele>
        <time>2015-11-09T14:55:39Z</time>
      </trkpt>
      <trkpt lat="29.872777266427875" lon="-6.23696249909699">
        <ele>500.01999999999998</ele>
        <time>2015-11-09T14:55:43Z</time>
      </trkpt>
      <trkpt lat="29.872900815680623" lon="-6.23735586181283">
        <ele>500.01999999999998</ele>
        <time>2015-11-09T14:55:47Z</time>
      </trkpt>
      <trkpt lat="29.872933924198151" lon="-6.237578401342034">
        <ele>500.5</ele>
        <time>2015-11-09T14:55:49Z</time>
      </trkpt>
      <trkpt lat="29.873221423476934" lon="-6.238214587792754">
        <ele>500.98000000000002</ele>
        <time>2015-11-09T14:55:55Z</time>
      </trkpt>
      <trkpt lat="29.873847719281912" lon="-6.238950770348311">
        <ele>500.98000000000002</ele>
        <time>2015-11-09T14:56:06Z</time>
      </trkpt>
      <trkpt lat="29.873969843611121" lon="-6.239062920212746">
        <ele>500.98000000000002</ele>
        <time>2015-11-09T14:56:08Z</time>
      </trkpt>
      <trkpt lat="29.874250302091241" lon="-6.239246651530266">
        <ele>501.45999999999998</ele>
        <time>2015-11-09T14:56:12Z</time>
      </trkpt>
      <trkpt lat="29.874489018693566" lon="-6.239311527460814">
        <ele>500.5</ele>
        <time>2015-11-09T14:56:16Z</time>
      </trkpt>
      <trkpt lat="29.874993357807398" lon="-6.239755768328905">
        <ele>501.45999999999998</ele>
        <time>2015-11-09T14:56:26Z</time>
      </trkpt>
      <trkpt lat="29.875372387468815" lon="-6.240066401660442">
        <ele>500.5</ele>
        <time>2015-11-09T14:56:33Z</time>
      </trkpt>
      <trkpt lat="29.875595094636083" lon="-6.240200763568282">
        <ele>500.5</ele>
        <time>2015-11-09T14:56:37Z</time>
      </trkpt>
      <trkpt lat="29.875952415168285" lon="-6.240308973938227">
        <ele>500.01999999999998</ele>
        <time>2015-11-09T14:56:42Z</time>
      </trkpt>
      <trkpt lat="29.876409061253071" lon="-6.240626396611333">
        <ele>500.01999999999998</ele>
        <time>2015-11-09T14:56:50Z</time>
      </trkpt>
      <trkpt lat="29.876648699864745" lon="-6.240851450711489">
        <ele>500.5</ele>
        <time>2015-11-09T14:56:55Z</time>
      </trkpt>
      <trkpt lat="29.876861600205302" lon="-6.240966869518161">
        <ele>500.01999999999998</ele>
        <time>2015-11-09T14:57:00Z</time>
      </trkpt>
      <trkpt lat="29.877602560445666" lon="-6.240963852033019">
        <ele>500.01999999999998</ele>
        <time>2015-11-09T14:57:12Z</time>
      </trkpt>
      <trkpt lat="29.877778077498078" lon="-6.241005677729845">
        <ele>500.98000000000002</ele>
        <time>2015-11-09T14:57:15Z</time>
      </trkpt>
      <trkpt lat="29.877970106899738" lon="-6.241174321621656">
        <ele>500.5</ele>
        <time>2015-11-09T14:57:20Z</time>
      </trkpt>
      <trkpt lat="29.878466315567493" lon="-6.241602636873722">
        <ele>500.5</ele>
        <time>2015-11-09T14:57:31Z</time>
      </trkpt>
      <trkpt lat="29.878759263083339" lon="-6.242028437554836">
        <ele>500.5</ele>
        <time>2015-11-09T14:57:39Z</time>
      </trkpt>
      <trkpt lat="29.879187997430563" lon="-6.242284839972854">
        <ele>500.5</ele>
        <time>2015-11-09T14:57:46Z</time>
      </trkpt>
      <trkpt lat="29.879466192796826" lon="-6.242691613733769">
        <ele>500.5</ele>
        <time>2015-11-09T14:57:52Z</time>
      </trkpt>
      <trkpt lat="29.879960054531693" lon="-6.243086066097021">
        <ele>500.5</ele>
        <time>2015-11-09T14:57:59Z</time>
      </trkpt>
      <trkpt lat="29.880075892433524" lon="-6.243232078850269">
        <ele>500.5</ele>
        <time>2015-11-09T14:58:01Z</time>
      </trkpt>
      <trkpt lat="29.880555504933" lon="-6.243775058537722">
        <ele>500.5</ele>
        <time>2015-11-09T14:58:10Z</time>
      </trkpt>
      <trkpt lat="29.880805620923638" lon="-6.243933979421854">
        <ele>500.5</ele>
        <time>2015-11-09T14:58:14Z</time>
      </trkpt>
      <trkpt lat="29.880992956459522" lon="-6.244167583063245">
        <ele>500.98000000000002</ele>
        <time>2015-11-09T14:58:18Z</time>
      </trkpt>
      <trkpt lat="29.881079960614443" lon="-6.244385177269578">
        <ele>499.54000000000002</ele>
        <time>2015-11-09T14:58:21Z</time>
      </trkpt>
      <trkpt lat="29.881193116307259" lon="-6.24457779340446">
        <ele>500.01999999999998</ele>
        <time>2015-11-09T14:58:24Z</time>
      </trkpt>
      <trkpt lat="29.881286155432463" lon="-6.244689524173737">
        <ele>500.5</ele>
        <time>2015-11-09T14:58:26Z</time>
      </trkpt>
      <trkpt lat="29.881382128223777" lon="-6.244760770350695">
        <ele>500.01999999999998</ele>
        <time>2015-11-09T14:58:34Z</time>
      </trkpt>
      <trkpt lat="29.881375841796398" lon="-6.244759848341346">
        <ele>500.5</ele>
        <time>2015-11-09T14:59:02Z</time>
      </trkpt>
      <trkpt lat="29.881379446014762" lon="-6.244745599105954">
        <ele>500.01999999999998</ele>
        <time>2015-11-09T14:59:24Z</time>
      </trkpt>
      <trkpt lat="29.88138229586184" lon="-6.244743503630161">
        <ele>500.5</ele>
        <time>2015-11-09T14:59:45Z</time>
      </trkpt>
      <trkpt lat="29.881382463499904" lon="-6.244747778400779">
        <ele>500.01999999999998</ele>
        <time>2015-11-09T15:00:12Z</time>
      </trkpt>
      <trkpt lat="29.88138472661376" lon="-6.244741324335337">
        <ele>500.01999999999998</ele>
        <time>2015-11-09T15:00:44Z</time>
      </trkpt>
      <trkpt lat="29.881380954757333" lon="-6.244748029857874">
        <ele>499.06</ele>
        <time>2015-11-09T15:01:26Z</time>
      </trkpt>
      <trkpt lat="29.881381206214428" lon="-6.244745096191764">
        <ele>498.10000000000002</ele>
        <time>2015-11-09T15:01:55Z</time>
      </trkpt>
      <trkpt lat="29.881379278376698" lon="-6.244753561913967">
        <ele>497.13999999999999</ele>
        <time>2015-11-09T15:02:32Z</time>
      </trkpt>
      <trkpt lat="29.881387325003743" lon="-6.244753645732999">
        <ele>496.18000000000001</ele>
        <time>2015-11-09T15:03:07Z</time>
      </trkpt>
      <trkpt lat="29.881382631137967" lon="-6.244754903018475">
        <ele>495.69999999999999</ele>
        <time>2015-11-09T15:03:47Z</time>
      </trkpt>
      <trkpt lat="29.88138179294765" lon="-6.244759680703282">
        <ele>496.18000000000001</ele>
        <time>2015-11-09T15:04:23Z</time>
      </trkpt>
      <trkpt lat="29.881386235356331" lon="-6.244760183617473">
        <ele>496.18000000000001</ele>
        <time>2015-11-09T15:04:54Z</time>
      </trkpt>
      <trkpt lat="29.881377350538969" lon="-6.244754819199443">
        <ele>496.66000000000003</ele>
        <time>2015-11-09T15:05:22Z</time>
      </trkpt>
      <trkpt lat="29.881372405216098" lon="-6.244748951867223">
        <ele>496.66000000000003</ele>
        <time>2015-11-09T15:05:47Z</time>
      </trkpt>
      <trkpt lat="29.881480447947979" lon="-6.244874848052859">
        <ele>497.13999999999999</ele>
        <time>2015-11-09T15:06:01Z</time>
      </trkpt>
      <trkpt lat="29.8816710524261" lon="-6.245045838877559">
        <ele>496.66000000000003</ele>
        <time>2015-11-09T15:06:11Z</time>
      </trkpt>
      <trkpt lat="29.881848581135273" lon="-6.245041731745005">
        <ele>496.18000000000001</ele>
        <time>2015-11-09T15:06:16Z</time>
      </trkpt>
      <trkpt lat="29.881992330774665" lon="-6.245127730071545">
        <ele>496.66000000000003</ele>
        <time>2015-11-09T15:06:20Z</time>
      </trkpt>
      <trkpt lat="29.882153430953622" lon="-6.245314059779048">
        <ele>496.18000000000001</ele>
        <time>2015-11-09T15:06:24Z</time>
      </trkpt>
      <trkpt lat="29.882475463673472" lon="-6.245494270697236">
        <ele>496.18000000000001</ele>
        <time>2015-11-09T15:06:30Z</time>
      </trkpt>
      <trkpt lat="29.88262097351253" lon="-6.245603235438466">
        <ele>496.18000000000001</ele>
        <time>2015-11-09T15:06:33Z</time>
      </trkpt>
      <trkpt lat="29.882870754227042" lon="-6.245734663680196">
        <ele>496.18000000000001</ele>
        <time>2015-11-09T15:06:37Z</time>
      </trkpt>
      <trkpt lat="29.8833426553756" lon="-6.245801132172346">
        <ele>494.25999999999999</ele>
        <time>2015-11-09T15:06:43Z</time>
      </trkpt>
      <trkpt lat="29.883613474667072" lon="-6.245920993387699">
        <ele>493.29000000000002</ele>
        <time>2015-11-09T15:06:47Z</time>
      </trkpt>
      <trkpt lat="29.884416041895747" lon="-6.246506720781326">
        <ele>492.81</ele>
        <time>2015-11-09T15:06:59Z</time>
      </trkpt>
      <trkpt lat="29.884865647181869" lon="-6.246835123747587">
        <ele>493.29000000000002</ele>
        <time>2015-11-09T15:07:07Z</time>
      </trkpt>
      <trkpt lat="29.88537585362792" lon="-6.246736217290163">
        <ele>493.29000000000002</ele>
        <time>2015-11-09T15:07:15Z</time>
      </trkpt>
      <trkpt lat="29.885895363986492" lon="-6.246584756299853">
        <ele>492.81</ele>
        <time>2015-11-09T15:07:23Z</time>
      </trkpt>
      <trkpt lat="29.886156376451254" lon="-6.246545361354947">
        <ele>493.76999999999998</ele>
        <time>2015-11-09T15:07:27Z</time>
      </trkpt>
      <trkpt lat="29.886359050869942" lon="-6.246587438508868">
        <ele>494.25999999999999</ele>
        <time>2015-11-09T15:07:30Z</time>
      </trkpt>
      <trkpt lat="29.886604472994804" lon="-6.246701516211033">
        <ele>495.69999999999999</ele>
        <time>2015-11-09T15:07:34Z</time>
      </trkpt>
      <trkpt lat="29.886859869584441" lon="-6.24678885564208">
        <ele>495.69999999999999</ele>
        <time>2015-11-09T15:07:38Z</time>
      </trkpt>
      <trkpt lat="29.887148626148701" lon="-6.24705271795392">
        <ele>494.74000000000001</ele>
        <time>2015-11-09T15:07:43Z</time>
      </trkpt>
      <trkpt lat="29.887334620580077" lon="-6.247214404866099">
        <ele>494.25999999999999</ele>
        <time>2015-11-09T15:07:47Z</time>
      </trkpt>
      <trkpt lat="29.887611977756023" lon="-6.247454127296805">
        <ele>493.76999999999998</ele>
        <time>2015-11-09T15:07:53Z</time>
      </trkpt>
      <trkpt lat="29.887774419039488" lon="-6.247689742594957">
        <ele>494.25999999999999</ele>
        <time>2015-11-09T15:07:57Z</time>
      </trkpt>
      <trkpt lat="29.888277752324939" lon="-6.248088637366891">
        <ele>494.74000000000001</ele>
        <time>2015-11-09T15:08:07Z</time>
      </trkpt>
      <trkpt lat="29.888860378414392" lon="-6.248341351747513">
        <ele>494.74000000000001</ele>
        <time>2015-11-09T15:08:16Z</time>
      </trkpt>
      <trkpt lat="29.889070680364966" lon="-6.248517204076052">
        <ele>494.74000000000001</ele>
        <time>2015-11-09T15:08:20Z</time>
      </trkpt>
      <trkpt lat="29.889150476083159" lon="-6.248617703095079">
        <ele>493.76999999999998</ele>
        <time>2015-11-09T15:08:22Z</time>
      </trkpt>
      <trkpt lat="29.889228595420718" lon="-6.248754998669028">
        <ele>493.29000000000002</ele>
        <time>2015-11-09T15:08:25Z</time>
      </trkpt>
      <trkpt lat="29.889381984248757" lon="-6.248902939260006">
        <ele>492.81</ele>
        <time>2015-11-09T15:08:29Z</time>
      </trkpt>
      <trkpt lat="29.889881713315845" lon="-6.249032691121101">
        <ele>492.81</ele>
        <time>2015-11-09T15:08:37Z</time>
      </trkpt>
      <trkpt lat="29.890178684145212" lon="-6.249061105772853">
        <ele>492.81</ele>
        <time>2015-11-09T15:08:41Z</time>
      </trkpt>
      <trkpt lat="29.890701798722148" lon="-6.249219942837954">
        <ele>492.32999999999998</ele>
        <time>2015-11-09T15:08:48Z</time>
      </trkpt>
      <trkpt lat="29.890910843387246" lon="-6.249218685552478">
        <ele>492.32999999999998</ele>
        <time>2015-11-09T15:08:52Z</time>
      </trkpt>
      <trkpt lat="29.891277300193906" lon="-6.249097147956491">
        <ele>492.81</ele>
        <time>2015-11-09T15:08:58Z</time>
      </trkpt>
      <trkpt lat="29.891545102000237" lon="-6.248925654217601">
        <ele>493.29000000000002</ele>
        <time>2015-11-09T15:09:02Z</time>
      </trkpt>
      <trkpt lat="29.891862608492374" lon="-6.248614937067032">
        <ele>492.81</ele>
        <time>2015-11-09T15:09:07Z</time>
      </trkpt>
      <trkpt lat="29.892326295375824" lon="-6.248442437499762">
        <ele>492.81</ele>
        <time>2015-11-09T15:09:14Z</time>
      </trkpt>
      <trkpt lat="29.89273214712739" lon="-6.24834856018424">
        <ele>492.81</ele>
        <time>2015-11-09T15:09:20Z</time>
      </trkpt>
      <trkpt lat="29.892901964485645" lon="-6.248371191322804">
        <ele>493.29000000000002</ele>
        <time>2015-11-09T15:09:22Z</time>
      </trkpt>
      <trkpt lat="29.893236234784126" lon="-6.248320732265711">
        <ele>493.29000000000002</ele>
        <time>2015-11-09T15:09:26Z</time>
      </trkpt>
      <trkpt lat="29.893456427380443" lon="-6.248228531330824">
        <ele>493.29000000000002</ele>
        <time>2015-11-09T15:09:29Z</time>
      </trkpt>
      <trkpt lat="29.893967555835843" lon="-6.248343950137496">
        <ele>493.29000000000002</ele>
        <time>2015-11-09T15:09:36Z</time>
      </trkpt>
      <trkpt lat="29.894141396507621" lon="-6.248535895720124">
        <ele>493.29000000000002</ele>
        <time>2015-11-09T15:09:43Z</time>
      </trkpt>
      <trkpt lat="29.89466467872262" lon="-6.24893001280725">
        <ele>493.76999999999998</ele>
        <time>2015-11-09T15:09:53Z</time>
      </trkpt>
      <trkpt lat="29.894733745604753" lon="-6.248980723321438">
        <ele>493.29000000000002</ele>
        <time>2015-11-09T15:09:54Z</time>
      </trkpt>
      <trkpt lat="29.895289046689868" lon="-6.24937953427434">
        <ele>493.76999999999998</ele>
        <time>2015-11-09T15:10:02Z</time>
      </trkpt>
      <trkpt lat="29.895582078024745" lon="-6.249553877860308">
        <ele>493.29000000000002</ele>
        <time>2015-11-09T15:10:06Z</time>
      </trkpt>
      <trkpt lat="29.8957259953022" lon="-6.24965806491673">
        <ele>493.29000000000002</ele>
        <time>2015-11-09T15:10:08Z</time>
      </trkpt>
      <trkpt lat="29.896250870078802" lon="-6.249949252232909">
        <ele>493.76999999999998</ele>
        <time>2015-11-09T15:10:15Z</time>
      </trkpt>
      <trkpt lat="29.896568460389972" lon="-6.250150753185153">
        <ele>493.29000000000002</ele>
        <time>2015-11-09T15:10:19Z</time>
      </trkpt>
      <trkpt lat="29.896971713751554" lon="-6.250393493101001">
        <ele>493.76999999999998</ele>
        <time>2015-11-09T15:10:24Z</time>
      </trkpt>
      <trkpt lat="29.897132646292448" lon="-6.250483514741063">
        <ele>493.29000000000002</ele>
        <time>2015-11-09T15:10:26Z</time>
      </trkpt>
      <trkpt lat="29.897615108639002" lon="-6.250767409801483">
        <ele>493.29000000000002</ele>
        <time>2015-11-09T15:10:32Z</time>
      </trkpt>
      <trkpt lat="29.897965053096414" lon="-6.250940496101975">
        <ele>493.29000000000002</ele>
        <time>2015-11-09T15:10:37Z</time>
      </trkpt>
      <trkpt lat="29.898213157430291" lon="-6.251127077266574">
        <ele>493.29000000000002</ele>
        <time>2015-11-09T15:10:41Z</time>
      </trkpt>
      <trkpt lat="29.898677598685026" lon="-6.251428825780749">
        <ele>493.29000000000002</ele>
        <time>2015-11-09T15:10:50Z</time>
      </trkpt>
      <trkpt lat="29.898784467950463" lon="-6.251484146341682">
        <ele>493.76999999999998</ele>
        <time>2015-11-09T15:10:52Z</time>
      </trkpt>
      <trkpt lat="29.898972976952791" lon="-6.251592440530658">
        <ele>494.25999999999999</ele>
        <time>2015-11-09T15:10:55Z</time>
      </trkpt>
      <trkpt lat="29.899433897808194" lon="-6.251941211521626">
        <ele>494.74000000000001</ele>
        <time>2015-11-09T15:11:03Z</time>
      </trkpt>
      <trkpt lat="29.89971368573606" lon="-6.252142209559679">
        <ele>495.22000000000003</ele>
        <time>2015-11-09T15:11:08Z</time>
      </trkpt>
      <trkpt lat="29.89993211813271" lon="-6.2523293774575">
        <ele>495.69999999999999</ele>
        <time>2015-11-09T15:11:12Z</time>
      </trkpt>
      <trkpt lat="29.900571573525667" lon="-6.253000516444445">
        <ele>495.69999999999999</ele>
        <time>2015-11-09T15:11:24Z</time>
      </trkpt>
      <trkpt lat="29.901112038642168" lon="-6.253740470856428">
        <ele>496.18000000000001</ele>
        <time>2015-11-09T15:11:33Z</time>
      </trkpt>
      <trkpt lat="29.901403058320284" lon="-6.254131486639381">
        <ele>496.18000000000001</ele>
        <time>2015-11-09T15:11:37Z</time>
      </trkpt>
      <trkpt lat="29.901665411889553" lon="-6.254490064457059">
        <ele>495.69999999999999</ele>
        <time>2015-11-09T15:11:41Z</time>
      </trkpt>
      <trkpt lat="29.901818884536624" lon="-6.254760716110468">
        <ele>494.74000000000001</ele>
        <time>2015-11-09T15:11:44Z</time>
      </trkpt>
      <trkpt lat="29.901932962238789" lon="-6.254934892058373">
        <ele>493.76999999999998</ele>
        <time>2015-11-09T15:11:46Z</time>
      </trkpt>
      <trkpt lat="29.902214091271162" lon="-6.255262456834316">
        <ele>493.29000000000002</ele>
        <time>2015-11-09T15:11:50Z</time>
      </trkpt>
      <trkpt lat="29.902541907504201" lon="-6.25556998886168">
        <ele>493.29000000000002</ele>
        <time>2015-11-09T15:11:57Z</time>
      </trkpt>
      <trkpt lat="29.903034679591656" lon="-6.255958657711744">
        <ele>493.76999999999998</ele>
        <time>2015-11-09T15:12:05Z</time>
      </trkpt>
      <trkpt lat="29.903767928481102" lon="-6.256325952708721">
        <ele>493.76999999999998</ele>
        <time>2015-11-09T15:12:15Z</time>
      </trkpt>
      <trkpt lat="29.904331276193261" lon="-6.256659971550107">
        <ele>493.76999999999998</ele>
        <time>2015-11-09T15:12:23Z</time>
      </trkpt>
      <trkpt lat="29.904376789927483" lon="-6.256722500547767">
        <ele>494.25999999999999</ele>
        <time>2015-11-09T15:12:24Z</time>
      </trkpt>
      <trkpt lat="29.90449589677155" lon="-6.256933137774468">
        <ele>494.25999999999999</ele>
        <time>2015-11-09T15:12:27Z</time>
      </trkpt>
      <trkpt lat="29.904825473204255" lon="-6.257429514080286">
        <ele>494.74000000000001</ele>
        <time>2015-11-09T15:12:34Z</time>
      </trkpt>
      <trkpt lat="29.904905520379543" lon="-6.257587848231196">
        <ele>496.18000000000001</ele>
        <time>2015-11-09T15:12:36Z</time>
      </trkpt>
      <trkpt lat="29.905303744599223" lon="-6.258840523660183">
        <ele>496.18000000000001</ele>
        <time>2015-11-09T15:12:48Z</time>
      </trkpt>
      <trkpt lat="29.905492002144456" lon="-6.259387945756316">
        <ele>497.13999999999999</ele>
        <time>2015-11-09T15:12:53Z</time>
      </trkpt>
      <trkpt lat="29.905639356002212" lon="-6.259849285706878">
        <ele>497.13999999999999</ele>
        <time>2015-11-09T15:12:58Z</time>
      </trkpt>
      <trkpt lat="29.906064067035913" lon="-6.2608911562711">
        <ele>496.66000000000003</ele>
        <time>2015-11-09T15:13:08Z</time>
      </trkpt>
      <trkpt lat="29.906225753948092" lon="-6.261120233684778">
        <ele>496.18000000000001</ele>
        <time>2015-11-09T15:13:11Z</time>
      </trkpt>
      <trkpt lat="29.90641132928431" lon="-6.261332295835018">
        <ele>496.18000000000001</ele>
        <time>2015-11-09T15:13:18Z</time>
      </trkpt>
      <trkpt lat="29.906524987891316" lon="-6.261434135958552">
        <ele>496.18000000000001</ele>
        <time>2015-11-09T15:13:21Z</time>
      </trkpt>
      <trkpt lat="29.906736295670271" lon="-6.261526923626661">
        <ele>496.18000000000001</ele>
        <time>2015-11-09T15:13:25Z</time>
      </trkpt>
      <trkpt lat="29.906915752217174" lon="-6.261535221710801">
        <ele>495.22000000000003</ele>
        <time>2015-11-09T15:13:28Z</time>
      </trkpt>
      <trkpt lat="29.907166287302971" lon="-6.261501358821988">
        <ele>495.22000000000003</ele>
        <time>2015-11-09T15:13:32Z</time>
      </trkpt>
      <trkpt lat="29.907354880124331" lon="-6.261503538116813">
        <ele>494.74000000000001</ele>
        <time>2015-11-09T15:13:35Z</time>
      </trkpt>
      <trkpt lat="29.907484967261553" lon="-6.261523319408298">
        <ele>494.25999999999999</ele>
        <time>2015-11-09T15:13:37Z</time>
      </trkpt>
      <trkpt lat="29.90832818672061" lon="-6.261984826996923">
        <ele>494.74000000000001</ele>
        <time>2015-11-09T15:13:48Z</time>
      </trkpt>
      <trkpt lat="29.909175429493189" lon="-6.262400737032294">
        <ele>494.25999999999999</ele>
        <time>2015-11-09T15:13:57Z</time>
      </trkpt>
      <trkpt lat="29.909273916855454" lon="-6.262469133362174">
        <ele>493.76999999999998</ele>
        <time>2015-11-09T15:13:58Z</time>
      </trkpt>
      <trkpt lat="29.910107245668769" lon="-6.263490552082658">
        <ele>494.74000000000001</ele>
        <time>2015-11-09T15:14:08Z</time>
      </trkpt>
      <trkpt lat="29.910405809059739" lon="-6.264021210372448">
        <ele>494.74000000000001</ele>
        <time>2015-11-09T15:14:13Z</time>
      </trkpt>
      <trkpt lat="29.910830771550536" lon="-6.264466205611825">
        <ele>494.74000000000001</ele>
        <time>2015-11-09T15:14:18Z</time>
      </trkpt>
      <trkpt lat="29.911193707957864" lon="-6.264713387936354">
        <ele>495.22000000000003</ele>
        <time>2015-11-09T15:14:22Z</time>
      </trkpt>
      <trkpt lat="29.911664770916104" lon="-6.265220576897264">
        <ele>495.69999999999999</ele>
        <time>2015-11-09T15:14:30Z</time>
      </trkpt>
      <trkpt lat="29.911795863881707" lon="-6.265605809167028">
        <ele>496.18000000000001</ele>
        <time>2015-11-09T15:14:34Z</time>
      </trkpt>
      <trkpt lat="29.911823188886046" lon="-6.266324808821082">
        <ele>496.66000000000003</ele>
        <time>2015-11-09T15:14:42Z</time>
      </trkpt>
      <trkpt lat="29.911983199417591" lon="-6.267055459320545">
        <ele>497.62</ele>
        <time>2015-11-09T15:14:51Z</time>
      </trkpt>
      <trkpt lat="29.912049919366837" lon="-6.267749983817339">
        <ele>497.62</ele>
        <time>2015-11-09T15:14:57Z</time>
      </trkpt>
      <trkpt lat="29.91216542199254" lon="-6.268129935488105">
        <ele>497.62</ele>
        <time>2015-11-09T15:15:01Z</time>
      </trkpt>
      <trkpt lat="29.912291318178177" lon="-6.26837644726038">
        <ele>497.62</ele>
        <time>2015-11-09T15:15:05Z</time>
      </trkpt>
      <trkpt lat="29.912408832460642" lon="-6.268599908798933">
        <ele>498.10000000000002</ele>
        <time>2015-11-09T15:15:09Z</time>
      </trkpt>
      <trkpt lat="29.912473456934094" lon="-6.269015986472368">
        <ele>497.62</ele>
        <time>2015-11-09T15:15:15Z</time>
      </trkpt>
      <trkpt lat="29.912434481084347" lon="-6.269918633624911">
        <ele>497.62</ele>
        <time>2015-11-09T15:15:24Z</time>
      </trkpt>
      <trkpt lat="29.912452837452292" lon="-6.270547779276967">
        <ele>498.10000000000002</ele>
        <time>2015-11-09T15:15:29Z</time>
      </trkpt>
      <trkpt lat="29.912316966801882" lon="-6.271618064492941">
        <ele>497.62</ele>
        <time>2015-11-09T15:15:38Z</time>
      </trkpt>
      <trkpt lat="29.912256533280015" lon="-6.272111926227808">
        <ele>498.10000000000002</ele>
        <time>2015-11-09T15:15:42Z</time>
      </trkpt>
      <trkpt lat="29.912152513861656" lon="-6.272648116573691">
        <ele>496.66000000000003</ele>
        <time>2015-11-09T15:15:48Z</time>
      </trkpt>
      <trkpt lat="29.912183275446296" lon="-6.272861268371344">
        <ele>496.18000000000001</ele>
        <time>2015-11-09T15:15:51Z</time>
      </trkpt>
      <trkpt lat="29.912172965705395" lon="-6.273343227803707">
        <ele>496.18000000000001</ele>
        <time>2015-11-09T15:15:58Z</time>
      </trkpt>
      <trkpt lat="29.912200374528766" lon="-6.273805154487491">
        <ele>496.18000000000001</ele>
        <time>2015-11-09T15:16:04Z</time>
      </trkpt>
      <trkpt lat="29.912527017295361" lon="-6.274776700884104">
        <ele>496.18000000000001</ele>
        <time>2015-11-09T15:16:16Z</time>
      </trkpt>
      <trkpt lat="29.91295943967998" lon="-6.275565102696419">
        <ele>496.66000000000003</ele>
        <time>2015-11-09T15:16:24Z</time>
      </trkpt>
      <trkpt lat="29.913269570097327" lon="-6.276085032150149">
        <ele>496.18000000000001</ele>
        <time>2015-11-09T15:16:31Z</time>
      </trkpt>
      <trkpt lat="29.913353389129043" lon="-6.276229117065668">
        <ele>496.18000000000001</ele>
        <time>2015-11-09T15:16:33Z</time>
      </trkpt>
      <trkpt lat="29.91343142464757" lon="-6.276387451216579">
        <ele>495.22000000000003</ele>
        <time>2015-11-09T15:16:35Z</time>
      </trkpt>
      <trkpt lat="29.913631500676274" lon="-6.2766885291785">
        <ele>495.22000000000003</ele>
        <time>2015-11-09T15:16:39Z</time>
      </trkpt>
      <trkpt lat="29.914104407653213" lon="-6.277326308190823">
        <ele>494.74000000000001</ele>
        <time>2015-11-09T15:16:47Z</time>
      </trkpt>
      <trkpt lat="29.914227286353707" lon="-6.277499059215188">
        <ele>493.29000000000002</ele>
        <time>2015-11-09T15:16:49Z</time>
      </trkpt>
      <trkpt lat="29.915027339011431" lon="-6.278363484889269">
        <ele>491.37</ele>
        <time>2015-11-09T15:17:00Z</time>
      </trkpt>
      <trkpt lat="29.915364040061831" lon="-6.278538499027491">
        <ele>489.44999999999999</ele>
        <time>2015-11-09T15:17:04Z</time>
      </trkpt>
      <trkpt lat="29.915585489943624" lon="-6.278581079095602">
        <ele>488.49000000000001</ele>
        <time>2015-11-09T15:17:07Z</time>
      </trkpt>
      <trkpt lat="29.915816411375999" lon="-6.278517879545689">
        <ele>488.97000000000003</ele>
        <time>2015-11-09T15:17:11Z</time>
      </trkpt>
      <trkpt lat="29.915915485471487" lon="-6.278500193729997">
        <ele>488.97000000000003</ele>
        <time>2015-11-09T15:17:15Z</time>
      </trkpt>
      <trkpt lat="29.916236512362957" lon="-6.278570434078574">
        <ele>488.49000000000001</ele>
        <time>2015-11-09T15:17:21Z</time>
      </trkpt>
      <trkpt lat="29.916944615542889" lon="-6.278389887884259">
        <ele>486.56</ele>
        <time>2015-11-09T15:17:33Z</time>
      </trkpt>
      <trkpt lat="29.917416851967573" lon="-6.278187716379762">
        <ele>487.05000000000001</ele>
        <time>2015-11-09T15:17:39Z</time>
      </trkpt>
      <trkpt lat="29.917777189984918" lon="-6.278134910389781">
        <ele>487.05000000000001</ele>
        <time>2015-11-09T15:17:43Z</time>
      </trkpt>
      <trkpt lat="29.918407928198576" lon="-6.277883788570762">
        <ele>487.05000000000001</ele>
        <time>2015-11-09T15:17:51Z</time>
      </trkpt>
      <trkpt lat="29.919445188716054" lon="-6.277647335082293">
        <ele>486.56</ele>
        <time>2015-11-09T15:18:02Z</time>
      </trkpt>
      <trkpt lat="29.919886495918036" lon="-6.277398392558098">
        <ele>487.05000000000001</ele>
        <time>2015-11-09T15:18:10Z</time>
      </trkpt>
      <trkpt lat="29.920358313247561" lon="-6.277238549664617">
        <ele>487.52999999999997</ele>
        <time>2015-11-09T15:18:19Z</time>
      </trkpt>
      <trkpt lat="29.920643465593457" lon="-6.277122376486659">
        <ele>487.05000000000001</ele>
        <time>2015-11-09T15:18:23Z</time>
      </trkpt>
      <trkpt lat="29.920896766707301" lon="-6.277046352624893">
        <ele>487.52999999999997</ele>
        <time>2015-11-09T15:18:26Z</time>
      </trkpt>
      <trkpt lat="29.921257775276899" lon="-6.27700905315578">
        <ele>487.05000000000001</ele>
        <time>2015-11-09T15:18:30Z</time>
      </trkpt>
      <trkpt lat="29.921621046960354" lon="-6.277120867744088">
        <ele>487.05000000000001</ele>
        <time>2015-11-09T15:18:35Z</time>
      </trkpt>
      <trkpt lat="29.922271817922592" lon="-6.277650520205498">
        <ele>486.07999999999998</ele>
        <time>2015-11-09T15:18:45Z</time>
      </trkpt>
      <trkpt lat="29.922668198123574" lon="-6.278012786060572">
        <ele>486.07999999999998</ele>
        <time>2015-11-09T15:18:50Z</time>
      </trkpt>
      <trkpt lat="29.923272365704179" lon="-6.278476808220148">
        <ele>485.60000000000002</ele>
        <time>2015-11-09T15:19:00Z</time>
      </trkpt>
      <trkpt lat="29.923607055097818" lon="-6.278707562014461">
        <ele>485.12</ele>
        <time>2015-11-09T15:19:05Z</time>
      </trkpt>
      <trkpt lat="29.924070239067078" lon="-6.27887561917305">
        <ele>485.12</ele>
        <time>2015-11-09T15:19:12Z</time>
      </trkpt>
      <trkpt lat="29.924221029505134" lon="-6.278905626386404">
        <ele>485.60000000000002</ele>
        <time>2015-11-09T15:19:14Z</time>
      </trkpt>
      <trkpt lat="29.924616403877735" lon="-6.278902105987072">
        <ele>485.60000000000002</ele>
        <time>2015-11-09T15:19:19Z</time>
      </trkpt>
      <trkpt lat="29.925426682457328" lon="-6.27900805324316">
        <ele>485.60000000000002</ele>
        <time>2015-11-09T15:19:27Z</time>
      </trkpt>
      <trkpt lat="29.925969494506717" lon="-6.27922497689724">
        <ele>486.07999999999998</ele>
        <time>2015-11-09T15:19:36Z</time>
      </trkpt>
      <trkpt lat="29.926019366830587" lon="-6.279246602207422">
        <ele>486.56</ele>
        <time>2015-11-09T15:19:37Z</time>
      </trkpt>
      <trkpt lat="29.926101425662637" lon="-6.279289433732629">
        <ele>487.05000000000001</ele>
        <time>2015-11-09T15:19:39Z</time>
      </trkpt>
      <trkpt lat="29.926262106746435" lon="-6.27946930937469">
        <ele>487.05000000000001</ele>
        <time>2015-11-09T15:19:43Z</time>
      </trkpt>
      <trkpt lat="29.926822185516357" lon="-6.280240612104535">
        <ele>486.56</ele>
        <time>2015-11-09T15:19:53Z</time>
      </trkpt>
      <trkpt lat="29.927042042836547" lon="-6.280471114441752">
        <ele>486.07999999999998</ele>
        <time>2015-11-09T15:19:57Z</time>
      </trkpt>
      <trkpt lat="29.927338426932693" lon="-6.280882330611348">
        <ele>486.56</ele>
        <time>2015-11-09T15:20:03Z</time>
      </trkpt>
      <trkpt lat="29.927980145439506" lon="-6.281509883701801">
        <ele>486.56</ele>
        <time>2015-11-09T15:20:11Z</time>
      </trkpt>
      <trkpt lat="29.928354062139988" lon="-6.281797969713807">
        <ele>486.56</ele>
        <time>2015-11-09T15:20:16Z</time>
      </trkpt>
      <trkpt lat="29.928961582481861" lon="-6.282201642170548">
        <ele>486.56</ele>
        <time>2015-11-09T15:20:24Z</time>
      </trkpt>
      <trkpt lat="29.929306330159307" lon="-6.282588802278042">
        <ele>486.56</ele>
        <time>2015-11-09T15:20:29Z</time>
      </trkpt>
      <trkpt lat="29.929487463086843" lon="-6.283205794170499">
        <ele>487.05000000000001</ele>
        <time>2015-11-09T15:20:35Z</time>
      </trkpt>
      <trkpt lat="29.930106801912189" lon="-6.283776853233576">
        <ele>487.52999999999997</ele>
        <time>2015-11-09T15:20:43Z</time>
      </trkpt>
      <trkpt lat="29.930191375315189" lon="-6.283846339210868">
        <ele>487.52999999999997</ele>
        <time>2015-11-09T15:20:44Z</time>
      </trkpt>
      <trkpt lat="29.930419363081455" lon="-6.28411028534174">
        <ele>487.05000000000001</ele>
        <time>2015-11-09T15:20:47Z</time>
      </trkpt>
      <trkpt lat="29.930637627840042" lon="-6.284445393830538">
        <ele>486.56</ele>
        <time>2015-11-09T15:20:51Z</time>
      </trkpt>
      <trkpt lat="29.930940801277757" lon="-6.285160034894943">
        <ele>486.56</ele>
        <time>2015-11-09T15:20:58Z</time>
      </trkpt>
      <trkpt lat="29.931333577260375" lon="-6.285706786438823">
        <ele>485.60000000000002</ele>
        <time>2015-11-09T15:21:04Z</time>
      </trkpt>
      <trkpt lat="29.932237900793552" lon="-6.286328388378024">
        <ele>485.60000000000002</ele>
        <time>2015-11-09T15:21:14Z</time>
      </trkpt>
      <trkpt lat="29.932865537703037" lon="-6.286797188222408">
        <ele>485.60000000000002</ele>
        <time>2015-11-09T15:21:20Z</time>
      </trkpt>
      <trkpt lat="29.933173656463623" lon="-6.286917636170983">
        <ele>485.12</ele>
        <time>2015-11-09T15:21:23Z</time>
      </trkpt>
      <trkpt lat="29.933740105479956" lon="-6.287105306982994">
        <ele>485.60000000000002</ele>
        <time>2015-11-09T15:21:30Z</time>
      </trkpt>
      <trkpt lat="29.933810094371438" lon="-6.287171021103859">
        <ele>485.60000000000002</ele>
        <time>2015-11-09T15:21:32Z</time>
      </trkpt>
      <trkpt lat="29.934025341644883" lon="-6.287506464868784">
        <ele>486.07999999999998</ele>
        <time>2015-11-09T15:21:38Z</time>
      </trkpt>
      <trkpt lat="29.934310745447874" lon="-6.287761693820357">
        <ele>486.07999999999998</ele>
        <time>2015-11-09T15:21:43Z</time>
      </trkpt>
      <trkpt lat="29.934491207823157" lon="-6.288005104288459">
        <ele>486.07999999999998</ele>
        <time>2015-11-09T15:21:47Z</time>
      </trkpt>
      <trkpt lat="29.934541415423155" lon="-6.288154805079103">
        <ele>486.56</ele>
        <time>2015-11-09T15:21:49Z</time>
      </trkpt>
      <trkpt lat="29.934901082888246" lon="-6.288851257413626">
        <ele>486.07999999999998</ele>
        <time>2015-11-09T15:21:59Z</time>
      </trkpt>
      <trkpt lat="29.935062518343329" lon="-6.289063990116119">
        <ele>485.12</ele>
        <time>2015-11-09T15:22:04Z</time>
      </trkpt>
      <trkpt lat="29.935634164139628" lon="-6.289836214855313">
        <ele>485.60000000000002</ele>
        <time>2015-11-09T15:22:15Z</time>
      </trkpt>
      <trkpt lat="29.936127522960305" lon="-6.290606176480651">
        <ele>485.60000000000002</ele>
        <time>2015-11-09T15:22:25Z</time>
      </trkpt>
      <trkpt lat="29.936639741063118" lon="-6.291746618226171">
        <ele>485.60000000000002</ele>
        <time>2015-11-09T15:22:36Z</time>
      </trkpt>
      <trkpt lat="29.936760608106852" lon="-6.292241318151355">
        <ele>485.12</ele>
        <time>2015-11-09T15:22:41Z</time>
      </trkpt>
      <trkpt lat="29.936774019151926" lon="-6.292787482962012">
        <ele>485.12</ele>
        <time>2015-11-09T15:22:46Z</time>
      </trkpt>
      <trkpt lat="29.936753567308187" lon="-6.293003233149648">
        <ele>485.12</ele>
        <time>2015-11-09T15:22:48Z</time>
      </trkpt>
      <trkpt lat="29.936830513179302" lon="-6.293405145406723">
        <ele>485.60000000000002</ele>
        <time>2015-11-09T15:22:52Z</time>
      </trkpt>
      <trkpt lat="29.937309455126524" lon="-6.294362610206008">
        <ele>486.56</ele>
        <time>2015-11-09T15:23:01Z</time>
      </trkpt>
      <trkpt lat="29.937550770118833" lon="-6.295324182137847">
        <ele>486.56</ele>
        <time>2015-11-09T15:23:09Z</time>
      </trkpt>
      <trkpt lat="29.937563929706812" lon="-6.295698685571551">
        <ele>486.56</ele>
        <time>2015-11-09T15:23:12Z</time>
      </trkpt>
      <trkpt lat="29.937695860862732" lon="-6.296929903328419">
        <ele>486.07999999999998</ele>
        <time>2015-11-09T15:23:22Z</time>
      </trkpt>
      <trkpt lat="29.937787977978587" lon="-6.297808578237891">
        <ele>486.07999999999998</ele>
        <time>2015-11-09T15:23:30Z</time>
      </trkpt>
      <trkpt lat="29.938099114224315" lon="-6.298948852345347">
        <ele>486.07999999999998</ele>
        <time>2015-11-09T15:23:41Z</time>
      </trkpt>
      <trkpt lat="29.938399270176888" lon="-6.300097005441785">
        <ele>486.07999999999998</ele>
        <time>2015-11-09T15:23:53Z</time>
      </trkpt>
      <trkpt lat="29.938494237139821" lon="-6.300374949350953">
        <ele>486.07999999999998</ele>
        <time>2015-11-09T15:23:56Z</time>
      </trkpt>
      <trkpt lat="29.938744185492396" lon="-6.300843078643084">
        <ele>486.07999999999998</ele>
        <time>2015-11-09T15:24:01Z</time>
      </trkpt>
      <trkpt lat="29.939062111079693" lon="-6.301427381113172">
        <ele>485.60000000000002</ele>
        <time>2015-11-09T15:24:07Z</time>
      </trkpt>
      <trkpt lat="29.939554212614894" lon="-6.302039595320821">
        <ele>485.60000000000002</ele>
        <time>2015-11-09T15:24:15Z</time>
      </trkpt>
      <trkpt lat="29.939678935334086" lon="-6.302274456247687">
        <ele>486.07999999999998</ele>
        <time>2015-11-09T15:24:18Z</time>
      </trkpt>
      <trkpt lat="29.939992167055607" lon="-6.303207697346807">
        <ele>485.60000000000002</ele>
        <time>2015-11-09T15:24:27Z</time>
      </trkpt>
      <trkpt lat="29.940271200612187" lon="-6.305071581155062">
        <ele>486.56</ele>
        <time>2015-11-09T15:24:42Z</time>
      </trkpt>
      <trkpt lat="29.940411932766438" lon="-6.306345378980041">
        <ele>486.56</ele>
        <time>2015-11-09T15:24:51Z</time>
      </trkpt>
      <trkpt lat="29.940239936113358" lon="-6.307426812127233">
        <ele>487.52999999999997</ele>
        <time>2015-11-09T15:24:58Z</time>
      </trkpt>
      <trkpt lat="29.940165337175131" lon="-6.307825287804008">
        <ele>486.56</ele>
        <time>2015-11-09T15:25:01Z</time>
      </trkpt>
      <trkpt lat="29.939752863720059" lon="-6.308704968541861">
        <ele>487.05000000000001</ele>
        <time>2015-11-09T15:25:08Z</time>
      </trkpt>
      <trkpt lat="29.939161604270339" lon="-6.309353057295084">
        <ele>487.05000000000001</ele>
        <time>2015-11-09T15:25:14Z</time>
      </trkpt>
      <trkpt lat="29.938829429447651" lon="-6.310113966464996">
        <ele>487.52999999999997</ele>
        <time>2015-11-09T15:25:20Z</time>
      </trkpt>
      <trkpt lat="29.938679896295071" lon="-6.311579961329699">
        <ele>487.52999999999997</ele>
        <time>2015-11-09T15:25:30Z</time>
      </trkpt>
      <trkpt lat="29.938633544370532" lon="-6.311891181394458">
        <ele>487.52999999999997</ele>
        <time>2015-11-09T15:25:32Z</time>
      </trkpt>
      <trkpt lat="29.938658187165856" lon="-6.312543209642172">
        <ele>487.05000000000001</ele>
        <time>2015-11-09T15:25:36Z</time>
      </trkpt>
      <trkpt lat="29.938824819400907" lon="-6.313256090506911">
        <ele>486.07999999999998</ele>
        <time>2015-11-09T15:25:41Z</time>
      </trkpt>
      <trkpt lat="29.938972257077694" lon="-6.314833983778954">
        <ele>486.07999999999998</ele>
        <time>2015-11-09T15:25:52Z</time>
      </trkpt>
      <trkpt lat="29.93897988460958" lon="-6.314991982653737">
        <ele>485.12</ele>
        <time>2015-11-09T15:25:53Z</time>
      </trkpt>
      <trkpt lat="29.939491096884012" lon="-6.317131211981177">
        <ele>484.63999999999999</ele>
        <time>2015-11-09T15:26:06Z</time>
      </trkpt>
      <trkpt lat="29.940026365220547" lon="-6.319038681685925">
        <ele>485.12</ele>
        <time>2015-11-09T15:26:17Z</time>
      </trkpt>
      <trkpt lat="29.940888863056898" lon="-6.321119237691164">
        <ele>484.16000000000003</ele>
        <time>2015-11-09T15:26:29Z</time>
      </trkpt>
      <trkpt lat="29.941359842196107" lon="-6.322875078767538">
        <ele>485.12</ele>
        <time>2015-11-09T15:26:39Z</time>
      </trkpt>
      <trkpt lat="29.941392950713634" lon="-6.323032910004258">
        <ele>484.63999999999999</ele>
        <time>2015-11-09T15:26:40Z</time>
      </trkpt>
      <trkpt lat="29.941607108339667" lon="-6.323476983234286">
        <ele>485.12</ele>
        <time>2015-11-09T15:26:44Z</time>
      </trkpt>
      <trkpt lat="29.942042464390397" lon="-6.324746506288648">
        <ele>484.63999999999999</ele>
        <time>2015-11-09T15:26:54Z</time>
      </trkpt>
      <trkpt lat="29.942484777420759" lon="-6.326228426769376">
        <ele>484.63999999999999</ele>
        <time>2015-11-09T15:27:03Z</time>
      </trkpt>
      <trkpt lat="29.942793566733599" lon="-6.326816333457828">
        <ele>484.63999999999999</ele>
        <time>2015-11-09T15:27:07Z</time>
      </trkpt>
      <trkpt lat="29.94281904771924" lon="-6.327571459114552">
        <ele>484.63999999999999</ele>
        <time>2015-11-09T15:27:13Z</time>
      </trkpt>
      <trkpt lat="29.9429817404598" lon="-6.328199934214354">
        <ele>483.68000000000001</ele>
        <time>2015-11-09T15:27:18Z</time>
      </trkpt>
      <trkpt lat="29.94314300827682" lon="-6.328421887010336">
        <ele>484.16000000000003</ele>
        <time>2015-11-09T15:27:20Z</time>
      </trkpt>
      <trkpt lat="29.944130145013332" lon="-6.329991985112429">
        <ele>484.16000000000003</ele>
        <time>2015-11-09T15:27:32Z</time>
      </trkpt>
      <trkpt lat="29.944925839081407" lon="-6.331697618588805">
        <ele>484.16000000000003</ele>
        <time>2015-11-09T15:27:44Z</time>
      </trkpt>
      <trkpt lat="29.9451644718647" lon="-6.332741249352694">
        <ele>483.68000000000001</ele>
        <time>2015-11-09T15:27:52Z</time>
      </trkpt>
      <trkpt lat="29.945410983636975" lon="-6.333795608952642">
        <ele>484.16000000000003</ele>
        <time>2015-11-09T15:28:02Z</time>
      </trkpt>
      <trkpt lat="29.945518271997571" lon="-6.334131304174662">
        <ele>483.68000000000001</ele>
        <time>2015-11-09T15:28:06Z</time>
      </trkpt>
      <trkpt lat="29.946223776787519" lon="-6.335210977122188">
        <ele>483.19999999999999</ele>
        <time>2015-11-09T15:28:18Z</time>
      </trkpt>
      <trkpt lat="29.946843283250928" lon="-6.335890162736177">
        <ele>482.72000000000003</ele>
        <time>2015-11-09T15:28:26Z</time>
      </trkpt>
      <trkpt lat="29.947160789743066" lon="-6.336432555690408">
        <ele>482.72000000000003</ele>
        <time>2015-11-09T15:28:33Z</time>
      </trkpt>
      <trkpt lat="29.948096545413136" lon="-6.337469648569822">
        <ele>483.19999999999999</ele>
        <time>2015-11-09T15:28:45Z</time>
      </trkpt>
      <trkpt lat="29.948312463238835" lon="-6.337853204458952">
        <ele>484.63999999999999</ele>
        <time>2015-11-09T15:28:49Z</time>
      </trkpt>
      <trkpt lat="29.948481861501932" lon="-6.338397106155753">
        <ele>484.16000000000003</ele>
        <time>2015-11-09T15:28:54Z</time>
      </trkpt>
      <trkpt lat="29.948576828464866" lon="-6.339249210432172">
        <ele>484.63999999999999</ele>
        <time>2015-11-09T15:29:01Z</time>
      </trkpt>
      <trkpt lat="29.94874563999474" lon="-6.339802164584398">
        <ele>483.68000000000001</ele>
        <time>2015-11-09T15:29:06Z</time>
      </trkpt>
      <trkpt lat="29.94901729747653" lon="-6.340499203652144">
        <ele>484.16000000000003</ele>
        <time>2015-11-09T15:29:14Z</time>
      </trkpt>
      <trkpt lat="29.9491379968822" lon="-6.340982588008046">
        <ele>484.16000000000003</ele>
        <time>2015-11-09T15:29:23Z</time>
      </trkpt>
      <trkpt lat="29.949184684082866" lon="-6.341127008199692">
        <ele>484.16000000000003</ele>
        <time>2015-11-09T15:29:25Z</time>
      </trkpt>
      <trkpt lat="29.949244614690542" lon="-6.341415010392666">
        <ele>484.63999999999999</ele>
        <time>2015-11-09T15:29:30Z</time>
      </trkpt>
      <trkpt lat="29.949372941628098" lon="-6.341703850775957">
        <ele>483.68000000000001</ele>
        <time>2015-11-09T15:29:36Z</time>
      </trkpt>
      <trkpt lat="29.949640827253461" lon="-6.342236436903477">
        <ele>484.16000000000003</ele>
        <time>2015-11-09T15:29:46Z</time>
      </trkpt>
      <trkpt lat="29.949671756476164" lon="-6.342555284500122">
        <ele>482.72000000000003</ele>
        <time>2015-11-09T15:29:51Z</time>
      </trkpt>
      <trkpt lat="29.949808297678828" lon="-6.343021653592587">
        <ele>482.24000000000001</ele>
        <time>2015-11-09T15:29:58Z</time>
      </trkpt>
      <trkpt lat="29.950303919613361" lon="-6.34398490190506">
        <ele>482.72000000000003</ele>
        <time>2015-11-09T15:30:07Z</time>
      </trkpt>
      <trkpt lat="29.950557053089142" lon="-6.344516314566135">
        <ele>482.24000000000001</ele>
        <time>2015-11-09T15:30:12Z</time>
      </trkpt>
      <trkpt lat="29.950891155749559" lon="-6.345786927267909">
        <ele>482.24000000000001</ele>
        <time>2015-11-09T15:30:22Z</time>
      </trkpt>
      <trkpt lat="29.950934574007988" lon="-6.345925899222493">
        <ele>481.75999999999999</ele>
        <time>2015-11-09T15:30:23Z</time>
      </trkpt>
      <trkpt lat="29.951618872582912" lon="-6.347240014001727">
        <ele>481.27999999999997</ele>
        <time>2015-11-09T15:30:33Z</time>
      </trkpt>
      <trkpt lat="29.952649008482695" lon="-6.348953023552895">
        <ele>475.02999999999997</ele>
        <time>2015-11-09T15:30:46Z</time>
      </trkpt>
      <trkpt lat="29.953166171908379" lon="-6.3500683195889">
        <ele>473.11000000000001</ele>
        <time>2015-11-09T15:30:55Z</time>
      </trkpt>
      <trkpt lat="29.953396255150437" lon="-6.351281432434917">
        <ele>472.63</ele>
        <time>2015-11-09T15:31:04Z</time>
      </trkpt>
      <trkpt lat="29.953428274020553" lon="-6.352432686835527">
        <ele>473.11000000000001</ele>
        <time>2015-11-09T15:31:12Z</time>
      </trkpt>
      <trkpt lat="29.953495329245925" lon="-6.353532643988729">
        <ele>473.58999999999997</ele>
        <time>2019-03-15T09:36:26Z</time>
      </trkpt>
      <trkpt lat="29.95343598537147" lon="-6.353744454681873">
        <ele>473.58999999999997</ele>
        <time>2019-03-15T09:36:49Z</time>
      </trkpt>
      <trkpt lat="29.95325954630971" lon="-6.35462824255228">
        <ele>473.58999999999997</ele>
        <time>2019-03-15T09:36:57Z</time>
      </trkpt>
      <trkpt lat="29.952924689278007" lon="-6.355766588822007">
        <ele>474.06999999999999</ele>
        <time>2019-03-15T09:37:06Z</time>
      </trkpt>
      <trkpt lat="29.952447088435292" lon="-6.357098640874028">
        <ele>474.06999999999999</ele>
        <time>2019-03-15T09:37:18Z</time>
      </trkpt>
      <trkpt lat="29.952047858387232" lon="-6.358565557748079">
        <ele>474.06999999999999</ele>
        <time>2019-03-15T09:37:30Z</time>
      </trkpt>
      <trkpt lat="29.951731190085411" lon="-6.360056279227138">
        <ele>474.55000000000001</ele>
        <time>2019-03-15T09:37:42Z</time>
      </trkpt>
      <trkpt lat="29.951191395521164" lon="-6.36114751920104">
        <ele>475.02999999999997</ele>
        <time>2019-03-15T09:37:52Z</time>
      </trkpt>
      <trkpt lat="29.95101772248745" lon="-6.361476173624396">
        <ele>475.50999999999999</ele>
        <time>2019-03-15T09:37:55Z</time>
      </trkpt>
      <trkpt lat="29.950444819405675" lon="-6.362674618139863">
        <ele>475.50999999999999</ele>
        <time>2019-03-15T09:38:07Z</time>
      </trkpt>
      <trkpt lat="29.949979288503528" lon="-6.363590592518449">
        <ele>475.02999999999997</ele>
        <time>2019-03-15T09:38:17Z</time>
      </trkpt>
      <trkpt lat="29.949691034853458" lon="-6.36416869238019">
        <ele>475.50999999999999</ele>
        <time>2019-03-15T09:38:24Z</time>
      </trkpt>
      <trkpt lat="29.949381742626429" lon="-6.364958016201854">
        <ele>475.02999999999997</ele>
        <time>2019-03-15T09:38:32Z</time>
      </trkpt>
      <trkpt lat="29.949217876419425" lon="-6.365393875166774">
        <ele>475.02999999999997</ele>
        <time>2019-03-15T09:38:37Z</time>
      </trkpt>
      <trkpt lat="29.948770785704255" lon="-6.366448905318975">
        <ele>475.50999999999999</ele>
        <time>2019-03-15T09:38:47Z</time>
      </trkpt>
      <trkpt lat="29.948440957814455" lon="-6.367413243278861">
        <ele>475.50999999999999</ele>
        <time>2019-03-15T09:38:56Z</time>
      </trkpt>
      <trkpt lat="29.948009960353374" lon="-6.36868653818965">
        <ele>475.99000000000001</ele>
        <time>2019-03-15T09:39:07Z</time>
      </trkpt>
      <trkpt lat="29.947553314268589" lon="-6.36982798576355">
        <ele>476.47000000000003</ele>
        <time>2019-03-15T09:39:17Z</time>
      </trkpt>
      <trkpt lat="29.946833979338408" lon="-6.371670411899686">
        <ele>475.99000000000001</ele>
        <time>2019-03-15T09:39:31Z</time>
      </trkpt>
      <trkpt lat="29.946506330743432" lon="-6.372638689354062">
        <ele>475.99000000000001</ele>
        <time>2019-03-15T09:39:40Z</time>
      </trkpt>
      <trkpt lat="29.946053875610232" lon="-6.374158160760999">
        <ele>476.47000000000003</ele>
        <time>2019-03-15T09:39:52Z</time>
      </trkpt>
      <trkpt lat="29.945723544806242" lon="-6.375375129282475">
        <ele>475.99000000000001</ele>
        <time>2019-03-15T09:40:03Z</time>
      </trkpt>
      <trkpt lat="29.945461694151163" lon="-6.376484390348196">
        <ele>476.47000000000003</ele>
        <time>2019-03-15T09:40:13Z</time>
      </trkpt>
      <trkpt lat="29.945040419697762" lon="-6.377714350819588">
        <ele>475.99000000000001</ele>
        <time>2019-03-15T09:40:23Z</time>
      </trkpt>
      <trkpt lat="29.944525100290775" lon="-6.379290902987123">
        <ele>475.99000000000001</ele>
        <time>2019-03-15T09:40:35Z</time>
      </trkpt>
      <trkpt lat="29.944423930719495" lon="-6.379666244611144">
        <ele>476.47000000000003</ele>
        <time>2019-03-15T09:40:38Z</time>
      </trkpt>
      <trkpt lat="29.944325694814324" lon="-6.379968747496605">
        <ele>476.47000000000003</ele>
        <time>2019-03-15T09:40:41Z</time>
      </trkpt>
      <trkpt lat="29.944071723148227" lon="-6.380986897274852">
        <ele>475.50999999999999</ele>
        <time>2019-03-15T09:40:52Z</time>
      </trkpt>
      <trkpt lat="29.943743655458093" lon="-6.382160112261772">
        <ele>475.99000000000001</ele>
        <time>2019-03-15T09:41:05Z</time>
      </trkpt>
      <trkpt lat="29.943470070138574" lon="-6.383158648386598">
        <ele>475.99000000000001</ele>
        <time>2019-03-15T09:41:17Z</time>
      </trkpt>
      <trkpt lat="29.942853497341275" lon="-6.384904682636261">
        <ele>475.50999999999999</ele>
        <time>2019-03-15T09:41:32Z</time>
      </trkpt>
      <trkpt lat="29.942235918715596" lon="-6.386708552017808">
        <ele>475.50999999999999</ele>
        <time>2019-03-15T09:41:45Z</time>
      </trkpt>
      <trkpt lat="29.941335534676909" lon="-6.389407608658075">
        <ele>475.99000000000001</ele>
        <time>2019-03-15T09:42:02Z</time>
      </trkpt>
      <trkpt lat="29.940566327422857" lon="-6.391392443329096">
        <ele>475.02999999999997</ele>
        <time>2019-03-15T09:42:15Z</time>
      </trkpt>
      <trkpt lat="29.939790247008204" lon="-6.393258171156049">
        <ele>475.02999999999997</ele>
        <time>2019-03-15T09:42:28Z</time>
      </trkpt>
      <trkpt lat="29.939088094979525" lon="-6.394973946735263">
        <ele>475.50999999999999</ele>
        <time>2019-03-15T09:42:40Z</time>
      </trkpt>
      <trkpt lat="29.938262142241001" lon="-6.397318281233311">
        <ele>475.50999999999999</ele>
        <time>2019-03-15T09:42:55Z</time>
      </trkpt>
      <trkpt lat="29.937437865883112" lon="-6.399719780310988">
        <ele>475.50999999999999</ele>
        <time>2019-03-15T09:43:10Z</time>
      </trkpt>
      <trkpt lat="29.936432037502527" lon="-6.402723686769605">
        <ele>475.50999999999999</ele>
        <time>2019-03-15T09:43:28Z</time>
      </trkpt>
      <trkpt lat="29.935501981526613" lon="-6.4057407528162">
        <ele>475.02999999999997</ele>
        <time>2019-03-15T09:43:47Z</time>
      </trkpt>
      <trkpt lat="29.934890940785408" lon="-6.407771771773696">
        <ele>475.50999999999999</ele>
        <time>2019-03-15T09:44:01Z</time>
      </trkpt>
      <trkpt lat="29.934766637161374" lon="-6.408518850803375">
        <ele>475.02999999999997</ele>
        <time>2019-03-15T09:44:07Z</time>
      </trkpt>
      <trkpt lat="29.934687176719308" lon="-6.408816073089838">
        <ele>474.55000000000001</ele>
        <time>2019-03-15T09:44:11Z</time>
      </trkpt>
      <trkpt lat="29.934622384607792" lon="-6.408938784152269">
        <ele>473.58999999999997</ele>
        <time>2019-03-15T09:44:13Z</time>
      </trkpt>
      <trkpt lat="29.934307979419827" lon="-6.40996246598661">
        <ele>473.58999999999997</ele>
        <time>2019-03-15T09:44:22Z</time>
      </trkpt>
      <trkpt lat="29.933647736907005" lon="-6.412142599001527">
        <ele>472.13999999999999</ele>
        <time>2019-03-15T09:44:36Z</time>
      </trkpt>
      <trkpt lat="29.932892192155123" lon="-6.41472321934998">
        <ele>471.66000000000003</ele>
        <time>2019-03-15T09:44:51Z</time>
      </trkpt>
      <trkpt lat="29.932162379845977" lon="-6.417543897405267">
        <ele>471.66000000000003</ele>
        <time>2019-03-15T09:45:06Z</time>
      </trkpt>
      <trkpt lat="29.93108413182199" lon="-6.421347688883543">
        <ele>470.69999999999999</ele>
        <time>2019-03-15T09:45:26Z</time>
      </trkpt>
      <trkpt lat="29.93050460703671" lon="-6.423514997586608">
        <ele>470.22000000000003</ele>
        <time>2019-03-15T09:45:38Z</time>
      </trkpt>
      <trkpt lat="29.929876215755939" lon="-6.426062844693661">
        <ele>469.25999999999999</ele>
        <time>2019-03-15T09:45:53Z</time>
      </trkpt>
      <trkpt lat="29.929386796429753" lon="-6.427787421271205">
        <ele>468.30000000000001</ele>
        <time>2019-03-15T09:46:05Z</time>
      </trkpt>
      <trkpt lat="29.928756728768349" lon="-6.429724395275116">
        <ele>466.86000000000001</ele>
        <time>2019-03-15T09:46:19Z</time>
      </trkpt>
      <trkpt lat="29.928255574777722" lon="-6.431523151695728">
        <ele>466.86000000000001</ele>
        <time>2019-03-15T09:46:31Z</time>
      </trkpt>
      <trkpt lat="29.928166223689914" lon="-6.431851722300053">
        <ele>467.33999999999997</ele>
        <time>2019-03-15T09:46:37Z</time>
      </trkpt>
      <trkpt lat="29.928173180669546" lon="-6.431847363710403">
        <ele>467.81999999999999</ele>
        <time>2019-03-15T09:46:52Z</time>
      </trkpt>
      <trkpt lat="29.928129008039832" lon="-6.432003602385521">
        <ele>468.30000000000001</ele>
        <time>2019-03-15T09:47:21Z</time>
      </trkpt>
      <trkpt lat="29.927963884547353" lon="-6.432728134095669">
        <ele>467.81999999999999</ele>
        <time>2019-03-15T09:47:28Z</time>
      </trkpt>
      <trkpt lat="29.92755526676774" lon="-6.434578942134976">
        <ele>467.81999999999999</ele>
        <time>2019-03-15T09:47:40Z</time>
      </trkpt>
      <trkpt lat="29.927156623452902" lon="-6.436573080718517">
        <ele>467.33999999999997</ele>
        <time>2019-03-15T09:47:54Z</time>
      </trkpt>
      <trkpt lat="29.927036007866263" lon="-6.436980860307813">
        <ele>467.33999999999997</ele>
        <time>2019-03-15T09:47:57Z</time>
      </trkpt>
      <trkpt lat="29.926703665405512" lon="-6.438885815441608">
        <ele>467.33999999999997</ele>
        <time>2019-03-15T09:48:10Z</time>
      </trkpt>
      <trkpt lat="29.926261268556118" lon="-6.44023597240448">
        <ele>466.86000000000001</ele>
        <time>2019-03-15T09:48:19Z</time>
      </trkpt>
      <trkpt lat="29.925403632223606" lon="-6.442759511992335">
        <ele>467.33999999999997</ele>
        <time>2019-03-15T09:48:33Z</time>
      </trkpt>
      <trkpt lat="29.92463325150311" lon="-6.445053387433291">
        <ele>466.86000000000001</ele>
        <time>2019-03-15T09:48:46Z</time>
      </trkpt>
      <trkpt lat="29.924087757244706" lon="-6.446689870208502">
        <ele>467.81999999999999</ele>
        <time>2019-03-15T09:48:56Z</time>
      </trkpt>
      <trkpt lat="29.923065081238747" lon="-6.449724789708853">
        <ele>468.30000000000001</ele>
        <time>2019-03-15T09:49:13Z</time>
      </trkpt>
      <trkpt lat="29.922422775998712" lon="-6.451631085947156">
        <ele>468.30000000000001</ele>
        <time>2019-03-15T09:49:24Z</time>
      </trkpt>
      <trkpt lat="29.921488361433148" lon="-6.454600626602769">
        <ele>467.81999999999999</ele>
        <time>2019-03-15T09:49:40Z</time>
      </trkpt>
      <trkpt lat="29.920510109513998" lon="-6.458019269630313">
        <ele>467.33999999999997</ele>
        <time>2019-03-15T09:49:56Z</time>
      </trkpt>
      <trkpt lat="29.919550465419888" lon="-6.461408156901598">
        <ele>467.33999999999997</ele>
        <time>2019-03-15T09:50:12Z</time>
      </trkpt>
      <trkpt lat="29.919071607291698" lon="-6.462964089587331">
        <ele>466.86000000000001</ele>
        <time>2019-03-15T09:50:21Z</time>
      </trkpt>
      <trkpt lat="29.918576907366514" lon="-6.464443495497108">
        <ele>466.86000000000001</ele>
        <time>2019-03-15T09:50:30Z</time>
      </trkpt>
      <trkpt lat="29.917910629883409" lon="-6.46695077419281">
        <ele>467.33999999999997</ele>
        <time>2019-03-15T09:50:44Z</time>
      </trkpt>
      <trkpt lat="29.916858365759254" lon="-6.470622969791293">
        <ele>467.81999999999999</ele>
        <time>2019-03-15T09:51:04Z</time>
      </trkpt>
      <trkpt lat="29.915843401104212" lon="-6.473749335855246">
        <ele>468.30000000000001</ele>
        <time>2019-03-15T09:51:22Z</time>
      </trkpt>
      <trkpt lat="29.915142171084881" lon="-6.476344540715218">
        <ele>468.77999999999997</ele>
        <time>2019-03-15T09:51:37Z</time>
      </trkpt>
      <trkpt lat="29.914321498945355" lon="-6.479205116629601">
        <ele>469.25999999999999</ele>
        <time>2019-03-15T09:51:52Z</time>
      </trkpt>
      <trkpt lat="29.913700148463249" lon="-6.481407880783081">
        <ele>468.77999999999997</ele>
        <time>2019-03-15T09:52:04Z</time>
      </trkpt>
      <trkpt lat="29.913058429956436" lon="-6.4835309330374">
        <ele>468.30000000000001</ele>
        <time>2019-03-15T09:52:16Z</time>
      </trkpt>
      <trkpt lat="29.912403887137771" lon="-6.485948441550136">
        <ele>469.25999999999999</ele>
        <time>2019-03-15T09:52:30Z</time>
      </trkpt>
      <trkpt lat="29.911748506128788" lon="-6.487761028110981">
        <ele>468.30000000000001</ele>
        <time>2019-03-15T09:52:41Z</time>
      </trkpt>
      <trkpt lat="29.91105817258358" lon="-6.489085620269179">
        <ele>467.33999999999997</ele>
        <time>2019-03-15T09:52:50Z</time>
      </trkpt>
      <trkpt lat="29.910212522372603" lon="-6.490489253774285">
        <ele>467.33999999999997</ele>
        <time>2019-03-15T09:53:01Z</time>
      </trkpt>
      <trkpt lat="29.909518752247095" lon="-6.492095310240984">
        <ele>466.86000000000001</ele>
        <time>2019-03-15T09:53:12Z</time>
      </trkpt>
      <trkpt lat="29.908228609710932" lon="-6.494176452979446">
        <ele>466.86000000000001</ele>
        <time>2019-03-15T09:53:27Z</time>
      </trkpt>
      <trkpt lat="29.907080624252558" lon="-6.496286513283849">
        <ele>467.33999999999997</ele>
        <time>2019-03-15T09:53:41Z</time>
      </trkpt>
      <trkpt lat="29.905656203627586" lon="-6.498865038156509">
        <ele>466.86000000000001</ele>
        <time>2019-03-15T09:53:57Z</time>
      </trkpt>
      <trkpt lat="29.904567562043667" lon="-6.500838808715344">
        <ele>467.33999999999997</ele>
        <time>2019-03-15T09:54:09Z</time>
      </trkpt>
      <trkpt lat="29.903217237442732" lon="-6.502868235111237">
        <ele>466.86000000000001</ele>
        <time>2019-03-15T09:54:22Z</time>
      </trkpt>
      <trkpt lat="29.901653677225113" lon="-6.505168648436666">
        <ele>467.81999999999999</ele>
        <time>2019-03-15T09:54:36Z</time>
      </trkpt>
      <trkpt lat="29.900621613487601" lon="-6.506952820345759">
        <ele>468.30000000000001</ele>
        <time>2019-03-15T09:54:47Z</time>
      </trkpt>
      <trkpt lat="29.899779232218862" lon="-6.508515374734998">
        <ele>468.30000000000001</ele>
        <time>2019-03-15T09:54:58Z</time>
      </trkpt>
      <trkpt lat="29.8987393733114" lon="-6.510299881920219">
        <ele>468.77999999999997</ele>
        <time>2019-03-15T09:55:10Z</time>
      </trkpt>
      <trkpt lat="29.897512681782246" lon="-6.511743329465389">
        <ele>468.30000000000001</ele>
        <time>2019-03-15T09:55:21Z</time>
      </trkpt>
      <trkpt lat="29.895159043371677" lon="-6.514064194634557">
        <ele>467.81999999999999</ele>
        <time>2019-03-15T09:55:39Z</time>
      </trkpt>
      <trkpt lat="29.893633872270584" lon="-6.515596071258187">
        <ele>467.33999999999997</ele>
        <time>2019-03-15T09:55:52Z</time>
      </trkpt>
      <trkpt lat="29.8922014888376" lon="-6.517296172678471">
        <ele>467.81999999999999</ele>
        <time>2019-03-15T09:56:06Z</time>
      </trkpt>
      <trkpt lat="29.890984017401934" lon="-6.519148238003254">
        <ele>467.33999999999997</ele>
        <time>2019-03-15T09:56:19Z</time>
      </trkpt>
      <trkpt lat="29.889723882079124" lon="-6.520954538136721">
        <ele>467.33999999999997</ele>
        <time>2019-03-15T09:56:32Z</time>
      </trkpt>
      <trkpt lat="29.888710342347622" lon="-6.522403350099921">
        <ele>467.33999999999997</ele>
        <time>2019-03-15T09:56:44Z</time>
      </trkpt>
      <trkpt lat="29.888542536646128" lon="-6.522656315937638">
        <ele>467.33999999999997</ele>
        <time>2019-03-15T09:56:46Z</time>
      </trkpt>
      <trkpt lat="29.887436209246516" lon="-6.524063553661108">
        <ele>467.33999999999997</ele>
        <time>2019-03-15T09:56:57Z</time>
      </trkpt>
      <trkpt lat="29.885813975706697" lon="-6.526098931208253">
        <ele>467.33999999999997</ele>
        <time>2019-03-15T09:57:12Z</time>
      </trkpt>
      <trkpt lat="29.884136505424976" lon="-6.528294235467911">
        <ele>467.81999999999999</ele>
        <time>2019-03-15T09:57:28Z</time>
      </trkpt>
      <trkpt lat="29.882682329043746" lon="-6.530058039352298">
        <ele>467.81999999999999</ele>
        <time>2019-03-15T09:57:43Z</time>
      </trkpt>
      <trkpt lat="29.881440298631787" lon="-6.531809186562896">
        <ele>467.81999999999999</ele>
        <time>2019-03-15T09:57:56Z</time>
      </trkpt>
      <trkpt lat="29.880124256014824" lon="-6.53406685218215">
        <ele>466.86000000000001</ele>
        <time>2019-03-15T09:58:11Z</time>
      </trkpt>
      <trkpt lat="29.8785091470927" lon="-6.536869928240776">
        <ele>467.33999999999997</ele>
        <time>2019-03-15T09:58:29Z</time>
      </trkpt>
      <trkpt lat="29.877018928527832" lon="-6.539060538634658">
        <ele>467.33999999999997</ele>
        <time>2019-03-15T09:58:44Z</time>
      </trkpt>
      <trkpt lat="29.876001197844744" lon="-6.540085058659315">
        <ele>468.30000000000001</ele>
        <time>2019-03-15T09:58:53Z</time>
      </trkpt>
      <trkpt lat="29.874208308756351" lon="-6.541149476543069">
        <ele>468.30000000000001</ele>
        <time>2019-03-15T09:59:06Z</time>
      </trkpt>
      <trkpt lat="29.872993351891637" lon="-6.542280362918973">
        <ele>467.81999999999999</ele>
        <time>2019-03-15T09:59:16Z</time>
      </trkpt>
      <trkpt lat="29.871432390064001" lon="-6.544541213661432">
        <ele>467.81999999999999</ele>
        <time>2019-03-15T09:59:32Z</time>
      </trkpt>
      <trkpt lat="29.869947955012321" lon="-6.546960901468992">
        <ele>467.81999999999999</ele>
        <time>2019-03-15T09:59:47Z</time>
      </trkpt>
      <trkpt lat="29.868682958185673" lon="-6.548709031194449">
        <ele>468.30000000000001</ele>
        <time>2019-03-15T09:59:59Z</time>
      </trkpt>
      <trkpt lat="29.867609068751335" lon="-6.549912504851818">
        <ele>468.77999999999997</ele>
        <time>2019-03-15T10:00:09Z</time>
      </trkpt>
      <trkpt lat="29.866724861785769" lon="-6.550985891371965">
        <ele>468.30000000000001</ele>
        <time>2019-03-15T10:00:18Z</time>
      </trkpt>
      <trkpt lat="29.86542365513742" lon="-6.552539560943842">
        <ele>468.77999999999997</ele>
        <time>2019-03-15T10:00:30Z</time>
      </trkpt>
      <trkpt lat="29.864785959944129" lon="-6.553325280547142">
        <ele>468.77999999999997</ele>
        <time>2019-03-15T10:00:38Z</time>
      </trkpt>
      <trkpt lat="29.86407752148807" lon="-6.554332114756107">
        <ele>468.77999999999997</ele>
        <time>2019-03-15T10:00:47Z</time>
      </trkpt>
      <trkpt lat="29.863856323063374" lon="-6.554594971239567">
        <ele>468.77999999999997</ele>
        <time>2019-03-15T10:00:50Z</time>
      </trkpt>
      <trkpt lat="29.863727325573564" lon="-6.554808039218187">
        <ele>468.77999999999997</ele>
        <time>2019-03-15T10:00:52Z</time>
      </trkpt>
      <trkpt lat="29.86357125453651" lon="-6.555130742490292">
        <ele>468.77999999999997</ele>
        <time>2019-03-15T10:00:55Z</time>
      </trkpt>
      <trkpt lat="29.863237487152219" lon="-6.555547993630171">
        <ele>469.25999999999999</ele>
        <time>2019-03-15T10:01:00Z</time>
      </trkpt>
      <trkpt lat="29.862337522208691" lon="-6.556433374062181">
        <ele>468.77999999999997</ele>
        <time>2019-03-15T10:01:09Z</time>
      </trkpt>
      <trkpt lat="29.860818134620786" lon="-6.5581264346838">
        <ele>468.77999999999997</ele>
        <time>2019-03-15T10:01:22Z</time>
      </trkpt>
      <trkpt lat="29.859505696222186" lon="-6.55954641290009">
        <ele>469.25999999999999</ele>
        <time>2019-03-15T10:01:33Z</time>
      </trkpt>
      <trkpt lat="29.858314041048288" lon="-6.560899671167135">
        <ele>469.25999999999999</ele>
        <time>2019-03-15T10:01:43Z</time>
      </trkpt>
      <trkpt lat="29.856612598523498" lon="-6.563004199415445">
        <ele>468.77999999999997</ele>
        <time>2019-03-15T10:01:57Z</time>
      </trkpt>
      <trkpt lat="29.855103185400367" lon="-6.564519228413701">
        <ele>468.30000000000001</ele>
        <time>2019-03-15T10:02:09Z</time>
      </trkpt>
      <trkpt lat="29.854799760505557" lon="-6.564858192577958">
        <ele>467.81999999999999</ele>
        <time>2019-03-15T10:02:12Z</time>
      </trkpt>
      <trkpt lat="29.854099536314607" lon="-6.565967202186585">
        <ele>467.33999999999997</ele>
        <time>2019-03-15T10:02:22Z</time>
      </trkpt>
      <trkpt lat="29.853610955178738" lon="-6.566706737503409">
        <ele>467.33999999999997</ele>
        <time>2019-03-15T10:02:28Z</time>
      </trkpt>
      <trkpt lat="29.852880137041211" lon="-6.568547571077943">
        <ele>467.33999999999997</ele>
        <time>2019-03-15T10:02:40Z</time>
      </trkpt>
      <trkpt lat="29.852241184562445" lon="-6.570488233119249">
        <ele>466.86000000000001</ele>
        <time>2019-03-15T10:02:51Z</time>
      </trkpt>
      <trkpt lat="29.85171178355813" lon="-6.572404922917485">
        <ele>467.33999999999997</ele>
        <time>2019-03-15T10:03:01Z</time>
      </trkpt>
      <trkpt lat="29.85082489438355" lon="-6.574881942942739">
        <ele>468.30000000000001</ele>
        <time>2019-03-15T10:03:14Z</time>
      </trkpt>
      <trkpt lat="29.850043198093772" lon="-6.577108930796385">
        <ele>467.81999999999999</ele>
        <time>2019-03-15T10:03:27Z</time>
      </trkpt>
      <trkpt lat="29.849256137385964" lon="-6.579181272536516">
        <ele>468.30000000000001</ele>
        <time>2019-03-15T10:03:39Z</time>
      </trkpt>
      <trkpt lat="29.84861291013658" lon="-6.580825382843614">
        <ele>467.33999999999997</ele>
        <time>2019-03-15T10:03:49Z</time>
      </trkpt>
      <trkpt lat="29.848383748903871" lon="-6.58256814815104">
        <ele>467.33999999999997</ele>
        <time>2019-03-15T10:03:59Z</time>
      </trkpt>
      <trkpt lat="29.848356423899531" lon="-6.584276128560305">
        <ele>466.86000000000001</ele>
        <time>2019-03-15T10:04:09Z</time>
      </trkpt>
      <trkpt lat="29.848222229629755" lon="-6.586233889684081">
        <ele>467.33999999999997</ele>
        <time>2019-03-15T10:04:20Z</time>
      </trkpt>
      <trkpt lat="29.847728870809078" lon="-6.58833590336144">
        <ele>467.81999999999999</ele>
        <time>2019-03-15T10:04:32Z</time>
      </trkpt>
      <trkpt lat="29.847054295241833" lon="-6.590716782957315">
        <ele>467.81999999999999</ele>
        <time>2019-03-15T10:04:45Z</time>
      </trkpt>
      <trkpt lat="29.846162293106318" lon="-6.593640558421612">
        <ele>467.33999999999997</ele>
        <time>2019-03-15T10:05:00Z</time>
      </trkpt>
      <trkpt lat="29.845121428370476" lon="-6.596455201506615">
        <ele>467.33999999999997</ele>
        <time>2019-03-15T10:05:15Z</time>
      </trkpt>
      <trkpt lat="29.844868965446949" lon="-6.597933182492852">
        <ele>467.33999999999997</ele>
        <time>2019-03-15T10:05:24Z</time>
      </trkpt>
      <trkpt lat="29.844399746507406" lon="-6.59914000891149">
        <ele>468.30000000000001</ele>
        <time>2019-03-15T10:05:32Z</time>
      </trkpt>
      <trkpt lat="29.843791555613279" lon="-6.600359827280045">
        <ele>469.25999999999999</ele>
        <time>2019-03-15T10:05:40Z</time>
      </trkpt>
      <trkpt lat="29.843462985008955" lon="-6.601952221244574">
        <ele>470.22000000000003</ele>
        <time>2019-03-15T10:05:50Z</time>
      </trkpt>
      <trkpt lat="29.843483855947852" lon="-6.603622734546661">
        <ele>470.22000000000003</ele>
        <time>2019-03-15T10:06:00Z</time>
      </trkpt>
      <trkpt lat="29.84349399805069" lon="-6.604740545153618">
        <ele>469.25999999999999</ele>
        <time>2019-03-15T10:06:08Z</time>
      </trkpt>
      <trkpt lat="29.843526436015964" lon="-6.605797000229359">
        <ele>469.74000000000001</ele>
        <time>2019-03-15T10:06:17Z</time>
      </trkpt>
      <trkpt lat="29.843472959473729" lon="-6.60692285746336">
        <ele>469.74000000000001</ele>
        <time>2019-03-15T10:06:26Z</time>
      </trkpt>
      <trkpt lat="29.843460051342845" lon="-6.607168614864349">
        <ele>469.25999999999999</ele>
        <time>2019-03-15T10:06:28Z</time>
      </trkpt>
      <trkpt lat="29.843606147915125" lon="-6.608737204223871">
        <ele>469.25999999999999</ele>
        <time>2019-03-15T10:06:39Z</time>
      </trkpt>
      <trkpt lat="29.843776635825634" lon="-6.610305374488235">
        <ele>469.74000000000001</ele>
        <time>2019-03-15T10:06:50Z</time>
      </trkpt>
      <trkpt lat="29.84396112151444" lon="-6.61176910623908">
        <ele>471.18000000000001</ele>
        <time>2019-03-15T10:06:59Z</time>
      </trkpt>
      <trkpt lat="29.844183996319771" lon="-6.612626239657402">
        <ele>470.69999999999999</ele>
        <time>2019-03-15T10:07:06Z</time>
      </trkpt>
      <trkpt lat="29.844270665198565" lon="-6.612871326506138">
        <ele>471.66000000000003</ele>
        <time>2019-03-15T10:07:09Z</time>
      </trkpt>
      <trkpt lat="29.844536622986197" lon="-6.614085445180535">
        <ele>471.18000000000001</ele>
        <time>2019-03-15T10:07:19Z</time>
      </trkpt>
      <trkpt lat="29.844789421185851" lon="-6.614766474813223">
        <ele>471.18000000000001</ele>
        <time>2019-03-15T10:07:25Z</time>
      </trkpt>
      <trkpt lat="29.84489151276648" lon="-6.615103930234909">
        <ele>471.66000000000003</ele>
        <time>2019-03-15T10:07:28Z</time>
      </trkpt>
      <trkpt lat="29.844881622120738" lon="-6.615951592102647">
        <ele>472.13999999999999</ele>
        <time>2019-03-15T10:07:36Z</time>
      </trkpt>
      <trkpt lat="29.84494473785162" lon="-6.616995641961694">
        <ele>472.63</ele>
        <time>2019-03-15T10:07:46Z</time>
      </trkpt>
      <trkpt lat="29.844970721751451" lon="-6.618117224425077">
        <ele>472.63</ele>
        <time>2019-03-15T10:07:55Z</time>
      </trkpt>
      <trkpt lat="29.844920178875327" lon="-6.618537241593003">
        <ele>473.11000000000001</ele>
        <time>2019-03-15T10:07:58Z</time>
      </trkpt>
      <trkpt lat="29.844911964610219" lon="-6.619050968438387">
        <ele>472.63</ele>
        <time>2019-03-15T10:08:02Z</time>
      </trkpt>
      <trkpt lat="29.845011373981833" lon="-6.619398985058069">
        <ele>472.13999999999999</ele>
        <time>2019-03-15T10:08:06Z</time>
      </trkpt>
      <trkpt lat="29.845192339271307" lon="-6.619720431044698">
        <ele>472.13999999999999</ele>
        <time>2019-03-15T10:08:10Z</time>
      </trkpt>
      <trkpt lat="29.845296274870634" lon="-6.620105747133493">
        <ele>472.13999999999999</ele>
        <time>2019-03-15T10:08:14Z</time>
      </trkpt>
      <trkpt lat="29.845545887947083" lon="-6.621054746210575">
        <ele>473.11000000000001</ele>
        <time>2019-03-15T10:08:24Z</time>
      </trkpt>
      <trkpt lat="29.845611099153757" lon="-6.621388932690024">
        <ele>472.63</ele>
        <time>2019-03-15T10:08:27Z</time>
      </trkpt>
      <trkpt lat="29.845958026126027" lon="-6.622557789087296">
        <ele>473.58999999999997</ele>
        <time>2019-03-15T10:08:38Z</time>
      </trkpt>
      <trkpt lat="29.846006892621517" lon="-6.622867835685611">
        <ele>473.58999999999997</ele>
        <time>2019-03-15T10:08:42Z</time>
      </trkpt>
      <trkpt lat="29.846005802974105" lon="-6.623080316931009">
        <ele>473.11000000000001</ele>
        <time>2019-03-15T10:08:45Z</time>
      </trkpt>
      <trkpt lat="29.84609205275774" lon="-6.623430009931326">
        <ele>475.02999999999997</ele>
        <time>2019-03-15T10:08:49Z</time>
      </trkpt>
      <trkpt lat="29.84619271941483" lon="-6.624409100040793">
        <ele>475.02999999999997</ele>
        <time>2019-03-15T10:08:59Z</time>
      </trkpt>
      <trkpt lat="29.846166986972094" lon="-6.624625688418746">
        <ele>475.99000000000001</ele>
        <time>2019-03-15T10:09:01Z</time>
      </trkpt>
      <trkpt lat="29.845976298674941" lon="-6.624982170760632">
        <ele>476.94999999999999</ele>
        <time>2019-03-15T10:09:05Z</time>
      </trkpt>
      <trkpt lat="29.845769936218858" lon="-6.625121226534247">
        <ele>476.94999999999999</ele>
        <time>2019-03-15T10:13:51Z</time>
      </trkpt>
      <trkpt lat="29.845680752769113" lon="-6.625199597328901">
        <ele>476.94999999999999</ele>
        <time>2019-03-15T10:13:53Z</time>
      </trkpt>
      <trkpt lat="29.845470283180475" lon="-6.625384753569961">
        <ele>477.91000000000003</ele>
        <time>2019-03-15T10:13:57Z</time>
      </trkpt>
      <trkpt lat="29.845009446144104" lon="-6.62577853538096">
        <ele>478.38999999999999</ele>
        <time>2019-03-15T10:14:06Z</time>
      </trkpt>
      <trkpt lat="29.844429334625602" lon="-6.626293016597629">
        <ele>478.38999999999999</ele>
        <time>2019-03-15T10:14:15Z</time>
      </trkpt>
      <trkpt lat="29.844244346022606" lon="-6.626482615247369">
        <ele>478.87</ele>
        <time>2019-03-15T10:14:18Z</time>
      </trkpt>
      <trkpt lat="29.843975454568863" lon="-6.627276549115777">
        <ele>478.87</ele>
        <time>2019-03-15T10:14:26Z</time>
      </trkpt>
      <trkpt lat="29.84400562942028" lon="-6.627521803602576">
        <ele>477.91000000000003</ele>
        <time>2019-03-15T10:14:28Z</time>
      </trkpt>
      <trkpt lat="29.844069834798574" lon="-6.627901922911406">
        <ele>476.47000000000003</ele>
        <time>2019-03-15T10:14:31Z</time>
      </trkpt>
      <trkpt lat="29.843934047967196" lon="-6.62848362699151">
        <ele>476.47000000000003</ele>
        <time>2019-03-15T10:14:36Z</time>
      </trkpt>
      <trkpt lat="29.844009233638644" lon="-6.629078239202499">
        <ele>476.47000000000003</ele>
        <time>2019-03-15T10:14:42Z</time>
      </trkpt>
      <trkpt lat="29.844120042398572" lon="-6.629298515617847">
        <ele>476.47000000000003</ele>
        <time>2019-03-15T10:14:45Z</time>
      </trkpt>
      <trkpt lat="29.844406032934785" lon="-6.630377601832151">
        <ele>476.94999999999999</ele>
        <time>2019-03-15T10:14:56Z</time>
      </trkpt>
      <trkpt lat="29.844343001022935" lon="-6.631390554830432">
        <ele>476.94999999999999</ele>
        <time>2019-03-15T10:15:05Z</time>
      </trkpt>
      <trkpt lat="29.844333026558161" lon="-6.631660535931587">
        <ele>477.43000000000001</ele>
        <time>2019-03-15T10:15:07Z</time>
      </trkpt>
      <trkpt lat="29.844505023211241" lon="-6.63243561051786">
        <ele>476.94999999999999</ele>
        <time>2019-03-15T10:15:13Z</time>
      </trkpt>
      <trkpt lat="29.844690514728427" lon="-6.633499441668391">
        <ele>478.38999999999999</ele>
        <time>2019-03-15T10:15:20Z</time>
      </trkpt>
      <trkpt lat="29.844965524971485" lon="-6.63403932005167">
        <ele>479.35000000000002</ele>
        <time>2019-03-15T10:15:24Z</time>
      </trkpt>
      <trkpt lat="29.845193345099688" lon="-6.634751698002219">
        <ele>479.35000000000002</ele>
        <time>2019-03-15T10:15:29Z</time>
      </trkpt>
      <trkpt lat="29.845406077802181" lon="-6.635914938524365">
        <ele>478.38999999999999</ele>
        <time>2019-03-15T10:15:37Z</time>
      </trkpt>
      <trkpt lat="29.846034049987793" lon="-6.637134505435824">
        <ele>477.91000000000003</ele>
        <time>2019-03-15T10:15:47Z</time>
      </trkpt>
      <trkpt lat="29.846408721059561" lon="-6.638343594968319">
        <ele>479.35000000000002</ele>
        <time>2019-03-15T10:15:57Z</time>
      </trkpt>
      <trkpt lat="29.846463706344366" lon="-6.638800743967295">
        <ele>479.35000000000002</ele>
        <time>2019-03-15T10:16:00Z</time>
      </trkpt>
      <trkpt lat="29.846909623593092" lon="-6.640444518998265">
        <ele>479.83999999999997</ele>
        <time>2019-03-15T10:16:11Z</time>
      </trkpt>
      <trkpt lat="29.847152782604098" lon="-6.641245493665338">
        <ele>480.80000000000001</ele>
        <time>2019-03-15T10:16:17Z</time>
      </trkpt>
      <trkpt lat="29.847186813130975" lon="-6.642450895160437">
        <ele>481.27999999999997</ele>
        <time>2019-03-15T10:16:25Z</time>
      </trkpt>
      <trkpt lat="29.847260573878884" lon="-6.643964247778058">
        <ele>481.75999999999999</ele>
        <time>2019-03-15T10:16:34Z</time>
      </trkpt>
      <trkpt lat="29.847213802859187" lon="-6.644601272419095">
        <ele>482.24000000000001</ele>
        <time>2019-03-15T10:16:40Z</time>
      </trkpt>
      <trkpt lat="29.847263004630804" lon="-6.645486736670137">
        <ele>481.75999999999999</ele>
        <time>2019-03-15T10:16:48Z</time>
      </trkpt>
      <trkpt lat="29.847394935786724" lon="-6.646769419312477">
        <ele>482.24000000000001</ele>
        <time>2019-03-15T10:16:56Z</time>
      </trkpt>
      <trkpt lat="29.847595933824778" lon="-6.648198869079351">
        <ele>481.75999999999999</ele>
        <time>2019-03-15T10:17:05Z</time>
      </trkpt>
      <trkpt lat="29.847833225503564" lon="-6.649421453475952">
        <ele>482.72000000000003</ele>
        <time>2019-03-15T10:17:13Z</time>
      </trkpt>
      <trkpt lat="29.847907153889537" lon="-6.650155121460557">
        <ele>483.19999999999999</ele>
        <time>2019-03-15T10:17:20Z</time>
      </trkpt>
      <trkpt lat="29.847921403124928" lon="-6.650373805314302">
        <ele>484.63999999999999</ele>
        <time>2019-03-15T10:17:22Z</time>
      </trkpt>
      <trkpt lat="29.848215188831091" lon="-6.651617093011737">
        <ele>485.12</ele>
        <time>2019-03-15T10:17:33Z</time>
      </trkpt>
      <trkpt lat="29.848512411117554" lon="-6.653032628819346">
        <ele>486.56</ele>
        <time>2019-03-15T10:17:45Z</time>
      </trkpt>
      <trkpt lat="29.848674600943923" lon="-6.654351772740483">
        <ele>486.56</ele>
        <time>2019-03-15T10:17:54Z</time>
      </trkpt>
      <trkpt lat="29.84869840554893" lon="-6.655587097629905">
        <ele>487.52999999999997</ele>
        <time>2019-03-15T10:18:04Z</time>
      </trkpt>
      <trkpt lat="29.84887383878231" lon="-6.657111430540681">
        <ele>485.60000000000002</ele>
        <time>2019-03-15T10:18:16Z</time>
      </trkpt>
      <trkpt lat="29.849073495715857" lon="-6.658816561102867">
        <ele>486.07999999999998</ele>
        <time>2019-03-15T10:18:28Z</time>
      </trkpt>
      <trkpt lat="29.849302656948566" lon="-6.660612970590591">
        <ele>488.49000000000001</ele>
        <time>2019-03-15T10:18:40Z</time>
      </trkpt>
      <trkpt lat="29.849366527050734" lon="-6.662346180528402">
        <ele>488.97000000000003</ele>
        <time>2019-03-15T10:18:51Z</time>
      </trkpt>
      <trkpt lat="29.849503235891461" lon="-6.663544876500964">
        <ele>488.97000000000003</ele>
        <time>2019-03-15T10:19:01Z</time>
      </trkpt>
      <trkpt lat="29.849825771525502" lon="-6.664771065115929">
        <ele>489.44999999999999</ele>
        <time>2019-03-15T10:19:11Z</time>
      </trkpt>
      <trkpt lat="29.849751424044371" lon="-6.665921397507191">
        <ele>489.93000000000001</ele>
        <time>2019-03-15T10:19:20Z</time>
      </trkpt>
      <trkpt lat="29.849836332723498" lon="-6.666625309735537">
        <ele>492.32999999999998</ele>
        <time>2019-03-15T10:19:27Z</time>
      </trkpt>
      <trkpt lat="29.849906237795949" lon="-6.666834522038698">
        <ele>492.81</ele>
        <time>2019-03-15T10:19:29Z</time>
      </trkpt>
      <trkpt lat="29.850193401798606" lon="-6.668219799175859">
        <ele>492.32999999999998</ele>
        <time>2019-03-15T10:19:39Z</time>
      </trkpt>
      <trkpt lat="29.850688353180885" lon="-6.670390879735351">
        <ele>494.25999999999999</ele>
        <time>2019-03-15T10:19:52Z</time>
      </trkpt>
      <trkpt lat="29.85115178860724" lon="-6.672036498785019">
        <ele>495.22000000000003</ele>
        <time>2019-03-15T10:20:02Z</time>
      </trkpt>
      <trkpt lat="29.851689236238599" lon="-6.673564184457064">
        <ele>494.74000000000001</ele>
        <time>2019-03-15T10:20:12Z</time>
      </trkpt>
      <trkpt lat="29.852120988070965" lon="-6.674716528505087">
        <ele>493.29000000000002</ele>
        <time>2019-03-15T10:20:20Z</time>
      </trkpt>
      <trkpt lat="29.852255433797836" lon="-6.676112618297339">
        <ele>493.29000000000002</ele>
        <time>2019-03-15T10:20:29Z</time>
      </trkpt>
      <trkpt lat="29.852350065484643" lon="-6.678900355473161">
        <ele>493.29000000000002</ele>
        <time>2019-03-15T10:20:47Z</time>
      </trkpt>
      <trkpt lat="29.852322321385145" lon="-6.680723251774907">
        <ele>492.32999999999998</ele>
        <time>2019-03-15T10:20:58Z</time>
      </trkpt>
      <trkpt lat="29.852233976125717" lon="-6.682056142017245">
        <ele>491.85000000000002</ele>
        <time>2019-03-15T10:21:07Z</time>
      </trkpt>
      <trkpt lat="29.852204723283648" lon="-6.683206977322698">
        <ele>491.37</ele>
        <time>2019-03-15T10:21:16Z</time>
      </trkpt>
      <trkpt lat="29.852130627259612" lon="-6.683740988373756">
        <ele>490.88999999999999</ele>
        <time>2019-03-15T10:21:20Z</time>
      </trkpt>
      <trkpt lat="29.852081257849932" lon="-6.685177311301231">
        <ele>490.88999999999999</ele>
        <time>2019-03-15T10:21:30Z</time>
      </trkpt>
      <trkpt lat="29.851821754127741" lon="-6.686104936525226">
        <ele>490.88999999999999</ele>
        <time>2019-03-15T10:21:37Z</time>
      </trkpt>
      <trkpt lat="29.851713124662638" lon="-6.686954107135534">
        <ele>490.88999999999999</ele>
        <time>2019-03-15T10:21:43Z</time>
      </trkpt>
      <trkpt lat="29.852005485445261" lon="-6.687917187809944">
        <ele>491.85000000000002</ele>
        <time>2019-03-15T10:21:52Z</time>
      </trkpt>
      <trkpt lat="29.852334894239902" lon="-6.688664350658655">
        <ele>493.76999999999998</ele>
        <time>2019-03-15T10:22:00Z</time>
      </trkpt>
      <trkpt lat="29.852492809295654" lon="-6.688966266810894">
        <ele>494.74000000000001</ele>
        <time>2019-03-15T10:22:03Z</time>
      </trkpt>
      <trkpt lat="29.852587524801493" lon="-6.689324090257287">
        <ele>495.69999999999999</ele>
        <time>2019-03-15T10:22:06Z</time>
      </trkpt>
      <trkpt lat="29.852799419313669" lon="-6.689974525943399">
        <ele>496.18000000000001</ele>
        <time>2019-03-15T10:22:12Z</time>
      </trkpt>
      <trkpt lat="29.852924477308989" lon="-6.690897792577744">
        <ele>496.18000000000001</ele>
        <time>2019-03-15T10:22:20Z</time>
      </trkpt>
      <trkpt lat="29.852996645495296" lon="-6.691235667094588">
        <ele>496.66000000000003</ele>
        <time>2019-03-15T10:22:23Z</time>
      </trkpt>
      <trkpt lat="29.853034950792789" lon="-6.691814521327615">
        <ele>497.62</ele>
        <time>2019-03-15T10:22:29Z</time>
      </trkpt>
      <trkpt lat="29.853071663528681" lon="-6.692201597616077">
        <ele>498.57999999999998</ele>
        <time>2019-03-15T10:22:33Z</time>
      </trkpt>
      <trkpt lat="29.853149866685271" lon="-6.692510889843106">
        <ele>497.62</ele>
        <time>2019-03-15T10:22:36Z</time>
      </trkpt>
      <trkpt lat="29.853181047365069" lon="-6.692732591181994">
        <ele>496.18000000000001</ele>
        <time>2019-03-15T10:22:38Z</time>
      </trkpt>
      <trkpt lat="29.85334038734436" lon="-6.693520825356245">
        <ele>496.18000000000001</ele>
        <time>2019-03-15T10:22:45Z</time>
      </trkpt>
      <trkpt lat="29.853690583258867" lon="-6.694775260984898">
        <ele>495.69999999999999</ele>
        <time>2019-03-15T10:22:55Z</time>
      </trkpt>
      <trkpt lat="29.854094171896577" lon="-6.695795003324747">
        <ele>495.69999999999999</ele>
        <time>2019-03-15T10:23:03Z</time>
      </trkpt>
      <trkpt lat="29.854452162981033" lon="-6.696982719004154">
        <ele>495.22000000000003</ele>
        <time>2019-03-15T10:23:11Z</time>
      </trkpt>
      <trkpt lat="29.854526510462165" lon="-6.697273822501302">
        <ele>495.22000000000003</ele>
        <time>2019-03-15T10:23:13Z</time>
      </trkpt>
      <trkpt lat="29.854970583692193" lon="-6.698015285655856">
        <ele>496.18000000000001</ele>
        <time>2019-03-15T10:23:19Z</time>
      </trkpt>
      <trkpt lat="29.855451956391335" lon="-6.698470003902912">
        <ele>500.5</ele>
        <time>2019-03-15T10:23:24Z</time>
      </trkpt>
      <trkpt lat="29.855698635801673" lon="-6.698858588933945">
        <ele>501.94999999999999</ele>
        <time>2019-03-15T10:23:28Z</time>
      </trkpt>
      <trkpt lat="29.855979178100824" lon="-6.699242228642106">
        <ele>500.5</ele>
        <time>2019-03-15T10:23:32Z</time>
      </trkpt>
      <trkpt lat="29.85614949837327" lon="-6.699688732624054">
        <ele>499.06</ele>
        <time>2019-03-15T10:23:36Z</time>
      </trkpt>
      <trkpt lat="29.856420233845711" lon="-6.700701266527176">
        <ele>498.57999999999998</ele>
        <time>2019-03-15T10:23:46Z</time>
      </trkpt>
      <trkpt lat="29.856890123337507" lon="-6.701630316674709">
        <ele>498.57999999999998</ele>
        <time>2019-03-15T10:23:57Z</time>
      </trkpt>
      <trkpt lat="29.857173347845674" lon="-6.702360883355141">
        <ele>498.10000000000002</ele>
        <time>2019-03-15T10:24:06Z</time>
      </trkpt>
      <trkpt lat="29.857258507981896" lon="-6.702666655182838">
        <ele>499.06</ele>
        <time>2019-03-15T10:24:09Z</time>
      </trkpt>
      <trkpt lat="29.857968455180526" lon="-6.703737108036876">
        <ele>500.5</ele>
        <time>2019-03-15T10:24:19Z</time>
      </trkpt>
      <trkpt lat="29.858725424855947" lon="-6.704758107662201">
        <ele>500.5</ele>
        <time>2019-03-15T10:24:29Z</time>
      </trkpt>
      <trkpt lat="29.859491111710668" lon="-6.706098625436425">
        <ele>500.01999999999998</ele>
        <time>2019-03-15T10:24:41Z</time>
      </trkpt>
      <trkpt lat="29.860053034499288" lon="-6.707119876518846">
        <ele>500.5</ele>
        <time>2019-03-15T10:24:50Z</time>
      </trkpt>
      <trkpt lat="29.860347574576735" lon="-6.707371082156897">
        <ele>499.06</ele>
        <time>2019-03-15T10:24:57Z</time>
      </trkpt>
      <trkpt lat="29.860705984756351" lon="-6.70758817344904">
        <ele>499.06</ele>
        <time>2019-03-15T10:25:06Z</time>
      </trkpt>
      <trkpt lat="29.861711310222745" lon="-6.708264844492078">
        <ele>499.54000000000002</ele>
        <time>2019-03-15T10:25:19Z</time>
      </trkpt>
      <trkpt lat="29.861778784543276" lon="-6.708319075405598">
        <ele>500.5</ele>
        <time>2019-03-15T10:25:20Z</time>
      </trkpt>
      <trkpt lat="29.862355459481478" lon="-6.708827102556825">
        <ele>500.5</ele>
        <time>2019-03-15T10:25:28Z</time>
      </trkpt>
      <trkpt lat="29.863328346982598" lon="-6.709240665659308">
        <ele>500.01999999999998</ele>
        <time>2019-03-15T10:25:38Z</time>
      </trkpt>
      <trkpt lat="29.864168716594577" lon="-6.709699155762792">
        <ele>499.54000000000002</ele>
        <time>2019-03-15T10:25:48Z</time>
      </trkpt>
      <trkpt lat="29.864796018227935" lon="-6.710119256749749">
        <ele>498.10000000000002</ele>
        <time>2019-03-15T10:25:57Z</time>
      </trkpt>
      <trkpt lat="29.864932978525758" lon="-6.710224030539393">
        <ele>498.10000000000002</ele>
        <time>2019-03-15T10:25:59Z</time>
      </trkpt>
      <trkpt lat="29.865063903853297" lon="-6.710352189838886">
        <ele>497.62</ele>
        <time>2019-03-15T10:26:01Z</time>
      </trkpt>
      <trkpt lat="29.865381997078657" lon="-6.710792239755392">
        <ele>497.62</ele>
        <time>2019-03-15T10:26:07Z</time>
      </trkpt>
      <trkpt lat="29.866151874884963" lon="-6.711360784247518">
        <ele>498.57999999999998</ele>
        <time>2019-03-15T10:26:17Z</time>
      </trkpt>
      <trkpt lat="29.866520846262574" lon="-6.711684325709939">
        <ele>498.10000000000002</ele>
        <time>2019-03-15T10:26:23Z</time>
      </trkpt>
      <trkpt lat="29.866669122129679" lon="-6.711992863565683">
        <ele>497.62</ele>
        <time>2019-03-15T10:26:28Z</time>
      </trkpt>
      <trkpt lat="29.86664280295372" lon="-6.712501309812069">
        <ele>498.10000000000002</ele>
        <time>2019-03-15T10:26:35Z</time>
      </trkpt>
      <trkpt lat="29.866818739101291" lon="-6.71298268251121">
        <ele>498.10000000000002</ele>
        <time>2019-03-15T10:26:41Z</time>
      </trkpt>
      <trkpt lat="29.867063155397773" lon="-6.713254088535905">
        <ele>499.54000000000002</ele>
        <time>2019-03-15T10:26:45Z</time>
      </trkpt>
      <trkpt lat="29.867183770984411" lon="-6.713591879233718">
        <ele>498.57999999999998</ele>
        <time>2019-03-15T10:26:49Z</time>
      </trkpt>
      <trkpt lat="29.867200115695596" lon="-6.714027989655733">
        <ele>498.57999999999998</ele>
        <time>2019-03-15T10:26:54Z</time>
      </trkpt>
      <trkpt lat="29.867252502590418" lon="-6.714315740391612">
        <ele>499.06</ele>
        <time>2019-03-15T10:26:57Z</time>
      </trkpt>
      <trkpt lat="29.867645278573036" lon="-6.714862994849682">
        <ele>499.54000000000002</ele>
        <time>2019-03-15T10:27:04Z</time>
      </trkpt>
      <trkpt lat="29.867962282150984" lon="-6.715062651783228">
        <ele>499.54000000000002</ele>
        <time>2019-03-15T10:27:08Z</time>
      </trkpt>
      <trkpt lat="29.868222707882524" lon="-6.715349815785885">
        <ele>499.54000000000002</ele>
        <time>2019-03-15T10:27:12Z</time>
      </trkpt>
      <trkpt lat="29.868446504697204" lon="-6.715657096356154">
        <ele>498.57999999999998</ele>
        <time>2019-03-15T10:27:16Z</time>
      </trkpt>
      <trkpt lat="29.868474751710892" lon="-6.716291690245271">
        <ele>498.10000000000002</ele>
        <time>2019-03-15T10:27:23Z</time>
      </trkpt>
      <trkpt lat="29.868274675682187" lon="-6.717550149187446">
        <ele>497.13999999999999</ele>
        <time>2019-03-15T10:27:34Z</time>
      </trkpt>
      <trkpt lat="29.868156909942627" lon="-6.718903994187713">
        <ele>496.18000000000001</ele>
        <time>2019-03-15T10:27:46Z</time>
      </trkpt>
      <trkpt lat="29.868159927427769" lon="-6.72034434042871">
        <ele>495.69999999999999</ele>
        <time>2019-03-15T10:27:57Z</time>
      </trkpt>
      <trkpt lat="29.868324128910899" lon="-6.721707405522466">
        <ele>496.18000000000001</ele>
        <time>2019-03-15T10:28:08Z</time>
      </trkpt>
      <trkpt lat="29.868410294875503" lon="-6.722277039662004">
        <ele>496.66000000000003</ele>
        <time>2019-03-15T10:28:13Z</time>
      </trkpt>
      <trkpt lat="29.868392944335938" lon="-6.722906855866313">
        <ele>495.69999999999999</ele>
        <time>2019-03-15T10:28:18Z</time>
      </trkpt>
      <trkpt lat="29.86847760155797" lon="-6.724288864061236">
        <ele>496.18000000000001</ele>
        <time>2019-03-15T10:28:28Z</time>
      </trkpt>
      <trkpt lat="29.868487408384681" lon="-6.724781468510628">
        <ele>498.10000000000002</ele>
        <time>2019-03-15T10:28:33Z</time>
      </trkpt>
      <trkpt lat="29.868722688406706" lon="-6.726164314895868">
        <ele>500.98000000000002</ele>
        <time>2019-03-15T10:28:44Z</time>
      </trkpt>
      <trkpt lat="29.868892338126898" lon="-6.727150194346905">
        <ele>501.94999999999999</ele>
        <time>2019-03-15T10:28:53Z</time>
      </trkpt>
      <trkpt lat="29.869239097461104" lon="-6.728504374623299">
        <ele>500.98000000000002</ele>
        <time>2019-03-15T10:29:03Z</time>
      </trkpt>
      <trkpt lat="29.869612846523523" lon="-6.729460833594203">
        <ele>500.5</ele>
        <time>2019-03-15T10:29:11Z</time>
      </trkpt>
      <trkpt lat="29.870005622506142" lon="-6.730990782380104">
        <ele>501.45999999999998</ele>
        <time>2019-03-15T10:29:23Z</time>
      </trkpt>
      <trkpt lat="29.870052058249712" lon="-6.731359586119652">
        <ele>500.5</ele>
        <time>2019-03-15T10:29:26Z</time>
      </trkpt>
      <trkpt lat="29.870277531445026" lon="-6.732609998434782">
        <ele>501.94999999999999</ele>
        <time>2019-03-15T10:29:36Z</time>
      </trkpt>
      <trkpt lat="29.870561929419637" lon="-6.734210690483451">
        <ele>501.94999999999999</ele>
        <time>2019-03-15T10:29:48Z</time>
      </trkpt>
      <trkpt lat="29.870980689302087" lon="-6.735459007322788">
        <ele>502.91000000000003</ele>
        <time>2019-03-15T10:29:58Z</time>
      </trkpt>
      <trkpt lat="29.87163171172142" lon="-6.737170340493321">
        <ele>502.43000000000001</ele>
        <time>2019-03-15T10:30:11Z</time>
      </trkpt>
      <trkpt lat="29.872343502938747" lon="-6.738410694524646">
        <ele>500.01999999999998</ele>
        <time>2019-03-15T10:30:23Z</time>
      </trkpt>
      <trkpt lat="29.872536454349756" lon="-6.738714706152678">
        <ele>499.06</ele>
        <time>2019-03-15T10:30:26Z</time>
      </trkpt>
      <trkpt lat="29.872852116823196" lon="-6.73937201499939">
        <ele>499.06</ele>
        <time>2019-03-15T10:30:32Z</time>
      </trkpt>
      <trkpt lat="29.873406831175089" lon="-6.740302070975304">
        <ele>500.01999999999998</ele>
        <time>2019-03-15T10:30:42Z</time>
      </trkpt>
      <trkpt lat="29.874423053115606" lon="-6.741460617631674">
        <ele>499.54000000000002</ele>
        <time>2019-03-15T10:30:55Z</time>
      </trkpt>
      <trkpt lat="29.875643877312541" lon="-6.742563340812922">
        <ele>500.98000000000002</ele>
        <time>2019-03-15T10:31:07Z</time>
      </trkpt>
      <trkpt lat="29.876869227737188" lon="-6.743886256590486">
        <ele>502.91000000000003</ele>
        <time>2019-03-15T10:31:20Z</time>
      </trkpt>
      <trkpt lat="29.877647152170539" lon="-6.74468781799078">
        <ele>502.91000000000003</ele>
        <time>2019-03-15T10:31:29Z</time>
      </trkpt>
      <trkpt lat="29.879074590280652" lon="-6.746175354346633">
        <ele>503.38999999999999</ele>
        <time>2019-03-15T10:31:44Z</time>
      </trkpt>
      <trkpt lat="29.880556929856539" lon="-6.747801778838038">
        <ele>503.87</ele>
        <time>2019-03-15T10:31:59Z</time>
      </trkpt>
      <trkpt lat="29.881936004385352" lon="-6.74907716922462">
        <ele>503.87</ele>
        <time>2019-03-15T10:32:12Z</time>
      </trkpt>
      <trkpt lat="29.883028082549572" lon="-6.749954083934426">
        <ele>504.35000000000002</ele>
        <time>2019-03-15T10:32:22Z</time>
      </trkpt>
      <trkpt lat="29.884090656414628" lon="-6.750933676958084">
        <ele>504.82999999999998</ele>
        <time>2019-03-15T10:32:32Z</time>
      </trkpt>
      <trkpt lat="29.885026579722762" lon="-6.751455282792449">
        <ele>505.31</ele>
        <time>2019-03-15T10:32:41Z</time>
      </trkpt>
      <trkpt lat="29.886358715593815" lon="-6.752181407064199">
        <ele>506.26999999999998</ele>
        <time>2019-03-15T10:32:52Z</time>
      </trkpt>
      <trkpt lat="29.887473089620471" lon="-6.753078689798713">
        <ele>505.79000000000002</ele>
        <time>2019-03-15T10:33:02Z</time>
      </trkpt>
      <trkpt lat="29.888393254950643" lon="-6.754179066047072">
        <ele>507.70999999999998</ele>
        <time>2019-03-15T10:33:12Z</time>
      </trkpt>
      <trkpt lat="29.889525733888149" lon="-6.755656711757183">
        <ele>507.70999999999998</ele>
        <time>2019-03-15T10:33:24Z</time>
      </trkpt>
      <trkpt lat="29.890211708843708" lon="-6.756409825757146">
        <ele>509.16000000000003</ele>
        <time>2019-03-15T10:33:32Z</time>
      </trkpt>
      <trkpt lat="29.891147380694747" lon="-6.7575744073838">
        <ele>510.12</ele>
        <time>2019-03-15T10:33:43Z</time>
      </trkpt>
      <trkpt lat="29.892557552084327" lon="-6.758838063105941">
        <ele>510.60000000000002</ele>
        <time>2019-03-15T10:33:56Z</time>
      </trkpt>
      <trkpt lat="29.892771458253264" lon="-6.758967647328973">
        <ele>509.63999999999999</ele>
        <time>2019-03-15T10:33:58Z</time>
      </trkpt>
      <trkpt lat="29.893162390217185" lon="-6.759425383061171">
        <ele>509.16000000000003</ele>
        <time>2019-03-15T10:34:03Z</time>
      </trkpt>
      <trkpt lat="29.893775777891278" lon="-6.760489465668798">
        <ele>509.16000000000003</ele>
        <time>2019-03-15T10:34:13Z</time>
      </trkpt>
      <trkpt lat="29.894047435373068" lon="-6.760980896651745">
        <ele>510.60000000000002</ele>
        <time>2019-03-15T10:34:18Z</time>
      </trkpt>
      <trkpt lat="29.894928792491555" lon="-6.761996196582913">
        <ele>511.07999999999998</ele>
        <time>2019-03-15T10:34:29Z</time>
      </trkpt>
      <trkpt lat="29.895807132124901" lon="-6.763252811506391">
        <ele>511.56</ele>
        <time>2019-03-15T10:34:39Z</time>
      </trkpt>
      <trkpt lat="29.895961694419384" lon="-6.763535784557462">
        <ele>511.56</ele>
        <time>2019-03-15T10:34:41Z</time>
      </trkpt>
      <trkpt lat="29.896190604194999" lon="-6.764350170269609">
        <ele>511.56</ele>
        <time>2019-03-15T10:34:47Z</time>
      </trkpt>
      <trkpt lat="29.896484473720193" lon="-6.764922486618161">
        <ele>513</ele>
        <time>2019-03-15T10:34:52Z</time>
      </trkpt>
      <trkpt lat="29.897782746702433" lon="-6.766354953870177">
        <ele>512.51999999999998</ele>
        <time>2019-03-15T10:35:06Z</time>
      </trkpt>
      <trkpt lat="29.898673072457314" lon="-6.767262630164623">
        <ele>512.03999999999996</ele>
        <time>2019-03-15T10:35:15Z</time>
      </trkpt>
      <trkpt lat="29.899079846218228" lon="-6.768062934279442">
        <ele>513.48000000000002</ele>
        <time>2019-03-15T10:35:22Z</time>
      </trkpt>
      <trkpt lat="29.899188224226236" lon="-6.768520418554544">
        <ele>513</ele>
        <time>2019-03-15T10:35:26Z</time>
      </trkpt>
      <trkpt lat="29.899461977183819" lon="-6.769028948619962">
        <ele>513.48000000000002</ele>
        <time>2019-03-15T10:35:31Z</time>
      </trkpt>
      <trkpt lat="29.900394883006811" lon="-6.770151201635599">
        <ele>514.91999999999996</ele>
        <time>2019-03-15T10:35:44Z</time>
      </trkpt>
      <trkpt lat="29.901126120239496" lon="-6.77098729647696">
        <ele>516.37</ele>
        <time>2019-03-15T10:35:54Z</time>
      </trkpt>
      <trkpt lat="29.901992557570338" lon="-6.771847363561392">
        <ele>516.37</ele>
        <time>2019-03-15T10:36:05Z</time>
      </trkpt>
      <trkpt lat="29.903016407042742" lon="-6.77310791797936">
        <ele>517.33000000000004</ele>
        <time>2019-03-15T10:36:18Z</time>
      </trkpt>
      <trkpt lat="29.903530133888125" lon="-6.7739088088274">
        <ele>518.28999999999996</ele>
        <time>2019-03-15T10:36:25Z</time>
      </trkpt>
      <trkpt lat="29.904275787994266" lon="-6.775314202532172">
        <ele>518.76999999999998</ele>
        <time>2019-03-15T10:36:36Z</time>
      </trkpt>
      <trkpt lat="29.904467482119799" lon="-6.775691052898765">
        <ele>518.76999999999998</ele>
        <time>2019-03-15T10:36:39Z</time>
      </trkpt>
      <trkpt lat="29.905270719900727" lon="-6.776553299278021">
        <ele>520.21000000000004</ele>
        <time>2019-03-15T10:36:49Z</time>
      </trkpt>
      <trkpt lat="29.905955856665969" lon="-6.777183786034584">
        <ele>520.69000000000005</ele>
        <time>2019-03-15T10:36:58Z</time>
      </trkpt>
      <trkpt lat="29.906031042337418" lon="-6.777245225384831">
        <ele>522.61000000000001</ele>
        <time>2019-03-15T10:36:59Z</time>
      </trkpt>
      <trkpt lat="29.906383249908686" lon="-6.777482181787491">
        <ele>522.61000000000001</ele>
        <time>2019-03-15T10:37:03Z</time>
      </trkpt>
      <trkpt lat="29.907274665310979" lon="-6.778406538069248">
        <ele>522.61000000000001</ele>
        <time>2019-03-15T10:37:14Z</time>
      </trkpt>
      <trkpt lat="29.908437738195062" lon="-6.779195358976722">
        <ele>523.58000000000004</ele>
        <time>2019-03-15T10:37:25Z</time>
      </trkpt>
      <trkpt lat="29.908994380384684" lon="-6.779609592631459">
        <ele>524.05999999999995</ele>
        <time>2019-03-15T10:37:31Z</time>
      </trkpt>
      <trkpt lat="29.909780099987984" lon="-6.780527411028743">
        <ele>524.05999999999995</ele>
        <time>2019-03-15T10:37:41Z</time>
      </trkpt>
      <trkpt lat="29.910337245091796" lon="-6.781372139230371">
        <ele>524.05999999999995</ele>
        <time>2019-03-15T10:37:48Z</time>
      </trkpt>
      <trkpt lat="29.911146014928818" lon="-6.782283755019307">
        <ele>525.98000000000002</ele>
        <time>2019-03-15T10:37:58Z</time>
      </trkpt>
      <trkpt lat="29.911216171458364" lon="-6.782361539080739">
        <ele>526.46000000000004</ele>
        <time>2019-03-15T10:37:59Z</time>
      </trkpt>
      <trkpt lat="29.91191765293479" lon="-6.783219929784536">
        <ele>526.46000000000004</ele>
        <time>2019-03-15T10:38:09Z</time>
      </trkpt>
      <trkpt lat="29.91234177723527" lon="-6.783694513142109">
        <ele>527.89999999999998</ele>
        <time>2019-03-15T10:38:15Z</time>
      </trkpt>
      <trkpt lat="29.913336709141731" lon="-6.784481909126043">
        <ele>527.89999999999998</ele>
        <time>2019-03-15T10:38:27Z</time>
      </trkpt>
      <trkpt lat="29.913655975833535" lon="-6.784683158621192">
        <ele>530.29999999999995</ele>
        <time>2019-03-15T10:38:31Z</time>
      </trkpt>
      <trkpt lat="29.913792852312326" lon="-6.784806875512004">
        <ele>531.75</ele>
        <time>2019-03-15T10:38:33Z</time>
      </trkpt>
      <trkpt lat="29.91448100656271" lon="-6.784969568252564">
        <ele>531.75</ele>
        <time>2019-03-15T10:38:42Z</time>
      </trkpt>
      <trkpt lat="29.914814438670874" lon="-6.784990523010492">
        <ele>532.23000000000002</ele>
        <time>2019-03-15T10:38:46Z</time>
      </trkpt>
      <trkpt lat="29.916057977825403" lon="-6.785294869914651">
        <ele>534.14999999999998</ele>
        <time>2019-03-15T10:39:00Z</time>
      </trkpt>
      <trkpt lat="29.917272767052054" lon="-6.785815302282572">
        <ele>535.11000000000001</ele>
        <time>2019-03-15T10:39:14Z</time>
      </trkpt>
      <trkpt lat="29.917734945192933" lon="-6.786167174577713">
        <ele>536.07000000000005</ele>
        <time>2019-03-15T10:39:22Z</time>
      </trkpt>
      <trkpt lat="29.91845210082829" lon="-6.786647792905569">
        <ele>537.50999999999999</ele>
        <time>2019-03-15T10:39:34Z</time>
      </trkpt>
      <trkpt lat="29.919044952839613" lon="-6.787046268582344">
        <ele>537.02999999999997</ele>
        <time>2019-03-15T10:39:42Z</time>
      </trkpt>
      <trkpt lat="29.919205382466316" lon="-6.787105444818735">
        <ele>537.02999999999997</ele>
        <time>2019-03-15T10:39:44Z</time>
      </trkpt>
      <trkpt lat="29.919849447906017" lon="-6.78758405148983">
        <ele>538.96000000000004</ele>
        <time>2019-03-15T10:39:53Z</time>
      </trkpt>
      <trkpt lat="29.920575488358736" lon="-6.788043044507504">
        <ele>540.39999999999998</ele>
        <time>2019-03-15T10:40:03Z</time>
      </trkpt>
      <trkpt lat="29.920638101175427" lon="-6.788103897124529">
        <ele>541.36000000000001</ele>
        <time>2019-03-15T10:40:04Z</time>
      </trkpt>
      <trkpt lat="29.920697780326009" lon="-6.788169695064426">
        <ele>541.36000000000001</ele>
        <time>2019-03-15T10:40:05Z</time>
      </trkpt>
      <trkpt lat="29.92153680883348" lon="-6.789074437692761">
        <ele>542.79999999999995</ele>
        <time>2019-03-15T10:40:19Z</time>
      </trkpt>
      <trkpt lat="29.921901505440474" lon="-6.789459921419621">
        <ele>542.79999999999995</ele>
        <time>2019-03-15T10:40:25Z</time>
      </trkpt>
      <trkpt lat="29.922100408002734" lon="-6.789636611938477">
        <ele>542.79999999999995</ele>
        <time>2019-03-15T10:40:28Z</time>
      </trkpt>
      <trkpt lat="29.922148603945971" lon="-6.789705259725452">
        <ele>544.24000000000001</ele>
        <time>2019-03-15T10:40:29Z</time>
      </trkpt>
      <trkpt lat="29.922500140964985" lon="-6.790317138656974">
        <ele>545.20000000000005</ele>
        <time>2019-03-15T10:40:37Z</time>
      </trkpt>
      <trkpt lat="29.922550013288856" lon="-6.790383523330092">
        <ele>548.57000000000005</ele>
        <time>2019-03-15T10:40:38Z</time>
      </trkpt>
      <trkpt lat="29.922602148726583" lon="-6.790443873032928">
        <ele>549.52999999999997</ele>
        <time>2019-03-15T10:40:39Z</time>
      </trkpt>
      <trkpt lat="29.922715555876493" lon="-6.79055635817349">
        <ele>550.00999999999999</ele>
        <time>2019-03-15T10:40:41Z</time>
      </trkpt>
      <trkpt lat="29.922776911407709" lon="-6.790602877736092">
        <ele>550.49000000000001</ele>
        <time>2019-03-15T10:40:42Z</time>
      </trkpt>
      <trkpt lat="29.923038929700851" lon="-6.790795577690005">
        <ele>550.49000000000001</ele>
        <time>2019-03-15T10:40:47Z</time>
      </trkpt>
      <trkpt lat="29.923100117594004" lon="-6.790869841352105">
        <ele>550.97000000000003</ele>
        <time>2019-03-15T10:40:49Z</time>
      </trkpt>
      <trkpt lat="29.923125011846423" lon="-6.790915187448263">
        <ele>551.45000000000005</ele>
        <time>2019-03-15T10:40:50Z</time>
      </trkpt>
      <trkpt lat="29.92315418086946" lon="-6.790962545201182">
        <ele>552.89999999999998</ele>
        <time>2019-03-15T10:40:51Z</time>
      </trkpt>
      <trkpt lat="29.923191396519542" lon="-6.791011998429894">
        <ele>553.38</ele>
        <time>2019-03-15T10:40:52Z</time>
      </trkpt>
      <trkpt lat="29.923235736787319" lon="-6.791061284020543">
        <ele>553.38</ele>
        <time>2019-03-15T10:40:53Z</time>
      </trkpt>
      <trkpt lat="29.923771005123854" lon="-6.791795371100307">
        <ele>553.38</ele>
        <time>2019-03-15T10:41:04Z</time>
      </trkpt>
      <trkpt lat="29.924688404425979" lon="-6.792845288291574">
        <ele>553.86000000000001</ele>
        <time>2019-03-15T10:41:20Z</time>
      </trkpt>
      <trkpt lat="29.925673864781857" lon="-6.79388489574194">
        <ele>553.86000000000001</ele>
        <time>2019-03-15T10:41:35Z</time>
      </trkpt>
      <trkpt lat="29.925877880305052" lon="-6.794017497450113">
        <ele>553.86000000000001</ele>
        <time>2019-03-15T10:41:38Z</time>
      </trkpt>
      <trkpt lat="29.925930770114064" lon="-6.794072734192014">
        <ele>553.86000000000001</ele>
        <time>2019-03-15T10:41:39Z</time>
      </trkpt>
      <trkpt lat="29.925973769277334" lon="-6.794136604294181">
        <ele>553.38</ele>
        <time>2019-03-15T10:41:40Z</time>
      </trkpt>
      <trkpt lat="29.92601023055613" lon="-6.794206677004695">
        <ele>553.38</ele>
        <time>2019-03-15T10:41:41Z</time>
      </trkpt>
      <trkpt lat="29.926040153950453" lon="-6.794282449409366">
        <ele>552.40999999999997</ele>
        <time>2019-03-15T10:41:42Z</time>
      </trkpt>
      <trkpt lat="29.92606982588768" lon="-6.794362580403686">
        <ele>552.40999999999997</ele>
        <time>2019-03-15T10:41:43Z</time>
      </trkpt>
      <trkpt lat="29.926105029881001" lon="-6.794442040845752">
        <ele>552.40999999999997</ele>
        <time>2019-03-15T10:41:44Z</time>
      </trkpt>
      <trkpt lat="29.926144760102034" lon="-6.794524602591991">
        <ele>552.40999999999997</ele>
        <time>2019-03-15T10:41:45Z</time>
      </trkpt>
      <trkpt lat="29.92631658911705" lon="-6.794791566208005">
        <ele>551.45000000000005</ele>
        <time>2019-03-15T10:41:49Z</time>
      </trkpt>
      <trkpt lat="29.926370400935411" lon="-6.79484261199832">
        <ele>550.97000000000003</ele>
        <time>2019-03-15T10:41:50Z</time>
      </trkpt>
      <trkpt lat="29.92643091827631" lon="-6.794887287542224">
        <ele>547.61000000000001</ele>
        <time>2019-03-15T10:41:51Z</time>
      </trkpt>
      <trkpt lat="29.926496632397175" lon="-6.794926263391972">
        <ele>547.61000000000001</ele>
        <time>2019-03-15T10:41:52Z</time>
      </trkpt>
      <trkpt lat="29.926568968221545" lon="-6.794963227584958">
        <ele>547.13</ele>
        <time>2019-03-15T10:41:53Z</time>
      </trkpt>
      <trkpt lat="29.926647506654263" lon="-6.794995162636042">
        <ele>547.13</ele>
        <time>2019-03-15T10:41:54Z</time>
      </trkpt>
      <trkpt lat="29.927422665059566" lon="-6.795401098206639">
        <ele>546.16999999999996</ele>
        <time>2019-03-15T10:42:03Z</time>
      </trkpt>
      <trkpt lat="29.927550069987774" lon="-6.795479971915484">
        <ele>545.69000000000005</ele>
        <time>2019-03-15T10:42:05Z</time>
      </trkpt>
      <trkpt lat="29.927711253985763" lon="-6.795545350760222">
        <ele>545.69000000000005</ele>
        <time>2019-03-15T10:42:08Z</time>
      </trkpt>
      <trkpt lat="29.927756264805794" lon="-6.795573430135846">
        <ele>545.69000000000005</ele>
        <time>2019-03-15T10:42:09Z</time>
      </trkpt>
      <trkpt lat="29.927838826552033" lon="-6.795637216418982">
        <ele>546.16999999999996</ele>
        <time>2019-03-15T10:42:11Z</time>
      </trkpt>
      <trkpt lat="29.928310308605433" lon="-6.796053797006607">
        <ele>546.16999999999996</ele>
        <time>2019-03-15T10:42:19Z</time>
      </trkpt>
      <trkpt lat="29.928462523967028" lon="-6.796166701242328">
        <ele>546.16999999999996</ele>
        <time>2019-03-15T10:42:21Z</time>
      </trkpt>
      <trkpt lat="29.929278334602714" lon="-6.796473730355501">
        <ele>546.64999999999998</ele>
        <time>2019-03-15T10:42:31Z</time>
      </trkpt>
      <trkpt lat="29.929361566901207" lon="-6.796498289331794">
        <ele>546.64999999999998</ele>
        <time>2019-03-15T10:42:32Z</time>
      </trkpt>
      <trkpt lat="29.929434070363641" lon="-6.796529637649655">
        <ele>546.64999999999998</ele>
        <time>2019-03-15T10:42:33Z</time>
      </trkpt>
      <trkpt lat="29.929500622674823" lon="-6.796564003452659">
        <ele>546.64999999999998</ele>
        <time>2019-03-15T10:42:34Z</time>
      </trkpt>
      <trkpt lat="29.929566420614719" lon="-6.796605158597231">
        <ele>546.64999999999998</ele>
        <time>2019-03-15T10:42:35Z</time>
      </trkpt>
      <trkpt lat="29.929636577144265" lon="-6.796653522178531">
        <ele>546.16999999999996</ele>
        <time>2019-03-15T10:42:36Z</time>
      </trkpt>
      <trkpt lat="29.929710840806365" lon="-6.796697527170181">
        <ele>546.16999999999996</ele>
        <time>2019-03-15T10:42:37Z</time>
      </trkpt>
      <trkpt lat="29.929786277934909" lon="-6.796732395887375">
        <ele>546.16999999999996</ele>
        <time>2019-03-15T10:42:38Z</time>
      </trkpt>
      <trkpt lat="29.929857272654772" lon="-6.796752428635955">
        <ele>545.69000000000005</ele>
        <time>2019-03-15T10:42:39Z</time>
      </trkpt>
      <trkpt lat="29.929920807480812" lon="-6.796774640679359">
        <ele>545.69000000000005</ele>
        <time>2019-03-15T10:42:40Z</time>
      </trkpt>
      <trkpt lat="29.929977301508188" lon="-6.796806743368506">
        <ele>545.20000000000005</ele>
        <time>2019-03-15T10:42:41Z</time>
      </trkpt>
      <trkpt lat="29.930028095841408" lon="-6.796839432790875">
        <ele>546.64999999999998</ele>
        <time>2019-03-15T10:42:42Z</time>
      </trkpt>
      <trkpt lat="29.93023294955492" lon="-6.796977063640952">
        <ele>548.09000000000003</ele>
        <time>2019-03-15T10:42:47Z</time>
      </trkpt>
      <trkpt lat="29.930753298103809" lon="-6.797377718612552">
        <ele>548.57000000000005</ele>
        <time>2019-03-15T10:42:58Z</time>
      </trkpt>
      <trkpt lat="29.930865196511149" lon="-6.797488443553448">
        <ele>550.49000000000001</ele>
        <time>2019-03-15T10:43:01Z</time>
      </trkpt>
      <trkpt lat="29.931480679661036" lon="-6.798032596707344">
        <ele>550.97000000000003</ele>
        <time>2019-03-15T10:43:13Z</time>
      </trkpt>
      <trkpt lat="29.931879406794906" lon="-6.798385223373771">
        <ele>551.45000000000005</ele>
        <time>2019-03-15T10:43:20Z</time>
      </trkpt>
      <trkpt lat="29.931940762326121" lon="-6.798435179516673">
        <ele>551.92999999999995</ele>
        <time>2019-03-15T10:43:21Z</time>
      </trkpt>
      <trkpt lat="29.932478377595544" lon="-6.79895393550396">
        <ele>552.40999999999997</ele>
        <time>2019-03-15T10:43:29Z</time>
      </trkpt>
      <trkpt lat="29.932544762268662" lon="-6.798991654068232">
        <ele>554.82000000000005</ele>
        <time>2019-03-15T10:43:30Z</time>
      </trkpt>
      <trkpt lat="29.932612404227257" lon="-6.799033731222153">
        <ele>555.29999999999995</ele>
        <time>2019-03-15T10:43:31Z</time>
      </trkpt>
      <trkpt lat="29.932678285986185" lon="-6.799086201936007">
        <ele>555.77999999999997</ele>
        <time>2019-03-15T10:43:32Z</time>
      </trkpt>
      <trkpt lat="29.932743161916733" lon="-6.799142360687256">
        <ele>556.74000000000001</ele>
        <time>2019-03-15T10:43:33Z</time>
      </trkpt>
      <trkpt lat="29.933049855753779" lon="-6.79942793212831">
        <ele>557.22000000000003</ele>
        <time>2019-03-15T10:43:38Z</time>
      </trkpt>
      <trkpt lat="29.93310458958149" lon="-6.799494316801429">
        <ele>557.70000000000005</ele>
        <time>2019-03-15T10:43:39Z</time>
      </trkpt>
      <trkpt lat="29.933164604008198" lon="-6.799548463895917">
        <ele>558.17999999999995</ele>
        <time>2019-03-15T10:43:40Z</time>
      </trkpt>
      <trkpt lat="29.933229731395841" lon="-6.799588780850172">
        <ele>557.70000000000005</ele>
        <time>2019-03-15T10:43:41Z</time>
      </trkpt>
      <trkpt lat="29.933295361697674" lon="-6.79961753077805">
        <ele>557.70000000000005</ele>
        <time>2019-03-15T10:43:42Z</time>
      </trkpt>
      <trkpt lat="29.933359315618873" lon="-6.799641000106931">
        <ele>559.13999999999999</ele>
        <time>2019-03-15T10:43:43Z</time>
      </trkpt>
      <trkpt lat="29.933422850444913" lon="-6.799657260999084">
        <ele>559.62</ele>
        <time>2019-03-15T10:43:44Z</time>
      </trkpt>
      <trkpt lat="29.934334550052881" lon="-6.799878710880876">
        <ele>560.11000000000001</ele>
        <time>2019-03-15T10:43:58Z</time>
      </trkpt>
      <trkpt lat="29.935425622388721" lon="-6.80017945356667">
        <ele>561.54999999999995</ele>
        <time>2019-03-15T10:44:12Z</time>
      </trkpt>
      <trkpt lat="29.935867600142956" lon="-6.800353545695543">
        <ele>562.02999999999997</ele>
        <time>2019-03-15T10:44:18Z</time>
      </trkpt>
      <trkpt lat="29.936019061133265" lon="-6.80045303888619">
        <ele>563.95000000000005</ele>
        <time>2019-03-15T10:44:20Z</time>
      </trkpt>
      <trkpt lat="29.936099359765649" lon="-6.80048773996532">
        <ele>563.95000000000005</ele>
        <time>2019-03-15T10:44:21Z</time>
      </trkpt>
      <trkpt lat="29.936499176546931" lon="-6.800620425492525">
        <ele>564.42999999999995</ele>
        <time>2019-03-15T10:44:26Z</time>
      </trkpt>
      <trkpt lat="29.936573188751936" lon="-6.800670213997364">
        <ele>564.42999999999995</ele>
        <time>2019-03-15T10:44:27Z</time>
      </trkpt>
      <trkpt lat="29.936925144866109" lon="-6.801007501780987">
        <ele>564.42999999999995</ele>
        <time>2019-03-15T10:44:32Z</time>
      </trkpt>
      <trkpt lat="29.936978789046407" lon="-6.801103306934238">
        <ele>564.90999999999997</ele>
        <time>2019-03-15T10:44:33Z</time>
      </trkpt>
      <trkpt lat="29.937035199254751" lon="-6.801196346059442">
        <ele>564.90999999999997</ele>
        <time>2019-03-15T10:44:34Z</time>
      </trkpt>
      <trkpt lat="29.937101835384965" lon="-6.801280416548252">
        <ele>564.90999999999997</ele>
        <time>2019-03-15T10:44:35Z</time>
      </trkpt>
      <trkpt lat="29.937180457636714" lon="-6.80135166272521">
        <ele>565.38999999999999</ele>
        <time>2019-03-15T10:44:36Z</time>
      </trkpt>
      <trkpt lat="29.937267629429698" lon="-6.801397008821368">
        <ele>565.38999999999999</ele>
        <time>2019-03-15T10:44:37Z</time>
      </trkpt>
      <trkpt lat="29.93736008182168" lon="-6.801413940265775">
        <ele>564.42999999999995</ele>
        <time>2019-03-15T10:44:38Z</time>
      </trkpt>
      <trkpt lat="29.93745437823236" lon="-6.801414107903838">
        <ele>564.42999999999995</ele>
        <time>2019-03-15T10:44:39Z</time>
      </trkpt>
      <trkpt lat="29.937550099566579" lon="-6.801406480371952">
        <ele>563.95000000000005</ele>
        <time>2019-03-15T10:44:40Z</time>
      </trkpt>
      <trkpt lat="29.937737267464399" lon="-6.801390638574958">
        <ele>563.95000000000005</ele>
        <time>2019-03-15T10:44:42Z</time>
      </trkpt>
      <trkpt lat="29.9380187317729" lon="-6.80136926472187">
        <ele>564.42999999999995</ele>
        <time>2019-03-15T10:44:45Z</time>
      </trkpt>
      <trkpt lat="29.938110178336501" lon="-6.801379239186645">
        <ele>563.95000000000005</ele>
        <time>2019-03-15T10:44:46Z</time>
      </trkpt>
      <trkpt lat="29.938198439776897" lon="-6.801396338269115">
        <ele>565.87</ele>
        <time>2019-03-15T10:44:47Z</time>
      </trkpt>
      <trkpt lat="29.938284438103437" lon="-6.801423411816359">
        <ele>567.32000000000005</ele>
        <time>2019-03-15T10:44:48Z</time>
      </trkpt>
      <trkpt lat="29.938367251306772" lon="-6.801455430686474">
        <ele>567.32000000000005</ele>
        <time>2019-03-15T10:44:49Z</time>
      </trkpt>
      <trkpt lat="29.939059680327773" lon="-6.801735386252403">
        <ele>566.83000000000004</ele>
        <time>2019-03-15T10:45:00Z</time>
      </trkpt>
      <trkpt lat="29.939843220636249" lon="-6.802061274647713">
        <ele>568.27999999999997</ele>
        <time>2019-03-15T10:45:14Z</time>
      </trkpt>
      <trkpt lat="29.940792554989457" lon="-6.802433095872402">
        <ele>568.27999999999997</ele>
        <time>2019-03-15T10:45:29Z</time>
      </trkpt>
      <trkpt lat="29.941577101126313" lon="-6.802715146914125">
        <ele>568.27999999999997</ele>
        <time>2019-03-15T10:45:43Z</time>
      </trkpt>
      <trkpt lat="29.942252766340971" lon="-6.803035419434309">
        <ele>568.27999999999997</ele>
        <time>2019-03-15T10:45:59Z</time>
      </trkpt>
      <trkpt lat="29.942416129633784" lon="-6.803080346435309">
        <ele>567.79999999999995</ele>
        <time>2019-03-15T10:46:03Z</time>
      </trkpt>
      <trkpt lat="29.942452255636454" lon="-6.803103564307094">
        <ele>567.79999999999995</ele>
        <time>2019-03-15T10:46:04Z</time>
      </trkpt>
      <trkpt lat="29.942487459629774" lon="-6.803127536550164">
        <ele>568.27999999999997</ele>
        <time>2019-03-15T10:46:05Z</time>
      </trkpt>
      <trkpt lat="29.942564154043794" lon="-6.803176403045654">
        <ele>568.27999999999997</ele>
        <time>2019-03-15T10:46:07Z</time>
      </trkpt>
      <trkpt lat="29.943163795396686" lon="-6.803374467417598">
        <ele>568.27999999999997</ele>
        <time>2019-03-15T10:46:21Z</time>
      </trkpt>
      <trkpt lat="29.94320360943675" lon="-6.803398774936795">
        <ele>566.83000000000004</ele>
        <time>2019-03-15T10:46:22Z</time>
      </trkpt>
      <trkpt lat="29.943244261667132" lon="-6.803423501551151">
        <ele>569.24000000000001</ele>
        <time>2019-03-15T10:46:23Z</time>
      </trkpt>
      <trkpt lat="29.943288685753942" lon="-6.803440600633621">
        <ele>568.75999999999999</ele>
        <time>2019-03-15T10:46:24Z</time>
      </trkpt>
      <trkpt lat="29.943338641896844" lon="-6.803454514592886">
        <ele>565.87</ele>
        <time>2019-03-15T10:46:25Z</time>
      </trkpt>
      <trkpt lat="29.943537125363946" lon="-6.803524503484368">
        <ele>568.75999999999999</ele>
        <time>2019-03-15T10:46:28Z</time>
      </trkpt>
      <trkpt lat="29.944291915744543" lon="-6.804151386022568">
        <ele>568.75999999999999</ele>
        <time>2019-03-15T10:46:38Z</time>
      </trkpt>
      <trkpt lat="29.945186600089073" lon="-6.804710291326046">
        <ele>568.75999999999999</ele>
        <time>2019-03-15T10:46:49Z</time>
      </trkpt>
      <trkpt lat="29.94603225030005" lon="-6.805270621553063">
        <ele>568.75999999999999</ele>
        <time>2019-03-15T10:47:00Z</time>
      </trkpt>
      <trkpt lat="29.946961551904678" lon="-6.80585484020412">
        <ele>568.75999999999999</ele>
        <time>2019-03-15T10:47:12Z</time>
      </trkpt>
      <trkpt lat="29.94704763405025" lon="-6.805876800790429">
        <ele>569.72000000000003</ele>
        <time>2019-03-15T10:47:13Z</time>
      </trkpt>
      <trkpt lat="29.947136985138059" lon="-6.805888954550028">
        <ele>569.24000000000001</ele>
        <time>2019-03-15T10:47:14Z</time>
      </trkpt>
      <trkpt lat="29.947228096425533" lon="-6.805892894044519">
        <ele>569.72000000000003</ele>
        <time>2019-03-15T10:47:15Z</time>
      </trkpt>
      <trkpt lat="29.947320884093642" lon="-6.805887194350362">
        <ele>570.67999999999995</ele>
        <time>2019-03-15T10:47:16Z</time>
      </trkpt>
      <trkpt lat="29.94760955683887" lon="-6.805881578475237">
        <ele>570.20000000000005</ele>
        <time>2019-03-15T10:47:19Z</time>
      </trkpt>
      <trkpt lat="29.94852477684617" lon="-6.806323053315282">
        <ele>570.67999999999995</ele>
        <time>2019-03-15T10:47:29Z</time>
      </trkpt>
      <trkpt lat="29.948660479858518" lon="-6.806439226493239">
        <ele>569.72000000000003</ele>
        <time>2019-03-15T10:47:31Z</time>
      </trkpt>
      <trkpt lat="29.949253918603063" lon="-6.807067031040788">
        <ele>569.24000000000001</ele>
        <time>2019-03-15T10:47:42Z</time>
      </trkpt>
      <trkpt lat="29.949735207483172" lon="-6.807303735986352">
        <ele>569.72000000000003</ele>
        <time>2019-03-15T10:47:49Z</time>
      </trkpt>
      <trkpt lat="29.949984317645431" lon="-6.807477325201035">
        <ele>570.20000000000005</ele>
        <time>2019-03-15T10:47:53Z</time>
      </trkpt>
      <trkpt lat="29.950656797736883" lon="-6.80797353386879">
        <ele>570.67999999999995</ele>
        <time>2019-03-15T10:48:04Z</time>
      </trkpt>
      <trkpt lat="29.95119902305305" lon="-6.808485249057412">
        <ele>570.67999999999995</ele>
        <time>2019-03-15T10:48:12Z</time>
      </trkpt>
      <trkpt lat="29.951249398291111" lon="-6.808556159958243">
        <ele>570.67999999999995</ele>
        <time>2019-03-15T10:48:13Z</time>
      </trkpt>
      <trkpt lat="29.951346209272742" lon="-6.808695802465081">
        <ele>570.67999999999995</ele>
        <time>2019-03-15T10:48:15Z</time>
      </trkpt>
      <trkpt lat="29.951408319175243" lon="-6.808749279007316">
        <ele>571.15999999999997</ele>
        <time>2019-03-15T10:48:16Z</time>
      </trkpt>
      <trkpt lat="29.95162658393383" lon="-6.808882215991616">
        <ele>571.15999999999997</ele>
        <time>2019-03-15T10:48:19Z</time>
      </trkpt>
      <trkpt lat="29.951854906976223" lon="-6.80899964645505">
        <ele>571.15999999999997</ele>
        <time>2019-03-15T10:48:22Z</time>
      </trkpt>
      <trkpt lat="29.951923135668039" lon="-6.809057146310806">
        <ele>571.15999999999997</ele>
        <time>2019-03-15T10:48:23Z</time>
      </trkpt>
      <trkpt lat="29.952140478417277" lon="-6.809241212904453">
        <ele>571.15999999999997</ele>
        <time>2019-03-15T10:48:26Z</time>
      </trkpt>
      <trkpt lat="29.952224465087056" lon="-6.80928505025804">
        <ele>571.15999999999997</ele>
        <time>2019-03-15T10:48:27Z</time>
      </trkpt>
      <trkpt lat="29.952393108978868" lon="-6.809357469901443">
        <ele>571.15999999999997</ele>
        <time>2019-03-15T10:48:29Z</time>
      </trkpt>
      <trkpt lat="29.952470725402236" lon="-6.809406084939838">
        <ele>571.15999999999997</ele>
        <time>2019-03-15T10:48:30Z</time>
      </trkpt>
      <trkpt lat="29.952541217207909" lon="-6.809465847909451">
        <ele>571.15999999999997</ele>
        <time>2019-03-15T10:48:31Z</time>
      </trkpt>
      <trkpt lat="29.952600141987205" lon="-6.809538267552853">
        <ele>571.15999999999997</ele>
        <time>2019-03-15T10:48:32Z</time>
      </trkpt>
      <trkpt lat="29.952652864158154" lon="-6.809620158746839">
        <ele>571.15999999999997</ele>
        <time>2019-03-15T10:48:33Z</time>
      </trkpt>
      <trkpt lat="29.952701227739453" lon="-6.809703391045332">
        <ele>571.15999999999997</ele>
        <time>2019-03-15T10:48:34Z</time>
      </trkpt>
      <trkpt lat="29.952756045386195" lon="-6.809777235612273">
        <ele>571.63999999999999</ele>
        <time>2019-03-15T10:48:35Z</time>
      </trkpt>
      <trkpt lat="29.952824609354138" lon="-6.809835070744157">
        <ele>571.63999999999999</ele>
        <time>2019-03-15T10:48:36Z</time>
      </trkpt>
      <trkpt lat="29.952899795025587" lon="-6.809880416840315">
        <ele>571.63999999999999</ele>
        <time>2019-03-15T10:48:37Z</time>
      </trkpt>
      <trkpt lat="29.952976237982512" lon="-6.809924505650997">
        <ele>571.63999999999999</ele>
        <time>2019-03-15T10:48:38Z</time>
      </trkpt>
      <trkpt lat="29.953050585463643" lon="-6.809976389631629">
        <ele>571.63999999999999</ele>
        <time>2019-03-15T10:48:39Z</time>
      </trkpt>
      <trkpt lat="29.953122921288013" lon="-6.81003606878221">
        <ele>571.15999999999997</ele>
        <time>2019-03-15T10:48:40Z</time>
      </trkpt>
      <trkpt lat="29.953191401436925" lon="-6.810103291645646">
        <ele>571.15999999999997</ele>
        <time>2019-03-15T10:48:41Z</time>
      </trkpt>
      <trkpt lat="29.953255439177155" lon="-6.810178644955158">
        <ele>571.15999999999997</ele>
        <time>2019-03-15T10:48:42Z</time>
      </trkpt>
      <trkpt lat="29.953311765566468" lon="-6.810260368511081">
        <ele>571.15999999999997</ele>
        <time>2019-03-15T10:48:43Z</time>
      </trkpt>
      <trkpt lat="29.953358788043261" lon="-6.810345193371177">
        <ele>571.15999999999997</ele>
        <time>2019-03-15T10:48:44Z</time>
      </trkpt>
      <trkpt lat="29.953398015350103" lon="-6.810430018231273">
        <ele>571.63999999999999</ele>
        <time>2019-03-15T10:48:45Z</time>
      </trkpt>
      <trkpt lat="29.953429950401187" lon="-6.810511071234942">
        <ele>571.63999999999999</ele>
        <time>2019-03-15T10:48:46Z</time>
      </trkpt>
      <trkpt lat="29.953457694500685" lon="-6.810592794790864">
        <ele>572.12</ele>
        <time>2019-03-15T10:48:47Z</time>
      </trkpt>
      <trkpt lat="29.953487198799849" lon="-6.810670914128423">
        <ele>572.60000000000002</ele>
        <time>2019-03-15T10:48:48Z</time>
      </trkpt>
      <trkpt lat="29.95352684520185" lon="-6.810744674876332">
        <ele>572.60000000000002</ele>
        <time>2019-03-15T10:48:49Z</time>
      </trkpt>
      <trkpt lat="29.953578477725387" lon="-6.810807455331087">
        <ele>573.55999999999995</ele>
        <time>2019-03-15T10:48:50Z</time>
      </trkpt>
      <trkpt lat="29.953642599284649" lon="-6.810850454494357">
        <ele>573.08000000000004</ele>
        <time>2019-03-15T10:48:51Z</time>
      </trkpt>
      <trkpt lat="29.953716024756432" lon="-6.81087015196681">
        <ele>572.60000000000002</ele>
        <time>2019-03-15T10:48:52Z</time>
      </trkpt>
      <trkpt lat="29.953794060274959" lon="-6.81087015196681">
        <ele>573.08000000000004</ele>
        <time>2019-03-15T10:48:53Z</time>
      </trkpt>
      <trkpt lat="29.954170072451234" lon="-6.810972914099693">
        <ele>573.08000000000004</ele>
        <time>2019-03-15T10:48:58Z</time>
      </trkpt>
      <trkpt lat="29.955111024901271" lon="-6.81181026622653">
        <ele>573.55999999999995</ele>
        <time>2019-03-15T10:49:10Z</time>
      </trkpt>
      <trkpt lat="29.955959441140294" lon="-6.812439998611808">
        <ele>573.55999999999995</ele>
        <time>2019-03-15T10:49:19Z</time>
      </trkpt>
      <trkpt lat="29.9569589830935" lon="-6.813211049884558">
        <ele>574.03999999999996</ele>
        <time>2019-03-15T10:49:29Z</time>
      </trkpt>
      <trkpt lat="29.957952657714486" lon="-6.814175806939602">
        <ele>574.03999999999996</ele>
        <time>2019-03-15T10:49:38Z</time>
      </trkpt>
      <trkpt lat="29.95901950635016" lon="-6.815472906455398">
        <ele>574.03999999999996</ele>
        <time>2019-03-15T10:49:49Z</time>
      </trkpt>
      <trkpt lat="29.959694501012564" lon="-6.81641654111445">
        <ele>574.03999999999996</ele>
        <time>2019-03-15T10:49:57Z</time>
      </trkpt>
      <trkpt lat="29.960540989413857" lon="-6.818302720785141">
        <ele>571.63999999999999</ele>
        <time>2019-03-15T10:50:10Z</time>
      </trkpt>
      <trkpt lat="29.960962934419513" lon="-6.819968624040484">
        <ele>571.15999999999997</ele>
        <time>2019-03-15T10:50:21Z</time>
      </trkpt>
      <trkpt lat="29.961379850283265" lon="-6.821460518985987">
        <ele>570.67999999999995</ele>
        <time>2019-03-15T10:50:32Z</time>
      </trkpt>
      <trkpt lat="29.961439026519656" lon="-6.821577614173293">
        <ele>569.24000000000001</ele>
        <time>2019-03-15T10:50:33Z</time>
      </trkpt>
      <trkpt lat="29.961887458339334" lon="-6.822599954903126">
        <ele>568.27999999999997</ele>
        <time>2019-03-15T10:50:42Z</time>
      </trkpt>
      <trkpt lat="29.961899779736996" lon="-6.822717050090432">
        <ele>567.79999999999995</ele>
        <time>2019-03-15T10:50:43Z</time>
      </trkpt>
      <trkpt lat="29.961925260722637" lon="-6.82293925434351">
        <ele>564.42999999999995</ele>
        <time>2019-03-15T10:50:45Z</time>
      </trkpt>
      <trkpt lat="29.962007738649845" lon="-6.823463207110763">
        <ele>563.95000000000005</ele>
        <time>2019-03-15T10:50:50Z</time>
      </trkpt>
      <trkpt lat="29.962000362575054" lon="-6.823570160195231">
        <ele>563.95000000000005</ele>
        <time>2019-03-15T10:50:51Z</time>
      </trkpt>
      <trkpt lat="29.961986029520631" lon="-6.823681555688381">
        <ele>563.47000000000003</ele>
        <time>2019-03-15T10:50:52Z</time>
      </trkpt>
      <trkpt lat="29.961976306512952" lon="-6.82429569773376">
        <ele>563.95000000000005</ele>
        <time>2019-03-15T10:50:57Z</time>
      </trkpt>
      <trkpt lat="29.962004804983735" lon="-6.824405500665307">
        <ele>563.95000000000005</ele>
        <time>2019-03-15T10:50:58Z</time>
      </trkpt>
      <trkpt lat="29.962038416415453" lon="-6.824501724913716">
        <ele>563.95000000000005</ele>
        <time>2019-03-15T10:50:59Z</time>
      </trkpt>
      <trkpt lat="29.962075464427471" lon="-6.824585208669305">
        <ele>563.95000000000005</ele>
        <time>2019-03-15T10:51:00Z</time>
      </trkpt>
      <trkpt lat="29.962119134142995" lon="-6.82465435937047">
        <ele>563.95000000000005</ele>
        <time>2019-03-15T10:51:01Z</time>
      </trkpt>
      <trkpt lat="29.962168335914612" lon="-6.824704231694341">
        <ele>563.95000000000005</ele>
        <time>2019-03-15T10:51:02Z</time>
      </trkpt>
      <trkpt lat="29.962222231552005" lon="-6.824742620810866">
        <ele>563.95000000000005</ele>
        <time>2019-03-15T10:51:03Z</time>
      </trkpt>
      <trkpt lat="29.962280234321952" lon="-6.824778579175472">
        <ele>563.47000000000003</ele>
        <time>2019-03-15T10:51:04Z</time>
      </trkpt>
      <trkpt lat="29.96234024874866" lon="-6.824813112616539">
        <ele>561.54999999999995</ele>
        <time>2019-03-15T10:51:05Z</time>
      </trkpt>
      <trkpt lat="29.962505204603076" lon="-6.824922496452928">
        <ele>561.54999999999995</ele>
        <time>2019-03-15T10:51:08Z</time>
      </trkpt>
      <trkpt lat="29.962548287585378" lon="-6.824965411797166">
        <ele>561.54999999999995</ele>
        <time>2019-03-15T10:51:09Z</time>
      </trkpt>
      <trkpt lat="29.962624730542302" lon="-6.825047973543406">
        <ele>561.54999999999995</ele>
        <time>2019-03-15T10:51:16Z</time>
      </trkpt>
      <trkpt lat="29.962736293673515" lon="-6.825131122022867">
        <ele>561.54999999999995</ele>
        <time>2019-03-15T10:51:35Z</time>
      </trkpt>
      <trkpt lat="29.962784154340625" lon="-6.825152076780796">
        <ele>561.54999999999995</ele>
        <time>2019-03-15T10:51:36Z</time>
      </trkpt>
      <trkpt lat="29.96283276937902" lon="-6.82517378591001">
        <ele>561.54999999999995</ele>
        <time>2019-03-15T10:51:37Z</time>
      </trkpt>
      <trkpt lat="29.962875517085195" lon="-6.825203960761428">
        <ele>561.07000000000005</ele>
        <time>2019-03-15T10:51:38Z</time>
      </trkpt>
      <trkpt lat="29.962912397459149" lon="-6.825239332392812">
        <ele>561.07000000000005</ele>
        <time>2019-03-15T10:51:39Z</time>
      </trkpt>
      <trkpt lat="29.962947685271502" lon="-6.825272357091308">
        <ele>561.07000000000005</ele>
        <time>2019-03-15T10:51:40Z</time>
      </trkpt>
      <trkpt lat="29.962986325845122" lon="-6.825300352647901">
        <ele>561.07000000000005</ele>
        <time>2019-03-15T10:51:41Z</time>
      </trkpt>
      <trkpt lat="29.963027816265821" lon="-6.825319295749068">
        <ele>561.07000000000005</ele>
        <time>2019-03-15T10:51:42Z</time>
      </trkpt>
      <trkpt lat="29.963071066886187" lon="-6.825332455337048">
        <ele>561.07000000000005</ele>
        <time>2019-03-15T10:51:43Z</time>
      </trkpt>
      <trkpt lat="29.963117502629757" lon="-6.825349973514676">
        <ele>561.07000000000005</ele>
        <time>2019-03-15T10:51:44Z</time>
      </trkpt>
      <trkpt lat="29.963168213143945" lon="-6.825376208871603">
        <ele>561.07000000000005</ele>
        <time>2019-03-15T10:51:45Z</time>
      </trkpt>
      <trkpt lat="29.963217414915562" lon="-6.825411412864924">
        <ele>561.54999999999995</ele>
        <time>2019-03-15T10:51:46Z</time>
      </trkpt>
      <trkpt lat="29.963260162621737" lon="-6.825449885800481">
        <ele>561.54999999999995</ele>
        <time>2019-03-15T10:51:47Z</time>
      </trkpt>
      <trkpt lat="29.963294947519898" lon="-6.825489867478609">
        <ele>561.54999999999995</ele>
        <time>2019-03-15T10:51:48Z</time>
      </trkpt>
      <trkpt lat="29.963322188705206" lon="-6.825532196089625">
        <ele>561.54999999999995</ele>
        <time>2019-03-15T10:51:49Z</time>
      </trkpt>
      <trkpt lat="29.96334389783442" lon="-6.825579134747386">
        <ele>562.02999999999997</ele>
        <time>2019-03-15T10:51:50Z</time>
      </trkpt>
      <trkpt lat="29.96336585842073" lon="-6.825630934908986">
        <ele>562.50999999999999</ele>
        <time>2019-03-15T10:51:51Z</time>
      </trkpt>
      <trkpt lat="29.963395278900862" lon="-6.825684495270252">
        <ele>562.50999999999999</ele>
        <time>2019-03-15T10:51:52Z</time>
      </trkpt>
      <trkpt lat="29.963435092940927" lon="-6.825732104480267">
        <ele>562.99000000000001</ele>
        <time>2019-03-15T10:51:53Z</time>
      </trkpt>
      <trkpt lat="29.963481780141592" lon="-6.825766721740365">
        <ele>562.50999999999999</ele>
        <time>2019-03-15T10:51:54Z</time>
      </trkpt>
      <trkpt lat="29.963569790124893" lon="-6.825822629034519">
        <ele>562.02999999999997</ele>
        <time>2019-03-15T10:51:56Z</time>
      </trkpt>
      <trkpt lat="29.963605916127563" lon="-6.825857497751713">
        <ele>562.02999999999997</ele>
        <time>2019-03-15T10:51:57Z</time>
      </trkpt>
      <trkpt lat="29.963636426255107" lon="-6.825902173295617">
        <ele>562.02999999999997</ele>
        <time>2019-03-15T10:51:58Z</time>
      </trkpt>
      <trkpt lat="29.963705576956272" lon="-6.826006947085261">
        <ele>562.02999999999997</ele>
        <time>2019-03-15T10:52:00Z</time>
      </trkpt>
      <trkpt lat="29.963752515614033" lon="-6.826056148856878">
        <ele>562.50999999999999</ele>
        <time>2019-03-15T10:52:01Z</time>
      </trkpt>
      <trkpt lat="29.963801298290491" lon="-6.826104009523988">
        <ele>562.99000000000001</ele>
        <time>2019-03-15T10:52:02Z</time>
      </trkpt>
      <trkpt lat="29.963893666863441" lon="-6.826212974265218">
        <ele>563.47000000000003</ele>
        <time>2019-03-15T10:52:04Z</time>
      </trkpt>
      <trkpt lat="29.963935744017363" lon="-6.826274497434497">
        <ele>563.95000000000005</ele>
        <time>2019-03-15T10:52:05Z</time>
      </trkpt>
      <trkpt lat="29.963973211124539" lon="-6.826337613165379">
        <ele>564.42999999999995</ele>
        <time>2019-03-15T10:52:06Z</time>
      </trkpt>
      <trkpt lat="29.964003637433052" lon="-6.826398214325309">
        <ele>564.90999999999997</ele>
        <time>2019-03-15T10:52:07Z</time>
      </trkpt>
      <trkpt lat="29.964027525857091" lon="-6.826455965638161">
        <ele>564.90999999999997</ele>
        <time>2019-03-15T10:52:08Z</time>
      </trkpt>
      <trkpt lat="29.964045882225037" lon="-6.826516482979059">
        <ele>564.90999999999997</ele>
        <time>2019-03-15T10:52:09Z</time>
      </trkpt>
      <trkpt lat="29.964059041813016" lon="-6.82658052071929">
        <ele>564.90999999999997</ele>
        <time>2019-03-15T10:52:10Z</time>
      </trkpt>
      <trkpt lat="29.964065076783299" lon="-6.826650593429804">
        <ele>564.90999999999997</ele>
        <time>2019-03-15T10:52:11Z</time>
      </trkpt>
      <trkpt lat="29.964064909145236" lon="-6.826725862920284">
        <ele>564.90999999999997</ele>
        <time>2019-03-15T10:52:12Z</time>
      </trkpt>
      <trkpt lat="29.964064154773951" lon="-6.826801635324955">
        <ele>564.90999999999997</ele>
        <time>2019-03-15T10:52:13Z</time>
      </trkpt>
      <trkpt lat="29.964074213057756" lon="-6.826965669170022">
        <ele>564.90999999999997</ele>
        <time>2019-03-15T10:52:15Z</time>
      </trkpt>
      <trkpt lat="29.964173873886466" lon="-6.827576877549291">
        <ele>564.90999999999997</ele>
        <time>2019-03-15T10:52:22Z</time>
      </trkpt>
      <trkpt lat="29.964200025424361" lon="-6.827641166746616">
        <ele>565.38999999999999</ele>
        <time>2019-03-15T10:52:23Z</time>
      </trkpt>
      <trkpt lat="29.964233972132206" lon="-6.827699588611722">
        <ele>565.38999999999999</ele>
        <time>2019-03-15T10:52:24Z</time>
      </trkpt>
      <trkpt lat="29.964276803657413" lon="-6.827758848667145">
        <ele>565.87</ele>
        <time>2019-03-15T10:52:25Z</time>
      </trkpt>
      <trkpt lat="29.964325753971934" lon="-6.827817605808377">
        <ele>571.63999999999999</ele>
        <time>2019-03-15T10:52:26Z</time>
      </trkpt>
      <trkpt lat="29.96437638066709" lon="-6.827874854207039">
        <ele>573.55999999999995</ele>
        <time>2019-03-15T10:52:27Z</time>
      </trkpt>
      <trkpt lat="29.964490877464414" lon="-6.82798339985311">
        <ele>575.49000000000001</ele>
        <time>2019-03-15T10:52:29Z</time>
      </trkpt>
      <trkpt lat="29.965175678953528" lon="-6.828493941575289">
        <ele>576.45000000000005</ele>
        <time>2019-03-15T10:52:40Z</time>
      </trkpt>
      <trkpt lat="29.965831395238638" lon="-6.829029377549887">
        <ele>579.80999999999995</ele>
        <time>2019-03-15T10:52:53Z</time>
      </trkpt>
      <trkpt lat="29.966012025251985" lon="-6.829230124130845">
        <ele>580.28999999999996</ele>
        <time>2019-03-15T10:52:57Z</time>
      </trkpt>
      <trkpt lat="29.966233894228935" lon="-6.82948149740696">
        <ele>580.28999999999996</ele>
        <time>2019-03-15T10:53:02Z</time>
      </trkpt>
      <trkpt lat="29.9664291087538" lon="-6.829713173210621">
        <ele>580.76999999999998</ele>
        <time>2019-03-15T10:53:06Z</time>
      </trkpt>
      <trkpt lat="29.966947697103024" lon="-6.830593692138791">
        <ele>579.80999999999995</ele>
        <time>2019-03-15T10:53:18Z</time>
      </trkpt>
      <trkpt lat="29.967395542189479" lon="-6.831204146146774">
        <ele>580.28999999999996</ele>
        <time>2019-03-15T10:53:27Z</time>
      </trkpt>
      <trkpt lat="29.967452539131045" lon="-6.831249324604869">
        <ele>580.76999999999998</ele>
        <time>2019-03-15T10:53:28Z</time>
      </trkpt>
      <trkpt lat="29.968220656737685" lon="-6.83176732622087">
        <ele>580.76999999999998</ele>
        <time>2019-03-15T10:53:40Z</time>
      </trkpt>
      <trkpt lat="29.96879942715168" lon="-6.83228331618011">
        <ele>580.76999999999998</ele>
        <time>2019-03-15T10:53:48Z</time>
      </trkpt>
      <trkpt lat="29.969144091010094" lon="-6.832539048045874">
        <ele>580.28999999999996</ele>
        <time>2019-03-15T10:53:53Z</time>
      </trkpt>
      <trkpt lat="29.969269903376698" lon="-6.832629656419158">
        <ele>580.28999999999996</ele>
        <time>2019-03-15T10:53:55Z</time>
      </trkpt>
      <trkpt lat="29.96932128444314" lon="-6.832688413560391">
        <ele>580.28999999999996</ele>
        <time>2019-03-15T10:53:56Z</time>
      </trkpt>
      <trkpt lat="29.96936378069222" lon="-6.832757564261556">
        <ele>580.28999999999996</ele>
        <time>2019-03-15T10:53:57Z</time>
      </trkpt>
      <trkpt lat="29.969405271112919" lon="-6.832829648628831">
        <ele>580.28999999999996</ele>
        <time>2019-03-15T10:53:58Z</time>
      </trkpt>
      <trkpt lat="29.969458496198058" lon="-6.832893518730998">
        <ele>580.28999999999996</ele>
        <time>2019-03-15T10:53:59Z</time>
      </trkpt>
      <trkpt lat="29.969525970518589" lon="-6.832946911454201">
        <ele>580.76999999999998</ele>
        <time>2019-03-15T10:54:00Z</time>
      </trkpt>
      <trkpt lat="29.969600820913911" lon="-6.832992844283581">
        <ele>582.22000000000003</ele>
        <time>2019-03-15T10:54:01Z</time>
      </trkpt>
      <trkpt lat="29.96967944316566" lon="-6.833036262542009">
        <ele>582.70000000000005</ele>
        <time>2019-03-15T10:54:02Z</time>
      </trkpt>
      <trkpt lat="29.970185710117221" lon="-6.833346812054515">
        <ele>582.70000000000005</ele>
        <time>2019-03-15T10:54:08Z</time>
      </trkpt>
      <trkpt lat="29.970256956294179" lon="-6.833410430699587">
        <ele>582.70000000000005</ele>
        <time>2019-03-15T10:54:09Z</time>
      </trkpt>
      <trkpt lat="29.970643194392323" lon="-6.833803625777364">
        <ele>583.17999999999995</ele>
        <time>2019-03-15T10:54:15Z</time>
      </trkpt>
      <trkpt lat="29.971000598743558" lon="-6.834086934104562">
        <ele>583.65999999999997</ele>
        <time>2019-03-15T10:54:20Z</time>
      </trkpt>
      <trkpt lat="29.971185671165586" lon="-6.834279885515571">
        <ele>583.65999999999997</ele>
        <time>2019-03-15T10:54:23Z</time>
      </trkpt>
      <trkpt lat="29.971252139657736" lon="-6.834319699555636">
        <ele>583.65999999999997</ele>
        <time>2019-03-15T10:54:24Z</time>
      </trkpt>
      <trkpt lat="29.971387088298798" lon="-6.834384826943278">
        <ele>583.65999999999997</ele>
        <time>2019-03-15T10:54:26Z</time>
      </trkpt>
      <trkpt lat="29.971449617296457" lon="-6.834434615448117">
        <ele>584.13999999999999</ele>
        <time>2019-03-15T10:54:27Z</time>
      </trkpt>
      <trkpt lat="29.971509464085102" lon="-6.834499575197697">
        <ele>584.62</ele>
        <time>2019-03-15T10:54:28Z</time>
      </trkpt>
      <trkpt lat="29.971627648919821" lon="-6.834636870771647">
        <ele>584.62</ele>
        <time>2019-03-15T10:54:30Z</time>
      </trkpt>
      <trkpt lat="29.971698811277747" lon="-6.834684563800693">
        <ele>584.62</ele>
        <time>2019-03-15T10:54:31Z</time>
      </trkpt>
      <trkpt lat="29.971775840967894" lon="-6.834717839956284">
        <ele>584.62</ele>
        <time>2019-03-15T10:54:32Z</time>
      </trkpt>
      <trkpt lat="29.971849098801613" lon="-6.834753127768636">
        <ele>584.62</ele>
        <time>2019-03-15T10:54:33Z</time>
      </trkpt>
      <trkpt lat="29.97191296890378" lon="-6.834802916273475">
        <ele>584.62</ele>
        <time>2019-03-15T10:54:34Z</time>
      </trkpt>
      <trkpt lat="29.97196770273149" lon="-6.834864020347595">
        <ele>584.62</ele>
        <time>2019-03-15T10:54:35Z</time>
      </trkpt>
      <trkpt lat="29.972013216465712" lon="-6.834935266524553">
        <ele>584.62</ele>
        <time>2019-03-15T10:54:36Z</time>
      </trkpt>
      <trkpt lat="29.972060574218631" lon="-6.835008440539241">
        <ele>584.62</ele>
        <time>2019-03-15T10:54:37Z</time>
      </trkpt>
      <trkpt lat="29.972115643322468" lon="-6.83507532812655">
        <ele>584.62</ele>
        <time>2019-03-15T10:54:38Z</time>
      </trkpt>
      <trkpt lat="29.972178926691413" lon="-6.835135510191321">
        <ele>584.62</ele>
        <time>2019-03-15T10:54:39Z</time>
      </trkpt>
      <trkpt lat="29.972246820107102" lon="-6.83519066311419">
        <ele>584.62</ele>
        <time>2019-03-15T10:54:40Z</time>
      </trkpt>
      <trkpt lat="29.972319155931473" lon="-6.835241792723537">
        <ele>584.13999999999999</ele>
        <time>2019-03-15T10:54:41Z</time>
      </trkpt>
      <trkpt lat="29.972681170329452" lon="-6.83546039275825">
        <ele>584.13999999999999</ele>
        <time>2019-03-15T10:54:46Z</time>
      </trkpt>
      <trkpt lat="29.972742442041636" lon="-6.835513282567263">
        <ele>584.62</ele>
        <time>2019-03-15T10:54:47Z</time>
      </trkpt>
      <trkpt lat="29.972794828936458" lon="-6.835575141012669">
        <ele>584.13999999999999</ele>
        <time>2019-03-15T10:54:48Z</time>
      </trkpt>
      <trkpt lat="29.972843360155821" lon="-6.835642363876104">
        <ele>584.13999999999999</ele>
        <time>2019-03-15T10:54:49Z</time>
      </trkpt>
      <trkpt lat="29.972899183630943" lon="-6.835700366646051">
        <ele>584.62</ele>
        <time>2019-03-15T10:54:50Z</time>
      </trkpt>
      <trkpt lat="29.972964227199554" lon="-6.835742276161909">
        <ele>584.62</ele>
        <time>2019-03-15T10:54:51Z</time>
      </trkpt>
      <trkpt lat="29.973031701520085" lon="-6.835774295032024">
        <ele>584.62</ele>
        <time>2019-03-15T10:54:52Z</time>
      </trkpt>
      <trkpt lat="29.973093643784523" lon="-6.835815701633692">
        <ele>584.62</ele>
        <time>2019-03-15T10:54:53Z</time>
      </trkpt>
      <trkpt lat="29.973144186660647" lon="-6.835871273651719">
        <ele>584.62</ele>
        <time>2019-03-15T10:54:54Z</time>
      </trkpt>
      <trkpt lat="29.973190035670996" lon="-6.83593237772584">
        <ele>585.10000000000002</ele>
        <time>2019-03-15T10:54:55Z</time>
      </trkpt>
      <trkpt lat="29.97324401512742" lon="-6.835986776277423">
        <ele>585.10000000000002</ele>
        <time>2019-03-15T10:54:56Z</time>
      </trkpt>
      <trkpt lat="29.973308220505714" lon="-6.836023572832346">
        <ele>585.58000000000004</ele>
        <time>2019-03-15T10:54:57Z</time>
      </trkpt>
      <trkpt lat="29.973378628492355" lon="-6.836050227284432">
        <ele>585.10000000000002</ele>
        <time>2019-03-15T10:54:58Z</time>
      </trkpt>
      <trkpt lat="29.973447695374489" lon="-6.836084676906467">
        <ele>587.01999999999998</ele>
        <time>2019-03-15T10:54:59Z</time>
      </trkpt>
      <trkpt lat="29.973513158038259" lon="-6.836131531745195">
        <ele>587.01999999999998</ele>
        <time>2019-03-15T10:55:00Z</time>
      </trkpt>
      <trkpt lat="29.973575100302696" lon="-6.83619087561965">
        <ele>586.05999999999995</ele>
        <time>2019-03-15T10:55:01Z</time>
      </trkpt>
      <trkpt lat="29.973913226276636" lon="-6.836505364626646">
        <ele>586.53999999999996</ele>
        <time>2019-03-15T10:55:06Z</time>
      </trkpt>
      <trkpt lat="29.974430976435542" lon="-6.836862014606595">
        <ele>586.53999999999996</ele>
        <time>2019-03-15T10:55:13Z</time>
      </trkpt>
      <trkpt lat="29.974492164328694" lon="-6.836926555261016">
        <ele>587.01999999999998</ele>
        <time>2019-03-15T10:55:14Z</time>
      </trkpt>
      <trkpt lat="29.974959120154381" lon="-6.837372137233615">
        <ele>587.98000000000002</ele>
        <time>2019-03-15T10:55:21Z</time>
      </trkpt>
      <trkpt lat="29.975029779598117" lon="-6.837420500814915">
        <ele>589.42999999999995</ele>
        <time>2019-03-15T10:55:22Z</time>
      </trkpt>
      <trkpt lat="29.975105216726661" lon="-6.837455369532108">
        <ele>590.38999999999999</ele>
        <time>2019-03-15T10:55:23Z</time>
      </trkpt>
      <trkpt lat="29.976183716207743" lon="-6.837882595136762">
        <ele>590.38999999999999</ele>
        <time>2019-03-15T10:55:36Z</time>
      </trkpt>
      <trkpt lat="29.97735533863306" lon="-6.838402273133397">
        <ele>590.87</ele>
        <time>2019-03-15T10:55:51Z</time>
      </trkpt>
      <trkpt lat="29.978665094822645" lon="-6.838961848989129">
        <ele>591.83000000000004</ele>
        <time>2019-03-15T10:56:07Z</time>
      </trkpt>
      <trkpt lat="29.979743761941791" lon="-6.839435258880258">
        <ele>592.30999999999995</ele>
        <time>2019-03-15T10:56:20Z</time>
      </trkpt>
      <trkpt lat="29.981049494817853" lon="-6.840047808364034">
        <ele>591.83000000000004</ele>
        <time>2019-03-15T10:56:36Z</time>
      </trkpt>
      <trkpt lat="29.982148027047515" lon="-6.840579807758331">
        <ele>592.30999999999995</ele>
        <time>2019-03-15T10:56:51Z</time>
      </trkpt>
      <trkpt lat="29.9830312281847" lon="-6.841012146323919">
        <ele>592.30999999999995</ele>
        <time>2019-03-15T10:57:05Z</time>
      </trkpt>
      <trkpt lat="29.983930187299848" lon="-6.841397797688842">
        <ele>592.78999999999996</ele>
        <time>2019-03-15T10:57:19Z</time>
      </trkpt>
      <trkpt lat="29.984000427648425" lon="-6.841433504596353">
        <ele>592.78999999999996</ele>
        <time>2019-03-15T10:57:20Z</time>
      </trkpt>
      <trkpt lat="29.984070332720876" lon="-6.841475665569305">
        <ele>592.78999999999996</ele>
        <time>2019-03-15T10:57:21Z</time>
      </trkpt>
      <trkpt lat="29.984136717393994" lon="-6.841525956988335">
        <ele>594.23000000000002</ele>
        <time>2019-03-15T10:57:22Z</time>
      </trkpt>
      <trkpt lat="29.984272001311183" lon="-6.841627461835742">
        <ele>593.75</ele>
        <time>2019-03-15T10:57:24Z</time>
      </trkpt>
      <trkpt lat="29.984344420954585" lon="-6.841665850952268">
        <ele>594.71000000000004</ele>
        <time>2019-03-15T10:57:25Z</time>
      </trkpt>
      <trkpt lat="29.984423043206334" lon="-6.841690158471465">
        <ele>594.71000000000004</ele>
        <time>2019-03-15T10:57:26Z</time>
      </trkpt>
      <trkpt lat="29.985411772504449" lon="-6.842026859521866">
        <ele>594.71000000000004</ele>
        <time>2019-03-15T10:57:38Z</time>
      </trkpt>
      <trkpt lat="29.986902745440602" lon="-6.842605043202639">
        <ele>594.71000000000004</ele>
        <time>2019-03-15T10:57:55Z</time>
      </trkpt>
      <trkpt lat="29.987145233899355" lon="-6.84274728409946">
        <ele>594.71000000000004</ele>
        <time>2019-03-15T10:57:58Z</time>
      </trkpt>
      <trkpt lat="29.987227795645595" lon="-6.842782236635685">
        <ele>596.14999999999998</ele>
        <time>2019-03-15T10:57:59Z</time>
      </trkpt>
      <trkpt lat="29.988600667566061" lon="-6.843231339007616">
        <ele>596.63999999999999</ele>
        <time>2019-03-15T10:58:15Z</time>
      </trkpt>
      <trkpt lat="29.989898186177015" lon="-6.843681782484055">
        <ele>597.60000000000002</ele>
        <time>2019-03-15T10:58:31Z</time>
      </trkpt>
      <trkpt lat="29.991128901019692" lon="-6.844135327264667">
        <ele>598.08000000000004</ele>
        <time>2019-03-15T10:58:45Z</time>
      </trkpt>
      <trkpt lat="29.992190888151526" lon="-6.844511423259974">
        <ele>599.03999999999996</ele>
        <time>2019-03-15T10:58:58Z</time>
      </trkpt>
      <trkpt lat="29.99314634129405" lon="-6.844981899484992">
        <ele>599.51999999999998</ele>
        <time>2019-03-15T10:59:11Z</time>
      </trkpt>
      <trkpt lat="29.994199443608522" lon="-6.845644824206829">
        <ele>600.48000000000002</ele>
        <time>2019-03-15T10:59:25Z</time>
      </trkpt>
      <trkpt lat="29.995119106024504" lon="-6.846321830525994">
        <ele>600.96000000000004</ele>
        <time>2019-03-15T10:59:37Z</time>
      </trkpt>
      <trkpt lat="29.99593592248857" lon="-6.846790965646505">
        <ele>602.39999999999998</ele>
        <time>2019-03-15T10:59:48Z</time>
      </trkpt>
      <trkpt lat="29.996742261573672" lon="-6.846939073875547">
        <ele>601.91999999999996</ele>
        <time>2019-03-15T10:59:58Z</time>
      </trkpt>
      <trkpt lat="29.997975993901491" lon="-6.847174102440476">
        <ele>602.39999999999998</ele>
        <time>2019-03-15T11:00:10Z</time>
      </trkpt>
      <trkpt lat="29.999592695385218" lon="-6.847359342500567">
        <ele>601.91999999999996</ele>
        <time>2019-03-15T11:00:27Z</time>
      </trkpt>
      <trkpt lat="30.001109316945076" lon="-6.847497392445803">
        <ele>600.48000000000002</ele>
        <time>2019-03-15T11:00:44Z</time>
      </trkpt>
      <trkpt lat="30.002414043992758" lon="-6.847591688856483">
        <ele>597.12</ele>
        <time>2019-03-15T11:00:57Z</time>
      </trkpt>
      <trkpt lat="30.00385120511055" lon="-6.847700150683522">
        <ele>597.12</ele>
        <time>2019-03-15T11:01:12Z</time>
      </trkpt>
      <trkpt lat="30.00572414137423" lon="-6.847822275012732">
        <ele>596.63999999999999</ele>
        <time>2019-03-15T11:01:31Z</time>
      </trkpt>
      <trkpt lat="30.00683038495481" lon="-6.847914895042777">
        <ele>596.63999999999999</ele>
        <time>2019-03-15T11:01:42Z</time>
      </trkpt>
      <trkpt lat="30.00782816670835" lon="-6.8477444909513">
        <ele>597.12</ele>
        <time>2019-03-15T11:01:53Z</time>
      </trkpt>
      <trkpt lat="30.007903771474957" lon="-6.84771716594696">
        <ele>599.51999999999998</ele>
        <time>2019-03-15T11:01:54Z</time>
      </trkpt>
      <trkpt lat="30.007971664890647" lon="-6.847681375220418">
        <ele>600</ele>
        <time>2019-03-15T11:01:55Z</time>
      </trkpt>
      <trkpt lat="30.008041318506002" lon="-6.847635358572006">
        <ele>600.48000000000002</ele>
        <time>2019-03-15T11:01:56Z</time>
      </trkpt>
      <trkpt lat="30.008330326527357" lon="-6.847494710236788">
        <ele>600.48000000000002</ele>
        <time>2019-03-15T11:02:00Z</time>
      </trkpt>
      <trkpt lat="30.00852981582284" lon="-6.847333610057831">
        <ele>600.96000000000004</ele>
        <time>2019-03-15T11:02:04Z</time>
      </trkpt>
      <trkpt lat="30.008580358698964" lon="-6.847298825159669">
        <ele>600.96000000000004</ele>
        <time>2019-03-15T11:02:05Z</time>
      </trkpt>
      <trkpt lat="30.008630901575089" lon="-6.84727787040174">
        <ele>600.96000000000004</ele>
        <time>2019-03-15T11:02:06Z</time>
      </trkpt>
      <trkpt lat="30.008681360632181" lon="-6.847271751612425">
        <ele>600.96000000000004</ele>
        <time>2019-03-15T11:02:07Z</time>
      </trkpt>
      <trkpt lat="30.008731987327337" lon="-6.847281726077199">
        <ele>601.44000000000005</ele>
        <time>2019-03-15T11:02:08Z</time>
      </trkpt>
      <trkpt lat="30.008784541860223" lon="-6.847305530682206">
        <ele>603.36000000000001</ele>
        <time>2019-03-15T11:02:09Z</time>
      </trkpt>
      <trkpt lat="30.008843885734677" lon="-6.84733796864748">
        <ele>605.76999999999998</ele>
        <time>2019-03-15T11:02:10Z</time>
      </trkpt>
      <trkpt lat="30.008916975930333" lon="-6.847370071336627">
        <ele>606.73000000000002</ele>
        <time>2019-03-15T11:02:11Z</time>
      </trkpt>
      <trkpt lat="30.009000543504953" lon="-6.847401587292552">
        <ele>606.73000000000002</ele>
        <time>2019-03-15T11:02:12Z</time>
      </trkpt>
      <trkpt lat="30.009965300559998" lon="-6.847723536193371">
        <ele>607.69000000000005</ele>
        <time>2019-03-15T11:02:23Z</time>
      </trkpt>
      <trkpt lat="30.011191572993994" lon="-6.848150258883834">
        <ele>610.09000000000003</ele>
        <time>2019-03-15T11:02:39Z</time>
      </trkpt>
      <trkpt lat="30.01254147849977" lon="-6.848564073443413">
        <ele>608.16999999999996</ele>
        <time>2019-03-15T11:02:54Z</time>
      </trkpt>
      <trkpt lat="30.014040665701032" lon="-6.848895158618689">
        <ele>608.16999999999996</ele>
        <time>2019-03-15T11:03:07Z</time>
      </trkpt>
      <trkpt lat="30.015434743836522" lon="-6.849194308742881">
        <ele>611.05999999999995</ele>
        <time>2019-03-15T11:03:20Z</time>
      </trkpt>
      <trkpt lat="30.017079273238778" lon="-6.849542073905468">
        <ele>613.94000000000005</ele>
        <time>2019-03-15T11:03:36Z</time>
      </trkpt>
      <trkpt lat="30.018379306420684" lon="-6.849780036136508">
        <ele>615.38</ele>
        <time>2019-03-15T11:03:49Z</time>
      </trkpt>
      <trkpt lat="30.019989302381873" lon="-6.850141128525138">
        <ele>617.77999999999997</ele>
        <time>2019-03-15T11:04:03Z</time>
      </trkpt>
      <trkpt lat="30.021714046597481" lon="-6.850530719384551">
        <ele>618.75</ele>
        <time>2019-03-15T11:04:19Z</time>
      </trkpt>
      <trkpt lat="30.023231171071529" lon="-6.85084680095315">
        <ele>619.71000000000004</ele>
        <time>2019-03-15T11:04:35Z</time>
      </trkpt>
      <trkpt lat="30.024642432108521" lon="-6.851160619407892">
        <ele>619.71000000000004</ele>
        <time>2019-03-15T11:04:51Z</time>
      </trkpt>
      <trkpt lat="30.025624120607972" lon="-6.851362707093358">
        <ele>620.19000000000005</ele>
        <time>2019-03-15T11:05:04Z</time>
      </trkpt>
      <trkpt lat="30.026715863496065" lon="-6.85166671872139">
        <ele>620.19000000000005</ele>
        <time>2019-03-15T11:05:19Z</time>
      </trkpt>
      <trkpt lat="30.028097368776798" lon="-6.851957067847252">
        <ele>620.19000000000005</ele>
        <time>2019-03-15T11:05:36Z</time>
      </trkpt>
      <trkpt lat="30.028181942179799" lon="-6.851977184414864">
        <ele>620.66999999999996</ele>
        <time>2019-03-15T11:05:37Z</time>
      </trkpt>
      <trkpt lat="30.028265174478292" lon="-6.85201071202755">
        <ele>621.63</ele>
        <time>2019-03-15T11:05:38Z</time>
      </trkpt>
      <trkpt lat="30.028346898034215" lon="-6.852054633200169">
        <ele>622.59000000000003</ele>
        <time>2019-03-15T11:05:39Z</time>
      </trkpt>
      <trkpt lat="30.028429459780455" lon="-6.852104924619198">
        <ele>622.59000000000003</ele>
        <time>2019-03-15T11:05:40Z</time>
      </trkpt>
      <trkpt lat="30.029382733628154" lon="-6.852591661736369">
        <ele>624.50999999999999</ele>
        <time>2019-03-15T11:05:51Z</time>
      </trkpt>
      <trkpt lat="30.030781337991357" lon="-6.853208066895604">
        <ele>626.44000000000005</ele>
        <time>2019-03-15T11:06:07Z</time>
      </trkpt>
      <trkpt lat="30.031802840530872" lon="-6.853705951943994">
        <ele>628.36000000000001</ele>
        <time>2019-03-15T11:06:19Z</time>
      </trkpt>
      <trkpt lat="30.03296515904367" lon="-6.854375330731273">
        <ele>629.32000000000005</ele>
        <time>2019-03-15T11:06:31Z</time>
      </trkpt>
      <trkpt lat="30.034239208325744" lon="-6.855079242959619">
        <ele>631.24000000000001</ele>
        <time>2019-03-15T11:06:44Z</time>
      </trkpt>
      <trkpt lat="30.035533625632524" lon="-6.8557692412287">
        <ele>630.75999999999999</ele>
        <time>2019-03-15T11:06:57Z</time>
      </trkpt>
      <trkpt lat="30.037146052345634" lon="-6.856651352718473">
        <ele>631.72000000000003</ele>
        <time>2019-03-15T11:07:14Z</time>
      </trkpt>
      <trkpt lat="30.038593942299485" lon="-6.857422906905413">
        <ele>633.16999999999996</ele>
        <time>2019-03-15T11:07:29Z</time>
      </trkpt>
      <trkpt lat="30.040076030418277" lon="-6.858213739469647">
        <ele>634.13</ele>
        <time>2019-03-15T11:07:44Z</time>
      </trkpt>
      <trkpt lat="30.041536409407854" lon="-6.858914969488978">
        <ele>636.52999999999997</ele>
        <time>2019-03-15T11:07:59Z</time>
      </trkpt>
      <trkpt lat="30.042684897780418" lon="-6.859447890892625">
        <ele>637.49000000000001</ele>
        <time>2019-03-15T11:08:12Z</time>
      </trkpt>
      <trkpt lat="30.044135386124253" lon="-6.860136883333325">
        <ele>639.40999999999997</ele>
        <time>2019-03-15T11:08:27Z</time>
      </trkpt>
      <trkpt lat="30.0457061547786" lon="-6.860844483599067">
        <ele>640.38</ele>
        <time>2019-03-15T11:08:42Z</time>
      </trkpt>
      <trkpt lat="30.047392761334777" lon="-6.861717961728573">
        <ele>641.34000000000003</ele>
        <time>2019-03-15T11:08:59Z</time>
      </trkpt>
      <trkpt lat="30.048585506156087" lon="-6.862358590587974">
        <ele>642.29999999999995</ele>
        <time>2019-03-15T11:09:11Z</time>
      </trkpt>
      <trkpt lat="30.049881683662534" lon="-6.863180184736848">
        <ele>639.40999999999997</ele>
        <time>2019-03-15T11:09:27Z</time>
      </trkpt>
      <trkpt lat="30.05096672102809" lon="-6.863926677033305">
        <ele>639.40999999999997</ele>
        <time>2019-03-15T11:09:44Z</time>
      </trkpt>
      <trkpt lat="30.051720673218369" lon="-6.864474099129438">
        <ele>640.38</ele>
        <time>2019-03-15T11:09:59Z</time>
      </trkpt>
      <trkpt lat="30.051832320168614" lon="-6.864560432732105">
        <ele>641.34000000000003</ele>
        <time>2019-03-15T11:10:09Z</time>
      </trkpt>
      <trkpt lat="30.051833242177963" lon="-6.864558001980186">
        <ele>641.34000000000003</ele>
        <time>2019-03-15T11:10:56Z</time>
      </trkpt>
      <trkpt lat="30.051831649616361" lon="-6.864561019465327">
        <ele>641.34000000000003</ele>
        <time>2019-03-15T11:11:48Z</time>
      </trkpt>
      <trkpt lat="30.051851766183972" lon="-6.864577364176512">
        <ele>641.82000000000005</ele>
        <time>2019-03-15T11:12:39Z</time>
      </trkpt>
      <trkpt lat="30.052110515534878" lon="-6.864797472953796">
        <ele>643.74000000000001</ele>
        <time>2019-03-15T11:12:48Z</time>
      </trkpt>
      <trkpt lat="30.052156029269099" lon="-6.864829324185848">
        <ele>643.25999999999999</ele>
        <time>2019-03-15T11:12:49Z</time>
      </trkpt>
      <trkpt lat="30.052206991240382" lon="-6.864858325570822">
        <ele>644.22000000000003</ele>
        <time>2019-03-15T11:12:50Z</time>
      </trkpt>
      <trkpt lat="30.052748713642359" lon="-6.865140544250608">
        <ele>645.17999999999995</ele>
        <time>2019-03-15T11:13:03Z</time>
      </trkpt>
      <trkpt lat="30.053447848185897" lon="-6.865508258342743">
        <ele>644.70000000000005</ele>
        <time>2019-03-15T11:13:18Z</time>
      </trkpt>
      <trkpt lat="30.05428209900856" lon="-6.865938333794475">
        <ele>645.17999999999995</ele>
        <time>2019-03-15T11:13:30Z</time>
      </trkpt>
      <trkpt lat="30.05548657849431" lon="-6.86660067178309">
        <ele>648.07000000000005</ele>
        <time>2019-03-15T11:13:46Z</time>
      </trkpt>
      <trkpt lat="30.056616039946675" lon="-6.867223866283894">
        <ele>649.02999999999997</ele>
        <time>2019-03-15T11:13:59Z</time>
      </trkpt>
      <trkpt lat="30.057522961869836" lon="-6.867695935070515">
        <ele>649.50999999999999</ele>
        <time>2019-03-15T11:14:11Z</time>
      </trkpt>
      <trkpt lat="30.058575477451086" lon="-6.868295073509216">
        <ele>649.50999999999999</ele>
        <time>2019-03-15T11:14:28Z</time>
      </trkpt>
      <trkpt lat="30.059651546180248" lon="-6.868966883048415">
        <ele>649.50999999999999</ele>
        <time>2019-03-15T11:14:44Z</time>
      </trkpt>
      <trkpt lat="30.060366103425622" lon="-6.869356390088797">
        <ele>649.50999999999999</ele>
        <time>2019-03-15T11:14:56Z</time>
      </trkpt>
      <trkpt lat="30.060381777584553" lon="-6.869359910488129">
        <ele>649.50999999999999</ele>
        <time>2019-03-15T11:15:01Z</time>
      </trkpt>
      <trkpt lat="30.060409605503082" lon="-6.869350522756577">
        <ele>650.47000000000003</ele>
        <time>2019-03-15T11:15:02Z</time>
      </trkpt>
      <trkpt lat="30.060443552210927" lon="-6.869325209408999">
        <ele>653.35000000000002</ele>
        <time>2019-03-15T11:15:03Z</time>
      </trkpt>
      <trkpt lat="30.060477666556835" lon="-6.869283718988299">
        <ele>656.24000000000001</ele>
        <time>2019-03-15T11:15:04Z</time>
      </trkpt>
      <trkpt lat="30.060517312958837" lon="-6.869230912998319">
        <ele>656.72000000000003</ele>
        <time>2019-03-15T11:15:05Z</time>
      </trkpt>
      <trkpt lat="30.061073619872332" lon="-6.868709223344922">
        <ele>657.20000000000005</ele>
        <time>2019-03-15T11:15:13Z</time>
      </trkpt>
      <trkpt lat="30.06232738494873" lon="-6.868033139035106">
        <ele>657.67999999999995</ele>
        <time>2019-03-15T11:15:25Z</time>
      </trkpt>
      <trkpt lat="30.064863162115216" lon="-6.866904515773058">
        <ele>659.60000000000002</ele>
        <time>2019-03-15T11:15:46Z</time>
      </trkpt>
      <trkpt lat="30.066382801160216" lon="-6.866476284340024">
        <ele>662.49000000000001</ele>
        <time>2019-03-15T11:15:57Z</time>
      </trkpt>
      <trkpt lat="30.067730024456978" lon="-6.866704439744353">
        <ele>662.97000000000003</ele>
        <time>2019-03-15T11:16:06Z</time>
      </trkpt>
      <trkpt lat="30.069574043154716" lon="-6.86727985739708">
        <ele>662.49000000000001</ele>
        <time>2019-03-15T11:16:20Z</time>
      </trkpt>
      <trkpt lat="30.07206623442471" lon="-6.868076222017407">
        <ele>662.00999999999999</ele>
        <time>2019-03-15T11:16:40Z</time>
      </trkpt>
      <trkpt lat="30.074400259181857" lon="-6.868803938850761">
        <ele>657.67999999999995</ele>
        <time>2019-03-15T11:16:58Z</time>
      </trkpt>
      <trkpt lat="30.075755277648568" lon="-6.869229571893811">
        <ele>659.60000000000002</ele>
        <time>2019-03-15T11:17:11Z</time>
      </trkpt>
      <trkpt lat="30.077136196196079" lon="-6.869654785841703">
        <ele>658.15999999999997</ele>
        <time>2019-03-15T11:17:25Z</time>
      </trkpt>
      <trkpt lat="30.078489622101188" lon="-6.870080251246691">
        <ele>657.67999999999995</ele>
        <time>2019-03-15T11:17:38Z</time>
      </trkpt>
      <trkpt lat="30.080162733793259" lon="-6.870591379702091">
        <ele>658.15999999999997</ele>
        <time>2019-03-15T11:17:52Z</time>
      </trkpt>
      <trkpt lat="30.081302421167493" lon="-6.870972588658333">
        <ele>657.20000000000005</ele>
        <time>2019-03-15T11:18:05Z</time>
      </trkpt>
      <trkpt lat="30.082459207624197" lon="-6.871389504522085">
        <ele>658.63999999999999</ele>
        <time>2019-03-15T11:18:17Z</time>
      </trkpt>
      <trkpt lat="30.083437375724316" lon="-6.871929634362459">
        <ele>661.03999999999996</ele>
        <time>2019-03-15T11:18:29Z</time>
      </trkpt>
      <trkpt lat="30.083755385130644" lon="-6.872093249112368">
        <ele>660.55999999999995</ele>
        <time>2019-03-15T11:18:36Z</time>
      </trkpt>
      <trkpt lat="30.083803329616785" lon="-6.872116131708026">
        <ele>661.03999999999996</ele>
        <time>2019-03-15T11:19:01Z</time>
      </trkpt>
      <trkpt lat="30.084358127787709" lon="-6.872443025931716">
        <ele>661.03999999999996</ele>
        <time>2019-03-15T11:19:09Z</time>
      </trkpt>
      <trkpt lat="30.085672745481133" lon="-6.873210305348039">
        <ele>661.03999999999996</ele>
        <time>2019-03-15T11:19:23Z</time>
      </trkpt>
      <trkpt lat="30.085938619449735" lon="-6.87337014824152">
        <ele>661.51999999999998</ele>
        <time>2019-03-15T11:19:27Z</time>
      </trkpt>
      <trkpt lat="30.086001064628363" lon="-6.87338238582015">
        <ele>661.51999999999998</ele>
        <time>2019-03-15T11:19:28Z</time>
      </trkpt>
      <trkpt lat="30.08606786839664" lon="-6.873393449932337">
        <ele>661.51999999999998</ele>
        <time>2019-03-15T11:19:29Z</time>
      </trkpt>
      <trkpt lat="30.0861303973943" lon="-6.873415745794773">
        <ele>661.51999999999998</ele>
        <time>2019-03-15T11:19:30Z</time>
      </trkpt>
      <trkpt lat="30.086180185899138" lon="-6.873458325862885">
        <ele>661.51999999999998</ele>
        <time>2019-03-15T11:19:31Z</time>
      </trkpt>
      <trkpt lat="30.08621446788311" lon="-6.873519597575069">
        <ele>661.03999999999996</ele>
        <time>2019-03-15T11:19:32Z</time>
      </trkpt>
      <trkpt lat="30.086235255002975" lon="-6.873586317524314">
        <ele>661.03999999999996</ele>
        <time>2019-03-15T11:19:33Z</time>
      </trkpt>
      <trkpt lat="30.086247157305479" lon="-6.873650690540671">
        <ele>660.55999999999995</ele>
        <time>2019-03-15T11:19:34Z</time>
      </trkpt>
      <trkpt lat="30.086253192275763" lon="-6.873710956424475">
        <ele>660.55999999999995</ele>
        <time>2019-03-15T11:19:35Z</time>
      </trkpt>
      <trkpt lat="30.08625109679997" lon="-6.873771976679564">
        <ele>660.55999999999995</ele>
        <time>2019-03-15T11:19:36Z</time>
      </trkpt>
      <trkpt lat="30.086248582229018" lon="-6.873835260048509">
        <ele>660.55999999999995</ele>
        <time>2019-03-15T11:19:37Z</time>
      </trkpt>
      <trkpt lat="30.086253024637699" lon="-6.873902399092913">
        <ele>661.03999999999996</ele>
        <time>2019-03-15T11:19:38Z</time>
      </trkpt>
      <trkpt lat="30.086266603320837" lon="-6.87397507019341">
        <ele>661.03999999999996</ele>
        <time>2019-03-15T11:19:39Z</time>
      </trkpt>
      <trkpt lat="30.086287977173924" lon="-6.874053860083222">
        <ele>661.03999999999996</ele>
        <time>2019-03-15T11:19:40Z</time>
      </trkpt>
      <trkpt lat="30.086314547806978" lon="-6.874138852581382">
        <ele>661.03999999999996</ele>
        <time>2019-03-15T11:19:41Z</time>
      </trkpt>
      <trkpt lat="30.086344052106142" lon="-6.874228538945317">
        <ele>660.55999999999995</ele>
        <time>2019-03-15T11:19:42Z</time>
      </trkpt>
      <trkpt lat="30.086743365973234" lon="-6.875448944047093">
        <ele>660.08000000000004</ele>
        <time>2019-03-15T11:19:53Z</time>
      </trkpt>
      <trkpt lat="30.086798937991261" lon="-6.875540222972632">
        <ele>657.20000000000005</ele>
        <time>2019-03-15T11:19:54Z</time>
      </trkpt>
      <trkpt lat="30.08687018416822" lon="-6.875615995377302">
        <ele>657.20000000000005</ele>
        <time>2019-03-15T11:19:55Z</time>
      </trkpt>
      <trkpt lat="30.086957272142172" lon="-6.875681625679135">
        <ele>657.67999999999995</ele>
        <time>2019-03-15T11:19:56Z</time>
      </trkpt>
      <trkpt lat="30.087054502218962" lon="-6.875742143020034">
        <ele>658.15999999999997</ele>
        <time>2019-03-15T11:19:57Z</time>
      </trkpt>
      <trkpt lat="30.088461237028241" lon="-6.876532891765237">
        <ele>661.03999999999996</ele>
        <time>2019-03-15T11:20:10Z</time>
      </trkpt>
      <trkpt lat="30.089503861963749" lon="-6.877183746546507">
        <ele>661.03999999999996</ele>
        <time>2019-03-15T11:20:21Z</time>
      </trkpt>
      <trkpt lat="30.089890938252211" lon="-6.877573253586888">
        <ele>660.55999999999995</ele>
        <time>2019-03-15T11:20:33Z</time>
      </trkpt>
      <trkpt lat="30.090082967653871" lon="-6.87765983864665">
        <ele>661.03999999999996</ele>
        <time>2019-03-15T11:20:40Z</time>
      </trkpt>
      <trkpt lat="30.090393852442503" lon="-6.877791853621602">
        <ele>660.55999999999995</ele>
        <time>2019-03-15T11:25:14Z</time>
      </trkpt>
      <trkpt lat="30.090421428903937" lon="-6.877808114513755">
        <ele>660.55999999999995</ele>
        <time>2019-03-15T11:25:15Z</time>
      </trkpt>
      <trkpt lat="30.090464930981398" lon="-6.877822447568178">
        <ele>660.08000000000004</ele>
        <time>2019-03-15T11:25:16Z</time>
      </trkpt>
      <trkpt lat="30.090516060590744" lon="-6.877833008766174">
        <ele>659.60000000000002</ele>
        <time>2019-03-15T11:25:17Z</time>
      </trkpt>
      <trkpt lat="30.090577164664865" lon="-6.877840552479029">
        <ele>659.60000000000002</ele>
        <time>2019-03-15T11:25:18Z</time>
      </trkpt>
      <trkpt lat="30.090647237375379" lon="-6.877842396497726">
        <ele>659.60000000000002</ele>
        <time>2019-03-15T11:25:19Z</time>
      </trkpt>
      <trkpt lat="30.090724686160684" lon="-6.877838540822268">
        <ele>659.60000000000002</ele>
        <time>2019-03-15T11:25:20Z</time>
      </trkpt>
      <trkpt lat="30.090808169916272" lon="-6.8778230343014">
        <ele>659.60000000000002</ele>
        <time>2019-03-15T11:25:21Z</time>
      </trkpt>
      <trkpt lat="30.090893497690558" lon="-6.877797888591886">
        <ele>659.60000000000002</ele>
        <time>2019-03-15T11:25:22Z</time>
      </trkpt>
      <trkpt lat="30.090982178226113" lon="-6.877767294645309">
        <ele>659.60000000000002</ele>
        <time>2019-03-15T11:25:23Z</time>
      </trkpt>
      <trkpt lat="30.091271856799722" lon="-6.877626394852996">
        <ele>659.60000000000002</ele>
        <time>2019-03-15T11:25:26Z</time>
      </trkpt>
      <trkpt lat="30.091368751600385" lon="-6.87755573540926">
        <ele>660.55999999999995</ele>
        <time>2019-03-15T11:25:27Z</time>
      </trkpt>
      <trkpt lat="30.091466819867492" lon="-6.877471162006259">
        <ele>661.03999999999996</ele>
        <time>2019-03-15T11:25:28Z</time>
      </trkpt>
      <trkpt lat="30.091563379392028" lon="-6.877376865595579">
        <ele>662.00999999999999</ele>
        <time>2019-03-15T11:25:29Z</time>
      </trkpt>
      <trkpt lat="30.091656669974327" lon="-6.877276115119457">
        <ele>664.88999999999999</ele>
        <time>2019-03-15T11:25:30Z</time>
      </trkpt>
      <trkpt lat="30.09268487803638" lon="-6.876300293952227">
        <ele>664.88999999999999</ele>
        <time>2019-03-15T11:25:40Z</time>
      </trkpt>
      <trkpt lat="30.093777291476727" lon="-6.876034503802657">
        <ele>663.92999999999995</ele>
        <time>2019-03-15T11:25:48Z</time>
      </trkpt>
      <trkpt lat="30.095123006030917" lon="-6.87626089900732">
        <ele>663.45000000000005</ele>
        <time>2019-03-15T11:25:57Z</time>
      </trkpt>
      <trkpt lat="30.097439847886562" lon="-6.876664822921157">
        <ele>663.92999999999995</ele>
        <time>2019-03-15T11:26:12Z</time>
      </trkpt>
      <trkpt lat="30.099838329479098" lon="-6.876774374395609">
        <ele>666.33000000000004</ele>
        <time>2019-03-15T11:26:27Z</time>
      </trkpt>
      <trkpt lat="30.101930452510715" lon="-6.877012755721808">
        <ele>666.80999999999995</ele>
        <time>2019-03-15T11:26:40Z</time>
      </trkpt>
      <trkpt lat="30.103738680481911" lon="-6.877223644405603">
        <ele>666.33000000000004</ele>
        <time>2019-03-15T11:26:52Z</time>
      </trkpt>
      <trkpt lat="30.105468286201358" lon="-6.877510137856007">
        <ele>664.40999999999997</ele>
        <time>2019-03-15T11:27:04Z</time>
      </trkpt>
      <trkpt lat="30.10719227604568" lon="-6.877895537763834">
        <ele>665.37</ele>
        <time>2019-03-15T11:27:17Z</time>
      </trkpt>
      <trkpt lat="30.107854781672359" lon="-6.877937531098723">
        <ele>667.76999999999998</ele>
        <time>2019-03-15T11:27:25Z</time>
      </trkpt>
      <trkpt lat="30.107895852997899" lon="-6.877937447279692">
        <ele>669.22000000000003</ele>
        <time>2019-03-15T11:27:34Z</time>
      </trkpt>
      <trkpt lat="30.107886800542474" lon="-6.877950606867671">
        <ele>671.13999999999999</ele>
        <time>2019-03-15T11:27:59Z</time>
      </trkpt>
      <trkpt lat="30.108165917918086" lon="-6.877963682636619">
        <ele>672.58000000000004</ele>
        <time>2019-03-15T11:28:06Z</time>
      </trkpt>
      <trkpt lat="30.109112402424216" lon="-6.877926047891378">
        <ele>673.05999999999995</ele>
        <time>2019-03-15T11:28:15Z</time>
      </trkpt>
      <trkpt lat="30.110119823366404" lon="-6.87788212671876">
        <ele>673.53999999999996</ele>
        <time>2019-03-15T11:28:25Z</time>
      </trkpt>
      <trkpt lat="30.111347353085876" lon="-6.878228383138776">
        <ele>674.01999999999998</ele>
        <time>2019-03-15T11:28:36Z</time>
      </trkpt>
      <trkpt lat="30.112669933587313" lon="-6.878455281257629">
        <ele>675.46000000000004</ele>
        <time>2019-03-15T11:28:46Z</time>
      </trkpt>
      <trkpt lat="30.113212913274765" lon="-6.878541447222233">
        <ele>676.90999999999997</ele>
        <time>2019-03-15T11:28:50Z</time>
      </trkpt>
      <trkpt lat="30.113345682621002" lon="-6.87859358265996">
        <ele>677.38999999999999</ele>
        <time>2019-03-15T11:28:51Z</time>
      </trkpt>
      <trkpt lat="30.115189030766487" lon="-6.879486674442887">
        <ele>677.38999999999999</ele>
        <time>2019-03-15T11:29:04Z</time>
      </trkpt>
      <trkpt lat="30.116651840507984" lon="-6.879705106839538">
        <ele>677.38999999999999</ele>
        <time>2019-03-15T11:29:13Z</time>
      </trkpt>
      <trkpt lat="30.118523351848125" lon="-6.879855981096625">
        <ele>677.38999999999999</ele>
        <time>2019-03-15T11:29:24Z</time>
      </trkpt>
      <trkpt lat="30.118674226105213" lon="-6.879900908097625">
        <ele>675.94000000000005</ele>
        <time>2019-03-15T11:29:25Z</time>
      </trkpt>
      <trkpt lat="30.1188182272017" lon="-6.879961006343365">
        <ele>677.38999999999999</ele>
        <time>2019-03-15T11:29:26Z</time>
      </trkpt>
      <trkpt lat="30.118959965184331" lon="-6.880032755434513">
        <ele>677.38999999999999</ele>
        <time>2019-03-15T11:29:27Z</time>
      </trkpt>
      <trkpt lat="30.119097931310534" lon="-6.880109952762723">
        <ele>677.38999999999999</ele>
        <time>2019-03-15T11:29:28Z</time>
      </trkpt>
      <trkpt lat="30.120480442419648" lon="-6.880842698737979">
        <ele>0</ele>
        <time>2019-03-15T11:29:39Z</time>
      </trkpt>
      <trkpt lat="30.122099993750453" lon="-6.881423061713576">
        <ele>0</ele>
        <time>2019-03-15T11:29:52Z</time>
      </trkpt>
      <trkpt lat="30.122207114472985" lon="-6.881433371454477">
        <ele>0</ele>
        <time>2019-03-15T11:29:53Z</time>
      </trkpt>
      <trkpt lat="30.123146139085293" lon="-6.881256094202399">
        <ele>0</ele>
        <time>2019-03-15T11:30:02Z</time>
      </trkpt>
      <trkpt lat="30.123289972543716" lon="-6.881230026483536">
        <ele>0</ele>
      </trkpt>
      <trkpt lat="30.123460041359067" lon="-6.881200019270182">
        <ele>0</ele>
      </trkpt>
      <trkpt lat="30.123470015823841" lon="-6.881200019270182">
        <ele>0</ele>
      </trkpt>
      <trkpt lat="30.123609993606806" lon="-6.881179986521602">
        <ele>0</ele>
      </trkpt>
      <trkpt lat="30.123700015246868" lon="-6.881160037592053">
        <ele>0</ele>
      </trkpt>
      <trkpt lat="30.124299991875887" lon="-6.881119972094894">
        <ele>0</ele>
      </trkpt>
      <trkpt lat="30.124380039051175" lon="-6.881119972094894">
        <ele>0</ele>
      </trkpt>
      <trkpt lat="30.124409962445498" lon="-6.881109997630119">
        <ele>0</ele>
      </trkpt>
      <trkpt lat="30.124509958550334" lon="-6.881100023165345">
        <ele>0</ele>
      </trkpt>
      <trkpt lat="30.124350031837821" lon="-6.880729962140322">
        <ele>0</ele>
      </trkpt>
      <trkpt lat="30.123990029096603" lon="-6.879980033263564">
        <ele>0</ele>
      </trkpt>
      <trkpt lat="30.123909981921315" lon="-6.879750033840537">
        <ele>0</ele>
      </trkpt>
      <trkpt lat="30.123909981921315" lon="-6.879720026627183">
        <ele>0</ele>
      </trkpt>
      <trkpt lat="30.123900007456541" lon="-6.879690019413829">
        <ele>0</ele>
      </trkpt>
      <trkpt lat="30.123900007456541" lon="-6.879509976133704">
        <ele>0</ele>
      </trkpt>
      <trkpt lat="30.123909981921315" lon="-6.87947996892035">
        <ele>0</ele>
      </trkpt>
      <trkpt lat="30.123920040205121" lon="-6.879409980028868">
        <ele>0</ele>
      </trkpt>
      <trkpt lat="30.124060017988086" lon="-6.878689974546433">
        <ele>0</ele>
      </trkpt>
      <trkpt lat="30.124130006879568" lon="-6.878419993445277">
        <ele>0</ele>
      </trkpt>
      <trkpt lat="30.124190021306276" lon="-6.878319997340441">
        <ele>0</ele>
      </trkpt>
      <trkpt lat="30.12422002851963" lon="-6.878289990127087">
        <ele>0</ele>
      </trkpt>
      <trkpt lat="30.124250035732985" lon="-6.878250008448958">
        <ele>0</ele>
      </trkpt>
      <trkpt lat="30.124480035156012" lon="-6.878040041774511">
        <ele>0</ele>
      </trkpt>
      <trkpt lat="30.124529991298914" lon="-6.877999976277351">
        <ele>0</ele>
      </trkpt>
      <trkpt lat="30.124580031260848" lon="-6.877939961850643">
        <ele>0</ele>
      </trkpt>
      <trkpt lat="30.124610038474202" lon="-6.877910038456321">
        <ele>0</ele>
      </trkpt>
      <trkpt lat="30.12462998740375" lon="-6.877869972959161">
        <ele>0</ele>
      </trkpt>
      <trkpt lat="30.12462998740375" lon="-6.877859998494387">
        <ele>0</ele>
      </trkpt>
      <trkpt lat="30.124639961868525" lon="-6.877850024029613">
        <ele>0</ele>
      </trkpt>
      <trkpt lat="30.124659994617105" lon="-6.87778003513813">
        <ele>0</ele>
      </trkpt>
      <trkpt lat="30.12465002015233" lon="-6.877060029655695">
        <ele>0</ele>
      </trkpt>
      <trkpt lat="30.124620012938976" lon="-6.876280009746552">
        <ele>0</ele>
      </trkpt>
      <trkpt lat="30.124599142000079" lon="-6.876112204045057">
        <ele>0</ele>
      </trkpt>
      <trkpt lat="30.124556981027126" lon="-6.873323880136013">
        <ele>0</ele>
      </trkpt>
      <trkpt lat="30.124599980190396" lon="-6.873199995607138">
        <ele>0</ele>
      </trkpt>
      <trkpt lat="30.12462998740375" lon="-6.873150039464235">
        <ele>0</ele>
      </trkpt>
      <trkpt lat="30.124759990721941" lon="-6.872990028932691">
        <ele>0</ele>
      </trkpt>
      <trkpt lat="30.124920001253486" lon="-6.8728600256145">
        <ele>0</ele>
      </trkpt>
      <trkpt lat="30.125150000676513" lon="-6.872739996761084">
        <ele>0</ele>
      </trkpt>
      <trkpt lat="30.125180007889867" lon="-6.87273002229631">
        <ele>0</ele>
      </trkpt>
      <trkpt lat="30.125200040638447" lon="-6.872719964012504">
        <ele>0</ele>
      </trkpt>
      <trkpt lat="30.125229964032769" lon="-6.872700015082955">
        <ele>0</ele>
      </trkpt>
      <trkpt lat="30.125329960137606" lon="-6.872579986229539">
        <ele>0</ele>
      </trkpt>
      <trkpt lat="30.12553003616631" lon="-6.87227999791503">
        <ele>0</ele>
      </trkpt>
      <trkpt lat="30.125630032271147" lon="-6.872110012918711">
        <ele>0</ele>
      </trkpt>
      <trkpt lat="30.125749977305532" lon="-6.871950002387166">
        <ele>0</ele>
      </trkpt>
      <trkpt lat="30.125749977305532" lon="-6.871940027922392">
        <ele>0</ele>
      </trkpt>
      <trkpt lat="30.125890038907528" lon="-6.871729977428913">
        <ele>0</ele>
      </trkpt>
      <trkpt lat="30.126090031117201" lon="-6.871380032971501">
        <ele>0</ele>
      </trkpt>
      <trkpt lat="30.126409968361259" lon="-6.870920034125447">
        <ele>0</ele>
      </trkpt>
      <trkpt lat="30.126460008323193" lon="-6.870830012485385">
        <ele>0</ele>
      </trkpt>
      <trkpt lat="30.126469982787967" lon="-6.870800005272031">
        <ele>0</ele>
      </trkpt>
      <trkpt lat="30.126509964466095" lon="-6.870730016380549">
        <ele>0</ele>
      </trkpt>
      <trkpt lat="30.126680033281446" lon="-6.870340006425977">
        <ele>0</ele>
      </trkpt>
      <trkpt lat="30.12679997831583" lon="-6.870019985362887">
        <ele>0</ele>
      </trkpt>
      <trkpt lat="30.126980021595955" lon="-6.869629975408316">
        <ele>0</ele>
      </trkpt>
      <trkpt lat="30.127380006015301" lon="-6.869090013206005">
        <ele>0</ele>
      </trkpt>
      <trkpt lat="30.127429962158203" lon="-6.869029998779297">
        <ele>0</ele>
      </trkpt>
      <trkpt lat="30.127630038186908" lon="-6.868739984929562">
        <ele>0</ele>
      </trkpt>
      <trkpt lat="30.12767999432981" lon="-6.868679970502853"/>
      <trkpt lat="30.127860037609935" lon="-6.86850001104176"/>
      <trkpt lat="30.128569984808564" lon="-6.86791998334229"/>
      <trkpt lat="30.128680039197206" lon="-6.867840019986033"/>
      <trkpt lat="30.128684984520078" lon="-6.867818981409073"/>
      <trkpt lat="30.128604182973504" lon="-6.86765662394464"/>
      <trkpt lat="30.12860057875514" lon="-6.867652265354991"/>
      <trkpt lat="30.12860057875514" lon="-6.867641285061836"/>
      <trkpt lat="30.128604182973504" lon="-6.86765662394464">
        <ele>775.02691700000003</ele>
        <time>2019-04-16T08:46:17Z</time>
      </trkpt>
      <trkpt lat="30.258111963048577" lon="-6.846044976264238">
        <ele>1392.4886469999999</ele>
        <time>2019-03-15T13:39:24Z</time>
      </trkpt>
      <trkpt lat="30.597490025684237" lon="-7.150391964241862">
        <ele>1375.411255</ele>
        <time>2019-03-15T14:31:06Z</time>
      </trkpt>
      <trkpt lat="30.611674971878529" lon="-7.148985983803868">
        <ele>1362.1010739999999</ele>
        <time>2019-03-15T14:39:05Z</time>
      </trkpt>
      <trkpt lat="30.631772009655833" lon="-7.111385017633438">
        <ele>1165.7642820000001</ele>
        <time>2019-03-15T14:44:33Z</time>
      </trkpt>
      <trkpt lat="30.887299021705985" lon="-6.942069986835122">
        <ele>1165.711914</ele>
        <time>2019-03-15T15:46:12Z</time>
      </trkpt>
      <trkpt lat="30.939143020659685" lon="-6.985828969627619">
        <ele>1287.752686</ele>
        <time>2019-03-15T15:56:26Z</time>
      </trkpt>
      <trkpt lat="31.044279998168349" lon="-7.132141962647438">
        <ele>1803.652832</ele>
        <time>2019-03-15T16:17:35Z</time>
      </trkpt>
      <trkpt lat="31.290162960067391" lon="-7.241314994171262">
        <ele>2215.4636230000001</ele>
        <time>2019-03-16T08:19:10Z</time>
      </trkpt>
      <trkpt lat="31.285885004326701" lon="-7.381065962836146">
        <ele>1186.405884</ele>
        <time>2019-03-16T08:43:51Z</time>
      </trkpt>
      <trkpt lat="31.505430014804006" lon="-7.4652099609375">
        <ele>0</ele>
        <time>2019-03-16T09:46:50Z</time>
      </trkpt>
      <trkpt lat="31.62923407740891" lon="-8.015929581597447">
        <ele>0</ele>
        <time>2019-04-16T09:37:41Z</time>
      </trkpt>
      <trkpt lat="30.12860057875514" lon="-6.867641285061836">
        <ele>0</ele>
        <time>2019-03-15T11:30:25Z</time>
      </trkpt>
      <trkpt lat="30.12860057875514" lon="-6.867652265354991">
        <ele>0</ele>
        <time>2019-03-15T11:30:26Z</time>
      </trkpt>
      <trkpt lat="30.128604182973504" lon="-6.86765662394464">
        <ele>0</ele>
        <time>2019-03-15T11:30:27Z</time>
      </trkpt>
      <trkpt lat="30.128684984520078" lon="-6.867818981409073">
        <ele>0</ele>
        <time>2019-03-15T11:30:28Z</time>
      </trkpt>
      <trkpt lat="30.128680039197206" lon="-6.867840019986033">
        <ele>0</ele>
        <time>2019-03-15T11:30:29Z</time>
      </trkpt>
      <trkpt lat="30.128569984808564" lon="-6.86791998334229">
        <ele>0</ele>
        <time>2019-03-15T11:30:30Z</time>
      </trkpt>
      <trkpt lat="30.127860037609935" lon="-6.86850001104176">
        <ele>0</ele>
        <time>2019-03-15T11:30:34Z</time>
      </trkpt>
      <trkpt lat="30.12767999432981" lon="-6.868679970502853">
        <ele>0</ele>
        <time>2019-03-15T11:30:35Z</time>
      </trkpt>
      <trkpt lat="30.127630038186908" lon="-6.868739984929562">
        <ele>0</ele>
        <time>2019-03-15T11:30:49Z</time>
      </trkpt>
      <trkpt lat="30.127429962158203" lon="-6.869029998779297">
        <ele>0</ele>
        <time>2019-03-15T11:30:59Z</time>
      </trkpt>
      <trkpt lat="30.127380006015301" lon="-6.869090013206005">
        <ele>0</ele>
        <time>2019-03-15T11:31:10Z</time>
      </trkpt>
      <trkpt lat="30.126980021595955" lon="-6.869629975408316">
        <ele>0</ele>
        <time>2019-03-15T11:31:26Z</time>
      </trkpt>
      <trkpt lat="30.12679997831583" lon="-6.870019985362887">
        <ele>0</ele>
        <time>2019-03-15T11:31:45Z</time>
      </trkpt>
      <trkpt lat="30.126680033281446" lon="-6.870340006425977">
        <ele>0</ele>
        <time>2019-03-15T11:31:57Z</time>
      </trkpt>
      <trkpt lat="30.126509964466095" lon="-6.870730016380549">
        <ele>0</ele>
        <time>2019-03-15T11:32:09Z</time>
      </trkpt>
      <trkpt lat="30.126469982787967" lon="-6.870800005272031">
        <ele>0</ele>
        <time>2019-03-15T11:32:22Z</time>
      </trkpt>
      <trkpt lat="30.126460008323193" lon="-6.870830012485385">
        <ele>0</ele>
        <time>2019-03-15T11:32:35Z</time>
      </trkpt>
      <trkpt lat="30.126409968361259" lon="-6.870920034125447">
        <ele>0</ele>
        <time>2019-03-15T11:32:46Z</time>
      </trkpt>
      <trkpt lat="30.126090031117201" lon="-6.871380032971501">
        <ele>0</ele>
        <time>2019-03-15T11:32:56Z</time>
      </trkpt>
      <trkpt lat="30.125890038907528" lon="-6.871729977428913">
        <ele>0</ele>
        <time>2019-03-15T11:33:05Z</time>
      </trkpt>
      <trkpt lat="30.125749977305532" lon="-6.871940027922392">
        <ele>0</ele>
        <time>2019-03-15T11:33:21Z</time>
      </trkpt>
      <trkpt lat="30.125749977305532" lon="-6.871950002387166">
        <ele>0</ele>
        <time>2019-03-15T11:33:32Z</time>
      </trkpt>
      <trkpt lat="30.125630032271147" lon="-6.872110012918711">
        <ele>0</ele>
        <time>2019-03-15T11:33:48Z</time>
      </trkpt>
      <trkpt lat="30.12553003616631" lon="-6.87227999791503">
        <ele>0</ele>
        <time>2019-03-15T11:33:51Z</time>
      </trkpt>
      <trkpt lat="30.125329960137606" lon="-6.872579986229539">
        <ele>0</ele>
        <time>2019-03-15T13:31:40Z</time>
      </trkpt>
      <trkpt lat="30.125229964032769" lon="-6.872700015082955">
        <ele>0</ele>
        <time>2019-03-15T13:31:41Z</time>
      </trkpt>
      <trkpt lat="30.125200040638447" lon="-6.872719964012504">
        <ele>0</ele>
        <time>2019-03-15T13:31:49Z</time>
      </trkpt>
      <trkpt lat="30.125180007889867" lon="-6.87273002229631">
        <ele>0</ele>
        <time>2019-03-15T13:31:59Z</time>
      </trkpt>
      <trkpt lat="30.125150000676513" lon="-6.872739996761084">
        <ele>0</ele>
        <time>2019-03-15T13:32:12Z</time>
      </trkpt>
      <trkpt lat="30.124920001253486" lon="-6.8728600256145">
        <ele>0</ele>
        <time>2019-03-15T13:32:28Z</time>
      </trkpt>
      <trkpt lat="30.124759990721941" lon="-6.872990028932691">
        <ele>0</ele>
        <time>2019-03-15T13:32:38Z</time>
      </trkpt>
      <trkpt lat="30.124659994617105" lon="-6.87313998118043">
        <ele>0</ele>
        <time>2019-03-15T13:32:51Z</time>
      </trkpt>
      <trkpt lat="30.124610038474202" lon="-6.873279958963394">
        <ele>0</ele>
        <time>2019-03-15T13:33:04Z</time>
      </trkpt>
      <trkpt lat="30.124590005725622" lon="-6.873529991135001">
        <ele>0</ele>
        <time>2019-03-15T13:33:15Z</time>
      </trkpt>
      <trkpt lat="30.124669969081879" lon="-6.877599991858006">
        <ele>0</ele>
        <time>2019-03-15T13:33:32Z</time>
      </trkpt>
      <trkpt lat="30.124659994617105" lon="-6.877729995176196">
        <ele>0</ele>
        <time>2019-03-15T13:33:50Z</time>
      </trkpt>
      <trkpt lat="30.12465002015233" lon="-6.877799984067679">
        <ele>0</ele>
        <time>2019-03-15T13:33:58Z</time>
      </trkpt>
      <trkpt lat="30.124620012938976" lon="-6.877880031242967">
        <ele>0</ele>
        <time>2019-03-15T13:33:59Z</time>
      </trkpt>
      <trkpt lat="30.124590005725622" lon="-6.877929987385869">
        <ele>0</ele>
        <time>2019-03-15T13:34:00Z</time>
      </trkpt>
      <trkpt lat="30.124550024047494" lon="-6.877980027347803">
        <ele>0</ele>
        <time>2019-03-15T13:34:15Z</time>
      </trkpt>
      <trkpt lat="30.124350031837821" lon="-6.878159986808896">
        <ele>0</ele>
        <time>2019-03-15T13:34:31Z</time>
      </trkpt>
      <trkpt lat="30.12422002851963" lon="-6.878299964591861">
        <ele>0</ele>
        <time>2019-03-15T13:34:50Z</time>
      </trkpt>
      <trkpt lat="30.124139981344342" lon="-6.878440026193857">
        <ele>0</ele>
        <time>2019-03-15T13:35:08Z</time>
      </trkpt>
      <trkpt lat="30.12409002520144" lon="-6.878610011190176">
        <ele>0</ele>
        <time>2019-03-15T13:35:29Z</time>
      </trkpt>
      <trkpt lat="30.123939989134669" lon="-6.87936999835074">
        <ele>0</ele>
        <time>2019-03-15T13:35:48Z</time>
      </trkpt>
      <trkpt lat="30.123909981921315" lon="-6.879599997773767">
        <ele>0</ele>
        <time>2019-03-15T13:36:04Z</time>
      </trkpt>
      <trkpt lat="30.123920040205121" lon="-6.879660012200475">
        <ele>677.87</ele>
        <time>2019-03-15T13:36:23Z</time>
      </trkpt>
      <trkpt lat="30.123920040205121" lon="-6.879709968343377">
        <ele>677.87</ele>
        <time>2019-03-15T13:36:40Z</time>
      </trkpt>
      <trkpt lat="30.123939989134669" lon="-6.879760008305311">
        <ele>678.35000000000002</ele>
        <time>2019-03-15T13:36:56Z</time>
      </trkpt>
      <trkpt lat="30.123949963599443" lon="-6.879820022732019">
        <ele>678.35000000000002</ele>
        <time>2019-03-15T13:37:22Z</time>
      </trkpt>
      <trkpt lat="30.12404995970428" lon="-6.880050022155047">
        <ele>678.83000000000004</ele>
        <time>2019-03-15T13:37:40Z</time>
      </trkpt>
      <trkpt lat="30.12452001683414" lon="-6.881060041487217">
        <ele>678.83000000000004</ele>
        <time>2019-03-15T13:38:01Z</time>
      </trkpt>
      <trkpt lat="30.125177577137947" lon="-6.880840687081218">
        <ele>680.26999999999998</ele>
        <time>2019-03-15T13:38:17Z</time>
      </trkpt>
      <trkpt lat="30.125285116955638" lon="-6.880835574120283">
        <ele>680.26999999999998</ele>
        <time>2019-03-15T13:38:35Z</time>
      </trkpt>
      <trkpt lat="30.125396428629756" lon="-6.88084663823247">
        <ele>683.63</ele>
        <time>2019-03-15T13:38:51Z</time>
      </trkpt>
      <trkpt lat="30.125509668141603" lon="-6.880869939923286">
        <ele>682.66999999999996</ele>
        <time>2019-03-15T13:39:02Z</time>
      </trkpt>
      <trkpt lat="30.125625925138593" lon="-6.880902126431465">
        <ele>682.19000000000005</ele>
        <time>2019-03-15T13:39:17Z</time>
      </trkpt>
      <trkpt lat="30.125746540725231" lon="-6.880943281576037">
        <ele>682.19000000000005</ele>
        <time>2019-03-15T13:39:25Z</time>
      </trkpt>
      <trkpt lat="30.126287508755922" lon="-6.881089378148317">
        <ele>685.08000000000004</ele>
        <time>2019-03-15T13:39:38Z</time>
      </trkpt>
      <trkpt lat="30.126428492367268" lon="-6.881086360663176">
        <ele>686.03999999999996</ele>
        <time>2019-03-15T13:39:51Z</time>
      </trkpt>
      <trkpt lat="30.128385666757822" lon="-6.88076944090426">
        <ele>684.60000000000002</ele>
        <time>2019-03-15T13:40:03Z</time>
      </trkpt>
      <trkpt lat="30.12996532022953" lon="-6.880845883861184">
        <ele>684.12</ele>
        <time>2019-03-15T13:40:04Z</time>
      </trkpt>
      <trkpt lat="30.131740439683199" lon="-6.88070054166019">
        <ele>683.63</ele>
        <time>2019-03-15T13:40:05Z</time>
      </trkpt>
      <trkpt lat="30.134425917640328" lon="-6.879844078794122">
        <ele>684.60000000000002</ele>
        <time>2019-03-15T13:40:06Z</time>
      </trkpt>
      <trkpt lat="30.137828383594751" lon="-6.878765327855945">
        <ele>686.03999999999996</ele>
        <time>2019-03-15T13:40:07Z</time>
      </trkpt>
      <trkpt lat="30.139788240194321" lon="-6.878098882734776">
        <ele>687.96000000000004</ele>
        <time>2019-03-15T13:40:08Z</time>
      </trkpt>
      <trkpt lat="30.141723789274693" lon="-6.877336045727134">
        <ele>690.84000000000003</ele>
        <time>2019-03-15T13:40:22Z</time>
      </trkpt>
      <trkpt lat="30.143571496009827" lon="-6.876600114628673">
        <ele>693.25</ele>
        <time>2019-03-15T13:40:25Z</time>
      </trkpt>
      <trkpt lat="30.145583152770996" lon="-6.87580400146544">
        <ele>696.13</ele>
        <time>2019-03-15T13:40:26Z</time>
      </trkpt>
      <trkpt lat="30.146994665265083" lon="-6.875273678451777">
        <ele>696.61000000000001</ele>
        <time>2019-03-15T13:40:27Z</time>
      </trkpt>
      <trkpt lat="30.148250358179212" lon="-6.875226236879826">
        <ele>698.04999999999995</ele>
        <time>2019-03-15T13:40:28Z</time>
      </trkpt>
      <trkpt lat="30.149645777419209" lon="-6.875702077522874">
        <ele>698.04999999999995</ele>
        <time>2019-03-15T13:40:29Z</time>
      </trkpt>
      <trkpt lat="30.152338715270162" lon="-6.876730034127832">
        <ele>698.52999999999997</ele>
        <time>2019-03-15T13:40:34Z</time>
      </trkpt>
      <trkpt lat="30.154443494975567" lon="-6.876970510929823">
        <ele>700.46000000000004</ele>
        <time>2019-03-15T13:40:35Z</time>
      </trkpt>
      <trkpt lat="30.157607747241855" lon="-6.877270080149174">
        <ele>702.86000000000001</ele>
        <time>2019-03-15T13:40:36Z</time>
      </trkpt>
      <trkpt lat="30.158016448840499" lon="-6.877247532829642">
        <ele>704.29999999999995</ele>
        <time>2019-03-15T13:40:46Z</time>
      </trkpt>
      <trkpt lat="30.158143350854516" lon="-6.877209227532148">
        <ele>703.82000000000005</ele>
        <time>2019-03-15T13:40:54Z</time>
      </trkpt>
      <trkpt lat="30.158205963671207" lon="-6.877198331058025">
        <ele>704.29999999999995</ele>
        <time>2019-03-15T13:40:58Z</time>
      </trkpt>
      <trkpt lat="30.158942732959986" lon="-6.877104369923472">
        <ele>707.19000000000005</ele>
        <time>2019-03-15T13:40:59Z</time>
      </trkpt>
      <trkpt lat="30.160284759476781" lon="-6.87692734412849">
        <ele>706.71000000000004</ele>
        <time>2019-03-15T13:41:00Z</time>
      </trkpt>
      <trkpt lat="30.162397501990199" lon="-6.876784013584256">
        <ele>707.66999999999996</ele>
        <time>2019-03-15T13:41:09Z</time>
      </trkpt>
      <trkpt lat="30.16528531908989" lon="-6.876953160390258">
        <ele>711.02999999999997</ele>
        <time>2019-03-15T13:41:14Z</time>
      </trkpt>
      <trkpt lat="30.167153058573604" lon="-6.876774793490768">
        <ele>712.47000000000003</ele>
        <time>2019-03-15T13:41:15Z</time>
      </trkpt>
      <trkpt lat="30.169768296182156" lon="-6.876340107992292">
        <ele>712.47000000000003</ele>
        <time>2019-03-15T13:41:16Z</time>
      </trkpt>
      <trkpt lat="30.172692071646452" lon="-6.875839959830046">
        <ele>712.47000000000003</ele>
        <time>2019-03-15T13:41:17Z</time>
      </trkpt>
      <trkpt lat="30.175069682300091" lon="-6.875739125534892">
        <ele>713.91999999999996</ele>
        <time>2019-03-15T13:41:18Z</time>
      </trkpt>
      <trkpt lat="30.178917143493891" lon="-6.875692019239068">
        <ele>716.79999999999995</ele>
        <time>2019-03-15T13:41:29Z</time>
      </trkpt>
      <trkpt lat="30.18321848474443" lon="-6.875647343695164">
        <ele>721.13</ele>
        <time>2019-03-15T13:41:44Z</time>
      </trkpt>
      <trkpt lat="30.185057893395424" lon="-6.875575929880142">
        <ele>724.00999999999999</ele>
        <time>2019-03-15T13:41:55Z</time>
      </trkpt>
      <trkpt lat="30.185268865898252" lon="-6.875522034242749">
        <ele>727.86000000000001</ele>
        <time>2019-03-15T13:41:56Z</time>
      </trkpt>
      <trkpt lat="30.185481766238809" lon="-6.875449949875474">
        <ele>732.17999999999995</ele>
        <time>2019-03-15T13:41:57Z</time>
      </trkpt>
      <trkpt lat="30.18881868571043" lon="-6.874222252517939">
        <ele>735.07000000000005</ele>
        <time>2019-03-15T13:41:58Z</time>
      </trkpt>
      <trkpt lat="30.192573191598058" lon="-6.872998829931021">
        <ele>737.47000000000003</ele>
        <time>2019-03-15T13:41:59Z</time>
      </trkpt>
      <trkpt lat="30.197032950818539" lon="-6.872078916057944">
        <ele>740.83000000000004</ele>
        <time>2019-03-15T13:42:04Z</time>
      </trkpt>
      <trkpt lat="30.201423056423664" lon="-6.871169982478023">
        <ele>745.15999999999997</ele>
        <time>2019-03-15T13:42:05Z</time>
      </trkpt>
      <trkpt lat="30.206587146967649" lon="-6.870105229318142">
        <ele>749</ele>
        <time>2019-03-15T13:42:06Z</time>
      </trkpt>
      <trkpt lat="30.211394419893622" lon="-6.869073919951916">
        <ele>752.37</ele>
        <time>2019-03-15T13:42:07Z</time>
      </trkpt>
      <trkpt lat="30.215342966839671" lon="-6.86771135777235">
        <ele>756.69000000000005</ele>
        <time>2019-03-15T13:42:08Z</time>
      </trkpt>
      <trkpt lat="30.219980757683516" lon="-6.866106893867254">
        <ele>759.58000000000004</ele>
        <time>2019-03-15T13:42:21Z</time>
      </trkpt>
      <trkpt lat="30.223954953253269" lon="-6.864706110209227">
        <ele>763.41999999999996</ele>
        <time>2019-03-15T13:42:33Z</time>
      </trkpt>
      <trkpt lat="30.227537378668785" lon="-6.862929817289114">
        <ele>767.26999999999998</ele>
        <time>2019-03-15T13:42:34Z</time>
      </trkpt>
      <trkpt lat="30.233515938743949" lon="-6.860002856701613">
        <ele>769.66999999999996</ele>
        <time>2019-03-15T13:42:35Z</time>
      </trkpt>
      <trkpt lat="30.237530115991831" lon="-6.858047526329756">
        <ele>773.03999999999996</ele>
        <time>2019-03-15T13:42:36Z</time>
      </trkpt>
      <trkpt lat="30.242065312340856" lon="-6.855719452723861">
        <ele>775.44000000000005</ele>
        <time>2019-03-15T13:42:37Z</time>
      </trkpt>
      <trkpt lat="30.245211711153388" lon="-6.853279983624816">
        <ele>776.39999999999998</ele>
        <time>2019-03-15T13:42:38Z</time>
      </trkpt>
      <trkpt lat="30.248642759397626" lon="-6.850633397698402">
        <ele>778.32000000000005</ele>
        <time>2019-03-15T13:42:39Z</time>
      </trkpt>
      <trkpt lat="30.251590423285961" lon="-6.848416887223721">
        <ele>779.76999999999998</ele>
        <time>2019-03-15T13:42:40Z</time>
      </trkpt>
      <trkpt lat="30.253905253484845" lon="-6.847556317225099">
        <ele>779.76999999999998</ele>
        <time>2019-03-15T13:42:41Z</time>
      </trkpt>
      <trkpt lat="30.257040755823255" lon="-6.846433309838176">
        <ele>779.76999999999998</ele>
        <time>2019-03-15T13:42:47Z</time>
      </trkpt>
      <trkpt lat="30.2582454867661" lon="-6.84599963016808">
        <ele>779.76999999999998</ele>
        <time>2019-03-15T13:42:48Z</time>
      </trkpt>
      <trkpt lat="30.259840814396739" lon="-6.845429744571447">
        <ele>779.28999999999996</ele>
        <time>2019-03-15T13:42:49Z</time>
      </trkpt>
      <trkpt lat="30.261803772300482" lon="-6.844724826514721">
        <ele>779.28999999999996</ele>
        <time>2019-03-15T13:42:50Z</time>
      </trkpt>
      <trkpt lat="30.263766897842288" lon="-6.843941202387214">
        <ele>782.64999999999998</ele>
        <time>2019-03-15T13:42:51Z</time>
      </trkpt>
      <trkpt lat="30.263914922252297" lon="-6.843834333121777">
        <ele>784.09000000000003</ele>
        <time>2019-03-15T13:42:58Z</time>
      </trkpt>
      <trkpt lat="30.264052720740438" lon="-6.843711538240314">
        <ele>784.57000000000005</ele>
        <time>2019-03-15T13:43:12Z</time>
      </trkpt>
      <trkpt lat="30.264177527278662" lon="-6.843571225181222">
        <ele>784.09000000000003</ele>
        <time>2019-03-15T13:43:19Z</time>
      </trkpt>
      <trkpt lat="30.264289258047938" lon="-6.843417165800929">
        <ele>784.09000000000003</ele>
        <time>2019-03-15T13:43:30Z</time>
      </trkpt>
      <trkpt lat="30.26439587585628" lon="-6.84325447306037">
        <ele>784.57000000000005</ele>
        <time>2019-03-15T13:43:41Z</time>
      </trkpt>
      <trkpt lat="30.26603177189827" lon="-6.84081818908453">
        <ele>785.04999999999995</ele>
        <time>2019-03-15T13:43:49Z</time>
      </trkpt>
      <trkpt lat="30.266389679163694" lon="-6.840321058407426">
        <ele>785.04999999999995</ele>
        <time>2019-03-15T13:44:00Z</time>
      </trkpt>
      <trkpt lat="30.266525717452168" lon="-6.84017663821578">
        <ele>785.52999999999997</ele>
        <time>2019-03-15T13:44:13Z</time>
      </trkpt>
      <trkpt lat="30.266672903671861" lon="-6.840040683746338">
        <ele>791.29999999999995</ele>
        <time>2019-03-15T13:44:25Z</time>
      </trkpt>
      <trkpt lat="30.266834674403071" lon="-6.83991277590394">
        <ele>791.29999999999995</ele>
        <time>2019-03-15T13:44:34Z</time>
      </trkpt>
      <trkpt lat="30.267002983018756" lon="-6.839791908860207">
        <ele>791.77999999999997</ele>
        <time>2019-03-15T13:44:47Z</time>
      </trkpt>
      <trkpt lat="30.267832539975643" lon="-6.839234679937363">
        <ele>792.25999999999999</ele>
        <time>2019-03-15T13:44:56Z</time>
      </trkpt>
      <trkpt lat="30.267969332635403" lon="-6.839092774316669">
        <ele>792.74000000000001</ele>
        <time>2019-03-15T13:45:05Z</time>
      </trkpt>
      <trkpt lat="30.268094558268785" lon="-6.838939217850566">
        <ele>796.59000000000003</ele>
        <time>2019-03-15T13:45:28Z</time>
      </trkpt>
      <trkpt lat="30.269501963630319" lon="-6.837327126413584">
        <ele>797.54999999999995</ele>
        <time>2019-03-15T13:45:51Z</time>
      </trkpt>
      <trkpt lat="30.271042389795184" lon="-6.836502263322473">
        <ele>798.02999999999997</ele>
        <time>2019-03-15T13:46:14Z</time>
      </trkpt>
      <trkpt lat="30.271707577630877" lon="-6.835925169289112">
        <ele>798.02999999999997</ele>
        <time>2019-03-15T13:46:29Z</time>
      </trkpt>
      <trkpt lat="30.271847052499652" lon="-6.835742359980941">
        <ele>798.02999999999997</ele>
        <time>2019-03-15T13:46:45Z</time>
      </trkpt>
      <trkpt lat="30.271970517933369" lon="-6.835542200133205">
        <ele>798.50999999999999</ele>
        <time>2019-03-15T13:46:59Z</time>
      </trkpt>
      <trkpt lat="30.272885067388415" lon="-6.833643866702914">
        <ele>800.91999999999996</ele>
        <time>2019-03-15T13:47:15Z</time>
      </trkpt>
      <trkpt lat="30.273333163931966" lon="-6.832838030532002">
        <ele>804.75999999999999</ele>
        <time>2019-03-15T13:47:31Z</time>
      </trkpt>
      <trkpt lat="30.27344573289156" lon="-6.832713726907969">
        <ele>810.04999999999995</ele>
        <time>2019-03-15T13:47:43Z</time>
      </trkpt>
      <trkpt lat="30.273571545258164" lon="-6.832607109099627">
        <ele>810.52999999999997</ele>
        <time>2019-03-15T13:47:58Z</time>
      </trkpt>
      <trkpt lat="30.273706493899226" lon="-6.832517758011818">
        <ele>810.52999999999997</ele>
        <time>2019-03-15T13:48:09Z</time>
      </trkpt>
      <trkpt lat="30.273845633491874" lon="-6.832437627017498">
        <ele>810.04999999999995</ele>
        <time>2019-03-15T13:48:22Z</time>
      </trkpt>
      <trkpt lat="30.275163017213345" lon="-6.831659954041243">
        <ele>809.57000000000005</ele>
        <time>2019-03-15T13:48:34Z</time>
      </trkpt>
      <trkpt lat="30.276933191344142" lon="-6.830578101798892">
        <ele>808.61000000000001</ele>
        <time>2019-03-15T13:48:40Z</time>
      </trkpt>
      <trkpt lat="30.278434222564101" lon="-6.829689703881741">
        <ele>809.09000000000003</ele>
        <time>2019-03-15T13:48:41Z</time>
      </trkpt>
      <trkpt lat="30.278540924191475" lon="-6.829581828787923">
        <ele>809.09000000000003</ele>
        <time>2019-03-15T13:48:51Z</time>
      </trkpt>
      <trkpt lat="30.278631867840886" lon="-6.829451154917479">
        <ele>809.09000000000003</ele>
        <time>2019-03-15T13:49:06Z</time>
      </trkpt>
      <trkpt lat="30.278709987178445" lon="-6.82929927483201">
        <ele>809.57000000000005</ele>
        <time>2019-03-15T13:49:13Z</time>
      </trkpt>
      <trkpt lat="30.278779473155737" lon="-6.829134654253721">
        <ele>816.29999999999995</ele>
        <time>2019-03-15T13:49:21Z</time>
      </trkpt>
      <trkpt lat="30.279112486168742" lon="-6.82830392383039">
        <ele>834.55999999999995</ele>
        <time>2019-03-15T13:49:29Z</time>
      </trkpt>
      <trkpt lat="30.279211308807135" lon="-6.828157491981983">
        <ele>836</ele>
        <time>2019-03-15T13:49:37Z</time>
      </trkpt>
      <trkpt lat="30.279327565804124" lon="-6.828024554997683">
        <ele>837.45000000000005</ele>
        <time>2019-03-15T13:49:38Z</time>
      </trkpt>
      <trkpt lat="30.279452623799443" lon="-6.827907375991345">
        <ele>838.40999999999997</ele>
        <time>2019-03-15T13:49:39Z</time>
      </trkpt>
      <trkpt lat="30.279578352347016" lon="-6.827803021296859">
        <ele>838.88999999999999</ele>
        <time>2019-03-15T13:49:40Z</time>
      </trkpt>
      <trkpt lat="30.281362608075142" lon="-6.826484547927976">
        <ele>839.37</ele>
        <time>2019-03-15T13:49:41Z</time>
      </trkpt>
      <trkpt lat="30.283346101641655" lon="-6.825457429513335">
        <ele>839.85000000000002</ele>
        <time>2019-03-15T13:49:51Z</time>
      </trkpt>
      <trkpt lat="30.283490438014269" lon="-6.825436390936375">
        <ele>840.33000000000004</ele>
        <time>2019-03-15T13:49:52Z</time>
      </trkpt>
      <trkpt lat="30.283633600920439" lon="-6.825438234955072">
        <ele>840.80999999999995</ele>
        <time>2019-03-15T13:49:53Z</time>
      </trkpt>
      <trkpt lat="30.283772405236959" lon="-6.825462626293302">
        <ele>838.88999999999999</ele>
        <time>2019-03-15T13:50:06Z</time>
      </trkpt>
      <trkpt lat="30.283904587849975" lon="-6.825511576607823">
        <ele>837.92999999999995</ele>
        <time>2019-03-15T13:50:16Z</time>
      </trkpt>
      <trkpt lat="30.284026795998216" lon="-6.825587516650558">
        <ele>836.96000000000004</ele>
        <time>2019-03-15T13:50:22Z</time>
      </trkpt>
      <trkpt lat="30.284137353301048" lon="-6.82568927295506">
        <ele>835.51999999999998</ele>
        <time>2019-03-15T13:50:31Z</time>
      </trkpt>
      <trkpt lat="30.284239277243614" lon="-6.825809888541699">
        <ele>834.55999999999995</ele>
        <time>2019-03-15T13:50:47Z</time>
      </trkpt>
      <trkpt lat="30.284341452643275" lon="-6.825939724221826">
        <ele>825.90999999999997</ele>
        <time>2019-03-15T13:50:54Z</time>
      </trkpt>
      <trkpt lat="30.284949643537402" lon="-6.826766431331635">
        <ele>822.05999999999995</ele>
        <time>2019-03-15T13:51:01Z</time>
      </trkpt>
      <trkpt lat="30.285014938563108" lon="-6.826925352215767">
        <ele>821.58000000000004</ele>
        <time>2019-03-15T13:51:11Z</time>
      </trkpt>
      <trkpt lat="30.28506631962955" lon="-6.827100114896894">
        <ele>818.70000000000005</ele>
        <time>2019-03-15T13:51:21Z</time>
      </trkpt>
      <trkpt lat="30.285104876384139" lon="-6.827288288623095">
        <ele>818.70000000000005</ele>
        <time>2019-03-15T13:51:29Z</time>
      </trkpt>
      <trkpt lat="30.285134296864271" lon="-6.827487610280514">
        <ele>819.65999999999997</ele>
        <time>2019-03-15T13:51:36Z</time>
      </trkpt>
      <trkpt lat="30.285495975986123" lon="-6.829042620956898">
        <ele>820.13999999999999</ele>
        <time>2019-03-15T13:51:37Z</time>
      </trkpt>
      <trkpt lat="30.286606075242162" lon="-6.832336373627186">
        <ele>823.50999999999999</ele>
        <time>2019-03-15T13:51:38Z</time>
      </trkpt>
      <trkpt lat="30.287511991336942" lon="-6.833659457042813">
        <ele>822.54999999999995</ele>
        <time>2019-03-15T13:51:39Z</time>
      </trkpt>
      <trkpt lat="30.289321728050709" lon="-6.835612859576941">
        <ele>821.10000000000002</ele>
        <time>2019-03-15T13:51:40Z</time>
      </trkpt>
      <trkpt lat="30.291343862190843" lon="-6.837377334013581">
        <ele>823.02999999999997</ele>
        <time>2019-03-15T13:51:41Z</time>
      </trkpt>
      <trkpt lat="30.292274337261915" lon="-6.838191887363792">
        <ele>824.47000000000003</ele>
        <time>2019-03-15T13:51:42Z</time>
      </trkpt>
      <trkpt lat="30.293737063184381" lon="-6.839179694652557">
        <ele>828.78999999999996</ele>
        <time>2019-03-15T13:51:43Z</time>
      </trkpt>
      <trkpt lat="30.296064801514149" lon="-6.840164652094245">
        <ele>836.96000000000004</ele>
        <time>2019-03-15T13:51:44Z</time>
      </trkpt>
      <trkpt lat="30.298717673867941" lon="-6.84132931753993">
        <ele>840.33000000000004</ele>
        <time>2019-03-15T13:51:45Z</time>
      </trkpt>
      <trkpt lat="30.300746681168675" lon="-6.842639241367579">
        <ele>848.01999999999998</ele>
        <time>2019-03-15T13:51:46Z</time>
      </trkpt>
      <trkpt lat="30.303583703935146" lon="-6.84435392729938">
        <ele>852.35000000000002</ele>
        <time>2019-03-15T13:51:47Z</time>
      </trkpt>
      <trkpt lat="30.305601479485631" lon="-6.844979049637914">
        <ele>853.30999999999995</ele>
        <time>2019-03-15T13:51:48Z</time>
      </trkpt>
      <trkpt lat="30.307710869237781" lon="-6.845039399340749">
        <ele>857.14999999999998</ele>
        <time>2019-03-15T13:51:53Z</time>
      </trkpt>
      <trkpt lat="30.313229095190763" lon="-6.844673864543438">
        <ele>866.28999999999996</ele>
        <time>2019-03-15T13:51:54Z</time>
      </trkpt>
      <trkpt lat="30.318790823221207" lon="-6.844297852367163">
        <ele>867.73000000000002</ele>
        <time>2019-03-15T13:51:55Z</time>
      </trkpt>
      <trkpt lat="30.3243965562433" lon="-6.843877080827951">
        <ele>865.32000000000005</ele>
        <time>2019-03-15T13:52:04Z</time>
      </trkpt>
      <trkpt lat="30.327916871756315" lon="-6.84327844530344">
        <ele>862.91999999999996</ele>
        <time>2019-03-15T13:52:05Z</time>
      </trkpt>
      <trkpt lat="30.33155688084662" lon="-6.842636475339532">
        <ele>867.73000000000002</ele>
        <time>2019-03-15T13:52:06Z</time>
      </trkpt>
      <trkpt lat="30.334527427330613" lon="-6.842123083770275">
        <ele>870.61000000000001</ele>
        <time>2019-03-15T13:52:07Z</time>
      </trkpt>
      <trkpt lat="30.337817240506411" lon="-6.8415433075279">
        <ele>872.04999999999995</ele>
        <time>2019-03-15T13:52:08Z</time>
      </trkpt>
      <trkpt lat="30.341031197458506" lon="-6.840980965644121">
        <ele>869.16999999999996</ele>
        <time>2019-03-15T13:52:09Z</time>
      </trkpt>
      <trkpt lat="30.343377962708473" lon="-6.840810226276517">
        <ele>869.16999999999996</ele>
        <time>2019-03-15T13:52:15Z</time>
      </trkpt>
      <trkpt lat="30.346259661018848" lon="-6.841034526005387">
        <ele>864.84000000000003</ele>
        <time>2019-03-15T13:52:16Z</time>
      </trkpt>
      <trkpt lat="30.347746107727289" lon="-6.841157488524914">
        <ele>861.96000000000004</ele>
        <time>2019-03-15T13:52:18Z</time>
      </trkpt>
      <trkpt lat="30.349377058446407" lon="-6.841280283406377">
        <ele>862.44000000000005</ele>
        <time>2019-03-15T13:52:19Z</time>
      </trkpt>
      <trkpt lat="30.351002980023623" lon="-6.841254383325577">
        <ele>862.44000000000005</ele>
        <time>2019-03-15T13:52:20Z</time>
      </trkpt>
      <trkpt lat="30.351893724873662" lon="-6.841138377785683">
        <ele>863.39999999999998</ele>
        <time>2019-03-15T13:52:21Z</time>
      </trkpt>
      <trkpt lat="30.35205683670938" lon="-6.841158494353294">
        <ele>863.39999999999998</ele>
        <time>2019-03-15T13:52:22Z</time>
      </trkpt>
      <trkpt lat="30.35381049849093" lon="-6.841602232307196">
        <ele>863.39999999999998</ele>
        <time>2019-03-15T13:52:23Z</time>
      </trkpt>
      <trkpt lat="30.35620822571218" lon="-6.842260044068098">
        <ele>863.39999999999998</ele>
        <time>2019-03-15T13:52:24Z</time>
      </trkpt>
      <trkpt lat="30.357042979449034" lon="-6.842953730374575">
        <ele>863.39999999999998</ele>
        <time>2019-03-15T13:52:28Z</time>
      </trkpt>
      <trkpt lat="30.357604147866368" lon="-6.84378806501627">
        <ele>863.88</ele>
        <time>2019-03-15T13:52:29Z</time>
      </trkpt>
      <trkpt lat="30.357841439545155" lon="-6.844507651403546">
        <ele>865.79999999999995</ele>
        <time>2019-03-15T13:52:30Z</time>
      </trkpt>
      <trkpt lat="30.358245195820928" lon="-6.845584306865931">
        <ele>865.79999999999995</ele>
        <time>2019-03-15T13:52:31Z</time>
      </trkpt>
      <trkpt lat="30.358269838616252" lon="-6.845742389559746">
        <ele>865.79999999999995</ele>
        <time>2019-03-15T13:52:32Z</time>
      </trkpt>
      <trkpt lat="30.358277969062328" lon="-6.845909524708986">
        <ele>868.21000000000004</ele>
        <time>2019-03-15T13:52:40Z</time>
      </trkpt>
      <trkpt lat="30.358269168063998" lon="-6.846080347895622">
        <ele>872.04999999999995</ele>
        <time>2019-03-15T13:52:48Z</time>
      </trkpt>
      <trkpt lat="30.358254332095385" lon="-6.846256367862225">
        <ele>873.98000000000002</ele>
        <time>2019-03-15T13:52:53Z</time>
      </trkpt>
      <trkpt lat="30.3582155238837" lon="-6.84808018617332">
        <ele>877.34000000000003</ele>
        <time>2019-03-15T13:52:59Z</time>
      </trkpt>
      <trkpt lat="30.358259193599224" lon="-6.848258720710874">
        <ele>880.71000000000004</ele>
        <time>2019-03-15T13:53:00Z</time>
      </trkpt>
      <trkpt lat="30.358317447826266" lon="-6.84843884781003">
        <ele>884.07000000000005</ele>
        <time>2019-03-15T13:53:14Z</time>
      </trkpt>
      <trkpt lat="30.359165947884321" lon="-6.850759042426944">
        <ele>884.07000000000005</ele>
        <time>2019-03-15T13:53:15Z</time>
      </trkpt>
      <trkpt lat="30.359951164573431" lon="-6.852709008380771">
        <ele>886.47000000000003</ele>
        <time>2019-03-15T13:53:19Z</time>
      </trkpt>
      <trkpt lat="30.36088339984417" lon="-6.853647781535983">
        <ele>890.79999999999995</ele>
        <time>2019-03-15T13:53:27Z</time>
      </trkpt>
      <trkpt lat="30.362635217607021" lon="-6.854797443374991">
        <ele>890.32000000000005</ele>
        <time>2019-03-15T13:53:38Z</time>
      </trkpt>
      <trkpt lat="30.365852862596512" lon="-6.856975397095084">
        <ele>887.42999999999995</ele>
        <time>2019-03-15T13:53:50Z</time>
      </trkpt>
      <trkpt lat="30.366896325722337" lon="-6.858232514932752">
        <ele>887.42999999999995</ele>
        <time>2019-03-15T13:54:00Z</time>
      </trkpt>
      <trkpt lat="30.367372669279575" lon="-6.859785262495279">
        <ele>887.90999999999997</ele>
        <time>2019-03-15T13:54:10Z</time>
      </trkpt>
      <trkpt lat="30.367500577121973" lon="-6.862212996929884">
        <ele>888.39999999999998</ele>
        <time>2019-03-15T13:54:17Z</time>
      </trkpt>
      <trkpt lat="30.367097239941359" lon="-6.86454014852643">
        <ele>888.88</ele>
        <time>2019-03-15T13:54:23Z</time>
      </trkpt>
      <trkpt lat="30.366851566359401" lon="-6.866436386480928">
        <ele>889.36000000000001</ele>
        <time>2019-03-15T13:54:34Z</time>
      </trkpt>
      <trkpt lat="30.366937313228846" lon="-6.86801235191524">
        <ele>889.84000000000003</ele>
        <time>2019-03-15T13:54:40Z</time>
      </trkpt>
      <trkpt lat="30.367009900510311" lon="-6.868206057697535">
        <ele>890.32000000000005</ele>
        <time>2019-03-15T13:54:47Z</time>
      </trkpt>
      <trkpt lat="30.367099335417151" lon="-6.868388950824738">
        <ele>890.79999999999995</ele>
        <time>2019-03-15T13:54:56Z</time>
      </trkpt>
      <trkpt lat="30.367200672626495" lon="-6.868562204763293">
        <ele>890.79999999999995</ele>
        <time>2019-03-15T13:55:09Z</time>
      </trkpt>
      <trkpt lat="30.36731525324285" lon="-6.868721209466457">
        <ele>890.79999999999995</ele>
        <time>2019-03-15T13:55:16Z</time>
      </trkpt>
      <trkpt lat="30.367443663999438" lon="-6.868864875286818">
        <ele>890.79999999999995</ele>
        <time>2019-03-15T13:55:24Z</time>
      </trkpt>
      <trkpt lat="30.367578361183405" lon="-6.868990352377296">
        <ele>890.79999999999995</ele>
        <time>2019-03-15T13:55:25Z</time>
      </trkpt>
      <trkpt lat="30.367715321481228" lon="-6.869096215814352">
        <ele>891.75999999999999</ele>
        <time>2019-03-15T13:55:26Z</time>
      </trkpt>
      <trkpt lat="30.367862591519952" lon="-6.869180034846067">
        <ele>891.75999999999999</ele>
        <time>2019-03-15T13:55:29Z</time>
      </trkpt>
      <trkpt lat="30.368023691698909" lon="-6.869246000424027">
        <ele>891.75999999999999</ele>
        <time>2019-03-15T13:55:30Z</time>
      </trkpt>
      <trkpt lat="30.368194682523608" lon="-6.86929889023304">
        <ele>891.27999999999997</ele>
        <time>2019-03-15T13:55:31Z</time>
      </trkpt>
      <trkpt lat="30.368373887613416" lon="-6.86934188939631">
        <ele>891.27999999999997</ele>
        <time>2019-03-15T13:55:32Z</time>
      </trkpt>
      <trkpt lat="30.368556194007397" lon="-6.869377512484789">
        <ele>891.27999999999997</ele>
        <time>2019-03-15T13:55:33Z</time>
      </trkpt>
      <trkpt lat="30.369419446215034" lon="-6.86955981887877">
        <ele>891.75999999999999</ele>
        <time>2019-03-15T13:55:34Z</time>
      </trkpt>
      <trkpt lat="30.369579121470451" lon="-6.869625532999635">
        <ele>891.75999999999999</ele>
        <time>2019-03-15T13:55:35Z</time>
      </trkpt>
      <trkpt lat="30.369736114516854" lon="-6.869708597660065">
        <ele>891.75999999999999</ele>
        <time>2019-03-15T13:55:36Z</time>
      </trkpt>
      <trkpt lat="30.371140418574214" lon="-6.870630020275712">
        <ele>892.24000000000001</ele>
        <time>2019-03-15T13:55:37Z</time>
      </trkpt>
      <trkpt lat="30.371306464076042" lon="-6.870680898427963">
        <ele>891.75999999999999</ele>
        <time>2019-03-15T13:55:38Z</time>
      </trkpt>
      <trkpt lat="30.371481142938137" lon="-6.870713504031301">
        <ele>891.75999999999999</ele>
        <time>2019-03-15T13:55:39Z</time>
      </trkpt>
      <trkpt lat="30.371663197875023" lon="-6.870726076886058">
        <ele>891.75999999999999</ele>
        <time>2019-03-15T13:55:40Z</time>
      </trkpt>
      <trkpt lat="30.371852125972509" lon="-6.870718114078045">
        <ele>891.75999999999999</ele>
        <time>2019-03-15T13:55:41Z</time>
      </trkpt>
      <trkpt lat="30.372042395174503" lon="-6.87070026062429">
        <ele>891.27999999999997</ele>
        <time>2019-03-15T13:55:42Z</time>
      </trkpt>
      <trkpt lat="30.373098095878959" lon="-6.870651729404926">
        <ele>891.27999999999997</ele>
        <time>2019-03-15T13:55:43Z</time>
      </trkpt>
      <trkpt lat="30.373244946822524" lon="-6.87069732695818">
        <ele>891.27999999999997</ele>
        <time>2019-03-15T13:55:44Z</time>
      </trkpt>
      <trkpt lat="30.373485507443547" lon="-6.870784498751164">
        <ele>891.27999999999997</ele>
        <time>2019-03-15T13:55:45Z</time>
      </trkpt>
      <trkpt lat="30.373601177707314" lon="-6.870783241465688">
        <ele>891.75999999999999</ele>
        <time>2019-03-15T13:55:46Z</time>
      </trkpt>
      <trkpt lat="30.373716596513987" lon="-6.870758095756173">
        <ele>891.75999999999999</ele>
        <time>2019-03-15T13:55:55Z</time>
      </trkpt>
      <trkpt lat="30.373832266777754" lon="-6.870712162926793">
        <ele>891.75999999999999</ele>
        <time>2019-03-15T13:56:03Z</time>
      </trkpt>
      <trkpt lat="30.373940896242857" lon="-6.870641252025962">
        <ele>891.75999999999999</ele>
        <time>2019-03-15T13:56:12Z</time>
      </trkpt>
      <trkpt lat="30.374037371948361" lon="-6.870542513206601">
        <ele>891.75999999999999</ele>
        <time>2019-03-15T13:56:25Z</time>
      </trkpt>
      <trkpt lat="30.374127812683582" lon="-6.870429273694754">
        <ele>893.67999999999995</ele>
        <time>2019-03-15T13:56:33Z</time>
      </trkpt>
      <trkpt lat="30.374519499018788" lon="-6.870040772482753">
        <ele>892.72000000000003</ele>
        <time>2019-03-15T13:56:42Z</time>
      </trkpt>
      <trkpt lat="30.374643886461854" lon="-6.869980506598949">
        <ele>894.15999999999997</ele>
        <time>2019-03-15T13:56:43Z</time>
      </trkpt>
      <trkpt lat="30.374779170379043" lon="-6.86993264593184">
        <ele>902.33000000000004</ele>
        <time>2019-03-15T13:56:44Z</time>
      </trkpt>
      <trkpt lat="30.374921830371022" lon="-6.869893418624997">
        <ele>903.77999999999997</ele>
        <time>2019-03-15T13:56:45Z</time>
      </trkpt>
      <trkpt lat="30.375072453171015" lon="-6.86985888518393">
        <ele>925.40999999999997</ele>
        <time>2019-03-15T13:56:46Z</time>
      </trkpt>
      <trkpt lat="30.376491509377956" lon="-6.869663503021002">
        <ele>926.37</ele>
        <time>2019-03-15T13:56:47Z</time>
      </trkpt>
      <trkpt lat="30.378109719604254" lon="-6.869873302057385">
        <ele>931.16999999999996</ele>
        <time>2019-03-15T13:56:48Z</time>
      </trkpt>
      <trkpt lat="30.379014043137431" lon="-6.870111180469394">
        <ele>929.73000000000002</ele>
        <time>2019-03-15T13:56:49Z</time>
      </trkpt>
      <trkpt lat="30.379787273705006" lon="-6.870777374133468">
        <ele>918.20000000000005</ele>
        <time>2019-03-15T13:56:50Z</time>
      </trkpt>
      <trkpt lat="30.379889868199825" lon="-6.870924979448319">
        <ele>917.72000000000003</ele>
        <time>2019-03-15T13:56:51Z</time>
      </trkpt>
      <trkpt lat="30.381187805905938" lon="-6.873297477141023">
        <ele>921.08000000000004</ele>
        <time>2019-03-15T13:56:52Z</time>
      </trkpt>
      <trkpt lat="30.381237678229809" lon="-6.87349621206522">
        <ele>921.55999999999995</ele>
        <time>2019-03-15T13:56:53Z</time>
      </trkpt>
      <trkpt lat="30.381309594959021" lon="-6.874318476766348">
        <ele>917.72000000000003</ele>
        <time>2019-03-15T13:57:04Z</time>
      </trkpt>
      <trkpt lat="30.380879770964384" lon="-6.875839289277792">
        <ele>912.90999999999997</ele>
        <time>2019-03-15T13:57:07Z</time>
      </trkpt>
      <trkpt lat="30.380001850426197" lon="-6.878138612955809">
        <ele>915.30999999999995</ele>
        <time>2019-03-15T13:57:08Z</time>
      </trkpt>
      <trkpt lat="30.379156367853284" lon="-6.880978737026453">
        <ele>917.24000000000001</ele>
        <time>2019-03-15T13:57:09Z</time>
      </trkpt>
      <trkpt lat="30.378775075078011" lon="-6.883612750098109">
        <ele>916.26999999999998</ele>
        <time>2019-03-15T13:57:10Z</time>
      </trkpt>
      <trkpt lat="30.378651106730103" lon="-6.885997736826539">
        <ele>912.42999999999995</ele>
        <time>2019-03-15T13:57:11Z</time>
      </trkpt>
      <trkpt lat="30.379231888800859" lon="-6.887462725862861">
        <ele>912.42999999999995</ele>
        <time>2019-03-15T13:57:12Z</time>
      </trkpt>
      <trkpt lat="30.380107630044222" lon="-6.888343915343285">
        <ele>914.35000000000002</ele>
        <time>2019-03-15T13:57:19Z</time>
      </trkpt>
      <trkpt lat="30.382033288478851" lon="-6.889458792284131">
        <ele>916.75</ele>
        <time>2019-03-15T13:57:31Z</time>
      </trkpt>
      <trkpt lat="30.383276743814349" lon="-6.889511262997985">
        <ele>916.75</ele>
        <time>2019-03-15T13:57:38Z</time>
      </trkpt>
      <trkpt lat="30.384741565212607" lon="-6.888906760141254">
        <ele>917.24000000000001</ele>
        <time>2019-03-15T13:57:39Z</time>
      </trkpt>
      <trkpt lat="30.386418951675296" lon="-6.887361975386739">
        <ele>918.67999999999995</ele>
        <time>2019-03-15T13:57:40Z</time>
      </trkpt>
      <trkpt lat="30.388780049979687" lon="-6.885235738009214">
        <ele>919.15999999999997</ele>
        <time>2019-03-15T13:57:41Z</time>
      </trkpt>
      <trkpt lat="30.389765594154596" lon="-6.883850125595927">
        <ele>919.15999999999997</ele>
        <time>2019-03-15T13:57:42Z</time>
      </trkpt>
      <trkpt lat="30.390418125316501" lon="-6.882127309218049">
        <ele>919.63999999999999</ele>
        <time>2019-03-15T13:57:43Z</time>
      </trkpt>
      <trkpt lat="30.390451485291123" lon="-6.881937123835087">
        <ele>920.12</ele>
        <time>2019-03-15T13:57:44Z</time>
      </trkpt>
      <trkpt lat="30.390472942963243" lon="-6.881751464679837">
        <ele>920.12</ele>
        <time>2019-03-15T13:57:45Z</time>
      </trkpt>
      <trkpt lat="30.390505464747548" lon="-6.881238911300898">
        <ele>919.63999999999999</ele>
        <time>2019-03-15T13:57:46Z</time>
      </trkpt>
      <trkpt lat="30.390535974875093" lon="-6.881084265187383">
        <ele>920.12</ele>
        <time>2019-03-15T13:57:47Z</time>
      </trkpt>
      <trkpt lat="30.390593893826008" lon="-6.880941856652498">
        <ele>919.63999999999999</ele>
        <time>2019-03-15T13:57:48Z</time>
      </trkpt>
      <trkpt lat="30.390678215771914" lon="-6.880818726494908">
        <ele>919.15999999999997</ele>
        <time>2019-03-15T13:57:49Z</time>
      </trkpt>
      <trkpt lat="30.390785168856382" lon="-6.880720071494579">
        <ele>918.67999999999995</ele>
        <time>2019-03-15T13:57:50Z</time>
      </trkpt>
      <trkpt lat="30.390908131375909" lon="-6.880650417879224">
        <ele>918.20000000000005</ele>
        <time>2019-03-15T13:57:51Z</time>
      </trkpt>
      <trkpt lat="30.391040481626987" lon="-6.880610184744">
        <ele>918.20000000000005</ele>
        <time>2019-03-15T13:57:52Z</time>
      </trkpt>
      <trkpt lat="30.391174675896764" lon="-6.880601216107607">
        <ele>918.20000000000005</ele>
        <time>2019-03-15T13:57:53Z</time>
      </trkpt>
      <trkpt lat="30.391306104138494" lon="-6.880622422322631">
        <ele>918.67999999999995</ele>
        <time>2019-03-15T13:57:54Z</time>
      </trkpt>
      <trkpt lat="30.391430156305432" lon="-6.880680592730641">
        <ele>918.67999999999995</ele>
        <time>2019-03-15T13:57:55Z</time>
      </trkpt>
      <trkpt lat="30.391545239835978" lon="-6.88076994381845">
        <ele>918.67999999999995</ele>
        <time>2019-03-15T13:58:06Z</time>
      </trkpt>
      <trkpt lat="30.391651270911098" lon="-6.880882931873202">
        <ele>919.15999999999997</ele>
        <time>2019-03-15T13:58:17Z</time>
      </trkpt>
      <trkpt lat="30.391743136569858" lon="-6.881011845543981">
        <ele>923</ele>
        <time>2019-03-15T13:58:30Z</time>
      </trkpt>
      <trkpt lat="30.391812287271023" lon="-6.881154337897897">
        <ele>925.88999999999999</ele>
        <time>2019-03-15T13:58:34Z</time>
      </trkpt>
      <trkpt lat="30.391845731064677" lon="-6.881307726725936">
        <ele>927.33000000000004</ele>
        <time>2019-03-15T13:58:35Z</time>
      </trkpt>
      <trkpt lat="30.391840785741806" lon="-6.881462289020419">
        <ele>929.25</ele>
        <time>2019-03-15T13:58:36Z</time>
      </trkpt>
      <trkpt lat="30.391812203451991" lon="-6.8816152587533">
        <ele>929.73000000000002</ele>
        <time>2019-03-15T13:58:37Z</time>
      </trkpt>
      <trkpt lat="30.391771635040641" lon="-6.8817672226578">
        <ele>931.16999999999996</ele>
        <time>2019-03-15T13:58:38Z</time>
      </trkpt>
      <trkpt lat="30.391263775527477" lon="-6.883135233074427">
        <ele>931.16999999999996</ele>
        <time>2019-03-15T13:58:39Z</time>
      </trkpt>
      <trkpt lat="30.390698835253716" lon="-6.884504752233625">
        <ele>931.16999999999996</ele>
        <time>2019-03-15T13:58:50Z</time>
      </trkpt>
      <trkpt lat="30.39011855609715" lon="-6.886338964104652">
        <ele>931.16999999999996</ele>
        <time>2019-03-15T13:58:51Z</time>
      </trkpt>
      <trkpt lat="30.38910417817533" lon="-6.889183865860105">
        <ele>931.16999999999996</ele>
        <time>2019-03-15T13:58:52Z</time>
      </trkpt>
      <trkpt lat="30.388732943683863" lon="-6.891159564256668">
        <ele>931.16999999999996</ele>
        <time>2019-03-15T13:58:53Z</time>
      </trkpt>
      <trkpt lat="30.388558683916926" lon="-6.893183207139373">
        <ele>931.16999999999996</ele>
        <time>2019-03-15T13:58:54Z</time>
      </trkpt>
      <trkpt lat="30.388580979779363" lon="-6.893395185470581">
        <ele>931.16999999999996</ele>
        <time>2019-03-15T13:58:55Z</time>
      </trkpt>
      <trkpt lat="30.388620207086205" lon="-6.89360330812633">
        <ele>931.16999999999996</ele>
        <time>2019-03-15T13:58:56Z</time>
      </trkpt>
      <trkpt lat="30.38867468945682" lon="-6.893809586763382">
        <ele>931.16999999999996</ele>
        <time>2019-03-15T13:58:57Z</time>
      </trkpt>
      <trkpt lat="30.388747444376349" lon="-6.894009998068214">
        <ele>931.16999999999996</ele>
        <time>2019-03-15T13:58:58Z</time>
      </trkpt>
      <trkpt lat="30.388839645311236" lon="-6.894202781841159">
        <ele>931.16999999999996</ele>
        <time>2019-03-15T13:58:59Z</time>
      </trkpt>
      <trkpt lat="30.388944586738944" lon="-6.894387099891901">
        <ele>931.64999999999998</ele>
        <time>2019-03-15T13:59:00Z</time>
      </trkpt>
      <trkpt lat="30.389064783230424" lon="-6.894565550610423">
        <ele>931.64999999999998</ele>
        <time>2019-03-15T13:59:01Z</time>
      </trkpt>
      <trkpt lat="30.389200067147613" lon="-6.894735954701901">
        <ele>931.64999999999998</ele>
        <time>2019-03-15T13:59:14Z</time>
      </trkpt>
      <trkpt lat="30.389348343014717" lon="-6.894894540309906">
        <ele>931.64999999999998</ele>
        <time>2019-03-15T13:59:19Z</time>
      </trkpt>
      <trkpt lat="30.389506760984659" lon="-6.895040385425091">
        <ele>931.64999999999998</ele>
        <time>2019-03-15T13:59:20Z</time>
      </trkpt>
      <trkpt lat="30.389672135934234" lon="-6.895178854465485">
        <ele>932.13999999999999</ele>
        <time>2019-03-15T13:59:21Z</time>
      </trkpt>
      <trkpt lat="30.391529900953174" lon="-6.896509313955903">
        <ele>932.13999999999999</ele>
        <time>2019-03-15T13:59:30Z</time>
      </trkpt>
      <trkpt lat="30.392084615305066" lon="-6.896614506840706">
        <ele>934.05999999999995</ele>
        <time>2019-03-15T13:59:38Z</time>
      </trkpt>
      <trkpt lat="30.392276393249631" lon="-6.89661274664104">
        <ele>940.30999999999995</ele>
        <time>2019-03-15T13:59:39Z</time>
      </trkpt>
      <trkpt lat="30.392469260841608" lon="-6.896591791883111">
        <ele>940.78999999999996</ele>
        <time>2019-03-15T13:59:40Z</time>
      </trkpt>
      <trkpt lat="30.392660032957792" lon="-6.896549547091126">
        <ele>940.30999999999995</ele>
        <time>2019-03-15T13:59:41Z</time>
      </trkpt>
      <trkpt lat="30.392846697941422" lon="-6.896491292864084">
        <ele>939.83000000000004</ele>
        <time>2019-03-15T13:59:42Z</time>
      </trkpt>
      <trkpt lat="30.393031099811196" lon="-6.89641585573554">
        <ele>938.86000000000001</ele>
        <time>2019-03-15T13:59:43Z</time>
      </trkpt>
      <trkpt lat="30.394276650622487" lon="-6.895551681518555">
        <ele>937.89999999999998</ele>
        <time>2019-03-15T13:59:44Z</time>
      </trkpt>
      <trkpt lat="30.396444881334901" lon="-6.894129440188408">
        <ele>936.94000000000005</ele>
        <time>2019-03-15T13:59:45Z</time>
      </trkpt>
      <trkpt lat="30.397748351097107" lon="-6.893655527383089">
        <ele>936.94000000000005</ele>
        <time>2019-03-15T13:59:46Z</time>
      </trkpt>
      <trkpt lat="30.397928059101105" lon="-6.893634153530002">
        <ele>936.46000000000004</ele>
        <time>2019-03-15T13:59:47Z</time>
      </trkpt>
      <trkpt lat="30.398107264190912" lon="-6.893631052225828">
        <ele>936.46000000000004</ele>
        <time>2019-03-15T13:59:52Z</time>
      </trkpt>
      <trkpt lat="30.398284457623959" lon="-6.893643625080586">
        <ele>936.94000000000005</ele>
        <time>2019-03-15T13:59:53Z</time>
      </trkpt>
      <trkpt lat="30.398456286638975" lon="-6.893680086359382">
        <ele>937.41999999999996</ele>
        <time>2019-03-15T13:59:54Z</time>
      </trkpt>
      <trkpt lat="30.398620907217264" lon="-6.893743621185422">
        <ele>937.41999999999996</ele>
        <time>2019-03-15T13:59:55Z</time>
      </trkpt>
      <trkpt lat="30.398775553330779" lon="-6.893830960616469">
        <ele>937.89999999999998</ele>
        <time>2019-03-15T13:59:56Z</time>
      </trkpt>
      <trkpt lat="30.398918883875012" lon="-6.893934393301606">
        <ele>937.89999999999998</ele>
        <time>2019-03-15T13:59:57Z</time>
      </trkpt>
      <trkpt lat="30.399055927991867" lon="-6.894052578136325">
        <ele>938.38</ele>
        <time>2019-03-15T13:59:58Z</time>
      </trkpt>
      <trkpt lat="30.399188278242946" lon="-6.894182413816452">
        <ele>938.38</ele>
        <time>2019-03-15T13:59:59Z</time>
      </trkpt>
      <trkpt lat="30.399311073124409" lon="-6.894320715218782">
        <ele>938.86000000000001</ele>
        <time>2019-03-15T14:00:00Z</time>
      </trkpt>
      <trkpt lat="30.399416768923402" lon="-6.894469745457172">
        <ele>939.35000000000002</ele>
        <time>2019-03-15T14:00:01Z</time>
      </trkpt>
      <trkpt lat="30.399505030363798" lon="-6.8946289177984">
        <ele>944.14999999999998</ele>
        <time>2019-03-15T14:00:02Z</time>
      </trkpt>
      <trkpt lat="30.399575354531407" lon="-6.894797645509243">
        <ele>947.51999999999998</ele>
        <time>2019-03-15T14:00:09Z</time>
      </trkpt>
      <trkpt lat="30.399630339816213" lon="-6.894972994923592">
        <ele>947.51999999999998</ele>
        <time>2019-03-15T14:00:10Z</time>
      </trkpt>
      <trkpt lat="30.399675518274307" lon="-6.895155049860477">
        <ele>946.07000000000005</ele>
        <time>2019-03-15T14:00:11Z</time>
      </trkpt>
      <trkpt lat="30.399709129706025" lon="-6.895345486700535">
        <ele>946.07000000000005</ele>
        <time>2019-03-15T14:00:12Z</time>
      </trkpt>
      <trkpt lat="30.399735365062952" lon="-6.895539360120893">
        <ele>945.59000000000003</ele>
        <time>2019-03-15T14:00:13Z</time>
      </trkpt>
      <trkpt lat="30.399962430819869" lon="-6.897791242226958">
        <ele>945.11000000000001</ele>
        <time>2019-03-15T14:00:14Z</time>
      </trkpt>
      <trkpt lat="30.400437097996473" lon="-6.900085704401135">
        <ele>944.63</ele>
        <time>2019-03-15T14:00:24Z</time>
      </trkpt>
      <trkpt lat="30.40108292363584" lon="-6.902912249788642">
        <ele>944.14999999999998</ele>
        <time>2019-03-15T14:00:33Z</time>
      </trkpt>
      <trkpt lat="30.401298506185412" lon="-6.903514070436359">
        <ele>942.71000000000004</ele>
        <time>2019-03-15T14:00:34Z</time>
      </trkpt>
      <trkpt lat="30.401371931657195" lon="-6.903615659102798">
        <ele>943.19000000000005</ele>
        <time>2019-03-15T14:00:35Z</time>
      </trkpt>
      <trkpt lat="30.401459690183401" lon="-6.903689838945866">
        <ele>944.14999999999998</ele>
        <time>2019-03-15T14:00:36Z</time>
      </trkpt>
      <trkpt lat="30.401560943573713" lon="-6.90373694524169">
        <ele>944.63</ele>
        <time>2019-03-15T14:00:37Z</time>
      </trkpt>
      <trkpt lat="30.401669489219785" lon="-6.903758067637682">
        <ele>945.59000000000003</ele>
        <time>2019-03-15T14:00:38Z</time>
      </trkpt>
      <trkpt lat="30.401781974360347" lon="-6.90376820974052">
        <ele>946.55999999999995</ele>
        <time>2019-03-15T14:00:39Z</time>
      </trkpt>
      <trkpt lat="30.403251657262444" lon="-6.90385177731514">
        <ele>947.51999999999998</ele>
        <time>2019-03-15T14:00:40Z</time>
      </trkpt>
      <trkpt lat="30.403397167101502" lon="-6.9038987159729">
        <ele>948.48000000000002</ele>
        <time>2019-03-15T14:00:41Z</time>
      </trkpt>
      <trkpt lat="30.403539910912514" lon="-6.90396417863667">
        <ele>949.44000000000005</ele>
        <time>2019-03-15T14:00:42Z</time>
      </trkpt>
      <trkpt lat="30.403678212314844" lon="-6.904052188619971">
        <ele>949.91999999999996</ele>
        <time>2019-03-15T14:00:43Z</time>
      </trkpt>
      <trkpt lat="30.4038065392524" lon="-6.904158303514123">
        <ele>950.88</ele>
        <time>2019-03-15T14:00:44Z</time>
      </trkpt>
      <trkpt lat="30.403922377154231" lon="-6.90428277477622">
        <ele>951.84000000000003</ele>
        <time>2019-03-15T14:00:45Z</time>
      </trkpt>
      <trkpt lat="30.404024133458734" lon="-6.90442300401628">
        <ele>960.49000000000001</ele>
        <time>2019-03-15T14:00:46Z</time>
      </trkpt>
      <trkpt lat="30.404111472889781" lon="-6.904579242691398">
        <ele>961.46000000000004</ele>
        <time>2019-03-15T14:00:47Z</time>
      </trkpt>
      <trkpt lat="30.404190681874752" lon="-6.904747886583209">
        <ele>961.46000000000004</ele>
        <time>2019-03-15T14:00:48Z</time>
      </trkpt>
      <trkpt lat="30.404262011870742" lon="-6.904929019510746">
        <ele>961.94000000000005</ele>
        <time>2019-03-15T14:00:49Z</time>
      </trkpt>
      <trkpt lat="30.404319930821657" lon="-6.905114678665996">
        <ele>964.34000000000003</ele>
        <time>2019-03-15T14:00:50Z</time>
      </trkpt>
      <trkpt lat="30.404368713498116" lon="-6.905297068879008">
        <ele>966.25999999999999</ele>
        <time>2019-03-15T14:00:51Z</time>
      </trkpt>
      <trkpt lat="30.405014622956514" lon="-6.907877018675208">
        <ele>966.74000000000001</ele>
        <time>2019-03-15T14:00:52Z</time>
      </trkpt>
      <trkpt lat="30.405442100018263" lon="-6.908878572285175">
        <ele>967.22000000000003</ele>
        <time>2019-03-15T14:00:53Z</time>
      </trkpt>
      <trkpt lat="30.405570259317756" lon="-6.909054424613714">
        <ele>967.70000000000005</ele>
        <time>2019-03-15T14:01:02Z</time>
      </trkpt>
      <trkpt lat="30.405714092776179" lon="-6.909219631925225">
        <ele>967.70000000000005</ele>
        <time>2019-03-15T14:01:15Z</time>
      </trkpt>
      <trkpt lat="30.407293578609824" lon="-6.910520754754543">
        <ele>967.70000000000005</ele>
        <time>2019-03-15T14:01:16Z</time>
      </trkpt>
      <trkpt lat="30.408700816333294" lon="-6.911541083827615">
        <ele>967.70000000000005</ele>
        <time>2019-03-15T14:01:17Z</time>
      </trkpt>
      <trkpt lat="30.408878261223435" lon="-6.911619622260332">
        <ele>968.17999999999995</ele>
        <time>2019-03-15T14:01:28Z</time>
      </trkpt>
      <trkpt lat="30.40905780158937" lon="-6.911677289754152">
        <ele>968.17999999999995</ele>
        <time>2019-03-15T14:01:37Z</time>
      </trkpt>
      <trkpt lat="30.409242957830429" lon="-6.911713918671012">
        <ele>968.66999999999996</ele>
        <time>2019-03-15T14:01:45Z</time>
      </trkpt>
      <trkpt lat="30.409436244517565" lon="-6.911727245897055">
        <ele>968.17999999999995</ele>
        <time>2019-03-15T14:01:55Z</time>
      </trkpt>
      <trkpt lat="30.409635985270143" lon="-6.911714337766171">
        <ele>967.70000000000005</ele>
        <time>2019-03-15T14:02:00Z</time>
      </trkpt>
      <trkpt lat="30.409834217280149" lon="-6.911672679707408">
        <ele>967.22000000000003</ele>
        <time>2019-03-15T14:02:01Z</time>
      </trkpt>
      <trkpt lat="30.410028845071793" lon="-6.911607552319765">
        <ele>966.25999999999999</ele>
        <time>2019-03-15T14:02:02Z</time>
      </trkpt>
      <trkpt lat="30.410221628844738" lon="-6.911520548164845">
        <ele>965.29999999999995</ele>
        <time>2019-03-15T14:02:03Z</time>
      </trkpt>
      <trkpt lat="30.410410137847066" lon="-6.911418791860342">
        <ele>963.86000000000001</ele>
        <time>2019-03-15T14:02:04Z</time>
      </trkpt>
      <trkpt lat="30.411219242960215" lon="-6.910865250974894">
        <ele>962.89999999999998</ele>
        <time>2019-03-15T14:02:05Z</time>
      </trkpt>
      <trkpt lat="30.41134019382298" lon="-6.910741031169891">
        <ele>961.94000000000005</ele>
        <time>2019-03-15T14:02:06Z</time>
      </trkpt>
      <trkpt lat="30.411450164392591" lon="-6.910597868263722">
        <ele>961.46000000000004</ele>
        <time>2019-03-15T14:02:17Z</time>
      </trkpt>
      <trkpt lat="30.411549657583237" lon="-6.910440037027001">
        <ele>960.49000000000001</ele>
        <time>2019-03-15T14:02:32Z</time>
      </trkpt>
      <trkpt lat="30.411635404452682" lon="-6.910270303487778">
        <ele>960.00999999999999</ele>
        <time>2019-03-15T14:02:41Z</time>
      </trkpt>
      <trkpt lat="30.411708494648337" lon="-6.910088332369924">
        <ele>959.04999999999995</ele>
        <time>2019-03-15T14:02:55Z</time>
      </trkpt>
      <trkpt lat="30.411769263446331" lon="-6.909896302968264">
        <ele>958.57000000000005</ele>
        <time>2019-03-15T14:02:56Z</time>
      </trkpt>
      <trkpt lat="30.411816285923123" lon="-6.909693377092481">
        <ele>958.57000000000005</ele>
        <time>2019-03-15T14:02:57Z</time>
      </trkpt>
      <trkpt lat="30.411849729716778" lon="-6.909486679360271">
        <ele>958.09000000000003</ele>
        <time>2019-03-15T14:02:58Z</time>
      </trkpt>
      <trkpt lat="30.411870935931802" lon="-6.909281574189663">
        <ele>958.09000000000003</ele>
        <time>2019-03-15T14:02:59Z</time>
      </trkpt>
      <trkpt lat="30.41188552044332" lon="-6.909081498160958">
        <ele>958.09000000000003</ele>
        <time>2019-03-15T14:03:00Z</time>
      </trkpt>
      <trkpt lat="30.412087356671691" lon="-6.907781213521957">
        <ele>965.29999999999995</ele>
        <time>2019-03-15T14:03:01Z</time>
      </trkpt>
      <trkpt lat="30.412166146561503" lon="-6.907637966796756">
        <ele>970.11000000000001</ele>
        <time>2019-03-15T14:03:02Z</time>
      </trkpt>
      <trkpt lat="30.412263041362166" lon="-6.907507628202438">
        <ele>970.59000000000003</ele>
        <time>2019-03-15T14:03:03Z</time>
      </trkpt>
      <trkpt lat="30.412377202883363" lon="-6.907387180253863">
        <ele>970.59000000000003</ele>
        <time>2019-03-15T14:03:04Z</time>
      </trkpt>
      <trkpt lat="30.412503434345126" lon="-6.907282071188092">
        <ele>971.07000000000005</ele>
        <time>2019-03-15T14:03:16Z</time>
      </trkpt>
      <trkpt lat="30.412638299167156" lon="-6.90718274563551">
        <ele>971.07000000000005</ele>
        <time>2019-03-15T14:03:30Z</time>
      </trkpt>
      <trkpt lat="30.413924586027861" lon="-6.905854213982821">
        <ele>971.07000000000005</ele>
        <time>2019-03-15T14:03:31Z</time>
      </trkpt>
      <trkpt lat="30.414742827415466" lon="-6.904427111148834">
        <ele>971.07000000000005</ele>
        <time>2019-03-15T14:03:32Z</time>
      </trkpt>
      <trkpt lat="30.414844248443842" lon="-6.904317140579224">
        <ele>970.59000000000003</ele>
        <time>2019-03-15T14:03:33Z</time>
      </trkpt>
      <trkpt lat="30.414952794089913" lon="-6.904234914109111">
        <ele>970.59000000000003</ele>
        <time>2019-03-15T14:03:34Z</time>
      </trkpt>
      <trkpt lat="30.41506695561111" lon="-6.904177581891418">
        <ele>970.59000000000003</ele>
        <time>2019-03-15T14:03:42Z</time>
      </trkpt>
      <trkpt lat="30.415183799341321" lon="-6.904133660718799">
        <ele>970.59000000000003</ele>
        <time>2019-03-15T14:03:48Z</time>
      </trkpt>
      <trkpt lat="30.415300475433469" lon="-6.90410097129643">
        <ele>970.59000000000003</ele>
        <time>2019-03-15T14:03:59Z</time>
      </trkpt>
      <trkpt lat="30.415418744087219" lon="-6.90408093854785">
        <ele>970.59000000000003</ele>
        <time>2019-03-15T14:04:07Z</time>
      </trkpt>
      <trkpt lat="30.415539611130953" lon="-6.904078256338835">
        <ele>970.59000000000003</ele>
        <time>2019-03-15T14:04:18Z</time>
      </trkpt>
      <trkpt lat="30.415660561993718" lon="-6.904093092307448">
        <ele>970.59000000000003</ele>
        <time>2019-03-15T14:04:25Z</time>
      </trkpt>
      <trkpt lat="30.415776316076517" lon="-6.904122428968549">
        <ele>971.07000000000005</ele>
        <time>2019-03-15T14:04:43Z</time>
      </trkpt>
      <trkpt lat="30.415885532274842" lon="-6.904167104512453">
        <ele>971.07000000000005</ele>
        <time>2019-03-15T14:04:49Z</time>
      </trkpt>
      <trkpt lat="30.415986198931932" lon="-6.904223766177893">
        <ele>971.07000000000005</ele>
        <time>2019-03-15T14:04:50Z</time>
      </trkpt>
      <trkpt lat="30.416082087904215" lon="-6.904290402308106">
        <ele>971.07000000000005</ele>
        <time>2019-03-15T14:04:51Z</time>
      </trkpt>
      <trkpt lat="30.416174121201038" lon="-6.904366426169872">
        <ele>971.07000000000005</ele>
        <time>2019-03-15T14:04:52Z</time>
      </trkpt>
      <trkpt lat="30.416264478117228" lon="-6.904456615447998">
        <ele>971.07000000000005</ele>
        <time>2019-03-15T14:04:53Z</time>
      </trkpt>
      <trkpt lat="30.416351817548275" lon="-6.904559545218945">
        <ele>973.47000000000003</ele>
        <time>2019-03-15T14:04:54Z</time>
      </trkpt>
      <trkpt lat="30.416432116180658" lon="-6.904675969853997">
        <ele>976.84000000000003</ele>
        <time>2019-03-15T14:04:55Z</time>
      </trkpt>
      <trkpt lat="30.416502188891172" lon="-6.904805637896061">
        <ele>977.32000000000005</ele>
        <time>2019-03-15T14:04:56Z</time>
      </trkpt>
      <trkpt lat="30.416565220803022" lon="-6.904948465526104">
        <ele>977.32000000000005</ele>
        <time>2019-03-15T14:04:57Z</time>
      </trkpt>
      <trkpt lat="30.416619619354606" lon="-6.90510512329638">
        <ele>975.38999999999999</ele>
        <time>2019-03-15T14:04:58Z</time>
      </trkpt>
      <trkpt lat="30.41666722856462" lon="-6.90527368336916">
        <ele>973.95000000000005</ele>
        <time>2019-03-15T14:05:13Z</time>
      </trkpt>
      <trkpt lat="30.417132508009672" lon="-6.90706355497241">
        <ele>976.36000000000001</ele>
        <time>2019-03-15T14:05:16Z</time>
      </trkpt>
      <trkpt lat="30.417752685025334" lon="-6.909853387624025">
        <ele>984.04999999999995</ele>
        <time>2019-03-15T14:05:17Z</time>
      </trkpt>
      <trkpt lat="30.417753607034683" lon="-6.910068048164249">
        <ele>986.45000000000005</ele>
        <time>2019-03-15T14:05:18Z</time>
      </trkpt>
      <trkpt lat="30.417732987552881" lon="-6.910286229103804">
        <ele>986.92999999999995</ele>
        <time>2019-03-15T14:05:19Z</time>
      </trkpt>
      <trkpt lat="30.417315065860748" lon="-6.912758974358439">
        <ele>986.92999999999995</ele>
        <time>2019-03-15T14:05:20Z</time>
      </trkpt>
      <trkpt lat="30.417249519377947" lon="-6.914703827351332">
        <ele>987.40999999999997</ele>
        <time>2019-03-15T14:05:26Z</time>
      </trkpt>
      <trkpt lat="30.417711278423667" lon="-6.916353134438396">
        <ele>987.40999999999997</ele>
        <time>2019-03-15T14:05:34Z</time>
      </trkpt>
      <trkpt lat="30.418684417381883" lon="-6.918250629678369">
        <ele>987.40999999999997</ele>
        <time>2019-03-15T14:05:43Z</time>
      </trkpt>
      <trkpt lat="30.419387072324753" lon="-6.919029811397195">
        <ele>987.40999999999997</ele>
        <time>2019-03-15T14:05:44Z</time>
      </trkpt>
      <trkpt lat="30.419563176110387" lon="-6.919156210497022">
        <ele>983.09000000000003</ele>
        <time>2019-03-15T14:05:45Z</time>
      </trkpt>
      <trkpt lat="30.419749170541763" lon="-6.919265007600188">
        <ele>994.62</ele>
        <time>2019-03-15T14:05:46Z</time>
      </trkpt>
      <trkpt lat="30.419944887980819" lon="-6.91935888491571">
        <ele>1002.3099999999999</ele>
        <time>2019-03-15T14:05:47Z</time>
      </trkpt>
      <trkpt lat="30.420147562399507" lon="-6.919436836615205">
        <ele>1006.64</ele>
        <time>2019-03-15T14:05:48Z</time>
      </trkpt>
      <trkpt lat="30.420358031988144" lon="-6.91950062289834">
        <ele>1006.64</ele>
        <time>2019-03-15T14:05:56Z</time>
      </trkpt>
      <trkpt lat="30.420573949813843" lon="-6.91955435089767">
        <ele>1006.16</ele>
        <time>2019-03-15T14:05:58Z</time>
      </trkpt>
      <trkpt lat="30.423167226836085" lon="-6.920135300606489">
        <ele>1005.6799999999999</ele>
        <time>2019-03-15T14:05:59Z</time>
      </trkpt>
      <trkpt lat="30.426738671958447" lon="-6.920923283323646">
        <ele>1005.2</ele>
        <time>2019-03-15T14:06:00Z</time>
      </trkpt>
      <trkpt lat="30.428729541599751" lon="-6.921625519171357">
        <ele>1004.72</ele>
        <time>2019-03-15T14:06:01Z</time>
      </trkpt>
      <trkpt lat="30.4316989146173" lon="-6.922872075811029">
        <ele>1003.75</ele>
        <time>2019-03-15T14:06:02Z</time>
      </trkpt>
      <trkpt lat="30.431853560730815" lon="-6.923003671690822">
        <ele>1003.27</ele>
        <time>2019-03-15T14:06:03Z</time>
      </trkpt>
      <trkpt lat="30.43198767118156" lon="-6.923156389966607">
        <ele>1002.79</ele>
        <time>2019-03-15T14:06:04Z</time>
      </trkpt>
      <trkpt lat="30.432096719741821" lon="-6.923326961696148">
        <ele>1002.3099999999999</ele>
        <time>2019-03-15T14:06:05Z</time>
      </trkpt>
      <trkpt lat="30.432188585400581" lon="-6.923511112108827">
        <ele>1006.64</ele>
        <time>2019-03-15T14:06:06Z</time>
      </trkpt>
      <trkpt lat="30.43226670473814" lon="-6.923704817891121">
        <ele>1010.48</ele>
        <time>2019-03-15T14:06:07Z</time>
      </trkpt>
      <trkpt lat="30.432326048612595" lon="-6.923909587785602">
        <ele>1010.96</ele>
        <time>2019-03-15T14:06:08Z</time>
      </trkpt>
      <trkpt lat="30.432370640337467" lon="-6.924125254154205">
        <ele>1010.96</ele>
        <time>2019-03-15T14:06:11Z</time>
      </trkpt>
      <trkpt lat="30.432398468255997" lon="-6.924350811168551">
        <ele>1010.96</ele>
        <time>2019-03-15T14:06:12Z</time>
      </trkpt>
      <trkpt lat="30.432412214577198" lon="-6.924584498628974">
        <ele>1010.96</ele>
        <time>2019-03-15T14:06:13Z</time>
      </trkpt>
      <trkpt lat="30.432554204016924" lon="-6.927602738142014">
        <ele>1011.9299999999999</ele>
        <time>2019-03-15T14:06:14Z</time>
      </trkpt>
      <trkpt lat="30.432797949761152" lon="-6.931374091655016">
        <ele>1013.37</ele>
        <time>2019-03-15T14:06:15Z</time>
      </trkpt>
      <trkpt lat="30.432873303070664" lon="-6.931609204038978">
        <ele>1012.41</ele>
        <time>2019-03-15T14:06:16Z</time>
      </trkpt>
      <trkpt lat="30.432968270033598" lon="-6.931839622557163">
        <ele>1012.89</ele>
        <time>2019-03-15T14:06:17Z</time>
      </trkpt>
      <trkpt lat="30.433078492060304" lon="-6.932066269218922">
        <ele>1016.25</ele>
        <time>2019-03-15T14:06:18Z</time>
      </trkpt>
      <trkpt lat="30.433199359104037" lon="-6.932290066033602">
        <ele>1020.1</ele>
        <time>2019-03-15T14:06:19Z</time>
      </trkpt>
      <trkpt lat="30.43425690382719" lon="-6.933927889913321">
        <ele>1024.4200000000001</ele>
        <time>2019-03-15T14:06:20Z</time>
      </trkpt>
      <trkpt lat="30.435354597866535" lon="-6.934787705540657">
        <ele>1023.9400000000001</ele>
        <time>2019-03-15T14:06:21Z</time>
      </trkpt>
      <trkpt lat="30.437850812450051" lon="-6.93598891608417">
        <ele>1024.4200000000001</ele>
        <time>2019-03-15T14:06:22Z</time>
      </trkpt>
      <trkpt lat="30.439727017655969" lon="-6.936572045087814">
        <ele>1024.4200000000001</ele>
        <time>2019-03-15T14:06:23Z</time>
      </trkpt>
      <trkpt lat="30.442326162010431" lon="-6.936644213274121">
        <ele>1024.9000000000001</ele>
        <time>2019-03-15T14:06:24Z</time>
      </trkpt>
      <trkpt lat="30.443858206272125" lon="-6.936990302056074">
        <ele>1024.9000000000001</ele>
        <time>2019-03-15T14:06:25Z</time>
      </trkpt>
      <trkpt lat="30.44762478210032" lon="-6.93828254006803">
        <ele>1025.3800000000001</ele>
        <time>2019-03-15T14:06:26Z</time>
      </trkpt>
      <trkpt lat="30.448641004040837" lon="-6.938736168667674">
        <ele>1025.8599999999999</ele>
        <time>2019-03-15T14:06:36Z</time>
      </trkpt>
      <trkpt lat="30.448777545243502" lon="-6.938854437321425">
        <ele>1026.3399999999999</ele>
        <time>2019-03-15T14:06:38Z</time>
      </trkpt>
      <trkpt lat="30.448900172486901" lon="-6.938993576914072">
        <ele>1026.8299999999999</ele>
        <time>2019-03-15T14:06:39Z</time>
      </trkpt>
      <trkpt lat="30.449008885771036" lon="-6.939150150865316">
        <ele>1027.3099999999999</ele>
        <time>2019-03-15T14:06:40Z</time>
      </trkpt>
      <trkpt lat="30.449105193838477" lon="-6.939322985708714">
        <ele>1032.1099999999999</ele>
        <time>2019-03-15T14:06:41Z</time>
      </trkpt>
      <trkpt lat="30.449185073375702" lon="-6.939510572701693">
        <ele>1031.6300000000001</ele>
        <time>2019-03-15T14:06:42Z</time>
      </trkpt>
      <trkpt lat="30.44923972338438" lon="-6.939714252948761">
        <ele>1031.1500000000001</ele>
        <time>2019-03-15T14:06:43Z</time>
      </trkpt>
      <trkpt lat="30.449269814416766" lon="-6.939926985651255">
        <ele>1030.6700000000001</ele>
        <time>2019-03-15T14:06:44Z</time>
      </trkpt>
      <trkpt lat="30.449278363958001" lon="-6.940148519352078">
        <ele>1029.71</ele>
        <time>2019-03-15T14:06:45Z</time>
      </trkpt>
      <trkpt lat="30.449274927377701" lon="-6.940374495461583">
        <ele>1028.75</ele>
        <time>2019-03-15T14:06:46Z</time>
      </trkpt>
      <trkpt lat="30.449110642075539" lon="-6.943982066586614">
        <ele>1025.3800000000001</ele>
        <time>2019-03-15T14:06:56Z</time>
      </trkpt>
      <trkpt lat="30.449057500809431" lon="-6.944549856707454">
        <ele>1022.5</ele>
        <time>2019-03-15T14:06:58Z</time>
      </trkpt>
      <trkpt lat="30.449014082551003" lon="-6.944691762328148">
        <ele>1022.02</ele>
        <time>2019-03-15T14:06:59Z</time>
      </trkpt>
      <trkpt lat="30.448942417278886" lon="-6.944816149771214">
        <ele>1022.02</ele>
        <time>2019-03-15T14:07:00Z</time>
      </trkpt>
      <trkpt lat="30.448848288506269" lon="-6.944932909682393">
        <ele>1022.02</ele>
        <time>2019-03-15T14:07:01Z</time>
      </trkpt>
      <trkpt lat="30.448745274916291" lon="-6.945053106173873">
        <ele>1021.54</ele>
        <time>2019-03-15T14:07:02Z</time>
      </trkpt>
      <trkpt lat="30.448231296613812" lon="-6.946056252345443">
        <ele>1022.02</ele>
        <time>2019-03-15T14:07:03Z</time>
      </trkpt>
      <trkpt lat="30.447978498414159" lon="-6.947755850851536">
        <ele>1022.02</ele>
        <time>2019-03-15T14:07:04Z</time>
      </trkpt>
      <trkpt lat="30.44811780564487" lon="-6.949471710249782">
        <ele>1025.3800000000001</ele>
        <time>2019-03-15T14:07:09Z</time>
      </trkpt>
      <trkpt lat="30.448165582492948" lon="-6.949608167633414">
        <ele>1026.3399999999999</ele>
        <time>2019-03-15T14:07:10Z</time>
      </trkpt>
      <trkpt lat="30.448225010186434" lon="-6.949733560904861">
        <ele>1027.3099999999999</ele>
        <time>2019-03-15T14:07:11Z</time>
      </trkpt>
      <trkpt lat="30.448302375152707" lon="-6.94985032081604">
        <ele>1027.79</ele>
        <time>2019-03-15T14:07:12Z</time>
      </trkpt>
      <trkpt lat="30.44839340262115" lon="-6.949960207566619">
        <ele>1028.75</ele>
        <time>2019-03-15T14:07:13Z</time>
      </trkpt>
      <trkpt lat="30.448493734002113" lon="-6.95006774738431">
        <ele>1029.71</ele>
        <time>2019-03-15T14:07:25Z</time>
      </trkpt>
      <trkpt lat="30.449440721422434" lon="-6.95098296739161">
        <ele>1030.1900000000001</ele>
        <time>2019-03-15T14:07:39Z</time>
      </trkpt>
      <trkpt lat="30.449627218768001" lon="-6.951259402558208">
        <ele>1031.1500000000001</ele>
        <time>2019-03-15T14:07:50Z</time>
      </trkpt>
      <trkpt lat="30.449696788564324" lon="-6.951416144147515">
        <ele>1031.6300000000001</ele>
        <time>2019-03-15T14:07:56Z</time>
      </trkpt>
      <trkpt lat="30.44974154792726" lon="-6.951587134972215">
        <ele>1032.1099999999999</ele>
        <time>2019-03-15T14:08:06Z</time>
      </trkpt>
      <trkpt lat="30.449764681980014" lon="-6.951765334233642">
        <ele>1033.0699999999999</ele>
        <time>2019-03-15T14:08:17Z</time>
      </trkpt>
      <trkpt lat="30.449772560968995" lon="-6.951944455504417">
        <ele>1033.55</ele>
        <time>2019-03-15T14:08:21Z</time>
      </trkpt>
      <trkpt lat="30.449768202379346" lon="-6.952122403308749">
        <ele>1035.96</ele>
        <time>2019-03-15T14:08:22Z</time>
      </trkpt>
      <trkpt lat="30.449751606211066" lon="-6.952299512922764">
        <ele>1036.9200000000001</ele>
        <time>2019-03-15T14:08:23Z</time>
      </trkpt>
      <trkpt lat="30.44971707277" lon="-6.95247427560389">
        <ele>1037.8800000000001</ele>
        <time>2019-03-15T14:08:31Z</time>
      </trkpt>
      <trkpt lat="30.449665524065495" lon="-6.952642751857638">
        <ele>1038.8399999999999</ele>
        <time>2019-03-15T14:08:32Z</time>
      </trkpt>
      <trkpt lat="30.449602911248803" lon="-6.952801169827581">
        <ele>1039.8</ele>
        <time>2019-03-15T14:08:33Z</time>
      </trkpt>
      <trkpt lat="30.449535688385367" lon="-6.952947098761797">
        <ele>1040.28</ele>
        <time>2019-03-15T14:08:34Z</time>
      </trkpt>
      <trkpt lat="30.449360590428114" lon="-6.95332788862288">
        <ele>1041.25</ele>
        <time>2019-03-15T14:08:35Z</time>
      </trkpt>
      <trkpt lat="30.449326727539301" lon="-6.95345445536077">
        <ele>1041.73</ele>
        <time>2019-03-15T14:08:36Z</time>
      </trkpt>
      <trkpt lat="30.449312562122941" lon="-6.953583871945739">
        <ele>1042.6900000000001</ele>
        <time>2019-03-15T14:08:43Z</time>
      </trkpt>
      <trkpt lat="30.44932178221643" lon="-6.953713539987803">
        <ele>1043.1700000000001</ele>
        <time>2019-03-15T14:08:44Z</time>
      </trkpt>
      <trkpt lat="30.449360590428114" lon="-6.95383558049798">
        <ele>1044.1300000000001</ele>
        <time>2019-03-15T14:08:45Z</time>
      </trkpt>
      <trkpt lat="30.449423789978027" lon="-6.953943958505988">
        <ele>1044.6099999999999</ele>
        <time>2019-03-15T14:08:46Z</time>
      </trkpt>
      <trkpt lat="30.449505429714918" lon="-6.954040015116334">
        <ele>1045.0899999999999</ele>
        <time>2019-03-15T14:08:47Z</time>
      </trkpt>
      <trkpt lat="30.449595954269171" lon="-6.954129282385111">
        <ele>1045.5699999999999</ele>
        <time>2019-03-15T14:08:58Z</time>
      </trkpt>
      <trkpt lat="30.449695279821754" lon="-6.954204887151718">
        <ele>1046.05</ele>
        <time>2019-03-15T14:09:08Z</time>
      </trkpt>
      <trkpt lat="30.449804412201047" lon="-6.954262722283602">
        <ele>1045.5699999999999</ele>
        <time>2019-03-15T14:09:18Z</time>
      </trkpt>
      <trkpt lat="30.449922261759639" lon="-6.95430027320981">
        <ele>1043.1700000000001</ele>
        <time>2019-03-15T14:09:31Z</time>
      </trkpt>
      <trkpt lat="30.450048241764307" lon="-6.954318210482597">
        <ele>1042.21</ele>
        <time>2019-03-15T14:09:39Z</time>
      </trkpt>
      <trkpt lat="30.45018176548183" lon="-6.95431737229228">
        <ele>1041.73</ele>
        <time>2019-03-15T14:09:51Z</time>
      </trkpt>
      <trkpt lat="30.450320653617382" lon="-6.9542939029634">
        <ele>1041.73</ele>
        <time>2019-03-15T14:10:02Z</time>
      </trkpt>
      <trkpt lat="30.450462978333235" lon="-6.954249478876591">
        <ele>1041.73</ele>
        <time>2019-03-15T14:10:12Z</time>
      </trkpt>
      <trkpt lat="30.450612595304847" lon="-6.954194493591785">
        <ele>1042.21</ele>
        <time>2019-03-15T14:10:23Z</time>
      </trkpt>
      <trkpt lat="30.45228092931211" lon="-6.953633408993483">
        <ele>1042.6900000000001</ele>
        <time>2019-03-15T14:10:30Z</time>
      </trkpt>
      <trkpt lat="30.452618049457669" lon="-6.953591415658593">
        <ele>1043.1700000000001</ele>
        <time>2019-03-15T14:10:46Z</time>
      </trkpt>
      <trkpt lat="30.452784262597561" lon="-6.953606251627207">
        <ele>1043.6500000000001</ele>
        <time>2019-03-15T14:10:58Z</time>
      </trkpt>
      <trkpt lat="30.452946703881025" lon="-6.953646652400494">
        <ele>1043.6500000000001</ele>
        <time>2019-03-15T14:11:17Z</time>
      </trkpt>
      <trkpt lat="30.453103026375175" lon="-6.953707756474614">
        <ele>1045.0899999999999</ele>
        <time>2019-03-15T14:11:32Z</time>
      </trkpt>
      <trkpt lat="30.453250631690025" lon="-6.953790318220854">
        <ele>1046.05</ele>
        <time>2019-03-15T14:11:52Z</time>
      </trkpt>
      <trkpt lat="30.453385747969151" lon="-6.953895008191466">
        <ele>1046.05</ele>
        <time>2019-03-15T14:12:06Z</time>
      </trkpt>
      <trkpt lat="30.45350887812674" lon="-6.954018222168088">
        <ele>1046.05</ele>
        <time>2019-03-15T14:12:25Z</time>
      </trkpt>
      <trkpt lat="30.453622369095683" lon="-6.954159205779433">
        <ele>1046.53</ele>
        <time>2019-03-15T14:12:34Z</time>
      </trkpt>
      <trkpt lat="30.453730914741755" lon="-6.954309996217489">
        <ele>1046.53</ele>
        <time>2019-03-15T14:12:42Z</time>
      </trkpt>
      <trkpt lat="30.454701790586114" lon="-6.955975480377674">
        <ele>1046.05</ele>
        <time>2019-03-15T14:12:55Z</time>
      </trkpt>
      <trkpt lat="30.454870099201798" lon="-6.956345373764634">
        <ele>1046.05</ele>
        <time>2019-03-15T14:13:10Z</time>
      </trkpt>
      <trkpt lat="30.454933969303966" lon="-6.956547293812037">
        <ele>1047.01</ele>
        <time>2019-03-15T14:13:27Z</time>
      </trkpt>
      <trkpt lat="30.454983841627836" lon="-6.956758853048086">
        <ele>1047.49</ele>
        <time>2019-03-15T14:13:30Z</time>
      </trkpt>
      <trkpt lat="30.455019799992442" lon="-6.956978542730212">
        <ele>1047.97</ele>
        <time>2019-03-15T14:13:31Z</time>
      </trkpt>
      <trkpt lat="30.455038491636515" lon="-6.957207201048732">
        <ele>1047.97</ele>
        <time>2019-03-15T14:13:32Z</time>
      </trkpt>
      <trkpt lat="30.455043185502291" lon="-6.957437871024013">
        <ele>1048.45</ele>
        <time>2019-03-15T14:13:33Z</time>
      </trkpt>
      <trkpt lat="30.455041257664561" lon="-6.95767080411315">
        <ele>1056.1500000000001</ele>
        <time>2019-03-15T14:13:34Z</time>
      </trkpt>
      <trkpt lat="30.45512474142015" lon="-6.95882985368371">
        <ele>1062.3900000000001</ele>
        <time>2019-03-15T14:13:47Z</time>
      </trkpt>
      <trkpt lat="30.455181403085589" lon="-6.959053985774517">
        <ele>1065.76</ele>
        <time>2019-03-15T14:13:53Z</time>
      </trkpt>
      <trkpt lat="30.455254577100277" lon="-6.959272418171167">
        <ele>1066.72</ele>
        <time>2019-03-15T14:14:05Z</time>
      </trkpt>
      <trkpt lat="30.455341162160039" lon="-6.9594865757972">
        <ele>1068.6400000000001</ele>
        <time>2019-03-15T14:14:23Z</time>
      </trkpt>
      <trkpt lat="30.455438643693924" lon="-6.95969813503325">
        <ele>1071.53</ele>
        <time>2019-03-15T14:14:33Z</time>
      </trkpt>
      <trkpt lat="30.456804139539599" lon="-6.962389145046473">
        <ele>1071.05</ele>
        <time>2019-03-15T14:14:35Z</time>
      </trkpt>
      <trkpt lat="30.458408519625664" lon="-6.965792616829276">
        <ele>1070.5699999999999</ele>
        <time>2019-03-15T14:14:36Z</time>
      </trkpt>
      <trkpt lat="30.459320051595569" lon="-6.968357646837831">
        <ele>1070.5699999999999</ele>
        <time>2019-03-15T14:14:37Z</time>
      </trkpt>
      <trkpt lat="30.460095293819904" lon="-6.969508482143283">
        <ele>1066.72</ele>
        <time>2019-03-15T14:14:38Z</time>
      </trkpt>
      <trkpt lat="30.461820624768734" lon="-6.971036167815328">
        <ele>1066.24</ele>
        <time>2019-03-15T14:14:39Z</time>
      </trkpt>
      <trkpt lat="30.463902354240417" lon="-6.972352713346481">
        <ele>1066.24</ele>
        <time>2019-03-15T14:14:42Z</time>
      </trkpt>
      <trkpt lat="30.46453669667244" lon="-6.972810951992869">
        <ele>1066.72</ele>
        <time>2019-03-15T14:14:45Z</time>
      </trkpt>
      <trkpt lat="30.464669214561582" lon="-6.972952773794532">
        <ele>1066.72</ele>
        <time>2019-03-15T14:14:46Z</time>
      </trkpt>
      <trkpt lat="30.46478689648211" lon="-6.973111359402537">
        <ele>1066.72</ele>
        <time>2019-03-15T14:14:47Z</time>
      </trkpt>
      <trkpt lat="30.465660793706775" lon="-6.974256243556738">
        <ele>1072.01</ele>
        <time>2019-03-15T14:14:48Z</time>
      </trkpt>
      <trkpt lat="30.465802615508437" lon="-6.974345427006483">
        <ele>1072.49</ele>
        <time>2019-03-15T14:14:49Z</time>
      </trkpt>
      <trkpt lat="30.465955166146159" lon="-6.974422791972756">
        <ele>1073.45</ele>
        <time>2019-03-15T14:14:57Z</time>
      </trkpt>
      <trkpt lat="30.466118445619941" lon="-6.974485069513321">
        <ele>1073.9300000000001</ele>
        <time>2019-03-15T14:15:04Z</time>
      </trkpt>
      <trkpt lat="30.466287760064006" lon="-6.974529661238194">
        <ele>1073.9300000000001</ele>
        <time>2019-03-15T14:15:15Z</time>
      </trkpt>
      <trkpt lat="30.466460594907403" lon="-6.974564278498292">
        <ele>1070.0799999999999</ele>
        <time>2019-03-15T14:15:26Z</time>
      </trkpt>
      <trkpt lat="30.467714024707675" lon="-6.974762761965394">
        <ele>1076.8099999999999</ele>
        <time>2019-03-15T14:15:37Z</time>
      </trkpt>
      <trkpt lat="30.46787797473371" lon="-6.97484758682549">
        <ele>1086.9100000000001</ele>
        <time>2019-03-15T14:15:51Z</time>
      </trkpt>
      <trkpt lat="30.468034883961082" lon="-6.974954875186086">
        <ele>1092.6800000000001</ele>
        <time>2019-03-15T14:16:09Z</time>
      </trkpt>
      <trkpt lat="30.468183662742376" lon="-6.975082531571388">
        <ele>1092.2</ele>
        <time>2019-03-15T14:16:27Z</time>
      </trkpt>
      <trkpt lat="30.468326406553388" lon="-6.9752252753824">
        <ele>1093.1600000000001</ele>
        <time>2019-03-15T14:16:36Z</time>
      </trkpt>
      <trkpt lat="30.469981245696545" lon="-6.977085303515196">
        <ele>1092.6800000000001</ele>
        <time>2019-03-15T14:16:50Z</time>
      </trkpt>
      <trkpt lat="30.471587385982275" lon="-6.978567056357861">
        <ele>1092.2</ele>
        <time>2019-03-15T14:16:57Z</time>
      </trkpt>
      <trkpt lat="30.473535675555468" lon="-6.979635581374168">
        <ele>1097</ele>
        <time>2019-03-15T14:16:58Z</time>
      </trkpt>
      <trkpt lat="30.476326514035463" lon="-6.980914743617177">
        <ele>1100.3699999999999</ele>
        <time>2019-03-15T14:16:59Z</time>
      </trkpt>
      <trkpt lat="30.478232726454735" lon="-6.9810033403337">
        <ele>1108.54</ele>
        <time>2019-03-15T14:17:00Z</time>
      </trkpt>
      <trkpt lat="30.480838743969798" lon="-6.98105807416141">
        <ele>1117.1900000000001</ele>
        <time>2019-03-15T14:17:09Z</time>
      </trkpt>
      <trkpt lat="30.482819890603423" lon="-6.981248175725341">
        <ele>1127.28</ele>
        <time>2019-03-15T14:17:16Z</time>
      </trkpt>
      <trkpt lat="30.484573384746909" lon="-6.981977401301265">
        <ele>1135.45</ele>
        <time>2019-03-15T14:17:17Z</time>
      </trkpt>
      <trkpt lat="30.486726276576519" lon="-6.983107784762979">
        <ele>1144.5899999999999</ele>
        <time>2019-03-15T14:17:18Z</time>
      </trkpt>
      <trkpt lat="30.487907538190484" lon="-6.984417038038373">
        <ele>1151.3199999999999</ele>
        <time>2019-03-15T14:17:19Z</time>
      </trkpt>
      <trkpt lat="30.490594021975994" lon="-6.987889744341373">
        <ele>1169.5799999999999</ele>
        <time>2019-03-15T14:17:20Z</time>
      </trkpt>
      <trkpt lat="30.492756385356188" lon="-6.990294177085161">
        <ele>1175.8299999999999</ele>
        <time>2019-03-15T14:17:21Z</time>
      </trkpt>
      <trkpt lat="30.496560512110591" lon="-6.993603184819222">
        <ele>1175.8299999999999</ele>
        <time>2019-03-15T14:17:22Z</time>
      </trkpt>
      <trkpt lat="30.499428464099765" lon="-6.996121611446142">
        <ele>1184.48</ele>
        <time>2019-03-15T14:17:23Z</time>
      </trkpt>
      <trkpt lat="30.503285564482212" lon="-6.999479820951819">
        <ele>1188.3299999999999</ele>
        <time>2019-03-15T14:17:27Z</time>
      </trkpt>
      <trkpt lat="30.506168268620968" lon="-7.001603543758392">
        <ele>1187.8499999999999</ele>
        <time>2019-03-15T14:17:28Z</time>
      </trkpt>
      <trkpt lat="30.510286213830113" lon="-7.004027338698506">
        <ele>1189.29</ele>
        <time>2019-03-15T14:17:29Z</time>
      </trkpt>
      <trkpt lat="30.512031326070428" lon="-7.005330305546522">
        <ele>1189.29</ele>
        <time>2019-03-15T14:17:39Z</time>
      </trkpt>
      <trkpt lat="30.513245696201921" lon="-7.006950108334422">
        <ele>1189.29</ele>
        <time>2019-03-15T14:17:53Z</time>
      </trkpt>
      <trkpt lat="30.515017295256257" lon="-7.009912440553308">
        <ele>1188.8099999999999</ele>
        <time>2019-03-15T14:18:12Z</time>
      </trkpt>
      <trkpt lat="30.51677062176168" lon="-7.013905327767134">
        <ele>1188.3299999999999</ele>
        <time>2019-03-15T14:18:29Z</time>
      </trkpt>
      <trkpt lat="30.51873492076993" lon="-7.018375480547547">
        <ele>1182.5599999999999</ele>
        <time>2019-03-15T14:18:48Z</time>
      </trkpt>
      <trkpt lat="30.518904067575932" lon="-7.019089786335826">
        <ele>1182.0799999999999</ele>
        <time>2019-03-15T14:19:01Z</time>
      </trkpt>
      <trkpt lat="30.518914880231023" lon="-7.01933135278523">
        <ele>1177.27</ele>
        <time>2019-03-15T14:19:03Z</time>
      </trkpt>
      <trkpt lat="30.518901636824012" lon="-7.019576439633966">
        <ele>1167.6600000000001</ele>
        <time>2019-03-15T14:19:04Z</time>
      </trkpt>
      <trkpt lat="30.518868612125516" lon="-7.019823621958494">
        <ele>1166.7</ele>
        <time>2019-03-15T14:19:16Z</time>
      </trkpt>
      <trkpt lat="30.518821589648724" lon="-7.020073318853974">
        <ele>1166.22</ele>
        <time>2019-03-15T14:19:17Z</time>
      </trkpt>
      <trkpt lat="30.518179703503847" lon="-7.023466732352972">
        <ele>1165.74</ele>
        <time>2019-03-15T14:19:18Z</time>
      </trkpt>
      <trkpt lat="30.518323285505176" lon="-7.025123834609985">
        <ele>1165.74</ele>
        <time>2019-03-15T14:19:19Z</time>
      </trkpt>
      <trkpt lat="30.519295502454042" lon="-7.028401074931026">
        <ele>1166.22</ele>
        <time>2019-03-15T14:19:20Z</time>
      </trkpt>
      <trkpt lat="30.520786307752132" lon="-7.033434323966503">
        <ele>1166.22</ele>
        <time>2019-03-15T14:19:21Z</time>
      </trkpt>
      <trkpt lat="30.521529531106353" lon="-7.035909499973059">
        <ele>1165.74</ele>
        <time>2019-03-15T14:19:22Z</time>
      </trkpt>
      <trkpt lat="30.521660456433892" lon="-7.036249972879887">
        <ele>1165.74</ele>
        <time>2019-03-15T14:19:23Z</time>
      </trkpt>
      <trkpt lat="30.521740419790149" lon="-7.036380143836141">
        <ele>1165.74</ele>
        <time>2019-03-15T14:19:25Z</time>
      </trkpt>
      <trkpt lat="30.521833542734385" lon="-7.036487264558673">
        <ele>1165.74</ele>
        <time>2019-03-15T14:19:26Z</time>
      </trkpt>
      <trkpt lat="30.521935801953077" lon="-7.036570413038135">
        <ele>1165.26</ele>
        <time>2019-03-15T14:19:27Z</time>
      </trkpt>
      <trkpt lat="30.522043174132705" lon="-7.03663076274097">
        <ele>1164.77</ele>
        <time>2019-03-15T14:19:28Z</time>
      </trkpt>
      <trkpt lat="30.522330086678267" lon="-7.036752970889211">
        <ele>1162.3699999999999</ele>
        <time>2019-03-15T14:19:29Z</time>
      </trkpt>
      <trkpt lat="30.522498479112983" lon="-7.036873335018754">
        <ele>1160.9300000000001</ele>
        <time>2019-03-15T14:19:30Z</time>
      </trkpt>
      <trkpt lat="30.522523792460561" lon="-7.036927565932274">
        <ele>1161.4100000000001</ele>
        <time>2019-03-15T14:19:31Z</time>
      </trkpt>
      <trkpt lat="30.522530749440193" lon="-7.036995459347963">
        <ele>1166.7</ele>
        <time>2019-03-15T14:19:32Z</time>
      </trkpt>
      <trkpt lat="30.52252228371799" lon="-7.037075757980347">
        <ele>1172.95</ele>
        <time>2019-03-15T14:19:33Z</time>
      </trkpt>
      <trkpt lat="30.522505436092615" lon="-7.03717558644712">
        <ele>1180.1600000000001</ele>
        <time>2019-03-15T14:19:34Z</time>
      </trkpt>
      <trkpt lat="30.522336708381772" lon="-7.038304125890136">
        <ele>1188.8099999999999</ele>
        <time>2019-03-15T14:19:35Z</time>
      </trkpt>
      <trkpt lat="30.522431172430515" lon="-7.039742963388562">
        <ele>1194.0899999999999</ele>
        <time>2019-03-15T14:19:36Z</time>
      </trkpt>
      <trkpt lat="30.522887483239174" lon="-7.042497927322984">
        <ele>1194.0899999999999</ele>
        <time>2019-03-15T14:19:37Z</time>
      </trkpt>
      <trkpt lat="30.523558370769024" lon="-7.045385995879769">
        <ele>1206.1099999999999</ele>
        <time>2019-03-15T14:19:38Z</time>
      </trkpt>
      <trkpt lat="30.524750361219049" lon="-7.048167111352086">
        <ele>1212.8399999999999</ele>
        <time>2019-03-15T14:19:39Z</time>
      </trkpt>
      <trkpt lat="30.526209147647023" lon="-7.05189311876893">
        <ele>1213.3199999999999</ele>
        <time>2019-03-15T14:19:40Z</time>
      </trkpt>
      <trkpt lat="30.527735743671656" lon="-7.057099873200059">
        <ele>1212.8399999999999</ele>
        <time>2019-03-15T14:19:41Z</time>
      </trkpt>
      <trkpt lat="30.529274074360728" lon="-7.062392123043537">
        <ele>1212.3599999999999</ele>
        <time>2019-03-15T14:19:42Z</time>
      </trkpt>
      <trkpt lat="30.529768690466881" lon="-7.065030997619033">
        <ele>1204.1900000000001</ele>
        <time>2019-03-15T14:19:43Z</time>
      </trkpt>
      <trkpt lat="30.530148055404425" lon="-7.069327645003796">
        <ele>1198.9000000000001</ele>
        <time>2019-03-15T14:19:54Z</time>
      </trkpt>
      <trkpt lat="30.530405966565013" lon="-7.071061357855797">
        <ele>1197.9400000000001</ele>
        <time>2019-03-15T14:20:02Z</time>
      </trkpt>
      <trkpt lat="30.530481403693557" lon="-7.071264535188675">
        <ele>1196.5</ele>
        <time>2019-03-15T14:20:04Z</time>
      </trkpt>
      <trkpt lat="30.530574610456824" lon="-7.071460923179984">
        <ele>1195.0599999999999</ele>
        <time>2019-03-15T14:20:05Z</time>
      </trkpt>
      <trkpt lat="30.530683239921927" lon="-7.071652952581644">
        <ele>1192.6500000000001</ele>
        <time>2019-03-15T14:20:06Z</time>
      </trkpt>
      <trkpt lat="30.531944632530212" lon="-7.073467299342156">
        <ele>1190.73</ele>
        <time>2019-03-15T14:20:07Z</time>
      </trkpt>
      <trkpt lat="30.532846357673407" lon="-7.074841093271971">
        <ele>1188.3299999999999</ele>
        <time>2019-03-15T14:20:08Z</time>
      </trkpt>
      <trkpt lat="30.532926069572568" lon="-7.075051814317703">
        <ele>1186.4000000000001</ele>
        <time>2019-03-15T14:20:09Z</time>
      </trkpt>
      <trkpt lat="30.53298382088542" lon="-7.07527250982821">
        <ele>1180.1600000000001</ele>
        <time>2019-03-15T14:20:10Z</time>
      </trkpt>
      <trkpt lat="30.533017432317138" lon="-7.075503095984459">
        <ele>1179.1900000000001</ele>
        <time>2019-03-15T14:20:11Z</time>
      </trkpt>
      <trkpt lat="30.5330263171345" lon="-7.075738962739706">
        <ele>1178.23</ele>
        <time>2019-03-15T14:20:12Z</time>
      </trkpt>
      <trkpt lat="30.533011229708791" lon="-7.07597809843719">
        <ele>1178.71</ele>
        <time>2019-03-15T14:20:13Z</time>
      </trkpt>
      <trkpt lat="30.53297501988709" lon="-7.07621798850596">
        <ele>1184</ele>
        <time>2019-03-15T14:20:14Z</time>
      </trkpt>
      <trkpt lat="30.532930931076407" lon="-7.076454609632492">
        <ele>1195.54</ele>
        <time>2019-03-15T14:20:15Z</time>
      </trkpt>
      <trkpt lat="30.532853566110134" lon="-7.077330434694886">
        <ele>1214.28</ele>
        <time>2019-03-15T14:20:16Z</time>
      </trkpt>
      <trkpt lat="30.53289245814085" lon="-7.077526319772005">
        <ele>1238.8</ele>
        <time>2019-03-15T14:20:17Z</time>
      </trkpt>
      <trkpt lat="30.532961105927825" lon="-7.077718852087855">
        <ele>1256.5799999999999</ele>
        <time>2019-03-15T14:20:18Z</time>
      </trkpt>
      <trkpt lat="30.533887390047312" lon="-7.079767305403948">
        <ele>1258.98</ele>
        <time>2019-03-15T14:20:19Z</time>
      </trkpt>
      <trkpt lat="30.535376099869609" lon="-7.083121072500944">
        <ele>1259.9400000000001</ele>
        <time>2019-03-15T14:20:20Z</time>
      </trkpt>
      <trkpt lat="30.537555562332273" lon="-7.088014511391521">
        <ele>1276.77</ele>
        <time>2019-03-15T14:20:21Z</time>
      </trkpt>
      <trkpt lat="30.539538720622659" lon="-7.092474019154906">
        <ele>1278.21</ele>
        <time>2019-03-15T14:20:22Z</time>
      </trkpt>
      <trkpt lat="30.541671328246593" lon="-7.097274754196405">
        <ele>1280.1300000000001</ele>
        <time>2019-03-15T14:20:23Z</time>
      </trkpt>
      <trkpt lat="30.543007152155042" lon="-7.100286120548844">
        <ele>1282.0599999999999</ele>
        <time>2019-03-15T14:20:25Z</time>
      </trkpt>
      <trkpt lat="30.543229440227151" lon="-7.100653415545821">
        <ele>1283.98</ele>
        <time>2019-03-15T14:20:26Z</time>
      </trkpt>
      <trkpt lat="30.543363885954022" lon="-7.100815353915095">
        <ele>1285.9000000000001</ele>
        <time>2019-03-15T14:20:27Z</time>
      </trkpt>
      <trkpt lat="30.545051246881485" lon="-7.102770851925015">
        <ele>1287.3399999999999</ele>
        <time>2019-03-15T14:20:28Z</time>
      </trkpt>
      <trkpt lat="30.545150237157941" lon="-7.10295282304287">
        <ele>1288.78</ele>
        <time>2019-03-15T14:20:29Z</time>
      </trkpt>
      <trkpt lat="30.545235062018037" lon="-7.10314242169261">
        <ele>1291.1900000000001</ele>
        <time>2019-03-15T14:20:30Z</time>
      </trkpt>
      <trkpt lat="30.545303793624043" lon="-7.103343335911632">
        <ele>1292.6300000000001</ele>
        <time>2019-03-15T14:20:31Z</time>
      </trkpt>
      <trkpt lat="30.5453544203192" lon="-7.103548692539334">
        <ele>1294.0699999999999</ele>
        <time>2019-03-15T14:20:32Z</time>
      </trkpt>
      <trkpt lat="30.545383673161268" lon="-7.10375664755702">
        <ele>1295.03</ele>
        <time>2019-03-15T14:20:33Z</time>
      </trkpt>
      <trkpt lat="30.545397251844406" lon="-7.103962758556008">
        <ele>1295.99</ele>
        <time>2019-03-15T14:20:35Z</time>
      </trkpt>
      <trkpt lat="30.545402951538563" lon="-7.104160320013762">
        <ele>1297.4400000000001</ele>
        <time>2019-03-15T14:20:36Z</time>
      </trkpt>
      <trkpt lat="30.545431617647409" lon="-7.104526106268168">
        <ele>1298.8800000000001</ele>
        <time>2019-03-15T14:20:37Z</time>
      </trkpt>
      <trkpt lat="30.545471850782633" lon="-7.104700533673167">
        <ele>1300.3199999999999</ele>
        <time>2019-03-15T14:20:40Z</time>
      </trkpt>
      <trkpt lat="30.545534966513515" lon="-7.104866746813059">
        <ele>1301.76</ele>
        <time>2019-03-15T14:20:41Z</time>
      </trkpt>
      <trkpt lat="30.545619372278452" lon="-7.105025500059128">
        <ele>1303.2</ele>
        <time>2019-03-15T14:20:42Z</time>
      </trkpt>
      <trkpt lat="30.545724397525191" lon="-7.105168746784329">
        <ele>1304.6500000000001</ele>
        <time>2019-03-15T14:20:43Z</time>
      </trkpt>
      <trkpt lat="30.545849623158574" lon="-7.105288943275809">
        <ele>1305.6099999999999</ele>
        <time>2019-03-15T14:20:44Z</time>
      </trkpt>
      <trkpt lat="30.545990271493793" lon="-7.105378545820713">
        <ele>1306.5699999999999</ele>
        <time>2019-03-15T14:20:46Z</time>
      </trkpt>
      <trkpt lat="30.546137373894453" lon="-7.105432357639074">
        <ele>1307.05</ele>
        <time>2019-03-15T14:20:47Z</time>
      </trkpt>
      <trkpt lat="30.546287661418319" lon="-7.10545607842505">
        <ele>1308.01</ele>
        <time>2019-03-15T14:20:48Z</time>
      </trkpt>
      <trkpt lat="30.546436943113804" lon="-7.105478709563613">
        <ele>1308.49</ele>
        <time>2019-03-15T14:20:49Z</time>
      </trkpt>
      <trkpt lat="30.546583123505116" lon="-7.105523636564612">
        <ele>1309.45</ele>
        <time>2019-03-15T14:20:50Z</time>
      </trkpt>
      <trkpt lat="30.546722682192922" lon="-7.105591529980302">
        <ele>1310.4100000000001</ele>
        <time>2019-03-15T14:20:51Z</time>
      </trkpt>
      <trkpt lat="30.546850841492414" lon="-7.105676103383303">
        <ele>1310.9000000000001</ele>
        <time>2019-03-15T14:20:52Z</time>
      </trkpt>
      <trkpt lat="30.546962153166533" lon="-7.105768220499158">
        <ele>1321.95</ele>
        <time>2019-03-15T14:20:53Z</time>
      </trkpt>
      <trkpt lat="30.54704999551177" lon="-7.105874167755246">
        <ele>1329.6400000000001</ele>
        <time>2019-03-15T14:20:54Z</time>
      </trkpt>
      <trkpt lat="30.54710908792913" lon="-7.105999812483788">
        <ele>1331.5599999999999</ele>
        <time>2019-03-15T14:20:55Z</time>
      </trkpt>
      <trkpt lat="30.547131635248661" lon="-7.106137862429023">
        <ele>1332.52</ele>
        <time>2019-03-15T14:20:56Z</time>
      </trkpt>
      <trkpt lat="30.547117050737143" lon="-7.106278343126178">
        <ele>1333.97</ele>
        <time>2019-03-15T14:20:57Z</time>
      </trkpt>
      <trkpt lat="30.547082517296076" lon="-7.106416812166572">
        <ele>1334.45</ele>
        <time>2019-03-15T14:20:58Z</time>
      </trkpt>
      <trkpt lat="30.546545572578907" lon="-7.107933769002557">
        <ele>1334.9300000000001</ele>
        <time>2019-03-15T14:20:59Z</time>
      </trkpt>
      <trkpt lat="30.546228904277086" lon="-7.109088627621532">
        <ele>1335.4100000000001</ele>
        <time>2019-03-15T14:21:00Z</time>
      </trkpt>
      <trkpt lat="30.546146929264069" lon="-7.109333714470267">
        <ele>1335.8900000000001</ele>
        <time>2019-03-15T14:21:01Z</time>
      </trkpt>
      <trkpt lat="30.54613527841866" lon="-7.109449720010161">
        <ele>1336.3699999999999</ele>
        <time>2019-03-15T14:21:03Z</time>
      </trkpt>
      <trkpt lat="30.546153802424669" lon="-7.109554829075933">
        <ele>1336.8499999999999</ele>
        <time>2019-03-15T14:21:04Z</time>
      </trkpt>
      <trkpt lat="30.546198980882764" lon="-7.109643677249551">
        <ele>1337.8099999999999</ele>
        <time>2019-03-15T14:21:05Z</time>
      </trkpt>
      <trkpt lat="30.546271568164229" lon="-7.109706038609147">
        <ele>1338.29</ele>
        <time>2019-03-15T14:21:06Z</time>
      </trkpt>
      <trkpt lat="30.546358656138182" lon="-7.109734117984772">
        <ele>1338.77</ele>
        <time>2019-03-15T14:21:07Z</time>
      </trkpt>
      <trkpt lat="30.546450354158878" lon="-7.109726741909981">
        <ele>1339.25</ele>
        <time>2019-03-15T14:21:08Z</time>
      </trkpt>
      <trkpt lat="30.546533837914467" lon="-7.109678713604808">
        <ele>1340.22</ele>
        <time>2019-03-15T14:21:09Z</time>
      </trkpt>
      <trkpt lat="30.546602066606283" lon="-7.109598414972425">
        <ele>1340.7</ele>
        <time>2019-03-15T14:21:10Z</time>
      </trkpt>
      <trkpt lat="30.546665517613292" lon="-7.109500430524349">
        <ele>1341.6600000000001</ele>
        <time>2019-03-15T14:21:11Z</time>
      </trkpt>
      <trkpt lat="30.546739110723138" lon="-7.109401524066925">
        <ele>1342.1400000000001</ele>
        <time>2019-03-15T14:21:12Z</time>
      </trkpt>
      <trkpt lat="30.546830138191581" lon="-7.109306808561087">
        <ele>1342.6199999999999</ele>
        <time>2019-03-15T14:21:20Z</time>
      </trkpt>
      <trkpt lat="30.546936504542828" lon="-7.109229946509004">
        <ele>1343.0999999999999</ele>
        <time>2019-03-15T14:21:22Z</time>
      </trkpt>
      <trkpt lat="30.547059215605259" lon="-7.109184432774782">
        <ele>1344.0599999999999</ele>
        <time>2019-03-15T14:21:23Z</time>
      </trkpt>
      <trkpt lat="30.547192404046655" lon="-7.109184684231877">
        <ele>1345.98</ele>
        <time>2019-03-15T14:21:24Z</time>
      </trkpt>
      <trkpt lat="30.547327185049653" lon="-7.109223743900657">
        <ele>1347.4300000000001</ele>
        <time>2019-03-15T14:21:25Z</time>
      </trkpt>
      <trkpt lat="30.547462636604905" lon="-7.109297085553408">
        <ele>1348.8699999999999</ele>
        <time>2019-03-15T14:21:26Z</time>
      </trkpt>
      <trkpt lat="30.547597669064999" lon="-7.109397919848561">
        <ele>1350.3099999999999</ele>
        <time>2019-03-15T14:21:27Z</time>
      </trkpt>
      <trkpt lat="30.547733539715409" lon="-7.109515769407153">
        <ele>1351.27</ele>
        <time>2019-03-15T14:21:28Z</time>
      </trkpt>
      <trkpt lat="30.547864129766822" lon="-7.109641917049885">
        <ele>1352.23</ele>
        <time>2019-03-15T14:21:29Z</time>
      </trkpt>
      <trkpt lat="30.548121202737093" lon="-7.109879292547703">
        <ele>1352.71</ele>
        <time>2019-03-15T14:21:30Z</time>
      </trkpt>
      <trkpt lat="30.548261264339089" lon="-7.109973253682256">
        <ele>1353.6700000000001</ele>
        <time>2019-03-15T14:21:31Z</time>
      </trkpt>
      <trkpt lat="30.548409540206194" lon="-7.110050283372402">
        <ele>1354.6300000000001</ele>
        <time>2019-03-15T14:21:32Z</time>
      </trkpt>
      <trkpt lat="30.548555217683315" lon="-7.110131168738008">
        <ele>1356.5599999999999</ele>
        <time>2019-03-15T14:21:33Z</time>
      </trkpt>
      <trkpt lat="30.548691591247916" lon="-7.110235774889588">
        <ele>1357.52</ele>
        <time>2019-03-15T14:21:34Z</time>
      </trkpt>
      <trkpt lat="30.548815475776792" lon="-7.110365694388747">
        <ele>1358.48</ele>
        <time>2019-03-15T14:21:35Z</time>
      </trkpt>
      <trkpt lat="30.548932068049908" lon="-7.110515898093581">
        <ele>1361.3599999999999</ele>
        <time>2019-03-15T14:21:36Z</time>
      </trkpt>
      <trkpt lat="30.549045223742723" lon="-7.110682195052505">
        <ele>1362.8099999999999</ele>
        <time>2019-03-15T14:21:37Z</time>
      </trkpt>
      <trkpt lat="30.549154607579112" lon="-7.110856119543314">
        <ele>1363.77</ele>
        <time>2019-03-15T14:21:38Z</time>
      </trkpt>
      <trkpt lat="30.549344709143043" lon="-7.111215200275183">
        <ele>1364.73</ele>
        <time>2019-03-15T14:21:39Z</time>
      </trkpt>
      <trkpt lat="30.549405058845878" lon="-7.111410414800048">
        <ele>1365.6900000000001</ele>
        <time>2019-03-15T14:21:40Z</time>
      </trkpt>
      <trkpt lat="30.54944277741015" lon="-7.11161132901907">
        <ele>1367.6099999999999</ele>
        <time>2019-03-15T14:21:41Z</time>
      </trkpt>
      <trkpt lat="30.549523578956723" lon="-7.112151961773634">
        <ele>1368.5699999999999</ele>
        <time>2019-03-15T14:21:43Z</time>
      </trkpt>
      <trkpt lat="30.549579318612814" lon="-7.11229395121336">
        <ele>1369.54</ele>
        <time>2019-03-15T14:21:44Z</time>
      </trkpt>
      <trkpt lat="30.549657689407468" lon="-7.112414734438062">
        <ele>1370.5</ele>
        <time>2019-03-15T14:21:45Z</time>
      </trkpt>
      <trkpt lat="30.549759697169065" lon="-7.112514395266771">
        <ele>1371.46</ele>
        <time>2019-03-15T14:21:46Z</time>
      </trkpt>
      <trkpt lat="30.549869081005454" lon="-7.112604836001992">
        <ele>1372.4200000000001</ele>
        <time>2019-03-15T14:21:47Z</time>
      </trkpt>
      <trkpt lat="30.550076197832823" lon="-7.112806756049395">
        <ele>1372.9000000000001</ele>
        <time>2019-03-15T14:21:48Z</time>
      </trkpt>
      <trkpt lat="30.550165800377727" lon="-7.112929299473763">
        <ele>1373.3800000000001</ele>
        <time>2019-03-15T14:21:49Z</time>
      </trkpt>
      <trkpt lat="30.550241824239492" lon="-7.113063829019666">
        <ele>1373.8599999999999</ele>
        <time>2019-03-15T14:21:50Z</time>
      </trkpt>
      <trkpt lat="30.550304017961025" lon="-7.11319936439395">
        <ele>1373.8599999999999</ele>
        <time>2019-03-15T14:21:51Z</time>
      </trkpt>
      <trkpt lat="30.550355734303594" lon="-7.113328613340855">
        <ele>1374.3399999999999</ele>
        <time>2019-03-15T14:21:52Z</time>
      </trkpt>
      <trkpt lat="30.550393117591739" lon="-7.113446546718478">
        <ele>1374.8199999999999</ele>
        <time>2019-03-15T14:21:53Z</time>
      </trkpt>
      <trkpt lat="30.550413569435477" lon="-7.113551404327154">
        <ele>1375.3</ele>
        <time>2019-03-15T14:21:54Z</time>
      </trkpt>
      <trkpt lat="30.550411222502589" lon="-7.113650981336832">
        <ele>1376.26</ele>
        <time>2019-03-15T14:21:55Z</time>
      </trkpt>
      <trkpt lat="30.550379119813442" lon="-7.113735722377896">
        <ele>1376.75</ele>
        <time>2019-03-15T14:21:58Z</time>
      </trkpt>
      <trkpt lat="30.55031843483448" lon="-7.113792467862368">
        <ele>1377.23</ele>
        <time>2019-03-15T14:21:59Z</time>
      </trkpt>
      <trkpt lat="30.550237884745002" lon="-7.113809734582901">
        <ele>1378.6700000000001</ele>
        <time>2019-03-15T14:22:00Z</time>
      </trkpt>
      <trkpt lat="30.550153814256191" lon="-7.113786432892084">
        <ele>1379.6300000000001</ele>
        <time>2019-03-15T14:22:03Z</time>
      </trkpt>
      <trkpt lat="30.550073850899935" lon="-7.113733543083072">
        <ele>1380.1099999999999</ele>
        <time>2019-03-15T14:22:04Z</time>
      </trkpt>
      <trkpt lat="30.550000844523311" lon="-7.113659782335162">
        <ele>1380.5899999999999</ele>
        <time>2019-03-15T14:22:05Z</time>
      </trkpt>
      <trkpt lat="30.549934292212129" lon="-7.11357076652348">
        <ele>1381.55</ele>
        <time>2019-03-15T14:22:06Z</time>
      </trkpt>
      <trkpt lat="30.549867823719978" lon="-7.113472362980247">
        <ele>1382.51</ele>
        <time>2019-03-15T14:22:07Z</time>
      </trkpt>
      <trkpt lat="30.549714267253876" lon="-7.113275304436684">
        <ele>1382.99</ele>
        <time>2019-03-15T14:22:08Z</time>
      </trkpt>
      <trkpt lat="30.549619467929006" lon="-7.113189892843366">
        <ele>1383.96</ele>
        <time>2019-03-15T14:22:09Z</time>
      </trkpt>
      <trkpt lat="30.549512263387442" lon="-7.113120155408979">
        <ele>1385.4000000000001</ele>
        <time>2019-03-15T14:22:10Z</time>
      </trkpt>
      <trkpt lat="30.549398940056562" lon="-7.113066427409649">
        <ele>1386.3599999999999</ele>
        <time>2019-03-15T14:22:11Z</time>
      </trkpt>
      <trkpt lat="30.54928352124989" lon="-7.113032229244709">
        <ele>1389.72</ele>
        <time>2019-03-15T14:22:12Z</time>
      </trkpt>
      <trkpt lat="30.549166593700647" lon="-7.113019824028015">
        <ele>1390.2</ele>
        <time>2019-03-15T14:22:13Z</time>
      </trkpt>
      <trkpt lat="30.549049666151404" lon="-7.113034827634692">
        <ele>1390.6800000000001</ele>
        <time>2019-03-15T14:22:14Z</time>
      </trkpt>
      <trkpt lat="30.548939108848572" lon="-7.113077659159899">
        <ele>1390.6800000000001</ele>
        <time>2019-03-15T14:22:15Z</time>
      </trkpt>
      <trkpt lat="30.548840118572116" lon="-7.113146223127842">
        <ele>1390.6800000000001</ele>
        <time>2019-03-15T14:22:16Z</time>
      </trkpt>
      <trkpt lat="30.548750180751085" lon="-7.113225935027003">
        <ele>1391.1700000000001</ele>
        <time>2019-03-15T14:22:17Z</time>
      </trkpt>
      <trkpt lat="30.548204937949777" lon="-7.113682581111789">
        <ele>1391.1700000000001</ele>
        <time>2019-03-15T14:22:18Z</time>
      </trkpt>
      <trkpt lat="30.548112150281668" lon="-7.113771010190249">
        <ele>1391.6500000000001</ele>
        <time>2019-03-15T14:22:19Z</time>
      </trkpt>
      <trkpt lat="30.548075353726745" lon="-7.113825911656022">
        <ele>1392.6099999999999</ele>
        <time>2019-03-15T14:22:20Z</time>
      </trkpt>
      <trkpt lat="30.54804777726531" lon="-7.113891709595919">
        <ele>1393.0899999999999</ele>
        <time>2019-03-15T14:22:21Z</time>
      </trkpt>
      <trkpt lat="30.54803210310638" lon="-7.113958597183228">
        <ele>1393.0899999999999</ele>
        <time>2019-03-15T14:22:22Z</time>
      </trkpt>
      <trkpt lat="30.548030762001872" lon="-7.114027244970202">
        <ele>1393.5699999999999</ele>
        <time>2019-03-15T14:22:30Z</time>
      </trkpt>
      <trkpt lat="30.54804190993309" lon="-7.11410284973681">
        <ele>1394.53</ele>
        <time>2019-03-15T14:22:32Z</time>
      </trkpt>
      <trkpt lat="30.548062026500702" lon="-7.114190021529794">
        <ele>1395.49</ele>
        <time>2019-03-15T14:22:33Z</time>
      </trkpt>
      <trkpt lat="30.548086585476995" lon="-7.114292616024613">
        <ele>1395.97</ele>
        <time>2019-03-15T14:22:34Z</time>
      </trkpt>
      <trkpt lat="30.548108881339431" lon="-7.114412393420935">
        <ele>1396.45</ele>
        <time>2019-03-15T14:22:37Z</time>
      </trkpt>
      <trkpt lat="30.548117095604539" lon="-7.114548934623599">
        <ele>1397.4100000000001</ele>
        <time>2019-03-15T14:22:38Z</time>
      </trkpt>
      <trkpt lat="30.54810150526464" lon="-7.11469310335815">
        <ele>1397.8900000000001</ele>
        <time>2019-03-15T14:22:39Z</time>
      </trkpt>
      <trkpt lat="30.548063535243273" lon="-7.11483190767467">
        <ele>1398.3699999999999</ele>
        <time>2019-03-15T14:22:40Z</time>
      </trkpt>
      <trkpt lat="30.548017183318734" lon="-7.114960318431258">
        <ele>1399.3399999999999</ele>
        <time>2019-03-15T14:22:41Z</time>
      </trkpt>
      <trkpt lat="30.547981727868319" lon="-7.115078335627914">
        <ele>1399.8199999999999</ele>
        <time>2019-03-15T14:22:43Z</time>
      </trkpt>
      <trkpt lat="30.547975357621908" lon="-7.115183947607875">
        <ele>1401.26</ele>
        <time>2019-03-15T14:22:44Z</time>
      </trkpt>
      <trkpt lat="30.548006035387516" lon="-7.115275645628572">
        <ele>1402.22</ele>
        <time>2019-03-15T14:22:45Z</time>
      </trkpt>
      <trkpt lat="30.548063954338431" lon="-7.115346724167466">
        <ele>1402.7</ele>
        <time>2019-03-15T14:22:46Z</time>
      </trkpt>
      <trkpt lat="30.548137547448277" lon="-7.115399865433574">
        <ele>1403.1800000000001</ele>
        <time>2019-03-15T14:22:47Z</time>
      </trkpt>
      <trkpt lat="30.548218851909041" lon="-7.115444708615542">
        <ele>1403.6600000000001</ele>
        <time>2019-03-15T14:22:48Z</time>
      </trkpt>
      <trkpt lat="30.548305436968803" lon="-7.115484103560448">
        <ele>1403.6600000000001</ele>
        <time>2019-03-15T14:22:49Z</time>
      </trkpt>
      <trkpt lat="30.548485312610865" lon="-7.115581249818206">
        <ele>1404.1400000000001</ele>
        <time>2019-03-15T14:22:50Z</time>
      </trkpt>
      <trkpt lat="30.548561085015535" lon="-7.115661799907684">
        <ele>1405.0999999999999</ele>
        <time>2019-03-15T14:22:51Z</time>
      </trkpt>
      <trkpt lat="30.548612968996167" lon="-7.115773111581802">
        <ele>1405.5799999999999</ele>
        <time>2019-03-15T14:22:52Z</time>
      </trkpt>
      <trkpt lat="30.548637863248587" lon="-7.115903617814183">
        <ele>1406.55</ele>
        <time>2019-03-15T14:23:03Z</time>
      </trkpt>
      <trkpt lat="30.548635432496667" lon="-7.116046193987131">
        <ele>1407.51</ele>
        <time>2019-03-15T14:23:04Z</time>
      </trkpt>
      <trkpt lat="30.548606934025884" lon="-7.116193883121014">
        <ele>1407.99</ele>
        <time>2019-03-15T14:23:05Z</time>
      </trkpt>
      <trkpt lat="30.548559073358774" lon="-7.116340231150389">
        <ele>1408.47</ele>
        <time>2019-03-15T14:23:13Z</time>
      </trkpt>
      <trkpt lat="30.548501657322049" lon="-7.116487082093954">
        <ele>1410.3900000000001</ele>
        <time>2019-03-15T14:23:14Z</time>
      </trkpt>
      <trkpt lat="30.548435021191835" lon="-7.116629825904965">
        <ele>1410.3900000000001</ele>
        <time>2019-03-15T14:23:15Z</time>
      </trkpt>
      <trkpt lat="30.548361595720053" lon="-7.116760918870568">
        <ele>1411.3499999999999</ele>
        <time>2019-03-15T14:23:26Z</time>
      </trkpt>
      <trkpt lat="30.548282051458955" lon="-7.116884468123317">
        <ele>1413.28</ele>
        <time>2019-03-15T14:23:36Z</time>
      </trkpt>
      <trkpt lat="30.54819387383759" lon="-7.117001144215465">
        <ele>1413.76</ele>
        <time>2019-03-15T14:23:47Z</time>
      </trkpt>
      <trkpt lat="30.548100415617228" lon="-7.117115138098598">
        <ele>1414.72</ele>
        <time>2019-03-15T14:23:56Z</time>
      </trkpt>
      <trkpt lat="30.547816855832934" lon="-7.117475559934974">
        <ele>1415.6800000000001</ele>
        <time>2019-03-15T14:24:05Z</time>
      </trkpt>
      <trkpt lat="30.547706969082355" lon="-7.117579327896237">
        <ele>1416.6400000000001</ele>
        <time>2019-03-15T14:24:17Z</time>
      </trkpt>
      <trkpt lat="30.547587694600224" lon="-7.117662392556667">
        <ele>1417.1199999999999</ele>
        <time>2019-03-15T14:24:26Z</time>
      </trkpt>
      <trkpt lat="30.547258956357837" lon="-7.11788535118103">
        <ele>1417.5999999999999</ele>
        <time>2019-03-15T14:24:33Z</time>
      </trkpt>
      <trkpt lat="30.547173377126455" lon="-7.11797621101141">
        <ele>1418.0799999999999</ele>
        <time>2019-03-15T14:24:46Z</time>
      </trkpt>
      <trkpt lat="30.547108585014939" lon="-7.118072602897883">
        <ele>1418.5599999999999</ele>
        <time>2019-03-15T14:24:58Z</time>
      </trkpt>
      <trkpt lat="30.547060472890735" lon="-7.118170838803053">
        <ele>1419.04</ele>
        <time>2019-03-15T14:25:07Z</time>
      </trkpt>
      <trkpt lat="30.547022921964526" lon="-7.118270751088858">
        <ele>1420</ele>
        <time>2019-03-15T14:25:15Z</time>
      </trkpt>
      <trkpt lat="30.547002805396914" lon="-7.118361778557301">
        <ele>1420.49</ele>
        <time>2019-03-15T14:25:28Z</time>
      </trkpt>
      <trkpt lat="30.547006409615278" lon="-7.118447609245777">
        <ele>1421.45</ele>
        <time>2019-03-15T14:25:36Z</time>
      </trkpt>
      <trkpt lat="30.54704069159925" lon="-7.11852103471756">
        <ele>1421.9300000000001</ele>
        <time>2019-03-15T14:25:44Z</time>
      </trkpt>
      <trkpt lat="30.547097939997911" lon="-7.118572667241097">
        <ele>1422.4100000000001</ele>
        <time>2019-03-15T14:25:55Z</time>
      </trkpt>
      <trkpt lat="30.54716968908906" lon="-7.118599992245436">
        <ele>1422.8900000000001</ele>
        <time>2019-03-15T14:26:04Z</time>
      </trkpt>
      <trkpt lat="30.547250742092729" lon="-7.118603680282831">
        <ele>1423.3699999999999</ele>
        <time>2019-03-15T14:26:10Z</time>
      </trkpt>
      <trkpt lat="30.547335483133793" lon="-7.118592616170645">
        <ele>1423.8499999999999</ele>
        <time>2019-03-15T14:26:11Z</time>
      </trkpt>
      <trkpt lat="30.547426342964172" lon="-7.118591526523233">
        <ele>1424.3299999999999</ele>
        <time>2019-03-15T14:26:12Z</time>
      </trkpt>
      <trkpt lat="30.54751661606133" lon="-7.118621785193682">
        <ele>1424.8099999999999</ele>
        <time>2019-03-15T14:26:13Z</time>
      </trkpt>
      <trkpt lat="30.547596579417586" lon="-7.118691690266132">
        <ele>1431.54</ele>
        <time>2019-03-15T14:26:14Z</time>
      </trkpt>
      <trkpt lat="30.547660030424595" lon="-7.11879420094192">
        <ele>1432.98</ele>
        <time>2019-03-15T14:26:15Z</time>
      </trkpt>
      <trkpt lat="30.547699760645628" lon="-7.11891632527113">
        <ele>1433.46</ele>
        <time>2019-03-15T14:26:16Z</time>
      </trkpt>
      <trkpt lat="30.547715770080686" lon="-7.119046747684479">
        <ele>1433.9400000000001</ele>
        <time>2019-03-15T14:26:17Z</time>
      </trkpt>
      <trkpt lat="30.547718284651637" lon="-7.119184713810682">
        <ele>1435.3900000000001</ele>
        <time>2019-03-15T14:26:27Z</time>
      </trkpt>
      <trkpt lat="30.547714764252305" lon="-7.119322679936886">
        <ele>1435.8699999999999</ele>
        <time>2019-03-15T14:26:42Z</time>
      </trkpt>
      <trkpt lat="30.54758794605732" lon="-7.120443256571889">
        <ele>1436.8299999999999</ele>
        <time>2019-03-15T14:26:52Z</time>
      </trkpt>
      <trkpt lat="30.54754788056016" lon="-7.120722373947501">
        <ele>1437.79</ele>
        <time>2019-03-15T14:27:04Z</time>
      </trkpt>
      <trkpt lat="30.547498343512416" lon="-7.120855310931802">
        <ele>1438.75</ele>
        <time>2019-03-15T14:27:09Z</time>
      </trkpt>
      <trkpt lat="30.547429947182536" lon="-7.120978776365519">
        <ele>1439.71</ele>
        <time>2019-03-15T14:27:10Z</time>
      </trkpt>
      <trkpt lat="30.547209670767188" lon="-7.121319668367505">
        <ele>1440.6700000000001</ele>
        <time>2019-03-15T14:27:12Z</time>
      </trkpt>
      <trkpt lat="30.547158289700747" lon="-7.121449839323759">
        <ele>1441.6300000000001</ele>
        <time>2019-03-15T14:27:13Z</time>
      </trkpt>
      <trkpt lat="30.547124007716775" lon="-7.121595432981849">
        <ele>1442.1099999999999</ele>
        <time>2019-03-15T14:27:14Z</time>
      </trkpt>
      <trkpt lat="30.547104561701417" lon="-7.121756952255964">
        <ele>1442.5999999999999</ele>
        <time>2019-03-15T14:27:15Z</time>
      </trkpt>
      <trkpt lat="30.547092575579882" lon="-7.121922830119729">
        <ele>1443.5599999999999</ele>
        <time>2019-03-15T14:27:22Z</time>
      </trkpt>
      <trkpt lat="30.547052258625627" lon="-7.122238157317042">
        <ele>1444.52</ele>
        <time>2019-03-15T14:27:30Z</time>
      </trkpt>
      <trkpt lat="30.547008840367198" lon="-7.122390205040574">
        <ele>1445.48</ele>
        <time>2019-03-15T14:27:34Z</time>
      </trkpt>
      <trkpt lat="30.546950083225965" lon="-7.122536301612854">
        <ele>1446.9200000000001</ele>
        <time>2019-03-15T14:27:35Z</time>
      </trkpt>
      <trkpt lat="30.546879423782229" lon="-7.122678877785802">
        <ele>1447.8800000000001</ele>
        <time>2019-03-15T14:27:36Z</time>
      </trkpt>
      <trkpt lat="30.546802142634988" lon="-7.122820029035211">
        <ele>1455.5699999999999</ele>
        <time>2019-03-15T14:27:48Z</time>
      </trkpt>
      <trkpt lat="30.546730142086744" lon="-7.122966796159744">
        <ele>1455.5699999999999</ele>
        <time>2019-03-15T14:27:54Z</time>
      </trkpt>
      <trkpt lat="30.546671133488417" lon="-7.12312487885356">
        <ele>1455.0899999999999</ele>
        <time>2019-03-15T14:27:55Z</time>
      </trkpt>
      <trkpt lat="30.54662587121129" lon="-7.123291930183768">
        <ele>1446.4400000000001</ele>
        <time>2019-03-15T14:27:56Z</time>
      </trkpt>
      <trkpt lat="30.546591756865382" lon="-7.123466189950705">
        <ele>1445.48</ele>
        <time>2019-03-15T14:27:57Z</time>
      </trkpt>
      <trkpt lat="30.546565353870392" lon="-7.123644556850195">
        <ele>1444.04</ele>
        <time>2019-03-15T14:27:58Z</time>
      </trkpt>
      <trkpt lat="30.546474661678076" lon="-7.125671552494168">
        <ele>1433.46</ele>
        <time>2019-03-15T14:28:07Z</time>
      </trkpt>
      <trkpt lat="30.54651933722198" lon="-7.125854529440403">
        <ele>1425.77</ele>
        <time>2019-03-15T14:28:11Z</time>
      </trkpt>
      <trkpt lat="30.54657650180161" lon="-7.12604152970016">
        <ele>1421.45</ele>
        <time>2019-03-15T14:28:12Z</time>
      </trkpt>
      <trkpt lat="30.547068435698748" lon="-7.127669714391232">
        <ele>1418.0799999999999</ele>
        <time>2019-03-15T14:28:13Z</time>
      </trkpt>
      <trkpt lat="30.54708712734282" lon="-7.127903988584876">
        <ele>1409.4300000000001</ele>
        <time>2019-03-15T14:28:14Z</time>
      </trkpt>
      <trkpt lat="30.547090815380216" lon="-7.128147650510073">
        <ele>1403.6600000000001</ele>
        <time>2019-03-15T14:28:15Z</time>
      </trkpt>
      <trkpt lat="30.546889398247004" lon="-7.13091510348022">
        <ele>1406.0699999999999</ele>
        <time>2019-03-15T14:28:16Z</time>
      </trkpt>
      <trkpt lat="30.546943880617619" lon="-7.133647268638015">
        <ele>1400.3</ele>
        <time>2019-03-15T14:28:27Z</time>
      </trkpt>
      <trkpt lat="30.547291059046984" lon="-7.136730048805475">
        <ele>1393.0899999999999</ele>
        <time>2019-03-15T14:28:41Z</time>
      </trkpt>
      <trkpt lat="30.548054063692689" lon="-7.139238668605685">
        <ele>1394.05</ele>
        <time>2019-03-15T14:28:44Z</time>
      </trkpt>
      <trkpt lat="30.548757556825876" lon="-7.141828341409564">
        <ele>1393.5699999999999</ele>
        <time>2019-03-15T14:28:45Z</time>
      </trkpt>
      <trkpt lat="30.549381924793124" lon="-7.145658871158958">
        <ele>1392.6099999999999</ele>
        <time>2019-03-15T14:28:49Z</time>
      </trkpt>
      <trkpt lat="30.549921216443181" lon="-7.148185847327113">
        <ele>1393.0899999999999</ele>
        <time>2019-03-15T14:28:50Z</time>
      </trkpt>
      <trkpt lat="30.550692602992058" lon="-7.149624936282635">
        <ele>1393.0899999999999</ele>
        <time>2019-03-15T14:28:51Z</time>
      </trkpt>
      <trkpt lat="30.552152059972286" lon="-7.151760729029775">
        <ele>1393.0899999999999</ele>
        <time>2019-03-15T14:28:52Z</time>
      </trkpt>
      <trkpt lat="30.553365927189589" lon="-7.153492849320173">
        <ele>1392.6099999999999</ele>
        <time>2019-03-15T14:28:53Z</time>
      </trkpt>
      <trkpt lat="30.554755143821239" lon="-7.154817944392562">
        <ele>1391.6500000000001</ele>
        <time>2019-03-15T14:28:54Z</time>
      </trkpt>
      <trkpt lat="30.556018631905317" lon="-7.156370608136058">
        <ele>1391.1700000000001</ele>
        <time>2019-03-15T14:28:55Z</time>
      </trkpt>
      <trkpt lat="30.557811940088868" lon="-7.159216096624732">
        <ele>1391.1700000000001</ele>
        <time>2019-03-15T14:28:56Z</time>
      </trkpt>
      <trkpt lat="30.559218088164926" lon="-7.160639511421323">
        <ele>1390.6800000000001</ele>
        <time>2019-03-15T14:28:57Z</time>
      </trkpt>
      <trkpt lat="30.560813834890723" lon="-7.161713484674692">
        <ele>1390.2</ele>
        <time>2019-03-15T14:29:02Z</time>
      </trkpt>
      <trkpt lat="30.563269732519984" lon="-7.162534575909376">
        <ele>1389.72</ele>
        <time>2019-03-15T14:29:03Z</time>
      </trkpt>
      <trkpt lat="30.564961787313223" lon="-7.163088116794825">
        <ele>1388.28</ele>
        <time>2019-03-15T14:29:04Z</time>
      </trkpt>
      <trkpt lat="30.565984798595309" lon="-7.163457423448563">
        <ele>1387.3199999999999</ele>
        <time>2019-03-15T14:29:05Z</time>
      </trkpt>
      <trkpt lat="30.566134080290794" lon="-7.163546355441213">
        <ele>1386.3599999999999</ele>
        <time>2019-03-15T14:29:06Z</time>
      </trkpt>
      <trkpt lat="30.566269867122173" lon="-7.163659678772092">
        <ele>1386.3599999999999</ele>
        <time>2019-03-15T14:29:07Z</time>
      </trkpt>
      <trkpt lat="30.56638503447175" lon="-7.163799572736025">
        <ele>1396.45</ele>
        <time>2019-03-15T14:29:11Z</time>
      </trkpt>
      <trkpt lat="30.566475642845035" lon="-7.163966037333012">
        <ele>1396.9300000000001</ele>
        <time>2019-03-15T14:29:12Z</time>
      </trkpt>
      <trkpt lat="30.566552923992276" lon="-7.1641531214118">
        <ele>1400.3</ele>
        <time>2019-03-15T14:29:13Z</time>
      </trkpt>
      <trkpt lat="30.566625678911805" lon="-7.164354706183076">
        <ele>1400.3</ele>
        <time>2019-03-15T14:29:24Z</time>
      </trkpt>
      <trkpt lat="30.566698266193271" lon="-7.16456894762814">
        <ele>1399.8199999999999</ele>
        <time>2019-03-15T14:29:31Z</time>
      </trkpt>
      <trkpt lat="30.567494379356503" lon="-7.166988803073764">
        <ele>1398.8599999999999</ele>
        <time>2019-03-15T14:29:37Z</time>
      </trkpt>
      <trkpt lat="30.568767674267292" lon="-7.17074909247458">
        <ele>1398.3699999999999</ele>
        <time>2019-03-15T14:29:38Z</time>
      </trkpt>
      <trkpt lat="30.569820608943701" lon="-7.173163667321205">
        <ele>1397.8900000000001</ele>
        <time>2019-03-15T14:29:39Z</time>
      </trkpt>
      <trkpt lat="30.571175962686539" lon="-7.175757698714733">
        <ele>1397.4100000000001</ele>
        <time>2019-03-15T14:29:40Z</time>
      </trkpt>
      <trkpt lat="30.571487518027425" lon="-7.176313251256943">
        <ele>1396.45</ele>
        <time>2019-03-15T14:29:41Z</time>
      </trkpt>
      <trkpt lat="30.57153420522809" lon="-7.176344348117709">
        <ele>1398.3699999999999</ele>
        <time>2019-03-15T14:29:42Z</time>
      </trkpt>
      <trkpt lat="30.571649791672826" lon="-7.176309144124389">
        <ele>1399.8199999999999</ele>
        <time>2019-03-15T14:29:53Z</time>
      </trkpt>
      <trkpt lat="30.571706118062139" lon="-7.176243094727397">
        <ele>1400.78</ele>
        <time>2019-03-15T14:29:54Z</time>
      </trkpt>
      <trkpt lat="30.571759846061468" lon="-7.176159108057618">
        <ele>1401.26</ele>
        <time>2019-03-15T14:29:55Z</time>
      </trkpt>
      <trkpt lat="30.571816256269813" lon="-7.176062045618892">
        <ele>1408.47</ele>
        <time>2019-03-15T14:29:56Z</time>
      </trkpt>
      <trkpt lat="30.572301400825381" lon="-7.175068035721779">
        <ele>1411.3499999999999</ele>
        <time>2019-03-15T14:29:57Z</time>
      </trkpt>
      <trkpt lat="30.573042193427682" lon="-7.173536326736212">
        <ele>1411.8299999999999</ele>
        <time>2019-03-15T14:29:58Z</time>
      </trkpt>
      <trkpt lat="30.573366405442357" lon="-7.172656478360295">
        <ele>1412.3099999999999</ele>
        <time>2019-03-15T14:29:59Z</time>
      </trkpt>
      <trkpt lat="30.573406554758549" lon="-7.17241876758635">
        <ele>1413.28</ele>
        <time>2019-03-15T14:30:00Z</time>
      </trkpt>
      <trkpt lat="30.57342667132616" lon="-7.17217636294663">
        <ele>1414.24</ele>
        <time>2019-03-15T14:30:01Z</time>
      </trkpt>
      <trkpt lat="30.573537899181247" lon="-7.169294245541096">
        <ele>1415.6800000000001</ele>
        <time>2019-03-15T14:30:02Z</time>
      </trkpt>
      <trkpt lat="30.573883149772882" lon="-7.167926905676723">
        <ele>1414.24</ele>
        <time>2019-03-15T14:30:03Z</time>
      </trkpt>
      <trkpt lat="30.573989264667034" lon="-7.167738983407617">
        <ele>1413.28</ele>
        <time>2019-03-15T14:30:10Z</time>
      </trkpt>
      <trkpt lat="30.57411658577621" lon="-7.16756422072649">
        <ele>1413.28</ele>
        <time>2019-03-15T14:30:11Z</time>
      </trkpt>
      <trkpt lat="30.574262263253331" lon="-7.167403036728501">
        <ele>1412.79</ele>
        <time>2019-03-15T14:30:12Z</time>
      </trkpt>
      <trkpt lat="30.574414813891053" lon="-7.167250569909811">
        <ele>1412.3099999999999</ele>
        <time>2019-03-15T14:30:13Z</time>
      </trkpt>
      <trkpt lat="30.575810736045241" lon="-7.166014323011041">
        <ele>1411.8299999999999</ele>
        <time>2019-03-15T14:30:14Z</time>
      </trkpt>
      <trkpt lat="30.576354973018169" lon="-7.165438234806061">
        <ele>1403.1800000000001</ele>
        <time>2019-03-15T14:30:15Z</time>
      </trkpt>
      <trkpt lat="30.57645421475172" lon="-7.165285013616085">
        <ele>1393.0899999999999</ele>
        <time>2019-03-15T14:30:16Z</time>
      </trkpt>
      <trkpt lat="30.576533507555723" lon="-7.165116537362337">
        <ele>1392.6099999999999</ele>
        <time>2019-03-15T14:30:17Z</time>
      </trkpt>
      <trkpt lat="30.576594695448875" lon="-7.164929453283548">
        <ele>1392.1300000000001</ele>
        <time>2019-03-15T14:30:18Z</time>
      </trkpt>
      <trkpt lat="30.576641634106636" lon="-7.16472283937037">
        <ele>1390.2</ele>
        <time>2019-03-15T14:30:26Z</time>
      </trkpt>
      <trkpt lat="30.576686561107635" lon="-7.164500467479229">
        <ele>1389.72</ele>
        <time>2019-03-15T14:30:27Z</time>
      </trkpt>
      <trkpt lat="30.577312940731645" lon="-7.161801913753152">
        <ele>1388.28</ele>
        <time>2019-03-15T14:30:28Z</time>
      </trkpt>
      <trkpt lat="30.578086590394378" lon="-7.158502629026771">
        <ele>1387.3199999999999</ele>
        <time>2019-03-15T14:30:29Z</time>
      </trkpt>
      <trkpt lat="30.578167894855142" lon="-7.15789427049458">
        <ele>1386.3599999999999</ele>
        <time>2019-03-15T14:30:30Z</time>
      </trkpt>
      <trkpt lat="30.578157836571336" lon="-7.15770224109292">
        <ele>1385.8800000000001</ele>
        <time>2019-03-15T14:30:31Z</time>
      </trkpt>
      <trkpt lat="30.57809354737401" lon="-7.157017858698964">
        <ele>1385.8800000000001</ele>
        <time>2019-03-15T14:30:32Z</time>
      </trkpt>
      <trkpt lat="30.578105365857482" lon="-7.156862793490291">
        <ele>1385.8800000000001</ele>
        <time>2019-03-15T14:30:33Z</time>
      </trkpt>
      <trkpt lat="30.578125147148967" lon="-7.156722145155072">
        <ele>1385.8800000000001</ele>
        <time>2019-03-15T14:30:34Z</time>
      </trkpt>
      <trkpt lat="30.578162027522922" lon="-7.156601781025529">
        <ele>1385.4000000000001</ele>
        <time>2019-03-15T14:30:35Z</time>
      </trkpt>
      <trkpt lat="30.578222461044788" lon="-7.156501030549407">
        <ele>1385.4000000000001</ele>
        <time>2019-03-15T14:30:48Z</time>
      </trkpt>
      <trkpt lat="30.578301586210728" lon="-7.156413523480296">
        <ele>1385.8800000000001</ele>
        <time>2019-03-15T14:30:56Z</time>
      </trkpt>
      <trkpt lat="30.578390769660473" lon="-7.156334817409515">
        <ele>1386.3599999999999</ele>
        <time>2019-03-15T14:31:04Z</time>
      </trkpt>
      <trkpt lat="30.578485233709216" lon="-7.156260218471289">
        <ele>1386.3599999999999</ele>
        <time>2019-03-15T14:31:07Z</time>
      </trkpt>
      <trkpt lat="30.578584475442767" lon="-7.156188301742077">
        <ele>1386.8399999999999</ele>
        <time>2019-03-15T14:31:08Z</time>
      </trkpt>
      <trkpt lat="30.579112786799669" lon="-7.155804997310042">
        <ele>1387.8</ele>
        <time>2019-03-15T14:31:09Z</time>
      </trkpt>
      <trkpt lat="30.579231390729547" lon="-7.155763506889343">
        <ele>1387.8</ele>
        <time>2019-03-15T14:31:10Z</time>
      </trkpt>
      <trkpt lat="30.579354437068105" lon="-7.15575696900487">
        <ele>1388.28</ele>
        <time>2019-03-15T14:31:11Z</time>
      </trkpt>
      <trkpt lat="30.579478573054075" lon="-7.155779767781496">
        <ele>1393.5699999999999</ele>
        <time>2019-03-15T14:31:12Z</time>
      </trkpt>
      <trkpt lat="30.579601116478443" lon="-7.155821844935417">
        <ele>1398.8599999999999</ele>
        <time>2019-03-15T14:31:22Z</time>
      </trkpt>
      <trkpt lat="30.579719636589289" lon="-7.155868783593178">
        <ele>1400.78</ele>
        <time>2019-03-15T14:31:30Z</time>
      </trkpt>
      <trkpt lat="30.580211151391268" lon="-7.156014293432236">
        <ele>1400.78</ele>
        <time>2019-03-15T14:31:31Z</time>
      </trkpt>
      <trkpt lat="30.580346770584583" lon="-7.156020579859614">
        <ele>1400.3</ele>
        <time>2019-03-15T14:31:32Z</time>
      </trkpt>
      <trkpt lat="30.580489849671721" lon="-7.156013455241919">
        <ele>1399.8199999999999</ele>
        <time>2019-03-15T14:31:34Z</time>
      </trkpt>
      <trkpt lat="30.582319032400846" lon="-7.155738528817892">
        <ele>1398.8599999999999</ele>
        <time>2019-03-15T14:31:35Z</time>
      </trkpt>
      <trkpt lat="30.583429886028171" lon="-7.155916895717382">
        <ele>1397.8900000000001</ele>
        <time>2019-03-15T14:31:36Z</time>
      </trkpt>
      <trkpt lat="30.584413921460509" lon="-7.156156115233898">
        <ele>1393.5699999999999</ele>
        <time>2019-03-15T14:31:37Z</time>
      </trkpt>
      <trkpt lat="30.584575105458498" lon="-7.156155277043581">
        <ele>1393.0899999999999</ele>
        <time>2019-03-15T14:31:38Z</time>
      </trkpt>
      <trkpt lat="30.584733439609408" lon="-7.156126191839576">
        <ele>1392.6099999999999</ele>
        <time>2019-03-15T14:31:39Z</time>
      </trkpt>
      <trkpt lat="30.584891606122255" lon="-7.156072966754437">
        <ele>1391.6500000000001</ele>
        <time>2019-03-15T14:31:40Z</time>
      </trkpt>
      <trkpt lat="30.585049940273166" lon="-7.156002391129732">
        <ele>1391.1700000000001</ele>
        <time>2019-03-15T14:31:41Z</time>
      </trkpt>
      <trkpt lat="30.585209112614393" lon="-7.155922427773476">
        <ele>1390.6800000000001</ele>
        <time>2019-03-15T14:31:43Z</time>
      </trkpt>
      <trkpt lat="30.586762363091111" lon="-7.154893213883042">
        <ele>1390.2</ele>
        <time>2019-03-15T14:31:44Z</time>
      </trkpt>
      <trkpt lat="30.586864119395614" lon="-7.154759103432298">
        <ele>1390.2</ele>
        <time>2019-03-15T14:31:45Z</time>
      </trkpt>
      <trkpt lat="30.586955146864057" lon="-7.154612839221954">
        <ele>1389.72</ele>
        <time>2019-03-15T14:31:46Z</time>
      </trkpt>
      <trkpt lat="30.587035026401281" lon="-7.15445383451879">
        <ele>1389.72</ele>
        <time>2019-03-15T14:31:47Z</time>
      </trkpt>
      <trkpt lat="30.587102752178907" lon="-7.154284436255693">
        <ele>1389.24</ele>
        <time>2019-03-15T14:31:48Z</time>
      </trkpt>
      <trkpt lat="30.58715807273984" lon="-7.154106656089425">
        <ele>1387.8</ele>
        <time>2019-03-15T14:31:53Z</time>
      </trkpt>
      <trkpt lat="30.587195958942175" lon="-7.153926445171237">
        <ele>1387.8</ele>
        <time>2019-03-15T14:31:54Z</time>
      </trkpt>
      <trkpt lat="30.58721624314785" lon="-7.153739361092448">
        <ele>1387.3199999999999</ele>
        <time>2019-03-15T14:32:03Z</time>
      </trkpt>
      <trkpt lat="30.587226217612624" lon="-7.153542973101139">
        <ele>1387.3199999999999</ele>
        <time>2019-03-15T14:32:06Z</time>
      </trkpt>
      <trkpt lat="30.587225798517466" lon="-7.153339125216007">
        <ele>1386.8399999999999</ele>
        <time>2019-03-15T14:32:07Z</time>
      </trkpt>
      <trkpt lat="30.58721917681396" lon="-7.153128990903497">
        <ele>1386.3599999999999</ele>
        <time>2019-03-15T14:32:16Z</time>
      </trkpt>
      <trkpt lat="30.587238874286413" lon="-7.151642711833119">
        <ele>1385.8800000000001</ele>
        <time>2019-03-15T14:32:19Z</time>
      </trkpt>
      <trkpt lat="30.587291177362204" lon="-7.151435595005751">
        <ele>1385.4000000000001</ele>
        <time>2019-03-15T14:32:26Z</time>
      </trkpt>
      <trkpt lat="30.58735890313983" lon="-7.151226382702589">
        <ele>1384.9200000000001</ele>
        <time>2019-03-15T14:32:35Z</time>
      </trkpt>
      <trkpt lat="30.587444147095084" lon="-7.151017421856523">
        <ele>1383.47</ele>
        <time>2019-03-15T14:32:38Z</time>
      </trkpt>
      <trkpt lat="30.587548669427633" lon="-7.150814328342676">
        <ele>1382.99</ele>
        <time>2019-03-15T14:32:40Z</time>
      </trkpt>
      <trkpt lat="30.587673224508762" lon="-7.150624729692936">
        <ele>1382.51</ele>
        <time>2019-03-15T14:32:44Z</time>
      </trkpt>
      <trkpt lat="30.587817309424281" lon="-7.150449380278587">
        <ele>1382.03</ele>
        <time>2019-03-15T14:32:45Z</time>
      </trkpt>
      <trkpt lat="30.587981594726443" lon="-7.150284172967076">
        <ele>1381.55</ele>
        <time>2019-03-15T14:32:46Z</time>
      </trkpt>
      <trkpt lat="30.588158955797553" lon="-7.150122318416834">
        <ele>1381.0699999999999</ele>
        <time>2019-03-15T14:32:49Z</time>
      </trkpt>
      <trkpt lat="30.58960072696209" lon="-7.148926388472319">
        <ele>1380.5899999999999</ele>
        <time>2019-03-15T14:32:50Z</time>
      </trkpt>
      <trkpt lat="30.589793007820845" lon="-7.148836283013225">
        <ele>1380.5899999999999</ele>
        <time>2019-03-15T14:32:51Z</time>
      </trkpt>
      <trkpt lat="30.589987970888615" lon="-7.148764953017235">
        <ele>1381.55</ele>
        <time>2019-03-15T14:32:54Z</time>
      </trkpt>
      <trkpt lat="30.590185867622495" lon="-7.148718684911728">
        <ele>1382.03</ele>
        <time>2019-03-15T14:32:55Z</time>
      </trkpt>
      <trkpt lat="30.590388542041183" lon="-7.148698149248958">
        <ele>1385.8800000000001</ele>
        <time>2019-03-15T14:32:56Z</time>
      </trkpt>
      <trkpt lat="30.59059607796371" lon="-7.148700663819909">
        <ele>1389.72</ele>
        <time>2019-03-15T14:32:57Z</time>
      </trkpt>
      <trkpt lat="30.590806966647506" lon="-7.148722624406219">
        <ele>1392.6099999999999</ele>
        <time>2019-03-15T14:32:58Z</time>
      </trkpt>
      <trkpt lat="30.591012993827462" lon="-7.148766210302711">
        <ele>1393.0899999999999</ele>
        <time>2019-03-15T14:32:59Z</time>
      </trkpt>
      <trkpt lat="30.591212315484881" lon="-7.148830499500036">
        <ele>1393.0899999999999</ele>
        <time>2019-03-15T14:33:00Z</time>
      </trkpt>
      <trkpt lat="30.591411553323269" lon="-7.148906188085675">
        <ele>1393.0899999999999</ele>
        <time>2019-03-15T14:33:01Z</time>
      </trkpt>
      <trkpt lat="30.59398571960628" lon="-7.149940179660916">
        <ele>1393.5699999999999</ele>
        <time>2019-03-15T14:33:02Z</time>
      </trkpt>
      <trkpt lat="30.595598816871643" lon="-7.150404872372747">
        <ele>1393.5699999999999</ele>
        <time>2019-03-15T14:33:03Z</time>
      </trkpt>
      <trkpt lat="30.59723655693233" lon="-7.150359358638525">
        <ele>1393.5699999999999</ele>
        <time>2019-03-15T14:33:06Z</time>
      </trkpt>
      <trkpt lat="30.597547441720963" lon="-7.150400513783097">
        <ele>1395.01</ele>
        <time>2019-03-15T14:33:08Z</time>
      </trkpt>
      <trkpt lat="30.597587591037154" lon="-7.150395233184099">
        <ele>1397.4100000000001</ele>
        <time>2019-03-15T14:33:09Z</time>
      </trkpt>
      <trkpt lat="30.597615754231811" lon="-7.150380816310644">
        <ele>1397.4100000000001</ele>
        <time>2019-03-15T14:33:10Z</time>
      </trkpt>
      <trkpt lat="30.597636038437486" lon="-7.15036204084754">
        <ele>1397.4100000000001</ele>
        <time>2019-03-15T14:33:12Z</time>
      </trkpt>
      <trkpt lat="30.597658166661859" lon="-7.150340750813484">
        <ele>1397.4100000000001</ele>
        <time>2019-03-15T14:33:13Z</time>
      </trkpt>
      <trkpt lat="30.597688425332308" lon="-7.150317113846541">
        <ele>1397.4100000000001</ele>
        <time>2019-03-15T14:33:14Z</time>
      </trkpt>
      <trkpt lat="30.598194440826774" lon="-7.149903466925025">
        <ele>1397.4100000000001</ele>
        <time>2019-03-15T14:33:20Z</time>
      </trkpt>
      <trkpt lat="30.598615715280175" lon="-7.149403654038906">
        <ele>1397.4100000000001</ele>
        <time>2019-03-15T14:33:21Z</time>
      </trkpt>
      <trkpt lat="30.598634406924248" lon="-7.149334670975804">
        <ele>1396.9300000000001</ele>
        <time>2019-03-15T14:33:22Z</time>
      </trkpt>
      <trkpt lat="30.598634155467153" lon="-7.149257892742753">
        <ele>1396.9300000000001</ele>
        <time>2019-03-15T14:33:23Z</time>
      </trkpt>
      <trkpt lat="30.598616888746619" lon="-7.149087991565466">
        <ele>1396.45</ele>
        <time>2019-03-15T14:33:24Z</time>
      </trkpt>
      <trkpt lat="30.598623929545283" lon="-7.148996461182833">
        <ele>1395.97</ele>
        <time>2019-03-15T14:33:25Z</time>
      </trkpt>
      <trkpt lat="30.598645973950624" lon="-7.14890543371439">
        <ele>1395.01</ele>
        <time>2019-03-15T14:33:26Z</time>
      </trkpt>
      <trkpt lat="30.59868436306715" lon="-7.148814992979169">
        <ele>1394.05</ele>
        <time>2019-03-15T14:33:27Z</time>
      </trkpt>
      <trkpt lat="30.598729960620403" lon="-7.148724803701043">
        <ele>1393.0899999999999</ele>
        <time>2019-03-15T14:33:28Z</time>
      </trkpt>
      <trkpt lat="30.598774133250117" lon="-7.148627573624253">
        <ele>1392.6099999999999</ele>
        <time>2019-03-15T14:33:29Z</time>
      </trkpt>
      <trkpt lat="30.598808750510216" lon="-7.14851844124496">
        <ele>1392.1300000000001</ele>
        <time>2019-03-15T14:33:33Z</time>
      </trkpt>
      <trkpt lat="30.598829202353954" lon="-7.148398412391543">
        <ele>1391.1700000000001</ele>
        <time>2019-03-15T14:33:34Z</time>
      </trkpt>
      <trkpt lat="30.598868848755956" lon="-7.148153409361839">
        <ele>1389.72</ele>
        <time>2019-03-15T14:33:35Z</time>
      </trkpt>
      <trkpt lat="30.598902460187674" lon="-7.148030446842313">
        <ele>1389.24</ele>
        <time>2019-03-15T14:33:36Z</time>
      </trkpt>
      <trkpt lat="30.598939005285501" lon="-7.147902874276042">
        <ele>1387.3199999999999</ele>
        <time>2019-03-15T14:33:37Z</time>
      </trkpt>
      <trkpt lat="30.598963899537921" lon="-7.147765997797251">
        <ele>1386.8399999999999</ele>
        <time>2019-03-15T14:33:38Z</time>
      </trkpt>
      <trkpt lat="30.598974796012044" lon="-7.147620404139161">
        <ele>1386.3599999999999</ele>
        <time>2019-03-15T14:33:39Z</time>
      </trkpt>
      <trkpt lat="30.598980160430074" lon="-7.147470200434327">
        <ele>1385.4000000000001</ele>
        <time>2019-03-15T14:33:40Z</time>
      </trkpt>
      <trkpt lat="30.598976891487837" lon="-7.146690348163247">
        <ele>1384.9200000000001</ele>
        <time>2019-03-15T14:33:41Z</time>
      </trkpt>
      <trkpt lat="30.598960211500525" lon="-7.146544838324189">
        <ele>1383.96</ele>
        <time>2019-03-15T14:33:45Z</time>
      </trkpt>
      <trkpt lat="30.598761308938265" lon="-7.145265843719244">
        <ele>1382.03</ele>
        <time>2019-03-15T14:33:46Z</time>
      </trkpt>
      <trkpt lat="30.598670030012727" lon="-7.144863847643137">
        <ele>1382.51</ele>
        <time>2019-03-15T14:33:49Z</time>
      </trkpt>
      <trkpt lat="30.598618062213063" lon="-7.14474281296134">
        <ele>1382.99</ele>
        <time>2019-03-15T14:33:54Z</time>
      </trkpt>
      <trkpt lat="30.598143227398396" lon="-7.143789455294609">
        <ele>1383.47</ele>
        <time>2019-03-15T14:34:04Z</time>
      </trkpt>
      <trkpt lat="30.597963267937303" lon="-7.143455604091287">
        <ele>1383.47</ele>
        <time>2019-03-15T14:34:05Z</time>
      </trkpt>
      <trkpt lat="30.59771147556603" lon="-7.142647337168455">
        <ele>1383.47</ele>
        <time>2019-03-15T14:34:07Z</time>
      </trkpt>
      <trkpt lat="30.597556661814451" lon="-7.141529358923435">
        <ele>1383.96</ele>
        <time>2019-03-15T14:34:08Z</time>
      </trkpt>
      <trkpt lat="30.59750041924417" lon="-7.141204308718443">
        <ele>1383.96</ele>
        <time>2019-03-15T14:34:09Z</time>
      </trkpt>
      <trkpt lat="30.59749212116003" lon="-7.141003226861358">
        <ele>1383.96</ele>
        <time>2019-03-15T14:34:23Z</time>
      </trkpt>
      <trkpt lat="30.597501676529646" lon="-7.140578683465719">
        <ele>1384.4400000000001</ele>
        <time>2019-03-15T14:34:32Z</time>
      </trkpt>
      <trkpt lat="30.597518105059862" lon="-7.140476675704122">
        <ele>1384.4400000000001</ele>
        <time>2019-03-15T14:34:44Z</time>
      </trkpt>
      <trkpt lat="30.597542831674218" lon="-7.140377433970571">
        <ele>1384.4400000000001</ele>
        <time>2019-03-15T14:34:58Z</time>
      </trkpt>
      <trkpt lat="30.597631428390741" lon="-7.14009890332818">
        <ele>1383.96</ele>
        <time>2019-03-15T14:35:08Z</time>
      </trkpt>
      <trkpt lat="30.597670655697584" lon="-7.140022460371256">
        <ele>1383.96</ele>
        <time>2019-03-15T14:35:22Z</time>
      </trkpt>
      <trkpt lat="30.597717678174376" lon="-7.139954566955566">
        <ele>1383.96</ele>
        <time>2019-03-15T14:35:39Z</time>
      </trkpt>
      <trkpt lat="30.597846591845155" lon="-7.139767315238714">
        <ele>1384.4400000000001</ele>
        <time>2019-03-15T14:35:50Z</time>
      </trkpt>
      <trkpt lat="30.59789864346385" lon="-7.139720544219017">
        <ele>1383.96</ele>
        <time>2019-03-15T14:36:02Z</time>
      </trkpt>
      <trkpt lat="30.597959496080875" lon="-7.139701768755913">
        <ele>1383.47</ele>
        <time>2019-03-15T14:36:12Z</time>
      </trkpt>
      <trkpt lat="30.598021019250154" lon="-7.139690453186631">
        <ele>1382.51</ele>
        <time>2019-03-15T14:36:24Z</time>
      </trkpt>
      <trkpt lat="30.598076675087214" lon="-7.139659943059087">
        <ele>1381.55</ele>
        <time>2019-03-15T14:36:32Z</time>
      </trkpt>
      <trkpt lat="30.598125541582704" lon="-7.139604790136218">
        <ele>1381.0699999999999</ele>
        <time>2019-03-15T14:36:33Z</time>
      </trkpt>
      <trkpt lat="30.598171474412084" lon="-7.139536309987307">
        <ele>1380.5899999999999</ele>
        <time>2019-03-15T14:36:34Z</time>
      </trkpt>
      <trkpt lat="30.598224531859159" lon="-7.139469590038061">
        <ele>1380.1099999999999</ele>
        <time>2019-03-15T14:36:43Z</time>
      </trkpt>
      <trkpt lat="30.598290581256151" lon="-7.13941284455359">
        <ele>1380.1099999999999</ele>
        <time>2019-03-15T14:36:44Z</time>
      </trkpt>
      <trkpt lat="30.598368952050805" lon="-7.139366324990988">
        <ele>1379.6300000000001</ele>
        <time>2019-03-15T14:36:48Z</time>
      </trkpt>
      <trkpt lat="30.598612111061811" lon="-7.139229029417038">
        <ele>1379.6300000000001</ele>
        <time>2019-03-15T14:36:58Z</time>
      </trkpt>
      <trkpt lat="30.598769774660468" lon="-7.139115538448095">
        <ele>1378.1900000000001</ele>
        <time>2019-03-15T14:36:59Z</time>
      </trkpt>
      <trkpt lat="30.598857533186674" lon="-7.139077987521887">
        <ele>1378.1900000000001</ele>
        <time>2019-03-15T14:37:00Z</time>
      </trkpt>
      <trkpt lat="30.598955182358623" lon="-7.139057200402021">
        <ele>1377.71</ele>
        <time>2019-03-15T14:37:03Z</time>
      </trkpt>
      <trkpt lat="30.599149139598012" lon="-7.139027612283826">
        <ele>1377.23</ele>
        <time>2019-03-15T14:37:04Z</time>
      </trkpt>
      <trkpt lat="30.599238155409694" lon="-7.13900045491755">
        <ele>1376.75</ele>
        <time>2019-03-15T14:37:05Z</time>
      </trkpt>
      <trkpt lat="30.59932348318398" lon="-7.138960221782327">
        <ele>1376.75</ele>
        <time>2019-03-15T14:37:06Z</time>
      </trkpt>
      <trkpt lat="30.599734699353576" lon="-7.138725528493524">
        <ele>1376.26</ele>
        <time>2019-03-15T14:37:07Z</time>
      </trkpt>
      <trkpt lat="30.599795300513506" lon="-7.138672303408384">
        <ele>1376.75</ele>
        <time>2019-03-15T14:37:08Z</time>
      </trkpt>
      <trkpt lat="30.599849196150899" lon="-7.138609690591693">
        <ele>1376.26</ele>
        <time>2019-03-15T14:37:09Z</time>
      </trkpt>
      <trkpt lat="30.59989127330482" lon="-7.138541378080845">
        <ele>1376.26</ele>
        <time>2019-03-15T14:37:10Z</time>
      </trkpt>
      <trkpt lat="30.599924046546221" lon="-7.138473065569997">
        <ele>1375.78</ele>
        <time>2019-03-15T14:37:15Z</time>
      </trkpt>
      <trkpt lat="30.599958496168256" lon="-7.138412883505225">
        <ele>1375.78</ele>
        <time>2019-03-15T14:37:16Z</time>
      </trkpt>
      <trkpt lat="30.600001830607653" lon="-7.138363514095545">
        <ele>1375.78</ele>
        <time>2019-03-15T14:37:17Z</time>
      </trkpt>
      <trkpt lat="30.600049775093794" lon="-7.138320682570338">
        <ele>1375.3</ele>
        <time>2019-03-15T14:37:18Z</time>
      </trkpt>
      <trkpt lat="30.600098557770252" lon="-7.138285646215081">
        <ele>1375.3</ele>
        <time>2019-03-15T14:37:19Z</time>
      </trkpt>
      <trkpt lat="30.600149855017662" lon="-7.138255722820759">
        <ele>1375.3</ele>
        <time>2019-03-15T14:37:20Z</time>
      </trkpt>
      <trkpt lat="30.600394019857049" lon="-7.138152625411749">
        <ele>1375.3</ele>
        <time>2019-03-15T14:37:21Z</time>
      </trkpt>
      <trkpt lat="30.600466188043356" lon="-7.138138627633452">
        <ele>1375.3</ele>
        <time>2019-03-15T14:37:22Z</time>
      </trkpt>
      <trkpt lat="30.600540703162551" lon="-7.138138376176357">
        <ele>1375.3</ele>
        <time>2019-03-15T14:37:23Z</time>
      </trkpt>
      <trkpt lat="30.600614715367556" lon="-7.138146087527275">
        <ele>1375.78</ele>
        <time>2019-03-15T14:37:24Z</time>
      </trkpt>
      <trkpt lat="30.60068478807807" lon="-7.138158828020096">
        <ele>1375.78</ele>
        <time>2019-03-15T14:37:25Z</time>
      </trkpt>
      <trkpt lat="30.600747484713793" lon="-7.138180453330278">
        <ele>1375.78</ele>
        <time>2019-03-15T14:37:26Z</time>
      </trkpt>
      <trkpt lat="30.600801464170218" lon="-7.138209119439125">
        <ele>1375.3</ele>
        <time>2019-03-15T14:37:27Z</time>
      </trkpt>
      <trkpt lat="30.600851336494088" lon="-7.138246586546302">
        <ele>1376.26</ele>
        <time>2019-03-15T14:37:28Z</time>
      </trkpt>
      <trkpt lat="30.600903052836657" lon="-7.138289334252477">
        <ele>1376.26</ele>
        <time>2019-03-15T14:37:29Z</time>
      </trkpt>
      <trkpt lat="30.601092400029302" lon="-7.138427635654807">
        <ele>1376.26</ele>
        <time>2019-03-15T14:37:31Z</time>
      </trkpt>
      <trkpt lat="30.601132046431303" lon="-7.138428557664156">
        <ele>1376.26</ele>
        <time>2019-03-15T14:37:32Z</time>
      </trkpt>
      <trkpt lat="30.601244615390897" lon="-7.138431407511234">
        <ele>1376.26</ele>
        <time>2019-03-15T14:37:35Z</time>
      </trkpt>
      <trkpt lat="30.601432118564844" lon="-7.138554872944951">
        <ele>1374.8199999999999</ele>
        <time>2019-03-15T14:37:36Z</time>
      </trkpt>
      <trkpt lat="30.601819781586528" lon="-7.138879504054785">
        <ele>1374.3399999999999</ele>
        <time>2019-03-15T14:37:38Z</time>
      </trkpt>
      <trkpt lat="30.601855991408229" lon="-7.138923676684499">
        <ele>1373.8599999999999</ele>
        <time>2019-03-15T14:37:39Z</time>
      </trkpt>
      <trkpt lat="30.601919274777174" lon="-7.139016212895513">
        <ele>1375.3</ele>
        <time>2019-03-15T14:37:40Z</time>
      </trkpt>
      <trkpt lat="30.601954478770494" lon="-7.13905761949718">
        <ele>1375.78</ele>
        <time>2019-03-15T14:37:41Z</time>
      </trkpt>
      <trkpt lat="30.601993035525084" lon="-7.139095086604357">
        <ele>1377.71</ele>
        <time>2019-03-15T14:37:42Z</time>
      </trkpt>
      <trkpt lat="30.602542050182819" lon="-7.139497585594654">
        <ele>1375.3</ele>
        <time>2019-03-15T14:37:43Z</time>
      </trkpt>
      <trkpt lat="30.602684877812862" lon="-7.1397162694484">
        <ele>1373.3800000000001</ele>
        <time>2019-03-15T14:37:44Z</time>
      </trkpt>
      <trkpt lat="30.60286508873105" lon="-7.13997719809413">
        <ele>1373.3800000000001</ele>
        <time>2019-03-15T14:37:56Z</time>
      </trkpt>
      <trkpt lat="30.603182092308998" lon="-7.14034709148109">
        <ele>1373.3800000000001</ele>
        <time>2019-03-15T14:37:57Z</time>
      </trkpt>
      <trkpt lat="30.603462131693959" lon="-7.140596956014633">
        <ele>1372.9000000000001</ele>
        <time>2019-03-15T14:37:58Z</time>
      </trkpt>
      <trkpt lat="30.603702021762729" lon="-7.140808263793588">
        <ele>1373.3800000000001</ele>
        <time>2019-03-15T14:37:59Z</time>
      </trkpt>
      <trkpt lat="30.603907462209463" lon="-7.140982272103429">
        <ele>1373.3800000000001</ele>
        <time>2019-03-15T14:38:04Z</time>
      </trkpt>
      <trkpt lat="30.604070406407118" lon="-7.141143204644322">
        <ele>1373.3800000000001</ele>
        <time>2019-03-15T14:38:07Z</time>
      </trkpt>
      <trkpt lat="30.604393361136317" lon="-7.141476217657328">
        <ele>1373.8599999999999</ele>
        <time>2019-03-15T14:38:08Z</time>
      </trkpt>
      <trkpt lat="30.604688404127955" lon="-7.141767991706729">
        <ele>1373.8599999999999</ele>
        <time>2019-03-15T14:38:18Z</time>
      </trkpt>
      <trkpt lat="30.605023177340627" lon="-7.141986424103379">
        <ele>1372.9000000000001</ele>
        <time>2019-03-15T14:38:19Z</time>
      </trkpt>
      <trkpt lat="30.605365075170994" lon="-7.142252717167139">
        <ele>1372.4200000000001</ele>
        <time>2019-03-15T14:38:20Z</time>
      </trkpt>
      <trkpt lat="30.605406481772661" lon="-7.142296638339758">
        <ele>1372.4200000000001</ele>
        <time>2019-03-15T14:38:21Z</time>
      </trkpt>
      <trkpt lat="30.605445876717567" lon="-7.142343325540423">
        <ele>1372.4200000000001</ele>
        <time>2019-03-15T14:38:22Z</time>
      </trkpt>
      <trkpt lat="30.605728011578321" lon="-7.142674578353763">
        <ele>1372.4200000000001</ele>
        <time>2019-03-15T14:38:33Z</time>
      </trkpt>
      <trkpt lat="30.605766652151942" lon="-7.142716152593494">
        <ele>1372.4200000000001</ele>
        <time>2019-03-15T14:38:34Z</time>
      </trkpt>
      <trkpt lat="30.605960190296173" lon="-7.142923185601831">
        <ele>1372.9000000000001</ele>
        <time>2019-03-15T14:38:35Z</time>
      </trkpt>
      <trkpt lat="30.606420105323195" lon="-7.143576303496957">
        <ele>1372.9000000000001</ele>
        <time>2019-03-15T14:38:37Z</time>
      </trkpt>
      <trkpt lat="30.606447765603662" lon="-7.14363413862884">
        <ele>1373.3800000000001</ele>
        <time>2019-03-15T14:38:50Z</time>
      </trkpt>
      <trkpt lat="30.606466541066766" lon="-7.143686357885599">
        <ele>1373.8599999999999</ele>
        <time>2019-03-15T14:39:02Z</time>
      </trkpt>
      <trkpt lat="30.606509791687131" lon="-7.143833125010133">
        <ele>1374.3399999999999</ele>
        <time>2019-03-15T14:39:08Z</time>
      </trkpt>
      <trkpt lat="30.606533847749233" lon="-7.143886685371399">
        <ele>1373.8599999999999</ele>
        <time>2019-03-15T14:39:11Z</time>
      </trkpt>
      <trkpt lat="30.606565279886127" lon="-7.143940161913633">
        <ele>1373.8599999999999</ele>
        <time>2019-03-15T14:39:13Z</time>
      </trkpt>
      <trkpt lat="30.606601573526859" lon="-7.143993051722646">
        <ele>1373.3800000000001</ele>
        <time>2019-03-15T14:39:24Z</time>
      </trkpt>
      <trkpt lat="30.606644824147224" lon="-7.144042169675231">
        <ele>1373.3800000000001</ele>
        <time>2019-03-15T14:39:34Z</time>
      </trkpt>
      <trkpt lat="30.606694528833032" lon="-7.144086845219135">
        <ele>1373.3800000000001</ele>
        <time>2019-03-15T14:39:43Z</time>
      </trkpt>
      <trkpt lat="30.606753705069423" lon="-7.14412959292531">
        <ele>1373.3800000000001</ele>
        <time>2019-03-15T14:39:52Z</time>
      </trkpt>
      <trkpt lat="30.606818329542875" lon="-7.144170328974724">
        <ele>1373.3800000000001</ele>
        <time>2019-03-15T14:39:55Z</time>
      </trkpt>
      <trkpt lat="30.607150588184595" lon="-7.144442405551672">
        <ele>1373.8599999999999</ele>
        <time>2019-03-15T14:39:56Z</time>
      </trkpt>
      <trkpt lat="30.607203226536512" lon="-7.144512897357345">
        <ele>1373.8599999999999</ele>
        <time>2019-03-15T14:39:57Z</time>
      </trkpt>
      <trkpt lat="30.60724463313818" lon="-7.144588753581047">
        <ele>1373.3800000000001</ele>
        <time>2019-03-15T14:39:58Z</time>
      </trkpt>
      <trkpt lat="30.607276232913136" lon="-7.144669471308589">
        <ele>1373.3800000000001</ele>
        <time>2019-03-15T14:39:59Z</time>
      </trkpt>
      <trkpt lat="30.607297606766224" lon="-7.144754463806748">
        <ele>1372.9000000000001</ele>
        <time>2019-03-15T14:40:07Z</time>
      </trkpt>
      <trkpt lat="30.607307078316808" lon="-7.144842306151986">
        <ele>1372.4200000000001</ele>
        <time>2019-03-15T14:40:15Z</time>
      </trkpt>
      <trkpt lat="30.607305150479078" lon="-7.144931154325604">
        <ele>1371.46</ele>
        <time>2019-03-15T14:40:16Z</time>
      </trkpt>
      <trkpt lat="30.607297858223319" lon="-7.145021259784699">
        <ele>1370.98</ele>
        <time>2019-03-15T14:40:17Z</time>
      </trkpt>
      <trkpt lat="30.607296684756875" lon="-7.14510734193027">
        <ele>1370.98</ele>
        <time>2019-03-15T14:40:18Z</time>
      </trkpt>
      <trkpt lat="30.607306994497776" lon="-7.145185545086861">
        <ele>1370.98</ele>
        <time>2019-03-15T14:40:19Z</time>
      </trkpt>
      <trkpt lat="30.607329290360212" lon="-7.145257964730263">
        <ele>1370.98</ele>
        <time>2019-03-15T14:40:20Z</time>
      </trkpt>
      <trkpt lat="30.607364326715469" lon="-7.145327283069491">
        <ele>1371.9400000000001</ele>
        <time>2019-03-15T14:40:21Z</time>
      </trkpt>
      <trkpt lat="30.607407912611961" lon="-7.145387046039105">
        <ele>1372.4200000000001</ele>
        <time>2019-03-15T14:40:22Z</time>
      </trkpt>
      <trkpt lat="30.607455186545849" lon="-7.145432140678167">
        <ele>1372.4200000000001</ele>
        <time>2019-03-15T14:40:23Z</time>
      </trkpt>
      <trkpt lat="30.607497012242675" lon="-7.14546793140471">
        <ele>1372.9000000000001</ele>
        <time>2019-03-15T14:40:24Z</time>
      </trkpt>
      <trkpt lat="30.607567755505443" lon="-7.14552509598434">
        <ele>1372.9000000000001</ele>
        <time>2019-03-15T14:40:25Z</time>
      </trkpt>
      <trkpt lat="30.607603043317795" lon="-7.145562563091517">
        <ele>1372.9000000000001</ele>
        <time>2019-03-15T14:40:32Z</time>
      </trkpt>
      <trkpt lat="30.60771225951612" lon="-7.145715113729239">
        <ele>1373.3800000000001</ele>
        <time>2019-03-15T14:40:33Z</time>
      </trkpt>
      <trkpt lat="30.607741679996252" lon="-7.145780241116881">
        <ele>1373.3800000000001</ele>
        <time>2019-03-15T14:40:34Z</time>
      </trkpt>
      <trkpt lat="30.607797000557184" lon="-7.145906472578645">
        <ele>1373.8599999999999</ele>
        <time>2019-03-15T14:40:38Z</time>
      </trkpt>
      <trkpt lat="30.607834551483393" lon="-7.14595609344542">
        <ele>1375.3</ele>
        <time>2019-03-15T14:40:39Z</time>
      </trkpt>
      <trkpt lat="30.607876880094409" lon="-7.145999679341912">
        <ele>1375.3</ele>
        <time>2019-03-15T14:40:40Z</time>
      </trkpt>
      <trkpt lat="30.607923734933138" lon="-7.14603865519166">
        <ele>1375.3</ele>
        <time>2019-03-15T14:40:41Z</time>
      </trkpt>
      <trkpt lat="30.607975786551833" lon="-7.146073440089822">
        <ele>1375.3</ele>
        <time>2019-03-15T14:40:42Z</time>
      </trkpt>
      <trkpt lat="30.608035884797573" lon="-7.146098921075463">
        <ele>1374.8199999999999</ele>
        <time>2019-03-15T14:40:43Z</time>
      </trkpt>
      <trkpt lat="30.60810268856585" lon="-7.146117696538568">
        <ele>1375.3</ele>
        <time>2019-03-15T14:40:44Z</time>
      </trkpt>
      <trkpt lat="30.608905255794525" lon="-7.146466802805662">
        <ele>1375.3</ele>
        <time>2019-03-15T14:40:45Z</time>
      </trkpt>
      <trkpt lat="30.608961498364806" lon="-7.146498402580619">
        <ele>1373.8599999999999</ele>
        <time>2019-03-15T14:40:46Z</time>
      </trkpt>
      <trkpt lat="30.609016735106707" lon="-7.146534947678447">
        <ele>1373.3800000000001</ele>
        <time>2019-03-15T14:40:58Z</time>
      </trkpt>
      <trkpt lat="30.609069541096687" lon="-7.146576186642051">
        <ele>1372.4200000000001</ele>
        <time>2019-03-15T14:41:02Z</time>
      </trkpt>
      <trkpt lat="30.609325189143419" lon="-7.146792691200972">
        <ele>1371.9400000000001</ele>
        <time>2019-03-15T14:41:03Z</time>
      </trkpt>
      <trkpt lat="30.609448654577136" lon="-7.146961502730846">
        <ele>1371.9400000000001</ele>
        <time>2019-03-15T14:41:04Z</time>
      </trkpt>
      <trkpt lat="30.609482517465949" lon="-7.147019254043698">
        <ele>1372.4200000000001</ele>
        <time>2019-03-15T14:41:12Z</time>
      </trkpt>
      <trkpt lat="30.609721569344401" lon="-7.147604646161199">
        <ele>1372.4200000000001</ele>
        <time>2019-03-15T14:41:20Z</time>
      </trkpt>
      <trkpt lat="30.609748810529709" lon="-7.147639933973551">
        <ele>1372.4200000000001</ele>
        <time>2019-03-15T14:41:22Z</time>
      </trkpt>
      <trkpt lat="30.60977429151535" lon="-7.147666253149509">
        <ele>1372.4200000000001</ele>
        <time>2019-03-15T14:41:23Z</time>
      </trkpt>
      <trkpt lat="30.609797509387136" lon="-7.147684190422297">
        <ele>1373.3800000000001</ele>
        <time>2019-03-15T14:41:24Z</time>
      </trkpt>
      <trkpt lat="30.609817123040557" lon="-7.147697517648339">
        <ele>1374.3399999999999</ele>
        <time>2019-03-15T14:41:25Z</time>
      </trkpt>
      <trkpt lat="30.610183496028185" lon="-7.147960374131799">
        <ele>1375.78</ele>
        <time>2019-03-15T14:41:26Z</time>
      </trkpt>
      <trkpt lat="30.610228674486279" lon="-7.147997170686722">
        <ele>1375.78</ele>
        <time>2019-03-15T14:41:31Z</time>
      </trkpt>
      <trkpt lat="30.610270667821169" lon="-7.148035811260343">
        <ele>1375.3</ele>
        <time>2019-03-15T14:41:32Z</time>
      </trkpt>
      <trkpt lat="30.610366137698293" lon="-7.148101525381208">
        <ele>1372.4200000000001</ele>
        <time>2019-03-15T14:41:33Z</time>
      </trkpt>
      <trkpt lat="30.611081700772047" lon="-7.148414505645633">
        <ele>1369.05</ele>
        <time>2019-03-15T14:41:34Z</time>
      </trkpt>
      <trkpt lat="30.611596181988716" lon="-7.148925550282002">
        <ele>1367.1300000000001</ele>
        <time>2019-03-15T14:41:35Z</time>
      </trkpt>
      <trkpt lat="30.611724592745304" lon="-7.148977182805538">
        <ele>1368.0899999999999</ele>
        <time>2019-03-15T14:41:39Z</time>
      </trkpt>
      <trkpt lat="30.611767256632447" lon="-7.148921610787511">
        <ele>1368.5699999999999</ele>
        <time>2019-03-15T14:41:40Z</time>
      </trkpt>
      <trkpt lat="30.61179131269455" lon="-7.14883460663259">
        <ele>1369.05</ele>
        <time>2019-03-15T14:41:48Z</time>
      </trkpt>
      <trkpt lat="30.612010080367327" lon="-7.14809138327837">
        <ele>1369.05</ele>
        <time>2019-03-15T14:41:49Z</time>
      </trkpt>
      <trkpt lat="30.612568650394678" lon="-7.147302981466055">
        <ele>1369.54</ele>
        <time>2019-03-15T14:41:50Z</time>
      </trkpt>
      <trkpt lat="30.613240962848067" lon="-7.146365381777287">
        <ele>1370.02</ele>
        <time>2019-03-15T14:41:56Z</time>
      </trkpt>
      <trkpt lat="30.613943198695779" lon="-7.14589549228549">
        <ele>1370.5</ele>
        <time>2019-03-15T14:41:57Z</time>
      </trkpt>
      <trkpt lat="30.614210832864046" lon="-7.14574545621872">
        <ele>1371.46</ele>
        <time>2019-03-15T14:41:58Z</time>
      </trkpt>
      <trkpt lat="30.614312589168549" lon="-7.145718969404697">
        <ele>1371.9400000000001</ele>
        <time>2019-03-15T14:42:00Z</time>
      </trkpt>
      <trkpt lat="30.614417782053351" lon="-7.145708408206701">
        <ele>1371.9400000000001</ele>
        <time>2019-03-15T14:42:01Z</time>
      </trkpt>
      <trkpt lat="30.614523058757186" lon="-7.145710336044431">
        <ele>1371.46</ele>
        <time>2019-03-15T14:42:02Z</time>
      </trkpt>
      <trkpt lat="30.614620372653008" lon="-7.145716454833746">
        <ele>1370.98</ele>
        <time>2019-03-15T14:42:04Z</time>
      </trkpt>
      <trkpt lat="30.615513045340776" lon="-7.145834639668465">
        <ele>1370.5</ele>
        <time>2019-03-15T14:42:05Z</time>
      </trkpt>
      <trkpt lat="30.616649044677615" lon="-7.145964726805687">
        <ele>1370.02</ele>
        <time>2019-03-15T14:42:06Z</time>
      </trkpt>
      <trkpt lat="30.616769744083285" lon="-7.145951651036739">
        <ele>1369.05</ele>
        <time>2019-03-15T14:42:07Z</time>
      </trkpt>
      <trkpt lat="30.616883402690291" lon="-7.145918039605022">
        <ele>1368.0899999999999</ele>
        <time>2019-03-15T14:42:08Z</time>
      </trkpt>
      <trkpt lat="30.616988763213158" lon="-7.145869676023722">
        <ele>1368.0899999999999</ele>
        <time>2019-03-15T14:42:09Z</time>
      </trkpt>
      <trkpt lat="30.617078533396125" lon="-7.145808571949601">
        <ele>1367.6099999999999</ele>
        <time>2019-03-15T14:42:10Z</time>
      </trkpt>
      <trkpt lat="30.617149779573083" lon="-7.145731374621391">
        <ele>1366.6500000000001</ele>
        <time>2019-03-15T14:42:11Z</time>
      </trkpt>
      <trkpt lat="30.617200238630176" lon="-7.145638084039092">
        <ele>1367.1300000000001</ele>
        <time>2019-03-15T14:42:12Z</time>
      </trkpt>
      <trkpt lat="30.617227731272578" lon="-7.14552802965045">
        <ele>1368.0899999999999</ele>
        <time>2019-03-15T14:42:13Z</time>
      </trkpt>
      <trkpt lat="30.617227563634515" lon="-7.145404983311892">
        <ele>1370.5</ele>
        <time>2019-03-15T14:42:14Z</time>
      </trkpt>
      <trkpt lat="30.617209374904633" lon="-7.145276656374335">
        <ele>1370.98</ele>
        <time>2019-03-15T14:42:16Z</time>
      </trkpt>
      <trkpt lat="30.617187330499291" lon="-7.145145563408732">
        <ele>1371.46</ele>
        <time>2019-03-15T14:42:17Z</time>
      </trkpt>
      <trkpt lat="30.617071744054556" lon="-7.144163958728313">
        <ele>1371.9400000000001</ele>
        <time>2019-03-15T14:42:18Z</time>
      </trkpt>
      <trkpt lat="30.617094961926341" lon="-7.14402012526989">
        <ele>1372.4200000000001</ele>
        <time>2019-03-15T14:42:19Z</time>
      </trkpt>
      <trkpt lat="30.617138715460896" lon="-7.143882159143686">
        <ele>1372.9000000000001</ele>
        <time>2019-03-15T14:42:20Z</time>
      </trkpt>
      <trkpt lat="30.617322698235512" lon="-7.143305316567421">
        <ele>1373.3800000000001</ele>
        <time>2019-03-15T14:42:21Z</time>
      </trkpt>
      <trkpt lat="30.617338623851538" lon="-7.143142288550735">
        <ele>1374.3399999999999</ele>
        <time>2019-03-15T14:42:22Z</time>
      </trkpt>
      <trkpt lat="30.61733384616673" lon="-7.142975488677621">
        <ele>1375.3</ele>
        <time>2019-03-15T14:42:23Z</time>
      </trkpt>
      <trkpt lat="30.617310795933008" lon="-7.14280541986227">
        <ele>1381.0699999999999</ele>
        <time>2019-03-15T14:42:24Z</time>
      </trkpt>
      <trkpt lat="30.617270981892943" lon="-7.142636189237237">
        <ele>1379.6300000000001</ele>
        <time>2019-03-15T14:42:25Z</time>
      </trkpt>
      <trkpt lat="30.617211805656552" lon="-7.142470562830567">
        <ele>1379.1500000000001</ele>
        <time>2019-03-15T14:42:26Z</time>
      </trkpt>
      <trkpt lat="30.617137625813484" lon="-7.142310217022896">
        <ele>1378.6700000000001</ele>
        <time>2019-03-15T14:42:28Z</time>
      </trkpt>
      <trkpt lat="30.61705288477242" lon="-7.142154565081">
        <ele>1375.78</ele>
        <time>2019-03-15T14:42:29Z</time>
      </trkpt>
      <trkpt lat="30.616960600018501" lon="-7.142000673338771">
        <ele>1375.3</ele>
        <time>2019-03-15T14:42:30Z</time>
      </trkpt>
      <trkpt lat="30.615689568221569" lon="-7.140257405117154">
        <ele>1374.3399999999999</ele>
        <time>2019-03-15T14:42:31Z</time>
      </trkpt>
      <trkpt lat="30.61525228433311" lon="-7.139594396576285">
        <ele>1373.3800000000001</ele>
        <time>2019-03-15T14:42:32Z</time>
      </trkpt>
      <trkpt lat="30.615156227722764" lon="-7.139386776834726">
        <ele>1372.9000000000001</ele>
        <time>2019-03-15T14:42:33Z</time>
      </trkpt>
      <trkpt lat="30.615069894120097" lon="-7.13917194865644">
        <ele>1372.9000000000001</ele>
        <time>2019-03-15T14:42:34Z</time>
      </trkpt>
      <trkpt lat="30.614366987720132" lon="-7.137472769245505">
        <ele>1372.4200000000001</ele>
        <time>2019-03-15T14:42:36Z</time>
      </trkpt>
      <trkpt lat="30.613385383039713" lon="-7.136032423004508">
        <ele>1370.98</ele>
        <time>2019-03-15T14:42:37Z</time>
      </trkpt>
      <trkpt lat="30.61314876191318" lon="-7.135694213211536">
        <ele>1370.5</ele>
        <time>2019-03-15T14:42:39Z</time>
      </trkpt>
      <trkpt lat="30.613053292036057" lon="-7.135506961494684">
        <ele>1370.5</ele>
        <time>2019-03-15T14:42:47Z</time>
      </trkpt>
      <trkpt lat="30.612969389185309" lon="-7.135308980941773">
        <ele>1370.5</ele>
        <time>2019-03-15T14:42:54Z</time>
      </trkpt>
      <trkpt lat="30.612896969541907" lon="-7.135106138885021">
        <ele>1370.5</ele>
        <time>2019-03-15T14:43:02Z</time>
      </trkpt>
      <trkpt lat="30.612833686172962" lon="-7.134901117533445">
        <ele>1369.05</ele>
        <time>2019-03-15T14:43:11Z</time>
      </trkpt>
      <trkpt lat="30.612612823024392" lon="-7.133924206718803">
        <ele>1368.5699999999999</ele>
        <time>2019-03-15T14:43:21Z</time>
      </trkpt>
      <trkpt lat="30.612604273483157" lon="-7.133740559220314">
        <ele>1367.1300000000001</ele>
        <time>2019-03-15T14:43:29Z</time>
      </trkpt>
      <trkpt lat="30.612616259604692" lon="-7.133554816246033">
        <ele>1367.1300000000001</ele>
        <time>2019-03-15T14:43:41Z</time>
      </trkpt>
      <trkpt lat="30.612650457769632" lon="-7.133370833471417">
        <ele>1367.1300000000001</ele>
        <time>2019-03-15T14:43:51Z</time>
      </trkpt>
      <trkpt lat="30.612699072808027" lon="-7.13318919762969">
        <ele>1369.05</ele>
        <time>2019-03-15T14:44:01Z</time>
      </trkpt>
      <trkpt lat="30.612862017005682" lon="-7.132484782487154">
        <ele>1369.54</ele>
        <time>2019-03-15T14:44:02Z</time>
      </trkpt>
      <trkpt lat="30.612870147451758" lon="-7.132298033684492">
        <ele>1370.02</ele>
        <time>2019-03-15T14:44:10Z</time>
      </trkpt>
      <trkpt lat="30.612942315638065" lon="-7.130648475140333">
        <ele>1370.02</ele>
        <time>2019-03-15T14:44:11Z</time>
      </trkpt>
      <trkpt lat="30.612996714189649" lon="-7.130449991673231">
        <ele>1370.02</ele>
        <time>2019-03-15T14:44:12Z</time>
      </trkpt>
      <trkpt lat="30.613067960366607" lon="-7.130256704986095">
        <ele>1369.54</ele>
        <time>2019-03-15T14:44:13Z</time>
      </trkpt>
      <trkpt lat="30.61360951513052" lon="-7.129124393686652">
        <ele>1368.5699999999999</ele>
        <time>2019-03-15T14:44:14Z</time>
      </trkpt>
      <trkpt lat="30.613723928108811" lon="-7.128975363448262">
        <ele>1368.0899999999999</ele>
        <time>2019-03-15T14:44:15Z</time>
      </trkpt>
      <trkpt lat="30.613839514553547" lon="-7.12885164655745">
        <ele>1368.0899999999999</ele>
        <time>2019-03-15T14:44:16Z</time>
      </trkpt>
      <trkpt lat="30.614041015505791" lon="-7.128623742610216">
        <ele>1367.1300000000001</ele>
        <time>2019-03-15T14:44:17Z</time>
      </trkpt>
      <trkpt lat="30.614113602787256" lon="-7.128488123416901">
        <ele>1366.6500000000001</ele>
        <time>2019-03-15T14:44:18Z</time>
      </trkpt>
      <trkpt lat="30.614172276109457" lon="-7.128335069864988">
        <ele>1365.6900000000001</ele>
        <time>2019-03-15T14:44:22Z</time>
      </trkpt>
      <trkpt lat="30.614292304962873" lon="-7.128016473725438">
        <ele>1364.25</ele>
        <time>2019-03-15T14:44:32Z</time>
      </trkpt>
      <trkpt lat="30.614377465099096" lon="-7.127870628610253">
        <ele>1362.8099999999999</ele>
        <time>2019-03-15T14:44:40Z</time>
      </trkpt>
      <trkpt lat="30.614483579993248" lon="-7.127737356349826">
        <ele>1362.3299999999999</ele>
        <time>2019-03-15T14:44:48Z</time>
      </trkpt>
      <trkpt lat="30.614605285227299" lon="-7.127613388001919">
        <ele>1361.8399999999999</ele>
        <time>2019-03-15T14:44:50Z</time>
      </trkpt>
      <trkpt lat="30.614742748439312" lon="-7.127494951710105">
        <ele>1361.8399999999999</ele>
        <time>2019-03-15T14:44:51Z</time>
      </trkpt>
      <trkpt lat="30.614896472543478" lon="-7.127383640035987">
        <ele>1361.3599999999999</ele>
        <time>2019-03-15T14:44:58Z</time>
      </trkpt>
      <trkpt lat="30.615061847493052" lon="-7.127282302826643">
        <ele>1361.3599999999999</ele>
        <time>2019-03-15T14:45:01Z</time>
      </trkpt>
      <trkpt lat="30.615233425050974" lon="-7.127194879576564">
        <ele>1361.3599999999999</ele>
        <time>2019-03-15T14:45:02Z</time>
      </trkpt>
      <trkpt lat="30.615410199388862" lon="-7.127126483246684">
        <ele>1361.3599999999999</ele>
        <time>2019-03-15T14:45:03Z</time>
      </trkpt>
      <trkpt lat="30.615587644279003" lon="-7.127083064988256">
        <ele>1361.3599999999999</ele>
        <time>2019-03-15T14:45:04Z</time>
      </trkpt>
      <trkpt lat="30.615761484950781" lon="-7.127054901793599">
        <ele>1361.3599999999999</ele>
        <time>2019-03-15T14:45:05Z</time>
      </trkpt>
      <trkpt lat="30.616071866825223" lon="-7.126971669495106">
        <ele>1360.8800000000001</ele>
        <time>2019-03-15T14:45:06Z</time>
      </trkpt>
      <trkpt lat="30.616212179884315" lon="-7.126902602612972">
        <ele>1360.4000000000001</ele>
        <time>2019-03-15T14:45:07Z</time>
      </trkpt>
      <trkpt lat="30.616354839876294" lon="-7.126838313415647">
        <ele>1359.9200000000001</ele>
        <time>2019-03-15T14:45:08Z</time>
      </trkpt>
      <trkpt lat="30.61650219373405" lon="-7.126799337565899">
        <ele>1359.9200000000001</ele>
        <time>2019-03-15T14:45:16Z</time>
      </trkpt>
      <trkpt lat="30.616646865382791" lon="-7.126791207119823">
        <ele>1359.4400000000001</ele>
        <time>2019-03-15T14:45:25Z</time>
      </trkpt>
      <trkpt lat="30.616776617243886" lon="-7.126800427213311">
        <ele>1358.96</ele>
        <time>2019-03-15T14:45:26Z</time>
      </trkpt>
      <trkpt lat="30.616890275850892" lon="-7.126807970926166">
        <ele>1358.96</ele>
        <time>2019-03-15T14:45:27Z</time>
      </trkpt>
      <trkpt lat="30.616993205621839" lon="-7.126793889328837">
        <ele>1358.96</ele>
        <time>2019-03-15T14:45:30Z</time>
      </trkpt>
      <trkpt lat="30.617083646357059" lon="-7.126744687557221">
        <ele>1358.96</ele>
        <time>2019-03-15T14:45:31Z</time>
      </trkpt>
      <trkpt lat="30.617166040465236" lon="-7.126663634553552">
        <ele>1359.4400000000001</ele>
        <time>2019-03-15T14:45:32Z</time>
      </trkpt>
      <trkpt lat="30.617246506735682" lon="-7.126563722267747">
        <ele>1359.9200000000001</ele>
        <time>2019-03-15T14:45:33Z</time>
      </trkpt>
      <trkpt lat="30.617426801472902" lon="-7.12634545750916">
        <ele>1360.4000000000001</ele>
        <time>2019-03-15T14:45:34Z</time>
      </trkpt>
      <trkpt lat="30.617540879175067" lon="-7.126251244917512">
        <ele>1361.3599999999999</ele>
        <time>2019-03-15T14:45:35Z</time>
      </trkpt>
      <trkpt lat="30.617670966312289" lon="-7.126182764768601">
        <ele>1362.3299999999999</ele>
        <time>2019-03-15T14:45:36Z</time>
      </trkpt>
      <trkpt lat="30.617815554141998" lon="-7.126145549118519">
        <ele>1363.77</ele>
        <time>2019-03-15T14:45:37Z</time>
      </trkpt>
      <trkpt lat="30.617969529703259" lon="-7.12613339535892">
        <ele>1363.29</ele>
        <time>2019-03-15T14:45:38Z</time>
      </trkpt>
      <trkpt lat="30.618126522749662" lon="-7.126136412844062">
        <ele>1362.8099999999999</ele>
        <time>2019-03-15T14:45:39Z</time>
      </trkpt>
      <trkpt lat="30.618282090872526" lon="-7.126149572432041">
        <ele>1363.29</ele>
        <time>2019-03-15T14:45:40Z</time>
      </trkpt>
      <trkpt lat="30.618573110550642" lon="-7.126166922971606">
        <ele>1361.3599999999999</ele>
        <time>2019-03-15T14:45:41Z</time>
      </trkpt>
      <trkpt lat="30.618713926523924" lon="-7.126146890223026">
        <ele>1358.48</ele>
        <time>2019-03-15T14:45:42Z</time>
      </trkpt>
      <trkpt lat="30.61899958178401" lon="-7.126093162223697">
        <ele>1358</ele>
        <time>2019-03-15T14:45:43Z</time>
      </trkpt>
      <trkpt lat="30.62033305875957" lon="-7.125819660723209">
        <ele>1357.04</ele>
        <time>2019-03-15T14:45:44Z</time>
      </trkpt>
      <trkpt lat="30.621551452204585" lon="-7.125065792351961">
        <ele>1357.04</ele>
        <time>2019-03-15T14:45:45Z</time>
      </trkpt>
      <trkpt lat="30.622660797089338" lon="-7.123940521851182">
        <ele>1358</ele>
        <time>2019-03-15T14:45:46Z</time>
      </trkpt>
      <trkpt lat="30.623852871358395" lon="-7.122695557773113">
        <ele>1358</ele>
        <time>2019-03-15T14:45:47Z</time>
      </trkpt>
      <trkpt lat="30.625186013057828" lon="-7.121025798842311">
        <ele>1357.04</ele>
        <time>2019-03-15T14:45:48Z</time>
      </trkpt>
      <trkpt lat="30.626222938299179" lon="-7.119760550558567">
        <ele>1357.52</ele>
        <time>2019-03-15T14:45:49Z</time>
      </trkpt>
      <trkpt lat="30.62790535390377" lon="-7.117966990917921">
        <ele>1358</ele>
        <time>2019-03-15T14:45:50Z</time>
      </trkpt>
      <trkpt lat="30.629214942455292" lon="-7.116609122604132">
        <ele>1358</ele>
        <time>2019-03-15T14:45:51Z</time>
      </trkpt>
      <trkpt lat="30.630298303440213" lon="-7.115068025887013">
        <ele>1358</ele>
        <time>2019-03-15T14:45:52Z</time>
      </trkpt>
      <trkpt lat="30.630432162433863" lon="-7.114967862144113">
        <ele>1358.48</ele>
        <time>2019-03-15T14:45:53Z</time>
      </trkpt>
      <trkpt lat="30.631536226719618" lon="-7.114426307380199">
        <ele>1358.48</ele>
        <time>2019-03-15T14:45:54Z</time>
      </trkpt>
      <trkpt lat="30.631648879498243" lon="-7.114340309053659">
        <ele>1358.48</ele>
        <time>2019-03-15T14:45:56Z</time>
      </trkpt>
      <trkpt lat="30.631747115403414" lon="-7.114240564405918">
        <ele>1358.96</ele>
        <time>2019-03-15T14:45:57Z</time>
      </trkpt>
      <trkpt lat="30.631830934435129" lon="-7.114130761474371">
        <ele>1359.9200000000001</ele>
        <time>2019-03-15T14:45:58Z</time>
      </trkpt>
      <trkpt lat="30.631896397098899" lon="-7.114019449800253">
        <ele>1362.3299999999999</ele>
        <time>2019-03-15T14:45:59Z</time>
      </trkpt>
      <trkpt lat="30.631941743195057" lon="-7.113906210288405">
        <ele>1362.8099999999999</ele>
        <time>2019-03-15T14:46:00Z</time>
      </trkpt>
      <trkpt lat="30.631970828399062" lon="-7.113788612186909">
        <ele>1364.25</ele>
        <time>2019-03-15T14:46:01Z</time>
      </trkpt>
      <trkpt lat="30.631988430395722" lon="-7.113664979115129">
        <ele>1364.73</ele>
        <time>2019-03-15T14:46:02Z</time>
      </trkpt>
      <trkpt lat="30.631999997422099" lon="-7.113536987453699">
        <ele>1365.21</ele>
        <time>2019-03-15T14:46:03Z</time>
      </trkpt>
      <trkpt lat="30.631985161453485" lon="-7.112972298637033">
        <ele>1365.6900000000001</ele>
        <time>2019-03-15T14:46:04Z</time>
      </trkpt>
      <trkpt lat="30.631778798997402" lon="-7.111450983211398">
        <ele>1365.6900000000001</ele>
        <time>2019-03-15T14:46:05Z</time>
      </trkpt>
      <trkpt lat="30.631700931116939" lon="-7.110770121216774">
        <ele>1366.1700000000001</ele>
        <time>2019-03-15T14:46:06Z</time>
      </trkpt>
      <trkpt lat="30.63177477568388" lon="-7.109797988086939">
        <ele>1366.1700000000001</ele>
        <time>2019-03-15T14:46:07Z</time>
      </trkpt>
      <trkpt lat="30.631849793717265" lon="-7.109542423859239">
        <ele>1366.6500000000001</ele>
        <time>2019-03-15T14:46:18Z</time>
      </trkpt>
      <trkpt lat="30.631899749860168" lon="-7.109423819929361">
        <ele>1367.1300000000001</ele>
        <time>2019-03-15T14:46:19Z</time>
      </trkpt>
      <trkpt lat="30.632469803094864" lon="-7.108614379540086">
        <ele>1367.6099999999999</ele>
        <time>2019-03-15T14:46:29Z</time>
      </trkpt>
      <trkpt lat="30.632861321792006" lon="-7.108327299356461">
        <ele>1368.0899999999999</ele>
        <time>2019-03-15T14:46:37Z</time>
      </trkpt>
      <trkpt lat="30.633012279868126" lon="-7.108251778408885">
        <ele>1368.5699999999999</ele>
        <time>2019-03-15T14:46:40Z</time>
      </trkpt>
      <trkpt lat="30.633173799142241" lon="-7.108187321573496">
        <ele>1375.3</ele>
        <time>2019-03-15T14:46:45Z</time>
      </trkpt>
      <trkpt lat="30.633345292881131" lon="-7.108138874173164">
        <ele>1386.3599999999999</ele>
        <time>2019-03-15T14:46:47Z</time>
      </trkpt>
      <trkpt lat="30.633524833247066" lon="-7.108110040426254">
        <ele>1387.3199999999999</ele>
        <time>2019-03-15T14:46:49Z</time>
      </trkpt>
      <trkpt lat="30.633709151297808" lon="-7.108097551390529">
        <ele>1388.28</ele>
        <time>2019-03-15T14:46:50Z</time>
      </trkpt>
      <trkpt lat="30.633895313367248" lon="-7.108100149780512">
        <ele>1390.6800000000001</ele>
        <time>2019-03-15T14:46:51Z</time>
      </trkpt>
      <trkpt lat="30.634083654731512" lon="-7.108108699321747">
        <ele>1391.1700000000001</ele>
        <time>2019-03-15T14:46:52Z</time>
      </trkpt>
      <trkpt lat="30.635586781427264" lon="-7.108304081484675">
        <ele>1391.6500000000001</ele>
        <time>2019-03-15T14:46:53Z</time>
      </trkpt>
      <trkpt lat="30.637047747150064" lon="-7.108491417020559">
        <ele>1392.1300000000001</ele>
        <time>2019-03-15T14:46:54Z</time>
      </trkpt>
      <trkpt lat="30.637185713276267" lon="-7.108477503061295">
        <ele>1391.6500000000001</ele>
        <time>2019-03-15T14:46:55Z</time>
      </trkpt>
      <trkpt lat="30.637319991365075" lon="-7.108446406200528">
        <ele>1391.1700000000001</ele>
        <time>2019-03-15T14:46:56Z</time>
      </trkpt>
      <trkpt lat="30.637721987441182" lon="-7.108333418145776">
        <ele>1390.6800000000001</ele>
        <time>2019-03-15T14:46:57Z</time>
      </trkpt>
      <trkpt lat="30.637850565835834" lon="-7.108278097584844">
        <ele>1390.2</ele>
        <time>2019-03-15T14:47:07Z</time>
      </trkpt>
      <trkpt lat="30.637975540012121" lon="-7.108210287988186">
        <ele>1389.24</ele>
        <time>2019-03-15T14:47:08Z</time>
      </trkpt>
      <trkpt lat="30.638090455904603" lon="-7.108127726241946">
        <ele>1388.76</ele>
        <time>2019-03-15T14:47:09Z</time>
      </trkpt>
      <trkpt lat="30.638196067884564" lon="-7.108025383204222">
        <ele>1387.8</ele>
        <time>2019-03-15T14:47:10Z</time>
      </trkpt>
      <trkpt lat="30.638292208313942" lon="-7.107903677970171">
        <ele>1386.3599999999999</ele>
        <time>2019-03-15T14:47:21Z</time>
      </trkpt>
      <trkpt lat="30.63837812282145" lon="-7.107765292748809">
        <ele>1385.8800000000001</ele>
        <time>2019-03-15T14:47:22Z</time>
      </trkpt>
      <trkpt lat="30.638452302664518" lon="-7.107610143721104">
        <ele>1384.9200000000001</ele>
        <time>2019-03-15T14:47:23Z</time>
      </trkpt>
      <trkpt lat="30.638513406738639" lon="-7.107440745458007">
        <ele>1384.4400000000001</ele>
        <time>2019-03-15T14:47:24Z</time>
      </trkpt>
      <trkpt lat="30.638565123081207" lon="-7.10726011544466">
        <ele>1383.96</ele>
        <time>2019-03-15T14:47:25Z</time>
      </trkpt>
      <trkpt lat="30.638604518026114" lon="-7.107074623927474">
        <ele>1383.47</ele>
        <time>2019-03-15T14:47:26Z</time>
      </trkpt>
      <trkpt lat="30.63862731680274" lon="-7.106892820447683">
        <ele>1382.99</ele>
        <time>2019-03-15T14:47:27Z</time>
      </trkpt>
      <trkpt lat="30.638629160821438" lon="-7.106716297566891">
        <ele>1382.51</ele>
        <time>2019-03-15T14:47:28Z</time>
      </trkpt>
      <trkpt lat="30.638611055910587" lon="-7.106544384732842">
        <ele>1382.03</ele>
        <time>2019-03-15T14:47:32Z</time>
      </trkpt>
      <trkpt lat="30.638574426993728" lon="-7.106377333402634">
        <ele>1382.03</ele>
        <time>2019-03-15T14:47:33Z</time>
      </trkpt>
      <trkpt lat="30.638521118089557" lon="-7.106212377548218">
        <ele>1381.55</ele>
        <time>2019-03-15T14:47:34Z</time>
      </trkpt>
      <trkpt lat="30.638457164168358" lon="-7.106054211035371">
        <ele>1381.0699999999999</ele>
        <time>2019-03-15T14:47:35Z</time>
      </trkpt>
      <trkpt lat="30.638385079801083" lon="-7.10590660572052">
        <ele>1381.0699999999999</ele>
        <time>2019-03-15T14:47:36Z</time>
      </trkpt>
      <trkpt lat="30.638304697349668" lon="-7.105769896879792">
        <ele>1380.5899999999999</ele>
        <time>2019-03-15T14:47:46Z</time>
      </trkpt>
      <trkpt lat="30.638219956308603" lon="-7.105656322091818">
        <ele>1379.6300000000001</ele>
        <time>2019-03-15T14:47:54Z</time>
      </trkpt>
      <trkpt lat="30.638136556372046" lon="-7.105568731203675">
        <ele>1379.1500000000001</ele>
        <time>2019-03-15T14:48:05Z</time>
      </trkpt>
      <trkpt lat="30.638060281053185" lon="-7.105503855273128">
        <ele>1378.6700000000001</ele>
        <time>2019-03-15T14:48:08Z</time>
      </trkpt>
      <trkpt lat="30.637995740398765" lon="-7.105452306568623">
        <ele>1378.1900000000001</ele>
        <time>2019-03-15T14:48:09Z</time>
      </trkpt>
      <trkpt lat="30.637939749285579" lon="-7.105403020977974">
        <ele>1377.71</ele>
        <time>2019-03-15T14:48:10Z</time>
      </trkpt>
      <trkpt lat="30.637891804799438" lon="-7.10535055026412">
        <ele>1377.23</ele>
        <time>2019-03-15T14:48:11Z</time>
      </trkpt>
      <trkpt lat="30.637811003252864" lon="-7.105240412056446">
        <ele>1376.75</ele>
        <time>2019-03-15T14:48:12Z</time>
      </trkpt>
      <trkpt lat="30.637785941362381" lon="-7.105183666571975">
        <ele>1375.78</ele>
        <time>2019-03-15T14:48:13Z</time>
      </trkpt>
      <trkpt lat="30.637777894735336" lon="-7.105126837268472">
        <ele>1374.8199999999999</ele>
        <time>2019-03-15T14:48:14Z</time>
      </trkpt>
      <trkpt lat="30.637792982161045" lon="-7.105073612183332">
        <ele>1374.3399999999999</ele>
        <time>2019-03-15T14:48:15Z</time>
      </trkpt>
      <trkpt lat="30.637829275801778" lon="-7.105031199753285">
        <ele>1373.8599999999999</ele>
        <time>2019-03-15T14:48:16Z</time>
      </trkpt>
      <trkpt lat="30.637880573049188" lon="-7.105004712939262">
        <ele>1373.3800000000001</ele>
        <time>2019-03-15T14:48:17Z</time>
      </trkpt>
      <trkpt lat="30.637937486171722" lon="-7.104995744302869">
        <ele>1369.05</ele>
        <time>2019-03-15T14:48:18Z</time>
      </trkpt>
      <trkpt lat="30.637998590245843" lon="-7.105007478967309">
        <ele>1368.5699999999999</ele>
        <time>2019-03-15T14:48:19Z</time>
      </trkpt>
      <trkpt lat="30.6380629632622" lon="-7.105035223066807">
        <ele>1362.3299999999999</ele>
        <time>2019-03-15T14:48:20Z</time>
      </trkpt>
      <trkpt lat="30.638129264116287" lon="-7.105078054592013">
        <ele>1361.8399999999999</ele>
        <time>2019-03-15T14:48:21Z</time>
      </trkpt>
      <trkpt lat="30.638192966580391" lon="-7.105134967714548">
        <ele>1361.8399999999999</ele>
        <time>2019-03-15T14:48:22Z</time>
      </trkpt>
      <trkpt lat="30.638255076482892" lon="-7.105196742340922">
        <ele>1364.73</ele>
        <time>2019-03-15T14:48:27Z</time>
      </trkpt>
      <trkpt lat="30.638858573511243" lon="-7.105798646807671">
        <ele>1365.21</ele>
        <time>2019-03-15T14:48:28Z</time>
      </trkpt>
      <trkpt lat="30.638895034790039" lon="-7.105847513303161">
        <ele>1366.1700000000001</ele>
        <time>2019-03-15T14:48:29Z</time>
      </trkpt>
      <trkpt lat="30.63923466950655" lon="-7.10638839751482">
        <ele>1366.6500000000001</ele>
        <time>2019-03-15T14:48:30Z</time>
      </trkpt>
      <trkpt lat="30.6395757291466" lon="-7.106390241533518">
        <ele>1366.6500000000001</ele>
        <time>2019-03-15T14:48:31Z</time>
      </trkpt>
      <trkpt lat="30.639692153781652" lon="-7.106240624561906">
        <ele>1367.6099999999999</ele>
        <time>2019-03-15T14:48:32Z</time>
      </trkpt>
      <trkpt lat="30.639827186241746" lon="-7.105981539934874">
        <ele>1368.5699999999999</ele>
        <time>2019-03-15T14:48:37Z</time>
      </trkpt>
      <trkpt lat="30.639866245910525" lon="-7.105873413383961">
        <ele>1369.05</ele>
        <time>2019-03-15T14:48:38Z</time>
      </trkpt>
      <trkpt lat="30.639913016930223" lon="-7.105766795575619">
        <ele>1369.54</ele>
        <time>2019-03-15T14:48:39Z</time>
      </trkpt>
      <trkpt lat="30.639927769079804" lon="-7.105713067576289">
        <ele>1370.02</ele>
        <time>2019-03-15T14:48:40Z</time>
      </trkpt>
      <trkpt lat="30.639938833191991" lon="-7.105657076463103">
        <ele>1370.5</ele>
        <time>2019-03-15T14:48:41Z</time>
      </trkpt>
      <trkpt lat="30.639948975294828" lon="-7.105598403140903">
        <ele>1376.26</ele>
        <time>2019-03-15T14:48:45Z</time>
      </trkpt>
      <trkpt lat="30.639963475987315" lon="-7.105538723990321">
        <ele>1376.75</ele>
        <time>2019-03-15T14:48:48Z</time>
      </trkpt>
      <trkpt lat="30.639985436573625" lon="-7.105476949363947">
        <ele>1377.23</ele>
        <time>2019-03-15T14:48:49Z</time>
      </trkpt>
      <trkpt lat="30.640017623081803" lon="-7.105415174737573">
        <ele>1377.71</ele>
        <time>2019-03-15T14:48:57Z</time>
      </trkpt>
      <trkpt lat="30.640054922550917" lon="-7.105356501415372">
        <ele>1379.1500000000001</ele>
        <time>2019-03-15T14:48:58Z</time>
      </trkpt>
      <trkpt lat="30.640096077695489" lon="-7.105296654626727">
        <ele>1379.1500000000001</ele>
        <time>2019-03-15T14:49:01Z</time>
      </trkpt>
      <trkpt lat="30.64060871489346" lon="-7.104543708264828">
        <ele>1378.6700000000001</ele>
        <time>2019-03-15T14:49:02Z</time>
      </trkpt>
      <trkpt lat="30.640673507004976" lon="-7.104458631947637">
        <ele>1378.6700000000001</ele>
        <time>2019-03-15T14:49:03Z</time>
      </trkpt>
      <trkpt lat="30.640747351571918" lon="-7.10437917150557">
        <ele>1378.6700000000001</ele>
        <time>2019-03-15T14:49:04Z</time>
      </trkpt>
      <trkpt lat="30.640832176432014" lon="-7.104304153472185">
        <ele>1378.6700000000001</ele>
        <time>2019-03-15T14:49:05Z</time>
      </trkpt>
      <trkpt lat="30.641881674528122" lon="-7.103549866005778">
        <ele>1378.6700000000001</ele>
        <time>2019-03-15T14:49:06Z</time>
      </trkpt>
      <trkpt lat="30.641975635662675" lon="-7.103475853800774">
        <ele>1378.1900000000001</ele>
        <time>2019-03-15T14:49:07Z</time>
      </trkpt>
      <trkpt lat="30.642065070569515" lon="-7.103401171043515">
        <ele>1377.23</ele>
        <time>2019-03-15T14:49:08Z</time>
      </trkpt>
      <trkpt lat="30.642163474112749" lon="-7.103336462751031">
        <ele>1376.75</ele>
        <time>2019-03-15T14:49:09Z</time>
      </trkpt>
      <trkpt lat="30.642275707796216" lon="-7.103285249322653">
        <ele>1376.26</ele>
        <time>2019-03-15T14:49:10Z</time>
      </trkpt>
      <trkpt lat="30.642396155744791" lon="-7.103250464424491">
        <ele>1375.78</ele>
        <time>2019-03-15T14:49:11Z</time>
      </trkpt>
      <trkpt lat="30.642517190426588" lon="-7.103229006752372">
        <ele>1375.78</ele>
        <time>2019-03-15T14:49:12Z</time>
      </trkpt>
      <trkpt lat="30.642633279785514" lon="-7.103214338421822">
        <ele>1370.98</ele>
        <time>2019-03-15T14:49:13Z</time>
      </trkpt>
      <trkpt lat="30.643122112378478" lon="-7.10320008918643">
        <ele>1366.1700000000001</ele>
        <time>2019-03-15T14:49:24Z</time>
      </trkpt>
      <trkpt lat="30.643259407952428" lon="-7.103225402534008">
        <ele>1363.29</ele>
        <time>2019-03-15T14:49:31Z</time>
      </trkpt>
      <trkpt lat="30.643397625535727" lon="-7.103268317878246">
        <ele>1362.3299999999999</ele>
        <time>2019-03-15T14:49:32Z</time>
      </trkpt>
      <trkpt lat="30.64353609457612" lon="-7.10332372225821">
        <ele>1362.3299999999999</ele>
        <time>2019-03-15T14:49:33Z</time>
      </trkpt>
      <trkpt lat="30.643674647435546" lon="-7.103390442207456">
        <ele>1361.8399999999999</ele>
        <time>2019-03-15T14:49:34Z</time>
      </trkpt>
      <trkpt lat="30.645060427486897" lon="-7.104243133217096">
        <ele>1361.3599999999999</ele>
        <time>2019-03-15T14:49:35Z</time>
      </trkpt>
      <trkpt lat="30.646037925034761" lon="-7.105182996019721">
        <ele>1360.8800000000001</ele>
        <time>2019-03-15T14:49:36Z</time>
      </trkpt>
      <trkpt lat="30.647384477779269" lon="-7.106537008658052">
        <ele>1360.8800000000001</ele>
        <time>2019-03-15T14:49:37Z</time>
      </trkpt>
      <trkpt lat="30.647679520770907" lon="-7.106782933697105">
        <ele>1359.9200000000001</ele>
        <time>2019-03-15T14:49:38Z</time>
      </trkpt>
      <trkpt lat="30.647778930142522" lon="-7.106837835162878">
        <ele>1359.4400000000001</ele>
        <time>2019-03-15T14:49:39Z</time>
      </trkpt>
      <trkpt lat="30.64788831397891" lon="-7.106871195137501">
        <ele>1358.96</ele>
        <time>2019-03-15T14:49:50Z</time>
      </trkpt>
      <trkpt lat="30.648003397509456" lon="-7.106886869296432">
        <ele>1358.48</ele>
        <time>2019-03-15T14:49:59Z</time>
      </trkpt>
      <trkpt lat="30.648118816316128" lon="-7.106884522363544">
        <ele>1358</ele>
        <time>2019-03-15T14:50:09Z</time>
      </trkpt>
      <trkpt lat="30.648232726380229" lon="-7.106874128803611">
        <ele>1357.52</ele>
        <time>2019-03-15T14:50:18Z</time>
      </trkpt>
      <trkpt lat="30.648343618959188" lon="-7.10687312297523">
        <ele>1357.04</ele>
        <time>2019-03-15T14:50:19Z</time>
      </trkpt>
      <trkpt lat="30.648455936461687" lon="-7.106873625889421">
        <ele>1357.04</ele>
        <time>2019-03-15T14:50:20Z</time>
      </trkpt>
      <trkpt lat="30.648568505421281" lon="-7.106857197359204">
        <ele>1356.0799999999999</ele>
        <time>2019-03-15T14:50:21Z</time>
      </trkpt>
      <trkpt lat="30.648682247847319" lon="-7.106822244822979">
        <ele>1351.75</ele>
        <time>2019-03-15T14:50:22Z</time>
      </trkpt>
      <trkpt lat="30.648794732987881" lon="-7.106770863756537">
        <ele>1350.79</ele>
        <time>2019-03-15T14:50:23Z</time>
      </trkpt>
      <trkpt lat="30.648903697729111" lon="-7.106699785217643">
        <ele>1349.8299999999999</ele>
        <time>2019-03-15T14:50:24Z</time>
      </trkpt>
      <trkpt lat="30.649007633328438" lon="-7.106613367795944">
        <ele>1348.8699999999999</ele>
        <time>2019-03-15T14:50:25Z</time>
      </trkpt>
      <trkpt lat="30.649104025214911" lon="-7.106513371691108">
        <ele>1348.8699999999999</ele>
        <time>2019-03-15T14:50:26Z</time>
      </trkpt>
      <trkpt lat="30.649194801226258" lon="-7.106405077502132">
        <ele>1348.3900000000001</ele>
        <time>2019-03-15T14:50:27Z</time>
      </trkpt>
      <trkpt lat="30.649679526686668" lon="-7.105909371748567">
        <ele>1348.3900000000001</ele>
        <time>2019-03-15T14:50:28Z</time>
      </trkpt>
      <trkpt lat="30.649801986292005" lon="-7.105840723961592">
        <ele>1348.3900000000001</ele>
        <time>2019-03-15T14:50:41Z</time>
      </trkpt>
      <trkpt lat="30.64993467181921" lon="-7.105787834152579">
        <ele>1348.8699999999999</ele>
        <time>2019-03-15T14:50:53Z</time>
      </trkpt>
      <trkpt lat="30.650075823068619" lon="-7.105754055082798">
        <ele>1349.3499999999999</ele>
        <time>2019-03-15T14:50:54Z</time>
      </trkpt>
      <trkpt lat="30.65022200345993" lon="-7.105736453086138">
        <ele>1349.8299999999999</ele>
        <time>2019-03-15T14:50:55Z</time>
      </trkpt>
      <trkpt lat="30.650369022041559" lon="-7.10572874173522">
        <ele>1352.23</ele>
        <time>2019-03-15T14:50:56Z</time>
      </trkpt>
      <trkpt lat="30.651085004210472" lon="-7.105767130851746">
        <ele>1353.6700000000001</ele>
        <time>2019-03-15T14:50:57Z</time>
      </trkpt>
      <trkpt lat="30.651225401088595" lon="-7.105753552168608">
        <ele>1354.1500000000001</ele>
        <time>2019-03-15T14:50:58Z</time>
      </trkpt>
      <trkpt lat="30.651362864300609" lon="-7.105725053697825">
        <ele>1357.52</ele>
        <time>2019-03-15T14:50:59Z</time>
      </trkpt>
      <trkpt lat="30.651499070227146" lon="-7.105686161667109">
        <ele>1357.52</ele>
        <time>2019-03-15T14:51:00Z</time>
      </trkpt>
      <trkpt lat="30.651635192334652" lon="-7.10563980974257">
        <ele>1358</ele>
        <time>2019-03-15T14:51:05Z</time>
      </trkpt>
      <trkpt lat="30.652171550318599" lon="-7.105461694300175">
        <ele>1358</ele>
        <time>2019-03-15T14:51:06Z</time>
      </trkpt>
      <trkpt lat="30.652570780366659" lon="-7.10529237985611">
        <ele>1358</ele>
        <time>2019-03-15T14:51:07Z</time>
      </trkpt>
      <trkpt lat="30.652714530006051" lon="-7.105259858071804">
        <ele>1358.48</ele>
        <time>2019-03-15T14:51:08Z</time>
      </trkpt>
      <trkpt lat="30.653718933463097" lon="-7.105313250795007">
        <ele>1358.48</ele>
        <time>2019-03-15T14:51:09Z</time>
      </trkpt>
      <trkpt lat="30.653820689767599" lon="-7.105330768972635">
        <ele>1358.48</ele>
        <time>2019-03-15T14:51:10Z</time>
      </trkpt>
      <trkpt lat="30.654120510444045" lon="-7.105356333777309">
        <ele>1358.96</ele>
        <time>2019-03-15T14:51:17Z</time>
      </trkpt>
      <trkpt lat="30.654202653095126" lon="-7.105380976572633">
        <ele>1358.96</ele>
        <time>2019-03-15T14:51:18Z</time>
      </trkpt>
      <trkpt lat="30.654275575652719" lon="-7.105412241071463">
        <ele>1359.4400000000001</ele>
        <time>2019-03-15T14:51:19Z</time>
      </trkpt>
      <trkpt lat="30.654342044144869" lon="-7.105447696521878">
        <ele>1359.4400000000001</ele>
        <time>2019-03-15T14:51:20Z</time>
      </trkpt>
      <trkpt lat="30.654405159875751" lon="-7.105482062324882">
        <ele>1359.4400000000001</ele>
        <time>2019-03-15T14:51:21Z</time>
      </trkpt>
      <trkpt lat="30.654472466558218" lon="-7.105507208034396">
        <ele>1359.4400000000001</ele>
        <time>2019-03-15T14:51:22Z</time>
      </trkpt>
      <trkpt lat="30.654544131830335" lon="-7.105516428127885">
        <ele>1359.4400000000001</ele>
        <time>2019-03-15T14:51:23Z</time>
      </trkpt>
      <trkpt lat="30.654621664434671" lon="-7.105513410642743">
        <ele>1355.5999999999999</ele>
        <time>2019-03-15T14:51:24Z</time>
      </trkpt>
      <trkpt lat="30.654703136533499" lon="-7.105495473369956">
        <ele>1354.6300000000001</ele>
        <time>2019-03-15T14:51:30Z</time>
      </trkpt>
      <trkpt lat="30.654788296669722" lon="-7.105464292690158">
        <ele>1354.6300000000001</ele>
        <time>2019-03-15T14:51:31Z</time>
      </trkpt>
      <trkpt lat="30.654879491776228" lon="-7.105421209707856">
        <ele>1354.6300000000001</ele>
        <time>2019-03-15T14:51:32Z</time>
      </trkpt>
      <trkpt lat="30.654976051300764" lon="-7.105366140604019">
        <ele>1354.6300000000001</ele>
        <time>2019-03-15T14:51:33Z</time>
      </trkpt>
      <trkpt lat="30.655073868110776" lon="-7.105297911912203">
        <ele>1354.1500000000001</ele>
        <time>2019-03-15T14:51:34Z</time>
      </trkpt>
      <trkpt lat="30.656156223267317" lon="-7.104251431301236">
        <ele>1354.1500000000001</ele>
        <time>2019-03-15T14:51:35Z</time>
      </trkpt>
      <trkpt lat="30.656763240695" lon="-7.103284243494272">
        <ele>1353.6700000000001</ele>
        <time>2019-03-15T14:51:36Z</time>
      </trkpt>
      <trkpt lat="30.656809424981475" lon="-7.103143595159054">
        <ele>1353.6700000000001</ele>
        <time>2019-03-15T14:51:44Z</time>
      </trkpt>
      <trkpt lat="30.65684144385159" lon="-7.102998672053218">
        <ele>1353.6700000000001</ele>
        <time>2019-03-15T14:51:45Z</time>
      </trkpt>
      <trkpt lat="30.65686097368598" lon="-7.102846624329686">
        <ele>1352.71</ele>
        <time>2019-03-15T14:51:53Z</time>
      </trkpt>
      <trkpt lat="30.656867763027549" lon="-7.102691056206822">
        <ele>1354.6300000000001</ele>
        <time>2019-03-15T14:52:02Z</time>
      </trkpt>
      <trkpt lat="30.656857034191489" lon="-7.102533895522356">
        <ele>1352.71</ele>
        <time>2019-03-15T14:52:03Z</time>
      </trkpt>
      <trkpt lat="30.656827110797167" lon="-7.102375561371446">
        <ele>1347.9100000000001</ele>
        <time>2019-03-15T14:52:08Z</time>
      </trkpt>
      <trkpt lat="30.656781010329723" lon="-7.102216305211186">
        <ele>1347.4300000000001</ele>
        <time>2019-03-15T14:52:09Z</time>
      </trkpt>
      <trkpt lat="30.656727785244584" lon="-7.102057216688991">
        <ele>1346.46</ele>
        <time>2019-03-15T14:52:10Z</time>
      </trkpt>
      <trkpt lat="30.656197043135762" lon="-7.100069364532828">
        <ele>1345.98</ele>
        <time>2019-03-15T14:52:11Z</time>
      </trkpt>
      <trkpt lat="30.655951369553804" lon="-7.098384350538254">
        <ele>1345.02</ele>
        <time>2019-03-15T14:52:12Z</time>
      </trkpt>
      <trkpt lat="30.655801501125097" lon="-7.096480820327997">
        <ele>1344.0599999999999</ele>
        <time>2019-03-15T14:52:13Z</time>
      </trkpt>
      <trkpt lat="30.655726734548807" lon="-7.095270557329059">
        <ele>1343.0999999999999</ele>
        <time>2019-03-15T14:52:14Z</time>
      </trkpt>
      <trkpt lat="30.655752969905734" lon="-7.095156144350767">
        <ele>1342.6199999999999</ele>
        <time>2019-03-15T14:52:15Z</time>
      </trkpt>
      <trkpt lat="30.655791107565165" lon="-7.095051119104028">
        <ele>1342.1400000000001</ele>
        <time>2019-03-15T14:52:16Z</time>
      </trkpt>
      <trkpt lat="30.655845170840621" lon="-7.094956403598189">
        <ele>1341.6600000000001</ele>
        <time>2019-03-15T14:52:17Z</time>
      </trkpt>
      <trkpt lat="30.65591205842793" lon="-7.094874931499362">
        <ele>1341.1800000000001</ele>
        <time>2019-03-15T14:52:18Z</time>
      </trkpt>
      <trkpt lat="30.655991351231933" lon="-7.094812067225575">
        <ele>1339.73</ele>
        <time>2019-03-15T14:52:19Z</time>
      </trkpt>
      <trkpt lat="30.656078020110726" lon="-7.09477024152875">
        <ele>1343.5799999999999</ele>
        <time>2019-03-15T14:52:20Z</time>
      </trkpt>
      <trkpt lat="30.656159408390522" lon="-7.094740485772491">
        <ele>1344.0599999999999</ele>
        <time>2019-03-15T14:52:21Z</time>
      </trkpt>
      <trkpt lat="30.656235851347446" lon="-7.094720704481006">
        <ele>1344.54</ele>
        <time>2019-03-15T14:52:22Z</time>
      </trkpt>
      <trkpt lat="30.656311959028244" lon="-7.094709137454629">
        <ele>1345.02</ele>
        <time>2019-03-15T14:52:23Z</time>
      </trkpt>
      <trkpt lat="30.656393012031913" lon="-7.094702599570155">
        <ele>1345.02</ele>
        <time>2019-03-15T14:52:24Z</time>
      </trkpt>
      <trkpt lat="30.657694134861231" lon="-7.094644764438272">
        <ele>1345.02</ele>
        <time>2019-03-15T14:52:25Z</time>
      </trkpt>
      <trkpt lat="30.658999113366008" lon="-7.094555580988526">
        <ele>1345.02</ele>
        <time>2019-03-15T14:52:26Z</time>
      </trkpt>
      <trkpt lat="30.659106317907572" lon="-7.094511827453971">
        <ele>1344.54</ele>
        <time>2019-03-15T14:52:27Z</time>
      </trkpt>
      <trkpt lat="30.659209582954645" lon="-7.094452902674675">
        <ele>1345.5</ele>
        <time>2019-03-15T14:52:28Z</time>
      </trkpt>
      <trkpt lat="30.659306896850467" lon="-7.09437838755548">
        <ele>1345.98</ele>
        <time>2019-03-15T14:52:29Z</time>
      </trkpt>
      <trkpt lat="30.659396583214402" lon="-7.094293646514416">
        <ele>1346.9400000000001</ele>
        <time>2019-03-15T14:52:30Z</time>
      </trkpt>
      <trkpt lat="30.659478642046452" lon="-7.094200188294053">
        <ele>1347.9100000000001</ele>
        <time>2019-03-15T14:52:39Z</time>
      </trkpt>
      <trkpt lat="30.659556426107883" lon="-7.094100108370185">
        <ele>1348.3900000000001</ele>
        <time>2019-03-15T14:52:45Z</time>
      </trkpt>
      <trkpt lat="30.65963446162641" lon="-7.093997094780207">
        <ele>1349.3499999999999</ele>
        <time>2019-03-15T14:52:46Z</time>
      </trkpt>
      <trkpt lat="30.660062860697508" lon="-7.093521254137158">
        <ele>1353.6700000000001</ele>
        <time>2019-03-15T14:52:47Z</time>
      </trkpt>
      <trkpt lat="30.660158330574632" lon="-7.093448583036661">
        <ele>1353.6700000000001</ele>
        <time>2019-03-15T14:52:48Z</time>
      </trkpt>
      <trkpt lat="30.66026234999299" lon="-7.093393178656697">
        <ele>1354.1500000000001</ele>
        <time>2019-03-15T14:52:49Z</time>
      </trkpt>
      <trkpt lat="30.660373829305172" lon="-7.09335520863533">
        <ele>1354.6300000000001</ele>
        <time>2019-03-15T14:52:50Z</time>
      </trkpt>
      <trkpt lat="30.6604915112257" lon="-7.093330901116133">
        <ele>1355.1199999999999</ele>
        <time>2019-03-15T14:52:51Z</time>
      </trkpt>
      <trkpt lat="30.660614473745227" lon="-7.093314724043012">
        <ele>1355.5999999999999</ele>
        <time>2019-03-15T14:52:52Z</time>
      </trkpt>
      <trkpt lat="30.661541679874063" lon="-7.093240544199944">
        <ele>1356.5599999999999</ele>
        <time>2019-03-15T14:52:53Z</time>
      </trkpt>
      <trkpt lat="30.661674533039331" lon="-7.093178182840347">
        <ele>1357.52</ele>
        <time>2019-03-15T14:52:54Z</time>
      </trkpt>
      <trkpt lat="30.661798669025302" lon="-7.0930908434093">
        <ele>1364.25</ele>
        <time>2019-03-15T14:52:55Z</time>
      </trkpt>
      <trkpt lat="30.661912998184562" lon="-7.092980202287436">
        <ele>1365.21</ele>
        <time>2019-03-15T14:52:56Z</time>
      </trkpt>
      <trkpt lat="30.662019699811935" lon="-7.092854222282767">
        <ele>1366.1700000000001</ele>
        <time>2019-03-15T14:52:57Z</time>
      </trkpt>
      <trkpt lat="30.662114163860679" lon="-7.092717094346881">
        <ele>1367.1300000000001</ele>
        <time>2019-03-15T14:52:58Z</time>
      </trkpt>
      <trkpt lat="30.662198988720775" lon="-7.092570327222347">
        <ele>1368.0899999999999</ele>
        <time>2019-03-15T14:52:59Z</time>
      </trkpt>
      <trkpt lat="30.662276102229953" lon="-7.092415262013674">
        <ele>1369.05</ele>
        <time>2019-03-15T14:53:00Z</time>
      </trkpt>
      <trkpt lat="30.662765940651298" lon="-7.091552764177322">
        <ele>1370.5</ele>
        <time>2019-03-15T14:53:08Z</time>
      </trkpt>
      <trkpt lat="30.662863841280341" lon="-7.091454360634089">
        <ele>1376.26</ele>
        <time>2019-03-15T14:53:09Z</time>
      </trkpt>
      <trkpt lat="30.662956796586514" lon="-7.091358304023743">
        <ele>1376.26</ele>
        <time>2019-03-15T14:53:10Z</time>
      </trkpt>
      <trkpt lat="30.663036424666643" lon="-7.091247914358974">
        <ele>1369.05</ele>
        <time>2019-03-15T14:53:11Z</time>
      </trkpt>
      <trkpt lat="30.663100713863969" lon="-7.091117240488529">
        <ele>1357.04</ele>
        <time>2019-03-15T14:53:12Z</time>
      </trkpt>
      <trkpt lat="30.663148406893015" lon="-7.090973742306233">
        <ele>1355.5999999999999</ele>
        <time>2019-03-15T14:53:13Z</time>
      </trkpt>
      <trkpt lat="30.66318872384727" lon="-7.090823873877525">
        <ele>1349.3499999999999</ele>
        <time>2019-03-15T14:53:14Z</time>
      </trkpt>
      <trkpt lat="30.663552666082978" lon="-7.089733723551035">
        <ele>1348.3900000000001</ele>
        <time>2019-03-15T14:53:25Z</time>
      </trkpt>
      <trkpt lat="30.663620559498668" lon="-7.089633475989103">
        <ele>1347.4300000000001</ele>
        <time>2019-03-15T14:53:35Z</time>
      </trkpt>
      <trkpt lat="30.664259344339371" lon="-7.088572075590491">
        <ele>1346.46</ele>
        <time>2019-03-15T14:53:44Z</time>
      </trkpt>
      <trkpt lat="30.664772232994437" lon="-7.086992338299751">
        <ele>1345.5</ele>
        <time>2019-03-15T14:53:56Z</time>
      </trkpt>
      <trkpt lat="30.664807604625821" lon="-7.086813384667039">
        <ele>1345.02</ele>
        <time>2019-03-15T14:54:06Z</time>
      </trkpt>
      <trkpt lat="30.664899721741676" lon="-7.085912832990289">
        <ele>1344.0599999999999</ele>
        <time>2019-03-15T14:54:08Z</time>
      </trkpt>
      <trkpt lat="30.664893100038171" lon="-7.085747793316841">
        <ele>1343.5799999999999</ele>
        <time>2019-03-15T14:54:09Z</time>
      </trkpt>
      <trkpt lat="30.664877844974399" lon="-7.085595242679119">
        <ele>1342.6199999999999</ele>
        <time>2019-03-15T14:54:19Z</time>
      </trkpt>
      <trkpt lat="30.66485445946455" lon="-7.085454510524869">
        <ele>1342.1400000000001</ele>
        <time>2019-03-15T14:54:27Z</time>
      </trkpt>
      <trkpt lat="30.664829649031162" lon="-7.085326099768281">
        <ele>1341.6600000000001</ele>
        <time>2019-03-15T14:54:29Z</time>
      </trkpt>
      <trkpt lat="30.664813136681914" lon="-7.085203723981977">
        <ele>1340.7</ele>
        <time>2019-03-15T14:54:30Z</time>
      </trkpt>
      <trkpt lat="30.664812466129661" lon="-7.08508562296629">
        <ele>1340.22</ele>
        <time>2019-03-15T14:54:31Z</time>
      </trkpt>
      <trkpt lat="30.664829397574067" lon="-7.084972886368632">
        <ele>1339.73</ele>
        <time>2019-03-15T14:54:32Z</time>
      </trkpt>
      <trkpt lat="30.664862925186753" lon="-7.084865598008037">
        <ele>1339.25</ele>
        <time>2019-03-15T14:54:33Z</time>
      </trkpt>
      <trkpt lat="30.664911540225148" lon="-7.08476459607482">
        <ele>1338.77</ele>
        <time>2019-03-15T14:54:46Z</time>
      </trkpt>
      <trkpt lat="30.664970800280571" lon="-7.084675244987011">
        <ele>1338.29</ele>
        <time>2019-03-15T14:54:50Z</time>
      </trkpt>
      <trkpt lat="30.665033999830484" lon="-7.084596203640103">
        <ele>1337.3299999999999</ele>
        <time>2019-03-15T14:54:51Z</time>
      </trkpt>
      <trkpt lat="30.665087560191751" lon="-7.084509031847119">
        <ele>1336.3699999999999</ele>
        <time>2019-03-15T14:54:52Z</time>
      </trkpt>
      <trkpt lat="30.665121087804437" lon="-7.084402665495873">
        <ele>1335.4100000000001</ele>
        <time>2019-03-15T14:55:02Z</time>
      </trkpt>
      <trkpt lat="30.66513248719275" lon="-7.08428674377501">
        <ele>1334.9300000000001</ele>
        <time>2019-03-15T14:55:12Z</time>
      </trkpt>
      <trkpt lat="30.665127458050847" lon="-7.084171660244465">
        <ele>1333.97</ele>
        <time>2019-03-15T14:55:14Z</time>
      </trkpt>
      <trkpt lat="30.665129721164703" lon="-7.084061773493886">
        <ele>1333.49</ele>
        <time>2019-03-15T14:55:16Z</time>
      </trkpt>
      <trkpt lat="30.665146484971046" lon="-7.083960771560669">
        <ele>1328.6800000000001</ele>
        <time>2019-03-15T14:55:17Z</time>
      </trkpt>
      <trkpt lat="30.665169451385736" lon="-7.083870749920607">
        <ele>1328.2</ele>
        <time>2019-03-15T14:55:20Z</time>
      </trkpt>
      <trkpt lat="30.665196524932981" lon="-7.083786260336638">
        <ele>1328.2</ele>
        <time>2019-03-15T14:55:21Z</time>
      </trkpt>
      <trkpt lat="30.665231645107269" lon="-7.083707386627793">
        <ele>1328.6800000000001</ele>
        <time>2019-03-15T14:55:22Z</time>
      </trkpt>
      <trkpt lat="30.665274560451508" lon="-7.083628261461854">
        <ele>1328.6800000000001</ele>
        <time>2019-03-15T14:55:23Z</time>
      </trkpt>
      <trkpt lat="30.665323343127966" lon="-7.083546873182058">
        <ele>1329.1600000000001</ele>
        <time>2019-03-15T14:55:24Z</time>
      </trkpt>
      <trkpt lat="30.665739504620433" lon="-7.082987213507295">
        <ele>1329.1600000000001</ele>
        <time>2019-03-15T14:55:32Z</time>
      </trkpt>
      <trkpt lat="30.666064051911235" lon="-7.082562251016498">
        <ele>1329.6400000000001</ele>
        <time>2019-03-15T14:55:38Z</time>
      </trkpt>
      <trkpt lat="30.666138650849462" lon="-7.082492765039206">
        <ele>1330.1199999999999</ele>
        <time>2019-03-15T14:55:39Z</time>
      </trkpt>
      <trkpt lat="30.666225738823414" lon="-7.082447418943048">
        <ele>1331.0799999999999</ele>
        <time>2019-03-15T14:55:40Z</time>
      </trkpt>
      <trkpt lat="30.666320705786347" lon="-7.082429816946387">
        <ele>1331.5599999999999</ele>
        <time>2019-03-15T14:55:41Z</time>
      </trkpt>
      <trkpt lat="30.666419276967645" lon="-7.082438701763749">
        <ele>1332.04</ele>
        <time>2019-03-15T14:55:42Z</time>
      </trkpt>
      <trkpt lat="30.666517177596688" lon="-7.082470301538706">
        <ele>1332.52</ele>
        <time>2019-03-15T14:55:49Z</time>
      </trkpt>
      <trkpt lat="30.666613401845098" lon="-7.082518246024847">
        <ele>1333.49</ele>
        <time>2019-03-15T14:55:50Z</time>
      </trkpt>
      <trkpt lat="30.666706273332238" lon="-7.082577086985111">
        <ele>1333.97</ele>
        <time>2019-03-15T14:55:51Z</time>
      </trkpt>
      <trkpt lat="30.666792858392" lon="-7.082644058391452">
        <ele>1334.45</ele>
        <time>2019-03-15T14:55:52Z</time>
      </trkpt>
      <trkpt lat="30.666876677423716" lon="-7.082709521055222">
        <ele>1334.45</ele>
        <time>2019-03-15T14:55:53Z</time>
      </trkpt>
      <trkpt lat="30.666965190321207" lon="-7.082765344530344">
        <ele>1336.8499999999999</ele>
        <time>2019-03-15T14:55:54Z</time>
      </trkpt>
      <trkpt lat="30.66706208512187" lon="-7.082801638171077">
        <ele>1336.8499999999999</ele>
        <time>2019-03-15T14:55:55Z</time>
      </trkpt>
      <trkpt lat="30.667168870568275" lon="-7.082825191318989">
        <ele>1337.3299999999999</ele>
        <time>2019-03-15T14:55:56Z</time>
      </trkpt>
      <trkpt lat="30.667283367365599" lon="-7.082838099449873">
        <ele>1337.3299999999999</ele>
        <time>2019-03-15T14:56:06Z</time>
      </trkpt>
      <trkpt lat="30.667401719838381" lon="-7.082839524373412">
        <ele>1337.3299999999999</ele>
        <time>2019-03-15T14:56:10Z</time>
      </trkpt>
      <trkpt lat="30.667528202757239" lon="-7.082831058651209">
        <ele>1337.8099999999999</ele>
        <time>2019-03-15T14:56:17Z</time>
      </trkpt>
      <trkpt lat="30.668545262888074" lon="-7.082478348165751">
        <ele>1337.8099999999999</ele>
        <time>2019-03-15T14:56:18Z</time>
      </trkpt>
      <trkpt lat="30.668640732765198" lon="-7.082398887723684">
        <ele>1335.4100000000001</ele>
        <time>2019-03-15T14:56:19Z</time>
      </trkpt>
      <trkpt lat="30.668724551796913" lon="-7.082304591313005">
        <ele>1333.49</ele>
        <time>2019-03-15T14:56:20Z</time>
      </trkpt>
      <trkpt lat="30.66879965364933" lon="-7.08219931460917">
        <ele>1333.01</ele>
        <time>2019-03-15T14:56:21Z</time>
      </trkpt>
      <trkpt lat="30.668866708874702" lon="-7.08208104595542">
        <ele>1333.49</ele>
        <time>2019-03-15T14:56:22Z</time>
      </trkpt>
      <trkpt lat="30.668927393853664" lon="-7.081949198618531">
        <ele>1333.49</ele>
        <time>2019-03-15T14:56:23Z</time>
      </trkpt>
      <trkpt lat="30.668983133509755" lon="-7.081808634102345">
        <ele>1332.52</ele>
        <time>2019-03-15T14:56:24Z</time>
      </trkpt>
      <trkpt lat="30.669405832886696" lon="-7.080063857138157">
        <ele>1332.52</ele>
        <time>2019-03-15T14:56:25Z</time>
      </trkpt>
      <trkpt lat="30.669450759887695" lon="-7.078237105160952">
        <ele>1327.72</ele>
        <time>2019-03-15T14:56:26Z</time>
      </trkpt>
      <trkpt lat="30.669530723243952" lon="-7.076572375372052">
        <ele>1328.2</ele>
        <time>2019-03-15T14:56:27Z</time>
      </trkpt>
      <trkpt lat="30.669847056269646" lon="-7.074244469404221">
        <ele>1327.72</ele>
        <time>2019-03-15T14:56:34Z</time>
      </trkpt>
      <trkpt lat="30.670249722898006" lon="-7.072637658566237">
        <ele>1327.72</ele>
        <time>2019-03-15T14:56:35Z</time>
      </trkpt>
      <trkpt lat="30.670360447838902" lon="-7.072363737970591">
        <ele>1327.24</ele>
        <time>2019-03-15T14:56:36Z</time>
      </trkpt>
      <trkpt lat="30.670434543862939" lon="-7.072226945310831">
        <ele>1327.24</ele>
        <time>2019-03-15T14:56:38Z</time>
      </trkpt>
      <trkpt lat="30.671390416100621" lon="-7.070936467498541">
        <ele>1327.24</ele>
        <time>2019-03-15T14:56:39Z</time>
      </trkpt>
      <trkpt lat="30.671985112130642" lon="-7.070135660469532">
        <ele>1328.2</ele>
        <time>2019-03-15T14:56:40Z</time>
      </trkpt>
      <trkpt lat="30.672125509008765" lon="-7.069995095953345">
        <ele>1327.72</ele>
        <time>2019-03-15T14:56:41Z</time>
      </trkpt>
      <trkpt lat="30.672207651659846" lon="-7.069934578612447">
        <ele>1327.72</ele>
        <time>2019-03-15T14:56:42Z</time>
      </trkpt>
      <trkpt lat="30.67229725420475" lon="-7.069883029907942">
        <ele>1327.72</ele>
        <time>2019-03-15T14:56:43Z</time>
      </trkpt>
      <trkpt lat="30.672390293329954" lon="-7.069841790944338">
        <ele>1326.76</ele>
        <time>2019-03-15T14:56:44Z</time>
      </trkpt>
      <trkpt lat="30.672484505921602" lon="-7.069805664941669">
        <ele>1326.28</ele>
        <time>2019-03-15T14:56:45Z</time>
      </trkpt>
      <trkpt lat="30.673739276826382" lon="-7.069503162056208">
        <ele>1325.8</ele>
        <time>2019-03-15T14:56:46Z</time>
      </trkpt>
      <trkpt lat="30.674175219610333" lon="-7.069531157612801">
        <ele>1325.8</ele>
        <time>2019-03-15T14:56:47Z</time>
      </trkpt>
      <trkpt lat="30.674272533506155" lon="-7.069559656083584">
        <ele>1326.28</ele>
        <time>2019-03-15T14:56:58Z</time>
      </trkpt>
      <trkpt lat="30.674365321174264" lon="-7.069595865905285">
        <ele>1327.24</ele>
        <time>2019-03-15T14:56:59Z</time>
      </trkpt>
      <trkpt lat="30.675331670790911" lon="-7.070224257186055">
        <ele>1327.72</ele>
        <time>2019-03-15T14:57:00Z</time>
      </trkpt>
      <trkpt lat="30.676398687064648" lon="-7.07099748775363">
        <ele>1327.72</ele>
        <time>2019-03-15T14:57:01Z</time>
      </trkpt>
      <trkpt lat="30.676616616547108" lon="-7.071152804419398">
        <ele>1327.72</ele>
        <time>2019-03-15T14:57:02Z</time>
      </trkpt>
      <trkpt lat="30.676845191046596" lon="-7.071278784424067">
        <ele>1327.72</ele>
        <time>2019-03-15T14:57:03Z</time>
      </trkpt>
      <trkpt lat="30.676951892673969" lon="-7.071357322856784">
        <ele>1327.24</ele>
        <time>2019-03-15T14:57:04Z</time>
      </trkpt>
      <trkpt lat="30.677243750542402" lon="-7.071590088307858">
        <ele>1325.8</ele>
        <time>2019-03-15T14:57:05Z</time>
      </trkpt>
      <trkpt lat="30.677351290360093" lon="-7.071647169068456">
        <ele>1325.3099999999999</ele>
        <time>2019-03-15T14:57:06Z</time>
      </trkpt>
      <trkpt lat="30.677464278414845" lon="-7.071690671145916">
        <ele>1325.3099999999999</ele>
        <time>2019-03-15T14:57:18Z</time>
      </trkpt>
      <trkpt lat="30.677579864859581" lon="-7.071722522377968">
        <ele>1325.3099999999999</ele>
        <time>2019-03-15T14:57:29Z</time>
      </trkpt>
      <trkpt lat="30.677685476839542" lon="-7.071742387488484">
        <ele>1324.8299999999999</ele>
        <time>2019-03-15T14:57:30Z</time>
      </trkpt>
      <trkpt lat="30.678436663001776" lon="-7.071831487119198">
        <ele>1324.3499999999999</ele>
        <time>2019-03-15T14:57:41Z</time>
      </trkpt>
      <trkpt lat="30.679180473089218" lon="-7.071829391643405">
        <ele>1324.3499999999999</ele>
        <time>2019-03-15T14:57:54Z</time>
      </trkpt>
      <trkpt lat="30.679307291284204" lon="-7.071792259812355">
        <ele>1323.8699999999999</ele>
        <time>2019-03-15T14:57:55Z</time>
      </trkpt>
      <trkpt lat="30.679431259632111" lon="-7.071736855432391">
        <ele>1323.3900000000001</ele>
        <time>2019-03-15T14:57:56Z</time>
      </trkpt>
      <trkpt lat="30.679552713409066" lon="-7.071668626740575">
        <ele>1322.9100000000001</ele>
        <time>2019-03-15T14:57:57Z</time>
      </trkpt>
      <trkpt lat="30.679678022861481" lon="-7.071595033630729">
        <ele>1322.4300000000001</ele>
        <time>2019-03-15T14:57:58Z</time>
      </trkpt>
      <trkpt lat="30.680575054138899" lon="-7.07112698815763">
        <ele>1321.95</ele>
        <time>2019-03-15T14:58:10Z</time>
      </trkpt>
      <trkpt lat="30.680681839585304" lon="-7.071112236008048">
        <ele>1321.47</ele>
        <time>2019-03-15T14:58:21Z</time>
      </trkpt>
      <trkpt lat="30.680781500414014" lon="-7.071126317605376">
        <ele>1320.99</ele>
        <time>2019-03-15T14:58:30Z</time>
      </trkpt>
      <trkpt lat="30.680868839845061" lon="-7.071169568225741">
        <ele>1322.4300000000001</ele>
        <time>2019-03-15T14:58:38Z</time>
      </trkpt>
      <trkpt lat="30.680941259488463" lon="-7.07123888656497">
        <ele>1324.3499999999999</ele>
        <time>2019-03-15T14:58:50Z</time>
      </trkpt>
      <trkpt lat="30.680997837334871" lon="-7.071323879063129">
        <ele>1324.8299999999999</ele>
        <time>2019-03-15T14:59:00Z</time>
      </trkpt>
      <trkpt lat="30.681041004136205" lon="-7.071408536285162">
        <ele>1324.8299999999999</ele>
        <time>2019-03-15T14:59:09Z</time>
      </trkpt>
      <trkpt lat="30.681077968329191" lon="-7.07148757763207">
        <ele>1324.8299999999999</ele>
        <time>2019-03-15T14:59:10Z</time>
      </trkpt>
      <trkpt lat="30.681611141189933" lon="-7.072433140128851">
        <ele>1324.8299999999999</ele>
        <time>2019-03-15T14:59:11Z</time>
      </trkpt>
      <trkpt lat="30.681709041818976" lon="-7.072601867839694">
        <ele>1324.8299999999999</ele>
        <time>2019-03-15T14:59:12Z</time>
      </trkpt>
      <trkpt lat="30.681833932176232" lon="-7.072812085971236">
        <ele>1324.8299999999999</ele>
        <time>2019-03-15T14:59:13Z</time>
      </trkpt>
      <trkpt lat="30.681870309635997" lon="-7.07288408651948">
        <ele>1325.3099999999999</ele>
        <time>2019-03-15T14:59:14Z</time>
      </trkpt>
      <trkpt lat="30.681901993229985" lon="-7.072964804247022">
        <ele>1325.3099999999999</ele>
        <time>2019-03-15T14:59:15Z</time>
      </trkpt>
      <trkpt lat="30.681931665167212" lon="-7.073056837543845">
        <ele>1325.8</ele>
        <time>2019-03-15T14:59:16Z</time>
      </trkpt>
      <trkpt lat="30.681964606046677" lon="-7.073159348219633">
        <ele>1326.28</ele>
        <time>2019-03-15T14:59:17Z</time>
      </trkpt>
      <trkpt lat="30.682010538876057" lon="-7.073267893865705">
        <ele>1333.49</ele>
        <time>2019-03-15T14:59:18Z</time>
      </trkpt>
      <trkpt lat="30.682075330987573" lon="-7.073376690968871">
        <ele>1334.45</ele>
        <time>2019-03-15T14:59:19Z</time>
      </trkpt>
      <trkpt lat="30.682161077857018" lon="-7.07347584888339">
        <ele>1335.4100000000001</ele>
        <time>2019-03-15T14:59:20Z</time>
      </trkpt>
      <trkpt lat="30.682263588532805" lon="-7.073562433943152">
        <ele>1337.8099999999999</ele>
        <time>2019-03-15T14:59:21Z</time>
      </trkpt>
      <trkpt lat="30.682376325130463" lon="-7.073638122528791">
        <ele>1338.77</ele>
        <time>2019-03-15T14:59:22Z</time>
      </trkpt>
      <trkpt lat="30.682494258508086" lon="-7.073705764487386">
        <ele>1339.73</ele>
        <time>2019-03-15T14:59:23Z</time>
      </trkpt>
      <trkpt lat="30.683295149356127" lon="-7.07403332926333">
        <ele>1340.22</ele>
        <time>2019-03-15T14:59:24Z</time>
      </trkpt>
      <trkpt lat="30.683406461030245" lon="-7.074044812470675">
        <ele>1341.1800000000001</ele>
        <time>2019-03-15T14:59:25Z</time>
      </trkpt>
      <trkpt lat="30.68351861089468" lon="-7.074047327041626">
        <ele>1342.1400000000001</ele>
        <time>2019-03-15T14:59:27Z</time>
      </trkpt>
      <trkpt lat="30.68374190479517" lon="-7.074060486629605">
        <ele>1343.0999999999999</ele>
        <time>2019-03-15T14:59:28Z</time>
      </trkpt>
      <trkpt lat="30.683840643614531" lon="-7.074091751128435">
        <ele>1344.0599999999999</ele>
        <time>2019-03-15T14:59:29Z</time>
      </trkpt>
      <trkpt lat="30.683917757123709" lon="-7.074139779433608">
        <ele>1345.02</ele>
        <time>2019-03-15T14:59:30Z</time>
      </trkpt>
      <trkpt lat="30.683975508436561" lon="-7.074199458584189">
        <ele>1345.98</ele>
        <time>2019-03-15T14:59:31Z</time>
      </trkpt>
      <trkpt lat="30.684030326083302" lon="-7.074256120249629">
        <ele>1352.71</ele>
        <time>2019-03-15T14:59:32Z</time>
      </trkpt>
      <trkpt lat="30.68408983759582" lon="-7.074296018108726">
        <ele>1352.71</ele>
        <time>2019-03-15T14:59:33Z</time>
      </trkpt>
      <trkpt lat="30.684149265289307" lon="-7.074323929846287">
        <ele>1352.71</ele>
        <time>2019-03-15T14:59:34Z</time>
      </trkpt>
      <trkpt lat="30.684201819822192" lon="-7.074345136061311">
        <ele>1353.1900000000001</ele>
        <time>2019-03-15T14:59:35Z</time>
      </trkpt>
      <trkpt lat="30.684253619983792" lon="-7.07435829564929">
        <ele>1353.1900000000001</ele>
        <time>2019-03-15T14:59:36Z</time>
      </trkpt>
      <trkpt lat="30.684312377125025" lon="-7.074370533227921">
        <ele>1353.1900000000001</ele>
        <time>2019-03-15T14:59:37Z</time>
      </trkpt>
      <trkpt lat="30.685153836384416" lon="-7.074524760246277">
        <ele>1352.71</ele>
        <time>2019-03-15T14:59:38Z</time>
      </trkpt>
      <trkpt lat="30.685234721750021" lon="-7.074531717225909">
        <ele>1352.71</ele>
        <time>2019-03-15T14:59:46Z</time>
      </trkpt>
      <trkpt lat="30.685314936563373" lon="-7.07452685572207">
        <ele>1352.71</ele>
        <time>2019-03-15T14:59:48Z</time>
      </trkpt>
      <trkpt lat="30.685394229367375" lon="-7.074507409706712">
        <ele>1354.1500000000001</ele>
        <time>2019-03-15T14:59:49Z</time>
      </trkpt>
      <trkpt lat="30.685473522171378" lon="-7.074474887922406">
        <ele>1352.23</ele>
        <time>2019-03-15T14:59:50Z</time>
      </trkpt>
      <trkpt lat="30.685550719499588" lon="-7.074427362531424">
        <ele>1351.75</ele>
        <time>2019-03-15T14:59:51Z</time>
      </trkpt>
      <trkpt lat="30.685625234618783" lon="-7.074366509914398">
        <ele>1351.75</ele>
        <time>2019-03-15T14:59:52Z</time>
      </trkpt>
      <trkpt lat="30.685696732252836" lon="-7.074293419718742">
        <ele>1357.04</ele>
        <time>2019-03-15T14:59:53Z</time>
      </trkpt>
      <trkpt lat="30.685766385868192" lon="-7.074210690334439">
        <ele>1357.52</ele>
        <time>2019-03-15T14:59:54Z</time>
      </trkpt>
      <trkpt lat="30.686788475140929" lon="-7.073144009336829">
        <ele>1357.52</ele>
        <time>2019-03-15T14:59:55Z</time>
      </trkpt>
      <trkpt lat="30.68793679587543" lon="-7.072334233671427">
        <ele>1357.52</ele>
        <time>2019-03-15T14:59:56Z</time>
      </trkpt>
      <trkpt lat="30.688047604635358" lon="-7.072306824848056">
        <ele>1357.04</ele>
        <time>2019-03-15T14:59:57Z</time>
      </trkpt>
      <trkpt lat="30.689323246479034" lon="-7.07221319898963">
        <ele>1348.3900000000001</ele>
        <time>2019-03-15T14:59:58Z</time>
      </trkpt>
      <trkpt lat="30.690816147252917" lon="-7.072100546211004">
        <ele>1345.98</ele>
        <time>2019-03-15T14:59:59Z</time>
      </trkpt>
      <trkpt lat="30.690911449491978" lon="-7.072071293368936">
        <ele>1348.3900000000001</ele>
        <time>2019-03-15T15:00:01Z</time>
      </trkpt>
      <trkpt lat="30.691005326807499" lon="-7.072029719129205">
        <ele>1348.8699999999999</ele>
        <time>2019-03-15T15:00:02Z</time>
      </trkpt>
      <trkpt lat="30.691095432266593" lon="-7.071978254243732">
        <ele>1345.02</ele>
        <time>2019-03-15T15:00:03Z</time>
      </trkpt>
      <trkpt lat="30.691186040639877" lon="-7.071925029158592">
        <ele>1350.79</ele>
        <time>2019-03-15T15:00:04Z</time>
      </trkpt>
      <trkpt lat="30.692423461005092" lon="-7.071125479415059">
        <ele>1356.0799999999999</ele>
        <time>2019-03-15T15:00:05Z</time>
      </trkpt>
      <trkpt lat="30.693682841956615" lon="-7.070490634068847">
        <ele>1357.04</ele>
        <time>2019-03-15T15:00:06Z</time>
      </trkpt>
      <trkpt lat="30.69467157125473" lon="-7.070522233843803">
        <ele>1358</ele>
        <time>2019-03-15T15:00:07Z</time>
      </trkpt>
      <trkpt lat="30.695349918678403" lon="-7.070993883535266">
        <ele>1358.48</ele>
        <time>2019-03-15T15:00:14Z</time>
      </trkpt>
      <trkpt lat="30.696227755397558" lon="-7.072081351652741">
        <ele>1359.4400000000001</ele>
        <time>2019-03-15T15:00:15Z</time>
      </trkpt>
      <trkpt lat="30.697189830243587" lon="-7.072922559455037">
        <ele>1359.9200000000001</ele>
        <time>2019-03-15T15:00:16Z</time>
      </trkpt>
      <trkpt lat="30.698294816538692" lon="-7.073144344612956">
        <ele>1359.9200000000001</ele>
        <time>2019-03-15T15:00:17Z</time>
      </trkpt>
      <trkpt lat="30.698399338871241" lon="-7.073142919689417">
        <ele>1359.9200000000001</ele>
        <time>2019-03-15T15:00:18Z</time>
      </trkpt>
      <trkpt lat="30.698501178994775" lon="-7.073123892769218">
        <ele>1360.4000000000001</ele>
        <time>2019-03-15T15:00:19Z</time>
      </trkpt>
      <trkpt lat="30.698596145957708" lon="-7.073090700432658">
        <ele>1360.4000000000001</ele>
        <time>2019-03-15T15:00:20Z</time>
      </trkpt>
      <trkpt lat="30.698682311922312" lon="-7.073039906099439">
        <ele>1360.4000000000001</ele>
        <time>2019-03-15T15:00:21Z</time>
      </trkpt>
      <trkpt lat="30.698758168146014" lon="-7.07297058776021">
        <ele>1360.8800000000001</ele>
        <time>2019-03-15T15:00:22Z</time>
      </trkpt>
      <trkpt lat="30.698825223371387" lon="-7.072889283299446">
        <ele>1360.8800000000001</ele>
        <time>2019-03-15T15:00:23Z</time>
      </trkpt>
      <trkpt lat="30.698884483426809" lon="-7.072797417640686">
        <ele>1361.3599999999999</ele>
        <time>2019-03-15T15:00:24Z</time>
      </trkpt>
      <trkpt lat="30.698935193940997" lon="-7.072692224755883">
        <ele>1361.3599999999999</ele>
        <time>2019-03-15T15:00:25Z</time>
      </trkpt>
      <trkpt lat="30.698968805372715" lon="-7.072578901425004">
        <ele>1361.3599999999999</ele>
        <time>2019-03-15T15:00:26Z</time>
      </trkpt>
      <trkpt lat="30.698986072093248" lon="-7.072461303323507">
        <ele>1361.3599999999999</ele>
        <time>2019-03-15T15:00:27Z</time>
      </trkpt>
      <trkpt lat="30.698988335207105" lon="-7.072342867031694">
        <ele>1361.8399999999999</ele>
        <time>2019-03-15T15:00:28Z</time>
      </trkpt>
      <trkpt lat="30.698974588885903" lon="-7.072223508730531">
        <ele>1362.3299999999999</ele>
        <time>2019-03-15T15:00:29Z</time>
      </trkpt>
      <trkpt lat="30.69894659332931" lon="-7.072105575352907">
        <ele>1362.3299999999999</ele>
        <time>2019-03-15T15:00:31Z</time>
      </trkpt>
      <trkpt lat="30.698907868936658" lon="-7.071988061070442">
        <ele>1362.8099999999999</ele>
        <time>2019-03-15T15:00:32Z</time>
      </trkpt>
      <trkpt lat="30.698863109573722" lon="-7.07187607884407">
        <ele>1363.29</ele>
        <time>2019-03-15T15:00:33Z</time>
      </trkpt>
      <trkpt lat="30.698817260563374" lon="-7.071770047768951">
        <ele>1363.77</ele>
        <time>2019-03-15T15:00:34Z</time>
      </trkpt>
      <trkpt lat="30.698749702423811" lon="-7.071570390835404">
        <ele>1364.25</ele>
        <time>2019-03-15T15:00:35Z</time>
      </trkpt>
      <trkpt lat="30.698736039921641" lon="-7.071483051404357">
        <ele>1364.73</ele>
        <time>2019-03-15T15:00:36Z</time>
      </trkpt>
      <trkpt lat="30.698734112083912" lon="-7.071403004229069">
        <ele>1364.73</ele>
        <time>2019-03-15T15:00:37Z</time>
      </trkpt>
      <trkpt lat="30.698746517300606" lon="-7.071332344785333">
        <ele>1365.21</ele>
        <time>2019-03-15T15:00:40Z</time>
      </trkpt>
      <trkpt lat="30.698780966922641" lon="-7.071275264024735">
        <ele>1366.1700000000001</ele>
        <time>2019-03-15T15:00:48Z</time>
      </trkpt>
      <trkpt lat="30.698832767084241" lon="-7.071236288174987">
        <ele>1366.6500000000001</ele>
        <time>2019-03-15T15:00:58Z</time>
      </trkpt>
      <trkpt lat="30.698894709348679" lon="-7.071225726976991">
        <ele>1371.9400000000001</ele>
        <time>2019-03-15T15:00:59Z</time>
      </trkpt>
      <trkpt lat="30.698957741260529" lon="-7.071245424449444">
        <ele>1373.8599999999999</ele>
        <time>2019-03-15T15:01:00Z</time>
      </trkpt>
      <trkpt lat="30.699021527543664" lon="-7.071286495774984">
        <ele>1374.8199999999999</ele>
        <time>2019-03-15T15:01:01Z</time>
      </trkpt>
      <trkpt lat="30.699081625789404" lon="-7.071339637041092">
        <ele>1375.3</ele>
        <time>2019-03-15T15:01:02Z</time>
      </trkpt>
      <trkpt lat="30.699136694893241" lon="-7.071397555992007">
        <ele>1375.78</ele>
        <time>2019-03-15T15:01:04Z</time>
      </trkpt>
      <trkpt lat="30.699187740683556" lon="-7.071455977857113">
        <ele>1376.75</ele>
        <time>2019-03-15T15:01:05Z</time>
      </trkpt>
      <trkpt lat="30.699587389826775" lon="-7.071971548721194">
        <ele>1377.71</ele>
        <time>2019-03-15T15:01:06Z</time>
      </trkpt>
      <trkpt lat="30.699674058705568" lon="-7.07210959866643">
        <ele>1378.6700000000001</ele>
        <time>2019-03-15T15:01:07Z</time>
      </trkpt>
      <trkpt lat="30.699732815846801" lon="-7.072166595607996">
        <ele>1379.6300000000001</ele>
        <time>2019-03-15T15:01:08Z</time>
      </trkpt>
      <trkpt lat="30.699802888557315" lon="-7.072214120998979">
        <ele>1380.5899999999999</ele>
        <time>2019-03-15T15:01:09Z</time>
      </trkpt>
      <trkpt lat="30.699882265180349" lon="-7.072255611419678">
        <ele>1381.55</ele>
        <time>2019-03-15T15:01:10Z</time>
      </trkpt>
      <trkpt lat="30.699965162202716" lon="-7.072295425459743">
        <ele>1382.51</ele>
        <time>2019-03-15T15:01:11Z</time>
      </trkpt>
      <trkpt lat="30.700051411986351" lon="-7.072327360510826">
        <ele>1383.96</ele>
        <time>2019-03-15T15:01:12Z</time>
      </trkpt>
      <trkpt lat="30.700142104178667" lon="-7.072346722707152">
        <ele>1385.8800000000001</ele>
        <time>2019-03-15T15:01:13Z</time>
      </trkpt>
      <trkpt lat="30.700234556570649" lon="-7.072356780990958">
        <ele>1386.8399999999999</ele>
        <time>2019-03-15T15:01:14Z</time>
      </trkpt>
      <trkpt lat="30.700322231277823" lon="-7.072354517877102">
        <ele>1387.8</ele>
        <time>2019-03-15T15:01:15Z</time>
      </trkpt>
      <trkpt lat="30.700408900156617" lon="-7.072340939193964">
        <ele>1388.28</ele>
        <time>2019-03-15T15:01:16Z</time>
      </trkpt>
      <trkpt lat="30.700492635369301" lon="-7.072318559512496">
        <ele>1389.24</ele>
        <time>2019-03-15T15:01:17Z</time>
      </trkpt>
      <trkpt lat="30.700573520734906" lon="-7.072291150689125">
        <ele>1389.72</ele>
        <time>2019-03-15T15:01:18Z</time>
      </trkpt>
      <trkpt lat="30.700722886249423" lon="-7.072235997766256">
        <ele>1390.2</ele>
        <time>2019-03-15T15:01:19Z</time>
      </trkpt>
      <trkpt lat="30.700789438560605" lon="-7.072193417698145">
        <ele>1392.1300000000001</ele>
        <time>2019-03-15T15:01:20Z</time>
      </trkpt>
      <trkpt lat="30.700851632282138" lon="-7.072142623364925">
        <ele>1392.6099999999999</ele>
        <time>2019-03-15T15:01:21Z</time>
      </trkpt>
      <trkpt lat="30.70090938359499" lon="-7.072084620594978">
        <ele>1393.5699999999999</ele>
        <time>2019-03-15T15:01:22Z</time>
      </trkpt>
      <trkpt lat="30.700963446870446" lon="-7.072021253407002">
        <ele>1394.05</ele>
        <time>2019-03-15T15:01:23Z</time>
      </trkpt>
      <trkpt lat="30.701012145727873" lon="-7.071952689439058">
        <ele>1394.53</ele>
        <time>2019-03-15T15:01:24Z</time>
      </trkpt>
      <trkpt lat="30.701056569814682" lon="-7.071878761053085">
        <ele>1395.01</ele>
        <time>2019-03-15T15:01:25Z</time>
      </trkpt>
      <trkpt lat="30.701316827908158" lon="-7.071317173540592">
        <ele>1395.49</ele>
        <time>2019-03-15T15:01:37Z</time>
      </trkpt>
      <trkpt lat="30.701368544250727" lon="-7.071255734190345">
        <ele>1395.97</ele>
        <time>2019-03-15T15:01:44Z</time>
      </trkpt>
      <trkpt lat="30.701431073248386" lon="-7.071208124980331">
        <ele>1396.9300000000001</ele>
        <time>2019-03-15T15:01:45Z</time>
      </trkpt>
      <trkpt lat="30.701497457921505" lon="-7.07118415273726">
        <ele>1397.4100000000001</ele>
        <time>2019-03-15T15:01:46Z</time>
      </trkpt>
      <trkpt lat="30.701560406014323" lon="-7.071184488013387">
        <ele>1397.8900000000001</ele>
        <time>2019-03-15T15:01:47Z</time>
      </trkpt>
      <trkpt lat="30.701613798737526" lon="-7.071213824674487">
        <ele>1398.8599999999999</ele>
        <time>2019-03-15T15:01:48Z</time>
      </trkpt>
      <trkpt lat="30.701654367148876" lon="-7.071268055588007">
        <ele>1399.3399999999999</ele>
        <time>2019-03-15T15:01:49Z</time>
      </trkpt>
      <trkpt lat="30.701685547828674" lon="-7.071336703374982">
        <ele>1399.8199999999999</ele>
        <time>2019-03-15T15:01:50Z</time>
      </trkpt>
      <trkpt lat="30.701709100976586" lon="-7.071415493264794">
        <ele>1400.3</ele>
        <time>2019-03-15T15:01:51Z</time>
      </trkpt>
      <trkpt lat="30.701732905581594" lon="-7.071501910686493">
        <ele>1400.78</ele>
        <time>2019-03-15T15:01:52Z</time>
      </trkpt>
      <trkpt lat="30.701765259727836" lon="-7.071584891527891">
        <ele>1402.22</ele>
        <time>2019-03-15T15:01:53Z</time>
      </trkpt>
      <trkpt lat="30.701803900301456" lon="-7.071663932874799">
        <ele>1403.1800000000001</ele>
        <time>2019-03-15T15:01:54Z</time>
      </trkpt>
      <trkpt lat="30.701849665492773" lon="-7.071740124374628">
        <ele>1403.6600000000001</ele>
        <time>2019-03-15T15:01:55Z</time>
      </trkpt>
      <trkpt lat="30.701901717111468" lon="-7.071812124922872">
        <ele>1404.6199999999999</ele>
        <time>2019-03-15T15:01:57Z</time>
      </trkpt>
      <trkpt lat="30.701961060985923" lon="-7.071879766881466">
        <ele>1405.0999999999999</ele>
        <time>2019-03-15T15:01:58Z</time>
      </trkpt>
      <trkpt lat="30.702024092897773" lon="-7.071945061907172">
        <ele>1406.0699999999999</ele>
        <time>2019-03-15T15:01:59Z</time>
      </trkpt>
      <trkpt lat="30.702136913314462" lon="-7.072084117680788">
        <ele>1406.55</ele>
        <time>2019-03-15T15:02:00Z</time>
      </trkpt>
      <trkpt lat="30.702176643535495" lon="-7.072162237018347">
        <ele>1407.99</ele>
        <time>2019-03-15T15:02:01Z</time>
      </trkpt>
      <trkpt lat="30.702206734567881" lon="-7.072242619469762">
        <ele>1412.79</ele>
        <time>2019-03-15T15:02:05Z</time>
      </trkpt>
      <trkpt lat="30.702228778973222" lon="-7.072324426844716">
        <ele>1417.5999999999999</ele>
        <time>2019-03-15T15:02:06Z</time>
      </trkpt>
      <trkpt lat="30.702244117856026" lon="-7.072410257533193">
        <ele>1417.5999999999999</ele>
        <time>2019-03-15T15:02:08Z</time>
      </trkpt>
      <trkpt lat="30.702250320464373" lon="-7.072499608621001">
        <ele>1417.5999999999999</ele>
        <time>2019-03-15T15:02:09Z</time>
      </trkpt>
      <trkpt lat="30.70225115865469" lon="-7.072588205337524">
        <ele>1417.5999999999999</ele>
        <time>2019-03-15T15:02:10Z</time>
      </trkpt>
      <trkpt lat="30.702250571921468" lon="-7.072835806757212">
        <ele>1417.5999999999999</ele>
        <time>2019-03-15T15:02:11Z</time>
      </trkpt>
      <trkpt lat="30.702271610498428" lon="-7.073401752859354">
        <ele>1417.5999999999999</ele>
        <time>2019-03-15T15:02:12Z</time>
      </trkpt>
      <trkpt lat="30.702440924942493" lon="-7.074252935126424">
        <ele>1417.5999999999999</ele>
        <time>2019-03-15T15:02:13Z</time>
      </trkpt>
      <trkpt lat="30.702484427019954" lon="-7.074328623712063">
        <ele>1417.5999999999999</ele>
        <time>2019-03-15T15:02:14Z</time>
      </trkpt>
      <trkpt lat="30.702534718438983" lon="-7.074401713907719">
        <ele>1418.0799999999999</ele>
        <time>2019-03-15T15:02:15Z</time>
      </trkpt>
      <trkpt lat="30.702591966837645" lon="-7.074468685314059">
        <ele>1418.5599999999999</ele>
        <time>2019-03-15T15:02:16Z</time>
      </trkpt>
      <trkpt lat="30.70265332236886" lon="-7.07453372888267">
        <ele>1419.04</ele>
        <time>2019-03-15T15:02:17Z</time>
      </trkpt>
      <trkpt lat="30.70277008228004" lon="-7.074681920930743">
        <ele>1419.52</ele>
        <time>2019-03-15T15:02:18Z</time>
      </trkpt>
      <trkpt lat="30.702815596014261" lon="-7.074770433828235">
        <ele>1420</ele>
        <time>2019-03-15T15:02:19Z</time>
      </trkpt>
      <trkpt lat="30.702845519408584" lon="-7.074869759380817">
        <ele>1420.49</ele>
        <time>2019-03-15T15:02:20Z</time>
      </trkpt>
      <trkpt lat="30.702859936282039" lon="-7.074975706636906">
        <ele>1420.49</ele>
        <time>2019-03-15T15:02:23Z</time>
      </trkpt>
      <trkpt lat="30.702861864119768" lon="-7.075084252282977">
        <ele>1420.97</ele>
        <time>2019-03-15T15:02:24Z</time>
      </trkpt>
      <trkpt lat="30.702853901311755" lon="-7.07519288174808">
        <ele>1420.97</ele>
        <time>2019-03-15T15:02:25Z</time>
      </trkpt>
      <trkpt lat="30.702834958210588" lon="-7.075299667194486">
        <ele>1421.45</ele>
        <time>2019-03-15T15:02:28Z</time>
      </trkpt>
      <trkpt lat="30.702809477224946" lon="-7.075402596965432">
        <ele>1421.9300000000001</ele>
        <time>2019-03-15T15:02:38Z</time>
      </trkpt>
      <trkpt lat="30.702786343172193" lon="-7.075504520907998">
        <ele>1422.4100000000001</ele>
        <time>2019-03-15T15:02:40Z</time>
      </trkpt>
      <trkpt lat="30.702771423384547" lon="-7.075608037412167">
        <ele>1422.8900000000001</ele>
        <time>2019-03-15T15:02:41Z</time>
      </trkpt>
      <trkpt lat="30.702770501375198" lon="-7.07571079954505">
        <ele>1423.3699999999999</ele>
        <time>2019-03-15T15:02:42Z</time>
      </trkpt>
      <trkpt lat="30.702785840258002" lon="-7.075811885297298">
        <ele>1423.8499999999999</ele>
        <time>2019-03-15T15:02:43Z</time>
      </trkpt>
      <trkpt lat="30.702818613499403" lon="-7.075905343517661">
        <ele>1423.8499999999999</ele>
        <time>2019-03-15T15:02:44Z</time>
      </trkpt>
      <trkpt lat="30.702861109748483" lon="-7.075993856415153">
        <ele>1424.3299999999999</ele>
        <time>2019-03-15T15:02:45Z</time>
      </trkpt>
      <trkpt lat="30.702911652624607" lon="-7.076080190017819">
        <ele>1424.3299999999999</ele>
        <time>2019-03-15T15:02:46Z</time>
      </trkpt>
      <trkpt lat="30.70296747609973" lon="-7.076163841411471">
        <ele>1424.8099999999999</ele>
        <time>2019-03-15T15:02:47Z</time>
      </trkpt>
      <trkpt lat="30.703029250726104" lon="-7.076243469491601">
        <ele>1430.0999999999999</ele>
        <time>2019-03-15T15:02:48Z</time>
      </trkpt>
      <trkpt lat="30.703089097514749" lon="-7.076330641284585">
        <ele>1433.9400000000001</ele>
        <time>2019-03-15T15:02:49Z</time>
      </trkpt>
      <trkpt lat="30.703137209638953" lon="-7.076429463922977">
        <ele>1433.9400000000001</ele>
        <time>2019-03-15T15:02:50Z</time>
      </trkpt>
      <trkpt lat="30.703171659260988" lon="-7.076540188863874">
        <ele>1434.4200000000001</ele>
        <time>2019-03-15T15:02:51Z</time>
      </trkpt>
      <trkpt lat="30.703195463865995" lon="-7.076655859127641">
        <ele>1434.9100000000001</ele>
        <time>2019-03-15T15:03:03Z</time>
      </trkpt>
      <trkpt lat="30.703212982043624" lon="-7.076771361753345">
        <ele>1435.3900000000001</ele>
        <time>2019-03-15T15:03:04Z</time>
      </trkpt>
      <trkpt lat="30.703480280935764" lon="-7.078335424885154">
        <ele>1436.3499999999999</ele>
        <time>2019-03-15T15:03:08Z</time>
      </trkpt>
      <trkpt lat="30.703529566526413" lon="-7.079281155019999">
        <ele>1436.8299999999999</ele>
        <time>2019-03-15T15:03:09Z</time>
      </trkpt>
      <trkpt lat="30.703554712235928" lon="-7.079416858032346">
        <ele>1437.79</ele>
        <time>2019-03-15T15:03:10Z</time>
      </trkpt>
      <trkpt lat="30.703587736934423" lon="-7.079546777531505">
        <ele>1438.27</ele>
        <time>2019-03-15T15:03:11Z</time>
      </trkpt>
      <trkpt lat="30.703629897907376" lon="-7.079670075327158">
        <ele>1438.75</ele>
        <time>2019-03-15T15:03:12Z</time>
      </trkpt>
      <trkpt lat="30.703679518774152" lon="-7.079786751419306">
        <ele>1438.75</ele>
        <time>2019-03-15T15:03:13Z</time>
      </trkpt>
      <trkpt lat="30.703734336420894" lon="-7.079897643998265">
        <ele>1439.23</ele>
        <time>2019-03-15T15:03:14Z</time>
      </trkpt>
      <trkpt lat="30.703788483515382" lon="-7.080002669245005">
        <ele>1440.6700000000001</ele>
        <time>2019-03-15T15:03:15Z</time>
      </trkpt>
      <trkpt lat="30.703830309212208" lon="-7.080108113586903">
        <ele>1441.6300000000001</ele>
        <time>2019-03-15T15:03:16Z</time>
      </trkpt>
      <trkpt lat="30.703845815733075" lon="-7.080218335613608">
        <ele>1442.1099999999999</ele>
        <time>2019-03-15T15:03:17Z</time>
      </trkpt>
      <trkpt lat="30.703830225393176" lon="-7.080328809097409">
        <ele>1443.5599999999999</ele>
        <time>2019-03-15T15:03:18Z</time>
      </trkpt>
      <trkpt lat="30.703790076076984" lon="-7.080429559573531">
        <ele>1444.52</ele>
        <time>2019-03-15T15:03:20Z</time>
      </trkpt>
      <trkpt lat="30.703737605363131" lon="-7.080521257594228">
        <ele>1448.8399999999999</ele>
        <time>2019-03-15T15:03:21Z</time>
      </trkpt>
      <trkpt lat="30.703648589551449" lon="-7.080723596736789">
        <ele>1449.8099999999999</ele>
        <time>2019-03-15T15:03:22Z</time>
      </trkpt>
      <trkpt lat="30.703625706955791" lon="-7.080836668610573">
        <ele>1451.25</ele>
        <time>2019-03-15T15:03:23Z</time>
      </trkpt>
      <trkpt lat="30.70361539721489" lon="-7.08095476962626">
        <ele>1451.73</ele>
        <time>2019-03-15T15:03:24Z</time>
      </trkpt>
      <trkpt lat="30.703613301739097" lon="-7.081074463203549">
        <ele>1452.21</ele>
        <time>2019-03-15T15:03:25Z</time>
      </trkpt>
      <trkpt lat="30.703616067767143" lon="-7.081194324418902">
        <ele>1453.1700000000001</ele>
        <time>2019-03-15T15:03:26Z</time>
      </trkpt>
      <trkpt lat="30.703658312559128" lon="-7.081658346578479">
        <ele>1453.6500000000001</ele>
        <time>2019-03-15T15:03:27Z</time>
      </trkpt>
      <trkpt lat="30.703687816858292" lon="-7.081768065690994">
        <ele>1454.1300000000001</ele>
        <time>2019-03-15T15:03:28Z</time>
      </trkpt>
      <trkpt lat="30.703742299228907" lon="-7.081982390955091">
        <ele>1454.6099999999999</ele>
        <time>2019-03-15T15:03:29Z</time>
      </trkpt>
      <trkpt lat="30.703745651990175" lon="-7.082088170573115">
        <ele>1455.0899999999999</ele>
        <time>2019-03-15T15:03:30Z</time>
      </trkpt>
      <trkpt lat="30.703727127984166" lon="-7.082194201648235">
        <ele>1455.5699999999999</ele>
        <time>2019-03-15T15:03:31Z</time>
      </trkpt>
      <trkpt lat="30.70369066670537" lon="-7.08229654468596">
        <ele>1455.5699999999999</ele>
        <time>2019-03-15T15:03:32Z</time>
      </trkpt>
      <trkpt lat="30.703641548752785" lon="-7.082392266020179">
        <ele>1456.05</ele>
        <time>2019-03-15T15:03:44Z</time>
      </trkpt>
      <trkpt lat="30.703581282868981" lon="-7.082482287660241">
        <ele>1456.53</ele>
        <time>2019-03-15T15:03:45Z</time>
      </trkpt>
      <trkpt lat="30.703519089147449" lon="-7.082572728395462">
        <ele>1457.02</ele>
        <time>2019-03-15T15:03:46Z</time>
      </trkpt>
      <trkpt lat="30.703461254015565" lon="-7.082665180787444">
        <ele>1458.9400000000001</ele>
        <time>2019-03-15T15:03:47Z</time>
      </trkpt>
      <trkpt lat="30.703416913747787" lon="-7.082768194377422">
        <ele>1459.9000000000001</ele>
        <time>2019-03-15T15:03:48Z</time>
      </trkpt>
      <trkpt lat="30.703394869342446" lon="-7.082878667861223">
        <ele>1460.3800000000001</ele>
        <time>2019-03-15T15:03:49Z</time>
      </trkpt>
      <trkpt lat="30.703393444418907" lon="-7.082993499934673">
        <ele>1461.3399999999999</ele>
        <time>2019-03-15T15:03:50Z</time>
      </trkpt>
      <trkpt lat="30.703413728624582" lon="-7.083107326179743">
        <ele>1462.78</ele>
        <time>2019-03-15T15:03:51Z</time>
      </trkpt>
      <trkpt lat="30.703445412218571" lon="-7.083220984786749">
        <ele>1463.26</ele>
        <time>2019-03-15T15:03:52Z</time>
      </trkpt>
      <trkpt lat="30.703540211543441" lon="-7.083576796576381">
        <ele>1463.74</ele>
        <time>2019-03-15T15:03:58Z</time>
      </trkpt>
      <trkpt lat="30.703551694750786" lon="-7.083703279495239">
        <ele>1463.74</ele>
        <time>2019-03-15T15:03:59Z</time>
      </trkpt>
      <trkpt lat="30.703551946207881" lon="-7.083830097690225">
        <ele>1464.23</ele>
        <time>2019-03-15T15:04:00Z</time>
      </trkpt>
      <trkpt lat="30.703534008935094" lon="-7.084139892831445">
        <ele>1464.71</ele>
        <time>2019-03-15T15:04:01Z</time>
      </trkpt>
      <trkpt lat="30.703537864610553" lon="-7.085227109491825">
        <ele>1465.6700000000001</ele>
        <time>2019-03-15T15:04:02Z</time>
      </trkpt>
      <trkpt lat="30.703548928722739" lon="-7.085418552160263">
        <ele>1466.6300000000001</ele>
        <time>2019-03-15T15:04:03Z</time>
      </trkpt>
      <trkpt lat="30.703572314232588" lon="-7.085496922954917">
        <ele>1467.5899999999999</ele>
        <time>2019-03-15T15:04:04Z</time>
      </trkpt>
      <trkpt lat="30.703603997826576" lon="-7.085561715066433">
        <ele>1468.0699999999999</ele>
        <time>2019-03-15T15:04:05Z</time>
      </trkpt>
      <trkpt lat="30.703645823523402" lon="-7.085609743371606">
        <ele>1469.03</ele>
        <time>2019-03-15T15:04:06Z</time>
      </trkpt>
      <trkpt lat="30.703696701675653" lon="-7.08563145250082">
        <ele>1469.51</ele>
        <time>2019-03-15T15:04:07Z</time>
      </trkpt>
      <trkpt lat="30.703750681132078" lon="-7.085623992606998">
        <ele>1469.99</ele>
        <time>2019-03-15T15:04:08Z</time>
      </trkpt>
      <trkpt lat="30.703798457980156" lon="-7.085591554641724">
        <ele>1477.6800000000001</ele>
        <time>2019-03-15T15:04:09Z</time>
      </trkpt>
      <trkpt lat="30.70383190177381" lon="-7.08553858101368">
        <ele>1478.1600000000001</ele>
        <time>2019-03-15T15:04:10Z</time>
      </trkpt>
      <trkpt lat="30.703849503770471" lon="-7.085470436140895">
        <ele>1481.05</ele>
        <time>2019-03-15T15:04:13Z</time>
      </trkpt>
      <trkpt lat="30.703864339739084" lon="-7.085391310974956">
        <ele>1482.01</ele>
        <time>2019-03-15T15:04:14Z</time>
      </trkpt>
      <trkpt lat="30.703882277011871" lon="-7.085304223001003">
        <ele>1482.97</ele>
        <time>2019-03-15T15:04:16Z</time>
      </trkpt>
      <trkpt lat="30.70389786735177" lon="-7.085214955732226">
        <ele>1483.9300000000001</ele>
        <time>2019-03-15T15:04:17Z</time>
      </trkpt>
      <trkpt lat="30.704141277819872" lon="-7.08412011153996">
        <ele>1484.8900000000001</ele>
        <time>2019-03-15T15:04:27Z</time>
      </trkpt>
      <trkpt lat="30.704145804047585" lon="-7.084027323871851">
        <ele>1485.3699999999999</ele>
        <time>2019-03-15T15:04:30Z</time>
      </trkpt>
      <trkpt lat="30.704176397994161" lon="-7.083660364151001">
        <ele>1485.8499999999999</ele>
        <time>2019-03-15T15:04:31Z</time>
      </trkpt>
      <trkpt lat="30.704195844009519" lon="-7.083571935072541">
        <ele>1486.3399999999999</ele>
        <time>2019-03-15T15:04:35Z</time>
      </trkpt>
      <trkpt lat="30.704221408814192" lon="-7.083487948402762">
        <ele>1486.8199999999999</ele>
        <time>2019-03-15T15:04:36Z</time>
      </trkpt>
      <trkpt lat="30.704258037731051" lon="-7.083412259817123">
        <ele>1487.3</ele>
        <time>2019-03-15T15:04:37Z</time>
      </trkpt>
      <trkpt lat="30.704308832064271" lon="-7.083349311724305">
        <ele>1487.78</ele>
        <time>2019-03-15T15:04:38Z</time>
      </trkpt>
      <trkpt lat="30.704367840662599" lon="-7.083303546532989">
        <ele>1489.22</ele>
        <time>2019-03-15T15:04:39Z</time>
      </trkpt>
      <trkpt lat="30.704431878402829" lon="-7.083279322832823">
        <ele>1489.7</ele>
        <time>2019-03-15T15:04:40Z</time>
      </trkpt>
      <trkpt lat="30.704503795132041" lon="-7.083272198215127">
        <ele>1490.6600000000001</ele>
        <time>2019-03-15T15:04:41Z</time>
      </trkpt>
      <trkpt lat="30.70457998663187" lon="-7.083282005041838">
        <ele>1491.6199999999999</ele>
        <time>2019-03-15T15:04:42Z</time>
      </trkpt>
      <trkpt lat="30.704660201445222" lon="-7.08330798894167">
        <ele>1492.0999999999999</ele>
        <time>2019-03-15T15:04:43Z</time>
      </trkpt>
      <trkpt lat="30.704742595553398" lon="-7.083340846002102">
        <ele>1492.5799999999999</ele>
        <time>2019-03-15T15:04:44Z</time>
      </trkpt>
      <trkpt lat="30.704918699339032" lon="-7.083394154906273">
        <ele>1493.55</ele>
        <time>2019-03-15T15:04:45Z</time>
      </trkpt>
      <trkpt lat="30.705009642988443" lon="-7.083399184048176">
        <ele>1494.03</ele>
        <time>2019-03-15T15:04:46Z</time>
      </trkpt>
      <trkpt lat="30.70509790442884" lon="-7.083389293402433">
        <ele>1494.51</ele>
        <time>2019-03-15T15:04:55Z</time>
      </trkpt>
      <trkpt lat="30.705179627984762" lon="-7.083364650607109">
        <ele>1494.99</ele>
        <time>2019-03-15T15:05:04Z</time>
      </trkpt>
      <trkpt lat="30.705251293256879" lon="-7.083324333652854">
        <ele>1495.47</ele>
        <time>2019-03-15T15:05:05Z</time>
      </trkpt>
      <trkpt lat="30.705311810597777" lon="-7.083273539319634">
        <ele>1495.95</ele>
        <time>2019-03-15T15:05:06Z</time>
      </trkpt>
      <trkpt lat="30.70535933598876" lon="-7.083211010321975">
        <ele>1496.9100000000001</ele>
        <time>2019-03-15T15:05:07Z</time>
      </trkpt>
      <trkpt lat="30.705391522496939" lon="-7.083140602335334">
        <ele>1503.6400000000001</ele>
        <time>2019-03-15T15:05:08Z</time>
      </trkpt>
      <trkpt lat="30.705408621579409" lon="-7.083061560988426">
        <ele>1504.1199999999999</ele>
        <time>2019-03-15T15:05:09Z</time>
      </trkpt>
      <trkpt lat="30.705412309616804" lon="-7.082976317033172">
        <ele>1504.5999999999999</ele>
        <time>2019-03-15T15:05:10Z</time>
      </trkpt>
      <trkpt lat="30.705401999875903" lon="-7.082888977602124">
        <ele>1505.0799999999999</ele>
        <time>2019-03-15T15:05:11Z</time>
      </trkpt>
      <trkpt lat="30.70538179948926" lon="-7.082802643999457">
        <ele>1505.0799999999999</ele>
        <time>2019-03-15T15:05:12Z</time>
      </trkpt>
      <trkpt lat="30.705355396494269" lon="-7.082717400044203">
        <ele>1505.5599999999999</ele>
        <time>2019-03-15T15:05:13Z</time>
      </trkpt>
      <trkpt lat="30.704934792593122" lon="-7.081692712381482">
        <ele>1506.04</ele>
        <time>2019-03-15T15:05:14Z</time>
      </trkpt>
      <trkpt lat="30.704919118434191" lon="-7.081601936370134">
        <ele>1506.52</ele>
        <time>2019-03-15T15:05:16Z</time>
      </trkpt>
      <trkpt lat="30.704912999644876" lon="-7.08151375874877">
        <ele>1506.52</ele>
        <time>2019-03-15T15:05:17Z</time>
      </trkpt>
      <trkpt lat="30.704922219738364" lon="-7.081429436802864">
        <ele>1508.9300000000001</ele>
        <time>2019-03-15T15:05:22Z</time>
      </trkpt>
      <trkpt lat="30.704945269972086" lon="-7.081349389627576">
        <ele>1509.4100000000001</ele>
        <time>2019-03-15T15:05:23Z</time>
      </trkpt>
      <trkpt lat="30.70498164743185" lon="-7.08127579651773">
        <ele>1509.8900000000001</ele>
        <time>2019-03-15T15:05:24Z</time>
      </trkpt>
      <trkpt lat="30.705033950507641" lon="-7.08121326752007">
        <ele>1509.8900000000001</ele>
        <time>2019-03-15T15:05:25Z</time>
      </trkpt>
      <trkpt lat="30.705099329352379" lon="-7.081160126253963">
        <ele>1510.3699999999999</ele>
        <time>2019-03-15T15:05:26Z</time>
      </trkpt>
      <trkpt lat="30.705174850299954" lon="-7.081115702167153">
        <ele>1510.3699999999999</ele>
        <time>2019-03-15T15:05:27Z</time>
      </trkpt>
      <trkpt lat="30.705698551610112" lon="-7.080850079655647">
        <ele>1510.8499999999999</ele>
        <time>2019-03-15T15:05:28Z</time>
      </trkpt>
      <trkpt lat="30.705776838585734" lon="-7.080839602276683">
        <ele>1511.3299999999999</ele>
        <time>2019-03-15T15:05:29Z</time>
      </trkpt>
      <trkpt lat="30.705851269885898" lon="-7.080849409103394">
        <ele>1511.8099999999999</ele>
        <time>2019-03-15T15:05:30Z</time>
      </trkpt>
      <trkpt lat="30.705920923501253" lon="-7.080880841240287">
        <ele>1512.29</ele>
        <time>2019-03-15T15:05:31Z</time>
      </trkpt>
      <trkpt lat="30.705988649278879" lon="-7.080924762412906">
        <ele>1512.29</ele>
        <time>2019-03-15T15:05:32Z</time>
      </trkpt>
      <trkpt lat="30.706060733646154" lon="-7.080961894243956">
        <ele>1512.77</ele>
        <time>2019-03-15T15:05:35Z</time>
      </trkpt>
      <trkpt lat="30.706140529364347" lon="-7.080978322774172">
        <ele>1513.25</ele>
        <time>2019-03-15T15:05:36Z</time>
      </trkpt>
      <trkpt lat="30.70622568950057" lon="-7.080972120165825">
        <ele>1514.21</ele>
        <time>2019-03-15T15:05:40Z</time>
      </trkpt>
      <trkpt lat="30.706313531845808" lon="-7.080941190943122">
        <ele>1514.6900000000001</ele>
        <time>2019-03-15T15:05:41Z</time>
      </trkpt>
      <trkpt lat="30.706394165754318" lon="-7.080887043848634">
        <ele>1515.6600000000001</ele>
        <time>2019-03-15T15:05:42Z</time>
      </trkpt>
      <trkpt lat="30.706467088311911" lon="-7.080819401890039">
        <ele>1515.6600000000001</ele>
        <time>2019-03-15T15:05:51Z</time>
      </trkpt>
      <trkpt lat="30.706536574289203" lon="-7.080742623656988">
        <ele>1510.3699999999999</ele>
        <time>2019-03-15T15:05:57Z</time>
      </trkpt>
      <trkpt lat="30.70660438388586" lon="-7.080664755776525">
        <ele>1508.45</ele>
        <time>2019-03-15T15:05:58Z</time>
      </trkpt>
      <trkpt lat="30.706804376095533" lon="-7.080437438562512">
        <ele>1507.48</ele>
        <time>2019-03-15T15:05:59Z</time>
      </trkpt>
      <trkpt lat="30.706876209005713" lon="-7.080374658107758">
        <ele>1505.0799999999999</ele>
        <time>2019-03-15T15:06:00Z</time>
      </trkpt>
      <trkpt lat="30.707010738551617" lon="-7.080257143825293">
        <ele>1504.5999999999999</ele>
        <time>2019-03-15T15:06:01Z</time>
      </trkpt>
      <trkpt lat="30.707069328054786" lon="-7.080187741667032">
        <ele>1504.1199999999999</ele>
        <time>2019-03-15T15:06:02Z</time>
      </trkpt>
      <trkpt lat="30.70768665522337" lon="-7.079188786447048">
        <ele>1503.6400000000001</ele>
        <time>2019-03-15T15:06:03Z</time>
      </trkpt>
      <trkpt lat="30.707808444276452" lon="-7.07882777787745">
        <ele>1503.1600000000001</ele>
        <time>2019-03-15T15:06:04Z</time>
      </trkpt>
      <trkpt lat="30.707828225567937" lon="-7.078700289130211">
        <ele>1502.6800000000001</ele>
        <time>2019-03-15T15:06:05Z</time>
      </trkpt>
      <trkpt lat="30.707916403189301" lon="-7.07824339158833">
        <ele>1502.2</ele>
        <time>2019-03-15T15:06:06Z</time>
      </trkpt>
      <trkpt lat="30.707950098440051" lon="-7.078162506222725">
        <ele>1501.72</ele>
        <time>2019-03-15T15:06:15Z</time>
      </trkpt>
      <trkpt lat="30.707993600517511" lon="-7.078098887577653">
        <ele>1500.76</ele>
        <time>2019-03-15T15:06:16Z</time>
      </trkpt>
      <trkpt lat="30.708041209727526" lon="-7.078054463490844">
        <ele>1499.79</ele>
        <time>2019-03-15T15:06:17Z</time>
      </trkpt>
      <trkpt lat="30.708093177527189" lon="-7.07803376019001">
        <ele>1499.3099999999999</ele>
        <time>2019-03-15T15:06:18Z</time>
      </trkpt>
      <trkpt lat="30.708143385127187" lon="-7.078035604208708">
        <ele>1498.3499999999999</ele>
        <time>2019-03-15T15:06:19Z</time>
      </trkpt>
      <trkpt lat="30.708186132833362" lon="-7.078065192326903">
        <ele>1494.51</ele>
        <time>2019-03-15T15:06:20Z</time>
      </trkpt>
      <trkpt lat="30.708217229694128" lon="-7.078118165954948">
        <ele>1490.6600000000001</ele>
        <time>2019-03-15T15:06:21Z</time>
      </trkpt>
      <trkpt lat="30.708228126168251" lon="-7.078188322484493">
        <ele>1490.1800000000001</ele>
        <time>2019-03-15T15:06:22Z</time>
      </trkpt>
      <trkpt lat="30.708226952701807" lon="-7.078267196193337">
        <ele>1490.1800000000001</ele>
        <time>2019-03-15T15:06:23Z</time>
      </trkpt>
      <trkpt lat="30.708218403160572" lon="-7.07835135050118">
        <ele>1489.7</ele>
        <time>2019-03-15T15:06:34Z</time>
      </trkpt>
      <trkpt lat="30.708204405382276" lon="-7.078440114855766">
        <ele>1489.22</ele>
        <time>2019-03-15T15:06:46Z</time>
      </trkpt>
      <trkpt lat="30.70809175260365" lon="-7.079463712871075">
        <ele>1489.22</ele>
        <time>2019-03-15T15:06:57Z</time>
      </trkpt>
      <trkpt lat="30.707992510870099" lon="-7.080439869314432">
        <ele>1488.26</ele>
        <time>2019-03-15T15:07:12Z</time>
      </trkpt>
      <trkpt lat="30.707988319918513" lon="-7.080522933974862">
        <ele>1487.78</ele>
        <time>2019-03-15T15:07:23Z</time>
      </trkpt>
      <trkpt lat="30.707997959107161" lon="-7.080603567883372">
        <ele>1486.8199999999999</ele>
        <time>2019-03-15T15:07:33Z</time>
      </trkpt>
      <trkpt lat="30.708029307425022" lon="-7.080675903707743">
        <ele>1485.8499999999999</ele>
        <time>2019-03-15T15:07:37Z</time>
      </trkpt>
      <trkpt lat="30.70808001793921" lon="-7.080732313916087">
        <ele>1484.4100000000001</ele>
        <time>2019-03-15T15:07:38Z</time>
      </trkpt>
      <trkpt lat="30.708147156983614" lon="-7.080755028873682">
        <ele>1482.49</ele>
        <time>2019-03-15T15:07:39Z</time>
      </trkpt>
      <trkpt lat="30.708217984065413" lon="-7.080734325572848">
        <ele>1481.53</ele>
        <time>2019-03-15T15:07:40Z</time>
      </trkpt>
      <trkpt lat="30.708273556083441" lon="-7.080674059689045">
        <ele>1477.2</ele>
        <time>2019-03-15T15:07:41Z</time>
      </trkpt>
      <trkpt lat="30.70830867625773" lon="-7.080589234828949">
        <ele>1476.72</ele>
        <time>2019-03-15T15:07:45Z</time>
      </trkpt>
      <trkpt lat="30.708322506397963" lon="-7.080486053600907">
        <ele>1475.76</ele>
        <time>2019-03-15T15:07:46Z</time>
      </trkpt>
      <trkpt lat="30.708329463377595" lon="-7.080372730270028">
        <ele>1475.28</ele>
        <time>2019-03-15T15:07:53Z</time>
      </trkpt>
      <trkpt lat="30.708359805867076" lon="-7.080140383914113">
        <ele>1474.8</ele>
        <time>2019-03-15T15:07:54Z</time>
      </trkpt>
      <trkpt lat="30.708391657099128" lon="-7.080027563497424">
        <ele>1473.8399999999999</ele>
        <time>2019-03-15T15:07:55Z</time>
      </trkpt>
      <trkpt lat="30.708604138344526" lon="-7.079520206898451">
        <ele>1473.8399999999999</ele>
        <time>2019-03-15T15:07:56Z</time>
      </trkpt>
      <trkpt lat="30.70867320522666" lon="-7.079453654587269">
        <ele>1472.8800000000001</ele>
        <time>2019-03-15T15:07:57Z</time>
      </trkpt>
      <trkpt lat="30.708757024258375" lon="-7.079415516927838">
        <ele>1472.4000000000001</ele>
        <time>2019-03-15T15:07:58Z</time>
      </trkpt>
      <trkpt lat="30.708848889917135" lon="-7.079410320147872">
        <ele>1471.9200000000001</ele>
        <time>2019-03-15T15:07:59Z</time>
      </trkpt>
      <trkpt lat="30.708941677585244" lon="-7.079428425058723">
        <ele>1470.95</ele>
        <time>2019-03-15T15:08:00Z</time>
      </trkpt>
      <trkpt lat="30.70903236977756" lon="-7.079446110874414">
        <ele>1468.55</ele>
        <time>2019-03-15T15:08:11Z</time>
      </trkpt>
      <trkpt lat="30.709121804684401" lon="-7.079436304047704">
        <ele>1467.1099999999999</ele>
        <time>2019-03-15T15:08:17Z</time>
      </trkpt>
      <trkpt lat="30.709210317581892" lon="-7.079395148903132">
        <ele>1463.74</ele>
        <time>2019-03-15T15:08:18Z</time>
      </trkpt>
      <trkpt lat="30.709297154098749" lon="-7.079330440610647">
        <ele>1462.78</ele>
        <time>2019-03-15T15:08:19Z</time>
      </trkpt>
      <trkpt lat="30.70938466116786" lon="-7.07925776951015">
        <ele>1461.8199999999999</ele>
        <time>2019-03-15T15:08:20Z</time>
      </trkpt>
      <trkpt lat="30.709478706121445" lon="-7.079191971570253">
        <ele>1453.1700000000001</ele>
        <time>2019-03-15T15:08:21Z</time>
      </trkpt>
      <trkpt lat="30.709775341674685" lon="-7.079003043472767">
        <ele>1449.8099999999999</ele>
        <time>2019-03-15T15:08:22Z</time>
      </trkpt>
      <trkpt lat="30.709867626428604" lon="-7.078916458413005">
        <ele>1448.8399999999999</ele>
        <time>2019-03-15T15:08:23Z</time>
      </trkpt>
      <trkpt lat="30.710235256701708" lon="-7.078559389337897">
        <ele>1447.8800000000001</ele>
        <time>2019-03-15T15:08:24Z</time>
      </trkpt>
      <trkpt lat="30.710346316918731" lon="-7.078507170081139">
        <ele>1447.4000000000001</ele>
        <time>2019-03-15T15:08:25Z</time>
      </trkpt>
      <trkpt lat="30.710469027981162" lon="-7.078475570306182">
        <ele>1446.4400000000001</ele>
        <time>2019-03-15T15:08:26Z</time>
      </trkpt>
      <trkpt lat="30.711533864960074" lon="-7.078148340806365">
        <ele>1445.48</ele>
        <time>2019-03-15T15:08:27Z</time>
      </trkpt>
      <trkpt lat="30.71219477802515" lon="-7.077859416604042">
        <ele>1444.52</ele>
        <time>2019-03-15T15:08:28Z</time>
      </trkpt>
      <trkpt lat="30.712298043072224" lon="-7.077772077172995">
        <ele>1443.0799999999999</ele>
        <time>2019-03-15T15:08:29Z</time>
      </trkpt>
      <trkpt lat="30.712389405816793" lon="-7.077672081068158">
        <ele>1442.1099999999999</ele>
        <time>2019-03-15T15:08:30Z</time>
      </trkpt>
      <trkpt lat="30.712472051382065" lon="-7.077561020851135">
        <ele>1440.6700000000001</ele>
        <time>2019-03-15T15:08:31Z</time>
      </trkpt>
      <trkpt lat="30.712537514045835" lon="-7.07743763923645">
        <ele>1429.6199999999999</ele>
        <time>2019-03-15T15:08:43Z</time>
      </trkpt>
      <trkpt lat="30.712591074407101" lon="-7.077306294813752">
        <ele>1428.6600000000001</ele>
        <time>2019-03-15T15:08:54Z</time>
      </trkpt>
      <trkpt lat="30.712632481008768" lon="-7.077165059745312">
        <ele>1427.7</ele>
        <time>2019-03-15T15:08:55Z</time>
      </trkpt>
      <trkpt lat="30.71265896782279" lon="-7.077016280964017">
        <ele>1427.21</ele>
        <time>2019-03-15T15:08:56Z</time>
      </trkpt>
      <trkpt lat="30.712677156552672" lon="-7.076864819973707">
        <ele>1426.25</ele>
        <time>2019-03-15T15:08:57Z</time>
      </trkpt>
      <trkpt lat="30.712686209008098" lon="-7.076711095869541">
        <ele>1425.29</ele>
        <time>2019-03-15T15:08:58Z</time>
      </trkpt>
      <trkpt lat="30.71287002414465" lon="-7.075485410168767">
        <ele>1424.3299999999999</ele>
        <time>2019-03-15T15:08:59Z</time>
      </trkpt>
      <trkpt lat="30.712927859276533" lon="-7.075380720198154">
        <ele>1423.8499999999999</ele>
        <time>2019-03-15T15:09:00Z</time>
      </trkpt>
      <trkpt lat="30.713000446557999" lon="-7.075284998863936">
        <ele>1423.3699999999999</ele>
        <time>2019-03-15T15:09:01Z</time>
      </trkpt>
      <trkpt lat="30.713085187599063" lon="-7.075206628069282">
        <ele>1418.0799999999999</ele>
        <time>2019-03-15T15:09:02Z</time>
      </trkpt>
      <trkpt lat="30.713174873962998" lon="-7.075140327215195">
        <ele>1410.8699999999999</ele>
        <time>2019-03-15T15:09:03Z</time>
      </trkpt>
      <trkpt lat="30.713267661631107" lon="-7.075084252282977">
        <ele>1406.55</ele>
        <time>2019-03-15T15:09:04Z</time>
      </trkpt>
      <trkpt lat="30.713366568088531" lon="-7.075042175129056">
        <ele>1397.4100000000001</ele>
        <time>2019-03-15T15:09:05Z</time>
      </trkpt>
      <trkpt lat="30.713471258059144" lon="-7.075010910630226">
        <ele>1394.05</ele>
        <time>2019-03-15T15:09:06Z</time>
      </trkpt>
      <trkpt lat="30.713579300791025" lon="-7.074986519291997">
        <ele>1389.24</ele>
        <time>2019-03-15T15:09:07Z</time>
      </trkpt>
      <trkpt lat="30.714833317324519" lon="-7.074517384171486">
        <ele>1387.8</ele>
        <time>2019-03-15T15:09:08Z</time>
      </trkpt>
      <trkpt lat="30.716134859248996" lon="-7.073763934895396">
        <ele>1387.8</ele>
        <time>2019-03-15T15:09:09Z</time>
      </trkpt>
      <trkpt lat="30.717125684022903" lon="-7.072893474251032">
        <ele>1387.8</ele>
        <time>2019-03-15T15:09:10Z</time>
      </trkpt>
      <trkpt lat="30.718467626720667" lon="-7.071398310363293">
        <ele>1387.8</ele>
        <time>2019-03-15T15:09:11Z</time>
      </trkpt>
      <trkpt lat="30.719567919149995" lon="-7.070414694026113">
        <ele>1387.8</ele>
        <time>2019-03-15T15:09:16Z</time>
      </trkpt>
      <trkpt lat="30.720785725861788" lon="-7.070018146187067">
        <ele>1386.3599999999999</ele>
        <time>2019-03-15T15:09:17Z</time>
      </trkpt>
      <trkpt lat="30.721280677244067" lon="-7.069945558905602">
        <ele>1385.8800000000001</ele>
        <time>2019-03-15T15:09:18Z</time>
      </trkpt>
      <trkpt lat="30.721399867907166" lon="-7.069953354075551">
        <ele>1382.51</ele>
        <time>2019-03-15T15:09:19Z</time>
      </trkpt>
      <trkpt lat="30.721518471837044" lon="-7.069976152852178">
        <ele>1382.03</ele>
        <time>2019-03-15T15:09:20Z</time>
      </trkpt>
      <trkpt lat="30.721636237576604" lon="-7.070013200864196">
        <ele>1381.55</ele>
        <time>2019-03-15T15:09:21Z</time>
      </trkpt>
      <trkpt lat="30.721753416582942" lon="-7.070055780932307">
        <ele>1380.5899999999999</ele>
        <time>2019-03-15T15:09:22Z</time>
      </trkpt>
      <trkpt lat="30.722192628309131" lon="-7.070258622989059">
        <ele>1379.6300000000001</ele>
        <time>2019-03-15T15:09:23Z</time>
      </trkpt>
      <trkpt lat="30.72228935547173" lon="-7.070325762033463">
        <ele>1378.6700000000001</ele>
        <time>2019-03-15T15:09:24Z</time>
      </trkpt>
      <trkpt lat="30.723004164174199" lon="-7.07067159935832">
        <ele>1377.71</ele>
        <time>2019-03-15T15:09:25Z</time>
      </trkpt>
      <trkpt lat="30.723105585202575" lon="-7.070686435326934">
        <ele>1377.23</ele>
        <time>2019-03-15T15:09:26Z</time>
      </trkpt>
      <trkpt lat="30.723205162212253" lon="-7.070677299052477">
        <ele>1379.1500000000001</ele>
        <time>2019-03-15T15:09:27Z</time>
      </trkpt>
      <trkpt lat="30.723302308470011" lon="-7.070642011240125">
        <ele>1382.51</ele>
        <time>2019-03-15T15:09:28Z</time>
      </trkpt>
      <trkpt lat="30.723401382565498" lon="-7.070601107552648">
        <ele>1382.99</ele>
        <time>2019-03-15T15:09:29Z</time>
      </trkpt>
      <trkpt lat="30.723504982888699" lon="-7.070567915216088">
        <ele>1383.47</ele>
        <time>2019-03-15T15:09:40Z</time>
      </trkpt>
      <trkpt lat="30.723613109439611" lon="-7.070542685687542">
        <ele>1383.47</ele>
        <time>2019-03-15T15:09:52Z</time>
      </trkpt>
      <trkpt lat="30.723723918199539" lon="-7.070521814748645">
        <ele>1383.96</ele>
        <time>2019-03-15T15:09:59Z</time>
      </trkpt>
      <trkpt lat="30.72496997192502" lon="-7.070070030167699">
        <ele>1383.96</ele>
        <time>2019-03-15T15:10:00Z</time>
      </trkpt>
      <trkpt lat="30.725536840036511" lon="-7.069629896432161">
        <ele>1383.47</ele>
        <time>2019-03-15T15:10:01Z</time>
      </trkpt>
      <trkpt lat="30.725642368197441" lon="-7.069584215059876">
        <ele>1383.47</ele>
        <time>2019-03-15T15:10:02Z</time>
      </trkpt>
      <trkpt lat="30.725744124501944" lon="-7.069551441818476">
        <ele>1383.47</ele>
        <time>2019-03-15T15:10:03Z</time>
      </trkpt>
      <trkpt lat="30.725845461711287" lon="-7.06953501328826">
        <ele>1382.99</ele>
        <time>2019-03-15T15:10:04Z</time>
      </trkpt>
      <trkpt lat="30.725943027064204" lon="-7.069536438211799">
        <ele>1382.99</ele>
        <time>2019-03-15T15:10:05Z</time>
      </trkpt>
      <trkpt lat="30.726037658751011" lon="-7.06955554895103">
        <ele>1382.51</ele>
        <time>2019-03-15T15:10:06Z</time>
      </trkpt>
      <trkpt lat="30.726126171648502" lon="-7.069589830935001">
        <ele>1382.03</ele>
        <time>2019-03-15T15:10:07Z</time>
      </trkpt>
      <trkpt lat="30.726205883547664" lon="-7.069641714915633">
        <ele>1381.55</ele>
        <time>2019-03-15T15:10:08Z</time>
      </trkpt>
      <trkpt lat="30.72628048248589" lon="-7.069708770141006">
        <ele>1381.0699999999999</ele>
        <time>2019-03-15T15:10:09Z</time>
      </trkpt>
      <trkpt lat="30.726350471377373" lon="-7.069789655506611">
        <ele>1377.23</ele>
        <time>2019-03-15T15:10:10Z</time>
      </trkpt>
      <trkpt lat="30.726414090022445" lon="-7.069880850613117">
        <ele>1370.02</ele>
        <time>2019-03-15T15:10:11Z</time>
      </trkpt>
      <trkpt lat="30.72646563872695" lon="-7.069983361288905">
        <ele>1370.02</ele>
        <time>2019-03-15T15:10:22Z</time>
      </trkpt>
      <trkpt lat="30.726505788043141" lon="-7.070094672963023">
        <ele>1369.54</ele>
        <time>2019-03-15T15:10:38Z</time>
      </trkpt>
      <trkpt lat="30.726534202694893" lon="-7.070211516693234">
        <ele>1369.54</ele>
        <time>2019-03-15T15:10:45Z</time>
      </trkpt>
      <trkpt lat="30.726557923480868" lon="-7.070331629365683">
        <ele>1369.54</ele>
        <time>2019-03-15T15:10:46Z</time>
      </trkpt>
      <trkpt lat="30.726779038086534" lon="-7.071830313652754">
        <ele>1369.54</ele>
        <time>2019-03-15T15:10:47Z</time>
      </trkpt>
      <trkpt lat="30.727035356685519" lon="-7.073134873062372">
        <ele>1369.54</ele>
        <time>2019-03-15T15:11:00Z</time>
      </trkpt>
      <trkpt lat="30.727092605084181" lon="-7.073239563032985">
        <ele>1369.54</ele>
        <time>2019-03-15T15:11:11Z</time>
      </trkpt>
      <trkpt lat="30.727162091061473" lon="-7.073334865272045">
        <ele>1369.05</ele>
        <time>2019-03-15T15:11:15Z</time>
      </trkpt>
      <trkpt lat="30.727244317531586" lon="-7.073414409533143">
        <ele>1368.5699999999999</ele>
        <time>2019-03-15T15:11:16Z</time>
      </trkpt>
      <trkpt lat="30.727337775751948" lon="-7.073469646275044">
        <ele>1367.6099999999999</ele>
        <time>2019-03-15T15:11:17Z</time>
      </trkpt>
      <trkpt lat="30.7274404540658" lon="-7.073508622124791">
        <ele>1366.6500000000001</ele>
        <time>2019-03-15T15:11:18Z</time>
      </trkpt>
      <trkpt lat="30.727546568959951" lon="-7.073530750349164">
        <ele>1366.1700000000001</ele>
        <time>2019-03-15T15:11:19Z</time>
      </trkpt>
      <trkpt lat="30.727655785158277" lon="-7.073534522205591">
        <ele>1365.21</ele>
        <time>2019-03-15T15:11:20Z</time>
      </trkpt>
      <trkpt lat="30.727765085175633" lon="-7.073517004027963">
        <ele>1364.73</ele>
        <time>2019-03-15T15:11:21Z</time>
      </trkpt>
      <trkpt lat="30.727869607508183" lon="-7.07347777672112">
        <ele>1364.25</ele>
        <time>2019-03-15T15:11:22Z</time>
      </trkpt>
      <trkpt lat="30.727969771251082" lon="-7.073414660990238">
        <ele>1363.29</ele>
        <time>2019-03-15T15:11:23Z</time>
      </trkpt>
      <trkpt lat="30.728058619424701" lon="-7.073334027081728">
        <ele>1362.3299999999999</ele>
        <time>2019-03-15T15:11:36Z</time>
      </trkpt>
      <trkpt lat="30.728133386000991" lon="-7.07323394715786">
        <ele>1355.5999999999999</ele>
        <time>2019-03-15T15:11:49Z</time>
      </trkpt>
      <trkpt lat="30.728197675198317" lon="-7.07312154583633">
        <ele>1354.6300000000001</ele>
        <time>2019-03-15T15:12:02Z</time>
      </trkpt>
      <trkpt lat="30.728244865313172" lon="-7.072997326031327">
        <ele>1353.6700000000001</ele>
        <time>2019-03-15T15:12:14Z</time>
      </trkpt>
      <trkpt lat="30.728281829506159" lon="-7.072868244722486">
        <ele>1353.1900000000001</ele>
        <time>2019-03-15T15:12:22Z</time>
      </trkpt>
      <trkpt lat="30.728305885568261" lon="-7.072736648842692">
        <ele>1352.71</ele>
        <time>2019-03-15T15:12:23Z</time>
      </trkpt>
      <trkpt lat="30.728323739022017" lon="-7.072606477886438">
        <ele>1352.23</ele>
        <time>2019-03-15T15:12:24Z</time>
      </trkpt>
      <trkpt lat="30.728361960500479" lon="-7.072041956707835">
        <ele>1351.75</ele>
        <time>2019-03-15T15:12:25Z</time>
      </trkpt>
      <trkpt lat="30.728359781205654" lon="-7.071947576478124">
        <ele>1351.75</ele>
        <time>2019-03-15T15:12:26Z</time>
      </trkpt>
      <trkpt lat="30.728376712650061" lon="-7.071855962276459">
        <ele>1351.75</ele>
        <time>2019-03-15T15:12:27Z</time>
      </trkpt>
      <trkpt lat="30.728405965492129" lon="-7.071777507662773">
        <ele>1351.27</ele>
        <time>2019-03-15T15:12:37Z</time>
      </trkpt>
      <trkpt lat="30.72844217531383" lon="-7.071722187101841">
        <ele>1351.27</ele>
        <time>2019-03-15T15:12:44Z</time>
      </trkpt>
      <trkpt lat="30.728482659906149" lon="-7.071683630347252">
        <ele>1350.79</ele>
        <time>2019-03-15T15:12:45Z</time>
      </trkpt>
      <trkpt lat="30.728529766201973" lon="-7.071658819913864">
        <ele>1350.3099999999999</ele>
        <time>2019-03-15T15:12:46Z</time>
      </trkpt>
      <trkpt lat="30.728583075106144" lon="-7.071654880419374">
        <ele>1350.3099999999999</ele>
        <time>2019-03-15T15:12:47Z</time>
      </trkpt>
      <trkpt lat="30.728637054562569" lon="-7.071675164625049">
        <ele>1346.9400000000001</ele>
        <time>2019-03-15T15:12:48Z</time>
      </trkpt>
      <trkpt lat="30.72868449613452" lon="-7.071717996150255">
        <ele>1344.0599999999999</ele>
        <time>2019-03-15T15:12:49Z</time>
      </trkpt>
      <trkpt lat="30.728721963241696" lon="-7.0717744063586">
        <ele>1341.6600000000001</ele>
        <time>2019-03-15T15:12:57Z</time>
      </trkpt>
      <trkpt lat="30.728750210255384" lon="-7.071845903992653">
        <ele>1341.1800000000001</ele>
        <time>2019-03-15T15:12:58Z</time>
      </trkpt>
      <trkpt lat="30.728772757574916" lon="-7.071929555386305">
        <ele>1340.7</ele>
        <time>2019-03-15T15:12:59Z</time>
      </trkpt>
      <trkpt lat="30.728794382885098" lon="-7.072022007778287">
        <ele>1340.7</ele>
        <time>2019-03-15T15:13:00Z</time>
      </trkpt>
      <trkpt lat="30.729060927405953" lon="-7.07299891859293">
        <ele>1339.73</ele>
        <time>2019-03-15T15:13:01Z</time>
      </trkpt>
      <trkpt lat="30.729268463328481" lon="-7.073757061734796">
        <ele>1339.25</ele>
        <time>2019-03-15T15:13:02Z</time>
      </trkpt>
      <trkpt lat="30.729538612067699" lon="-7.074183030053973">
        <ele>1338.77</ele>
        <time>2019-03-15T15:13:03Z</time>
      </trkpt>
      <trkpt lat="30.729599297046661" lon="-7.074230471625924">
        <ele>1338.29</ele>
        <time>2019-03-15T15:13:04Z</time>
      </trkpt>
      <trkpt lat="30.729667777195573" lon="-7.074269950389862">
        <ele>1337.8099999999999</ele>
        <time>2019-03-15T15:13:05Z</time>
      </trkpt>
      <trkpt lat="30.729740029200912" lon="-7.074300041422248">
        <ele>1337.3299999999999</ele>
        <time>2019-03-15T15:13:06Z</time>
      </trkpt>
      <trkpt lat="30.729814795777202" lon="-7.074319152161479">
        <ele>1337.3299999999999</ele>
        <time>2019-03-15T15:13:07Z</time>
      </trkpt>
      <trkpt lat="30.729891741648316" lon="-7.074328623712063">
        <ele>1336.3699999999999</ele>
        <time>2019-03-15T15:13:08Z</time>
      </trkpt>
      <trkpt lat="30.729971118271351" lon="-7.074328875169158">
        <ele>1335.8900000000001</ele>
        <time>2019-03-15T15:13:09Z</time>
      </trkpt>
      <trkpt lat="30.730050997808576" lon="-7.074318565428257">
        <ele>1333.49</ele>
        <time>2019-03-15T15:13:10Z</time>
      </trkpt>
      <trkpt lat="30.730127021670341" lon="-7.074297023937106">
        <ele>1332.52</ele>
        <time>2019-03-15T15:13:11Z</time>
      </trkpt>
      <trkpt lat="30.730200866237283" lon="-7.074266010895371">
        <ele>1332.04</ele>
        <time>2019-03-15T15:13:12Z</time>
      </trkpt>
      <trkpt lat="30.730268508195877" lon="-7.074230890721083">
        <ele>1332.04</ele>
        <time>2019-03-15T15:13:13Z</time>
      </trkpt>
      <trkpt lat="30.730334054678679" lon="-7.074190573766828">
        <ele>1331.5599999999999</ele>
        <time>2019-03-15T15:13:23Z</time>
      </trkpt>
      <trkpt lat="30.730396751314402" lon="-7.074145646765828">
        <ele>1329.6400000000001</ele>
        <time>2019-03-15T15:13:24Z</time>
      </trkpt>
      <trkpt lat="30.731190433725715" lon="-7.073549441993237">
        <ele>1328.6800000000001</ele>
        <time>2019-03-15T15:13:25Z</time>
      </trkpt>
      <trkpt lat="30.732619967311621" lon="-7.072699433192611">
        <ele>1329.6400000000001</ele>
        <time>2019-03-15T15:13:26Z</time>
      </trkpt>
      <trkpt lat="30.733336536213756" lon="-7.072562389075756">
        <ele>1330.1199999999999</ele>
        <time>2019-03-15T15:13:27Z</time>
      </trkpt>
      <trkpt lat="30.733436532318592" lon="-7.07256892696023">
        <ele>1330.5999999999999</ele>
        <time>2019-03-15T15:13:28Z</time>
      </trkpt>
      <trkpt lat="30.733537450432777" lon="-7.072589546442032">
        <ele>1331.0799999999999</ele>
        <time>2019-03-15T15:13:29Z</time>
      </trkpt>
      <trkpt lat="30.734981819987297" lon="-7.073068823665381">
        <ele>1331.0799999999999</ele>
        <time>2019-03-15T15:13:30Z</time>
      </trkpt>
      <trkpt lat="30.736227203160524" lon="-7.073187595233321">
        <ele>1331.5599999999999</ele>
        <time>2019-03-15T15:13:31Z</time>
      </trkpt>
      <trkpt lat="30.736627439036965" lon="-7.073241155594587">
        <ele>1332.04</ele>
        <time>2019-03-15T15:13:41Z</time>
      </trkpt>
      <trkpt lat="30.736715700477362" lon="-7.07328574731946">
        <ele>1332.04</ele>
        <time>2019-03-15T15:13:53Z</time>
      </trkpt>
      <trkpt lat="30.73679625056684" lon="-7.073349617421627">
        <ele>1332.52</ele>
        <time>2019-03-15T15:13:54Z</time>
      </trkpt>
      <trkpt lat="30.736864563077688" lon="-7.073431508615613">
        <ele>1333.97</ele>
        <time>2019-03-15T15:13:55Z</time>
      </trkpt>
      <trkpt lat="30.736919632181525" lon="-7.073528906330466">
        <ele>1334.45</ele>
        <time>2019-03-15T15:13:56Z</time>
      </trkpt>
      <trkpt lat="30.736963553354144" lon="-7.073635691776872">
        <ele>1334.9300000000001</ele>
        <time>2019-03-15T15:13:57Z</time>
      </trkpt>
      <trkpt lat="30.736995656043291" lon="-7.073750272393227">
        <ele>1341.1800000000001</ele>
        <time>2019-03-15T15:13:58Z</time>
      </trkpt>
      <trkpt lat="30.737020885571837" lon="-7.073869379237294">
        <ele>1346.46</ele>
        <time>2019-03-15T15:13:59Z</time>
      </trkpt>
      <trkpt lat="30.737042762339115" lon="-7.073991000652313">
        <ele>1347.4300000000001</ele>
        <time>2019-03-15T15:14:00Z</time>
      </trkpt>
      <trkpt lat="30.73747887276113" lon="-7.07561407238245">
        <ele>1348.3900000000001</ele>
        <time>2019-03-15T15:14:01Z</time>
      </trkpt>
      <trkpt lat="30.738141713663936" lon="-7.077342085540295">
        <ele>1348.8699999999999</ele>
        <time>2019-03-15T15:14:02Z</time>
      </trkpt>
      <trkpt lat="30.738885104656219" lon="-7.079354664310813">
        <ele>1349.3499999999999</ele>
        <time>2019-03-15T15:14:03Z</time>
      </trkpt>
      <trkpt lat="30.739390198141336" lon="-7.081337654963136">
        <ele>1350.3099999999999</ele>
        <time>2019-03-15T15:14:04Z</time>
      </trkpt>
      <trkpt lat="30.739599158987403" lon="-7.082660486921668">
        <ele>1356.0799999999999</ele>
        <time>2019-03-15T15:14:15Z</time>
      </trkpt>
      <trkpt lat="30.739663615822792" lon="-7.082800548523665">
        <ele>1361.8399999999999</ele>
        <time>2019-03-15T15:14:20Z</time>
      </trkpt>
      <trkpt lat="30.739736873656511" lon="-7.082932898774743">
        <ele>1362.3299999999999</ele>
        <time>2019-03-15T15:14:21Z</time>
      </trkpt>
      <trkpt lat="30.73981742374599" lon="-7.08305686712265">
        <ele>1362.8099999999999</ele>
        <time>2019-03-15T15:14:22Z</time>
      </trkpt>
      <trkpt lat="30.739907026290894" lon="-7.083171028643847">
        <ele>1363.77</ele>
        <time>2019-03-15T15:14:28Z</time>
      </trkpt>
      <trkpt lat="30.739999646320939" lon="-7.083280915394425">
        <ele>1364.25</ele>
        <time>2019-03-15T15:14:29Z</time>
      </trkpt>
      <trkpt lat="30.74110304005444" lon="-7.084223376587033">
        <ele>1364.73</ele>
        <time>2019-03-15T15:14:30Z</time>
      </trkpt>
      <trkpt lat="30.741762444376945" lon="-7.084816731512547">
        <ele>1370.02</ele>
        <time>2019-03-15T15:14:31Z</time>
      </trkpt>
      <trkpt lat="30.741864955052733" lon="-7.08487213589251">
        <ele>1370.98</ele>
        <time>2019-03-15T15:14:32Z</time>
      </trkpt>
      <trkpt lat="30.741971237584949" lon="-7.084910357370973">
        <ele>1371.46</ele>
        <time>2019-03-15T15:14:33Z</time>
      </trkpt>
      <trkpt lat="30.742083555087447" lon="-7.084929132834077">
        <ele>1372.4200000000001</ele>
        <time>2019-03-15T15:14:37Z</time>
      </trkpt>
      <trkpt lat="30.742198470979929" lon="-7.084934832528234">
        <ele>1372.4200000000001</ele>
        <time>2019-03-15T15:14:38Z</time>
      </trkpt>
      <trkpt lat="30.742313470691442" lon="-7.084939694032073">
        <ele>1373.3800000000001</ele>
        <time>2019-03-15T15:14:39Z</time>
      </trkpt>
      <trkpt lat="30.743266995996237" lon="-7.085045808926225">
        <ele>1373.8599999999999</ele>
        <time>2019-03-15T15:14:50Z</time>
      </trkpt>
      <trkpt lat="30.743379732593894" lon="-7.085047150030732">
        <ele>1374.3399999999999</ele>
        <time>2019-03-15T15:14:59Z</time>
      </trkpt>
      <trkpt lat="30.743491966277361" lon="-7.085037091746926">
        <ele>1374.8199999999999</ele>
        <time>2019-03-15T15:15:03Z</time>
      </trkpt>
      <trkpt lat="30.743599338456988" lon="-7.08502946421504">
        <ele>1375.3</ele>
        <time>2019-03-15T15:15:14Z</time>
      </trkpt>
      <trkpt lat="30.743700591847301" lon="-7.085035666823387">
        <ele>1375.78</ele>
        <time>2019-03-15T15:15:18Z</time>
      </trkpt>
      <trkpt lat="30.743794972077012" lon="-7.085059387609363">
        <ele>1376.75</ele>
        <time>2019-03-15T15:15:19Z</time>
      </trkpt>
      <trkpt lat="30.743875186890364" lon="-7.08510565571487">
        <ele>1377.23</ele>
        <time>2019-03-15T15:15:20Z</time>
      </trkpt>
      <trkpt lat="30.743946600705385" lon="-7.085167430341244">
        <ele>1377.71</ele>
        <time>2019-03-15T15:15:21Z</time>
      </trkpt>
      <trkpt lat="30.744013069197536" lon="-7.085235742852092">
        <ele>1378.1900000000001</ele>
        <time>2019-03-15T15:15:22Z</time>
      </trkpt>
      <trkpt lat="30.744078531861305" lon="-7.085299026221037">
        <ele>1378.6700000000001</ele>
        <time>2019-03-15T15:15:23Z</time>
      </trkpt>
      <trkpt lat="30.744149526581168" lon="-7.085346803069115">
        <ele>1379.1500000000001</ele>
        <time>2019-03-15T15:15:25Z</time>
      </trkpt>
      <trkpt lat="30.744229573756456" lon="-7.08537538535893">
        <ele>1382.03</ele>
        <time>2019-03-15T15:15:26Z</time>
      </trkpt>
      <trkpt lat="30.744314482435584" lon="-7.085384940728545">
        <ele>1382.51</ele>
        <time>2019-03-15T15:15:27Z</time>
      </trkpt>
      <trkpt lat="30.744405342265964" lon="-7.085381336510181">
        <ele>1382.99</ele>
        <time>2019-03-15T15:15:28Z</time>
      </trkpt>
      <trkpt lat="30.744501147419214" lon="-7.085364321246743">
        <ele>1383.47</ele>
        <time>2019-03-15T15:15:29Z</time>
      </trkpt>
      <trkpt lat="30.744596365839243" lon="-7.085336660966277">
        <ele>1384.4400000000001</ele>
        <time>2019-03-15T15:15:30Z</time>
      </trkpt>
      <trkpt lat="30.744689824059606" lon="-7.085307659581304">
        <ele>1384.9200000000001</ele>
        <time>2019-03-15T15:15:33Z</time>
      </trkpt>
      <trkpt lat="30.745758851990104" lon="-7.085144463926554">
        <ele>1385.4000000000001</ele>
        <time>2019-03-15T15:15:34Z</time>
      </trkpt>
      <trkpt lat="30.74586127884686" lon="-7.085104901343584">
        <ele>1385.8800000000001</ele>
        <time>2019-03-15T15:15:35Z</time>
      </trkpt>
      <trkpt lat="30.745954066514969" lon="-7.085053101181984">
        <ele>1386.3599999999999</ele>
        <time>2019-03-15T15:15:41Z</time>
      </trkpt>
      <trkpt lat="30.746038053184748" lon="-7.084987554699183">
        <ele>1396.9300000000001</ele>
        <time>2019-03-15T15:15:53Z</time>
      </trkpt>
      <trkpt lat="30.74610804207623" lon="-7.084907675161958">
        <ele>1403.6600000000001</ele>
        <time>2019-03-15T15:16:01Z</time>
      </trkpt>
      <trkpt lat="30.746166463941336" lon="-7.084812037646771">
        <ele>1404.1400000000001</ele>
        <time>2019-03-15T15:16:02Z</time>
      </trkpt>
      <trkpt lat="30.746213989332318" lon="-7.084705252200365">
        <ele>1404.6199999999999</ele>
        <time>2019-03-15T15:16:03Z</time>
      </trkpt>
      <trkpt lat="30.746252294629812" lon="-7.084590084850788">
        <ele>1405.0999999999999</ele>
        <time>2019-03-15T15:16:04Z</time>
      </trkpt>
      <trkpt lat="30.746284145861864" lon="-7.084467792883515">
        <ele>1405.5799999999999</ele>
        <time>2019-03-15T15:16:05Z</time>
      </trkpt>
      <trkpt lat="30.746456813067198" lon="-7.083289045840502">
        <ele>1406.55</ele>
        <time>2019-03-15T15:16:06Z</time>
      </trkpt>
      <trkpt lat="30.74657323770225" lon="-7.081744177266955">
        <ele>1407.03</ele>
        <time>2019-03-15T15:16:07Z</time>
      </trkpt>
      <trkpt lat="30.746601149439812" lon="-7.081617023795843">
        <ele>1407.99</ele>
        <time>2019-03-15T15:16:08Z</time>
      </trkpt>
      <trkpt lat="30.746640712022781" lon="-7.081496240571141">
        <ele>1408.47</ele>
        <time>2019-03-15T15:16:09Z</time>
      </trkpt>
      <trkpt lat="30.746690751984715" lon="-7.08138476125896">
        <ele>1408.95</ele>
        <time>2019-03-15T15:16:10Z</time>
      </trkpt>
      <trkpt lat="30.746750682592392" lon="-7.081281831488013">
        <ele>1409.9100000000001</ele>
        <time>2019-03-15T15:16:11Z</time>
      </trkpt>
      <trkpt lat="30.746819917112589" lon="-7.081192648038268">
        <ele>1410.3900000000001</ele>
        <time>2019-03-15T15:16:12Z</time>
      </trkpt>
      <trkpt lat="30.746901975944638" lon="-7.081118719652295">
        <ele>1420.49</ele>
        <time>2019-03-15T15:16:14Z</time>
      </trkpt>
      <trkpt lat="30.74699099175632" lon="-7.081060381606221">
        <ele>1421.45</ele>
        <time>2019-03-15T15:16:15Z</time>
      </trkpt>
      <trkpt lat="30.747087970376015" lon="-7.081011263653636">
        <ele>1421.45</ele>
        <time>2019-03-15T15:16:19Z</time>
      </trkpt>
      <trkpt lat="30.747184446081519" lon="-7.080974718555808">
        <ele>1421.45</ele>
        <time>2019-03-15T15:16:20Z</time>
      </trkpt>
      <trkpt lat="30.747282849624753" lon="-7.080948734655976">
        <ele>1420.49</ele>
        <time>2019-03-15T15:16:21Z</time>
      </trkpt>
      <trkpt lat="30.747383013367653" lon="-7.080926271155477">
        <ele>1420.49</ele>
        <time>2019-03-15T15:16:22Z</time>
      </trkpt>
      <trkpt lat="30.748469727113843" lon="-7.080698031932116">
        <ele>1420.49</ele>
        <time>2019-03-15T15:16:23Z</time>
      </trkpt>
      <trkpt lat="30.748819587752223" lon="-7.080700630322099">
        <ele>1420.49</ele>
        <time>2019-03-15T15:16:24Z</time>
      </trkpt>
      <trkpt lat="30.748888906091452" lon="-7.080717561766505">
        <ele>1420</ele>
        <time>2019-03-15T15:16:37Z</time>
      </trkpt>
      <trkpt lat="30.748965265229344" lon="-7.080741617828608">
        <ele>1420</ele>
        <time>2019-03-15T15:16:41Z</time>
      </trkpt>
      <trkpt lat="30.749497599899769" lon="-7.080995002761483">
        <ele>1419.52</ele>
        <time>2019-03-15T15:16:42Z</time>
      </trkpt>
      <trkpt lat="30.749586867168546" lon="-7.081024087965488">
        <ele>1419.04</ele>
        <time>2019-03-15T15:16:43Z</time>
      </trkpt>
      <trkpt lat="30.749676218256354" lon="-7.081035068258643">
        <ele>1419.04</ele>
        <time>2019-03-15T15:16:44Z</time>
      </trkpt>
      <trkpt lat="30.749770179390907" lon="-7.081028781831265">
        <ele>1415.2</ele>
        <time>2019-03-15T15:16:45Z</time>
      </trkpt>
      <trkpt lat="30.749862380325794" lon="-7.081008581444621">
        <ele>1424.8099999999999</ele>
        <time>2019-03-15T15:16:46Z</time>
      </trkpt>
      <trkpt lat="30.749955922365189" lon="-7.080980418249965">
        <ele>1431.0599999999999</ele>
        <time>2019-03-15T15:16:48Z</time>
      </trkpt>
      <trkpt lat="30.750320702791214" lon="-7.080879500135779">
        <ele>1443.5599999999999</ele>
        <time>2019-03-15T15:16:49Z</time>
      </trkpt>
      <trkpt lat="30.750409718602896" lon="-7.080837255343795">
        <ele>1447.8800000000001</ele>
        <time>2019-03-15T15:16:50Z</time>
      </trkpt>
      <trkpt lat="30.750497560948133" lon="-7.080783443525434">
        <ele>1449.3199999999999</ele>
        <time>2019-03-15T15:16:51Z</time>
      </trkpt>
      <trkpt lat="30.751492409035563" lon="-7.08016661927104">
        <ele>1450.77</ele>
        <time>2019-03-15T15:16:52Z</time>
      </trkpt>
      <trkpt lat="30.752403354272246" lon="-7.079455498605967">
        <ele>1451.73</ele>
        <time>2019-03-15T15:16:53Z</time>
      </trkpt>
      <trkpt lat="30.752801829949021" lon="-7.079137908294797">
        <ele>1452.6900000000001</ele>
        <time>2019-03-15T15:16:54Z</time>
      </trkpt>
      <trkpt lat="30.753839425742626" lon="-7.078618984669447">
        <ele>1453.6500000000001</ele>
        <time>2019-03-15T15:16:55Z</time>
      </trkpt>
      <trkpt lat="30.754192974418402" lon="-7.07837775349617">
        <ele>1455.0899999999999</ele>
        <time>2019-03-15T15:16:56Z</time>
      </trkpt>
      <trkpt lat="30.754268495365977" lon="-7.078298963606358">
        <ele>1455.5699999999999</ele>
        <time>2019-03-15T15:16:57Z</time>
      </trkpt>
      <trkpt lat="30.754336807876825" lon="-7.078211456537247">
        <ele>1456.53</ele>
        <time>2019-03-15T15:16:58Z</time>
      </trkpt>
      <trkpt lat="30.754392379894853" lon="-7.078114310279489">
        <ele>1457.02</ele>
        <time>2019-03-15T15:16:59Z</time>
      </trkpt>
      <trkpt lat="30.754442252218723" lon="-7.078008949756622">
        <ele>1457.5</ele>
        <time>2019-03-15T15:17:00Z</time>
      </trkpt>
      <trkpt lat="30.754487849771976" lon="-7.077896883711219">
        <ele>1457.98</ele>
        <time>2019-03-15T15:17:01Z</time>
      </trkpt>
      <trkpt lat="30.754583235830069" lon="-7.077678367495537">
        <ele>1459.4200000000001</ele>
        <time>2019-03-15T15:17:02Z</time>
      </trkpt>
      <trkpt lat="30.754644926637411" lon="-7.077581388875842">
        <ele>1459.9000000000001</ele>
        <time>2019-03-15T15:17:03Z</time>
      </trkpt>
      <trkpt lat="30.754712903872132" lon="-7.07749530673027">
        <ele>1460.3800000000001</ele>
        <time>2019-03-15T15:17:04Z</time>
      </trkpt>
      <trkpt lat="30.754781300202012" lon="-7.077419869601727">
        <ele>1461.3399999999999</ele>
        <time>2019-03-15T15:17:05Z</time>
      </trkpt>
      <trkpt lat="30.754848523065448" lon="-7.077354323118925">
        <ele>1465.6700000000001</ele>
        <time>2019-03-15T15:17:06Z</time>
      </trkpt>
      <trkpt lat="30.75491750612855" lon="-7.077293135225773">
        <ele>1469.99</ele>
        <time>2019-03-15T15:17:07Z</time>
      </trkpt>
      <trkpt lat="30.755158569663763" lon="-7.077112253755331">
        <ele>1469.99</ele>
        <time>2019-03-15T15:17:19Z</time>
      </trkpt>
      <trkpt lat="30.755257057026029" lon="-7.077065398916602">
        <ele>1470.47</ele>
        <time>2019-03-15T15:17:20Z</time>
      </trkpt>
      <trkpt lat="30.755361411720514" lon="-7.077027847990394">
        <ele>1470.95</ele>
        <time>2019-03-15T15:17:21Z</time>
      </trkpt>
      <trkpt lat="30.756034562364221" lon="-7.076857024803758">
        <ele>1471.4400000000001</ele>
        <time>2019-03-15T15:17:22Z</time>
      </trkpt>
      <trkpt lat="30.757337613031268" lon="-7.076784521341324">
        <ele>1471.4400000000001</ele>
        <time>2019-03-15T15:17:23Z</time>
      </trkpt>
      <trkpt lat="30.758170858025551" lon="-7.076973114162684">
        <ele>1471.9200000000001</ele>
        <time>2019-03-15T15:17:24Z</time>
      </trkpt>
      <trkpt lat="30.758266411721706" lon="-7.07697001285851">
        <ele>1471.9200000000001</ele>
        <time>2019-03-15T15:17:25Z</time>
      </trkpt>
      <trkpt lat="30.758364060893655" lon="-7.076950818300247">
        <ele>1472.4000000000001</ele>
        <time>2019-03-15T15:17:26Z</time>
      </trkpt>
      <trkpt lat="30.758461626246572" lon="-7.076917542144656">
        <ele>1471.9200000000001</ele>
        <time>2019-03-15T15:17:27Z</time>
      </trkpt>
      <trkpt lat="30.758557096123695" lon="-7.076871525496244">
        <ele>1472.4000000000001</ele>
        <time>2019-03-15T15:17:38Z</time>
      </trkpt>
      <trkpt lat="30.758658098056912" lon="-7.076819306239486">
        <ele>1472.8800000000001</ele>
        <time>2019-03-15T15:17:41Z</time>
      </trkpt>
      <trkpt lat="30.758762955665588" lon="-7.076776307076216">
        <ele>1473.8399999999999</ele>
        <time>2019-03-15T15:17:44Z</time>
      </trkpt>
      <trkpt lat="30.758869741111994" lon="-7.076746383681893">
        <ele>1474.3199999999999</ele>
        <time>2019-03-15T15:17:45Z</time>
      </trkpt>
      <trkpt lat="30.758975017815828" lon="-7.076732972636819">
        <ele>1476.24</ele>
        <time>2019-03-15T15:17:46Z</time>
      </trkpt>
      <trkpt lat="30.759072164073586" lon="-7.076738756150007">
        <ele>1476.72</ele>
        <time>2019-03-15T15:17:47Z</time>
      </trkpt>
      <trkpt lat="30.759163526818156" lon="-7.076757615432143">
        <ele>1476.72</ele>
        <time>2019-03-15T15:17:48Z</time>
      </trkpt>
      <trkpt lat="30.759247010573745" lon="-7.076776223257184">
        <ele>1477.2</ele>
        <time>2019-03-15T15:17:49Z</time>
      </trkpt>
      <trkpt lat="30.759410709142685" lon="-7.076809164136648">
        <ele>1477.6800000000001</ele>
        <time>2019-03-15T15:17:50Z</time>
      </trkpt>
      <trkpt lat="30.759493857622147" lon="-7.076835734769702">
        <ele>1477.6800000000001</ele>
        <time>2019-03-15T15:17:51Z</time>
      </trkpt>
      <trkpt lat="30.759866014122963" lon="-7.07692458294332">
        <ele>1488.26</ele>
        <time>2019-03-15T15:17:52Z</time>
      </trkpt>
      <trkpt lat="30.759971039369702" lon="-7.076926007866859">
        <ele>1491.6199999999999</ele>
        <time>2019-03-15T15:17:53Z</time>
      </trkpt>
      <trkpt lat="30.760075142607093" lon="-7.076914524659514">
        <ele>1492.5799999999999</ele>
        <time>2019-03-15T15:17:54Z</time>
      </trkpt>
      <trkpt lat="30.760182179510593" lon="-7.076890720054507">
        <ele>1493.55</ele>
        <time>2019-03-15T15:17:55Z</time>
      </trkpt>
      <trkpt lat="30.760285947471857" lon="-7.076860461384058">
        <ele>1494.03</ele>
        <time>2019-03-15T15:17:56Z</time>
      </trkpt>
      <trkpt lat="30.760384434834123" lon="-7.076824754476547">
        <ele>1494.51</ele>
        <time>2019-03-15T15:17:57Z</time>
      </trkpt>
      <trkpt lat="30.7617412135005" lon="-7.076136264950037">
        <ele>1494.99</ele>
        <time>2019-03-15T15:18:00Z</time>
      </trkpt>
      <trkpt lat="30.762111023068428" lon="-7.07586276344955">
        <ele>1495.47</ele>
        <time>2019-03-15T15:18:01Z</time>
      </trkpt>
      <trkpt lat="30.762181766331196" lon="-7.075779866427183">
        <ele>1496.4300000000001</ele>
        <time>2019-03-15T15:18:02Z</time>
      </trkpt>
      <trkpt lat="30.76223524287343" lon="-7.075685653835535">
        <ele>1496.9100000000001</ele>
        <time>2019-03-15T15:18:03Z</time>
      </trkpt>
      <trkpt lat="30.762269357219338" lon="-7.075583562254906">
        <ele>1497.3900000000001</ele>
        <time>2019-03-15T15:18:04Z</time>
      </trkpt>
      <trkpt lat="30.762291485443711" lon="-7.075474429875612">
        <ele>1498.3499999999999</ele>
        <time>2019-03-15T15:18:05Z</time>
      </trkpt>
      <trkpt lat="30.762309338897467" lon="-7.075366722419858">
        <ele>1499.3099999999999</ele>
        <time>2019-03-15T15:18:06Z</time>
      </trkpt>
      <trkpt lat="30.762352757155895" lon="-7.075182236731052">
        <ele>1499.79</ele>
        <time>2019-03-15T15:18:07Z</time>
      </trkpt>
      <trkpt lat="30.762395840138197" lon="-7.075110320001841">
        <ele>1500.27</ele>
        <time>2019-03-15T15:18:08Z</time>
      </trkpt>
      <trkpt lat="30.762457111850381" lon="-7.075064638629556">
        <ele>1500.76</ele>
        <time>2019-03-15T15:18:09Z</time>
      </trkpt>
      <trkpt lat="30.762528022751212" lon="-7.075046114623547">
        <ele>1501.72</ele>
        <time>2019-03-15T15:18:15Z</time>
      </trkpt>
      <trkpt lat="30.762597257271409" lon="-7.075050557032228">
        <ele>1501.72</ele>
        <time>2019-03-15T15:18:16Z</time>
      </trkpt>
      <trkpt lat="30.762660373002291" lon="-7.075078384950757">
        <ele>1502.2</ele>
        <time>2019-03-15T15:18:17Z</time>
      </trkpt>
      <trkpt lat="30.762715861201286" lon="-7.075122725218535">
        <ele>1502.6800000000001</ele>
        <time>2019-03-15T15:18:18Z</time>
      </trkpt>
      <trkpt lat="30.762761207297444" lon="-7.075173184275627">
        <ele>1503.6400000000001</ele>
        <time>2019-03-15T15:18:19Z</time>
      </trkpt>
      <trkpt lat="30.762801356613636" lon="-7.075226325541735">
        <ele>1504.1199999999999</ele>
        <time>2019-03-15T15:18:20Z</time>
      </trkpt>
      <trkpt lat="30.762835470959544" lon="-7.075284160673618">
        <ele>1505.0799999999999</ele>
        <time>2019-03-15T15:18:21Z</time>
      </trkpt>
      <trkpt lat="30.76285919174552" lon="-7.075342163443565">
        <ele>1505.5599999999999</ele>
        <time>2019-03-15T15:18:22Z</time>
      </trkpt>
      <trkpt lat="30.762878553941846" lon="-7.0753990765661">
        <ele>1505.5599999999999</ele>
        <time>2019-03-15T15:18:23Z</time>
      </trkpt>
      <trkpt lat="30.762903029099107" lon="-7.075457498431206">
        <ele>1506.04</ele>
        <time>2019-03-15T15:18:35Z</time>
      </trkpt>
      <trkpt lat="30.762933706864715" lon="-7.075516590848565">
        <ele>1506.52</ele>
        <time>2019-03-15T15:18:48Z</time>
      </trkpt>
      <trkpt lat="30.762968575581908" lon="-7.075573168694973">
        <ele>1514.21</ele>
        <time>2019-03-15T15:18:52Z</time>
      </trkpt>
      <trkpt lat="30.763007048517466" lon="-7.075627818703651">
        <ele>1514.6900000000001</ele>
        <time>2019-03-15T15:18:53Z</time>
      </trkpt>
      <trkpt lat="30.763051640242338" lon="-7.075687497854233">
        <ele>1515.1800000000001</ele>
        <time>2019-03-15T15:18:54Z</time>
      </trkpt>
      <trkpt lat="30.763102518394589" lon="-7.07574306987226">
        <ele>1515.6600000000001</ele>
        <time>2019-03-15T15:18:55Z</time>
      </trkpt>
      <trkpt lat="30.763158928602934" lon="-7.075794115662575">
        <ele>1516.6199999999999</ele>
        <time>2019-03-15T15:18:56Z</time>
      </trkpt>
      <trkpt lat="30.763222547248006" lon="-7.075843904167414">
        <ele>1517.0999999999999</ele>
        <time>2019-03-15T15:19:07Z</time>
      </trkpt>
      <trkpt lat="30.76393861323595" lon="-7.076479084789753">
        <ele>1518.0599999999999</ele>
        <time>2019-03-15T15:19:08Z</time>
      </trkpt>
      <trkpt lat="30.764002650976181" lon="-7.0765336509794">
        <ele>1518.54</ele>
        <time>2019-03-15T15:19:09Z</time>
      </trkpt>
      <trkpt lat="30.764071634039283" lon="-7.076577823609114">
        <ele>1519.02</ele>
        <time>2019-03-15T15:19:10Z</time>
      </trkpt>
      <trkpt lat="30.764144724234939" lon="-7.076609088107944">
        <ele>1525.27</ele>
        <time>2019-03-15T15:19:11Z</time>
      </trkpt>
      <trkpt lat="30.7642209995538" lon="-7.076629707589746">
        <ele>1526.71</ele>
        <time>2019-03-15T15:19:12Z</time>
      </trkpt>
      <trkpt lat="30.764300459995866" lon="-7.076635658740997">
        <ele>1528.1500000000001</ele>
        <time>2019-03-15T15:19:13Z</time>
      </trkpt>
      <trkpt lat="30.764380758628249" lon="-7.076630545780063">
        <ele>1528.1500000000001</ele>
        <time>2019-03-15T15:19:14Z</time>
      </trkpt>
      <trkpt lat="30.764457117766142" lon="-7.07661772146821">
        <ele>1528.6300000000001</ele>
        <time>2019-03-15T15:19:15Z</time>
      </trkpt>
      <trkpt lat="30.764533141627908" lon="-7.076599784195423">
        <ele>1529.1099999999999</ele>
        <time>2019-03-15T15:19:16Z</time>
      </trkpt>
      <trkpt lat="30.765292542055249" lon="-7.076321756467223">
        <ele>1530.0799999999999</ele>
        <time>2019-03-15T15:19:22Z</time>
      </trkpt>
      <trkpt lat="30.76547535136342" lon="-7.076323935762048">
        <ele>1530.5599999999999</ele>
        <time>2019-03-15T15:19:35Z</time>
      </trkpt>
      <trkpt lat="30.765663776546717" lon="-7.076323768123984">
        <ele>1531.52</ele>
        <time>2019-03-15T15:19:36Z</time>
      </trkpt>
      <trkpt lat="30.765725886449218" lon="-7.076308932155371">
        <ele>1532</ele>
        <time>2019-03-15T15:19:37Z</time>
      </trkpt>
      <trkpt lat="30.765785984694958" lon="-7.076286971569061">
        <ele>1532.48</ele>
        <time>2019-03-15T15:19:38Z</time>
      </trkpt>
      <trkpt lat="30.765843987464905" lon="-7.076253863051534">
        <ele>1532.96</ele>
        <time>2019-03-15T15:19:39Z</time>
      </trkpt>
      <trkpt lat="30.765897212550044" lon="-7.076208852231503">
        <ele>1533.9200000000001</ele>
        <time>2019-03-15T15:19:40Z</time>
      </trkpt>
      <trkpt lat="30.765942558646202" lon="-7.076156884431839">
        <ele>1534.4000000000001</ele>
        <time>2019-03-15T15:19:41Z</time>
      </trkpt>
      <trkpt lat="30.765982205048203" lon="-7.076098546385765">
        <ele>1534.8800000000001</ele>
        <time>2019-03-15T15:19:42Z</time>
      </trkpt>
      <trkpt lat="30.766014475375414" lon="-7.076036771759391">
        <ele>1535.8399999999999</ele>
        <time>2019-03-15T15:19:51Z</time>
      </trkpt>
      <trkpt lat="30.766039537265897" lon="-7.075971476733685">
        <ele>1537.29</ele>
        <time>2019-03-15T15:20:03Z</time>
      </trkpt>
      <trkpt lat="30.76605973765254" lon="-7.075901487842202">
        <ele>1537.29</ele>
        <time>2019-03-15T15:20:06Z</time>
      </trkpt>
      <trkpt lat="30.766074238345027" lon="-7.0758290681988">
        <ele>1537.29</ele>
        <time>2019-03-15T15:20:07Z</time>
      </trkpt>
      <trkpt lat="30.766080189496279" lon="-7.075753631070256">
        <ele>1537.29</ele>
        <time>2019-03-15T15:20:08Z</time>
      </trkpt>
      <trkpt lat="30.766081362962723" lon="-7.075676433742046">
        <ele>1537.29</ele>
        <time>2019-03-15T15:20:09Z</time>
      </trkpt>
      <trkpt lat="30.766081195324659" lon="-7.075601499527693">
        <ele>1537.29</ele>
        <time>2019-03-15T15:20:10Z</time>
      </trkpt>
      <trkpt lat="30.766086811199784" lon="-7.075388012453914">
        <ele>1537.29</ele>
        <time>2019-03-15T15:20:11Z</time>
      </trkpt>
      <trkpt lat="30.76610567048192" lon="-7.075319280847907">
        <ele>1537.77</ele>
        <time>2019-03-15T15:20:12Z</time>
      </trkpt>
      <trkpt lat="30.766141042113304" lon="-7.075260691344738">
        <ele>1538.25</ele>
        <time>2019-03-15T15:20:13Z</time>
      </trkpt>
      <trkpt lat="30.766187813133001" lon="-7.075217440724373">
        <ele>1538.73</ele>
        <time>2019-03-15T15:20:14Z</time>
      </trkpt>
      <trkpt lat="30.76624246314168" lon="-7.075195396319032">
        <ele>1539.6900000000001</ele>
        <time>2019-03-15T15:20:15Z</time>
      </trkpt>
      <trkpt lat="30.766306584700942" lon="-7.075198916718364">
        <ele>1540.1700000000001</ele>
        <time>2019-03-15T15:20:22Z</time>
      </trkpt>
      <trkpt lat="30.766367269679904" lon="-7.075223308056593">
        <ele>1540.6500000000001</ele>
        <time>2019-03-15T15:20:23Z</time>
      </trkpt>
      <trkpt lat="30.76641839928925" lon="-7.07526907324791">
        <ele>1540.6500000000001</ele>
        <time>2019-03-15T15:20:24Z</time>
      </trkpt>
      <trkpt lat="30.766466679051518" lon="-7.075324645265937">
        <ele>1540.6500000000001</ele>
        <time>2019-03-15T15:20:25Z</time>
      </trkpt>
      <trkpt lat="30.766509342938662" lon="-7.075383402407169">
        <ele>1541.1300000000001</ele>
        <time>2019-03-15T15:20:26Z</time>
      </trkpt>
      <trkpt lat="30.766756692901254" lon="-7.075758827850223">
        <ele>1541.1300000000001</ele>
        <time>2019-03-15T15:20:27Z</time>
      </trkpt>
      <trkpt lat="30.766809666529298" lon="-7.075809119269252">
        <ele>1541.6099999999999</ele>
        <time>2019-03-15T15:20:28Z</time>
      </trkpt>
      <trkpt lat="30.766865406185389" lon="-7.075854046270251">
        <ele>1542.0899999999999</ele>
        <time>2019-03-15T15:20:29Z</time>
      </trkpt>
      <trkpt lat="30.766925252974033" lon="-7.075882125645876">
        <ele>1549.78</ele>
        <time>2019-03-15T15:20:30Z</time>
      </trkpt>
      <trkpt lat="30.766986524686217" lon="-7.075895788148046">
        <ele>1562.76</ele>
        <time>2019-03-15T15:20:43Z</time>
      </trkpt>
      <trkpt lat="30.767051065340638" lon="-7.075894363224506">
        <ele>1566.6099999999999</ele>
        <time>2019-03-15T15:20:44Z</time>
      </trkpt>
      <trkpt lat="30.767115354537964" lon="-7.075878856703639">
        <ele>1567.5699999999999</ele>
        <time>2019-03-15T15:20:45Z</time>
      </trkpt>
      <trkpt lat="30.767178302630782" lon="-7.075858153402805">
        <ele>1568.53</ele>
        <time>2019-03-15T15:20:46Z</time>
      </trkpt>
      <trkpt lat="30.76724661514163" lon="-7.075831918045878">
        <ele>1569.01</ele>
        <time>2019-03-15T15:20:47Z</time>
      </trkpt>
      <trkpt lat="30.767996041104198" lon="-7.075236383825541">
        <ele>1569.97</ele>
        <time>2019-03-15T15:21:02Z</time>
      </trkpt>
      <trkpt lat="30.768524939194322" lon="-7.074325103312731">
        <ele>1578.1400000000001</ele>
        <time>2019-03-15T15:21:06Z</time>
      </trkpt>
      <trkpt lat="30.768581852316856" lon="-7.074035760015249">
        <ele>1579.0999999999999</ele>
        <time>2019-03-15T15:21:07Z</time>
      </trkpt>
      <trkpt lat="30.768584031611681" lon="-7.073960322886705">
        <ele>1579.5799999999999</ele>
        <time>2019-03-15T15:21:08Z</time>
      </trkpt>
      <trkpt lat="30.768576823174953" lon="-7.073884718120098">
        <ele>1580.0599999999999</ele>
        <time>2019-03-15T15:21:09Z</time>
      </trkpt>
      <trkpt lat="30.76856441795826" lon="-7.073809700086713">
        <ele>1580.54</ele>
        <time>2019-03-15T15:21:10Z</time>
      </trkpt>
      <trkpt lat="30.768550671637058" lon="-7.07373526878655">
        <ele>1581.03</ele>
        <time>2019-03-15T15:21:11Z</time>
      </trkpt>
      <trkpt lat="30.768437264487147" lon="-7.072950219735503">
        <ele>1581.51</ele>
        <time>2019-03-15T15:21:12Z</time>
      </trkpt>
      <trkpt lat="30.768450424075127" lon="-7.072877464815974">
        <ele>1581.99</ele>
        <time>2019-03-15T15:21:13Z</time>
      </trkpt>
      <trkpt lat="30.768472971394658" lon="-7.072811834514141">
        <ele>1582.47</ele>
        <time>2019-03-15T15:21:14Z</time>
      </trkpt>
      <trkpt lat="30.768506918102503" lon="-7.072751484811306">
        <ele>1582.47</ele>
        <time>2019-03-15T15:21:15Z</time>
      </trkpt>
      <trkpt lat="30.768551090732217" lon="-7.072696834802628">
        <ele>1583.9100000000001</ele>
        <time>2019-03-15T15:21:24Z</time>
      </trkpt>
      <trkpt lat="30.768606411293149" lon="-7.072645956650376">
        <ele>1579.5799999999999</ele>
        <time>2019-03-15T15:21:25Z</time>
      </trkpt>
      <trkpt lat="30.768669862300158" lon="-7.072602035477758">
        <ele>1578.6199999999999</ele>
        <time>2019-03-15T15:21:26Z</time>
      </trkpt>
      <trkpt lat="30.768735073506832" lon="-7.072561215609312">
        <ele>1578.1400000000001</ele>
        <time>2019-03-15T15:21:27Z</time>
      </trkpt>
      <trkpt lat="30.768803721293807" lon="-7.072527101263404">
        <ele>1577.6600000000001</ele>
        <time>2019-03-15T15:21:28Z</time>
      </trkpt>
      <trkpt lat="30.768875721842051" lon="-7.07249365746975">
        <ele>1577.1800000000001</ele>
        <time>2019-03-15T15:21:29Z</time>
      </trkpt>
      <trkpt lat="30.769274281337857" lon="-7.072210432961583">
        <ele>1576.22</ele>
        <time>2019-03-15T15:21:30Z</time>
      </trkpt>
      <trkpt lat="30.769835030660033" lon="-7.071460336446762">
        <ele>1575.74</ele>
        <time>2019-03-15T15:21:31Z</time>
      </trkpt>
      <trkpt lat="30.769886579364538" lon="-7.071408368647099">
        <ele>1574.78</ele>
        <time>2019-03-15T15:21:32Z</time>
      </trkpt>
      <trkpt lat="30.769944246858358" lon="-7.071363357827067">
        <ele>1567.0899999999999</ele>
        <time>2019-03-15T15:21:33Z</time>
      </trkpt>
      <trkpt lat="30.770009709522128" lon="-7.071324298158288">
        <ele>1558.9200000000001</ele>
        <time>2019-03-15T15:21:34Z</time>
      </trkpt>
      <trkpt lat="30.770079446956515" lon="-7.071292111650109">
        <ele>1557.47</ele>
        <time>2019-03-15T15:21:39Z</time>
      </trkpt>
      <trkpt lat="30.770149100571871" lon="-7.071267804130912">
        <ele>1556.99</ele>
        <time>2019-03-15T15:21:40Z</time>
      </trkpt>
      <trkpt lat="30.770221939310431" lon="-7.071252213791013">
        <ele>1556.99</ele>
        <time>2019-03-15T15:21:41Z</time>
      </trkpt>
      <trkpt lat="30.770297879353166" lon="-7.071242490783334">
        <ele>1556.51</ele>
        <time>2019-03-15T15:21:42Z</time>
      </trkpt>
      <trkpt lat="30.771149648353457" lon="-7.071305857971311">
        <ele>1556.03</ele>
        <time>2019-03-15T15:21:43Z</time>
      </trkpt>
      <trkpt lat="30.772346751764417" lon="-7.071694359183312">
        <ele>1555.55</ele>
        <time>2019-03-15T15:21:44Z</time>
      </trkpt>
      <trkpt lat="30.772654870525002" lon="-7.071811202913523">
        <ele>1555.55</ele>
        <time>2019-03-15T15:21:45Z</time>
      </trkpt>
      <trkpt lat="30.77275050804019" lon="-7.07186384126544">
        <ele>1555.0699999999999</ele>
        <time>2019-03-15T15:21:46Z</time>
      </trkpt>
      <trkpt lat="30.772840194404125" lon="-7.071929220110178">
        <ele>1554.5899999999999</ele>
        <time>2019-03-15T15:21:59Z</time>
      </trkpt>
      <trkpt lat="30.772918816655874" lon="-7.072007590904832">
        <ele>1554.1099999999999</ele>
        <time>2019-03-15T15:22:06Z</time>
      </trkpt>
      <trkpt lat="30.772994002327323" lon="-7.072091493755579">
        <ele>1549.3</ele>
        <time>2019-03-15T15:22:07Z</time>
      </trkpt>
      <trkpt lat="30.773058123886585" lon="-7.072181766852737">
        <ele>1548.8199999999999</ele>
        <time>2019-03-15T15:22:15Z</time>
      </trkpt>
      <trkpt lat="30.773110762238503" lon="-7.072273716330528">
        <ele>1547.8599999999999</ele>
        <time>2019-03-15T15:22:16Z</time>
      </trkpt>
      <trkpt lat="30.773150073364377" lon="-7.072364911437035">
        <ele>1547.3800000000001</ele>
        <time>2019-03-15T15:22:17Z</time>
      </trkpt>
      <trkpt lat="30.773192401975393" lon="-7.072450406849384">
        <ele>1546.4200000000001</ele>
        <time>2019-03-15T15:22:18Z</time>
      </trkpt>
      <trkpt lat="30.773243112489581" lon="-7.072532884776592">
        <ele>1545.9400000000001</ele>
        <time>2019-03-15T15:22:19Z</time>
      </trkpt>
      <trkpt lat="30.773683162406087" lon="-7.073110146448016">
        <ele>1544.5</ele>
        <time>2019-03-15T15:22:20Z</time>
      </trkpt>
      <trkpt lat="30.773764131590724" lon="-7.073175860568881">
        <ele>1543.53</ele>
        <time>2019-03-15T15:22:21Z</time>
      </trkpt>
      <trkpt lat="30.773850465193391" lon="-7.073233192786574">
        <ele>1542.5699999999999</ele>
        <time>2019-03-15T15:22:22Z</time>
      </trkpt>
      <trkpt lat="30.773941744118929" lon="-7.07328038290143">
        <ele>1533.9200000000001</ele>
        <time>2019-03-15T15:22:23Z</time>
      </trkpt>
      <trkpt lat="30.774037800729275" lon="-7.073316760361195">
        <ele>1533.4400000000001</ele>
        <time>2019-03-15T15:22:31Z</time>
      </trkpt>
      <trkpt lat="30.77414064668119" lon="-7.073342241346836">
        <ele>1532.96</ele>
        <time>2019-03-15T15:22:32Z</time>
      </trkpt>
      <trkpt lat="30.774246929213405" lon="-7.073351880535483">
        <ele>1532</ele>
        <time>2019-03-15T15:22:33Z</time>
      </trkpt>
      <trkpt lat="30.774356396868825" lon="-7.073346516117454">
        <ele>1531.52</ele>
        <time>2019-03-15T15:22:34Z</time>
      </trkpt>
      <trkpt lat="30.774469804018736" lon="-7.073334194719791">
        <ele>1519.98</ele>
        <time>2019-03-15T15:22:35Z</time>
      </trkpt>
      <trkpt lat="30.775905204936862" lon="-7.073143422603607">
        <ele>1517.5799999999999</ele>
        <time>2019-03-15T15:22:36Z</time>
      </trkpt>
      <trkpt lat="30.776001680642366" lon="-7.073098076507449">
        <ele>1517.5799999999999</ele>
        <time>2019-03-15T15:22:37Z</time>
      </trkpt>
      <trkpt lat="30.776090696454048" lon="-7.073037726804614">
        <ele>1517.5799999999999</ele>
        <time>2019-03-15T15:22:38Z</time>
      </trkpt>
      <trkpt lat="30.776175688952208" lon="-7.072971845045686">
        <ele>1517.0999999999999</ele>
        <time>2019-03-15T15:22:39Z</time>
      </trkpt>
      <trkpt lat="30.776259172707796" lon="-7.072897665202618">
        <ele>1516.6199999999999</ele>
        <time>2019-03-15T15:22:40Z</time>
      </trkpt>
      <trkpt lat="30.777557697147131" lon="-7.071628477424383">
        <ele>1516.1400000000001</ele>
        <time>2019-03-15T15:22:41Z</time>
      </trkpt>
      <trkpt lat="30.777838155627251" lon="-7.071208041161299">
        <ele>1515.6600000000001</ele>
        <time>2019-03-15T15:22:42Z</time>
      </trkpt>
      <trkpt lat="30.777921304106712" lon="-7.071120953187347">
        <ele>1515.6600000000001</ele>
        <time>2019-03-15T15:22:43Z</time>
      </trkpt>
      <trkpt lat="30.778009481728077" lon="-7.071042833849788">
        <ele>1515.1800000000001</ele>
        <time>2019-03-15T15:22:52Z</time>
      </trkpt>
      <trkpt lat="30.778107549995184" lon="-7.070982651785016">
        <ele>1515.6600000000001</ele>
        <time>2019-03-15T15:23:01Z</time>
      </trkpt>
      <trkpt lat="30.77820897102356" lon="-7.0709471963346">
        <ele>1513.73</ele>
        <time>2019-03-15T15:23:10Z</time>
      </trkpt>
      <trkpt lat="30.77831600792706" lon="-7.070940071716905">
        <ele>1513.25</ele>
        <time>2019-03-15T15:23:24Z</time>
      </trkpt>
      <trkpt lat="30.778413154184818" lon="-7.070954404771328">
        <ele>1512.29</ele>
        <time>2019-03-15T15:23:38Z</time>
      </trkpt>
      <trkpt lat="30.778504684567451" lon="-7.071000253781676">
        <ele>1510.8499999999999</ele>
        <time>2019-03-15T15:23:52Z</time>
      </trkpt>
      <trkpt lat="30.778586575761437" lon="-7.071068231016398">
        <ele>1509.8900000000001</ele>
        <time>2019-03-15T15:24:01Z</time>
      </trkpt>
      <trkpt lat="30.778662767261267" lon="-7.071144422516227">
        <ele>1508.9300000000001</ele>
        <time>2019-03-15T15:24:12Z</time>
      </trkpt>
      <trkpt lat="30.77945351600647" lon="-7.071761917322874">
        <ele>1507.97</ele>
        <time>2019-03-15T15:24:25Z</time>
      </trkpt>
      <trkpt lat="30.779555691406131" lon="-7.071794271469116">
        <ele>1507</ele>
        <time>2019-03-15T15:24:40Z</time>
      </trkpt>
      <trkpt lat="30.779659207910299" lon="-7.071816651150584">
        <ele>1506.04</ele>
        <time>2019-03-15T15:24:56Z</time>
      </trkpt>
      <trkpt lat="30.77976331114769" lon="-7.071822015568614">
        <ele>1505.0799999999999</ele>
        <time>2019-03-15T15:25:11Z</time>
      </trkpt>
      <trkpt lat="30.779869928956032" lon="-7.071810867637396">
        <ele>1503.6400000000001</ele>
        <time>2019-03-15T15:25:24Z</time>
      </trkpt>
      <trkpt lat="30.77997830696404" lon="-7.071787565946579">
        <ele>1499.3099999999999</ele>
        <time>2019-03-15T15:25:31Z</time>
      </trkpt>
      <trkpt lat="30.780087690800428" lon="-7.071753451600671">
        <ele>1498.8299999999999</ele>
        <time>2019-03-15T15:25:40Z</time>
      </trkpt>
      <trkpt lat="30.780198751017451" lon="-7.071707770228386">
        <ele>1498.3499999999999</ele>
        <time>2019-03-15T15:25:53Z</time>
      </trkpt>
      <trkpt lat="30.780310230329633" lon="-7.071658987551928">
        <ele>1497.8699999999999</ele>
        <time>2019-03-15T15:26:04Z</time>
      </trkpt>
      <trkpt lat="30.780419278889894" lon="-7.07160534337163">
        <ele>1497.3900000000001</ele>
        <time>2019-03-15T15:26:15Z</time>
      </trkpt>
      <trkpt lat="30.78052120283246" lon="-7.07153744995594">
        <ele>1496.9100000000001</ele>
        <time>2019-03-15T15:26:27Z</time>
      </trkpt>
      <trkpt lat="30.780972484499216" lon="-7.071198988705874">
        <ele>1496.4300000000001</ele>
        <time>2019-03-15T15:26:28Z</time>
      </trkpt>
      <trkpt lat="30.781059740111232" lon="-7.071159509941936">
        <ele>1495.95</ele>
        <time>2019-03-15T15:26:38Z</time>
      </trkpt>
      <trkpt lat="30.781144481152296" lon="-7.071130760014057">
        <ele>1490.6600000000001</ele>
        <time>2019-03-15T15:26:50Z</time>
      </trkpt>
      <trkpt lat="30.781231317669153" lon="-7.071113828569651">
        <ele>1488.74</ele>
        <time>2019-03-15T15:26:58Z</time>
      </trkpt>
      <trkpt lat="30.781327290460467" lon="-7.071108883246779">
        <ele>1488.26</ele>
        <time>2019-03-15T15:27:07Z</time>
      </trkpt>
      <trkpt lat="30.781429968774319" lon="-7.071116175502539">
        <ele>1485.8499999999999</ele>
        <time>2019-03-15T15:27:19Z</time>
      </trkpt>
      <trkpt lat="30.781536167487502" lon="-7.071134950965643">
        <ele>1485.8499999999999</ele>
        <time>2019-03-15T15:27:21Z</time>
      </trkpt>
      <trkpt lat="30.78164353966713" lon="-7.071155067533255">
        <ele>1485.3699999999999</ele>
        <time>2019-03-15T15:27:22Z</time>
      </trkpt>
      <trkpt lat="30.783125292509794" lon="-7.071517081931233">
        <ele>1485.3699999999999</ele>
        <time>2019-03-15T15:27:24Z</time>
      </trkpt>
      <trkpt lat="30.783999357372522" lon="-7.071686564013362">
        <ele>1485.3699999999999</ele>
        <time>2019-03-15T15:27:25Z</time>
      </trkpt>
      <trkpt lat="30.784111339598894" lon="-7.071724450215697">
        <ele>1484.8900000000001</ele>
        <time>2019-03-15T15:27:26Z</time>
      </trkpt>
      <trkpt lat="30.785078862681985" lon="-7.071950929239392">
        <ele>1484.4100000000001</ele>
        <time>2019-03-15T15:27:35Z</time>
      </trkpt>
      <trkpt lat="30.785197801887989" lon="-7.071935757994652">
        <ele>1483.9300000000001</ele>
        <time>2019-03-15T15:27:49Z</time>
      </trkpt>
      <trkpt lat="30.7853146456182" lon="-7.071901978924871">
        <ele>1483.45</ele>
        <time>2019-03-15T15:27:50Z</time>
      </trkpt>
      <trkpt lat="30.785428052768111" lon="-7.071847328916192">
        <ele>1482.01</ele>
        <time>2019-03-15T15:27:51Z</time>
      </trkpt>
      <trkpt lat="30.785541543737054" lon="-7.071791086345911">
        <ele>1482.01</ele>
        <time>2019-03-15T15:27:52Z</time>
      </trkpt>
      <trkpt lat="30.785659728571773" lon="-7.071747584268451">
        <ele>1482.01</ele>
        <time>2019-03-15T15:27:53Z</time>
      </trkpt>
      <trkpt lat="30.785781014710665" lon="-7.071718163788319">
        <ele>1481.05</ele>
        <time>2019-03-15T15:27:54Z</time>
      </trkpt>
      <trkpt lat="30.785906491801143" lon="-7.071701232343912">
        <ele>1481.05</ele>
        <time>2019-03-15T15:27:55Z</time>
      </trkpt>
      <trkpt lat="30.786034232005477" lon="-7.071686815470457">
        <ele>1480.5699999999999</ele>
        <time>2019-03-15T15:28:00Z</time>
      </trkpt>
      <trkpt lat="30.787038216367364" lon="-7.071525380015373">
        <ele>1480.0899999999999</ele>
        <time>2019-03-15T15:28:01Z</time>
      </trkpt>
      <trkpt lat="30.787140475586057" lon="-7.07147634588182">
        <ele>1479.6099999999999</ele>
        <time>2019-03-15T15:28:04Z</time>
      </trkpt>
      <trkpt lat="30.787242902442813" lon="-7.071409793570638">
        <ele>1479.1300000000001</ele>
        <time>2019-03-15T15:28:05Z</time>
      </trkpt>
      <trkpt lat="30.787338288500905" lon="-7.071326477453113">
        <ele>1478.1600000000001</ele>
        <time>2019-03-15T15:28:06Z</time>
      </trkpt>
      <trkpt lat="30.787432165816426" lon="-7.07123008556664">
        <ele>1477.6800000000001</ele>
        <time>2019-03-15T15:28:07Z</time>
      </trkpt>
      <trkpt lat="30.787518080323935" lon="-7.071118941530585">
        <ele>1476.72</ele>
        <time>2019-03-15T15:28:08Z</time>
      </trkpt>
      <trkpt lat="30.787592846900225" lon="-7.070994470268488">
        <ele>1476.72</ele>
        <time>2019-03-15T15:28:09Z</time>
      </trkpt>
      <trkpt lat="30.787653615698218" lon="-7.070858096703887">
        <ele>1476.24</ele>
        <time>2019-03-15T15:28:10Z</time>
      </trkpt>
      <trkpt lat="30.787697453051805" lon="-7.070712838321924">
        <ele>1471.4400000000001</ele>
        <time>2019-03-15T15:28:11Z</time>
      </trkpt>
      <trkpt lat="30.787726286798716" lon="-7.070560958236456">
        <ele>1469.99</ele>
        <time>2019-03-15T15:28:12Z</time>
      </trkpt>
      <trkpt lat="30.78773626126349" lon="-7.07040136680007">
        <ele>1470.95</ele>
        <time>2019-03-15T15:28:13Z</time>
      </trkpt>
      <trkpt lat="30.787744307890534" lon="-7.070240098983049">
        <ele>1467.1099999999999</ele>
        <time>2019-03-15T15:28:14Z</time>
      </trkpt>
      <trkpt lat="30.787761071696877" lon="-7.070079334080219">
        <ele>1458.46</ele>
        <time>2019-03-15T15:28:18Z</time>
      </trkpt>
      <trkpt lat="30.788142783567309" lon="-7.068626582622528">
        <ele>1457.98</ele>
        <time>2019-03-15T15:28:19Z</time>
      </trkpt>
      <trkpt lat="30.78875944018364" lon="-7.067549591884017">
        <ele>1460.3800000000001</ele>
        <time>2019-03-15T15:28:20Z</time>
      </trkpt>
      <trkpt lat="30.789210218936205" lon="-7.066850541159511">
        <ele>1459.9000000000001</ele>
        <time>2019-03-15T15:28:21Z</time>
      </trkpt>
      <trkpt lat="30.790159218013287" lon="-7.065282119438052">
        <ele>1458.46</ele>
        <time>2019-03-15T15:28:22Z</time>
      </trkpt>
      <trkpt lat="30.790943261235952" lon="-7.063767844811082">
        <ele>1453.6500000000001</ele>
        <time>2019-03-15T15:28:24Z</time>
      </trkpt>
      <trkpt lat="30.791663182899356" lon="-7.062340322881937">
        <ele>1450.29</ele>
        <time>2019-03-15T15:28:30Z</time>
      </trkpt>
      <trkpt lat="30.792162660509348" lon="-7.06135637126863">
        <ele>1449.3199999999999</ele>
        <time>2019-03-15T15:28:32Z</time>
      </trkpt>
      <trkpt lat="30.79278769902885" lon="-7.060066731646657">
        <ele>1446.9200000000001</ele>
        <time>2019-03-15T15:28:33Z</time>
      </trkpt>
      <trkpt lat="30.793615328148007" lon="-7.058416251093149">
        <ele>1445.48</ele>
        <time>2019-03-15T15:28:34Z</time>
      </trkpt>
      <trkpt lat="30.794569943100214" lon="-7.056498639285564">
        <ele>1443.0799999999999</ele>
        <time>2019-03-15T15:28:35Z</time>
      </trkpt>
      <trkpt lat="30.79579034820199" lon="-7.054344154894352">
        <ele>1437.79</ele>
        <time>2019-03-15T15:28:36Z</time>
      </trkpt>
      <trkpt lat="30.797070516273379" lon="-7.052689818665385">
        <ele>1437.3099999999999</ele>
        <time>2019-03-15T15:28:37Z</time>
      </trkpt>
      <trkpt lat="30.798377841711044" lon="-7.051328346133232">
        <ele>1437.79</ele>
        <time>2019-03-15T15:28:38Z</time>
      </trkpt>
      <trkpt lat="30.79908661544323" lon="-7.05083230510354">
        <ele>1437.79</ele>
        <time>2019-03-15T15:28:39Z</time>
      </trkpt>
      <trkpt lat="30.800094539299607" lon="-7.050174744799733">
        <ele>1437.3099999999999</ele>
        <time>2019-03-15T15:28:40Z</time>
      </trkpt>
      <trkpt lat="30.801748875528574" lon="-7.049118122085929">
        <ele>1438.75</ele>
        <time>2019-03-15T15:28:41Z</time>
      </trkpt>
      <trkpt lat="30.803176816552877" lon="-7.048559300601482">
        <ele>1444.04</ele>
        <time>2019-03-15T15:28:42Z</time>
      </trkpt>
      <trkpt lat="30.804582461714745" lon="-7.048075497150421">
        <ele>1447.4000000000001</ele>
        <time>2019-03-15T15:28:43Z</time>
      </trkpt>
      <trkpt lat="30.806040577590466" lon="-7.047646846622229">
        <ele>1455.0899999999999</ele>
        <time>2019-03-15T15:28:44Z</time>
      </trkpt>
      <trkpt lat="30.806155325844884" lon="-7.047629663720727">
        <ele>1456.53</ele>
        <time>2019-03-15T15:28:45Z</time>
      </trkpt>
      <trkpt lat="30.807441864162683" lon="-7.047690516337752">
        <ele>1457.02</ele>
        <time>2019-03-15T15:28:46Z</time>
      </trkpt>
      <trkpt lat="30.809040879830718" lon="-7.048237854614854">
        <ele>1457.98</ele>
        <time>2019-03-15T15:28:47Z</time>
      </trkpt>
      <trkpt lat="30.809806315228343" lon="-7.048479923978448">
        <ele>1458.46</ele>
        <time>2019-03-15T15:28:48Z</time>
      </trkpt>
      <trkpt lat="30.810580383986235" lon="-7.048670779913664">
        <ele>1458.9400000000001</ele>
        <time>2019-03-15T15:28:49Z</time>
      </trkpt>
      <trkpt lat="30.811528293415904" lon="-7.049354240298271">
        <ele>1459.4200000000001</ele>
        <time>2019-03-15T15:28:50Z</time>
      </trkpt>
      <trkpt lat="30.811622506007552" lon="-7.049492541700602">
        <ele>1457.98</ele>
        <time>2019-03-15T15:28:51Z</time>
      </trkpt>
      <trkpt lat="30.811660392209888" lon="-7.049564626067877">
        <ele>1457.98</ele>
        <time>2019-03-15T15:28:52Z</time>
      </trkpt>
      <trkpt lat="30.811738343909383" lon="-7.049711979925633">
        <ele>1457.98</ele>
        <time>2019-03-15T15:28:53Z</time>
      </trkpt>
      <trkpt lat="30.811788300052285" lon="-7.049785237759352">
        <ele>1457.5</ele>
        <time>2019-03-15T15:28:54Z</time>
      </trkpt>
      <trkpt lat="30.811847811564803" lon="-7.049854472279549">
        <ele>1457.5</ele>
        <time>2019-03-15T15:28:55Z</time>
      </trkpt>
      <trkpt lat="30.812660437077284" lon="-7.050388902425766">
        <ele>1457.02</ele>
        <time>2019-03-15T15:28:56Z</time>
      </trkpt>
      <trkpt lat="30.814051330089569" lon="-7.050935905426741">
        <ele>1456.53</ele>
        <time>2019-03-15T15:28:57Z</time>
      </trkpt>
      <trkpt lat="30.814134981483221" lon="-7.050988459959626">
        <ele>1452.21</ele>
        <time>2019-03-15T15:28:58Z</time>
      </trkpt>
      <trkpt lat="30.814211592078209" lon="-7.051051910966635">
        <ele>1451.25</ele>
        <time>2019-03-15T15:28:59Z</time>
      </trkpt>
      <trkpt lat="30.814282083883882" lon="-7.051122738048434">
        <ele>1447.8800000000001</ele>
        <time>2019-03-15T15:29:00Z</time>
      </trkpt>
      <trkpt lat="30.814344864338636" lon="-7.051201444119215">
        <ele>1446.9200000000001</ele>
        <time>2019-03-15T15:29:01Z</time>
      </trkpt>
      <trkpt lat="30.814398424699903" lon="-7.051287274807692">
        <ele>1445.96</ele>
        <time>2019-03-15T15:29:02Z</time>
      </trkpt>
      <trkpt lat="30.814449973404408" lon="-7.051380481570959">
        <ele>1445</ele>
        <time>2019-03-15T15:29:03Z</time>
      </trkpt>
      <trkpt lat="30.814722469076514" lon="-7.051845258101821">
        <ele>1444.52</ele>
        <time>2019-03-15T15:29:04Z</time>
      </trkpt>
      <trkpt lat="30.814760439097881" lon="-7.051937291398644">
        <ele>1443.0799999999999</ele>
        <time>2019-03-15T15:29:05Z</time>
      </trkpt>
      <trkpt lat="30.814877534285188" lon="-7.052215151488781">
        <ele>1442.5999999999999</ele>
        <time>2019-03-15T15:29:06Z</time>
      </trkpt>
      <trkpt lat="30.814938805997372" lon="-7.052305340766907">
        <ele>1441.6300000000001</ele>
        <time>2019-03-15T15:29:07Z</time>
      </trkpt>
      <trkpt lat="30.815008794888854" lon="-7.05238756723702">
        <ele>1441.1500000000001</ele>
        <time>2019-03-15T15:29:12Z</time>
      </trkpt>
      <trkpt lat="30.815090099349618" lon="-7.052459148690105">
        <ele>1440.1900000000001</ele>
        <time>2019-03-15T15:29:13Z</time>
      </trkpt>
      <trkpt lat="30.8151825517416" lon="-7.052511032670736">
        <ele>1439.23</ele>
        <time>2019-03-15T15:29:14Z</time>
      </trkpt>
      <trkpt lat="30.815282966941595" lon="-7.052539279684424">
        <ele>1436.3499999999999</ele>
        <time>2019-03-15T15:29:15Z</time>
      </trkpt>
      <trkpt lat="30.815390674397349" lon="-7.052544895559549">
        <ele>1435.3900000000001</ele>
        <time>2019-03-15T15:29:16Z</time>
      </trkpt>
      <trkpt lat="30.815500980243087" lon="-7.052523270249367">
        <ele>1434.4200000000001</ele>
        <time>2019-03-15T15:29:17Z</time>
      </trkpt>
      <trkpt lat="30.815607514232397" lon="-7.052481109276414">
        <ele>1433.46</ele>
        <time>2019-03-15T15:29:18Z</time>
      </trkpt>
      <trkpt lat="30.815706504508853" lon="-7.052419921383262">
        <ele>1432.98</ele>
        <time>2019-03-15T15:29:19Z</time>
      </trkpt>
      <trkpt lat="30.815802812576294" lon="-7.052351189777255">
        <ele>1430.5799999999999</ele>
        <time>2019-03-15T15:29:20Z</time>
      </trkpt>
      <trkpt lat="30.816217632964253" lon="-7.052151784300804">
        <ele>1424.8099999999999</ele>
        <time>2019-03-15T15:29:21Z</time>
      </trkpt>
      <trkpt lat="30.816331710666418" lon="-7.052138959988952">
        <ele>1423.3699999999999</ele>
        <time>2019-03-15T15:29:22Z</time>
      </trkpt>
      <trkpt lat="30.816447883844376" lon="-7.052151281386614">
        <ele>1422.8900000000001</ele>
        <time>2019-03-15T15:29:23Z</time>
      </trkpt>
      <trkpt lat="30.816563554108143" lon="-7.052188580855727">
        <ele>1422.4100000000001</ele>
        <time>2019-03-15T15:29:28Z</time>
      </trkpt>
      <trkpt lat="30.816678805276752" lon="-7.052239123731852">
        <ele>1421.9300000000001</ele>
        <time>2019-03-15T15:29:29Z</time>
      </trkpt>
      <trkpt lat="30.816916013136506" lon="-7.052334593608975">
        <ele>1421.45</ele>
        <time>2019-03-15T15:29:30Z</time>
      </trkpt>
      <trkpt lat="30.817719250917435" lon="-7.05245990306139">
        <ele>1421.45</ele>
        <time>2019-03-15T15:29:31Z</time>
      </trkpt>
      <trkpt lat="30.817936342209578" lon="-7.052468452602625">
        <ele>1421.45</ele>
        <time>2019-03-15T15:29:32Z</time>
      </trkpt>
      <trkpt lat="30.818025106564164" lon="-7.05250047147274">
        <ele>1420.97</ele>
        <time>2019-03-15T15:29:33Z</time>
      </trkpt>
      <trkpt lat="30.818102052435279" lon="-7.05255176872015">
        <ele>1420.97</ele>
        <time>2019-03-15T15:29:45Z</time>
      </trkpt>
      <trkpt lat="30.818170700222254" lon="-7.052622428163886">
        <ele>1420.49</ele>
        <time>2019-03-15T15:29:46Z</time>
      </trkpt>
      <trkpt lat="30.818237084895372" lon="-7.052698703482747">
        <ele>1420</ele>
        <time>2019-03-15T15:29:47Z</time>
      </trkpt>
      <trkpt lat="30.81830782815814" lon="-7.052773721516132">
        <ele>1419.52</ele>
        <time>2019-03-15T15:30:00Z</time>
      </trkpt>
      <trkpt lat="30.818385696038604" lon="-7.052844883874059">
        <ele>1419.52</ele>
        <time>2019-03-15T15:30:08Z</time>
      </trkpt>
      <trkpt lat="30.818473035469651" lon="-7.052907831966877">
        <ele>1419.04</ele>
        <time>2019-03-15T15:30:09Z</time>
      </trkpt>
      <trkpt lat="30.818569008260965" lon="-7.052959213033319">
        <ele>1419.04</ele>
        <time>2019-03-15T15:30:10Z</time>
      </trkpt>
      <trkpt lat="30.818665316328406" lon="-7.053000535815954">
        <ele>1418.5599999999999</ele>
        <time>2019-03-15T15:30:11Z</time>
      </trkpt>
      <trkpt lat="30.818765480071306" lon="-7.053021155297756">
        <ele>1418.0799999999999</ele>
        <time>2019-03-15T15:30:12Z</time>
      </trkpt>
      <trkpt lat="30.818868828937411" lon="-7.053024088963866">
        <ele>1417.5999999999999</ele>
        <time>2019-03-15T15:30:13Z</time>
      </trkpt>
      <trkpt lat="30.818974860012531" lon="-7.053028531372547">
        <ele>1417.5999999999999</ele>
        <time>2019-03-15T15:30:14Z</time>
      </trkpt>
      <trkpt lat="30.819077119231224" lon="-7.053058203309774">
        <ele>1416.6400000000001</ele>
        <time>2019-03-15T15:30:15Z</time>
      </trkpt>
      <trkpt lat="30.81917367875576" lon="-7.053106902167201">
        <ele>1415.6800000000001</ele>
        <time>2019-03-15T15:30:16Z</time>
      </trkpt>
      <trkpt lat="30.819269400089979" lon="-7.053157025948167">
        <ele>1414.72</ele>
        <time>2019-03-15T15:30:17Z</time>
      </trkpt>
      <trkpt lat="30.819367971271276" lon="-7.053199438378215">
        <ele>1413.76</ele>
        <time>2019-03-15T15:30:18Z</time>
      </trkpt>
      <trkpt lat="30.819474756717682" lon="-7.05322852358222">
        <ele>1413.28</ele>
        <time>2019-03-15T15:30:19Z</time>
      </trkpt>
      <trkpt lat="30.819587158039212" lon="-7.053240342065692">
        <ele>1412.3099999999999</ele>
        <time>2019-03-15T15:30:20Z</time>
      </trkpt>
      <trkpt lat="30.819705007597804" lon="-7.053234139457345">
        <ele>1411.8299999999999</ele>
        <time>2019-03-15T15:30:21Z</time>
      </trkpt>
      <trkpt lat="30.819825958460569" lon="-7.053210502490401">
        <ele>1410.8699999999999</ele>
        <time>2019-03-15T15:30:22Z</time>
      </trkpt>
      <trkpt lat="30.819944059476256" lon="-7.053174041211605">
        <ele>1410.3900000000001</ele>
        <time>2019-03-15T15:30:34Z</time>
      </trkpt>
      <trkpt lat="30.820059226825833" lon="-7.053129281848669">
        <ele>1409.4300000000001</ele>
        <time>2019-03-15T15:30:46Z</time>
      </trkpt>
      <trkpt lat="30.820167185738683" lon="-7.0530741289258">
        <ele>1408.95</ele>
        <time>2019-03-15T15:30:55Z</time>
      </trkpt>
      <trkpt lat="30.820262655615807" lon="-7.05300715751946">
        <ele>1408.47</ele>
        <time>2019-03-15T15:31:06Z</time>
      </trkpt>
      <trkpt lat="30.820349408313632" lon="-7.052936162799597">
        <ele>1407.99</ele>
        <time>2019-03-15T15:31:16Z</time>
      </trkpt>
      <trkpt lat="30.820438675582409" lon="-7.052876064553857">
        <ele>1407.03</ele>
        <time>2019-03-15T15:31:25Z</time>
      </trkpt>
      <trkpt lat="30.820536408573389" lon="-7.052834993228316">
        <ele>1406.55</ele>
        <time>2019-03-15T15:31:33Z</time>
      </trkpt>
      <trkpt lat="30.820641936734319" lon="-7.052809847518802">
        <ele>1406.0699999999999</ele>
        <time>2019-03-15T15:31:36Z</time>
      </trkpt>
      <trkpt lat="30.820750817656517" lon="-7.052799202501774">
        <ele>1405.5799999999999</ele>
        <time>2019-03-15T15:31:37Z</time>
      </trkpt>
      <trkpt lat="30.820864057168365" lon="-7.052807919681072">
        <ele>1403.6600000000001</ele>
        <time>2019-03-15T15:31:45Z</time>
      </trkpt>
      <trkpt lat="30.820975201204419" lon="-7.052833149209619">
        <ele>1403.1800000000001</ele>
        <time>2019-03-15T15:31:55Z</time>
      </trkpt>
      <trkpt lat="30.821084585040808" lon="-7.052869778126478">
        <ele>1403.1800000000001</ele>
        <time>2019-03-15T15:31:56Z</time>
      </trkpt>
      <trkpt lat="30.821194220334291" lon="-7.052911436185241">
        <ele>1402.7</ele>
        <time>2019-03-15T15:31:57Z</time>
      </trkpt>
      <trkpt lat="30.821308717131615" lon="-7.052959464490414">
        <ele>1402.22</ele>
        <time>2019-03-15T15:31:58Z</time>
      </trkpt>
      <trkpt lat="30.821425644680858" lon="-7.053003972396255">
        <ele>1402.22</ele>
        <time>2019-03-15T15:31:59Z</time>
      </trkpt>
      <trkpt lat="30.822011958807707" lon="-7.053167251870036">
        <ele>1401.74</ele>
        <time>2019-03-15T15:32:00Z</time>
      </trkpt>
      <trkpt lat="30.82212888635695" lon="-7.053163563832641">
        <ele>1401.74</ele>
        <time>2019-03-15T15:32:01Z</time>
      </trkpt>
      <trkpt lat="30.82224665209651" lon="-7.053141770884395">
        <ele>1400.78</ele>
        <time>2019-03-15T15:32:09Z</time>
      </trkpt>
      <trkpt lat="30.822361735627055" lon="-7.053104974329472">
        <ele>1400.3</ele>
        <time>2019-03-15T15:32:13Z</time>
      </trkpt>
      <trkpt lat="30.822473550215364" lon="-7.053058538585901">
        <ele>1399.8199999999999</ele>
        <time>2019-03-15T15:32:14Z</time>
      </trkpt>
      <trkpt lat="30.822579581290483" lon="-7.052997350692749">
        <ele>1398.8599999999999</ele>
        <time>2019-03-15T15:32:15Z</time>
      </trkpt>
      <trkpt lat="30.822676895186305" lon="-7.052921410650015">
        <ele>1395.01</ele>
        <time>2019-03-15T15:32:16Z</time>
      </trkpt>
      <trkpt lat="30.822769599035382" lon="-7.052829964086413">
        <ele>1394.05</ele>
        <time>2019-03-15T15:32:17Z</time>
      </trkpt>
      <trkpt lat="30.822855764999986" lon="-7.052730051800609">
        <ele>1393.5699999999999</ele>
        <time>2019-03-15T15:32:18Z</time>
      </trkpt>
      <trkpt lat="30.82293120212853" lon="-7.052620248869062">
        <ele>1392.6099999999999</ele>
        <time>2019-03-15T15:32:21Z</time>
      </trkpt>
      <trkpt lat="30.823005801066756" lon="-7.052505249157548">
        <ele>1391.6500000000001</ele>
        <time>2019-03-15T15:32:22Z</time>
      </trkpt>
      <trkpt lat="30.823087356984615" lon="-7.05239343456924">
        <ele>1390.2</ele>
        <time>2019-03-15T15:32:23Z</time>
      </trkpt>
      <trkpt lat="30.823550205677748" lon="-7.051878869533539">
        <ele>1382.51</ele>
        <time>2019-03-15T15:32:24Z</time>
      </trkpt>
      <trkpt lat="30.823662774637341" lon="-7.051803516224027">
        <ele>1382.03</ele>
        <time>2019-03-15T15:32:25Z</time>
      </trkpt>
      <trkpt lat="30.823788084089756" lon="-7.051745261996985">
        <ele>1381.55</ele>
        <time>2019-03-15T15:32:26Z</time>
      </trkpt>
      <trkpt lat="30.823924457654357" lon="-7.051701759919524">
        <ele>1373.3800000000001</ele>
        <time>2019-03-15T15:32:27Z</time>
      </trkpt>
      <trkpt lat="30.82406778819859" lon="-7.051669908687472">
        <ele>1368.0899999999999</ele>
        <time>2019-03-15T15:32:28Z</time>
      </trkpt>
      <trkpt lat="30.824212795123458" lon="-7.051646104082465">
        <ele>1367.1300000000001</ele>
        <time>2019-03-15T15:32:29Z</time>
      </trkpt>
      <trkpt lat="30.825942317023873" lon="-7.051209155470133">
        <ele>1366.6500000000001</ele>
        <time>2019-03-15T15:32:30Z</time>
      </trkpt>
      <trkpt lat="30.826061842963099" lon="-7.051184764131904">
        <ele>1365.6900000000001</ele>
        <time>2019-03-15T15:32:31Z</time>
      </trkpt>
      <trkpt lat="30.826185392215848" lon="-7.051179818809032">
        <ele>1365.21</ele>
        <time>2019-03-15T15:32:32Z</time>
      </trkpt>
      <trkpt lat="30.827963948249817" lon="-7.051176968961954">
        <ele>1364.73</ele>
        <time>2019-03-15T15:32:33Z</time>
      </trkpt>
      <trkpt lat="30.829042280092835" lon="-7.051192475482822">
        <ele>1363.77</ele>
        <time>2019-03-15T15:32:34Z</time>
      </trkpt>
      <trkpt lat="30.829145796597004" lon="-7.051207395270467">
        <ele>1363.29</ele>
        <time>2019-03-15T15:32:35Z</time>
      </trkpt>
      <trkpt lat="30.829247385263443" lon="-7.051209406927228">
        <ele>1362.8099999999999</ele>
        <time>2019-03-15T15:32:36Z</time>
      </trkpt>
      <trkpt lat="30.829347800463438" lon="-7.051193146035075">
        <ele>1362.3299999999999</ele>
        <time>2019-03-15T15:32:37Z</time>
      </trkpt>
      <trkpt lat="30.829445365816355" lon="-7.051160791888833">
        <ele>1361.8399999999999</ele>
        <time>2019-03-15T15:32:38Z</time>
      </trkpt>
      <trkpt lat="30.829535555094481" lon="-7.051119888201356">
        <ele>1360.8800000000001</ele>
        <time>2019-03-15T15:32:39Z</time>
      </trkpt>
      <trkpt lat="30.829610154032707" lon="-7.051078816875815">
        <ele>1360.4000000000001</ele>
        <time>2019-03-15T15:32:40Z</time>
      </trkpt>
      <trkpt lat="30.829671509563923" lon="-7.051038248464465">
        <ele>1359.9200000000001</ele>
        <time>2019-03-15T15:32:44Z</time>
      </trkpt>
      <trkpt lat="30.829726746305823" lon="-7.050988459959626">
        <ele>1359.4400000000001</ele>
        <time>2019-03-15T15:32:45Z</time>
      </trkpt>
      <trkpt lat="30.829785419628024" lon="-7.050924254581332">
        <ele>1356.5599999999999</ele>
        <time>2019-03-15T15:32:46Z</time>
      </trkpt>
      <trkpt lat="30.829843170940876" lon="-7.050843453034759">
        <ele>1355.1199999999999</ele>
        <time>2019-03-15T15:32:47Z</time>
      </trkpt>
      <trkpt lat="30.829896479845047" lon="-7.050746306777">
        <ele>1351.27</ele>
        <time>2019-03-15T15:32:48Z</time>
      </trkpt>
      <trkpt lat="30.829945262521505" lon="-7.050640527158976">
        <ele>1346.46</ele>
        <time>2019-03-15T15:32:49Z</time>
      </trkpt>
      <trkpt lat="30.829988261684775" lon="-7.050527958199382">
        <ele>1343.5799999999999</ele>
        <time>2019-03-15T15:32:50Z</time>
      </trkpt>
      <trkpt lat="30.830025812610984" lon="-7.050412371754646">
        <ele>1342.6199999999999</ele>
        <time>2019-03-15T15:32:52Z</time>
      </trkpt>
      <trkpt lat="30.830421103164554" lon="-7.048880746588111">
        <ele>1341.1800000000001</ele>
        <time>2019-03-15T15:32:53Z</time>
      </trkpt>
      <trkpt lat="30.830842461436987" lon="-7.047233702614904">
        <ele>1340.22</ele>
        <time>2019-03-15T15:32:54Z</time>
      </trkpt>
      <trkpt lat="30.831246804445982" lon="-7.046095691621304">
        <ele>1339.73</ele>
        <time>2019-03-15T15:32:55Z</time>
      </trkpt>
      <trkpt lat="30.83189070224762" lon="-7.04468434676528">
        <ele>1339.25</ele>
        <time>2019-03-15T15:32:56Z</time>
      </trkpt>
      <trkpt lat="30.832448014989495" lon="-7.043498139828444">
        <ele>1342.1400000000001</ele>
        <time>2019-03-15T15:32:57Z</time>
      </trkpt>
      <trkpt lat="30.833041789010167" lon="-7.042607646435499">
        <ele>1342.6199999999999</ele>
        <time>2019-03-15T15:32:58Z</time>
      </trkpt>
      <trkpt lat="30.833833375945687" lon="-7.041919492185116">
        <ele>1342.1400000000001</ele>
        <time>2019-03-15T15:32:59Z</time>
      </trkpt>
      <trkpt lat="30.834146859124303" lon="-7.041726792231202">
        <ele>1341.6600000000001</ele>
        <time>2019-03-15T15:33:00Z</time>
      </trkpt>
      <trkpt lat="30.834252135828137" lon="-7.041642386466265">
        <ele>1341.1800000000001</ele>
        <time>2019-03-15T15:33:01Z</time>
      </trkpt>
      <trkpt lat="30.83526810631156" lon="-7.040815344080329">
        <ele>1340.7</ele>
        <time>2019-03-15T15:33:02Z</time>
      </trkpt>
      <trkpt lat="30.836555985733867" lon="-7.039685295894742">
        <ele>1340.22</ele>
        <time>2019-03-15T15:33:03Z</time>
      </trkpt>
      <trkpt lat="30.83665388636291" lon="-7.039568116888404">
        <ele>1333.97</ele>
        <time>2019-03-15T15:33:04Z</time>
      </trkpt>
      <trkpt lat="30.836742063984275" lon="-7.039439706131816">
        <ele>1333.97</ele>
        <time>2019-03-15T15:33:05Z</time>
      </trkpt>
      <trkpt lat="30.836821775883436" lon="-7.039305008947849">
        <ele>1334.45</ele>
        <time>2019-03-15T15:33:15Z</time>
      </trkpt>
      <trkpt lat="30.836894698441029" lon="-7.039165701717138">
        <ele>1334.45</ele>
        <time>2019-03-15T15:33:16Z</time>
      </trkpt>
      <trkpt lat="30.836963513866067" lon="-7.03901868313551">
        <ele>1334.9300000000001</ele>
        <time>2019-03-15T15:33:17Z</time>
      </trkpt>
      <trkpt lat="30.83702813833952" lon="-7.038863282650709">
        <ele>1334.45</ele>
        <time>2019-03-15T15:33:18Z</time>
      </trkpt>
      <trkpt lat="30.837698103860021" lon="-7.037544725462794">
        <ele>1334.45</ele>
        <time>2019-03-15T15:33:19Z</time>
      </trkpt>
      <trkpt lat="30.838116528466344" lon="-7.036982132121921">
        <ele>1335.4100000000001</ele>
        <time>2019-03-15T15:33:20Z</time>
      </trkpt>
      <trkpt lat="30.838202694430947" lon="-7.036825893446803">
        <ele>1336.3699999999999</ele>
        <time>2019-03-15T15:33:21Z</time>
      </trkpt>
      <trkpt lat="30.838276538997889" lon="-7.036663452163339">
        <ele>1337.3299999999999</ele>
        <time>2019-03-15T15:33:22Z</time>
      </trkpt>
      <trkpt lat="30.838337978348136" lon="-7.036498328670859">
        <ele>1338.29</ele>
        <time>2019-03-15T15:33:23Z</time>
      </trkpt>
      <trkpt lat="30.838388605043292" lon="-7.036332283169031">
        <ele>1339.73</ele>
        <time>2019-03-15T15:33:36Z</time>
      </trkpt>
      <trkpt lat="30.838434034958482" lon="-7.0361646451056">
        <ele>1340.7</ele>
        <time>2019-03-15T15:33:47Z</time>
      </trkpt>
      <trkpt lat="30.838620867580175" lon="-7.035685032606125">
        <ele>1342.1400000000001</ele>
        <time>2019-03-15T15:33:58Z</time>
      </trkpt>
      <trkpt lat="30.838708039373159" lon="-7.035541785880923">
        <ele>1343.0999999999999</ele>
        <time>2019-03-15T15:34:01Z</time>
      </trkpt>
      <trkpt lat="30.838808119297028" lon="-7.035414883866906">
        <ele>1344.0599999999999</ele>
        <time>2019-03-15T15:34:11Z</time>
      </trkpt>
      <trkpt lat="30.838910881429911" lon="-7.035305919125676">
        <ele>1344.54</ele>
        <time>2019-03-15T15:34:22Z</time>
      </trkpt>
      <trkpt lat="30.839017331600189" lon="-7.035214556381106">
        <ele>1345.5</ele>
        <time>2019-03-15T15:34:31Z</time>
      </trkpt>
      <trkpt lat="30.839123195037246" lon="-7.035142472013831">
        <ele>1345.98</ele>
        <time>2019-03-15T15:34:45Z</time>
      </trkpt>
      <trkpt lat="30.839225202798843" lon="-7.035073405131698">
        <ele>1346.46</ele>
        <time>2019-03-15T15:34:58Z</time>
      </trkpt>
      <trkpt lat="30.839315475896001" lon="-7.034991094842553">
        <ele>1346.9400000000001</ele>
        <time>2019-03-15T15:35:13Z</time>
      </trkpt>
      <trkpt lat="30.839396780356765" lon="-7.034891350194812">
        <ele>1347.9100000000001</ele>
        <time>2019-03-15T15:35:30Z</time>
      </trkpt>
      <trkpt lat="30.839468948543072" lon="-7.034781211987138">
        <ele>1347.9100000000001</ele>
        <time>2019-03-15T15:35:48Z</time>
      </trkpt>
      <trkpt lat="30.839529633522034" lon="-7.034660596400499">
        <ele>1348.3900000000001</ele>
        <time>2019-03-15T15:36:02Z</time>
      </trkpt>
      <trkpt lat="30.839573889970779" lon="-7.034529251977801">
        <ele>1348.8699999999999</ele>
        <time>2019-03-15T15:36:21Z</time>
      </trkpt>
      <trkpt lat="30.839598113670945" lon="-7.034390950575471">
        <ele>1348.8699999999999</ele>
        <time>2019-03-15T15:36:34Z</time>
      </trkpt>
      <trkpt lat="30.839602136984468" lon="-7.034254996106029">
        <ele>1348.3900000000001</ele>
        <time>2019-03-15T15:36:44Z</time>
      </trkpt>
      <trkpt lat="30.839584702625871" lon="-7.034117532894015">
        <ele>1346.9400000000001</ele>
        <time>2019-03-15T15:36:59Z</time>
      </trkpt>
      <trkpt lat="30.83954656496644" lon="-7.033983841538429">
        <ele>1346.46</ele>
        <time>2019-03-15T15:37:14Z</time>
      </trkpt>
      <trkpt lat="30.839491747319698" lon="-7.033851072192192">
        <ele>1346.46</ele>
        <time>2019-03-15T15:37:30Z</time>
      </trkpt>
      <trkpt lat="30.839435420930386" lon="-7.033714950084686">
        <ele>1346.46</ele>
        <time>2019-03-15T15:37:41Z</time>
      </trkpt>
      <trkpt lat="30.839385213330388" lon="-7.033573128283024">
        <ele>1345.98</ele>
        <time>2019-03-15T15:38:00Z</time>
      </trkpt>
      <trkpt lat="30.839342130348086" lon="-7.033427366986871">
        <ele>1345.98</ele>
        <time>2019-03-15T15:38:16Z</time>
      </trkpt>
      <trkpt lat="30.839231070131063" lon="-7.032893523573875">
        <ele>1345.98</ele>
        <time>2019-03-15T15:38:28Z</time>
      </trkpt>
      <trkpt lat="30.839193183928728" lon="-7.03277793712914">
        <ele>1345.02</ele>
        <time>2019-03-15T15:38:46Z</time>
      </trkpt>
      <trkpt lat="30.839146077632904" lon="-7.032664697617292">
        <ele>1345.02</ele>
        <time>2019-03-15T15:39:02Z</time>
      </trkpt>
      <trkpt lat="30.839087069034576" lon="-7.032557157799602">
        <ele>1344.54</ele>
        <time>2019-03-15T15:39:16Z</time>
      </trkpt>
      <trkpt lat="30.839018588885665" lon="-7.032461687922478">
        <ele>1344.54</ele>
        <time>2019-03-15T15:39:20Z</time>
      </trkpt>
      <trkpt lat="30.838945331051946" lon="-7.032377533614636">
        <ele>1345.02</ele>
        <time>2019-03-15T15:39:21Z</time>
      </trkpt>
      <trkpt lat="30.838871570304036" lon="-7.032303437590599">
        <ele>1345.5</ele>
        <time>2019-03-15T15:39:22Z</time>
      </trkpt>
      <trkpt lat="30.838739890605211" lon="-7.032174523919821">
        <ele>1346.46</ele>
        <time>2019-03-15T15:39:23Z</time>
      </trkpt>
      <trkpt lat="30.838694041594863" lon="-7.03210067935288">
        <ele>1346.9400000000001</ele>
        <time>2019-03-15T15:39:24Z</time>
      </trkpt>
      <trkpt lat="30.838667806237936" lon="-7.032012585550547">
        <ele>1347.4300000000001</ele>
        <time>2019-03-15T15:39:25Z</time>
      </trkpt>
      <trkpt lat="30.838665040209889" lon="-7.031919127330184">
        <ele>1347.9100000000001</ele>
        <time>2019-03-15T15:39:26Z</time>
      </trkpt>
      <trkpt lat="30.838685827329755" lon="-7.031830698251724">
        <ele>1348.3900000000001</ele>
        <time>2019-03-15T15:39:27Z</time>
      </trkpt>
      <trkpt lat="30.83873251453042" lon="-7.031754339113832">
        <ele>1348.8699999999999</ele>
        <time>2019-03-15T15:39:38Z</time>
      </trkpt>
      <trkpt lat="30.838796971365809" lon="-7.031692983582616">
        <ele>1349.3499999999999</ele>
        <time>2019-03-15T15:39:51Z</time>
      </trkpt>
      <trkpt lat="30.838872995227575" lon="-7.031652163714171">
        <ele>1349.8299999999999</ele>
        <time>2019-03-15T15:40:09Z</time>
      </trkpt>
      <trkpt lat="30.838957317173481" lon="-7.031635902822018">
        <ele>1355.1199999999999</ele>
        <time>2019-03-15T15:40:29Z</time>
      </trkpt>
      <trkpt lat="30.839044656604528" lon="-7.031638417392969">
        <ele>1355.1199999999999</ele>
        <time>2019-03-15T15:40:45Z</time>
      </trkpt>
      <trkpt lat="30.839132247492671" lon="-7.031645122915506">
        <ele>1355.5999999999999</ele>
        <time>2019-03-15T15:40:54Z</time>
      </trkpt>
      <trkpt lat="30.839221011847258" lon="-7.031640931963921">
        <ele>1355.5999999999999</ele>
        <time>2019-03-15T15:41:07Z</time>
      </trkpt>
      <trkpt lat="30.839308854192495" lon="-7.031620144844055">
        <ele>1355.5999999999999</ele>
        <time>2019-03-15T15:41:23Z</time>
      </trkpt>
      <trkpt lat="30.839397953823209" lon="-7.031590305268765">
        <ele>1355.5999999999999</ele>
        <time>2019-03-15T15:41:34Z</time>
      </trkpt>
      <trkpt lat="30.840228851884604" lon="-7.031048499047756">
        <ele>1355.5999999999999</ele>
        <time>2019-03-15T15:41:44Z</time>
      </trkpt>
      <trkpt lat="30.840284926816821" lon="-7.03096074052155">
        <ele>1355.1199999999999</ele>
        <time>2019-03-15T15:41:59Z</time>
      </trkpt>
      <trkpt lat="30.840333038941026" lon="-7.030865019187331">
        <ele>1355.1199999999999</ele>
        <time>2019-03-15T15:42:12Z</time>
      </trkpt>
      <trkpt lat="30.840369332581758" lon="-7.030764184892178">
        <ele>1353.1900000000001</ele>
        <time>2019-03-15T15:42:23Z</time>
      </trkpt>
      <trkpt lat="30.840396741405129" lon="-7.030664188787341">
        <ele>1351.27</ele>
        <time>2019-03-15T15:42:34Z</time>
      </trkpt>
      <trkpt lat="30.840415935963392" lon="-7.030565030872822">
        <ele>1346.9400000000001</ele>
        <time>2019-03-15T15:42:50Z</time>
      </trkpt>
      <trkpt lat="30.840426329523325" lon="-7.030464112758637">
        <ele>1344.54</ele>
        <time>2019-03-15T15:43:07Z</time>
      </trkpt>
      <trkpt lat="30.84042364731431" lon="-7.030360512435436">
        <ele>1338.29</ele>
        <time>2019-03-15T15:43:21Z</time>
      </trkpt>
      <trkpt lat="30.840418031439185" lon="-7.030254984274507">
        <ele>1334.45</ele>
        <time>2019-03-15T15:43:38Z</time>
      </trkpt>
      <trkpt lat="30.840382827445865" lon="-7.028685808181763">
        <ele>1333.01</ele>
        <time>2019-03-15T15:43:53Z</time>
      </trkpt>
      <trkpt lat="30.840583741664886" lon="-7.027520556002855">
        <ele>1331.0799999999999</ele>
        <time>2019-03-15T15:44:06Z</time>
      </trkpt>
      <trkpt lat="30.840431358665228" lon="-7.026400230824947">
        <ele>1325.3099999999999</ele>
        <time>2019-03-15T15:44:21Z</time>
      </trkpt>
      <trkpt lat="30.840322058647871" lon="-7.026028158143163">
        <ele>1320.03</ele>
        <time>2019-03-15T15:44:35Z</time>
      </trkpt>
      <trkpt lat="30.839896677061915" lon="-7.024428807199001">
        <ele>1309.45</ele>
        <time>2019-03-15T15:44:47Z</time>
      </trkpt>
      <trkpt lat="30.839419830590487" lon="-7.022519744932652">
        <ele>1304.1700000000001</ele>
        <time>2019-03-15T15:44:59Z</time>
      </trkpt>
      <trkpt lat="30.839381776750088" lon="-7.020907318219543">
        <ele>1303.2</ele>
        <time>2019-03-15T15:45:07Z</time>
      </trkpt>
      <trkpt lat="30.839400384575129" lon="-7.018502885475755">
        <ele>1302.24</ele>
        <time>2019-03-15T15:45:14Z</time>
      </trkpt>
      <trkpt lat="30.839229729026556" lon="-7.016134075820446">
        <ele>1301.28</ele>
        <time>2019-03-15T15:45:26Z</time>
      </trkpt>
      <trkpt lat="30.83898120559752" lon="-7.013460081070662">
        <ele>1299.3599999999999</ele>
        <time>2019-03-15T15:45:36Z</time>
      </trkpt>
      <trkpt lat="30.838441075757146" lon="-7.010501101613045">
        <ele>1296.96</ele>
        <time>2019-03-15T15:45:45Z</time>
      </trkpt>
      <trkpt lat="30.837357379496098" lon="-7.007165355607867">
        <ele>1293.1099999999999</ele>
        <time>2019-03-15T15:45:55Z</time>
      </trkpt>
      <trkpt lat="30.836502006277442" lon="-7.004541233181953">
        <ele>1288.3</ele>
        <time>2019-03-15T15:45:56Z</time>
      </trkpt>
      <trkpt lat="30.835346896201372" lon="-7.000906001776457">
        <ele>1285.4200000000001</ele>
        <time>2019-03-15T15:45:57Z</time>
      </trkpt>
      <trkpt lat="30.834723114967346" lon="-6.998329656198621">
        <ele>1282.0599999999999</ele>
        <time>2019-03-15T15:46:06Z</time>
      </trkpt>
      <trkpt lat="30.83471548743546" lon="-6.996305342763662">
        <ele>1283.98</ele>
        <time>2019-03-15T15:46:12Z</time>
      </trkpt>
      <trkpt lat="30.834860997274518" lon="-6.993059366941452">
        <ele>1285.4200000000001</ele>
        <time>2019-03-15T15:46:13Z</time>
      </trkpt>
      <trkpt lat="30.835211109369993" lon="-6.989940460771322">
        <ele>1288.3</ele>
        <time>2019-03-15T15:46:14Z</time>
      </trkpt>
      <trkpt lat="30.835460973903537" lon="-6.986984834074974">
        <ele>1285.4200000000001</ele>
        <time>2019-03-15T15:46:15Z</time>
      </trkpt>
      <trkpt lat="30.835200045257807" lon="-6.985210133716464">
        <ele>1282.0599999999999</ele>
        <time>2019-03-15T15:46:16Z</time>
      </trkpt>
      <trkpt lat="30.834472412243485" lon="-6.98222148232162">
        <ele>1281.5699999999999</ele>
        <time>2019-03-15T15:46:17Z</time>
      </trkpt>
      <trkpt lat="30.833911243826151" lon="-6.979643376544118">
        <ele>1281.5699999999999</ele>
        <time>2019-03-15T15:46:21Z</time>
      </trkpt>
      <trkpt lat="30.833945777267218" lon="-6.977553013712168">
        <ele>1281.5699999999999</ele>
        <time>2019-03-15T15:46:22Z</time>
      </trkpt>
      <trkpt lat="30.834075529128313" lon="-6.97457148693502">
        <ele>1281.5699999999999</ele>
        <time>2019-03-15T15:46:23Z</time>
      </trkpt>
      <trkpt lat="30.83410419523716" lon="-6.971947783604264">
        <ele>1281.5699999999999</ele>
        <time>2019-03-15T15:46:24Z</time>
      </trkpt>
      <trkpt lat="30.833753161132336" lon="-6.969830682501197">
        <ele>1281.5699999999999</ele>
        <time>2019-03-15T15:46:25Z</time>
      </trkpt>
      <trkpt lat="30.833745198324323" lon="-6.969256605952978">
        <ele>1281.5699999999999</ele>
        <time>2019-03-15T15:46:26Z</time>
      </trkpt>
      <trkpt lat="30.833767326548696" lon="-6.969119478017092">
        <ele>1281.5699999999999</ele>
        <time>2019-03-15T15:46:27Z</time>
      </trkpt>
      <trkpt lat="30.833797249943018" lon="-6.968985954299569">
        <ele>1278.6900000000001</ele>
        <time>2019-03-15T15:46:28Z</time>
      </trkpt>
      <trkpt lat="30.83383496850729" lon="-6.968856537714601">
        <ele>1272.9200000000001</ele>
        <time>2019-03-15T15:46:29Z</time>
      </trkpt>
      <trkpt lat="30.833881907165051" lon="-6.968732234090567">
        <ele>1264.27</ele>
        <time>2019-03-15T15:46:30Z</time>
      </trkpt>
      <trkpt lat="30.833937646821141" lon="-6.968613630160689">
        <ele>1256.0999999999999</ele>
        <time>2019-03-15T15:46:31Z</time>
      </trkpt>
      <trkpt lat="30.834000427275896" lon="-6.968501145020127">
        <ele>1248.4100000000001</ele>
        <time>2019-03-15T15:46:39Z</time>
      </trkpt>
      <trkpt lat="30.834068153053522" lon="-6.968392934650183">
        <ele>1244.5599999999999</ele>
        <time>2019-03-15T15:46:50Z</time>
      </trkpt>
      <trkpt lat="30.834959736093879" lon="-6.967248804867268">
        <ele>1237.8299999999999</ele>
        <time>2019-03-15T15:47:05Z</time>
      </trkpt>
      <trkpt lat="30.836201850324869" lon="-6.965692117810249">
        <ele>1225.3399999999999</ele>
        <time>2019-03-15T15:47:09Z</time>
      </trkpt>
      <trkpt lat="30.838015610352159" lon="-6.963439397513866">
        <ele>1227.74</ele>
        <time>2019-03-15T15:47:10Z</time>
      </trkpt>
      <trkpt lat="30.840182416141033" lon="-6.960734808817506">
        <ele>1228.22</ele>
        <time>2019-03-15T15:47:11Z</time>
      </trkpt>
      <trkpt lat="30.842057783156633" lon="-6.958481669425964">
        <ele>1222.45</ele>
        <time>2019-03-15T15:47:12Z</time>
      </trkpt>
      <trkpt lat="30.843349769711494" lon="-6.957645826041699">
        <ele>1216.21</ele>
        <time>2019-03-15T15:47:13Z</time>
      </trkpt>
      <trkpt lat="30.845455303788185" lon="-6.957048615440726">
        <ele>1212.8399999999999</ele>
        <time>2019-03-15T15:47:14Z</time>
      </trkpt>
      <trkpt lat="30.848099123686552" lon="-6.95637010037899">
        <ele>1206.5899999999999</ele>
        <time>2019-03-15T15:47:15Z</time>
      </trkpt>
      <trkpt lat="30.849922355264425" lon="-6.955833993852139">
        <ele>1207.55</ele>
        <time>2019-03-15T15:47:16Z</time>
      </trkpt>
      <trkpt lat="30.851282486692071" lon="-6.955033605918288">
        <ele>1200.8199999999999</ele>
        <time>2019-03-15T15:47:17Z</time>
      </trkpt>
      <trkpt lat="30.853059282526374" lon="-6.953411288559437">
        <ele>1200.3399999999999</ele>
        <time>2019-03-15T15:47:18Z</time>
      </trkpt>
      <trkpt lat="30.85489391349256" lon="-6.952003799378872">
        <ele>1192.6500000000001</ele>
        <time>2019-03-15T15:47:19Z</time>
      </trkpt>
      <trkpt lat="30.856614885851741" lon="-6.951251355931163">
        <ele>1190.25</ele>
        <time>2019-03-15T15:47:20Z</time>
      </trkpt>
      <trkpt lat="30.858198897913098" lon="-6.950698737055063">
        <ele>1184</ele>
        <time>2019-03-15T15:47:21Z</time>
      </trkpt>
      <trkpt lat="30.860525127500296" lon="-6.949914190918207">
        <ele>1180.1600000000001</ele>
        <time>2019-03-15T15:47:22Z</time>
      </trkpt>
      <trkpt lat="30.863122595474124" lon="-6.949171721935272">
        <ele>1179.6700000000001</ele>
        <time>2019-03-15T15:47:23Z</time>
      </trkpt>
      <trkpt lat="30.865208515897393" lon="-6.948568392544985">
        <ele>1180.1600000000001</ele>
        <time>2019-03-15T15:47:24Z</time>
      </trkpt>
      <trkpt lat="30.867597945034504" lon="-6.947885099798441">
        <ele>1171.98</ele>
        <time>2019-03-15T15:47:25Z</time>
      </trkpt>
      <trkpt lat="30.869724852964282" lon="-6.947275400161743">
        <ele>1165.74</ele>
        <time>2019-03-15T15:47:26Z</time>
      </trkpt>
      <trkpt lat="30.871633160859346" lon="-6.946729151532054">
        <ele>1166.22</ele>
        <time>2019-03-15T15:47:37Z</time>
      </trkpt>
      <trkpt lat="30.873844809830189" lon="-6.946114506572485">
        <ele>1171.02</ele>
        <time>2019-03-15T15:47:54Z</time>
      </trkpt>
      <trkpt lat="30.875728474929929" lon="-6.94522351026535">
        <ele>1170.54</ele>
        <time>2019-03-15T15:48:03Z</time>
      </trkpt>
      <trkpt lat="30.877255070954561" lon="-6.944339219480753">
        <ele>1171.02</ele>
        <time>2019-03-15T15:48:04Z</time>
      </trkpt>
      <trkpt lat="30.878761801868677" lon="-6.943770758807659">
        <ele>1167.6600000000001</ele>
        <time>2019-03-15T15:48:05Z</time>
      </trkpt>
      <trkpt lat="30.879807947203517" lon="-6.943534053862095">
        <ele>1167.6600000000001</ele>
        <time>2019-03-15T15:48:06Z</time>
      </trkpt>
      <trkpt lat="30.88077312335372" lon="-6.94327874109149">
        <ele>1167.1800000000001</ele>
        <time>2019-03-15T15:48:07Z</time>
      </trkpt>
      <trkpt lat="30.882321344688535" lon="-6.943007418885827">
        <ele>1166.7</ele>
        <time>2019-03-15T15:48:08Z</time>
      </trkpt>
      <trkpt lat="30.883558178320527" lon="-6.943070786073804">
        <ele>1165.74</ele>
        <time>2019-03-15T15:48:09Z</time>
      </trkpt>
      <trkpt lat="30.884684454649687" lon="-6.94315267726779">
        <ele>1166.22</ele>
        <time>2019-03-15T15:48:10Z</time>
      </trkpt>
      <trkpt lat="30.885909888893366" lon="-6.943230126053095">
        <ele>1166.22</ele>
        <time>2019-03-15T15:48:11Z</time>
      </trkpt>
      <trkpt lat="30.886021619662642" lon="-6.943209758028388">
        <ele>1166.22</ele>
        <time>2019-03-15T15:48:12Z</time>
      </trkpt>
      <trkpt lat="30.886134523898363" lon="-6.943173799663782">
        <ele>1166.7</ele>
        <time>2019-03-15T15:48:13Z</time>
      </trkpt>
      <trkpt lat="30.886964248493314" lon="-6.942560495808721">
        <ele>1166.7</ele>
        <time>2019-03-15T15:48:14Z</time>
      </trkpt>
      <trkpt lat="30.887298854067922" lon="-6.942071579396725">
        <ele>1166.7</ele>
        <time>2019-03-15T15:48:15Z</time>
      </trkpt>
      <trkpt lat="30.887319138273597" lon="-6.942014247179031">
        <ele>1167.1800000000001</ele>
        <time>2019-03-15T15:48:16Z</time>
      </trkpt>
      <trkpt lat="30.887329531833529" lon="-6.94196387194097">
        <ele>1167.1800000000001</ele>
        <time>2019-03-15T15:48:17Z</time>
      </trkpt>
      <trkpt lat="30.887331711128354" lon="-6.941918777301908">
        <ele>1167.1800000000001</ele>
        <time>2019-03-15T15:48:24Z</time>
      </trkpt>
      <trkpt lat="30.8873310405761" lon="-6.941878795623779">
        <ele>1167.1800000000001</ele>
        <time>2019-03-15T15:48:33Z</time>
      </trkpt>
      <trkpt lat="30.887327017262578" lon="-6.941842753440142">
        <ele>1167.6600000000001</ele>
        <time>2019-03-15T15:48:45Z</time>
      </trkpt>
      <trkpt lat="30.887320060282946" lon="-6.941642928868532">
        <ele>1167.6600000000001</ele>
        <time>2019-03-15T15:48:49Z</time>
      </trkpt>
      <trkpt lat="30.887335650622845" lon="-6.941581489518285">
        <ele>1167.6600000000001</ele>
        <time>2019-03-15T15:48:50Z</time>
      </trkpt>
      <trkpt lat="30.887365322560072" lon="-6.94152357056737">
        <ele>1168.1400000000001</ele>
        <time>2019-03-15T15:48:51Z</time>
      </trkpt>
      <trkpt lat="30.887408489361405" lon="-6.941472357138991">
        <ele>1168.1400000000001</ele>
        <time>2019-03-15T15:48:52Z</time>
      </trkpt>
      <trkpt lat="30.887466492131352" lon="-6.941429441794753">
        <ele>1168.6199999999999</ele>
        <time>2019-03-15T15:48:53Z</time>
      </trkpt>
      <trkpt lat="30.887543940916657" lon="-6.941399602219462">
        <ele>1168.1400000000001</ele>
        <time>2019-03-15T15:48:54Z</time>
      </trkpt>
      <trkpt lat="30.887638069689274" lon="-6.941392896696925">
        <ele>1162.3699999999999</ele>
        <time>2019-03-15T15:48:55Z</time>
      </trkpt>
      <trkpt lat="30.887740664184093" lon="-6.941403206437826">
        <ele>1172.47</ele>
        <time>2019-03-15T15:48:56Z</time>
      </trkpt>
      <trkpt lat="30.887844180688262" lon="-6.941411504521966">
        <ele>1173.9100000000001</ele>
        <time>2019-03-15T15:49:04Z</time>
      </trkpt>
      <trkpt lat="30.887945266440511" lon="-6.941401110962033">
        <ele>1173.4300000000001</ele>
        <time>2019-03-15T15:49:05Z</time>
      </trkpt>
      <trkpt lat="30.888051381334662" lon="-6.941369511187077">
        <ele>1173.4300000000001</ele>
        <time>2019-03-15T15:49:06Z</time>
      </trkpt>
      <trkpt lat="30.889110686257482" lon="-6.940884618088603">
        <ele>1173.4300000000001</ele>
        <time>2019-03-15T15:49:07Z</time>
      </trkpt>
      <trkpt lat="30.890978928655386" lon="-6.940101245418191">
        <ele>1173.4300000000001</ele>
        <time>2019-03-15T15:49:08Z</time>
      </trkpt>
      <trkpt lat="30.893348911777139" lon="-6.939077815040946">
        <ele>1172.95</ele>
        <time>2019-03-15T15:49:17Z</time>
      </trkpt>
      <trkpt lat="30.893707489594817" lon="-6.938906656578183">
        <ele>1173.4300000000001</ele>
        <time>2019-03-15T15:49:27Z</time>
      </trkpt>
      <trkpt lat="30.893744118511677" lon="-6.938851419836283">
        <ele>1173.4300000000001</ele>
        <time>2019-03-15T15:49:40Z</time>
      </trkpt>
      <trkpt lat="30.893751829862595" lon="-6.938782772049308">
        <ele>1173.4300000000001</ele>
        <time>2019-03-15T15:49:55Z</time>
      </trkpt>
      <trkpt lat="30.893742777407169" lon="-6.938707251101732">
        <ele>1173.4300000000001</ele>
        <time>2019-03-15T15:50:09Z</time>
      </trkpt>
      <trkpt lat="30.893725845962763" lon="-6.938622510060668">
        <ele>1172.95</ele>
        <time>2019-03-15T15:50:26Z</time>
      </trkpt>
      <trkpt lat="30.893718134611845" lon="-6.938529554754496">
        <ele>1172.47</ele>
        <time>2019-03-15T15:50:38Z</time>
      </trkpt>
      <trkpt lat="30.893725762143731" lon="-6.938426624983549">
        <ele>1171.98</ele>
        <time>2019-03-15T15:50:51Z</time>
      </trkpt>
      <trkpt lat="30.89374428614974" lon="-6.938314642757177">
        <ele>1171.02</ele>
        <time>2019-03-15T15:51:03Z</time>
      </trkpt>
      <trkpt lat="30.893772700801492" lon="-6.938197631388903">
        <ele>1169.5799999999999</ele>
        <time>2019-03-15T15:51:14Z</time>
      </trkpt>
      <trkpt lat="30.893812095746398" lon="-6.938079195097089">
        <ele>1168.6199999999999</ele>
        <time>2019-03-15T15:51:25Z</time>
      </trkpt>
      <trkpt lat="30.893866829574108" lon="-6.937961932271719">
        <ele>1167.6600000000001</ele>
        <time>2019-03-15T15:51:40Z</time>
      </trkpt>
      <trkpt lat="30.893934220075607" lon="-6.937846513465047">
        <ele>1167.1800000000001</ele>
        <time>2019-03-15T15:51:48Z</time>
      </trkpt>
      <trkpt lat="30.894016195088625" lon="-6.9377367105335">
        <ele>1167.1800000000001</ele>
        <time>2019-03-15T15:51:57Z</time>
      </trkpt>
      <trkpt lat="30.894111581146717" lon="-6.937635205686092">
        <ele>1151.8</ele>
        <time>2019-03-15T15:52:08Z</time>
      </trkpt>
      <trkpt lat="30.894222976639867" lon="-6.937545100226998">
        <ele>1153.24</ele>
        <time>2019-03-15T15:52:17Z</time>
      </trkpt>
      <trkpt lat="30.894354740157723" lon="-6.937463041394949">
        <ele>1153.24</ele>
        <time>2019-03-15T15:52:24Z</time>
      </trkpt>
      <trkpt lat="30.894504189491272" lon="-6.937388358637691">
        <ele>1153.24</ele>
        <time>2019-03-15T15:52:25Z</time>
      </trkpt>
      <trkpt lat="30.89466487057507" lon="-6.937316609546542">
        <ele>1152.76</ele>
        <time>2019-03-15T15:52:33Z</time>
      </trkpt>
      <trkpt lat="30.89644149877131" lon="-6.936562573537231">
        <ele>1152.76</ele>
        <time>2019-03-15T15:52:36Z</time>
      </trkpt>
      <trkpt lat="30.899457223713398" lon="-6.935271844267845">
        <ele>1152.28</ele>
        <time>2019-03-15T15:52:37Z</time>
      </trkpt>
      <trkpt lat="30.900840992107987" lon="-6.934745041653514">
        <ele>1152.28</ele>
        <time>2019-03-15T15:52:38Z</time>
      </trkpt>
      <trkpt lat="30.900989435613155" lon="-6.934748562052846">
        <ele>1152.28</ele>
        <time>2019-03-15T15:52:39Z</time>
      </trkpt>
      <trkpt lat="30.901138549670577" lon="-6.934771863743663">
        <ele>1151.8</ele>
        <time>2019-03-15T15:52:40Z</time>
      </trkpt>
      <trkpt lat="30.901284478604794" lon="-6.934818299487233">
        <ele>1151.8</ele>
        <time>2019-03-15T15:52:41Z</time>
      </trkpt>
      <trkpt lat="30.901423785835505" lon="-6.934888875111938">
        <ele>1151.8</ele>
        <time>2019-03-15T15:52:42Z</time>
      </trkpt>
      <trkpt lat="30.901550436392426" lon="-6.934978226199746">
        <ele>1151.8</ele>
        <time>2019-03-15T15:52:43Z</time>
      </trkpt>
      <trkpt lat="30.90165613219142" lon="-6.935076378285885">
        <ele>1151.8</ele>
        <time>2019-03-15T15:52:44Z</time>
      </trkpt>
      <trkpt lat="30.901738358661532" lon="-6.935173105448484">
        <ele>1151.3199999999999</ele>
        <time>2019-03-15T15:52:45Z</time>
      </trkpt>
      <trkpt lat="30.901800384745002" lon="-6.9352603610605">
        <ele>1151.3199999999999</ele>
        <time>2019-03-15T15:52:46Z</time>
      </trkpt>
      <trkpt lat="30.901850173249841" lon="-6.935331942513585">
        <ele>1149.3900000000001</ele>
        <time>2019-03-15T15:52:47Z</time>
      </trkpt>
      <trkpt lat="30.901899626478553" lon="-6.935378210619092">
        <ele>1146.03</ele>
        <time>2019-03-15T15:52:59Z</time>
      </trkpt>
      <trkpt lat="30.901958048343658" lon="-6.935396566987038">
        <ele>1142.1800000000001</ele>
        <time>2019-03-15T15:53:00Z</time>
      </trkpt>
      <trkpt lat="30.902024433016777" lon="-6.935389442369342">
        <ele>1141.22</ele>
        <time>2019-03-15T15:53:09Z</time>
      </trkpt>
      <trkpt lat="30.902096852660179" lon="-6.935361614450812">
        <ele>1140.74</ele>
        <time>2019-03-15T15:53:16Z</time>
      </trkpt>
      <trkpt lat="30.90217606164515" lon="-6.935325153172016">
        <ele>1140.74</ele>
        <time>2019-03-15T15:53:18Z</time>
      </trkpt>
      <trkpt lat="30.902980053797364" lon="-6.934935478493571">
        <ele>1140.74</ele>
        <time>2019-03-15T15:53:19Z</time>
      </trkpt>
      <trkpt lat="30.904439091682434" lon="-6.934312786906958">
        <ele>1140.74</ele>
        <time>2019-03-15T15:53:28Z</time>
      </trkpt>
      <trkpt lat="30.906254025176167" lon="-6.933524804189801">
        <ele>1140.26</ele>
        <time>2019-03-15T15:53:29Z</time>
      </trkpt>
      <trkpt lat="30.906595168635249" lon="-6.933371918275952">
        <ele>1140.26</ele>
        <time>2019-03-15T15:53:30Z</time>
      </trkpt>
      <trkpt lat="30.906650070101023" lon="-6.933332271873951">
        <ele>1140.26</ele>
        <time>2019-03-15T15:53:31Z</time>
      </trkpt>
      <trkpt lat="30.906690219417214" lon="-6.93329120054841">
        <ele>1139.78</ele>
        <time>2019-03-15T15:53:32Z</time>
      </trkpt>
      <trkpt lat="30.906716035678983" lon="-6.933256331831217">
        <ele>1139.78</ele>
        <time>2019-03-15T15:53:33Z</time>
      </trkpt>
      <trkpt lat="30.906732799485326" lon="-6.933228671550751">
        <ele>1139.78</ele>
        <time>2019-03-15T15:53:37Z</time>
      </trkpt>
      <trkpt lat="30.906749563291669" lon="-6.933206291869283">
        <ele>1139.78</ele>
        <time>2019-03-15T15:53:38Z</time>
      </trkpt>
      <trkpt lat="30.906768841668963" lon="-6.933188857510686">
        <ele>1139.78</ele>
        <time>2019-03-15T15:53:39Z</time>
      </trkpt>
      <trkpt lat="30.906784683465958" lon="-6.933177709579468">
        <ele>1139.78</ele>
        <time>2019-03-15T15:53:40Z</time>
      </trkpt>
      <trkpt lat="30.906883841380477" lon="-6.933188606053591">
        <ele>1141.22</ele>
        <time>2019-03-15T15:53:41Z</time>
      </trkpt>
      <trkpt lat="30.906917536631227" lon="-6.933225821703672">
        <ele>1145.0699999999999</ele>
        <time>2019-03-15T15:53:42Z</time>
      </trkpt>
      <trkpt lat="30.906940922141075" lon="-6.933270581066608">
        <ele>1149.8699999999999</ele>
        <time>2019-03-15T15:53:43Z</time>
      </trkpt>
      <trkpt lat="30.906959110870957" lon="-6.933322297409177">
        <ele>1151.8</ele>
        <time>2019-03-15T15:53:57Z</time>
      </trkpt>
      <trkpt lat="30.90697729960084" lon="-6.933381892740727">
        <ele>1146.99</ele>
        <time>2019-03-15T15:53:58Z</time>
      </trkpt>
      <trkpt lat="30.907252058386803" lon="-6.934254029765725">
        <ele>1140.74</ele>
        <time>2019-03-15T15:53:59Z</time>
      </trkpt>
      <trkpt lat="30.907692862674594" lon="-6.935633942484856">
        <ele>1140.26</ele>
        <time>2019-03-15T15:54:00Z</time>
      </trkpt>
      <trkpt lat="30.908390572294593" lon="-6.937801837921143">
        <ele>1140.74</ele>
        <time>2019-03-15T15:54:01Z</time>
      </trkpt>
      <trkpt lat="30.909184673801064" lon="-6.940252371132374">
        <ele>1145.0699999999999</ele>
        <time>2019-03-15T15:54:02Z</time>
      </trkpt>
      <trkpt lat="30.909916497766972" lon="-6.942540127784014">
        <ele>1145.0699999999999</ele>
        <time>2019-03-15T15:54:03Z</time>
      </trkpt>
      <trkpt lat="30.910850577056408" lon="-6.945402296259999">
        <ele>1149.3900000000001</ele>
        <time>2019-03-15T15:54:10Z</time>
      </trkpt>
      <trkpt lat="30.911691449582577" lon="-6.947760628536344">
        <ele>1148.4300000000001</ele>
        <time>2019-03-15T15:54:11Z</time>
      </trkpt>
      <trkpt lat="30.912650506943464" lon="-6.950436467304826">
        <ele>1146.51</ele>
        <time>2019-03-15T15:54:12Z</time>
      </trkpt>
      <trkpt lat="30.913592549040914" lon="-6.95337968878448">
        <ele>1147.95</ele>
        <time>2019-03-15T15:54:13Z</time>
      </trkpt>
      <trkpt lat="30.914287660270929" lon="-6.955874981358647">
        <ele>1147.95</ele>
        <time>2019-03-15T15:54:14Z</time>
      </trkpt>
      <trkpt lat="30.914896270260215" lon="-6.958370609208942">
        <ele>1150.8399999999999</ele>
        <time>2019-03-15T15:54:15Z</time>
      </trkpt>
      <trkpt lat="30.915328273549676" lon="-6.961725717410445">
        <ele>1150.8399999999999</ele>
        <time>2019-03-15T15:54:16Z</time>
      </trkpt>
      <trkpt lat="30.916041238233447" lon="-6.963326158002019">
        <ele>1150.3499999999999</ele>
        <time>2019-03-15T15:54:17Z</time>
      </trkpt>
      <trkpt lat="30.917259631678462" lon="-6.964754685759544">
        <ele>1151.8</ele>
        <time>2019-03-15T15:54:18Z</time>
      </trkpt>
      <trkpt lat="30.91878991574049" lon="-6.966628124937415">
        <ele>1151.8</ele>
        <time>2019-03-15T15:54:19Z</time>
      </trkpt>
      <trkpt lat="30.919730281457305" lon="-6.967965960502625">
        <ele>1152.28</ele>
        <time>2019-03-15T15:54:20Z</time>
      </trkpt>
      <trkpt lat="30.920464536175132" lon="-6.96879199706018">
        <ele>1152.28</ele>
        <time>2019-03-15T15:54:22Z</time>
      </trkpt>
      <trkpt lat="30.920589175075293" lon="-6.96888335980475">
        <ele>1152.28</ele>
        <time>2019-03-15T15:54:23Z</time>
      </trkpt>
      <trkpt lat="30.921750068664551" lon="-6.969375628978014">
        <ele>1151.8</ele>
        <time>2019-03-15T15:54:29Z</time>
      </trkpt>
      <trkpt lat="30.922165643423796" lon="-6.969554834067822">
        <ele>1151.8</ele>
        <time>2019-03-15T15:54:30Z</time>
      </trkpt>
      <trkpt lat="30.922288941219449" lon="-6.969645861536264">
        <ele>1151.3199999999999</ele>
        <time>2019-03-15T15:54:31Z</time>
      </trkpt>
      <trkpt lat="30.922401510179043" lon="-6.969754826277494">
        <ele>1151.3199999999999</ele>
        <time>2019-03-15T15:54:32Z</time>
      </trkpt>
      <trkpt lat="30.922504272311926" lon="-6.969882231205702">
        <ele>1151.3199999999999</ele>
        <time>2019-03-15T15:54:33Z</time>
      </trkpt>
      <trkpt lat="30.922592198476195" lon="-6.97002581320703">
        <ele>1151.3199999999999</ele>
        <time>2019-03-15T15:54:34Z</time>
      </trkpt>
      <trkpt lat="30.922666294500232" lon="-6.970183309167624">
        <ele>1151.3199999999999</ele>
        <time>2019-03-15T15:54:35Z</time>
      </trkpt>
      <trkpt lat="30.922727482393384" lon="-6.970357317477465">
        <ele>1152.28</ele>
        <time>2019-03-15T15:54:36Z</time>
      </trkpt>
      <trkpt lat="30.922772828489542" lon="-6.970542138442397">
        <ele>1152.28</ele>
        <time>2019-03-15T15:54:37Z</time>
      </trkpt>
      <trkpt lat="30.922799399122596" lon="-6.970737855881453">
        <ele>1153.72</ele>
        <time>2019-03-15T15:54:38Z</time>
      </trkpt>
      <trkpt lat="30.922803590074182" lon="-6.970936171710491">
        <ele>1154.6800000000001</ele>
        <time>2019-03-15T15:54:39Z</time>
      </trkpt>
      <trkpt lat="30.922785149887204" lon="-6.971130548045039">
        <ele>1155.1600000000001</ele>
        <time>2019-03-15T15:54:40Z</time>
      </trkpt>
      <trkpt lat="30.922756483778358" lon="-6.971321571618319">
        <ele>1155.1600000000001</ele>
        <time>2019-03-15T15:54:54Z</time>
      </trkpt>
      <trkpt lat="30.922338142991066" lon="-6.973802698776126">
        <ele>1159.49</ele>
        <time>2019-03-15T15:54:56Z</time>
      </trkpt>
      <trkpt lat="30.922275111079216" lon="-6.974003445357084">
        <ele>1160.9300000000001</ele>
        <time>2019-03-15T15:54:57Z</time>
      </trkpt>
      <trkpt lat="30.921446643769741" lon="-6.975917452946305">
        <ele>1161.8900000000001</ele>
        <time>2019-03-15T15:54:58Z</time>
      </trkpt>
      <trkpt lat="30.921014472842216" lon="-6.977408174425364">
        <ele>1162.8499999999999</ele>
        <time>2019-03-15T15:55:11Z</time>
      </trkpt>
      <trkpt lat="30.921006174758077" lon="-6.977881584316492">
        <ele>1163.3299999999999</ele>
        <time>2019-03-15T15:55:18Z</time>
      </trkpt>
      <trkpt lat="30.921031404286623" lon="-6.978120049461722">
        <ele>1163.3299999999999</ele>
        <time>2019-03-15T15:55:19Z</time>
      </trkpt>
      <trkpt lat="30.921422084793448" lon="-6.98015995323658">
        <ele>1163.3299999999999</ele>
        <time>2019-03-15T15:55:20Z</time>
      </trkpt>
      <trkpt lat="30.921417307108641" lon="-6.980359861627221">
        <ele>1163.3299999999999</ele>
        <time>2019-03-15T15:55:21Z</time>
      </trkpt>
      <trkpt lat="30.921382438391447" lon="-6.980546023696661">
        <ele>1163.8099999999999</ele>
        <time>2019-03-15T15:55:22Z</time>
      </trkpt>
      <trkpt lat="30.921317981556058" lon="-6.980721205472946">
        <ele>1163.8099999999999</ele>
        <time>2019-03-15T15:55:23Z</time>
      </trkpt>
      <trkpt lat="30.921234413981438" lon="-6.980888172984123">
        <ele>1163.8099999999999</ele>
        <time>2019-03-15T15:55:24Z</time>
      </trkpt>
      <trkpt lat="30.921141458675265" lon="-6.981054386124015">
        <ele>1164.29</ele>
        <time>2019-03-15T15:55:25Z</time>
      </trkpt>
      <trkpt lat="30.920786485075951" lon="-6.981732985004783">
        <ele>1164.29</ele>
        <time>2019-03-15T15:55:26Z</time>
      </trkpt>
      <trkpt lat="30.920730410143733" lon="-6.981913112103939">
        <ele>1157.0799999999999</ele>
        <time>2019-03-15T15:55:27Z</time>
      </trkpt>
      <trkpt lat="30.920702330768108" lon="-6.98210371658206">
        <ele>1156.5999999999999</ele>
        <time>2019-03-15T15:55:28Z</time>
      </trkpt>
      <trkpt lat="30.920702163130045" lon="-6.982298931106925">
        <ele>1156.5999999999999</ele>
        <time>2019-03-15T15:55:29Z</time>
      </trkpt>
      <trkpt lat="30.920725297182798" lon="-6.982498085126281">
        <ele>1156.5999999999999</ele>
        <time>2019-03-15T15:55:30Z</time>
      </trkpt>
      <trkpt lat="30.920762345194817" lon="-6.982700759544969">
        <ele>1157.0799999999999</ele>
        <time>2019-03-15T15:55:44Z</time>
      </trkpt>
      <trkpt lat="30.920807104557753" lon="-6.98290603235364">
        <ele>1157.5599999999999</ele>
        <time>2019-03-15T15:55:57Z</time>
      </trkpt>
      <trkpt lat="30.921431137248874" lon="-6.985770715400577">
        <ele>1158.53</ele>
        <time>2019-03-15T15:56:08Z</time>
      </trkpt>
      <trkpt lat="30.921503808349371" lon="-6.985924020409584">
        <ele>1159.49</ele>
        <time>2019-03-15T15:56:21Z</time>
      </trkpt>
      <trkpt lat="30.921595338732004" lon="-6.986063746735454">
        <ele>1159.49</ele>
        <time>2019-03-15T15:56:26Z</time>
      </trkpt>
      <trkpt lat="30.92170363292098" lon="-6.986185954883695">
        <ele>1159.49</ele>
        <time>2019-03-15T15:56:27Z</time>
      </trkpt>
      <trkpt lat="30.921819638460875" lon="-6.98628343641758">
        <ele>1159.97</ele>
        <time>2019-03-15T15:56:28Z</time>
      </trkpt>
      <trkpt lat="30.921936901286244" lon="-6.986359125003219">
        <ele>1159.97</ele>
        <time>2019-03-15T15:56:29Z</time>
      </trkpt>
      <trkpt lat="30.922057265415788" lon="-6.986427269876003">
        <ele>1159.97</ele>
        <time>2019-03-15T15:56:30Z</time>
      </trkpt>
      <trkpt lat="30.922912806272507" lon="-6.987070580944419">
        <ele>1159.49</ele>
        <time>2019-03-15T15:56:31Z</time>
      </trkpt>
      <trkpt lat="30.923006935045123" lon="-6.987199829891324">
        <ele>1159.97</ele>
        <time>2019-03-15T15:56:32Z</time>
      </trkpt>
      <trkpt lat="30.923092849552631" lon="-6.987341148778796">
        <ele>1159.97</ele>
        <time>2019-03-15T15:56:33Z</time>
      </trkpt>
      <trkpt lat="30.923167113214731" lon="-6.987492023035884">
        <ele>1160.45</ele>
        <time>2019-03-15T15:56:39Z</time>
      </trkpt>
      <trkpt lat="30.923232743516564" lon="-6.987651698291302">
        <ele>1160.45</ele>
        <time>2019-03-15T15:56:40Z</time>
      </trkpt>
      <trkpt lat="30.923283454030752" lon="-6.987813049927354">
        <ele>1160.9300000000001</ele>
        <time>2019-03-15T15:56:41Z</time>
      </trkpt>
      <trkpt lat="30.923316059634089" lon="-6.987975742667913">
        <ele>1160.9300000000001</ele>
        <time>2019-03-15T15:56:42Z</time>
      </trkpt>
      <trkpt lat="30.923335002735257" lon="-6.988145057111979">
        <ele>1159.49</ele>
        <time>2019-03-15T15:56:43Z</time>
      </trkpt>
      <trkpt lat="30.923343384638429" lon="-6.988318227231503">
        <ele>1159.01</ele>
        <time>2019-03-15T15:56:44Z</time>
      </trkpt>
      <trkpt lat="30.923339780420065" lon="-6.988490307703614">
        <ele>1159.01</ele>
        <time>2019-03-15T15:56:45Z</time>
      </trkpt>
      <trkpt lat="30.923325531184673" lon="-6.988657945767045">
        <ele>1158.53</ele>
        <time>2019-03-15T15:56:46Z</time>
      </trkpt>
      <trkpt lat="30.923268953338265" lon="-6.988978972658515">
        <ele>1158.05</ele>
        <time>2019-03-15T15:56:47Z</time>
      </trkpt>
      <trkpt lat="30.923223020508885" lon="-6.989128589630127">
        <ele>1158.05</ele>
        <time>2019-03-15T15:56:48Z</time>
      </trkpt>
      <trkpt lat="30.92293007299304" lon="-6.989964265376329">
        <ele>1158.05</ele>
        <time>2019-03-15T15:56:49Z</time>
      </trkpt>
      <trkpt lat="30.922915739938617" lon="-6.990117654204369">
        <ele>1158.05</ele>
        <time>2019-03-15T15:56:50Z</time>
      </trkpt>
      <trkpt lat="30.922922194004059" lon="-6.990273138508201">
        <ele>1157.5599999999999</ele>
        <time>2019-03-15T15:56:51Z</time>
      </trkpt>
      <trkpt lat="30.922946333885193" lon="-6.990425605326891">
        <ele>1157.5599999999999</ele>
        <time>2019-03-15T15:56:52Z</time>
      </trkpt>
      <trkpt lat="30.922988662496209" lon="-6.990571534261107">
        <ele>1157.5599999999999</ele>
        <time>2019-03-15T15:56:53Z</time>
      </trkpt>
      <trkpt lat="30.923050604760647" lon="-6.990705728530884">
        <ele>1157.5599999999999</ele>
        <time>2019-03-15T15:57:07Z</time>
      </trkpt>
      <trkpt lat="30.923134004697204" lon="-6.990824081003666">
        <ele>1157.5599999999999</ele>
        <time>2019-03-15T15:57:23Z</time>
      </trkpt>
      <trkpt lat="30.923236599192023" lon="-6.990928268060088">
        <ele>1159.01</ele>
        <time>2019-03-15T15:57:35Z</time>
      </trkpt>
      <trkpt lat="30.923348246142268" lon="-6.991017870604992">
        <ele>1159.97</ele>
        <time>2019-03-15T15:57:43Z</time>
      </trkpt>
      <trkpt lat="30.923470370471478" lon="-6.991092637181282">
        <ele>1160.45</ele>
        <time>2019-03-15T15:57:44Z</time>
      </trkpt>
      <trkpt lat="30.923601379618049" lon="-6.991153070703149">
        <ele>1171.98</ele>
        <time>2019-03-15T15:57:45Z</time>
      </trkpt>
      <trkpt lat="30.923736495897174" lon="-6.991208391264081">
        <ele>1177.75</ele>
        <time>2019-03-15T15:57:46Z</time>
      </trkpt>
      <trkpt lat="30.925776483491063" lon="-6.992004001513124">
        <ele>1178.23</ele>
        <time>2019-03-15T15:57:47Z</time>
      </trkpt>
      <trkpt lat="30.92606708407402" lon="-6.992148002609611">
        <ele>1177.75</ele>
        <time>2019-03-15T15:57:48Z</time>
      </trkpt>
      <trkpt lat="30.926198428496718" lon="-6.992239281535149">
        <ele>1176.79</ele>
        <time>2019-03-15T15:57:49Z</time>
      </trkpt>
      <trkpt lat="30.926316110417247" lon="-6.992344809696078">
        <ele>1176.3099999999999</ele>
        <time>2019-03-15T15:57:50Z</time>
      </trkpt>
      <trkpt lat="30.927667943760753" lon="-6.993939718231559">
        <ele>1175.8299999999999</ele>
        <time>2019-03-15T15:57:51Z</time>
      </trkpt>
      <trkpt lat="30.928639238700271" lon="-6.994597781449556">
        <ele>1175.3499999999999</ele>
        <time>2019-03-15T15:57:57Z</time>
      </trkpt>
      <trkpt lat="30.928810816258192" lon="-6.994641786441207">
        <ele>1174.8699999999999</ele>
        <time>2019-03-15T15:58:00Z</time>
      </trkpt>
      <trkpt lat="30.928988428786397" lon="-6.994669111445546">
        <ele>1173.9100000000001</ele>
        <time>2019-03-15T15:58:01Z</time>
      </trkpt>
      <trkpt lat="30.929171908646822" lon="-6.994682857766748">
        <ele>1172.95</ele>
        <time>2019-03-15T15:58:02Z</time>
      </trkpt>
      <trkpt lat="30.929357316344976" lon="-6.994683276861906">
        <ele>1171.98</ele>
        <time>2019-03-15T15:58:03Z</time>
      </trkpt>
      <trkpt lat="30.929540460929275" lon="-6.994661567732692">
        <ele>1171.5</ele>
        <time>2019-03-15T15:58:04Z</time>
      </trkpt>
      <trkpt lat="30.92971958220005" lon="-6.994620664045215">
        <ele>1170.54</ele>
        <time>2019-03-15T15:58:05Z</time>
      </trkpt>
      <trkpt lat="30.929896272718906" lon="-6.994566097855568">
        <ele>1161.8900000000001</ele>
        <time>2019-03-15T15:58:06Z</time>
      </trkpt>
      <trkpt lat="30.93007086776197" lon="-6.994496695697308">
        <ele>1156.1199999999999</ele>
        <time>2019-03-15T15:58:21Z</time>
      </trkpt>
      <trkpt lat="30.930240852758288" lon="-6.994406087324023">
        <ele>1155.6400000000001</ele>
        <time>2019-03-15T15:58:35Z</time>
      </trkpt>
      <trkpt lat="30.930402791127563" lon="-6.994296032935381">
        <ele>1164.29</ele>
        <time>2019-03-15T15:58:52Z</time>
      </trkpt>
      <trkpt lat="30.930558610707521" lon="-6.994174495339394">
        <ele>1165.26</ele>
        <time>2019-03-15T15:59:02Z</time>
      </trkpt>
      <trkpt lat="30.930711664259434" lon="-6.994040636345744">
        <ele>1165.26</ele>
        <time>2019-03-15T15:59:17Z</time>
      </trkpt>
      <trkpt lat="30.932784089818597" lon="-6.992003079503775">
        <ele>1165.74</ele>
        <time>2019-03-15T15:59:35Z</time>
      </trkpt>
      <trkpt lat="30.93482818454504" lon="-6.990018747746944">
        <ele>1165.74</ele>
        <time>2019-03-15T15:59:49Z</time>
      </trkpt>
      <trkpt lat="30.936518395319581" lon="-6.988372374325991">
        <ele>1165.74</ele>
        <time>2019-03-15T16:00:03Z</time>
      </trkpt>
      <trkpt lat="30.938598364591599" lon="-6.986347725614905">
        <ele>1165.74</ele>
        <time>2019-03-15T16:00:21Z</time>
      </trkpt>
      <trkpt lat="30.939157605171204" lon="-6.985821258276701">
        <ele>1165.74</ele>
        <time>2019-03-15T16:00:35Z</time>
      </trkpt>
      <trkpt lat="30.939241088926792" lon="-6.985762752592564">
        <ele>1165.74</ele>
        <time>2019-03-15T16:00:49Z</time>
      </trkpt>
      <trkpt lat="30.939328512176871" lon="-6.985714808106422">
        <ele>1165.74</ele>
        <time>2019-03-15T16:01:02Z</time>
      </trkpt>
      <trkpt lat="30.939423479139805" lon="-6.985677676275373">
        <ele>1165.74</ele>
        <time>2019-03-15T16:01:12Z</time>
      </trkpt>
      <trkpt lat="30.939523978158832" lon="-6.985648758709431">
        <ele>1165.26</ele>
        <time>2019-03-15T16:01:22Z</time>
      </trkpt>
      <trkpt lat="30.939628416672349" lon="-6.985630737617612">
        <ele>1165.74</ele>
        <time>2019-03-15T16:01:31Z</time>
      </trkpt>
      <trkpt lat="30.939732436090708" lon="-6.985624535009265">
        <ele>1165.74</ele>
        <time>2019-03-15T16:01:48Z</time>
      </trkpt>
      <trkpt lat="30.939835114404559" lon="-6.985627133399248">
        <ele>1166.22</ele>
        <time>2019-03-15T16:02:04Z</time>
      </trkpt>
      <trkpt lat="30.940309027209878" lon="-6.985534178093076">
        <ele>1166.22</ele>
        <time>2019-03-15T16:02:17Z</time>
      </trkpt>
      <trkpt lat="30.940366107970476" lon="-6.985498974099755">
        <ele>1166.22</ele>
        <time>2019-03-15T16:02:20Z</time>
      </trkpt>
      <trkpt lat="30.940415477380157" lon="-6.985457986593247">
        <ele>1165.74</ele>
        <time>2019-03-15T16:02:21Z</time>
      </trkpt>
      <trkpt lat="30.940463338047266" lon="-6.985420938581228">
        <ele>1165.74</ele>
        <time>2019-03-15T16:02:22Z</time>
      </trkpt>
      <trkpt lat="30.940518574789166" lon="-6.985401073470712">
        <ele>1166.22</ele>
        <time>2019-03-15T16:02:23Z</time>
      </trkpt>
      <trkpt lat="30.940577164292336" lon="-6.985407276079059">
        <ele>1166.22</ele>
        <time>2019-03-15T16:02:24Z</time>
      </trkpt>
      <trkpt lat="30.940631562843919" lon="-6.98543862439692">
        <ele>1166.22</ele>
        <time>2019-03-15T16:02:37Z</time>
      </trkpt>
      <trkpt lat="30.940671963617206" lon="-6.985491095110774">
        <ele>1166.22</ele>
        <time>2019-03-15T16:02:38Z</time>
      </trkpt>
      <trkpt lat="30.940690152347088" lon="-6.985561335459352">
        <ele>1166.22</ele>
        <time>2019-03-15T16:02:39Z</time>
      </trkpt>
      <trkpt lat="30.940685290843248" lon="-6.985633252188563">
        <ele>1167.1800000000001</ele>
        <time>2019-03-15T16:02:40Z</time>
      </trkpt>
      <trkpt lat="30.940666515380144" lon="-6.985699385404587">
        <ele>1167.6600000000001</ele>
        <time>2019-03-15T16:02:41Z</time>
      </trkpt>
      <trkpt lat="30.940644470974803" lon="-6.985765183344483">
        <ele>1168.1400000000001</ele>
        <time>2019-03-15T16:02:42Z</time>
      </trkpt>
      <trkpt lat="30.94062527641654" lon="-6.985833244398236">
        <ele>1169.0999999999999</ele>
        <time>2019-03-15T16:02:54Z</time>
      </trkpt>
      <trkpt lat="30.940613709390163" lon="-6.985905412584543">
        <ele>1169.5799999999999</ele>
        <time>2019-03-15T16:03:04Z</time>
      </trkpt>
      <trkpt lat="30.940609434619546" lon="-6.985977161675692">
        <ele>1169.5799999999999</ele>
        <time>2019-03-15T16:03:12Z</time>
      </trkpt>
      <trkpt lat="30.940657965838909" lon="-6.986677888780832">
        <ele>1169.5799999999999</ele>
        <time>2019-03-15T16:03:23Z</time>
      </trkpt>
      <trkpt lat="30.940718902274966" lon="-6.987195638939738">
        <ele>1169.5799999999999</ele>
        <time>2019-03-15T16:03:34Z</time>
      </trkpt>
      <trkpt lat="30.940807415172458" lon="-6.987968869507313">
        <ele>1170.0599999999999</ele>
        <time>2019-03-15T16:03:45Z</time>
      </trkpt>
      <trkpt lat="30.940941693261266" lon="-6.988794403150678">
        <ele>1169.5799999999999</ele>
        <time>2019-03-15T16:03:54Z</time>
      </trkpt>
      <trkpt lat="30.940988212823868" lon="-6.988905714824796">
        <ele>1169.5799999999999</ele>
        <time>2019-03-15T16:03:55Z</time>
      </trkpt>
      <trkpt lat="30.941046215593815" lon="-6.989009315147996">
        <ele>1169.0999999999999</ele>
        <time>2019-03-15T16:03:56Z</time>
      </trkpt>
      <trkpt lat="30.94111586920917" lon="-6.989103863015771">
        <ele>1165.74</ele>
        <time>2019-03-15T16:03:57Z</time>
      </trkpt>
      <trkpt lat="30.941196670755744" lon="-6.989191118627787">
        <ele>1163.3299999999999</ele>
        <time>2019-03-15T16:03:58Z</time>
      </trkpt>
      <trkpt lat="30.941292056813836" lon="-6.989269992336631">
        <ele>1162.8499999999999</ele>
        <time>2019-03-15T16:03:59Z</time>
      </trkpt>
      <trkpt lat="30.941397501155734" lon="-6.989341489970684">
        <ele>1162.3699999999999</ele>
        <time>2019-03-15T16:04:00Z</time>
      </trkpt>
      <trkpt lat="30.941509902477264" lon="-6.989407874643803">
        <ele>1161.8900000000001</ele>
        <time>2019-03-15T16:04:04Z</time>
      </trkpt>
      <trkpt lat="30.941627752035856" lon="-6.989471912384033">
        <ele>1161.4100000000001</ele>
        <time>2019-03-15T16:04:05Z</time>
      </trkpt>
      <trkpt lat="30.942347254604101" lon="-6.989940879866481">
        <ele>1160.9300000000001</ele>
        <time>2019-03-15T16:04:06Z</time>
      </trkpt>
      <trkpt lat="30.942667946219444" lon="-6.990303732454777">
        <ele>1160.45</ele>
        <time>2019-03-15T16:04:07Z</time>
      </trkpt>
      <trkpt lat="30.942759560421109" lon="-6.990452678874135">
        <ele>1161.8900000000001</ele>
        <time>2019-03-15T16:04:08Z</time>
      </trkpt>
      <trkpt lat="30.942839691415429" lon="-6.990615958347917">
        <ele>1166.22</ele>
        <time>2019-03-15T16:04:09Z</time>
      </trkpt>
      <trkpt lat="30.942906746640801" lon="-6.990792145952582">
        <ele>1170.54</ele>
        <time>2019-03-15T16:04:10Z</time>
      </trkpt>
      <trkpt lat="30.942959217354655" lon="-6.990977637469769">
        <ele>1167.1800000000001</ele>
        <time>2019-03-15T16:04:11Z</time>
      </trkpt>
      <trkpt lat="30.94299903139472" lon="-6.991167319938541">
        <ele>1168.1400000000001</ele>
        <time>2019-03-15T16:04:12Z</time>
      </trkpt>
      <trkpt lat="30.943030128255486" lon="-6.991361193358898">
        <ele>1173.4300000000001</ele>
        <time>2019-03-15T16:04:24Z</time>
      </trkpt>
      <trkpt lat="30.943414270877838" lon="-6.994488397613168">
        <ele>1184.96</ele>
        <time>2019-03-15T16:04:37Z</time>
      </trkpt>
      <trkpt lat="30.943757509812713" lon="-6.997705707326531">
        <ele>1193.6099999999999</ele>
        <time>2019-03-15T16:04:43Z</time>
      </trkpt>
      <trkpt lat="30.943943839520216" lon="-7.00164738111198">
        <ele>1197.9400000000001</ele>
        <time>2019-03-15T16:04:44Z</time>
      </trkpt>
      <trkpt lat="30.944230416789651" lon="-7.003963887691498">
        <ele>1197.46</ele>
        <time>2019-03-15T16:04:45Z</time>
      </trkpt>
      <trkpt lat="30.945371612906456" lon="-7.007268620654941">
        <ele>1202.27</ele>
        <time>2019-03-15T16:04:46Z</time>
      </trkpt>
      <trkpt lat="30.946614230051637" lon="-7.011125301942229">
        <ele>1210.4400000000001</ele>
        <time>2019-03-15T16:04:47Z</time>
      </trkpt>
      <trkpt lat="30.946839535608888" lon="-7.014405056834221">
        <ele>1213.8</ele>
        <time>2019-03-15T16:04:48Z</time>
      </trkpt>
      <trkpt lat="30.94705075956881" lon="-7.017724122852087">
        <ele>1211.4000000000001</ele>
        <time>2019-03-15T16:04:49Z</time>
      </trkpt>
      <trkpt lat="30.947327194735408" lon="-7.022106600925326">
        <ele>1209</ele>
        <time>2019-03-15T16:04:50Z</time>
      </trkpt>
      <trkpt lat="30.947572868317366" lon="-7.025873847305775">
        <ele>1206.1099999999999</ele>
        <time>2019-03-15T16:04:51Z</time>
      </trkpt>
      <trkpt lat="30.947819044813514" lon="-7.02974553219974">
        <ele>1217.6500000000001</ele>
        <time>2019-03-15T16:04:52Z</time>
      </trkpt>
      <trkpt lat="30.948042003437877" lon="-7.033143471926451">
        <ele>1212.3599999999999</ele>
        <time>2019-03-15T16:04:53Z</time>
      </trkpt>
      <trkpt lat="30.94841156154871" lon="-7.035201480612159">
        <ele>1213.3199999999999</ele>
        <time>2019-03-15T16:04:54Z</time>
      </trkpt>
      <trkpt lat="30.94930968247354" lon="-7.037046421319246">
        <ele>1213.3199999999999</ele>
        <time>2019-03-15T16:04:55Z</time>
      </trkpt>
      <trkpt lat="30.950384326279163" lon="-7.03856572508812">
        <ele>1213.3199999999999</ele>
        <time>2019-03-15T16:04:56Z</time>
      </trkpt>
      <trkpt lat="30.952654983848333" lon="-7.041142405942082">
        <ele>1213.3199999999999</ele>
        <time>2019-03-15T16:05:11Z</time>
      </trkpt>
      <trkpt lat="30.954812150448561" lon="-7.043358916416764">
        <ele>1213.3199999999999</ele>
        <time>2019-03-15T16:05:24Z</time>
      </trkpt>
      <trkpt lat="30.956925647333264" lon="-7.044727262109518">
        <ele>1215.72</ele>
        <time>2019-03-15T16:05:38Z</time>
      </trkpt>
      <trkpt lat="30.957391010597348" lon="-7.044993974268436">
        <ele>1216.21</ele>
        <time>2019-03-15T16:05:39Z</time>
      </trkpt>
      <trkpt lat="30.957556888461113" lon="-7.045055832713842">
        <ele>1216.6900000000001</ele>
        <time>2019-03-15T16:05:40Z</time>
      </trkpt>
      <trkpt lat="30.95772385597229" lon="-7.045103190466762">
        <ele>1216.6900000000001</ele>
        <time>2019-03-15T16:05:41Z</time>
      </trkpt>
      <trkpt lat="30.957895265892148" lon="-7.045138897374272">
        <ele>1217.6500000000001</ele>
        <time>2019-03-15T16:05:42Z</time>
      </trkpt>
      <trkpt lat="30.958072543144226" lon="-7.045163791626692">
        <ele>1218.1300000000001</ele>
        <time>2019-03-15T16:05:43Z</time>
      </trkpt>
      <trkpt lat="30.960391145199537" lon="-7.045519687235355">
        <ele>1226.78</ele>
        <time>2019-03-15T16:05:44Z</time>
      </trkpt>
      <trkpt lat="30.960555430501699" lon="-7.045598141849041">
        <ele>1224.3800000000001</ele>
        <time>2019-03-15T16:05:45Z</time>
      </trkpt>
      <trkpt lat="30.960713345557451" lon="-7.045700820162892">
        <ele>1216.6900000000001</ele>
        <time>2019-03-15T16:05:46Z</time>
      </trkpt>
      <trkpt lat="30.960861453786492" lon="-7.045827386900783">
        <ele>1216.6900000000001</ele>
        <time>2019-03-15T16:05:52Z</time>
      </trkpt>
      <trkpt lat="30.961004113778472" lon="-7.04597189091146">
        <ele>1222.45</ele>
        <time>2019-03-15T16:05:53Z</time>
      </trkpt>
      <trkpt lat="30.961143923923373" lon="-7.046123184263706">
        <ele>1232.0699999999999</ele>
        <time>2019-03-15T16:05:54Z</time>
      </trkpt>
      <trkpt lat="30.962655935436487" lon="-7.047805180773139">
        <ele>1235.4300000000001</ele>
        <time>2019-03-15T16:05:55Z</time>
      </trkpt>
      <trkpt lat="30.963910790160298" lon="-7.049443842843175">
        <ele>1235.9100000000001</ele>
        <time>2019-03-15T16:05:56Z</time>
      </trkpt>
      <trkpt lat="30.965163465589285" lon="-7.051040846854448">
        <ele>1236.8699999999999</ele>
        <time>2019-03-15T16:05:57Z</time>
      </trkpt>
      <trkpt lat="30.966978315263987" lon="-7.053362131118774">
        <ele>1237.3499999999999</ele>
        <time>2019-03-15T16:05:58Z</time>
      </trkpt>
      <trkpt lat="30.968578336760402" lon="-7.055419469252229">
        <ele>1237.8299999999999</ele>
        <time>2019-03-15T16:05:59Z</time>
      </trkpt>
      <trkpt lat="30.969957998022437" lon="-7.057195426896215">
        <ele>1238.8</ele>
        <time>2019-03-15T16:06:00Z</time>
      </trkpt>
      <trkpt lat="30.970993414521217" lon="-7.05856679007411">
        <ele>1239.28</ele>
        <time>2019-03-15T16:06:13Z</time>
      </trkpt>
      <trkpt lat="30.971081675961614" lon="-7.058737277984619">
        <ele>1241.6800000000001</ele>
        <time>2019-03-15T16:06:19Z</time>
      </trkpt>
      <trkpt lat="30.97114697098732" lon="-7.058921176940203">
        <ele>1242.6400000000001</ele>
        <time>2019-03-15T16:06:20Z</time>
      </trkpt>
      <trkpt lat="30.971186198294163" lon="-7.059114212170243">
        <ele>1243.1199999999999</ele>
        <time>2019-03-15T16:06:21Z</time>
      </trkpt>
      <trkpt lat="30.97120413556695" lon="-7.059308756142855">
        <ele>1243.5999999999999</ele>
        <time>2019-03-15T16:06:22Z</time>
      </trkpt>
      <trkpt lat="30.971203548833728" lon="-7.059500450268388">
        <ele>1244.0799999999999</ele>
        <time>2019-03-15T16:06:23Z</time>
      </trkpt>
      <trkpt lat="30.97119583748281" lon="-7.059690216556191">
        <ele>1244.5599999999999</ele>
        <time>2019-03-15T16:06:24Z</time>
      </trkpt>
      <trkpt lat="30.97118359990418" lon="-7.060379292815924">
        <ele>1245.04</ele>
        <time>2019-03-15T16:06:25Z</time>
      </trkpt>
      <trkpt lat="30.971204889938235" lon="-7.060541650280356">
        <ele>1245.53</ele>
        <time>2019-03-15T16:06:26Z</time>
      </trkpt>
      <trkpt lat="30.971240596845746" lon="-7.060697888955474">
        <ele>1245.53</ele>
        <time>2019-03-15T16:06:27Z</time>
      </trkpt>
      <trkpt lat="30.971296755596995" lon="-7.060846500098705">
        <ele>1243.1199999999999</ele>
        <time>2019-03-15T16:06:28Z</time>
      </trkpt>
      <trkpt lat="30.9713742043823" lon="-7.06098597496748">
        <ele>1239.76</ele>
        <time>2019-03-15T16:06:29Z</time>
      </trkpt>
      <trkpt lat="30.971472691744566" lon="-7.061111787334085">
        <ele>1241.6800000000001</ele>
        <time>2019-03-15T16:06:30Z</time>
      </trkpt>
      <trkpt lat="30.971588110551238" lon="-7.0612249430269">
        <ele>1242.1600000000001</ele>
        <time>2019-03-15T16:06:31Z</time>
      </trkpt>
      <trkpt lat="30.971711911261082" lon="-7.06133340485394">
        <ele>1242.1600000000001</ele>
        <time>2019-03-15T16:06:32Z</time>
      </trkpt>
      <trkpt lat="30.971840908750892" lon="-7.061437088996172">
        <ele>1242.6400000000001</ele>
        <time>2019-03-15T16:06:33Z</time>
      </trkpt>
      <trkpt lat="30.973570514470339" lon="-7.062712730839849">
        <ele>1243.1199999999999</ele>
        <time>2019-03-15T16:06:34Z</time>
      </trkpt>
      <trkpt lat="30.97526608966291" lon="-7.063995497301221">
        <ele>1243.1199999999999</ele>
        <time>2019-03-15T16:06:35Z</time>
      </trkpt>
      <trkpt lat="30.976042756810784" lon="-7.06459891051054">
        <ele>1243.5999999999999</ele>
        <time>2019-03-15T16:06:36Z</time>
      </trkpt>
      <trkpt lat="30.976151134818792" lon="-7.064723884686828">
        <ele>1244.0799999999999</ele>
        <time>2019-03-15T16:06:37Z</time>
      </trkpt>
      <trkpt lat="30.976242665201426" lon="-7.064865035936236">
        <ele>1244.0799999999999</ele>
        <time>2019-03-15T16:06:38Z</time>
      </trkpt>
      <trkpt lat="30.976314162835479" lon="-7.065018257126212">
        <ele>1244.5599999999999</ele>
        <time>2019-03-15T16:06:39Z</time>
      </trkpt>
      <trkpt lat="30.97636554390192" lon="-7.065180027857423">
        <ele>1244.5599999999999</ele>
        <time>2019-03-15T16:06:40Z</time>
      </trkpt>
      <trkpt lat="30.976399071514606" lon="-7.065344145521522">
        <ele>1245.04</ele>
        <time>2019-03-15T16:06:41Z</time>
      </trkpt>
      <trkpt lat="30.976415751501918" lon="-7.065509771928191">
        <ele>1245.04</ele>
        <time>2019-03-15T16:06:42Z</time>
      </trkpt>
      <trkpt lat="30.976413488388062" lon="-7.065672548487783">
        <ele>1244.5599999999999</ele>
        <time>2019-03-15T16:06:43Z</time>
      </trkpt>
      <trkpt lat="30.976387253031135" lon="-7.06583172082901">
        <ele>1248.8900000000001</ele>
        <time>2019-03-15T16:06:44Z</time>
      </trkpt>
      <trkpt lat="30.976340482011437" lon="-7.065984439104796">
        <ele>1251.77</ele>
        <time>2019-03-15T16:06:51Z</time>
      </trkpt>
      <trkpt lat="30.976273342967033" lon="-7.066131373867393">
        <ele>1259.9400000000001</ele>
        <time>2019-03-15T16:06:52Z</time>
      </trkpt>
      <trkpt lat="30.976187931373715" lon="-7.066270932555199">
        <ele>1260.4300000000001</ele>
        <time>2019-03-15T16:07:01Z</time>
      </trkpt>
      <trkpt lat="30.976088605821133" lon="-7.066401271149516">
        <ele>1260.4300000000001</ele>
        <time>2019-03-15T16:07:08Z</time>
      </trkpt>
      <trkpt lat="30.975984754040837" lon="-7.066526664420962">
        <ele>1260.9100000000001</ele>
        <time>2019-03-15T16:07:09Z</time>
      </trkpt>
      <trkpt lat="30.974441226571798" lon="-7.06839406862855">
        <ele>1261.3900000000001</ele>
        <time>2019-03-15T16:07:10Z</time>
      </trkpt>
      <trkpt lat="30.972946062684059" lon="-7.070205649361014">
        <ele>1261.3900000000001</ele>
        <time>2019-03-15T16:07:13Z</time>
      </trkpt>
      <trkpt lat="30.971377221867442" lon="-7.072174977511168">
        <ele>1261.8699999999999</ele>
        <time>2019-03-15T16:07:14Z</time>
      </trkpt>
      <trkpt lat="30.971302287653089" lon="-7.072297856211662">
        <ele>1261.8699999999999</ele>
        <time>2019-03-15T16:07:15Z</time>
      </trkpt>
      <trkpt lat="30.971246799454093" lon="-7.072419142350555">
        <ele>1262.3499999999999</ele>
        <time>2019-03-15T16:07:28Z</time>
      </trkpt>
      <trkpt lat="30.971215199679136" lon="-7.0725410990417">
        <ele>1263.79</ele>
        <time>2019-03-15T16:07:36Z</time>
      </trkpt>
      <trkpt lat="30.971211511641741" lon="-7.072662133723497">
        <ele>1263.79</ele>
        <time>2019-03-15T16:07:40Z</time>
      </trkpt>
      <trkpt lat="30.971233136951923" lon="-7.072779480367899">
        <ele>1264.27</ele>
        <time>2019-03-15T16:07:47Z</time>
      </trkpt>
      <trkpt lat="30.971276136115193" lon="-7.072892971336842">
        <ele>1264.27</ele>
        <time>2019-03-15T16:07:50Z</time>
      </trkpt>
      <trkpt lat="30.971333300694823" lon="-7.07300235517323">
        <ele>1264.75</ele>
        <time>2019-03-15T16:07:51Z</time>
      </trkpt>
      <trkpt lat="30.971396500244737" lon="-7.073106039315462">
        <ele>1265.23</ele>
        <time>2019-03-15T16:07:58Z</time>
      </trkpt>
      <trkpt lat="30.971738314256072" lon="-7.073687156662345">
        <ele>1265.23</ele>
        <time>2019-03-15T16:07:59Z</time>
      </trkpt>
      <trkpt lat="30.971775529906154" lon="-7.073796037584543">
        <ele>1265.23</ele>
        <time>2019-03-15T16:08:00Z</time>
      </trkpt>
      <trkpt lat="30.971788354218006" lon="-7.073912713676691">
        <ele>1265.23</ele>
        <time>2019-03-15T16:08:01Z</time>
      </trkpt>
      <trkpt lat="30.97177536226809" lon="-7.074032742530108">
        <ele>1271.96</ele>
        <time>2019-03-15T16:08:02Z</time>
      </trkpt>
      <trkpt lat="30.971731692552567" lon="-7.074146149680018">
        <ele>1276.77</ele>
        <time>2019-03-15T16:08:03Z</time>
      </trkpt>
      <trkpt lat="30.971659608185291" lon="-7.074242793023586">
        <ele>1277.25</ele>
        <time>2019-03-15T16:08:04Z</time>
      </trkpt>
      <trkpt lat="30.971570676192641" lon="-7.074319822713733">
        <ele>1277.73</ele>
        <time>2019-03-15T16:08:07Z</time>
      </trkpt>
      <trkpt lat="30.971472105011344" lon="-7.074378496035934">
        <ele>1278.21</ele>
        <time>2019-03-15T16:08:08Z</time>
      </trkpt>
      <trkpt lat="30.971370767802" lon="-7.07442719489336">
        <ele>1278.21</ele>
        <time>2019-03-15T16:08:09Z</time>
      </trkpt>
      <trkpt lat="30.969916507601738" lon="-7.075096070766449">
        <ele>1278.21</ele>
        <time>2019-03-15T16:08:10Z</time>
      </trkpt>
      <trkpt lat="30.969210416078568" lon="-7.075166646391153">
        <ele>1278.21</ele>
        <time>2019-03-15T16:08:11Z</time>
      </trkpt>
      <trkpt lat="30.969109581783414" lon="-7.075202101841569">
        <ele>1278.21</ele>
        <time>2019-03-15T16:08:12Z</time>
      </trkpt>
      <trkpt lat="30.969021823257208" lon="-7.075258763507009">
        <ele>1277.73</ele>
        <time>2019-03-15T16:08:13Z</time>
      </trkpt>
      <trkpt lat="30.968950828537345" lon="-7.075341828167439">
        <ele>1277.25</ele>
        <time>2019-03-15T16:08:14Z</time>
      </trkpt>
      <trkpt lat="30.96889877691865" lon="-7.07544794306159">
        <ele>1276.77</ele>
        <time>2019-03-15T16:08:15Z</time>
      </trkpt>
      <trkpt lat="30.968871116638184" lon="-7.075571324676275">
        <ele>1276.29</ele>
        <time>2019-03-15T16:08:17Z</time>
      </trkpt>
      <trkpt lat="30.968867596238852" lon="-7.075703088194132">
        <ele>1275.8099999999999</ele>
        <time>2019-03-15T16:08:18Z</time>
      </trkpt>
      <trkpt lat="30.968887628987432" lon="-7.075833594426513">
        <ele>1274.8499999999999</ele>
        <time>2019-03-15T16:08:19Z</time>
      </trkpt>
      <trkpt lat="30.968927945941687" lon="-7.075956640765071">
        <ele>1273.8800000000001</ele>
        <time>2019-03-15T16:08:28Z</time>
      </trkpt>
      <trkpt lat="30.968984104692936" lon="-7.076064180582762">
        <ele>1273.4000000000001</ele>
        <time>2019-03-15T16:08:37Z</time>
      </trkpt>
      <trkpt lat="30.969039089977741" lon="-7.076163003221154">
        <ele>1272.9200000000001</ele>
        <time>2019-03-15T16:08:38Z</time>
      </trkpt>
      <trkpt lat="30.96907664090395" lon="-7.076270459219813">
        <ele>1272.4400000000001</ele>
        <time>2019-03-15T16:08:39Z</time>
      </trkpt>
      <trkpt lat="30.969082592055202" lon="-7.076386380940676">
        <ele>1271.96</ele>
        <time>2019-03-15T16:08:40Z</time>
      </trkpt>
      <trkpt lat="30.969054428860545" lon="-7.076499117538333">
        <ele>1271</ele>
        <time>2019-03-15T16:08:41Z</time>
      </trkpt>
      <trkpt lat="30.96899357624352" lon="-7.076596934348345">
        <ele>1271</ele>
        <time>2019-03-15T16:08:42Z</time>
      </trkpt>
      <trkpt lat="30.968909002840519" lon="-7.076672874391079">
        <ele>1270.04</ele>
        <time>2019-03-15T16:08:43Z</time>
      </trkpt>
      <trkpt lat="30.968812443315983" lon="-7.076725848019123">
        <ele>1269.5599999999999</ele>
        <time>2019-03-15T16:08:44Z</time>
      </trkpt>
      <trkpt lat="30.968712111935019" lon="-7.076777396723628">
        <ele>1269.0799999999999</ele>
        <time>2019-03-15T16:08:45Z</time>
      </trkpt>
      <trkpt lat="30.968609852716327" lon="-7.076839506626129">
        <ele>1268.1199999999999</ele>
        <time>2019-03-15T16:08:46Z</time>
      </trkpt>
      <trkpt lat="30.96851178444922" lon="-7.076914273202419">
        <ele>1267.6400000000001</ele>
        <time>2019-03-15T16:08:57Z</time>
      </trkpt>
      <trkpt lat="30.968423774465919" lon="-7.07700664177537">
        <ele>1264.27</ele>
        <time>2019-03-15T16:09:10Z</time>
      </trkpt>
      <trkpt lat="30.968352695927024" lon="-7.077117534354329">
        <ele>1264.75</ele>
        <time>2019-03-15T16:09:22Z</time>
      </trkpt>
      <trkpt lat="30.968298716470599" lon="-7.07725340500474">
        <ele>1270.52</ele>
        <time>2019-03-15T16:09:33Z</time>
      </trkpt>
      <trkpt lat="30.968257142230868" lon="-7.07740637473762">
        <ele>1272.9200000000001</ele>
        <time>2019-03-15T16:09:37Z</time>
      </trkpt>
      <trkpt lat="30.968227554112673" lon="-7.077568313106895">
        <ele>1273.4000000000001</ele>
        <time>2019-03-15T16:09:38Z</time>
      </trkpt>
      <trkpt lat="30.968204000964761" lon="-7.077729497104883">
        <ele>1273.8800000000001</ele>
        <time>2019-03-15T16:09:39Z</time>
      </trkpt>
      <trkpt lat="30.968066789209843" lon="-7.078975550830364">
        <ele>1275.3299999999999</ele>
        <time>2019-03-15T16:09:40Z</time>
      </trkpt>
      <trkpt lat="30.968075003474951" lon="-7.079159701243043">
        <ele>1275.8099999999999</ele>
        <time>2019-03-15T16:09:41Z</time>
      </trkpt>
      <trkpt lat="30.968294106423855" lon="-7.080653104931116">
        <ele>1275.8099999999999</ele>
        <time>2019-03-15T16:09:42Z</time>
      </trkpt>
      <trkpt lat="30.968324868008494" lon="-7.081743841990829">
        <ele>1283.98</ele>
        <time>2019-03-15T16:09:43Z</time>
      </trkpt>
      <trkpt lat="30.968301482498646" lon="-7.081886334344745">
        <ele>1288.3</ele>
        <time>2019-03-15T16:09:44Z</time>
      </trkpt>
      <trkpt lat="30.968262758105993" lon="-7.082028910517693">
        <ele>1288.3</ele>
        <time>2019-03-15T16:09:45Z</time>
      </trkpt>
      <trkpt lat="30.968149099498987" lon="-7.082495531067252">
        <ele>1281.5699999999999</ele>
        <time>2019-03-15T16:09:46Z</time>
      </trkpt>
      <trkpt lat="30.968138035386801" lon="-7.08267280831933">
        <ele>1277.73</ele>
        <time>2019-03-15T16:09:53Z</time>
      </trkpt>
      <trkpt lat="30.96814189106226" lon="-7.082854360342026">
        <ele>1276.77</ele>
        <time>2019-03-15T16:09:54Z</time>
      </trkpt>
      <trkpt lat="30.968310115858912" lon="-7.08500406704843">
        <ele>1269.5599999999999</ele>
        <time>2019-03-15T16:10:03Z</time>
      </trkpt>
      <trkpt lat="30.968729462474585" lon="-7.086152723059058">
        <ele>1268.5999999999999</ele>
        <time>2019-03-15T16:10:15Z</time>
      </trkpt>
      <trkpt lat="30.969045208767056" lon="-7.086773486807942">
        <ele>1267.6400000000001</ele>
        <time>2019-03-15T16:10:20Z</time>
      </trkpt>
      <trkpt lat="30.969577627256513" lon="-7.088296227157116">
        <ele>1266.6700000000001</ele>
        <time>2019-03-15T16:10:21Z</time>
      </trkpt>
      <trkpt lat="30.969857918098569" lon="-7.088886313140392">
        <ele>1266.1900000000001</ele>
        <time>2019-03-15T16:10:22Z</time>
      </trkpt>
      <trkpt lat="30.969916004687548" lon="-7.089077504351735">
        <ele>1265.23</ele>
        <time>2019-03-15T16:10:23Z</time>
      </trkpt>
      <trkpt lat="30.970300398766994" lon="-7.090446269139648">
        <ele>1264.75</ele>
        <time>2019-03-15T16:10:24Z</time>
      </trkpt>
      <trkpt lat="30.970388492569327" lon="-7.090587252750993">
        <ele>1262.8299999999999</ele>
        <time>2019-03-15T16:10:25Z</time>
      </trkpt>
      <trkpt lat="30.97046828828752" lon="-7.090722369030118">
        <ele>1262.3499999999999</ele>
        <time>2019-03-15T16:10:26Z</time>
      </trkpt>
      <trkpt lat="30.970530649647117" lon="-7.090870896354318">
        <ele>1261.3900000000001</ele>
        <time>2019-03-15T16:10:27Z</time>
      </trkpt>
      <trkpt lat="30.970574151724577" lon="-7.091032331809402">
        <ele>1260.9100000000001</ele>
        <time>2019-03-15T16:10:28Z</time>
      </trkpt>
      <trkpt lat="30.970597872510552" lon="-7.09119888022542">
        <ele>1259.9400000000001</ele>
        <time>2019-03-15T16:10:39Z</time>
      </trkpt>
      <trkpt lat="30.97060851752758" lon="-7.091365847736597">
        <ele>1258.98</ele>
        <time>2019-03-15T16:10:41Z</time>
      </trkpt>
      <trkpt lat="30.970689486712217" lon="-7.091843532398343">
        <ele>1258.5</ele>
        <time>2019-03-15T16:10:42Z</time>
      </trkpt>
      <trkpt lat="30.970737850293517" lon="-7.091972110792995">
        <ele>1258.02</ele>
        <time>2019-03-15T16:10:52Z</time>
      </trkpt>
      <trkpt lat="30.970796439796686" lon="-7.092077890411019">
        <ele>1257.54</ele>
        <time>2019-03-15T16:10:53Z</time>
      </trkpt>
      <trkpt lat="30.970872882753611" lon="-7.092166068032384">
        <ele>1256.5799999999999</ele>
        <time>2019-03-15T16:10:54Z</time>
      </trkpt>
      <trkpt lat="30.970972627401352" lon="-7.092231949791312">
        <ele>1255.6199999999999</ele>
        <time>2019-03-15T16:10:55Z</time>
      </trkpt>
      <trkpt lat="30.971088632941246" lon="-7.092271260917187">
        <ele>1255.6199999999999</ele>
        <time>2019-03-15T16:11:02Z</time>
      </trkpt>
      <trkpt lat="30.97121637314558" lon="-7.092276373878121">
        <ele>1247.45</ele>
        <time>2019-03-15T16:11:14Z</time>
      </trkpt>
      <trkpt lat="30.971354423090816" lon="-7.092256424948573">
        <ele>1236.8699999999999</ele>
        <time>2019-03-15T16:11:19Z</time>
      </trkpt>
      <trkpt lat="30.971501609310508" lon="-7.092222226783633">
        <ele>1235.9100000000001</ele>
        <time>2019-03-15T16:11:20Z</time>
      </trkpt>
      <trkpt lat="30.971798244863749" lon="-7.092175288125873">
        <ele>1235.4300000000001</ele>
        <time>2019-03-15T16:11:21Z</time>
      </trkpt>
      <trkpt lat="30.971950376406312" lon="-7.092193560674787">
        <ele>1234.47</ele>
        <time>2019-03-15T16:11:22Z</time>
      </trkpt>
      <trkpt lat="30.97210175357759" lon="-7.092244019731879">
        <ele>1233.51</ele>
        <time>2019-03-15T16:11:23Z</time>
      </trkpt>
      <trkpt lat="30.973668247461319" lon="-7.092898646369577">
        <ele>1232.55</ele>
        <time>2019-03-15T16:11:24Z</time>
      </trkpt>
      <trkpt lat="30.975245302543044" lon="-7.093624770641327">
        <ele>1231.5899999999999</ele>
        <time>2019-03-15T16:11:25Z</time>
      </trkpt>
      <trkpt lat="30.975380335003138" lon="-7.093747984617949">
        <ele>1230.6199999999999</ele>
        <time>2019-03-15T16:11:35Z</time>
      </trkpt>
      <trkpt lat="30.975501285865903" lon="-7.093889303505421">
        <ele>1230.1400000000001</ele>
        <time>2019-03-15T16:11:46Z</time>
      </trkpt>
      <trkpt lat="30.975600946694613" lon="-7.094043027609587">
        <ele>1229.6600000000001</ele>
        <time>2019-03-15T16:11:54Z</time>
      </trkpt>
      <trkpt lat="30.975678730756044" lon="-7.094218712300062">
        <ele>1224.8599999999999</ele>
        <time>2019-03-15T16:12:02Z</time>
      </trkpt>
      <trkpt lat="30.975737320259213" lon="-7.094412166625261">
        <ele>1215.24</ele>
        <time>2019-03-15T16:12:03Z</time>
      </trkpt>
      <trkpt lat="30.975776296108961" lon="-7.094617355614901">
        <ele>1216.6900000000001</ele>
        <time>2019-03-15T16:12:04Z</time>
      </trkpt>
      <trkpt lat="30.975797921419144" lon="-7.094826484099031">
        <ele>1219.5699999999999</ele>
        <time>2019-03-15T16:12:05Z</time>
      </trkpt>
      <trkpt lat="30.975797167047858" lon="-7.09503997117281">
        <ele>1219.5699999999999</ele>
        <time>2019-03-15T16:12:06Z</time>
      </trkpt>
      <trkpt lat="30.975779313594103" lon="-7.095255805179477">
        <ele>1219.5699999999999</ele>
        <time>2019-03-15T16:12:07Z</time>
      </trkpt>
      <trkpt lat="30.975546129047871" lon="-7.097396878525615">
        <ele>1219.0899999999999</ele>
        <time>2019-03-15T16:12:16Z</time>
      </trkpt>
      <trkpt lat="30.975291403010488" lon="-7.099928464740515">
        <ele>1219.0899999999999</ele>
        <time>2019-03-15T16:12:26Z</time>
      </trkpt>
      <trkpt lat="30.975077832117677" lon="-7.102042967453599">
        <ele>1219.0899999999999</ele>
        <time>2019-03-15T16:12:35Z</time>
      </trkpt>
      <trkpt lat="30.974916899576783" lon="-7.103619016706944">
        <ele>1219.0899999999999</ele>
        <time>2019-03-15T16:12:41Z</time>
      </trkpt>
      <trkpt lat="30.974894603714347" lon="-7.103996872901917">
        <ele>1219.0899999999999</ele>
        <time>2019-03-15T16:12:49Z</time>
      </trkpt>
      <trkpt lat="30.974913379177451" lon="-7.104073818773031">
        <ele>1219.5699999999999</ele>
        <time>2019-03-15T16:12:55Z</time>
      </trkpt>
      <trkpt lat="30.974948415532708" lon="-7.10414364002645">
        <ele>1220.05</ele>
        <time>2019-03-15T16:13:06Z</time>
      </trkpt>
      <trkpt lat="30.974996192380786" lon="-7.104208348318934">
        <ele>1220.05</ele>
        <time>2019-03-15T16:13:13Z</time>
      </trkpt>
      <trkpt lat="30.975054865702987" lon="-7.104266937822104">
        <ele>1221.97</ele>
        <time>2019-03-15T16:13:27Z</time>
      </trkpt>
      <trkpt lat="30.975125692784786" lon="-7.104315385222435">
        <ele>1221.49</ele>
        <time>2019-03-15T16:13:34Z</time>
      </trkpt>
      <trkpt lat="30.975205656141043" lon="-7.10434639826417">
        <ele>1222.9300000000001</ele>
        <time>2019-03-15T16:13:41Z</time>
      </trkpt>
      <trkpt lat="30.975291319191456" lon="-7.104359809309244">
        <ele>1223.4200000000001</ele>
        <time>2019-03-15T16:13:49Z</time>
      </trkpt>
      <trkpt lat="30.975381173193455" lon="-7.104359809309244">
        <ele>1223.9000000000001</ele>
        <time>2019-03-15T16:14:02Z</time>
      </trkpt>
      <trkpt lat="30.975474463775754" lon="-7.104356456547976">
        <ele>1223.9000000000001</ele>
        <time>2019-03-15T16:14:09Z</time>
      </trkpt>
      <trkpt lat="30.976075530052185" lon="-7.104305075481534">
        <ele>1223.9000000000001</ele>
        <time>2019-03-15T16:14:19Z</time>
      </trkpt>
      <trkpt lat="30.976157253608108" lon="-7.104290574789047">
        <ele>1224.3800000000001</ele>
        <time>2019-03-15T16:14:29Z</time>
      </trkpt>
      <trkpt lat="30.977122848853469" lon="-7.104125954210758">
        <ele>1224.3800000000001</ele>
        <time>2019-03-15T16:14:42Z</time>
      </trkpt>
      <trkpt lat="30.978604769334197" lon="-7.103736363351345">
        <ele>1224.3800000000001</ele>
        <time>2019-03-15T16:14:54Z</time>
      </trkpt>
      <trkpt lat="30.979210194200277" lon="-7.103521870449185">
        <ele>1224.3800000000001</ele>
        <time>2019-03-15T16:15:06Z</time>
      </trkpt>
      <trkpt lat="30.979349752888083" lon="-7.103511141613126">
        <ele>1224.3800000000001</ele>
        <time>2019-03-15T16:15:15Z</time>
      </trkpt>
      <trkpt lat="30.979494005441666" lon="-7.103519523516297">
        <ele>1224.8599999999999</ele>
        <time>2019-03-15T16:15:27Z</time>
      </trkpt>
      <trkpt lat="30.979641024023294" lon="-7.103544166311622">
        <ele>1225.8199999999999</ele>
        <time>2019-03-15T16:15:34Z</time>
      </trkpt>
      <trkpt lat="30.979783600196242" lon="-7.103587919846177">
        <ele>1225.3399999999999</ele>
        <time>2019-03-15T16:15:41Z</time>
      </trkpt>
      <trkpt lat="30.979919554665685" lon="-7.10365598089993">
        <ele>1224.8599999999999</ele>
        <time>2019-03-15T16:15:57Z</time>
      </trkpt>
      <trkpt lat="30.980050228536129" lon="-7.103751115500927">
        <ele>1224.3800000000001</ele>
        <time>2019-03-15T16:16:12Z</time>
      </trkpt>
      <trkpt lat="30.980176711454988" lon="-7.103870306164026">
        <ele>1224.3800000000001</ele>
        <time>2019-03-15T16:16:20Z</time>
      </trkpt>
      <trkpt lat="30.980303781107068" lon="-7.104002824053168">
        <ele>1223.9000000000001</ele>
        <time>2019-03-15T16:16:29Z</time>
      </trkpt>
      <trkpt lat="30.981867844238877" lon="-7.105484157800674">
        <ele>1223.9000000000001</ele>
        <time>2019-03-15T16:16:48Z</time>
      </trkpt>
      <trkpt lat="30.982186608016491" lon="-7.105678198859096">
        <ele>1224.8599999999999</ele>
        <time>2019-03-15T16:17:01Z</time>
      </trkpt>
      <trkpt lat="30.982358101755381" lon="-7.10574827156961">
        <ele>1225.8199999999999</ele>
        <time>2019-03-15T16:17:15Z</time>
      </trkpt>
      <trkpt lat="30.984235312789679" lon="-7.106220088899136">
        <ele>1226.78</ele>
        <time>2019-03-15T16:17:30Z</time>
      </trkpt>
      <trkpt lat="30.984432371333241" lon="-7.106236852705479">
        <ele>1226.78</ele>
        <time>2019-03-15T16:17:46Z</time>
      </trkpt>
      <trkpt lat="30.984625238925219" lon="-7.106231823563576">
        <ele>1226.78</ele>
        <time>2019-03-15T16:18:03Z</time>
      </trkpt>
      <trkpt lat="30.984811736270785" lon="-7.106208940967917">
        <ele>1226.78</ele>
        <time>2019-03-15T16:18:18Z</time>
      </trkpt>
      <trkpt lat="30.98588646389544" lon="-7.105923620983958">
        <ele>1226.78</ele>
        <time>2019-03-15T16:18:27Z</time>
      </trkpt>
      <trkpt lat="30.987398056313396" lon="-7.105313586071134">
        <ele>1226.3</ele>
        <time>2019-03-15T16:18:28Z</time>
      </trkpt>
      <trkpt lat="30.987929301336408" lon="-7.104842942208052">
        <ele>1226.3</ele>
        <time>2019-03-15T16:18:38Z</time>
      </trkpt>
      <trkpt lat="30.988046564161777" lon="-7.104775467887521">
        <ele>1227.26</ele>
        <time>2019-03-15T16:18:47Z</time>
      </trkpt>
      <trkpt lat="30.988167682662606" lon="-7.104727607220411">
        <ele>1229.6600000000001</ele>
        <time>2019-03-15T16:18:48Z</time>
      </trkpt>
      <trkpt lat="30.988292740657926" lon="-7.104702545329928">
        <ele>1233.51</ele>
        <time>2019-03-15T16:18:49Z</time>
      </trkpt>
      <trkpt lat="30.988421989604831" lon="-7.104702880606055">
        <ele>1236.3900000000001</ele>
        <time>2019-03-15T16:18:50Z</time>
      </trkpt>
      <trkpt lat="30.988550148904324" lon="-7.104720147326589">
        <ele>1236.8699999999999</ele>
        <time>2019-03-15T16:18:51Z</time>
      </trkpt>
      <trkpt lat="30.988671602681279" lon="-7.104744287207723">
        <ele>1236.8699999999999</ele>
        <time>2019-03-15T16:18:52Z</time>
      </trkpt>
      <trkpt lat="30.989850014448166" lon="-7.105126669630408">
        <ele>1237.3499999999999</ele>
        <time>2019-03-15T16:18:53Z</time>
      </trkpt>
      <trkpt lat="30.990795828402042" lon="-7.105563282966614">
        <ele>1237.3499999999999</ele>
        <time>2019-03-15T16:18:54Z</time>
      </trkpt>
      <trkpt lat="30.991498148068786" lon="-7.106159403920174">
        <ele>1237.3499999999999</ele>
        <time>2019-03-15T16:19:02Z</time>
      </trkpt>
      <trkpt lat="30.992480590939522" lon="-7.106971442699432">
        <ele>1237.3499999999999</ele>
        <time>2019-03-15T16:19:16Z</time>
      </trkpt>
      <trkpt lat="30.992635656148195" lon="-7.107039000838995">
        <ele>1234.95</ele>
        <time>2019-03-15T16:19:25Z</time>
      </trkpt>
      <trkpt lat="30.992802623659372" lon="-7.107093902304769">
        <ele>1233.03</ele>
        <time>2019-03-15T16:19:32Z</time>
      </trkpt>
      <trkpt lat="30.992982499301434" lon="-7.107129357755184">
        <ele>1233.99</ele>
        <time>2019-03-15T16:19:39Z</time>
      </trkpt>
      <trkpt lat="30.993164470419288" lon="-7.107151234522462">
        <ele>1238.3199999999999</ele>
        <time>2019-03-15T16:19:40Z</time>
      </trkpt>
      <trkpt lat="30.993341496214271" lon="-7.107161125168204">
        <ele>1240.24</ele>
        <time>2019-03-15T16:19:41Z</time>
      </trkpt>
      <trkpt lat="30.994744207710028" lon="-7.107155928388238">
        <ele>1240.72</ele>
        <time>2019-03-15T16:19:42Z</time>
      </trkpt>
      <trkpt lat="30.996558973565698" lon="-7.107133297249675">
        <ele>1246.97</ele>
        <time>2019-03-15T16:19:43Z</time>
      </trkpt>
      <trkpt lat="30.998280365020037" lon="-7.106822831556201">
        <ele>1250.8099999999999</ele>
        <time>2019-03-15T16:19:52Z</time>
      </trkpt>
      <trkpt lat="30.999326007440686" lon="-7.105950443074107">
        <ele>1254.1800000000001</ele>
        <time>2019-03-15T16:19:59Z</time>
      </trkpt>
      <trkpt lat="31.000754367560148" lon="-7.104827268049121">
        <ele>1258.02</ele>
        <time>2019-03-15T16:20:08Z</time>
      </trkpt>
      <trkpt lat="31.002128412947059" lon="-7.104530213400722">
        <ele>1258.5</ele>
        <time>2019-03-15T16:20:20Z</time>
      </trkpt>
      <trkpt lat="31.004826044663787" lon="-7.104361737146974">
        <ele>1260.4300000000001</ele>
        <time>2019-03-15T16:20:29Z</time>
      </trkpt>
      <trkpt lat="31.006427155807614" lon="-7.103627482429147">
        <ele>1260.4300000000001</ele>
        <time>2019-03-15T16:20:30Z</time>
      </trkpt>
      <trkpt lat="31.00948822684586" lon="-7.102174647152424">
        <ele>1262.3499999999999</ele>
        <time>2019-03-15T16:20:31Z</time>
      </trkpt>
      <trkpt lat="31.010962184518576" lon="-7.102111028507352">
        <ele>1263.79</ele>
        <time>2019-03-15T16:20:32Z</time>
      </trkpt>
      <trkpt lat="31.012321226298809" lon="-7.102593658491969">
        <ele>1265.23</ele>
        <time>2019-03-15T16:20:33Z</time>
      </trkpt>
      <trkpt lat="31.013596365228295" lon="-7.103660590946674">
        <ele>1267.1600000000001</ele>
        <time>2019-03-15T16:20:34Z</time>
      </trkpt>
      <trkpt lat="31.015463266521692" lon="-7.10565053857863">
        <ele>1270.04</ele>
        <time>2019-03-15T16:20:35Z</time>
      </trkpt>
      <trkpt lat="31.016085958108306" lon="-7.107083089649677">
        <ele>1273.4000000000001</ele>
        <time>2019-03-15T16:20:43Z</time>
      </trkpt>
      <trkpt lat="31.017058342695236" lon="-7.109216032549739">
        <ele>1277.25</ele>
        <time>2019-03-15T16:20:44Z</time>
      </trkpt>
      <trkpt lat="31.018604887649417" lon="-7.111005820333958">
        <ele>1278.21</ele>
        <time>2019-03-15T16:20:45Z</time>
      </trkpt>
      <trkpt lat="31.02081561461091" lon="-7.113147396594286">
        <ele>1276.29</ele>
        <time>2019-03-15T16:20:46Z</time>
      </trkpt>
      <trkpt lat="31.023256592452526" lon="-7.114661503583193">
        <ele>1276.29</ele>
        <time>2019-03-15T16:20:47Z</time>
      </trkpt>
      <trkpt lat="31.025643171742558" lon="-7.116306116804481">
        <ele>1283.02</ele>
        <time>2019-03-15T16:20:48Z</time>
      </trkpt>
      <trkpt lat="31.027102209627628" lon="-7.117979312315583">
        <ele>1287.3399999999999</ele>
        <time>2019-03-15T16:20:49Z</time>
      </trkpt>
      <trkpt lat="31.028682114556432" lon="-7.120495056733489">
        <ele>1290.71</ele>
        <time>2019-03-15T16:20:57Z</time>
      </trkpt>
      <trkpt lat="31.02986354380846" lon="-7.121539944782853">
        <ele>1285.9000000000001</ele>
        <time>2019-03-15T16:20:59Z</time>
      </trkpt>
      <trkpt lat="31.031314535066485" lon="-7.122094323858619">
        <ele>1284.9400000000001</ele>
        <time>2019-03-15T16:21:00Z</time>
      </trkpt>
      <trkpt lat="31.034839376807213" lon="-7.123131835833192">
        <ele>1285.9000000000001</ele>
        <time>2019-03-15T16:21:09Z</time>
      </trkpt>
      <trkpt lat="31.037899861112237" lon="-7.124671507626772">
        <ele>1287.3399999999999</ele>
        <time>2019-03-15T16:21:19Z</time>
      </trkpt>
      <trkpt lat="31.039062850177288" lon="-7.125475583598018">
        <ele>1288.3</ele>
        <time>2019-03-15T16:21:20Z</time>
      </trkpt>
      <trkpt lat="31.039811940863729" lon="-7.126554250717163">
        <ele>1286.8599999999999</ele>
        <time>2019-03-15T16:21:21Z</time>
      </trkpt>
      <trkpt lat="31.041342560201883" lon="-7.128778556361795">
        <ele>1286.3800000000001</ele>
        <time>2019-03-15T16:21:29Z</time>
      </trkpt>
      <trkpt lat="31.042327182367444" lon="-7.129972474649549">
        <ele>1287.8199999999999</ele>
        <time>2019-03-15T16:21:30Z</time>
      </trkpt>
      <trkpt lat="31.043163444846869" lon="-7.130982661619782">
        <ele>1288.3</ele>
        <time>2019-03-15T16:21:31Z</time>
      </trkpt>
      <trkpt lat="31.044029630720615" lon="-7.13188748806715">
        <ele>1290.23</ele>
        <time>2019-03-15T16:21:32Z</time>
      </trkpt>
      <trkpt lat="31.044944180175662" lon="-7.132788458839059">
        <ele>1289.27</ele>
        <time>2019-03-15T16:21:33Z</time>
      </trkpt>
      <trkpt lat="31.046035336330533" lon="-7.133949184790254">
        <ele>1289.75</ele>
        <time>2019-03-15T16:21:50Z</time>
      </trkpt>
      <trkpt lat="31.047094222158194" lon="-7.135321386158466">
        <ele>1290.23</ele>
        <time>2019-03-15T16:21:51Z</time>
      </trkpt>
      <trkpt lat="31.047797547653317" lon="-7.136294357478619">
        <ele>1291.1900000000001</ele>
        <time>2019-03-15T16:21:52Z</time>
      </trkpt>
      <trkpt lat="31.047852365300059" lon="-7.136428970843554">
        <ele>1291.6700000000001</ele>
        <time>2019-03-15T16:21:53Z</time>
      </trkpt>
      <trkpt lat="31.048333067446947" lon="-7.138009462505579">
        <ele>1293.1099999999999</ele>
        <time>2019-03-15T16:21:54Z</time>
      </trkpt>
      <trkpt lat="31.049114428460598" lon="-7.139633540064097">
        <ele>1294.0699999999999</ele>
        <time>2019-03-15T16:21:55Z</time>
      </trkpt>
      <trkpt lat="31.049237307161093" lon="-7.139792963862419">
        <ele>1295.03</ele>
        <time>2019-03-15T16:21:56Z</time>
      </trkpt>
      <trkpt lat="31.049372423440218" lon="-7.139938976615667">
        <ele>1303.2</ele>
        <time>2019-03-15T16:21:57Z</time>
      </trkpt>
      <trkpt lat="31.049517765641212" lon="-7.140068896114826">
        <ele>1304.1700000000001</ele>
        <time>2019-03-15T16:22:05Z</time>
      </trkpt>
      <trkpt lat="31.049673333764076" lon="-7.140179956331849">
        <ele>1305.6099999999999</ele>
        <time>2019-03-15T16:22:07Z</time>
      </trkpt>
      <trkpt lat="31.049840971827507" lon="-7.140270564705133">
        <ele>1307.05</ele>
        <time>2019-03-15T16:22:08Z</time>
      </trkpt>
      <trkpt lat="31.050019674003124" lon="-7.140339883044362">
        <ele>1308.49</ele>
        <time>2019-03-15T16:22:09Z</time>
      </trkpt>
      <trkpt lat="31.050204830244184" lon="-7.140396209433675">
        <ele>1308.97</ele>
        <time>2019-03-15T16:22:10Z</time>
      </trkpt>
      <trkpt lat="31.051527075469494" lon="-7.140964418649674">
        <ele>1309.45</ele>
        <time>2019-03-15T16:22:11Z</time>
      </trkpt>
      <trkpt lat="31.053842240944505" lon="-7.142328070476651">
        <ele>1309.9300000000001</ele>
        <time>2019-03-15T16:22:15Z</time>
      </trkpt>
      <trkpt lat="31.055340506136417" lon="-7.14325150474906">
        <ele>1310.4100000000001</ele>
        <time>2019-03-15T16:22:16Z</time>
      </trkpt>
      <trkpt lat="31.056467704474926" lon="-7.143764896318317">
        <ele>1313.78</ele>
        <time>2019-03-15T16:22:25Z</time>
      </trkpt>
      <trkpt lat="31.0577192902565" lon="-7.143855420872569">
        <ele>1312.3399999999999</ele>
        <time>2019-03-15T16:22:33Z</time>
      </trkpt>
      <trkpt lat="31.057893885299563" lon="-7.143915267661214">
        <ele>1308.97</ele>
        <time>2019-03-15T16:22:40Z</time>
      </trkpt>
      <trkpt lat="31.058064792305231" lon="-7.143999170511961">
        <ele>1308.97</ele>
        <time>2019-03-15T16:22:41Z</time>
      </trkpt>
      <trkpt lat="31.058235699310899" lon="-7.144100172445178">
        <ele>1312.3399999999999</ele>
        <time>2019-03-15T16:22:42Z</time>
      </trkpt>
      <trkpt lat="31.058402415364981" lon="-7.144210478290916">
        <ele>1312.8199999999999</ele>
        <time>2019-03-15T16:22:43Z</time>
      </trkpt>
      <trkpt lat="31.059913253411651" lon="-7.145227873697877">
        <ele>1312.8199999999999</ele>
        <time>2019-03-15T16:22:44Z</time>
      </trkpt>
      <trkpt lat="31.061272462829947" lon="-7.145466757938266">
        <ele>1313.3</ele>
        <time>2019-03-15T16:22:45Z</time>
      </trkpt>
      <trkpt lat="31.063080774620175" lon="-7.145141121000052">
        <ele>1312.8199999999999</ele>
        <time>2019-03-15T16:22:46Z</time>
      </trkpt>
      <trkpt lat="31.065226709470153" lon="-7.144713560119271">
        <ele>1312.8199999999999</ele>
        <time>2019-03-15T16:22:47Z</time>
      </trkpt>
      <trkpt lat="31.066506626084447" lon="-7.144212741404772">
        <ele>1312.8199999999999</ele>
        <time>2019-03-15T16:22:58Z</time>
      </trkpt>
      <trkpt lat="31.066619278863072" lon="-7.144103860482574">
        <ele>1310.4100000000001</ele>
        <time>2019-03-15T16:23:04Z</time>
      </trkpt>
      <trkpt lat="31.066721705719829" lon="-7.143982322886586">
        <ele>1309.9300000000001</ele>
        <time>2019-03-15T16:23:05Z</time>
      </trkpt>
      <trkpt lat="31.066815750673413" lon="-7.143852319568396">
        <ele>1309.45</ele>
        <time>2019-03-15T16:23:14Z</time>
      </trkpt>
      <trkpt lat="31.066903341561556" lon="-7.143714185804129">
        <ele>1309.45</ele>
        <time>2019-03-15T16:23:15Z</time>
      </trkpt>
      <trkpt lat="31.066981460899115" lon="-7.1435671672225">
        <ele>1308.97</ele>
        <time>2019-03-15T16:23:27Z</time>
      </trkpt>
      <trkpt lat="31.067051449790597" lon="-7.143409503623843">
        <ele>1308.49</ele>
        <time>2019-03-15T16:23:28Z</time>
      </trkpt>
      <trkpt lat="31.067581018432975" lon="-7.142056412994862">
        <ele>1308.49</ele>
        <time>2019-03-15T16:23:29Z</time>
      </trkpt>
      <trkpt lat="31.067671459168196" lon="-7.141932109370828">
        <ele>1306.0899999999999</ele>
        <time>2019-03-15T16:23:30Z</time>
      </trkpt>
      <trkpt lat="31.067773969843984" lon="-7.141838315874338">
        <ele>1306.0899999999999</ele>
        <time>2019-03-15T16:23:33Z</time>
      </trkpt>
      <trkpt lat="31.067883940413594" lon="-7.141762124374509">
        <ele>1305.6099999999999</ele>
        <time>2019-03-15T16:23:34Z</time>
      </trkpt>
      <trkpt lat="31.067999359220266" lon="-7.141690291464329">
        <ele>1302.24</ele>
        <time>2019-03-15T16:23:37Z</time>
      </trkpt>
      <trkpt lat="31.068121148273349" lon="-7.141624744981527">
        <ele>1301.28</ele>
        <time>2019-03-15T16:23:38Z</time>
      </trkpt>
      <trkpt lat="31.06825165450573" lon="-7.14156967587769">
        <ele>1301.28</ele>
        <time>2019-03-15T16:23:39Z</time>
      </trkpt>
      <trkpt lat="31.069486727938056" lon="-7.141359960660338">
        <ele>1301.76</ele>
        <time>2019-03-15T16:23:47Z</time>
      </trkpt>
      <trkpt lat="31.069808760657907" lon="-7.141423244029284">
        <ele>1306.0899999999999</ele>
        <time>2019-03-15T16:23:48Z</time>
      </trkpt>
      <trkpt lat="31.069969609379768" lon="-7.141478061676025">
        <ele>1306.5699999999999</ele>
        <time>2019-03-15T16:23:49Z</time>
      </trkpt>
      <trkpt lat="31.07145463116467" lon="-7.141754664480686">
        <ele>1307.05</ele>
        <time>2019-03-15T16:23:50Z</time>
      </trkpt>
      <trkpt lat="31.073150541633368" lon="-7.141935462132096">
        <ele>1307.53</ele>
        <time>2019-03-15T16:23:51Z</time>
      </trkpt>
      <trkpt lat="31.073312563821673" lon="-7.141982652246952">
        <ele>1308.49</ele>
        <time>2019-03-15T16:23:52Z</time>
      </trkpt>
      <trkpt lat="31.07347265817225" lon="-7.142046438530088">
        <ele>1329.1600000000001</ele>
        <time>2019-03-15T16:23:53Z</time>
      </trkpt>
      <trkpt lat="31.074764141812921" lon="-7.142480118200183">
        <ele>1330.5999999999999</ele>
        <time>2019-03-15T16:23:54Z</time>
      </trkpt>
      <trkpt lat="31.074930774047971" lon="-7.14246922172606">
        <ele>1331.5599999999999</ele>
        <time>2019-03-15T16:23:55Z</time>
      </trkpt>
      <trkpt lat="31.075097322463989" lon="-7.142439968883991">
        <ele>1333.01</ele>
        <time>2019-03-15T16:23:56Z</time>
      </trkpt>
      <trkpt lat="31.075264709070325" lon="-7.142397053539753">
        <ele>1333.97</ele>
        <time>2019-03-15T16:23:57Z</time>
      </trkpt>
      <trkpt lat="31.075434358790517" lon="-7.142344582825899">
        <ele>1334.45</ele>
        <time>2019-03-15T16:23:58Z</time>
      </trkpt>
      <trkpt lat="31.078412532806396" lon="-7.141425842419267">
        <ele>1334.9300000000001</ele>
        <time>2019-03-15T16:23:59Z</time>
      </trkpt>
      <trkpt lat="31.078585283830762" lon="-7.141422992572188">
        <ele>1335.4100000000001</ele>
        <time>2019-03-15T16:24:00Z</time>
      </trkpt>
      <trkpt lat="31.078757280483842" lon="-7.14145140722394">
        <ele>1342.1400000000001</ele>
        <time>2019-03-15T16:24:01Z</time>
      </trkpt>
      <trkpt lat="31.078925421461463" lon="-7.141504883766174">
        <ele>1343.0999999999999</ele>
        <time>2019-03-15T16:24:02Z</time>
      </trkpt>
      <trkpt lat="31.079092808067799" lon="-7.141577303409576">
        <ele>1343.5799999999999</ele>
        <time>2019-03-15T16:24:03Z</time>
      </trkpt>
      <trkpt lat="31.079259272664785" lon="-7.141665145754814">
        <ele>1344.0599999999999</ele>
        <time>2019-03-15T16:24:04Z</time>
      </trkpt>
      <trkpt lat="31.079419115558267" lon="-7.14177193120122">
        <ele>1343.5799999999999</ele>
        <time>2019-03-15T16:24:05Z</time>
      </trkpt>
      <trkpt lat="31.079570576548576" lon="-7.141894306987524">
        <ele>1342.6199999999999</ele>
        <time>2019-03-15T16:24:06Z</time>
      </trkpt>
      <trkpt lat="31.080600880086422" lon="-7.143004909157753">
        <ele>1339.25</ele>
        <time>2019-03-15T16:24:07Z</time>
      </trkpt>
      <trkpt lat="31.080850996077061" lon="-7.143190819770098">
        <ele>1339.25</ele>
        <time>2019-03-15T16:24:08Z</time>
      </trkpt>
      <trkpt lat="31.080984435975552" lon="-7.143246810883284">
        <ele>1337.3299999999999</ele>
        <time>2019-03-15T16:24:09Z</time>
      </trkpt>
      <trkpt lat="31.081125419586897" lon="-7.143267681822181">
        <ele>1334.9300000000001</ele>
        <time>2019-03-15T16:24:10Z</time>
      </trkpt>
      <trkpt lat="31.081273108720779" lon="-7.143267849460244">
        <ele>1338.77</ele>
        <time>2019-03-15T16:24:11Z</time>
      </trkpt>
      <trkpt lat="31.081427754834294" lon="-7.143263071775436">
        <ele>1339.73</ele>
        <time>2019-03-15T16:24:12Z</time>
      </trkpt>
      <trkpt lat="31.082104425877333" lon="-7.143309591338038">
        <ele>1340.22</ele>
        <time>2019-03-15T16:24:13Z</time>
      </trkpt>
      <trkpt lat="31.082273907959461" lon="-7.143360637128353">
        <ele>1341.1800000000001</ele>
        <time>2019-03-15T16:24:14Z</time>
      </trkpt>
      <trkpt lat="31.083593554794788" lon="-7.143947454169393">
        <ele>1341.1800000000001</ele>
        <time>2019-03-15T16:24:15Z</time>
      </trkpt>
      <trkpt lat="31.084854612126946" lon="-7.144171753898263">
        <ele>1341.6600000000001</ele>
        <time>2019-03-15T16:24:16Z</time>
      </trkpt>
      <trkpt lat="31.086026066914201" lon="-7.144652288407087">
        <ele>1341.6600000000001</ele>
        <time>2019-03-15T16:24:17Z</time>
      </trkpt>
      <trkpt lat="31.086176270619035" lon="-7.144657820463181">
        <ele>1341.6600000000001</ele>
        <time>2019-03-15T16:24:18Z</time>
      </trkpt>
      <trkpt lat="31.086320774629712" lon="-7.144625298678875">
        <ele>1342.1400000000001</ele>
        <time>2019-03-15T16:24:19Z</time>
      </trkpt>
      <trkpt lat="31.086461758241057" lon="-7.144565368071199">
        <ele>1343.0999999999999</ele>
        <time>2019-03-15T16:24:20Z</time>
      </trkpt>
      <trkpt lat="31.086600394919515" lon="-7.144489260390401">
        <ele>1343.0999999999999</ele>
        <time>2019-03-15T16:24:24Z</time>
      </trkpt>
      <trkpt lat="31.08673651702702" lon="-7.144399406388402">
        <ele>1345.02</ele>
        <time>2019-03-15T16:24:25Z</time>
      </trkpt>
      <trkpt lat="31.086868364363909" lon="-7.144292453303933">
        <ele>1345.5</ele>
        <time>2019-03-15T16:24:26Z</time>
      </trkpt>
      <trkpt lat="31.086998032405972" lon="-7.144173262640834">
        <ele>1346.46</ele>
        <time>2019-03-15T16:24:29Z</time>
      </trkpt>
      <trkpt lat="31.08846478164196" lon="-7.142720427364111">
        <ele>1345.98</ele>
        <time>2019-03-15T16:24:30Z</time>
      </trkpt>
      <trkpt lat="31.089154193177819" lon="-7.14208516292274">
        <ele>1345.98</ele>
        <time>2019-03-15T16:24:31Z</time>
      </trkpt>
      <trkpt lat="31.089286124333739" lon="-7.142010815441608">
        <ele>1345.02</ele>
        <time>2019-03-15T16:24:32Z</time>
      </trkpt>
      <trkpt lat="31.090599568560719" lon="-7.141426596790552">
        <ele>1342.1400000000001</ele>
        <time>2019-03-15T16:24:33Z</time>
      </trkpt>
      <trkpt lat="31.09074667096138" lon="-7.141396841034293">
        <ele>1341.6600000000001</ele>
        <time>2019-03-15T16:24:34Z</time>
      </trkpt>
      <trkpt lat="31.092522880062461" lon="-7.141199363395572">
        <ele>1341.1800000000001</ele>
        <time>2019-03-15T16:24:35Z</time>
      </trkpt>
      <trkpt lat="31.092649949714541" lon="-7.141163656488061">
        <ele>1341.1800000000001</ele>
        <time>2019-03-15T16:24:36Z</time>
      </trkpt>
      <trkpt lat="31.092769391834736" lon="-7.141097690910101">
        <ele>1341.1800000000001</ele>
        <time>2019-03-15T16:24:37Z</time>
      </trkpt>
      <trkpt lat="31.092878105118871" lon="-7.141002137213945">
        <ele>1343.5799999999999</ele>
        <time>2019-03-15T16:24:38Z</time>
      </trkpt>
      <trkpt lat="31.093211956322193" lon="-7.140663508325815">
        <ele>1344.0599999999999</ele>
        <time>2019-03-15T16:24:39Z</time>
      </trkpt>
      <trkpt lat="31.093333745375276" lon="-7.140570133924484">
        <ele>1344.0599999999999</ele>
        <time>2019-03-15T16:24:40Z</time>
      </trkpt>
      <trkpt lat="31.093679331243038" lon="-7.140376847237349">
        <ele>1344.54</ele>
        <time>2019-03-15T16:24:41Z</time>
      </trkpt>
      <trkpt lat="31.093795085325837" lon="-7.140358742326498">
        <ele>1344.54</ele>
        <time>2019-03-15T16:24:42Z</time>
      </trkpt>
      <trkpt lat="31.093911593779922" lon="-7.140359496697784">
        <ele>1345.02</ele>
        <time>2019-03-15T16:24:43Z</time>
      </trkpt>
      <trkpt lat="31.094843661412597" lon="-7.140423534438014">
        <ele>1345.02</ele>
        <time>2019-03-15T16:24:44Z</time>
      </trkpt>
      <trkpt lat="31.0949522908777" lon="-7.140423366799951">
        <ele>1345.5</ele>
        <time>2019-03-15T16:24:45Z</time>
      </trkpt>
      <trkpt lat="31.095056897029281" lon="-7.140400903299451">
        <ele>1345.98</ele>
        <time>2019-03-15T16:24:46Z</time>
      </trkpt>
      <trkpt lat="31.095149265602231" lon="-7.140351533889771">
        <ele>1346.9400000000001</ele>
        <time>2019-03-15T16:24:47Z</time>
      </trkpt>
      <trkpt lat="31.095221936702728" lon="-7.140271821990609">
        <ele>1347.9100000000001</ele>
        <time>2019-03-15T16:24:48Z</time>
      </trkpt>
      <trkpt lat="31.095279352739453" lon="-7.140175430104137">
        <ele>1348.8699999999999</ele>
        <time>2019-03-15T16:24:49Z</time>
      </trkpt>
      <trkpt lat="31.095333583652973" lon="-7.140074344351888">
        <ele>1349.8299999999999</ele>
        <time>2019-03-15T16:24:50Z</time>
      </trkpt>
      <trkpt lat="31.095394184812903" lon="-7.13998063467443">
        <ele>1350.79</ele>
        <time>2019-03-15T16:24:51Z</time>
      </trkpt>
      <trkpt lat="31.095465011894703" lon="-7.139910310506821">
        <ele>1351.75</ele>
        <time>2019-03-15T16:24:52Z</time>
      </trkpt>
      <trkpt lat="31.095542795956135" lon="-7.139870245009661">
        <ele>1352.71</ele>
        <time>2019-03-15T16:24:53Z</time>
      </trkpt>
      <trkpt lat="31.09561731107533" lon="-7.139856498688459">
        <ele>1354.1500000000001</ele>
        <time>2019-03-15T16:24:54Z</time>
      </trkpt>
      <trkpt lat="31.0956827737391" lon="-7.139863707125187">
        <ele>1355.1199999999999</ele>
        <time>2019-03-15T16:24:55Z</time>
      </trkpt>
      <trkpt lat="31.095744213089347" lon="-7.139886924996972">
        <ele>1355.5999999999999</ele>
        <time>2019-03-15T16:24:56Z</time>
      </trkpt>
      <trkpt lat="31.095801796764135" lon="-7.139923134818673">
        <ele>1356.0799999999999</ele>
        <time>2019-03-15T16:24:57Z</time>
      </trkpt>
      <trkpt lat="31.095857284963131" lon="-7.139964792877436">
        <ele>1356.5599999999999</ele>
        <time>2019-03-15T16:25:00Z</time>
      </trkpt>
      <trkpt lat="31.095909336581826" lon="-7.140007121488452">
        <ele>1357.04</ele>
        <time>2019-03-15T16:25:01Z</time>
      </trkpt>
      <trkpt lat="31.095960382372141" lon="-7.140043498948216">
        <ele>1358</ele>
        <time>2019-03-15T16:25:02Z</time>
      </trkpt>
      <trkpt lat="31.096015954390168" lon="-7.140061436221004">
        <ele>1358.48</ele>
        <time>2019-03-15T16:25:08Z</time>
      </trkpt>
      <trkpt lat="31.096069682389498" lon="-7.140048108994961">
        <ele>1358.96</ele>
        <time>2019-03-15T16:25:09Z</time>
      </trkpt>
      <trkpt lat="31.096109915524721" lon="-7.140002595260739">
        <ele>1359.4400000000001</ele>
        <time>2019-03-15T16:25:10Z</time>
      </trkpt>
      <trkpt lat="31.09613036736846" lon="-7.139939730986953">
        <ele>1360.4000000000001</ele>
        <time>2019-03-15T16:25:11Z</time>
      </trkpt>
      <trkpt lat="31.096129110082984" lon="-7.139869993552566">
        <ele>1360.8800000000001</ele>
        <time>2019-03-15T16:25:12Z</time>
      </trkpt>
      <trkpt lat="31.096108742058277" lon="-7.1398008428514">
        <ele>1361.8399999999999</ele>
        <time>2019-03-15T16:25:13Z</time>
      </trkpt>
      <trkpt lat="31.096081919968128" lon="-7.13973487727344">
        <ele>1362.3299999999999</ele>
        <time>2019-03-15T16:25:14Z</time>
      </trkpt>
      <trkpt lat="31.096050655469298" lon="-7.139670252799988">
        <ele>1362.8099999999999</ele>
        <time>2019-03-15T16:25:15Z</time>
      </trkpt>
      <trkpt lat="31.096021821722388" lon="-7.139605628326535">
        <ele>1363.29</ele>
        <time>2019-03-15T16:25:16Z</time>
      </trkpt>
      <trkpt lat="31.09601017087698" lon="-7.139533879235387">
        <ele>1363.77</ele>
        <time>2019-03-15T16:25:17Z</time>
      </trkpt>
      <trkpt lat="31.0960194747895" lon="-7.139460872858763">
        <ele>1364.73</ele>
        <time>2019-03-15T16:25:18Z</time>
      </trkpt>
      <trkpt lat="31.096053337678313" lon="-7.139399433508515">
        <ele>1367.6099999999999</ele>
        <time>2019-03-15T16:25:20Z</time>
      </trkpt>
      <trkpt lat="31.096105892211199" lon="-7.139367330819368">
        <ele>1368.5699999999999</ele>
        <time>2019-03-15T16:25:21Z</time>
      </trkpt>
      <trkpt lat="31.0961645655334" lon="-7.139363223686814">
        <ele>1369.54</ele>
        <time>2019-03-15T16:25:22Z</time>
      </trkpt>
      <trkpt lat="31.096217539161444" lon="-7.139375964179635">
        <ele>1371.9400000000001</ele>
        <time>2019-03-15T16:25:23Z</time>
      </trkpt>
      <trkpt lat="31.096268920227885" lon="-7.139393733814359">
        <ele>1372.4200000000001</ele>
        <time>2019-03-15T16:25:24Z</time>
      </trkpt>
      <trkpt lat="31.096325162798166" lon="-7.139417203143239">
        <ele>1372.9000000000001</ele>
        <time>2019-03-15T16:25:25Z</time>
      </trkpt>
      <trkpt lat="31.096615847200155" lon="-7.139564221724868">
        <ele>1373.3800000000001</ele>
        <time>2019-03-15T16:25:26Z</time>
      </trkpt>
      <trkpt lat="31.096691032871604" lon="-7.139618620276451">
        <ele>1373.3800000000001</ele>
        <time>2019-03-15T16:25:27Z</time>
      </trkpt>
      <trkpt lat="31.096760351210833" lon="-7.139677125960589">
        <ele>1373.3800000000001</ele>
        <time>2019-03-15T16:25:28Z</time>
      </trkpt>
      <trkpt lat="31.09696009196341" lon="-7.139834202826023">
        <ele>1373.3800000000001</ele>
        <time>2019-03-15T16:25:29Z</time>
      </trkpt>
      <trkpt lat="31.097029745578766" lon="-7.139867646619678">
        <ele>1373.3800000000001</ele>
        <time>2019-03-15T16:25:30Z</time>
      </trkpt>
      <trkpt lat="31.097103590145707" lon="-7.139886254444718">
        <ele>1373.3800000000001</ele>
        <time>2019-03-15T16:25:31Z</time>
      </trkpt>
      <trkpt lat="31.097184307873249" lon="-7.139890193939209">
        <ele>1373.3800000000001</ele>
        <time>2019-03-15T16:25:32Z</time>
      </trkpt>
      <trkpt lat="31.097270557656884" lon="-7.139875609427691">
        <ele>1372.9000000000001</ele>
        <time>2019-03-15T16:25:33Z</time>
      </trkpt>
      <trkpt lat="31.097360076382756" lon="-7.139843758195639">
        <ele>1372.4200000000001</ele>
        <time>2019-03-15T16:25:34Z</time>
      </trkpt>
      <trkpt lat="31.097452361136675" lon="-7.139790449291468">
        <ele>1372.4200000000001</ele>
        <time>2019-03-15T16:25:35Z</time>
      </trkpt>
      <trkpt lat="31.097546070814133" lon="-7.139730099588633">
        <ele>1371.9400000000001</ele>
        <time>2019-03-15T16:25:36Z</time>
      </trkpt>
      <trkpt lat="31.097641121596098" lon="-7.139679472893477">
        <ele>1371.9400000000001</ele>
        <time>2019-03-15T16:25:37Z</time>
      </trkpt>
      <trkpt lat="31.097740279510617" lon="-7.139651477336884">
        <ele>1371.9400000000001</ele>
        <time>2019-03-15T16:25:38Z</time>
      </trkpt>
      <trkpt lat="31.097838934510946" lon="-7.139650974422693">
        <ele>1371.46</ele>
        <time>2019-03-15T16:25:39Z</time>
      </trkpt>
      <trkpt lat="31.097934739664197" lon="-7.139671426266432">
        <ele>1371.46</ele>
        <time>2019-03-15T16:25:40Z</time>
      </trkpt>
      <trkpt lat="31.098025850951672" lon="-7.13970017619431">
        <ele>1371.46</ele>
        <time>2019-03-15T16:25:41Z</time>
      </trkpt>
      <trkpt lat="31.098116124048829" lon="-7.139722472056747">
        <ele>1370.98</ele>
        <time>2019-03-15T16:25:42Z</time>
      </trkpt>
      <trkpt lat="31.098206229507923" lon="-7.139731775969267">
        <ele>1370.98</ele>
        <time>2019-03-15T16:25:43Z</time>
      </trkpt>
      <trkpt lat="31.098292479291558" lon="-7.13972800411284">
        <ele>1370.5</ele>
        <time>2019-03-15T16:25:46Z</time>
      </trkpt>
      <trkpt lat="31.09837856143713" lon="-7.139715934172273">
        <ele>1370.5</ele>
        <time>2019-03-15T16:25:47Z</time>
      </trkpt>
      <trkpt lat="31.098463218659163" lon="-7.13969481177628">
        <ele>1370.02</ele>
        <time>2019-03-15T16:25:48Z</time>
      </trkpt>
      <trkpt lat="31.098546786233783" lon="-7.139662960544229">
        <ele>1370.02</ele>
        <time>2019-03-15T16:25:49Z</time>
      </trkpt>
      <trkpt lat="31.098627671599388" lon="-7.139617530629039">
        <ele>1370.02</ele>
        <time>2019-03-15T16:25:50Z</time>
      </trkpt>
      <trkpt lat="31.098704114556313" lon="-7.13955843821168">
        <ele>1370.5</ele>
        <time>2019-03-15T16:25:51Z</time>
      </trkpt>
      <trkpt lat="31.098773097619414" lon="-7.139487443491817">
        <ele>1370.02</ele>
        <time>2019-03-15T16:25:59Z</time>
      </trkpt>
      <trkpt lat="31.098836213350296" lon="-7.139408737421036">
        <ele>1370.02</ele>
        <time>2019-03-15T16:26:00Z</time>
      </trkpt>
      <trkpt lat="31.09890385530889" lon="-7.139342520385981">
        <ele>1369.05</ele>
        <time>2019-03-15T16:26:03Z</time>
      </trkpt>
      <trkpt lat="31.098988009616733" lon="-7.139304550364614">
        <ele>1368.5699999999999</ele>
        <time>2019-03-15T16:26:04Z</time>
      </trkpt>
      <trkpt lat="31.099081467837095" lon="-7.139311842620373">
        <ele>1368.0899999999999</ele>
        <time>2019-03-15T16:26:05Z</time>
      </trkpt>
      <trkpt lat="31.09917014837265" lon="-7.139366995543242">
        <ele>1366.6500000000001</ele>
        <time>2019-03-15T16:26:06Z</time>
      </trkpt>
      <trkpt lat="31.099252374842763" lon="-7.139450311660767">
        <ele>1366.1700000000001</ele>
        <time>2019-03-15T16:26:07Z</time>
      </trkpt>
      <trkpt lat="31.099340384826064" lon="-7.139541422948241">
        <ele>1366.1700000000001</ele>
        <time>2019-03-15T16:26:08Z</time>
      </trkpt>
      <trkpt lat="31.099620591849089" lon="-7.139837890863419">
        <ele>1366.1700000000001</ele>
        <time>2019-03-15T16:26:17Z</time>
      </trkpt>
      <trkpt lat="31.099698543548584" lon="-7.139958841726184">
        <ele>1366.1700000000001</ele>
        <time>2019-03-15T16:26:18Z</time>
      </trkpt>
      <trkpt lat="31.099759228527546" lon="-7.140090521425009">
        <ele>1366.1700000000001</ele>
        <time>2019-03-15T16:26:19Z</time>
      </trkpt>
      <trkpt lat="31.100081261247396" lon="-7.140818070620298">
        <ele>1366.1700000000001</ele>
        <time>2019-03-15T16:26:20Z</time>
      </trkpt>
      <trkpt lat="31.100155524909496" lon="-7.140892250463367">
        <ele>1366.1700000000001</ele>
        <time>2019-03-15T16:26:30Z</time>
      </trkpt>
      <trkpt lat="31.100243031978607" lon="-7.140942625701428">
        <ele>1366.1700000000001</ele>
        <time>2019-03-15T16:26:31Z</time>
      </trkpt>
      <trkpt lat="31.100346464663744" lon="-7.140954695641995">
        <ele>1366.6500000000001</ele>
        <time>2019-03-15T16:26:32Z</time>
      </trkpt>
      <trkpt lat="31.100462721660733" lon="-7.14093298651278">
        <ele>1367.1300000000001</ele>
        <time>2019-03-15T16:26:33Z</time>
      </trkpt>
      <trkpt lat="31.100587276741862" lon="-7.140899458900094">
        <ele>1367.6099999999999</ele>
        <time>2019-03-15T16:26:34Z</time>
      </trkpt>
      <trkpt lat="31.100714765489101" lon="-7.140875989571214">
        <ele>1367.6099999999999</ele>
        <time>2019-03-15T16:26:35Z</time>
      </trkpt>
      <trkpt lat="31.100845690816641" lon="-7.140870960429311">
        <ele>1367.6099999999999</ele>
        <time>2019-03-15T16:26:36Z</time>
      </trkpt>
      <trkpt lat="31.100979382172227" lon="-7.14088948443532">
        <ele>1367.6099999999999</ele>
        <time>2019-03-15T16:26:40Z</time>
      </trkpt>
      <trkpt lat="31.101112402975559" lon="-7.140927286818624">
        <ele>1368.0899999999999</ele>
        <time>2019-03-15T16:26:41Z</time>
      </trkpt>
      <trkpt lat="31.101240226998925" lon="-7.140977494418621">
        <ele>1368.0899999999999</ele>
        <time>2019-03-15T16:26:42Z</time>
      </trkpt>
      <trkpt lat="31.101486822590232" lon="-7.141068940982223">
        <ele>1368.5699999999999</ele>
        <time>2019-03-15T16:26:43Z</time>
      </trkpt>
      <trkpt lat="31.101620094850659" lon="-7.141089392825961">
        <ele>1368.5699999999999</ele>
        <time>2019-03-15T16:26:44Z</time>
      </trkpt>
      <trkpt lat="31.101759569719434" lon="-7.141084112226963">
        <ele>1368.5699999999999</ele>
        <time>2019-03-15T16:26:45Z</time>
      </trkpt>
      <trkpt lat="31.10189912840724" lon="-7.141052512452006">
        <ele>1368.5699999999999</ele>
        <time>2019-03-15T16:26:51Z</time>
      </trkpt>
      <trkpt lat="31.102033574134111" lon="-7.140998700633645">
        <ele>1368.0899999999999</ele>
        <time>2019-03-15T16:26:52Z</time>
      </trkpt>
      <trkpt lat="31.102161649614573" lon="-7.140930639579892">
        <ele>1367.6099999999999</ele>
        <time>2019-03-15T16:26:55Z</time>
      </trkpt>
      <trkpt lat="31.102290982380509" lon="-7.14087481610477">
        <ele>1367.1300000000001</ele>
        <time>2019-03-15T16:26:56Z</time>
      </trkpt>
      <trkpt lat="31.102426014840603" lon="-7.140849083662033">
        <ele>1366.6500000000001</ele>
        <time>2019-03-15T16:26:57Z</time>
      </trkpt>
      <trkpt lat="31.10256414860487" lon="-7.140854280441999">
        <ele>1365.6900000000001</ele>
        <time>2019-03-15T16:26:58Z</time>
      </trkpt>
      <trkpt lat="31.102700857445598" lon="-7.140864422544837">
        <ele>1365.21</ele>
        <time>2019-03-15T16:26:59Z</time>
      </trkpt>
      <trkpt lat="31.10283681191504" lon="-7.140853777527809">
        <ele>1364.25</ele>
        <time>2019-03-15T16:27:00Z</time>
      </trkpt>
      <trkpt lat="31.102963546290994" lon="-7.140816310420632">
        <ele>1363.77</ele>
        <time>2019-03-15T16:27:01Z</time>
      </trkpt>
      <trkpt lat="31.103076785802841" lon="-7.140757134184241">
        <ele>1362.8099999999999</ele>
        <time>2019-03-15T16:27:02Z</time>
      </trkpt>
      <trkpt lat="31.103173093870282" lon="-7.140673315152526">
        <ele>1362.3299999999999</ele>
        <time>2019-03-15T16:27:07Z</time>
      </trkpt>
      <trkpt lat="31.103259930387139" lon="-7.140578515827656">
        <ele>1361.8399999999999</ele>
        <time>2019-03-15T16:27:08Z</time>
      </trkpt>
      <trkpt lat="31.103350706398487" lon="-7.140490841120482">
        <ele>1361.3599999999999</ele>
        <time>2019-03-15T16:27:09Z</time>
      </trkpt>
      <trkpt lat="31.103459503501654" lon="-7.140419762581587">
        <ele>1360.8800000000001</ele>
        <time>2019-03-15T16:27:10Z</time>
      </trkpt>
      <trkpt lat="31.103585064411163" lon="-7.140374416485429">
        <ele>1360.4000000000001</ele>
        <time>2019-03-15T16:27:11Z</time>
      </trkpt>
      <trkpt lat="31.103717247024179" lon="-7.14035639539361">
        <ele>1360.4000000000001</ele>
        <time>2019-03-15T16:27:12Z</time>
      </trkpt>
      <trkpt lat="31.103851273655891" lon="-7.140360334888101">
        <ele>1360.4000000000001</ele>
        <time>2019-03-15T16:27:13Z</time>
      </trkpt>
      <trkpt lat="31.103986976668239" lon="-7.140359580516815">
        <ele>1360.4000000000001</ele>
        <time>2019-03-15T16:27:14Z</time>
      </trkpt>
      <trkpt lat="31.104123182594776" lon="-7.140331920236349">
        <ele>1360.8800000000001</ele>
        <time>2019-03-15T16:27:22Z</time>
      </trkpt>
      <trkpt lat="31.104256873950362" lon="-7.140276515856385">
        <ele>1360.8800000000001</ele>
        <time>2019-03-15T16:27:30Z</time>
      </trkpt>
      <trkpt lat="31.10438821837306" lon="-7.140207281336188">
        <ele>1361.3599999999999</ele>
        <time>2019-03-15T16:27:31Z</time>
      </trkpt>
      <trkpt lat="31.104743108153343" lon="-7.139989016577601">
        <ele>1360.8800000000001</ele>
        <time>2019-03-15T16:27:32Z</time>
      </trkpt>
      <trkpt lat="31.104842936620116" lon="-7.139891535043716">
        <ele>1361.3599999999999</ele>
        <time>2019-03-15T16:27:35Z</time>
      </trkpt>
      <trkpt lat="31.104943687096238" lon="-7.139786342158914">
        <ele>1362.8099999999999</ele>
        <time>2019-03-15T16:27:36Z</time>
      </trkpt>
      <trkpt lat="31.105055501684546" lon="-7.13969137519598">
        <ele>1363.29</ele>
        <time>2019-03-15T16:27:37Z</time>
      </trkpt>
      <trkpt lat="31.105181984603405" lon="-7.139608645811677">
        <ele>1363.77</ele>
        <time>2019-03-15T16:27:38Z</time>
      </trkpt>
      <trkpt lat="31.105319447815418" lon="-7.139532370492816">
        <ele>1364.25</ele>
        <time>2019-03-15T16:27:39Z</time>
      </trkpt>
      <trkpt lat="31.106411693617702" lon="-7.138720834627748">
        <ele>1364.25</ele>
        <time>2019-03-15T16:27:40Z</time>
      </trkpt>
      <trkpt lat="31.106530046090484" lon="-7.13859242387116">
        <ele>1363.77</ele>
        <time>2019-03-15T16:27:41Z</time>
      </trkpt>
      <trkpt lat="31.106846127659082" lon="-7.138210041448474">
        <ele>1365.21</ele>
        <time>2019-03-15T16:27:42Z</time>
      </trkpt>
      <trkpt lat="31.106965318322182" lon="-7.138122953474522">
        <ele>1365.6900000000001</ele>
        <time>2019-03-15T16:27:43Z</time>
      </trkpt>
      <trkpt lat="31.107099177315831" lon="-7.138060927391052">
        <ele>1365.6900000000001</ele>
        <time>2019-03-15T16:27:44Z</time>
      </trkpt>
      <trkpt lat="31.107241753488779" lon="-7.137997224926949">
        <ele>1366.1700000000001</ele>
        <time>2019-03-15T16:27:45Z</time>
      </trkpt>
      <trkpt lat="31.107387347146869" lon="-7.137909214943647">
        <ele>1367.6099999999999</ele>
        <time>2019-03-15T16:27:46Z</time>
      </trkpt>
      <trkpt lat="31.107534365728498" lon="-7.137798322364688">
        <ele>1367.1300000000001</ele>
        <time>2019-03-15T16:27:47Z</time>
      </trkpt>
      <trkpt lat="31.108969431370497" lon="-7.136843958869577">
        <ele>1366.6500000000001</ele>
        <time>2019-03-15T16:27:48Z</time>
      </trkpt>
      <trkpt lat="31.109097925946116" lon="-7.13679039850831">
        <ele>1366.1700000000001</ele>
        <time>2019-03-15T16:27:58Z</time>
      </trkpt>
      <trkpt lat="31.109225414693356" lon="-7.136768437922001">
        <ele>1366.1700000000001</ele>
        <time>2019-03-15T16:27:59Z</time>
      </trkpt>
      <trkpt lat="31.109356842935085" lon="-7.136770533397794">
        <ele>1365.21</ele>
        <time>2019-03-15T16:28:00Z</time>
      </trkpt>
      <trkpt lat="31.110770786181092" lon="-7.137054847553372">
        <ele>1364.25</ele>
        <time>2019-03-15T16:28:01Z</time>
      </trkpt>
      <trkpt lat="31.110889809206128" lon="-7.137077143415809">
        <ele>1360.8800000000001</ele>
        <time>2019-03-15T16:28:02Z</time>
      </trkpt>
      <trkpt lat="31.111008832231164" lon="-7.137083094567061">
        <ele>1359.9200000000001</ele>
        <time>2019-03-15T16:28:03Z</time>
      </trkpt>
      <trkpt lat="31.111120814457536" lon="-7.137067671865225">
        <ele>1359.4400000000001</ele>
        <time>2019-03-15T16:28:12Z</time>
      </trkpt>
      <trkpt lat="31.111219804733992" lon="-7.137032970786095">
        <ele>1358.96</ele>
        <time>2019-03-15T16:28:13Z</time>
      </trkpt>
      <trkpt lat="31.111304964870214" lon="-7.136983769014478">
        <ele>1358.48</ele>
        <time>2019-03-15T16:28:14Z</time>
      </trkpt>
      <trkpt lat="31.111384006217122" lon="-7.136928029358387">
        <ele>1358.48</ele>
        <time>2019-03-15T16:28:15Z</time>
      </trkpt>
      <trkpt lat="31.111722299829125" lon="-7.136731306090951">
        <ele>1358.96</ele>
        <time>2019-03-15T16:28:16Z</time>
      </trkpt>
      <trkpt lat="31.111818859353662" lon="-7.136721583083272">
        <ele>1359.4400000000001</ele>
        <time>2019-03-15T16:28:26Z</time>
      </trkpt>
      <trkpt lat="31.111917262896895" lon="-7.136735245585442">
        <ele>1361.3599999999999</ele>
        <time>2019-03-15T16:28:27Z</time>
      </trkpt>
      <trkpt lat="31.112014828249812" lon="-7.136765085160732">
        <ele>1362.3299999999999</ele>
        <time>2019-03-15T16:28:28Z</time>
      </trkpt>
      <trkpt lat="31.112108621746302" lon="-7.136802636086941">
        <ele>1362.8099999999999</ele>
        <time>2019-03-15T16:28:29Z</time>
      </trkpt>
      <trkpt lat="31.112199565395713" lon="-7.136843120679259">
        <ele>1363.29</ele>
        <time>2019-03-15T16:28:30Z</time>
      </trkpt>
      <trkpt lat="31.112699378281832" lon="-7.137043112888932">
        <ele>1363.77</ele>
        <time>2019-03-15T16:28:40Z</time>
      </trkpt>
      <trkpt lat="31.112774396315217" lon="-7.137048812583089">
        <ele>1364.25</ele>
        <time>2019-03-15T16:28:42Z</time>
      </trkpt>
      <trkpt lat="31.11299785785377" lon="-7.137026265263557">
        <ele>1365.21</ele>
        <time>2019-03-15T16:28:43Z</time>
      </trkpt>
      <trkpt lat="31.11307161860168" lon="-7.137003047391772">
        <ele>1365.6900000000001</ele>
        <time>2019-03-15T16:28:44Z</time>
      </trkpt>
      <trkpt lat="31.113140769302845" lon="-7.136967675760388">
        <ele>1368.5699999999999</ele>
        <time>2019-03-15T16:28:45Z</time>
      </trkpt>
      <trkpt lat="31.113200867548585" lon="-7.13691302575171">
        <ele>1368.5699999999999</ele>
        <time>2019-03-15T16:28:46Z</time>
      </trkpt>
      <trkpt lat="31.113241352140903" lon="-7.136839935556054">
        <ele>1369.05</ele>
        <time>2019-03-15T16:28:47Z</time>
      </trkpt>
      <trkpt lat="31.11326708458364" lon="-7.136765336617827">
        <ele>1369.54</ele>
        <time>2019-03-15T16:28:48Z</time>
      </trkpt>
      <trkpt lat="31.113282339647412" lon="-7.136698281392455">
        <ele>1370.02</ele>
        <time>2019-03-15T16:28:49Z</time>
      </trkpt>
      <trkpt lat="31.11329491250217" lon="-7.136629885062575">
        <ele>1370.5</ele>
        <time>2019-03-15T16:28:50Z</time>
      </trkpt>
      <trkpt lat="31.113321147859097" lon="-7.136190002784133">
        <ele>1371.46</ele>
        <time>2019-03-15T16:28:59Z</time>
      </trkpt>
      <trkpt lat="31.113343024626374" lon="-7.136090425774455">
        <ele>1372.4200000000001</ele>
        <time>2019-03-15T16:29:00Z</time>
      </trkpt>
      <trkpt lat="31.113380827009678" lon="-7.135996716096997">
        <ele>1383.47</ele>
        <time>2019-03-15T16:29:01Z</time>
      </trkpt>
      <trkpt lat="31.113440087065101" lon="-7.135913902893663">
        <ele>1386.8399999999999</ele>
        <time>2019-03-15T16:29:02Z</time>
      </trkpt>
      <trkpt lat="31.113521894440055" lon="-7.13584441691637">
        <ele>1386.8399999999999</ele>
        <time>2019-03-15T16:29:03Z</time>
      </trkpt>
      <trkpt lat="31.113619124516845" lon="-7.135789515450597">
        <ele>1386.8399999999999</ele>
        <time>2019-03-15T16:29:04Z</time>
      </trkpt>
      <trkpt lat="31.113725323230028" lon="-7.135746767744422">
        <ele>1386.8399999999999</ele>
        <time>2019-03-15T16:29:05Z</time>
      </trkpt>
      <trkpt lat="31.11383680254221" lon="-7.135708881542087">
        <ele>1386.8399999999999</ele>
        <time>2019-03-15T16:29:06Z</time>
      </trkpt>
      <trkpt lat="31.114652696996927" lon="-7.135285092517734">
        <ele>1387.3199999999999</ele>
        <time>2019-03-15T16:29:07Z</time>
      </trkpt>
      <trkpt lat="31.115383263677359" lon="-7.13474546559155">
        <ele>1387.3199999999999</ele>
        <time>2019-03-15T16:29:08Z</time>
      </trkpt>
      <trkpt lat="31.115478817373514" lon="-7.134701041504741">
        <ele>1387.8</ele>
        <time>2019-03-15T16:29:09Z</time>
      </trkpt>
      <trkpt lat="31.115580406039953" lon="-7.134670782834292">
        <ele>1388.28</ele>
        <time>2019-03-15T16:29:10Z</time>
      </trkpt>
      <trkpt lat="31.115904282778502" lon="-7.134600291028619">
        <ele>1388.76</ele>
        <time>2019-03-15T16:29:11Z</time>
      </trkpt>
      <trkpt lat="31.116012325510383" lon="-7.134548407047987">
        <ele>1389.72</ele>
        <time>2019-03-15T16:29:12Z</time>
      </trkpt>
      <trkpt lat="31.116108298301697" lon="-7.134465593844652">
        <ele>1390.6800000000001</ele>
        <time>2019-03-15T16:29:13Z</time>
      </trkpt>
      <trkpt lat="31.116190273314714" lon="-7.134360820055008">
        <ele>1391.6500000000001</ele>
        <time>2019-03-15T16:29:15Z</time>
      </trkpt>
      <trkpt lat="31.11625992693007" lon="-7.13424464687705">
        <ele>1392.6099999999999</ele>
        <time>2019-03-15T16:29:16Z</time>
      </trkpt>
      <trkpt lat="31.11632103100419" lon="-7.134125540032983">
        <ele>1393.0899999999999</ele>
        <time>2019-03-15T16:29:17Z</time>
      </trkpt>
      <trkpt lat="31.116386242210865" lon="-7.134012803435326">
        <ele>1394.05</ele>
        <time>2019-03-15T16:29:18Z</time>
      </trkpt>
      <trkpt lat="31.11646662466228" lon="-7.13390895165503">
        <ele>1394.05</ele>
        <time>2019-03-15T16:29:19Z</time>
      </trkpt>
      <trkpt lat="31.116559244692326" lon="-7.133813230320811">
        <ele>1389.72</ele>
        <time>2019-03-15T16:29:20Z</time>
      </trkpt>
      <trkpt lat="31.116653541103005" lon="-7.133730249479413">
        <ele>1389.72</ele>
        <time>2019-03-15T16:29:21Z</time>
      </trkpt>
      <trkpt lat="31.116748508065939" lon="-7.133665373548865">
        <ele>1389.72</ele>
        <time>2019-03-15T16:29:22Z</time>
      </trkpt>
      <trkpt lat="31.116843642666936" lon="-7.133618770167232">
        <ele>1389.24</ele>
        <time>2019-03-15T16:29:23Z</time>
      </trkpt>
      <trkpt lat="31.116944896057248" lon="-7.133591193705797">
        <ele>1388.76</ele>
        <time>2019-03-15T16:29:24Z</time>
      </trkpt>
      <trkpt lat="31.117057297378778" lon="-7.133573926985264">
        <ele>1388.28</ele>
        <time>2019-03-15T16:29:25Z</time>
      </trkpt>
      <trkpt lat="31.118356827646494" lon="-7.133500752970576">
        <ele>1384.4400000000001</ele>
        <time>2019-03-15T16:29:26Z</time>
      </trkpt>
      <trkpt lat="31.118467720225453" lon="-7.133518271148205">
        <ele>1384.4400000000001</ele>
        <time>2019-03-15T16:29:27Z</time>
      </trkpt>
      <trkpt lat="31.118563693016768" lon="-7.133562779054046">
        <ele>1383.96</ele>
        <time>2019-03-15T16:29:28Z</time>
      </trkpt>
      <trkpt lat="31.118648014962673" lon="-7.133635366335511">
        <ele>1383.96</ele>
        <time>2019-03-15T16:29:33Z</time>
      </trkpt>
      <trkpt lat="31.118726469576359" lon="-7.133731758221984">
        <ele>1383.96</ele>
        <time>2019-03-15T16:29:34Z</time>
      </trkpt>
      <trkpt lat="31.118807690218091" lon="-7.133837873116136">
        <ele>1386.8399999999999</ele>
        <time>2019-03-15T16:29:35Z</time>
      </trkpt>
      <trkpt lat="31.119624339044094" lon="-7.134991222992539">
        <ele>1386.3599999999999</ele>
        <time>2019-03-15T16:29:38Z</time>
      </trkpt>
      <trkpt lat="31.119735315442085" lon="-7.135089375078678">
        <ele>1386.3599999999999</ele>
        <time>2019-03-15T16:29:46Z</time>
      </trkpt>
      <trkpt lat="31.119862888008356" lon="-7.135153915733099">
        <ele>1385.8800000000001</ele>
        <time>2019-03-15T16:29:53Z</time>
      </trkpt>
      <trkpt lat="31.11999599263072" lon="-7.135193310678005">
        <ele>1385.4000000000001</ele>
        <time>2019-03-15T16:29:54Z</time>
      </trkpt>
      <trkpt lat="31.120130270719528" lon="-7.135225916281343">
        <ele>1381.0699999999999</ele>
        <time>2019-03-15T16:29:55Z</time>
      </trkpt>
      <trkpt lat="31.121590649709105" lon="-7.135681305080652">
        <ele>1380.5899999999999</ele>
        <time>2019-03-15T16:30:03Z</time>
      </trkpt>
      <trkpt lat="31.121731046587229" lon="-7.135679293423891">
        <ele>1380.1099999999999</ele>
        <time>2019-03-15T16:30:05Z</time>
      </trkpt>
      <trkpt lat="31.121870772913098" lon="-7.1356753539294">
        <ele>1380.1099999999999</ele>
        <time>2019-03-15T16:30:06Z</time>
      </trkpt>
      <trkpt lat="31.122012427076697" lon="-7.135692872107029">
        <ele>1380.1099999999999</ele>
        <time>2019-03-15T16:30:07Z</time>
      </trkpt>
      <trkpt lat="31.122158356010914" lon="-7.135727070271969">
        <ele>1379.6300000000001</ele>
        <time>2019-03-15T16:30:08Z</time>
      </trkpt>
      <trkpt lat="31.123725520446897" lon="-7.136175418272615">
        <ele>1379.1500000000001</ele>
        <time>2019-03-15T16:30:09Z</time>
      </trkpt>
      <trkpt lat="31.123959627002478" lon="-7.136226212605834">
        <ele>1379.1500000000001</ele>
        <time>2019-03-15T16:30:11Z</time>
      </trkpt>
      <trkpt lat="31.124051995575428" lon="-7.136219423264265">
        <ele>1379.1500000000001</ele>
        <time>2019-03-15T16:30:12Z</time>
      </trkpt>
      <trkpt lat="31.124141346663237" lon="-7.13619276881218">
        <ele>1378.6700000000001</ele>
        <time>2019-03-15T16:30:13Z</time>
      </trkpt>
      <trkpt lat="31.124226422980428" lon="-7.136140214279294">
        <ele>1375.78</ele>
        <time>2019-03-15T16:30:15Z</time>
      </trkpt>
      <trkpt lat="31.124303117394447" lon="-7.136056646704674">
        <ele>1375.78</ele>
        <time>2019-03-15T16:30:16Z</time>
      </trkpt>
      <trkpt lat="31.124370004981756" lon="-7.135946424677968">
        <ele>1375.78</ele>
        <time>2019-03-15T16:30:17Z</time>
      </trkpt>
      <trkpt lat="31.124429684132338" lon="-7.135819606482983">
        <ele>1376.26</ele>
        <time>2019-03-15T16:30:18Z</time>
      </trkpt>
      <trkpt lat="31.124480646103621" lon="-7.135682394728065">
        <ele>1376.75</ele>
        <time>2019-03-15T16:30:19Z</time>
      </trkpt>
      <trkpt lat="31.124523729085922" lon="-7.135542165488005">
        <ele>1377.23</ele>
        <time>2019-03-15T16:30:21Z</time>
      </trkpt>
      <trkpt lat="31.124835619702935" lon="-7.134148674085736">
        <ele>1377.71</ele>
        <time>2019-03-15T16:30:22Z</time>
      </trkpt>
      <trkpt lat="31.124891107901931" lon="-7.134013054892421">
        <ele>1378.1900000000001</ele>
        <time>2019-03-15T16:30:23Z</time>
      </trkpt>
      <trkpt lat="31.124968975782394" lon="-7.133889840915799">
        <ele>1379.1500000000001</ele>
        <time>2019-03-15T16:30:24Z</time>
      </trkpt>
      <trkpt lat="31.125066289678216" lon="-7.133781965821981">
        <ele>1379.6300000000001</ele>
        <time>2019-03-15T16:30:25Z</time>
      </trkpt>
      <trkpt lat="31.125178690999746" lon="-7.133691860362887">
        <ele>1380.1099999999999</ele>
        <time>2019-03-15T16:30:26Z</time>
      </trkpt>
      <trkpt lat="31.125304754823446" lon="-7.133626230061054">
        <ele>1380.5899999999999</ele>
        <time>2019-03-15T16:30:27Z</time>
      </trkpt>
      <trkpt lat="31.125441631302238" lon="-7.133582308888435">
        <ele>1381.0699999999999</ele>
        <time>2019-03-15T16:30:31Z</time>
      </trkpt>
      <trkpt lat="31.125587141141295" lon="-7.133559761568904">
        <ele>1381.0699999999999</ele>
        <time>2019-03-15T16:30:32Z</time>
      </trkpt>
      <trkpt lat="31.12573591992259" lon="-7.133548613637686">
        <ele>1381.55</ele>
        <time>2019-03-15T16:30:39Z</time>
      </trkpt>
      <trkpt lat="31.125883357599378" lon="-7.133531011641026">
        <ele>1382.99</ele>
        <time>2019-03-15T16:30:40Z</time>
      </trkpt>
      <trkpt lat="31.126025598496199" lon="-7.133496478199959">
        <ele>1384.4400000000001</ele>
        <time>2019-03-15T16:30:43Z</time>
      </trkpt>
      <trkpt lat="31.126161552965641" lon="-7.133436128497124">
        <ele>1385.4000000000001</ele>
        <time>2019-03-15T16:30:44Z</time>
      </trkpt>
      <trkpt lat="31.126291137188673" lon="-7.133353231474757">
        <ele>1386.8399999999999</ele>
        <time>2019-03-15T16:30:45Z</time>
      </trkpt>
      <trkpt lat="31.126416362822056" lon="-7.133249379694462">
        <ele>1388.76</ele>
        <time>2019-03-15T16:30:46Z</time>
      </trkpt>
      <trkpt lat="31.126541085541248" lon="-7.133136224001646">
        <ele>1390.2</ele>
        <time>2019-03-15T16:30:47Z</time>
      </trkpt>
      <trkpt lat="31.126796817407012" lon="-7.132923323661089">
        <ele>1391.1700000000001</ele>
        <time>2019-03-15T16:30:48Z</time>
      </trkpt>
      <trkpt lat="31.126929167658091" lon="-7.132839756086469">
        <ele>1392.6099999999999</ele>
        <time>2019-03-15T16:30:49Z</time>
      </trkpt>
      <trkpt lat="31.127064032480121" lon="-7.132774125784636">
        <ele>1393.5699999999999</ele>
        <time>2019-03-15T16:30:50Z</time>
      </trkpt>
      <trkpt lat="31.127199651673436" lon="-7.132728360593319">
        <ele>1394.53</ele>
        <time>2019-03-15T16:30:51Z</time>
      </trkpt>
      <trkpt lat="31.127325715497136" lon="-7.132711848244071">
        <ele>1395.49</ele>
        <time>2019-03-15T16:30:52Z</time>
      </trkpt>
      <trkpt lat="31.127435434609652" lon="-7.132724588736892">
        <ele>1396.45</ele>
        <time>2019-03-15T16:30:54Z</time>
      </trkpt>
      <trkpt lat="31.1275330837816" lon="-7.132756356149912">
        <ele>1396.9300000000001</ele>
        <time>2019-03-15T16:30:55Z</time>
      </trkpt>
      <trkpt lat="31.12763031385839" lon="-7.132785776630044">
        <ele>1397.8900000000001</ele>
        <time>2019-03-15T16:30:56Z</time>
      </trkpt>
      <trkpt lat="31.127729723230004" lon="-7.132792063057423">
        <ele>1399.3399999999999</ele>
        <time>2019-03-15T16:31:00Z</time>
      </trkpt>
      <trkpt lat="31.127828126773238" lon="-7.132776724174619">
        <ele>1399.3399999999999</ele>
        <time>2019-03-15T16:31:11Z</time>
      </trkpt>
      <trkpt lat="31.127925356850028" lon="-7.132741939276457">
        <ele>1399.8199999999999</ele>
        <time>2019-03-15T16:31:21Z</time>
      </trkpt>
      <trkpt lat="31.128019401803613" lon="-7.132692402228713">
        <ele>1400.3</ele>
        <time>2019-03-15T16:31:22Z</time>
      </trkpt>
      <trkpt lat="31.128114033490419" lon="-7.132633393630385">
        <ele>1404.1400000000001</ele>
        <time>2019-03-15T16:31:23Z</time>
      </trkpt>
      <trkpt lat="31.128210676833987" lon="-7.132568517699838">
        <ele>1407.51</ele>
        <time>2019-03-15T16:31:24Z</time>
      </trkpt>
      <trkpt lat="31.128764050081372" lon="-7.132215304300189">
        <ele>1407.99</ele>
        <time>2019-03-15T16:31:25Z</time>
      </trkpt>
      <trkpt lat="31.128898160532117" lon="-7.132174232974649">
        <ele>1408.47</ele>
        <time>2019-03-15T16:31:26Z</time>
      </trkpt>
      <trkpt lat="31.129039144143462" lon="-7.132150260731578">
        <ele>1411.8299999999999</ele>
        <time>2019-03-15T16:31:27Z</time>
      </trkpt>
      <trkpt lat="31.129481457173824" lon="-7.132065603509545">
        <ele>1412.3099999999999</ele>
        <time>2019-03-15T16:31:28Z</time>
      </trkpt>
      <trkpt lat="31.13074142485857" lon="-7.131810123100877">
        <ele>1411.8299999999999</ele>
        <time>2019-03-15T16:31:29Z</time>
      </trkpt>
      <trkpt lat="31.131732165813446" lon="-7.13161532767117">
        <ele>1411.8299999999999</ele>
        <time>2019-03-15T16:31:30Z</time>
      </trkpt>
      <trkpt lat="31.131872814148664" lon="-7.131607113406062">
        <ele>1411.3499999999999</ele>
        <time>2019-03-15T16:31:38Z</time>
      </trkpt>
      <trkpt lat="31.132018994539976" lon="-7.13161532767117">
        <ele>1410.8699999999999</ele>
        <time>2019-03-15T16:31:39Z</time>
      </trkpt>
      <trkpt lat="31.133229089900851" lon="-7.13149999268353">
        <ele>1410.3900000000001</ele>
        <time>2019-03-15T16:31:40Z</time>
      </trkpt>
      <trkpt lat="31.133478032425046" lon="-7.131367810070515">
        <ele>1410.3900000000001</ele>
        <time>2019-03-15T16:31:41Z</time>
      </trkpt>
      <trkpt lat="31.133576268330216" lon="-7.131272256374359">
        <ele>1409.9100000000001</ele>
        <time>2019-03-15T16:31:42Z</time>
      </trkpt>
      <trkpt lat="31.133652711287141" lon="-7.13115063495934">
        <ele>1409.9100000000001</ele>
        <time>2019-03-15T16:31:43Z</time>
      </trkpt>
      <trkpt lat="31.133715156465769" lon="-7.131015351042152">
        <ele>1409.9100000000001</ele>
        <time>2019-03-15T16:31:44Z</time>
      </trkpt>
      <trkpt lat="31.13376796245575" lon="-7.130880989134312">
        <ele>1409.9100000000001</ele>
        <time>2019-03-15T16:31:45Z</time>
      </trkpt>
      <trkpt lat="31.133876005187631" lon="-7.13064294308424">
        <ele>1410.8699999999999</ele>
        <time>2019-03-15T16:31:47Z</time>
      </trkpt>
      <trkpt lat="31.133947083726525" lon="-7.130538756027818">
        <ele>1411.3499999999999</ele>
        <time>2019-03-15T16:31:48Z</time>
      </trkpt>
      <trkpt lat="31.134032411500812" lon="-7.130447560921311">
        <ele>1412.3099999999999</ele>
        <time>2019-03-15T16:31:49Z</time>
      </trkpt>
      <trkpt lat="31.134207677096128" lon="-7.130258046090603">
        <ele>1412.79</ele>
        <time>2019-03-15T16:31:50Z</time>
      </trkpt>
      <trkpt lat="31.13426492549479" lon="-7.130135167390108">
        <ele>1412.79</ele>
        <time>2019-03-15T16:31:51Z</time>
      </trkpt>
      <trkpt lat="31.134291663765907" lon="-7.130000554025173">
        <ele>1412.79</ele>
        <time>2019-03-15T16:31:52Z</time>
      </trkpt>
      <trkpt lat="31.134289149194956" lon="-7.129871556535363">
        <ele>1413.28</ele>
        <time>2019-03-15T16:31:55Z</time>
      </trkpt>
      <trkpt lat="31.134271798655391" lon="-7.129750102758408">
        <ele>1412.79</ele>
        <time>2019-03-15T16:31:56Z</time>
      </trkpt>
      <trkpt lat="31.13425126299262" lon="-7.129529491066933">
        <ele>1412.79</ele>
        <time>2019-03-15T16:31:57Z</time>
      </trkpt>
      <trkpt lat="31.134256459772587" lon="-7.129427148029208">
        <ele>1412.79</ele>
        <time>2019-03-15T16:31:58Z</time>
      </trkpt>
      <trkpt lat="31.134273642674088" lon="-7.129332264885306">
        <ele>1412.79</ele>
        <time>2019-03-15T16:31:59Z</time>
      </trkpt>
      <trkpt lat="31.134303230792284" lon="-7.129244087263942">
        <ele>1412.3099999999999</ele>
        <time>2019-03-15T16:32:00Z</time>
      </trkpt>
      <trkpt lat="31.134343631565571" lon="-7.129160603508353">
        <ele>1413.28</ele>
        <time>2019-03-15T16:32:01Z</time>
      </trkpt>
      <trkpt lat="31.134390821680427" lon="-7.129078796133399">
        <ele>1414.72</ele>
        <time>2019-03-15T16:32:03Z</time>
      </trkpt>
      <trkpt lat="31.134442035108805" lon="-7.12899430654943">
        <ele>1415.2</ele>
        <time>2019-03-15T16:32:04Z</time>
      </trkpt>
      <trkpt lat="31.134661892428994" lon="-7.128605134785175">
        <ele>1415.6800000000001</ele>
        <time>2019-03-15T16:32:05Z</time>
      </trkpt>
      <trkpt lat="31.134691815823317" lon="-7.128483178094029">
        <ele>1416.1600000000001</ele>
        <time>2019-03-15T16:32:06Z</time>
      </trkpt>
      <trkpt lat="31.134849898517132" lon="-7.127463351935148">
        <ele>1416.6400000000001</ele>
        <time>2019-03-15T16:32:07Z</time>
      </trkpt>
      <trkpt lat="31.134850401431322" lon="-7.127303006127477">
        <ele>1416.6400000000001</ele>
        <time>2019-03-15T16:32:08Z</time>
      </trkpt>
      <trkpt lat="31.134836068376899" lon="-7.12688634172082">
        <ele>1417.1199999999999</ele>
        <time>2019-03-15T16:32:09Z</time>
      </trkpt>
      <trkpt lat="31.134857106953859" lon="-7.126792296767235">
        <ele>1417.5999999999999</ele>
        <time>2019-03-15T16:32:10Z</time>
      </trkpt>
      <trkpt lat="31.134900189936161" lon="-7.126722726970911">
        <ele>1418.0799999999999</ele>
        <time>2019-03-15T16:32:11Z</time>
      </trkpt>
      <trkpt lat="31.13496171310544" lon="-7.126676207408309">
        <ele>1418.0799999999999</ele>
        <time>2019-03-15T16:32:12Z</time>
      </trkpt>
      <trkpt lat="31.135036144405603" lon="-7.126657348126173">
        <ele>1419.04</ele>
        <time>2019-03-15T16:32:13Z</time>
      </trkpt>
      <trkpt lat="31.135121723636985" lon="-7.126661036163569">
        <ele>1419.52</ele>
        <time>2019-03-15T16:32:14Z</time>
      </trkpt>
      <trkpt lat="31.135215852409601" lon="-7.126678638160229">
        <ele>1420.49</ele>
        <time>2019-03-15T16:32:15Z</time>
      </trkpt>
      <trkpt lat="31.135318614542484" lon="-7.126707807183266">
        <ele>1424.3299999999999</ele>
        <time>2019-03-15T16:32:16Z</time>
      </trkpt>
      <trkpt lat="31.135429507121444" lon="-7.126749297603965">
        <ele>1435.3900000000001</ele>
        <time>2019-03-15T16:32:17Z</time>
      </trkpt>
      <trkpt lat="31.13554266281426" lon="-7.126799589022994">
        <ele>1444.52</ele>
        <time>2019-03-15T16:32:18Z</time>
      </trkpt>
      <trkpt lat="31.135774338617921" lon="-7.126922216266394">
        <ele>1445</ele>
        <time>2019-03-15T16:32:20Z</time>
      </trkpt>
      <trkpt lat="31.135886907577515" lon="-7.12700410746038">
        <ele>1445.48</ele>
        <time>2019-03-15T16:32:21Z</time>
      </trkpt>
      <trkpt lat="31.135997213423252" lon="-7.127100666984916">
        <ele>1445.48</ele>
        <time>2019-03-15T16:32:22Z</time>
      </trkpt>
      <trkpt lat="31.136374650523067" lon="-7.127519426867366">
        <ele>1445.48</ele>
        <time>2019-03-15T16:32:23Z</time>
      </trkpt>
      <trkpt lat="31.137286266312003" lon="-7.128987517207861">
        <ele>1445.48</ele>
        <time>2019-03-15T16:32:24Z</time>
      </trkpt>
      <trkpt lat="31.138385552912951" lon="-7.130084708333015">
        <ele>1444.52</ele>
        <time>2019-03-15T16:32:30Z</time>
      </trkpt>
      <trkpt lat="31.138494433835149" lon="-7.130135167390108">
        <ele>1444.04</ele>
        <time>2019-03-15T16:32:31Z</time>
      </trkpt>
      <trkpt lat="31.138598201796412" lon="-7.130160480737686">
        <ele>1443.5599999999999</ele>
        <time>2019-03-15T16:32:32Z</time>
      </trkpt>
      <trkpt lat="31.138695683330297" lon="-7.130152266472578">
        <ele>1442.5999999999999</ele>
        <time>2019-03-15T16:32:40Z</time>
      </trkpt>
      <trkpt lat="31.138785285875201" lon="-7.130126031115651">
        <ele>1440.1900000000001</ele>
        <time>2019-03-15T16:32:41Z</time>
      </trkpt>
      <trkpt lat="31.13886633887887" lon="-7.1301044896245">
        <ele>1440.1900000000001</ele>
        <time>2019-03-15T16:32:42Z</time>
      </trkpt>
      <trkpt lat="31.138940351083875" lon="-7.130102897062898">
        <ele>1439.71</ele>
        <time>2019-03-15T16:32:43Z</time>
      </trkpt>
      <trkpt lat="31.139010088518262" lon="-7.130133239552379">
        <ele>1439.23</ele>
        <time>2019-03-15T16:32:44Z</time>
      </trkpt>
      <trkpt lat="31.139075299724936" lon="-7.130194762721658">
        <ele>1438.75</ele>
        <time>2019-03-15T16:32:45Z</time>
      </trkpt>
      <trkpt lat="31.139138080179691" lon="-7.130275815725327">
        <ele>1438.27</ele>
        <time>2019-03-15T16:32:46Z</time>
      </trkpt>
      <trkpt lat="31.139588356018066" lon="-7.1308574359864">
        <ele>1437.3099999999999</ele>
        <time>2019-03-15T16:32:52Z</time>
      </trkpt>
      <trkpt lat="31.13965256139636" lon="-7.130903284996748">
        <ele>1436.8299999999999</ele>
        <time>2019-03-15T16:32:53Z</time>
      </trkpt>
      <trkpt lat="31.139730680733919" lon="-7.130931364372373">
        <ele>1434.9100000000001</ele>
        <time>2019-03-15T16:32:54Z</time>
      </trkpt>
      <trkpt lat="31.139817181974649" lon="-7.130938405171037">
        <ele>1434.4200000000001</ele>
        <time>2019-03-15T16:32:55Z</time>
      </trkpt>
      <trkpt lat="31.139905275776982" lon="-7.130917366594076">
        <ele>1433.46</ele>
        <time>2019-03-15T16:32:56Z</time>
      </trkpt>
      <trkpt lat="31.139987083151937" lon="-7.130866907536984">
        <ele>1432.02</ele>
        <time>2019-03-15T16:32:57Z</time>
      </trkpt>
      <trkpt lat="31.140058329328895" lon="-7.130802283063531">
        <ele>1431.0599999999999</ele>
        <time>2019-03-15T16:32:58Z</time>
      </trkpt>
      <trkpt lat="31.140119768679142" lon="-7.130736652761698">
        <ele>1430.5799999999999</ele>
        <time>2019-03-15T16:32:59Z</time>
      </trkpt>
      <trkpt lat="31.140232756733894" lon="-7.13063363917172">
        <ele>1428.6600000000001</ele>
        <time>2019-03-15T16:33:08Z</time>
      </trkpt>
      <trkpt lat="31.140304589644074" lon="-7.130611594766378">
        <ele>1428.6600000000001</ele>
        <time>2019-03-15T16:33:18Z</time>
      </trkpt>
      <trkpt lat="31.140384553000331" lon="-7.130617797374725">
        <ele>1428.1800000000001</ele>
        <time>2019-03-15T16:33:20Z</time>
      </trkpt>
      <trkpt lat="31.140469713136554" lon="-7.130646212026477">
        <ele>1427.7</ele>
        <time>2019-03-15T16:33:21Z</time>
      </trkpt>
      <trkpt lat="31.14055747166276" lon="-7.130689881742001">
        <ele>1427.21</ele>
        <time>2019-03-15T16:33:22Z</time>
      </trkpt>
      <trkpt lat="31.140645230188966" lon="-7.130743525922298">
        <ele>1426.73</ele>
        <time>2019-03-15T16:33:26Z</time>
      </trkpt>
      <trkpt lat="31.140911942347884" lon="-7.130907475948334">
        <ele>1426.25</ele>
        <time>2019-03-15T16:33:27Z</time>
      </trkpt>
      <trkpt lat="31.140988552942872" lon="-7.130973106250167">
        <ele>1425.29</ele>
        <time>2019-03-15T16:33:28Z</time>
      </trkpt>
      <trkpt lat="31.141054350882769" lon="-7.131053572520614">
        <ele>1424.8099999999999</ele>
        <time>2019-03-15T16:33:29Z</time>
      </trkpt>
      <trkpt lat="31.141104893758893" lon="-7.131148707121611">
        <ele>1423.8499999999999</ele>
        <time>2019-03-15T16:33:30Z</time>
      </trkpt>
      <trkpt lat="31.141143450513482" lon="-7.131258510053158">
        <ele>1423.3699999999999</ele>
        <time>2019-03-15T16:33:31Z</time>
      </trkpt>
      <trkpt lat="31.141171948984265" lon="-7.131376024335623">
        <ele>1422.4100000000001</ele>
        <time>2019-03-15T16:33:32Z</time>
      </trkpt>
      <trkpt lat="31.141198268160224" lon="-7.131494879722595">
        <ele>1421.45</ele>
        <time>2019-03-15T16:33:33Z</time>
      </trkpt>
      <trkpt lat="31.141268005594611" lon="-7.131719682365656">
        <ele>1420.97</ele>
        <time>2019-03-15T16:33:34Z</time>
      </trkpt>
      <trkpt lat="31.141324248164892" lon="-7.131820851936936">
        <ele>1420.49</ele>
        <time>2019-03-15T16:33:35Z</time>
      </trkpt>
      <trkpt lat="31.141392309218645" lon="-7.131914226338267">
        <ele>1419.52</ele>
        <time>2019-03-15T16:33:44Z</time>
      </trkpt>
      <trkpt lat="31.141459532082081" lon="-7.13200718164444">
        <ele>1419.52</ele>
        <time>2019-03-15T16:33:45Z</time>
      </trkpt>
      <trkpt lat="31.14151619374752" lon="-7.132111620157957">
        <ele>1419.52</ele>
        <time>2019-03-15T16:33:46Z</time>
      </trkpt>
      <trkpt lat="31.141558773815632" lon="-7.132232487201691">
        <ele>1418.5599999999999</ele>
        <time>2019-03-15T16:33:47Z</time>
      </trkpt>
      <trkpt lat="31.141585847362876" lon="-7.132364921271801">
        <ele>1418.0799999999999</ele>
        <time>2019-03-15T16:33:48Z</time>
      </trkpt>
      <trkpt lat="31.141590541228652" lon="-7.132497103884816">
        <ele>1417.1199999999999</ele>
        <time>2019-03-15T16:33:53Z</time>
      </trkpt>
      <trkpt lat="31.141574280336499" lon="-7.132618557661772">
        <ele>1416.1600000000001</ele>
        <time>2019-03-15T16:33:54Z</time>
      </trkpt>
      <trkpt lat="31.141547039151192" lon="-7.132724085822702">
        <ele>1415.2</ele>
        <time>2019-03-15T16:33:55Z</time>
      </trkpt>
      <trkpt lat="31.141517199575901" lon="-7.132819890975952">
        <ele>1412.79</ele>
        <time>2019-03-15T16:33:56Z</time>
      </trkpt>
      <trkpt lat="31.141493478789926" lon="-7.132915779948235">
        <ele>1411.8299999999999</ele>
        <time>2019-03-15T16:33:57Z</time>
      </trkpt>
      <trkpt lat="31.141486270353198" lon="-7.133018290624023">
        <ele>1410.8699999999999</ele>
        <time>2019-03-15T16:34:05Z</time>
      </trkpt>
      <trkpt lat="31.141498424112797" lon="-7.133124656975269">
        <ele>1410.3900000000001</ele>
        <time>2019-03-15T16:34:14Z</time>
      </trkpt>
      <trkpt lat="31.141519881784916" lon="-7.133234795182943">
        <ele>1409.9100000000001</ele>
        <time>2019-03-15T16:34:21Z</time>
      </trkpt>
      <trkpt lat="31.141545530408621" lon="-7.133349375799298">
        <ele>1410.3900000000001</ele>
        <time>2019-03-15T16:34:22Z</time>
      </trkpt>
      <trkpt lat="31.14159238524735" lon="-7.133585913106799">
        <ele>1410.8699999999999</ele>
        <time>2019-03-15T16:34:26Z</time>
      </trkpt>
      <trkpt lat="31.141600767150521" lon="-7.13370468467474">
        <ele>1411.3499999999999</ele>
        <time>2019-03-15T16:34:27Z</time>
      </trkpt>
      <trkpt lat="31.14159238524735" lon="-7.133825300261378">
        <ele>1415.2</ele>
        <time>2019-03-15T16:34:34Z</time>
      </trkpt>
      <trkpt lat="31.141568245366216" lon="-7.133944658562541">
        <ele>1415.2</ele>
        <time>2019-03-15T16:34:35Z</time>
      </trkpt>
      <trkpt lat="31.141534298658371" lon="-7.134065357968211">
        <ele>1415.2</ele>
        <time>2019-03-15T16:34:36Z</time>
      </trkpt>
      <trkpt lat="31.141370683908463" lon="-7.134813359007239">
        <ele>1415.6800000000001</ele>
        <time>2019-03-15T16:34:46Z</time>
      </trkpt>
      <trkpt lat="31.141379065811634" lon="-7.13492919690907">
        <ele>1415.6800000000001</ele>
        <time>2019-03-15T16:34:51Z</time>
      </trkpt>
      <trkpt lat="31.141406474635005" lon="-7.135042436420918">
        <ele>1416.1600000000001</ele>
        <time>2019-03-15T16:34:52Z</time>
      </trkpt>
      <trkpt lat="31.14157285541296" lon="-7.136008283123374">
        <ele>1416.1600000000001</ele>
        <time>2019-03-15T16:34:53Z</time>
      </trkpt>
      <trkpt lat="31.141563886776567" lon="-7.136144153773785">
        <ele>1418.5599999999999</ele>
        <time>2019-03-15T16:34:54Z</time>
      </trkpt>
      <trkpt lat="31.141541674733162" lon="-7.136283377185464">
        <ele>1419.04</ele>
        <time>2019-03-15T16:34:55Z</time>
      </trkpt>
      <trkpt lat="31.141508314758539" lon="-7.136425618082285">
        <ele>1419.52</ele>
        <time>2019-03-15T16:34:56Z</time>
      </trkpt>
      <trkpt lat="31.141464812681079" lon="-7.136566266417503">
        <ele>1420</ele>
        <time>2019-03-15T16:34:57Z</time>
      </trkpt>
      <trkpt lat="31.14141552709043" lon="-7.136701215058565">
        <ele>1420.49</ele>
        <time>2019-03-15T16:34:58Z</time>
      </trkpt>
      <trkpt lat="31.141360625624657" lon="-7.136833062395454">
        <ele>1420.97</ele>
        <time>2019-03-15T16:34:59Z</time>
      </trkpt>
      <trkpt lat="31.141110258176923" lon="-7.137630851939321">
        <ele>1421.45</ele>
        <time>2019-03-15T16:35:00Z</time>
      </trkpt>
      <trkpt lat="31.141099194064736" lon="-7.137769069522619">
        <ele>1421.9300000000001</ele>
        <time>2019-03-15T16:35:01Z</time>
      </trkpt>
      <trkpt lat="31.141102127730846" lon="-7.137907203286886">
        <ele>1422.8900000000001</ele>
        <time>2019-03-15T16:35:02Z</time>
      </trkpt>
      <trkpt lat="31.141118640080094" lon="-7.138047767803073">
        <ele>1422.4100000000001</ele>
        <time>2019-03-15T16:35:03Z</time>
      </trkpt>
      <trkpt lat="31.141148395836353" lon="-7.138190846890211">
        <ele>1422.8900000000001</ele>
        <time>2019-03-15T16:35:04Z</time>
      </trkpt>
      <trkpt lat="31.141189970076084" lon="-7.138334680348635">
        <ele>1423.3699999999999</ele>
        <time>2019-03-15T16:35:05Z</time>
      </trkpt>
      <trkpt lat="31.141242356970906" lon="-7.138477843254805">
        <ele>1423.3699999999999</ele>
        <time>2019-03-15T16:35:09Z</time>
      </trkpt>
      <trkpt lat="31.141302539035678" lon="-7.138622933998704">
        <ele>1423.3699999999999</ele>
        <time>2019-03-15T16:35:10Z</time>
      </trkpt>
      <trkpt lat="31.142117762938142" lon="-7.139872927218676">
        <ele>1423.3699999999999</ele>
        <time>2019-03-15T16:35:11Z</time>
      </trkpt>
      <trkpt lat="31.143476637080312" lon="-7.14087238535285">
        <ele>1423.8499999999999</ele>
        <time>2019-03-15T16:35:12Z</time>
      </trkpt>
      <trkpt lat="31.143734380602837" lon="-7.141073383390904">
        <ele>1423.8499999999999</ele>
        <time>2019-03-15T16:35:13Z</time>
      </trkpt>
      <trkpt lat="31.143868323415518" lon="-7.141144461929798">
        <ele>1423.8499999999999</ele>
        <time>2019-03-15T16:35:14Z</time>
      </trkpt>
      <trkpt lat="31.144009558483958" lon="-7.141188299283385">
        <ele>1423.3699999999999</ele>
        <time>2019-03-15T16:35:15Z</time>
      </trkpt>
      <trkpt lat="31.144581707194448" lon="-7.141298102214932">
        <ele>1423.3699999999999</ele>
        <time>2019-03-15T16:35:16Z</time>
      </trkpt>
      <trkpt lat="31.144700227305293" lon="-7.141349818557501">
        <ele>1423.3699999999999</ele>
        <time>2019-03-15T16:35:17Z</time>
      </trkpt>
      <trkpt lat="31.14480609074235" lon="-7.141415029764175">
        <ele>1423.8499999999999</ele>
        <time>2019-03-15T16:35:18Z</time>
      </trkpt>
      <trkpt lat="31.144906422123313" lon="-7.141481079161167">
        <ele>1423.8499999999999</ele>
        <time>2019-03-15T16:35:19Z</time>
      </trkpt>
      <trkpt lat="31.145009938627481" lon="-7.141520474106073">
        <ele>1424.3299999999999</ele>
        <time>2019-03-15T16:35:28Z</time>
      </trkpt>
      <trkpt lat="31.145120412111282" lon="-7.141515696421266">
        <ele>1423.8499999999999</ele>
        <time>2019-03-15T16:35:29Z</time>
      </trkpt>
      <trkpt lat="31.145231388509274" lon="-7.141479402780533">
        <ele>1423.3699999999999</ele>
        <time>2019-03-15T16:35:30Z</time>
      </trkpt>
      <trkpt lat="31.145342532545328" lon="-7.141429949551821">
        <ele>1423.3699999999999</ele>
        <time>2019-03-15T16:35:31Z</time>
      </trkpt>
      <trkpt lat="31.145454263314605" lon="-7.141369348391891">
        <ele>1422.8900000000001</ele>
        <time>2019-03-15T16:35:32Z</time>
      </trkpt>
      <trkpt lat="31.14556591026485" lon="-7.141300197690725">
        <ele>1424.3299999999999</ele>
        <time>2019-03-15T16:35:33Z</time>
      </trkpt>
      <trkpt lat="31.146648013964295" lon="-7.140823937952519">
        <ele>1424.8099999999999</ele>
        <time>2019-03-15T16:35:34Z</time>
      </trkpt>
      <trkpt lat="31.146748764440417" lon="-7.140761241316795">
        <ele>1425.29</ele>
        <time>2019-03-15T16:35:35Z</time>
      </trkpt>
      <trkpt lat="31.146846581250429" lon="-7.140684379264712">
        <ele>1426.25</ele>
        <time>2019-03-15T16:35:36Z</time>
      </trkpt>
      <trkpt lat="31.146938782185316" lon="-7.140597207471728">
        <ele>1426.73</ele>
        <time>2019-03-15T16:35:37Z</time>
      </trkpt>
      <trkpt lat="31.147028636187315" lon="-7.140508526936173">
        <ele>1428.6600000000001</ele>
        <time>2019-03-15T16:35:38Z</time>
      </trkpt>
      <trkpt lat="31.147467931732535" lon="-7.140088090673089">
        <ele>1433.46</ele>
        <time>2019-03-15T16:35:39Z</time>
      </trkpt>
      <trkpt lat="31.147538758814335" lon="-7.139990525320172">
        <ele>1437.79</ele>
        <time>2019-03-15T16:35:40Z</time>
      </trkpt>
      <trkpt lat="31.147597935050726" lon="-7.13988239876926">
        <ele>1438.27</ele>
        <time>2019-03-15T16:35:41Z</time>
      </trkpt>
      <trkpt lat="31.147644454613328" lon="-7.139764381572604">
        <ele>1440.1900000000001</ele>
        <time>2019-03-15T16:35:42Z</time>
      </trkpt>
      <trkpt lat="31.147679071873426" lon="-7.13964493945241">
        <ele>1440.1900000000001</ele>
        <time>2019-03-15T16:35:44Z</time>
      </trkpt>
      <trkpt lat="31.147748306393623" lon="-7.138832984492183">
        <ele>1442.1099999999999</ele>
        <time>2019-03-15T16:35:45Z</time>
      </trkpt>
      <trkpt lat="31.147734057158232" lon="-7.137632025405765">
        <ele>1442.1099999999999</ele>
        <time>2019-03-15T16:35:51Z</time>
      </trkpt>
      <trkpt lat="31.148003619164228" lon="-7.136572888121009">
        <ele>1442.5999999999999</ele>
        <time>2019-03-15T16:35:52Z</time>
      </trkpt>
      <trkpt lat="31.148069081827998" lon="-7.136429389938712">
        <ele>1451.25</ele>
        <time>2019-03-15T16:35:53Z</time>
      </trkpt>
      <trkpt lat="31.14834476262331" lon="-7.13589034974575">
        <ele>1452.21</ele>
        <time>2019-03-15T16:35:54Z</time>
      </trkpt>
      <trkpt lat="31.148391868919134" lon="-7.135745259001851">
        <ele>1452.21</ele>
        <time>2019-03-15T16:35:55Z</time>
      </trkpt>
      <trkpt lat="31.148616001009941" lon="-7.134705483913422">
        <ele>1451.73</ele>
        <time>2019-03-15T16:35:57Z</time>
      </trkpt>
      <trkpt lat="31.148604266345501" lon="-7.134570702910423">
        <ele>1451.73</ele>
        <time>2019-03-15T16:35:58Z</time>
      </trkpt>
      <trkpt lat="31.148566631600261" lon="-7.134442459791899">
        <ele>1451.73</ele>
        <time>2019-03-15T16:35:59Z</time>
      </trkpt>
      <trkpt lat="31.148177878931165" lon="-7.133228927850723">
        <ele>1450.77</ele>
        <time>2019-03-15T16:36:00Z</time>
      </trkpt>
      <trkpt lat="31.148062124848366" lon="-7.132600536569953">
        <ele>1450.29</ele>
        <time>2019-03-15T16:36:01Z</time>
      </trkpt>
      <trkpt lat="31.148062879219651" lon="-7.132483860477805">
        <ele>1449.8099999999999</ele>
        <time>2019-03-15T16:36:02Z</time>
      </trkpt>
      <trkpt lat="31.148083498701453" lon="-7.132373638451099">
        <ele>1449.3199999999999</ele>
        <time>2019-03-15T16:36:08Z</time>
      </trkpt>
      <trkpt lat="31.148122893646359" lon="-7.132272552698851">
        <ele>1448.3599999999999</ele>
        <time>2019-03-15T16:36:09Z</time>
      </trkpt>
      <trkpt lat="31.14817033521831" lon="-7.132178507745266">
        <ele>1447.8800000000001</ele>
        <time>2019-03-15T16:36:10Z</time>
      </trkpt>
      <trkpt lat="31.148210819810629" lon="-7.132083373144269">
        <ele>1447.4000000000001</ele>
        <time>2019-03-15T16:36:11Z</time>
      </trkpt>
      <trkpt lat="31.148232026025653" lon="-7.131984131410718">
        <ele>1446.9200000000001</ele>
        <time>2019-03-15T16:36:12Z</time>
      </trkpt>
      <trkpt lat="31.14823336713016" lon="-7.13188354857266">
        <ele>1446.4400000000001</ele>
        <time>2019-03-15T16:36:19Z</time>
      </trkpt>
      <trkpt lat="31.148216351866722" lon="-7.131785983219743">
        <ele>1445.96</ele>
        <time>2019-03-15T16:36:27Z</time>
      </trkpt>
      <trkpt lat="31.148196989670396" lon="-7.131691100075841">
        <ele>1443.0799999999999</ele>
        <time>2019-03-15T16:36:38Z</time>
      </trkpt>
      <trkpt lat="31.148185422644019" lon="-7.131600491702557">
        <ele>1442.5999999999999</ele>
        <time>2019-03-15T16:36:41Z</time>
      </trkpt>
      <trkpt lat="31.148187182843685" lon="-7.131514325737953">
        <ele>1442.1099999999999</ele>
        <time>2019-03-15T16:36:42Z</time>
      </trkpt>
      <trkpt lat="31.148202018812299" lon="-7.131433356553316">
        <ele>1442.1099999999999</ele>
        <time>2019-03-15T16:36:43Z</time>
      </trkpt>
      <trkpt lat="31.148224733769894" lon="-7.131360098719597">
        <ele>1441.6300000000001</ele>
        <time>2019-03-15T16:36:44Z</time>
      </trkpt>
      <trkpt lat="31.148249879479408" lon="-7.131292456761003">
        <ele>1441.6300000000001</ele>
        <time>2019-03-15T16:36:45Z</time>
      </trkpt>
      <trkpt lat="31.14833302795887" lon="-7.131044268608093">
        <ele>1441.6300000000001</ele>
        <time>2019-03-15T16:36:46Z</time>
      </trkpt>
      <trkpt lat="31.148365633562207" lon="-7.130984589457512">
        <ele>1441.6300000000001</ele>
        <time>2019-03-15T16:36:47Z</time>
      </trkpt>
      <trkpt lat="31.148408884182572" lon="-7.13093614205718">
        <ele>1442.1099999999999</ele>
        <time>2019-03-15T16:36:48Z</time>
      </trkpt>
      <trkpt lat="31.148467976599932" lon="-7.130907643586397">
        <ele>1442.1099999999999</ele>
        <time>2019-03-15T16:36:49Z</time>
      </trkpt>
      <trkpt lat="31.148541821166873" lon="-7.130909068509936">
        <ele>1442.1099999999999</ele>
        <time>2019-03-15T16:36:50Z</time>
      </trkpt>
      <trkpt lat="31.148618264123797" lon="-7.130943601951003">
        <ele>1444.52</ele>
        <time>2019-03-15T16:36:51Z</time>
      </trkpt>
      <trkpt lat="31.148688588291407" lon="-7.131004119291902">
        <ele>1444.52</ele>
        <time>2019-03-15T16:36:52Z</time>
      </trkpt>
      <trkpt lat="31.148737957701087" lon="-7.131084585562348">
        <ele>1445</ele>
        <time>2019-03-15T16:36:53Z</time>
      </trkpt>
      <trkpt lat="31.148764193058014" lon="-7.131184665486217">
        <ele>1445</ele>
        <time>2019-03-15T16:36:54Z</time>
      </trkpt>
      <trkpt lat="31.148774838075042" lon="-7.131295390427113">
        <ele>1445.48</ele>
        <time>2019-03-15T16:37:02Z</time>
      </trkpt>
      <trkpt lat="31.148779448121786" lon="-7.13140913285315">
        <ele>1445.48</ele>
        <time>2019-03-15T16:37:09Z</time>
      </trkpt>
      <trkpt lat="31.148979943245649" lon="-7.132422756403685">
        <ele>1445.96</ele>
        <time>2019-03-15T16:37:10Z</time>
      </trkpt>
      <trkpt lat="31.149029731750488" lon="-7.132506743073463">
        <ele>1445.96</ele>
        <time>2019-03-15T16:37:11Z</time>
      </trkpt>
      <trkpt lat="31.149095613509417" lon="-7.132576899603009">
        <ele>1446.4400000000001</ele>
        <time>2019-03-15T16:37:12Z</time>
      </trkpt>
      <trkpt lat="31.149170463904738" lon="-7.132637165486813">
        <ele>1446.4400000000001</ele>
        <time>2019-03-15T16:37:13Z</time>
      </trkpt>
      <trkpt lat="31.149244727566838" lon="-7.132697263732553">
        <ele>1446.9200000000001</ele>
        <time>2019-03-15T16:37:14Z</time>
      </trkpt>
      <trkpt lat="31.149308765307069" lon="-7.132762307301164">
        <ele>1447.4000000000001</ele>
        <time>2019-03-15T16:37:22Z</time>
      </trkpt>
      <trkpt lat="31.14935620687902" lon="-7.132830284535885">
        <ele>1447.8800000000001</ele>
        <time>2019-03-15T16:37:23Z</time>
      </trkpt>
      <trkpt lat="31.149382358416915" lon="-7.132905386388302">
        <ele>1448.8399999999999</ele>
        <time>2019-03-15T16:37:24Z</time>
      </trkpt>
      <trkpt lat="31.149383531883359" lon="-7.132987529039383">
        <ele>1449.3199999999999</ele>
        <time>2019-03-15T16:37:25Z</time>
      </trkpt>
      <trkpt lat="31.149364002048969" lon="-7.133070342242718">
        <ele>1450.29</ele>
        <time>2019-03-15T16:37:26Z</time>
      </trkpt>
      <trkpt lat="31.149339359253645" lon="-7.133152401074767">
        <ele>1451.25</ele>
        <time>2019-03-15T16:37:27Z</time>
      </trkpt>
      <trkpt lat="31.149325277656317" lon="-7.133232867345214">
        <ele>1454.1300000000001</ele>
        <time>2019-03-15T16:37:28Z</time>
      </trkpt>
      <trkpt lat="31.149328211322427" lon="-7.13330989703536">
        <ele>1454.6099999999999</ele>
        <time>2019-03-15T16:37:31Z</time>
      </trkpt>
      <trkpt lat="31.149343131110072" lon="-7.133379131555557">
        <ele>1454.6099999999999</ele>
        <time>2019-03-15T16:37:32Z</time>
      </trkpt>
      <trkpt lat="31.149365594610572" lon="-7.133447779342532">
        <ele>1454.6099999999999</ele>
        <time>2019-03-15T16:37:33Z</time>
      </trkpt>
      <trkpt lat="31.149420328438282" lon="-7.13358691893518">
        <ele>1454.6099999999999</ele>
        <time>2019-03-15T16:37:34Z</time>
      </trkpt>
      <trkpt lat="31.149464501067996" lon="-7.133652465417981">
        <ele>1454.6099999999999</ele>
        <time>2019-03-15T16:37:35Z</time>
      </trkpt>
      <trkpt lat="31.149797849357128" lon="-7.134138029068708">
        <ele>1455.0899999999999</ele>
        <time>2019-03-15T16:37:36Z</time>
      </trkpt>
      <trkpt lat="31.149840261787176" lon="-7.134243976324797">
        <ele>1455.5699999999999</ele>
        <time>2019-03-15T16:37:37Z</time>
      </trkpt>
      <trkpt lat="31.149875968694687" lon="-7.134354701265693">
        <ele>1456.05</ele>
        <time>2019-03-15T16:37:38Z</time>
      </trkpt>
      <trkpt lat="31.149903880432248" lon="-7.134465929120779">
        <ele>1456.05</ele>
        <time>2019-03-15T16:37:39Z</time>
      </trkpt>
      <trkpt lat="31.149926846846938" lon="-7.134572127833962">
        <ele>1456.53</ele>
        <time>2019-03-15T16:37:40Z</time>
      </trkpt>
      <trkpt lat="31.149977724999189" lon="-7.134739262983203">
        <ele>1456.53</ele>
        <time>2019-03-15T16:37:50Z</time>
      </trkpt>
      <trkpt lat="31.150021646171808" lon="-7.13480212725699">
        <ele>1457.02</ele>
        <time>2019-03-15T16:37:52Z</time>
      </trkpt>
      <trkpt lat="31.150083336979151" lon="-7.134850071743131">
        <ele>1457.02</ele>
        <time>2019-03-15T16:37:53Z</time>
      </trkpt>
      <trkpt lat="31.150159109383821" lon="-7.134886784479022">
        <ele>1457.02</ele>
        <time>2019-03-15T16:37:54Z</time>
      </trkpt>
      <trkpt lat="31.150244437158108" lon="-7.134918803349137">
        <ele>1457.02</ele>
        <time>2019-03-15T16:37:58Z</time>
      </trkpt>
      <trkpt lat="31.150334710255265" lon="-7.134946379810572">
        <ele>1457.5</ele>
        <time>2019-03-15T16:38:04Z</time>
      </trkpt>
      <trkpt lat="31.150844497606158" lon="-7.135156011208892">
        <ele>1456.53</ele>
        <time>2019-03-15T16:38:05Z</time>
      </trkpt>
      <trkpt lat="31.150909373536706" lon="-7.135164309293032">
        <ele>1454.6099999999999</ele>
        <time>2019-03-15T16:38:06Z</time>
      </trkpt>
      <trkpt lat="31.150972489267588" lon="-7.135136900469661">
        <ele>1452.21</ele>
        <time>2019-03-15T16:38:07Z</time>
      </trkpt>
      <trkpt lat="31.151032252237201" lon="-7.135079987347126">
        <ele>1451.73</ele>
        <time>2019-03-15T16:38:08Z</time>
      </trkpt>
      <trkpt lat="31.15109377540648" lon="-7.135010836645961">
        <ele>1451.25</ele>
        <time>2019-03-15T16:38:10Z</time>
      </trkpt>
      <trkpt lat="31.151760052889585" lon="-7.134393593296409">
        <ele>1450.77</ele>
        <time>2019-03-15T16:38:11Z</time>
      </trkpt>
      <trkpt lat="31.152762025594711" lon="-7.133554732427001">
        <ele>1450.29</ele>
        <time>2019-03-15T16:38:19Z</time>
      </trkpt>
      <trkpt lat="31.154329190030694" lon="-7.132550915703178">
        <ele>1450.29</ele>
        <time>2019-03-15T16:38:20Z</time>
      </trkpt>
      <trkpt lat="31.154693970456719" lon="-7.132287723943591">
        <ele>1450.77</ele>
        <time>2019-03-15T16:38:21Z</time>
      </trkpt>
      <trkpt lat="31.154814334586263" lon="-7.132260566577315">
        <ele>1451.25</ele>
        <time>2019-03-15T16:38:29Z</time>
      </trkpt>
      <trkpt lat="31.154932687059045" lon="-7.132280515506864">
        <ele>1451.73</ele>
        <time>2019-03-15T16:38:30Z</time>
      </trkpt>
      <trkpt lat="31.155042657628655" lon="-7.132329046726227">
        <ele>1452.6900000000001</ele>
        <time>2019-03-15T16:38:36Z</time>
      </trkpt>
      <trkpt lat="31.155150197446346" lon="-7.132371626794338">
        <ele>1453.1700000000001</ele>
        <time>2019-03-15T16:38:37Z</time>
      </trkpt>
      <trkpt lat="31.155255725607276" lon="-7.132393503561616">
        <ele>1454.1300000000001</ele>
        <time>2019-03-15T16:38:38Z</time>
      </trkpt>
      <trkpt lat="31.155359745025635" lon="-7.132386714220047">
        <ele>1454.6099999999999</ele>
        <time>2019-03-15T16:38:40Z</time>
      </trkpt>
      <trkpt lat="31.155459405854344" lon="-7.132362574338913">
        <ele>1455.5699999999999</ele>
        <time>2019-03-15T16:38:41Z</time>
      </trkpt>
      <trkpt lat="31.155552361160517" lon="-7.132332483306527">
        <ele>1461.3399999999999</ele>
        <time>2019-03-15T16:38:48Z</time>
      </trkpt>
      <trkpt lat="31.155642298981547" lon="-7.132293088361621">
        <ele>1462.3</ele>
        <time>2019-03-15T16:38:49Z</time>
      </trkpt>
      <trkpt lat="31.155731901526451" lon="-7.132238438352943">
        <ele>1462.3</ele>
        <time>2019-03-15T16:38:50Z</time>
      </trkpt>
      <trkpt lat="31.155820162966847" lon="-7.132169371470809">
        <ele>1462.3</ele>
        <time>2019-03-15T16:38:57Z</time>
      </trkpt>
      <trkpt lat="31.155909597873688" lon="-7.132086725905538">
        <ele>1462.3</ele>
        <time>2019-03-15T16:39:05Z</time>
      </trkpt>
      <trkpt lat="31.15599718876183" lon="-7.131993938237429">
        <ele>1462.3</ele>
        <time>2019-03-15T16:39:08Z</time>
      </trkpt>
      <trkpt lat="31.15693487226963" lon="-7.131301006302238">
        <ele>1461.8199999999999</ele>
        <time>2019-03-15T16:39:09Z</time>
      </trkpt>
      <trkpt lat="31.157780773937702" lon="-7.130787279456854">
        <ele>1460.8599999999999</ele>
        <time>2019-03-15T16:39:10Z</time>
      </trkpt>
      <trkpt lat="31.157870544120669" lon="-7.130682338029146">
        <ele>1461.3399999999999</ele>
        <time>2019-03-15T16:39:11Z</time>
      </trkpt>
      <trkpt lat="31.157949166372418" lon="-7.130564656108618">
        <ele>1461.3399999999999</ele>
        <time>2019-03-15T16:39:12Z</time>
      </trkpt>
      <trkpt lat="31.158022256568074" lon="-7.130434736609459">
        <ele>1461.3399999999999</ele>
        <time>2019-03-15T16:39:14Z</time>
      </trkpt>
      <trkpt lat="31.158087635412812" lon="-7.130290903151035">
        <ele>1461.8199999999999</ele>
        <time>2019-03-15T16:39:15Z</time>
      </trkpt>
      <trkpt lat="31.158149745315313" lon="-7.130134413018823">
        <ele>1461.8199999999999</ele>
        <time>2019-03-15T16:39:16Z</time>
      </trkpt>
      <trkpt lat="31.15866363979876" lon="-7.128769336268306">
        <ele>1462.3</ele>
        <time>2019-03-15T16:39:18Z</time>
      </trkpt>
      <trkpt lat="31.158751398324966" lon="-7.12862391024828">
        <ele>1463.74</ele>
        <time>2019-03-15T16:39:26Z</time>
      </trkpt>
      <trkpt lat="31.15885516628623" lon="-7.128488374873996">
        <ele>1464.71</ele>
        <time>2019-03-15T16:39:28Z</time>
      </trkpt>
      <trkpt lat="31.158975278958678" lon="-7.128363652154803">
        <ele>1465.6700000000001</ele>
        <time>2019-03-15T16:39:29Z</time>
      </trkpt>
      <trkpt lat="31.159106539562345" lon="-7.128255693241954">
        <ele>1466.6300000000001</ele>
        <time>2019-03-15T16:39:30Z</time>
      </trkpt>
      <trkpt lat="31.159249031916261" lon="-7.128164079040289">
        <ele>1468.0699999999999</ele>
        <time>2019-03-15T16:39:37Z</time>
      </trkpt>
      <trkpt lat="31.159393200650811" lon="-7.12808302603662">
        <ele>1469.51</ele>
        <time>2019-03-15T16:39:38Z</time>
      </trkpt>
      <trkpt lat="31.159771056845784" lon="-7.127875573933125">
        <ele>1470.47</ele>
        <time>2019-03-15T16:39:39Z</time>
      </trkpt>
      <trkpt lat="31.159888235852122" lon="-7.127836095169187">
        <ele>1471.4400000000001</ele>
        <time>2019-03-15T16:39:41Z</time>
      </trkpt>
      <trkpt lat="31.160006923601031" lon="-7.127814972773194">
        <ele>1472.4000000000001</ele>
        <time>2019-03-15T16:39:42Z</time>
      </trkpt>
      <trkpt lat="31.16012510843575" lon="-7.12779963389039">
        <ele>1473.3599999999999</ele>
        <time>2019-03-15T16:39:43Z</time>
      </trkpt>
      <trkpt lat="31.160238096490502" lon="-7.127764346078038">
        <ele>1482.97</ele>
        <time>2019-03-15T16:39:44Z</time>
      </trkpt>
      <trkpt lat="31.160340439528227" lon="-7.127703661099076">
        <ele>1484.8900000000001</ele>
        <time>2019-03-15T16:39:45Z</time>
      </trkpt>
      <trkpt lat="31.160439513623714" lon="-7.127646412700415">
        <ele>1485.8499999999999</ele>
        <time>2019-03-15T16:39:46Z</time>
      </trkpt>
      <trkpt lat="31.160543784499168" lon="-7.127614477649331">
        <ele>1486.8199999999999</ele>
        <time>2019-03-15T16:39:47Z</time>
      </trkpt>
      <trkpt lat="31.160647552460432" lon="-7.127598635852337">
        <ele>1491.1400000000001</ele>
        <time>2019-03-15T16:39:48Z</time>
      </trkpt>
      <trkpt lat="31.160748973488808" lon="-7.127588577568531">
        <ele>1495.95</ele>
        <time>2019-03-15T16:39:49Z</time>
      </trkpt>
      <trkpt lat="31.16187633946538" lon="-7.127580782398582">
        <ele>1496.4300000000001</ele>
        <time>2019-03-15T16:39:50Z</time>
      </trkpt>
      <trkpt lat="31.162092760205269" lon="-7.127599474042654">
        <ele>1497.3900000000001</ele>
        <time>2019-03-15T16:39:51Z</time>
      </trkpt>
      <trkpt lat="31.162194767966866" lon="-7.127636857330799">
        <ele>1497.8699999999999</ele>
        <time>2019-03-15T16:39:52Z</time>
      </trkpt>
      <trkpt lat="31.162287974730134" lon="-7.127691842615604">
        <ele>1498.8299999999999</ele>
        <time>2019-03-15T16:39:53Z</time>
      </trkpt>
      <trkpt lat="31.162632387131453" lon="-7.127913292497397">
        <ele>1500.27</ele>
        <time>2019-03-15T16:39:54Z</time>
      </trkpt>
      <trkpt lat="31.163176456466317" lon="-7.12810062803328">
        <ele>1500.76</ele>
        <time>2019-03-15T16:39:55Z</time>
      </trkpt>
      <trkpt lat="31.16326798684895" lon="-7.128110015764833">
        <ele>1504.5999999999999</ele>
        <time>2019-03-15T16:39:56Z</time>
      </trkpt>
      <trkpt lat="31.163362367078662" lon="-7.128104483708739">
        <ele>1505.0799999999999</ele>
        <time>2019-03-15T16:39:57Z</time>
      </trkpt>
      <trkpt lat="31.163459597155452" lon="-7.128084534779191">
        <ele>1505.5599999999999</ele>
        <time>2019-03-15T16:39:58Z</time>
      </trkpt>
      <trkpt lat="31.163558252155781" lon="-7.128056455403566">
        <ele>1504.1199999999999</ele>
        <time>2019-03-15T16:40:07Z</time>
      </trkpt>
      <trkpt lat="31.163746090605855" lon="-7.128029214218259">
        <ele>1503.1600000000001</ele>
        <time>2019-03-15T16:40:19Z</time>
      </trkpt>
      <trkpt lat="31.163841392844915" lon="-7.12803759612143">
        <ele>1499.79</ele>
        <time>2019-03-15T16:40:27Z</time>
      </trkpt>
      <trkpt lat="31.164592411369085" lon="-7.128148404881358">
        <ele>1499.79</ele>
        <time>2019-03-15T16:40:28Z</time>
      </trkpt>
      <trkpt lat="31.164690898731351" lon="-7.128184279426932">
        <ele>1498.8299999999999</ele>
        <time>2019-03-15T16:40:29Z</time>
      </trkpt>
      <trkpt lat="31.164793577045202" lon="-7.12823398411274">
        <ele>1497.3900000000001</ele>
        <time>2019-03-15T16:40:30Z</time>
      </trkpt>
      <trkpt lat="31.165731176733971" lon="-7.128732707351446">
        <ele>1496.9100000000001</ele>
        <time>2019-03-15T16:40:31Z</time>
      </trkpt>
      <trkpt lat="31.165867634117603" lon="-7.128784172236919">
        <ele>1494.99</ele>
        <time>2019-03-15T16:40:32Z</time>
      </trkpt>
      <trkpt lat="31.166671961545944" lon="-7.129015931859613">
        <ele>1494.99</ele>
        <time>2019-03-15T16:40:33Z</time>
      </trkpt>
      <trkpt lat="31.166795594617724" lon="-7.128996988758445">
        <ele>1494.99</ele>
        <time>2019-03-15T16:40:34Z</time>
      </trkpt>
      <trkpt lat="31.166917132213712" lon="-7.128950972110033">
        <ele>1494.51</ele>
        <time>2019-03-15T16:40:35Z</time>
      </trkpt>
      <trkpt lat="31.167137157171965" lon="-7.128866231068969">
        <ele>1498.8299999999999</ele>
        <time>2019-03-15T16:40:40Z</time>
      </trkpt>
      <trkpt lat="31.167241260409355" lon="-7.128858687356114">
        <ele>1503.1600000000001</ele>
        <time>2019-03-15T16:40:48Z</time>
      </trkpt>
      <trkpt lat="31.1681386269629" lon="-7.128772269934416">
        <ele>1504.5999999999999</ele>
        <time>2019-03-15T16:41:01Z</time>
      </trkpt>
      <trkpt lat="31.168296122923493" lon="-7.12876464240253">
        <ele>1506.04</ele>
        <time>2019-03-15T16:41:03Z</time>
      </trkpt>
      <trkpt lat="31.168462838977575" lon="-7.12878224439919">
        <ele>1507.48</ele>
        <time>2019-03-15T16:41:04Z</time>
      </trkpt>
      <trkpt lat="31.169811571016908" lon="-7.128857346251607">
        <ele>1508.9300000000001</ele>
        <time>2019-03-15T16:41:05Z</time>
      </trkpt>
      <trkpt lat="31.17130933329463" lon="-7.128889616578817">
        <ele>1510.8499999999999</ele>
        <time>2019-03-15T16:41:06Z</time>
      </trkpt>
      <trkpt lat="31.171708814799786" lon="-7.128945775330067">
        <ele>1511.8099999999999</ele>
        <time>2019-03-15T16:41:07Z</time>
      </trkpt>
      <trkpt lat="31.171808559447527" lon="-7.128928089514375">
        <ele>1512.77</ele>
        <time>2019-03-15T16:41:08Z</time>
      </trkpt>
      <trkpt lat="31.171890702098608" lon="-7.128884335979819">
        <ele>1514.6900000000001</ele>
        <time>2019-03-15T16:41:09Z</time>
      </trkpt>
      <trkpt lat="31.171959601342678" lon="-7.128814263269305">
        <ele>1516.1400000000001</ele>
        <time>2019-03-15T16:41:10Z</time>
      </trkpt>
      <trkpt lat="31.172023974359035" lon="-7.128730528056622">
        <ele>1516.6199999999999</ele>
        <time>2019-03-15T16:41:20Z</time>
      </trkpt>
      <trkpt lat="31.172165712341666" lon="-7.128564985468984">
        <ele>1517.0999999999999</ele>
        <time>2019-03-15T16:41:28Z</time>
      </trkpt>
      <trkpt lat="31.17224458605051" lon="-7.128501953557134">
        <ele>1517.0999999999999</ele>
        <time>2019-03-15T16:41:29Z</time>
      </trkpt>
      <trkpt lat="31.172327985987067" lon="-7.12845241650939">
        <ele>1519.98</ele>
        <time>2019-03-15T16:41:30Z</time>
      </trkpt>
      <trkpt lat="31.172506185248494" lon="-7.128344960510731">
        <ele>1520.46</ele>
        <time>2019-03-15T16:41:31Z</time>
      </trkpt>
      <trkpt lat="31.173442946746945" lon="-7.127643059939146">
        <ele>1521.4200000000001</ele>
        <time>2019-03-15T16:41:32Z</time>
      </trkpt>
      <trkpt lat="31.173682250082493" lon="-7.127478439360857">
        <ele>1522.8699999999999</ele>
        <time>2019-03-15T16:41:33Z</time>
      </trkpt>
      <trkpt lat="31.173782832920551" lon="-7.127367882058024">
        <ele>1523.3499999999999</ele>
        <time>2019-03-15T16:41:34Z</time>
      </trkpt>
      <trkpt lat="31.173871513456106" lon="-7.12723670527339">
        <ele>1524.3099999999999</ele>
        <time>2019-03-15T16:41:35Z</time>
      </trkpt>
      <trkpt lat="31.174516584724188" lon="-7.126314528286457">
        <ele>1524.3099999999999</ele>
        <time>2019-03-15T16:41:43Z</time>
      </trkpt>
      <trkpt lat="31.174614736810327" lon="-7.126246048137546">
        <ele>1524.3099999999999</ele>
        <time>2019-03-15T16:41:51Z</time>
      </trkpt>
      <trkpt lat="31.174718923866749" lon="-7.126208581030369">
        <ele>1524.3099999999999</ele>
        <time>2019-03-15T16:41:52Z</time>
      </trkpt>
      <trkpt lat="31.174911120906472" lon="-7.126150913536549">
        <ele>1524.79</ele>
        <time>2019-03-15T16:41:53Z</time>
      </trkpt>
      <trkpt lat="31.174987982958555" lon="-7.126094335690141">
        <ele>1525.27</ele>
        <time>2019-03-15T16:41:54Z</time>
      </trkpt>
      <trkpt lat="31.1750478297472" lon="-7.126011438667774">
        <ele>1525.27</ele>
        <time>2019-03-15T16:41:55Z</time>
      </trkpt>
      <trkpt lat="31.175091834738851" lon="-7.125909682363272">
        <ele>1525.27</ele>
        <time>2019-03-15T16:41:56Z</time>
      </trkpt>
      <trkpt lat="31.175130475312471" lon="-7.125802561640739">
        <ele>1525.75</ele>
        <time>2019-03-15T16:41:57Z</time>
      </trkpt>
      <trkpt lat="31.175179928541183" lon="-7.125710025429726">
        <ele>1526.23</ele>
        <time>2019-03-15T16:41:58Z</time>
      </trkpt>
      <trkpt lat="31.175246899947524" lon="-7.125638695433736">
        <ele>1526.71</ele>
        <time>2019-03-15T16:41:59Z</time>
      </trkpt>
      <trkpt lat="31.175332143902779" lon="-7.125595528632402">
        <ele>1526.71</ele>
        <time>2019-03-15T16:42:00Z</time>
      </trkpt>
      <trkpt lat="31.17542895488441" lon="-7.125581530854106">
        <ele>1526.71</ele>
        <time>2019-03-15T16:42:01Z</time>
      </trkpt>
      <trkpt lat="31.175527106970549" lon="-7.125594774261117">
        <ele>1527.1900000000001</ele>
        <time>2019-03-15T16:42:02Z</time>
      </trkpt>
      <trkpt lat="31.175617631524801" lon="-7.125640036538243">
        <ele>1528.1500000000001</ele>
        <time>2019-03-15T16:42:03Z</time>
      </trkpt>
      <trkpt lat="31.175687117502093" lon="-7.125716311857104">
        <ele>1528.6300000000001</ele>
        <time>2019-03-15T16:42:04Z</time>
      </trkpt>
      <trkpt lat="31.175724500790238" lon="-7.12581773288548">
        <ele>1533.9200000000001</ele>
        <time>2019-03-15T16:42:05Z</time>
      </trkpt>
      <trkpt lat="31.175730787217617" lon="-7.125932397320867">
        <ele>1541.1300000000001</ele>
        <time>2019-03-15T16:42:06Z</time>
      </trkpt>
      <trkpt lat="31.175710335373878" lon="-7.126050414517522">
        <ele>1554.5899999999999</ele>
        <time>2019-03-15T16:42:07Z</time>
      </trkpt>
      <trkpt lat="31.175672449171543" lon="-7.126169605180621">
        <ele>1556.51</ele>
        <time>2019-03-15T16:42:13Z</time>
      </trkpt>
      <trkpt lat="31.175623834133148" lon="-7.126293322071433">
        <ele>1557.95</ele>
        <time>2019-03-15T16:42:14Z</time>
      </trkpt>
      <trkpt lat="31.175568932667375" lon="-7.126420559361577">
        <ele>1559.4000000000001</ele>
        <time>2019-03-15T16:42:15Z</time>
      </trkpt>
      <trkpt lat="31.175155369564891" lon="-7.1277732308954">
        <ele>1560.3599999999999</ele>
        <time>2019-03-15T16:42:16Z</time>
      </trkpt>
      <trkpt lat="31.174443159252405" lon="-7.129478277638555">
        <ele>1561.3199999999999</ele>
        <time>2019-03-15T16:42:17Z</time>
      </trkpt>
      <trkpt lat="31.174167897552252" lon="-7.130504222586751">
        <ele>1562.28</ele>
        <time>2019-03-15T16:42:18Z</time>
      </trkpt>
      <trkpt lat="31.174180638045073" lon="-7.130576809868217">
        <ele>1563.72</ele>
        <time>2019-03-15T16:42:19Z</time>
      </trkpt>
      <trkpt lat="31.174216764047742" lon="-7.130613354966044">
        <ele>1564.6800000000001</ele>
        <time>2019-03-15T16:42:20Z</time>
      </trkpt>
      <trkpt lat="31.174261271953583" lon="-7.130610840395093">
        <ele>1568.53</ele>
        <time>2019-03-15T16:42:26Z</time>
      </trkpt>
      <trkpt lat="31.174300163984299" lon="-7.130580246448517">
        <ele>1573.8199999999999</ele>
        <time>2019-03-15T16:42:27Z</time>
      </trkpt>
      <trkpt lat="31.174330757930875" lon="-7.130534229800105">
        <ele>1577.6600000000001</ele>
        <time>2019-03-15T16:42:28Z</time>
      </trkpt>
      <trkpt lat="31.174354143440723" lon="-7.13047874160111">
        <ele>1579.5799999999999</ele>
        <time>2019-03-15T16:42:29Z</time>
      </trkpt>
      <trkpt lat="31.174374260008335" lon="-7.130417134612799">
        <ele>1580.54</ele>
        <time>2019-03-15T16:42:30Z</time>
      </trkpt>
      <trkpt lat="31.174397142603993" lon="-7.130350833758712">
        <ele>1581.51</ele>
        <time>2019-03-15T16:42:31Z</time>
      </trkpt>
      <trkpt lat="31.174558578059077" lon="-7.129903407767415">
        <ele>1582.47</ele>
        <time>2019-03-15T16:42:32Z</time>
      </trkpt>
      <trkpt lat="31.175128547474742" lon="-7.128979302942753">
        <ele>1583.4300000000001</ele>
        <time>2019-03-15T16:42:33Z</time>
      </trkpt>
      <trkpt lat="31.176119791343808" lon="-7.127203680574894">
        <ele>1584.3900000000001</ele>
        <time>2019-03-15T16:42:34Z</time>
      </trkpt>
      <trkpt lat="31.176223307847977" lon="-7.127022966742516">
        <ele>1584.8699999999999</ele>
        <time>2019-03-15T16:42:35Z</time>
      </trkpt>
      <trkpt lat="31.176282400265336" lon="-7.126987762749195">
        <ele>1585.8299999999999</ele>
        <time>2019-03-15T16:42:36Z</time>
      </trkpt>
      <trkpt lat="31.176339983940125" lon="-7.127005280926824">
        <ele>1593.52</ele>
        <time>2019-03-15T16:42:37Z</time>
      </trkpt>
      <trkpt lat="31.176374685019255" lon="-7.127060769125819">
        <ele>1601.21</ele>
        <time>2019-03-15T16:42:38Z</time>
      </trkpt>
      <trkpt lat="31.176380887627602" lon="-7.127126818522811">
        <ele>1602.1700000000001</ele>
        <time>2019-03-15T16:42:39Z</time>
      </trkpt>
      <trkpt lat="31.176371080800891" lon="-7.127187335863709">
        <ele>1603.1400000000001</ele>
        <time>2019-03-15T16:42:40Z</time>
      </trkpt>
      <trkpt lat="31.17635440081358" lon="-7.127240477129817">
        <ele>1603.6199999999999</ele>
        <time>2019-03-15T16:42:41Z</time>
      </trkpt>
      <trkpt lat="31.176335206255317" lon="-7.127294959500432">
        <ele>1604.5799999999999</ele>
        <time>2019-03-15T16:42:45Z</time>
      </trkpt>
      <trkpt lat="31.176018202677369" lon="-7.128085540607572">
        <ele>1605.54</ele>
        <time>2019-03-15T16:42:46Z</time>
      </trkpt>
      <trkpt lat="31.175744533538818" lon="-7.128755087032914">
        <ele>1606.02</ele>
        <time>2019-03-15T16:42:48Z</time>
      </trkpt>
      <trkpt lat="31.175756771117449" lon="-7.128813676536083">
        <ele>1606.02</ele>
        <time>2019-03-15T16:42:49Z</time>
      </trkpt>
      <trkpt lat="31.175797004252672" lon="-7.128849048167467">
        <ele>1610.8299999999999</ele>
        <time>2019-03-15T16:42:51Z</time>
      </trkpt>
      <trkpt lat="31.175845451653004" lon="-7.128847287967801">
        <ele>1618.52</ele>
        <time>2019-03-15T16:42:52Z</time>
      </trkpt>
      <trkpt lat="31.17588828317821" lon="-7.12881007231772">
        <ele>1619.48</ele>
        <time>2019-03-15T16:42:53Z</time>
      </trkpt>
      <trkpt lat="31.17592440918088" lon="-7.128757517784834">
        <ele>1621.4000000000001</ele>
        <time>2019-03-15T16:42:54Z</time>
      </trkpt>
      <trkpt lat="31.17596154101193" lon="-7.128696078434587">
        <ele>1622.8399999999999</ele>
        <time>2019-03-15T16:42:55Z</time>
      </trkpt>
      <trkpt lat="31.175999259576201" lon="-7.128626592457295">
        <ele>1624.28</ele>
        <time>2019-03-15T16:42:56Z</time>
      </trkpt>
      <trkpt lat="31.176413577049971" lon="-7.127842213958502">
        <ele>1625.73</ele>
        <time>2019-03-15T16:42:57Z</time>
      </trkpt>
      <trkpt lat="31.176877431571484" lon="-7.126868655905128">
        <ele>1627.1700000000001</ele>
        <time>2019-03-15T16:42:58Z</time>
      </trkpt>
      <trkpt lat="31.176954209804535" lon="-7.126770168542862">
        <ele>1628.6099999999999</ele>
        <time>2019-03-15T16:42:59Z</time>
      </trkpt>
      <trkpt lat="31.17703995667398" lon="-7.126687858253717">
        <ele>1630.05</ele>
        <time>2019-03-15T16:43:00Z</time>
      </trkpt>
      <trkpt lat="31.177131067961454" lon="-7.126627592369914">
        <ele>1631.98</ele>
        <time>2019-03-15T16:43:01Z</time>
      </trkpt>
      <trkpt lat="31.177225867286325" lon="-7.126604374498129">
        <ele>1633.4200000000001</ele>
        <time>2019-03-15T16:43:02Z</time>
      </trkpt>
      <trkpt lat="31.177323181182146" lon="-7.12662348523736">
        <ele>1634.8599999999999</ele>
        <time>2019-03-15T16:43:03Z</time>
      </trkpt>
      <trkpt lat="31.177414795383811" lon="-7.126679560169578">
        <ele>1636.3</ele>
        <time>2019-03-15T16:43:04Z</time>
      </trkpt>
      <trkpt lat="31.177494926378131" lon="-7.126760110259056">
        <ele>1637.74</ele>
        <time>2019-03-15T16:43:05Z</time>
      </trkpt>
      <trkpt lat="31.177568268030882" lon="-7.126857172697783">
        <ele>1639.1900000000001</ele>
        <time>2019-03-15T16:43:06Z</time>
      </trkpt>
      <trkpt lat="31.177632892504334" lon="-7.12696747854352">
        <ele>1640.6300000000001</ele>
        <time>2019-03-15T16:43:07Z</time>
      </trkpt>
      <trkpt lat="31.17767714895308" lon="-7.127094883471727">
        <ele>1642.55</ele>
        <time>2019-03-15T16:43:08Z</time>
      </trkpt>
      <trkpt lat="31.177692739292979" lon="-7.12723913602531">
        <ele>1649.28</ele>
        <time>2019-03-15T16:43:17Z</time>
      </trkpt>
      <trkpt lat="31.1776761431247" lon="-7.127391183748841">
        <ele>1649.76</ele>
        <time>2019-03-15T16:43:18Z</time>
      </trkpt>
      <trkpt lat="31.177639933302999" lon="-7.127546584233642">
        <ele>1650.24</ele>
        <time>2019-03-15T16:43:19Z</time>
      </trkpt>
      <trkpt lat="31.177591988816857" lon="-7.127706008031964">
        <ele>1650.72</ele>
        <time>2019-03-15T16:43:20Z</time>
      </trkpt>
      <trkpt lat="31.177535830065608" lon="-7.127866186201572">
        <ele>1651.2</ele>
        <time>2019-03-15T16:43:21Z</time>
      </trkpt>
      <trkpt lat="31.177475983276963" lon="-7.128019658848643">
        <ele>1652.1600000000001</ele>
        <time>2019-03-15T16:43:22Z</time>
      </trkpt>
      <trkpt lat="31.177235757932067" lon="-7.128870254382491">
        <ele>1652.6400000000001</ele>
        <time>2019-03-15T16:43:23Z</time>
      </trkpt>
      <trkpt lat="31.177229220047593" lon="-7.129012076184154">
        <ele>1653.5999999999999</ele>
        <time>2019-03-15T16:43:24Z</time>
      </trkpt>
      <trkpt lat="31.177238188683987" lon="-7.129148952662945">
        <ele>1659.3699999999999</ele>
        <time>2019-03-15T16:43:26Z</time>
      </trkpt>
      <trkpt lat="31.177262328565121" lon="-7.129276022315025">
        <ele>1659.8499999999999</ele>
        <time>2019-03-15T16:43:27Z</time>
      </trkpt>
      <trkpt lat="31.177307339385152" lon="-7.129391357302666">
        <ele>1660.3299999999999</ele>
        <time>2019-03-15T16:43:28Z</time>
      </trkpt>
      <trkpt lat="31.177373807877302" lon="-7.129493029788137">
        <ele>1660.3299999999999</ele>
        <time>2019-03-15T16:43:29Z</time>
      </trkpt>
      <trkpt lat="31.177462320774794" lon="-7.129580788314343">
        <ele>1659.8499999999999</ele>
        <time>2019-03-15T16:43:30Z</time>
      </trkpt>
      <trkpt lat="31.177566256374121" lon="-7.129665445536375">
        <ele>1659.3699999999999</ele>
        <time>2019-03-15T16:43:31Z</time>
      </trkpt>
      <trkpt lat="31.178233623504639" lon="-7.130231559276581">
        <ele>1658.8900000000001</ele>
        <time>2019-03-15T16:43:32Z</time>
      </trkpt>
      <trkpt lat="31.17835097014904" lon="-7.130306074395776">
        <ele>1657.9300000000001</ele>
        <time>2019-03-15T16:43:33Z</time>
      </trkpt>
      <trkpt lat="31.178475860506296" lon="-7.130365837365389">
        <ele>1657.45</ele>
        <time>2019-03-15T16:43:37Z</time>
      </trkpt>
      <trkpt lat="31.178605360910296" lon="-7.130404058843851">
        <ele>1656.49</ele>
        <time>2019-03-15T16:43:38Z</time>
      </trkpt>
      <trkpt lat="31.178738884627819" lon="-7.130419565364718">
        <ele>1655.05</ele>
        <time>2019-03-15T16:43:39Z</time>
      </trkpt>
      <trkpt lat="31.178875593468547" lon="-7.130408501252532">
        <ele>1654.0899999999999</ele>
        <time>2019-03-15T16:43:40Z</time>
      </trkpt>
      <trkpt lat="31.179012218490243" lon="-7.130373129621148">
        <ele>1653.5999999999999</ele>
        <time>2019-03-15T16:43:41Z</time>
      </trkpt>
      <trkpt lat="31.179147586226463" lon="-7.130328621715307">
        <ele>1653.1199999999999</ele>
        <time>2019-03-15T16:43:42Z</time>
      </trkpt>
      <trkpt lat="31.179281445220113" lon="-7.130292160436511">
        <ele>1652.6400000000001</ele>
        <time>2019-03-15T16:43:43Z</time>
      </trkpt>
      <trkpt lat="31.179411867633462" lon="-7.130275731906295">
        <ele>1652.1600000000001</ele>
        <time>2019-03-15T16:43:44Z</time>
      </trkpt>
      <trkpt lat="31.179538853466511" lon="-7.130278246477246">
        <ele>1649.28</ele>
        <time>2019-03-15T16:43:45Z</time>
      </trkpt>
      <trkpt lat="31.179659469053149" lon="-7.130301548168063">
        <ele>1648.8</ele>
        <time>2019-03-15T16:43:46Z</time>
      </trkpt>
      <trkpt lat="31.179773043841124" lon="-7.130343876779079">
        <ele>1647.8399999999999</ele>
        <time>2019-03-15T16:43:47Z</time>
      </trkpt>
      <trkpt lat="31.179882511496544" lon="-7.130393832921982">
        <ele>1647.3599999999999</ele>
        <time>2019-03-15T16:43:48Z</time>
      </trkpt>
      <trkpt lat="31.179994242265821" lon="-7.130436329171062">
        <ele>1647.8399999999999</ele>
        <time>2019-03-15T16:43:49Z</time>
      </trkpt>
      <trkpt lat="31.180112343281507" lon="-7.130462564527988">
        <ele>1648.3199999999999</ele>
        <time>2019-03-15T16:43:50Z</time>
      </trkpt>
      <trkpt lat="31.180640906095505" lon="-7.130474215373397">
        <ele>1648.8</ele>
        <time>2019-03-15T16:43:51Z</time>
      </trkpt>
      <trkpt lat="31.180782141163945" lon="-7.130436580628157">
        <ele>1649.76</ele>
        <time>2019-03-15T16:43:52Z</time>
      </trkpt>
      <trkpt lat="31.181078357622027" lon="-7.130346642807126">
        <ele>1650.24</ele>
        <time>2019-03-15T16:43:53Z</time>
      </trkpt>
      <trkpt lat="31.181230321526527" lon="-7.130323341116309">
        <ele>1650.72</ele>
        <time>2019-03-15T16:43:54Z</time>
      </trkpt>
      <trkpt lat="31.181505331769586" lon="-7.130320575088263">
        <ele>1650.72</ele>
        <time>2019-03-15T16:43:55Z</time>
      </trkpt>
      <trkpt lat="31.18162184022367" lon="-7.130353851243854">
        <ele>1650.24</ele>
        <time>2019-03-15T16:43:56Z</time>
      </trkpt>
      <trkpt lat="31.181723093613982" lon="-7.13041671551764">
        <ele>1649.76</ele>
        <time>2019-03-15T16:43:57Z</time>
      </trkpt>
      <trkpt lat="31.181815378367901" lon="-7.130494248121977">
        <ele>1648.8</ele>
        <time>2019-03-15T16:43:58Z</time>
      </trkpt>
      <trkpt lat="31.181904897093773" lon="-7.130573457106948">
        <ele>1648.3199999999999</ele>
        <time>2019-03-15T16:44:05Z</time>
      </trkpt>
      <trkpt lat="31.181994751095772" lon="-7.130645792931318">
        <ele>1647.8399999999999</ele>
        <time>2019-03-15T16:44:06Z</time>
      </trkpt>
      <trkpt lat="31.1820899695158" lon="-7.130700778216124">
        <ele>1647.3599999999999</ele>
        <time>2019-03-15T16:44:07Z</time>
      </trkpt>
      <trkpt lat="31.182194072753191" lon="-7.130732210353017">
        <ele>1646.8800000000001</ele>
        <time>2019-03-15T16:44:08Z</time>
      </trkpt>
      <trkpt lat="31.18230739608407" lon="-7.130747633054853">
        <ele>1646.4000000000001</ele>
        <time>2019-03-15T16:44:09Z</time>
      </trkpt>
      <trkpt lat="31.182424491271377" lon="-7.130755931138992">
        <ele>1646.4000000000001</ele>
        <time>2019-03-15T16:44:10Z</time>
      </trkpt>
      <trkpt lat="31.182542340829968" lon="-7.130752829834819">
        <ele>1646.4000000000001</ele>
        <time>2019-03-15T16:44:11Z</time>
      </trkpt>
      <trkpt lat="31.182656837627292" lon="-7.130723996087909">
        <ele>1646.8800000000001</ele>
        <time>2019-03-15T16:44:16Z</time>
      </trkpt>
      <trkpt lat="31.182764796540141" lon="-7.130677476525307">
        <ele>1650.24</ele>
        <time>2019-03-15T16:44:17Z</time>
      </trkpt>
      <trkpt lat="31.182868145406246" lon="-7.130638333037496">
        <ele>1650.24</ele>
        <time>2019-03-15T16:44:18Z</time>
      </trkpt>
      <trkpt lat="31.18297141045332" lon="-7.130629029124975">
        <ele>1650.24</ele>
        <time>2019-03-15T16:44:27Z</time>
      </trkpt>
      <trkpt lat="31.183071909472346" lon="-7.130665490403771">
        <ele>1650.24</ele>
        <time>2019-03-15T16:44:28Z</time>
      </trkpt>
      <trkpt lat="31.183161931112409" lon="-7.130731120705605">
        <ele>1650.24</ele>
        <time>2019-03-15T16:44:29Z</time>
      </trkpt>
      <trkpt lat="31.183252288028598" lon="-7.130805719643831">
        <ele>1650.24</ele>
        <time>2019-03-15T16:44:30Z</time>
      </trkpt>
      <trkpt lat="31.184173710644245" lon="-7.131503848358989">
        <ele>1650.24</ele>
        <time>2019-03-15T16:44:31Z</time>
      </trkpt>
      <trkpt lat="31.184271275997162" lon="-7.131543075665832">
        <ele>1650.24</ele>
        <time>2019-03-15T16:44:32Z</time>
      </trkpt>
      <trkpt lat="31.184366913512349" lon="-7.131552128121257">
        <ele>1649.76</ele>
        <time>2019-03-15T16:44:33Z</time>
      </trkpt>
      <trkpt lat="31.184451403096318" lon="-7.131523294374347">
        <ele>1649.76</ele>
        <time>2019-03-15T16:44:34Z</time>
      </trkpt>
      <trkpt lat="31.18451158516109" lon="-7.131447773426771">
        <ele>1649.28</ele>
        <time>2019-03-15T16:44:35Z</time>
      </trkpt>
      <trkpt lat="31.184541843831539" lon="-7.131343586370349">
        <ele>1649.28</ele>
        <time>2019-03-15T16:44:36Z</time>
      </trkpt>
      <trkpt lat="31.184550141915679" lon="-7.131227664649487">
        <ele>1649.28</ele>
        <time>2019-03-15T16:44:37Z</time>
      </trkpt>
      <trkpt lat="31.184547711163759" lon="-7.131105707958341">
        <ele>1649.28</ele>
        <time>2019-03-15T16:44:38Z</time>
      </trkpt>
      <trkpt lat="31.18454921990633" lon="-7.130862213671207">
        <ele>1649.28</ele>
        <time>2019-03-15T16:44:39Z</time>
      </trkpt>
      <trkpt lat="31.184567408636212" lon="-7.130750650539994">
        <ele>1649.28</ele>
        <time>2019-03-15T16:44:40Z</time>
      </trkpt>
      <trkpt lat="31.184607641771436" lon="-7.130652079358697">
        <ele>1647.8399999999999</ele>
        <time>2019-03-15T16:44:41Z</time>
      </trkpt>
      <trkpt lat="31.184673355892301" lon="-7.130582928657532">
        <ele>1646.8800000000001</ele>
        <time>2019-03-15T16:44:42Z</time>
      </trkpt>
      <trkpt lat="31.184760443866253" lon="-7.130555855110288">
        <ele>1646.4000000000001</ele>
        <time>2019-03-15T16:44:43Z</time>
      </trkpt>
      <trkpt lat="31.184854656457901" lon="-7.130577983334661">
        <ele>1644.95</ele>
        <time>2019-03-15T16:44:44Z</time>
      </trkpt>
      <trkpt lat="31.184947108849883" lon="-7.130636237561703">
        <ele>1643.99</ele>
        <time>2019-03-15T16:44:45Z</time>
      </trkpt>
      <trkpt lat="31.185041153803468" lon="-7.130705220624805">
        <ele>1643.03</ele>
        <time>2019-03-15T16:44:46Z</time>
      </trkpt>
      <trkpt lat="31.185469552874565" lon="-7.130948211997747">
        <ele>1642.0699999999999</ele>
        <time>2019-03-15T16:44:47Z</time>
      </trkpt>
      <trkpt lat="31.185592347756028" lon="-7.130987858399749">
        <ele>1641.5899999999999</ele>
        <time>2019-03-15T16:44:48Z</time>
      </trkpt>
      <trkpt lat="31.18572092615068" lon="-7.131003616377711">
        <ele>1641.1099999999999</ele>
        <time>2019-03-15T16:44:49Z</time>
      </trkpt>
      <trkpt lat="31.18584992364049" lon="-7.13098987005651">
        <ele>1640.1500000000001</ele>
        <time>2019-03-15T16:44:50Z</time>
      </trkpt>
      <trkpt lat="31.185976406559348" lon="-7.130965478718281">
        <ele>1639.6700000000001</ele>
        <time>2019-03-15T16:44:51Z</time>
      </trkpt>
      <trkpt lat="31.186101213097572" lon="-7.130959192290902">
        <ele>1639.1900000000001</ele>
        <time>2019-03-15T16:44:52Z</time>
      </trkpt>
      <trkpt lat="31.186224762350321" lon="-7.130995318293572">
        <ele>1639.1900000000001</ele>
        <time>2019-03-15T16:44:53Z</time>
      </trkpt>
      <trkpt lat="31.1863415222615" lon="-7.131064552813768">
        <ele>1638.7</ele>
        <time>2019-03-15T16:44:56Z</time>
      </trkpt>
      <trkpt lat="31.186460964381695" lon="-7.131139319390059">
        <ele>1638.7</ele>
        <time>2019-03-15T16:44:57Z</time>
      </trkpt>
      <trkpt lat="31.186590464785695" lon="-7.131199920549989">
        <ele>1638.22</ele>
        <time>2019-03-15T16:44:58Z</time>
      </trkpt>
      <trkpt lat="31.186727257445455" lon="-7.131234789267182">
        <ele>1637.74</ele>
        <time>2019-03-15T16:44:59Z</time>
      </trkpt>
      <trkpt lat="31.186865139752626" lon="-7.131238980218768">
        <ele>1637.74</ele>
        <time>2019-03-15T16:45:00Z</time>
      </trkpt>
      <trkpt lat="31.186995226889849" lon="-7.131210146471858">
        <ele>1637.26</ele>
        <time>2019-03-15T16:45:01Z</time>
      </trkpt>
      <trkpt lat="31.187112322077155" lon="-7.131146444007754">
        <ele>1636.78</ele>
        <time>2019-03-15T16:45:02Z</time>
      </trkpt>
      <trkpt lat="31.187207708135247" lon="-7.13104753755033">
        <ele>1636.3</ele>
        <time>2019-03-15T16:45:03Z</time>
      </trkpt>
      <trkpt lat="31.187273254618049" lon="-7.130918707698584">
        <ele>1635.8199999999999</ele>
        <time>2019-03-15T16:45:09Z</time>
      </trkpt>
      <trkpt lat="31.187314409762621" lon="-7.130775880068541">
        <ele>1632.46</ele>
        <time>2019-03-15T16:45:10Z</time>
      </trkpt>
      <trkpt lat="31.187351793050766" lon="-7.130631627514958">
        <ele>1632.46</ele>
        <time>2019-03-15T16:45:11Z</time>
      </trkpt>
      <trkpt lat="31.187411053106189" lon="-7.130493661388755">
        <ele>1632.46</ele>
        <time>2019-03-15T16:45:12Z</time>
      </trkpt>
      <trkpt lat="31.187503254041076" lon="-7.130371956154704">
        <ele>1632.46</ele>
        <time>2019-03-15T16:45:13Z</time>
      </trkpt>
      <trkpt lat="31.187615655362606" lon="-7.130264164879918">
        <ele>1633.4200000000001</ele>
        <time>2019-03-15T16:45:14Z</time>
      </trkpt>
      <trkpt lat="31.187737947329879" lon="-7.130156373605132">
        <ele>1633.4200000000001</ele>
        <time>2019-03-15T16:45:15Z</time>
      </trkpt>
      <trkpt lat="31.188461892306805" lon="-7.129413820803165">
        <ele>1634.3800000000001</ele>
        <time>2019-03-15T16:45:17Z</time>
      </trkpt>
      <trkpt lat="31.188554931432009" lon="-7.129388675093651">
        <ele>1638.22</ele>
        <time>2019-03-15T16:45:18Z</time>
      </trkpt>
      <trkpt lat="31.188651658594608" lon="-7.129410048946738">
        <ele>1639.1900000000001</ele>
        <time>2019-03-15T16:45:19Z</time>
      </trkpt>
      <trkpt lat="31.18873430415988" lon="-7.129473919048905">
        <ele>1639.6700000000001</ele>
        <time>2019-03-15T16:45:20Z</time>
      </trkpt>
      <trkpt lat="31.188787529245019" lon="-7.129568550735712">
        <ele>1645.4300000000001</ele>
        <time>2019-03-15T16:45:21Z</time>
      </trkpt>
      <trkpt lat="31.188812172040343" lon="-7.129683801904321">
        <ele>1646.4000000000001</ele>
        <time>2019-03-15T16:45:22Z</time>
      </trkpt>
      <trkpt lat="31.188825583085418" lon="-7.129805590957403">
        <ele>1647.3599999999999</ele>
        <time>2019-03-15T16:45:25Z</time>
      </trkpt>
      <trkpt lat="31.188890542834997" lon="-7.130406154319644">
        <ele>1648.3199999999999</ele>
        <time>2019-03-15T16:45:29Z</time>
      </trkpt>
      <trkpt lat="31.188924657180905" lon="-7.130503468215466">
        <ele>1649.28</ele>
        <time>2019-03-15T16:45:30Z</time>
      </trkpt>
      <trkpt lat="31.188975116237998" lon="-7.130596004426479">
        <ele>1650.24</ele>
        <time>2019-03-15T16:45:31Z</time>
      </trkpt>
      <trkpt lat="31.189675675705075" lon="-7.131444085389376">
        <ele>1650.72</ele>
        <time>2019-03-15T16:45:32Z</time>
      </trkpt>
      <trkpt lat="31.189771313220263" lon="-7.131500663235784">
        <ele>1651.6800000000001</ele>
        <time>2019-03-15T16:45:33Z</time>
      </trkpt>
      <trkpt lat="31.189876087009907" lon="-7.13152882643044">
        <ele>1652.6400000000001</ele>
        <time>2019-03-15T16:45:34Z</time>
      </trkpt>
      <trkpt lat="31.18998765014112" lon="-7.131525054574013">
        <ele>1653.1199999999999</ele>
        <time>2019-03-15T16:45:35Z</time>
      </trkpt>
      <trkpt lat="31.190106673166156" lon="-7.131504602730274">
        <ele>1654.0899999999999</ele>
        <time>2019-03-15T16:45:37Z</time>
      </trkpt>
      <trkpt lat="31.190232317894697" lon="-7.131483145058155">
        <ele>1655.05</ele>
        <time>2019-03-15T16:45:38Z</time>
      </trkpt>
      <trkpt lat="31.190366931259632" lon="-7.131484653800726">
        <ele>1655.53</ele>
        <time>2019-03-15T16:45:39Z</time>
      </trkpt>
      <trkpt lat="31.190504562109709" lon="-7.13152832351625">
        <ele>1656.49</ele>
        <time>2019-03-15T16:45:40Z</time>
      </trkpt>
      <trkpt lat="31.190637247636914" lon="-7.13158942759037">
        <ele>1656.97</ele>
        <time>2019-03-15T16:45:41Z</time>
      </trkpt>
      <trkpt lat="31.190767921507359" lon="-7.131636952981353">
        <ele>1657.9300000000001</ele>
        <time>2019-03-15T16:45:42Z</time>
      </trkpt>
      <trkpt lat="31.190901277586818" lon="-7.131651872768998">
        <ele>1658.4100000000001</ele>
        <time>2019-03-15T16:45:43Z</time>
      </trkpt>
      <trkpt lat="31.191039578989148" lon="-7.131635025143623">
        <ele>1658.8900000000001</ele>
        <time>2019-03-15T16:45:44Z</time>
      </trkpt>
      <trkpt lat="31.191177796572447" lon="-7.131609292700887">
        <ele>1659.3699999999999</ele>
        <time>2019-03-15T16:45:54Z</time>
      </trkpt>
      <trkpt lat="31.191317774355412" lon="-7.13160552084446">
        <ele>1659.8499999999999</ele>
        <time>2019-03-15T16:45:57Z</time>
      </trkpt>
      <trkpt lat="31.191454064100981" lon="-7.13164022192359">
        <ele>1659.8499999999999</ele>
        <time>2019-03-15T16:45:58Z</time>
      </trkpt>
      <trkpt lat="31.191576942801476" lon="-7.131699398159981">
        <ele>1659.8499999999999</ele>
        <time>2019-03-15T16:45:59Z</time>
      </trkpt>
      <trkpt lat="31.191692277789116" lon="-7.131757317110896">
        <ele>1660.3299999999999</ele>
        <time>2019-03-15T16:46:01Z</time>
      </trkpt>
      <trkpt lat="31.191805265843868" lon="-7.131798807531595">
        <ele>1660.3299999999999</ele>
        <time>2019-03-15T16:46:02Z</time>
      </trkpt>
      <trkpt lat="31.191920265555382" lon="-7.131816493347287">
        <ele>1660.3299999999999</ele>
        <time>2019-03-15T16:46:03Z</time>
      </trkpt>
      <trkpt lat="31.192037528380752" lon="-7.131802579388022">
        <ele>1660.3299999999999</ele>
        <time>2019-03-15T16:46:04Z</time>
      </trkpt>
      <trkpt lat="31.192151438444853" lon="-7.131751449778676">
        <ele>1659.8499999999999</ele>
        <time>2019-03-15T16:46:05Z</time>
      </trkpt>
      <trkpt lat="31.192254619672894" lon="-7.131660841405392">
        <ele>1658.8900000000001</ele>
        <time>2019-03-15T16:46:06Z</time>
      </trkpt>
      <trkpt lat="31.192343970760703" lon="-7.131543075665832">
        <ele>1658.4100000000001</ele>
        <time>2019-03-15T16:46:07Z</time>
      </trkpt>
      <trkpt lat="31.19242443703115" lon="-7.131408546119928">
        <ele>1658.4100000000001</ele>
        <time>2019-03-15T16:46:12Z</time>
      </trkpt>
      <trkpt lat="31.192498952150345" lon="-7.131260437890887">
        <ele>1658.4100000000001</ele>
        <time>2019-03-15T16:46:13Z</time>
      </trkpt>
      <trkpt lat="31.192559134215117" lon="-7.131103361025453">
        <ele>1658.4100000000001</ele>
        <time>2019-03-15T16:46:14Z</time>
      </trkpt>
      <trkpt lat="31.192607581615448" lon="-7.130946116521955">
        <ele>1658.8900000000001</ele>
        <time>2019-03-15T16:46:15Z</time>
      </trkpt>
      <trkpt lat="31.192773208022118" lon="-7.130527356639504">
        <ele>1659.3699999999999</ele>
        <time>2019-03-15T16:46:16Z</time>
      </trkpt>
      <trkpt lat="31.192858703434467" lon="-7.130433563143015">
        <ele>1659.3699999999999</ele>
        <time>2019-03-15T16:46:21Z</time>
      </trkpt>
      <trkpt lat="31.192963477224112" lon="-7.130387462675571">
        <ele>1662.74</ele>
        <time>2019-03-15T16:46:22Z</time>
      </trkpt>
      <trkpt lat="31.193076213821769" lon="-7.130399700254202">
        <ele>1663.22</ele>
        <time>2019-03-15T16:46:23Z</time>
      </trkpt>
      <trkpt lat="31.193173695355654" lon="-7.130463989451528">
        <ele>1664.1800000000001</ele>
        <time>2019-03-15T16:46:24Z</time>
      </trkpt>
      <trkpt lat="31.193242929875851" lon="-7.130567086860538">
        <ele>1665.1400000000001</ele>
        <time>2019-03-15T16:46:25Z</time>
      </trkpt>
      <trkpt lat="31.193295819684863" lon="-7.130684684962034">
        <ele>1666.0999999999999</ele>
        <time>2019-03-15T16:46:26Z</time>
      </trkpt>
      <trkpt lat="31.193346111103892" lon="-7.130803372710943">
        <ele>1666.5799999999999</ele>
        <time>2019-03-15T16:46:27Z</time>
      </trkpt>
      <trkpt lat="31.193725056946278" lon="-7.131418520584703">
        <ele>1666.5799999999999</ele>
        <time>2019-03-15T16:46:28Z</time>
      </trkpt>
      <trkpt lat="31.193809043616056" lon="-7.13148926384747">
        <ele>1667.54</ele>
        <time>2019-03-15T16:46:29Z</time>
      </trkpt>
      <trkpt lat="31.193900322541595" lon="-7.131540309637785">
        <ele>1668.02</ele>
        <time>2019-03-15T16:46:30Z</time>
      </trkpt>
      <trkpt lat="31.193998893722892" lon="-7.131568724289537">
        <ele>1668.51</ele>
        <time>2019-03-15T16:46:31Z</time>
      </trkpt>
      <trkpt lat="31.194101152941585" lon="-7.131581045687199">
        <ele>1668.51</ele>
        <time>2019-03-15T16:46:36Z</time>
      </trkpt>
      <trkpt lat="31.194204334169626" lon="-7.131582722067833">
        <ele>1668.51</ele>
        <time>2019-03-15T16:46:37Z</time>
      </trkpt>
      <trkpt lat="31.194307515397668" lon="-7.131578447297216">
        <ele>1668.51</ele>
        <time>2019-03-15T16:46:38Z</time>
      </trkpt>
      <trkpt lat="31.194519829005003" lon="-7.131557743996382">
        <ele>1667.54</ele>
        <time>2019-03-15T16:46:40Z</time>
      </trkpt>
      <trkpt lat="31.194628374651074" lon="-7.131528491154313">
        <ele>1665.1400000000001</ele>
        <time>2019-03-15T16:46:41Z</time>
      </trkpt>
      <trkpt lat="31.194736668840051" lon="-7.131475266069174">
        <ele>1664.6600000000001</ele>
        <time>2019-03-15T16:46:42Z</time>
      </trkpt>
      <trkpt lat="31.194843286648393" lon="-7.131398990750313">
        <ele>1663.7</ele>
        <time>2019-03-15T16:46:43Z</time>
      </trkpt>
      <trkpt lat="31.194948814809322" lon="-7.131303017958999">
        <ele>1663.7</ele>
        <time>2019-03-15T16:46:44Z</time>
      </trkpt>
      <trkpt lat="31.195051996037364" lon="-7.131194639950991">
        <ele>1663.7</ele>
        <time>2019-03-15T16:46:45Z</time>
      </trkpt>
      <trkpt lat="31.195344859734178" lon="-7.13085793890059">
        <ele>1663.22</ele>
        <time>2019-03-15T16:46:46Z</time>
      </trkpt>
      <trkpt lat="31.19563328102231" lon="-7.130475221201778">
        <ele>1663.22</ele>
        <time>2019-03-15T16:46:49Z</time>
      </trkpt>
      <trkpt lat="31.19570218026638" lon="-7.130443034693599">
        <ele>1662.74</ele>
        <time>2019-03-15T16:46:51Z</time>
      </trkpt>
      <trkpt lat="31.195771833881736" lon="-7.130457367748022">
        <ele>1662.26</ele>
        <time>2019-03-15T16:46:52Z</time>
      </trkpt>
      <trkpt lat="31.195831764489412" lon="-7.130507240071893">
        <ele>1662.26</ele>
        <time>2019-03-15T16:46:53Z</time>
      </trkpt>
      <trkpt lat="31.195875937119126" lon="-7.130584688857198">
        <ele>1662.26</ele>
        <time>2019-03-15T16:47:00Z</time>
      </trkpt>
      <trkpt lat="31.195902340114117" lon="-7.130681499838829">
        <ele>1661.78</ele>
        <time>2019-03-15T16:47:01Z</time>
      </trkpt>
      <trkpt lat="31.195920445024967" lon="-7.130788117647171">
        <ele>1661.78</ele>
        <time>2019-03-15T16:47:02Z</time>
      </trkpt>
      <trkpt lat="31.195969646796584" lon="-7.1310093998909">
        <ele>1661.78</ele>
        <time>2019-03-15T16:47:03Z</time>
      </trkpt>
      <trkpt lat="31.196014657616615" lon="-7.131109982728958">
        <ele>1661.78</ele>
        <time>2019-03-15T16:47:04Z</time>
      </trkpt>
      <trkpt lat="31.196078946813941" lon="-7.131198663264513">
        <ele>1664.6600000000001</ele>
        <time>2019-03-15T16:47:09Z</time>
      </trkpt>
      <trkpt lat="31.196160670369864" lon="-7.131266724318266">
        <ele>1665.6199999999999</ele>
        <time>2019-03-15T16:47:10Z</time>
      </trkpt>
      <trkpt lat="31.196257397532463" lon="-7.131312238052487">
        <ele>1666.0999999999999</ele>
        <time>2019-03-15T16:47:11Z</time>
      </trkpt>
      <trkpt lat="31.196366446092725" lon="-7.131331684067845">
        <ele>1666.0999999999999</ele>
        <time>2019-03-15T16:47:13Z</time>
      </trkpt>
      <trkpt lat="31.196483122184873" lon="-7.13133386336267">
        <ele>1666.5799999999999</ele>
        <time>2019-03-15T16:47:14Z</time>
      </trkpt>
      <trkpt lat="31.196605246514082" lon="-7.131325816735625">
        <ele>1666.5799999999999</ele>
        <time>2019-03-15T16:47:15Z</time>
      </trkpt>
      <trkpt lat="31.197895221412182" lon="-7.131069079041481">
        <ele>1666.5799999999999</ele>
        <time>2019-03-15T16:47:16Z</time>
      </trkpt>
      <trkpt lat="31.198300654068589" lon="-7.130937650799751">
        <ele>1667.0599999999999</ele>
        <time>2019-03-15T16:47:17Z</time>
      </trkpt>
      <trkpt lat="31.1984140612185" lon="-7.130870092660189">
        <ele>1667.0599999999999</ele>
        <time>2019-03-15T16:47:18Z</time>
      </trkpt>
      <trkpt lat="31.198504585772753" lon="-7.130777137354016">
        <ele>1667.0599999999999</ele>
        <time>2019-03-15T16:47:19Z</time>
      </trkpt>
      <trkpt lat="31.198655711486936" lon="-7.130582677200437">
        <ele>1667.0599999999999</ele>
        <time>2019-03-15T16:47:20Z</time>
      </trkpt>
      <trkpt lat="31.19874875061214" lon="-7.130526266992092">
        <ele>1666.5799999999999</ele>
        <time>2019-03-15T16:47:24Z</time>
      </trkpt>
      <trkpt lat="31.198854194954038" lon="-7.130513694137335">
        <ele>1666.5799999999999</ele>
        <time>2019-03-15T16:47:25Z</time>
      </trkpt>
      <trkpt lat="31.198964836075902" lon="-7.130536073818803">
        <ele>1666.0999999999999</ele>
        <time>2019-03-15T16:47:26Z</time>
      </trkpt>
      <trkpt lat="31.199076734483242" lon="-7.130577396601439">
        <ele>1666.0999999999999</ele>
        <time>2019-03-15T16:47:27Z</time>
      </trkpt>
      <trkpt lat="31.199188465252519" lon="-7.130631040781736">
        <ele>1666.0999999999999</ele>
        <time>2019-03-15T16:47:28Z</time>
      </trkpt>
      <trkpt lat="31.199295083060861" lon="-7.130691222846508">
        <ele>1664.6600000000001</ele>
        <time>2019-03-15T16:47:29Z</time>
      </trkpt>
      <trkpt lat="31.199801852926612" lon="-7.130970172584057">
        <ele>1664.1800000000001</ele>
        <time>2019-03-15T16:47:30Z</time>
      </trkpt>
      <trkpt lat="31.199922719970345" lon="-7.130990540608764">
        <ele>1664.1800000000001</ele>
        <time>2019-03-15T16:47:31Z</time>
      </trkpt>
      <trkpt lat="31.200047861784697" lon="-7.130985930562019">
        <ele>1664.1800000000001</ele>
        <time>2019-03-15T16:47:35Z</time>
      </trkpt>
      <trkpt lat="31.200176607817411" lon="-7.130964640527964">
        <ele>1663.7</ele>
        <time>2019-03-15T16:47:36Z</time>
      </trkpt>
      <trkpt lat="31.200309209525585" lon="-7.130938321352005">
        <ele>1664.1800000000001</ele>
        <time>2019-03-15T16:47:37Z</time>
      </trkpt>
      <trkpt lat="31.200972888618708" lon="-7.130921557545662">
        <ele>1664.1800000000001</ele>
        <time>2019-03-15T16:47:45Z</time>
      </trkpt>
      <trkpt lat="31.201078835874796" lon="-7.130953827872872">
        <ele>1663.7</ele>
        <time>2019-03-15T16:47:46Z</time>
      </trkpt>
      <trkpt lat="31.20117237791419" lon="-7.1310162730515">
        <ele>1663.7</ele>
        <time>2019-03-15T16:47:47Z</time>
      </trkpt>
      <trkpt lat="31.201249491423368" lon="-7.131102355197072">
        <ele>1663.22</ele>
        <time>2019-03-15T16:47:55Z</time>
      </trkpt>
      <trkpt lat="31.201317217200994" lon="-7.131196316331625">
        <ele>1663.22</ele>
        <time>2019-03-15T16:47:56Z</time>
      </trkpt>
      <trkpt lat="31.201389050111175" lon="-7.13128206320107">
        <ele>1661.78</ele>
        <time>2019-03-15T16:47:57Z</time>
      </trkpt>
      <trkpt lat="31.20146649889648" lon="-7.131353309378028">
        <ele>1661.3</ele>
        <time>2019-03-15T16:48:02Z</time>
      </trkpt>
      <trkpt lat="31.201557526364923" lon="-7.131403768435121">
        <ele>1661.3</ele>
        <time>2019-03-15T16:48:03Z</time>
      </trkpt>
      <trkpt lat="31.201659366488457" lon="-7.131429836153984">
        <ele>1660.3299999999999</ele>
        <time>2019-03-15T16:48:04Z</time>
      </trkpt>
      <trkpt lat="31.201772019267082" lon="-7.131437882781029">
        <ele>1660.3299999999999</ele>
        <time>2019-03-15T16:48:05Z</time>
      </trkpt>
      <trkpt lat="31.201893473044038" lon="-7.131438637152314">
        <ele>1660.3299999999999</ele>
        <time>2019-03-15T16:48:06Z</time>
      </trkpt>
      <trkpt lat="31.202544327825308" lon="-7.131420196965337">
        <ele>1659.8499999999999</ele>
        <time>2019-03-15T16:48:07Z</time>
      </trkpt>
      <trkpt lat="31.202647341415286" lon="-7.131378371268511">
        <ele>1659.3699999999999</ele>
        <time>2019-03-15T16:48:16Z</time>
      </trkpt>
      <trkpt lat="31.202741973102093" lon="-7.13130209594965">
        <ele>1658.8900000000001</ele>
        <time>2019-03-15T16:48:26Z</time>
      </trkpt>
      <trkpt lat="31.202920507639647" lon="-7.13112423196435">
        <ele>1657.9300000000001</ele>
        <time>2019-03-15T16:48:28Z</time>
      </trkpt>
      <trkpt lat="31.203019833192229" lon="-7.131059775128961">
        <ele>1654.5699999999999</ele>
        <time>2019-03-15T16:48:29Z</time>
      </trkpt>
      <trkpt lat="31.203130139037967" lon="-7.131025493144989">
        <ele>1652.1600000000001</ele>
        <time>2019-03-15T16:48:30Z</time>
      </trkpt>
      <trkpt lat="31.203254610300064" lon="-7.131021469831467">
        <ele>1651.6800000000001</ele>
        <time>2019-03-15T16:48:31Z</time>
      </trkpt>
      <trkpt lat="31.203387212008238" lon="-7.131039574742317">
        <ele>1651.2</ele>
        <time>2019-03-15T16:48:32Z</time>
      </trkpt>
      <trkpt lat="31.2035290338099" lon="-7.131077712401748">
        <ele>1653.1199999999999</ele>
        <time>2019-03-15T16:48:33Z</time>
      </trkpt>
      <trkpt lat="31.203676387667656" lon="-7.131119789555669">
        <ele>1653.1199999999999</ele>
        <time>2019-03-15T16:48:34Z</time>
      </trkpt>
      <trkpt lat="31.204091543331742" lon="-7.131180139258504">
        <ele>1653.1199999999999</ele>
        <time>2019-03-15T16:48:35Z</time>
      </trkpt>
      <trkpt lat="31.20434551499784" lon="-7.131179803982377">
        <ele>1653.1199999999999</ele>
        <time>2019-03-15T16:48:36Z</time>
      </trkpt>
      <trkpt lat="31.204462191089988" lon="-7.131221042945981">
        <ele>1653.1199999999999</ele>
        <time>2019-03-15T16:48:37Z</time>
      </trkpt>
      <trkpt lat="31.204569563269615" lon="-7.131295474246144">
        <ele>1653.1199999999999</ele>
        <time>2019-03-15T16:48:38Z</time>
      </trkpt>
      <trkpt lat="31.205388894304633" lon="-7.13193241506815">
        <ele>1652.6400000000001</ele>
        <time>2019-03-15T16:48:39Z</time>
      </trkpt>
      <trkpt lat="31.205506073310971" lon="-7.132047833874822">
        <ele>1652.1600000000001</ele>
        <time>2019-03-15T16:48:40Z</time>
      </trkpt>
      <trkpt lat="31.20561646297574" lon="-7.132175490260124">
        <ele>1650.24</ele>
        <time>2019-03-15T16:48:42Z</time>
      </trkpt>
      <trkpt lat="31.205720063298941" lon="-7.132308930158615">
        <ele>1649.28</ele>
        <time>2019-03-15T16:48:45Z</time>
      </trkpt>
      <trkpt lat="31.205816371366382" lon="-7.132443208247423">
        <ele>1648.8</ele>
        <time>2019-03-15T16:48:46Z</time>
      </trkpt>
      <trkpt lat="31.206266144290566" lon="-7.132957521826029">
        <ele>1647.8399999999999</ele>
        <time>2019-03-15T16:48:50Z</time>
      </trkpt>
      <trkpt lat="31.206329595297575" lon="-7.133047878742218">
        <ele>1647.3599999999999</ele>
        <time>2019-03-15T16:48:51Z</time>
      </trkpt>
      <trkpt lat="31.206377120688558" lon="-7.133142342790961">
        <ele>1646.8800000000001</ele>
        <time>2019-03-15T16:48:53Z</time>
      </trkpt>
      <trkpt lat="31.206463957205415" lon="-7.133305622264743">
        <ele>1646.8800000000001</ele>
        <time>2019-03-15T16:48:54Z</time>
      </trkpt>
      <trkpt lat="31.206526067107916" lon="-7.133347447961569">
        <ele>1646.4000000000001</ele>
        <time>2019-03-15T16:48:55Z</time>
      </trkpt>
      <trkpt lat="31.206594295799732" lon="-7.133352141827345">
        <ele>1644.47</ele>
        <time>2019-03-15T16:48:57Z</time>
      </trkpt>
      <trkpt lat="31.206654896959662" lon="-7.133314339444041">
        <ele>1643.99</ele>
        <time>2019-03-15T16:48:58Z</time>
      </trkpt>
      <trkpt lat="31.206698231399059" lon="-7.133250134065747">
        <ele>1643.03</ele>
        <time>2019-03-15T16:48:59Z</time>
      </trkpt>
      <trkpt lat="31.206715581938624" lon="-7.133163632825017">
        <ele>1643.03</ele>
        <time>2019-03-15T16:49:00Z</time>
      </trkpt>
      <trkpt lat="31.206715917214751" lon="-7.133065229281783">
        <ele>1642.55</ele>
        <time>2019-03-15T16:49:01Z</time>
      </trkpt>
      <trkpt lat="31.206714995205402" lon="-7.132956935092807">
        <ele>1642.0699999999999</ele>
        <time>2019-03-15T16:49:02Z</time>
      </trkpt>
      <trkpt lat="31.2067393027246" lon="-7.132521998137236">
        <ele>1642.0699999999999</ele>
        <time>2019-03-15T16:49:03Z</time>
      </trkpt>
      <trkpt lat="31.206765873357654" lon="-7.132433149963617">
        <ele>1642.55</ele>
        <time>2019-03-15T16:49:04Z</time>
      </trkpt>
      <trkpt lat="31.206809543073177" lon="-7.132365759462118">
        <ele>1642.55</ele>
        <time>2019-03-15T16:49:05Z</time>
      </trkpt>
      <trkpt lat="31.206869976595044" lon="-7.132335249334574">
        <ele>1642.55</ele>
        <time>2019-03-15T16:49:06Z</time>
      </trkpt>
      <trkpt lat="31.206938372924924" lon="-7.132352683693171">
        <ele>1643.03</ele>
        <time>2019-03-15T16:49:11Z</time>
      </trkpt>
      <trkpt lat="31.206993274390697" lon="-7.132409261539578">
        <ele>1644.47</ele>
        <time>2019-03-15T16:49:12Z</time>
      </trkpt>
      <trkpt lat="31.207025460898876" lon="-7.132483860477805">
        <ele>1643.99</ele>
        <time>2019-03-15T16:49:13Z</time>
      </trkpt>
      <trkpt lat="31.207047337666154" lon="-7.132562482729554">
        <ele>1643.51</ele>
        <time>2019-03-15T16:49:14Z</time>
      </trkpt>
      <trkpt lat="31.207139706239104" lon="-7.132845455780625">
        <ele>1642.0699999999999</ele>
        <time>2019-03-15T16:49:15Z</time>
      </trkpt>
      <trkpt lat="31.207169713452458" lon="-7.132896836847067">
        <ele>1642.0699999999999</ele>
        <time>2019-03-15T16:49:17Z</time>
      </trkpt>
      <trkpt lat="31.207204414531589" lon="-7.132943691685796">
        <ele>1642.0699999999999</ele>
        <time>2019-03-15T16:49:18Z</time>
      </trkpt>
      <trkpt lat="31.207578750327229" lon="-7.13337485678494">
        <ele>1643.03</ele>
        <time>2019-03-15T16:49:20Z</time>
      </trkpt>
      <trkpt lat="31.20765401981771" lon="-7.133419867604971">
        <ele>1643.03</ele>
        <time>2019-03-15T16:49:21Z</time>
      </trkpt>
      <trkpt lat="31.207739179953933" lon="-7.133457837626338">
        <ele>1643.03</ele>
        <time>2019-03-15T16:49:22Z</time>
      </trkpt>
      <trkpt lat="31.208519283682108" lon="-7.13383074849844">
        <ele>1643.03</ele>
        <time>2019-03-15T16:49:23Z</time>
      </trkpt>
      <trkpt lat="31.208625985309482" lon="-7.133846087381244">
        <ele>1642.55</ele>
        <time>2019-03-15T16:49:24Z</time>
      </trkpt>
      <trkpt lat="31.208736542612314" lon="-7.133840722963214">
        <ele>1642.55</ele>
        <time>2019-03-15T16:49:29Z</time>
      </trkpt>
      <trkpt lat="31.209241803735495" lon="-7.133749611675739">
        <ele>1640.6300000000001</ele>
        <time>2019-03-15T16:49:30Z</time>
      </trkpt>
      <trkpt lat="31.20933098718524" lon="-7.133698733523488">
        <ele>1638.7</ele>
        <time>2019-03-15T16:49:31Z</time>
      </trkpt>
      <trkpt lat="31.209408435970545" lon="-7.133620446547866">
        <ele>1638.7</ele>
        <time>2019-03-15T16:49:32Z</time>
      </trkpt>
      <trkpt lat="31.209469204768538" lon="-7.133517265319824">
        <ele>1638.22</ele>
        <time>2019-03-15T16:49:33Z</time>
      </trkpt>
      <trkpt lat="31.209515389055014" lon="-7.13339438661933">
        <ele>1638.22</ele>
        <time>2019-03-15T16:49:34Z</time>
      </trkpt>
      <trkpt lat="31.209557801485062" lon="-7.133260443806648">
        <ele>1638.22</ele>
        <time>2019-03-15T16:49:37Z</time>
      </trkpt>
      <trkpt lat="31.210151743143797" lon="-7.131870640441775">
        <ele>1637.74</ele>
        <time>2019-03-15T16:49:38Z</time>
      </trkpt>
      <trkpt lat="31.210850793868303" lon="-7.130321161821485">
        <ele>1638.22</ele>
        <time>2019-03-15T16:49:39Z</time>
      </trkpt>
      <trkpt lat="31.210935031995177" lon="-7.130108764395118">
        <ele>1638.22</ele>
        <time>2019-03-15T16:49:40Z</time>
      </trkpt>
      <trkpt lat="31.210983227938414" lon="-7.130032405257225">
        <ele>1638.22</ele>
        <time>2019-03-15T16:49:41Z</time>
      </trkpt>
      <trkpt lat="31.211042823269963" lon="-7.129977755248547">
        <ele>1638.7</ele>
        <time>2019-03-15T16:49:42Z</time>
      </trkpt>
      <trkpt lat="31.211114739999175" lon="-7.129959482699633">
        <ele>1639.1900000000001</ele>
        <time>2019-03-15T16:49:43Z</time>
      </trkpt>
      <trkpt lat="31.211194535717368" lon="-7.129984209313989">
        <ele>1639.6700000000001</ele>
        <time>2019-03-15T16:49:46Z</time>
      </trkpt>
      <trkpt lat="31.211268715560436" lon="-7.130047157406807">
        <ele>1640.6300000000001</ele>
        <time>2019-03-15T16:49:47Z</time>
      </trkpt>
      <trkpt lat="31.211338620632887" lon="-7.130125025287271">
        <ele>1641.5899999999999</ele>
        <time>2019-03-15T16:49:48Z</time>
      </trkpt>
      <trkpt lat="31.211407016962767" lon="-7.130210772156715">
        <ele>1643.51</ele>
        <time>2019-03-15T16:49:49Z</time>
      </trkpt>
      <trkpt lat="31.211471389979124" lon="-7.130311438813806">
        <ele>1645.9100000000001</ele>
        <time>2019-03-15T16:49:50Z</time>
      </trkpt>
      <trkpt lat="31.211523609235883" lon="-7.130428701639175">
        <ele>1646.8800000000001</ele>
        <time>2019-03-15T16:49:52Z</time>
      </trkpt>
      <trkpt lat="31.211561411619186" lon="-7.130560213699937">
        <ele>1650.72</ele>
        <time>2019-03-15T16:49:53Z</time>
      </trkpt>
      <trkpt lat="31.211590664461255" lon="-7.130699018016458">
        <ele>1652.1600000000001</ele>
        <time>2019-03-15T16:49:54Z</time>
      </trkpt>
      <trkpt lat="31.211614888161421" lon="-7.130840755999088">
        <ele>1654.0899999999999</ele>
        <time>2019-03-15T16:49:55Z</time>
      </trkpt>
      <trkpt lat="31.211681189015508" lon="-7.131109731271863">
        <ele>1655.05</ele>
        <time>2019-03-15T16:49:56Z</time>
      </trkpt>
      <trkpt lat="31.211789650842547" lon="-7.131501333788037">
        <ele>1656.01</ele>
        <time>2019-03-15T16:49:57Z</time>
      </trkpt>
      <trkpt lat="31.211799876764417" lon="-7.131645502522588">
        <ele>1657.45</ele>
        <time>2019-03-15T16:49:58Z</time>
      </trkpt>
      <trkpt lat="31.211817562580109" lon="-7.132201557978988">
        <ele>1657.9300000000001</ele>
        <time>2019-03-15T16:49:59Z</time>
      </trkpt>
      <trkpt lat="31.211842289194465" lon="-7.132337763905525">
        <ele>1658.4100000000001</ele>
        <time>2019-03-15T16:50:00Z</time>
      </trkpt>
      <trkpt lat="31.211876654997468" lon="-7.132594920694828">
        <ele>1658.4100000000001</ele>
        <time>2019-03-15T16:50:01Z</time>
      </trkpt>
      <trkpt lat="31.211863830685616" lon="-7.132716961205006">
        <ele>1658.8900000000001</ele>
        <time>2019-03-15T16:50:05Z</time>
      </trkpt>
      <trkpt lat="31.211830722168088" lon="-7.132829613983631">
        <ele>1658.8900000000001</ele>
        <time>2019-03-15T16:50:06Z</time>
      </trkpt>
      <trkpt lat="31.211759643629193" lon="-7.133024157956243">
        <ele>1658.8900000000001</ele>
        <time>2019-03-15T16:50:07Z</time>
      </trkpt>
      <trkpt lat="31.211744137108326" lon="-7.133112754672766">
        <ele>1658.4100000000001</ele>
        <time>2019-03-15T16:50:08Z</time>
      </trkpt>
      <trkpt lat="31.211753273382783" lon="-7.133193723857403">
        <ele>1657.9300000000001</ele>
        <time>2019-03-15T16:50:09Z</time>
      </trkpt>
      <trkpt lat="31.211791159585118" lon="-7.133261617273092">
        <ele>1657.9300000000001</ele>
        <time>2019-03-15T16:50:17Z</time>
      </trkpt>
      <trkpt lat="31.211857292801142" lon="-7.133311741054058">
        <ele>1656.49</ele>
        <time>2019-03-15T16:50:18Z</time>
      </trkpt>
      <trkpt lat="31.211944716051221" lon="-7.133336467668414">
        <ele>1656.49</ele>
        <time>2019-03-15T16:50:19Z</time>
      </trkpt>
      <trkpt lat="31.212038593366742" lon="-7.133339149877429">
        <ele>1656.49</ele>
        <time>2019-03-15T16:50:20Z</time>
      </trkpt>
      <trkpt lat="31.21213180013001" lon="-7.133331438526511">
        <ele>1656.97</ele>
        <time>2019-03-15T16:50:21Z</time>
      </trkpt>
      <trkpt lat="31.212227689102292" lon="-7.133329175412655">
        <ele>1656.97</ele>
        <time>2019-03-15T16:50:22Z</time>
      </trkpt>
      <trkpt lat="31.212328691035509" lon="-7.133344262838364">
        <ele>1657.9300000000001</ele>
        <time>2019-03-15T16:50:23Z</time>
      </trkpt>
      <trkpt lat="31.212852392345667" lon="-7.133500082418323">
        <ele>1657.9300000000001</ele>
        <time>2019-03-15T16:50:24Z</time>
      </trkpt>
      <trkpt lat="31.212957082316279" lon="-7.133556241169572">
        <ele>1657.45</ele>
        <time>2019-03-15T16:50:25Z</time>
      </trkpt>
      <trkpt lat="31.213060347363353" lon="-7.133628912270069">
        <ele>1657.45</ele>
        <time>2019-03-15T16:50:26Z</time>
      </trkpt>
      <trkpt lat="31.213156571611762" lon="-7.133711557835341">
        <ele>1657.45</ele>
        <time>2019-03-15T16:50:27Z</time>
      </trkpt>
      <trkpt lat="31.213245671242476" lon="-7.133793281391263">
        <ele>1657.45</ele>
        <time>2019-03-15T16:50:28Z</time>
      </trkpt>
      <trkpt lat="31.213422110304236" lon="-7.133929822593927">
        <ele>1657.45</ele>
        <time>2019-03-15T16:50:29Z</time>
      </trkpt>
      <trkpt lat="31.213525459170341" lon="-7.133970893919468">
        <ele>1657.45</ele>
        <time>2019-03-15T16:50:30Z</time>
      </trkpt>
      <trkpt lat="31.213748836889863" lon="-7.134052952751517">
        <ele>1657.45</ele>
        <time>2019-03-15T16:50:31Z</time>
      </trkpt>
      <trkpt lat="31.21386350132525" lon="-7.13412051089108">
        <ele>1657.45</ele>
        <time>2019-03-15T16:50:32Z</time>
      </trkpt>
      <trkpt lat="31.213978249579668" lon="-7.134200558066368">
        <ele>1657.45</ele>
        <time>2019-03-15T16:50:33Z</time>
      </trkpt>
      <trkpt lat="31.214090147987008" lon="-7.134292926639319">
        <ele>1657.45</ele>
        <time>2019-03-15T16:50:34Z</time>
      </trkpt>
      <trkpt lat="31.21419676579535" lon="-7.134396694600582">
        <ele>1657.45</ele>
        <time>2019-03-15T16:50:37Z</time>
      </trkpt>
      <trkpt lat="31.214652322232723" lon="-7.13479969650507">
        <ele>1657.9300000000001</ele>
        <time>2019-03-15T16:50:38Z</time>
      </trkpt>
      <trkpt lat="31.214734464883804" lon="-7.134826937690377">
        <ele>1657.9300000000001</ele>
        <time>2019-03-15T16:50:39Z</time>
      </trkpt>
      <trkpt lat="31.214819373562932" lon="-7.134815957397223">
        <ele>1657.9300000000001</ele>
        <time>2019-03-15T16:50:40Z</time>
      </trkpt>
      <trkpt lat="31.214899253100157" lon="-7.134764492511749">
        <ele>1657.9300000000001</ele>
        <time>2019-03-15T16:50:41Z</time>
      </trkpt>
      <trkpt lat="31.214965721592307" lon="-7.134680673480034">
        <ele>1657.45</ele>
        <time>2019-03-15T16:50:42Z</time>
      </trkpt>
      <trkpt lat="31.215029591694474" lon="-7.134580509737134">
        <ele>1656.97</ele>
        <time>2019-03-15T16:50:43Z</time>
      </trkpt>
      <trkpt lat="31.215237211436033" lon="-7.134291669353843">
        <ele>1656.49</ele>
        <time>2019-03-15T16:50:44Z</time>
      </trkpt>
      <trkpt lat="31.215322874486446" lon="-7.134225536137819">
        <ele>1656.01</ele>
        <time>2019-03-15T16:50:45Z</time>
      </trkpt>
      <trkpt lat="31.215420188382268" lon="-7.134183710440993">
        <ele>1656.01</ele>
        <time>2019-03-15T16:50:46Z</time>
      </trkpt>
      <trkpt lat="31.215521609410644" lon="-7.13416594080627">
        <ele>1656.01</ele>
        <time>2019-03-15T16:50:49Z</time>
      </trkpt>
      <trkpt lat="31.215624120086432" lon="-7.134170467033982">
        <ele>1656.49</ele>
        <time>2019-03-15T16:50:54Z</time>
      </trkpt>
      <trkpt lat="31.215724954381585" lon="-7.134192679077387">
        <ele>1656.97</ele>
        <time>2019-03-15T16:50:55Z</time>
      </trkpt>
      <trkpt lat="31.215821849182248" lon="-7.134219584986568">
        <ele>1658.4100000000001</ele>
        <time>2019-03-15T16:50:56Z</time>
      </trkpt>
      <trkpt lat="31.216099709272385" lon="-7.134309355169535">
        <ele>1659.3699999999999</ele>
        <time>2019-03-15T16:50:57Z</time>
      </trkpt>
      <trkpt lat="31.216166680678725" lon="-7.134379344061017">
        <ele>1660.3299999999999</ele>
        <time>2019-03-15T16:50:58Z</time>
      </trkpt>
      <trkpt lat="31.216192916035652" lon="-7.134480178356171">
        <ele>1661.3</ele>
        <time>2019-03-15T16:51:07Z</time>
      </trkpt>
      <trkpt lat="31.21617523021996" lon="-7.134587299078703">
        <ele>1662.26</ele>
        <time>2019-03-15T16:51:12Z</time>
      </trkpt>
      <trkpt lat="31.216134075075388" lon="-7.134688720107079">
        <ele>1663.7</ele>
        <time>2019-03-15T16:51:13Z</time>
      </trkpt>
      <trkpt lat="31.216061068698764" lon="-7.134902039542794">
        <ele>1664.6600000000001</ele>
        <time>2019-03-15T16:51:14Z</time>
      </trkpt>
      <trkpt lat="31.216056542471051" lon="-7.135022152215242">
        <ele>1666.0999999999999</ele>
        <time>2019-03-15T16:51:16Z</time>
      </trkpt>
      <trkpt lat="31.216058637946844" lon="-7.135147964581847">
        <ele>1667.54</ele>
        <time>2019-03-15T16:51:17Z</time>
      </trkpt>
      <trkpt lat="31.216046400368214" lon="-7.135269083082676">
        <ele>1668.51</ele>
        <time>2019-03-15T16:51:18Z</time>
      </trkpt>
      <trkpt lat="31.216016979888082" lon="-7.135379472747445">
        <ele>1672.3499999999999</ele>
        <time>2019-03-15T16:51:19Z</time>
      </trkpt>
      <trkpt lat="31.215984709560871" lon="-7.135480474680662">
        <ele>1672.8299999999999</ele>
        <time>2019-03-15T16:51:20Z</time>
      </trkpt>
      <trkpt lat="31.215968700125813" lon="-7.135579967871308">
        <ele>1673.79</ele>
        <time>2019-03-15T16:51:21Z</time>
      </trkpt>
      <trkpt lat="31.215973058715463" lon="-7.135683065280318">
        <ele>1674.27</ele>
        <time>2019-03-15T16:51:22Z</time>
      </trkpt>
      <trkpt lat="31.215991415083408" lon="-7.135786330327392">
        <ele>1674.75</ele>
        <time>2019-03-15T16:51:23Z</time>
      </trkpt>
      <trkpt lat="31.216014213860035" lon="-7.135889595374465">
        <ele>1675.23</ele>
        <time>2019-03-15T16:51:24Z</time>
      </trkpt>
      <trkpt lat="31.216099122539163" lon="-7.13634867221117">
        <ele>1674.75</ele>
        <time>2019-03-15T16:51:25Z</time>
      </trkpt>
      <trkpt lat="31.21613709256053" lon="-7.13645713403821">
        <ele>1674.27</ele>
        <time>2019-03-15T16:51:26Z</time>
      </trkpt>
      <trkpt lat="31.216200543567538" lon="-7.136555118486285">
        <ele>1673.3099999999999</ele>
        <time>2019-03-15T16:51:27Z</time>
      </trkpt>
      <trkpt lat="31.216281009837985" lon="-7.136649498715997">
        <ele>1672.8299999999999</ele>
        <time>2019-03-15T16:51:31Z</time>
      </trkpt>
      <trkpt lat="31.216368013992906" lon="-7.136747734621167">
        <ele>1671.8699999999999</ele>
        <time>2019-03-15T16:51:32Z</time>
      </trkpt>
      <trkpt lat="31.217133533209562" lon="-7.137571591883898">
        <ele>1671.3900000000001</ele>
        <time>2019-03-15T16:51:33Z</time>
      </trkpt>
      <trkpt lat="31.217251718044281" lon="-7.137647699564695">
        <ele>1670.4300000000001</ele>
        <time>2019-03-15T16:51:34Z</time>
      </trkpt>
      <trkpt lat="31.217372082173824" lon="-7.137713329866529">
        <ele>1669.47</ele>
        <time>2019-03-15T16:51:35Z</time>
      </trkpt>
      <trkpt lat="31.217494206503034" lon="-7.13776521384716">
        <ele>1668.51</ele>
        <time>2019-03-15T16:51:36Z</time>
      </trkpt>
      <trkpt lat="31.217618845403194" lon="-7.137794466689229">
        <ele>1667.54</ele>
        <time>2019-03-15T16:51:37Z</time>
      </trkpt>
      <trkpt lat="31.217742310836911" lon="-7.137794131413102">
        <ele>1667.0599999999999</ele>
        <time>2019-03-15T16:51:38Z</time>
      </trkpt>
      <trkpt lat="31.217855969443917" lon="-7.137775355949998">
        <ele>1666.0999999999999</ele>
        <time>2019-03-15T16:51:39Z</time>
      </trkpt>
      <trkpt lat="31.217958061024547" lon="-7.137765549123287">
        <ele>1665.6199999999999</ele>
        <time>2019-03-15T16:51:48Z</time>
      </trkpt>
      <trkpt lat="31.218049423769116" lon="-7.137794299051166">
        <ele>1665.1400000000001</ele>
        <time>2019-03-15T16:51:49Z</time>
      </trkpt>
      <trkpt lat="31.218128884211183" lon="-7.137864204123616">
        <ele>1664.6600000000001</ele>
        <time>2019-03-15T16:51:51Z</time>
      </trkpt>
      <trkpt lat="31.218201387673616" lon="-7.137957159429789">
        <ele>1664.1800000000001</ele>
        <time>2019-03-15T16:51:52Z</time>
      </trkpt>
      <trkpt lat="31.218277662992477" lon="-7.138060592114925">
        <ele>1664.1800000000001</ele>
        <time>2019-03-15T16:51:53Z</time>
      </trkpt>
      <trkpt lat="31.21835452504456" lon="-7.13817810639739">
        <ele>1663.7</ele>
        <time>2019-03-15T16:51:54Z</time>
      </trkpt>
      <trkpt lat="31.218423759564757" lon="-7.138308780267835">
        <ele>1663.22</ele>
        <time>2019-03-15T16:51:55Z</time>
      </trkpt>
      <trkpt lat="31.218472877517343" lon="-7.138452529907227">
        <ele>1662.74</ele>
        <time>2019-03-15T16:51:59Z</time>
      </trkpt>
      <trkpt lat="31.218501627445221" lon="-7.138601895421743">
        <ele>1661.78</ele>
        <time>2019-03-15T16:52:08Z</time>
      </trkpt>
      <trkpt lat="31.218511937186122" lon="-7.138754781335592">
        <ele>1661.3</ele>
        <time>2019-03-15T16:52:18Z</time>
      </trkpt>
      <trkpt lat="31.218514200299978" lon="-7.138907248154283">
        <ele>1660.3299999999999</ele>
        <time>2019-03-15T16:52:20Z</time>
      </trkpt>
      <trkpt lat="31.218556612730026" lon="-7.13933514431119">
        <ele>1659.8499999999999</ele>
        <time>2019-03-15T16:52:21Z</time>
      </trkpt>
      <trkpt lat="31.218613358214498" lon="-7.139453245326877">
        <ele>1658.8900000000001</ele>
        <time>2019-03-15T16:52:24Z</time>
      </trkpt>
      <trkpt lat="31.218690806999803" lon="-7.139553325250745">
        <ele>1658.8900000000001</ele>
        <time>2019-03-15T16:52:29Z</time>
      </trkpt>
      <trkpt lat="31.218777392059565" lon="-7.139636473730207">
        <ele>1658.8900000000001</ele>
        <time>2019-03-15T16:52:30Z</time>
      </trkpt>
      <trkpt lat="31.218868670985103" lon="-7.139701182022691">
        <ele>1658.4100000000001</ele>
        <time>2019-03-15T16:52:31Z</time>
      </trkpt>
      <trkpt lat="31.218968667089939" lon="-7.139755161479116">
        <ele>1658.4100000000001</ele>
        <time>2019-03-15T16:52:32Z</time>
      </trkpt>
      <trkpt lat="31.219071177765727" lon="-7.139807967469096">
        <ele>1657.9300000000001</ele>
        <time>2019-03-15T16:52:33Z</time>
      </trkpt>
      <trkpt lat="31.21916270814836" lon="-7.139872005209327">
        <ele>1657.45</ele>
        <time>2019-03-15T16:52:34Z</time>
      </trkpt>
      <trkpt lat="31.219231272116303" lon="-7.139963703230023">
        <ele>1656.97</ele>
        <time>2019-03-15T16:52:35Z</time>
      </trkpt>
      <trkpt lat="31.2192711699754" lon="-7.140082474797964">
        <ele>1656.49</ele>
        <time>2019-03-15T16:52:36Z</time>
      </trkpt>
      <trkpt lat="31.219348702579737" lon="-7.140480112284422">
        <ele>1656.97</ele>
        <time>2019-03-15T16:52:37Z</time>
      </trkpt>
      <trkpt lat="31.219518771395087" lon="-7.14102141559124">
        <ele>1660.3299999999999</ele>
        <time>2019-03-15T16:52:38Z</time>
      </trkpt>
      <trkpt lat="31.219567637890577" lon="-7.141070701181889">
        <ele>1661.3</ele>
        <time>2019-03-15T16:52:39Z</time>
      </trkpt>
      <trkpt lat="31.219634525477886" lon="-7.141101378947496">
        <ele>1662.26</ele>
        <time>2019-03-15T16:52:40Z</time>
      </trkpt>
      <trkpt lat="31.21971339918673" lon="-7.14112107641995">
        <ele>1664.1800000000001</ele>
        <time>2019-03-15T16:52:41Z</time>
      </trkpt>
      <trkpt lat="31.219800319522619" lon="-7.141135409474373">
        <ele>1665.1400000000001</ele>
        <time>2019-03-15T16:52:42Z</time>
      </trkpt>
      <trkpt lat="31.220733812078834" lon="-7.141410503536463">
        <ele>1666.0999999999999</ele>
        <time>2019-03-15T16:52:43Z</time>
      </trkpt>
      <trkpt lat="31.221312331035733" lon="-7.141598341986537">
        <ele>1667.0599999999999</ele>
        <time>2019-03-15T16:52:44Z</time>
      </trkpt>
      <trkpt lat="31.221409477293491" lon="-7.141668498516083">
        <ele>1668.02</ele>
        <time>2019-03-15T16:52:45Z</time>
      </trkpt>
      <trkpt lat="31.221495391801" lon="-7.141756927594543">
        <ele>1668.51</ele>
        <time>2019-03-15T16:52:46Z</time>
      </trkpt>
      <trkpt lat="31.221643835306168" lon="-7.141955159604549">
        <ele>1668.99</ele>
        <time>2019-03-15T16:52:54Z</time>
      </trkpt>
      <trkpt lat="31.221702927723527" lon="-7.142063956707716">
        <ele>1669.47</ele>
        <time>2019-03-15T16:52:57Z</time>
      </trkpt>
      <trkpt lat="31.221746429800987" lon="-7.142182309180498">
        <ele>1669.95</ele>
        <time>2019-03-15T16:52:58Z</time>
      </trkpt>
      <trkpt lat="31.221775263547897" lon="-7.142306864261627">
        <ele>1670.4300000000001</ele>
        <time>2019-03-15T16:52:59Z</time>
      </trkpt>
      <trkpt lat="31.22178758494556" lon="-7.142424630001187">
        <ele>1670.4300000000001</ele>
        <time>2019-03-15T16:53:02Z</time>
      </trkpt>
      <trkpt lat="31.221776688471437" lon="-7.142528062686324">
        <ele>1670.9100000000001</ele>
        <time>2019-03-15T16:53:03Z</time>
      </trkpt>
      <trkpt lat="31.221737796440721" lon="-7.142614731565118">
        <ele>1672.3499999999999</ele>
        <time>2019-03-15T16:53:06Z</time>
      </trkpt>
      <trkpt lat="31.221675602719188" lon="-7.142681954428554">
        <ele>1672.8299999999999</ele>
        <time>2019-03-15T16:53:07Z</time>
      </trkpt>
      <trkpt lat="31.221608547493815" lon="-7.142733419314027">
        <ele>1673.3099999999999</ele>
        <time>2019-03-15T16:53:11Z</time>
      </trkpt>
      <trkpt lat="31.22155892662704" lon="-7.142789158970118">
        <ele>1673.79</ele>
        <time>2019-03-15T16:53:12Z</time>
      </trkpt>
      <trkpt lat="31.221534200012684" lon="-7.142858309671283">
        <ele>1673.79</ele>
        <time>2019-03-15T16:53:13Z</time>
      </trkpt>
      <trkpt lat="31.221530260518193" lon="-7.142941458150744">
        <ele>1674.75</ele>
        <time>2019-03-15T16:53:20Z</time>
      </trkpt>
      <trkpt lat="31.22157409787178" lon="-7.143326355144382">
        <ele>1675.23</ele>
        <time>2019-03-15T16:53:21Z</time>
      </trkpt>
      <trkpt lat="31.221614750102162" lon="-7.143402714282274">
        <ele>1675.72</ele>
        <time>2019-03-15T16:53:22Z</time>
      </trkpt>
      <trkpt lat="31.221678871661425" lon="-7.143457615748048">
        <ele>1676.2</ele>
        <time>2019-03-15T16:53:28Z</time>
      </trkpt>
      <trkpt lat="31.221760176122189" lon="-7.143484018743038">
        <ele>1671.8699999999999</ele>
        <time>2019-03-15T16:53:29Z</time>
      </trkpt>
      <trkpt lat="31.221851035952568" lon="-7.143487790599465">
        <ele>1670.9100000000001</ele>
        <time>2019-03-15T16:53:30Z</time>
      </trkpt>
      <trkpt lat="31.221948601305485" lon="-7.143480414524674">
        <ele>1669.47</ele>
        <time>2019-03-15T16:53:32Z</time>
      </trkpt>
      <trkpt lat="31.222056224942207" lon="-7.143470272421837">
        <ele>1668.99</ele>
        <time>2019-03-15T16:53:33Z</time>
      </trkpt>
      <trkpt lat="31.222173739224672" lon="-7.143470607697964">
        <ele>1668.51</ele>
        <time>2019-03-15T16:53:34Z</time>
      </trkpt>
      <trkpt lat="31.222301060333848" lon="-7.143490221351385">
        <ele>1668.51</ele>
        <time>2019-03-15T16:53:35Z</time>
      </trkpt>
      <trkpt lat="31.223523309454322" lon="-7.143818456679583">
        <ele>1668.99</ele>
        <time>2019-03-15T16:53:36Z</time>
      </trkpt>
      <trkpt lat="31.223667981103063" lon="-7.143819546326995">
        <ele>1672.8299999999999</ele>
        <time>2019-03-15T16:53:37Z</time>
      </trkpt>
      <trkpt lat="31.223975261673331" lon="-7.14382566511631">
        <ele>1676.2</ele>
        <time>2019-03-15T16:53:38Z</time>
      </trkpt>
      <trkpt lat="31.224130997434258" lon="-7.143856761977077">
        <ele>1680.52</ele>
        <time>2019-03-15T16:53:39Z</time>
      </trkpt>
      <trkpt lat="31.224281033501029" lon="-7.143914848566055">
        <ele>1682.9300000000001</ele>
        <time>2019-03-15T16:53:40Z</time>
      </trkpt>
      <trkpt lat="31.224425537511706" lon="-7.143997997045517">
        <ele>1684.3699999999999</ele>
        <time>2019-03-15T16:53:41Z</time>
      </trkpt>
      <trkpt lat="31.22456987388432" lon="-7.144093550741673">
        <ele>1687.73</ele>
        <time>2019-03-15T16:53:42Z</time>
      </trkpt>
      <trkpt lat="31.225098688155413" lon="-7.144435532391071">
        <ele>1690.6199999999999</ele>
        <time>2019-03-15T16:53:43Z</time>
      </trkpt>
      <trkpt lat="31.226196801289916" lon="-7.145083956420422">
        <ele>1690.6199999999999</ele>
        <time>2019-03-15T16:53:44Z</time>
      </trkpt>
      <trkpt lat="31.227786596864462" lon="-7.145579494535923">
        <ele>1690.6199999999999</ele>
        <time>2019-03-15T16:53:45Z</time>
      </trkpt>
      <trkpt lat="31.228061439469457" lon="-7.145634144544601">
        <ele>1691.0999999999999</ele>
        <time>2019-03-15T16:53:48Z</time>
      </trkpt>
      <trkpt lat="31.228200495243073" lon="-7.145633054897189">
        <ele>1691.5799999999999</ele>
        <time>2019-03-15T16:53:50Z</time>
      </trkpt>
      <trkpt lat="31.228629061952233" lon="-7.145592402666807">
        <ele>1692.54</ele>
        <time>2019-03-15T16:53:51Z</time>
      </trkpt>
      <trkpt lat="31.229274049401283" lon="-7.14560866355896">
        <ele>1693.02</ele>
        <time>2019-03-15T16:54:00Z</time>
      </trkpt>
      <trkpt lat="31.229378068819642" lon="-7.145658368244767">
        <ele>1693.98</ele>
        <time>2019-03-15T16:54:04Z</time>
      </trkpt>
      <trkpt lat="31.229467922821641" lon="-7.145745540037751">
        <ele>1694.46</ele>
        <time>2019-03-15T16:54:05Z</time>
      </trkpt>
      <trkpt lat="31.229543527588248" lon="-7.14585542678833">
        <ele>1694.46</ele>
        <time>2019-03-15T16:54:06Z</time>
      </trkpt>
      <trkpt lat="31.229612259194255" lon="-7.14597512036562">
        <ele>1694.46</ele>
        <time>2019-03-15T16:54:08Z</time>
      </trkpt>
      <trkpt lat="31.229670597240329" lon="-7.146097496151924">
        <ele>1693.98</ele>
        <time>2019-03-15T16:54:09Z</time>
      </trkpt>
      <trkpt lat="31.229726001620293" lon="-7.146217944100499">
        <ele>1693.02</ele>
        <time>2019-03-15T16:54:10Z</time>
      </trkpt>
      <trkpt lat="31.229794984683394" lon="-7.146329088136554">
        <ele>1692.0599999999999</ele>
        <time>2019-03-15T16:54:11Z</time>
      </trkpt>
      <trkpt lat="31.22988173738122" lon="-7.146430090069771">
        <ele>1691.0999999999999</ele>
        <time>2019-03-15T16:54:12Z</time>
      </trkpt>
      <trkpt lat="31.2299829069525" lon="-7.146515753120184">
        <ele>1689.6500000000001</ele>
        <time>2019-03-15T16:54:13Z</time>
      </trkpt>
      <trkpt lat="31.230079717934132" lon="-7.146596889942884">
        <ele>1688.21</ele>
        <time>2019-03-15T16:54:14Z</time>
      </trkpt>
      <trkpt lat="31.230162447318435" lon="-7.146679032593966">
        <ele>1686.77</ele>
        <time>2019-03-15T16:54:15Z</time>
      </trkpt>
      <trkpt lat="31.230242997407913" lon="-7.146755224093795">
        <ele>1680.52</ele>
        <time>2019-03-15T16:54:16Z</time>
      </trkpt>
      <trkpt lat="31.23033419251442" lon="-7.146822279319167">
        <ele>1680.52</ele>
        <time>2019-03-15T16:54:17Z</time>
      </trkpt>
      <trkpt lat="31.230432847514749" lon="-7.146894866600633">
        <ele>1680.52</ele>
        <time>2019-03-15T16:54:18Z</time>
      </trkpt>
      <trkpt lat="31.230531251057982" lon="-7.146990420296788">
        <ele>1680.52</ele>
        <time>2019-03-15T16:54:27Z</time>
      </trkpt>
      <trkpt lat="31.23062982223928" lon="-7.147106677293778">
        <ele>1681</ele>
        <time>2019-03-15T16:54:34Z</time>
      </trkpt>
      <trkpt lat="31.230733003467321" lon="-7.147232573479414">
        <ele>1681.48</ele>
        <time>2019-03-15T16:54:35Z</time>
      </trkpt>
      <trkpt lat="31.231695497408509" lon="-7.14821107685566">
        <ele>1683.4100000000001</ele>
        <time>2019-03-15T16:54:36Z</time>
      </trkpt>
      <trkpt lat="31.23207570053637" lon="-7.148416433483362">
        <ele>1683.8900000000001</ele>
        <time>2019-03-15T16:54:37Z</time>
      </trkpt>
      <trkpt lat="31.232208721339703" lon="-7.148452727124095">
        <ele>1683.8900000000001</ele>
        <time>2019-03-15T16:54:38Z</time>
      </trkpt>
      <trkpt lat="31.232352638617158" lon="-7.148466724902391">
        <ele>1683.8900000000001</ele>
        <time>2019-03-15T16:54:48Z</time>
      </trkpt>
      <trkpt lat="31.232822528108954" lon="-7.148504359647632">
        <ele>1683.4100000000001</ele>
        <time>2019-03-15T16:54:51Z</time>
      </trkpt>
      <trkpt lat="31.232982706278563" lon="-7.148551214486361">
        <ele>1681.48</ele>
        <time>2019-03-15T16:54:52Z</time>
      </trkpt>
      <trkpt lat="31.233433820307255" lon="-7.148707872256637">
        <ele>1681.48</ele>
        <time>2019-03-15T16:54:53Z</time>
      </trkpt>
      <trkpt lat="31.2335782404989" lon="-7.148738130927086">
        <ele>1681.96</ele>
        <time>2019-03-15T16:54:55Z</time>
      </trkpt>
      <trkpt lat="31.234171679243445" lon="-7.148896716535091">
        <ele>1686.77</ele>
        <time>2019-03-15T16:54:56Z</time>
      </trkpt>
      <trkpt lat="31.234313752502203" lon="-7.148976344615221">
        <ele>1687.25</ele>
        <time>2019-03-15T16:54:57Z</time>
      </trkpt>
      <trkpt lat="31.234451970085502" lon="-7.149072820320725">
        <ele>1687.73</ele>
        <time>2019-03-15T16:54:58Z</time>
      </trkpt>
      <trkpt lat="31.235399628058076" lon="-7.149637509137392">
        <ele>1688.6900000000001</ele>
        <time>2019-03-15T16:54:59Z</time>
      </trkpt>
      <trkpt lat="31.235518231987953" lon="-7.149733733385801">
        <ele>1688.6900000000001</ele>
        <time>2019-03-15T16:55:00Z</time>
      </trkpt>
      <trkpt lat="31.235629376024008" lon="-7.149846721440554">
        <ele>1688.21</ele>
        <time>2019-03-15T16:55:01Z</time>
      </trkpt>
      <trkpt lat="31.236259611323476" lon="-7.150578545406461">
        <ele>1688.21</ele>
        <time>2019-03-15T16:55:02Z</time>
      </trkpt>
      <trkpt lat="31.236343178898096" lon="-7.150707878172398">
        <ele>1688.21</ele>
        <time>2019-03-15T16:55:03Z</time>
      </trkpt>
      <trkpt lat="31.236411994323134" lon="-7.150845592841506">
        <ele>1687.73</ele>
        <time>2019-03-15T16:55:04Z</time>
      </trkpt>
      <trkpt lat="31.23654275201261" lon="-7.151108449324966">
        <ele>1688.21</ele>
        <time>2019-03-15T16:55:05Z</time>
      </trkpt>
      <trkpt lat="31.236617770045996" lon="-7.151225795969367">
        <ele>1688.21</ele>
        <time>2019-03-15T16:55:06Z</time>
      </trkpt>
      <trkpt lat="31.236695889383554" lon="-7.151325205340982">
        <ele>1688.6900000000001</ele>
        <time>2019-03-15T16:55:07Z</time>
      </trkpt>
      <trkpt lat="31.236778032034636" lon="-7.151399720460177">
        <ele>1689.1700000000001</ele>
        <time>2019-03-15T16:55:08Z</time>
      </trkpt>
      <trkpt lat="31.236868724226952" lon="-7.151445653289557">
        <ele>1690.1400000000001</ele>
        <time>2019-03-15T16:55:09Z</time>
      </trkpt>
      <trkpt lat="31.236963858827949" lon="-7.151459567248821">
        <ele>1691.0999999999999</ele>
        <time>2019-03-15T16:55:10Z</time>
      </trkpt>
      <trkpt lat="31.237060502171516" lon="-7.151447245851159">
        <ele>1691.5799999999999</ele>
        <time>2019-03-15T16:55:11Z</time>
      </trkpt>
      <trkpt lat="31.237157480791211" lon="-7.15142872184515">
        <ele>1692.0599999999999</ele>
        <time>2019-03-15T16:55:13Z</time>
      </trkpt>
      <trkpt lat="31.237255046144128" lon="-7.151419166475534">
        <ele>1694.46</ele>
        <time>2019-03-15T16:55:14Z</time>
      </trkpt>
      <trkpt lat="31.237347666174173" lon="-7.151435846462846">
        <ele>1694.9400000000001</ele>
        <time>2019-03-15T16:55:23Z</time>
      </trkpt>
      <trkpt lat="31.23743156902492" lon="-7.151474822312594">
        <ele>1694.9400000000001</ele>
        <time>2019-03-15T16:55:32Z</time>
      </trkpt>
      <trkpt lat="31.237506503239274" lon="-7.151533160358667">
        <ele>1691.0999999999999</ele>
        <time>2019-03-15T16:55:33Z</time>
      </trkpt>
      <trkpt lat="31.237568026408553" lon="-7.151608178392053">
        <ele>1692.54</ele>
        <time>2019-03-15T16:55:34Z</time>
      </trkpt>
      <trkpt lat="31.237618485465646" lon="-7.151693422347307">
        <ele>1693.5</ele>
        <time>2019-03-15T16:55:35Z</time>
      </trkpt>
      <trkpt lat="31.237773550674319" lon="-7.151914453133941">
        <ele>1694.46</ele>
        <time>2019-03-15T16:55:44Z</time>
      </trkpt>
      <trkpt lat="31.237913360819221" lon="-7.152014784514904">
        <ele>1696.8599999999999</ele>
        <time>2019-03-15T16:55:57Z</time>
      </trkpt>
      <trkpt lat="31.238011177629232" lon="-7.152019226923585">
        <ele>1697.8299999999999</ele>
        <time>2019-03-15T16:56:06Z</time>
      </trkpt>
      <trkpt lat="31.239077523350716" lon="-7.151998188346624">
        <ele>1699.27</ele>
        <time>2019-03-15T16:56:16Z</time>
      </trkpt>
      <trkpt lat="31.239526541903615" lon="-7.151966923847795">
        <ele>1700.23</ele>
        <time>2019-03-15T16:56:18Z</time>
      </trkpt>
      <trkpt lat="31.239625280722976" lon="-7.15193247422576">
        <ele>1700.71</ele>
        <time>2019-03-15T16:56:19Z</time>
      </trkpt>
      <trkpt lat="31.239716140553355" lon="-7.151888804510236">
        <ele>1701.6700000000001</ele>
        <time>2019-03-15T16:56:20Z</time>
      </trkpt>
      <trkpt lat="31.23989081941545" lon="-7.151821414008737">
        <ele>1702.6300000000001</ele>
        <time>2019-03-15T16:56:21Z</time>
      </trkpt>
      <trkpt lat="31.239979164674878" lon="-7.151827113702893">
        <ele>1703.5899999999999</ele>
        <time>2019-03-15T16:56:22Z</time>
      </trkpt>
      <trkpt lat="31.240063067525625" lon="-7.151872962713242">
        <ele>1705.04</ele>
        <time>2019-03-15T16:56:25Z</time>
      </trkpt>
      <trkpt lat="31.240131882950664" lon="-7.151949489489198">
        <ele>1706.48</ele>
        <time>2019-03-15T16:56:26Z</time>
      </trkpt>
      <trkpt lat="31.240188628435135" lon="-7.152047138661146">
        <ele>1707.9200000000001</ele>
        <time>2019-03-15T16:56:27Z</time>
      </trkpt>
      <trkpt lat="31.240249900147319" lon="-7.152148643508554">
        <ele>1721.8599999999999</ele>
        <time>2019-03-15T16:56:28Z</time>
      </trkpt>
      <trkpt lat="31.240322403609753" lon="-7.15224570594728">
        <ele>1731.47</ele>
        <time>2019-03-15T16:56:29Z</time>
      </trkpt>
      <trkpt lat="31.240407396107912" lon="-7.152335727587342">
        <ele>1732.4300000000001</ele>
        <time>2019-03-15T16:56:30Z</time>
      </trkpt>
      <trkpt lat="31.240500686690211" lon="-7.152421474456787">
        <ele>1733.3900000000001</ele>
        <time>2019-03-15T16:56:31Z</time>
      </trkpt>
      <trkpt lat="31.24060370028019" lon="-7.152503030374646">
        <ele>1733.3900000000001</ele>
        <time>2019-03-15T16:56:38Z</time>
      </trkpt>
      <trkpt lat="31.240712832659483" lon="-7.152583915740252">
        <ele>1733.8800000000001</ele>
        <time>2019-03-15T16:56:49Z</time>
      </trkpt>
      <trkpt lat="31.241641463711858" lon="-7.153364019468427">
        <ele>1741.0799999999999</ele>
        <time>2019-03-15T16:56:50Z</time>
      </trkpt>
      <trkpt lat="31.242285948246717" lon="-7.153921918943524">
        <ele>1743.97</ele>
        <time>2019-03-15T16:56:51Z</time>
      </trkpt>
      <trkpt lat="31.242389883846045" lon="-7.153967600315809">
        <ele>1744.45</ele>
        <time>2019-03-15T16:56:52Z</time>
      </trkpt>
      <trkpt lat="31.242498513311148" lon="-7.153995260596275">
        <ele>1745.4100000000001</ele>
        <time>2019-03-15T16:56:53Z</time>
      </trkpt>
      <trkpt lat="31.242609405890107" lon="-7.154017807915807">
        <ele>1745.8900000000001</ele>
        <time>2019-03-15T16:56:54Z</time>
      </trkpt>
      <trkpt lat="31.242718705907464" lon="-7.15403406880796">
        <ele>1745.8900000000001</ele>
        <time>2019-03-15T16:56:56Z</time>
      </trkpt>
      <trkpt lat="31.243820507079363" lon="-7.154028620570898">
        <ele>1745.4100000000001</ele>
        <time>2019-03-15T16:56:57Z</time>
      </trkpt>
      <trkpt lat="31.244101468473673" lon="-7.154067428782582">
        <ele>1744.45</ele>
        <time>2019-03-15T16:56:58Z</time>
      </trkpt>
      <trkpt lat="31.244175396859646" lon="-7.154118558391929">
        <ele>1743.49</ele>
        <time>2019-03-15T16:57:07Z</time>
      </trkpt>
      <trkpt lat="31.244238596409559" lon="-7.154187876731157">
        <ele>1742.53</ele>
        <time>2019-03-15T16:57:16Z</time>
      </trkpt>
      <trkpt lat="31.24436273239553" lon="-7.154332213103771">
        <ele>1741.5699999999999</ele>
        <time>2019-03-15T16:57:22Z</time>
      </trkpt>
      <trkpt lat="31.244437666609883" lon="-7.154386024922133">
        <ele>1740.5999999999999</ele>
        <time>2019-03-15T16:57:23Z</time>
      </trkpt>
      <trkpt lat="31.244520228356123" lon="-7.1544239949435">
        <ele>1739.6400000000001</ele>
        <time>2019-03-15T16:57:25Z</time>
      </trkpt>
      <trkpt lat="31.244607400149107" lon="-7.154454588890076">
        <ele>1738.2</ele>
        <time>2019-03-15T16:57:26Z</time>
      </trkpt>
      <trkpt lat="31.244697505608201" lon="-7.154483590275049">
        <ele>1736.76</ele>
        <time>2019-03-15T16:57:27Z</time>
      </trkpt>
      <trkpt lat="31.244788281619549" lon="-7.154520051553845">
        <ele>1735.3199999999999</ele>
        <time>2019-03-15T16:57:28Z</time>
      </trkpt>
      <trkpt lat="31.244874447584152" lon="-7.154568582773209">
        <ele>1734.3599999999999</ele>
        <time>2019-03-15T16:57:29Z</time>
      </trkpt>
      <trkpt lat="31.244952399283648" lon="-7.154633374884725">
        <ele>1732.9100000000001</ele>
        <time>2019-03-15T16:57:30Z</time>
      </trkpt>
      <trkpt lat="31.245021549984813" lon="-7.154710236936808">
        <ele>1731.47</ele>
        <time>2019-03-15T16:57:31Z</time>
      </trkpt>
      <trkpt lat="31.245080977678299" lon="-7.154792798683047">
        <ele>1730.03</ele>
        <time>2019-03-15T16:57:41Z</time>
      </trkpt>
      <trkpt lat="31.245137974619865" lon="-7.15486572124064">
        <ele>1728.5899999999999</ele>
        <time>2019-03-15T16:57:42Z</time>
      </trkpt>
      <trkpt lat="31.245203353464603" lon="-7.154917772859335">
        <ele>1726.1800000000001</ele>
        <time>2019-03-15T16:57:52Z</time>
      </trkpt>
      <trkpt lat="31.245278539136052" lon="-7.154941745102406">
        <ele>1725.22</ele>
        <time>2019-03-15T16:57:53Z</time>
      </trkpt>
      <trkpt lat="31.245359424501657" lon="-7.154928836971521">
        <ele>1717.05</ele>
        <time>2019-03-15T16:57:56Z</time>
      </trkpt>
      <trkpt lat="31.245437879115343" lon="-7.154879635199904">
        <ele>1712.25</ele>
        <time>2019-03-15T16:57:57Z</time>
      </trkpt>
      <trkpt lat="31.245518596842885" lon="-7.154805958271027">
        <ele>1711.76</ele>
        <time>2019-03-15T16:57:58Z</time>
      </trkpt>
      <trkpt lat="31.245605181902647" lon="-7.154718199744821">
        <ele>1711.28</ele>
        <time>2019-03-15T16:58:05Z</time>
      </trkpt>
      <trkpt lat="31.245797965675592" lon="-7.154541006311774">
        <ele>1711.28</ele>
        <time>2019-03-15T16:58:06Z</time>
      </trkpt>
      <trkpt lat="31.245909612625837" lon="-7.154463557526469">
        <ele>1709.8399999999999</ele>
        <time>2019-03-15T16:58:08Z</time>
      </trkpt>
      <trkpt lat="31.247092382982373" lon="-7.153837932273746">
        <ele>1717.53</ele>
        <time>2019-03-15T16:58:09Z</time>
      </trkpt>
      <trkpt lat="31.248259143903852" lon="-7.153083058074117">
        <ele>1723.3</ele>
        <time>2019-03-15T16:58:10Z</time>
      </trkpt>
      <trkpt lat="31.248391577973962" lon="-7.152989516034722">
        <ele>1728.1099999999999</ele>
        <time>2019-03-15T16:58:12Z</time>
      </trkpt>
      <trkpt lat="31.248534237965941" lon="-7.152915671467781">
        <ele>1728.5899999999999</ele>
        <time>2019-03-15T16:58:13Z</time>
      </trkpt>
      <trkpt lat="31.248685196042061" lon="-7.152866050601006">
        <ele>1729.0699999999999</ele>
        <time>2019-03-15T16:58:14Z</time>
      </trkpt>
      <trkpt lat="31.250033425167203" lon="-7.152382917702198">
        <ele>1729.55</ele>
        <time>2019-03-15T16:58:15Z</time>
      </trkpt>
      <trkpt lat="31.25217298977077" lon="-7.151832645758987">
        <ele>1730.03</ele>
        <time>2019-03-15T16:58:16Z</time>
      </trkpt>
      <trkpt lat="31.253717103973031" lon="-7.151581104844809">
        <ele>1730.03</ele>
        <time>2019-03-15T16:58:17Z</time>
      </trkpt>
      <trkpt lat="31.255368338897824" lon="-7.151803644374013">
        <ele>1729.55</ele>
        <time>2019-03-15T16:58:18Z</time>
      </trkpt>
      <trkpt lat="31.255625076591969" lon="-7.151916967704892">
        <ele>1729.0699999999999</ele>
        <time>2019-03-15T16:58:19Z</time>
      </trkpt>
      <trkpt lat="31.25573068857193" lon="-7.152003804221749">
        <ele>1729.0699999999999</ele>
        <time>2019-03-15T16:58:20Z</time>
      </trkpt>
      <trkpt lat="31.255814926698804" lon="-7.152121318504214">
        <ele>1728.1099999999999</ele>
        <time>2019-03-15T16:58:21Z</time>
      </trkpt>
      <trkpt lat="31.255884747952223" lon="-7.152254087850452">
        <ele>1727.6300000000001</ele>
        <time>2019-03-15T16:58:22Z</time>
      </trkpt>
      <trkpt lat="31.255947193130851" lon="-7.152391718700528">
        <ele>1727.1500000000001</ele>
        <time>2019-03-15T16:58:30Z</time>
      </trkpt>
      <trkpt lat="31.25613478012383" lon="-7.15274753049016">
        <ele>1726.1800000000001</ele>
        <time>2019-03-15T16:58:31Z</time>
      </trkpt>
      <trkpt lat="31.256200661882758" lon="-7.152830678969622">
        <ele>1722.8199999999999</ele>
        <time>2019-03-15T16:58:32Z</time>
      </trkpt>
      <trkpt lat="31.256276099011302" lon="-7.152890022844076">
        <ele>1720.9000000000001</ele>
        <time>2019-03-15T16:58:33Z</time>
      </trkpt>
      <trkpt lat="31.256365282461047" lon="-7.152920616790652">
        <ele>1720.9000000000001</ele>
        <time>2019-03-15T16:58:34Z</time>
      </trkpt>
      <trkpt lat="31.256468128412962" lon="-7.152930004522204">
        <ele>1720.9000000000001</ele>
        <time>2019-03-15T16:58:35Z</time>
      </trkpt>
      <trkpt lat="31.256580781191587" lon="-7.15292539447546">
        <ele>1720.4200000000001</ele>
        <time>2019-03-15T16:58:36Z</time>
      </trkpt>
      <trkpt lat="31.256703911349177" lon="-7.152913911268115">
        <ele>1720.4200000000001</ele>
        <time>2019-03-15T16:58:37Z</time>
      </trkpt>
      <trkpt lat="31.257702950388193" lon="-7.152928579598665">
        <ele>1720.4200000000001</ele>
        <time>2019-03-15T16:58:38Z</time>
      </trkpt>
      <trkpt lat="31.259094178676605" lon="-7.152823805809021">
        <ele>1720.4200000000001</ele>
        <time>2019-03-15T16:58:39Z</time>
      </trkpt>
      <trkpt lat="31.259188642725348" lon="-7.152833612635732">
        <ele>1720.9000000000001</ele>
        <time>2019-03-15T16:58:44Z</time>
      </trkpt>
      <trkpt lat="31.259272880852222" lon="-7.152871582657099">
        <ele>1721.3800000000001</ele>
        <time>2019-03-15T16:58:45Z</time>
      </trkpt>
      <trkpt lat="31.259344210848212" lon="-7.152942912653089">
        <ele>1729.0699999999999</ele>
        <time>2019-03-15T16:58:46Z</time>
      </trkpt>
      <trkpt lat="31.259402381256223" lon="-7.153038214892149">
        <ele>1733.3900000000001</ele>
        <time>2019-03-15T16:58:47Z</time>
      </trkpt>
      <trkpt lat="31.259452840313315" lon="-7.153147850185633">
        <ele>1736.76</ele>
        <time>2019-03-15T16:58:48Z</time>
      </trkpt>
      <trkpt lat="31.259567756205797" lon="-7.153368210420013">
        <ele>1737.24</ele>
        <time>2019-03-15T16:58:49Z</time>
      </trkpt>
      <trkpt lat="31.259642774239182" lon="-7.153464099392295">
        <ele>1738.6800000000001</ele>
        <time>2019-03-15T16:58:50Z</time>
      </trkpt>
      <trkpt lat="31.259722402319312" lon="-7.153548337519169">
        <ele>1739.1600000000001</ele>
        <time>2019-03-15T16:58:51Z</time>
      </trkpt>
      <trkpt lat="31.26052807085216" lon="-7.154119731858373">
        <ele>1739.1600000000001</ele>
        <time>2019-03-15T16:58:52Z</time>
      </trkpt>
      <trkpt lat="31.261686785146594" lon="-7.154583921656013">
        <ele>1739.6400000000001</ele>
        <time>2019-03-15T16:58:53Z</time>
      </trkpt>
      <trkpt lat="31.262544924393296" lon="-7.154736472293735">
        <ele>1739.1600000000001</ele>
        <time>2019-03-15T16:58:54Z</time>
      </trkpt>
      <trkpt lat="31.262675262987614" lon="-7.154788104817271">
        <ele>1739.1600000000001</ele>
        <time>2019-03-15T16:58:55Z</time>
      </trkpt>
      <trkpt lat="31.262913476675749" lon="-7.154871756210923">
        <ele>1739.1600000000001</ele>
        <time>2019-03-15T16:58:56Z</time>
      </trkpt>
      <trkpt lat="31.263025710359216" lon="-7.154879719018936">
        <ele>1740.1199999999999</ele>
        <time>2019-03-15T16:58:57Z</time>
      </trkpt>
      <trkpt lat="31.263135764747858" lon="-7.154857590794563">
        <ele>1741.0799999999999</ele>
        <time>2019-03-15T16:58:58Z</time>
      </trkpt>
      <trkpt lat="31.2632458191365" lon="-7.154805958271027">
        <ele>1751.6600000000001</ele>
        <time>2019-03-15T16:58:59Z</time>
      </trkpt>
      <trkpt lat="31.263355119153857" lon="-7.154731694608927">
        <ele>1752.6199999999999</ele>
        <time>2019-03-15T16:59:00Z</time>
      </trkpt>
      <trkpt lat="31.2634651735425" lon="-7.154636895284057">
        <ele>1756.47</ele>
        <time>2019-03-15T16:59:01Z</time>
      </trkpt>
      <trkpt lat="31.263579754158854" lon="-7.154530109837651">
        <ele>1757.4300000000001</ele>
        <time>2019-03-15T16:59:02Z</time>
      </trkpt>
      <trkpt lat="31.264804182574153" lon="-7.153314398601651">
        <ele>1757.9100000000001</ele>
        <time>2019-03-15T16:59:03Z</time>
      </trkpt>
      <trkpt lat="31.264941059052944" lon="-7.153214905411005">
        <ele>1762.71</ele>
        <time>2019-03-15T16:59:04Z</time>
      </trkpt>
      <trkpt lat="31.266309153288603" lon="-7.152146715670824">
        <ele>1763.6800000000001</ele>
        <time>2019-03-15T16:59:05Z</time>
      </trkpt>
      <trkpt lat="31.266439408063889" lon="-7.152059376239777">
        <ele>1765.5999999999999</ele>
        <time>2019-03-15T16:59:06Z</time>
      </trkpt>
      <trkpt lat="31.266811396926641" lon="-7.151870364323258">
        <ele>1766.0799999999999</ele>
        <time>2019-03-15T16:59:08Z</time>
      </trkpt>
      <trkpt lat="31.26693737693131" lon="-7.15183817781508">
        <ele>1766.5599999999999</ele>
        <time>2019-03-15T16:59:09Z</time>
      </trkpt>
      <trkpt lat="31.267066122964025" lon="-7.151825521141291">
        <ele>1767.52</ele>
        <time>2019-03-15T16:59:10Z</time>
      </trkpt>
      <trkpt lat="31.268045045435429" lon="-7.151946388185024">
        <ele>1767.52</ele>
        <time>2019-03-15T16:59:12Z</time>
      </trkpt>
      <trkpt lat="31.268178150057793" lon="-7.151941359043121">
        <ele>1768</ele>
        <time>2019-03-15T16:59:13Z</time>
      </trkpt>
      <trkpt lat="31.268418794497848" lon="-7.151933563873172">
        <ele>1768</ele>
        <time>2019-03-15T16:59:14Z</time>
      </trkpt>
      <trkpt lat="31.268525579944253" lon="-7.151955189183354">
        <ele>1768.48</ele>
        <time>2019-03-15T16:59:15Z</time>
      </trkpt>
      <trkpt lat="31.268624989315867" lon="-7.151993745937944">
        <ele>1768.48</ele>
        <time>2019-03-15T16:59:16Z</time>
      </trkpt>
      <trkpt lat="31.268809726461768" lon="-7.15207957662642">
        <ele>1768.96</ele>
        <time>2019-03-15T16:59:17Z</time>
      </trkpt>
      <trkpt lat="31.26889974810183" lon="-7.152102878317237">
        <ele>1768.96</ele>
        <time>2019-03-15T16:59:18Z</time>
      </trkpt>
      <trkpt lat="31.268983986228704" lon="-7.152102962136269">
        <ele>1769.4400000000001</ele>
        <time>2019-03-15T16:59:19Z</time>
      </trkpt>
      <trkpt lat="31.26906001009047" lon="-7.152077397331595">
        <ele>1769.4400000000001</ele>
        <time>2019-03-15T16:59:20Z</time>
      </trkpt>
      <trkpt lat="31.269123377278447" lon="-7.152029285207391">
        <ele>1769.4400000000001</ele>
        <time>2019-03-15T16:59:21Z</time>
      </trkpt>
      <trkpt lat="31.269179536029696" lon="-7.151968264952302">
        <ele>1771.8499999999999</ele>
        <time>2019-03-15T16:59:22Z</time>
      </trkpt>
      <trkpt lat="31.269239634275436" lon="-7.151911268010736">
        <ele>1772.3299999999999</ele>
        <time>2019-03-15T16:59:23Z</time>
      </trkpt>
      <trkpt lat="31.269312389194965" lon="-7.151871202513576">
        <ele>1772.3299999999999</ele>
        <time>2019-03-15T16:59:24Z</time>
      </trkpt>
      <trkpt lat="31.269396459683776" lon="-7.151853097602725">
        <ele>1772.8099999999999</ele>
        <time>2019-03-15T16:59:34Z</time>
      </trkpt>
      <trkpt lat="31.269488492980599" lon="-7.151855193078518">
        <ele>1773.29</ele>
        <time>2019-03-15T16:59:37Z</time>
      </trkpt>
      <trkpt lat="31.269588237628341" lon="-7.151872795075178">
        <ele>1773.29</ele>
        <time>2019-03-15T16:59:38Z</time>
      </trkpt>
      <trkpt lat="31.270503122359514" lon="-7.151978323236108">
        <ele>1773.29</ele>
        <time>2019-03-15T16:59:39Z</time>
      </trkpt>
      <trkpt lat="31.270594568923116" lon="-7.152012353762984">
        <ele>1773.29</ele>
        <time>2019-03-15T16:59:40Z</time>
      </trkpt>
      <trkpt lat="31.270666653290391" lon="-7.152074966579676">
        <ele>1773.29</ele>
        <time>2019-03-15T16:59:41Z</time>
      </trkpt>
      <trkpt lat="31.270718956366181" lon="-7.152155851945281">
        <ele>1773.77</ele>
        <time>2019-03-15T16:59:42Z</time>
      </trkpt>
      <trkpt lat="31.270762123167515" lon="-7.152242437005043">
        <ele>1774.73</ele>
        <time>2019-03-15T16:59:43Z</time>
      </trkpt>
      <trkpt lat="31.270813504233956" lon="-7.152315778657794">
        <ele>1774.73</ele>
        <time>2019-03-15T16:59:44Z</time>
      </trkpt>
      <trkpt lat="31.270880391821265" lon="-7.152367411181331">
        <ele>1774.73</ele>
        <time>2019-03-15T16:59:45Z</time>
      </trkpt>
      <trkpt lat="31.270961696282029" lon="-7.152386270463467">
        <ele>1774.73</ele>
        <time>2019-03-15T16:59:46Z</time>
      </trkpt>
      <trkpt lat="31.27105456776917" lon="-7.15238300152123">
        <ele>1774.73</ele>
        <time>2019-03-15T16:59:47Z</time>
      </trkpt>
      <trkpt lat="31.271157246083021" lon="-7.152373781427741">
        <ele>1774.73</ele>
        <time>2019-03-15T16:59:48Z</time>
      </trkpt>
      <trkpt lat="31.271699387580156" lon="-7.152402950450778">
        <ele>1775.21</ele>
        <time>2019-03-15T16:59:49Z</time>
      </trkpt>
      <trkpt lat="31.271794438362122" lon="-7.152458773925901">
        <ele>1775.21</ele>
        <time>2019-03-15T16:59:50Z</time>
      </trkpt>
      <trkpt lat="31.271879598498344" lon="-7.152536725625396">
        <ele>1775.21</ele>
        <time>2019-03-15T16:59:55Z</time>
      </trkpt>
      <trkpt lat="31.271960902959108" lon="-7.152613000944257">
        <ele>1775.6900000000001</ele>
        <time>2019-03-15T16:59:56Z</time>
      </trkpt>
      <trkpt lat="31.272047236561775" lon="-7.152671590447426">
        <ele>1775.6900000000001</ele>
        <time>2019-03-15T16:59:57Z</time>
      </trkpt>
      <trkpt lat="31.272141449153423" lon="-7.152703190222383">
        <ele>1776.1700000000001</ele>
        <time>2019-03-15T17:00:00Z</time>
      </trkpt>
      <trkpt lat="31.272239098325372" lon="-7.152695981785655">
        <ele>1776.6500000000001</ele>
        <time>2019-03-15T17:00:01Z</time>
      </trkpt>
      <trkpt lat="31.272332724183798" lon="-7.1526522282511">
        <ele>1776.6500000000001</ele>
        <time>2019-03-15T17:00:02Z</time>
      </trkpt>
      <trkpt lat="31.272419476881623" lon="-7.15258777141571">
        <ele>1776.6500000000001</ele>
        <time>2019-03-15T17:00:06Z</time>
      </trkpt>
      <trkpt lat="31.272511593997478" lon="-7.152525493875146">
        <ele>1777.1300000000001</ele>
        <time>2019-03-15T17:00:07Z</time>
      </trkpt>
      <trkpt lat="31.272613853216171" lon="-7.152481572702527">
        <ele>1777.6099999999999</ele>
        <time>2019-03-15T17:00:08Z</time>
      </trkpt>
      <trkpt lat="31.272725835442543" lon="-7.152455756440759">
        <ele>1777.6099999999999</ele>
        <time>2019-03-15T17:00:09Z</time>
      </trkpt>
      <trkpt lat="31.272840835154057" lon="-7.152448128908873">
        <ele>1777.6099999999999</ele>
        <time>2019-03-15T17:00:10Z</time>
      </trkpt>
      <trkpt lat="31.272955080494285" lon="-7.152450056746602">
        <ele>1778.0999999999999</ele>
        <time>2019-03-15T17:00:11Z</time>
      </trkpt>
      <trkpt lat="31.273066224530339" lon="-7.152454415336251">
        <ele>1778.5799999999999</ele>
        <time>2019-03-15T17:00:12Z</time>
      </trkpt>
      <trkpt lat="31.273169992491603" lon="-7.152444692328572">
        <ele>1779.0599999999999</ele>
        <time>2019-03-15T17:00:13Z</time>
      </trkpt>
      <trkpt lat="31.273265378549695" lon="-7.152409739792347">
        <ele>1779.54</ele>
        <time>2019-03-15T17:00:14Z</time>
      </trkpt>
      <trkpt lat="31.273348946124315" lon="-7.152346540242434">
        <ele>1780.98</ele>
        <time>2019-03-15T17:00:25Z</time>
      </trkpt>
      <trkpt lat="31.273419018834829" lon="-7.152270181104541">
        <ele>1781.46</ele>
        <time>2019-03-15T17:00:36Z</time>
      </trkpt>
      <trkpt lat="31.2734913546592" lon="-7.152198515832424">
        <ele>1782.4200000000001</ele>
        <time>2019-03-15T17:00:44Z</time>
      </trkpt>
      <trkpt lat="31.273575341328979" lon="-7.152150487527251">
        <ele>1783.3800000000001</ele>
        <time>2019-03-15T17:00:52Z</time>
      </trkpt>
      <trkpt lat="31.27366972155869" lon="-7.152135483920574">
        <ele>1783.8599999999999</ele>
        <time>2019-03-15T17:00:53Z</time>
      </trkpt>
      <trkpt lat="31.273771813139319" lon="-7.152139926329255">
        <ele>1784.3399999999999</ele>
        <time>2019-03-15T17:00:54Z</time>
      </trkpt>
      <trkpt lat="31.273985467851162" lon="-7.152127018198371">
        <ele>1785.3099999999999</ele>
        <time>2019-03-15T17:00:55Z</time>
      </trkpt>
      <trkpt lat="31.274091331288218" lon="-7.152099525555968">
        <ele>1786.27</ele>
        <time>2019-03-15T17:00:56Z</time>
      </trkpt>
      <trkpt lat="31.274193674325943" lon="-7.152060884982348">
        <ele>1786.75</ele>
        <time>2019-03-15T17:00:57Z</time>
      </trkpt>
      <trkpt lat="31.274385452270508" lon="-7.151990476995707">
        <ele>1787.71</ele>
        <time>2019-03-15T17:00:58Z</time>
      </trkpt>
      <trkpt lat="31.274470025673509" lon="-7.151988968253136">
        <ele>1788.1900000000001</ele>
        <time>2019-03-15T17:00:59Z</time>
      </trkpt>
      <trkpt lat="31.274549569934607" lon="-7.15201553888619">
        <ele>1789.1500000000001</ele>
        <time>2019-03-15T17:01:00Z</time>
      </trkpt>
      <trkpt lat="31.274630120024085" lon="-7.152049569413066">
        <ele>1789.6300000000001</ele>
        <time>2019-03-15T17:01:01Z</time>
      </trkpt>
      <trkpt lat="31.27471636980772" lon="-7.152068680152297">
        <ele>1790.5899999999999</ele>
        <time>2019-03-15T17:01:02Z</time>
      </trkpt>
      <trkpt lat="31.274809157475829" lon="-7.152066081762314">
        <ele>1791.55</ele>
        <time>2019-03-15T17:01:11Z</time>
      </trkpt>
      <trkpt lat="31.274905130267143" lon="-7.15203850530088">
        <ele>1792.03</ele>
        <time>2019-03-15T17:01:12Z</time>
      </trkpt>
      <trkpt lat="31.275001019239426" lon="-7.151990896090865">
        <ele>1792.52</ele>
        <time>2019-03-15T17:01:15Z</time>
      </trkpt>
      <trkpt lat="31.275091459974647" lon="-7.151933312416077">
        <ele>1789.6300000000001</ele>
        <time>2019-03-15T17:01:16Z</time>
      </trkpt>
      <trkpt lat="31.27518055960536" lon="-7.151882350444794">
        <ele>1788.6700000000001</ele>
        <time>2019-03-15T17:01:17Z</time>
      </trkpt>
      <trkpt lat="31.275267563760281" lon="-7.151855947449803">
        <ele>1787.71</ele>
        <time>2019-03-15T17:01:18Z</time>
      </trkpt>
      <trkpt lat="31.275350041687489" lon="-7.151850331574678">
        <ele>1786.75</ele>
        <time>2019-03-15T17:01:19Z</time>
      </trkpt>
      <trkpt lat="31.275430424138904" lon="-7.151856031268835">
        <ele>1785.79</ele>
        <time>2019-03-15T17:01:29Z</time>
      </trkpt>
      <trkpt lat="31.276426529511809" lon="-7.151985196396709">
        <ele>1784.8199999999999</ele>
        <time>2019-03-15T17:01:30Z</time>
      </trkpt>
      <trkpt lat="31.27674613147974" lon="-7.152124000713229">
        <ele>1783.8599999999999</ele>
        <time>2019-03-15T17:01:31Z</time>
      </trkpt>
      <trkpt lat="31.276834644377232" lon="-7.152189295738936">
        <ele>1782.4200000000001</ele>
        <time>2019-03-15T17:01:32Z</time>
      </trkpt>
      <trkpt lat="31.276912679895759" lon="-7.152270264923573">
        <ele>1781.9400000000001</ele>
        <time>2019-03-15T17:01:33Z</time>
      </trkpt>
      <trkpt lat="31.276981998234987" lon="-7.152361292392016">
        <ele>1781.46</ele>
        <time>2019-03-15T17:01:34Z</time>
      </trkpt>
      <trkpt lat="31.277043018490076" lon="-7.152459863573313">
        <ele>1780.98</ele>
        <time>2019-03-15T17:01:35Z</time>
      </trkpt>
      <trkpt lat="31.277099763974547" lon="-7.152554411441088">
        <ele>1780.5</ele>
        <time>2019-03-15T17:01:36Z</time>
      </trkpt>
      <trkpt lat="31.277159359306097" lon="-7.152634458616376">
        <ele>1779.54</ele>
        <time>2019-03-15T17:01:37Z</time>
      </trkpt>
      <trkpt lat="31.277228007093072" lon="-7.152682570740581">
        <ele>1779.54</ele>
        <time>2019-03-15T17:01:38Z</time>
      </trkpt>
      <trkpt lat="31.277300594374537" lon="-7.152683911845088">
        <ele>1778.5799999999999</ele>
        <time>2019-03-15T17:01:39Z</time>
      </trkpt>
      <trkpt lat="31.277364380657673" lon="-7.152640325948596">
        <ele>1778.5799999999999</ele>
        <time>2019-03-15T17:01:40Z</time>
      </trkpt>
      <trkpt lat="31.277411570772529" lon="-7.15256379917264">
        <ele>1778.5799999999999</ele>
        <time>2019-03-15T17:01:41Z</time>
      </trkpt>
      <trkpt lat="31.277445517480373" lon="-7.152474531903863">
        <ele>1779.0599999999999</ele>
        <time>2019-03-15T17:01:50Z</time>
      </trkpt>
      <trkpt lat="31.277471585199237" lon="-7.152377553284168">
        <ele>1778.5799999999999</ele>
        <time>2019-03-15T17:01:58Z</time>
      </trkpt>
      <trkpt lat="31.277493042871356" lon="-7.152277305722237">
        <ele>1778.5799999999999</ele>
        <time>2019-03-15T17:01:59Z</time>
      </trkpt>
      <trkpt lat="31.27763251774013" lon="-7.151741785928607">
        <ele>1778.5799999999999</ele>
        <time>2019-03-15T17:02:00Z</time>
      </trkpt>
      <trkpt lat="31.277647018432617" lon="-7.151624690741301">
        <ele>1778.5799999999999</ele>
        <time>2019-03-15T17:02:01Z</time>
      </trkpt>
      <trkpt lat="31.277651628479362" lon="-7.151507847011089">
        <ele>1778.0999999999999</ele>
        <time>2019-03-15T17:02:02Z</time>
      </trkpt>
      <trkpt lat="31.277668308466673" lon="-7.151180617511272">
        <ele>1778.0999999999999</ele>
        <time>2019-03-15T17:02:03Z</time>
      </trkpt>
      <trkpt lat="31.277717174962163" lon="-7.151081459596753">
        <ele>1777.6099999999999</ele>
        <time>2019-03-15T17:02:04Z</time>
      </trkpt>
      <trkpt lat="31.27778397873044" lon="-7.150987247005105">
        <ele>1777.1300000000001</ele>
        <time>2019-03-15T17:02:07Z</time>
      </trkpt>
      <trkpt lat="31.278076255694032" lon="-7.150667645037174">
        <ele>1777.1300000000001</ele>
        <time>2019-03-15T17:02:08Z</time>
      </trkpt>
      <trkpt lat="31.278157141059637" lon="-7.15061416849494">
        <ele>1777.1300000000001</ele>
        <time>2019-03-15T17:02:09Z</time>
      </trkpt>
      <trkpt lat="31.278241630643606" lon="-7.150583071634173">
        <ele>1776.6500000000001</ele>
        <time>2019-03-15T17:02:18Z</time>
      </trkpt>
      <trkpt lat="31.278331317007542" lon="-7.150583155453205">
        <ele>1772.3299999999999</ele>
        <time>2019-03-15T17:02:20Z</time>
      </trkpt>
      <trkpt lat="31.278424104675651" lon="-7.150607714429498">
        <ele>1769.9200000000001</ele>
        <time>2019-03-15T17:02:21Z</time>
      </trkpt>
      <trkpt lat="31.278518652543426" lon="-7.150639481842518">
        <ele>1768</ele>
        <time>2019-03-15T17:02:22Z</time>
      </trkpt>
      <trkpt lat="31.278614960610867" lon="-7.150659346953034">
        <ele>1769.9200000000001</ele>
        <time>2019-03-15T17:02:27Z</time>
      </trkpt>
      <trkpt lat="31.278708586469293" lon="-7.150659514591098">
        <ele>1769.9200000000001</ele>
        <time>2019-03-15T17:02:28Z</time>
      </trkpt>
      <trkpt lat="31.278799194842577" lon="-7.150647360831499">
        <ele>1769.9200000000001</ele>
        <time>2019-03-15T17:02:29Z</time>
      </trkpt>
      <trkpt lat="31.279969895258546" lon="-7.150598829612136">
        <ele>1770.4100000000001</ele>
        <time>2019-03-15T17:02:30Z</time>
      </trkpt>
      <trkpt lat="31.281132129952312" lon="-7.150600422173739">
        <ele>1770.4100000000001</ele>
        <time>2019-03-15T17:02:31Z</time>
      </trkpt>
      <trkpt lat="31.28226812928915" lon="-7.150587514042854">
        <ele>1770.4100000000001</ele>
        <time>2019-03-15T17:02:32Z</time>
      </trkpt>
      <trkpt lat="31.283352160826325" lon="-7.150650545954704">
        <ele>1770.4100000000001</ele>
        <time>2019-03-15T17:02:34Z</time>
      </trkpt>
      <trkpt lat="31.283448720350862" lon="-7.150706201791763">
        <ele>1770.4100000000001</ele>
        <time>2019-03-15T17:02:35Z</time>
      </trkpt>
      <trkpt lat="31.283541172742844" lon="-7.150777950882912">
        <ele>1770.4100000000001</ele>
        <time>2019-03-15T17:02:36Z</time>
      </trkpt>
      <trkpt lat="31.283635972067714" lon="-7.15085162781179">
        <ele>1770.4100000000001</ele>
        <time>2019-03-15T17:02:37Z</time>
      </trkpt>
      <trkpt lat="31.283732783049345" lon="-7.150914240628481">
        <ele>1770.4100000000001</ele>
        <time>2019-03-15T17:02:38Z</time>
      </trkpt>
      <trkpt lat="31.283824229612947" lon="-7.150962436571717">
        <ele>1770.8900000000001</ele>
        <time>2019-03-15T17:02:41Z</time>
      </trkpt>
      <trkpt lat="31.283907210454345" lon="-7.150990515947342">
        <ele>1770.8900000000001</ele>
        <time>2019-03-15T17:02:42Z</time>
      </trkpt>
      <trkpt lat="31.283987173810601" lon="-7.150992024689913">
        <ele>1770.8900000000001</ele>
        <time>2019-03-15T17:02:43Z</time>
      </trkpt>
      <trkpt lat="31.284065544605255" lon="-7.150962688028812">
        <ele>1770.8900000000001</ele>
        <time>2019-03-15T17:02:54Z</time>
      </trkpt>
      <trkpt lat="31.28413955681026" lon="-7.150911977514625">
        <ele>1770.8900000000001</ele>
        <time>2019-03-15T17:02:56Z</time>
      </trkpt>
      <trkpt lat="31.284210216253996" lon="-7.150852046906948">
        <ele>1770.8900000000001</ele>
        <time>2019-03-15T17:02:57Z</time>
      </trkpt>
      <trkpt lat="31.284856293350458" lon="-7.150135394185782">
        <ele>1770.8900000000001</ele>
        <time>2019-03-15T17:02:58Z</time>
      </trkpt>
      <trkpt lat="31.284895520657301" lon="-7.150027183815837">
        <ele>1774.25</ele>
        <time>2019-03-15T17:03:09Z</time>
      </trkpt>
      <trkpt lat="31.285008592531085" lon="-7.149742785841227">
        <ele>1774.73</ele>
        <time>2019-03-15T17:03:14Z</time>
      </trkpt>
      <trkpt lat="31.285072211176157" lon="-7.149678245186806">
        <ele>1774.73</ele>
        <time>2019-03-15T17:03:15Z</time>
      </trkpt>
      <trkpt lat="31.285146726295352" lon="-7.149629294872284">
        <ele>1775.21</ele>
        <time>2019-03-15T17:03:16Z</time>
      </trkpt>
      <trkpt lat="31.285230629146099" lon="-7.149597276002169">
        <ele>1776.1700000000001</ele>
        <time>2019-03-15T17:03:19Z</time>
      </trkpt>
      <trkpt lat="31.285315873101354" lon="-7.149574980139732">
        <ele>1776.6500000000001</ele>
        <time>2019-03-15T17:03:20Z</time>
      </trkpt>
      <trkpt lat="31.28620938397944" lon="-7.149326037615538">
        <ele>1777.1300000000001</ele>
        <time>2019-03-15T17:03:21Z</time>
      </trkpt>
      <trkpt lat="31.286324886605144" lon="-7.149327211081982">
        <ele>1777.6099999999999</ele>
        <time>2019-03-15T17:03:22Z</time>
      </trkpt>
      <trkpt lat="31.286440556868911" lon="-7.149347495287657">
        <ele>1778.5799999999999</ele>
        <time>2019-03-15T17:03:23Z</time>
      </trkpt>
      <trkpt lat="31.286554718390107" lon="-7.149385800585151">
        <ele>1779.54</ele>
        <time>2019-03-15T17:03:24Z</time>
      </trkpt>
      <trkpt lat="31.286665108054876" lon="-7.149439193308353">
        <ele>1780.5</ele>
        <time>2019-03-15T17:03:25Z</time>
      </trkpt>
      <trkpt lat="31.286773234605789" lon="-7.149504236876965">
        <ele>1781.46</ele>
        <time>2019-03-15T17:03:26Z</time>
      </trkpt>
      <trkpt lat="31.28687440417707" lon="-7.149582356214523">
        <ele>1782.9000000000001</ele>
        <time>2019-03-15T17:03:27Z</time>
      </trkpt>
      <trkpt lat="31.286963252350688" lon="-7.149677574634552">
        <ele>1790.5899999999999</ele>
        <time>2019-03-15T17:03:28Z</time>
      </trkpt>
      <trkpt lat="31.287034414708614" lon="-7.149790395051241">
        <ele>1792.52</ele>
        <time>2019-03-15T17:03:30Z</time>
      </trkpt>
      <trkpt lat="31.287088142707944" lon="-7.149918051436544">
        <ele>1793</ele>
        <time>2019-03-15T17:03:31Z</time>
      </trkpt>
      <trkpt lat="31.287126028910279" lon="-7.150061381980777">
        <ele>1793.48</ele>
        <time>2019-03-15T17:03:32Z</time>
      </trkpt>
      <trkpt lat="31.287148743867874" lon="-7.15021837502718">
        <ele>1793.48</ele>
        <time>2019-03-15T17:03:35Z</time>
      </trkpt>
      <trkpt lat="31.287160813808441" lon="-7.15038500726223">
        <ele>1793.48</ele>
        <time>2019-03-15T17:03:43Z</time>
      </trkpt>
      <trkpt lat="31.287090908735991" lon="-7.151870196685195">
        <ele>1793.48</ele>
        <time>2019-03-15T17:03:44Z</time>
      </trkpt>
      <trkpt lat="31.286952942609787" lon="-7.153347926214337">
        <ele>1793.48</ele>
        <time>2019-03-15T17:03:45Z</time>
      </trkpt>
      <trkpt lat="31.286971885710955" lon="-7.15350684709847">
        <ele>1793.96</ele>
        <time>2019-03-15T17:03:46Z</time>
      </trkpt>
      <trkpt lat="31.287018908187747" lon="-7.153657469898462">
        <ele>1793.96</ele>
        <time>2019-03-15T17:03:47Z</time>
      </trkpt>
      <trkpt lat="31.287091244012117" lon="-7.153799375519157">
        <ele>1793.96</ele>
        <time>2019-03-15T17:03:48Z</time>
      </trkpt>
      <trkpt lat="31.28718663007021" lon="-7.153925355523825">
        <ele>1799.24</ele>
        <time>2019-03-15T17:03:49Z</time>
      </trkpt>
      <trkpt lat="31.287300288677216" lon="-7.154025351628661">
        <ele>1801.1700000000001</ele>
        <time>2019-03-15T17:03:50Z</time>
      </trkpt>
      <trkpt lat="31.28742610104382" lon="-7.154109422117472">
        <ele>1801.6500000000001</ele>
        <time>2019-03-15T17:03:53Z</time>
      </trkpt>
      <trkpt lat="31.287815105170012" lon="-7.154402285814285">
        <ele>1802.6099999999999</ele>
        <time>2019-03-15T17:03:54Z</time>
      </trkpt>
      <trkpt lat="31.287932451814413" lon="-7.154528684914112">
        <ele>1806.9400000000001</ele>
        <time>2019-03-15T17:03:55Z</time>
      </trkpt>
      <trkpt lat="31.288040159270167" lon="-7.154672434553504">
        <ele>1807.9000000000001</ele>
        <time>2019-03-15T17:03:58Z</time>
      </trkpt>
      <trkpt lat="31.288851359859109" lon="-7.156097525730729">
        <ele>1808.8599999999999</ele>
        <time>2019-03-15T17:03:59Z</time>
      </trkpt>
      <trkpt lat="31.288953451439738" lon="-7.156445039436221">
        <ele>1809.3399999999999</ele>
        <time>2019-03-15T17:04:01Z</time>
      </trkpt>
      <trkpt lat="31.28898429684341" lon="-7.156631285324693">
        <ele>1809.8199999999999</ele>
        <time>2019-03-15T17:04:02Z</time>
      </trkpt>
      <trkpt lat="31.289005000144243" lon="-7.156824404373765">
        <ele>1809.8199999999999</ele>
        <time>2019-03-15T17:04:03Z</time>
      </trkpt>
      <trkpt lat="31.289071552455425" lon="-7.15782193467021">
        <ele>1811.26</ele>
        <time>2019-03-15T17:04:04Z</time>
      </trkpt>
      <trkpt lat="31.289109773933887" lon="-7.158004241064191">
        <ele>1811.74</ele>
        <time>2019-03-15T17:04:05Z</time>
      </trkpt>
      <trkpt lat="31.289143469184637" lon="-7.158179171383381">
        <ele>1812.22</ele>
        <time>2019-03-15T17:04:06Z</time>
      </trkpt>
      <trkpt lat="31.289153695106506" lon="-7.158356951549649">
        <ele>1813.1800000000001</ele>
        <time>2019-03-15T17:04:11Z</time>
      </trkpt>
      <trkpt lat="31.289142379537225" lon="-7.158539006486535">
        <ele>1814.1500000000001</ele>
        <time>2019-03-15T17:04:19Z</time>
      </trkpt>
      <trkpt lat="31.28911966457963" lon="-7.158727431669831">
        <ele>1815.1099999999999</ele>
        <time>2019-03-15T17:04:24Z</time>
      </trkpt>
      <trkpt lat="31.289038527756929" lon="-7.159101851284504">
        <ele>1815.5899999999999</ele>
        <time>2019-03-15T17:04:33Z</time>
      </trkpt>
      <trkpt lat="31.288967030122876" lon="-7.159277284517884">
        <ele>1816.0699999999999</ele>
        <time>2019-03-15T17:04:37Z</time>
      </trkpt>
      <trkpt lat="31.288873152807355" lon="-7.159434026107192">
        <ele>1822.3199999999999</ele>
        <time>2019-03-15T17:04:41Z</time>
      </trkpt>
      <trkpt lat="31.288759242743254" lon="-7.159574925899506">
        <ele>1823.28</ele>
        <time>2019-03-15T17:04:46Z</time>
      </trkpt>
      <trkpt lat="31.288636364042759" lon="-7.159709706902504">
        <ele>1824.24</ele>
        <time>2019-03-15T17:04:52Z</time>
      </trkpt>
      <trkpt lat="31.288297399878502" lon="-7.16013072989881">
        <ele>1825.2</ele>
        <time>2019-03-15T17:05:00Z</time>
      </trkpt>
      <trkpt lat="31.288226991891861" lon="-7.160302978008986">
        <ele>1833.3699999999999</ele>
        <time>2019-03-15T17:05:01Z</time>
      </trkpt>
      <trkpt lat="31.288183070719242" lon="-7.160490984097123">
        <ele>1836.74</ele>
        <time>2019-03-15T17:05:05Z</time>
      </trkpt>
      <trkpt lat="31.287816613912582" lon="-7.162777232006192">
        <ele>1837.22</ele>
        <time>2019-03-15T17:05:16Z</time>
      </trkpt>
      <trkpt lat="31.287766741588712" lon="-7.163194818422198">
        <ele>1838.1800000000001</ele>
        <time>2019-03-15T17:05:27Z</time>
      </trkpt>
      <trkpt lat="31.287770764902234" lon="-7.163404114544392">
        <ele>1840.0999999999999</ele>
        <time>2019-03-15T17:05:38Z</time>
      </trkpt>
      <trkpt lat="31.287790965288877" lon="-7.163615087047219">
        <ele>1841.0599999999999</ele>
        <time>2019-03-15T17:05:42Z</time>
      </trkpt>
      <trkpt lat="31.288044769316912" lon="-7.166074337437749">
        <ele>1841.54</ele>
        <time>2019-03-15T17:05:43Z</time>
      </trkpt>
      <trkpt lat="31.288092797622085" lon="-7.167260544374585">
        <ele>1842.02</ele>
        <time>2019-03-15T17:05:44Z</time>
      </trkpt>
      <trkpt lat="31.28813847899437" lon="-7.167488615959883">
        <ele>1842.5</ele>
        <time>2019-03-15T17:05:45Z</time>
      </trkpt>
      <trkpt lat="31.288197655230761" lon="-7.167711742222309">
        <ele>1842.98</ele>
        <time>2019-03-15T17:05:46Z</time>
      </trkpt>
      <trkpt lat="31.288359509781003" lon="-7.168363938108087">
        <ele>1843.47</ele>
        <time>2019-03-15T17:05:52Z</time>
      </trkpt>
      <trkpt lat="31.28836328163743" lon="-7.168573569506407">
        <ele>1844.4300000000001</ele>
        <time>2019-03-15T17:05:53Z</time>
      </trkpt>
      <trkpt lat="31.288338806480169" lon="-7.168773980811238">
        <ele>1845.3900000000001</ele>
        <time>2019-03-15T17:05:54Z</time>
      </trkpt>
      <trkpt lat="31.288293711841106" lon="-7.16896265745163">
        <ele>1846.3499999999999</ele>
        <time>2019-03-15T17:05:55Z</time>
      </trkpt>
      <trkpt lat="31.288246940821409" lon="-7.169142197817564">
        <ele>1847.79</ele>
        <time>2019-03-15T17:05:56Z</time>
      </trkpt>
      <trkpt lat="31.288212323561311" lon="-7.169318050146103">
        <ele>1848.27</ele>
        <time>2019-03-15T17:05:57Z</time>
      </trkpt>
      <trkpt lat="31.288205282762647" lon="-7.169497087597847">
        <ele>1849.23</ele>
        <time>2019-03-15T17:05:58Z</time>
      </trkpt>
      <trkpt lat="31.28823428414762" lon="-7.169674281030893">
        <ele>1852.1199999999999</ele>
        <time>2019-03-15T17:06:06Z</time>
      </trkpt>
      <trkpt lat="31.288292035460472" lon="-7.169849378988147">
        <ele>1859.8099999999999</ele>
        <time>2019-03-15T17:06:07Z</time>
      </trkpt>
      <trkpt lat="31.288361521437764" lon="-7.170023638755083">
        <ele>1860.29</ele>
        <time>2019-03-15T17:06:08Z</time>
      </trkpt>
      <trkpt lat="31.288476604968309" lon="-7.170397890731692">
        <ele>1860.77</ele>
        <time>2019-03-15T17:06:09Z</time>
      </trkpt>
      <trkpt lat="31.2885030079633" lon="-7.170602325350046">
        <ele>1861.25</ele>
        <time>2019-03-15T17:06:10Z</time>
      </trkpt>
      <trkpt lat="31.288505438715219" lon="-7.170813716948032">
        <ele>1861.73</ele>
        <time>2019-03-15T17:06:14Z</time>
      </trkpt>
      <trkpt lat="31.288494877517223" lon="-7.171455938369036">
        <ele>1862.6900000000001</ele>
        <time>2019-03-15T17:06:15Z</time>
      </trkpt>
      <trkpt lat="31.288754465058446" lon="-7.173063922673464">
        <ele>1863.1700000000001</ele>
        <time>2019-03-15T17:06:22Z</time>
      </trkpt>
      <trkpt lat="31.288761673495173" lon="-7.173262825235724">
        <ele>1863.1700000000001</ele>
        <time>2019-03-15T17:06:23Z</time>
      </trkpt>
      <trkpt lat="31.288753878325224" lon="-7.173455776646733">
        <ele>1863.1700000000001</ele>
        <time>2019-03-15T17:06:30Z</time>
      </trkpt>
      <trkpt lat="31.288747591897845" lon="-7.173641603440046">
        <ele>1863.1700000000001</ele>
        <time>2019-03-15T17:06:31Z</time>
      </trkpt>
      <trkpt lat="31.288758991286159" lon="-7.173823826014996">
        <ele>1863.1700000000001</ele>
        <time>2019-03-15T17:06:32Z</time>
      </trkpt>
      <trkpt lat="31.288796123117208" lon="-7.174004539847374">
        <ele>1863.1700000000001</ele>
        <time>2019-03-15T17:06:33Z</time>
      </trkpt>
      <trkpt lat="31.288851611316204" lon="-7.17418123036623">
        <ele>1863.6500000000001</ele>
        <time>2019-03-15T17:06:34Z</time>
      </trkpt>
      <trkpt lat="31.288915649056435" lon="-7.174354568123817">
        <ele>1864.1300000000001</ele>
        <time>2019-03-15T17:06:44Z</time>
      </trkpt>
      <trkpt lat="31.289074150845408" lon="-7.174854297190905">
        <ele>1864.1300000000001</ele>
        <time>2019-03-15T17:06:55Z</time>
      </trkpt>
      <trkpt lat="31.289085047319531" lon="-7.175020845606923">
        <ele>1864.1300000000001</ele>
        <time>2019-03-15T17:06:57Z</time>
      </trkpt>
      <trkpt lat="31.289065601304173" lon="-7.175188483670354">
        <ele>1864.6099999999999</ele>
        <time>2019-03-15T17:06:58Z</time>
      </trkpt>
      <trkpt lat="31.28898236900568" lon="-7.175692738965154">
        <ele>1865.0899999999999</ele>
        <time>2019-03-15T17:06:59Z</time>
      </trkpt>
      <trkpt lat="31.288987649604678" lon="-7.175856018438935">
        <ele>1865.5799999999999</ele>
        <time>2019-03-15T17:07:00Z</time>
      </trkpt>
      <trkpt lat="31.28900533542037" lon="-7.176167657598853">
        <ele>1868.9400000000001</ele>
        <time>2019-03-15T17:07:01Z</time>
      </trkpt>
      <trkpt lat="31.288991253823042" lon="-7.176321968436241">
        <ele>1874.23</ele>
        <time>2019-03-15T17:07:02Z</time>
      </trkpt>
      <trkpt lat="31.288952194154263" lon="-7.176475189626217">
        <ele>1879.03</ele>
        <time>2019-03-15T17:07:03Z</time>
      </trkpt>
      <trkpt lat="31.288891509175301" lon="-7.176621286198497">
        <ele>1885.76</ele>
        <time>2019-03-15T17:07:04Z</time>
      </trkpt>
      <trkpt lat="31.288807690143585" lon="-7.176755731925368">
        <ele>1889.1300000000001</ele>
        <time>2019-03-15T17:07:05Z</time>
      </trkpt>
      <trkpt lat="31.288708783686161" lon="-7.17688238248229">
        <ele>1893.9300000000001</ele>
        <time>2019-03-15T17:07:14Z</time>
      </trkpt>
      <trkpt lat="31.288345847278833" lon="-7.177595347166061">
        <ele>1902.5899999999999</ele>
        <time>2019-03-15T17:07:15Z</time>
      </trkpt>
      <trkpt lat="31.287898756563663" lon="-7.178878365084529">
        <ele>1912.2</ele>
        <time>2019-03-15T17:07:16Z</time>
      </trkpt>
      <trkpt lat="31.287409169599414" lon="-7.179606417194009">
        <ele>1923.25</ele>
        <time>2019-03-15T17:07:17Z</time>
      </trkpt>
      <trkpt lat="31.286848755553365" lon="-7.181255137547851">
        <ele>1924.7</ele>
        <time>2019-03-15T17:07:18Z</time>
      </trkpt>
      <trkpt lat="31.286540385335684" lon="-7.181989811360836">
        <ele>1928.54</ele>
        <time>2019-03-15T17:07:19Z</time>
      </trkpt>
      <trkpt lat="31.286457488313317" lon="-7.182703278958798">
        <ele>1924.7</ele>
        <time>2019-03-15T17:07:28Z</time>
      </trkpt>
      <trkpt lat="31.286521274596453" lon="-7.183626126497984">
        <ele>1911.24</ele>
        <time>2019-03-15T17:07:35Z</time>
      </trkpt>
      <trkpt lat="31.286380290985107" lon="-7.1846735291183">
        <ele>1898.74</ele>
        <time>2019-03-15T17:07:48Z</time>
      </trkpt>
      <trkpt lat="31.2866276409477" lon="-7.186019159853458">
        <ele>1893.9300000000001</ele>
        <time>2019-03-15T17:07:56Z</time>
      </trkpt>
      <trkpt lat="31.28667214885354" lon="-7.186176320537925">
        <ele>1892.49</ele>
        <time>2019-03-15T17:08:07Z</time>
      </trkpt>
      <trkpt lat="31.286712381988764" lon="-7.186822229996324">
        <ele>1891.53</ele>
        <time>2019-03-15T17:08:11Z</time>
      </trkpt>
      <trkpt lat="31.286545498296618" lon="-7.188928769901395">
        <ele>1890.0899999999999</ele>
        <time>2019-03-15T17:08:12Z</time>
      </trkpt>
      <trkpt lat="31.286613140255213" lon="-7.191502014175057">
        <ele>1889.1300000000001</ele>
        <time>2019-03-15T17:08:23Z</time>
      </trkpt>
      <trkpt lat="31.286789076402783" lon="-7.194169135764241">
        <ele>1882.8800000000001</ele>
        <time>2019-03-15T17:08:24Z</time>
      </trkpt>
      <trkpt lat="31.286919414997101" lon="-7.195054097101092">
        <ele>1881.9200000000001</ele>
        <time>2019-03-15T17:08:25Z</time>
      </trkpt>
      <trkpt lat="31.286984039470553" lon="-7.195241684094071">
        <ele>1880.96</ele>
        <time>2019-03-15T17:08:26Z</time>
      </trkpt>
      <trkpt lat="31.287067020311952" lon="-7.195417704060674">
        <ele>1880</ele>
        <time>2019-03-15T17:08:27Z</time>
      </trkpt>
      <trkpt lat="31.287164753302932" lon="-7.195586264133453">
        <ele>1878.55</ele>
        <time>2019-03-15T17:08:28Z</time>
      </trkpt>
      <trkpt lat="31.28726726397872" lon="-7.195756165310741">
        <ele>1877.5899999999999</ele>
        <time>2019-03-15T17:08:29Z</time>
      </trkpt>
      <trkpt lat="31.287851566448808" lon="-7.196734165772796">
        <ele>1877.1099999999999</ele>
        <time>2019-03-15T17:08:30Z</time>
      </trkpt>
      <trkpt lat="31.287974528968334" lon="-7.196869533509016">
        <ele>1871.3399999999999</ele>
        <time>2019-03-15T17:08:43Z</time>
      </trkpt>
      <trkpt lat="31.288104364648461" lon="-7.196991490200162">
        <ele>1870.8599999999999</ele>
        <time>2019-03-15T17:08:56Z</time>
      </trkpt>
      <trkpt lat="31.288235709071159" lon="-7.197092492133379">
        <ele>1869.9000000000001</ele>
        <time>2019-03-15T17:09:04Z</time>
      </trkpt>
      <trkpt lat="31.288366550579667" lon="-7.197170360013843">
        <ele>1869.4200000000001</ele>
        <time>2019-03-16T08:18:12Z</time>
      </trkpt>
      <trkpt lat="31.288500325754285" lon="-7.197228195145726">
        <ele>1868.9400000000001</ele>
        <time>2019-03-16T08:18:13Z</time>
      </trkpt>
      <trkpt lat="31.288641477003694" lon="-7.197273541241884">
        <ele>1866.54</ele>
        <time>2019-03-16T08:18:14Z</time>
      </trkpt>
      <trkpt lat="31.289836652576923" lon="-7.197768408805132">
        <ele>1866.54</ele>
        <time>2019-03-16T08:18:24Z</time>
      </trkpt>
      <trkpt lat="31.289971433579922" lon="-7.197868740186095">
        <ele>1862.6900000000001</ele>
        <time>2019-03-16T08:18:27Z</time>
      </trkpt>
      <trkpt lat="31.290093641728163" lon="-7.197988433763385">
        <ele>1862.21</ele>
        <time>2019-03-16T08:18:28Z</time>
      </trkpt>
      <trkpt lat="31.290202103555202" lon="-7.19812698662281">
        <ele>1858.8499999999999</ele>
        <time>2019-03-16T08:18:29Z</time>
      </trkpt>
      <trkpt lat="31.2903041113168" lon="-7.1982725802809">
        <ele>1858.8499999999999</ele>
        <time>2019-03-16T08:18:30Z</time>
      </trkpt>
      <trkpt lat="31.290712561458349" lon="-7.198867779225111">
        <ele>1858.3699999999999</ele>
        <time>2019-03-16T08:18:31Z</time>
      </trkpt>
      <trkpt lat="31.290796967223287" lon="-7.199035752564669">
        <ele>1858.3699999999999</ele>
        <time>2019-03-16T08:18:32Z</time>
      </trkpt>
      <trkpt lat="31.291302563622594" lon="-7.200251799076796">
        <ele>1857.8900000000001</ele>
        <time>2019-03-16T08:18:33Z</time>
      </trkpt>
      <trkpt lat="31.291406247764826" lon="-7.200398398563266">
        <ele>1854.04</ele>
        <time>2019-03-16T08:18:34Z</time>
      </trkpt>
      <trkpt lat="31.292170006781816" lon="-7.201370028778911">
        <ele>1848.75</ele>
        <time>2019-03-16T08:18:35Z</time>
      </trkpt>
      <trkpt lat="31.292240330949426" lon="-7.201531212776899">
        <ele>1848.27</ele>
        <time>2019-03-16T08:18:36Z</time>
      </trkpt>
      <trkpt lat="31.292288694530725" lon="-7.201706897467375">
        <ele>1847.79</ele>
        <time>2019-03-16T08:18:37Z</time>
      </trkpt>
      <trkpt lat="31.29231870174408" lon="-7.201895574107766">
        <ele>1847.79</ele>
        <time>2019-03-16T08:18:38Z</time>
      </trkpt>
      <trkpt lat="31.292341584339738" lon="-7.202091543003917">
        <ele>1846.8299999999999</ele>
        <time>2019-03-16T08:18:39Z</time>
      </trkpt>
      <trkpt lat="31.292600082233548" lon="-7.204229095950723">
        <ele>1846.3499999999999</ele>
        <time>2019-03-16T08:18:40Z</time>
      </trkpt>
      <trkpt lat="31.292993109673262" lon="-7.206576531752944">
        <ele>1845.3900000000001</ele>
        <time>2019-03-16T08:18:42Z</time>
      </trkpt>
      <trkpt lat="31.29304532893002" lon="-7.206915831193328">
        <ele>1844.9100000000001</ele>
        <time>2019-03-16T08:18:43Z</time>
      </trkpt>
      <trkpt lat="31.293093776330352" lon="-7.207073997706175">
        <ele>1844.4300000000001</ele>
        <time>2019-03-16T08:18:44Z</time>
      </trkpt>
      <trkpt lat="31.293163178488612" lon="-7.20722571015358">
        <ele>1843.95</ele>
        <time>2019-03-16T08:18:45Z</time>
      </trkpt>
      <trkpt lat="31.293249679729342" lon="-7.207370800897479">
        <ele>1840.5799999999999</ele>
        <time>2019-03-16T08:18:46Z</time>
      </trkpt>
      <trkpt lat="31.293352022767067" lon="-7.207508431747556">
        <ele>1840.0999999999999</ele>
        <time>2019-03-16T08:18:47Z</time>
      </trkpt>
      <trkpt lat="31.293466100469232" lon="-7.207636591047049">
        <ele>1839.6199999999999</ele>
        <time>2019-03-16T08:18:48Z</time>
      </trkpt>
      <trkpt lat="31.293593924492598" lon="-7.207756787538528">
        <ele>1839.6199999999999</ele>
        <time>2019-03-16T08:18:49Z</time>
      </trkpt>
      <trkpt lat="31.293732561171055" lon="-7.207866506651044">
        <ele>1839.1400000000001</ele>
        <time>2019-03-16T08:18:58Z</time>
      </trkpt>
      <trkpt lat="31.293878825381398" lon="-7.207969687879086">
        <ele>1839.1400000000001</ele>
        <time>2019-03-16T08:19:09Z</time>
      </trkpt>
      <trkpt lat="31.295126723125577" lon="-7.208988592028618">
        <ele>1835.29</ele>
        <time>2019-03-16T08:19:11Z</time>
      </trkpt>
      <trkpt lat="31.295218337327242" lon="-7.209131503477693">
        <ele>1834.8099999999999</ele>
        <time>2019-03-16T08:19:12Z</time>
      </trkpt>
      <trkpt lat="31.295293522998691" lon="-7.209291597828269">
        <ele>1834.3299999999999</ele>
        <time>2019-03-16T08:19:13Z</time>
      </trkpt>
      <trkpt lat="31.295354710891843" lon="-7.20946317538619">
        <ele>1836.26</ele>
        <time>2019-03-16T08:19:14Z</time>
      </trkpt>
      <trkpt lat="31.295406175777316" lon="-7.20964347012341">
        <ele>1841.0599999999999</ele>
        <time>2019-03-16T08:19:15Z</time>
      </trkpt>
      <trkpt lat="31.295448169112206" lon="-7.209833404049277">
        <ele>1845.3900000000001</ele>
        <time>2019-03-16T08:19:16Z</time>
      </trkpt>
      <trkpt lat="31.295998441055417" lon="-7.211517915129662">
        <ele>1846.3499999999999</ele>
        <time>2019-03-16T08:19:17Z</time>
      </trkpt>
      <trkpt lat="31.296386690810323" lon="-7.212440092116594">
        <ele>1860.77</ele>
        <time>2019-03-16T08:19:28Z</time>
      </trkpt>
      <trkpt lat="31.296763541176915" lon="-7.213342990726233">
        <ele>1861.73</ele>
        <time>2019-03-16T08:19:31Z</time>
      </trkpt>
      <trkpt lat="31.296956324949861" lon="-7.214284362271428">
        <ele>1863.1700000000001</ele>
        <time>2019-03-16T08:19:32Z</time>
      </trkpt>
      <trkpt lat="31.297259079292417" lon="-7.215940374881029">
        <ele>1864.6099999999999</ele>
        <time>2019-03-16T08:19:33Z</time>
      </trkpt>
      <trkpt lat="31.297586057335138" lon="-7.216456783935428">
        <ele>1866.0599999999999</ele>
        <time>2019-03-16T08:19:34Z</time>
      </trkpt>
      <trkpt lat="31.297690747305751" lon="-7.216562395915389">
        <ele>1867.5</ele>
        <time>2019-03-16T08:19:35Z</time>
      </trkpt>
      <trkpt lat="31.298954822123051" lon="-7.217804258689284">
        <ele>1868.9400000000001</ele>
        <time>2019-03-16T08:19:36Z</time>
      </trkpt>
      <trkpt lat="31.299040066078305" lon="-7.217955468222499">
        <ele>1870.3800000000001</ele>
        <time>2019-03-16T08:19:39Z</time>
      </trkpt>
      <trkpt lat="31.299111228436232" lon="-7.218119166791439">
        <ele>1869.4200000000001</ele>
        <time>2019-03-16T08:19:40Z</time>
      </trkpt>
      <trkpt lat="31.299172081053257" lon="-7.218290409073234">
        <ele>1858.8499999999999</ele>
        <time>2019-03-16T08:19:41Z</time>
      </trkpt>
      <trkpt lat="31.299221534281969" lon="-7.218470200896263">
        <ele>1855</ele>
        <time>2019-03-16T08:19:42Z</time>
      </trkpt>
      <trkpt lat="31.299256067723036" lon="-7.218658961355686">
        <ele>0</ele>
        <time>2019-03-16T08:19:43Z</time>
      </trkpt>
      <trkpt lat="31.299277525395155" lon="-7.218851493671536">
        <ele>0</ele>
        <time>2019-03-16T08:19:48Z</time>
      </trkpt>
      <trkpt lat="31.299289930611849" lon="-7.219048552215099">
        <ele>0</ele>
        <time>2019-03-16T08:19:49Z</time>
      </trkpt>
      <trkpt lat="31.299307281151414" lon="-7.221768060699105">
        <ele>0</ele>
        <time>2019-03-16T08:19:50Z</time>
      </trkpt>
      <trkpt lat="31.29935841076076" lon="-7.224933989346027">
        <ele>0</ele>
        <time>2019-03-16T08:19:51Z</time>
      </trkpt>
      <trkpt lat="31.299186833202839" lon="-7.226849086582661">
        <ele>0</ele>
        <time>2019-03-16T08:19:52Z</time>
      </trkpt>
      <trkpt lat="31.299119694158435" lon="-7.227054443210363">
        <ele>0</ele>
        <time>2019-03-16T08:19:53Z</time>
      </trkpt>
      <trkpt lat="31.298929424956441" lon="-7.227693647146225">
        <ele>0</ele>
        <time>2019-03-16T08:19:54Z</time>
      </trkpt>
      <trkpt lat="31.298634381964803" lon="-7.228286834433675">
        <ele>0</ele>
        <time>2019-03-16T08:19:56Z</time>
      </trkpt>
      <trkpt lat="31.298317546024919" lon="-7.228762255981565">
        <ele>0</ele>
        <time>2019-03-16T08:19:57Z</time>
      </trkpt>
      <trkpt lat="31.297823684290051" lon="-7.229372626170516">
        <ele>0</ele>
        <time>2019-03-16T08:19:58Z</time>
      </trkpt>
      <trkpt lat="31.297489665448666" lon="-7.229662220925093">
        <ele>0</ele>
        <time>2019-03-16T08:19:59Z</time>
      </trkpt>
      <trkpt lat="31.296912739053369" lon="-7.23007544875145">
        <ele>0</ele>
        <time>2019-03-16T08:20:00Z</time>
      </trkpt>
      <trkpt lat="31.29626976326108" lon="-7.230480965226889">
        <ele>0</ele>
        <time>2019-03-16T08:20:01Z</time>
      </trkpt>
      <trkpt lat="31.295430483296514" lon="-7.231040624901652">
        <ele>0</ele>
        <time>2019-03-16T08:20:02Z</time>
      </trkpt>
      <trkpt lat="31.29462749697268" lon="-7.23170698620379">
        <ele>0</ele>
        <time>2019-03-16T08:20:03Z</time>
      </trkpt>
      <trkpt lat="31.29378754645586" lon="-7.232389692217112">
        <ele>0</ele>
        <time>2019-03-16T08:20:04Z</time>
      </trkpt>
      <trkpt lat="31.293005682528019" lon="-7.232991009950638">
        <ele>0</ele>
        <time>2019-03-16T08:20:05Z</time>
      </trkpt>
      <trkpt lat="31.292320881038904" lon="-7.233520997688174">
        <ele>0</ele>
        <time>2019-03-16T08:20:06Z</time>
      </trkpt>
      <trkpt lat="31.2915906496346" lon="-7.234146622940898">
        <ele>0</ele>
        <time>2019-03-16T08:20:07Z</time>
      </trkpt>
      <trkpt lat="31.290703760460019" lon="-7.235022112727165">
        <ele>0</ele>
        <time>2019-03-16T08:20:08Z</time>
      </trkpt>
      <trkpt lat="31.290122391656041" lon="-7.23559157922864">
        <ele>0</ele>
        <time>2019-03-16T08:20:09Z</time>
      </trkpt>
      <trkpt lat="31.290040332823992" lon="-7.235720157623291">
        <ele>1808.3800000000001</ele>
        <time>2019-03-16T08:20:10Z</time>
      </trkpt>
      <trkpt lat="31.289930278435349" lon="-7.235971111804247">
        <ele>1807.9000000000001</ele>
        <time>2019-03-16T08:20:11Z</time>
      </trkpt>
      <trkpt lat="31.289883926510811" lon="-7.236176552250981">
        <ele>1807.9000000000001</ele>
        <time>2019-03-16T08:20:12Z</time>
      </trkpt>
      <trkpt lat="31.289881244301796" lon="-7.236339496448636">
        <ele>1802.6099999999999</ele>
        <time>2019-03-16T08:20:13Z</time>
      </trkpt>
      <trkpt lat="31.289909491315484" lon="-7.236522138118744">
        <ele>1801.1700000000001</ele>
        <time>2019-03-16T08:20:24Z</time>
      </trkpt>
      <trkpt lat="31.289944192394614" lon="-7.236572010442615">
        <ele>1801.1700000000001</ele>
        <time>2019-03-16T08:20:36Z</time>
      </trkpt>
      <trkpt lat="31.290104538202286" lon="-7.236670413985848">
        <ele>1800.6900000000001</ele>
        <time>2019-03-16T08:20:38Z</time>
      </trkpt>
      <trkpt lat="31.290166983380914" lon="-7.236682483926415">
        <ele>1800.6900000000001</ele>
        <time>2019-03-16T08:20:39Z</time>
      </trkpt>
      <trkpt lat="31.290236804634333" lon="-7.236688351258636">
        <ele>1800.21</ele>
        <time>2019-03-16T08:20:40Z</time>
      </trkpt>
      <trkpt lat="31.291079353541136" lon="-7.236807877197862">
        <ele>1799.73</ele>
        <time>2019-03-16T08:20:41Z</time>
      </trkpt>
      <trkpt lat="31.291366517543793" lon="-7.236913153901696">
        <ele>1799.24</ele>
        <time>2019-03-16T08:20:42Z</time>
      </trkpt>
      <trkpt lat="31.291452515870333" lon="-7.236971072852612">
        <ele>1799.24</ele>
        <time>2019-03-16T08:20:50Z</time>
      </trkpt>
      <trkpt lat="31.291529294103384" lon="-7.237041397020221">
        <ele>1799.24</ele>
        <time>2019-03-16T08:20:51Z</time>
      </trkpt>
      <trkpt lat="31.291597271338105" lon="-7.237126724794507">
        <ele>1799.24</ele>
        <time>2019-03-16T08:20:52Z</time>
      </trkpt>
      <trkpt lat="31.291657201945782" lon="-7.237227810546756">
        <ele>1799.24</ele>
        <time>2019-03-16T08:20:53Z</time>
      </trkpt>
      <trkpt lat="31.291708750650287" lon="-7.237338786944747">
        <ele>1799.24</ele>
        <time>2019-03-16T08:20:54Z</time>
      </trkpt>
      <trkpt lat="31.2917494866997" lon="-7.237459737807512">
        <ele>1799.73</ele>
        <time>2019-03-16T08:21:05Z</time>
      </trkpt>
      <trkpt lat="31.291768429800868" lon="-7.237585717812181">
        <ele>1800.21</ele>
        <time>2019-03-16T08:21:06Z</time>
      </trkpt>
      <trkpt lat="31.291760047897696" lon="-7.237710021436214">
        <ele>1801.6500000000001</ele>
        <time>2019-03-16T08:21:07Z</time>
      </trkpt>
      <trkpt lat="31.291720904409885" lon="-7.237824937328696">
        <ele>1802.1300000000001</ele>
        <time>2019-03-16T08:21:08Z</time>
      </trkpt>
      <trkpt lat="31.291654268279672" lon="-7.237928118556738">
        <ele>1803.0899999999999</ele>
        <time>2019-03-16T08:21:09Z</time>
      </trkpt>
      <trkpt lat="31.29156525246799" lon="-7.238010764122009">
        <ele>1803.0899999999999</ele>
        <time>2019-03-16T08:21:27Z</time>
      </trkpt>
      <trkpt lat="31.291461149230599" lon="-7.238077064976096">
        <ele>1803.5699999999999</ele>
        <time>2019-03-16T08:21:34Z</time>
      </trkpt>
      <trkpt lat="31.291351094841957" lon="-7.23813590593636">
        <ele>1803.5699999999999</ele>
        <time>2019-03-16T08:21:36Z</time>
      </trkpt>
      <trkpt lat="31.29114649258554" lon="-7.238258197903633">
        <ele>1804.05</ele>
        <time>2019-03-16T08:21:37Z</time>
      </trkpt>
      <trkpt lat="31.291062254458666" lon="-7.238334892317653">
        <ele>1804.05</ele>
        <time>2019-03-16T08:21:38Z</time>
      </trkpt>
      <trkpt lat="31.29099452868104" lon="-7.238427009433508">
        <ele>1804.53</ele>
        <time>2019-03-16T08:21:39Z</time>
      </trkpt>
      <trkpt lat="31.290943566709757" lon="-7.238534884527326">
        <ele>1803.5699999999999</ele>
        <time>2019-03-16T08:21:40Z</time>
      </trkpt>
      <trkpt lat="31.290909117087722" lon="-7.23865625448525">
        <ele>1803.5699999999999</ele>
        <time>2019-03-16T08:21:48Z</time>
      </trkpt>
      <trkpt lat="31.290887910872698" lon="-7.238784078508616">
        <ele>1803.5699999999999</ele>
        <time>2019-03-16T08:21:51Z</time>
      </trkpt>
      <trkpt lat="31.290881959721446" lon="-7.23891282454133">
        <ele>1803.5699999999999</ele>
        <time>2019-03-16T08:21:52Z</time>
      </trkpt>
      <trkpt lat="31.290885144844651" lon="-7.239043833687902">
        <ele>1803.5699999999999</ele>
        <time>2019-03-16T08:21:53Z</time>
      </trkpt>
      <trkpt lat="31.290679452940822" lon="-7.24015150219202">
        <ele>1803.0899999999999</ele>
        <time>2019-03-16T08:21:54Z</time>
      </trkpt>
      <trkpt lat="31.290204618126154" lon="-7.241227319464088">
        <ele>1803.0899999999999</ele>
        <time>2019-03-16T08:21:55Z</time>
      </trkpt>
      <trkpt lat="31.290126834064722" lon="-7.241383390501142">
        <ele>1802.6099999999999</ele>
        <time>2019-03-16T08:21:56Z</time>
      </trkpt>
      <trkpt lat="31.290082996711135" lon="-7.241456229239702">
        <ele>1798.76</ele>
        <time>2019-03-16T08:22:02Z</time>
      </trkpt>
      <trkpt lat="31.290032034739852" lon="-7.241516411304474">
        <ele>1796.8399999999999</ele>
        <time>2019-03-16T08:22:03Z</time>
      </trkpt>
      <trkpt lat="31.289970511570573" lon="-7.241566115990281">
        <ele>1796.3599999999999</ele>
        <time>2019-03-16T08:22:04Z</time>
      </trkpt>
      <trkpt lat="31.289898343384266" lon="-7.241602912545204">
        <ele>1795.4000000000001</ele>
        <time>2019-03-16T08:22:05Z</time>
      </trkpt>
      <trkpt lat="31.289823995903134" lon="-7.241634679958224">
        <ele>1794.9200000000001</ele>
        <time>2019-03-16T08:22:06Z</time>
      </trkpt>
      <trkpt lat="31.289746547117829" lon="-7.241660915315151">
        <ele>1794.4400000000001</ele>
        <time>2019-03-16T08:22:09Z</time>
      </trkpt>
      <trkpt lat="31.288745328783989" lon="-7.24211965687573">
        <ele>1793.96</ele>
        <time>2019-03-16T08:22:10Z</time>
      </trkpt>
      <trkpt lat="31.28845707513392" lon="-7.242256784811616">
        <ele>1792.03</ele>
        <time>2019-03-16T08:22:20Z</time>
      </trkpt>
      <trkpt lat="31.288358503952622" lon="-7.24228142760694">
        <ele>1791.0699999999999</ele>
        <time>2019-03-16T08:22:21Z</time>
      </trkpt>
      <trkpt lat="31.288257334381342" lon="-7.242289809510112">
        <ele>1790.5899999999999</ele>
        <time>2019-03-16T08:22:22Z</time>
      </trkpt>
      <trkpt lat="31.288155242800713" lon="-7.24228578619659">
        <ele>1789.6300000000001</ele>
        <time>2019-03-16T08:22:23Z</time>
      </trkpt>
      <trkpt lat="31.2880539894104" lon="-7.242271872237325">
        <ele>1789.1500000000001</ele>
        <time>2019-03-16T08:22:24Z</time>
      </trkpt>
      <trkpt lat="31.287953155115247" lon="-7.242253264412284">
        <ele>1784.8199999999999</ele>
        <time>2019-03-16T08:22:25Z</time>
      </trkpt>
      <trkpt lat="31.287651155143976" lon="-7.242214540019631">
        <ele>1783.8599999999999</ele>
        <time>2019-03-16T08:22:35Z</time>
      </trkpt>
      <trkpt lat="31.287553338333964" lon="-7.242224849760532">
        <ele>1782.9000000000001</ele>
        <time>2019-03-16T08:22:47Z</time>
      </trkpt>
      <trkpt lat="31.28745929338038" lon="-7.24225259386003">
        <ele>1781.46</ele>
        <time>2019-03-16T08:22:54Z</time>
      </trkpt>
      <trkpt lat="31.287365164607763" lon="-7.242297772318125">
        <ele>1780.5</ele>
        <time>2019-03-16T08:23:06Z</time>
      </trkpt>
      <trkpt lat="31.287269024178386" lon="-7.242353009060025">
        <ele>1779.54</ele>
        <time>2019-03-16T08:23:22Z</time>
      </trkpt>
      <trkpt lat="31.286789244040847" lon="-7.24269725382328">
        <ele>1779.0599999999999</ele>
        <time>2019-03-16T08:23:34Z</time>
      </trkpt>
      <trkpt lat="31.286681536585093" lon="-7.242744527757168">
        <ele>1777.6099999999999</ele>
        <time>2019-03-16T08:23:47Z</time>
      </trkpt>
      <trkpt lat="31.286567626520991" lon="-7.242758860811591">
        <ele>1777.1300000000001</ele>
        <time>2019-03-16T08:23:57Z</time>
      </trkpt>
      <trkpt lat="31.2864532135427" lon="-7.242738408967853">
        <ele>1776.6500000000001</ele>
        <time>2019-03-16T08:24:05Z</time>
      </trkpt>
      <trkpt lat="31.286339974030852" lon="-7.242688033729792">
        <ele>1776.1700000000001</ele>
        <time>2019-03-16T08:24:14Z</time>
      </trkpt>
      <trkpt lat="31.286227405071259" lon="-7.2426219843328">
        <ele>1775.6900000000001</ele>
        <time>2019-03-16T08:24:15Z</time>
      </trkpt>
      <trkpt lat="31.286116177216172" lon="-7.242552414536476">
        <ele>1775.21</ele>
        <time>2019-03-16T08:24:22Z</time>
      </trkpt>
      <trkpt lat="31.285893302410841" lon="-7.242431715130806">
        <ele>1774.73</ele>
        <time>2019-03-16T08:24:30Z</time>
      </trkpt>
      <trkpt lat="31.285778051242232" lon="-7.242393074557185">
        <ele>1773.77</ele>
        <time>2019-03-16T08:24:37Z</time>
      </trkpt>
      <trkpt lat="31.285662213340402" lon="-7.242364408448339">
        <ele>1772.8099999999999</ele>
        <time>2019-03-16T08:24:38Z</time>
      </trkpt>
      <trkpt lat="31.285544615238905" lon="-7.242344208061695">
        <ele>1771.8499999999999</ele>
        <time>2019-03-16T08:24:39Z</time>
      </trkpt>
      <trkpt lat="31.285421485081315" lon="-7.24233465269208">
        <ele>1770.8900000000001</ele>
        <time>2019-03-16T08:24:40Z</time>
      </trkpt>
      <trkpt lat="31.285293661057949" lon="-7.24233808927238">
        <ele>1769.9200000000001</ele>
        <time>2019-03-16T08:24:41Z</time>
      </trkpt>
      <trkpt lat="31.285161226987839" lon="-7.242359546944499">
        <ele>1769.4400000000001</ele>
        <time>2019-03-16T08:24:42Z</time>
      </trkpt>
      <trkpt lat="31.285025775432587" lon="-7.242401959374547">
        <ele>1768.48</ele>
        <time>2019-03-16T08:24:45Z</time>
      </trkpt>
      <trkpt lat="31.284889401867986" lon="-7.242464488372207">
        <ele>1768</ele>
        <time>2019-03-16T08:24:46Z</time>
      </trkpt>
      <trkpt lat="31.2847591470927" lon="-7.242548391222954">
        <ele>1767.52</ele>
        <time>2019-03-16T08:24:47Z</time>
      </trkpt>
      <trkpt lat="31.284640375524759" lon="-7.24265861324966">
        <ele>1766.5599999999999</ele>
        <time>2019-03-16T08:24:48Z</time>
      </trkpt>
      <trkpt lat="31.284540966153145" lon="-7.242794232442975">
        <ele>1765.5999999999999</ele>
        <time>2019-03-16T08:24:49Z</time>
      </trkpt>
      <trkpt lat="31.284461840987206" lon="-7.242946783080697">
        <ele>1756.47</ele>
        <time>2019-03-16T08:24:50Z</time>
      </trkpt>
      <trkpt lat="31.28438581712544" lon="-7.243096986785531">
        <ele>1748.78</ele>
        <time>2019-03-16T08:24:51Z</time>
      </trkpt>
      <trkpt lat="31.284299986436963" lon="-7.243239730596542">
        <ele>1748.29</ele>
        <time>2019-03-16T08:24:52Z</time>
      </trkpt>
      <trkpt lat="31.284196553751826" lon="-7.243369901552796">
        <ele>1747.8099999999999</ele>
        <time>2019-03-16T08:24:53Z</time>
      </trkpt>
      <trkpt lat="31.28407459706068" lon="-7.243487918749452">
        <ele>1747.8099999999999</ele>
        <time>2019-03-16T08:24:54Z</time>
      </trkpt>
      <trkpt lat="31.283939899876714" lon="-7.243598727509379">
        <ele>1747.8099999999999</ele>
        <time>2019-03-16T08:24:55Z</time>
      </trkpt>
      <trkpt lat="31.282390421256423" lon="-7.245051730424166">
        <ele>1747.8099999999999</ele>
        <time>2019-03-16T08:24:56Z</time>
      </trkpt>
      <trkpt lat="31.280844379216433" lon="-7.247019968926907">
        <ele>1744.9300000000001</ele>
        <time>2019-03-16T08:24:57Z</time>
      </trkpt>
      <trkpt lat="31.280577247962356" lon="-7.24729229696095">
        <ele>1744.9300000000001</ele>
        <time>2019-03-16T08:24:58Z</time>
      </trkpt>
      <trkpt lat="31.280429642647505" lon="-7.247391035780311">
        <ele>1744.45</ele>
        <time>2019-03-16T08:24:59Z</time>
      </trkpt>
      <trkpt lat="31.28027013503015" lon="-7.247464209794998">
        <ele>1743.97</ele>
        <time>2019-03-16T08:25:06Z</time>
      </trkpt>
      <trkpt lat="31.280100652948022" lon="-7.247514836490154">
        <ele>1743.49</ele>
        <time>2019-03-16T08:25:08Z</time>
      </trkpt>
      <trkpt lat="31.279925052076578" lon="-7.247554734349251">
        <ele>1737.72</ele>
        <time>2019-03-16T08:25:09Z</time>
      </trkpt>
      <trkpt lat="31.278493590652943" lon="-7.247858326882124">
        <ele>1737.72</ele>
        <time>2019-03-16T08:25:10Z</time>
      </trkpt>
      <trkpt lat="31.278337938711047" lon="-7.247940385714173">
        <ele>1737.24</ele>
        <time>2019-03-16T08:25:12Z</time>
      </trkpt>
      <trkpt lat="31.278195613995194" lon="-7.248045494779944">
        <ele>1736.76</ele>
        <time>2019-03-16T08:25:13Z</time>
      </trkpt>
      <trkpt lat="31.278065862134099" lon="-7.248173654079437">
        <ele>1736.28</ele>
        <time>2019-03-16T08:25:14Z</time>
      </trkpt>
      <trkpt lat="31.277943151071668" lon="-7.248317152261734">
        <ele>1730.51</ele>
        <time>2019-03-16T08:25:16Z</time>
      </trkpt>
      <trkpt lat="31.276721153408289" lon="-7.249946426600218">
        <ele>1728.5899999999999</ele>
        <time>2019-03-16T08:25:17Z</time>
      </trkpt>
      <trkpt lat="31.276593580842018" lon="-7.250064192339778">
        <ele>1728.1099999999999</ele>
        <time>2019-03-16T08:25:18Z</time>
      </trkpt>
      <trkpt lat="31.276453686878085" lon="-7.250166200101376">
        <ele>1727.6300000000001</ele>
        <time>2019-03-16T08:25:19Z</time>
      </trkpt>
      <trkpt lat="31.276305075734854" lon="-7.250254545360804">
        <ele>1727.6300000000001</ele>
        <time>2019-03-16T08:25:20Z</time>
      </trkpt>
      <trkpt lat="31.276153028011322" lon="-7.250334424898028">
        <ele>1727.6300000000001</ele>
        <time>2019-03-16T08:25:21Z</time>
      </trkpt>
      <trkpt lat="31.273357747122645" lon="-7.251837300136685">
        <ele>1727.6300000000001</ele>
        <time>2019-03-16T08:25:22Z</time>
      </trkpt>
      <trkpt lat="31.272224681451917" lon="-7.252057995647192">
        <ele>1727.6300000000001</ele>
        <time>2019-03-16T08:25:23Z</time>
      </trkpt>
      <trkpt lat="31.271916311234236" lon="-7.252066880464554">
        <ele>1729.0699999999999</ele>
        <time>2019-03-16T08:25:24Z</time>
      </trkpt>
      <trkpt lat="31.271769711747766" lon="-7.25209454074502">
        <ele>1729.55</ele>
        <time>2019-03-16T08:25:25Z</time>
      </trkpt>
      <trkpt lat="31.271626045927405" lon="-7.252146676182747">
        <ele>1729.55</ele>
        <time>2019-03-16T08:25:28Z</time>
      </trkpt>
      <trkpt lat="31.271486654877663" lon="-7.252222700044513">
        <ele>1729.55</ele>
        <time>2019-03-16T08:25:29Z</time>
      </trkpt>
      <trkpt lat="31.271349946036935" lon="-7.252312051132321">
        <ele>1730.03</ele>
        <time>2019-03-16T08:25:30Z</time>
      </trkpt>
      <trkpt lat="31.270171450451016" lon="-7.252770960330963">
        <ele>1730.03</ele>
        <time>2019-03-16T08:25:31Z</time>
      </trkpt>
      <trkpt lat="31.269740452989936" lon="-7.252843296155334">
        <ele>1732.9100000000001</ele>
        <time>2019-03-16T08:25:32Z</time>
      </trkpt>
      <trkpt lat="31.269607348367572" lon="-7.252887552604079">
        <ele>1733.8800000000001</ele>
        <time>2019-03-16T08:25:33Z</time>
      </trkpt>
      <trkpt lat="31.269483799114823" lon="-7.252960642799735">
        <ele>1734.3599999999999</ele>
        <time>2019-03-16T08:25:36Z</time>
      </trkpt>
      <trkpt lat="31.269373660907149" lon="-7.25306055508554">
        <ele>1734.3599999999999</ele>
        <time>2019-03-16T08:25:37Z</time>
      </trkpt>
      <trkpt lat="31.269272491335869" lon="-7.253179242834449">
        <ele>1734.3599999999999</ele>
        <time>2019-03-16T08:25:38Z</time>
      </trkpt>
      <trkpt lat="31.269174255430698" lon="-7.253307234495878">
        <ele>1732.9100000000001</ele>
        <time>2019-03-16T08:25:39Z</time>
      </trkpt>
      <trkpt lat="31.268566399812698" lon="-7.254154393449426">
        <ele>1732.9100000000001</ele>
        <time>2019-03-16T08:25:40Z</time>
      </trkpt>
      <trkpt lat="31.268492722883821" lon="-7.254321277141571">
        <ele>1723.78</ele>
        <time>2019-03-16T08:25:41Z</time>
      </trkpt>
      <trkpt lat="31.268432959914207" lon="-7.254496291279793">
        <ele>1723.3</ele>
        <time>2019-03-16T08:25:42Z</time>
      </trkpt>
      <trkpt lat="31.268383339047432" lon="-7.254677508026362">
        <ele>1722.8199999999999</ele>
        <time>2019-03-16T08:25:43Z</time>
      </trkpt>
      <trkpt lat="31.268339836969972" lon="-7.254860401153565">
        <ele>1722.3399999999999</ele>
        <time>2019-03-16T08:25:53Z</time>
      </trkpt>
      <trkpt lat="31.268177479505539" lon="-7.255400782451034">
        <ele>1722.3399999999999</ele>
        <time>2019-03-16T08:25:54Z</time>
      </trkpt>
      <trkpt lat="31.268093325197697" lon="-7.255570096895099">
        <ele>1721.8599999999999</ele>
        <time>2019-03-16T08:25:55Z</time>
      </trkpt>
      <trkpt lat="31.267094202339649" lon="-7.257212195545435">
        <ele>1723.3</ele>
        <time>2019-03-16T08:25:56Z</time>
      </trkpt>
      <trkpt lat="31.267034942284226" lon="-7.257409170269966">
        <ele>1727.1500000000001</ele>
        <time>2019-03-16T08:25:57Z</time>
      </trkpt>
      <trkpt lat="31.266999822109938" lon="-7.257618298754096">
        <ele>1731.47</ele>
        <time>2019-03-16T08:25:58Z</time>
      </trkpt>
      <trkpt lat="31.266988925635815" lon="-7.257835390046239">
        <ele>1740.1199999999999</ele>
        <time>2019-03-16T08:25:59Z</time>
      </trkpt>
      <trkpt lat="31.26699554733932" lon="-7.258058432489634">
        <ele>1740.1199999999999</ele>
        <time>2019-03-16T08:26:00Z</time>
      </trkpt>
      <trkpt lat="31.267011724412441" lon="-7.258286755532026">
        <ele>1733.8800000000001</ele>
        <time>2019-03-16T08:26:01Z</time>
      </trkpt>
      <trkpt lat="31.267194785177708" lon="-7.260476611554623">
        <ele>1725.22</ele>
        <time>2019-03-16T08:26:02Z</time>
      </trkpt>
      <trkpt lat="31.267708847299218" lon="-7.263077013194561">
        <ele>1720.9000000000001</ele>
        <time>2019-03-16T08:26:04Z</time>
      </trkpt>
      <trkpt lat="31.267578760161996" lon="-7.264540074393153">
        <ele>1721.8599999999999</ele>
        <time>2019-03-16T08:26:05Z</time>
      </trkpt>
      <trkpt lat="31.267126807942986" lon="-7.266781898215413">
        <ele>1724.74</ele>
        <time>2019-03-16T08:26:06Z</time>
      </trkpt>
      <trkpt lat="31.266875769942999" lon="-7.269667368382216">
        <ele>1725.7</ele>
        <time>2019-03-16T08:26:07Z</time>
      </trkpt>
      <trkpt lat="31.266865041106939" lon="-7.271972140297294">
        <ele>1728.5899999999999</ele>
        <time>2019-03-16T08:26:08Z</time>
      </trkpt>
      <trkpt lat="31.266993284225464" lon="-7.274975376203656">
        <ele>1731.95</ele>
        <time>2019-03-16T08:26:20Z</time>
      </trkpt>
      <trkpt lat="31.266942238435149" lon="-7.277303449809551">
        <ele>1738.2</ele>
        <time>2019-03-16T08:26:30Z</time>
      </trkpt>
      <trkpt lat="31.266352906823158" lon="-7.278986452147365">
        <ele>1739.6400000000001</ele>
        <time>2019-03-16T08:26:39Z</time>
      </trkpt>
      <trkpt lat="31.265396531671286" lon="-7.280673645436764">
        <ele>1741.0799999999999</ele>
        <time>2019-03-16T08:26:40Z</time>
      </trkpt>
      <trkpt lat="31.265307264402509" lon="-7.280864333733916">
        <ele>1742.05</ele>
        <time>2019-03-16T08:26:41Z</time>
      </trkpt>
      <trkpt lat="31.265106769278646" lon="-7.282376680523157">
        <ele>1743.49</ele>
        <time>2019-03-16T08:26:42Z</time>
      </trkpt>
      <trkpt lat="31.265329141169786" lon="-7.284135036170483">
        <ele>1744.9300000000001</ele>
        <time>2019-03-16T08:26:43Z</time>
      </trkpt>
      <trkpt lat="31.265514716506004" lon="-7.285578483715653">
        <ele>1747.8099999999999</ele>
        <time>2019-03-16T08:26:51Z</time>
      </trkpt>
      <trkpt lat="31.265506083145738" lon="-7.285782163962722">
        <ele>1748.78</ele>
        <time>2019-03-16T08:26:52Z</time>
      </trkpt>
      <trkpt lat="31.265477165579796" lon="-7.285984922200441">
        <ele>1749.74</ele>
        <time>2019-03-16T08:26:53Z</time>
      </trkpt>
      <trkpt lat="31.26542947255075" lon="-7.286181394010782">
        <ele>1750.7</ele>
        <time>2019-03-16T08:26:54Z</time>
      </trkpt>
      <trkpt lat="31.265365183353424" lon="-7.286370573565364">
        <ele>1751.6600000000001</ele>
        <time>2019-03-16T08:26:55Z</time>
      </trkpt>
      <trkpt lat="31.265296116471291" lon="-7.286559920758009">
        <ele>1752.6199999999999</ele>
        <time>2019-03-16T08:26:56Z</time>
      </trkpt>
      <trkpt lat="31.26514901407063" lon="-7.287156963720918">
        <ele>1753.5799999999999</ele>
        <time>2019-03-16T08:26:57Z</time>
      </trkpt>
      <trkpt lat="31.265145242214203" lon="-7.287356620654464">
        <ele>1754.0599999999999</ele>
        <time>2019-03-16T08:27:00Z</time>
      </trkpt>
      <trkpt lat="31.265170387923717" lon="-7.287546889856458">
        <ele>1755.02</ele>
        <time>2019-03-16T08:27:01Z</time>
      </trkpt>
      <trkpt lat="31.265222188085318" lon="-7.28772827424109">
        <ele>1755.99</ele>
        <time>2019-03-16T08:27:02Z</time>
      </trkpt>
      <trkpt lat="31.265299972146749" lon="-7.287893900647759">
        <ele>1756.47</ele>
        <time>2019-03-16T08:27:03Z</time>
      </trkpt>
      <trkpt lat="31.265400135889649" lon="-7.288044020533562">
        <ele>1757.4300000000001</ele>
        <time>2019-03-16T08:27:04Z</time>
      </trkpt>
      <trkpt lat="31.265517231076956" lon="-7.288176203146577">
        <ele>1757.4300000000001</ele>
        <time>2019-03-16T08:27:05Z</time>
      </trkpt>
      <trkpt lat="31.26565033569932" lon="-7.288292292505503">
        <ele>1757.9100000000001</ele>
        <time>2019-03-16T08:27:06Z</time>
      </trkpt>
      <trkpt lat="31.265792157500982" lon="-7.288388181477785">
        <ele>1758.3900000000001</ele>
        <time>2019-03-16T08:27:10Z</time>
      </trkpt>
      <trkpt lat="31.265929033979774" lon="-7.288472754880786">
        <ele>1761.27</ele>
        <time>2019-03-16T08:27:14Z</time>
      </trkpt>
      <trkpt lat="31.266055265441537" lon="-7.288570571690798">
        <ele>1762.71</ele>
        <time>2019-03-16T08:27:18Z</time>
      </trkpt>
      <trkpt lat="31.266163978725672" lon="-7.288686661049724">
        <ele>1763.2</ele>
        <time>2019-03-16T08:27:19Z</time>
      </trkpt>
      <trkpt lat="31.266256431117654" lon="-7.288824878633022">
        <ele>1763.6800000000001</ele>
        <time>2019-03-16T08:27:20Z</time>
      </trkpt>
      <trkpt lat="31.266339076682925" lon="-7.288978602737188">
        <ele>1764.1600000000001</ele>
        <time>2019-03-16T08:27:21Z</time>
      </trkpt>
      <trkpt lat="31.266416860744357" lon="-7.28914137929678">
        <ele>1763.6800000000001</ele>
        <time>2019-03-16T08:27:22Z</time>
      </trkpt>
      <trkpt lat="31.266768649220467" lon="-7.290488686412573">
        <ele>1763.2</ele>
        <time>2019-03-16T08:27:23Z</time>
      </trkpt>
      <trkpt lat="31.266846600919962" lon="-7.290851622819901">
        <ele>1762.23</ele>
        <time>2019-03-16T08:27:24Z</time>
      </trkpt>
      <trkpt lat="31.266916589811444" lon="-7.291005346924067">
        <ele>1761.75</ele>
        <time>2019-03-16T08:27:25Z</time>
      </trkpt>
      <trkpt lat="31.267013903707266" lon="-7.291138870641589">
        <ele>1761.75</ele>
        <time>2019-03-16T08:27:26Z</time>
      </trkpt>
      <trkpt lat="31.267227977514267" lon="-7.291388651356101">
        <ele>1761.27</ele>
        <time>2019-03-16T08:27:27Z</time>
      </trkpt>
      <trkpt lat="31.267317747697234" lon="-7.291535334661603">
        <ele>1761.27</ele>
        <time>2019-03-16T08:27:28Z</time>
      </trkpt>
      <trkpt lat="31.267388826236129" lon="-7.291700290516019">
        <ele>1761.27</ele>
        <time>2019-03-16T08:27:29Z</time>
      </trkpt>
      <trkpt lat="31.267500557005405" lon="-7.292043026536703">
        <ele>1761.75</ele>
        <time>2019-03-16T08:27:30Z</time>
      </trkpt>
      <trkpt lat="31.267573898658156" lon="-7.292197169736028">
        <ele>1762.23</ele>
        <time>2019-03-16T08:27:31Z</time>
      </trkpt>
      <trkpt lat="31.267673894762993" lon="-7.292326167225838">
        <ele>1763.2</ele>
        <time>2019-03-16T08:27:32Z</time>
      </trkpt>
      <trkpt lat="31.267797108739614" lon="-7.292423229664564">
        <ele>1763.6800000000001</ele>
        <time>2019-03-16T08:27:33Z</time>
      </trkpt>
      <trkpt lat="31.267927782610059" lon="-7.292505539953709">
        <ele>1766.0799999999999</ele>
        <time>2019-03-16T08:27:34Z</time>
      </trkpt>
      <trkpt lat="31.268052756786346" lon="-7.292598998174071">
        <ele>1767.04</ele>
        <time>2019-03-16T08:27:35Z</time>
      </trkpt>
      <trkpt lat="31.268166750669479" lon="-7.29271424934268">
        <ele>1768.48</ele>
        <time>2019-03-16T08:27:36Z</time>
      </trkpt>
      <trkpt lat="31.26826498657465" lon="-7.292850958183408">
        <ele>1769.4400000000001</ele>
        <time>2019-03-16T08:27:37Z</time>
      </trkpt>
      <trkpt lat="31.268349811434746" lon="-7.293004095554352">
        <ele>1770.4100000000001</ele>
        <time>2019-03-16T08:27:38Z</time>
      </trkpt>
      <trkpt lat="31.268425500020385" lon="-7.29316771030426">
        <ele>1771.8499999999999</ele>
        <time>2019-03-16T08:27:39Z</time>
      </trkpt>
      <trkpt lat="31.268686093389988" lon="-7.293635420501232">
        <ele>1774.73</ele>
        <time>2019-03-16T08:27:43Z</time>
      </trkpt>
      <trkpt lat="31.268800338730216" lon="-7.293761819601059">
        <ele>1775.6900000000001</ele>
        <time>2019-03-16T08:27:44Z</time>
      </trkpt>
      <trkpt lat="31.268926654011011" lon="-7.293864665552974">
        <ele>1776.6500000000001</ele>
        <time>2019-03-16T08:27:45Z</time>
      </trkpt>
      <trkpt lat="31.269064620137215" lon="-7.293947227299213">
        <ele>1777.6099999999999</ele>
        <time>2019-03-16T08:27:46Z</time>
      </trkpt>
      <trkpt lat="31.269212644547224" lon="-7.294014282524586">
        <ele>1778.0999999999999</ele>
        <time>2019-03-16T08:27:47Z</time>
      </trkpt>
      <trkpt lat="31.269365279003978" lon="-7.294069016352296">
        <ele>1779.0599999999999</ele>
        <time>2019-03-16T08:27:48Z</time>
      </trkpt>
      <trkpt lat="31.269779093563557" lon="-7.294224165380001">
        <ele>1780.02</ele>
        <time>2019-03-16T08:27:49Z</time>
      </trkpt>
      <trkpt lat="31.269889567047358" lon="-7.294310834258795">
        <ele>1780.5</ele>
        <time>2019-03-16T08:27:50Z</time>
      </trkpt>
      <trkpt lat="31.269979504868388" lon="-7.294422062113881">
        <ele>1790.5899999999999</ele>
        <time>2019-03-16T08:27:51Z</time>
      </trkpt>
      <trkpt lat="31.270049577578902" lon="-7.29454955086112">
        <ele>1791.55</ele>
        <time>2019-03-16T08:27:52Z</time>
      </trkpt>
      <trkpt lat="31.270103473216295" lon="-7.294688271358609">
        <ele>1792.03</ele>
        <time>2019-03-16T08:27:53Z</time>
      </trkpt>
      <trkpt lat="31.270139347761869" lon="-7.294833110645413">
        <ele>1792.03</ele>
        <time>2019-03-16T08:27:54Z</time>
      </trkpt>
      <trkpt lat="31.270159129053354" lon="-7.294982643797994">
        <ele>1792.03</ele>
        <time>2019-03-16T08:27:55Z</time>
      </trkpt>
      <trkpt lat="31.270172204822302" lon="-7.295132428407669">
        <ele>1791.55</ele>
        <time>2019-03-16T08:27:56Z</time>
      </trkpt>
      <trkpt lat="31.270351996645331" lon="-7.296778215095401">
        <ele>1791.55</ele>
        <time>2019-03-16T08:27:57Z</time>
      </trkpt>
      <trkpt lat="31.270336909219623" lon="-7.296948283910751">
        <ele>1791.0699999999999</ele>
        <time>2019-03-16T08:27:58Z</time>
      </trkpt>
      <trkpt lat="31.270305812358856" lon="-7.297119526192546">
        <ele>1791.0699999999999</ele>
        <time>2019-03-16T08:27:59Z</time>
      </trkpt>
      <trkpt lat="31.270265830680728" lon="-7.297291439026594">
        <ele>1791.0699999999999</ele>
        <time>2019-03-16T08:28:00Z</time>
      </trkpt>
      <trkpt lat="31.270217131823301" lon="-7.29745932854712">
        <ele>1792.52</ele>
        <time>2019-03-16T08:28:01Z</time>
      </trkpt>
      <trkpt lat="31.270156782120466" lon="-7.297617830336094">
        <ele>1793.48</ele>
        <time>2019-03-16T08:28:02Z</time>
      </trkpt>
      <trkpt lat="31.270072711631656" lon="-7.297768369317055">
        <ele>1794.9200000000001</ele>
        <time>2019-03-16T08:28:03Z</time>
      </trkpt>
      <trkpt lat="31.269963076338172" lon="-7.297903737053275">
        <ele>1796.3599999999999</ele>
        <time>2019-03-16T08:28:04Z</time>
      </trkpt>
      <trkpt lat="31.26983592286706" lon="-7.298027621582151">
        <ele>1797.3199999999999</ele>
        <time>2019-03-16T08:28:05Z</time>
      </trkpt>
      <trkpt lat="31.269700555130839" lon="-7.298149662092328">
        <ele>1814.6300000000001</ele>
        <time>2019-03-16T08:28:06Z</time>
      </trkpt>
      <trkpt lat="31.269440380856395" lon="-7.29841654188931">
        <ele>1829.53</ele>
        <time>2019-03-16T08:28:07Z</time>
      </trkpt>
      <trkpt lat="31.269337618723512" lon="-7.298575965687633">
        <ele>1843.95</ele>
        <time>2019-03-16T08:28:08Z</time>
      </trkpt>
      <trkpt lat="31.269255224615335" lon="-7.298752404749394">
        <ele>1845.8699999999999</ele>
        <time>2019-03-16T08:28:15Z</time>
      </trkpt>
      <trkpt lat="31.269183559343219" lon="-7.298939907923341">
        <ele>1847.3099999999999</ele>
        <time>2019-03-16T08:28:18Z</time>
      </trkpt>
      <trkpt lat="31.269122371450067" lon="-7.299137217923999">
        <ele>1848.75</ele>
        <time>2019-03-16T08:28:19Z</time>
      </trkpt>
      <trkpt lat="31.268581738695502" lon="-7.301670899614692">
        <ele>1850.1900000000001</ele>
        <time>2019-03-16T08:28:21Z</time>
      </trkpt>
      <trkpt lat="31.268408903852105" lon="-7.303928313776851">
        <ele>1866.54</ele>
        <time>2019-03-16T08:28:22Z</time>
      </trkpt>
      <trkpt lat="31.268488029018044" lon="-7.305978862568736">
        <ele>1867.98</ele>
        <time>2019-03-16T08:28:23Z</time>
      </trkpt>
      <trkpt lat="31.268454752862453" lon="-7.306194277480245">
        <ele>1868.9400000000001</ele>
        <time>2019-03-16T08:28:24Z</time>
      </trkpt>
      <trkpt lat="31.26839792355895" lon="-7.306402986869216">
        <ele>1869.9000000000001</ele>
        <time>2019-03-16T08:28:25Z</time>
      </trkpt>
      <trkpt lat="31.268320726230741" lon="-7.306605577468872">
        <ele>1870.8599999999999</ele>
        <time>2019-03-16T08:28:26Z</time>
      </trkpt>
      <trkpt lat="31.268235733732581" lon="-7.306804982945323">
        <ele>1871.8199999999999</ele>
        <time>2019-03-16T08:28:27Z</time>
      </trkpt>
      <trkpt lat="31.267540957778692" lon="-7.308339457958937">
        <ele>1872.3</ele>
        <time>2019-03-16T08:28:28Z</time>
      </trkpt>
      <trkpt lat="31.267438279464841" lon="-7.308492846786976">
        <ele>1873.75</ele>
        <time>2019-03-16T08:28:29Z</time>
      </trkpt>
      <trkpt lat="31.267321016639471" lon="-7.308628549799323">
        <ele>1874.23</ele>
        <time>2019-03-16T08:28:30Z</time>
      </trkpt>
      <trkpt lat="31.267188331112266" lon="-7.308745980262756">
        <ele>1874.71</ele>
        <time>2019-03-16T08:28:31Z</time>
      </trkpt>
      <trkpt lat="31.267039971426129" lon="-7.308838851749897">
        <ele>1875.6700000000001</ele>
        <time>2019-03-16T08:28:32Z</time>
      </trkpt>
      <trkpt lat="31.266878955066204" lon="-7.308907834812999">
        <ele>1876.6300000000001</ele>
        <time>2019-03-16T08:28:33Z</time>
      </trkpt>
      <trkpt lat="31.266710143536329" lon="-7.308959970250726">
        <ele>1877.1099999999999</ele>
        <time>2019-03-16T08:28:38Z</time>
      </trkpt>
      <trkpt lat="31.266259616240859" lon="-7.309137750416994">
        <ele>1878.0699999999999</ele>
        <time>2019-03-16T08:28:39Z</time>
      </trkpt>
      <trkpt lat="31.266136988997459" lon="-7.309233974665403">
        <ele>1882.8800000000001</ele>
        <time>2019-03-16T08:28:40Z</time>
      </trkpt>
      <trkpt lat="31.266034562140703" lon="-7.309358781203628">
        <ele>1886.24</ele>
        <time>2019-03-16T08:28:41Z</time>
      </trkpt>
      <trkpt lat="31.26595820300281" lon="-7.309509823098779">
        <ele>1887.21</ele>
        <time>2019-03-16T08:28:42Z</time>
      </trkpt>
      <trkpt lat="31.265911515802145" lon="-7.309682155027986">
        <ele>1887.21</ele>
        <time>2019-03-16T08:28:43Z</time>
      </trkpt>
      <trkpt lat="31.265888046473265" lon="-7.309866724535823">
        <ele>1887.21</ele>
        <time>2019-03-16T08:28:44Z</time>
      </trkpt>
      <trkpt lat="31.265871953219175" lon="-7.310057496652007">
        <ele>1887.21</ele>
        <time>2019-03-16T08:28:45Z</time>
      </trkpt>
      <trkpt lat="31.265759970992804" lon="-7.310757217928767">
        <ele>1887.21</ele>
        <time>2019-03-16T08:28:50Z</time>
      </trkpt>
      <trkpt lat="31.265588058158755" lon="-7.311319811269641">
        <ele>1886.72</ele>
        <time>2019-03-16T08:28:51Z</time>
      </trkpt>
      <trkpt lat="31.265488313511014" lon="-7.311811577528715">
        <ele>1886.24</ele>
        <time>2019-03-16T08:28:52Z</time>
      </trkpt>
      <trkpt lat="31.265442799776793" lon="-7.311919704079628">
        <ele>1885.76</ele>
        <time>2019-03-16T08:28:53Z</time>
      </trkpt>
      <trkpt lat="31.265375073999166" lon="-7.312016766518354">
        <ele>1885.28</ele>
        <time>2019-03-16T08:28:54Z</time>
      </trkpt>
      <trkpt lat="31.265283292159438" lon="-7.312091700732708">
        <ele>1884.3199999999999</ele>
        <time>2019-03-16T08:28:57Z</time>
      </trkpt>
      <trkpt lat="31.265172231942415" lon="-7.312135621905327">
        <ele>1883.8399999999999</ele>
        <time>2019-03-16T08:28:58Z</time>
      </trkpt>
      <trkpt lat="31.265050023794174" lon="-7.312138639390469">
        <ele>1882.8800000000001</ele>
        <time>2019-03-16T08:28:59Z</time>
      </trkpt>
      <trkpt lat="31.264925636351109" lon="-7.312093209475279">
        <ele>1881.9200000000001</ele>
        <time>2019-03-16T08:29:00Z</time>
      </trkpt>
      <trkpt lat="31.264807870611548" lon="-7.312002684921026">
        <ele>1880.96</ele>
        <time>2019-03-16T08:29:01Z</time>
      </trkpt>
      <trkpt lat="31.264702845364809" lon="-7.31188215315342">
        <ele>1880</ele>
        <time>2019-03-16T08:29:02Z</time>
      </trkpt>
      <trkpt lat="31.264612656086683" lon="-7.31173899024725">
        <ele>1879.03</ele>
        <time>2019-03-16T08:29:03Z</time>
      </trkpt>
      <trkpt lat="31.264538308605552" lon="-7.311588702723384">
        <ele>1878.0699999999999</ele>
        <time>2019-03-16T08:29:04Z</time>
      </trkpt>
      <trkpt lat="31.264474522322416" lon="-7.311449814587832">
        <ele>1877.1099999999999</ele>
        <time>2019-03-16T08:29:05Z</time>
      </trkpt>
      <trkpt lat="31.264410987496376" lon="-7.311330372467637">
        <ele>1876.6300000000001</ele>
        <time>2019-03-16T08:29:06Z</time>
      </trkpt>
      <trkpt lat="31.264334879815578" lon="-7.311235489323735">
        <ele>1875.1900000000001</ele>
        <time>2019-03-16T08:29:10Z</time>
      </trkpt>
      <trkpt lat="31.264241505414248" lon="-7.31117270886898">
        <ele>1874.23</ele>
        <time>2019-03-16T08:29:11Z</time>
      </trkpt>
      <trkpt lat="31.264140419661999" lon="-7.311155442148447">
        <ele>1873.27</ele>
        <time>2019-03-16T08:29:12Z</time>
      </trkpt>
      <trkpt lat="31.264049140736461" lon="-7.311189640313387">
        <ele>1868.46</ele>
        <time>2019-03-16T08:29:13Z</time>
      </trkpt>
      <trkpt lat="31.263977978378534" lon="-7.311268765479326">
        <ele>1867.98</ele>
        <time>2019-03-16T08:29:14Z</time>
      </trkpt>
      <trkpt lat="31.263933889567852" lon="-7.311382340267301">
        <ele>1867.02</ele>
        <time>2019-03-16T08:29:15Z</time>
      </trkpt>
      <trkpt lat="31.26391083933413" lon="-7.311516283079982">
        <ele>1866.0599999999999</ele>
        <time>2019-03-16T08:29:16Z</time>
      </trkpt>
      <trkpt lat="31.263899020850658" lon="-7.31166472658515">
        <ele>1865.5799999999999</ele>
        <time>2019-03-16T08:29:17Z</time>
      </trkpt>
      <trkpt lat="31.263892063871026" lon="-7.311826329678297">
        <ele>1864.6099999999999</ele>
        <time>2019-03-16T08:29:18Z</time>
      </trkpt>
      <trkpt lat="31.263843365013599" lon="-7.312529822811484">
        <ele>1863.6500000000001</ele>
        <time>2019-03-16T08:29:19Z</time>
      </trkpt>
      <trkpt lat="31.263804053887725" lon="-7.312696455046535">
        <ele>1862.6900000000001</ele>
        <time>2019-03-16T08:29:20Z</time>
      </trkpt>
      <trkpt lat="31.263750828802586" lon="-7.312847664579749">
        <ele>1862.21</ele>
        <time>2019-03-16T08:29:21Z</time>
      </trkpt>
      <trkpt lat="31.263688048347831" lon="-7.312980098649859">
        <ele>1861.25</ele>
        <time>2019-03-16T08:29:22Z</time>
      </trkpt>
      <trkpt lat="31.263613784685731" lon="-7.313085207715631">
        <ele>1860.77</ele>
        <time>2019-03-16T08:29:23Z</time>
      </trkpt>
      <trkpt lat="31.263525020331144" lon="-7.313149999827147">
        <ele>1859.8099999999999</ele>
        <time>2019-03-16T08:29:24Z</time>
      </trkpt>
      <trkpt lat="31.263425024226308" lon="-7.313166847452521">
        <ele>1858.8499999999999</ele>
        <time>2019-03-16T08:29:25Z</time>
      </trkpt>
      <trkpt lat="31.263321088626981" lon="-7.313132733106613">
        <ele>1857.8900000000001</ele>
        <time>2019-03-16T08:29:26Z</time>
      </trkpt>
      <trkpt lat="31.263219080865383" lon="-7.313062408939004">
        <ele>1856.9200000000001</ele>
        <time>2019-03-16T08:29:27Z</time>
      </trkpt>
      <trkpt lat="31.263114726170897" lon="-7.31298646889627">
        <ele>1855.96</ele>
        <time>2019-03-16T08:29:34Z</time>
      </trkpt>
      <trkpt lat="31.263003414496779" lon="-7.312936848029494">
        <ele>1854.52</ele>
        <time>2019-03-16T08:29:35Z</time>
      </trkpt>
      <trkpt lat="31.262880954891443" lon="-7.312923520803452">
        <ele>1853.5599999999999</ele>
        <time>2019-03-16T08:29:36Z</time>
      </trkpt>
      <trkpt lat="31.262757908552885" lon="-7.312951851636171">
        <ele>1852.5999999999999</ele>
        <time>2019-03-16T08:29:40Z</time>
      </trkpt>
      <trkpt lat="31.262644669041038" lon="-7.313019912689924">
        <ele>1851.6400000000001</ele>
        <time>2019-03-16T08:29:41Z</time>
      </trkpt>
      <trkpt lat="31.262556659057736" lon="-7.31312183663249">
        <ele>1851.1600000000001</ele>
        <time>2019-03-16T08:29:42Z</time>
      </trkpt>
      <trkpt lat="31.262503517791629" lon="-7.313250917941332">
        <ele>1850.6800000000001</ele>
        <time>2019-03-16T08:29:43Z</time>
      </trkpt>
      <trkpt lat="31.262489436194301" lon="-7.313393242657185">
        <ele>1850.1900000000001</ele>
        <time>2019-03-16T08:29:44Z</time>
      </trkpt>
      <trkpt lat="31.262501925230026" lon="-7.313531208783388">
        <ele>1850.1900000000001</ele>
        <time>2019-03-16T08:29:54Z</time>
      </trkpt>
      <trkpt lat="31.262517850846052" lon="-7.313660206273198">
        <ele>1849.71</ele>
        <time>2019-03-16T08:29:58Z</time>
      </trkpt>
      <trkpt lat="31.262521622702479" lon="-7.313780654221773">
        <ele>1849.23</ele>
        <time>2019-03-16T08:29:59Z</time>
      </trkpt>
      <trkpt lat="31.262501925230026" lon="-7.31389188207686">
        <ele>1842.98</ele>
        <time>2019-03-16T08:30:00Z</time>
      </trkpt>
      <trkpt lat="31.262453477829695" lon="-7.313990369439125">
        <ele>1839.6199999999999</ele>
        <time>2019-03-16T08:30:01Z</time>
      </trkpt>
      <trkpt lat="31.262378124520183" lon="-7.31406974606216">
        <ele>1838.6600000000001</ele>
        <time>2019-03-16T08:30:02Z</time>
      </trkpt>
      <trkpt lat="31.262281648814678" lon="-7.314127748832107">
        <ele>1837.22</ele>
        <time>2019-03-16T08:30:10Z</time>
      </trkpt>
      <trkpt lat="31.262170169502497" lon="-7.314164042472839">
        <ele>1836.74</ele>
        <time>2019-03-16T08:30:13Z</time>
      </trkpt>
      <trkpt lat="31.262047374621034" lon="-7.314191032201052">
        <ele>1836.26</ele>
        <time>2019-03-16T08:30:14Z</time>
      </trkpt>
      <trkpt lat="31.261051772162318" lon="-7.31464633718133">
        <ele>1835.77</ele>
        <time>2019-03-16T08:30:15Z</time>
      </trkpt>
      <trkpt lat="31.260670395568013" lon="-7.314949845895171">
        <ele>1835.77</ele>
        <time>2019-03-16T08:30:16Z</time>
      </trkpt>
      <trkpt lat="31.260570650920272" lon="-7.315071634948254">
        <ele>1834.8099999999999</ele>
        <time>2019-03-16T08:30:17Z</time>
      </trkpt>
      <trkpt lat="31.260401085019112" lon="-7.315306412056088">
        <ele>1833.8499999999999</ele>
        <time>2019-03-16T08:30:25Z</time>
      </trkpt>
      <trkpt lat="31.260314080864191" lon="-7.315392913296819">
        <ele>1833.3699999999999</ele>
        <time>2019-03-16T08:30:26Z</time>
      </trkpt>
      <trkpt lat="31.260216766968369" lon="-7.315444629639387">
        <ele>1832.4100000000001</ele>
        <time>2019-03-16T08:30:33Z</time>
      </trkpt>
      <trkpt lat="31.26010880805552" lon="-7.315459465608001">
        <ele>1831.45</ele>
        <time>2019-03-16T08:30:34Z</time>
      </trkpt>
      <trkpt lat="31.259992634877563" lon="-7.315442282706499">
        <ele>1830.49</ele>
        <time>2019-03-16T08:30:35Z</time>
      </trkpt>
      <trkpt lat="31.259866654872894" lon="-7.315403474494815">
        <ele>1829.53</ele>
        <time>2019-03-16T08:30:46Z</time>
      </trkpt>
      <trkpt lat="31.259736316278577" lon="-7.315360642969608">
        <ele>1828.5599999999999</ele>
        <time>2019-03-16T08:30:47Z</time>
      </trkpt>
      <trkpt lat="31.259598266333342" lon="-7.315338598564267">
        <ele>1822.3199999999999</ele>
        <time>2019-03-16T08:30:48Z</time>
      </trkpt>
      <trkpt lat="31.259453846141696" lon="-7.315354607999325">
        <ele>1821.3499999999999</ele>
        <time>2019-03-16T08:30:49Z</time>
      </trkpt>
      <trkpt lat="31.259309342131019" lon="-7.315399283543229">
        <ele>1819.9100000000001</ele>
        <time>2019-03-16T08:30:53Z</time>
      </trkpt>
      <trkpt lat="31.259166514500976" lon="-7.315466087311506">
        <ele>1818.95</ele>
        <time>2019-03-16T08:30:54Z</time>
      </trkpt>
      <trkpt lat="31.259029973298311" lon="-7.315543368458748">
        <ele>1817.51</ele>
        <time>2019-03-16T08:30:55Z</time>
      </trkpt>
      <trkpt lat="31.25889846123755" lon="-7.315628612414002">
        <ele>1816.0699999999999</ele>
        <time>2019-03-16T08:30:56Z</time>
      </trkpt>
      <trkpt lat="31.258346093818545" lon="-7.31612004339695">
        <ele>1814.6300000000001</ele>
        <time>2019-03-16T08:30:57Z</time>
      </trkpt>
      <trkpt lat="31.258281134068966" lon="-7.316235126927495">
        <ele>1813.1800000000001</ele>
        <time>2019-03-16T08:30:58Z</time>
      </trkpt>
      <trkpt lat="31.258242828771472" lon="-7.316364124417305">
        <ele>1804.53</ele>
        <time>2019-03-16T08:30:59Z</time>
      </trkpt>
      <trkpt lat="31.258234614506364" lon="-7.316499156877399">
        <ele>1802.6099999999999</ele>
        <time>2019-03-16T08:31:00Z</time>
      </trkpt>
      <trkpt lat="31.258263532072306" lon="-7.31662823818624">
        <ele>1801.1700000000001</ele>
        <time>2019-03-16T08:31:01Z</time>
      </trkpt>
      <trkpt lat="31.258333353325725" lon="-7.316740890964866">
        <ele>1799.73</ele>
        <time>2019-03-16T08:31:04Z</time>
      </trkpt>
      <trkpt lat="31.258436953648925" lon="-7.316829906776547">
        <ele>1797.8</ele>
        <time>2019-03-16T08:31:05Z</time>
      </trkpt>
      <trkpt lat="31.258562933653593" lon="-7.316910373046994">
        <ele>1793.96</ele>
        <time>2019-03-16T08:31:06Z</time>
      </trkpt>
      <trkpt lat="31.259215883910656" lon="-7.317427452653647">
        <ele>1792.52</ele>
        <time>2019-03-16T08:31:12Z</time>
      </trkpt>
      <trkpt lat="31.259359801188111" lon="-7.317521162331104">
        <ele>1791.55</ele>
        <time>2019-03-16T08:31:13Z</time>
      </trkpt>
      <trkpt lat="31.259515285491943" lon="-7.317598192021251">
        <ele>1791.0699999999999</ele>
        <time>2019-03-16T08:31:14Z</time>
      </trkpt>
      <trkpt lat="31.259672781452537" lon="-7.317659799009562">
        <ele>1790.5899999999999</ele>
        <time>2019-03-16T08:31:15Z</time>
      </trkpt>
      <trkpt lat="31.259823739528656" lon="-7.317709168419242">
        <ele>1790.5899999999999</ele>
        <time>2019-03-16T08:31:16Z</time>
      </trkpt>
      <trkpt lat="31.260181646794081" lon="-7.317862808704376">
        <ele>1790.5899999999999</ele>
        <time>2019-03-16T08:31:17Z</time>
      </trkpt>
      <trkpt lat="31.260260855779052" lon="-7.317943694069982">
        <ele>1790.5899999999999</ele>
        <time>2019-03-16T08:31:18Z</time>
      </trkpt>
      <trkpt lat="31.260304776951671" lon="-7.318047042936087">
        <ele>1790.5899999999999</ele>
        <time>2019-03-16T08:31:26Z</time>
      </trkpt>
      <trkpt lat="31.260303938761353" lon="-7.318159025162458">
        <ele>1790.5899999999999</ele>
        <time>2019-03-16T08:31:27Z</time>
      </trkpt>
      <trkpt lat="31.260261107236147" lon="-7.318265391513705">
        <ele>1790.1099999999999</ele>
        <time>2019-03-16T08:31:28Z</time>
      </trkpt>
      <trkpt lat="31.260188268497586" lon="-7.318360693752766">
        <ele>1790.1099999999999</ele>
        <time>2019-03-16T08:31:29Z</time>
      </trkpt>
      <trkpt lat="31.260110987350345" lon="-7.318455325439572">
        <ele>1789.6300000000001</ele>
        <time>2019-03-16T08:31:30Z</time>
      </trkpt>
      <trkpt lat="31.260039824992418" lon="-7.318561943247914">
        <ele>1790.1099999999999</ele>
        <time>2019-03-16T08:31:32Z</time>
      </trkpt>
      <trkpt lat="31.259978804737329" lon="-7.318684151396155">
        <ele>1790.1099999999999</ele>
        <time>2019-03-16T08:31:33Z</time>
      </trkpt>
      <trkpt lat="31.259921891614795" lon="-7.318817172199488">
        <ele>1790.1099999999999</ele>
        <time>2019-03-16T08:31:34Z</time>
      </trkpt>
      <trkpt lat="31.259709326550364" lon="-7.319388650357723">
        <ele>1790.1099999999999</ele>
        <time>2019-03-16T08:31:35Z</time>
      </trkpt>
      <trkpt lat="31.259642019867897" lon="-7.319510774686933">
        <ele>1789.6300000000001</ele>
        <time>2019-03-16T08:31:36Z</time>
      </trkpt>
      <trkpt lat="31.259553087875247" lon="-7.319610184058547">
        <ele>1789.1500000000001</ele>
        <time>2019-03-16T08:31:39Z</time>
      </trkpt>
      <trkpt lat="31.259448481723666" lon="-7.319688554853201">
        <ele>1788.6700000000001</ele>
        <time>2019-03-16T08:31:47Z</time>
      </trkpt>
      <trkpt lat="31.259345300495625" lon="-7.31975301168859">
        <ele>1788.6700000000001</ele>
        <time>2019-03-16T08:31:48Z</time>
      </trkpt>
      <trkpt lat="31.259259218350053" lon="-7.31982191093266">
        <ele>1788.6700000000001</ele>
        <time>2019-03-16T08:31:49Z</time>
      </trkpt>
      <trkpt lat="31.259199539199471" lon="-7.319907993078232">
        <ele>1788.6700000000001</ele>
        <time>2019-03-16T08:31:50Z</time>
      </trkpt>
      <trkpt lat="31.259165508672595" lon="-7.320014107972384">
        <ele>1789.1500000000001</ele>
        <time>2019-03-16T08:31:51Z</time>
      </trkpt>
      <trkpt lat="31.259169029071927" lon="-7.320132125169039">
        <ele>1789.1500000000001</ele>
        <time>2019-03-16T08:31:52Z</time>
      </trkpt>
      <trkpt lat="31.259214207530022" lon="-7.320242431014776">
        <ele>1789.1500000000001</ele>
        <time>2019-03-16T08:31:53Z</time>
      </trkpt>
      <trkpt lat="31.259288471192122" lon="-7.320337062701583">
        <ele>1789.6300000000001</ele>
        <time>2019-03-16T08:31:59Z</time>
      </trkpt>
      <trkpt lat="31.259368350729346" lon="-7.320426581427455">
        <ele>1789.6300000000001</ele>
        <time>2019-03-16T08:32:00Z</time>
      </trkpt>
      <trkpt lat="31.259436914697289" lon="-7.320522805675864">
        <ele>1789.6300000000001</ele>
        <time>2019-03-16T08:32:01Z</time>
      </trkpt>
      <trkpt lat="31.259485865011811" lon="-7.320635709911585">
        <ele>1789.6300000000001</ele>
        <time>2019-03-16T08:32:02Z</time>
      </trkpt>
      <trkpt lat="31.25950925052166" lon="-7.320762109011412">
        <ele>1789.1500000000001</ele>
        <time>2019-03-16T08:32:03Z</time>
      </trkpt>
      <trkpt lat="31.259502042084932" lon="-7.320897141471505">
        <ele>1789.6300000000001</ele>
        <time>2019-03-16T08:32:04Z</time>
      </trkpt>
      <trkpt lat="31.259468849748373" lon="-7.321033431217074">
        <ele>1789.6300000000001</ele>
        <time>2019-03-16T08:32:05Z</time>
      </trkpt>
      <trkpt lat="31.259425850585103" lon="-7.321168044582009">
        <ele>1789.6300000000001</ele>
        <time>2019-03-16T08:32:15Z</time>
      </trkpt>
      <trkpt lat="31.259080599993467" lon="-7.322219973430038">
        <ele>1790.1099999999999</ele>
        <time>2019-03-16T08:32:18Z</time>
      </trkpt>
      <trkpt lat="31.259009772911668" lon="-7.322377888485789">
        <ele>1790.1099999999999</ele>
        <time>2019-03-16T08:32:19Z</time>
      </trkpt>
      <trkpt lat="31.258922601118684" lon="-7.322531864047051">
        <ele>1792.52</ele>
        <time>2019-03-16T08:32:20Z</time>
      </trkpt>
      <trkpt lat="31.258579446002841" lon="-7.323131924495101">
        <ele>1792.52</ele>
        <time>2019-03-16T08:32:21Z</time>
      </trkpt>
      <trkpt lat="31.258524795994163" lon="-7.323296712711453">
        <ele>1792.52</ele>
        <time>2019-03-16T08:32:22Z</time>
      </trkpt>
      <trkpt lat="31.258488837629557" lon="-7.323472900316119">
        <ele>1792.52</ele>
        <time>2019-03-16T08:32:23Z</time>
      </trkpt>
      <trkpt lat="31.258465787395835" lon="-7.323655290529132">
        <ele>1793</ele>
        <time>2019-03-16T08:32:24Z</time>
      </trkpt>
      <trkpt lat="31.258453130722046" lon="-7.323842458426952">
        <ele>1793</ele>
        <time>2019-03-16T08:32:25Z</time>
      </trkpt>
      <trkpt lat="31.258255569264293" lon="-7.325735511258245">
        <ele>1795.8800000000001</ele>
        <time>2019-03-16T08:32:26Z</time>
      </trkpt>
      <trkpt lat="31.258117519319057" lon="-7.326496504247189">
        <ele>1796.8399999999999</ele>
        <time>2019-03-16T08:32:31Z</time>
      </trkpt>
      <trkpt lat="31.258124643936753" lon="-7.326679984107614">
        <ele>1797.3199999999999</ele>
        <time>2019-03-16T08:32:32Z</time>
      </trkpt>
      <trkpt lat="31.258160015568137" lon="-7.326855417340994">
        <ele>1797.3199999999999</ele>
        <time>2019-03-16T08:32:33Z</time>
      </trkpt>
      <trkpt lat="31.258217012509704" lon="-7.327024731785059">
        <ele>1797.8</ele>
        <time>2019-03-16T08:32:37Z</time>
      </trkpt>
      <trkpt lat="31.258280882611871" lon="-7.327193040400744">
        <ele>1797.8</ele>
        <time>2019-03-16T08:32:38Z</time>
      </trkpt>
      <trkpt lat="31.258712047711015" lon="-7.328273467719555">
        <ele>1800.6900000000001</ele>
        <time>2019-03-16T08:32:39Z</time>
      </trkpt>
      <trkpt lat="31.258815312758088" lon="-7.328619388863444">
        <ele>1800.21</ele>
        <time>2019-03-16T08:32:54Z</time>
      </trkpt>
      <trkpt lat="31.258813384920359" lon="-7.328744446858764">
        <ele>1801.6500000000001</ele>
        <time>2019-03-16T08:33:02Z</time>
      </trkpt>
      <trkpt lat="31.258789664134383" lon="-7.328868666663766">
        <ele>1801.6500000000001</ele>
        <time>2019-03-16T08:33:03Z</time>
      </trkpt>
      <trkpt lat="31.258746832609177" lon="-7.328992551192641">
        <ele>1802.1300000000001</ele>
        <time>2019-03-16T08:33:04Z</time>
      </trkpt>
      <trkpt lat="31.258701318874955" lon="-7.329119117930532">
        <ele>1805.97</ele>
        <time>2019-03-16T08:33:05Z</time>
      </trkpt>
      <trkpt lat="31.258563352748752" lon="-7.33031420968473">
        <ele>1806.9400000000001</ele>
        <time>2019-03-16T08:33:06Z</time>
      </trkpt>
      <trkpt lat="31.258587744086981" lon="-7.330478494986892">
        <ele>1807.4200000000001</ele>
        <time>2019-03-16T08:33:07Z</time>
      </trkpt>
      <trkpt lat="31.258858060464263" lon="-7.331639304757118">
        <ele>1807.4200000000001</ele>
        <time>2019-03-16T08:33:08Z</time>
      </trkpt>
      <trkpt lat="31.258872896432877" lon="-7.331811217591167">
        <ele>1808.8599999999999</ele>
        <time>2019-03-16T08:33:15Z</time>
      </trkpt>
      <trkpt lat="31.258876081556082" lon="-7.331987656652927">
        <ele>1809.8199999999999</ele>
        <time>2019-03-16T08:33:16Z</time>
      </trkpt>
      <trkpt lat="31.258883960545063" lon="-7.333989338949323">
        <ele>1810.3</ele>
        <time>2019-03-16T08:33:24Z</time>
      </trkpt>
      <trkpt lat="31.25886183232069" lon="-7.334159323945642">
        <ele>1810.78</ele>
        <time>2019-03-16T08:33:25Z</time>
      </trkpt>
      <trkpt lat="31.258825873956084" lon="-7.334324782714248">
        <ele>1811.74</ele>
        <time>2019-03-16T08:33:26Z</time>
      </trkpt>
      <trkpt lat="31.258775498718023" lon="-7.334482949227095">
        <ele>1812.7</ele>
        <time>2019-03-16T08:33:27Z</time>
      </trkpt>
      <trkpt lat="31.258582295849919" lon="-7.335112178698182">
        <ele>1813.6600000000001</ele>
        <time>2019-03-16T08:33:28Z</time>
      </trkpt>
      <trkpt lat="31.258564526215196" lon="-7.335280235856772">
        <ele>1814.6300000000001</ele>
        <time>2019-03-16T08:33:29Z</time>
      </trkpt>
      <trkpt lat="31.258563185110688" lon="-7.335449550300837">
        <ele>1815.5899999999999</ele>
        <time>2019-03-16T08:33:30Z</time>
      </trkpt>
      <trkpt lat="31.258582044392824" lon="-7.335618529468775">
        <ele>1818.47</ele>
        <time>2019-03-16T08:33:37Z</time>
      </trkpt>
      <trkpt lat="31.258621355518699" lon="-7.335783736780286">
        <ele>1818.95</ele>
        <time>2019-03-16T08:33:38Z</time>
      </trkpt>
      <trkpt lat="31.258678436279297" lon="-7.335946094244719">
        <ele>1819.9100000000001</ele>
        <time>2019-03-16T08:33:39Z</time>
      </trkpt>
      <trkpt lat="31.25874943099916" lon="-7.33610300347209">
        <ele>1820.8699999999999</ele>
        <time>2019-03-16T08:33:40Z</time>
      </trkpt>
      <trkpt lat="31.258835094049573" lon="-7.336256559938192">
        <ele>1821.3499999999999</ele>
        <time>2019-03-16T08:33:41Z</time>
      </trkpt>
      <trkpt lat="31.25892679207027" lon="-7.336404668167234">
        <ele>1821.3499999999999</ele>
        <time>2019-03-16T08:33:42Z</time>
      </trkpt>
      <trkpt lat="31.259199287742376" lon="-7.33682326041162">
        <ele>1821.8399999999999</ele>
        <time>2019-03-16T08:33:43Z</time>
      </trkpt>
      <trkpt lat="31.259269108995795" lon="-7.336981343105435">
        <ele>1822.3199999999999</ele>
        <time>2019-03-16T08:33:44Z</time>
      </trkpt>
      <trkpt lat="31.259324178099632" lon="-7.337152417749167">
        <ele>1822.3199999999999</ele>
        <time>2019-03-16T08:33:45Z</time>
      </trkpt>
      <trkpt lat="31.259541437029839" lon="-7.338135112076998">
        <ele>1822.3199999999999</ele>
        <time>2019-03-16T08:33:49Z</time>
      </trkpt>
      <trkpt lat="31.259545627981424" lon="-7.33830283395946">
        <ele>1824.24</ele>
        <time>2019-03-16T08:33:50Z</time>
      </trkpt>
      <trkpt lat="31.259532887488604" lon="-7.33847382478416">
        <ele>1824.72</ele>
        <time>2019-03-16T08:33:51Z</time>
      </trkpt>
      <trkpt lat="31.259507406502962" lon="-7.338644480332732">
        <ele>1825.2</ele>
        <time>2019-03-16T08:33:52Z</time>
      </trkpt>
      <trkpt lat="31.25947505235672" lon="-7.338808933272958">
        <ele>1825.2</ele>
        <time>2019-03-16T08:33:53Z</time>
      </trkpt>
      <trkpt lat="31.259433981031179" lon="-7.338962657377124">
        <ele>1825.2</ele>
        <time>2019-03-16T08:33:56Z</time>
      </trkpt>
      <trkpt lat="31.259388970211148" lon="-7.339109759777784">
        <ele>1825.2</ele>
        <time>2019-03-16T08:33:57Z</time>
      </trkpt>
      <trkpt lat="31.25907733105123" lon="-7.340316418558359">
        <ele>1825.2</ele>
        <time>2019-03-16T08:34:05Z</time>
      </trkpt>
      <trkpt lat="31.259071547538042" lon="-7.340461844578385">
        <ele>1824.72</ele>
        <time>2019-03-16T08:34:06Z</time>
      </trkpt>
      <trkpt lat="31.259090239182115" lon="-7.340596625581384">
        <ele>1825.2</ele>
        <time>2019-03-16T08:34:09Z</time>
      </trkpt>
      <trkpt lat="31.259124102070928" lon="-7.3407166544348">
        <ele>1825.2</ele>
        <time>2019-03-16T08:34:10Z</time>
      </trkpt>
      <trkpt lat="31.25916576012969" lon="-7.340829558670521">
        <ele>1825.2</ele>
        <time>2019-03-16T08:34:13Z</time>
      </trkpt>
      <trkpt lat="31.25923709012568" lon="-7.341067520901561">
        <ele>1826.1600000000001</ele>
        <time>2019-03-16T08:34:14Z</time>
      </trkpt>
      <trkpt lat="31.259252512827516" lon="-7.34119308181107">
        <ele>1826.6400000000001</ele>
        <time>2019-03-16T08:34:24Z</time>
      </trkpt>
      <trkpt lat="31.259253183379769" lon="-7.341318055987358">
        <ele>1827.5999999999999</ele>
        <time>2019-03-16T08:34:25Z</time>
      </trkpt>
      <trkpt lat="31.259245472028852" lon="-7.341446969658136">
        <ele>1828.0799999999999</ele>
        <time>2019-03-16T08:34:26Z</time>
      </trkpt>
      <trkpt lat="31.259232144802809" lon="-7.341577643528581">
        <ele>1828.5599999999999</ele>
        <time>2019-03-16T08:34:29Z</time>
      </trkpt>
      <trkpt lat="31.259200964123011" lon="-7.341983076184988">
        <ele>1829.05</ele>
        <time>2019-03-16T08:34:30Z</time>
      </trkpt>
      <trkpt lat="31.259342283010483" lon="-7.34306794591248">
        <ele>1829.53</ele>
        <time>2019-03-16T08:34:31Z</time>
      </trkpt>
      <trkpt lat="31.259386707097292" lon="-7.343169199302793">
        <ele>1832.8900000000001</ele>
        <time>2019-03-16T08:34:32Z</time>
      </trkpt>
      <trkpt lat="31.259445464238524" lon="-7.343239104375243">
        <ele>1833.8499999999999</ele>
        <time>2019-03-16T08:34:33Z</time>
      </trkpt>
      <trkpt lat="31.25952048227191" lon="-7.343286462128162">
        <ele>1834.8099999999999</ele>
        <time>2019-03-16T08:34:42Z</time>
      </trkpt>
      <trkpt lat="31.259607402607799" lon="-7.343318397179246">
        <ele>1835.77</ele>
        <time>2019-03-16T08:34:43Z</time>
      </trkpt>
      <trkpt lat="31.259702537208796" lon="-7.343348823487759">
        <ele>1836.74</ele>
        <time>2019-03-16T08:34:44Z</time>
      </trkpt>
      <trkpt lat="31.259810579940677" lon="-7.343381177634001">
        <ele>1837.22</ele>
        <time>2019-03-16T08:34:45Z</time>
      </trkpt>
      <trkpt lat="31.260591857135296" lon="-7.343594077974558">
        <ele>1838.1800000000001</ele>
        <time>2019-03-16T08:34:46Z</time>
      </trkpt>
      <trkpt lat="31.260720519348979" lon="-7.343674208968878">
        <ele>1846.8299999999999</ele>
        <time>2019-03-16T08:34:55Z</time>
      </trkpt>
      <trkpt lat="31.260835770517588" lon="-7.343781916424632">
        <ele>1849.23</ele>
        <time>2019-03-16T08:35:05Z</time>
      </trkpt>
      <trkpt lat="31.26093945465982" lon="-7.34391275793314">
        <ele>1849.71</ele>
        <time>2019-03-16T08:35:10Z</time>
      </trkpt>
      <trkpt lat="31.261030398309231" lon="-7.344057932496071">
        <ele>1850.6800000000001</ele>
        <time>2019-03-16T08:35:11Z</time>
      </trkpt>
      <trkpt lat="31.261108433827758" lon="-7.344215009361506">
        <ele>1851.6400000000001</ele>
        <time>2019-03-16T08:35:19Z</time>
      </trkpt>
      <trkpt lat="31.261181524023414" lon="-7.344381557777524">
        <ele>1852.1199999999999</ele>
        <time>2019-03-16T08:35:25Z</time>
      </trkpt>
      <trkpt lat="31.261677062138915" lon="-7.346067493781447">
        <ele>1853.0799999999999</ele>
        <time>2019-03-16T08:35:26Z</time>
      </trkpt>
      <trkpt lat="31.261810082942247" lon="-7.346547190099955">
        <ele>1853.5599999999999</ele>
        <time>2019-03-16T08:35:27Z</time>
      </trkpt>
      <trkpt lat="31.261873953044415" lon="-7.346693035215139">
        <ele>1854.04</ele>
        <time>2019-03-16T08:35:30Z</time>
      </trkpt>
      <trkpt lat="31.261953748762608" lon="-7.346823960542679">
        <ele>1855</ele>
        <time>2019-03-16T08:35:31Z</time>
      </trkpt>
      <trkpt lat="31.262040417641401" lon="-7.346941893920302">
        <ele>1856.9200000000001</ele>
        <time>2019-03-16T08:35:32Z</time>
      </trkpt>
      <trkpt lat="31.262125158682466" lon="-7.347057648003101">
        <ele>1857.4000000000001</ele>
        <time>2019-03-16T08:35:33Z</time>
      </trkpt>
      <trkpt lat="31.262197578325868" lon="-7.347185388207436">
        <ele>1857.8900000000001</ele>
        <time>2019-03-16T08:35:34Z</time>
      </trkpt>
      <trkpt lat="31.262253485620022" lon="-7.347329221665859">
        <ele>1859.3299999999999</ele>
        <time>2019-03-16T08:35:45Z</time>
      </trkpt>
      <trkpt lat="31.262290785089135" lon="-7.347485292702913">
        <ele>1859.3299999999999</ele>
        <time>2019-03-16T08:35:52Z</time>
      </trkpt>
      <trkpt lat="31.262315846979618" lon="-7.347648404538631">
        <ele>1859.8099999999999</ele>
        <time>2019-03-16T08:35:56Z</time>
      </trkpt>
      <trkpt lat="31.262461859732866" lon="-7.348471255972982">
        <ele>1859.3299999999999</ele>
        <time>2019-03-16T08:36:04Z</time>
      </trkpt>
      <trkpt lat="31.262519024312496" lon="-7.348627159371972">
        <ele>1857.8900000000001</ele>
        <time>2019-03-16T08:36:05Z</time>
      </trkpt>
      <trkpt lat="31.262586414813995" lon="-7.348780212923884">
        <ele>1857.8900000000001</ele>
        <time>2019-03-16T08:36:08Z</time>
      </trkpt>
      <trkpt lat="31.262890258803964" lon="-7.349361665546894">
        <ele>1858.3699999999999</ele>
        <time>2019-03-16T08:36:09Z</time>
      </trkpt>
      <trkpt lat="31.262951949611306" lon="-7.349514551460743">
        <ele>1858.3699999999999</ele>
        <time>2019-03-16T08:36:10Z</time>
      </trkpt>
      <trkpt lat="31.262999894097447" lon="-7.349676489830017">
        <ele>1858.8499999999999</ele>
        <time>2019-03-16T08:36:11Z</time>
      </trkpt>
      <trkpt lat="31.263532564043999" lon="-7.352281250059605">
        <ele>1858.8499999999999</ele>
        <time>2019-03-16T08:36:13Z</time>
      </trkpt>
      <trkpt lat="31.263777483254671" lon="-7.353506265208125">
        <ele>1858.8499999999999</ele>
        <time>2019-03-16T08:36:14Z</time>
      </trkpt>
      <trkpt lat="31.263767844066024" lon="-7.353633586317301">
        <ele>1860.77</ele>
        <time>2019-03-16T08:36:15Z</time>
      </trkpt>
      <trkpt lat="31.263739597052336" lon="-7.353749508038163">
        <ele>1861.73</ele>
        <time>2019-03-16T08:36:16Z</time>
      </trkpt>
      <trkpt lat="31.263693245127797" lon="-7.353854533284903">
        <ele>1867.5</ele>
        <time>2019-03-16T08:36:17Z</time>
      </trkpt>
      <trkpt lat="31.263623926788568" lon="-7.353947572410107">
        <ele>1868.46</ele>
        <time>2019-03-16T08:36:18Z</time>
      </trkpt>
      <trkpt lat="31.263537677004933" lon="-7.35403030179441">
        <ele>1869.4200000000001</ele>
        <time>2019-03-16T08:36:19Z</time>
      </trkpt>
      <trkpt lat="31.263441201299429" lon="-7.354110013693571">
        <ele>1870.8599999999999</ele>
        <time>2019-03-16T08:36:20Z</time>
      </trkpt>
      <trkpt lat="31.262750113382936" lon="-7.354763047769666">
        <ele>1871.8199999999999</ele>
        <time>2019-03-16T08:36:21Z</time>
      </trkpt>
      <trkpt lat="31.262670485302806" lon="-7.354890955612063">
        <ele>1873.27</ele>
        <time>2019-03-16T08:36:22Z</time>
      </trkpt>
      <trkpt lat="31.262120380997658" lon="-7.356032738462091">
        <ele>1874.23</ele>
        <time>2019-03-16T08:36:23Z</time>
      </trkpt>
      <trkpt lat="31.262079980224371" lon="-7.356180595234036">
        <ele>1882.8800000000001</ele>
        <time>2019-03-16T08:36:24Z</time>
      </trkpt>
      <trkpt lat="31.262059109285474" lon="-7.356329541653395">
        <ele>1883.8399999999999</ele>
        <time>2019-03-16T08:36:25Z</time>
      </trkpt>
      <trkpt lat="31.262062964960933" lon="-7.356479745358229">
        <ele>1885.28</ele>
        <time>2019-03-16T08:36:26Z</time>
      </trkpt>
      <trkpt lat="31.262095905840397" lon="-7.356624165549874">
        <ele>1886.72</ele>
        <time>2019-03-16T08:36:27Z</time>
      </trkpt>
      <trkpt lat="31.262153070420027" lon="-7.356759700924158">
        <ele>1887.6900000000001</ele>
        <time>2019-03-16T08:36:28Z</time>
      </trkpt>
      <trkpt lat="31.262222640216351" lon="-7.356889452785254">
        <ele>1888.6500000000001</ele>
        <time>2019-03-16T08:36:29Z</time>
      </trkpt>
      <trkpt lat="31.262893527746201" lon="-7.357696127146483">
        <ele>1889.6099999999999</ele>
        <time>2019-03-16T08:36:30Z</time>
      </trkpt>
      <trkpt lat="31.262975670397282" lon="-7.357812970876694">
        <ele>1890.5699999999999</ele>
        <time>2019-03-16T08:36:31Z</time>
      </trkpt>
      <trkpt lat="31.263039372861385" lon="-7.357944399118424">
        <ele>1891.53</ele>
        <time>2019-03-16T08:36:32Z</time>
      </trkpt>
      <trkpt lat="31.263085473328829" lon="-7.358086807653308">
        <ele>1895.8599999999999</ele>
        <time>2019-03-16T08:36:33Z</time>
      </trkpt>
      <trkpt lat="31.263114223256707" lon="-7.358237262815237">
        <ele>1896.3399999999999</ele>
        <time>2019-03-16T08:36:34Z</time>
      </trkpt>
      <trkpt lat="31.263124281540513" lon="-7.358393333852291">
        <ele>1897.3</ele>
        <time>2019-03-16T08:36:35Z</time>
      </trkpt>
      <trkpt lat="31.263112798333168" lon="-7.358552841469646">
        <ele>1897.78</ele>
        <time>2019-03-16T08:36:38Z</time>
      </trkpt>
      <trkpt lat="31.263082455843687" lon="-7.358714109286666">
        <ele>1898.74</ele>
        <time>2019-03-16T08:36:39Z</time>
      </trkpt>
      <trkpt lat="31.263042809441686" lon="-7.35887604765594">
        <ele>1901.1400000000001</ele>
        <time>2019-03-16T08:36:42Z</time>
      </trkpt>
      <trkpt lat="31.262836614623666" lon="-7.359506450593472">
        <ele>1902.1099999999999</ele>
        <time>2019-03-16T08:36:43Z</time>
      </trkpt>
      <trkpt lat="31.262752460315824" lon="-7.359637627378106">
        <ele>1906.9100000000001</ele>
        <time>2019-03-16T08:36:49Z</time>
      </trkpt>
      <trkpt lat="31.26264969818294" lon="-7.359751034528017">
        <ele>1906.9100000000001</ele>
        <time>2019-03-16T08:36:50Z</time>
      </trkpt>
      <trkpt lat="31.262532938271761" lon="-7.359847007319331">
        <ele>1907.3900000000001</ele>
        <time>2019-03-16T08:36:51Z</time>
      </trkpt>
      <trkpt lat="31.262407377362251" lon="-7.359929149970412">
        <ele>1908.3499999999999</ele>
        <time>2019-03-16T08:36:52Z</time>
      </trkpt>
      <trkpt lat="31.262060618028045" lon="-7.360184798017144">
        <ele>1910.28</ele>
        <time>2019-03-16T08:36:53Z</time>
      </trkpt>
      <trkpt lat="31.261961124837399" lon="-7.360290577635169">
        <ele>1911.24</ele>
        <time>2019-03-16T08:36:54Z</time>
      </trkpt>
      <trkpt lat="31.261349665001035" lon="-7.361319707706571">
        <ele>1922.29</ele>
        <time>2019-03-16T08:36:55Z</time>
      </trkpt>
      <trkpt lat="31.261322926729918" lon="-7.361467313021421">
        <ele>1922.77</ele>
        <time>2019-03-16T08:36:56Z</time>
      </trkpt>
      <trkpt lat="31.261403812095523" lon="-7.361941980198026">
        <ele>1923.74</ele>
        <time>2019-03-16T08:36:57Z</time>
      </trkpt>
      <trkpt lat="31.261469274759293" lon="-7.362094111740589">
        <ele>1926.1400000000001</ele>
        <time>2019-03-16T08:36:58Z</time>
      </trkpt>
      <trkpt lat="31.261639092117548" lon="-7.36255788244307">
        <ele>1926.6199999999999</ele>
        <time>2019-03-16T08:36:59Z</time>
      </trkpt>
      <trkpt lat="31.261669937521219" lon="-7.362724682316184">
        <ele>1927.5799999999999</ele>
        <time>2019-03-16T08:37:00Z</time>
      </trkpt>
      <trkpt lat="31.261853668838739" lon="-7.364485384896398">
        <ele>1928.0599999999999</ele>
        <time>2019-03-16T08:37:01Z</time>
      </trkpt>
      <trkpt lat="31.261897003278136" lon="-7.36465654335916">
        <ele>1928.54</ele>
        <time>2019-03-16T08:37:02Z</time>
      </trkpt>
      <trkpt lat="31.261952659115195" lon="-7.364819822832942">
        <ele>1931.4300000000001</ele>
        <time>2019-03-16T08:37:03Z</time>
      </trkpt>
      <trkpt lat="31.262117195874453" lon="-7.365300189703703">
        <ele>1931.9100000000001</ele>
        <time>2019-03-16T08:37:04Z</time>
      </trkpt>
      <trkpt lat="31.262138988822699" lon="-7.365466738119721">
        <ele>1932.3900000000001</ele>
        <time>2019-03-16T08:37:05Z</time>
      </trkpt>
      <trkpt lat="31.262139994651079" lon="-7.36563915386796">
        <ele>1932.8699999999999</ele>
        <time>2019-03-16T08:37:06Z</time>
      </trkpt>
      <trkpt lat="31.262126751244068" lon="-7.365813916549087">
        <ele>1933.3499999999999</ele>
        <time>2019-03-16T08:37:10Z</time>
      </trkpt>
      <trkpt lat="31.262106886133552" lon="-7.365992031991482">
        <ele>1941.52</ele>
        <time>2019-03-16T08:37:11Z</time>
      </trkpt>
      <trkpt lat="31.262058019638062" lon="-7.367652235552669">
        <ele>1946.8099999999999</ele>
        <time>2019-03-16T08:37:12Z</time>
      </trkpt>
      <trkpt lat="31.262023905292153" lon="-7.367828004062176">
        <ele>1951.1300000000001</ele>
        <time>2019-03-16T08:37:13Z</time>
      </trkpt>
      <trkpt lat="31.261963555589318" lon="-7.367994133383036">
        <ele>1952.5699999999999</ele>
        <time>2019-03-16T08:37:14Z</time>
      </trkpt>
      <trkpt lat="31.261881915852427" lon="-7.368150455877185">
        <ele>1961.71</ele>
        <time>2019-03-16T08:37:15Z</time>
      </trkpt>
      <trkpt lat="31.261790720745921" lon="-7.36829973757267">
        <ele>1967.48</ele>
        <time>2019-03-16T08:37:16Z</time>
      </trkpt>
      <trkpt lat="31.261065853759646" lon="-7.36972994171083">
        <ele>1968.9200000000001</ele>
        <time>2019-03-16T08:37:17Z</time>
      </trkpt>
      <trkpt lat="31.260719932615757" lon="-7.37153297290206">
        <ele>1969.8800000000001</ele>
        <time>2019-03-16T08:37:18Z</time>
      </trkpt>
      <trkpt lat="31.260634940117598" lon="-7.372561013326049">
        <ele>1972.76</ele>
        <time>2019-03-16T08:37:19Z</time>
      </trkpt>
      <trkpt lat="31.260592276230454" lon="-7.372766202315688">
        <ele>1973.24</ele>
        <time>2019-03-16T08:37:20Z</time>
      </trkpt>
      <trkpt lat="31.26031257212162" lon="-7.37432305701077">
        <ele>1974.2</ele>
        <time>2019-03-16T08:37:21Z</time>
      </trkpt>
      <trkpt lat="31.260192291811109" lon="-7.375540444627404">
        <ele>1974.6900000000001</ele>
        <time>2019-03-16T08:37:22Z</time>
      </trkpt>
      <trkpt lat="31.26020067371428" lon="-7.375732222571969">
        <ele>1975.1700000000001</ele>
        <time>2019-03-16T08:37:23Z</time>
      </trkpt>
      <trkpt lat="31.260228250175714" lon="-7.375918887555599">
        <ele>1983.8199999999999</ele>
        <time>2019-03-16T08:37:24Z</time>
      </trkpt>
      <trkpt lat="31.260314332321286" lon="-7.376424567773938">
        <ele>1992.47</ele>
        <time>2019-03-16T08:37:25Z</time>
      </trkpt>
      <trkpt lat="31.260307542979717" lon="-7.376582231372595">
        <ele>1997.28</ele>
        <time>2019-03-16T08:37:26Z</time>
      </trkpt>
      <trkpt lat="31.260272087529302" lon="-7.376735620200634">
        <ele>2007.3699999999999</ele>
        <time>2019-03-16T08:37:27Z</time>
      </trkpt>
      <trkpt lat="31.260211486369371" lon="-7.376882219687104">
        <ele>2007.8499999999999</ele>
        <time>2019-03-16T08:37:28Z</time>
      </trkpt>
      <trkpt lat="31.260137809440494" lon="-7.377025717869401">
        <ele>2009.29</ele>
        <time>2019-03-16T08:37:29Z</time>
      </trkpt>
      <trkpt lat="31.259239856153727" lon="-7.37874417565763">
        <ele>2009.77</ele>
        <time>2019-03-16T08:37:30Z</time>
      </trkpt>
      <trkpt lat="31.258306028321385" lon="-7.379616145044565">
        <ele>2010.25</ele>
        <time>2019-03-16T08:37:31Z</time>
      </trkpt>
      <trkpt lat="31.257727257907391" lon="-7.380001964047551">
        <ele>2011.22</ele>
        <time>2019-03-16T08:37:32Z</time>
      </trkpt>
      <trkpt lat="31.256620930507779" lon="-7.38028678111732">
        <ele>2013.1400000000001</ele>
        <time>2019-03-16T08:37:33Z</time>
      </trkpt>
      <trkpt lat="31.256548762321472" lon="-7.380325002595782">
        <ele>2014.0999999999999</ele>
        <time>2019-03-16T08:37:34Z</time>
      </trkpt>
      <trkpt lat="31.256536273285747" lon="-7.380512841045857">
        <ele>2015.0599999999999</ele>
        <time>2019-03-16T08:37:35Z</time>
      </trkpt>
      <trkpt lat="31.256601819768548" lon="-7.380547542124987">
        <ele>2015.54</ele>
        <time>2019-03-16T08:37:36Z</time>
      </trkpt>
      <trkpt lat="31.25668496824801" lon="-7.38055257126689">
        <ele>2016.5</ele>
        <time>2019-03-16T08:37:37Z</time>
      </trkpt>
      <trkpt lat="31.2567821983248" lon="-7.380537735298276">
        <ele>2017.9400000000001</ele>
        <time>2019-03-16T08:37:40Z</time>
      </trkpt>
      <trkpt lat="31.257001720368862" lon="-7.380519043654203">
        <ele>2018.9100000000001</ele>
        <time>2019-03-16T08:37:41Z</time>
      </trkpt>
      <trkpt lat="31.257111020386219" lon="-7.380533292889595">
        <ele>2020.3499999999999</ele>
        <time>2019-03-16T08:37:42Z</time>
      </trkpt>
      <trkpt lat="31.257220488041639" lon="-7.380568413063884">
        <ele>2021.3099999999999</ele>
        <time>2019-03-16T08:37:43Z</time>
      </trkpt>
      <trkpt lat="31.25732559710741" lon="-7.38063027150929">
        <ele>2022.75</ele>
        <time>2019-03-16T08:37:44Z</time>
      </trkpt>
      <trkpt lat="31.257420144975185" lon="-7.380718365311623">
        <ele>2024.1900000000001</ele>
        <time>2019-03-16T08:37:45Z</time>
      </trkpt>
      <trkpt lat="31.2575005274266" lon="-7.380826156586409">
        <ele>2025.6400000000001</ele>
        <time>2019-03-16T08:37:46Z</time>
      </trkpt>
      <trkpt lat="31.257568085566163" lon="-7.38094350323081">
        <ele>2026.5999999999999</ele>
        <time>2019-03-16T08:37:47Z</time>
      </trkpt>
      <trkpt lat="31.257625501602888" lon="-7.381065124645829">
        <ele>2027.5599999999999</ele>
        <time>2019-03-16T08:37:57Z</time>
      </trkpt>
      <trkpt lat="31.2576749548316" lon="-7.381194373592734">
        <ele>2028.52</ele>
        <time>2019-03-16T08:37:58Z</time>
      </trkpt>
      <trkpt lat="31.25771451741457" lon="-7.381332172080874">
        <ele>2029.48</ele>
        <time>2019-03-16T08:38:07Z</time>
      </trkpt>
      <trkpt lat="31.257746536284685" lon="-7.381471730768681">
        <ele>2029.96</ele>
        <time>2019-03-16T08:38:13Z</time>
      </trkpt>
      <trkpt lat="31.257775789126754" lon="-7.381610032171011">
        <ele>2031.4000000000001</ele>
        <time>2019-03-16T08:38:14Z</time>
      </trkpt>
      <trkpt lat="31.257814848795533" lon="-7.38174338825047">
        <ele>2032.3599999999999</ele>
        <time>2019-03-16T08:38:22Z</time>
      </trkpt>
      <trkpt lat="31.25786991789937" lon="-7.38186601549387">
        <ele>2033.8099999999999</ele>
        <time>2019-03-16T08:38:23Z</time>
      </trkpt>
      <trkpt lat="31.257939068600535" lon="-7.381976908072829">
        <ele>2034.77</ele>
        <time>2019-03-16T08:38:24Z</time>
      </trkpt>
      <trkpt lat="31.258011152967811" lon="-7.382082939147949">
        <ele>2036.21</ele>
        <time>2019-03-16T08:38:25Z</time>
      </trkpt>
      <trkpt lat="31.258070329204202" lon="-7.382197855040431">
        <ele>2037.1700000000001</ele>
        <time>2019-03-16T08:38:26Z</time>
      </trkpt>
      <trkpt lat="31.258107293397188" lon="-7.382324757054448">
        <ele>2039.5699999999999</ele>
        <time>2019-03-16T08:38:27Z</time>
      </trkpt>
      <trkpt lat="31.2581239733845" lon="-7.38246263936162">
        <ele>2040.54</ele>
        <time>2019-03-16T08:38:31Z</time>
      </trkpt>
      <trkpt lat="31.258133444935083" lon="-7.382602952420712">
        <ele>2042.9400000000001</ele>
        <time>2019-03-16T08:38:32Z</time>
      </trkpt>
      <trkpt lat="31.258149370551109" lon="-7.382738906890154">
        <ele>2043.9000000000001</ele>
        <time>2019-03-16T08:38:37Z</time>
      </trkpt>
      <trkpt lat="31.258178958669305" lon="-7.382871089503169">
        <ele>2050.6300000000001</ele>
        <time>2019-03-16T08:38:38Z</time>
      </trkpt>
      <trkpt lat="31.258224220946431" lon="-7.383003691211343">
        <ele>2051.1100000000001</ele>
        <time>2019-03-16T08:38:39Z</time>
      </trkpt>
      <trkpt lat="31.258395966142416" lon="-7.383405938744545">
        <ele>2051.5900000000001</ele>
        <time>2019-03-16T08:38:40Z</time>
      </trkpt>
      <trkpt lat="31.258433014154434" lon="-7.383551951497793">
        <ele>2052.0700000000002</ele>
        <time>2019-03-16T08:38:41Z</time>
      </trkpt>
      <trkpt lat="31.258519180119038" lon="-7.383995605632663">
        <ele>2052.5500000000002</ele>
        <time>2019-03-16T08:38:48Z</time>
      </trkpt>
      <trkpt lat="31.258563436567783" lon="-7.384140193462372">
        <ele>2053.5100000000002</ele>
        <time>2019-03-16T08:38:53Z</time>
      </trkpt>
      <trkpt lat="31.2588354293257" lon="-7.385000512003899">
        <ele>2054.4699999999998</ele>
        <time>2019-03-16T08:38:54Z</time>
      </trkpt>
      <trkpt lat="31.258884044364095" lon="-7.385122803971171">
        <ele>2055.4400000000001</ele>
        <time>2019-03-16T08:38:55Z</time>
      </trkpt>
      <trkpt lat="31.258958308026195" lon="-7.385225985199213">
        <ele>2056.4000000000001</ele>
        <time>2019-03-16T08:38:56Z</time>
      </trkpt>
      <trkpt lat="31.259053191170096" lon="-7.385303182527423">
        <ele>2057.3600000000001</ele>
        <time>2019-03-16T08:38:57Z</time>
      </trkpt>
      <trkpt lat="31.259153774008155" lon="-7.385370405390859">
        <ele>2058.8000000000002</ele>
        <time>2019-03-16T08:38:58Z</time>
      </trkpt>
      <trkpt lat="31.259245304390788" lon="-7.385445926338434">
        <ele>2059.7600000000002</ele>
        <time>2019-03-16T08:38:59Z</time>
      </trkpt>
      <trkpt lat="31.259313197806478" lon="-7.385549107566476">
        <ele>2061.1999999999998</ele>
        <time>2019-03-16T08:39:00Z</time>
      </trkpt>
      <trkpt lat="31.259356699883938" lon="-7.385675758123398">
        <ele>2062.1700000000001</ele>
        <time>2019-03-16T08:39:01Z</time>
      </trkpt>
      <trkpt lat="31.259376229718328" lon="-7.385818250477314">
        <ele>2063.1300000000001</ele>
        <time>2019-03-16T08:39:02Z</time>
      </trkpt>
      <trkpt lat="31.259379079565406" lon="-7.385966861620545">
        <ele>2064.5700000000002</ele>
        <time>2019-03-16T08:39:03Z</time>
      </trkpt>
      <trkpt lat="31.259362567216158" lon="-7.386114383116365">
        <ele>2066.0100000000002</ele>
        <time>2019-03-16T08:39:04Z</time>
      </trkpt>
      <trkpt lat="31.259323172271252" lon="-7.386257462203503">
        <ele>2066.9699999999998</ele>
        <time>2019-03-16T08:39:05Z</time>
      </trkpt>
      <trkpt lat="31.259264834225178" lon="-7.386395176872611">
        <ele>2072.7399999999998</ele>
        <time>2019-03-16T08:39:06Z</time>
      </trkpt>
      <trkpt lat="31.25920582562685" lon="-7.386538507416844">
        <ele>2073.6999999999998</ele>
        <time>2019-03-16T08:39:07Z</time>
      </trkpt>
      <trkpt lat="31.259157042950392" lon="-7.38669072277844">
        <ele>2074.1799999999998</ele>
        <time>2019-03-16T08:39:08Z</time>
      </trkpt>
      <trkpt lat="31.259121922776103" lon="-7.386852661147714">
        <ele>2074.6599999999999</ele>
        <time>2019-03-16T08:39:09Z</time>
      </trkpt>
      <trkpt lat="31.259096944704652" lon="-7.387019712477922">
        <ele>2075.1399999999999</ele>
        <time>2019-03-16T08:39:10Z</time>
      </trkpt>
      <trkpt lat="31.259081102907658" lon="-7.387189110741019">
        <ele>2076.0999999999999</ele>
        <time>2019-03-16T08:39:11Z</time>
      </trkpt>
      <trkpt lat="31.259065847843885" lon="-7.387812053784728">
        <ele>2077.0700000000002</ele>
        <time>2019-03-16T08:39:12Z</time>
      </trkpt>
      <trkpt lat="31.259092334657907" lon="-7.387954043224454">
        <ele>2077.5500000000002</ele>
        <time>2019-03-16T08:39:13Z</time>
      </trkpt>
      <trkpt lat="31.259142458438873" lon="-7.388084465637803">
        <ele>2078.5100000000002</ele>
        <time>2019-03-16T08:39:14Z</time>
      </trkpt>
      <trkpt lat="31.259210268035531" lon="-7.388199716806412">
        <ele>2079.4699999999998</ele>
        <time>2019-03-16T08:39:15Z</time>
      </trkpt>
      <trkpt lat="31.259279167279601" lon="-7.388312704861164">
        <ele>2080.4299999999998</ele>
        <time>2019-03-16T08:39:16Z</time>
      </trkpt>
      <trkpt lat="31.259334990754724" lon="-7.388435751199722">
        <ele>2080.9099999999999</ele>
        <time>2019-03-16T08:39:17Z</time>
      </trkpt>
      <trkpt lat="31.259374469518661" lon="-7.388566927984357">
        <ele>2081.3899999999999</ele>
        <time>2019-03-16T08:39:18Z</time>
      </trkpt>
      <trkpt lat="31.259406069293618" lon="-7.388694752007723">
        <ele>2082.3499999999999</ele>
        <time>2019-03-16T08:39:19Z</time>
      </trkpt>
      <trkpt lat="31.259441692382097" lon="-7.388814194127917">
        <ele>2082.8299999999999</ele>
        <time>2019-03-16T08:39:20Z</time>
      </trkpt>
      <trkpt lat="31.259487122297287" lon="-7.388918800279498">
        <ele>2083.3099999999999</ele>
        <time>2019-03-16T08:39:21Z</time>
      </trkpt>
      <trkpt lat="31.259549148380756" lon="-7.389010163024068">
        <ele>2083.79</ele>
        <time>2019-03-16T08:39:22Z</time>
      </trkpt>
      <trkpt lat="31.259626010432839" lon="-7.389087611809373">
        <ele>2083.79</ele>
        <time>2019-03-16T08:39:23Z</time>
      </trkpt>
      <trkpt lat="31.259707231074572" lon="-7.389162797480822">
        <ele>2084.2800000000002</ele>
        <time>2019-03-16T08:39:24Z</time>
      </trkpt>
      <trkpt lat="31.259778141975403" lon="-7.38924385048449">
        <ele>2084.7600000000002</ele>
        <time>2019-03-16T08:39:25Z</time>
      </trkpt>
      <trkpt lat="31.259832121431828" lon="-7.389330435544252">
        <ele>2085.7199999999998</ele>
        <time>2019-03-16T08:39:27Z</time>
      </trkpt>
      <trkpt lat="31.259875120595098" lon="-7.389422049745917">
        <ele>2085.7199999999998</ele>
        <time>2019-03-16T08:39:28Z</time>
      </trkpt>
      <trkpt lat="31.259908815845847" lon="-7.38951307721436">
        <ele>2086.1999999999998</ele>
        <time>2019-03-16T08:39:30Z</time>
      </trkpt>
      <trkpt lat="31.259939158335328" lon="-7.389595303684473">
        <ele>2086.6799999999998</ele>
        <time>2019-03-16T08:39:31Z</time>
      </trkpt>
      <trkpt lat="31.2599803134799" lon="-7.389661353081465">
        <ele>2087.1599999999999</ele>
        <time>2019-03-16T08:39:32Z</time>
      </trkpt>
      <trkpt lat="31.260037729516625" lon="-7.389698820188642">
        <ele>2087.6399999999999</ele>
        <time>2019-03-16T08:39:33Z</time>
      </trkpt>
      <trkpt lat="31.26010537147522" lon="-7.389704519882798">
        <ele>2088.1199999999999</ele>
        <time>2019-03-16T08:39:34Z</time>
      </trkpt>
      <trkpt lat="31.260174522176385" lon="-7.389670321717858">
        <ele>2088.5999999999999</ele>
        <time>2019-03-16T08:39:35Z</time>
      </trkpt>
      <trkpt lat="31.260230010375381" lon="-7.389597650617361">
        <ele>2090.04</ele>
        <time>2019-03-16T08:39:36Z</time>
      </trkpt>
      <trkpt lat="31.26026026904583" lon="-7.38950033672154">
        <ele>2090.52</ele>
        <time>2019-03-16T08:39:38Z</time>
      </trkpt>
      <trkpt lat="31.26026613637805" lon="-7.38939137198031">
        <ele>2091</ele>
        <time>2019-03-16T08:39:39Z</time>
      </trkpt>
      <trkpt lat="31.260247612372041" lon="-7.389280144125223">
        <ele>2091.4899999999998</ele>
        <time>2019-03-16T08:39:40Z</time>
      </trkpt>
      <trkpt lat="31.260217353701591" lon="-7.389171598479152">
        <ele>2091.9699999999998</ele>
        <time>2019-03-16T08:39:41Z</time>
      </trkpt>
      <trkpt lat="31.260179802775383" lon="-7.389063388109207">
        <ele>2092.4499999999998</ele>
        <time>2019-03-16T08:39:42Z</time>
      </trkpt>
      <trkpt lat="31.260078046470881" lon="-7.388726687058806">
        <ele>2092.4499999999998</ele>
        <time>2019-03-16T08:39:43Z</time>
      </trkpt>
      <trkpt lat="31.260063629597425" lon="-7.38860908895731">
        <ele>2092.4499999999998</ele>
        <time>2019-03-16T08:39:44Z</time>
      </trkpt>
      <trkpt lat="31.260061282664537" lon="-7.388490233570337">
        <ele>2098.21</ele>
        <time>2019-03-16T08:39:45Z</time>
      </trkpt>
      <trkpt lat="31.260074190795422" lon="-7.388369450345635">
        <ele>2099.1799999999998</ele>
        <time>2019-03-16T08:39:46Z</time>
      </trkpt>
      <trkpt lat="31.260104114189744" lon="-7.388252187520266">
        <ele>2103.98</ele>
        <time>2019-03-16T08:39:47Z</time>
      </trkpt>
      <trkpt lat="31.260148035362363" lon="-7.388139367103577">
        <ele>2105.9099999999999</ele>
        <time>2019-03-16T08:39:48Z</time>
      </trkpt>
      <trkpt lat="31.26020117662847" lon="-7.388037526980043">
        <ele>2106.3899999999999</ele>
        <time>2019-03-16T08:39:49Z</time>
      </trkpt>
      <trkpt lat="31.26025733537972" lon="-7.387942811474204">
        <ele>2109.75</ele>
        <time>2019-03-16T08:39:50Z</time>
      </trkpt>
      <trkpt lat="31.260697720572352" lon="-7.386849392205477">
        <ele>2110.23</ele>
        <time>2019-03-16T08:39:51Z</time>
      </trkpt>
      <trkpt lat="31.260711802169681" lon="-7.386725340038538">
        <ele>2110.71</ele>
        <time>2019-03-16T08:39:52Z</time>
      </trkpt>
      <trkpt lat="31.260921182110906" lon="-7.385727390646935">
        <ele>2111.1900000000001</ele>
        <time>2019-03-16T08:39:53Z</time>
      </trkpt>
      <trkpt lat="31.261201053857803" lon="-7.385320700705051">
        <ele>2111.6700000000001</ele>
        <time>2019-03-16T08:39:54Z</time>
      </trkpt>
      <trkpt lat="31.261255033314228" lon="-7.385276108980179">
        <ele>2112.1500000000001</ele>
        <time>2019-03-16T08:39:55Z</time>
      </trkpt>
      <trkpt lat="31.261725090444088" lon="-7.384880147874355">
        <ele>2113.1199999999999</ele>
        <time>2019-03-16T08:39:56Z</time>
      </trkpt>
      <trkpt lat="31.261778818443418" lon="-7.384807644411922">
        <ele>2113.5999999999999</ele>
        <time>2019-03-16T08:39:57Z</time>
      </trkpt>
      <trkpt lat="31.261821566149592" lon="-7.384739918634296">
        <ele>2116</ele>
        <time>2019-03-16T08:39:58Z</time>
      </trkpt>
      <trkpt lat="31.261855512857437" lon="-7.38467613235116">
        <ele>2116.48</ele>
        <time>2019-03-16T08:39:59Z</time>
      </trkpt>
      <trkpt lat="31.261880658566952" lon="-7.384618800133467">
        <ele>2116.96</ele>
        <time>2019-03-16T08:40:00Z</time>
      </trkpt>
      <trkpt lat="31.261901026591659" lon="-7.384568089619279">
        <ele>2117.4400000000001</ele>
        <time>2019-03-16T08:40:01Z</time>
      </trkpt>
      <trkpt lat="31.261947378516197" lon="-7.384410593658686">
        <ele>2117.9200000000001</ele>
        <time>2019-03-16T08:40:02Z</time>
      </trkpt>
      <trkpt lat="31.261981828138232" lon="-7.38436097279191">
        <ele>2118.8800000000001</ele>
        <time>2019-03-16T08:40:03Z</time>
      </trkpt>
      <trkpt lat="31.262198248878121" lon="-7.384070456027985">
        <ele>2119.8400000000001</ele>
        <time>2019-03-16T08:40:04Z</time>
      </trkpt>
      <trkpt lat="31.262247283011675" lon="-7.384028211236">
        <ele>2120.3200000000002</ele>
        <time>2019-03-16T08:40:05Z</time>
      </trkpt>
      <trkpt lat="31.262292210012674" lon="-7.384005831554532">
        <ele>2120.8099999999999</ele>
        <time>2019-03-16T08:40:06Z</time>
      </trkpt>
      <trkpt lat="31.262333113700151" lon="-7.383998371660709">
        <ele>2120.8099999999999</ele>
        <time>2019-03-16T08:40:07Z</time>
      </trkpt>
      <trkpt lat="31.262375442311168" lon="-7.383995102718473">
        <ele>2121.29</ele>
        <time>2019-03-16T08:40:08Z</time>
      </trkpt>
      <trkpt lat="31.262890510261059" lon="-7.383868871256709">
        <ele>2121.29</ele>
        <time>2019-03-16T08:40:09Z</time>
      </trkpt>
      <trkpt lat="31.263485290110111" lon="-7.383738113567233">
        <ele>2121.77</ele>
        <time>2019-03-16T08:40:10Z</time>
      </trkpt>
      <trkpt lat="31.26358930952847" lon="-7.383692767471075">
        <ele>2121.77</ele>
        <time>2019-03-16T08:40:11Z</time>
      </trkpt>
      <trkpt lat="31.263680588454008" lon="-7.383639710023999">
        <ele>2122.25</ele>
        <time>2019-03-16T08:40:12Z</time>
      </trkpt>
      <trkpt lat="31.263767424970865" lon="-7.383590843528509">
        <ele>2122.73</ele>
        <time>2019-03-16T08:40:13Z</time>
      </trkpt>
      <trkpt lat="31.263862391933799" lon="-7.383563769981265">
        <ele>2123.21</ele>
        <time>2019-03-16T08:40:14Z</time>
      </trkpt>
      <trkpt lat="31.263968758285046" lon="-7.38356351852417">
        <ele>2123.6900000000001</ele>
        <time>2019-03-16T08:40:15Z</time>
      </trkpt>
      <trkpt lat="31.264087362214923" lon="-7.383577935397625">
        <ele>2124.1700000000001</ele>
        <time>2019-03-16T08:40:16Z</time>
      </trkpt>
      <trkpt lat="31.264209821820259" lon="-7.383594950661063">
        <ele>2124.6500000000001</ele>
        <time>2019-03-16T08:40:17Z</time>
      </trkpt>
      <trkpt lat="31.264328341931105" lon="-7.38359721377492">
        <ele>2125.1300000000001</ele>
        <time>2019-03-16T08:40:18Z</time>
      </trkpt>
      <trkpt lat="31.264440072700381" lon="-7.383565781638026">
        <ele>2125.6100000000001</ele>
        <time>2019-03-16T08:40:19Z</time>
      </trkpt>
      <trkpt lat="31.264542667195201" lon="-7.383499732241035">
        <ele>2126.0900000000001</ele>
        <time>2019-03-16T08:40:20Z</time>
      </trkpt>
      <trkpt lat="31.264635538682342" lon="-7.383411638438702">
        <ele>2126.5700000000002</ele>
        <time>2019-03-16T08:40:21Z</time>
      </trkpt>
      <trkpt lat="31.264725644141436" lon="-7.383325221017003">
        <ele>2127.0500000000002</ele>
        <time>2019-03-16T08:40:22Z</time>
      </trkpt>
      <trkpt lat="31.264823125675321" lon="-7.383253891021013">
        <ele>2128.02</ele>
        <time>2019-03-16T08:40:23Z</time>
      </trkpt>
      <trkpt lat="31.264932258054614" lon="-7.383209718391299">
        <ele>2128.5</ele>
        <time>2019-03-16T08:40:26Z</time>
      </trkpt>
      <trkpt lat="31.265049939975142" lon="-7.383196726441383">
        <ele>2129.46</ele>
        <time>2019-03-16T08:40:27Z</time>
      </trkpt>
      <trkpt lat="31.26516661606729" lon="-7.383216507732868">
        <ele>2130.4200000000001</ele>
        <time>2019-03-16T08:40:28Z</time>
      </trkpt>
      <trkpt lat="31.265272395685315" lon="-7.383270068094134">
        <ele>2130.9000000000001</ele>
        <time>2019-03-16T08:40:29Z</time>
      </trkpt>
      <trkpt lat="31.265357052907348" lon="-7.383361933752894">
        <ele>2131.3800000000001</ele>
        <time>2019-03-16T08:40:30Z</time>
      </trkpt>
      <trkpt lat="31.265419749543071" lon="-7.383480789139867">
        <ele>2131.3800000000001</ele>
        <time>2019-03-16T08:40:31Z</time>
      </trkpt>
      <trkpt lat="31.265475237742066" lon="-7.38360601477325">
        <ele>2131.8600000000001</ele>
        <time>2019-03-16T08:40:32Z</time>
      </trkpt>
      <trkpt lat="31.265544975176454" lon="-7.383709279820323">
        <ele>2131.8600000000001</ele>
        <time>2019-03-16T08:40:33Z</time>
      </trkpt>
      <trkpt lat="31.265637176111341" lon="-7.383773820474744">
        <ele>2131.8600000000001</ele>
        <time>2019-03-16T08:40:34Z</time>
      </trkpt>
      <trkpt lat="31.265743291005492" lon="-7.383793350309134">
        <ele>2132.3400000000001</ele>
        <time>2019-03-16T08:40:40Z</time>
      </trkpt>
      <trkpt lat="31.265847058966756" lon="-7.383775413036346">
        <ele>2132.3400000000001</ele>
        <time>2019-03-16T08:40:41Z</time>
      </trkpt>
      <trkpt lat="31.265947557985783" lon="-7.383745824918151">
        <ele>2132.3400000000001</ele>
        <time>2019-03-16T08:40:42Z</time>
      </trkpt>
      <trkpt lat="31.266049146652222" lon="-7.383735766634345">
        <ele>2132.8200000000002</ele>
        <time>2019-03-16T08:40:43Z</time>
      </trkpt>
      <trkpt lat="31.266150064766407" lon="-7.383765941485763">
        <ele>2133.3000000000002</ele>
        <time>2019-03-16T08:40:44Z</time>
      </trkpt>
      <trkpt lat="31.266240505501628" lon="-7.383824866265059">
        <ele>2133.3000000000002</ele>
        <time>2019-03-16T08:40:48Z</time>
      </trkpt>
      <trkpt lat="31.266311248764396" lon="-7.383903404697776">
        <ele>2133.7800000000002</ele>
        <time>2019-03-16T08:40:49Z</time>
      </trkpt>
      <trkpt lat="31.26636816188693" lon="-7.383997114375234">
        <ele>2133.7800000000002</ele>
        <time>2019-03-16T08:40:50Z</time>
      </trkpt>
      <trkpt lat="31.266429936513305" lon="-7.384091662243009">
        <ele>2133.7800000000002</ele>
        <time>2019-03-16T08:40:51Z</time>
      </trkpt>
      <trkpt lat="31.266501015052199" lon="-7.384170284494758">
        <ele>2133.7800000000002</ele>
        <time>2019-03-16T08:40:52Z</time>
      </trkpt>
      <trkpt lat="31.266607716679573" lon="-7.384252427145839">
        <ele>2133.7800000000002</ele>
        <time>2019-03-16T08:40:53Z</time>
      </trkpt>
      <trkpt lat="31.266636215150356" lon="-7.384224850684404">
        <ele>2134.2600000000002</ele>
        <time>2019-03-16T08:40:58Z</time>
      </trkpt>
      <trkpt lat="31.266695223748684" lon="-7.384077999740839">
        <ele>2134.7399999999998</ele>
        <time>2019-03-16T08:40:59Z</time>
      </trkpt>
      <trkpt lat="31.266749957576394" lon="-7.383989151567221">
        <ele>2135.23</ele>
        <time>2019-03-16T08:41:00Z</time>
      </trkpt>
      <trkpt lat="31.266821622848511" lon="-7.38390801474452">
        <ele>2135.23</ele>
        <time>2019-03-16T08:41:01Z</time>
      </trkpt>
      <trkpt lat="31.266905944794416" lon="-7.383858477696776">
        <ele>2135.23</ele>
        <time>2019-03-16T08:41:02Z</time>
      </trkpt>
      <trkpt lat="31.266998816281557" lon="-7.38384791649878">
        <ele>2135.71</ele>
        <time>2019-03-16T08:41:03Z</time>
      </trkpt>
      <trkpt lat="31.267097136005759" lon="-7.383865686133504">
        <ele>2135.71</ele>
        <time>2019-03-16T08:41:04Z</time>
      </trkpt>
      <trkpt lat="31.267205849289894" lon="-7.383879600092769">
        <ele>2135.23</ele>
        <time>2019-03-16T08:41:08Z</time>
      </trkpt>
      <trkpt lat="31.267422186210752" lon="-7.38390457816422">
        <ele>2135.23</ele>
        <time>2019-03-16T08:41:09Z</time>
      </trkpt>
      <trkpt lat="31.267532492056489" lon="-7.383896196261048">
        <ele>2135.23</ele>
        <time>2019-03-16T08:41:10Z</time>
      </trkpt>
      <trkpt lat="31.267639948055148" lon="-7.383871553465724">
        <ele>2135.71</ele>
        <time>2019-03-16T08:41:11Z</time>
      </trkpt>
      <trkpt lat="31.267740111798048" lon="-7.383828470483422">
        <ele>2136.1900000000001</ele>
        <time>2019-03-16T08:41:12Z</time>
      </trkpt>
      <trkpt lat="31.267824852839112" lon="-7.383760493248701">
        <ele>2136.6700000000001</ele>
        <time>2019-03-16T08:41:13Z</time>
      </trkpt>
      <trkpt lat="31.26787849701941" lon="-7.383667957037687">
        <ele>2136.6700000000001</ele>
        <time>2019-03-16T08:41:14Z</time>
      </trkpt>
      <trkpt lat="31.267887130379677" lon="-7.383566871285439">
        <ele>2137.1500000000001</ele>
        <time>2019-03-16T08:41:15Z</time>
      </trkpt>
      <trkpt lat="31.267848405987024" lon="-7.383470060303807">
        <ele>2136.6700000000001</ele>
        <time>2019-03-16T08:41:16Z</time>
      </trkpt>
      <trkpt lat="31.267773807048798" lon="-7.383392192423344">
        <ele>2137.6300000000001</ele>
        <time>2019-03-16T08:41:20Z</time>
      </trkpt>
      <trkpt lat="31.267684707418084" lon="-7.383320527151227">
        <ele>2137.1500000000001</ele>
        <time>2019-03-16T08:41:21Z</time>
      </trkpt>
      <trkpt lat="31.26759946346283" lon="-7.383238468319178">
        <ele>2137.1500000000001</ele>
        <time>2019-03-16T08:41:22Z</time>
      </trkpt>
      <trkpt lat="31.267524193972349" lon="-7.383140400052071">
        <ele>2137.6300000000001</ele>
        <time>2019-03-16T08:41:23Z</time>
      </trkpt>
      <trkpt lat="31.267463089898229" lon="-7.383028082549572">
        <ele>2137.6300000000001</ele>
        <time>2019-03-16T08:41:24Z</time>
      </trkpt>
      <trkpt lat="31.267417576164007" lon="-7.382902186363936">
        <ele>2138.1100000000001</ele>
        <time>2019-03-16T08:41:25Z</time>
      </trkpt>
      <trkpt lat="31.267387736588717" lon="-7.382767153903842">
        <ele>2139.0700000000002</ele>
        <time>2019-03-16T08:41:35Z</time>
      </trkpt>
      <trkpt lat="31.267371140420437" lon="-7.382635977119207">
        <ele>2139.5500000000002</ele>
        <time>2019-03-16T08:41:40Z</time>
      </trkpt>
      <trkpt lat="31.267348593100905" lon="-7.382519468665123">
        <ele>2139.5500000000002</ele>
        <time>2019-03-16T08:41:41Z</time>
      </trkpt>
      <trkpt lat="31.267303582280874" lon="-7.382426680997014">
        <ele>2140.0300000000002</ele>
        <time>2019-03-16T08:41:49Z</time>
      </trkpt>
      <trkpt lat="31.267238203436136" lon="-7.382355351001024">
        <ele>2140.9899999999998</ele>
        <time>2019-03-16T08:41:50Z</time>
      </trkpt>
      <trkpt lat="31.267182966694236" lon="-7.382281590253115">
        <ele>2141.4699999999998</ele>
        <time>2019-03-16T08:41:51Z</time>
      </trkpt>
      <trkpt lat="31.267153294757009" lon="-7.382194753736258">
        <ele>2141.4699999999998</ele>
        <time>2019-03-16T08:41:52Z</time>
      </trkpt>
      <trkpt lat="31.267156731337309" lon="-7.382098780944943">
        <ele>2141.9499999999998</ele>
        <time>2019-03-16T08:41:53Z</time>
      </trkpt>
      <trkpt lat="31.267197467386723" lon="-7.382012698799372">
        <ele>2142.4400000000001</ele>
        <time>2019-03-16T08:41:54Z</time>
      </trkpt>
      <trkpt lat="31.267267623916268" lon="-7.381948577240109">
        <ele>2143.4000000000001</ele>
        <time>2019-03-16T08:41:56Z</time>
      </trkpt>
      <trkpt lat="31.267350688576698" lon="-7.381898704916239">
        <ele>2144.3600000000001</ele>
        <time>2019-03-16T08:41:57Z</time>
      </trkpt>
      <trkpt lat="31.267437692731619" lon="-7.381846653297544">
        <ele>2144.8400000000001</ele>
        <time>2019-03-16T08:41:58Z</time>
      </trkpt>
      <trkpt lat="31.267520422115922" lon="-7.381785968318582">
        <ele>2145.8000000000002</ele>
        <time>2019-03-16T08:42:00Z</time>
      </trkpt>
      <trkpt lat="31.267583621665835" lon="-7.381707848981023">
        <ele>2146.7600000000002</ele>
        <time>2019-03-16T08:42:01Z</time>
      </trkpt>
      <trkpt lat="31.267622346058488" lon="-7.381612546741962">
        <ele>2147.7199999999998</ele>
        <time>2019-03-16T08:42:02Z</time>
      </trkpt>
      <trkpt lat="31.267644055187702" lon="-7.381505761295557">
        <ele>2148.1999999999998</ele>
        <time>2019-03-16T08:42:03Z</time>
      </trkpt>
      <trkpt lat="31.267661908641458" lon="-7.381393779069185">
        <ele>2149.1599999999999</ele>
        <time>2019-03-16T08:42:04Z</time>
      </trkpt>
      <trkpt lat="31.267686635255814" lon="-7.38127819262445">
        <ele>2150.1300000000001</ele>
        <time>2019-03-16T08:42:05Z</time>
      </trkpt>
      <trkpt lat="31.26772896386683" lon="-7.381168138235807">
        <ele>2150.6100000000001</ele>
        <time>2019-03-16T08:42:06Z</time>
      </trkpt>
      <trkpt lat="31.267794007435441" lon="-7.381073171272874">
        <ele>2151.5700000000002</ele>
        <time>2019-03-16T08:42:07Z</time>
      </trkpt>
      <trkpt lat="31.2678789999336" lon="-7.381002930924296">
        <ele>2152.0500000000002</ele>
        <time>2019-03-16T08:42:08Z</time>
      </trkpt>
      <trkpt lat="31.267974888905883" lon="-7.380956076085568">
        <ele>2153.0100000000002</ele>
        <time>2019-03-16T08:42:16Z</time>
      </trkpt>
      <trkpt lat="31.268073795363307" lon="-7.380916429683566">
        <ele>2153.4899999999998</ele>
        <time>2019-03-16T08:42:17Z</time>
      </trkpt>
      <trkpt lat="31.26817119307816" lon="-7.380867982283235">
        <ele>2154.4499999999998</ele>
        <time>2019-03-16T08:42:19Z</time>
      </trkpt>
      <trkpt lat="31.268268087878823" lon="-7.380808386951685">
        <ele>2154.9299999999998</ele>
        <time>2019-03-16T08:42:20Z</time>
      </trkpt>
      <trkpt lat="31.268357522785664" lon="-7.380739571526647">
        <ele>2155.8899999999999</ele>
        <time>2019-03-16T08:42:21Z</time>
      </trkpt>
      <trkpt lat="31.268443269655108" lon="-7.38066203892231">
        <ele>2157.3400000000001</ele>
        <time>2019-03-16T08:42:25Z</time>
      </trkpt>
      <trkpt lat="31.268518622964621" lon="-7.380578890442848">
        <ele>2157.8200000000002</ele>
        <time>2019-03-16T08:42:26Z</time>
      </trkpt>
      <trkpt lat="31.268587186932564" lon="-7.380484510213137">
        <ele>2158.3000000000002</ele>
        <time>2019-03-16T08:42:27Z</time>
      </trkpt>
      <trkpt lat="31.268639154732227" lon="-7.380381831899285">
        <ele>2158.7800000000002</ele>
        <time>2019-03-16T08:42:28Z</time>
      </trkpt>
      <trkpt lat="31.26868131570518" lon="-7.380272280424833">
        <ele>2158.7800000000002</ele>
        <time>2019-03-16T08:42:29Z</time>
      </trkpt>
      <trkpt lat="31.268714591860771" lon="-7.38016021437943">
        <ele>2159.7399999999998</ele>
        <time>2019-03-16T08:42:30Z</time>
      </trkpt>
      <trkpt lat="31.268821628764272" lon="-7.37983969040215">
        <ele>2160.2199999999998</ele>
        <time>2019-03-16T08:42:31Z</time>
      </trkpt>
      <trkpt lat="31.26887384802103" lon="-7.379752937704325">
        <ele>2161.1799999999998</ele>
        <time>2019-03-16T08:42:32Z</time>
      </trkpt>
      <trkpt lat="31.268943753093481" lon="-7.379682781174779">
        <ele>2161.6599999999999</ele>
        <time>2019-03-16T08:42:37Z</time>
      </trkpt>
      <trkpt lat="31.269029416143894" lon="-7.379641458392143">
        <ele>2163.5799999999999</ele>
        <time>2019-03-16T08:42:38Z</time>
      </trkpt>
      <trkpt lat="31.269120611250401" lon="-7.37963835708797">
        <ele>2163.5799999999999</ele>
        <time>2019-03-16T08:42:39Z</time>
      </trkpt>
      <trkpt lat="31.269208285957575" lon="-7.37967062741518">
        <ele>2164.0599999999999</ele>
        <time>2019-03-16T08:42:40Z</time>
      </trkpt>
      <trkpt lat="31.26928573474288" lon="-7.379735670983791">
        <ele>2165.0300000000002</ele>
        <time>2019-03-16T08:42:41Z</time>
      </trkpt>
      <trkpt lat="31.269341558218002" lon="-7.379823261871934">
        <ele>2165.5100000000002</ele>
        <time>2019-03-16T08:42:42Z</time>
      </trkpt>
      <trkpt lat="31.269387910142541" lon="-7.379923928529024">
        <ele>2168.8699999999999</ele>
        <time>2019-03-16T08:42:43Z</time>
      </trkpt>
      <trkpt lat="31.269698040559888" lon="-7.380598923191428">
        <ele>2169.3499999999999</ele>
        <time>2019-03-16T08:42:44Z</time>
      </trkpt>
      <trkpt lat="31.269773645326495" lon="-7.380695231258869">
        <ele>2169.8299999999999</ele>
        <time>2019-03-16T08:42:45Z</time>
      </trkpt>
      <trkpt lat="31.269867522642016" lon="-7.380771841853857">
        <ele>2169.8299999999999</ele>
        <time>2019-03-16T08:42:46Z</time>
      </trkpt>
      <trkpt lat="31.269975313916802" lon="-7.380824480205774">
        <ele>2170.3099999999999</ele>
        <time>2019-03-16T08:42:47Z</time>
      </trkpt>
      <trkpt lat="31.270091906189919" lon="-7.380865383893251">
        <ele>2171.27</ele>
        <time>2019-03-16T08:42:48Z</time>
      </trkpt>
      <trkpt lat="31.270549306645989" lon="-7.381035536527634">
        <ele>2174.6399999999999</ele>
        <time>2019-03-16T08:42:51Z</time>
      </trkpt>
      <trkpt lat="31.270660031586885" lon="-7.381051545962691">
        <ele>2175.1199999999999</ele>
        <time>2019-03-16T08:42:52Z</time>
      </trkpt>
      <trkpt lat="31.270770588889718" lon="-7.381026484072208">
        <ele>2175.5999999999999</ele>
        <time>2019-03-16T08:42:53Z</time>
      </trkpt>
      <trkpt lat="31.27087670378387" lon="-7.380961859598756">
        <ele>2176.5599999999999</ele>
        <time>2019-03-16T08:42:54Z</time>
      </trkpt>
      <trkpt lat="31.270970497280359" lon="-7.380880052223802">
        <ele>2177.04</ele>
        <time>2019-03-16T08:42:55Z</time>
      </trkpt>
      <trkpt lat="31.271067224442959" lon="-7.380791371688247">
        <ele>2177.52</ele>
        <time>2019-03-16T08:42:56Z</time>
      </trkpt>
      <trkpt lat="31.271600984036922" lon="-7.380413431674242">
        <ele>2178.48</ele>
        <time>2019-03-16T08:43:03Z</time>
      </trkpt>
      <trkpt lat="31.271684635430574" lon="-7.380315782502294">
        <ele>2182.3299999999999</ele>
        <time>2019-03-16T08:43:04Z</time>
      </trkpt>
      <trkpt lat="31.27175671979785" lon="-7.380200196057558">
        <ele>2183.29</ele>
        <time>2019-03-16T08:43:05Z</time>
      </trkpt>
      <trkpt lat="31.271815476939082" lon="-7.380072372034192">
        <ele>2183.77</ele>
        <time>2019-03-16T08:43:06Z</time>
      </trkpt>
      <trkpt lat="31.271868282929063" lon="-7.379934322088957">
        <ele>2184.73</ele>
        <time>2019-03-16T08:43:07Z</time>
      </trkpt>
      <trkpt lat="31.271913209930062" lon="-7.379790153354406">
        <ele>2185.21</ele>
        <time>2019-03-16T08:43:08Z</time>
      </trkpt>
      <trkpt lat="31.271950425580144" lon="-7.379643134772778">
        <ele>2185.6900000000001</ele>
        <time>2019-03-16T08:43:09Z</time>
      </trkpt>
      <trkpt lat="31.272117896005511" lon="-7.379089174792171">
        <ele>2186.6599999999999</ele>
        <time>2019-03-16T08:43:10Z</time>
      </trkpt>
      <trkpt lat="31.272189477458596" lon="-7.378975097090006">
        <ele>2188.0999999999999</ele>
        <time>2019-03-16T08:43:11Z</time>
      </trkpt>
      <trkpt lat="31.272275559604168" lon="-7.378879208117724">
        <ele>2189.0599999999999</ele>
        <time>2019-03-16T08:43:12Z</time>
      </trkpt>
      <trkpt lat="31.272370191290975" lon="-7.378806537017226">
        <ele>2190.98</ele>
        <time>2019-03-16T08:43:13Z</time>
      </trkpt>
      <trkpt lat="31.272473707795143" lon="-7.378761107102037">
        <ele>2191.46</ele>
        <time>2019-03-16T08:43:18Z</time>
      </trkpt>
      <trkpt lat="31.272580828517675" lon="-7.378750881180167">
        <ele>2191.46</ele>
        <time>2019-03-16T08:43:20Z</time>
      </trkpt>
      <trkpt lat="31.272688452154398" lon="-7.378774685785174">
        <ele>2191.46</ele>
        <time>2019-03-16T08:43:29Z</time>
      </trkpt>
      <trkpt lat="31.272799763828516" lon="-7.378818104043603">
        <ele>2191.9400000000001</ele>
        <time>2019-03-16T08:43:34Z</time>
      </trkpt>
      <trkpt lat="31.272914847359061" lon="-7.378868563100696">
        <ele>2191.9400000000001</ele>
        <time>2019-03-16T08:43:35Z</time>
      </trkpt>
      <trkpt lat="31.273357830941677" lon="-7.379070483148098">
        <ele>2195.79</ele>
        <time>2019-03-16T08:43:43Z</time>
      </trkpt>
      <trkpt lat="31.273458078503609" lon="-7.379078194499016">
        <ele>2200.1100000000001</ele>
        <time>2019-03-16T08:43:54Z</time>
      </trkpt>
      <trkpt lat="31.273552374914289" lon="-7.379042068496347">
        <ele>2201.0799999999999</ele>
        <time>2019-03-16T08:43:55Z</time>
      </trkpt>
      <trkpt lat="31.27363451756537" lon="-7.378966799005866">
        <ele>2208.29</ele>
        <time>2019-03-16T08:43:56Z</time>
      </trkpt>
      <trkpt lat="31.273700231686234" lon="-7.378859678283334">
        <ele>2209.73</ele>
        <time>2019-03-16T08:43:57Z</time>
      </trkpt>
      <trkpt lat="31.273761168122292" lon="-7.378734201192856">
        <ele>2211.1700000000001</ele>
        <time>2019-03-16T08:43:58Z</time>
      </trkpt>
      <trkpt lat="31.274534231051803" lon="-7.377285305410624">
        <ele>2213.0900000000001</ele>
        <time>2019-03-16T08:43:59Z</time>
      </trkpt>
      <trkpt lat="31.275001689791679" lon="-7.3765854164958">
        <ele>2214.0500000000002</ele>
        <time>2019-03-16T08:44:00Z</time>
      </trkpt>
      <trkpt lat="31.2751180306077" lon="-7.376475865021348">
        <ele>2215.0100000000002</ele>
        <time>2019-03-16T08:44:01Z</time>
      </trkpt>
      <trkpt lat="31.276171887293458" lon="-7.375898016616702">
        <ele>2216.46</ele>
        <time>2019-03-16T08:44:02Z</time>
      </trkpt>
      <trkpt lat="31.276303315535188" lon="-7.375864069908857">
        <ele>2216.9400000000001</ele>
        <time>2019-03-16T08:44:03Z</time>
      </trkpt>
      <trkpt lat="31.276437425985932" lon="-7.375848731026053">
        <ele>2217.9000000000001</ele>
        <time>2019-03-16T08:44:04Z</time>
      </trkpt>
      <trkpt lat="31.276571536436677" lon="-7.375853676348925">
        <ele>2218.3800000000001</ele>
        <time>2019-03-16T08:44:05Z</time>
      </trkpt>
      <trkpt lat="31.276706401258707" lon="-7.375875385478139">
        <ele>2218.8600000000001</ele>
        <time>2019-03-16T08:44:06Z</time>
      </trkpt>
      <trkpt lat="31.276835147291422" lon="-7.375903967767954">
        <ele>2219.3400000000001</ele>
        <time>2019-03-16T08:44:07Z</time>
      </trkpt>
      <trkpt lat="31.277069756761193" lon="-7.37598686479032">
        <ele>2219.8200000000002</ele>
        <time>2019-03-16T08:44:08Z</time>
      </trkpt>
      <trkpt lat="31.277169920504093" lon="-7.376061212271452">
        <ele>2219.8200000000002</ele>
        <time>2019-03-16T08:44:17Z</time>
      </trkpt>
      <trkpt lat="31.277253152802587" lon="-7.376160621643066">
        <ele>2219.8200000000002</ele>
        <time>2019-03-16T08:44:18Z</time>
      </trkpt>
      <trkpt lat="31.277412911877036" lon="-7.37637628801167">
        <ele>2219.8200000000002</ele>
        <time>2019-03-16T08:44:19Z</time>
      </trkpt>
      <trkpt lat="31.277506956830621" lon="-7.37645641900599">
        <ele>2219.8200000000002</ele>
        <time>2019-03-16T08:44:22Z</time>
      </trkpt>
      <trkpt lat="31.277613323181868" lon="-7.3765042796731">
        <ele>2219.8200000000002</ele>
        <time>2019-03-16T08:44:23Z</time>
      </trkpt>
      <trkpt lat="31.277729580178857" lon="-7.376519031822681">
        <ele>2221.2600000000002</ele>
        <time>2019-03-16T08:44:24Z</time>
      </trkpt>
      <trkpt lat="31.277848519384861" lon="-7.376523641869426">
        <ele>2221.2600000000002</ele>
        <time>2019-03-16T08:44:25Z</time>
      </trkpt>
      <trkpt lat="31.277961675077677" lon="-7.376548452302814">
        <ele>2220.3000000000002</ele>
        <time>2019-03-16T08:44:26Z</time>
      </trkpt>
      <trkpt lat="31.278063179925084" lon="-7.376606203615665">
        <ele>2220.3000000000002</ele>
        <time>2019-03-16T08:44:27Z</time>
      </trkpt>
      <trkpt lat="31.278158565983176" lon="-7.376693794503808">
        <ele>2219.8200000000002</ele>
        <time>2019-03-16T08:44:28Z</time>
      </trkpt>
      <trkpt lat="31.278251940384507" lon="-7.37679697573185">
        <ele>2219.8200000000002</ele>
        <time>2019-03-16T08:44:29Z</time>
      </trkpt>
      <trkpt lat="31.279015028849244" lon="-7.377685206010938">
        <ele>2219.8200000000002</ele>
        <time>2019-03-16T08:44:30Z</time>
      </trkpt>
      <trkpt lat="31.279076635837555" lon="-7.377825602889061">
        <ele>2220.3000000000002</ele>
        <time>2019-03-16T08:44:31Z</time>
      </trkpt>
      <trkpt lat="31.2791882827878" lon="-7.378099607303739">
        <ele>2220.3000000000002</ele>
        <time>2019-03-16T08:44:37Z</time>
      </trkpt>
      <trkpt lat="31.279253913089633" lon="-7.378225419670343">
        <ele>2220.3000000000002</ele>
        <time>2019-03-16T08:44:38Z</time>
      </trkpt>
      <trkpt lat="31.279333205893636" lon="-7.378335222601891">
        <ele>2220.3000000000002</ele>
        <time>2019-03-16T08:44:39Z</time>
      </trkpt>
      <trkpt lat="31.279762610793114" lon="-7.378551224246621">
        <ele>2220.3000000000002</ele>
        <time>2019-03-16T08:44:40Z</time>
      </trkpt>
      <trkpt lat="31.27988607622683" lon="-7.378531694412231">
        <ele>2220.3000000000002</ele>
        <time>2019-03-16T08:44:41Z</time>
      </trkpt>
      <trkpt lat="31.280008619651198" lon="-7.378492383286357">
        <ele>2220.7800000000002</ele>
        <time>2019-03-16T08:44:52Z</time>
      </trkpt>
      <trkpt lat="31.280122026801109" lon="-7.378453239798546">
        <ele>2220.7800000000002</ele>
        <time>2019-03-16T08:44:53Z</time>
      </trkpt>
      <trkpt lat="31.280238619074225" lon="-7.37843094393611">
        <ele>2220.7800000000002</ele>
        <time>2019-03-16T08:44:54Z</time>
      </trkpt>
      <trkpt lat="31.280354540795088" lon="-7.378440331667662">
        <ele>2220.7800000000002</ele>
        <time>2019-03-16T08:44:55Z</time>
      </trkpt>
      <trkpt lat="31.280467109754682" lon="-7.378486013039947">
        <ele>2220.3000000000002</ele>
        <time>2019-03-16T08:44:56Z</time>
      </trkpt>
      <trkpt lat="31.280579930171371" lon="-7.378547871485353">
        <ele>2220.7800000000002</ele>
        <time>2019-03-16T08:44:57Z</time>
      </trkpt>
      <trkpt lat="31.281182169914246" lon="-7.378866216167808">
        <ele>2220.3000000000002</ele>
        <time>2019-03-16T08:44:58Z</time>
      </trkpt>
      <trkpt lat="31.281287362799048" lon="-7.378951041027904">
        <ele>2220.3000000000002</ele>
        <time>2019-03-16T08:45:03Z</time>
      </trkpt>
      <trkpt lat="31.28136808052659" lon="-7.379059670493007">
        <ele>2219.8200000000002</ele>
        <time>2019-03-16T08:45:04Z</time>
      </trkpt>
      <trkpt lat="31.281419713050127" lon="-7.379185231402516">
        <ele>2219.8200000000002</ele>
        <time>2019-03-16T08:45:05Z</time>
      </trkpt>
      <trkpt lat="31.281448127701879" lon="-7.379318168386817">
        <ele>2219.8200000000002</ele>
        <time>2019-03-16T08:45:06Z</time>
      </trkpt>
      <trkpt lat="31.281466651707888" lon="-7.37944976426661">
        <ele>2219.8200000000002</ele>
        <time>2019-03-16T08:45:07Z</time>
      </trkpt>
      <trkpt lat="31.281491294503212" lon="-7.379573816433549">
        <ele>2218.8600000000001</ele>
        <time>2019-03-16T08:45:08Z</time>
      </trkpt>
      <trkpt lat="31.281530354171991" lon="-7.379683284088969">
        <ele>2218.3800000000001</ele>
        <time>2019-03-16T08:45:16Z</time>
      </trkpt>
      <trkpt lat="31.281591625884175" lon="-7.379775317385793">
        <ele>2217.9000000000001</ele>
        <time>2019-03-16T08:45:32Z</time>
      </trkpt>
      <trkpt lat="31.281671421602368" lon="-7.379842288792133">
        <ele>2216.9400000000001</ele>
        <time>2019-03-16T08:45:36Z</time>
      </trkpt>
      <trkpt lat="31.281766975298524" lon="-7.379893334582448">
        <ele>2216.46</ele>
        <time>2019-03-16T08:45:37Z</time>
      </trkpt>
      <trkpt lat="31.281870659440756" lon="-7.379940105602145">
        <ele>2215.98</ele>
        <time>2019-03-16T08:45:38Z</time>
      </trkpt>
      <trkpt lat="31.282187327742577" lon="-7.380091901868582">
        <ele>2212.1300000000001</ele>
        <time>2019-03-16T08:45:49Z</time>
      </trkpt>
      <trkpt lat="31.282283468171954" lon="-7.380172871053219">
        <ele>2211.6500000000001</ele>
        <time>2019-03-16T08:45:52Z</time>
      </trkpt>
      <trkpt lat="31.28235949203372" lon="-7.380281249061227">
        <ele>2211.1700000000001</ele>
        <time>2019-03-16T08:45:53Z</time>
      </trkpt>
      <trkpt lat="31.28241472877562" lon="-7.380407899618149">
        <ele>2210.6900000000001</ele>
        <time>2019-03-16T08:45:54Z</time>
      </trkpt>
      <trkpt lat="31.282458566129208" lon="-7.380544608458877">
        <ele>2209.73</ele>
        <time>2019-03-16T08:45:55Z</time>
      </trkpt>
      <trkpt lat="31.282497961074114" lon="-7.380683412775397">
        <ele>2209.25</ele>
        <time>2019-03-16T08:45:56Z</time>
      </trkpt>
      <trkpt lat="31.282772552222013" lon="-7.381576588377357">
        <ele>2208.77</ele>
        <time>2019-03-16T08:46:06Z</time>
      </trkpt>
      <trkpt lat="31.282777916640043" lon="-7.381706507876515">
        <ele>2208.29</ele>
        <time>2019-03-16T08:46:07Z</time>
      </trkpt>
      <trkpt lat="31.282759727910161" lon="-7.381842713803053">
        <ele>2207.8099999999999</ele>
        <time>2019-03-16T08:46:08Z</time>
      </trkpt>
      <trkpt lat="31.282727373763919" lon="-7.381983865052462">
        <ele>2207.8099999999999</ele>
        <time>2019-03-16T08:46:09Z</time>
      </trkpt>
      <trkpt lat="31.282688649371266" lon="-7.382128871977329">
        <ele>2207.8099999999999</ele>
        <time>2019-03-16T08:46:10Z</time>
      </trkpt>
      <trkpt lat="31.282665682956576" lon="-7.382278740406036">
        <ele>2206.8400000000001</ele>
        <time>2019-03-16T08:46:11Z</time>
      </trkpt>
      <trkpt lat="31.282668448984623" lon="-7.382432296872139">
        <ele>2206.3600000000001</ele>
        <time>2019-03-16T08:46:12Z</time>
      </trkpt>
      <trkpt lat="31.282690661028028" lon="-7.382586020976305">
        <ele>2207.3200000000002</ele>
        <time>2019-03-16T08:46:17Z</time>
      </trkpt>
      <trkpt lat="31.282707173377275" lon="-7.382737901061773">
        <ele>2210.21</ele>
        <time>2019-03-16T08:46:18Z</time>
      </trkpt>
      <trkpt lat="31.282702060416341" lon="-7.382881566882134">
        <ele>2211.1700000000001</ele>
        <time>2019-03-16T08:46:19Z</time>
      </trkpt>
      <trkpt lat="31.282684542238712" lon="-7.383009474724531">
        <ele>2213.0900000000001</ele>
        <time>2019-03-16T08:46:27Z</time>
      </trkpt>
      <trkpt lat="31.282906662672758" lon="-7.383240479975939">
        <ele>2216.46</ele>
        <time>2019-03-16T08:46:29Z</time>
      </trkpt>
      <trkpt lat="31.283078659325838" lon="-7.383126402273774">
        <ele>2216.9400000000001</ele>
        <time>2019-03-16T08:46:30Z</time>
      </trkpt>
      <trkpt lat="31.283964961767197" lon="-7.38233900628984">
        <ele>2216.9400000000001</ele>
        <time>2019-03-16T08:46:31Z</time>
      </trkpt>
      <trkpt lat="31.28442739136517" lon="-7.38177171908319">
        <ele>2216.9400000000001</ele>
        <time>2019-03-16T08:46:32Z</time>
      </trkpt>
      <trkpt lat="31.284526465460658" lon="-7.381681445986033">
        <ele>2216.9400000000001</ele>
        <time>2019-03-16T08:46:33Z</time>
      </trkpt>
      <trkpt lat="31.285285279154778" lon="-7.381248353049159">
        <ele>2216.46</ele>
        <time>2019-03-16T08:46:37Z</time>
      </trkpt>
      <trkpt lat="31.286064712330699" lon="-7.38103436306119">
        <ele>2216.46</ele>
        <time>2019-03-16T08:46:38Z</time>
      </trkpt>
      <trkpt lat="31.286123301833868" lon="-7.381039392203093">
        <ele>2215.98</ele>
        <time>2019-03-16T08:46:39Z</time>
      </trkpt>
      <trkpt lat="31.286186585202813" lon="-7.381058083847165">
        <ele>2215.5</ele>
        <time>2019-03-16T08:46:40Z</time>
      </trkpt>
      <trkpt lat="31.286252466961741" lon="-7.381091276183724">
        <ele>2215.5</ele>
        <time>2019-03-16T08:46:41Z</time>
      </trkpt>
      <trkpt lat="31.286318683996797" lon="-7.381139136850834">
        <ele>2215.0100000000002</ele>
        <time>2019-03-16T08:46:44Z</time>
      </trkpt>
      <trkpt lat="31.28638431429863" lon="-7.38119856454432">
        <ele>2214.5300000000002</ele>
        <time>2019-03-16T08:46:45Z</time>
      </trkpt>
      <trkpt lat="31.286444999277592" lon="-7.381265787407756">
        <ele>2214.0500000000002</ele>
        <time>2019-03-16T08:46:46Z</time>
      </trkpt>
      <trkpt lat="31.286499816924334" lon="-7.38134172745049">
        <ele>2213.0900000000001</ele>
        <time>2019-03-16T08:46:57Z</time>
      </trkpt>
      <trkpt lat="31.286540636792779" lon="-7.381428899243474">
        <ele>2212.6100000000001</ele>
        <time>2019-03-16T08:47:01Z</time>
      </trkpt>
      <trkpt lat="31.286563519388437" lon="-7.381524369120598">
        <ele>2205.4000000000001</ele>
        <time>2019-03-16T08:47:02Z</time>
      </trkpt>
      <trkpt lat="31.286566285416484" lon="-7.381624951958656">
        <ele>2204.4400000000001</ele>
        <time>2019-03-16T08:47:03Z</time>
      </trkpt>
      <trkpt lat="31.286543402820826" lon="-7.381726372987032">
        <ele>2203.96</ele>
        <time>2019-03-16T08:47:04Z</time>
      </trkpt>
      <trkpt lat="31.286492943763733" lon="-7.381822178140283">
        <ele>2201.5599999999999</ele>
        <time>2019-03-16T08:47:05Z</time>
      </trkpt>
      <trkpt lat="31.286424212157726" lon="-7.381918821483851">
        <ele>2200.5900000000001</ele>
        <time>2019-03-16T08:47:11Z</time>
      </trkpt>
      <trkpt lat="31.286348523572087" lon="-7.382020326331258">
        <ele>2199.6300000000001</ele>
        <time>2019-03-16T08:47:12Z</time>
      </trkpt>
      <trkpt lat="31.285489462316036" lon="-7.383139478042722">
        <ele>2198.1900000000001</ele>
        <time>2019-03-16T08:47:13Z</time>
      </trkpt>
      <trkpt lat="31.285419054329395" lon="-7.383284065872431">
        <ele>2197.23</ele>
        <time>2019-03-16T08:47:14Z</time>
      </trkpt>
      <trkpt lat="31.28536113537848" lon="-7.383436365053058">
        <ele>2196.27</ele>
        <time>2019-03-16T08:47:15Z</time>
      </trkpt>
      <trkpt lat="31.2852375023067" lon="-7.383869709447026">
        <ele>2195.79</ele>
        <time>2019-03-16T08:47:16Z</time>
      </trkpt>
      <trkpt lat="31.285231886431575" lon="-7.383988900110126">
        <ele>2195.3099999999999</ele>
        <time>2019-03-16T08:47:17Z</time>
      </trkpt>
      <trkpt lat="31.285255858674645" lon="-7.384098786860704">
        <ele>2194.3499999999999</ele>
        <time>2019-03-16T08:47:18Z</time>
      </trkpt>
      <trkpt lat="31.28530883230269" lon="-7.384192664176226">
        <ele>2193.8699999999999</ele>
        <time>2019-03-16T08:47:19Z</time>
      </trkpt>
      <trkpt lat="31.285386784002185" lon="-7.384252510964871">
        <ele>2187.6199999999999</ele>
        <time>2019-03-16T08:47:20Z</time>
      </trkpt>
      <trkpt lat="31.285482924431562" lon="-7.384267766028643">
        <ele>2186.6599999999999</ele>
        <time>2019-03-16T08:47:21Z</time>
      </trkpt>
      <trkpt lat="31.285581579431891" lon="-7.384240105748177">
        <ele>2185.6900000000001</ele>
        <time>2019-03-16T08:47:22Z</time>
      </trkpt>
      <trkpt lat="31.285673528909683" lon="-7.384167853742838">
        <ele>2184.73</ele>
        <time>2019-03-16T08:47:32Z</time>
      </trkpt>
      <trkpt lat="31.285758605226874" lon="-7.384063079953194">
        <ele>2184.25</ele>
        <time>2019-03-16T08:47:40Z</time>
      </trkpt>
      <trkpt lat="31.285838233307004" lon="-7.383943218737841">
        <ele>2173.6799999999998</ele>
        <time>2019-03-16T08:47:41Z</time>
      </trkpt>
      <trkpt lat="31.286372411996126" lon="-7.383225644007325">
        <ele>2172.7199999999998</ele>
        <time>2019-03-16T08:47:43Z</time>
      </trkpt>
      <trkpt lat="31.286477101966739" lon="-7.383137131109834">
        <ele>2171.7600000000002</ele>
        <time>2019-03-16T08:47:44Z</time>
      </trkpt>
      <trkpt lat="31.286595035344362" lon="-7.383066890761256">
        <ele>2171.27</ele>
        <time>2019-03-16T08:47:45Z</time>
      </trkpt>
      <trkpt lat="31.286721685901284" lon="-7.383010815829039">
        <ele>2170.3099999999999</ele>
        <time>2019-03-16T08:47:46Z</time>
      </trkpt>
      <trkpt lat="31.286853533238173" lon="-7.382960105314851">
        <ele>2169.8299999999999</ele>
        <time>2019-03-16T08:47:49Z</time>
      </trkpt>
      <trkpt lat="31.288315253332257" lon="-7.382212607190013">
        <ele>2168.8699999999999</ele>
        <time>2019-03-16T08:47:51Z</time>
      </trkpt>
      <trkpt lat="31.28844098187983" lon="-7.382165417075157">
        <ele>2163.0999999999999</ele>
        <time>2019-03-16T08:47:52Z</time>
      </trkpt>
      <trkpt lat="31.288571152836084" lon="-7.382148066535592">
        <ele>2162.6199999999999</ele>
        <time>2019-03-16T08:47:59Z</time>
      </trkpt>
      <trkpt lat="31.288704173639417" lon="-7.382161393761635">
        <ele>2161.6599999999999</ele>
        <time>2019-03-16T08:48:00Z</time>
      </trkpt>
      <trkpt lat="31.288839625194669" lon="-7.382203638553619">
        <ele>2160.6999999999998</ele>
        <time>2019-03-16T08:48:01Z</time>
      </trkpt>
      <trkpt lat="31.288974825292826" lon="-7.382276644930244">
        <ele>2159.7399999999998</ele>
        <time>2019-03-16T08:48:02Z</time>
      </trkpt>
      <trkpt lat="31.289110612124205" lon="-7.382375635206699">
        <ele>2158.7800000000002</ele>
        <time>2019-03-16T08:48:03Z</time>
      </trkpt>
      <trkpt lat="31.289719389751554" lon="-7.382838651537895">
        <ele>2152.0500000000002</ele>
        <time>2019-03-16T08:48:06Z</time>
      </trkpt>
      <trkpt lat="31.289824498817325" lon="-7.382869916036725">
        <ele>2139.5500000000002</ele>
        <time>2019-03-16T08:48:07Z</time>
      </trkpt>
      <trkpt lat="31.289931451901793" lon="-7.382851894944906">
        <ele>2135.23</ele>
        <time>2019-03-16T08:48:08Z</time>
      </trkpt>
      <trkpt lat="31.29002901725471" lon="-7.382783917710185">
        <ele>2134.7399999999998</ele>
        <time>2019-03-16T08:48:09Z</time>
      </trkpt>
      <trkpt lat="31.290115350857377" lon="-7.382677467539907">
        <ele>2133.7800000000002</ele>
        <time>2019-03-16T08:48:10Z</time>
      </trkpt>
      <trkpt lat="31.290197912603617" lon="-7.382550984621048">
        <ele>2125.1300000000001</ele>
        <time>2019-03-16T08:48:11Z</time>
      </trkpt>
      <trkpt lat="31.291033504530787" lon="-7.381300237029791">
        <ele>2123.6900000000001</ele>
        <time>2019-03-16T08:48:18Z</time>
      </trkpt>
      <trkpt lat="31.292996797710657" lon="-7.378409989178181">
        <ele>2122.73</ele>
        <time>2019-03-16T08:48:22Z</time>
      </trkpt>
      <trkpt lat="31.293484205380082" lon="-7.377721667289734">
        <ele>2121.77</ele>
        <time>2019-03-16T08:48:23Z</time>
      </trkpt>
      <trkpt lat="31.293620243668556" lon="-7.377586970105767">
        <ele>2121.29</ele>
        <time>2019-03-16T08:48:24Z</time>
      </trkpt>
      <trkpt lat="31.293771453201771" lon="-7.377461576834321">
        <ele>2120.8099999999999</ele>
        <time>2019-03-16T08:48:25Z</time>
      </trkpt>
      <trkpt lat="31.295682610943913" lon="-7.375983344390988">
        <ele>2115.52</ele>
        <time>2019-03-16T08:48:26Z</time>
      </trkpt>
      <trkpt lat="31.29612660035491" lon="-7.375548491254449">
        <ele>2115.04</ele>
        <time>2019-03-16T08:48:27Z</time>
      </trkpt>
      <trkpt lat="31.296249646693468" lon="-7.375368783250451">
        <ele>2114.0799999999999</ele>
        <time>2019-03-16T08:48:28Z</time>
      </trkpt>
      <trkpt lat="31.296358779072762" lon="-7.375170383602381">
        <ele>2113.5999999999999</ele>
        <time>2019-03-16T08:48:29Z</time>
      </trkpt>
      <trkpt lat="31.29645056091249" lon="-7.374955723062158">
        <ele>2113.1199999999999</ele>
        <time>2019-03-16T08:48:30Z</time>
      </trkpt>
      <trkpt lat="31.296532955020666" lon="-7.37473402172327">
        <ele>2112.1500000000001</ele>
        <time>2019-03-16T08:48:34Z</time>
      </trkpt>
      <trkpt lat="31.297428393736482" lon="-7.372661093249917">
        <ele>2111.6700000000001</ele>
        <time>2019-03-16T08:48:35Z</time>
      </trkpt>
      <trkpt lat="31.29752847366035" lon="-7.37249999307096">
        <ele>2107.8299999999999</ele>
        <time>2019-03-16T08:48:36Z</time>
      </trkpt>
      <trkpt lat="31.297647077590227" lon="-7.372351717203856">
        <ele>2106.8699999999999</ele>
        <time>2019-03-16T08:48:37Z</time>
      </trkpt>
      <trkpt lat="31.297785630449653" lon="-7.372215846553445">
        <ele>2106.3899999999999</ele>
        <time>2019-03-16T08:48:38Z</time>
      </trkpt>
      <trkpt lat="31.297942036762834" lon="-7.372093051671982">
        <ele>2100.6199999999999</ele>
        <time>2019-03-16T08:48:39Z</time>
      </trkpt>
      <trkpt lat="31.29811093211174" lon="-7.371985176578164">
        <ele>2099.1799999999998</ele>
        <time>2019-03-16T08:48:40Z</time>
      </trkpt>
      <trkpt lat="31.298290388658643" lon="-7.371882079169154">
        <ele>2098.6999999999998</ele>
        <time>2019-03-16T08:48:43Z</time>
      </trkpt>
      <trkpt lat="31.299153137952089" lon="-7.371387127786875">
        <ele>2098.21</ele>
        <time>2019-03-16T08:48:44Z</time>
      </trkpt>
      <trkpt lat="31.299324296414852" lon="-7.371330130845308">
        <ele>2097.73</ele>
        <time>2019-03-16T08:48:45Z</time>
      </trkpt>
      <trkpt lat="31.299506602808833" lon="-7.371294004842639">
        <ele>2097.73</ele>
        <time>2019-03-16T08:48:46Z</time>
      </trkpt>
      <trkpt lat="31.301147444173694" lon="-7.371120499446988">
        <ele>2097.25</ele>
        <time>2019-03-16T08:48:47Z</time>
      </trkpt>
      <trkpt lat="31.301465453580022" lon="-7.371124690398574">
        <ele>2096.77</ele>
        <time>2019-03-16T08:48:48Z</time>
      </trkpt>
      <trkpt lat="31.301604760810733" lon="-7.371167941018939">
        <ele>2096.29</ele>
        <time>2019-03-16T08:48:52Z</time>
      </trkpt>
      <trkpt lat="31.301735686138272" lon="-7.371242707595229">
        <ele>2095.8099999999999</ele>
        <time>2019-03-16T08:48:53Z</time>
      </trkpt>
      <trkpt lat="31.30186015740037" lon="-7.37134731374681">
        <ele>2095.3299999999999</ele>
        <time>2019-03-16T08:48:54Z</time>
      </trkpt>
      <trkpt lat="31.301985802128911" lon="-7.371466755867004">
        <ele>2094.3699999999999</ele>
        <time>2019-03-16T08:48:55Z</time>
      </trkpt>
      <trkpt lat="31.302539678290486" lon="-7.371930694207549">
        <ele>2093.8899999999999</ele>
        <time>2019-03-16T08:48:56Z</time>
      </trkpt>
      <trkpt lat="31.302695665508509" lon="-7.372007975354791">
        <ele>2092.9299999999998</ele>
        <time>2019-03-16T08:48:57Z</time>
      </trkpt>
      <trkpt lat="31.302865482866764" lon="-7.372060446068645">
        <ele>2086.1999999999998</ele>
        <time>2019-03-16T08:49:04Z</time>
      </trkpt>
      <trkpt lat="31.303044436499476" lon="-7.37209296785295">
        <ele>2084.2800000000002</ele>
        <time>2019-03-16T08:49:05Z</time>
      </trkpt>
      <trkpt lat="31.303228670731187" lon="-7.372112078592181">
        <ele>2084.2800000000002</ele>
        <time>2019-03-16T08:49:09Z</time>
      </trkpt>
      <trkpt lat="31.303790593519807" lon="-7.372177122160792">
        <ele>2084.2800000000002</ele>
        <time>2019-03-16T08:49:10Z</time>
      </trkpt>
      <trkpt lat="31.303978767246008" lon="-7.372233280912042">
        <ele>2084.7600000000002</ele>
        <time>2019-03-16T08:49:11Z</time>
      </trkpt>
      <trkpt lat="31.304166270419955" lon="-7.372311484068632">
        <ele>2084.7600000000002</ele>
        <time>2019-03-16T08:49:12Z</time>
      </trkpt>
      <trkpt lat="31.306249676272273" lon="-7.373378416523337">
        <ele>2090.04</ele>
        <time>2019-03-16T08:49:13Z</time>
      </trkpt>
      <trkpt lat="31.307000359520316" lon="-7.3736463021487">
        <ele>2091</ele>
        <time>2019-03-16T08:49:14Z</time>
      </trkpt>
      <trkpt lat="31.307169422507286" lon="-7.373652085661888">
        <ele>2092.4499999999998</ele>
        <time>2019-03-16T08:49:15Z</time>
      </trkpt>
      <trkpt lat="31.307329433038831" lon="-7.373612271621823">
        <ele>2093.4099999999999</ele>
        <time>2019-03-16T08:49:16Z</time>
      </trkpt>
      <trkpt lat="31.307476367801428" lon="-7.373532308265567">
        <ele>2094.8499999999999</ele>
        <time>2019-03-16T08:49:17Z</time>
      </trkpt>
      <trkpt lat="31.307617519050837" lon="-7.373434491455555">
        <ele>2096.29</ele>
        <time>2019-03-16T08:49:22Z</time>
      </trkpt>
      <trkpt lat="31.3085035700351" lon="-7.372895535081625">
        <ele>2097.25</ele>
        <time>2019-03-16T08:49:23Z</time>
      </trkpt>
      <trkpt lat="31.308665759861469" lon="-7.372852703556418">
        <ele>2097.73</ele>
        <time>2019-03-16T08:49:24Z</time>
      </trkpt>
      <trkpt lat="31.308831553906202" lon="-7.372845327481628">
        <ele>2098.6999999999998</ele>
        <time>2019-03-16T08:49:25Z</time>
      </trkpt>
      <trkpt lat="31.308994330465794" lon="-7.372877094894648">
        <ele>2099.1799999999998</ele>
        <time>2019-03-16T08:49:26Z</time>
      </trkpt>
      <trkpt lat="31.30915199406445" lon="-7.372934594750404">
        <ele>2099.6599999999999</ele>
        <time>2019-03-16T08:49:27Z</time>
      </trkpt>
      <trkpt lat="31.309308484196663" lon="-7.372995782643557">
        <ele>2100.1399999999999</ele>
        <time>2019-03-16T08:49:28Z</time>
      </trkpt>
      <trkpt lat="31.309461621567607" lon="-7.373040961101651">
        <ele>2097.25</ele>
        <time>2019-03-16T08:49:29Z</time>
      </trkpt>
      <trkpt lat="31.309605790302157" lon="-7.373051857575774">
        <ele>2090.04</ele>
        <time>2019-03-16T08:49:36Z</time>
      </trkpt>
      <trkpt lat="31.309734871610999" lon="-7.373020676895976">
        <ele>2089.0799999999999</ele>
        <time>2019-03-16T08:49:37Z</time>
      </trkpt>
      <trkpt lat="31.309845596551895" lon="-7.372945239767432">
        <ele>2087.6399999999999</ele>
        <time>2019-03-16T08:49:38Z</time>
      </trkpt>
      <trkpt lat="31.309942239895463" lon="-7.372837029397488">
        <ele>2086.6799999999998</ele>
        <time>2019-03-16T08:49:39Z</time>
      </trkpt>
      <trkpt lat="31.310032093897462" lon="-7.372714905068278">
        <ele>2086.1999999999998</ele>
        <time>2019-03-16T08:49:40Z</time>
      </trkpt>
      <trkpt lat="31.311139762401581" lon="-7.371362317353487">
        <ele>2085.2399999999998</ele>
        <time>2019-03-16T08:49:41Z</time>
      </trkpt>
      <trkpt lat="31.311977785080671" lon="-7.37032170407474">
        <ele>2083.3099999999999</ele>
        <time>2019-03-16T08:49:42Z</time>
      </trkpt>
      <trkpt lat="31.312070824205875" lon="-7.370259342715144">
        <ele>2081.8699999999999</ele>
        <time>2019-03-16T08:49:43Z</time>
      </trkpt>
      <trkpt lat="31.312273917719722" lon="-7.370260935276747">
        <ele>2080.9099999999999</ele>
        <time>2019-03-16T08:49:44Z</time>
      </trkpt>
      <trkpt lat="31.312369471415877" lon="-7.370316507294774">
        <ele>2072.7399999999998</ele>
        <time>2019-03-16T08:49:47Z</time>
      </trkpt>
      <trkpt lat="31.31245706230402" lon="-7.370397560298443">
        <ele>2071.7800000000002</ele>
        <time>2019-03-16T08:49:48Z</time>
      </trkpt>
      <trkpt lat="31.312540043145418" lon="-7.370493868365884">
        <ele>2071.3000000000002</ele>
        <time>2019-03-16T08:49:49Z</time>
      </trkpt>
      <trkpt lat="31.31281279027462" lon="-7.370838448405266">
        <ele>2070.8200000000002</ele>
        <time>2019-03-16T08:49:51Z</time>
      </trkpt>
      <trkpt lat="31.312994761392474" lon="-7.371130557730794">
        <ele>2070.3400000000001</ele>
        <time>2019-03-16T08:49:52Z</time>
      </trkpt>
      <trkpt lat="31.313072545453906" lon="-7.371304063126445">
        <ele>2069.3800000000001</ele>
        <time>2019-03-16T08:49:53Z</time>
      </trkpt>
      <trkpt lat="31.313582500442863" lon="-7.372555145993829">
        <ele>2068.8899999999999</ele>
        <time>2019-03-16T08:49:54Z</time>
      </trkpt>
      <trkpt lat="31.313611753284931" lon="-7.372711468487978">
        <ele>2068.8899999999999</ele>
        <time>2019-03-16T08:49:55Z</time>
      </trkpt>
      <trkpt lat="31.313613345846534" lon="-7.37287282012403">
        <ele>2068.4099999999999</ele>
        <time>2019-03-16T08:49:56Z</time>
      </trkpt>
      <trkpt lat="31.31359213963151" lon="-7.373037943616509">
        <ele>2067.9299999999998</ele>
        <time>2019-03-16T08:49:57Z</time>
      </trkpt>
      <trkpt lat="31.31355794146657" lon="-7.373206336051226">
        <ele>2067.4499999999998</ele>
        <time>2019-03-16T08:49:58Z</time>
      </trkpt>
      <trkpt lat="31.313476469367743" lon="-7.373684272170067">
        <ele>2065.5300000000002</ele>
        <time>2019-03-16T08:49:59Z</time>
      </trkpt>
      <trkpt lat="31.313491808250546" lon="-7.373811258003116">
        <ele>2066.0100000000002</ele>
        <time>2019-03-16T08:50:00Z</time>
      </trkpt>
      <trkpt lat="31.313543105497956" lon="-7.373920055106282">
        <ele>2066.4899999999998</ele>
        <time>2019-03-16T08:50:05Z</time>
      </trkpt>
      <trkpt lat="31.313628852367401" lon="-7.374004712328315">
        <ele>2066.4899999999998</ele>
        <time>2019-03-16T08:50:06Z</time>
      </trkpt>
      <trkpt lat="31.313734464347363" lon="-7.374072102829814">
        <ele>2066.4899999999998</ele>
        <time>2019-03-16T08:50:07Z</time>
      </trkpt>
      <trkpt lat="31.313846781849861" lon="-7.374140415340662">
        <ele>2066.0100000000002</ele>
        <time>2019-03-16T08:50:08Z</time>
      </trkpt>
      <trkpt lat="31.314900470897555" lon="-7.374835358932614">
        <ele>2065.5300000000002</ele>
        <time>2019-03-16T08:50:09Z</time>
      </trkpt>
      <trkpt lat="31.315437834709883" lon="-7.37520407885313">
        <ele>2065.0500000000002</ele>
        <time>2019-03-16T08:50:10Z</time>
      </trkpt>
      <trkpt lat="31.315533807501197" lon="-7.375304158776999">
        <ele>2064.0900000000001</ele>
        <time>2019-03-16T08:50:11Z</time>
      </trkpt>
      <trkpt lat="31.315606478601694" lon="-7.375420080497861">
        <ele>2063.1300000000001</ele>
        <time>2019-03-16T08:50:12Z</time>
      </trkpt>
      <trkpt lat="31.315651573240757" lon="-7.375551676377654">
        <ele>2059.7600000000002</ele>
        <time>2019-03-16T08:50:13Z</time>
      </trkpt>
      <trkpt lat="31.315661380067468" lon="-7.375695845112205">
        <ele>2059.2800000000002</ele>
        <time>2019-03-16T08:50:14Z</time>
      </trkpt>
      <trkpt lat="31.315636821091175" lon="-7.375845378264785">
        <ele>2058.8000000000002</ele>
        <time>2019-03-16T08:50:16Z</time>
      </trkpt>
      <trkpt lat="31.315573872998357" lon="-7.375989463180304">
        <ele>2058.3200000000002</ele>
        <time>2019-03-16T08:50:17Z</time>
      </trkpt>
      <trkpt lat="31.315485276281834" lon="-7.376121813431382">
        <ele>2057.8400000000001</ele>
        <time>2019-03-16T08:50:18Z</time>
      </trkpt>
      <trkpt lat="31.315383855253458" lon="-7.376253828406334">
        <ele>2057.8400000000001</ele>
        <time>2019-03-16T08:50:19Z</time>
      </trkpt>
      <trkpt lat="31.315017314627767" lon="-7.376746516674757">
        <ele>2057.3600000000001</ele>
        <time>2019-03-16T08:50:20Z</time>
      </trkpt>
      <trkpt lat="31.314977752044797" lon="-7.376861516386271">
        <ele>2056.8800000000001</ele>
        <time>2019-03-16T08:50:22Z</time>
      </trkpt>
      <trkpt lat="31.314980266615748" lon="-7.376974336802959">
        <ele>2056.8800000000001</ele>
        <time>2019-03-16T08:50:23Z</time>
      </trkpt>
      <trkpt lat="31.315019661560655" lon="-7.377082211896777">
        <ele>2056.4000000000001</ele>
        <time>2019-03-16T08:50:24Z</time>
      </trkpt>
      <trkpt lat="31.31509518250823" lon="-7.377169048413634">
        <ele>2056.4000000000001</ele>
        <time>2019-03-16T08:50:25Z</time>
      </trkpt>
      <trkpt lat="31.315194005146623" lon="-7.377234008163214">
        <ele>2056.4000000000001</ele>
        <time>2019-03-16T08:50:26Z</time>
      </trkpt>
      <trkpt lat="31.315306155011058" lon="-7.377289244905114">
        <ele>2055.9200000000001</ele>
        <time>2019-03-16T08:50:30Z</time>
      </trkpt>
      <trkpt lat="31.315652746707201" lon="-7.377492422237992">
        <ele>2054.4699999999998</ele>
        <time>2019-03-16T08:50:31Z</time>
      </trkpt>
      <trkpt lat="31.315751066431403" lon="-7.377591747790575">
        <ele>2053.9899999999998</ele>
        <time>2019-03-16T08:50:32Z</time>
      </trkpt>
      <trkpt lat="31.315829521045089" lon="-7.37771856598556">
        <ele>2053.9899999999998</ele>
        <time>2019-03-16T08:50:33Z</time>
      </trkpt>
      <trkpt lat="31.31588920019567" lon="-7.377868015319109">
        <ele>2053.5100000000002</ele>
        <time>2019-03-16T08:50:34Z</time>
      </trkpt>
      <trkpt lat="31.315938150510192" lon="-7.378036323934794">
        <ele>2053.5100000000002</ele>
        <time>2019-03-16T08:50:35Z</time>
      </trkpt>
      <trkpt lat="31.315983915701509" lon="-7.378218965604901">
        <ele>2053.5100000000002</ele>
        <time>2019-03-16T08:50:36Z</time>
      </trkpt>
      <trkpt lat="31.316183572635055" lon="-7.378907036036253">
        <ele>2052.0700000000002</ele>
        <time>2019-03-16T08:50:41Z</time>
      </trkpt>
      <trkpt lat="31.316263787448406" lon="-7.379029747098684">
        <ele>2051.1100000000001</ele>
        <time>2019-03-16T08:50:42Z</time>
      </trkpt>
      <trkpt lat="31.316371075809002" lon="-7.379122953861952">
        <ele>2046.3</ele>
        <time>2019-03-16T08:50:43Z</time>
      </trkpt>
      <trkpt lat="31.316502001136541" lon="-7.379181627184153">
        <ele>2045.3399999999999</ele>
        <time>2019-03-16T08:50:46Z</time>
      </trkpt>
      <trkpt lat="31.316648181527853" lon="-7.379211131483316">
        <ele>2044.8599999999999</ele>
        <time>2019-03-16T08:50:47Z</time>
      </trkpt>
      <trkpt lat="31.316805761307478" lon="-7.37922789528966">
        <ele>2043.9000000000001</ele>
        <time>2019-03-16T08:50:49Z</time>
      </trkpt>
      <trkpt lat="31.31783346645534" lon="-7.379247760400176">
        <ele>2042.9400000000001</ele>
        <time>2019-03-16T08:50:50Z</time>
      </trkpt>
      <trkpt lat="31.317953327670693" lon="-7.379189589992166">
        <ele>2041.98</ele>
        <time>2019-03-16T08:50:51Z</time>
      </trkpt>
      <trkpt lat="31.318422965705395" lon="-7.378949783742428">
        <ele>2041.02</ele>
        <time>2019-03-16T08:50:52Z</time>
      </trkpt>
      <trkpt lat="31.318527990952134" lon="-7.378944251686335">
        <ele>2040.54</ele>
        <time>2019-03-16T08:50:53Z</time>
      </trkpt>
      <trkpt lat="31.318625221028924" lon="-7.37897627055645">
        <ele>2039.5699999999999</ele>
        <time>2019-03-16T08:50:54Z</time>
      </trkpt>
      <trkpt lat="31.318715997040272" lon="-7.379031255841255">
        <ele>2033.8099999999999</ele>
        <time>2019-03-16T08:50:55Z</time>
      </trkpt>
      <trkpt lat="31.318800067529082" lon="-7.379081631079316">
        <ele>2033.3299999999999</ele>
        <time>2019-03-16T08:50:56Z</time>
      </trkpt>
      <trkpt lat="31.318888999521732" lon="-7.37910526804626">
        <ele>2032.8399999999999</ele>
        <time>2019-03-16T08:50:57Z</time>
      </trkpt>
      <trkpt lat="31.318981871008873" lon="-7.379090515896678">
        <ele>2032.3599999999999</ele>
        <time>2019-03-16T08:50:58Z</time>
      </trkpt>
      <trkpt lat="31.319078095257282" lon="-7.379045002162457">
        <ele>2031.8800000000001</ele>
        <time>2019-03-16T08:50:59Z</time>
      </trkpt>
      <trkpt lat="31.319178259000182" lon="-7.378981970250607">
        <ele>2031.4000000000001</ele>
        <time>2019-03-16T08:51:00Z</time>
      </trkpt>
      <trkpt lat="31.319665666669607" lon="-7.378666559234262">
        <ele>2030.9200000000001</ele>
        <time>2019-03-16T08:51:08Z</time>
      </trkpt>
      <trkpt lat="31.319710426032543" lon="-7.37860101275146">
        <ele>2030.4400000000001</ele>
        <time>2019-03-16T08:51:16Z</time>
      </trkpt>
      <trkpt lat="31.319721741601825" lon="-7.378525156527758">
        <ele>2028.52</ele>
        <time>2019-03-16T08:51:17Z</time>
      </trkpt>
      <trkpt lat="31.319698859006166" lon="-7.378452401608229">
        <ele>2028.52</ele>
        <time>2019-03-16T08:51:18Z</time>
      </trkpt>
      <trkpt lat="31.319643706083298" lon="-7.378401439636946">
        <ele>2028.52</ele>
        <time>2019-03-16T08:51:19Z</time>
      </trkpt>
      <trkpt lat="31.319565251469612" lon="-7.378384592011571">
        <ele>2028.04</ele>
        <time>2019-03-16T08:51:20Z</time>
      </trkpt>
      <trkpt lat="31.319474224001169" lon="-7.378395991399884">
        <ele>2028.04</ele>
        <time>2019-03-16T08:51:21Z</time>
      </trkpt>
      <trkpt lat="31.319374730810523" lon="-7.378419293090701">
        <ele>2027.5599999999999</ele>
        <time>2019-03-16T08:51:22Z</time>
      </trkpt>
      <trkpt lat="31.318573085591197" lon="-7.378545943647623">
        <ele>2027.0799999999999</ele>
        <time>2019-03-16T08:51:23Z</time>
      </trkpt>
      <trkpt lat="31.318491697311401" lon="-7.378519708290696">
        <ele>2026.5999999999999</ele>
        <time>2019-03-16T08:51:24Z</time>
      </trkpt>
      <trkpt lat="31.318428665399551" lon="-7.378461956977844">
        <ele>2026.1199999999999</ele>
        <time>2019-03-16T08:51:25Z</time>
      </trkpt>
      <trkpt lat="31.318398742005229" lon="-7.37837428227067">
        <ele>2024.6700000000001</ele>
        <time>2019-03-16T08:51:26Z</time>
      </trkpt>
      <trkpt lat="31.318404860794544" lon="-7.378272442147136">
        <ele>2024.1900000000001</ele>
        <time>2019-03-16T08:51:27Z</time>
      </trkpt>
      <trkpt lat="31.318447524681687" lon="-7.378185437992215">
        <ele>2023.23</ele>
        <time>2019-03-16T08:51:38Z</time>
      </trkpt>
      <trkpt lat="31.31852044723928" lon="-7.37812165170908">
        <ele>2021.3099999999999</ele>
        <time>2019-03-16T08:51:42Z</time>
      </trkpt>
      <trkpt lat="31.318616587668657" lon="-7.37810262478888">
        <ele>2020.3499999999999</ele>
        <time>2019-03-16T08:51:43Z</time>
      </trkpt>
      <trkpt lat="31.318723624572158" lon="-7.378098014742136">
        <ele>2019.3900000000001</ele>
        <time>2019-03-16T08:51:44Z</time>
      </trkpt>
      <trkpt lat="31.319068539887667" lon="-7.378033474087715">
        <ele>2018.4300000000001</ele>
        <time>2019-03-16T08:51:46Z</time>
      </trkpt>
      <trkpt lat="31.319179097190499" lon="-7.377960383892059">
        <ele>2017.46</ele>
        <time>2019-03-16T08:51:47Z</time>
      </trkpt>
      <trkpt lat="31.319284960627556" lon="-7.377866338938475">
        <ele>2016.5</ele>
        <time>2019-03-16T08:51:48Z</time>
      </trkpt>
      <trkpt lat="31.319467769935727" lon="-7.377678416669369">
        <ele>2016.02</ele>
        <time>2019-03-16T08:51:49Z</time>
      </trkpt>
      <trkpt lat="31.319537088274956" lon="-7.377576073631644">
        <ele>2015.0599999999999</ele>
        <time>2019-03-16T08:51:50Z</time>
      </trkpt>
      <trkpt lat="31.319576986134052" lon="-7.377457553520799">
        <ele>2015.0599999999999</ele>
        <time>2019-03-16T08:51:51Z</time>
      </trkpt>
      <trkpt lat="31.319586290046573" lon="-7.377323275431991">
        <ele>2014.5799999999999</ele>
        <time>2019-03-16T08:51:52Z</time>
      </trkpt>
      <trkpt lat="31.319568604230881" lon="-7.37717516720295">
        <ele>2014.0999999999999</ele>
        <time>2019-03-16T08:51:53Z</time>
      </trkpt>
      <trkpt lat="31.319531975314021" lon="-7.37702370621264">
        <ele>2013.6199999999999</ele>
        <time>2019-03-16T08:51:54Z</time>
      </trkpt>
      <trkpt lat="31.319477325305343" lon="-7.376878364011645">
        <ele>2013.6199999999999</ele>
        <time>2019-03-16T08:51:55Z</time>
      </trkpt>
      <trkpt lat="31.31939803250134" lon="-7.376745762303472">
        <ele>2013.6199999999999</ele>
        <time>2019-03-16T08:51:56Z</time>
      </trkpt>
      <trkpt lat="31.31929736584425" lon="-7.376622129231691">
        <ele>2013.6199999999999</ele>
        <time>2019-03-16T08:51:57Z</time>
      </trkpt>
      <trkpt lat="31.319181695580482" lon="-7.376500004902482">
        <ele>2013.1400000000001</ele>
        <time>2019-03-16T08:51:59Z</time>
      </trkpt>
      <trkpt lat="31.318706693127751" lon="-7.375965910032392">
        <ele>2012.6600000000001</ele>
        <time>2019-03-16T08:52:00Z</time>
      </trkpt>
      <trkpt lat="31.318680290132761" lon="-7.375869518145919">
        <ele>2011.7</ele>
        <time>2019-03-16T08:52:01Z</time>
      </trkpt>
      <trkpt lat="31.318690851330757" lon="-7.375773545354605">
        <ele>2010.25</ele>
        <time>2019-03-16T08:52:02Z</time>
      </trkpt>
      <trkpt lat="31.318736281245947" lon="-7.37569022923708">
        <ele>2009.29</ele>
        <time>2019-03-16T08:52:03Z</time>
      </trkpt>
      <trkpt lat="31.318807695060968" lon="-7.375638512894511">
        <ele>2007.3699999999999</ele>
        <time>2019-03-16T08:52:09Z</time>
      </trkpt>
      <trkpt lat="31.318894112482667" lon="-7.375641278922558">
        <ele>2006.4100000000001</ele>
        <time>2019-03-16T08:52:10Z</time>
      </trkpt>
      <trkpt lat="31.31897147744894" lon="-7.375688804313541">
        <ele>2005.9300000000001</ele>
        <time>2019-03-16T08:52:11Z</time>
      </trkpt>
      <trkpt lat="31.319029647856951" lon="-7.375772958621383">
        <ele>2004.97</ele>
        <time>2019-03-16T08:52:12Z</time>
      </trkpt>
      <trkpt lat="31.319076921790838" lon="-7.375873876735568">
        <ele>2004.01</ele>
        <time>2019-03-16T08:52:13Z</time>
      </trkpt>
      <trkpt lat="31.319122854620218" lon="-7.375979740172625">
        <ele>2003.04</ele>
        <time>2019-03-16T08:52:14Z</time>
      </trkpt>
      <trkpt lat="31.319235507398844" lon="-7.376186354085803">
        <ele>2002.0799999999999</ele>
        <time>2019-03-16T08:52:15Z</time>
      </trkpt>
      <trkpt lat="31.319304825738072" lon="-7.376280399039388">
        <ele>2001.5999999999999</ele>
        <time>2019-03-16T08:52:16Z</time>
      </trkpt>
      <trkpt lat="31.31937799975276" lon="-7.376358350738883">
        <ele>2000.6400000000001</ele>
        <time>2019-03-16T08:52:17Z</time>
      </trkpt>
      <trkpt lat="31.319453101605177" lon="-7.376422472298145">
        <ele>1999.6800000000001</ele>
        <time>2019-03-16T08:52:18Z</time>
      </trkpt>
      <trkpt lat="31.319530550390482" lon="-7.376479217782617">
        <ele>1996.8</ele>
        <time>2019-03-16T08:52:19Z</time>
      </trkpt>
      <trkpt lat="31.319681592285633" lon="-7.376598240807653">
        <ele>1995.8299999999999</ele>
        <time>2019-03-16T08:52:20Z</time>
      </trkpt>
      <trkpt lat="31.319748479872942" lon="-7.376675521954894">
        <ele>1995.3499999999999</ele>
        <time>2019-03-16T08:52:21Z</time>
      </trkpt>
      <trkpt lat="31.319809332489967" lon="-7.37676814198494">
        <ele>1993.9100000000001</ele>
        <time>2019-03-16T08:52:23Z</time>
      </trkpt>
      <trkpt lat="31.319864820688963" lon="-7.376873837783933">
        <ele>1992.95</ele>
        <time>2019-03-16T08:52:24Z</time>
      </trkpt>
      <trkpt lat="31.319915950298309" lon="-7.376984059810638">
        <ele>1991.51</ele>
        <time>2019-03-16T08:52:26Z</time>
      </trkpt>
      <trkpt lat="31.32016078568995" lon="-7.377419248223305">
        <ele>1990.0699999999999</ele>
        <time>2019-03-16T08:52:27Z</time>
      </trkpt>
      <trkpt lat="31.320247035473585" lon="-7.377514550462365">
        <ele>1983.3399999999999</ele>
        <time>2019-03-16T08:52:28Z</time>
      </trkpt>
      <trkpt lat="31.320346696302295" lon="-7.377593759447336">
        <ele>1982.3800000000001</ele>
        <time>2019-03-16T08:52:29Z</time>
      </trkpt>
      <trkpt lat="31.320458175614476" lon="-7.377654863521457">
        <ele>1981.4100000000001</ele>
        <time>2019-03-16T08:52:32Z</time>
      </trkpt>
      <trkpt lat="31.320586502552032" lon="-7.3776940908283">
        <ele>1977.0899999999999</ele>
        <time>2019-03-16T08:52:33Z</time>
      </trkpt>
      <trkpt lat="31.320730168372393" lon="-7.377714961767197">
        <ele>1976.1300000000001</ele>
        <time>2019-03-16T08:52:34Z</time>
      </trkpt>
      <trkpt lat="31.32088246755302" lon="-7.377728288993239">
        <ele>1973.24</ele>
        <time>2019-03-16T08:52:35Z</time>
      </trkpt>
      <trkpt lat="31.321612866595387" lon="-7.377789309248328">
        <ele>1971.8</ele>
        <time>2019-03-16T08:52:36Z</time>
      </trkpt>
      <trkpt lat="31.321745300665498" lon="-7.377768354490399">
        <ele>1970.3599999999999</ele>
        <time>2019-03-16T08:52:37Z</time>
      </trkpt>
      <trkpt lat="31.321873711422086" lon="-7.377722170203924">
        <ele>1968.9200000000001</ele>
        <time>2019-03-16T08:52:43Z</time>
      </trkpt>
      <trkpt lat="31.322239832952619" lon="-7.377571715041995">
        <ele>1967.96</ele>
        <time>2019-03-16T08:52:44Z</time>
      </trkpt>
      <trkpt lat="31.322361789643764" lon="-7.377560148015618">
        <ele>1966.99</ele>
        <time>2019-03-16T08:52:45Z</time>
      </trkpt>
      <trkpt lat="31.322586257010698" lon="-7.377555035054684">
        <ele>1966.03</ele>
        <time>2019-03-16T08:52:46Z</time>
      </trkpt>
      <trkpt lat="31.322689773514867" lon="-7.377519831061363">
        <ele>1965.0699999999999</ele>
        <time>2019-03-16T08:52:47Z</time>
      </trkpt>
      <trkpt lat="31.322791865095496" lon="-7.377458224073052">
        <ele>1964.1099999999999</ele>
        <time>2019-03-16T08:52:53Z</time>
      </trkpt>
      <trkpt lat="31.322890352457762" lon="-7.377383289858699">
        <ele>1963.1500000000001</ele>
        <time>2019-03-16T08:52:54Z</time>
      </trkpt>
      <trkpt lat="31.322974255308509" lon="-7.377307433634996">
        <ele>1962.1900000000001</ele>
        <time>2019-03-16T08:52:55Z</time>
      </trkpt>
      <trkpt lat="31.323032844811678" lon="-7.377229230478406">
        <ele>1961.23</ele>
        <time>2019-03-16T08:53:05Z</time>
      </trkpt>
      <trkpt lat="31.323058912530541" lon="-7.37714197486639">
        <ele>1954.5</ele>
        <time>2019-03-16T08:53:12Z</time>
      </trkpt>
      <trkpt lat="31.323047429323196" lon="-7.377053797245026">
        <ele>1947.77</ele>
        <time>2019-03-16T08:53:16Z</time>
      </trkpt>
      <trkpt lat="31.323003340512514" lon="-7.376977019011974">
        <ele>1946.8099999999999</ele>
        <time>2019-03-16T08:53:17Z</time>
      </trkpt>
      <trkpt lat="31.322934189811349" lon="-7.376925721764565">
        <ele>1946.3299999999999</ele>
        <time>2019-03-16T08:53:18Z</time>
      </trkpt>
      <trkpt lat="31.322849532589316" lon="-7.376890014857054">
        <ele>1946.3299999999999</ele>
        <time>2019-03-16T08:53:19Z</time>
      </trkpt>
      <trkpt lat="31.322749787941575" lon="-7.376855397596955">
        <ele>1945.8499999999999</ele>
        <time>2019-03-16T08:53:20Z</time>
      </trkpt>
      <trkpt lat="31.321814535185695" lon="-7.376654064282775">
        <ele>1945.3599999999999</ele>
        <time>2019-03-16T08:53:21Z</time>
      </trkpt>
      <trkpt lat="31.320857740938663" lon="-7.376652220264077">
        <ele>1944.8800000000001</ele>
        <time>2019-03-16T08:53:22Z</time>
      </trkpt>
      <trkpt lat="31.320774592459202" lon="-7.376627074554563">
        <ele>1944.4000000000001</ele>
        <time>2019-03-16T08:53:23Z</time>
      </trkpt>
      <trkpt lat="31.320710387080908" lon="-7.376577621325851">
        <ele>1943.9200000000001</ele>
        <time>2019-03-16T08:53:24Z</time>
      </trkpt>
      <trkpt lat="31.320670237764716" lon="-7.376499166712165">
        <ele>1943.4400000000001</ele>
        <time>2019-03-16T08:53:25Z</time>
      </trkpt>
      <trkpt lat="31.320658754557371" lon="-7.376400679349899">
        <ele>1942.96</ele>
        <time>2019-03-16T08:53:26Z</time>
      </trkpt>
      <trkpt lat="31.32067333906889" lon="-7.376296995207667">
        <ele>1942.48</ele>
        <time>2019-03-16T08:53:27Z</time>
      </trkpt>
      <trkpt lat="31.320710638538003" lon="-7.376205381006002">
        <ele>1937.6700000000001</ele>
        <time>2019-03-16T08:53:28Z</time>
      </trkpt>
      <trkpt lat="31.32077157497406" lon="-7.376129273325205">
        <ele>1936.23</ele>
        <time>2019-03-16T08:53:29Z</time>
      </trkpt>
      <trkpt lat="31.320854555815458" lon="-7.376070264726877">
        <ele>1935.75</ele>
        <time>2019-03-16T08:53:30Z</time>
      </trkpt>
      <trkpt lat="31.320954551920295" lon="-7.376042939722538">
        <ele>1935.27</ele>
        <time>2019-03-16T08:53:43Z</time>
      </trkpt>
      <trkpt lat="31.321066617965698" lon="-7.376045621931553">
        <ele>1934.79</ele>
        <time>2019-03-16T08:53:46Z</time>
      </trkpt>
      <trkpt lat="31.321186982095242" lon="-7.37606598995626">
        <ele>1934.3099999999999</ele>
        <time>2019-03-16T08:53:47Z</time>
      </trkpt>
      <trkpt lat="31.322735538706183" lon="-7.376268748193979">
        <ele>1933.8299999999999</ele>
        <time>2019-03-16T08:53:48Z</time>
      </trkpt>
      <trkpt lat="31.323313554748893" lon="-7.376319877803326">
        <ele>1933.8299999999999</ele>
        <time>2019-03-16T08:53:51Z</time>
      </trkpt>
      <trkpt lat="31.323449173942208" lon="-7.376294145360589">
        <ele>1932.8699999999999</ele>
        <time>2019-03-16T08:53:52Z</time>
      </trkpt>
      <trkpt lat="31.323577668517828" lon="-7.376253912225366">
        <ele>1932.3900000000001</ele>
        <time>2019-03-16T08:53:53Z</time>
      </trkpt>
      <trkpt lat="31.323791993781924" lon="-7.37619498744607">
        <ele>1930.95</ele>
        <time>2019-03-16T08:53:54Z</time>
      </trkpt>
      <trkpt lat="31.323883859440684" lon="-7.376204039901495">
        <ele>1929.5</ele>
        <time>2019-03-16T08:53:55Z</time>
      </trkpt>
      <trkpt lat="31.323962146416306" lon="-7.376246368512511">
        <ele>1928.54</ele>
        <time>2019-03-16T08:53:56Z</time>
      </trkpt>
      <trkpt lat="31.324019646272063" lon="-7.376322140917182">
        <ele>1927.5799999999999</ele>
        <time>2019-03-16T08:53:57Z</time>
      </trkpt>
      <trkpt lat="31.324049234390259" lon="-7.376420376822352">
        <ele>1926.6199999999999</ele>
        <time>2019-03-16T08:53:58Z</time>
      </trkpt>
      <trkpt lat="31.324045546352863" lon="-7.376529593020678">
        <ele>1925.6600000000001</ele>
        <time>2019-03-16T08:53:59Z</time>
      </trkpt>
      <trkpt lat="31.32400774396956" lon="-7.376637971028686">
        <ele>1924.22</ele>
        <time>2019-03-16T08:54:00Z</time>
      </trkpt>
      <trkpt lat="31.323944125324488" lon="-7.376742660999298">
        <ele>1923.25</ele>
        <time>2019-03-16T08:54:10Z</time>
      </trkpt>
      <trkpt lat="31.323870616033673" lon="-7.376849446445704">
        <ele>1922.77</ele>
        <time>2019-03-16T08:54:19Z</time>
      </trkpt>
      <trkpt lat="31.323800124228001" lon="-7.376963943243027">
        <ele>1921.8099999999999</ele>
        <time>2019-03-16T08:54:26Z</time>
      </trkpt>
      <trkpt lat="31.323745306581259" lon="-7.377089923247695">
        <ele>1920.8499999999999</ele>
        <time>2019-03-16T08:54:27Z</time>
      </trkpt>
      <trkpt lat="31.323715467005968" lon="-7.37722503952682">
        <ele>1915.5599999999999</ele>
        <time>2019-03-16T08:54:28Z</time>
      </trkpt>
      <trkpt lat="31.323680011555552" lon="-7.377490159124136">
        <ele>1915.0799999999999</ele>
        <time>2019-03-16T08:54:29Z</time>
      </trkpt>
      <trkpt lat="31.323643801733851" lon="-7.377599123865366">
        <ele>1914.5999999999999</ele>
        <time>2019-03-16T08:54:30Z</time>
      </trkpt>
      <trkpt lat="31.32358412258327" lon="-7.377690151333809">
        <ele>1914.1199999999999</ele>
        <time>2019-03-16T08:54:31Z</time>
      </trkpt>
      <trkpt lat="31.323510361835361" lon="-7.377772461622953">
        <ele>1913.1600000000001</ele>
        <time>2019-03-16T08:54:39Z</time>
      </trkpt>
      <trkpt lat="31.323426710441709" lon="-7.377858711406589">
        <ele>1912.2</ele>
        <time>2019-03-16T08:54:40Z</time>
      </trkpt>
      <trkpt lat="31.322926059365273" lon="-7.37837377935648">
        <ele>1911.24</ele>
        <time>2019-03-16T08:54:41Z</time>
      </trkpt>
      <trkpt lat="31.322839641943574" lon="-7.378422310575843">
        <ele>1910.28</ele>
        <time>2019-03-16T08:54:42Z</time>
      </trkpt>
      <trkpt lat="31.322741657495499" lon="-7.378452736884356">
        <ele>1909.3199999999999</ele>
        <time>2019-03-16T08:54:43Z</time>
      </trkpt>
      <trkpt lat="31.32263177074492" lon="-7.378472601994872">
        <ele>1908.3499999999999</ele>
        <time>2019-03-16T08:54:44Z</time>
      </trkpt>
      <trkpt lat="31.322514256462455" lon="-7.378489868715406">
        <ele>1907.3900000000001</ele>
        <time>2019-03-16T08:54:45Z</time>
      </trkpt>
      <trkpt lat="31.322397580370307" lon="-7.378513086587191">
        <ele>1906.4300000000001</ele>
        <time>2019-03-16T08:54:52Z</time>
      </trkpt>
      <trkpt lat="31.322284592315555" lon="-7.378553738817573">
        <ele>1905.95</ele>
        <time>2019-03-16T08:54:53Z</time>
      </trkpt>
      <trkpt lat="31.322177303954959" lon="-7.378615597262979">
        <ele>1904.03</ele>
        <time>2019-03-16T08:54:54Z</time>
      </trkpt>
      <trkpt lat="31.322078397497535" lon="-7.378696817904711">
        <ele>1903.0699999999999</ele>
        <time>2019-03-16T08:54:58Z</time>
      </trkpt>
      <trkpt lat="31.32198141887784" lon="-7.378780469298363">
        <ele>1900.6600000000001</ele>
        <time>2019-03-16T08:54:59Z</time>
      </trkpt>
      <trkpt lat="31.321875723078847" lon="-7.378849536180496">
        <ele>1899.7</ele>
        <time>2019-03-16T08:55:00Z</time>
      </trkpt>
      <trkpt lat="31.321762232109904" lon="-7.378897983580828">
        <ele>1898.26</ele>
        <time>2019-03-16T08:55:01Z</time>
      </trkpt>
      <trkpt lat="31.321649830788374" lon="-7.378936372697353">
        <ele>1897.3</ele>
        <time>2019-03-16T08:55:02Z</time>
      </trkpt>
      <trkpt lat="31.321448078379035" lon="-7.379021616652608">
        <ele>1892.97</ele>
        <time>2019-03-16T08:55:03Z</time>
      </trkpt>
      <trkpt lat="31.321365181356668" lon="-7.379089845344424">
        <ele>1891.53</ele>
        <time>2019-03-16T08:55:04Z</time>
      </trkpt>
      <trkpt lat="31.321279434487224" lon="-7.379292938858271">
        <ele>1890.5699999999999</ele>
        <time>2019-03-16T08:55:05Z</time>
      </trkpt>
      <trkpt lat="31.321284882724285" lon="-7.379417326301336">
        <ele>1889.1300000000001</ele>
        <time>2019-03-16T08:55:06Z</time>
      </trkpt>
      <trkpt lat="31.321309944614768" lon="-7.379553448408842">
        <ele>1887.6900000000001</ele>
        <time>2019-03-16T08:55:07Z</time>
      </trkpt>
      <trkpt lat="31.321343053132296" lon="-7.379702227190137">
        <ele>1886.24</ele>
        <time>2019-03-16T08:55:08Z</time>
      </trkpt>
      <trkpt lat="31.321447156369686" lon="-7.380169602110982">
        <ele>1878.0699999999999</ele>
        <time>2019-03-16T08:55:09Z</time>
      </trkpt>
      <trkpt lat="31.321501722559333" lon="-7.380301617085934">
        <ele>1876.6300000000001</ele>
        <time>2019-03-16T08:55:10Z</time>
      </trkpt>
      <trkpt lat="31.321581099182367" lon="-7.380409827455878">
        <ele>1875.1900000000001</ele>
        <time>2019-03-16T08:55:11Z</time>
      </trkpt>
      <trkpt lat="31.321684783324599" lon="-7.380490293726325">
        <ele>1873.27</ele>
        <time>2019-03-16T08:55:12Z</time>
      </trkpt>
      <trkpt lat="31.32180942222476" lon="-7.380546787753701">
        <ele>1871.8199999999999</ele>
        <time>2019-03-16T08:55:13Z</time>
      </trkpt>
      <trkpt lat="31.321944370865822" lon="-7.380599426105619">
        <ele>1864.6099999999999</ele>
        <time>2019-03-16T08:55:14Z</time>
      </trkpt>
      <trkpt lat="31.32280133664608" lon="-7.38095716573298">
        <ele>1864.1300000000001</ele>
        <time>2019-03-16T08:55:15Z</time>
      </trkpt>
      <trkpt lat="31.322950618341565" lon="-7.380981221795082">
        <ele>1863.6500000000001</ele>
        <time>2019-03-16T08:55:16Z</time>
      </trkpt>
      <trkpt lat="31.323112724348903" lon="-7.380980802699924">
        <ele>1853.5599999999999</ele>
        <time>2019-03-16T08:55:17Z</time>
      </trkpt>
      <trkpt lat="31.323282374069095" lon="-7.380961775779724">
        <ele>1842.98</ele>
        <time>2019-03-16T08:55:23Z</time>
      </trkpt>
      <trkpt lat="31.323462082073092" lon="-7.380935121327639">
        <ele>1837.7</ele>
        <time>2019-03-16T08:55:24Z</time>
      </trkpt>
      <trkpt lat="31.324523901566863" lon="-7.38080914132297">
        <ele>1836.26</ele>
        <time>2019-03-16T08:55:25Z</time>
      </trkpt>
      <trkpt lat="31.324685420840979" lon="-7.380825318396092">
        <ele>1835.29</ele>
        <time>2019-03-16T08:55:26Z</time>
      </trkpt>
      <trkpt lat="31.324850879609585" lon="-7.380870161578059">
        <ele>1834.3299999999999</ele>
        <time>2019-03-16T08:55:27Z</time>
      </trkpt>
      <trkpt lat="31.326525751501322" lon="-7.381516993045807">
        <ele>1833.8499999999999</ele>
        <time>2019-03-16T08:55:28Z</time>
      </trkpt>
      <trkpt lat="31.327700978145003" lon="-7.381660994142294">
        <ele>1833.3699999999999</ele>
        <time>2019-03-16T08:55:29Z</time>
      </trkpt>
      <trkpt lat="31.328212609514594" lon="-7.381684379652143">
        <ele>1832.8900000000001</ele>
        <time>2019-03-16T08:55:30Z</time>
      </trkpt>
      <trkpt lat="31.32832333445549" lon="-7.381652276962996">
        <ele>1832.4100000000001</ele>
        <time>2019-03-16T08:55:31Z</time>
      </trkpt>
      <trkpt lat="31.328428359702229" lon="-7.38158899359405">
        <ele>1831.45</ele>
        <time>2019-03-16T08:55:32Z</time>
      </trkpt>
      <trkpt lat="31.328523242846131" lon="-7.381495200097561">
        <ele>1830.97</ele>
        <time>2019-03-16T08:55:38Z</time>
      </trkpt>
      <trkpt lat="31.328608151525259" lon="-7.381378607824445">
        <ele>1830.97</ele>
        <time>2019-03-16T08:55:39Z</time>
      </trkpt>
      <trkpt lat="31.328683001920581" lon="-7.381258998066187">
        <ele>1830.49</ele>
        <time>2019-03-16T08:55:40Z</time>
      </trkpt>
      <trkpt lat="31.328757852315903" lon="-7.381153553724289">
        <ele>1830.01</ele>
        <time>2019-03-16T08:55:41Z</time>
      </trkpt>
      <trkpt lat="31.328843180090189" lon="-7.381069315597415">
        <ele>1829.53</ele>
        <time>2019-03-16T08:55:42Z</time>
      </trkpt>
      <trkpt lat="31.328946361318231" lon="-7.381011731922627">
        <ele>1829.05</ele>
        <time>2019-03-16T08:55:46Z</time>
      </trkpt>
      <trkpt lat="31.329065971076488" lon="-7.380987340584397">
        <ele>1819.4300000000001</ele>
        <time>2019-03-16T08:55:47Z</time>
      </trkpt>
      <trkpt lat="31.329193208366632" lon="-7.380991112440825">
        <ele>1816.55</ele>
        <time>2019-03-16T08:55:48Z</time>
      </trkpt>
      <trkpt lat="31.32932061329484" lon="-7.381023969501257">
        <ele>1816.0699999999999</ele>
        <time>2019-03-16T08:55:49Z</time>
      </trkpt>
      <trkpt lat="31.32944374345243" lon="-7.381088677793741">
        <ele>1815.1099999999999</ele>
        <time>2019-03-16T08:55:50Z</time>
      </trkpt>
      <trkpt lat="31.32956393994391" lon="-7.381184147670865">
        <ele>1812.7</ele>
        <time>2019-03-16T08:55:51Z</time>
      </trkpt>
      <trkpt lat="31.329683801159263" lon="-7.381293447688222">
        <ele>1812.22</ele>
        <time>2019-03-16T08:55:52Z</time>
      </trkpt>
      <trkpt lat="31.331017529591918" lon="-7.382701523602009">
        <ele>1811.74</ele>
        <time>2019-03-16T08:55:53Z</time>
      </trkpt>
      <trkpt lat="31.331192040815949" lon="-7.38307636231184">
        <ele>1811.26</ele>
        <time>2019-03-16T08:55:54Z</time>
      </trkpt>
      <trkpt lat="31.331228753551841" lon="-7.383208125829697">
        <ele>1810.78</ele>
        <time>2019-03-16T08:55:55Z</time>
      </trkpt>
      <trkpt lat="31.331256497651339" lon="-7.383352294564247">
        <ele>1810.3</ele>
        <time>2019-03-16T08:55:56Z</time>
      </trkpt>
      <trkpt lat="31.331320535391569" lon="-7.383737862110138">
        <ele>1809.8199999999999</ele>
        <time>2019-03-16T08:55:57Z</time>
      </trkpt>
      <trkpt lat="31.33135624229908" lon="-7.383827548474073">
        <ele>1809.8199999999999</ele>
        <time>2019-03-16T08:55:58Z</time>
      </trkpt>
      <trkpt lat="31.331405863165855" lon="-7.383885299786925">
        <ele>1809.8199999999999</ele>
        <time>2019-03-16T08:55:59Z</time>
      </trkpt>
      <trkpt lat="31.331467889249325" lon="-7.383904745802283">
        <ele>1809.8199999999999</ele>
        <time>2019-03-16T08:56:00Z</time>
      </trkpt>
      <trkpt lat="31.33152237161994" lon="-7.383879348635674">
        <ele>1808.3800000000001</ele>
        <time>2019-03-16T08:56:01Z</time>
      </trkpt>
      <trkpt lat="31.331555312499404" lon="-7.383825285360217">
        <ele>1805.01</ele>
        <time>2019-03-16T08:56:02Z</time>
      </trkpt>
      <trkpt lat="31.331565538421273" lon="-7.383762421086431">
        <ele>1800.6900000000001</ele>
        <time>2019-03-16T08:56:03Z</time>
      </trkpt>
      <trkpt lat="31.331562688574195" lon="-7.383703580126166">
        <ele>1800.21</ele>
        <time>2019-03-16T08:56:04Z</time>
      </trkpt>
      <trkpt lat="31.331556653603911" lon="-7.383647421374917">
        <ele>1799.73</ele>
        <time>2019-03-16T08:56:05Z</time>
      </trkpt>
      <trkpt lat="31.331545757129788" lon="-7.383589502424002">
        <ele>1799.73</ele>
        <time>2019-03-16T08:56:10Z</time>
      </trkpt>
      <trkpt lat="31.331379963085055" lon="-7.382853319868445">
        <ele>1798.76</ele>
        <time>2019-03-16T08:56:11Z</time>
      </trkpt>
      <trkpt lat="31.331087769940495" lon="-7.382006077095866">
        <ele>1798.28</ele>
        <time>2019-03-16T08:56:12Z</time>
      </trkpt>
      <trkpt lat="31.330873528495431" lon="-7.381288670003414">
        <ele>1794.9200000000001</ele>
        <time>2019-03-16T08:56:13Z</time>
      </trkpt>
      <trkpt lat="31.330824829638004" lon="-7.381194457411766">
        <ele>1794.4400000000001</ele>
        <time>2019-03-16T08:56:14Z</time>
      </trkpt>
      <trkpt lat="31.330769173800945" lon="-7.381111895665526">
        <ele>1794.4400000000001</ele>
        <time>2019-03-16T08:56:15Z</time>
      </trkpt>
      <trkpt lat="31.33071368560195" lon="-7.381045510992408">
        <ele>1793.48</ele>
        <time>2019-03-16T08:56:16Z</time>
      </trkpt>
      <trkpt lat="31.330654006451368" lon="-7.380987927317619">
        <ele>1793</ele>
        <time>2019-03-16T08:56:17Z</time>
      </trkpt>
      <trkpt lat="31.330590806901455" lon="-7.380928583443165">
        <ele>1792.52</ele>
        <time>2019-03-16T08:56:18Z</time>
      </trkpt>
      <trkpt lat="31.330176070332527" lon="-7.380435559898615">
        <ele>1792.03</ele>
        <time>2019-03-16T08:56:19Z</time>
      </trkpt>
      <trkpt lat="31.330113876610994" lon="-7.380396835505962">
        <ele>1788.6700000000001</ele>
        <time>2019-03-16T08:56:22Z</time>
      </trkpt>
      <trkpt lat="31.330043384805322" lon="-7.380370013415813">
        <ele>1788.1900000000001</ele>
        <time>2019-03-16T08:56:23Z</time>
      </trkpt>
      <trkpt lat="31.329962499439716" lon="-7.380352662876248">
        <ele>1787.71</ele>
        <time>2019-03-16T08:56:24Z</time>
      </trkpt>
      <trkpt lat="31.329877590760589" lon="-7.380346292629838">
        <ele>1785.79</ele>
        <time>2019-03-16T08:56:25Z</time>
      </trkpt>
      <trkpt lat="31.329795783385634" lon="-7.380348052829504">
        <ele>1785.3099999999999</ele>
        <time>2019-03-16T08:56:27Z</time>
      </trkpt>
      <trkpt lat="31.329716742038727" lon="-7.38035324960947">
        <ele>1785.3099999999999</ele>
        <time>2019-03-16T08:56:28Z</time>
      </trkpt>
      <trkpt lat="31.329222964122891" lon="-7.380318380892277">
        <ele>1784.8199999999999</ele>
        <time>2019-03-16T08:56:40Z</time>
      </trkpt>
      <trkpt lat="31.329155070707202" lon="-7.380299437791109">
        <ele>1784.3399999999999</ele>
        <time>2019-03-16T08:56:41Z</time>
      </trkpt>
      <trkpt lat="31.329082902520895" lon="-7.380273621529341">
        <ele>1784.3399999999999</ele>
        <time>2019-03-16T08:56:42Z</time>
      </trkpt>
      <trkpt lat="31.328736059367657" lon="-7.380150575190783">
        <ele>1783.8599999999999</ele>
        <time>2019-03-16T08:56:43Z</time>
      </trkpt>
      <trkpt lat="31.328644528985023" lon="-7.380148814991117">
        <ele>1783.3800000000001</ele>
        <time>2019-03-16T08:56:44Z</time>
      </trkpt>
      <trkpt lat="31.328555177897215" lon="-7.380179492756724">
        <ele>1782.9000000000001</ele>
        <time>2019-03-16T08:56:45Z</time>
      </trkpt>
      <trkpt lat="31.328473873436451" lon="-7.380242608487606">
        <ele>1782.9000000000001</ele>
        <time>2019-03-16T08:56:46Z</time>
      </trkpt>
      <trkpt lat="31.32840933278203" lon="-7.380332043394446">
        <ele>1782.9000000000001</ele>
        <time>2019-03-16T08:56:55Z</time>
      </trkpt>
      <trkpt lat="31.328355772420764" lon="-7.380430363118649">
        <ele>1782.9000000000001</ele>
        <time>2019-03-16T08:56:56Z</time>
      </trkpt>
      <trkpt lat="31.328298859298229" lon="-7.380521558225155">
        <ele>1782.9000000000001</ele>
        <time>2019-03-16T08:56:57Z</time>
      </trkpt>
      <trkpt lat="31.328227864578366" lon="-7.380592804402113">
        <ele>1782.9000000000001</ele>
        <time>2019-03-16T08:56:58Z</time>
      </trkpt>
      <trkpt lat="31.328142620623112" lon="-7.380632534623146">
        <ele>1782.9000000000001</ele>
        <time>2019-03-16T08:56:59Z</time>
      </trkpt>
      <trkpt lat="31.32804874330759" lon="-7.380633121356368">
        <ele>1782.9000000000001</ele>
        <time>2019-03-16T08:57:00Z</time>
      </trkpt>
      <trkpt lat="31.32795101031661" lon="-7.380612082779408">
        <ele>1783.3800000000001</ele>
        <time>2019-03-16T08:57:01Z</time>
      </trkpt>
      <trkpt lat="31.327857635915279" lon="-7.380583668127656">
        <ele>1782.9000000000001</ele>
        <time>2019-03-16T08:57:03Z</time>
      </trkpt>
      <trkpt lat="31.327768620103598" lon="-7.380544608458877">
        <ele>1782.9000000000001</ele>
        <time>2019-03-16T08:57:04Z</time>
      </trkpt>
      <trkpt lat="31.327689914032817" lon="-7.380430866032839">
        <ele>1781.9400000000001</ele>
        <time>2019-03-16T08:57:05Z</time>
      </trkpt>
      <trkpt lat="31.327614979818463" lon="-7.380296336486936">
        <ele>1778.0999999999999</ele>
        <time>2019-03-16T08:57:06Z</time>
      </trkpt>
      <trkpt lat="31.327531579881907" lon="-7.380181169137359">
        <ele>1778.0999999999999</ele>
        <time>2019-03-16T08:57:07Z</time>
      </trkpt>
      <trkpt lat="31.327428566291928" lon="-7.380097601562738">
        <ele>1777.6099999999999</ele>
        <time>2019-03-16T08:57:08Z</time>
      </trkpt>
      <trkpt lat="31.327304095029831" lon="-7.380030294880271">
        <ele>1777.1300000000001</ele>
        <time>2019-03-16T08:57:09Z</time>
      </trkpt>
      <trkpt lat="31.327166045084596" lon="-7.379975896328688">
        <ele>1776.6500000000001</ele>
        <time>2019-03-16T08:57:14Z</time>
      </trkpt>
      <trkpt lat="31.32702405564487" lon="-7.379922922700644">
        <ele>1776.1700000000001</ele>
        <time>2019-03-16T08:57:15Z</time>
      </trkpt>
      <trkpt lat="31.326238587498665" lon="-7.37961052916944">
        <ele>1775.6900000000001</ele>
        <time>2019-03-16T08:57:16Z</time>
      </trkpt>
      <trkpt lat="31.326159043237567" lon="-7.379546826705337">
        <ele>1774.73</ele>
        <time>2019-03-16T08:57:17Z</time>
      </trkpt>
      <trkpt lat="31.32610933855176" lon="-7.379461666569114">
        <ele>1773.77</ele>
        <time>2019-03-16T08:57:18Z</time>
      </trkpt>
      <trkpt lat="31.326097184792161" lon="-7.379347421228886">
        <ele>1772.8099999999999</ele>
        <time>2019-03-16T08:57:24Z</time>
      </trkpt>
      <trkpt lat="31.326123252511024" lon="-7.379228733479977">
        <ele>1767.04</ele>
        <time>2019-03-16T08:57:25Z</time>
      </trkpt>
      <trkpt lat="31.326188882812858" lon="-7.379127480089665">
        <ele>1765.5999999999999</ele>
        <time>2019-03-16T08:57:26Z</time>
      </trkpt>
      <trkpt lat="31.326284604147077" lon="-7.3790686391294">
        <ele>1764.6400000000001</ele>
        <time>2019-03-16T08:57:27Z</time>
      </trkpt>
      <trkpt lat="31.326401615515351" lon="-7.379051707684994">
        <ele>1763.2</ele>
        <time>2019-03-16T08:57:28Z</time>
      </trkpt>
      <trkpt lat="31.326531199738383" lon="-7.37905640155077">
        <ele>1761.75</ele>
        <time>2019-03-16T08:57:29Z</time>
      </trkpt>
      <trkpt lat="31.326671345159411" lon="-7.379065454006195">
        <ele>1756.47</ele>
        <time>2019-03-16T08:57:30Z</time>
      </trkpt>
      <trkpt lat="31.327588325366378" lon="-7.379105854779482">
        <ele>1755.99</ele>
        <time>2019-03-16T08:57:31Z</time>
      </trkpt>
      <trkpt lat="31.327717322856188" lon="-7.379074255004525">
        <ele>1755.02</ele>
        <time>2019-03-16T08:57:32Z</time>
      </trkpt>
      <trkpt lat="31.32783911190927" lon="-7.379005774855614">
        <ele>1754.54</ele>
        <time>2019-03-16T08:57:33Z</time>
      </trkpt>
      <trkpt lat="31.327956123277545" lon="-7.378908293321729">
        <ele>1754.0599999999999</ele>
        <time>2019-03-16T08:57:34Z</time>
      </trkpt>
      <trkpt lat="31.328080929815769" lon="-7.37879597581923">
        <ele>1753.5799999999999</ele>
        <time>2019-03-16T08:57:35Z</time>
      </trkpt>
      <trkpt lat="31.328544868156314" lon="-7.378377048298717">
        <ele>1753.0999999999999</ele>
        <time>2019-03-16T08:57:36Z</time>
      </trkpt>
      <trkpt lat="31.328601781278849" lon="-7.378277806565166">
        <ele>1753.0999999999999</ele>
        <time>2019-03-16T08:57:37Z</time>
      </trkpt>
      <trkpt lat="31.328619550913572" lon="-7.378170350566506">
        <ele>1753.0999999999999</ele>
        <time>2019-03-16T08:57:45Z</time>
      </trkpt>
      <trkpt lat="31.328597422689199" lon="-7.378059960901737">
        <ele>1752.6199999999999</ele>
        <time>2019-03-16T08:57:46Z</time>
      </trkpt>
      <trkpt lat="31.328536570072174" lon="-7.377965748310089">
        <ele>1752.6199999999999</ele>
        <time>2019-03-16T08:57:47Z</time>
      </trkpt>
      <trkpt lat="31.328449817374349" lon="-7.37789349630475">
        <ele>1752.6199999999999</ele>
        <time>2019-03-16T08:57:48Z</time>
      </trkpt>
      <trkpt lat="31.328352922573686" lon="-7.377827446907759">
        <ele>1752.6199999999999</ele>
        <time>2019-03-16T08:57:49Z</time>
      </trkpt>
      <trkpt lat="31.328255608677864" lon="-7.377751590684056">
        <ele>1752.6199999999999</ele>
        <time>2019-03-16T08:57:50Z</time>
      </trkpt>
      <trkpt lat="31.328166676685214" lon="-7.377658803015947">
        <ele>1752.1400000000001</ele>
        <time>2019-03-16T08:57:51Z</time>
      </trkpt>
      <trkpt lat="31.32809417322278" lon="-7.377549922093749">
        <ele>1751.6600000000001</ele>
        <time>2019-03-16T08:57:52Z</time>
      </trkpt>
      <trkpt lat="31.328050922602415" lon="-7.377427294850349">
        <ele>1751.1800000000001</ele>
        <time>2019-03-16T08:57:53Z</time>
      </trkpt>
      <trkpt lat="31.32803943939507" lon="-7.377295447513461">
        <ele>1750.22</ele>
        <time>2019-03-16T08:57:54Z</time>
      </trkpt>
      <trkpt lat="31.328058214858174" lon="-7.377165192738175">
        <ele>1749.26</ele>
        <time>2019-03-16T08:57:55Z</time>
      </trkpt>
      <trkpt lat="31.328110937029123" lon="-7.377051366493106">
        <ele>1748.29</ele>
        <time>2019-03-16T08:57:56Z</time>
      </trkpt>
      <trkpt lat="31.328193163499236" lon="-7.376963356509805">
        <ele>1745.4100000000001</ele>
        <time>2019-03-16T08:57:57Z</time>
      </trkpt>
      <trkpt lat="31.328296763822436" lon="-7.376910131424666">
        <ele>1744.45</ele>
        <time>2019-03-16T08:57:58Z</time>
      </trkpt>
      <trkpt lat="31.328411428257823" lon="-7.376900492236018">
        <ele>1743.49</ele>
        <time>2019-03-16T08:57:59Z</time>
      </trkpt>
      <trkpt lat="31.328528858721256" lon="-7.376931505277753">
        <ele>1742.53</ele>
        <time>2019-03-16T08:58:00Z</time>
      </trkpt>
      <trkpt lat="31.32864436134696" lon="-7.376983053982258">
        <ele>1741.5699999999999</ele>
        <time>2019-03-16T08:58:01Z</time>
      </trkpt>
      <trkpt lat="31.328762881457806" lon="-7.377039967104793">
        <ele>1740.1199999999999</ele>
        <time>2019-03-16T08:58:02Z</time>
      </trkpt>
      <trkpt lat="31.329393116757274" lon="-7.377356048673391">
        <ele>1738.6800000000001</ele>
        <time>2019-03-16T08:58:03Z</time>
      </trkpt>
      <trkpt lat="31.329495292156935" lon="-7.377457469701767">
        <ele>1737.72</ele>
        <time>2019-03-16T08:58:04Z</time>
      </trkpt>
      <trkpt lat="31.329574333503842" lon="-7.377581102773547">
        <ele>1736.28</ele>
        <time>2019-03-16T08:58:05Z</time>
      </trkpt>
      <trkpt lat="31.329625127837062" lon="-7.377723595127463">
        <ele>1735.3199999999999</ele>
        <time>2019-03-16T08:58:06Z</time>
      </trkpt>
      <trkpt lat="31.329642394557595" lon="-7.377879163250327">
        <ele>1732.4300000000001</ele>
        <time>2019-03-16T08:58:08Z</time>
      </trkpt>
      <trkpt lat="31.329633258283138" lon="-7.378037413582206">
        <ele>1731.95</ele>
        <time>2019-03-16T08:58:09Z</time>
      </trkpt>
      <trkpt lat="31.329610124230385" lon="-7.378189545124769">
        <ele>1730.99</ele>
        <time>2019-03-16T08:58:10Z</time>
      </trkpt>
      <trkpt lat="31.329588079825044" lon="-7.378331115469337">
        <ele>1730.03</ele>
        <time>2019-03-16T08:58:17Z</time>
      </trkpt>
      <trkpt lat="31.329580284655094" lon="-7.378465728834271">
        <ele>1729.0699999999999</ele>
        <time>2019-03-16T08:58:18Z</time>
      </trkpt>
      <trkpt lat="31.329599898308516" lon="-7.378590283915401">
        <ele>1728.5899999999999</ele>
        <time>2019-03-16T08:58:19Z</time>
      </trkpt>
      <trkpt lat="31.329832831397653" lon="-7.37881944514811">
        <ele>1719.9400000000001</ele>
        <time>2019-03-16T08:58:20Z</time>
      </trkpt>
      <trkpt lat="31.329949591308832" lon="-7.378826905041933">
        <ele>1719.46</ele>
        <time>2019-03-16T08:58:21Z</time>
      </trkpt>
      <trkpt lat="31.330076660960913" lon="-7.378807961940765">
        <ele>1718.49</ele>
        <time>2019-03-16T08:58:22Z</time>
      </trkpt>
      <trkpt lat="31.330213453620672" lon="-7.378780636936426">
        <ele>1718.01</ele>
        <time>2019-03-16T08:58:23Z</time>
      </trkpt>
      <trkpt lat="31.330506568774581" lon="-7.378754569217563">
        <ele>1717.05</ele>
        <time>2019-03-16T08:58:24Z</time>
      </trkpt>
      <trkpt lat="31.330662220716476" lon="-7.378765884786844">
        <ele>1716.0899999999999</ele>
        <time>2019-03-16T08:58:25Z</time>
      </trkpt>
      <trkpt lat="31.332535408437252" lon="-7.379079451784492">
        <ele>1714.6500000000001</ele>
        <time>2019-03-16T08:58:36Z</time>
      </trkpt>
      <trkpt lat="31.332658203318715" lon="-7.379149105399847">
        <ele>1706.96</ele>
        <time>2019-03-16T08:58:41Z</time>
      </trkpt>
      <trkpt lat="31.332767335698009" lon="-7.379246922209859">
        <ele>1706.48</ele>
        <time>2019-03-16T08:58:42Z</time>
      </trkpt>
      <trkpt lat="31.332860542461276" lon="-7.379375332966447">
        <ele>1706</ele>
        <time>2019-03-16T08:58:43Z</time>
      </trkpt>
      <trkpt lat="31.332932207733393" lon="-7.379527296870947">
        <ele>1705.52</ele>
        <time>2019-03-16T08:58:44Z</time>
      </trkpt>
      <trkpt lat="31.332988785579801" lon="-7.379694599658251">
        <ele>1705.52</ele>
        <time>2019-03-16T08:58:45Z</time>
      </trkpt>
      <trkpt lat="31.333040837198496" lon="-7.379872296005487">
        <ele>1706</ele>
        <time>2019-03-16T08:58:46Z</time>
      </trkpt>
      <trkpt lat="31.333582978695631" lon="-7.381478436291218">
        <ele>1706</ele>
        <time>2019-03-16T08:58:49Z</time>
      </trkpt>
      <trkpt lat="31.333670569583774" lon="-7.381596537306905">
        <ele>1706.48</ele>
        <time>2019-03-16T08:58:50Z</time>
      </trkpt>
      <trkpt lat="31.333776181563735" lon="-7.38167499192059">
        <ele>1706.96</ele>
        <time>2019-03-16T08:58:51Z</time>
      </trkpt>
      <trkpt lat="31.333898724988103" lon="-7.381711704656482">
        <ele>1706.96</ele>
        <time>2019-03-16T08:58:53Z</time>
      </trkpt>
      <trkpt lat="31.334030404686928" lon="-7.381707765161991">
        <ele>1706.48</ele>
        <time>2019-03-16T08:58:54Z</time>
      </trkpt>
      <trkpt lat="31.334164179861546" lon="-7.38167155534029">
        <ele>1706.48</ele>
        <time>2019-03-16T08:58:55Z</time>
      </trkpt>
      <trkpt lat="31.3342977873981" lon="-7.381616737693548">
        <ele>1706</ele>
        <time>2019-03-16T08:58:56Z</time>
      </trkpt>
      <trkpt lat="31.334565170109272" lon="-7.38153861835599">
        <ele>1706</ele>
        <time>2019-03-16T08:58:57Z</time>
      </trkpt>
      <trkpt lat="31.334698693826795" lon="-7.381536774337292">
        <ele>1704.55</ele>
        <time>2019-03-16T08:58:58Z</time>
      </trkpt>
      <trkpt lat="31.334828780964017" lon="-7.38156309351325">
        <ele>1704.0699999999999</ele>
        <time>2019-03-16T08:58:59Z</time>
      </trkpt>
      <trkpt lat="31.334951659664512" lon="-7.381607098504901">
        <ele>1703.5899999999999</ele>
        <time>2019-03-16T08:59:00Z</time>
      </trkpt>
      <trkpt lat="31.335061630234122" lon="-7.381676835939288">
        <ele>1703.1099999999999</ele>
        <time>2019-03-16T08:59:01Z</time>
      </trkpt>
      <trkpt lat="31.335158525034785" lon="-7.381769539788365">
        <ele>1702.6300000000001</ele>
        <time>2019-03-16T08:59:02Z</time>
      </trkpt>
      <trkpt lat="31.335248127579689" lon="-7.381865428760648">
        <ele>1698.79</ele>
        <time>2019-03-16T08:59:13Z</time>
      </trkpt>
      <trkpt lat="31.335617434233427" lon="-7.382338587194681">
        <ele>1697.8299999999999</ele>
        <time>2019-03-16T08:59:21Z</time>
      </trkpt>
      <trkpt lat="31.335670659318566" lon="-7.382447384297848">
        <ele>1697.3399999999999</ele>
        <time>2019-03-16T08:59:22Z</time>
      </trkpt>
      <trkpt lat="31.335712317377329" lon="-7.382565317675471">
        <ele>1696.3800000000001</ele>
        <time>2019-03-16T08:59:23Z</time>
      </trkpt>
      <trkpt lat="31.3357397262007" lon="-7.382693896070123">
        <ele>1695.4200000000001</ele>
        <time>2019-03-16T08:59:24Z</time>
      </trkpt>
      <trkpt lat="31.335763614624739" lon="-7.382818115875125">
        <ele>1694.46</ele>
        <time>2019-03-16T08:59:25Z</time>
      </trkpt>
      <trkpt lat="31.335880709812045" lon="-7.383476514369249">
        <ele>1693.5</ele>
        <time>2019-03-16T08:59:26Z</time>
      </trkpt>
      <trkpt lat="31.335918428376317" lon="-7.383578438311815">
        <ele>1692.54</ele>
        <time>2019-03-16T08:59:27Z</time>
      </trkpt>
      <trkpt lat="31.33597819134593" lon="-7.383670555427671">
        <ele>1692.0599999999999</ele>
        <time>2019-03-16T08:59:28Z</time>
      </trkpt>
      <trkpt lat="31.336059998720884" lon="-7.383751105517149">
        <ele>1691.5799999999999</ele>
        <time>2019-03-16T08:59:33Z</time>
      </trkpt>
      <trkpt lat="31.336164688691497" lon="-7.383824782446027">
        <ele>1691.0999999999999</ele>
        <time>2019-03-16T08:59:34Z</time>
      </trkpt>
      <trkpt lat="31.336287818849087" lon="-7.383896363899112">
        <ele>1690.1400000000001</ele>
        <time>2019-03-16T08:59:35Z</time>
      </trkpt>
      <trkpt lat="31.336425952613354" lon="-7.38396761007607">
        <ele>1690.1400000000001</ele>
        <time>2019-03-16T08:59:36Z</time>
      </trkpt>
      <trkpt lat="31.336570205166936" lon="-7.384036760777235">
        <ele>1689.6500000000001</ele>
        <time>2019-03-16T08:59:37Z</time>
      </trkpt>
      <trkpt lat="31.336710350587964" lon="-7.384120663627982">
        <ele>1687.25</ele>
        <time>2019-03-16T08:59:38Z</time>
      </trkpt>
      <trkpt lat="31.336835827678442" lon="-7.384229879826307">
        <ele>1687.25</ele>
        <time>2019-03-16T08:59:39Z</time>
      </trkpt>
      <trkpt lat="31.336941607296467" lon="-7.384361894801259">
        <ele>1687.25</ele>
        <time>2019-03-16T08:59:40Z</time>
      </trkpt>
      <trkpt lat="31.337026013061404" lon="-7.38451587036252">
        <ele>1686.77</ele>
        <time>2019-03-16T08:59:46Z</time>
      </trkpt>
      <trkpt lat="31.337091140449047" lon="-7.384695494547486">
        <ele>1686.77</ele>
        <time>2019-03-16T08:59:47Z</time>
      </trkpt>
      <trkpt lat="31.337151154875755" lon="-7.384882578626275">
        <ele>1686.29</ele>
        <time>2019-03-16T08:59:48Z</time>
      </trkpt>
      <trkpt lat="31.337593467906117" lon="-7.386339018121362">
        <ele>1686.29</ele>
        <time>2019-03-16T08:59:49Z</time>
      </trkpt>
      <trkpt lat="31.337596736848354" lon="-7.386487293988466">
        <ele>1686.29</ele>
        <time>2019-03-16T08:59:50Z</time>
      </trkpt>
      <trkpt lat="31.337564969435334" lon="-7.386630205437541">
        <ele>1685.8099999999999</ele>
        <time>2019-03-16T08:59:51Z</time>
      </trkpt>
      <trkpt lat="31.337498668581247" lon="-7.386760208755732">
        <ele>1685.8099999999999</ele>
        <time>2019-03-16T08:59:52Z</time>
      </trkpt>
      <trkpt lat="31.337405797094107" lon="-7.386876046657562">
        <ele>1685.8099999999999</ele>
        <time>2019-03-16T08:59:53Z</time>
      </trkpt>
      <trkpt lat="31.337293395772576" lon="-7.386979060247541">
        <ele>1685.8099999999999</ele>
        <time>2019-03-16T08:59:54Z</time>
      </trkpt>
      <trkpt lat="31.337175127118826" lon="-7.387084504589438">
        <ele>1685.8099999999999</ele>
        <time>2019-03-16T08:59:55Z</time>
      </trkpt>
      <trkpt lat="31.337062055245042" lon="-7.387203779071569">
        <ele>1685.8099999999999</ele>
        <time>2019-03-16T08:59:56Z</time>
      </trkpt>
      <trkpt lat="31.336960969492793" lon="-7.387341912835836">
        <ele>1685.8099999999999</ele>
        <time>2019-03-16T08:59:57Z</time>
      </trkpt>
      <trkpt lat="31.336876982823014" lon="-7.387490859255195">
        <ele>1685.8099999999999</ele>
        <time>2019-03-16T08:59:58Z</time>
      </trkpt>
      <trkpt lat="31.336820153519511" lon="-7.387638799846172">
        <ele>1685.3299999999999</ele>
        <time>2019-03-16T08:59:59Z</time>
      </trkpt>
      <trkpt lat="31.336800875142217" lon="-7.387783890590072">
        <ele>1685.3299999999999</ele>
        <time>2019-03-16T09:00:00Z</time>
      </trkpt>
      <trkpt lat="31.336821913719177" lon="-7.387924455106258">
        <ele>1685.3299999999999</ele>
        <time>2019-03-16T09:00:01Z</time>
      </trkpt>
      <trkpt lat="31.336880503222346" lon="-7.388054877519608">
        <ele>1685.3299999999999</ele>
        <time>2019-03-16T09:00:02Z</time>
      </trkpt>
      <trkpt lat="31.336972955614328" lon="-7.388169541954994">
        <ele>1684.8499999999999</ele>
        <time>2019-03-16T09:00:04Z</time>
      </trkpt>
      <trkpt lat="31.33708544075489" lon="-7.388273058459163">
        <ele>1684.3699999999999</ele>
        <time>2019-03-16T09:00:05Z</time>
      </trkpt>
      <trkpt lat="31.337207145988941" lon="-7.388374647125602">
        <ele>1682.9300000000001</ele>
        <time>2019-03-16T09:00:06Z</time>
      </trkpt>
      <trkpt lat="31.337327091023326" lon="-7.388486629351974">
        <ele>1681.96</ele>
        <time>2019-03-16T09:00:07Z</time>
      </trkpt>
      <trkpt lat="31.337435720488429" lon="-7.388613531365991">
        <ele>1680.52</ele>
        <time>2019-03-16T09:00:08Z</time>
      </trkpt>
      <trkpt lat="31.337529178708792" lon="-7.388763148337603">
        <ele>1673.3099999999999</ele>
        <time>2019-03-16T09:00:09Z</time>
      </trkpt>
      <trkpt lat="31.337611405178905" lon="-7.388931876048446">
        <ele>1673.3099999999999</ele>
        <time>2019-03-16T09:00:10Z</time>
      </trkpt>
      <trkpt lat="31.337686507031322" lon="-7.389109404757619">
        <ele>1673.3099999999999</ele>
        <time>2019-03-16T09:00:11Z</time>
      </trkpt>
      <trkpt lat="31.337844589725137" lon="-7.389454655349255">
        <ele>1673.3099999999999</ele>
        <time>2019-03-16T09:00:12Z</time>
      </trkpt>
      <trkpt lat="31.337955482304096" lon="-7.389611816033721">
        <ele>1673.3099999999999</ele>
        <time>2019-03-16T09:00:13Z</time>
      </trkpt>
      <trkpt lat="31.338088503107429" lon="-7.389758080244064">
        <ele>1673.3099999999999</ele>
        <time>2019-03-16T09:00:21Z</time>
      </trkpt>
      <trkpt lat="31.33906289935112" lon="-7.390712611377239">
        <ele>1673.79</ele>
        <time>2019-03-16T09:00:26Z</time>
      </trkpt>
      <trkpt lat="31.339202290400863" lon="-7.390789641067386">
        <ele>1673.79</ele>
        <time>2019-03-16T09:00:27Z</time>
      </trkpt>
      <trkpt lat="31.339356601238251" lon="-7.390840938314796">
        <ele>1673.79</ele>
        <time>2019-03-16T09:00:28Z</time>
      </trkpt>
      <trkpt lat="31.339517282322049" lon="-7.390871699899435">
        <ele>1671.8699999999999</ele>
        <time>2019-03-16T09:00:29Z</time>
      </trkpt>
      <trkpt lat="31.339678214862943" lon="-7.39090078510344">
        <ele>1665.1400000000001</ele>
        <time>2019-03-16T09:00:30Z</time>
      </trkpt>
      <trkpt lat="31.339834118261933" lon="-7.390955602750182">
        <ele>1663.22</ele>
        <time>2019-03-16T09:00:32Z</time>
      </trkpt>
      <trkpt lat="31.339984824880958" lon="-7.39103858359158">
        <ele>1661.78</ele>
        <time>2019-03-16T09:00:33Z</time>
      </trkpt>
      <trkpt lat="31.340133771300316" lon="-7.391139836981893">
        <ele>1660.3299999999999</ele>
        <time>2019-03-16T09:00:34Z</time>
      </trkpt>
      <trkpt lat="31.340279364958405" lon="-7.391254669055343">
        <ele>1658.8900000000001</ele>
        <time>2019-03-16T09:00:44Z</time>
      </trkpt>
      <trkpt lat="31.341755166649818" lon="-7.392592085525394">
        <ele>1657.45</ele>
        <time>2019-03-16T09:00:51Z</time>
      </trkpt>
      <trkpt lat="31.34223360568285" lon="-7.393112350255251">
        <ele>1654.0899999999999</ele>
        <time>2019-03-16T09:00:52Z</time>
      </trkpt>
      <trkpt lat="31.342335781082511" lon="-7.393163396045566">
        <ele>1652.6400000000001</ele>
        <time>2019-03-16T09:00:53Z</time>
      </trkpt>
      <trkpt lat="31.34244960732758" lon="-7.393195079639554">
        <ele>1651.2</ele>
        <time>2019-03-16T09:00:54Z</time>
      </trkpt>
      <trkpt lat="31.342571899294853" lon="-7.393195666372776">
        <ele>1648.8</ele>
        <time>2019-03-16T09:00:55Z</time>
      </trkpt>
      <trkpt lat="31.342691592872143" lon="-7.393184686079621">
        <ele>1648.3199999999999</ele>
        <time>2019-03-16T09:00:56Z</time>
      </trkpt>
      <trkpt lat="31.342808520421386" lon="-7.393165407702327">
        <ele>1647.3599999999999</ele>
        <time>2019-03-16T09:00:57Z</time>
      </trkpt>
      <trkpt lat="31.343157542869449" lon="-7.393133975565434">
        <ele>1646.8800000000001</ele>
        <time>2019-03-16T09:00:58Z</time>
      </trkpt>
      <trkpt lat="31.343273967504501" lon="-7.393144369125366">
        <ele>1646.4000000000001</ele>
        <time>2019-03-16T09:00:59Z</time>
      </trkpt>
      <trkpt lat="31.343390224501491" lon="-7.393162557855249">
        <ele>1646.4000000000001</ele>
        <time>2019-03-16T09:01:00Z</time>
      </trkpt>
      <trkpt lat="31.343599772080779" lon="-7.393188374117017">
        <ele>1646.4000000000001</ele>
        <time>2019-03-16T09:01:01Z</time>
      </trkpt>
      <trkpt lat="31.343690464273095" lon="-7.393173621967435">
        <ele>1645.9100000000001</ele>
        <time>2019-03-16T09:01:02Z</time>
      </trkpt>
      <trkpt lat="31.343764057382941" lon="-7.393136657774448">
        <ele>1645.4300000000001</ele>
        <time>2019-03-16T09:01:03Z</time>
      </trkpt>
      <trkpt lat="31.343816947191954" lon="-7.393086617812514">
        <ele>1644.95</ele>
        <time>2019-03-16T09:01:04Z</time>
      </trkpt>
      <trkpt lat="31.343856090679765" lon="-7.393034901469946">
        <ele>1642.0699999999999</ele>
        <time>2019-03-16T09:01:05Z</time>
      </trkpt>
      <trkpt lat="31.343892049044371" lon="-7.392986789345741">
        <ele>1638.7</ele>
        <time>2019-03-16T09:01:08Z</time>
      </trkpt>
      <trkpt lat="31.343925576657057" lon="-7.392941527068615">
        <ele>1638.22</ele>
        <time>2019-03-16T09:01:09Z</time>
      </trkpt>
      <trkpt lat="31.343951392918825" lon="-7.39289928227663">
        <ele>1637.74</ele>
        <time>2019-03-16T09:01:10Z</time>
      </trkpt>
      <trkpt lat="31.343973521143198" lon="-7.392857875674963">
        <ele>1636.78</ele>
        <time>2019-03-16T09:01:11Z</time>
      </trkpt>
      <trkpt lat="31.343995062634349" lon="-7.392816049978137">
        <ele>1635.8199999999999</ele>
        <time>2019-03-16T09:01:12Z</time>
      </trkpt>
      <trkpt lat="31.344335116446018" lon="-7.392128482460976">
        <ele>1635.3399999999999</ele>
        <time>2019-03-16T09:01:13Z</time>
      </trkpt>
      <trkpt lat="31.344938697293401" lon="-7.391361203044653">
        <ele>1634.3800000000001</ele>
        <time>2019-03-16T09:01:20Z</time>
      </trkpt>
      <trkpt lat="31.345035592094064" lon="-7.391282413154841">
        <ele>1633.9000000000001</ele>
        <time>2019-03-16T09:01:27Z</time>
      </trkpt>
      <trkpt lat="31.345130726695061" lon="-7.391223907470703">
        <ele>1631.01</ele>
        <time>2019-03-16T09:01:28Z</time>
      </trkpt>
      <trkpt lat="31.345226615667343" lon="-7.391182333230972">
        <ele>1630.05</ele>
        <time>2019-03-16T09:01:36Z</time>
      </trkpt>
      <trkpt lat="31.345323342829943" lon="-7.391154672950506">
        <ele>1629.0899999999999</ele>
        <time>2019-03-16T09:01:46Z</time>
      </trkpt>
      <trkpt lat="31.345415711402893" lon="-7.391125839203596">
        <ele>1628.6099999999999</ele>
        <time>2019-03-16T09:01:47Z</time>
      </trkpt>
      <trkpt lat="31.345501793548465" lon="-7.391083929687738">
        <ele>1628.1300000000001</ele>
        <time>2019-03-16T09:01:49Z</time>
      </trkpt>
      <trkpt lat="31.345585528761148" lon="-7.391027854755521">
        <ele>1627.6500000000001</ele>
        <time>2019-03-16T09:01:50Z</time>
      </trkpt>
      <trkpt lat="31.346011329442263" lon="-7.390717891976237">
        <ele>1627.1700000000001</ele>
        <time>2019-03-16T09:01:51Z</time>
      </trkpt>
      <trkpt lat="31.346101351082325" lon="-7.39067405462265">
        <ele>1626.6900000000001</ele>
        <time>2019-03-16T09:01:52Z</time>
      </trkpt>
      <trkpt lat="31.346200173720717" lon="-7.390649328008294">
        <ele>1623.3199999999999</ele>
        <time>2019-03-16T09:01:53Z</time>
      </trkpt>
      <trkpt lat="31.346305701881647" lon="-7.390638096258044">
        <ele>1622.3599999999999</ele>
        <time>2019-03-16T09:01:54Z</time>
      </trkpt>
      <trkpt lat="31.346415672451258" lon="-7.390641700476408">
        <ele>1621.8800000000001</ele>
        <time>2019-03-16T09:01:55Z</time>
      </trkpt>
      <trkpt lat="31.346526481211185" lon="-7.390668522566557">
        <ele>1620.9200000000001</ele>
        <time>2019-03-16T09:01:56Z</time>
      </trkpt>
      <trkpt lat="31.346638295799494" lon="-7.390712108463049">
        <ele>1620.9200000000001</ele>
        <time>2019-03-16T09:01:57Z</time>
      </trkpt>
      <trkpt lat="31.346753882244229" lon="-7.390763657167554">
        <ele>1620.4400000000001</ele>
        <time>2019-03-16T09:01:58Z</time>
      </trkpt>
      <trkpt lat="31.347393924370408" lon="-7.391030956059694">
        <ele>1619.96</ele>
        <time>2019-03-16T09:01:59Z</time>
      </trkpt>
      <trkpt lat="31.347476653754711" lon="-7.391027016565204">
        <ele>1619.96</ele>
        <time>2019-03-16T09:02:00Z</time>
      </trkpt>
      <trkpt lat="31.347553515806794" lon="-7.390998182818294">
        <ele>1619.96</ele>
        <time>2019-03-16T09:02:01Z</time>
      </trkpt>
      <trkpt lat="31.347626186907291" lon="-7.390945544466376">
        <ele>1619.96</ele>
        <time>2019-03-16T09:02:02Z</time>
      </trkpt>
      <trkpt lat="31.347691481932998" lon="-7.390867257490754">
        <ele>1619.96</ele>
        <time>2019-03-16T09:02:03Z</time>
      </trkpt>
      <trkpt lat="31.347743533551693" lon="-7.390767931938171">
        <ele>1619.96</ele>
        <time>2019-03-16T09:02:10Z</time>
      </trkpt>
      <trkpt lat="31.347780833020806" lon="-7.390654440969229">
        <ele>1619.48</ele>
        <time>2019-03-16T09:02:11Z</time>
      </trkpt>
      <trkpt lat="31.347813187167048" lon="-7.390545140951872">
        <ele>1619.48</ele>
        <time>2019-03-16T09:02:12Z</time>
      </trkpt>
      <trkpt lat="31.347852749750018" lon="-7.390446485951543">
        <ele>1619</ele>
        <time>2019-03-16T09:02:13Z</time>
      </trkpt>
      <trkpt lat="31.347906310111284" lon="-7.390372641384602">
        <ele>1618.52</ele>
        <time>2019-03-16T09:02:14Z</time>
      </trkpt>
      <trkpt lat="31.347976131364703" lon="-7.390335844829679">
        <ele>1618.04</ele>
        <time>2019-03-16T09:02:15Z</time>
      </trkpt>
      <trkpt lat="31.348055172711611" lon="-7.390338527038693">
        <ele>1617.5599999999999</ele>
        <time>2019-03-16T09:02:16Z</time>
      </trkpt>
      <trkpt lat="31.348129101097584" lon="-7.390380017459393">
        <ele>1617.5599999999999</ele>
        <time>2019-03-16T09:02:23Z</time>
      </trkpt>
      <trkpt lat="31.348188864067197" lon="-7.390442630276084">
        <ele>1617.0699999999999</ele>
        <time>2019-03-16T09:02:27Z</time>
      </trkpt>
      <trkpt lat="31.348233036696911" lon="-7.390526784583926">
        <ele>1617.0699999999999</ele>
        <time>2019-03-16T09:02:28Z</time>
      </trkpt>
      <trkpt lat="31.348265642300248" lon="-7.390627283602953">
        <ele>1617.0699999999999</ele>
        <time>2019-03-16T09:02:31Z</time>
      </trkpt>
      <trkpt lat="31.348297158256173" lon="-7.390738176181912">
        <ele>1616.5899999999999</ele>
        <time>2019-03-16T09:02:32Z</time>
      </trkpt>
      <trkpt lat="31.348381228744984" lon="-7.390996338799596">
        <ele>1616.5899999999999</ele>
        <time>2019-03-16T09:02:33Z</time>
      </trkpt>
      <trkpt lat="31.348441075533628" lon="-7.391125084832311">
        <ele>1616.5899999999999</ele>
        <time>2019-03-16T09:02:38Z</time>
      </trkpt>
      <trkpt lat="31.348509220406413" lon="-7.391236312687397">
        <ele>1616.1099999999999</ele>
        <time>2019-03-16T09:02:39Z</time>
      </trkpt>
      <trkpt lat="31.348580634221435" lon="-7.391327591612935">
        <ele>1616.1099999999999</ele>
        <time>2019-03-16T09:02:40Z</time>
      </trkpt>
      <trkpt lat="31.348659759387374" lon="-7.391398753970861">
        <ele>1617.0699999999999</ele>
        <time>2019-03-16T09:02:44Z</time>
      </trkpt>
      <trkpt lat="31.348740477114916" lon="-7.391449883580208">
        <ele>1617.5599999999999</ele>
        <time>2019-03-16T09:02:45Z</time>
      </trkpt>
      <trkpt lat="31.348826810717583" lon="-7.391482405364513">
        <ele>1617.5599999999999</ele>
        <time>2019-03-16T09:02:46Z</time>
      </trkpt>
      <trkpt lat="31.348921693861485" lon="-7.3914934694767">
        <ele>1617.0699999999999</ele>
        <time>2019-03-16T09:02:47Z</time>
      </trkpt>
      <trkpt lat="31.349024791270494" lon="-7.391488272696734">
        <ele>1617.0699999999999</ele>
        <time>2019-03-16T09:02:48Z</time>
      </trkpt>
      <trkpt lat="31.349133756011724" lon="-7.391479220241308">
        <ele>1617.0699999999999</ele>
        <time>2019-03-16T09:02:49Z</time>
      </trkpt>
      <trkpt lat="31.350294146686792" lon="-7.391323568299413">
        <ele>1616.1099999999999</ele>
        <time>2019-03-16T09:02:50Z</time>
      </trkpt>
      <trkpt lat="31.351126804947853" lon="-7.391254585236311">
        <ele>1616.1099999999999</ele>
        <time>2019-03-16T09:02:51Z</time>
      </trkpt>
      <trkpt lat="31.351269129663706" lon="-7.391284676268697">
        <ele>1615.6300000000001</ele>
        <time>2019-03-16T09:03:03Z</time>
      </trkpt>
      <trkpt lat="31.351405419409275" lon="-7.391346618533135">
        <ele>1613.23</ele>
        <time>2019-03-16T09:03:04Z</time>
      </trkpt>
      <trkpt lat="31.351536260917783" lon="-7.391443680971861">
        <ele>1612.27</ele>
        <time>2019-03-16T09:03:05Z</time>
      </trkpt>
      <trkpt lat="31.351664001122117" lon="-7.391559267416596">
        <ele>1611.79</ele>
        <time>2019-03-16T09:03:06Z</time>
      </trkpt>
      <trkpt lat="31.351930210366845" lon="-7.391778789460659">
        <ele>1611.3099999999999</ele>
        <time>2019-03-16T09:03:07Z</time>
      </trkpt>
      <trkpt lat="31.35207949206233" lon="-7.391862440854311">
        <ele>1610.3499999999999</ele>
        <time>2019-03-16T09:03:12Z</time>
      </trkpt>
      <trkpt lat="31.352242436259985" lon="-7.391918934881687">
        <ele>1609.8599999999999</ele>
        <time>2019-03-16T09:03:13Z</time>
      </trkpt>
      <trkpt lat="31.353933569043875" lon="-7.392135355621576">
        <ele>1609.8599999999999</ele>
        <time>2019-03-16T09:03:14Z</time>
      </trkpt>
      <trkpt lat="31.354899667203426" lon="-7.391741573810577">
        <ele>1609.3800000000001</ele>
        <time>2019-03-16T09:03:15Z</time>
      </trkpt>
      <trkpt lat="31.354994382709265" lon="-7.391635291278362">
        <ele>1609.3800000000001</ele>
        <time>2019-03-16T09:03:16Z</time>
      </trkpt>
      <trkpt lat="31.35507577098906" lon="-7.391516771167517">
        <ele>1609.3800000000001</ele>
        <time>2019-03-16T09:03:21Z</time>
      </trkpt>
      <trkpt lat="31.355153555050492" lon="-7.39139867015183">
        <ele>1608.9000000000001</ele>
        <time>2019-03-16T09:03:22Z</time>
      </trkpt>
      <trkpt lat="31.355243325233459" lon="-7.391296327114105">
        <ele>1608.9000000000001</ele>
        <time>2019-03-16T09:03:31Z</time>
      </trkpt>
      <trkpt lat="31.355353966355324" lon="-7.391222985461354">
        <ele>1608.9000000000001</ele>
        <time>2019-03-16T09:03:36Z</time>
      </trkpt>
      <trkpt lat="31.355483718216419" lon="-7.391177974641323">
        <ele>1608.9000000000001</ele>
        <time>2019-03-16T09:03:37Z</time>
      </trkpt>
      <trkpt lat="31.35562302544713" lon="-7.391155008226633">
        <ele>1608.4200000000001</ele>
        <time>2019-03-16T09:03:38Z</time>
      </trkpt>
      <trkpt lat="31.355767026543617" lon="-7.391146626323462">
        <ele>1607.9400000000001</ele>
        <time>2019-03-16T09:03:39Z</time>
      </trkpt>
      <trkpt lat="31.355913206934929" lon="-7.391147883608937">
        <ele>1607.46</ele>
        <time>2019-03-16T09:03:40Z</time>
      </trkpt>
      <trkpt lat="31.35605888441205" lon="-7.391165569424629">
        <ele>1606.98</ele>
        <time>2019-03-16T09:03:43Z</time>
      </trkpt>
      <trkpt lat="31.356201209127903" lon="-7.391200438141823">
        <ele>1606.5</ele>
        <time>2019-03-16T09:03:50Z</time>
      </trkpt>
      <trkpt lat="31.356336828321218" lon="-7.391249807551503">
        <ele>1606.5</ele>
        <time>2019-03-16T09:03:51Z</time>
      </trkpt>
      <trkpt lat="31.356464484706521" lon="-7.391310073435307">
        <ele>1606.02</ele>
        <time>2019-03-16T09:03:52Z</time>
      </trkpt>
      <trkpt lat="31.356587866321206" lon="-7.391379727050662">
        <ele>1605.54</ele>
        <time>2019-03-16T09:03:53Z</time>
      </trkpt>
      <trkpt lat="31.356969494372606" lon="-7.391580138355494">
        <ele>1604.5799999999999</ele>
        <time>2019-03-16T09:03:54Z</time>
      </trkpt>
      <trkpt lat="31.357102012261748" lon="-7.391620790585876">
        <ele>1604.0999999999999</ele>
        <time>2019-03-16T09:03:55Z</time>
      </trkpt>
      <trkpt lat="31.357242744415998" lon="-7.391638979315758">
        <ele>1603.6199999999999</ele>
        <time>2019-03-16T09:03:56Z</time>
      </trkpt>
      <trkpt lat="31.357385404407978" lon="-7.39164350554347">
        <ele>1601.6900000000001</ele>
        <time>2019-03-16T09:03:57Z</time>
      </trkpt>
      <trkpt lat="31.357527896761894" lon="-7.391632860526443">
        <ele>1598.3299999999999</ele>
        <time>2019-03-16T09:03:58Z</time>
      </trkpt>
      <trkpt lat="31.357668545097113" lon="-7.391610313206911">
        <ele>1598.3299999999999</ele>
        <time>2019-03-16T09:03:59Z</time>
      </trkpt>
      <trkpt lat="31.358345970511436" lon="-7.391478382050991">
        <ele>1597.8499999999999</ele>
        <time>2019-03-16T09:04:00Z</time>
      </trkpt>
      <trkpt lat="31.358634391799569" lon="-7.391407806426287">
        <ele>1597.3699999999999</ele>
        <time>2019-03-16T09:04:01Z</time>
      </trkpt>
      <trkpt lat="31.358675630763173" lon="-7.391382828354836">
        <ele>1596.8900000000001</ele>
        <time>2019-03-16T09:04:09Z</time>
      </trkpt>
      <trkpt lat="31.358985677361488" lon="-7.391170766204596">
        <ele>1596.8900000000001</ele>
        <time>2019-03-16T09:04:10Z</time>
      </trkpt>
      <trkpt lat="31.359782125800848" lon="-7.390580261126161">
        <ele>1596.8900000000001</ele>
        <time>2019-03-16T09:04:11Z</time>
      </trkpt>
      <trkpt lat="31.359860077500343" lon="-7.390473894774914">
        <ele>1596.8900000000001</ele>
        <time>2019-03-16T09:04:12Z</time>
      </trkpt>
      <trkpt lat="31.359998965635896" lon="-7.390264514833689">
        <ele>1596.4100000000001</ele>
        <time>2019-03-16T09:04:13Z</time>
      </trkpt>
      <trkpt lat="31.360082700848579" lon="-7.390166781842709">
        <ele>1595.9300000000001</ele>
        <time>2019-03-16T09:04:14Z</time>
      </trkpt>
      <trkpt lat="31.360180769115686" lon="-7.390079358592629">
        <ele>1595.9300000000001</ele>
        <time>2019-03-16T09:04:15Z</time>
      </trkpt>
      <trkpt lat="31.360294260084629" lon="-7.390005262568593">
        <ele>1595.45</ele>
        <time>2019-03-16T09:04:16Z</time>
      </trkpt>
      <trkpt lat="31.360425017774105" lon="-7.389951115474105">
        <ele>1595.45</ele>
        <time>2019-03-16T09:04:17Z</time>
      </trkpt>
      <trkpt lat="31.36056742630899" lon="-7.389922197908163">
        <ele>1594.96</ele>
        <time>2019-03-16T09:04:18Z</time>
      </trkpt>
      <trkpt lat="31.360716708004475" lon="-7.389915995299816">
        <ele>1594.48</ele>
        <time>2019-03-16T09:04:19Z</time>
      </trkpt>
      <trkpt lat="31.360867582261562" lon="-7.389928819611669">
        <ele>1594</ele>
        <time>2019-03-16T09:04:23Z</time>
      </trkpt>
      <trkpt lat="31.361016696318984" lon="-7.38995966501534">
        <ele>1594</ele>
        <time>2019-03-16T09:04:24Z</time>
      </trkpt>
      <trkpt lat="31.361156422644854" lon="-7.39000266417861">
        <ele>1592.5599999999999</ele>
        <time>2019-03-16T09:04:25Z</time>
      </trkpt>
      <trkpt lat="31.36128131300211" lon="-7.390062427148223">
        <ele>1592.5599999999999</ele>
        <time>2019-03-16T09:04:26Z</time>
      </trkpt>
      <trkpt lat="31.361390529200435" lon="-7.390143228694797">
        <ele>1592.0799999999999</ele>
        <time>2019-03-16T09:04:27Z</time>
      </trkpt>
      <trkpt lat="31.361487759277225" lon="-7.390246661379933">
        <ele>1592.0799999999999</ele>
        <time>2019-03-16T09:04:28Z</time>
      </trkpt>
      <trkpt lat="31.36157501488924" lon="-7.390368953347206">
        <ele>1591.5999999999999</ele>
        <time>2019-03-16T09:04:29Z</time>
      </trkpt>
      <trkpt lat="31.361659336835146" lon="-7.390502979978919">
        <ele>1591.5999999999999</ele>
        <time>2019-03-16T09:04:30Z</time>
      </trkpt>
      <trkpt lat="31.362304743379354" lon="-7.39154820330441">
        <ele>1591.1199999999999</ele>
        <time>2019-03-16T09:04:31Z</time>
      </trkpt>
      <trkpt lat="31.36241496540606" lon="-7.391659934073687">
        <ele>1587.27</ele>
        <time>2019-03-16T09:04:32Z</time>
      </trkpt>
      <trkpt lat="31.362540693953633" lon="-7.391739981248975">
        <ele>1587.75</ele>
        <time>2019-03-16T09:04:33Z</time>
      </trkpt>
      <trkpt lat="31.362678408622742" lon="-7.39178373478353">
        <ele>1587.27</ele>
        <time>2019-03-16T09:04:34Z</time>
      </trkpt>
      <trkpt lat="31.362818889319897" lon="-7.391787339001894">
        <ele>1586.79</ele>
        <time>2019-03-16T09:04:35Z</time>
      </trkpt>
      <trkpt lat="31.362954759970307" lon="-7.391760349273682">
        <ele>1586.3099999999999</ele>
        <time>2019-03-16T09:04:36Z</time>
      </trkpt>
      <trkpt lat="31.363090211525559" lon="-7.391719529405236">
        <ele>1585.8299999999999</ele>
        <time>2019-03-16T09:04:37Z</time>
      </trkpt>
      <trkpt lat="31.364041976630688" lon="-7.391454996541143">
        <ele>1582.47</ele>
        <time>2019-03-16T09:04:40Z</time>
      </trkpt>
      <trkpt lat="31.364504657685757" lon="-7.391783064231277">
        <ele>1581.99</ele>
        <time>2019-03-16T09:04:41Z</time>
      </trkpt>
      <trkpt lat="31.364621166139841" lon="-7.391893453896046">
        <ele>1581.51</ele>
        <time>2019-03-16T09:04:42Z</time>
      </trkpt>
      <trkpt lat="31.365026598796248" lon="-7.392181204631925">
        <ele>1581.03</ele>
        <time>2019-03-16T09:04:43Z</time>
      </trkpt>
      <trkpt lat="31.365189459174871" lon="-7.392239710316062">
        <ele>1580.54</ele>
        <time>2019-03-16T09:04:44Z</time>
      </trkpt>
      <trkpt lat="31.36536430567503" lon="-7.392274998128414">
        <ele>1580.54</ele>
        <time>2019-03-16T09:04:45Z</time>
      </trkpt>
      <trkpt lat="31.366254799067974" lon="-7.39237985573709">
        <ele>1580.0599999999999</ele>
        <time>2019-03-16T09:04:46Z</time>
      </trkpt>
      <trkpt lat="31.366423778235912" lon="-7.392370216548443">
        <ele>1579.5799999999999</ele>
        <time>2019-03-16T09:04:53Z</time>
      </trkpt>
      <trkpt lat="31.366586554795504" lon="-7.392344819381833">
        <ele>1579.0999999999999</ele>
        <time>2019-03-16T09:04:54Z</time>
      </trkpt>
      <trkpt lat="31.367139592766762" lon="-7.392220180481672">
        <ele>1579.0999999999999</ele>
        <time>2019-03-16T09:04:55Z</time>
      </trkpt>
      <trkpt lat="31.367255933582783" lon="-7.392148096114397">
        <ele>1578.6199999999999</ele>
        <time>2019-03-16T09:04:56Z</time>
      </trkpt>
      <trkpt lat="31.367359198629856" lon="-7.392045836895704">
        <ele>1578.6199999999999</ele>
        <time>2019-03-16T09:04:57Z</time>
      </trkpt>
      <trkpt lat="31.367445029318333" lon="-7.391917342320085">
        <ele>1578.6199999999999</ele>
        <time>2019-03-16T09:04:58Z</time>
      </trkpt>
      <trkpt lat="31.367507055401802" lon="-7.391763115301728">
        <ele>1578.1400000000001</ele>
        <time>2019-03-16T09:04:59Z</time>
      </trkpt>
      <trkpt lat="31.367544606328011" lon="-7.391587262973189">
        <ele>1578.1400000000001</ele>
        <time>2019-03-16T09:05:00Z</time>
      </trkpt>
      <trkpt lat="31.367567237466574" lon="-7.391397580504417">
        <ele>1577.1800000000001</ele>
        <time>2019-03-16T09:05:07Z</time>
      </trkpt>
      <trkpt lat="31.367587186396122" lon="-7.391200689598918">
        <ele>1575.74</ele>
        <time>2019-03-16T09:05:20Z</time>
      </trkpt>
      <trkpt lat="31.367901172488928" lon="-7.388878567144275">
        <ele>1575.74</ele>
        <time>2019-03-16T09:05:23Z</time>
      </trkpt>
      <trkpt lat="31.367970574647188" lon="-7.388754263520241">
        <ele>1575.74</ele>
        <time>2019-03-16T09:05:27Z</time>
      </trkpt>
      <trkpt lat="31.368061518296599" lon="-7.388642365112901">
        <ele>1575.74</ele>
        <time>2019-03-16T09:05:35Z</time>
      </trkpt>
      <trkpt lat="31.368167800828815" lon="-7.388539267703891">
        <ele>1575.74</ele>
        <time>2019-03-16T09:05:39Z</time>
      </trkpt>
      <trkpt lat="31.36828288435936" lon="-7.388438517227769">
        <ele>1574.78</ele>
        <time>2019-03-16T09:05:40Z</time>
      </trkpt>
      <trkpt lat="31.368821254000068" lon="-7.387998383492231">
        <ele>1574.3</ele>
        <time>2019-03-16T09:05:41Z</time>
      </trkpt>
      <trkpt lat="31.36893616989255" lon="-7.387954127043486">
        <ele>1565.1600000000001</ele>
        <time>2019-03-16T09:05:42Z</time>
      </trkpt>
      <trkpt lat="31.369059467688203" lon="-7.387938620522618">
        <ele>1557.95</ele>
        <time>2019-03-16T09:05:43Z</time>
      </trkpt>
      <trkpt lat="31.369187375530601" lon="-7.38794943317771">
        <ele>1556.51</ele>
        <time>2019-03-16T09:05:47Z</time>
      </trkpt>
      <trkpt lat="31.369314277544618" lon="-7.387983296066523">
        <ele>1555.0699999999999</ele>
        <time>2019-03-16T09:05:48Z</time>
      </trkpt>
      <trkpt lat="31.369763882830739" lon="-7.388536334037781">
        <ele>1553.6300000000001</ele>
        <time>2019-03-16T09:05:49Z</time>
      </trkpt>
      <trkpt lat="31.369815682992339" lon="-7.388714198023081">
        <ele>1552.1900000000001</ele>
        <time>2019-03-16T09:05:50Z</time>
      </trkpt>
      <trkpt lat="31.370392860844731" lon="-7.390509769320488">
        <ele>1547.8599999999999</ele>
        <time>2019-03-16T09:05:51Z</time>
      </trkpt>
      <trkpt lat="31.370709277689457" lon="-7.391291884705424">
        <ele>1539.6900000000001</ele>
        <time>2019-03-16T09:05:52Z</time>
      </trkpt>
      <trkpt lat="31.370732160285115" lon="-7.391432784497738">
        <ele>1538.73</ele>
        <time>2019-03-16T09:05:53Z</time>
      </trkpt>
      <trkpt lat="31.370729645714164" lon="-7.39157753996551">
        <ele>1537.77</ele>
        <time>2019-03-16T09:05:57Z</time>
      </trkpt>
      <trkpt lat="31.370699973776937" lon="-7.391724390909076">
        <ele>1536.8</ele>
        <time>2019-03-16T09:05:58Z</time>
      </trkpt>
      <trkpt lat="31.370644737035036" lon="-7.391866715624929">
        <ele>1535.3599999999999</ele>
        <time>2019-03-16T09:05:59Z</time>
      </trkpt>
      <trkpt lat="31.370332175865769" lon="-7.392215402796865">
        <ele>1533.9200000000001</ele>
        <time>2019-03-16T09:06:05Z</time>
      </trkpt>
      <trkpt lat="31.369502451270819" lon="-7.392891990020871">
        <ele>1533.4400000000001</ele>
        <time>2019-03-16T09:06:06Z</time>
      </trkpt>
      <trkpt lat="31.369428941980004" lon="-7.393007492646575">
        <ele>1532.48</ele>
        <time>2019-03-16T09:06:07Z</time>
      </trkpt>
      <trkpt lat="31.369374543428421" lon="-7.3931391723454">
        <ele>1531.52</ele>
        <time>2019-03-16T09:06:08Z</time>
      </trkpt>
      <trkpt lat="31.36934369802475" lon="-7.393284933641553">
        <ele>1531.04</ele>
        <time>2019-03-16T09:06:09Z</time>
      </trkpt>
      <trkpt lat="31.369339423254132" lon="-7.393439915031195">
        <ele>1530.0799999999999</ele>
        <time>2019-03-16T09:06:10Z</time>
      </trkpt>
      <trkpt lat="31.36935786344111" lon="-7.393595315515995">
        <ele>1529.5899999999999</ele>
        <time>2019-03-16T09:06:17Z</time>
      </trkpt>
      <trkpt lat="31.369398767128587" lon="-7.393745016306639">
        <ele>1524.79</ele>
        <time>2019-03-16T09:06:18Z</time>
      </trkpt>
      <trkpt lat="31.369463475421071" lon="-7.393888179212809">
        <ele>1524.3099999999999</ele>
        <time>2019-03-16T09:06:19Z</time>
      </trkpt>
      <trkpt lat="31.369551485404372" lon="-7.394021116197109">
        <ele>1523.8299999999999</ele>
        <time>2019-03-16T09:06:20Z</time>
      </trkpt>
      <trkpt lat="31.369661288335919" lon="-7.394137792289257">
        <ele>1523.3499999999999</ele>
        <time>2019-03-16T09:06:21Z</time>
      </trkpt>
      <trkpt lat="31.369788106530905" lon="-7.394239632412791">
        <ele>1522.8699999999999</ele>
        <time>2019-03-16T09:06:22Z</time>
      </trkpt>
      <trkpt lat="31.369924061000347" lon="-7.394339796155691">
        <ele>1522.8699999999999</ele>
        <time>2019-03-16T09:06:25Z</time>
      </trkpt>
      <trkpt lat="31.370981270447373" lon="-7.395181506872177">
        <ele>1521.9000000000001</ele>
        <time>2019-03-16T09:06:26Z</time>
      </trkpt>
      <trkpt lat="31.3710593059659" lon="-7.395302541553974">
        <ele>1521.4200000000001</ele>
        <time>2019-03-16T09:06:27Z</time>
      </trkpt>
      <trkpt lat="31.37111546471715" lon="-7.395438998937607">
        <ele>1520.46</ele>
        <time>2019-03-16T09:06:28Z</time>
      </trkpt>
      <trkpt lat="31.371146813035011" lon="-7.395586771890521">
        <ele>1519.5</ele>
        <time>2019-03-16T09:06:29Z</time>
      </trkpt>
      <trkpt lat="31.371155194938183" lon="-7.395739238709211">
        <ele>1519.02</ele>
        <time>2019-03-16T09:06:30Z</time>
      </trkpt>
      <trkpt lat="31.371137090027332" lon="-7.395890615880489">
        <ele>1518.54</ele>
        <time>2019-03-16T09:06:35Z</time>
      </trkpt>
      <trkpt lat="31.371090905740857" lon="-7.396035371348262">
        <ele>1518.54</ele>
        <time>2019-03-16T09:06:36Z</time>
      </trkpt>
      <trkpt lat="31.37102116830647" lon="-7.396173002198339">
        <ele>1518.54</ele>
        <time>2019-03-16T09:06:37Z</time>
      </trkpt>
      <trkpt lat="31.370928464457393" lon="-7.396299820393324">
        <ele>1518.54</ele>
        <time>2019-03-16T09:06:38Z</time>
      </trkpt>
      <trkpt lat="31.370822852477431" lon="-7.396418005228043">
        <ele>1518.0599999999999</ele>
        <time>2019-03-16T09:06:39Z</time>
      </trkpt>
      <trkpt lat="31.370709277689457" lon="-7.396534010767937">
        <ele>1518.0599999999999</ele>
        <time>2019-03-16T09:06:40Z</time>
      </trkpt>
      <trkpt lat="31.370307533070445" lon="-7.397024352103472">
        <ele>1517.5799999999999</ele>
        <time>2019-03-16T09:06:41Z</time>
      </trkpt>
      <trkpt lat="31.370249278843403" lon="-7.397159049287438">
        <ele>1517.5799999999999</ele>
        <time>2019-03-16T09:06:42Z</time>
      </trkpt>
      <trkpt lat="31.370217762887478" lon="-7.397299529984593">
        <ele>1518.0599999999999</ele>
        <time>2019-03-16T09:06:43Z</time>
      </trkpt>
      <trkpt lat="31.370210470631719" lon="-7.397444285452366">
        <ele>1518.0599999999999</ele>
        <time>2019-03-16T09:06:45Z</time>
      </trkpt>
      <trkpt lat="31.370229916647077" lon="-7.397591471672058">
        <ele>1518.54</ele>
        <time>2019-03-16T09:06:46Z</time>
      </trkpt>
      <trkpt lat="31.370273921638727" lon="-7.397734802216291">
        <ele>1519.02</ele>
        <time>2019-03-16T09:06:47Z</time>
      </trkpt>
      <trkpt lat="31.370336702093482" lon="-7.397869164124131">
        <ele>1519.02</ele>
        <time>2019-03-16T09:06:48Z</time>
      </trkpt>
      <trkpt lat="31.370418425649405" lon="-7.397986175492406">
        <ele>1519.02</ele>
        <time>2019-03-16T09:06:49Z</time>
      </trkpt>
      <trkpt lat="31.37051104567945" lon="-7.398071503266692">
        <ele>1519.02</ele>
        <time>2019-03-16T09:06:50Z</time>
      </trkpt>
      <trkpt lat="31.370607102289796" lon="-7.39813688211143">
        <ele>1518.54</ele>
        <time>2019-03-16T09:06:51Z</time>
      </trkpt>
      <trkpt lat="31.370705254375935" lon="-7.398186670616269">
        <ele>1518.54</ele>
        <time>2019-03-16T09:07:00Z</time>
      </trkpt>
      <trkpt lat="31.370804915204644" lon="-7.398214498534799">
        <ele>1518.54</ele>
        <time>2019-03-16T09:07:02Z</time>
      </trkpt>
      <trkpt lat="31.370908934623003" lon="-7.398213157430291">
        <ele>1518.54</ele>
        <time>2019-03-16T09:07:03Z</time>
      </trkpt>
      <trkpt lat="31.371015217155218" lon="-7.398183653131127">
        <ele>1518.54</ele>
        <time>2019-03-16T09:07:05Z</time>
      </trkpt>
      <trkpt lat="31.371127450838685" lon="-7.398138390854001">
        <ele>1518.54</ele>
        <time>2019-03-16T09:07:09Z</time>
      </trkpt>
      <trkpt lat="31.371441604569554" lon="-7.398051051422954">
        <ele>1518.54</ele>
        <time>2019-03-16T09:07:10Z</time>
      </trkpt>
      <trkpt lat="31.371528189629316" lon="-7.398072425276041">
        <ele>1516.6199999999999</ele>
        <time>2019-03-16T09:07:11Z</time>
      </trkpt>
      <trkpt lat="31.371598597615957" lon="-7.398127745836973">
        <ele>1516.6199999999999</ele>
        <time>2019-03-16T09:07:12Z</time>
      </trkpt>
      <trkpt lat="31.371643859893084" lon="-7.398215839639306">
        <ele>1516.6199999999999</ele>
        <time>2019-03-16T09:07:13Z</time>
      </trkpt>
      <trkpt lat="31.371663389727473" lon="-7.398316338658333">
        <ele>1517.0999999999999</ele>
        <time>2019-03-16T09:07:14Z</time>
      </trkpt>
      <trkpt lat="31.371667999774218" lon="-7.398412898182869">
        <ele>1517.5799999999999</ele>
        <time>2019-03-16T09:07:15Z</time>
      </trkpt>
      <trkpt lat="31.371664144098759" lon="-7.398504596203566">
        <ele>1518.0599999999999</ele>
        <time>2019-03-16T09:07:18Z</time>
      </trkpt>
      <trkpt lat="31.371622402220964" lon="-7.399126952514052">
        <ele>1518.0599999999999</ele>
        <time>2019-03-16T09:07:19Z</time>
      </trkpt>
      <trkpt lat="31.371604213491082" lon="-7.399236001074314">
        <ele>1518.0599999999999</ele>
        <time>2019-03-16T09:07:20Z</time>
      </trkpt>
      <trkpt lat="31.371586946770549" lon="-7.399343540892005">
        <ele>1519.98</ele>
        <time>2019-03-16T09:07:21Z</time>
      </trkpt>
      <trkpt lat="31.371582504361868" lon="-7.399449739605188">
        <ele>1523.8299999999999</ele>
        <time>2019-03-16T09:07:22Z</time>
      </trkpt>
      <trkpt lat="31.371592814102769" lon="-7.399558201432228">
        <ele>1522.8699999999999</ele>
        <time>2019-03-16T09:07:26Z</time>
      </trkpt>
      <trkpt lat="31.371618881821632" lon="-7.39966968074441">
        <ele>1522.8699999999999</ele>
        <time>2019-03-16T09:07:27Z</time>
      </trkpt>
      <trkpt lat="31.371654840186238" lon="-7.399781662970781">
        <ele>1524.3099999999999</ele>
        <time>2019-03-16T09:07:28Z</time>
      </trkpt>
      <trkpt lat="31.371697504073381" lon="-7.399887274950743">
        <ele>1524.3099999999999</ele>
        <time>2019-03-16T09:07:29Z</time>
      </trkpt>
      <trkpt lat="31.371884504333138" lon="-7.400310812518001">
        <ele>1524.3099999999999</ele>
        <time>2019-03-16T09:07:30Z</time>
      </trkpt>
      <trkpt lat="31.371901603415608" lon="-7.400377867743373">
        <ele>1524.3099999999999</ele>
        <time>2019-03-16T09:07:31Z</time>
      </trkpt>
      <trkpt lat="31.371922641992569" lon="-7.400469398126006">
        <ele>1524.3099999999999</ele>
        <time>2019-03-16T09:07:32Z</time>
      </trkpt>
      <trkpt lat="31.371998330578208" lon="-7.400752790272236">
        <ele>1524.3099999999999</ele>
        <time>2019-03-16T09:07:33Z</time>
      </trkpt>
      <trkpt lat="31.372324554249644" lon="-7.401597267016769">
        <ele>1523.3499999999999</ele>
        <time>2019-03-16T09:07:34Z</time>
      </trkpt>
      <trkpt lat="31.37248607352376" lon="-7.402030695229769">
        <ele>1522.8699999999999</ele>
        <time>2019-03-16T09:07:35Z</time>
      </trkpt>
      <trkpt lat="31.372509878128767" lon="-7.40212943404913">
        <ele>1522.8699999999999</ele>
        <time>2019-03-16T09:07:36Z</time>
      </trkpt>
      <trkpt lat="31.372525300830603" lon="-7.402230519801378">
        <ele>1522.3900000000001</ele>
        <time>2019-03-16T09:07:37Z</time>
      </trkpt>
      <trkpt lat="31.372528402134776" lon="-7.402340658009052">
        <ele>1521.9000000000001</ele>
        <time>2019-03-16T09:07:44Z</time>
      </trkpt>
      <trkpt lat="31.372521528974175" lon="-7.40245339460671">
        <ele>1521.4200000000001</ele>
        <time>2019-03-16T09:07:51Z</time>
      </trkpt>
      <trkpt lat="31.372397560626268" lon="-7.402869556099176">
        <ele>1520.9400000000001</ele>
        <time>2019-03-16T09:08:01Z</time>
      </trkpt>
      <trkpt lat="31.372332097962499" lon="-7.402952704578638">
        <ele>1519.02</ele>
        <time>2019-03-16T09:08:10Z</time>
      </trkpt>
      <trkpt lat="31.372247189283371" lon="-7.403017664328218">
        <ele>1518.54</ele>
        <time>2019-03-16T09:08:11Z</time>
      </trkpt>
      <trkpt lat="31.372146857902408" lon="-7.403062004595995">
        <ele>1518.0599999999999</ele>
        <time>2019-03-16T09:08:12Z</time>
      </trkpt>
      <trkpt lat="31.372038144618273" lon="-7.403104919940233">
        <ele>1513.25</ele>
        <time>2019-03-16T09:08:13Z</time>
      </trkpt>
      <trkpt lat="31.37193295173347" lon="-7.403158815577626">
        <ele>1512.29</ele>
        <time>2019-03-16T09:08:14Z</time>
      </trkpt>
      <trkpt lat="31.371831698343158" lon="-7.403223188593984">
        <ele>1510.8499999999999</ele>
        <time>2019-03-16T09:08:15Z</time>
      </trkpt>
      <trkpt lat="31.371496673673391" lon="-7.403611438348889">
        <ele>1509.8900000000001</ele>
        <time>2019-03-16T09:08:25Z</time>
      </trkpt>
      <trkpt lat="31.371435737237334" lon="-7.403735658153892">
        <ele>1508.9300000000001</ele>
        <time>2019-03-16T09:08:28Z</time>
      </trkpt>
      <trkpt lat="31.371372705325484" lon="-7.40387094207108">
        <ele>1507.48</ele>
        <time>2019-03-16T09:08:29Z</time>
      </trkpt>
      <trkpt lat="31.371006919071078" lon="-7.404694631695747">
        <ele>1500.76</ele>
        <time>2019-03-16T09:08:30Z</time>
      </trkpt>
      <trkpt lat="31.370987724512815" lon="-7.404833436012268">
        <ele>1499.79</ele>
        <time>2019-03-16T09:08:31Z</time>
      </trkpt>
      <trkpt lat="31.370991664007306" lon="-7.404980957508087">
        <ele>1498.3499999999999</ele>
        <time>2019-03-16T09:08:32Z</time>
      </trkpt>
      <trkpt lat="31.37101823464036" lon="-7.405135938897729">
        <ele>1497.3900000000001</ele>
        <time>2019-03-16T09:08:33Z</time>
      </trkpt>
      <trkpt lat="31.371060898527503" lon="-7.40529527887702">
        <ele>1496.4300000000001</ele>
        <time>2019-03-16T09:08:36Z</time>
      </trkpt>
      <trkpt lat="31.371111357584596" lon="-7.405454954132438">
        <ele>1495.47</ele>
        <time>2019-03-16T09:08:44Z</time>
      </trkpt>
      <trkpt lat="31.371441353112459" lon="-7.406426500529051">
        <ele>1492.5799999999999</ele>
        <time>2019-03-16T09:08:54Z</time>
      </trkpt>
      <trkpt lat="31.371460296213627" lon="-7.406557258218527">
        <ele>1491.6199999999999</ele>
        <time>2019-03-16T09:08:55Z</time>
      </trkpt>
      <trkpt lat="31.37145945802331" lon="-7.406692206859589">
        <ele>1490.6600000000001</ele>
        <time>2019-03-16T09:08:56Z</time>
      </trkpt>
      <trkpt lat="31.371434228494763" lon="-7.406827993690968">
        <ele>1489.7</ele>
        <time>2019-03-16T09:08:57Z</time>
      </trkpt>
      <trkpt lat="31.371383937075734" lon="-7.406961936503649">
        <ele>1488.74</ele>
        <time>2019-03-16T09:08:58Z</time>
      </trkpt>
      <trkpt lat="31.371320988982916" lon="-7.407098477706313">
        <ele>1487.78</ele>
        <time>2019-03-16T09:08:59Z</time>
      </trkpt>
      <trkpt lat="31.371146142482758" lon="-7.407509526237845">
        <ele>1483.45</ele>
        <time>2019-03-16T09:09:08Z</time>
      </trkpt>
      <trkpt lat="31.371111944317818" lon="-7.407655538991094">
        <ele>1483.45</ele>
        <time>2019-03-16T09:09:09Z</time>
      </trkpt>
      <trkpt lat="31.371101634576917" lon="-7.407805658876896">
        <ele>1483.45</ele>
        <time>2019-03-16T09:09:10Z</time>
      </trkpt>
      <trkpt lat="31.371116386726499" lon="-7.407962484285235">
        <ele>1482.97</ele>
        <time>2019-03-16T09:09:11Z</time>
      </trkpt>
      <trkpt lat="31.371146058663726" lon="-7.408123584464192">
        <ele>1482.49</ele>
        <time>2019-03-16T09:09:12Z</time>
      </trkpt>
      <trkpt lat="31.371183441951871" lon="-7.408287283033133">
        <ele>1482.49</ele>
        <time>2019-03-16T09:09:13Z</time>
      </trkpt>
      <trkpt lat="31.371372956782579" lon="-7.409035284072161">
        <ele>1482.49</ele>
        <time>2019-03-16T09:09:14Z</time>
      </trkpt>
      <trkpt lat="31.371433222666383" lon="-7.409141818061471">
        <ele>1482.01</ele>
        <time>2019-03-16T09:09:15Z</time>
      </trkpt>
      <trkpt lat="31.371512766927481" lon="-7.409232677891851">
        <ele>1482.01</ele>
        <time>2019-03-16T09:09:16Z</time>
      </trkpt>
      <trkpt lat="31.371608152985573" lon="-7.409308953210712">
        <ele>1481.53</ele>
        <time>2019-03-16T09:09:19Z</time>
      </trkpt>
      <trkpt lat="31.371717620640993" lon="-7.409379109740257">
        <ele>1481.53</ele>
        <time>2019-03-16T09:09:22Z</time>
      </trkpt>
      <trkpt lat="31.371831614524126" lon="-7.40944029763341">
        <ele>1481.53</ele>
        <time>2019-03-16T09:09:23Z</time>
      </trkpt>
      <trkpt lat="31.371951308101416" lon="-7.409480782225728">
        <ele>1481.53</ele>
        <time>2019-03-16T09:09:24Z</time>
      </trkpt>
      <trkpt lat="31.372081227600574" lon="-7.409496624022722">
        <ele>1481.53</ele>
        <time>2019-03-16T09:09:25Z</time>
      </trkpt>
      <trkpt lat="31.372209973633289" lon="-7.409504754468799">
        <ele>1481.53</ele>
        <time>2019-03-16T09:09:26Z</time>
      </trkpt>
      <trkpt lat="31.372428322210908" lon="-7.409531157463789">
        <ele>1481.53</ele>
        <time>2019-03-16T09:09:27Z</time>
      </trkpt>
      <trkpt lat="31.372505016624928" lon="-7.409561667591333">
        <ele>1480.0899999999999</ele>
        <time>2019-03-16T09:09:28Z</time>
      </trkpt>
      <trkpt lat="31.37256377376616" lon="-7.409610785543919">
        <ele>1480.5699999999999</ele>
        <time>2019-03-16T09:09:29Z</time>
      </trkpt>
      <trkpt lat="31.372606353834271" lon="-7.409682450816035">
        <ele>1480.0899999999999</ele>
        <time>2019-03-16T09:09:30Z</time>
      </trkpt>
      <trkpt lat="31.372628901153803" lon="-7.409776160493493">
        <ele>1479.1300000000001</ele>
        <time>2019-03-16T09:09:35Z</time>
      </trkpt>
      <trkpt lat="31.372631164267659" lon="-7.409880682826042">
        <ele>1478.1600000000001</ele>
        <time>2019-03-16T09:09:36Z</time>
      </trkpt>
      <trkpt lat="31.372624458745122" lon="-7.40999098867178">
        <ele>1478.1600000000001</ele>
        <time>2019-03-16T09:09:37Z</time>
      </trkpt>
      <trkpt lat="31.372647257521749" lon="-7.41093504242599">
        <ele>1478.1600000000001</ele>
        <time>2019-03-16T09:09:41Z</time>
      </trkpt>
      <trkpt lat="31.372694447636604" lon="-7.411094298586249">
        <ele>1478.6500000000001</ele>
        <time>2019-03-16T09:09:42Z</time>
      </trkpt>
      <trkpt lat="31.372734261676669" lon="-7.411171579733491">
        <ele>1478.6500000000001</ele>
        <time>2019-03-16T09:09:43Z</time>
      </trkpt>
      <trkpt lat="31.372843310236931" lon="-7.411348354071379">
        <ele>1479.1300000000001</ele>
        <time>2019-03-16T09:09:44Z</time>
      </trkpt>
      <trkpt lat="31.37302896939218" lon="-7.411731909960508">
        <ele>1479.6099999999999</ele>
        <time>2019-03-16T09:09:45Z</time>
      </trkpt>
      <trkpt lat="31.373074315488338" lon="-7.411782536655664">
        <ele>1480.0899999999999</ele>
        <time>2019-03-16T09:09:49Z</time>
      </trkpt>
      <trkpt lat="31.373112704604864" lon="-7.411804832518101">
        <ele>1480.0899999999999</ele>
        <time>2019-03-16T09:09:50Z</time>
      </trkpt>
      <trkpt lat="31.373145310208201" lon="-7.41181799210608">
        <ele>1480.5699999999999</ele>
        <time>2019-03-16T09:09:51Z</time>
      </trkpt>
      <trkpt lat="31.373183028772473" lon="-7.411825703456998">
        <ele>1480.5699999999999</ele>
        <time>2019-03-16T09:09:52Z</time>
      </trkpt>
      <trkpt lat="31.373225441202521" lon="-7.411824446171522">
        <ele>1481.05</ele>
        <time>2019-03-16T09:09:53Z</time>
      </trkpt>
      <trkpt lat="31.373272212222219" lon="-7.41182092577219">
        <ele>1482.01</ele>
        <time>2019-03-16T09:09:54Z</time>
      </trkpt>
      <trkpt lat="31.373481340706348" lon="-7.411810029298067">
        <ele>1482.01</ele>
        <time>2019-03-16T09:09:55Z</time>
      </trkpt>
      <trkpt lat="31.373565830290318" lon="-7.411829391494393">
        <ele>1482.01</ele>
        <time>2019-03-16T09:09:56Z</time>
      </trkpt>
      <trkpt lat="31.373648978769779" lon="-7.411869959905744">
        <ele>1482.01</ele>
        <time>2019-03-16T09:09:57Z</time>
      </trkpt>
      <trkpt lat="31.373737743124366" lon="-7.411927040666342">
        <ele>1482.01</ele>
        <time>2019-03-16T09:09:59Z</time>
      </trkpt>
      <trkpt lat="31.373836062848568" lon="-7.411990324035287">
        <ele>1482.01</ele>
        <time>2019-03-16T09:10:00Z</time>
      </trkpt>
      <trkpt lat="31.374280890449882" lon="-7.412239518016577">
        <ele>1482.01</ele>
        <time>2019-03-16T09:10:05Z</time>
      </trkpt>
      <trkpt lat="31.374395722523332" lon="-7.412279834970832">
        <ele>1482.01</ele>
        <time>2019-03-16T09:10:06Z</time>
      </trkpt>
      <trkpt lat="31.374513572081923" lon="-7.412303891032934">
        <ele>1481.53</ele>
        <time>2019-03-16T09:10:07Z</time>
      </trkpt>
      <trkpt lat="31.374633181840181" lon="-7.412312524393201">
        <ele>1481.53</ele>
        <time>2019-03-16T09:10:08Z</time>
      </trkpt>
      <trkpt lat="31.374749187380075" lon="-7.412306992337108">
        <ele>1481.53</ele>
        <time>2019-03-16T09:10:09Z</time>
      </trkpt>
      <trkpt lat="31.374857230111957" lon="-7.4122797511518">
        <ele>1481.05</ele>
        <time>2019-03-16T09:10:11Z</time>
      </trkpt>
      <trkpt lat="31.374952532351017" lon="-7.412232141941786">
        <ele>1477.2</ele>
        <time>2019-03-16T09:10:12Z</time>
      </trkpt>
      <trkpt lat="31.375032495707273" lon="-7.412163829430938">
        <ele>1472.8800000000001</ele>
        <time>2019-03-16T09:10:13Z</time>
      </trkpt>
      <trkpt lat="31.3751036580652" lon="-7.412080513313413">
        <ele>1469.99</ele>
        <time>2019-03-16T09:10:14Z</time>
      </trkpt>
      <trkpt lat="31.375172389671206" lon="-7.411989904940128">
        <ele>1469.51</ele>
        <time>2019-03-16T09:10:15Z</time>
      </trkpt>
      <trkpt lat="31.375237600877881" lon="-7.411891249939799">
        <ele>1469.51</ele>
        <time>2019-03-16T09:10:16Z</time>
      </trkpt>
      <trkpt lat="31.375293005257845" lon="-7.411788403987885">
        <ele>1469.03</ele>
        <time>2019-03-16T09:10:17Z</time>
      </trkpt>
      <trkpt lat="31.3756372500211" lon="-7.41126143373549">
        <ele>1469.03</ele>
        <time>2019-03-16T09:10:18Z</time>
      </trkpt>
      <trkpt lat="31.37611954472959" lon="-7.410481330007315">
        <ele>1469.03</ele>
        <time>2019-03-16T09:10:19Z</time>
      </trkpt>
      <trkpt lat="31.376937031745911" lon="-7.409442476928234">
        <ele>1469.03</ele>
        <time>2019-03-16T09:10:20Z</time>
      </trkpt>
      <trkpt lat="31.377345146611333" lon="-7.408859767019749">
        <ele>1468.0699999999999</ele>
        <time>2019-03-16T09:10:21Z</time>
      </trkpt>
      <trkpt lat="31.377418488264084" lon="-7.408780641853809">
        <ele>1467.5899999999999</ele>
        <time>2019-03-16T09:10:22Z</time>
      </trkpt>
      <trkpt lat="31.377508845180273" lon="-7.408706629648805">
        <ele>1467.5899999999999</ele>
        <time>2019-03-16T09:10:23Z</time>
      </trkpt>
      <trkpt lat="31.377612194046378" lon="-7.408638903871179">
        <ele>1467.1099999999999</ele>
        <time>2019-03-16T09:10:24Z</time>
      </trkpt>
      <trkpt lat="31.37772224843502" lon="-7.40857838653028">
        <ele>1467.1099999999999</ele>
        <time>2019-03-16T09:10:25Z</time>
      </trkpt>
      <trkpt lat="31.377831129357219" lon="-7.408526418730617">
        <ele>1467.1099999999999</ele>
        <time>2019-03-16T09:10:26Z</time>
      </trkpt>
      <trkpt lat="31.378885321319103" lon="-7.408065078780055">
        <ele>1466.6300000000001</ele>
        <time>2019-03-16T09:10:27Z</time>
      </trkpt>
      <trkpt lat="31.37911825440824" lon="-7.407923927530646">
        <ele>1465.6700000000001</ele>
        <time>2019-03-16T09:10:28Z</time>
      </trkpt>
      <trkpt lat="31.3791842199862" lon="-7.407903308048844">
        <ele>1464.23</ele>
        <time>2019-03-16T09:10:29Z</time>
      </trkpt>
      <trkpt lat="31.379256220534444" lon="-7.407901044934988">
        <ele>1461.8199999999999</ele>
        <time>2019-03-16T09:10:30Z</time>
      </trkpt>
      <trkpt lat="31.379337441176176" lon="-7.407915377989411">
        <ele>1461.3399999999999</ele>
        <time>2019-03-16T09:10:31Z</time>
      </trkpt>
      <trkpt lat="31.37943048030138" lon="-7.407929208129644">
        <ele>1460.8599999999999</ele>
        <time>2019-03-16T09:10:32Z</time>
      </trkpt>
      <trkpt lat="31.37953408062458" lon="-7.407930716872215">
        <ele>1460.3800000000001</ele>
        <time>2019-03-16T09:10:33Z</time>
      </trkpt>
      <trkpt lat="31.379873966798186" lon="-7.407983355224133">
        <ele>1459.9000000000001</ele>
        <time>2019-03-16T09:10:34Z</time>
      </trkpt>
      <trkpt lat="31.380538651719689" lon="-7.408277140930295">
        <ele>1459.4200000000001</ele>
        <time>2019-03-16T09:10:35Z</time>
      </trkpt>
      <trkpt lat="31.380911143496633" lon="-7.408472942188382">
        <ele>1458.46</ele>
        <time>2019-03-16T09:10:36Z</time>
      </trkpt>
      <trkpt lat="31.380974175408483" lon="-7.408502781763673">
        <ele>1457.98</ele>
        <time>2019-03-16T09:10:45Z</time>
      </trkpt>
      <trkpt lat="31.381051875650883" lon="-7.408530609682202">
        <ele>1457.98</ele>
        <time>2019-03-16T09:10:51Z</time>
      </trkpt>
      <trkpt lat="31.381144830957055" lon="-7.408551564440131">
        <ele>1457.98</ele>
        <time>2019-03-16T09:10:52Z</time>
      </trkpt>
      <trkpt lat="31.381244324147701" lon="-7.40855885669589">
        <ele>1457.98</ele>
        <time>2019-03-16T09:10:53Z</time>
      </trkpt>
      <trkpt lat="31.381347002461553" lon="-7.408559694886208">
        <ele>1457.5</ele>
        <time>2019-03-16T09:10:54Z</time>
      </trkpt>
      <trkpt lat="31.382381999865174" lon="-7.408646447584033">
        <ele>1457.5</ele>
        <time>2019-03-16T09:10:55Z</time>
      </trkpt>
      <trkpt lat="31.382485097274184" lon="-7.40866782143712">
        <ele>1457.98</ele>
        <time>2019-03-16T09:10:56Z</time>
      </trkpt>
      <trkpt lat="31.382575957104564" lon="-7.40870394743979">
        <ele>1457.98</ele>
        <time>2019-03-16T09:10:57Z</time>
      </trkpt>
      <trkpt lat="31.382653657346964" lon="-7.408758597448468">
        <ele>1457.5</ele>
        <time>2019-03-16T09:10:58Z</time>
      </trkpt>
      <trkpt lat="31.382709480822086" lon="-7.408829340711236">
        <ele>1456.53</ele>
        <time>2019-03-16T09:10:59Z</time>
      </trkpt>
      <trkpt lat="31.382743259891868" lon="-7.408897150307894">
        <ele>1456.05</ele>
        <time>2019-03-16T09:11:00Z</time>
      </trkpt>
      <trkpt lat="31.382760610431433" lon="-7.408944927155972">
        <ele>1456.05</ele>
        <time>2019-03-16T09:11:01Z</time>
      </trkpt>
      <trkpt lat="31.382768489420414" lon="-7.408972922712565">
        <ele>1455.5699999999999</ele>
        <time>2019-03-16T09:11:02Z</time>
      </trkpt>
      <trkpt lat="31.382773602381349" lon="-7.408990357071161">
        <ele>1455.5699999999999</ele>
        <time>2019-03-16T09:11:09Z</time>
      </trkpt>
      <trkpt lat="31.38279564678669" lon="-7.409113151952624">
        <ele>1455.0899999999999</ele>
        <time>2019-03-16T09:11:10Z</time>
      </trkpt>
      <trkpt lat="31.382865384221077" lon="-7.409340972080827">
        <ele>1454.6099999999999</ele>
        <time>2019-03-16T09:11:11Z</time>
      </trkpt>
      <trkpt lat="31.382911987602711" lon="-7.409417498856783">
        <ele>1454.1300000000001</ele>
        <time>2019-03-16T09:11:12Z</time>
      </trkpt>
      <trkpt lat="31.382975270971656" lon="-7.409476675093174">
        <ele>1453.1700000000001</ele>
        <time>2019-03-16T09:11:13Z</time>
      </trkpt>
      <trkpt lat="31.38305364176631" lon="-7.409523529931903">
        <ele>1450.29</ele>
        <time>2019-03-16T09:11:14Z</time>
      </trkpt>
      <trkpt lat="31.383149614557624" lon="-7.409555464982987">
        <ele>1449.8099999999999</ele>
        <time>2019-03-16T09:11:15Z</time>
      </trkpt>
      <trkpt lat="31.383255561813712" lon="-7.409574659541249">
        <ele>1448.8399999999999</ele>
        <time>2019-03-16T09:11:16Z</time>
      </trkpt>
      <trkpt lat="31.383366622030735" lon="-7.409582370892167">
        <ele>1446.9200000000001</ele>
        <time>2019-03-16T09:11:17Z</time>
      </trkpt>
      <trkpt lat="31.383485225960612" lon="-7.409577928483486">
        <ele>1445.96</ele>
        <time>2019-03-16T09:11:18Z</time>
      </trkpt>
      <trkpt lat="31.383608439937234" lon="-7.409566780552268">
        <ele>1445.48</ele>
        <time>2019-03-16T09:11:19Z</time>
      </trkpt>
      <trkpt lat="31.384199028834701" lon="-7.40939000621438">
        <ele>1445</ele>
        <time>2019-03-16T09:11:20Z</time>
      </trkpt>
      <trkpt lat="31.384290056303144" lon="-7.40932940505445">
        <ele>1444.04</ele>
        <time>2019-03-16T09:11:21Z</time>
      </trkpt>
      <trkpt lat="31.384368846192956" lon="-7.409257655963302">
        <ele>1442.5999999999999</ele>
        <time>2019-03-16T09:11:22Z</time>
      </trkpt>
      <trkpt lat="31.384650226682425" lon="-7.408968396484852">
        <ele>1442.1099999999999</ele>
        <time>2019-03-16T09:11:23Z</time>
      </trkpt>
      <trkpt lat="31.384695405140519" lon="-7.408881224691868">
        <ele>1442.1099999999999</ele>
        <time>2019-03-16T09:11:24Z</time>
      </trkpt>
      <trkpt lat="31.384720467031002" lon="-7.408775947988033">
        <ele>1442.1099999999999</ele>
        <time>2019-03-16T09:11:25Z</time>
      </trkpt>
      <trkpt lat="31.384727843105793" lon="-7.408653320744634">
        <ele>1441.6300000000001</ele>
        <time>2019-03-16T09:11:26Z</time>
      </trkpt>
      <trkpt lat="31.384726334363222" lon="-7.408525412902236">
        <ele>1441.6300000000001</ele>
        <time>2019-03-16T09:11:27Z</time>
      </trkpt>
      <trkpt lat="31.384781319648027" lon="-7.408071029931307">
        <ele>1441.6300000000001</ele>
        <time>2019-03-16T09:11:28Z</time>
      </trkpt>
      <trkpt lat="31.384825576096773" lon="-7.407980589196086">
        <ele>1442.1099999999999</ele>
        <time>2019-03-16T09:11:29Z</time>
      </trkpt>
      <trkpt lat="31.384887685999274" lon="-7.40791822783649">
        <ele>1442.1099999999999</ele>
        <time>2019-03-16T09:11:30Z</time>
      </trkpt>
      <trkpt lat="31.384965050965548" lon="-7.407895429059863">
        <ele>1441.6300000000001</ele>
        <time>2019-03-16T09:11:31Z</time>
      </trkpt>
      <trkpt lat="31.385046606883407" lon="-7.407922586426139">
        <ele>1441.1500000000001</ele>
        <time>2019-03-16T09:11:32Z</time>
      </trkpt>
      <trkpt lat="31.385114919394255" lon="-7.407990479841828">
        <ele>1440.1900000000001</ele>
        <time>2019-03-16T09:11:33Z</time>
      </trkpt>
      <trkpt lat="31.38516210950911" lon="-7.408086117357016">
        <ele>1440.1900000000001</ele>
        <time>2019-03-16T09:11:34Z</time>
      </trkpt>
      <trkpt lat="31.385195134207606" lon="-7.408195501193404">
        <ele>1440.1900000000001</ele>
        <time>2019-03-16T09:11:35Z</time>
      </trkpt>
      <trkpt lat="31.385229248553514" lon="-7.408314188942313">
        <ele>1440.1900000000001</ele>
        <time>2019-03-16T09:11:36Z</time>
      </trkpt>
      <trkpt lat="31.385322455316782" lon="-7.408547792583704">
        <ele>1440.1900000000001</ele>
        <time>2019-03-16T09:11:37Z</time>
      </trkpt>
      <trkpt lat="31.385390013456345" lon="-7.408653572201729">
        <ele>1439.71</ele>
        <time>2019-03-16T09:11:38Z</time>
      </trkpt>
      <trkpt lat="31.385704502463341" lon="-7.409134358167648">
        <ele>1439.23</ele>
        <time>2019-03-16T09:11:39Z</time>
      </trkpt>
      <trkpt lat="31.385774910449982" lon="-7.409202586859465">
        <ele>1438.75</ele>
        <time>2019-03-16T09:11:40Z</time>
      </trkpt>
      <trkpt lat="31.385855125263333" lon="-7.409262433648109">
        <ele>1438.27</ele>
        <time>2019-03-16T09:11:41Z</time>
      </trkpt>
      <trkpt lat="31.385939950123429" lon="-7.40931423380971">
        <ele>1438.27</ele>
        <time>2019-03-16T09:11:42Z</time>
      </trkpt>
      <trkpt lat="31.386029552668333" lon="-7.409354215487838">
        <ele>1437.79</ele>
        <time>2019-03-16T09:11:43Z</time>
      </trkpt>
      <trkpt lat="31.386220827698708" lon="-7.409432418644428">
        <ele>1437.79</ele>
        <time>2019-03-16T09:11:44Z</time>
      </trkpt>
      <trkpt lat="31.386327613145113" lon="-7.409452786669135">
        <ele>1437.79</ele>
        <time>2019-03-16T09:11:45Z</time>
      </trkpt>
      <trkpt lat="31.386435320600867" lon="-7.409441974014044">
        <ele>1437.3099999999999</ele>
        <time>2019-03-16T09:11:46Z</time>
      </trkpt>
      <trkpt lat="31.386537915095687" lon="-7.40940366871655">
        <ele>1437.3099999999999</ele>
        <time>2019-03-16T09:11:48Z</time>
      </trkpt>
      <trkpt lat="31.386633636429906" lon="-7.409349186345935">
        <ele>1437.3099999999999</ele>
        <time>2019-03-16T09:11:49Z</time>
      </trkpt>
      <trkpt lat="31.386717120185494" lon="-7.409281125292182">
        <ele>1437.3099999999999</ele>
        <time>2019-03-16T09:11:54Z</time>
      </trkpt>
      <trkpt lat="31.386787109076977" lon="-7.409196803346276">
        <ele>1437.3099999999999</ele>
        <time>2019-03-16T09:11:55Z</time>
      </trkpt>
      <trkpt lat="31.386834215372801" lon="-7.409102339297533">
        <ele>1437.3099999999999</ele>
        <time>2019-03-16T09:11:56Z</time>
      </trkpt>
      <trkpt lat="31.386858941987157" lon="-7.408998403698206">
        <ele>1437.3099999999999</ele>
        <time>2019-03-16T09:11:57Z</time>
      </trkpt>
      <trkpt lat="31.386859780177474" lon="-7.408886170014739">
        <ele>1436.8299999999999</ele>
        <time>2019-03-16T09:11:58Z</time>
      </trkpt>
      <trkpt lat="31.386834131553769" lon="-7.408774439245462">
        <ele>1436.8299999999999</ele>
        <time>2019-03-16T09:11:59Z</time>
      </trkpt>
      <trkpt lat="31.386788114905357" lon="-7.408667402341962">
        <ele>1436.8299999999999</ele>
        <time>2019-03-16T09:12:00Z</time>
      </trkpt>
      <trkpt lat="31.386736817657948" lon="-7.408557012677193">
        <ele>1436.8299999999999</ele>
        <time>2019-03-16T09:12:01Z</time>
      </trkpt>
      <trkpt lat="31.386688789352775" lon="-7.408441761508584">
        <ele>1436.3499999999999</ele>
        <time>2019-03-16T09:12:02Z</time>
      </trkpt>
      <trkpt lat="31.386654255911708" lon="-7.408319720998406">
        <ele>1436.3499999999999</ele>
        <time>2019-03-16T09:12:03Z</time>
      </trkpt>
      <trkpt lat="31.386640593409538" lon="-7.408195082098246">
        <ele>1436.3499999999999</ele>
        <time>2019-03-16T09:12:04Z</time>
      </trkpt>
      <trkpt lat="31.386656016111374" lon="-7.408070862293243">
        <ele>1436.3499999999999</ele>
        <time>2019-03-16T09:12:05Z</time>
      </trkpt>
      <trkpt lat="31.386697925627232" lon="-7.407952677458525">
        <ele>1436.3499999999999</ele>
        <time>2019-03-16T09:12:06Z</time>
      </trkpt>
      <trkpt lat="31.386764477938414" lon="-7.407848322764039">
        <ele>1436.3499999999999</ele>
        <time>2019-03-16T09:12:07Z</time>
      </trkpt>
      <trkpt lat="31.386853242293" lon="-7.407765258103609">
        <ele>1435.8699999999999</ele>
        <time>2019-03-16T09:12:08Z</time>
      </trkpt>
      <trkpt lat="31.386953070759773" lon="-7.407712368294597">
        <ele>1434.4200000000001</ele>
        <time>2019-03-16T09:12:09Z</time>
      </trkpt>
      <trkpt lat="31.387058263644576" lon="-7.407704489305615">
        <ele>1433.9400000000001</ele>
        <time>2019-03-16T09:12:10Z</time>
      </trkpt>
      <trkpt lat="31.387161947786808" lon="-7.407742375507951">
        <ele>1433.46</ele>
        <time>2019-03-16T09:12:11Z</time>
      </trkpt>
      <trkpt lat="31.387256495654583" lon="-7.407813705503941">
        <ele>1433.46</ele>
        <time>2019-03-16T09:12:12Z</time>
      </trkpt>
      <trkpt lat="31.387340230867267" lon="-7.407914875075221">
        <ele>1433.46</ele>
        <time>2019-03-16T09:12:13Z</time>
      </trkpt>
      <trkpt lat="31.387415416538715" lon="-7.408021660521627">
        <ele>1432.98</ele>
        <time>2019-03-16T09:12:14Z</time>
      </trkpt>
      <trkpt lat="31.38804892078042" lon="-7.408839063718915">
        <ele>1432.98</ele>
        <time>2019-03-16T09:12:15Z</time>
      </trkpt>
      <trkpt lat="31.388510093092918" lon="-7.409363184124231">
        <ele>1432.98</ele>
        <time>2019-03-16T09:12:20Z</time>
      </trkpt>
      <trkpt lat="31.388594750314951" lon="-7.409422025084496">
        <ele>1432.5</ele>
        <time>2019-03-16T09:12:21Z</time>
      </trkpt>
      <trkpt lat="31.388680161908269" lon="-7.409461587667465">
        <ele>1432.5</ele>
        <time>2019-03-16T09:12:31Z</time>
      </trkpt>
      <trkpt lat="31.388763645663857" lon="-7.409478183835745">
        <ele>1432.02</ele>
        <time>2019-03-16T09:12:33Z</time>
      </trkpt>
      <trkpt lat="31.38884486630559" lon="-7.409476172178984">
        <ele>1431.54</ele>
        <time>2019-03-16T09:12:34Z</time>
      </trkpt>
      <trkpt lat="31.388927008956671" lon="-7.409459324553609">
        <ele>1431.0599999999999</ele>
        <time>2019-03-16T09:12:35Z</time>
      </trkpt>
      <trkpt lat="31.389005044475198" lon="-7.409428646788001">
        <ele>1429.1400000000001</ele>
        <time>2019-03-16T09:12:36Z</time>
      </trkpt>
      <trkpt lat="31.389077547937632" lon="-7.409388329833746">
        <ele>1429.1400000000001</ele>
        <time>2019-03-16T09:12:37Z</time>
      </trkpt>
      <trkpt lat="31.389142759144306" lon="-7.409333931282163">
        <ele>1428.6600000000001</ele>
        <time>2019-03-16T09:12:38Z</time>
      </trkpt>
      <trkpt lat="31.389205371960998" lon="-7.4092629365623">
        <ele>1428.6600000000001</ele>
        <time>2019-03-16T09:12:39Z</time>
      </trkpt>
      <trkpt lat="31.389258680865169" lon="-7.409175764769316">
        <ele>1428.1800000000001</ele>
        <time>2019-03-16T09:12:40Z</time>
      </trkpt>
      <trkpt lat="31.389309726655483" lon="-7.40908314473927">
        <ele>1427.7</ele>
        <time>2019-03-16T09:12:41Z</time>
      </trkpt>
      <trkpt lat="31.389644583687186" lon="-7.408380908891559">
        <ele>1427.7</ele>
        <time>2019-03-16T09:12:43Z</time>
      </trkpt>
      <trkpt lat="31.389709962531924" lon="-7.408291976898909">
        <ele>1427.7</ele>
        <time>2019-03-16T09:12:44Z</time>
      </trkpt>
      <trkpt lat="31.3897889200598" lon="-7.408208074048162">
        <ele>1427.21</ele>
        <time>2019-03-16T09:12:45Z</time>
      </trkpt>
      <trkpt lat="31.389878941699862" lon="-7.408130038529635">
        <ele>1427.21</ele>
        <time>2019-03-16T09:12:46Z</time>
      </trkpt>
      <trkpt lat="31.389982542023063" lon="-7.408056361600757">
        <ele>1427.7</ele>
        <time>2019-03-16T09:12:47Z</time>
      </trkpt>
      <trkpt lat="31.390092093497515" lon="-7.407982517033815">
        <ele>1427.7</ele>
        <time>2019-03-16T09:12:48Z</time>
      </trkpt>
      <trkpt lat="31.390197956934571" lon="-7.407900458201766">
        <ele>1427.7</ele>
        <time>2019-03-16T09:12:49Z</time>
      </trkpt>
      <trkpt lat="31.390293259173632" lon="-7.407804485410452">
        <ele>1428.1800000000001</ele>
        <time>2019-03-16T09:12:53Z</time>
      </trkpt>
      <trkpt lat="31.390374647453427" lon="-7.407696358859539">
        <ele>1428.1800000000001</ele>
        <time>2019-03-16T09:12:54Z</time>
      </trkpt>
      <trkpt lat="31.39043684117496" lon="-7.407579263672233">
        <ele>1428.1800000000001</ele>
        <time>2019-03-16T09:12:55Z</time>
      </trkpt>
      <trkpt lat="31.390471206977963" lon="-7.407457558438182">
        <ele>1428.1800000000001</ele>
        <time>2019-03-16T09:12:56Z</time>
      </trkpt>
      <trkpt lat="31.390476990491152" lon="-7.407332416623831">
        <ele>1428.1800000000001</ele>
        <time>2019-03-16T09:12:57Z</time>
      </trkpt>
      <trkpt lat="31.390456538647413" lon="-7.407210795208812">
        <ele>1428.1800000000001</ele>
        <time>2019-03-16T09:12:59Z</time>
      </trkpt>
      <trkpt lat="31.390408594161272" lon="-7.407097974792123">
        <ele>1428.1800000000001</ele>
        <time>2019-03-16T09:13:00Z</time>
      </trkpt>
      <trkpt lat="31.390338269993663" lon="-7.406994625926018">
        <ele>1427.7</ele>
        <time>2019-03-16T09:13:01Z</time>
      </trkpt>
      <trkpt lat="31.390254534780979" lon="-7.406902927905321">
        <ele>1427.7</ele>
        <time>2019-03-16T09:13:02Z</time>
      </trkpt>
      <trkpt lat="31.390167195349932" lon="-7.406815672293305">
        <ele>1427.7</ele>
        <time>2019-03-16T09:13:03Z</time>
      </trkpt>
      <trkpt lat="31.390089830383658" lon="-7.406730344519019">
        <ele>1427.7</ele>
        <time>2019-03-16T09:13:04Z</time>
      </trkpt>
      <trkpt lat="31.390032833442092" lon="-7.406641412526369">
        <ele>1427.7</ele>
        <time>2019-03-16T09:13:05Z</time>
      </trkpt>
      <trkpt lat="31.39000148512423" lon="-7.406549043953419">
        <ele>1427.7</ele>
        <time>2019-03-16T09:13:06Z</time>
      </trkpt>
      <trkpt lat="31.389999222010374" lon="-7.406454076990485">
        <ele>1427.7</ele>
        <time>2019-03-16T09:13:09Z</time>
      </trkpt>
      <trkpt lat="31.390029648318887" lon="-7.40637369453907">
        <ele>1427.7</ele>
        <time>2019-03-16T09:13:10Z</time>
      </trkpt>
      <trkpt lat="31.390085555613041" lon="-7.406311668455601">
        <ele>1427.21</ele>
        <time>2019-03-16T09:13:11Z</time>
      </trkpt>
      <trkpt lat="31.390162082388997" lon="-7.406273446977139">
        <ele>1427.21</ele>
        <time>2019-03-16T09:13:12Z</time>
      </trkpt>
      <trkpt lat="31.390253948047757" lon="-7.406260622665286">
        <ele>1427.21</ele>
        <time>2019-03-16T09:13:13Z</time>
      </trkpt>
      <trkpt lat="31.390358051285148" lon="-7.406263556331396">
        <ele>1427.21</ele>
        <time>2019-03-16T09:13:15Z</time>
      </trkpt>
      <trkpt lat="31.390468273311853" lon="-7.406258024275303">
        <ele>1427.21</ele>
        <time>2019-03-16T09:13:16Z</time>
      </trkpt>
      <trkpt lat="31.390577321872115" lon="-7.406234974041581">
        <ele>1427.7</ele>
        <time>2019-03-16T09:13:17Z</time>
      </trkpt>
      <trkpt lat="31.390681089833379" lon="-7.4062011949718">
        <ele>1427.7</ele>
        <time>2019-03-16T09:13:18Z</time>
      </trkpt>
      <trkpt lat="31.390775386244059" lon="-7.406158531084657">
        <ele>1427.7</ele>
        <time>2019-03-16T09:13:19Z</time>
      </trkpt>
      <trkpt lat="31.390862641856074" lon="-7.406112095341086">
        <ele>1427.7</ele>
        <time>2019-03-16T09:13:20Z</time>
      </trkpt>
      <trkpt lat="31.390939420089126" lon="-7.40605853497982">
        <ele>1427.21</ele>
        <time>2019-03-16T09:13:21Z</time>
      </trkpt>
      <trkpt lat="31.391005720943213" lon="-7.405995167791843">
        <ele>1427.21</ele>
        <time>2019-03-16T09:13:24Z</time>
      </trkpt>
      <trkpt lat="31.39106372371316" lon="-7.405918138101697">
        <ele>1427.21</ele>
        <time>2019-03-16T09:13:25Z</time>
      </trkpt>
      <trkpt lat="31.391108650714159" lon="-7.405826523900032">
        <ele>1428.6600000000001</ele>
        <time>2019-03-16T09:13:26Z</time>
      </trkpt>
      <trkpt lat="31.391132539138198" lon="-7.405722420662642">
        <ele>1428.6600000000001</ele>
        <time>2019-03-16T09:13:27Z</time>
      </trkpt>
      <trkpt lat="31.391141591593623" lon="-7.405613707378507">
        <ele>1428.1800000000001</ele>
        <time>2019-03-16T09:13:28Z</time>
      </trkpt>
      <trkpt lat="31.391147626563907" lon="-7.405508598312736">
        <ele>1428.1800000000001</ele>
        <time>2019-03-16T09:13:31Z</time>
      </trkpt>
      <trkpt lat="31.391177885234356" lon="-7.405305420979857">
        <ele>1427.7</ele>
        <time>2019-03-16T09:13:32Z</time>
      </trkpt>
      <trkpt lat="31.391208311542869" lon="-7.405208945274353">
        <ele>1427.21</ele>
        <time>2019-03-16T09:13:33Z</time>
      </trkpt>
      <trkpt lat="31.39137402176857" lon="-7.404687507078052">
        <ele>1427.21</ele>
        <time>2019-03-16T09:13:34Z</time>
      </trkpt>
      <trkpt lat="31.391420708969235" lon="-7.404609890654683">
        <ele>1426.73</ele>
        <time>2019-03-16T09:13:35Z</time>
      </trkpt>
      <trkpt lat="31.391487512737513" lon="-7.40455649793148">
        <ele>1426.73</ele>
        <time>2019-03-16T09:13:37Z</time>
      </trkpt>
      <trkpt lat="31.391566386446357" lon="-7.404540237039328">
        <ele>1426.25</ele>
        <time>2019-03-16T09:13:38Z</time>
      </trkpt>
      <trkpt lat="31.391652217134833" lon="-7.404561107978225">
        <ele>1426.25</ele>
        <time>2019-03-16T09:13:39Z</time>
      </trkpt>
      <trkpt lat="31.391741400584579" lon="-7.404607543721795">
        <ele>1426.25</ele>
        <time>2019-03-16T09:13:40Z</time>
      </trkpt>
      <trkpt lat="31.391836116090417" lon="-7.404657416045666">
        <ele>1425.77</ele>
        <time>2019-03-16T09:13:41Z</time>
      </trkpt>
      <trkpt lat="31.391940303146839" lon="-7.404697146266699">
        <ele>1425.29</ele>
        <time>2019-03-16T09:13:42Z</time>
      </trkpt>
      <trkpt lat="31.392052536830306" lon="-7.404717765748501">
        <ele>1424.8099999999999</ele>
        <time>2019-03-16T09:13:43Z</time>
      </trkpt>
      <trkpt lat="31.392168626189232" lon="-7.404716173186898">
        <ele>1423.8499999999999</ele>
        <time>2019-03-16T09:13:44Z</time>
      </trkpt>
      <trkpt lat="31.392280356958508" lon="-7.404687758535147">
        <ele>1423.3699999999999</ele>
        <time>2019-03-16T09:13:45Z</time>
      </trkpt>
      <trkpt lat="31.392386639490724" lon="-7.404638389125466">
        <ele>1422.8900000000001</ele>
        <time>2019-03-16T09:13:46Z</time>
      </trkpt>
      <trkpt lat="31.392487725242972" lon="-7.404576698318124">
        <ele>1422.4100000000001</ele>
        <time>2019-03-16T09:13:47Z</time>
      </trkpt>
      <trkpt lat="31.392585458233953" lon="-7.404505787417293">
        <ele>1422.4100000000001</ele>
        <time>2019-03-16T09:13:48Z</time>
      </trkpt>
      <trkpt lat="31.392677994444966" lon="-7.404431942850351">
        <ele>1422.4100000000001</ele>
        <time>2019-03-16T09:13:49Z</time>
      </trkpt>
      <trkpt lat="31.392763406038284" lon="-7.404351644217968">
        <ele>1421.9300000000001</ele>
        <time>2019-03-16T09:13:50Z</time>
      </trkpt>
      <trkpt lat="31.392837669700384" lon="-7.404261371120811">
        <ele>1420</ele>
        <time>2019-03-16T09:13:51Z</time>
      </trkpt>
      <trkpt lat="31.392892738804221" lon="-7.404157686978579">
        <ele>1419.52</ele>
        <time>2019-03-16T09:13:53Z</time>
      </trkpt>
      <trkpt lat="31.392921572551131" lon="-7.404043274000287">
        <ele>1411.8299999999999</ele>
        <time>2019-03-16T09:13:54Z</time>
      </trkpt>
      <trkpt lat="31.392923668026924" lon="-7.403929783031344">
        <ele>1410.8699999999999</ele>
        <time>2019-03-16T09:13:55Z</time>
      </trkpt>
      <trkpt lat="31.39291369356215" lon="-7.403826769441366">
        <ele>1410.3900000000001</ele>
        <time>2019-03-16T09:13:56Z</time>
      </trkpt>
      <trkpt lat="31.392898606136441" lon="-7.40373020991683">
        <ele>1409.9100000000001</ele>
        <time>2019-03-16T09:13:57Z</time>
      </trkpt>
      <trkpt lat="31.392832892015576" lon="-7.403141297399998">
        <ele>1409.4300000000001</ele>
        <time>2019-03-16T09:13:58Z</time>
      </trkpt>
      <trkpt lat="31.39280179515481" lon="-7.403009198606014">
        <ele>1409.4300000000001</ele>
        <time>2019-03-16T09:13:59Z</time>
      </trkpt>
      <trkpt lat="31.392510356381536" lon="-7.401514202356339">
        <ele>1408.95</ele>
        <time>2019-03-16T09:14:00Z</time>
      </trkpt>
      <trkpt lat="31.392468949779868" lon="-7.401253189891577">
        <ele>1408.47</ele>
        <time>2019-03-16T09:14:01Z</time>
      </trkpt>
      <trkpt lat="31.392472553998232" lon="-7.401137603446841">
        <ele>1407.99</ele>
        <time>2019-03-16T09:14:02Z</time>
      </trkpt>
      <trkpt lat="31.392506584525108" lon="-7.401034003123641">
        <ele>1407.51</ele>
        <time>2019-03-16T09:14:03Z</time>
      </trkpt>
      <trkpt lat="31.392569364979863" lon="-7.400950351729989">
        <ele>1407.03</ele>
        <time>2019-03-16T09:14:04Z</time>
      </trkpt>
      <trkpt lat="31.392657123506069" lon="-7.400898551568389">
        <ele>1407.03</ele>
        <time>2019-03-16T09:14:05Z</time>
      </trkpt>
      <trkpt lat="31.392763741314411" lon="-7.400882542133331">
        <ele>1407.03</ele>
        <time>2019-03-16T09:14:06Z</time>
      </trkpt>
      <trkpt lat="31.392879411578178" lon="-7.400900144129992">
        <ele>1406.55</ele>
        <time>2019-03-16T09:14:07Z</time>
      </trkpt>
      <trkpt lat="31.392996003851295" lon="-7.40094255656004">
        <ele>1406.55</ele>
        <time>2019-03-16T09:14:08Z</time>
      </trkpt>
      <trkpt lat="31.393114104866982" lon="-7.400992009788752">
        <ele>1406.0699999999999</ele>
        <time>2019-03-16T09:14:09Z</time>
      </trkpt>
      <trkpt lat="31.39336371794343" lon="-7.401063675060868">
        <ele>1406.0699999999999</ele>
        <time>2019-03-16T09:14:10Z</time>
      </trkpt>
      <trkpt lat="31.393488440662622" lon="-7.401064429432154">
        <ele>1404.6199999999999</ele>
        <time>2019-03-16T09:14:11Z</time>
      </trkpt>
      <trkpt lat="31.393606457859278" lon="-7.401028471067548">
        <ele>1404.6199999999999</ele>
        <time>2019-03-16T09:14:12Z</time>
      </trkpt>
      <trkpt lat="31.393712488934398" lon="-7.400961583480239">
        <ele>1404.6199999999999</ele>
        <time>2019-03-16T09:14:13Z</time>
      </trkpt>
      <trkpt lat="31.393805695697665" lon="-7.400872735306621">
        <ele>1404.6199999999999</ele>
        <time>2019-03-16T09:14:14Z</time>
      </trkpt>
      <trkpt lat="31.393887000158429" lon="-7.400775505229831">
        <ele>1404.6199999999999</ele>
        <time>2019-03-16T09:14:15Z</time>
      </trkpt>
      <trkpt lat="31.393963443115354" lon="-7.400678358972073">
        <ele>1405.0999999999999</ele>
        <time>2019-03-16T09:14:18Z</time>
      </trkpt>
      <trkpt lat="31.394279943779111" lon="-7.400326570495963">
        <ele>1405.0999999999999</ele>
        <time>2019-03-16T09:14:19Z</time>
      </trkpt>
      <trkpt lat="31.394376503303647" lon="-7.400260269641876">
        <ele>1405.0999999999999</ele>
        <time>2019-03-16T09:14:20Z</time>
      </trkpt>
      <trkpt lat="31.394484294578433" lon="-7.400208385661244">
        <ele>1405.0999999999999</ele>
        <time>2019-03-16T09:14:21Z</time>
      </trkpt>
      <trkpt lat="31.394602730870247" lon="-7.400168990716338">
        <ele>1404.6199999999999</ele>
        <time>2019-03-16T09:14:22Z</time>
      </trkpt>
      <trkpt lat="31.394726447761059" lon="-7.400139402598143">
        <ele>1404.1400000000001</ele>
        <time>2019-03-16T09:14:23Z</time>
      </trkpt>
      <trkpt lat="31.394965164363384" lon="-7.400064552202821">
        <ele>1404.1400000000001</ele>
        <time>2019-03-16T09:14:24Z</time>
      </trkpt>
      <trkpt lat="31.395075302571058" lon="-7.400006297975779">
        <ele>1404.1400000000001</ele>
        <time>2019-03-16T09:14:26Z</time>
      </trkpt>
      <trkpt lat="31.395180411636829" lon="-7.399931363761425">
        <ele>1404.1400000000001</ele>
        <time>2019-03-16T09:14:31Z</time>
      </trkpt>
      <trkpt lat="31.395278396084905" lon="-7.399841174483299">
        <ele>1404.1400000000001</ele>
        <time>2019-03-16T09:14:40Z</time>
      </trkpt>
      <trkpt lat="31.395371854305267" lon="-7.399737825617194">
        <ele>1404.6199999999999</ele>
        <time>2019-03-16T09:14:42Z</time>
      </trkpt>
      <trkpt lat="31.395459026098251" lon="-7.399622742086649">
        <ele>1405.0999999999999</ele>
        <time>2019-03-16T09:14:43Z</time>
      </trkpt>
      <trkpt lat="31.39554058201611" lon="-7.399494918063283">
        <ele>1405.5799999999999</ele>
        <time>2019-03-16T09:14:44Z</time>
      </trkpt>
      <trkpt lat="31.395617863163352" lon="-7.399360053241253">
        <ele>1406.0699999999999</ele>
        <time>2019-03-16T09:14:45Z</time>
      </trkpt>
      <trkpt lat="31.395796984434128" lon="-7.398961493745446">
        <ele>1406.55</ele>
        <time>2019-03-16T09:14:46Z</time>
      </trkpt>
      <trkpt lat="31.395827829837799" lon="-7.39881900139153">
        <ele>1407.03</ele>
        <time>2019-03-16T09:14:47Z</time>
      </trkpt>
      <trkpt lat="31.395842833444476" lon="-7.398677850142121">
        <ele>1407.51</ele>
        <time>2019-03-16T09:14:48Z</time>
      </trkpt>
      <trkpt lat="31.395847275853157" lon="-7.398543236777186">
        <ele>1407.99</ele>
        <time>2019-03-16T09:14:49Z</time>
      </trkpt>
      <trkpt lat="31.395844426006079" lon="-7.398426057770848">
        <ele>1407.99</ele>
        <time>2019-03-16T09:14:50Z</time>
      </trkpt>
      <trkpt lat="31.395848449319601" lon="-7.398235034197569">
        <ele>1408.47</ele>
        <time>2019-03-16T09:14:51Z</time>
      </trkpt>
      <trkpt lat="31.395873175933957" lon="-7.398158423602581">
        <ele>1409.4300000000001</ele>
        <time>2019-03-16T09:14:52Z</time>
      </trkpt>
      <trkpt lat="31.395919444039464" lon="-7.398100337013602">
        <ele>1409.9100000000001</ele>
        <time>2019-03-16T09:14:54Z</time>
      </trkpt>
      <trkpt lat="31.395981470122933" lon="-7.398065216839314">
        <ele>1410.3900000000001</ele>
        <time>2019-03-16T09:14:55Z</time>
      </trkpt>
      <trkpt lat="31.396053973585367" lon="-7.398053817451">
        <ele>1410.8699999999999</ele>
        <time>2019-03-16T09:14:56Z</time>
      </trkpt>
      <trkpt lat="31.396129326894879" lon="-7.398057840764523">
        <ele>1411.3499999999999</ele>
        <time>2019-03-16T09:14:57Z</time>
      </trkpt>
      <trkpt lat="31.396207613870502" lon="-7.398067312315106">
        <ele>1412.79</ele>
        <time>2019-03-16T09:14:58Z</time>
      </trkpt>
      <trkpt lat="31.396460914984345" lon="-7.398094385862351">
        <ele>1412.3099999999999</ele>
        <time>2019-03-16T09:14:59Z</time>
      </trkpt>
      <trkpt lat="31.396543057635427" lon="-7.398086506873369">
        <ele>1412.3099999999999</ele>
        <time>2019-03-16T09:15:00Z</time>
      </trkpt>
      <trkpt lat="31.396623943001032" lon="-7.398062869906426">
        <ele>1412.3099999999999</ele>
        <time>2019-03-16T09:15:01Z</time>
      </trkpt>
      <trkpt lat="31.396707007661462" lon="-7.398029342293739">
        <ele>1412.3099999999999</ele>
        <time>2019-03-16T09:15:09Z</time>
      </trkpt>
      <trkpt lat="31.396794514730573" lon="-7.397989612072706">
        <ele>1411.3499999999999</ele>
        <time>2019-03-16T09:15:13Z</time>
      </trkpt>
      <trkpt lat="31.397081594914198" lon="-7.397859776392579">
        <ele>1410.8699999999999</ele>
        <time>2019-03-16T09:15:14Z</time>
      </trkpt>
      <trkpt lat="31.397188547998667" lon="-7.397834714502096">
        <ele>1410.8699999999999</ele>
        <time>2019-03-16T09:15:15Z</time>
      </trkpt>
      <trkpt lat="31.397299859672785" lon="-7.397829685360193">
        <ele>1410.8699999999999</ele>
        <time>2019-03-16T09:15:16Z</time>
      </trkpt>
      <trkpt lat="31.397414105013013" lon="-7.397844856604934">
        <ele>1410.8699999999999</ele>
        <time>2019-03-16T09:15:17Z</time>
      </trkpt>
      <trkpt lat="31.397527176886797" lon="-7.397872935980558">
        <ele>1410.3900000000001</ele>
        <time>2019-03-16T09:15:18Z</time>
      </trkpt>
      <trkpt lat="31.397749045863748" lon="-7.397914091125131">
        <ele>1410.3900000000001</ele>
        <time>2019-03-16T09:15:19Z</time>
      </trkpt>
      <trkpt lat="31.397857591509819" lon="-7.397905960679054">
        <ele>1409.9100000000001</ele>
        <time>2019-03-16T09:15:20Z</time>
      </trkpt>
      <trkpt lat="31.397963454946876" lon="-7.397883245721459">
        <ele>1409.9100000000001</ele>
        <time>2019-03-16T09:15:21Z</time>
      </trkpt>
      <trkpt lat="31.398064456880093" lon="-7.397850221022964">
        <ele>1409.4300000000001</ele>
        <time>2019-03-16T09:15:22Z</time>
      </trkpt>
      <trkpt lat="31.398160932585597" lon="-7.397810155525804">
        <ele>1408.95</ele>
        <time>2019-03-16T09:15:23Z</time>
      </trkpt>
      <trkpt lat="31.398251708596945" lon="-7.397759696468711">
        <ele>1408.95</ele>
        <time>2019-03-16T09:15:24Z</time>
      </trkpt>
      <trkpt lat="31.398336784914136" lon="-7.397692976519465">
        <ele>1408.47</ele>
        <time>2019-03-16T09:15:25Z</time>
      </trkpt>
      <trkpt lat="31.398416915908456" lon="-7.397613516077399">
        <ele>1407.99</ele>
        <time>2019-03-16T09:15:26Z</time>
      </trkpt>
      <trkpt lat="31.398487659171224" lon="-7.397521650418639">
        <ele>1407.99</ele>
        <time>2019-03-16T09:15:27Z</time>
      </trkpt>
      <trkpt lat="31.398546751588583" lon="-7.397420145571232">
        <ele>1407.51</ele>
        <time>2019-03-16T09:15:28Z</time>
      </trkpt>
      <trkpt lat="31.398590672761202" lon="-7.39731009118259">
        <ele>1407.03</ele>
        <time>2019-03-16T09:15:29Z</time>
      </trkpt>
      <trkpt lat="31.39861942268908" lon="-7.397191487252712">
        <ele>1407.03</ele>
        <time>2019-03-16T09:15:30Z</time>
      </trkpt>
      <trkpt lat="31.398632749915123" lon="-7.397067099809647">
        <ele>1407.03</ele>
        <time>2019-03-16T09:15:31Z</time>
      </trkpt>
      <trkpt lat="31.398632749915123" lon="-7.396941538900137">
        <ele>1406.55</ele>
        <time>2019-03-16T09:15:32Z</time>
      </trkpt>
      <trkpt lat="31.398623194545507" lon="-7.396820336580277">
        <ele>1406.0699999999999</ele>
        <time>2019-03-16T09:15:37Z</time>
      </trkpt>
      <trkpt lat="31.398622691631317" lon="-7.396600814536214">
        <ele>1405.5799999999999</ele>
        <time>2019-03-16T09:15:38Z</time>
      </trkpt>
      <trkpt lat="31.398661583662033" lon="-7.396518923342228">
        <ele>1405.5799999999999</ele>
        <time>2019-03-16T09:15:39Z</time>
      </trkpt>
      <trkpt lat="31.398727800697088" lon="-7.396469637751579">
        <ele>1405.0999999999999</ele>
        <time>2019-03-16T09:15:40Z</time>
      </trkpt>
      <trkpt lat="31.398807680234313" lon="-7.396462596952915">
        <ele>1404.6199999999999</ele>
        <time>2019-03-16T09:15:41Z</time>
      </trkpt>
      <trkpt lat="31.398898540064692" lon="-7.396483216434717">
        <ele>1404.1400000000001</ele>
        <time>2019-03-16T09:15:47Z</time>
      </trkpt>
      <trkpt lat="31.398995518684387" lon="-7.396504590287805">
        <ele>1404.1400000000001</ele>
        <time>2019-03-16T09:15:48Z</time>
      </trkpt>
      <trkpt lat="31.399100627750158" lon="-7.396507607772946">
        <ele>1403.6600000000001</ele>
        <time>2019-03-16T09:15:55Z</time>
      </trkpt>
      <trkpt lat="31.399212023243308" lon="-7.396488413214684">
        <ele>1403.6600000000001</ele>
        <time>2019-03-16T09:15:56Z</time>
      </trkpt>
      <trkpt lat="31.399325178936124" lon="-7.396451784297824">
        <ele>1403.6600000000001</ele>
        <time>2019-03-16T09:16:03Z</time>
      </trkpt>
      <trkpt lat="31.399439843371511" lon="-7.396401911973953">
        <ele>1403.6600000000001</ele>
        <time>2019-03-16T09:16:04Z</time>
      </trkpt>
      <trkpt lat="31.399550484493375" lon="-7.39633971825242">
        <ele>1403.1800000000001</ele>
        <time>2019-03-16T09:16:05Z</time>
      </trkpt>
      <trkpt lat="31.3996597006917" lon="-7.39626151509583">
        <ele>1403.1800000000001</ele>
        <time>2019-03-16T09:16:06Z</time>
      </trkpt>
      <trkpt lat="31.399761540815234" lon="-7.396168559789658">
        <ele>1402.7</ele>
        <time>2019-03-16T09:16:07Z</time>
      </trkpt>
      <trkpt lat="31.399853406473994" lon="-7.39606311544776">
        <ele>1402.7</ele>
        <time>2019-03-16T09:16:08Z</time>
      </trkpt>
      <trkpt lat="31.399933872744441" lon="-7.395946271717548">
        <ele>1402.7</ele>
        <time>2019-03-16T09:16:09Z</time>
      </trkpt>
      <trkpt lat="31.400003358721733" lon="-7.395818363875151">
        <ele>1402.22</ele>
        <time>2019-03-16T09:16:15Z</time>
      </trkpt>
      <trkpt lat="31.40005893073976" lon="-7.395681571215391">
        <ele>1401.74</ele>
        <time>2019-03-16T09:16:16Z</time>
      </trkpt>
      <trkpt lat="31.400103522464633" lon="-7.39553983323276">
        <ele>1399.8199999999999</ele>
        <time>2019-03-16T09:16:17Z</time>
      </trkpt>
      <trkpt lat="31.400137636810541" lon="-7.395396837964654">
        <ele>1399.3399999999999</ele>
        <time>2019-03-16T09:16:18Z</time>
      </trkpt>
      <trkpt lat="31.400157753378153" lon="-7.395249232649803">
        <ele>1399.3399999999999</ele>
        <time>2019-03-16T09:16:19Z</time>
      </trkpt>
      <trkpt lat="31.400168314576149" lon="-7.395097436383367">
        <ele>1398.8599999999999</ele>
        <time>2019-03-16T09:16:20Z</time>
      </trkpt>
      <trkpt lat="31.400170996785164" lon="-7.394947903230786">
        <ele>1398.3699999999999</ele>
        <time>2019-03-16T09:16:21Z</time>
      </trkpt>
      <trkpt lat="31.400167979300022" lon="-7.394802644848824">
        <ele>1397.8900000000001</ele>
        <time>2019-03-16T09:16:22Z</time>
      </trkpt>
      <trkpt lat="31.400170493870974" lon="-7.39448145031929">
        <ele>1397.8900000000001</ele>
        <time>2019-03-16T09:16:23Z</time>
      </trkpt>
      <trkpt lat="31.400209553539753" lon="-7.394416658207774">
        <ele>1396.9300000000001</ele>
        <time>2019-03-16T09:16:24Z</time>
      </trkpt>
      <trkpt lat="31.400271160528064" lon="-7.394381538033485">
        <ele>1395.97</ele>
        <time>2019-03-16T09:16:25Z</time>
      </trkpt>
      <trkpt lat="31.400343580171466" lon="-7.39438958466053">
        <ele>1390.2</ele>
        <time>2019-03-16T09:16:26Z</time>
      </trkpt>
      <trkpt lat="31.400414826348424" lon="-7.394436774775386">
        <ele>1389.24</ele>
        <time>2019-03-16T09:16:27Z</time>
      </trkpt>
      <trkpt lat="31.400478780269623" lon="-7.394510032609105">
        <ele>1388.28</ele>
        <time>2019-03-16T09:16:28Z</time>
      </trkpt>
      <trkpt lat="31.400541309267282" lon="-7.394593181088567">
        <ele>1386.8399999999999</ele>
        <time>2019-03-16T09:16:29Z</time>
      </trkpt>
      <trkpt lat="31.400696039199829" lon="-7.394768027588725">
        <ele>1385.8800000000001</ele>
        <time>2019-03-16T09:16:30Z</time>
      </trkpt>
      <trkpt lat="31.401221333071589" lon="-7.395188547670841">
        <ele>1385.4000000000001</ele>
        <time>2019-03-16T09:16:31Z</time>
      </trkpt>
      <trkpt lat="31.402483312413096" lon="-7.395869912579656">
        <ele>1384.4400000000001</ele>
        <time>2019-03-16T09:16:32Z</time>
      </trkpt>
      <trkpt lat="31.402769386768341" lon="-7.396039813756943">
        <ele>1383.96</ele>
        <time>2019-03-16T09:16:36Z</time>
      </trkpt>
      <trkpt lat="31.402910789474845" lon="-7.396095134317875">
        <ele>1383.47</ele>
        <time>2019-03-16T09:16:37Z</time>
      </trkpt>
      <trkpt lat="31.403048420324922" lon="-7.396122543141246">
        <ele>1382.99</ele>
        <time>2019-03-16T09:16:38Z</time>
      </trkpt>
      <trkpt lat="31.403180183842778" lon="-7.396122291684151">
        <ele>1382.99</ele>
        <time>2019-03-16T09:16:39Z</time>
      </trkpt>
      <trkpt lat="31.403308091685176" lon="-7.396095972508192">
        <ele>1382.99</ele>
        <time>2019-03-16T09:16:40Z</time>
      </trkpt>
      <trkpt lat="31.4034294616431" lon="-7.396045848727226">
        <ele>1382.99</ele>
        <time>2019-03-16T09:16:41Z</time>
      </trkpt>
      <trkpt lat="31.403534989804029" lon="-7.395969741046429">
        <ele>1382.99</ele>
        <time>2019-03-16T09:16:42Z</time>
      </trkpt>
      <trkpt lat="31.403622161597013" lon="-7.39586329087615">
        <ele>1383.47</ele>
        <time>2019-03-16T09:16:43Z</time>
      </trkpt>
      <trkpt lat="31.403689384460449" lon="-7.395734544843435">
        <ele>1383.47</ele>
        <time>2019-03-16T09:16:44Z</time>
      </trkpt>
      <trkpt lat="31.403736909851432" lon="-7.395592639222741">
        <ele>1383.96</ele>
        <time>2019-03-16T09:16:45Z</time>
      </trkpt>
      <trkpt lat="31.40377395786345" lon="-7.395451404154301">
        <ele>1384.4400000000001</ele>
        <time>2019-03-16T09:16:46Z</time>
      </trkpt>
      <trkpt lat="31.403848389163613" lon="-7.395205395296216">
        <ele>1384.4400000000001</ele>
        <time>2019-03-16T09:16:47Z</time>
      </trkpt>
      <trkpt lat="31.403903206810355" lon="-7.395107746124268">
        <ele>1384.9200000000001</ele>
        <time>2019-03-16T09:16:48Z</time>
      </trkpt>
      <trkpt lat="31.403972525149584" lon="-7.395035410299897">
        <ele>1386.3599999999999</ele>
        <time>2019-03-16T09:16:49Z</time>
      </trkpt>
      <trkpt lat="31.404055589810014" lon="-7.394994674250484">
        <ele>1386.8399999999999</ele>
        <time>2019-03-16T09:16:50Z</time>
      </trkpt>
      <trkpt lat="31.404145192354918" lon="-7.394993081688881">
        <ele>1386.8399999999999</ele>
        <time>2019-03-16T09:16:54Z</time>
      </trkpt>
      <trkpt lat="31.404231023043394" lon="-7.395031386986375">
        <ele>1387.3199999999999</ele>
        <time>2019-03-16T09:16:55Z</time>
      </trkpt>
      <trkpt lat="31.404310567304492" lon="-7.395099783316255">
        <ele>1387.3199999999999</ele>
        <time>2019-03-16T09:16:56Z</time>
      </trkpt>
      <trkpt lat="31.404391201213002" lon="-7.395181590691209">
        <ele>1386.8399999999999</ele>
        <time>2019-03-16T09:16:57Z</time>
      </trkpt>
      <trkpt lat="31.405169628560543" lon="-7.395781232044101">
        <ele>1386.3599999999999</ele>
        <time>2019-03-16T09:16:58Z</time>
      </trkpt>
      <trkpt lat="31.405566176399589" lon="-7.396077113226056">
        <ele>1385.8800000000001</ele>
        <time>2019-03-16T09:16:59Z</time>
      </trkpt>
      <trkpt lat="31.405679164454341" lon="-7.396132182329893">
        <ele>1385.8800000000001</ele>
        <time>2019-03-16T09:17:00Z</time>
      </trkpt>
      <trkpt lat="31.405800366774201" lon="-7.396180545911193">
        <ele>1385.8800000000001</ele>
        <time>2019-03-16T09:17:01Z</time>
      </trkpt>
      <trkpt lat="31.405924502760172" lon="-7.396216168999672">
        <ele>1385.8800000000001</ele>
        <time>2019-03-16T09:17:02Z</time>
      </trkpt>
      <trkpt lat="31.406047213822603" lon="-7.396240476518869">
        <ele>1385.8800000000001</ele>
        <time>2019-03-16T09:17:03Z</time>
      </trkpt>
      <trkpt lat="31.406166572123766" lon="-7.39624978043139">
        <ele>1385.8800000000001</ele>
        <time>2019-03-16T09:17:04Z</time>
      </trkpt>
      <trkpt lat="31.406279057264328" lon="-7.396242236718535">
        <ele>1385.8800000000001</ele>
        <time>2019-03-16T09:17:05Z</time>
      </trkpt>
      <trkpt lat="31.406379556283355" lon="-7.396217845380306">
        <ele>1385.8800000000001</ele>
        <time>2019-03-16T09:17:06Z</time>
      </trkpt>
      <trkpt lat="31.406465638428926" lon="-7.396166129037738">
        <ele>1385.8800000000001</ele>
        <time>2019-03-16T09:17:07Z</time>
      </trkpt>
      <trkpt lat="31.406537722796202" lon="-7.396083734929562">
        <ele>1385.8800000000001</ele>
        <time>2019-03-16T09:17:08Z</time>
      </trkpt>
      <trkpt lat="31.406597066670656" lon="-7.395980637520552">
        <ele>1385.4000000000001</ele>
        <time>2019-03-16T09:17:09Z</time>
      </trkpt>
      <trkpt lat="31.406649872660637" lon="-7.395866140723229">
        <ele>1385.4000000000001</ele>
        <time>2019-03-16T09:17:10Z</time>
      </trkpt>
      <trkpt lat="31.406692452728748" lon="-7.395745106041431">
        <ele>1385.4000000000001</ele>
        <time>2019-03-16T09:17:19Z</time>
      </trkpt>
      <trkpt lat="31.40671793371439" lon="-7.39561652764678">
        <ele>1385.4000000000001</ele>
        <time>2019-03-16T09:17:20Z</time>
      </trkpt>
      <trkpt lat="31.406728159636259" lon="-7.395477555692196">
        <ele>1384.4400000000001</ele>
        <time>2019-03-16T09:17:21Z</time>
      </trkpt>
      <trkpt lat="31.406726902350783" lon="-7.395330369472504">
        <ele>1384.4400000000001</ele>
        <time>2019-03-16T09:17:22Z</time>
      </trkpt>
      <trkpt lat="31.406712401658297" lon="-7.395178740844131">
        <ele>1384.4400000000001</ele>
        <time>2019-03-16T09:17:23Z</time>
      </trkpt>
      <trkpt lat="31.406684909015894" lon="-7.395026106387377">
        <ele>1383.96</ele>
        <time>2019-03-16T09:17:24Z</time>
      </trkpt>
      <trkpt lat="31.406647777184844" lon="-7.394873388111591">
        <ele>1383.96</ele>
        <time>2019-03-16T09:17:25Z</time>
      </trkpt>
      <trkpt lat="31.406608466058969" lon="-7.394723016768694">
        <ele>1384.4400000000001</ele>
        <time>2019-03-16T09:17:26Z</time>
      </trkpt>
      <trkpt lat="31.406437810510397" lon="-7.394038550555706">
        <ele>1384.9200000000001</ele>
        <time>2019-03-16T09:17:27Z</time>
      </trkpt>
      <trkpt lat="31.406447114422917" lon="-7.39390485920012">
        <ele>1389.24</ele>
        <time>2019-03-16T09:17:28Z</time>
      </trkpt>
      <trkpt lat="31.406484078615904" lon="-7.393776951357722">
        <ele>1389.72</ele>
        <time>2019-03-16T09:17:29Z</time>
      </trkpt>
      <trkpt lat="31.4065498765558" lon="-7.393657173961401">
        <ele>1394.05</ele>
        <time>2019-03-16T09:17:30Z</time>
      </trkpt>
      <trkpt lat="31.406628582626581" lon="-7.393539743497968">
        <ele>1394.53</ele>
        <time>2019-03-16T09:17:31Z</time>
      </trkpt>
      <trkpt lat="31.407106602564454" lon="-7.392839854583144">
        <ele>1395.01</ele>
        <time>2019-03-16T09:17:34Z</time>
      </trkpt>
      <trkpt lat="31.407206179574132" lon="-7.392741534858942">
        <ele>1395.49</ele>
        <time>2019-03-16T09:17:35Z</time>
      </trkpt>
      <trkpt lat="31.407916126772761" lon="-7.3921306617558">
        <ele>1395.97</ele>
        <time>2019-03-16T09:17:36Z</time>
      </trkpt>
      <trkpt lat="31.408029869198799" lon="-7.392063438892365">
        <ele>1396.45</ele>
        <time>2019-03-16T09:17:37Z</time>
      </trkpt>
      <trkpt lat="31.408778708428144" lon="-7.391567816957831">
        <ele>1396.9300000000001</ele>
        <time>2019-03-16T09:17:38Z</time>
      </trkpt>
      <trkpt lat="31.408867640420794" lon="-7.391529679298401">
        <ele>1398.3699999999999</ele>
        <time>2019-03-16T09:17:39Z</time>
      </trkpt>
      <trkpt lat="31.408952884376049" lon="-7.391518279910088">
        <ele>1398.3699999999999</ele>
        <time>2019-03-16T09:17:40Z</time>
      </trkpt>
      <trkpt lat="31.409035110846162" lon="-7.391531942412257">
        <ele>1397.8900000000001</ele>
        <time>2019-03-16T09:17:43Z</time>
      </trkpt>
      <trkpt lat="31.409114152193069" lon="-7.391565218567848">
        <ele>1397.4100000000001</ele>
        <time>2019-03-16T09:17:44Z</time>
      </trkpt>
      <trkpt lat="31.409193361178041" lon="-7.391612324863672">
        <ele>1396.45</ele>
        <time>2019-03-16T09:17:45Z</time>
      </trkpt>
      <trkpt lat="31.409277012571692" lon="-7.391666807234287">
        <ele>1395.97</ele>
        <time>2019-03-16T09:17:46Z</time>
      </trkpt>
      <trkpt lat="31.409882688894868" lon="-7.392026726156473">
        <ele>1395.01</ele>
        <time>2019-03-16T09:17:47Z</time>
      </trkpt>
      <trkpt lat="31.409993832930923" lon="-7.392066707834601">
        <ele>1394.05</ele>
        <time>2019-03-16T09:17:48Z</time>
      </trkpt>
      <trkpt lat="31.410111514851451" lon="-7.392090177163482">
        <ele>1393.5699999999999</ele>
        <time>2019-03-16T09:17:49Z</time>
      </trkpt>
      <trkpt lat="31.410232130438089" lon="-7.392095206305385">
        <ele>1392.6099999999999</ele>
        <time>2019-03-16T09:17:50Z</time>
      </trkpt>
      <trkpt lat="31.410353584215045" lon="-7.392076514661312">
        <ele>1391.6500000000001</ele>
        <time>2019-03-16T09:17:51Z</time>
      </trkpt>
      <trkpt lat="31.410465985536575" lon="-7.392029911279678">
        <ele>1391.1700000000001</ele>
        <time>2019-03-16T09:17:53Z</time>
      </trkpt>
      <trkpt lat="31.410572770982981" lon="-7.391959251835942">
        <ele>1390.2</ele>
        <time>2019-03-16T09:17:54Z</time>
      </trkpt>
      <trkpt lat="31.410674275830388" lon="-7.391874846071005">
        <ele>1389.72</ele>
        <time>2019-03-16T09:17:55Z</time>
      </trkpt>
      <trkpt lat="31.410777792334557" lon="-7.391785327345133">
        <ele>1388.76</ele>
        <time>2019-03-16T09:17:56Z</time>
      </trkpt>
      <trkpt lat="31.410884996876121" lon="-7.391706705093384">
        <ele>1388.28</ele>
        <time>2019-03-16T09:17:57Z</time>
      </trkpt>
      <trkpt lat="31.410999661311507" lon="-7.391651887446642">
        <ele>1387.8</ele>
        <time>2019-03-16T09:17:58Z</time>
      </trkpt>
      <trkpt lat="31.41111365519464" lon="-7.391622131690383">
        <ele>1387.3199999999999</ele>
        <time>2019-03-16T09:18:00Z</time>
      </trkpt>
      <trkpt lat="31.411216836422682" lon="-7.391595896333456">
        <ele>1386.3599999999999</ele>
        <time>2019-03-16T09:18:01Z</time>
      </trkpt>
      <trkpt lat="31.41130174510181" lon="-7.391551053151488">
        <ele>1385.8800000000001</ele>
        <time>2019-03-16T09:18:02Z</time>
      </trkpt>
      <trkpt lat="31.411365447565913" lon="-7.391479890793562">
        <ele>1385.8800000000001</ele>
        <time>2019-03-16T09:18:03Z</time>
      </trkpt>
      <trkpt lat="31.411404926329851" lon="-7.391385342925787">
        <ele>1385.4000000000001</ele>
        <time>2019-03-16T09:18:04Z</time>
      </trkpt>
      <trkpt lat="31.411422109231353" lon="-7.391274701803923">
        <ele>1384.9200000000001</ele>
        <time>2019-03-16T09:18:05Z</time>
      </trkpt>
      <trkpt lat="31.411434765905142" lon="-7.391159450635314">
        <ele>1384.9200000000001</ele>
        <time>2019-03-16T09:18:06Z</time>
      </trkpt>
      <trkpt lat="31.41156024299562" lon="-7.390698278322816">
        <ele>1384.4400000000001</ele>
        <time>2019-03-16T09:18:08Z</time>
      </trkpt>
      <trkpt lat="31.411611372604966" lon="-7.390604820102453">
        <ele>1384.4400000000001</ele>
        <time>2019-03-16T09:18:09Z</time>
      </trkpt>
      <trkpt lat="31.411674404516816" lon="-7.390532568097115">
        <ele>1383.96</ele>
        <time>2019-03-16T09:18:10Z</time>
      </trkpt>
      <trkpt lat="31.411749254912138" lon="-7.390483198687434">
        <ele>1383.47</ele>
        <time>2019-03-16T09:18:11Z</time>
      </trkpt>
      <trkpt lat="31.411834331229329" lon="-7.390451179817319">
        <ele>1382.99</ele>
        <time>2019-03-16T09:18:12Z</time>
      </trkpt>
      <trkpt lat="31.411926448345184" lon="-7.390440450981259">
        <ele>1382.51</ele>
        <time>2019-03-16T09:18:13Z</time>
      </trkpt>
      <trkpt lat="31.412018649280071" lon="-7.390457298606634">
        <ele>1382.03</ele>
        <time>2019-03-16T09:18:16Z</time>
      </trkpt>
      <trkpt lat="31.412105737254024" lon="-7.390494849532843">
        <ele>1381.55</ele>
        <time>2019-03-16T09:18:17Z</time>
      </trkpt>
      <trkpt lat="31.412191232666373" lon="-7.390551427379251">
        <ele>1381.55</ele>
        <time>2019-03-16T09:18:19Z</time>
      </trkpt>
      <trkpt lat="31.412273291498423" lon="-7.390620158985257">
        <ele>1379.6300000000001</ele>
        <time>2019-03-16T09:18:20Z</time>
      </trkpt>
      <trkpt lat="31.412347303703427" lon="-7.390698445960879">
        <ele>1379.1500000000001</ele>
        <time>2019-03-16T09:18:21Z</time>
      </trkpt>
      <trkpt lat="31.412417711690068" lon="-7.390780420973897">
        <ele>1378.6700000000001</ele>
        <time>2019-03-16T09:18:22Z</time>
      </trkpt>
      <trkpt lat="31.412495244294405" lon="-7.390859965234995">
        <ele>1377.71</ele>
        <time>2019-03-16T09:18:23Z</time>
      </trkpt>
      <trkpt lat="31.41258736141026" lon="-7.390929786488414">
        <ele>1376.75</ele>
        <time>2019-03-16T09:18:24Z</time>
      </trkpt>
      <trkpt lat="31.412690877914429" lon="-7.390993488952518">
        <ele>1375.78</ele>
        <time>2019-03-16T09:18:25Z</time>
      </trkpt>
      <trkpt lat="31.413159091025591" lon="-7.391246873885393">
        <ele>1375.3</ele>
        <time>2019-03-16T09:18:26Z</time>
      </trkpt>
      <trkpt lat="31.413285909220576" lon="-7.391285933554173">
        <ele>1374.3399999999999</ele>
        <time>2019-03-16T09:18:27Z</time>
      </trkpt>
      <trkpt lat="31.413413649424911" lon="-7.391305882483721">
        <ele>1373.8599999999999</ele>
        <time>2019-03-16T09:18:28Z</time>
      </trkpt>
      <trkpt lat="31.413538623601198" lon="-7.391302613541484">
        <ele>1373.3800000000001</ele>
        <time>2019-03-16T09:18:29Z</time>
      </trkpt>
      <trkpt lat="31.413656137883663" lon="-7.391278892755508">
        <ele>1373.3800000000001</ele>
        <time>2019-03-16T09:18:30Z</time>
      </trkpt>
      <trkpt lat="31.413762839511037" lon="-7.39123597741127">
        <ele>1372.9000000000001</ele>
        <time>2019-03-16T09:18:31Z</time>
      </trkpt>
      <trkpt lat="31.413853531703353" lon="-7.391191804781556">
        <ele>1372.4200000000001</ele>
        <time>2019-03-16T09:18:32Z</time>
      </trkpt>
      <trkpt lat="31.413934417068958" lon="-7.391159953549504">
        <ele>1372.4200000000001</ele>
        <time>2019-03-16T09:18:33Z</time>
      </trkpt>
      <trkpt lat="31.414013123139739" lon="-7.391152158379555">
        <ele>1372.4200000000001</ele>
        <time>2019-03-16T09:18:35Z</time>
      </trkpt>
      <trkpt lat="31.414087470620871" lon="-7.391174370422959">
        <ele>1371.9400000000001</ele>
        <time>2019-03-16T09:18:37Z</time>
      </trkpt>
      <trkpt lat="31.414152681827545" lon="-7.391222734004259">
        <ele>1370.98</ele>
        <time>2019-03-16T09:18:38Z</time>
      </trkpt>
      <trkpt lat="31.414216719567776" lon="-7.391282413154841">
        <ele>1367.1300000000001</ele>
        <time>2019-03-16T09:18:39Z</time>
      </trkpt>
      <trkpt lat="31.414280841127038" lon="-7.391339493915439">
        <ele>1366.6500000000001</ele>
        <time>2019-03-16T09:18:40Z</time>
      </trkpt>
      <trkpt lat="31.414351332932711" lon="-7.391382157802582">
        <ele>1366.1700000000001</ele>
        <time>2019-03-16T09:18:41Z</time>
      </trkpt>
      <trkpt lat="31.414433475583792" lon="-7.391406632959843">
        <ele>1366.1700000000001</ele>
        <time>2019-03-16T09:18:42Z</time>
      </trkpt>
      <trkpt lat="31.414527352899313" lon="-7.3914157692343">
        <ele>1365.6900000000001</ele>
        <time>2019-03-16T09:18:45Z</time>
      </trkpt>
      <trkpt lat="31.414624666795135" lon="-7.391417780891061">
        <ele>1365.6900000000001</ele>
        <time>2019-03-16T09:18:46Z</time>
      </trkpt>
      <trkpt lat="31.415604930371046" lon="-7.391363549977541">
        <ele>1365.21</ele>
        <time>2019-03-16T09:18:47Z</time>
      </trkpt>
      <trkpt lat="31.415687827393413" lon="-7.391358269378543">
        <ele>1364.73</ele>
        <time>2019-03-16T09:18:48Z</time>
      </trkpt>
      <trkpt lat="31.415764940902591" lon="-7.391374781727791">
        <ele>1363.77</ele>
        <time>2019-03-16T09:18:49Z</time>
      </trkpt>
      <trkpt lat="31.415829649195075" lon="-7.391419624909759">
        <ele>1363.29</ele>
        <time>2019-03-16T09:18:50Z</time>
      </trkpt>
      <trkpt lat="31.415870720520616" lon="-7.391490368172526">
        <ele>1362.8099999999999</ele>
        <time>2019-03-16T09:18:51Z</time>
      </trkpt>
      <trkpt lat="31.415883712470531" lon="-7.391579635441303">
        <ele>1362.3299999999999</ele>
        <time>2019-03-16T09:18:52Z</time>
      </trkpt>
      <trkpt lat="31.415870720520616" lon="-7.391680385917425">
        <ele>1361.8399999999999</ele>
        <time>2019-03-16T09:18:53Z</time>
      </trkpt>
      <trkpt lat="31.415842473506927" lon="-7.391791278496385">
        <ele>1360.4000000000001</ele>
        <time>2019-03-16T09:18:54Z</time>
      </trkpt>
      <trkpt lat="31.415811376646161" lon="-7.391913738101721">
        <ele>1359.9200000000001</ele>
        <time>2019-03-16T09:18:57Z</time>
      </trkpt>
      <trkpt lat="31.415791008621454" lon="-7.392047932371497">
        <ele>1359.4400000000001</ele>
        <time>2019-03-16T09:18:58Z</time>
      </trkpt>
      <trkpt lat="31.415786482393742" lon="-7.392186988145113">
        <ele>1358.96</ele>
        <time>2019-03-16T09:18:59Z</time>
      </trkpt>
      <trkpt lat="31.415795953944325" lon="-7.392332330346108">
        <ele>1358</ele>
        <time>2019-03-16T09:19:00Z</time>
      </trkpt>
      <trkpt lat="31.415813053026795" lon="-7.392480690032244">
        <ele>1357.52</ele>
        <time>2019-03-16T09:19:01Z</time>
      </trkpt>
      <trkpt lat="31.415844401344657" lon="-7.3928611446172">
        <ele>1357.04</ele>
        <time>2019-03-16T09:19:02Z</time>
      </trkpt>
      <trkpt lat="31.415825793519616" lon="-7.392963990569115">
        <ele>1355.1199999999999</ele>
        <time>2019-03-16T09:19:03Z</time>
      </trkpt>
      <trkpt lat="31.415783716365695" lon="-7.393055940046907">
        <ele>1354.6300000000001</ele>
        <time>2019-03-16T09:19:05Z</time>
      </trkpt>
      <trkpt lat="31.415721774101257" lon="-7.393138501793146">
        <ele>1353.6700000000001</ele>
        <time>2019-03-16T09:19:06Z</time>
      </trkpt>
      <trkpt lat="31.415642648935318" lon="-7.393212094902992">
        <ele>1353.1900000000001</ele>
        <time>2019-03-16T09:19:07Z</time>
      </trkpt>
      <trkpt lat="31.415551956743002" lon="-7.39328283816576">
        <ele>1352.23</ele>
        <time>2019-03-16T09:19:14Z</time>
      </trkpt>
      <trkpt lat="31.415450200438499" lon="-7.393353162333369">
        <ele>1351.27</ele>
        <time>2019-03-16T09:19:15Z</time>
      </trkpt>
      <trkpt lat="31.415125736966729" lon="-7.393604451790452">
        <ele>1350.3099999999999</ele>
        <time>2019-03-16T09:19:17Z</time>
      </trkpt>
      <trkpt lat="31.415032278746367" lon="-7.393721966072917">
        <ele>1348.8699999999999</ele>
        <time>2019-03-16T09:19:18Z</time>
      </trkpt>
      <trkpt lat="31.414950219914317" lon="-7.393860602751374">
        <ele>1348.8699999999999</ele>
        <time>2019-03-16T09:19:19Z</time>
      </trkpt>
      <trkpt lat="31.414879811927676" lon="-7.394008710980415">
        <ele>1348.3900000000001</ele>
        <time>2019-03-16T09:19:20Z</time>
      </trkpt>
      <trkpt lat="31.414819294586778" lon="-7.394162686541677">
        <ele>1347.9100000000001</ele>
        <time>2019-03-16T09:19:21Z</time>
      </trkpt>
      <trkpt lat="31.414771936833858" lon="-7.394322529435158">
        <ele>1347.4300000000001</ele>
        <time>2019-03-16T09:19:22Z</time>
      </trkpt>
      <trkpt lat="31.414735056459904" lon="-7.394485473632813">
        <ele>1346.46</ele>
        <time>2019-03-16T09:19:23Z</time>
      </trkpt>
      <trkpt lat="31.414708904922009" lon="-7.394643221050501">
        <ele>1345.98</ele>
        <time>2019-03-16T09:19:32Z</time>
      </trkpt>
      <trkpt lat="31.414694655686617" lon="-7.394785042852163">
        <ele>1345.5</ele>
        <time>2019-03-16T09:19:33Z</time>
      </trkpt>
      <trkpt lat="31.414655344560742" lon="-7.395028369501233">
        <ele>1344.0599999999999</ele>
        <time>2019-03-16T09:19:34Z</time>
      </trkpt>
      <trkpt lat="31.41461175866425" lon="-7.395136747509241">
        <ele>1343.0999999999999</ele>
        <time>2019-03-16T09:19:35Z</time>
      </trkpt>
      <trkpt lat="31.4145487267524" lon="-7.395237497985363">
        <ele>1342.1400000000001</ele>
        <time>2019-03-16T09:19:36Z</time>
      </trkpt>
      <trkpt lat="31.414462979882956" lon="-7.395325340330601">
        <ele>1341.1800000000001</ele>
        <time>2019-03-16T09:19:37Z</time>
      </trkpt>
      <trkpt lat="31.414354769513011" lon="-7.395395915955305">
        <ele>1340.7</ele>
        <time>2019-03-16T09:19:38Z</time>
      </trkpt>
      <trkpt lat="31.414232896640897" lon="-7.395456600934267">
        <ele>1339.73</ele>
        <time>2019-03-16T09:19:39Z</time>
      </trkpt>
      <trkpt lat="31.413990408182144" lon="-7.39560429006815">
        <ele>1338.77</ele>
        <time>2019-03-16T09:19:40Z</time>
      </trkpt>
      <trkpt lat="31.413879347965121" lon="-7.395707136020064">
        <ele>1336.8499999999999</ele>
        <time>2019-03-16T09:19:41Z</time>
      </trkpt>
      <trkpt lat="31.413778010755777" lon="-7.395823812112212">
        <ele>1335.8900000000001</ele>
        <time>2019-03-16T09:19:42Z</time>
      </trkpt>
      <trkpt lat="31.413685977458954" lon="-7.395951300859451">
        <ele>1334.9300000000001</ele>
        <time>2019-03-16T09:19:43Z</time>
      </trkpt>
      <trkpt lat="31.4136076066643" lon="-7.396087339147925">
        <ele>1334.45</ele>
        <time>2019-03-16T09:19:44Z</time>
      </trkpt>
      <trkpt lat="31.413544239476323" lon="-7.396228909492493">
        <ele>1333.49</ele>
        <time>2019-03-16T09:19:45Z</time>
      </trkpt>
      <trkpt lat="31.413491684943438" lon="-7.396376095712185">
        <ele>1332.52</ele>
        <time>2019-03-16T09:19:48Z</time>
      </trkpt>
      <trkpt lat="31.413417421281338" lon="-7.396684801205993">
        <ele>1329.6400000000001</ele>
        <time>2019-03-16T09:19:49Z</time>
      </trkpt>
      <trkpt lat="31.413416415452957" lon="-7.396844225004315">
        <ele>1328.2</ele>
        <time>2019-03-16T09:19:50Z</time>
      </trkpt>
      <trkpt lat="31.413441644981503" lon="-7.397003648802638">
        <ele>1326.28</ele>
        <time>2019-03-16T09:19:51Z</time>
      </trkpt>
      <trkpt lat="31.413484644144773" lon="-7.397162402048707">
        <ele>1325.3099999999999</ele>
        <time>2019-03-16T09:19:52Z</time>
      </trkpt>
      <trkpt lat="31.413542982190847" lon="-7.3973198980093">
        <ele>1324.3499999999999</ele>
        <time>2019-03-16T09:19:53Z</time>
      </trkpt>
      <trkpt lat="31.413610288873315" lon="-7.397477142512798">
        <ele>1323.8699999999999</ele>
        <time>2019-03-16T09:19:54Z</time>
      </trkpt>
      <trkpt lat="31.413783375173807" lon="-7.397925993427634">
        <ele>1323.3900000000001</ele>
        <time>2019-03-16T09:19:55Z</time>
      </trkpt>
      <trkpt lat="31.413817908614874" lon="-7.398076113313437">
        <ele>1323.3900000000001</ele>
        <time>2019-03-16T09:19:56Z</time>
      </trkpt>
      <trkpt lat="31.413876749575138" lon="-7.398385405540466">
        <ele>1322.9100000000001</ele>
        <time>2019-03-16T09:19:57Z</time>
      </trkpt>
      <trkpt lat="31.413922850042582" lon="-7.398537117987871">
        <ele>1322.4300000000001</ele>
        <time>2019-03-16T09:19:58Z</time>
      </trkpt>
      <trkpt lat="31.413982193917036" lon="-7.398679945617914">
        <ele>1322.4300000000001</ele>
        <time>2019-03-16T09:19:59Z</time>
      </trkpt>
      <trkpt lat="31.414049249142408" lon="-7.398808104917407">
        <ele>1321.95</ele>
        <time>2019-03-16T09:20:09Z</time>
      </trkpt>
      <trkpt lat="31.414122842252254" lon="-7.398906759917736">
        <ele>1321.95</ele>
        <time>2019-03-16T09:20:10Z</time>
      </trkpt>
      <trkpt lat="31.414209678769112" lon="-7.398971803486347">
        <ele>1321.95</ele>
        <time>2019-03-16T09:20:11Z</time>
      </trkpt>
      <trkpt lat="31.414311602711678" lon="-7.398993261158466">
        <ele>1321.47</ele>
        <time>2019-03-16T09:20:12Z</time>
      </trkpt>
      <trkpt lat="31.414414867758751" lon="-7.398976245895028">
        <ele>1320.99</ele>
        <time>2019-03-16T09:20:13Z</time>
      </trkpt>
      <trkpt lat="31.414510924369097" lon="-7.39894263446331">
        <ele>1320.99</ele>
        <time>2019-03-16T09:20:14Z</time>
      </trkpt>
      <trkpt lat="31.414600359275937" lon="-7.39892159588635">
        <ele>1320.51</ele>
        <time>2019-03-16T09:20:15Z</time>
      </trkpt>
      <trkpt lat="31.414682753384113" lon="-7.398934587836266">
        <ele>1320.99</ele>
        <time>2019-03-16T09:20:16Z</time>
      </trkpt>
      <trkpt lat="31.414755675941706" lon="-7.398986639454961">
        <ele>1320.99</ele>
        <time>2019-03-16T09:20:17Z</time>
      </trkpt>
      <trkpt lat="31.414810996502638" lon="-7.399070709943771">
        <ele>1320.99</ele>
        <time>2019-03-16T09:20:18Z</time>
      </trkpt>
      <trkpt lat="31.414846871048212" lon="-7.399175902828574">
        <ele>1320.99</ele>
        <time>2019-03-16T09:20:19Z</time>
      </trkpt>
      <trkpt lat="31.414873693138361" lon="-7.399291237816215">
        <ele>1320.99</ele>
        <time>2019-03-16T09:20:20Z</time>
      </trkpt>
      <trkpt lat="31.414948208257556" lon="-7.399528697133064">
        <ele>1320.99</ele>
        <time>2019-03-16T09:20:21Z</time>
      </trkpt>
      <trkpt lat="31.415030183270574" lon="-7.399731036275625">
        <ele>1320.51</ele>
        <time>2019-03-16T09:20:22Z</time>
      </trkpt>
      <trkpt lat="31.415042169392109" lon="-7.399821393191814">
        <ele>1320.51</ele>
        <time>2019-03-16T09:20:23Z</time>
      </trkpt>
      <trkpt lat="31.415024399757385" lon="-7.399905798956752">
        <ele>1320.03</ele>
        <time>2019-03-16T09:20:26Z</time>
      </trkpt>
      <trkpt lat="31.414982238784432" lon="-7.399977883324027">
        <ele>1320.03</ele>
        <time>2019-03-16T09:20:27Z</time>
      </trkpt>
      <trkpt lat="31.414925996214151" lon="-7.40003664046526">
        <ele>1319.55</ele>
        <time>2019-03-16T09:20:32Z</time>
      </trkpt>
      <trkpt lat="31.414867658168077" lon="-7.400090033188462">
        <ele>1319.55</ele>
        <time>2019-03-16T09:20:35Z</time>
      </trkpt>
      <trkpt lat="31.41470018774271" lon="-7.400262365117669">
        <ele>1319.0699999999999</ele>
        <time>2019-03-16T09:20:36Z</time>
      </trkpt>
      <trkpt lat="31.414648555219173" lon="-7.400351967662573">
        <ele>1318.0999999999999</ele>
        <time>2019-03-16T09:20:37Z</time>
      </trkpt>
      <trkpt lat="31.414612680673599" lon="-7.400457328185439">
        <ele>1317.6199999999999</ele>
        <time>2019-03-16T09:20:38Z</time>
      </trkpt>
      <trkpt lat="31.414597844704986" lon="-7.400571070611477">
        <ele>1316.6600000000001</ele>
        <time>2019-03-16T09:20:39Z</time>
      </trkpt>
      <trkpt lat="31.414603292942047" lon="-7.400687579065561">
        <ele>1315.22</ele>
        <time>2019-03-16T09:20:40Z</time>
      </trkpt>
      <trkpt lat="31.414629528298974" lon="-7.400800902396441">
        <ele>1314.74</ele>
        <time>2019-03-16T09:20:41Z</time>
      </trkpt>
      <trkpt lat="31.414678562432528" lon="-7.400903748348355">
        <ele>1314.26</ele>
        <time>2019-03-16T09:20:42Z</time>
      </trkpt>
      <trkpt lat="31.414753496646881" lon="-7.400990165770054">
        <ele>1313.78</ele>
        <time>2019-03-16T09:20:43Z</time>
      </trkpt>
      <trkpt lat="31.414849804714322" lon="-7.40105839446187">
        <ele>1313.3</ele>
        <time>2019-03-16T09:20:46Z</time>
      </trkpt>
      <trkpt lat="31.414956673979759" lon="-7.401116816326976">
        <ele>1312.3399999999999</ele>
        <time>2019-03-16T09:20:53Z</time>
      </trkpt>
      <trkpt lat="31.415279963985085" lon="-7.401268193498254">
        <ele>1311.8599999999999</ele>
        <time>2019-03-16T09:20:58Z</time>
      </trkpt>
      <trkpt lat="31.415372081100941" lon="-7.401337511837483">
        <ele>1310.9000000000001</ele>
        <time>2019-03-16T09:20:59Z</time>
      </trkpt>
      <trkpt lat="31.415446344763041" lon="-7.401423593983054">
        <ele>1310.4100000000001</ele>
        <time>2019-03-16T09:21:02Z</time>
      </trkpt>
      <trkpt lat="31.415504263713956" lon="-7.40152794867754">
        <ele>1310.4100000000001</ele>
        <time>2019-03-16T09:21:15Z</time>
      </trkpt>
      <trkpt lat="31.415547262877226" lon="-7.401648899540305">
        <ele>1309.9300000000001</ele>
        <time>2019-03-16T09:21:26Z</time>
      </trkpt>
      <trkpt lat="31.415578946471214" lon="-7.401774963364005">
        <ele>1309.45</ele>
        <time>2019-03-16T09:21:36Z</time>
      </trkpt>
      <trkpt lat="31.415601996704936" lon="-7.401896920055151">
        <ele>1309.45</ele>
        <time>2019-03-16T09:21:44Z</time>
      </trkpt>
      <trkpt lat="31.415659915655851" lon="-7.402123734354973">
        <ele>1309.45</ele>
        <time>2019-03-16T09:21:45Z</time>
      </trkpt>
      <trkpt lat="31.415701489895582" lon="-7.402225406840444">
        <ele>1308.97</ele>
        <time>2019-03-16T09:21:46Z</time>
      </trkpt>
      <trkpt lat="31.415751529857516" lon="-7.402317523956299">
        <ele>1308.97</ele>
        <time>2019-03-16T09:21:47Z</time>
      </trkpt>
      <trkpt lat="31.416143551468849" lon="-7.403005929663777">
        <ele>1308.97</ele>
        <time>2019-03-16T09:21:48Z</time>
      </trkpt>
      <trkpt lat="31.416219491511583" lon="-7.403085473924875">
        <ele>1308.97</ele>
        <time>2019-03-16T09:21:49Z</time>
      </trkpt>
      <trkpt lat="31.416387716308236" lon="-7.403221344575286">
        <ele>1308.97</ele>
        <time>2019-03-16T09:21:50Z</time>
      </trkpt>
      <trkpt lat="31.416482012718916" lon="-7.403277084231377">
        <ele>1305.6099999999999</ele>
        <time>2019-03-16T09:21:51Z</time>
      </trkpt>
      <trkpt lat="31.41658091917634" lon="-7.403320418670774">
        <ele>1305.6099999999999</ele>
        <time>2019-03-16T09:22:01Z</time>
      </trkpt>
      <trkpt lat="31.416685273870826" lon="-7.403350844979286">
        <ele>1305.6099999999999</ele>
        <time>2019-03-16T09:22:02Z</time>
      </trkpt>
      <trkpt lat="31.416793568059802" lon="-7.403369201347232">
        <ele>1305.6099999999999</ele>
        <time>2019-03-16T09:22:03Z</time>
      </trkpt>
      <trkpt lat="31.416907478123903" lon="-7.403377667069435">
        <ele>1305.6099999999999</ele>
        <time>2019-03-16T09:22:04Z</time>
      </trkpt>
      <trkpt lat="31.417023902758956" lon="-7.403380097821355">
        <ele>1305.1300000000001</ele>
        <time>2019-03-16T09:22:05Z</time>
      </trkpt>
      <trkpt lat="31.418015146628022" lon="-7.403459893539548">
        <ele>1305.1300000000001</ele>
        <time>2019-03-16T09:22:06Z</time>
      </trkpt>
      <trkpt lat="31.418107096105814" lon="-7.403498031198978">
        <ele>1305.1300000000001</ele>
        <time>2019-03-16T09:22:07Z</time>
      </trkpt>
      <trkpt lat="31.418187813833356" lon="-7.403553519397974">
        <ele>1304.6500000000001</ele>
        <time>2019-03-16T09:22:08Z</time>
      </trkpt>
      <trkpt lat="31.418253192678094" lon="-7.403630884364247">
        <ele>1304.6500000000001</ele>
        <time>2019-03-16T09:22:09Z</time>
      </trkpt>
      <trkpt lat="31.418297784402966" lon="-7.403731299564242">
        <ele>1304.6500000000001</ele>
        <time>2019-03-16T09:22:10Z</time>
      </trkpt>
      <trkpt lat="31.418318403884768" lon="-7.403845377266407">
        <ele>1304.6500000000001</ele>
        <time>2019-03-16T09:22:11Z</time>
      </trkpt>
      <trkpt lat="31.41831899061799" lon="-7.403967333957553">
        <ele>1304.6500000000001</ele>
        <time>2019-03-16T09:22:12Z</time>
      </trkpt>
      <trkpt lat="31.418303987011313" lon="-7.404091972857714">
        <ele>1304.6500000000001</ele>
        <time>2019-03-16T09:22:13Z</time>
      </trkpt>
      <trkpt lat="31.418278338387609" lon="-7.404217952862382">
        <ele>1304.1700000000001</ele>
        <time>2019-03-16T09:22:14Z</time>
      </trkpt>
      <trkpt lat="31.418241625651717" lon="-7.404339825734496">
        <ele>1304.1700000000001</ele>
        <time>2019-03-16T09:22:23Z</time>
      </trkpt>
      <trkpt lat="31.418192591518164" lon="-7.404458429664373">
        <ele>1304.1700000000001</ele>
        <time>2019-03-16T09:22:24Z</time>
      </trkpt>
      <trkpt lat="31.418134672567248" lon="-7.404573513194919">
        <ele>1304.1700000000001</ele>
        <time>2019-03-16T09:22:25Z</time>
      </trkpt>
      <trkpt lat="31.418071640655398" lon="-7.404682729393244">
        <ele>1304.1700000000001</ele>
        <time>2019-03-16T09:22:26Z</time>
      </trkpt>
      <trkpt lat="31.418008524924517" lon="-7.404788676649332">
        <ele>1304.1700000000001</ele>
        <time>2019-03-16T09:22:27Z</time>
      </trkpt>
      <trkpt lat="31.417850274592638" lon="-7.405102243646979">
        <ele>1304.1700000000001</ele>
        <time>2019-03-16T09:22:28Z</time>
      </trkpt>
      <trkpt lat="31.417817417532206" lon="-7.405214561149478">
        <ele>1304.6500000000001</ele>
        <time>2019-03-16T09:22:29Z</time>
      </trkpt>
      <trkpt lat="31.417797720059752" lon="-7.405330315232277">
        <ele>1304.6500000000001</ele>
        <time>2019-03-16T09:22:39Z</time>
      </trkpt>
      <trkpt lat="31.417794451117516" lon="-7.405449338257313">
        <ele>1304.6500000000001</ele>
        <time>2019-03-16T09:22:40Z</time>
      </trkpt>
      <trkpt lat="31.417813394218683" lon="-7.405569367110729">
        <ele>1304.6500000000001</ele>
        <time>2019-03-16T09:22:41Z</time>
      </trkpt>
      <trkpt lat="31.417853040620685" lon="-7.405684450641275">
        <ele>1304.6500000000001</ele>
        <time>2019-03-16T09:22:42Z</time>
      </trkpt>
      <trkpt lat="31.417910624295473" lon="-7.40579467266798">
        <ele>1304.1700000000001</ele>
        <time>2019-03-16T09:22:43Z</time>
      </trkpt>
      <trkpt lat="31.417982038110495" lon="-7.405890394002199">
        <ele>1303.6900000000001</ele>
        <time>2019-03-16T09:22:44Z</time>
      </trkpt>
      <trkpt lat="31.418067701160908" lon="-7.405969016253948">
        <ele>1303.2</ele>
        <time>2019-03-16T09:22:45Z</time>
      </trkpt>
      <trkpt lat="31.418163003399968" lon="-7.406030036509037">
        <ele>1302.72</ele>
        <time>2019-03-16T09:22:46Z</time>
      </trkpt>
      <trkpt lat="31.418265849351883" lon="-7.406073622405529">
        <ele>1302.24</ele>
        <time>2019-03-16T09:22:47Z</time>
      </trkpt>
      <trkpt lat="31.41837514936924" lon="-7.406109161674976">
        <ele>1302.24</ele>
        <time>2019-03-16T09:22:48Z</time>
      </trkpt>
      <trkpt lat="31.419551214203238" lon="-7.406393140554428">
        <ele>1301.76</ele>
        <time>2019-03-16T09:22:49Z</time>
      </trkpt>
      <trkpt lat="31.419654479250312" lon="-7.406376460567117">
        <ele>1301.28</ele>
        <time>2019-03-16T09:22:59Z</time>
      </trkpt>
      <trkpt lat="31.41974676400423" lon="-7.406337568536401">
        <ele>1301.28</ele>
        <time>2019-03-16T09:23:08Z</time>
      </trkpt>
      <trkpt lat="31.419818764552474" lon="-7.406276380643249">
        <ele>1300.8</ele>
        <time>2019-03-16T09:23:14Z</time>
      </trkpt>
      <trkpt lat="31.419871486723423" lon="-7.4062011949718">
        <ele>1300.8</ele>
        <time>2019-03-16T09:23:15Z</time>
      </trkpt>
      <trkpt lat="31.419913731515408" lon="-7.40611863322556">
        <ele>1300.8</ele>
        <time>2019-03-16T09:23:16Z</time>
      </trkpt>
      <trkpt lat="31.41995882615447" lon="-7.406035903841257">
        <ele>1300.3199999999999</ele>
        <time>2019-03-16T09:23:17Z</time>
      </trkpt>
      <trkpt lat="31.4200125541538" lon="-7.405955269932747">
        <ele>1300.3199999999999</ele>
        <time>2019-03-16T09:23:18Z</time>
      </trkpt>
      <trkpt lat="31.420075753703713" lon="-7.405882934108377">
        <ele>1300.3199999999999</ele>
        <time>2019-03-16T09:23:19Z</time>
      </trkpt>
      <trkpt lat="31.420143060386181" lon="-7.405816968530417">
        <ele>1301.28</ele>
        <time>2019-03-16T09:23:20Z</time>
      </trkpt>
      <trkpt lat="31.420214306563139" lon="-7.405758379027247">
        <ele>1301.28</ele>
        <time>2019-03-16T09:23:21Z</time>
      </trkpt>
      <trkpt lat="31.42029301263392" lon="-7.40571403875947">
        <ele>1301.76</ele>
        <time>2019-03-16T09:23:22Z</time>
      </trkpt>
      <trkpt lat="31.420375322923064" lon="-7.405684199184179">
        <ele>1300.8</ele>
        <time>2019-03-16T09:23:23Z</time>
      </trkpt>
      <trkpt lat="31.420461740344763" lon="-7.405667100101709">
        <ele>1300.8</ele>
        <time>2019-03-16T09:23:24Z</time>
      </trkpt>
      <trkpt lat="31.420551678165793" lon="-7.405656957998872">
        <ele>1300.8</ele>
        <time>2019-03-16T09:23:25Z</time>
      </trkpt>
      <trkpt lat="31.420840853825212" lon="-7.405653856694698">
        <ele>1300.3199999999999</ele>
        <time>2019-03-16T09:23:26Z</time>
      </trkpt>
      <trkpt lat="31.420943196862936" lon="-7.405679589137435">
        <ele>1299.8399999999999</ele>
        <time>2019-03-16T09:23:27Z</time>
      </trkpt>
      <trkpt lat="31.421465640887618" lon="-7.405824679881334">
        <ele>1299.3599999999999</ele>
        <time>2019-03-16T09:23:28Z</time>
      </trkpt>
      <trkpt lat="31.421792199835181" lon="-7.405847562476993">
        <ele>1298.8800000000001</ele>
        <time>2019-03-16T09:23:29Z</time>
      </trkpt>
      <trkpt lat="31.421892615035176" lon="-7.405882515013218">
        <ele>1298.8800000000001</ele>
        <time>2019-03-16T09:23:30Z</time>
      </trkpt>
      <trkpt lat="31.421978445723653" lon="-7.405937919393182">
        <ele>1298.4000000000001</ele>
        <time>2019-03-16T09:23:31Z</time>
      </trkpt>
      <trkpt lat="31.422042148187757" lon="-7.406013859435916">
        <ele>1297.4400000000001</ele>
        <time>2019-03-16T09:23:32Z</time>
      </trkpt>
      <trkpt lat="31.422073831781745" lon="-7.406107820570469">
        <ele>1294.0699999999999</ele>
        <time>2019-03-16T09:23:33Z</time>
      </trkpt>
      <trkpt lat="31.422071233391762" lon="-7.406208319589496">
        <ele>1294.0699999999999</ele>
        <time>2019-03-16T09:23:34Z</time>
      </trkpt>
      <trkpt lat="31.422032257542014" lon="-7.406306052580476">
        <ele>1294.0699999999999</ele>
        <time>2019-03-16T09:23:35Z</time>
      </trkpt>
      <trkpt lat="31.421972075477242" lon="-7.406398002058268">
        <ele>1294.55</ele>
        <time>2019-03-16T09:23:36Z</time>
      </trkpt>
      <trkpt lat="31.421908205375075" lon="-7.406489364802837">
        <ele>1295.03</ele>
        <time>2019-03-16T09:23:37Z</time>
      </trkpt>
      <trkpt lat="31.421742411330342" lon="-7.406750125810504">
        <ele>1295.51</ele>
        <time>2019-03-16T09:23:40Z</time>
      </trkpt>
      <trkpt lat="31.421789349988103" lon="-7.407266031950712">
        <ele>1296.96</ele>
        <time>2019-03-16T09:23:45Z</time>
      </trkpt>
      <trkpt lat="31.422122279182076" lon="-7.40757817402482">
        <ele>1297.4400000000001</ele>
        <time>2019-03-16T09:23:52Z</time>
      </trkpt>
      <trkpt lat="31.42220601439476" lon="-7.407619496807456">
        <ele>1296.96</ele>
        <time>2019-03-16T09:24:03Z</time>
      </trkpt>
      <trkpt lat="31.422490328550339" lon="-7.407749248668551">
        <ele>1296.48</ele>
        <time>2019-03-16T09:24:11Z</time>
      </trkpt>
      <trkpt lat="31.423559440299869" lon="-7.408299185335636">
        <ele>1295.99</ele>
        <time>2019-03-16T09:24:12Z</time>
      </trkpt>
      <trkpt lat="31.424395786598325" lon="-7.408816516399384">
        <ele>1295.51</ele>
        <time>2019-03-16T09:24:13Z</time>
      </trkpt>
      <trkpt lat="31.425016969442368" lon="-7.409116923809052">
        <ele>1294.55</ele>
        <time>2019-03-16T09:24:14Z</time>
      </trkpt>
      <trkpt lat="31.425352497026324" lon="-7.409522272646427">
        <ele>1293.5899999999999</ele>
        <time>2019-03-16T09:24:15Z</time>
      </trkpt>
      <trkpt lat="31.425372781231999" lon="-7.409579018130899">
        <ele>1292.6300000000001</ele>
        <time>2019-03-16T09:24:16Z</time>
      </trkpt>
      <trkpt lat="31.425390215590596" lon="-7.409641547128558">
        <ele>1289.75</ele>
        <time>2019-03-16T09:24:17Z</time>
      </trkpt>
      <trkpt lat="31.425400692969561" lon="-7.40971346385777">
        <ele>1289.75</ele>
        <time>2019-03-16T09:24:18Z</time>
      </trkpt>
      <trkpt lat="31.42540454864502" lon="-7.409786721691489">
        <ele>1289.27</ele>
        <time>2019-03-16T09:24:19Z</time>
      </trkpt>
      <trkpt lat="31.425399351865053" lon="-7.40985905751586">
        <ele>1289.27</ele>
        <time>2019-03-16T09:24:23Z</time>
      </trkpt>
      <trkpt lat="31.425387533381581" lon="-7.409927705302835">
        <ele>1288.78</ele>
        <time>2019-03-16T09:24:24Z</time>
      </trkpt>
      <trkpt lat="31.425372613593936" lon="-7.409994844347239">
        <ele>1288.78</ele>
        <time>2019-03-16T09:24:25Z</time>
      </trkpt>
      <trkpt lat="31.425329195335507" lon="-7.410701857879758">
        <ele>1288.78</ele>
        <time>2019-03-16T09:24:33Z</time>
      </trkpt>
      <trkpt lat="31.425347048789263" lon="-7.410768661648035">
        <ele>1288.78</ele>
        <time>2019-03-16T09:24:34Z</time>
      </trkpt>
      <trkpt lat="31.425373200327158" lon="-7.410827502608299">
        <ele>1289.27</ele>
        <time>2019-03-16T09:24:35Z</time>
      </trkpt>
      <trkpt lat="31.425402704626322" lon="-7.410882487893105">
        <ele>1289.27</ele>
        <time>2019-03-16T09:24:36Z</time>
      </trkpt>
      <trkpt lat="31.425433969125152" lon="-7.410928923636675">
        <ele>1289.75</ele>
        <time>2019-03-16T09:24:37Z</time>
      </trkpt>
      <trkpt lat="31.425465904176235" lon="-7.410970749333501">
        <ele>1289.27</ele>
        <time>2019-03-16T09:24:38Z</time>
      </trkpt>
      <trkpt lat="31.425502700731158" lon="-7.411011066287756">
        <ele>1288.78</ele>
        <time>2019-03-16T09:24:39Z</time>
      </trkpt>
      <trkpt lat="31.425544107332826" lon="-7.411045683547854">
        <ele>1287.8199999999999</ele>
        <time>2019-03-16T09:24:40Z</time>
      </trkpt>
      <trkpt lat="31.425593392923474" lon="-7.411075858399272">
        <ele>1285.9000000000001</ele>
        <time>2019-03-16T09:24:48Z</time>
      </trkpt>
      <trkpt lat="31.425648545846343" lon="-7.411093460395932">
        <ele>1285.9000000000001</ele>
        <time>2019-03-16T09:24:49Z</time>
      </trkpt>
      <trkpt lat="31.425706716254354" lon="-7.411097148433328">
        <ele>1285.4200000000001</ele>
        <time>2019-03-16T09:24:50Z</time>
      </trkpt>
      <trkpt lat="31.425772681832314" lon="-7.411089101806283">
        <ele>1285.4200000000001</ele>
        <time>2019-03-16T09:24:51Z</time>
      </trkpt>
      <trkpt lat="31.425849376246333" lon="-7.411064207553864">
        <ele>1285.4200000000001</ele>
        <time>2019-03-16T09:24:52Z</time>
      </trkpt>
      <trkpt lat="31.42593520693481" lon="-7.411034116521478">
        <ele>1285.4200000000001</ele>
        <time>2019-03-16T09:24:53Z</time>
      </trkpt>
      <trkpt lat="31.426887977868319" lon="-7.410680819302797">
        <ele>1285.4200000000001</ele>
        <time>2019-03-16T09:24:54Z</time>
      </trkpt>
      <trkpt lat="31.426989231258631" lon="-7.410595156252384">
        <ele>1280.1300000000001</ele>
        <time>2019-03-16T09:25:00Z</time>
      </trkpt>
      <trkpt lat="31.427085287868977" lon="-7.410501195117831">
        <ele>1279.6500000000001</ele>
        <time>2019-03-16T09:25:01Z</time>
      </trkpt>
      <trkpt lat="31.427177237346768" lon="-7.410393990576267">
        <ele>1279.6500000000001</ele>
        <time>2019-03-16T09:25:02Z</time>
      </trkpt>
      <trkpt lat="31.427265666425228" lon="-7.410277063027024">
        <ele>1279.6500000000001</ele>
        <time>2019-03-16T09:25:03Z</time>
      </trkpt>
      <trkpt lat="31.42734881490469" lon="-7.410153429955244">
        <ele>1279.1700000000001</ele>
        <time>2019-03-16T09:25:10Z</time>
      </trkpt>
      <trkpt lat="31.427426598966122" lon="-7.410025438293815">
        <ele>1279.1700000000001</ele>
        <time>2019-03-16T09:25:11Z</time>
      </trkpt>
      <trkpt lat="31.428070412948728" lon="-7.408880302682519">
        <ele>1278.6900000000001</ele>
        <time>2019-03-16T09:25:12Z</time>
      </trkpt>
      <trkpt lat="31.428138809278607" lon="-7.408801512792707">
        <ele>1277.73</ele>
        <time>2019-03-16T09:25:13Z</time>
      </trkpt>
      <trkpt lat="31.428220700472593" lon="-7.408735295757651">
        <ele>1277.25</ele>
        <time>2019-03-16T09:25:14Z</time>
      </trkpt>
      <trkpt lat="31.428318936377764" lon="-7.408688692376018">
        <ele>1276.77</ele>
        <time>2019-03-16T09:25:15Z</time>
      </trkpt>
      <trkpt lat="31.42843209207058" lon="-7.40866731852293">
        <ele>1276.29</ele>
        <time>2019-03-16T09:25:16Z</time>
      </trkpt>
      <trkpt lat="31.428550947457552" lon="-7.408674191683531">
        <ele>1269.0799999999999</ele>
        <time>2019-03-16T09:25:24Z</time>
      </trkpt>
      <trkpt lat="31.428670724853873" lon="-7.408703863620758">
        <ele>1261.8699999999999</ele>
        <time>2019-03-16T09:25:25Z</time>
      </trkpt>
      <trkpt lat="31.428788742050529" lon="-7.408747617155314">
        <ele>1258.5</ele>
        <time>2019-03-16T09:25:26Z</time>
      </trkpt>
      <trkpt lat="31.428907094523311" lon="-7.408802434802055">
        <ele>1258.98</ele>
        <time>2019-03-16T09:25:27Z</time>
      </trkpt>
      <trkpt lat="31.429026369005442" lon="-7.408867310732603">
        <ele>1258.98</ele>
        <time>2019-03-16T09:25:28Z</time>
      </trkpt>
      <trkpt lat="31.429147906601429" lon="-7.408943083137274">
        <ele>1258.98</ele>
        <time>2019-03-16T09:25:36Z</time>
      </trkpt>
      <trkpt lat="31.430238392204046" lon="-7.409917144104838">
        <ele>1258.5</ele>
        <time>2019-03-16T09:25:37Z</time>
      </trkpt>
      <trkpt lat="31.431072056293488" lon="-7.410749131813645">
        <ele>1258.02</ele>
        <time>2019-03-16T09:25:38Z</time>
      </trkpt>
      <trkpt lat="31.431711595505476" lon="-7.411181051284075">
        <ele>1258.02</ele>
        <time>2019-03-16T09:25:39Z</time>
      </trkpt>
      <trkpt lat="31.431821146979928" lon="-7.411218853667378">
        <ele>1258.02</ele>
        <time>2019-03-16T09:25:40Z</time>
      </trkpt>
      <trkpt lat="31.431929441168904" lon="-7.411242155358195">
        <ele>1258.02</ele>
        <time>2019-03-16T09:25:41Z</time>
      </trkpt>
      <trkpt lat="31.432038489729166" lon="-7.411247184500098">
        <ele>1258.02</ele>
        <time>2019-03-16T09:25:48Z</time>
      </trkpt>
      <trkpt lat="31.432146113365889" lon="-7.411225810647011">
        <ele>1258.02</ele>
        <time>2019-03-16T09:25:49Z</time>
      </trkpt>
      <trkpt lat="31.432250887155533" lon="-7.411180380731821">
        <ele>1258.5</ele>
        <time>2019-03-16T09:25:50Z</time>
      </trkpt>
      <trkpt lat="31.432349542155862" lon="-7.411113074049354">
        <ele>1258.5</ele>
        <time>2019-03-16T09:25:51Z</time>
      </trkpt>
      <trkpt lat="31.432434283196926" lon="-7.41102984175086">
        <ele>1258.02</ele>
        <time>2019-03-16T09:25:52Z</time>
      </trkpt>
      <trkpt lat="31.43250041641295" lon="-7.410932024940848">
        <ele>1258.02</ele>
        <time>2019-03-16T09:25:53Z</time>
      </trkpt>
      <trkpt lat="31.432544589042664" lon="-7.410818198695779">
        <ele>1257.54</ele>
        <time>2019-03-16T09:25:54Z</time>
      </trkpt>
      <trkpt lat="31.432564705610275" lon="-7.410689285025001">
        <ele>1257.0599999999999</ele>
        <time>2019-03-16T09:26:05Z</time>
      </trkpt>
      <trkpt lat="31.432560430839658" lon="-7.410547295585275">
        <ele>1256.5799999999999</ele>
        <time>2019-03-16T09:26:08Z</time>
      </trkpt>
      <trkpt lat="31.432536039501429" lon="-7.410405306145549">
        <ele>1256.5799999999999</ele>
        <time>2019-03-16T09:26:09Z</time>
      </trkpt>
      <trkpt lat="31.432505110278726" lon="-7.410269184038043">
        <ele>1256.5799999999999</ele>
        <time>2019-03-16T09:26:10Z</time>
      </trkpt>
      <trkpt lat="31.432492202147841" lon="-7.41013272665441">
        <ele>1257.0599999999999</ele>
        <time>2019-03-16T09:26:11Z</time>
      </trkpt>
      <trkpt lat="31.432510474696755" lon="-7.40999735891819">
        <ele>1257.0599999999999</ele>
        <time>2019-03-16T09:26:12Z</time>
      </trkpt>
      <trkpt lat="31.432557916268706" lon="-7.409867774695158">
        <ele>1257.54</ele>
        <time>2019-03-16T09:26:13Z</time>
      </trkpt>
      <trkpt lat="31.432627821341157" lon="-7.409744560718536">
        <ele>1257.54</ele>
        <time>2019-03-16T09:26:15Z</time>
      </trkpt>
      <trkpt lat="31.432711640372872" lon="-7.409625789150596">
        <ele>1257.54</ele>
        <time>2019-03-16T09:26:16Z</time>
      </trkpt>
      <trkpt lat="31.43280484713614" lon="-7.409511879086494">
        <ele>1257.0599999999999</ele>
        <time>2019-03-16T09:26:17Z</time>
      </trkpt>
      <trkpt lat="31.432906519621611" lon="-7.409405596554279">
        <ele>1257.54</ele>
        <time>2019-03-16T09:26:18Z</time>
      </trkpt>
      <trkpt lat="31.43301447853446" lon="-7.409311048686504">
        <ele>1258.5</ele>
        <time>2019-03-16T09:26:19Z</time>
      </trkpt>
      <trkpt lat="31.433124113827944" lon="-7.409227481111884">
        <ele>1262.3499999999999</ele>
        <time>2019-03-16T09:26:20Z</time>
      </trkpt>
      <trkpt lat="31.433229390531778" lon="-7.409148858860135">
        <ele>1262.8299999999999</ele>
        <time>2019-03-16T09:26:21Z</time>
      </trkpt>
      <trkpt lat="31.433503143489361" lon="-7.408889858052135">
        <ele>1263.3099999999999</ele>
        <time>2019-03-16T09:26:22Z</time>
      </trkpt>
      <trkpt lat="31.433881167322397" lon="-7.408450730144978">
        <ele>1263.79</ele>
        <time>2019-03-16T09:26:23Z</time>
      </trkpt>
      <trkpt lat="31.434277966618538" lon="-7.408241098746657">
        <ele>1263.79</ele>
        <time>2019-03-16T09:26:24Z</time>
      </trkpt>
      <trkpt lat="31.434909040108323" lon="-7.408045884221792">
        <ele>1264.27</ele>
        <time>2019-03-16T09:26:27Z</time>
      </trkpt>
      <trkpt lat="31.435505328699946" lon="-7.408037250861526">
        <ele>1264.27</ele>
        <time>2019-03-16T09:26:28Z</time>
      </trkpt>
      <trkpt lat="31.435589147731662" lon="-7.408009842038155">
        <ele>1264.27</ele>
        <time>2019-03-16T09:26:29Z</time>
      </trkpt>
      <trkpt lat="31.435671709477901" lon="-7.407968686893582">
        <ele>1264.75</ele>
        <time>2019-03-16T09:26:30Z</time>
      </trkpt>
      <trkpt lat="31.435747984796762" lon="-7.407915629446507">
        <ele>1264.27</ele>
        <time>2019-03-16T09:26:31Z</time>
      </trkpt>
      <trkpt lat="31.435817973688245" lon="-7.407848825678229">
        <ele>1264.75</ele>
        <time>2019-03-16T09:26:32Z</time>
      </trkpt>
      <trkpt lat="31.435878910124302" lon="-7.407764168456197">
        <ele>1264.27</ele>
        <time>2019-03-16T09:26:34Z</time>
      </trkpt>
      <trkpt lat="31.435929788276553" lon="-7.407662915065885">
        <ele>1263.79</ele>
        <time>2019-03-16T09:26:35Z</time>
      </trkpt>
      <trkpt lat="31.435969769954681" lon="-7.407549843192101">
        <ele>1263.3099999999999</ele>
        <time>2019-03-16T09:26:36Z</time>
      </trkpt>
      <trkpt lat="31.436006734147668" lon="-7.407435430213809">
        <ele>1263.3099999999999</ele>
        <time>2019-03-16T09:26:44Z</time>
      </trkpt>
      <trkpt lat="31.436139168217778" lon="-7.406982304528356">
        <ele>1262.8299999999999</ele>
        <time>2019-03-16T09:26:45Z</time>
      </trkpt>
      <trkpt lat="31.436151908710599" lon="-7.406872753053904">
        <ele>1262.3499999999999</ele>
        <time>2019-03-16T09:26:46Z</time>
      </trkpt>
      <trkpt lat="31.43615341745317" lon="-7.406758842989802">
        <ele>1261.8699999999999</ele>
        <time>2019-03-16T09:26:47Z</time>
      </trkpt>
      <trkpt lat="31.436187531799078" lon="-7.405839683488011">
        <ele>1261.3900000000001</ele>
        <time>2019-03-16T09:26:48Z</time>
      </trkpt>
      <trkpt lat="31.436225166544318" lon="-7.405744045972824">
        <ele>1260.4300000000001</ele>
        <time>2019-03-16T09:26:50Z</time>
      </trkpt>
      <trkpt lat="31.436281325295568" lon="-7.4056676030159">
        <ele>1259.46</ele>
        <time>2019-03-16T09:26:51Z</time>
      </trkpt>
      <trkpt lat="31.436352571472526" lon="-7.405606163665652">
        <ele>1259.46</ele>
        <time>2019-03-16T09:26:52Z</time>
      </trkpt>
      <trkpt lat="31.43643538467586" lon="-7.405563751235604">
        <ele>1259.46</ele>
        <time>2019-03-16T09:26:53Z</time>
      </trkpt>
      <trkpt lat="31.436531273648143" lon="-7.405544808134437">
        <ele>1259.9400000000001</ele>
        <time>2019-03-16T09:26:54Z</time>
      </trkpt>
      <trkpt lat="31.436633868142962" lon="-7.405541203916073">
        <ele>1260.4300000000001</ele>
        <time>2019-03-16T09:26:55Z</time>
      </trkpt>
      <trkpt lat="31.436738641932607" lon="-7.405546400696039">
        <ele>1260.4300000000001</ele>
        <time>2019-03-16T09:27:01Z</time>
      </trkpt>
      <trkpt lat="31.437524780631065" lon="-7.405571797862649">
        <ele>1260.9100000000001</ele>
        <time>2019-03-16T09:27:02Z</time>
      </trkpt>
      <trkpt lat="31.437601139768958" lon="-7.405597781762481">
        <ele>1263.3099999999999</ele>
        <time>2019-03-16T09:27:03Z</time>
      </trkpt>
      <trkpt lat="31.43767255358398" lon="-7.40564463660121">
        <ele>1263.3099999999999</ele>
        <time>2019-03-16T09:27:05Z</time>
      </trkpt>
      <trkpt lat="31.43773265182972" lon="-7.405714290216565">
        <ele>1263.3099999999999</ele>
        <time>2019-03-16T09:27:06Z</time>
      </trkpt>
      <trkpt lat="31.437779674306512" lon="-7.405800456181169">
        <ele>1263.3099999999999</ele>
        <time>2019-03-16T09:27:07Z</time>
      </trkpt>
      <trkpt lat="31.43781672231853" lon="-7.405899195000529">
        <ele>1265.71</ele>
        <time>2019-03-16T09:27:08Z</time>
      </trkpt>
      <trkpt lat="31.437850082293153" lon="-7.406003717333078">
        <ele>1265.71</ele>
        <time>2019-03-16T09:27:09Z</time>
      </trkpt>
      <trkpt lat="31.438064575195313" lon="-7.406583661213517">
        <ele>1265.71</ele>
        <time>2019-03-16T09:27:10Z</time>
      </trkpt>
      <trkpt lat="31.438107490539551" lon="-7.406644932925701">
        <ele>1266.1900000000001</ele>
        <time>2019-03-16T09:27:11Z</time>
      </trkpt>
      <trkpt lat="31.438146214932203" lon="-7.406676784157753">
        <ele>1265.71</ele>
        <time>2019-03-16T09:27:12Z</time>
      </trkpt>
      <trkpt lat="31.438170606270432" lon="-7.406687010079622">
        <ele>1265.71</ele>
        <time>2019-03-16T09:27:13Z</time>
      </trkpt>
      <trkpt lat="31.438278313726187" lon="-7.406719112768769">
        <ele>1265.71</ele>
        <time>2019-03-16T09:27:14Z</time>
      </trkpt>
      <trkpt lat="31.438323659822345" lon="-7.406710982322693">
        <ele>1266.6700000000001</ele>
        <time>2019-03-16T09:27:15Z</time>
      </trkpt>
      <trkpt lat="31.438367078080773" lon="-7.406686507165432">
        <ele>1266.1900000000001</ele>
        <time>2019-03-16T09:27:16Z</time>
      </trkpt>
      <trkpt lat="31.438409658148885" lon="-7.406644513830543">
        <ele>1266.1900000000001</ele>
        <time>2019-03-16T09:27:17Z</time>
      </trkpt>
      <trkpt lat="31.438442347571254" lon="-7.406583242118359">
        <ele>1266.1900000000001</ele>
        <time>2019-03-16T09:27:18Z</time>
      </trkpt>
      <trkpt lat="31.438452741131186" lon="-7.406500596553087">
        <ele>1266.1900000000001</ele>
        <time>2019-03-16T09:27:22Z</time>
      </trkpt>
      <trkpt lat="31.43844997510314" lon="-7.406400181353092">
        <ele>1268.5999999999999</ele>
        <time>2019-03-16T09:27:23Z</time>
      </trkpt>
      <trkpt lat="31.438517030328512" lon="-7.405443973839283">
        <ele>1269.0799999999999</ele>
        <time>2019-03-16T09:27:24Z</time>
      </trkpt>
      <trkpt lat="31.438574362546206" lon="-7.405352191999555">
        <ele>1269.0799999999999</ele>
        <time>2019-03-16T09:27:25Z</time>
      </trkpt>
      <trkpt lat="31.43865717574954" lon="-7.405283208936453">
        <ele>1268.5999999999999</ele>
        <time>2019-03-16T09:27:26Z</time>
      </trkpt>
      <trkpt lat="31.438754573464394" lon="-7.405233923345804">
        <ele>1268.5999999999999</ele>
        <time>2019-03-16T09:27:27Z</time>
      </trkpt>
      <trkpt lat="31.438860855996609" lon="-7.40519167855382">
        <ele>1268.5999999999999</ele>
        <time>2019-03-16T09:27:28Z</time>
      </trkpt>
      <trkpt lat="31.439743554219604" lon="-7.404836621135473">
        <ele>1267.1600000000001</ele>
        <time>2019-03-16T09:27:29Z</time>
      </trkpt>
      <trkpt lat="31.439825361594558" lon="-7.404767218977213">
        <ele>1266.6700000000001</ele>
        <time>2019-03-16T09:27:30Z</time>
      </trkpt>
      <trkpt lat="31.4398870524019" lon="-7.404685411602259">
        <ele>1266.1900000000001</ele>
        <time>2019-03-16T09:27:31Z</time>
      </trkpt>
      <trkpt lat="31.439931225031614" lon="-7.404593462124467">
        <ele>1266.1900000000001</ele>
        <time>2019-03-16T09:27:41Z</time>
      </trkpt>
      <trkpt lat="31.43995595164597" lon="-7.40449195727706">
        <ele>1265.71</ele>
        <time>2019-03-16T09:27:52Z</time>
      </trkpt>
      <trkpt lat="31.439969362691045" lon="-7.404382238164544">
        <ele>1265.71</ele>
        <time>2019-03-16T09:27:53Z</time>
      </trkpt>
      <trkpt lat="31.440101880580187" lon="-7.403633147478104">
        <ele>1265.71</ele>
        <time>2019-03-16T09:27:54Z</time>
      </trkpt>
      <trkpt lat="31.440132642164826" lon="-7.403552932664752">
        <ele>1263.79</ele>
        <time>2019-03-16T09:27:55Z</time>
      </trkpt>
      <trkpt lat="31.440165331587195" lon="-7.403486128896475">
        <ele>1262.8299999999999</ele>
        <time>2019-03-16T09:27:56Z</time>
      </trkpt>
      <trkpt lat="31.44020120613277" lon="-7.403431562706828">
        <ele>1262.8299999999999</ele>
        <time>2019-03-16T09:27:57Z</time>
      </trkpt>
      <trkpt lat="31.440244372934103" lon="-7.403382612392306">
        <ele>1262.3499999999999</ele>
        <time>2019-03-16T09:27:58Z</time>
      </trkpt>
      <trkpt lat="31.440296256914735" lon="-7.403335506096482">
        <ele>1262.3499999999999</ele>
        <time>2019-03-16T09:28:05Z</time>
      </trkpt>
      <trkpt lat="31.440351409837604" lon="-7.403288315981627">
        <ele>1262.3499999999999</ele>
        <time>2019-03-16T09:28:06Z</time>
      </trkpt>
      <trkpt lat="31.440988183021545" lon="-7.402905179187655">
        <ele>1262.3499999999999</ele>
        <time>2019-03-16T09:28:19Z</time>
      </trkpt>
      <trkpt lat="31.441178703680634" lon="-7.402790850028396">
        <ele>1262.8299999999999</ele>
        <time>2019-03-16T09:28:20Z</time>
      </trkpt>
      <trkpt lat="31.441227234899998" lon="-7.402736367657781">
        <ele>1262.8299999999999</ele>
        <time>2019-03-16T09:28:21Z</time>
      </trkpt>
      <trkpt lat="31.441262438893318" lon="-7.402670402079821">
        <ele>1262.3499999999999</ele>
        <time>2019-03-16T09:28:22Z</time>
      </trkpt>
      <trkpt lat="31.441282220184803" lon="-7.402587253600359">
        <ele>1261.3900000000001</ele>
        <time>2019-03-16T09:28:23Z</time>
      </trkpt>
      <trkpt lat="31.441285070031881" lon="-7.402493208646774">
        <ele>1261.3900000000001</ele>
        <time>2019-03-16T09:28:24Z</time>
      </trkpt>
      <trkpt lat="31.441281046718359" lon="-7.402399331331253">
        <ele>1260.9100000000001</ele>
        <time>2019-03-16T09:28:25Z</time>
      </trkpt>
      <trkpt lat="31.441286997869611" lon="-7.402222976088524">
        <ele>1260.9100000000001</ele>
        <time>2019-03-16T09:28:26Z</time>
      </trkpt>
      <trkpt lat="31.441303761675954" lon="-7.402140498161316">
        <ele>1260.4300000000001</ele>
        <time>2019-03-16T09:28:27Z</time>
      </trkpt>
      <trkpt lat="31.441333601251245" lon="-7.402060367166996">
        <ele>1260.4300000000001</ele>
        <time>2019-03-16T09:28:28Z</time>
      </trkpt>
      <trkpt lat="31.44137685187161" lon="-7.401985852047801">
        <ele>1259.9400000000001</ele>
        <time>2019-03-16T09:28:29Z</time>
      </trkpt>
      <trkpt lat="31.441428232938051" lon="-7.401923155412078">
        <ele>1258.02</ele>
        <time>2019-03-16T09:28:30Z</time>
      </trkpt>
      <trkpt lat="31.441487157717347" lon="-7.401870097965002">
        <ele>1257.54</ele>
        <time>2019-03-16T09:28:32Z</time>
      </trkpt>
      <trkpt lat="31.44155471585691" lon="-7.401825422421098">
        <ele>1257.0599999999999</ele>
        <time>2019-03-16T09:28:33Z</time>
      </trkpt>
      <trkpt lat="31.44163778051734" lon="-7.401793403550983">
        <ele>1256.5799999999999</ele>
        <time>2019-03-16T09:28:34Z</time>
      </trkpt>
      <trkpt lat="31.441736184060574" lon="-7.401775717735291">
        <ele>1256.0999999999999</ele>
        <time>2019-03-16T09:28:35Z</time>
      </trkpt>
      <trkpt lat="31.441848501563072" lon="-7.401761636137962">
        <ele>1255.1400000000001</ele>
        <time>2019-03-16T09:28:36Z</time>
      </trkpt>
      <trkpt lat="31.442172294482589" lon="-7.401694916188717">
        <ele>1254.1800000000001</ele>
        <time>2019-03-16T09:28:37Z</time>
      </trkpt>
      <trkpt lat="31.442263657227159" lon="-7.401638673618436">
        <ele>1254.1800000000001</ele>
        <time>2019-03-16T09:28:38Z</time>
      </trkpt>
      <trkpt lat="31.442342950031161" lon="-7.401549406349659">
        <ele>1253.7</ele>
        <time>2019-03-16T09:28:39Z</time>
      </trkpt>
      <trkpt lat="31.442411513999104" lon="-7.401434741914272">
        <ele>1252.25</ele>
        <time>2019-03-16T09:28:40Z</time>
      </trkpt>
      <trkpt lat="31.44247580319643" lon="-7.401299625635147">
        <ele>1252.25</ele>
        <time>2019-03-16T09:28:41Z</time>
      </trkpt>
      <trkpt lat="31.442540176212788" lon="-7.401157133281231">
        <ele>1251.77</ele>
        <time>2019-03-16T09:28:42Z</time>
      </trkpt>
      <trkpt lat="31.442687027156353" lon="-7.400881955400109">
        <ele>1251.77</ele>
        <time>2019-03-16T09:28:43Z</time>
      </trkpt>
      <trkpt lat="31.442779060453176" lon="-7.400760417804122">
        <ele>1251.77</ele>
        <time>2019-03-16T09:28:44Z</time>
      </trkpt>
      <trkpt lat="31.442880565300584" lon="-7.400653548538685">
        <ele>1251.77</ele>
        <time>2019-03-16T09:28:45Z</time>
      </trkpt>
      <trkpt lat="31.443625297397375" lon="-7.399822818115354">
        <ele>1251.29</ele>
        <time>2019-03-16T09:28:46Z</time>
      </trkpt>
      <trkpt lat="31.443700231611729" lon="-7.399680241942406">
        <ele>1251.77</ele>
        <time>2019-03-16T09:28:48Z</time>
      </trkpt>
      <trkpt lat="31.443761335685849" lon="-7.399528361856937">
        <ele>1251.77</ele>
        <time>2019-03-16T09:28:49Z</time>
      </trkpt>
      <trkpt lat="31.443807352334261" lon="-7.399371201172471">
        <ele>1252.25</ele>
        <time>2019-03-16T09:28:56Z</time>
      </trkpt>
      <trkpt lat="31.443843310698867" lon="-7.399215800687671">
        <ele>1252.25</ele>
        <time>2019-03-16T09:28:57Z</time>
      </trkpt>
      <trkpt lat="31.443928303197026" lon="-7.398922182619572">
        <ele>1252.74</ele>
        <time>2019-03-16T09:29:03Z</time>
      </trkpt>
      <trkpt lat="31.443987898528576" lon="-7.398796956986189">
        <ele>1252.74</ele>
        <time>2019-03-16T09:29:04Z</time>
      </trkpt>
      <trkpt lat="31.444065179675817" lon="-7.398689836263657">
        <ele>1252.74</ele>
        <time>2019-03-16T09:29:05Z</time>
      </trkpt>
      <trkpt lat="31.444160649552941" lon="-7.398601491004229">
        <ele>1252.74</ele>
        <time>2019-03-16T09:29:15Z</time>
      </trkpt>
      <trkpt lat="31.444269195199013" lon="-7.398531334474683">
        <ele>1253.22</ele>
        <time>2019-03-16T09:29:17Z</time>
      </trkpt>
      <trkpt lat="31.444385200738907" lon="-7.398469978943467">
        <ele>1253.22</ele>
        <time>2019-03-16T09:29:18Z</time>
      </trkpt>
      <trkpt lat="31.445054579526186" lon="-7.398135457187891">
        <ele>1253.22</ele>
        <time>2019-03-16T09:29:19Z</time>
      </trkpt>
      <trkpt lat="31.445148875936866" lon="-7.398054655641317">
        <ele>1253.22</ele>
        <time>2019-03-16T09:29:20Z</time>
      </trkpt>
      <trkpt lat="31.445233952254057" lon="-7.397960862144828">
        <ele>1253.22</ele>
        <time>2019-03-16T09:29:21Z</time>
      </trkpt>
      <trkpt lat="31.445402260869741" lon="-7.397774197161198">
        <ele>1253.22</ele>
        <time>2019-03-16T09:29:22Z</time>
      </trkpt>
      <trkpt lat="31.445498820394278" lon="-7.397706974297762">
        <ele>1253.7</ele>
        <time>2019-03-16T09:29:23Z</time>
      </trkpt>
      <trkpt lat="31.445604600012302" lon="-7.397666070610285">
        <ele>1254.1800000000001</ele>
        <time>2019-03-16T09:29:24Z</time>
      </trkpt>
      <trkpt lat="31.445719599723816" lon="-7.397652240470052">
        <ele>1254.1800000000001</ele>
        <time>2019-03-16T09:29:25Z</time>
      </trkpt>
      <trkpt lat="31.445837197825313" lon="-7.397657772526145">
        <ele>1254.6600000000001</ele>
        <time>2019-03-16T09:29:26Z</time>
      </trkpt>
      <trkpt lat="31.445948677137494" lon="-7.397664226591587">
        <ele>1254.6600000000001</ele>
        <time>2019-03-16T09:29:27Z</time>
      </trkpt>
      <trkpt lat="31.44604817032814" lon="-7.397657688707113">
        <ele>1255.6199999999999</ele>
        <time>2019-03-16T09:29:28Z</time>
      </trkpt>
      <trkpt lat="31.446135593578219" lon="-7.397629525512457">
        <ele>1256.0999999999999</ele>
        <time>2019-03-16T09:29:29Z</time>
      </trkpt>
      <trkpt lat="31.446209521964192" lon="-7.397580994293094">
        <ele>1258.5</ele>
        <time>2019-03-16T09:29:30Z</time>
      </trkpt>
      <trkpt lat="31.446267776191235" lon="-7.39751435816288">
        <ele>1258.98</ele>
        <time>2019-03-16T09:29:31Z</time>
      </trkpt>
      <trkpt lat="31.446307506412268" lon="-7.397435819730163">
        <ele>1259.46</ele>
        <time>2019-03-16T09:29:44Z</time>
      </trkpt>
      <trkpt lat="31.446322845295072" lon="-7.397355269640684">
        <ele>1259.46</ele>
        <time>2019-03-16T09:29:55Z</time>
      </trkpt>
      <trkpt lat="31.44631496630609" lon="-7.397275222465396">
        <ele>1259.9400000000001</ele>
        <time>2019-03-16T09:29:56Z</time>
      </trkpt>
      <trkpt lat="31.446291916072369" lon="-7.397195175290108">
        <ele>1259.9400000000001</ele>
        <time>2019-03-16T09:29:57Z</time>
      </trkpt>
      <trkpt lat="31.446246150881052" lon="-7.396823773160577">
        <ele>1260.4300000000001</ele>
        <time>2019-03-16T09:29:58Z</time>
      </trkpt>
      <trkpt lat="31.446254532784224" lon="-7.396709946915507">
        <ele>1260.9100000000001</ele>
        <time>2019-03-16T09:29:59Z</time>
      </trkpt>
      <trkpt lat="31.44627439789474" lon="-7.396596120670438">
        <ele>1261.3900000000001</ele>
        <time>2019-03-16T09:30:00Z</time>
      </trkpt>
      <trkpt lat="31.446306919679046" lon="-7.396481288596988">
        <ele>1261.3900000000001</ele>
        <time>2019-03-16T09:30:10Z</time>
      </trkpt>
      <trkpt lat="31.446353020146489" lon="-7.396368803456426">
        <ele>1268.1199999999999</ele>
        <time>2019-03-16T09:30:11Z</time>
      </trkpt>
      <trkpt lat="31.446410017088056" lon="-7.396264867857099">
        <ele>1276.77</ele>
        <time>2019-03-16T09:30:12Z</time>
      </trkpt>
      <trkpt lat="31.446478581055999" lon="-7.396172750741243">
        <ele>1277.25</ele>
        <time>2019-03-16T09:30:13Z</time>
      </trkpt>
      <trkpt lat="31.44656416028738" lon="-7.396095637232065">
        <ele>1278.21</ele>
        <time>2019-03-16T09:30:14Z</time>
      </trkpt>
      <trkpt lat="31.446661725640297" lon="-7.396031180396676">
        <ele>1278.6900000000001</ele>
        <time>2019-03-16T09:30:15Z</time>
      </trkpt>
      <trkpt lat="31.446771528571844" lon="-7.395970076322556">
        <ele>1279.1700000000001</ele>
        <time>2019-03-16T09:30:16Z</time>
      </trkpt>
      <trkpt lat="31.447879448533058" lon="-7.39515233784914">
        <ele>1279.6500000000001</ele>
        <time>2019-03-16T09:30:17Z</time>
      </trkpt>
      <trkpt lat="31.449010167270899" lon="-7.39420535042882">
        <ele>1280.1300000000001</ele>
        <time>2019-03-16T09:30:26Z</time>
      </trkpt>
      <trkpt lat="31.449117790907621" lon="-7.394159836694598">
        <ele>1283.02</ele>
        <time>2019-03-16T09:30:27Z</time>
      </trkpt>
      <trkpt lat="31.449225833639503" lon="-7.394130667671561">
        <ele>1283.5</ele>
        <time>2019-03-16T09:30:28Z</time>
      </trkpt>
      <trkpt lat="31.4493312779814" lon="-7.394115580245853">
        <ele>1288.3</ele>
        <time>2019-03-16T09:30:29Z</time>
      </trkpt>
      <trkpt lat="31.449433453381062" lon="-7.394114658236504">
        <ele>1288.3</ele>
        <time>2019-03-16T09:30:30Z</time>
      </trkpt>
      <trkpt lat="31.449529761448503" lon="-7.394120022654533">
        <ele>1288.78</ele>
        <time>2019-03-16T09:30:31Z</time>
      </trkpt>
      <trkpt lat="31.449613999575377" lon="-7.394131170585752">
        <ele>1288.78</ele>
        <time>2019-03-16T09:30:32Z</time>
      </trkpt>
      <trkpt lat="31.450109789147973" lon="-7.394327307119966">
        <ele>1288.78</ele>
        <time>2019-03-16T09:30:37Z</time>
      </trkpt>
      <trkpt lat="31.450200984254479" lon="-7.394355637952685">
        <ele>1288.78</ele>
        <time>2019-03-16T09:30:38Z</time>
      </trkpt>
      <trkpt lat="31.451517948880792" lon="-7.394689153879881">
        <ele>1288.78</ele>
        <time>2019-03-16T09:30:39Z</time>
      </trkpt>
      <trkpt lat="31.45161559805274" lon="-7.394711198285222">
        <ele>1288.78</ele>
        <time>2019-03-16T09:30:40Z</time>
      </trkpt>
      <trkpt lat="31.451696567237377" lon="-7.394753191620112">
        <ele>1289.27</ele>
        <time>2019-03-16T09:30:41Z</time>
      </trkpt>
      <trkpt lat="31.451756916940212" lon="-7.394827120006084">
        <ele>1289.27</ele>
        <time>2019-03-16T09:30:42Z</time>
      </trkpt>
      <trkpt lat="31.451787259429693" lon="-7.394926948472858">
        <ele>1289.75</ele>
        <time>2019-03-16T09:30:43Z</time>
      </trkpt>
      <trkpt lat="31.451789941638708" lon="-7.39503943361342">
        <ele>1290.23</ele>
        <time>2019-03-16T09:30:44Z</time>
      </trkpt>
      <trkpt lat="31.451774267479777" lon="-7.395156361162663">
        <ele>1291.1900000000001</ele>
        <time>2019-03-16T09:30:45Z</time>
      </trkpt>
      <trkpt lat="31.451744763180614" lon="-7.395274629816413">
        <ele>1291.1900000000001</ele>
        <time>2019-03-16T09:30:49Z</time>
      </trkpt>
      <trkpt lat="31.451709810644388" lon="-7.3953892942518">
        <ele>1291.6700000000001</ele>
        <time>2019-03-16T09:30:50Z</time>
      </trkpt>
      <trkpt lat="31.451676283031702" lon="-7.395498091354966">
        <ele>1292.1500000000001</ele>
        <time>2019-03-16T09:30:51Z</time>
      </trkpt>
      <trkpt lat="31.451646108180285" lon="-7.39560479298234">
        <ele>1292.1500000000001</ele>
        <time>2019-03-16T09:30:53Z</time>
      </trkpt>
      <trkpt lat="31.451608305796981" lon="-7.395707303658128">
        <ele>1292.6300000000001</ele>
        <time>2019-03-16T09:30:59Z</time>
      </trkpt>
      <trkpt lat="31.45151300355792" lon="-7.395903775468469">
        <ele>1293.1099999999999</ele>
        <time>2019-03-16T09:31:00Z</time>
      </trkpt>
      <trkpt lat="31.451480314135551" lon="-7.396007627248764">
        <ele>1294.0699999999999</ele>
        <time>2019-03-16T09:31:01Z</time>
      </trkpt>
      <trkpt lat="31.451462209224701" lon="-7.396119441837072">
        <ele>1295.03</ele>
        <time>2019-03-16T09:31:02Z</time>
      </trkpt>
      <trkpt lat="31.451458353549242" lon="-7.396240895614028">
        <ele>1295.51</ele>
        <time>2019-03-16T09:31:03Z</time>
      </trkpt>
      <trkpt lat="31.451461873948574" lon="-7.396371150389314">
        <ele>1296.48</ele>
        <time>2019-03-16T09:31:04Z</time>
      </trkpt>
      <trkpt lat="31.451473608613014" lon="-7.396503249183297">
        <ele>1296.96</ele>
        <time>2019-03-16T09:31:05Z</time>
      </trkpt>
      <trkpt lat="31.451496742665768" lon="-7.396635012701154">
        <ele>1297.9200000000001</ele>
        <time>2019-03-16T09:31:06Z</time>
      </trkpt>
      <trkpt lat="31.4515295997262" lon="-7.396762333810329">
        <ele>1298.4000000000001</ele>
        <time>2019-03-16T09:31:11Z</time>
      </trkpt>
      <trkpt lat="31.451573353260756" lon="-7.396884709596634">
        <ele>1299.3599999999999</ele>
        <time>2019-03-16T09:31:14Z</time>
      </trkpt>
      <trkpt lat="31.451632361859083" lon="-7.396999625489116">
        <ele>1300.8</ele>
        <time>2019-03-16T09:31:15Z</time>
      </trkpt>
      <trkpt lat="31.451704613864422" lon="-7.397099705412984">
        <ele>1301.76</ele>
        <time>2019-03-16T09:31:16Z</time>
      </trkpt>
      <trkpt lat="31.451788181439042" lon="-7.397177070379257">
        <ele>1305.6099999999999</ele>
        <time>2019-03-16T09:31:17Z</time>
      </trkpt>
      <trkpt lat="31.451878705993295" lon="-7.39723633043468">
        <ele>1306.0899999999999</ele>
        <time>2019-03-16T09:31:18Z</time>
      </trkpt>
      <trkpt lat="31.451970404013991" lon="-7.397279413416982">
        <ele>1308.97</ele>
        <time>2019-03-16T09:31:19Z</time>
      </trkpt>
      <trkpt lat="31.452059587463737" lon="-7.397316042333841">
        <ele>1309.45</ele>
        <time>2019-03-16T09:31:20Z</time>
      </trkpt>
      <trkpt lat="31.452239546924829" lon="-7.397382175549865">
        <ele>1309.9300000000001</ele>
        <time>2019-03-16T09:31:26Z</time>
      </trkpt>
      <trkpt lat="31.452333340421319" lon="-7.397402040660381">
        <ele>1311.3800000000001</ele>
        <time>2019-03-16T09:31:27Z</time>
      </trkpt>
      <trkpt lat="31.453007245436311" lon="-7.397383432835341">
        <ele>1311.3800000000001</ele>
        <time>2019-03-16T09:31:28Z</time>
      </trkpt>
      <trkpt lat="31.453099865466356" lon="-7.397345630452037">
        <ele>1311.8599999999999</ele>
        <time>2019-03-16T09:31:29Z</time>
      </trkpt>
      <trkpt lat="31.453428268432617" lon="-7.397192493081093">
        <ele>1311.8599999999999</ele>
        <time>2019-03-16T09:31:30Z</time>
      </trkpt>
      <trkpt lat="31.453471686691046" lon="-7.397189391776919">
        <ele>1312.3399999999999</ele>
        <time>2019-03-16T09:31:31Z</time>
      </trkpt>
      <trkpt lat="31.453512338921428" lon="-7.397193247452378">
        <ele>1312.8199999999999</ele>
        <time>2019-03-16T09:31:32Z</time>
      </trkpt>
      <trkpt lat="31.453755581751466" lon="-7.39719282835722">
        <ele>1313.3</ele>
        <time>2019-03-16T09:31:33Z</time>
      </trkpt>
      <trkpt lat="31.453836048021913" lon="-7.397188050672412">
        <ele>1313.78</ele>
        <time>2019-03-16T09:31:34Z</time>
      </trkpt>
      <trkpt lat="31.453886507079005" lon="-7.397191906347871">
        <ele>1314.26</ele>
        <time>2019-03-16T09:31:35Z</time>
      </trkpt>
      <trkpt lat="31.45393755286932" lon="-7.397201796993613">
        <ele>1314.74</ele>
        <time>2019-03-16T09:31:46Z</time>
      </trkpt>
      <trkpt lat="31.453993376344442" lon="-7.397217974066734">
        <ele>1315.22</ele>
        <time>2019-03-16T09:31:47Z</time>
      </trkpt>
      <trkpt lat="31.454056156799197" lon="-7.397241611033678">
        <ele>1315.7</ele>
        <time>2019-03-16T09:31:58Z</time>
      </trkpt>
      <trkpt lat="31.454120613634586" lon="-7.397277904674411">
        <ele>1316.1800000000001</ele>
        <time>2019-03-16T09:32:01Z</time>
      </trkpt>
      <trkpt lat="31.454187082126737" lon="-7.39732283167541">
        <ele>1316.6600000000001</ele>
        <time>2019-03-16T09:32:02Z</time>
      </trkpt>
      <trkpt lat="31.454253634437919" lon="-7.397380247712135">
        <ele>1316.6600000000001</ele>
        <time>2019-03-16T09:32:03Z</time>
      </trkpt>
      <trkpt lat="31.454313397407532" lon="-7.397449230775237">
        <ele>1317.1400000000001</ele>
        <time>2019-03-16T09:32:04Z</time>
      </trkpt>
      <trkpt lat="31.454365029931068" lon="-7.397527433931828">
        <ele>1327.24</ele>
        <time>2019-03-16T09:32:05Z</time>
      </trkpt>
      <trkpt lat="31.45440710708499" lon="-7.397617204114795">
        <ele>1337.3299999999999</ele>
        <time>2019-03-16T09:32:06Z</time>
      </trkpt>
      <trkpt lat="31.454443065449595" lon="-7.397720301523805">
        <ele>1338.77</ele>
        <time>2019-03-16T09:32:13Z</time>
      </trkpt>
      <trkpt lat="31.454467792063951" lon="-7.397833289578557">
        <ele>1339.73</ele>
        <time>2019-03-16T09:32:14Z</time>
      </trkpt>
      <trkpt lat="31.454484723508358" lon="-7.397954324260354">
        <ele>1340.7</ele>
        <time>2019-03-16T09:32:15Z</time>
      </trkpt>
      <trkpt lat="31.454497128725052" lon="-7.398080052807927">
        <ele>1341.6600000000001</ele>
        <time>2019-03-16T09:32:23Z</time>
      </trkpt>
      <trkpt lat="31.454696198925376" lon="-7.399815274402499">
        <ele>1343.0999999999999</ele>
        <time>2019-03-16T09:32:30Z</time>
      </trkpt>
      <trkpt lat="31.455072965472937" lon="-7.401396352797747">
        <ele>1353.1900000000001</ele>
        <time>2019-03-16T09:32:31Z</time>
      </trkpt>
      <trkpt lat="31.455134572461247" lon="-7.401514453813434">
        <ele>1354.1500000000001</ele>
        <time>2019-03-16T09:32:32Z</time>
      </trkpt>
      <trkpt lat="31.45521336235106" lon="-7.40161495283246">
        <ele>1354.6300000000001</ele>
        <time>2019-03-16T09:32:33Z</time>
      </trkpt>
      <trkpt lat="31.455310089513659" lon="-7.401694916188717">
        <ele>1355.5999999999999</ele>
        <time>2019-03-16T09:32:34Z</time>
      </trkpt>
      <trkpt lat="31.455421149730682" lon="-7.401752164587379">
        <ele>1356.5599999999999</ele>
        <time>2019-03-16T09:32:35Z</time>
      </trkpt>
      <trkpt lat="31.455540005117655" lon="-7.401799606159329">
        <ele>1357.04</ele>
        <time>2019-03-16T09:32:37Z</time>
      </trkpt>
      <trkpt lat="31.456766026094556" lon="-7.402245691046119">
        <ele>1358</ele>
        <time>2019-03-16T09:32:38Z</time>
      </trkpt>
      <trkpt lat="31.456865770742297" lon="-7.402328001335263">
        <ele>1358.96</ele>
        <time>2019-03-16T09:32:39Z</time>
      </trkpt>
      <trkpt lat="31.456952523440123" lon="-7.402432188391686">
        <ele>1368.0899999999999</ele>
        <time>2019-03-16T09:32:40Z</time>
      </trkpt>
      <trkpt lat="31.457023350521922" lon="-7.402553558349609">
        <ele>1369.05</ele>
        <time>2019-03-16T09:32:41Z</time>
      </trkpt>
      <trkpt lat="31.457076407968998" lon="-7.402691943570972">
        <ele>1370.02</ele>
        <time>2019-03-16T09:32:42Z</time>
      </trkpt>
      <trkpt lat="31.45710825920105" lon="-7.402838123962283">
        <ele>1370.98</ele>
        <time>2019-03-16T09:32:43Z</time>
      </trkpt>
      <trkpt lat="31.457124268636107" lon="-7.402991345152259">
        <ele>1371.46</ele>
        <time>2019-03-16T09:32:45Z</time>
      </trkpt>
      <trkpt lat="31.45713172852993" lon="-7.403149344027042">
        <ele>1371.9400000000001</ele>
        <time>2019-03-16T09:32:46Z</time>
      </trkpt>
      <trkpt lat="31.457193419337273" lon="-7.404563203454018">
        <ele>1372.4200000000001</ele>
        <time>2019-03-16T09:32:47Z</time>
      </trkpt>
      <trkpt lat="31.457176487892866" lon="-7.404688680544496">
        <ele>1375.3</ele>
        <time>2019-03-16T09:32:52Z</time>
      </trkpt>
      <trkpt lat="31.457146229222417" lon="-7.40481055341661">
        <ele>1375.78</ele>
        <time>2019-03-16T09:32:53Z</time>
      </trkpt>
      <trkpt lat="31.457101637497544" lon="-7.404933599755168">
        <ele>1376.26</ele>
        <time>2019-03-16T09:32:54Z</time>
      </trkpt>
      <trkpt lat="31.457047071307898" lon="-7.405056729912758">
        <ele>1376.75</ele>
        <time>2019-03-16T09:32:55Z</time>
      </trkpt>
      <trkpt lat="31.456986218690872" lon="-7.405178351327777">
        <ele>1377.23</ele>
        <time>2019-03-16T09:32:56Z</time>
      </trkpt>
      <trkpt lat="31.456916900351644" lon="-7.405299302190542">
        <ele>1377.23</ele>
        <time>2019-03-16T09:32:59Z</time>
      </trkpt>
      <trkpt lat="31.456553461030126" lon="-7.405875641852617">
        <ele>1377.23</ele>
        <time>2019-03-16T09:33:00Z</time>
      </trkpt>
      <trkpt lat="31.456527812406421" lon="-7.405972955748439">
        <ele>1377.23</ele>
        <time>2019-03-16T09:33:01Z</time>
      </trkpt>
      <trkpt lat="31.456531835719943" lon="-7.406062390655279">
        <ele>1377.23</ele>
        <time>2019-03-16T09:33:02Z</time>
      </trkpt>
      <trkpt lat="31.456566452980042" lon="-7.406135564669967">
        <ele>1377.23</ele>
        <time>2019-03-16T09:33:03Z</time>
      </trkpt>
      <trkpt lat="31.456625042483211" lon="-7.406171523034573">
        <ele>1377.23</ele>
        <time>2019-03-16T09:33:04Z</time>
      </trkpt>
      <trkpt lat="31.456697126850486" lon="-7.406168421730399">
        <ele>1377.23</ele>
        <time>2019-03-16T09:33:05Z</time>
      </trkpt>
      <trkpt lat="31.456767786294222" lon="-7.406128607690334">
        <ele>1377.71</ele>
        <time>2019-03-16T09:33:06Z</time>
      </trkpt>
      <trkpt lat="31.456835176795721" lon="-7.406066413968802">
        <ele>1379.6300000000001</ele>
        <time>2019-03-16T09:33:07Z</time>
      </trkpt>
      <trkpt lat="31.456900471821427" lon="-7.405992234125733">
        <ele>1380.5899999999999</ele>
        <time>2019-03-16T09:33:10Z</time>
      </trkpt>
      <trkpt lat="31.457168273627758" lon="-7.405717642977834">
        <ele>1381.0699999999999</ele>
        <time>2019-03-16T09:33:11Z</time>
      </trkpt>
      <trkpt lat="31.457241447642446" lon="-7.40569450892508">
        <ele>1382.03</ele>
        <time>2019-03-16T09:33:12Z</time>
      </trkpt>
      <trkpt lat="31.457321913912892" lon="-7.405705489218235">
        <ele>1382.99</ele>
        <time>2019-03-16T09:33:13Z</time>
      </trkpt>
      <trkpt lat="31.45748988725245" lon="-7.4058195669204">
        <ele>1383.96</ele>
        <time>2019-03-16T09:33:14Z</time>
      </trkpt>
      <trkpt lat="31.458039321005344" lon="-7.406323570758104">
        <ele>1384.4400000000001</ele>
        <time>2019-03-16T09:33:15Z</time>
      </trkpt>
      <trkpt lat="31.458135964348912" lon="-7.406387776136398">
        <ele>1385.4000000000001</ele>
        <time>2019-03-16T09:33:16Z</time>
      </trkpt>
      <trkpt lat="31.458239397034049" lon="-7.406429350376129">
        <ele>1390.2</ele>
        <time>2019-03-16T09:33:17Z</time>
      </trkpt>
      <trkpt lat="31.458350708708167" lon="-7.40644745528698">
        <ele>1392.6099999999999</ele>
        <time>2019-03-16T09:33:18Z</time>
      </trkpt>
      <trkpt lat="31.4584681391716" lon="-7.406440665945411">
        <ele>1393.5699999999999</ele>
        <time>2019-03-16T09:33:19Z</time>
      </trkpt>
      <trkpt lat="31.458585318177938" lon="-7.406409317627549">
        <ele>1394.05</ele>
        <time>2019-03-16T09:33:24Z</time>
      </trkpt>
      <trkpt lat="31.458698306232691" lon="-7.406357601284981">
        <ele>1394.53</ele>
        <time>2019-03-16T09:33:32Z</time>
      </trkpt>
      <trkpt lat="31.458810456097126" lon="-7.406295910477638">
        <ele>1395.49</ele>
        <time>2019-03-16T09:33:33Z</time>
      </trkpt>
      <trkpt lat="31.459361733868718" lon="-7.405991982668638">
        <ele>1395.97</ele>
        <time>2019-03-16T09:33:34Z</time>
      </trkpt>
      <trkpt lat="31.459699440747499" lon="-7.405927274376154">
        <ele>1396.9300000000001</ele>
        <time>2019-03-16T09:33:35Z</time>
      </trkpt>
      <trkpt lat="31.459811925888062" lon="-7.405943283811212">
        <ele>1401.26</ele>
        <time>2019-03-16T09:33:36Z</time>
      </trkpt>
      <trkpt lat="31.459916867315769" lon="-7.405984438955784">
        <ele>1401.74</ele>
        <time>2019-03-16T09:33:37Z</time>
      </trkpt>
      <trkpt lat="31.460016863420606" lon="-7.40604973398149">
        <ele>1401.74</ele>
        <time>2019-03-16T09:33:41Z</time>
      </trkpt>
      <trkpt lat="31.46010747179389" lon="-7.406135816127062">
        <ele>1402.22</ele>
        <time>2019-03-16T09:33:42Z</time>
      </trkpt>
      <trkpt lat="31.460185004398227" lon="-7.406236315146089">
        <ele>1402.7</ele>
        <time>2019-03-16T09:33:53Z</time>
      </trkpt>
      <trkpt lat="31.46025407128036" lon="-7.406343016773462">
        <ele>1403.1800000000001</ele>
        <time>2019-03-16T09:33:55Z</time>
      </trkpt>
      <trkpt lat="31.460631005465984" lon="-7.40695615299046">
        <ele>1403.6600000000001</ele>
        <time>2019-03-16T09:33:56Z</time>
      </trkpt>
      <trkpt lat="31.460710214450955" lon="-7.407033434137702">
        <ele>1404.6199999999999</ele>
        <time>2019-03-16T09:34:04Z</time>
      </trkpt>
      <trkpt lat="31.46079788915813" lon="-7.40709294565022">
        <ele>1405.0999999999999</ele>
        <time>2019-03-16T09:34:05Z</time>
      </trkpt>
      <trkpt lat="31.460894616320729" lon="-7.407135190442205">
        <ele>1405.5799999999999</ele>
        <time>2019-03-16T09:34:06Z</time>
      </trkpt>
      <trkpt lat="31.460998468101025" lon="-7.407159917056561">
        <ele>1414.24</ele>
        <time>2019-03-16T09:34:07Z</time>
      </trkpt>
      <trkpt lat="31.461107265204191" lon="-7.407164527103305">
        <ele>1414.72</ele>
        <time>2019-03-16T09:34:08Z</time>
      </trkpt>
      <trkpt lat="31.46121765486896" lon="-7.407144494354725">
        <ele>1423.3699999999999</ele>
        <time>2019-03-16T09:34:09Z</time>
      </trkpt>
      <trkpt lat="31.461328379809856" lon="-7.407099986448884">
        <ele>1425.77</ele>
        <time>2019-03-16T09:34:12Z</time>
      </trkpt>
      <trkpt lat="31.461438266560435" lon="-7.407033769413829">
        <ele>1426.73</ele>
        <time>2019-03-16T09:34:13Z</time>
      </trkpt>
      <trkpt lat="31.461552260443568" lon="-7.406951626762748">
        <ele>1427.7</ele>
        <time>2019-03-16T09:34:14Z</time>
      </trkpt>
      <trkpt lat="31.462740143761039" lon="-7.405955772846937">
        <ele>1428.1800000000001</ele>
        <time>2019-03-16T09:34:15Z</time>
      </trkpt>
      <trkpt lat="31.462822202593088" lon="-7.405854519456625">
        <ele>1429.1400000000001</ele>
        <time>2019-03-16T09:34:16Z</time>
      </trkpt>
      <trkpt lat="31.463793581351638" lon="-7.404461363330483">
        <ele>1429.6199999999999</ele>
        <time>2019-03-16T09:34:17Z</time>
      </trkpt>
      <trkpt lat="31.464027184993029" lon="-7.404059953987598">
        <ele>1434.4200000000001</ele>
        <time>2019-03-16T09:34:18Z</time>
      </trkpt>
      <trkpt lat="31.464104130864143" lon="-7.403954677283764">
        <ele>1435.3900000000001</ele>
        <time>2019-03-16T09:34:19Z</time>
      </trkpt>
      <trkpt lat="31.464188704267144" lon="-7.403868930414319">
        <ele>1435.8699999999999</ele>
        <time>2019-03-16T09:34:20Z</time>
      </trkpt>
      <trkpt lat="31.464281408116221" lon="-7.403804892674089">
        <ele>1441.1500000000001</ele>
        <time>2019-03-16T09:34:21Z</time>
      </trkpt>
      <trkpt lat="31.464378051459789" lon="-7.403762396425009">
        <ele>1447.4000000000001</ele>
        <time>2019-03-16T09:34:22Z</time>
      </trkpt>
      <trkpt lat="31.464482825249434" lon="-7.403727024793625">
        <ele>1447.8800000000001</ele>
        <time>2019-03-16T09:34:23Z</time>
      </trkpt>
      <trkpt lat="31.465180618688464" lon="-7.403391329571605">
        <ele>1448.3599999999999</ele>
        <time>2019-03-16T09:34:24Z</time>
      </trkpt>
      <trkpt lat="31.465260917320848" lon="-7.403303906321526">
        <ele>1448.8399999999999</ele>
        <time>2019-03-16T09:34:25Z</time>
      </trkpt>
      <trkpt lat="31.46532847546041" lon="-7.403198964893818">
        <ele>1449.3199999999999</ele>
        <time>2019-03-16T09:34:26Z</time>
      </trkpt>
      <trkpt lat="31.466085612773895" lon="-7.402279218658805">
        <ele>1450.29</ele>
        <time>2019-03-16T09:34:27Z</time>
      </trkpt>
      <trkpt lat="31.466964287683368" lon="-7.401615791022778">
        <ele>1451.25</ele>
        <time>2019-03-16T09:34:28Z</time>
      </trkpt>
      <trkpt lat="31.467062272131443" lon="-7.40150548517704">
        <ele>1451.25</ele>
        <time>2019-03-16T09:34:29Z</time>
      </trkpt>
      <trkpt lat="31.467135697603226" lon="-7.401370285078883">
        <ele>1451.25</ele>
        <time>2019-03-16T09:34:30Z</time>
      </trkpt>
      <trkpt lat="31.467187246307731" lon="-7.40121815353632">
        <ele>1451.73</ele>
        <time>2019-03-16T09:34:31Z</time>
      </trkpt>
      <trkpt lat="31.467224797233939" lon="-7.401051269844174">
        <ele>1452.21</ele>
        <time>2019-03-16T09:34:32Z</time>
      </trkpt>
      <trkpt lat="31.467254804447293" lon="-7.400879189372063">
        <ele>1452.21</ele>
        <time>2019-03-16T09:34:33Z</time>
      </trkpt>
      <trkpt lat="31.467323116958141" lon="-7.400557743385434">
        <ele>1453.1700000000001</ele>
        <time>2019-03-16T09:34:34Z</time>
      </trkpt>
      <trkpt lat="31.467376928776503" lon="-7.400420866906643">
        <ele>1454.6099999999999</ele>
        <time>2019-03-16T09:34:35Z</time>
      </trkpt>
      <trkpt lat="31.467452868819237" lon="-7.400310058146715">
        <ele>1455.0899999999999</ele>
        <time>2019-03-16T09:34:36Z</time>
      </trkpt>
      <trkpt lat="31.467552445828915" lon="-7.400226658210158">
        <ele>1456.05</ele>
        <time>2019-03-16T09:34:37Z</time>
      </trkpt>
      <trkpt lat="31.467667194083333" lon="-7.4001744389534">
        <ele>1459.4200000000001</ele>
        <time>2019-03-16T09:34:38Z</time>
      </trkpt>
      <trkpt lat="31.467792252078652" lon="-7.400143845006824">
        <ele>1459.9000000000001</ele>
        <time>2019-03-16T09:34:39Z</time>
      </trkpt>
      <trkpt lat="31.467921249568462" lon="-7.400118196383119">
        <ele>1460.3800000000001</ele>
        <time>2019-03-16T09:34:43Z</time>
      </trkpt>
      <trkpt lat="31.468184273689985" lon="-7.400055164471269">
        <ele>1460.8599999999999</ele>
        <time>2019-03-16T09:34:44Z</time>
      </trkpt>
      <trkpt lat="31.468302207067609" lon="-7.399990456178784">
        <ele>1461.8199999999999</ele>
        <time>2019-03-16T09:34:46Z</time>
      </trkpt>
      <trkpt lat="31.468408238142729" lon="-7.399902110919356">
        <ele>1463.26</ele>
        <time>2019-03-16T09:34:47Z</time>
      </trkpt>
      <trkpt lat="31.46897510625422" lon="-7.399453092366457">
        <ele>1463.74</ele>
        <time>2019-03-16T09:34:48Z</time>
      </trkpt>
      <trkpt lat="31.469057081267238" lon="-7.399349324405193">
        <ele>1464.23</ele>
        <time>2019-03-16T09:34:57Z</time>
      </trkpt>
      <trkpt lat="31.469107205048203" lon="-7.399225104600191">
        <ele>1464.71</ele>
        <time>2019-03-16T09:35:09Z</time>
      </trkpt>
      <trkpt lat="31.469130255281925" lon="-7.399087809026241">
        <ele>1465.1900000000001</ele>
        <time>2019-03-16T09:35:17Z</time>
      </trkpt>
      <trkpt lat="31.469145007431507" lon="-7.398944813758135">
        <ele>1465.6700000000001</ele>
        <time>2019-03-16T09:35:21Z</time>
      </trkpt>
      <trkpt lat="31.469226228073239" lon="-7.39851457066834">
        <ele>1466.6300000000001</ele>
        <time>2019-03-16T09:35:22Z</time>
      </trkpt>
      <trkpt lat="31.469279620796442" lon="-7.398398984223604">
        <ele>1467.1099999999999</ele>
        <time>2019-03-16T09:35:23Z</time>
      </trkpt>
      <trkpt lat="31.469356315210462" lon="-7.39830887876451">
        <ele>1467.5899999999999</ele>
        <time>2019-03-16T09:35:24Z</time>
      </trkpt>
      <trkpt lat="31.469454048201442" lon="-7.398250289261341">
        <ele>1469.03</ele>
        <time>2019-03-16T09:35:25Z</time>
      </trkpt>
      <trkpt lat="31.469564354047179" lon="-7.398222042247653">
        <ele>1469.51</ele>
        <time>2019-03-16T09:35:26Z</time>
      </trkpt>
      <trkpt lat="31.469673402607441" lon="-7.398206871002913">
        <ele>1469.51</ele>
        <time>2019-03-16T09:35:27Z</time>
      </trkpt>
      <trkpt lat="31.469780271872878" lon="-7.398180132731795">
        <ele>1469.99</ele>
        <time>2019-03-16T09:35:33Z</time>
      </trkpt>
      <trkpt lat="31.469881692901254" lon="-7.398128164932132">
        <ele>1469.99</ele>
        <time>2019-03-16T09:35:40Z</time>
      </trkpt>
      <trkpt lat="31.469973810017109" lon="-7.398052392527461">
        <ele>1470.47</ele>
        <time>2019-03-16T09:35:41Z</time>
      </trkpt>
      <trkpt lat="31.470239851623774" lon="-7.397802863270044">
        <ele>1470.47</ele>
        <time>2019-03-16T09:35:42Z</time>
      </trkpt>
      <trkpt lat="31.470341272652149" lon="-7.397737903520465">
        <ele>1470.47</ele>
        <time>2019-03-16T09:35:45Z</time>
      </trkpt>
      <trkpt lat="31.470439173281193" lon="-7.397688869386911">
        <ele>1470.47</ele>
        <time>2019-03-16T09:35:46Z</time>
      </trkpt>
      <trkpt lat="31.470529194921255" lon="-7.397662466391921">
        <ele>1470.47</ele>
        <time>2019-03-16T09:35:47Z</time>
      </trkpt>
      <trkpt lat="31.470610834658146" lon="-7.397667495533824">
        <ele>1470.47</ele>
        <time>2019-03-16T09:35:48Z</time>
      </trkpt>
      <trkpt lat="31.47068040445447" lon="-7.397710410878062">
        <ele>1472.8800000000001</ele>
        <time>2019-03-16T09:35:49Z</time>
      </trkpt>
      <trkpt lat="31.470731282606721" lon="-7.397789033129811">
        <ele>1472.8800000000001</ele>
        <time>2019-03-16T09:35:51Z</time>
      </trkpt>
      <trkpt lat="31.47076204419136" lon="-7.397894812747836">
        <ele>1472.8800000000001</ele>
        <time>2019-03-16T09:35:52Z</time>
      </trkpt>
      <trkpt lat="31.470777718350291" lon="-7.398017188534141">
        <ele>1472.4000000000001</ele>
        <time>2019-03-16T09:35:53Z</time>
      </trkpt>
      <trkpt lat="31.470786351710558" lon="-7.39815691486001">
        <ele>1472.4000000000001</ele>
        <time>2019-03-16T09:35:54Z</time>
      </trkpt>
      <trkpt lat="31.470876038074493" lon="-7.39897146821022">
        <ele>1472.4000000000001</ele>
        <time>2019-03-16T09:35:55Z</time>
      </trkpt>
      <trkpt lat="31.471244255080819" lon="-7.400274770334363">
        <ele>1473.8399999999999</ele>
        <time>2019-03-16T09:35:56Z</time>
      </trkpt>
      <trkpt lat="31.471312148496509" lon="-7.400402510538697">
        <ele>1474.3199999999999</ele>
        <time>2019-03-16T09:35:57Z</time>
      </trkpt>
      <trkpt lat="31.471379203721881" lon="-7.400537459179759">
        <ele>1484.4100000000001</ele>
        <time>2019-03-16T09:35:58Z</time>
      </trkpt>
      <trkpt lat="31.471431506797671" lon="-7.400686908513308">
        <ele>1486.8199999999999</ele>
        <time>2019-03-16T09:35:59Z</time>
      </trkpt>
      <trkpt lat="31.471470566466451" lon="-7.400848176330328">
        <ele>1487.78</ele>
        <time>2019-03-16T09:36:00Z</time>
      </trkpt>
      <trkpt lat="31.471503591164947" lon="-7.401017742231488">
        <ele>1496.9100000000001</ele>
        <time>2019-03-16T09:36:05Z</time>
      </trkpt>
      <trkpt lat="31.471661925315857" lon="-7.401710925623775">
        <ele>1498.3499999999999</ele>
        <time>2019-03-16T09:36:06Z</time>
      </trkpt>
      <trkpt lat="31.47167818620801" lon="-7.401893148198724">
        <ele>1499.3099999999999</ele>
        <time>2019-03-16T09:36:07Z</time>
      </trkpt>
      <trkpt lat="31.471577016636729" lon="-7.403934644535184">
        <ele>1500.76</ele>
        <time>2019-03-16T09:36:08Z</time>
      </trkpt>
      <trkpt lat="31.471569305285811" lon="-7.404306801036">
        <ele>1501.72</ele>
        <time>2019-03-16T09:36:09Z</time>
      </trkpt>
      <trkpt lat="31.471583973616362" lon="-7.404490448534489">
        <ele>1503.1600000000001</ele>
        <time>2019-03-16T09:36:10Z</time>
      </trkpt>
      <trkpt lat="31.471623871475458" lon="-7.40593146532774">
        <ele>1506.04</ele>
        <time>2019-03-16T09:36:11Z</time>
      </trkpt>
      <trkpt lat="31.471660584211349" lon="-7.406084770336747">
        <ele>1506.52</ele>
        <time>2019-03-16T09:36:12Z</time>
      </trkpt>
      <trkpt lat="31.471722610294819" lon="-7.406225837767124">
        <ele>1507</ele>
        <time>2019-03-16T09:36:13Z</time>
      </trkpt>
      <trkpt lat="31.471806094050407" lon="-7.406353242695332">
        <ele>1507.48</ele>
        <time>2019-03-16T09:36:14Z</time>
      </trkpt>
      <trkpt lat="31.471906341612339" lon="-7.406471595168114">
        <ele>1507.97</ele>
        <time>2019-03-16T09:36:15Z</time>
      </trkpt>
      <trkpt lat="31.472012121230364" lon="-7.40658768452704">
        <ele>1508.45</ele>
        <time>2019-03-16T09:36:16Z</time>
      </trkpt>
      <trkpt lat="31.472292663529515" lon="-7.4069092143327">
        <ele>1508.45</ele>
        <time>2019-03-16T09:36:18Z</time>
      </trkpt>
      <trkpt lat="31.472355108708143" lon="-7.407025638967753">
        <ele>1508.9300000000001</ele>
        <time>2019-03-16T09:36:19Z</time>
      </trkpt>
      <trkpt lat="31.472392240539193" lon="-7.407157067209482">
        <ele>1508.9300000000001</ele>
        <time>2019-03-16T09:36:27Z</time>
      </trkpt>
      <trkpt lat="31.472404561936855" lon="-7.407297464087606">
        <ele>1508.9300000000001</ele>
        <time>2019-03-16T09:36:30Z</time>
      </trkpt>
      <trkpt lat="31.472403891384602" lon="-7.407445991411805">
        <ele>1509.4100000000001</ele>
        <time>2019-03-16T09:36:31Z</time>
      </trkpt>
      <trkpt lat="31.472394755110145" lon="-7.407599547877908">
        <ele>1509.8900000000001</ele>
        <time>2019-03-16T09:36:32Z</time>
      </trkpt>
      <trkpt lat="31.472376985475421" lon="-7.407750003039837">
        <ele>1509.8900000000001</ele>
        <time>2019-03-16T09:36:39Z</time>
      </trkpt>
      <trkpt lat="31.472347900271416" lon="-7.407898781821132">
        <ele>1510.3699999999999</ele>
        <time>2019-03-16T09:36:40Z</time>
      </trkpt>
      <trkpt lat="31.472301548346877" lon="-7.408046387135983">
        <ele>1510.8499999999999</ele>
        <time>2019-03-16T09:36:41Z</time>
      </trkpt>
      <trkpt lat="31.472238348796964" lon="-7.408192316070199">
        <ele>1510.8499999999999</ele>
        <time>2019-03-16T09:36:43Z</time>
      </trkpt>
      <trkpt lat="31.472170874476433" lon="-7.408341430127621">
        <ele>1510.8499999999999</ele>
        <time>2019-03-16T09:36:44Z</time>
      </trkpt>
      <trkpt lat="31.472112201154232" lon="-7.40849825553596">
        <ele>1510.8499999999999</ele>
        <time>2019-03-16T09:36:45Z</time>
      </trkpt>
      <trkpt lat="31.472074063494802" lon="-7.408665977418423">
        <ele>1510.8499999999999</ele>
        <time>2019-03-16T09:36:46Z</time>
      </trkpt>
      <trkpt lat="31.472054868936539" lon="-7.408838896080852">
        <ele>1510.8499999999999</ele>
        <time>2019-03-16T09:36:47Z</time>
      </trkpt>
      <trkpt lat="31.472050677984953" lon="-7.40901030600071">
        <ele>1510.8499999999999</ele>
        <time>2019-03-16T09:36:48Z</time>
      </trkpt>
      <trkpt lat="31.472063502296805" lon="-7.409176519140601">
        <ele>1510.8499999999999</ele>
        <time>2019-03-16T09:36:49Z</time>
      </trkpt>
      <trkpt lat="31.472100131213665" lon="-7.409341810271144">
        <ele>1510.8499999999999</ele>
        <time>2019-03-16T09:36:50Z</time>
      </trkpt>
      <trkpt lat="31.472151763737202" lon="-7.40950433537364">
        <ele>1510.8499999999999</ele>
        <time>2019-03-16T09:36:52Z</time>
      </trkpt>
      <trkpt lat="31.472196439281106" lon="-7.409662837162614">
        <ele>1511.3299999999999</ele>
        <time>2019-03-16T09:36:53Z</time>
      </trkpt>
      <trkpt lat="31.472222506999969" lon="-7.409820333123207">
        <ele>1511.3299999999999</ele>
        <time>2019-03-16T09:36:54Z</time>
      </trkpt>
      <trkpt lat="31.472234828397632" lon="-7.409975146874785">
        <ele>1511.8099999999999</ele>
        <time>2019-03-16T09:36:55Z</time>
      </trkpt>
      <trkpt lat="31.472248071804643" lon="-7.410125518217683">
        <ele>1511.3299999999999</ele>
        <time>2019-03-16T09:36:56Z</time>
      </trkpt>
      <trkpt lat="31.472284784540534" lon="-7.410268094390631">
        <ele>1511.8099999999999</ele>
        <time>2019-03-16T09:36:57Z</time>
      </trkpt>
      <trkpt lat="31.472348906099796" lon="-7.410400277003646">
        <ele>1511.8099999999999</ele>
        <time>2019-03-16T09:36:58Z</time>
      </trkpt>
      <trkpt lat="31.472422415390611" lon="-7.41053338162601">
        <ele>1511.8099999999999</ele>
        <time>2019-03-16T09:36:59Z</time>
      </trkpt>
      <trkpt lat="31.472486034035683" lon="-7.410681741312146">
        <ele>1511.3299999999999</ele>
        <time>2019-03-16T09:37:00Z</time>
      </trkpt>
      <trkpt lat="31.472539678215981" lon="-7.410845691338182">
        <ele>1510.8499999999999</ele>
        <time>2019-03-16T09:37:02Z</time>
      </trkpt>
      <trkpt lat="31.472589131444693" lon="-7.411021878942847">
        <ele>1505.0799999999999</ele>
        <time>2019-03-16T09:37:03Z</time>
      </trkpt>
      <trkpt lat="31.472798762843013" lon="-7.411701567471027">
        <ele>1499.79</ele>
        <time>2019-03-16T09:37:04Z</time>
      </trkpt>
      <trkpt lat="31.472880486398935" lon="-7.411827128380537">
        <ele>1502.2</ele>
        <time>2019-03-16T09:37:08Z</time>
      </trkpt>
      <trkpt lat="31.473037982359529" lon="-7.412070706486702">
        <ele>1502.6800000000001</ele>
        <time>2019-03-16T09:37:09Z</time>
      </trkpt>
      <trkpt lat="31.473080646246672" lon="-7.412218060344458">
        <ele>1502.6800000000001</ele>
        <time>2019-03-16T09:37:17Z</time>
      </trkpt>
      <trkpt lat="31.473102439194918" lon="-7.412383016198874">
        <ele>1502.6800000000001</ele>
        <time>2019-03-16T09:37:18Z</time>
      </trkpt>
      <trkpt lat="31.473284494131804" lon="-7.414187137037516">
        <ele>1502.2</ele>
        <time>2019-03-16T09:37:19Z</time>
      </trkpt>
      <trkpt lat="31.473828814923763" lon="-7.416707240045071">
        <ele>1502.2</ele>
        <time>2019-03-16T09:37:20Z</time>
      </trkpt>
      <trkpt lat="31.474523339420557" lon="-7.418053792789578">
        <ele>1502.2</ele>
        <time>2019-03-16T09:37:21Z</time>
      </trkpt>
      <trkpt lat="31.474868590012193" lon="-7.418633820489049">
        <ele>1502.2</ele>
        <time>2019-03-16T09:37:22Z</time>
      </trkpt>
      <trkpt lat="31.474928352981806" lon="-7.418780671432614">
        <ele>1502.2</ele>
        <time>2019-03-16T09:37:25Z</time>
      </trkpt>
      <trkpt lat="31.47496422752738" lon="-7.418941436335445">
        <ele>1502.2</ele>
        <time>2019-03-16T09:37:26Z</time>
      </trkpt>
      <trkpt lat="31.474980069324374" lon="-7.419109493494034">
        <ele>1502.2</ele>
        <time>2019-03-16T09:37:27Z</time>
      </trkpt>
      <trkpt lat="31.474991049617529" lon="-7.419275371357799">
        <ele>1502.2</ele>
        <time>2019-03-16T09:37:28Z</time>
      </trkpt>
      <trkpt lat="31.475010327994823" lon="-7.41943622007966">
        <ele>1502.2</ele>
        <time>2019-03-16T09:37:29Z</time>
      </trkpt>
      <trkpt lat="31.475043268874288" lon="-7.419591536745429">
        <ele>1502.2</ele>
        <time>2019-03-16T09:37:30Z</time>
      </trkpt>
      <trkpt lat="31.475176541134715" lon="-7.420220766216517">
        <ele>1502.2</ele>
        <time>2019-03-16T09:37:31Z</time>
      </trkpt>
      <trkpt lat="31.47518509067595" lon="-7.420928282663226">
        <ele>1502.2</ele>
        <time>2019-03-16T09:37:33Z</time>
      </trkpt>
      <trkpt lat="31.475162459537387" lon="-7.421046383678913">
        <ele>1501.72</ele>
        <time>2019-03-16T09:37:34Z</time>
      </trkpt>
      <trkpt lat="31.475126165896654" lon="-7.421158785000444">
        <ele>1502.2</ele>
        <time>2019-03-16T09:37:35Z</time>
      </trkpt>
      <trkpt lat="31.475022230297327" lon="-7.421452151611447">
        <ele>1502.2</ele>
        <time>2019-03-16T09:37:36Z</time>
      </trkpt>
      <trkpt lat="31.475014099851251" lon="-7.421538317576051">
        <ele>1502.2</ele>
        <time>2019-03-16T09:37:37Z</time>
      </trkpt>
      <trkpt lat="31.47502432577312" lon="-7.421611910685897">
        <ele>1502.2</ele>
        <time>2019-03-16T09:37:38Z</time>
      </trkpt>
      <trkpt lat="31.47505072876811" lon="-7.421678462997079">
        <ele>1501.72</ele>
        <time>2019-03-16T09:37:39Z</time>
      </trkpt>
      <trkpt lat="31.475085094571114" lon="-7.421748787164688">
        <ele>1501.24</ele>
        <time>2019-03-16T09:37:40Z</time>
      </trkpt>
      <trkpt lat="31.475174529477954" lon="-7.421896224841476">
        <ele>1501.24</ele>
        <time>2019-03-16T09:37:41Z</time>
      </trkpt>
      <trkpt lat="31.475235633552074" lon="-7.421966046094894">
        <ele>1500.76</ele>
        <time>2019-03-16T09:37:42Z</time>
      </trkpt>
      <trkpt lat="31.475293301045895" lon="-7.422042489051819">
        <ele>1500.27</ele>
        <time>2019-03-16T09:37:43Z</time>
      </trkpt>
      <trkpt lat="31.475334707647562" lon="-7.422136114910245">
        <ele>1499.79</ele>
        <time>2019-03-16T09:37:44Z</time>
      </trkpt>
      <trkpt lat="31.475353818386793" lon="-7.422246336936951">
        <ele>1497.8699999999999</ele>
        <time>2019-03-16T09:37:45Z</time>
      </trkpt>
      <trkpt lat="31.475351555272937" lon="-7.422364270314574">
        <ele>1497.3900000000001</ele>
        <time>2019-03-16T09:37:46Z</time>
      </trkpt>
      <trkpt lat="31.475336970761418" lon="-7.422481952235103">
        <ele>1496.9100000000001</ele>
        <time>2019-03-16T09:37:47Z</time>
      </trkpt>
      <trkpt lat="31.475316099822521" lon="-7.422599047422409">
        <ele>1496.4300000000001</ele>
        <time>2019-03-16T09:37:48Z</time>
      </trkpt>
      <trkpt lat="31.475289780646563" lon="-7.422714298591018">
        <ele>1496.4300000000001</ele>
        <time>2019-03-16T09:37:49Z</time>
      </trkpt>
      <trkpt lat="31.475259773433208" lon="-7.422827119007707">
        <ele>1495.95</ele>
        <time>2019-03-16T09:37:50Z</time>
      </trkpt>
      <trkpt lat="31.475163213908672" lon="-7.42337261326611">
        <ele>1495.47</ele>
        <time>2019-03-16T09:37:52Z</time>
      </trkpt>
      <trkpt lat="31.475178888067603" lon="-7.423465484753251">
        <ele>1494.99</ele>
        <time>2019-03-16T09:37:53Z</time>
      </trkpt>
      <trkpt lat="31.475212499499321" lon="-7.423547292128205">
        <ele>1494.51</ele>
        <time>2019-03-16T09:37:54Z</time>
      </trkpt>
      <trkpt lat="31.475263545289636" lon="-7.423619292676449">
        <ele>1494.03</ele>
        <time>2019-03-16T09:37:55Z</time>
      </trkpt>
      <trkpt lat="31.475328924134374" lon="-7.423685593530536">
        <ele>1493.0599999999999</ele>
        <time>2019-03-16T09:37:56Z</time>
      </trkpt>
      <trkpt lat="31.475401762872934" lon="-7.423746278509498">
        <ele>1492.0999999999999</ele>
        <time>2019-03-16T09:37:57Z</time>
      </trkpt>
      <trkpt lat="31.475472003221512" lon="-7.423810567706823">
        <ele>1491.1400000000001</ele>
        <time>2019-03-16T09:37:58Z</time>
      </trkpt>
      <trkpt lat="31.475530005991459" lon="-7.423886675387621">
        <ele>1490.6600000000001</ele>
        <time>2019-03-16T09:37:59Z</time>
      </trkpt>
      <trkpt lat="31.475567640736699" lon="-7.423977619037032">
        <ele>1483.45</ele>
        <time>2019-03-16T09:38:05Z</time>
      </trkpt>
      <trkpt lat="31.47557987831533" lon="-7.424075771123171">
        <ele>1481.05</ele>
        <time>2019-03-16T09:38:06Z</time>
      </trkpt>
      <trkpt lat="31.475568311288953" lon="-7.424181131646037">
        <ele>1480.0899999999999</ele>
        <time>2019-03-16T09:38:07Z</time>
      </trkpt>
      <trkpt lat="31.475545428693295" lon="-7.42429856210947">
        <ele>1479.1300000000001</ele>
        <time>2019-03-16T09:38:10Z</time>
      </trkpt>
      <trkpt lat="31.475509470328689" lon="-7.424560077488422">
        <ele>1475.28</ele>
        <time>2019-03-16T09:38:11Z</time>
      </trkpt>
      <trkpt lat="31.475506033748388" lon="-7.424699049443007">
        <ele>1474.8</ele>
        <time>2019-03-16T09:38:12Z</time>
      </trkpt>
      <trkpt lat="31.475405870005488" lon="-7.425870085135102">
        <ele>1474.3199999999999</ele>
        <time>2019-03-16T09:38:13Z</time>
      </trkpt>
      <trkpt lat="31.475390028208494" lon="-7.426190692931414">
        <ele>1472.4000000000001</ele>
        <time>2019-03-16T09:38:14Z</time>
      </trkpt>
      <trkpt lat="31.475399751216173" lon="-7.426277277991176">
        <ele>1471.9200000000001</ele>
        <time>2019-03-16T09:38:16Z</time>
      </trkpt>
      <trkpt lat="31.475416598841548" lon="-7.426351374015212">
        <ele>1471.4400000000001</ele>
        <time>2019-03-16T09:38:17Z</time>
      </trkpt>
      <trkpt lat="31.475538974627852" lon="-7.426802320405841">
        <ele>1470.47</ele>
        <time>2019-03-16T09:38:18Z</time>
      </trkpt>
      <trkpt lat="31.475535118952394" lon="-7.426890078932047">
        <ele>1469.51</ele>
        <time>2019-03-16T09:38:19Z</time>
      </trkpt>
      <trkpt lat="31.475516175851226" lon="-7.426995942369103">
        <ele>1468.55</ele>
        <time>2019-03-16T09:38:20Z</time>
      </trkpt>
      <trkpt lat="31.4754484500736" lon="-7.427257709205151">
        <ele>1467.5899999999999</ele>
        <time>2019-03-16T09:38:21Z</time>
      </trkpt>
      <trkpt lat="31.475429590791464" lon="-7.427400117740035">
        <ele>1466.6300000000001</ele>
        <time>2019-03-16T09:38:28Z</time>
      </trkpt>
      <trkpt lat="31.475432273000479" lon="-7.427546298131347">
        <ele>1464.23</ele>
        <time>2019-03-16T09:38:29Z</time>
      </trkpt>
      <trkpt lat="31.475449288263917" lon="-7.427693735808134">
        <ele>1463.26</ele>
        <time>2019-03-16T09:38:30Z</time>
      </trkpt>
      <trkpt lat="31.475469237193465" lon="-7.427840754389763">
        <ele>1462.3</ele>
        <time>2019-03-16T09:38:31Z</time>
      </trkpt>
      <trkpt lat="31.475473009049892" lon="-7.427990287542343">
        <ele>1461.3399999999999</ele>
        <time>2019-03-16T09:38:32Z</time>
      </trkpt>
      <trkpt lat="31.475449288263917" lon="-7.428141664713621">
        <ele>1460.3800000000001</ele>
        <time>2019-03-16T09:38:33Z</time>
      </trkpt>
      <trkpt lat="31.475406037643552" lon="-7.428294299170375">
        <ele>1459.4200000000001</ele>
        <time>2019-03-16T09:38:34Z</time>
      </trkpt>
      <trkpt lat="31.475324314087629" lon="-7.428599065169692">
        <ele>1458.46</ele>
        <time>2019-03-16T09:38:35Z</time>
      </trkpt>
      <trkpt lat="31.475306879729033" lon="-7.42874214425683">
        <ele>1457.98</ele>
        <time>2019-03-16T09:38:41Z</time>
      </trkpt>
      <trkpt lat="31.475295145064592" lon="-7.428880613297224">
        <ele>1457.5</ele>
        <time>2019-03-16T09:38:42Z</time>
      </trkpt>
      <trkpt lat="31.47527159191668" lon="-7.429009191691876">
        <ele>1455.5699999999999</ele>
        <time>2019-03-16T09:38:43Z</time>
      </trkpt>
      <trkpt lat="31.475230101495981" lon="-7.429125867784023">
        <ele>1454.6099999999999</ele>
        <time>2019-03-16T09:38:45Z</time>
      </trkpt>
      <trkpt lat="31.475178468972445" lon="-7.429226199164987">
        <ele>1453.6500000000001</ele>
        <time>2019-03-16T09:38:46Z</time>
      </trkpt>
      <trkpt lat="31.47512398660183" lon="-7.429309180006385">
        <ele>1450.29</ele>
        <time>2019-03-16T09:38:47Z</time>
      </trkpt>
      <trkpt lat="31.475064475089312" lon="-7.429386964067817">
        <ele>1449.8099999999999</ele>
        <time>2019-03-16T09:38:48Z</time>
      </trkpt>
      <trkpt lat="31.474997419863939" lon="-7.429468855261803">
        <ele>1443.5599999999999</ele>
        <time>2019-03-16T09:38:49Z</time>
      </trkpt>
      <trkpt lat="31.474859789013863" lon="-7.429670104756951">
        <ele>1443.0799999999999</ele>
        <time>2019-03-16T09:38:50Z</time>
      </trkpt>
      <trkpt lat="31.474799271672964" lon="-7.42979122325778">
        <ele>1442.5999999999999</ele>
        <time>2019-03-16T09:38:51Z</time>
      </trkpt>
      <trkpt lat="31.474746214225888" lon="-7.429920891299844">
        <ele>1442.1099999999999</ele>
        <time>2019-03-16T09:38:52Z</time>
      </trkpt>
      <trkpt lat="31.474514538422227" lon="-7.430437300354242">
        <ele>1441.6300000000001</ele>
        <time>2019-03-16T09:38:53Z</time>
      </trkpt>
      <trkpt lat="31.474444717168808" lon="-7.430540397763252">
        <ele>1441.6300000000001</ele>
        <time>2019-03-16T09:38:54Z</time>
      </trkpt>
      <trkpt lat="31.473969714716077" lon="-7.431192761287093">
        <ele>1441.6300000000001</ele>
        <time>2019-03-16T09:38:59Z</time>
      </trkpt>
      <trkpt lat="31.473933253437281" lon="-7.431272892281413">
        <ele>1441.6300000000001</ele>
        <time>2019-03-16T09:39:03Z</time>
      </trkpt>
      <trkpt lat="31.47390685044229" lon="-7.431364674121141">
        <ele>1441.6300000000001</ele>
        <time>2019-03-16T09:39:04Z</time>
      </trkpt>
      <trkpt lat="31.47388975135982" lon="-7.431470453739166">
        <ele>1441.6300000000001</ele>
        <time>2019-03-16T09:39:06Z</time>
      </trkpt>
      <trkpt lat="31.473884303122759" lon="-7.431590985506773">
        <ele>1441.6300000000001</ele>
        <time>2019-03-16T09:39:07Z</time>
      </trkpt>
      <trkpt lat="31.473882207646966" lon="-7.431717803701758">
        <ele>1441.6300000000001</ele>
        <time>2019-03-16T09:39:09Z</time>
      </trkpt>
      <trkpt lat="31.473861755803227" lon="-7.432037992402911">
        <ele>1441.6300000000001</ele>
        <time>2019-03-16T09:39:10Z</time>
      </trkpt>
      <trkpt lat="31.473839124664664" lon="-7.432125080376864">
        <ele>1441.6300000000001</ele>
        <time>2019-03-16T09:39:11Z</time>
      </trkpt>
      <trkpt lat="31.47380517795682" lon="-7.432206887751818">
        <ele>1441.6300000000001</ele>
        <time>2019-03-16T09:39:12Z</time>
      </trkpt>
      <trkpt lat="31.473754132166505" lon="-7.432283498346806">
        <ele>1441.6300000000001</ele>
        <time>2019-03-16T09:39:13Z</time>
      </trkpt>
      <trkpt lat="31.473683137446642" lon="-7.432348039001226">
        <ele>1441.1500000000001</ele>
        <time>2019-03-16T09:39:14Z</time>
      </trkpt>
      <trkpt lat="31.473598480224609" lon="-7.432401934638619">
        <ele>1441.6300000000001</ele>
        <time>2019-03-16T09:39:15Z</time>
      </trkpt>
      <trkpt lat="31.473504938185215" lon="-7.432453483343124">
        <ele>1441.1500000000001</ele>
        <time>2019-03-16T09:39:17Z</time>
      </trkpt>
      <trkpt lat="31.473335539922118" lon="-7.432559933513403">
        <ele>1441.1500000000001</ele>
        <time>2019-03-16T09:39:18Z</time>
      </trkpt>
      <trkpt lat="31.473281225189567" lon="-7.432625396177173">
        <ele>1440.6700000000001</ele>
        <time>2019-03-16T09:39:19Z</time>
      </trkpt>
      <trkpt lat="31.47325842641294" lon="-7.432704186066985">
        <ele>1440.1900000000001</ele>
        <time>2019-03-16T09:39:20Z</time>
      </trkpt>
      <trkpt lat="31.473273513838649" lon="-7.4327845685184">
        <ele>1439.23</ele>
        <time>2019-03-16T09:39:21Z</time>
      </trkpt>
      <trkpt lat="31.473325900733471" lon="-7.432849612087011">
        <ele>1438.75</ele>
        <time>2019-03-16T09:39:22Z</time>
      </trkpt>
      <trkpt lat="31.473401505500078" lon="-7.432884983718395">
        <ele>1437.79</ele>
        <time>2019-03-16T09:39:25Z</time>
      </trkpt>
      <trkpt lat="31.473491946235299" lon="-7.432891605421901">
        <ele>1436.8299999999999</ele>
        <time>2019-03-16T09:39:26Z</time>
      </trkpt>
      <trkpt lat="31.473595462739468" lon="-7.432877859100699">
        <ele>1435.3900000000001</ele>
        <time>2019-03-16T09:39:27Z</time>
      </trkpt>
      <trkpt lat="31.473708031699061" lon="-7.432862017303705">
        <ele>1434.4200000000001</ele>
        <time>2019-03-16T09:39:30Z</time>
      </trkpt>
      <trkpt lat="31.473827306181192" lon="-7.432858413085342">
        <ele>1433.46</ele>
        <time>2019-03-16T09:39:31Z</time>
      </trkpt>
      <trkpt lat="31.473946161568165" lon="-7.43287593126297">
        <ele>1432.02</ele>
        <time>2019-03-16T09:39:34Z</time>
      </trkpt>
      <trkpt lat="31.474069710820913" lon="-7.432916415855289">
        <ele>1431.0599999999999</ele>
        <time>2019-03-16T09:39:35Z</time>
      </trkpt>
      <trkpt lat="31.474195355549455" lon="-7.432981375604868">
        <ele>1429.1400000000001</ele>
        <time>2019-03-16T09:39:42Z</time>
      </trkpt>
      <trkpt lat="31.474320245906711" lon="-7.43306502699852">
        <ele>1428.6600000000001</ele>
        <time>2019-03-16T09:39:52Z</time>
      </trkpt>
      <trkpt lat="31.474440107122064" lon="-7.43315446190536">
        <ele>1428.6600000000001</ele>
        <time>2019-03-16T09:39:53Z</time>
      </trkpt>
      <trkpt lat="31.474554101005197" lon="-7.433251775801182">
        <ele>1428.1800000000001</ele>
        <time>2019-03-16T09:39:55Z</time>
      </trkpt>
      <trkpt lat="31.47465543821454" lon="-7.433367948979139">
        <ele>1428.1800000000001</ele>
        <time>2019-03-16T09:39:56Z</time>
      </trkpt>
      <trkpt lat="31.474744789302349" lon="-7.433501053601503">
        <ele>1427.7</ele>
        <time>2019-03-16T09:39:57Z</time>
      </trkpt>
      <trkpt lat="31.474915780127048" lon="-7.433744044974446">
        <ele>1427.21</ele>
        <time>2019-03-16T09:39:58Z</time>
      </trkpt>
      <trkpt lat="31.475010747089982" lon="-7.433830462396145">
        <ele>1426.73</ele>
        <time>2019-03-16T09:39:59Z</time>
      </trkpt>
      <trkpt lat="31.475117113441229" lon="-7.433885782957077">
        <ele>1426.73</ele>
        <time>2019-03-16T09:40:00Z</time>
      </trkpt>
      <trkpt lat="31.475233538076282" lon="-7.433915622532368">
        <ele>1427.21</ele>
        <time>2019-03-16T09:40:01Z</time>
      </trkpt>
      <trkpt lat="31.475355243310332" lon="-7.433923417702317">
        <ele>1427.7</ele>
        <time>2019-03-16T09:40:02Z</time>
      </trkpt>
      <trkpt lat="31.475477619096637" lon="-7.433911012485623">
        <ele>1429.6199999999999</ele>
        <time>2019-03-16T09:40:12Z</time>
      </trkpt>
      <trkpt lat="31.475600833073258" lon="-7.433880837634206">
        <ele>1430.5799999999999</ele>
        <time>2019-03-16T09:40:13Z</time>
      </trkpt>
      <trkpt lat="31.475724885240197" lon="-7.433841777965426">
        <ele>1431.0599999999999</ele>
        <time>2019-03-16T09:40:14Z</time>
      </trkpt>
      <trkpt lat="31.476495014503598" lon="-7.433665171265602">
        <ele>1432.02</ele>
        <time>2019-03-16T09:40:15Z</time>
      </trkpt>
      <trkpt lat="31.47662459872663" lon="-7.433686628937721">
        <ele>1432.5</ele>
        <time>2019-03-16T09:40:16Z</time>
      </trkpt>
      <trkpt lat="31.476748818531632" lon="-7.433734657242894">
        <ele>1432.98</ele>
        <time>2019-03-16T09:40:17Z</time>
      </trkpt>
      <trkpt lat="31.477120304480195" lon="-7.433913191780448">
        <ele>1433.9400000000001</ele>
        <time>2019-03-16T09:40:24Z</time>
      </trkpt>
      <trkpt lat="31.477251565083861" lon="-7.433946970850229">
        <ele>1434.4200000000001</ele>
        <time>2019-03-16T09:40:25Z</time>
      </trkpt>
      <trkpt lat="31.477383160963655" lon="-7.433948563411832">
        <ele>1434.4200000000001</ele>
        <time>2019-03-16T09:40:26Z</time>
      </trkpt>
      <trkpt lat="31.477515175938606" lon="-7.433920735493302">
        <ele>1434.9100000000001</ele>
        <time>2019-03-16T09:40:27Z</time>
      </trkpt>
      <trkpt lat="31.477645011618733" lon="-7.433878658339381">
        <ele>1435.3900000000001</ele>
        <time>2019-03-16T09:40:28Z</time>
      </trkpt>
      <trkpt lat="31.477893786504865" lon="-7.433809926733375">
        <ele>1435.3900000000001</ele>
        <time>2019-03-16T09:40:29Z</time>
      </trkpt>
      <trkpt lat="31.478013312444091" lon="-7.433815291151404">
        <ele>1435.3900000000001</ele>
        <time>2019-03-16T09:40:30Z</time>
      </trkpt>
      <trkpt lat="31.478123953565955" lon="-7.433846723288298">
        <ele>1435.8699999999999</ele>
        <time>2019-03-16T09:40:38Z</time>
      </trkpt>
      <trkpt lat="31.478219842538238" lon="-7.433901708573103">
        <ele>1435.3900000000001</ele>
        <time>2019-03-16T09:40:39Z</time>
      </trkpt>
      <trkpt lat="31.478303745388985" lon="-7.43397044017911">
        <ele>1434.9100000000001</ele>
        <time>2019-03-16T09:40:40Z</time>
      </trkpt>
      <trkpt lat="31.478388486430049" lon="-7.434048056602478">
        <ele>1434.4200000000001</ele>
        <time>2019-03-16T09:40:41Z</time>
      </trkpt>
      <trkpt lat="31.479039341211319" lon="-7.434690445661545">
        <ele>1433.9400000000001</ele>
        <time>2019-03-16T09:40:42Z</time>
      </trkpt>
      <trkpt lat="31.479131374508142" lon="-7.434738306328654">
        <ele>1433.46</ele>
        <time>2019-03-16T09:40:45Z</time>
      </trkpt>
      <trkpt lat="31.479228772222996" lon="-7.434759344905615">
        <ele>1431.0599999999999</ele>
        <time>2019-03-16T09:40:46Z</time>
      </trkpt>
      <trkpt lat="31.479327846318483" lon="-7.43474735878408">
        <ele>1431.0599999999999</ele>
        <time>2019-03-16T09:40:47Z</time>
      </trkpt>
      <trkpt lat="31.479423148557544" lon="-7.434698827564716">
        <ele>1431.0599999999999</ele>
        <time>2019-03-16T09:40:49Z</time>
      </trkpt>
      <trkpt lat="31.479506380856037" lon="-7.434613080695272">
        <ele>1430.5799999999999</ele>
        <time>2019-03-16T09:40:50Z</time>
      </trkpt>
      <trkpt lat="31.47958030924201" lon="-7.43450646288693">
        <ele>1430.0999999999999</ele>
        <time>2019-03-16T09:40:51Z</time>
      </trkpt>
      <trkpt lat="31.479655159637332" lon="-7.434389116242528">
        <ele>1430.0999999999999</ele>
        <time>2019-03-16T09:40:52Z</time>
      </trkpt>
      <trkpt lat="31.480119014158845" lon="-7.433701548725367">
        <ele>1429.1400000000001</ele>
        <time>2019-03-16T09:40:53Z</time>
      </trkpt>
      <trkpt lat="31.480158995836973" lon="-7.433593170717359">
        <ele>1428.6600000000001</ele>
        <time>2019-03-16T09:40:56Z</time>
      </trkpt>
      <trkpt lat="31.480184057727456" lon="-7.433481272310019">
        <ele>1428.1800000000001</ele>
        <time>2019-03-16T09:40:57Z</time>
      </trkpt>
      <trkpt lat="31.480219764634967" lon="-7.433275748044252">
        <ele>1427.7</ele>
        <time>2019-03-16T09:40:58Z</time>
      </trkpt>
      <trkpt lat="31.480258740484715" lon="-7.433187235146761">
        <ele>1427.7</ele>
        <time>2019-03-16T09:40:59Z</time>
      </trkpt>
      <trkpt lat="31.480322442948818" lon="-7.433114480227232">
        <ele>1427.21</ele>
        <time>2019-03-16T09:41:00Z</time>
      </trkpt>
      <trkpt lat="31.480407686904073" lon="-7.433061506599188">
        <ele>1427.21</ele>
        <time>2019-03-16T09:41:01Z</time>
      </trkpt>
      <trkpt lat="31.480513382703066" lon="-7.433036528527737">
        <ele>1427.21</ele>
        <time>2019-03-16T09:41:12Z</time>
      </trkpt>
      <trkpt lat="31.480638943612576" lon="-7.433033343404532">
        <ele>1426.25</ele>
        <time>2019-03-16T09:41:14Z</time>
      </trkpt>
      <trkpt lat="31.480770874768496" lon="-7.433037366718054">
        <ele>1426.73</ele>
        <time>2019-03-16T09:41:15Z</time>
      </trkpt>
      <trkpt lat="31.480906074866652" lon="-7.433030912652612">
        <ele>1426.73</ele>
        <time>2019-03-16T09:41:16Z</time>
      </trkpt>
      <trkpt lat="31.481041358783841" lon="-7.433007191866636">
        <ele>1426.25</ele>
        <time>2019-03-16T09:41:17Z</time>
      </trkpt>
      <trkpt lat="31.481168679893017" lon="-7.432965533807874">
        <ele>1425.77</ele>
        <time>2019-03-16T09:41:18Z</time>
      </trkpt>
      <trkpt lat="31.481489287689328" lon="-7.432806026190519">
        <ele>1425.29</ele>
        <time>2019-03-16T09:41:19Z</time>
      </trkpt>
      <trkpt lat="31.481615519151092" lon="-7.432744335383177">
        <ele>1424.8099999999999</ele>
        <time>2019-03-16T09:41:22Z</time>
      </trkpt>
      <trkpt lat="31.481656758114696" lon="-7.432717429473996">
        <ele>1424.3299999999999</ele>
        <time>2019-03-16T09:41:23Z</time>
      </trkpt>
      <trkpt lat="31.481751808896661" lon="-7.43265213444829">
        <ele>1423.8499999999999</ele>
        <time>2019-03-16T09:41:24Z</time>
      </trkpt>
      <trkpt lat="31.481805117800832" lon="-7.43262673728168">
        <ele>1423.3699999999999</ele>
        <time>2019-03-16T09:41:27Z</time>
      </trkpt>
      <trkpt lat="31.481943586841226" lon="-7.43256320245564">
        <ele>1423.3699999999999</ele>
        <time>2019-03-16T09:41:28Z</time>
      </trkpt>
      <trkpt lat="31.482024723663926" lon="-7.432507881894708">
        <ele>1422.4100000000001</ele>
        <time>2019-03-16T09:41:29Z</time>
      </trkpt>
      <trkpt lat="31.482105273753405" lon="-7.432436803355813">
        <ele>1421.9300000000001</ele>
        <time>2019-03-16T09:41:30Z</time>
      </trkpt>
      <trkpt lat="31.482184063643217" lon="-7.432346949353814">
        <ele>1421.45</ele>
        <time>2019-03-16T09:41:31Z</time>
      </trkpt>
      <trkpt lat="31.482257405295968" lon="-7.432239577174187">
        <ele>1420.97</ele>
        <time>2019-03-16T09:41:32Z</time>
      </trkpt>
      <trkpt lat="31.482322281226516" lon="-7.432120302692056">
        <ele>1420.49</ele>
        <time>2019-03-16T09:41:33Z</time>
      </trkpt>
      <trkpt lat="31.482383804395795" lon="-7.431994993239641">
        <ele>1420</ele>
        <time>2019-03-16T09:41:34Z</time>
      </trkpt>
      <trkpt lat="31.482508359476924" lon="-7.431751498952508">
        <ele>1419.04</ele>
        <time>2019-03-16T09:41:35Z</time>
      </trkpt>
      <trkpt lat="31.482582204043865" lon="-7.431653430685401">
        <ele>1419.04</ele>
        <time>2019-03-16T09:41:36Z</time>
      </trkpt>
      <trkpt lat="31.482671890407801" lon="-7.431576484814286">
        <ele>1418.5599999999999</ele>
        <time>2019-03-16T09:41:41Z</time>
      </trkpt>
      <trkpt lat="31.482776328921318" lon="-7.431518314406276">
        <ele>1418.5599999999999</ele>
        <time>2019-03-16T09:41:42Z</time>
      </trkpt>
      <trkpt lat="31.482895351946354" lon="-7.43147699162364">
        <ele>1418.5599999999999</ele>
        <time>2019-03-16T09:41:49Z</time>
      </trkpt>
      <trkpt lat="31.483020409941673" lon="-7.431447403505445">
        <ele>1418.0799999999999</ele>
        <time>2019-03-16T09:41:50Z</time>
      </trkpt>
      <trkpt lat="31.483391057699919" lon="-7.431403649970889">
        <ele>1418.0799999999999</ele>
        <time>2019-03-16T09:41:51Z</time>
      </trkpt>
      <trkpt lat="31.483511589467525" lon="-7.431429717689753">
        <ele>1419.52</ele>
        <time>2019-03-16T09:41:52Z</time>
      </trkpt>
      <trkpt lat="31.483630109578371" lon="-7.431481936946511">
        <ele>1421.9300000000001</ele>
        <time>2019-03-16T09:41:53Z</time>
      </trkpt>
      <trkpt lat="31.483924984931946" lon="-7.431630631908774">
        <ele>1421.9300000000001</ele>
        <time>2019-03-16T09:41:54Z</time>
      </trkpt>
      <trkpt lat="31.483983658254147" lon="-7.431640019640327">
        <ele>1422.8900000000001</ele>
        <time>2019-03-16T09:41:55Z</time>
      </trkpt>
      <trkpt lat="31.484193792566657" lon="-7.431661644950509">
        <ele>1422.8900000000001</ele>
        <time>2019-03-16T09:41:56Z</time>
      </trkpt>
      <trkpt lat="31.484284987673163" lon="-7.431659968569875">
        <ele>1422.8900000000001</ele>
        <time>2019-03-16T09:41:57Z</time>
      </trkpt>
      <trkpt lat="31.485119573771954" lon="-7.431655777618289">
        <ele>1422.8900000000001</ele>
        <time>2019-03-16T09:41:58Z</time>
      </trkpt>
      <trkpt lat="31.486185248941183" lon="-7.43185861967504">
        <ele>1423.3699999999999</ele>
        <time>2019-03-16T09:41:59Z</time>
      </trkpt>
      <trkpt lat="31.486272336915135" lon="-7.431873036548495">
        <ele>1423.3699999999999</ele>
        <time>2019-03-16T09:42:00Z</time>
      </trkpt>
      <trkpt lat="31.48643234744668" lon="-7.4318952485919">
        <ele>1423.3699999999999</ele>
        <time>2019-03-16T09:42:01Z</time>
      </trkpt>
      <trkpt lat="31.486503006890416" lon="-7.431919304654002">
        <ele>1423.3699999999999</ele>
        <time>2019-03-16T09:42:02Z</time>
      </trkpt>
      <trkpt lat="31.486564530059695" lon="-7.431960124522448">
        <ele>1425.29</ele>
        <time>2019-03-16T09:42:03Z</time>
      </trkpt>
      <trkpt lat="31.486614905297756" lon="-7.432013181969523">
        <ele>1425.77</ele>
        <time>2019-03-16T09:42:04Z</time>
      </trkpt>
      <trkpt lat="31.486657401546836" lon="-7.432081326842308">
        <ele>1426.73</ele>
        <time>2019-03-16T09:42:05Z</time>
      </trkpt>
      <trkpt lat="31.486694030463696" lon="-7.43215860798955">
        <ele>1427.21</ele>
        <time>2019-03-16T09:42:06Z</time>
      </trkpt>
      <trkpt lat="31.486728060990572" lon="-7.432241337373853">
        <ele>1427.7</ele>
        <time>2019-03-16T09:42:12Z</time>
      </trkpt>
      <trkpt lat="31.486761253327131" lon="-7.43233110755682">
        <ele>1428.6600000000001</ele>
        <time>2019-03-16T09:42:13Z</time>
      </trkpt>
      <trkpt lat="31.487066270783544" lon="-7.433517817407847">
        <ele>1433.9400000000001</ele>
        <time>2019-03-16T09:42:14Z</time>
      </trkpt>
      <trkpt lat="31.487115053460002" lon="-7.433630302548409">
        <ele>1434.9100000000001</ele>
        <time>2019-03-16T09:42:20Z</time>
      </trkpt>
      <trkpt lat="31.487177247181535" lon="-7.43373004719615">
        <ele>1435.3900000000001</ele>
        <time>2019-03-16T09:42:21Z</time>
      </trkpt>
      <trkpt lat="31.487257210537791" lon="-7.433809507638216">
        <ele>1436.3499999999999</ele>
        <time>2019-03-16T09:42:22Z</time>
      </trkpt>
      <trkpt lat="31.487351004034281" lon="-7.433870108798146">
        <ele>1436.8299999999999</ele>
        <time>2019-03-16T09:42:23Z</time>
      </trkpt>
      <trkpt lat="31.487448820844293" lon="-7.433920903131366">
        <ele>1437.3099999999999</ele>
        <time>2019-03-16T09:42:24Z</time>
      </trkpt>
      <trkpt lat="31.488044187426567" lon="-7.434374783188105">
        <ele>1437.79</ele>
        <time>2019-03-16T09:42:25Z</time>
      </trkpt>
      <trkpt lat="31.488109733909369" lon="-7.434457428753376">
        <ele>1443.0799999999999</ele>
        <time>2019-03-16T09:42:27Z</time>
      </trkpt>
      <trkpt lat="31.488165808841586" lon="-7.434553066268563">
        <ele>1444.04</ele>
        <time>2019-03-16T09:42:28Z</time>
      </trkpt>
      <trkpt lat="31.488207215443254" lon="-7.434662198647857">
        <ele>1445</ele>
        <time>2019-03-16T09:42:29Z</time>
      </trkpt>
      <trkpt lat="31.48823537863791" lon="-7.434779377654195">
        <ele>1445.96</ele>
        <time>2019-03-16T09:42:35Z</time>
      </trkpt>
      <trkpt lat="31.488254237920046" lon="-7.434897478669882">
        <ele>1446.9200000000001</ele>
        <time>2019-03-16T09:42:36Z</time>
      </trkpt>
      <trkpt lat="31.488270917907357" lon="-7.435014741495252">
        <ele>1449.3199999999999</ele>
        <time>2019-03-16T09:42:37Z</time>
      </trkpt>
      <trkpt lat="31.488427575677633" lon="-7.435893248766661">
        <ele>1449.8099999999999</ele>
        <time>2019-03-16T09:42:38Z</time>
      </trkpt>
      <trkpt lat="31.488476693630219" lon="-7.435985868796706">
        <ele>1450.29</ele>
        <time>2019-03-16T09:42:39Z</time>
      </trkpt>
      <trkpt lat="31.488540731370449" lon="-7.43606960400939">
        <ele>1450.77</ele>
        <time>2019-03-16T09:42:44Z</time>
      </trkpt>
      <trkpt lat="31.488612983375788" lon="-7.436146382242441">
        <ele>1451.73</ele>
        <time>2019-03-16T09:42:45Z</time>
      </trkpt>
      <trkpt lat="31.488688001409173" lon="-7.436220142990351">
        <ele>1452.21</ele>
        <time>2019-03-16T09:42:46Z</time>
      </trkpt>
      <trkpt lat="31.488896794617176" lon="-7.436462128534913">
        <ele>1452.6900000000001</ele>
        <time>2019-03-16T09:42:47Z</time>
      </trkpt>
      <trkpt lat="31.488954881206155" lon="-7.436560448259115">
        <ele>1453.1700000000001</ele>
        <time>2019-03-16T09:42:48Z</time>
      </trkpt>
      <trkpt lat="31.489004334434867" lon="-7.436673184856772">
        <ele>1455.0899999999999</ele>
        <time>2019-03-16T09:42:49Z</time>
      </trkpt>
      <trkpt lat="31.489105420187116" lon="-7.436902262270451">
        <ele>1455.5699999999999</ele>
        <time>2019-03-16T09:42:50Z</time>
      </trkpt>
      <trkpt lat="31.489176163449883" lon="-7.437005611136556">
        <ele>1456.05</ele>
        <time>2019-03-16T09:42:51Z</time>
      </trkpt>
      <trkpt lat="31.489262832328677" lon="-7.437096554785967">
        <ele>1456.05</ele>
        <time>2019-03-16T09:42:56Z</time>
      </trkpt>
      <trkpt lat="31.489355200901628" lon="-7.437174925580621">
        <ele>1456.53</ele>
        <time>2019-03-16T09:42:57Z</time>
      </trkpt>
      <trkpt lat="31.489449497312307" lon="-7.437250446528196">
        <ele>1456.53</ele>
        <time>2019-03-16T09:42:58Z</time>
      </trkpt>
      <trkpt lat="31.489703888073564" lon="-7.437481451779604">
        <ele>1457.5</ele>
        <time>2019-03-16T09:42:59Z</time>
      </trkpt>
      <trkpt lat="31.489769015461206" lon="-7.437580274417996">
        <ele>1456.05</ele>
        <time>2019-03-16T09:43:00Z</time>
      </trkpt>
      <trkpt lat="31.489814277738333" lon="-7.437692424282432">
        <ele>1455.5699999999999</ele>
        <time>2019-03-16T09:43:01Z</time>
      </trkpt>
      <trkpt lat="31.489836489781737" lon="-7.437815219163895">
        <ele>1454.6099999999999</ele>
        <time>2019-03-16T09:43:02Z</time>
      </trkpt>
      <trkpt lat="31.489840429276228" lon="-7.437946647405624">
        <ele>1454.1300000000001</ele>
        <time>2019-03-16T09:43:03Z</time>
      </trkpt>
      <trkpt lat="31.489840680733323" lon="-7.438080925494432">
        <ele>1453.1700000000001</ele>
        <time>2019-03-16T09:43:04Z</time>
      </trkpt>
      <trkpt lat="31.48974428884685" lon="-7.439454467967153">
        <ele>1452.21</ele>
        <time>2019-03-16T09:43:05Z</time>
      </trkpt>
      <trkpt lat="31.489688046276569" lon="-7.439689580351114">
        <ele>1449.8099999999999</ele>
        <time>2019-03-16T09:43:09Z</time>
      </trkpt>
      <trkpt lat="31.489638593047857" lon="-7.439792091026902">
        <ele>1449.3199999999999</ele>
        <time>2019-03-16T09:43:10Z</time>
      </trkpt>
      <trkpt lat="31.489572711288929" lon="-7.439885549247265">
        <ele>1448.8399999999999</ele>
        <time>2019-03-16T09:43:11Z</time>
      </trkpt>
      <trkpt lat="31.48948822170496" lon="-7.439966518431902">
        <ele>1446.4400000000001</ele>
        <time>2019-03-16T09:43:12Z</time>
      </trkpt>
      <trkpt lat="31.489384956657887" lon="-7.440034914761782">
        <ele>1445.48</ele>
        <time>2019-03-16T09:43:13Z</time>
      </trkpt>
      <trkpt lat="31.489271549507976" lon="-7.440098784863949">
        <ele>1444.52</ele>
        <time>2019-03-16T09:43:14Z</time>
      </trkpt>
      <trkpt lat="31.488935770466924" lon="-7.4403206538409">
        <ele>1443.5599999999999</ele>
        <time>2019-03-16T09:43:23Z</time>
      </trkpt>
      <trkpt lat="31.488840132951736" lon="-7.440422410145402">
        <ele>1442.1099999999999</ele>
        <time>2019-03-16T09:43:29Z</time>
      </trkpt>
      <trkpt lat="31.488755894824862" lon="-7.440538080409169">
        <ele>1441.1500000000001</ele>
        <time>2019-03-16T09:43:30Z</time>
      </trkpt>
      <trkpt lat="31.488541569560766" lon="-7.440893724560738">
        <ele>1440.1900000000001</ele>
        <time>2019-03-16T09:43:31Z</time>
      </trkpt>
      <trkpt lat="31.48850753903389" lon="-7.441005371510983">
        <ele>1439.23</ele>
        <time>2019-03-16T09:43:34Z</time>
      </trkpt>
      <trkpt lat="31.488508628681302" lon="-7.441119281575084">
        <ele>1438.75</ele>
        <time>2019-03-16T09:43:35Z</time>
      </trkpt>
      <trkpt lat="31.488542994484305" lon="-7.441240567713976">
        <ele>1437.79</ele>
        <time>2019-03-16T09:43:36Z</time>
      </trkpt>
      <trkpt lat="31.488595884293318" lon="-7.441367553547025">
        <ele>1432.98</ele>
        <time>2019-03-16T09:43:37Z</time>
      </trkpt>
      <trkpt lat="31.488647013902664" lon="-7.441497975960374">
        <ele>1432.02</ele>
        <time>2019-03-16T09:43:38Z</time>
      </trkpt>
      <trkpt lat="31.488683559000492" lon="-7.441635020077229">
        <ele>1425.29</ele>
        <time>2019-03-16T09:43:41Z</time>
      </trkpt>
      <trkpt lat="31.488700825721025" lon="-7.441780110821128">
        <ele>1423.8499999999999</ele>
        <time>2019-03-16T09:43:42Z</time>
      </trkpt>
      <trkpt lat="31.488703759387136" lon="-7.441931823268533">
        <ele>1422.8900000000001</ele>
        <time>2019-03-16T09:43:43Z</time>
      </trkpt>
      <trkpt lat="31.488703172653913" lon="-7.442086134105921">
        <ele>1421.9300000000001</ele>
        <time>2019-03-16T09:43:51Z</time>
      </trkpt>
      <trkpt lat="31.488661514595151" lon="-7.442874535918236">
        <ele>1420.49</ele>
        <time>2019-03-16T09:43:56Z</time>
      </trkpt>
      <trkpt lat="31.488629495725036" lon="-7.443021135404706">
        <ele>1420</ele>
        <time>2019-03-16T09:43:57Z</time>
      </trkpt>
      <trkpt lat="31.488352222368121" lon="-7.443989329040051">
        <ele>1419.04</ele>
        <time>2019-03-16T09:43:58Z</time>
      </trkpt>
      <trkpt lat="31.488288100808859" lon="-7.444114219397306">
        <ele>1418.0799999999999</ele>
        <time>2019-03-16T09:44:04Z</time>
      </trkpt>
      <trkpt lat="31.48821190930903" lon="-7.444223267957568">
        <ele>1417.1199999999999</ele>
        <time>2019-03-16T09:44:05Z</time>
      </trkpt>
      <trkpt lat="31.488142004236579" lon="-7.44432594627142">
        <ele>1416.1600000000001</ele>
        <time>2019-03-16T09:44:10Z</time>
      </trkpt>
      <trkpt lat="31.488089868798852" lon="-7.444431893527508">
        <ele>1415.2</ele>
        <time>2019-03-16T09:44:11Z</time>
      </trkpt>
      <trkpt lat="31.488061370328069" lon="-7.444545887410641">
        <ele>1414.24</ele>
        <time>2019-03-16T09:44:18Z</time>
      </trkpt>
      <trkpt lat="31.488051312044263" lon="-7.444665916264057">
        <ele>1413.28</ele>
        <time>2019-03-16T09:44:25Z</time>
      </trkpt>
      <trkpt lat="31.488045109435916" lon="-7.444786448031664">
        <ele>1412.3099999999999</ele>
        <time>2019-03-16T09:44:26Z</time>
      </trkpt>
      <trkpt lat="31.488030776381493" lon="-7.444901950657368">
        <ele>1411.3499999999999</ele>
        <time>2019-03-16T09:44:27Z</time>
      </trkpt>
      <trkpt lat="31.48799691349268" lon="-7.445005299523473">
        <ele>1410.3900000000001</ele>
        <time>2019-03-16T09:44:36Z</time>
      </trkpt>
      <trkpt lat="31.487939162179828" lon="-7.445096159353852">
        <ele>1409.9100000000001</ele>
        <time>2019-03-16T09:44:46Z</time>
      </trkpt>
      <trkpt lat="31.487859366461635" lon="-7.445178553462029">
        <ele>1408.95</ele>
        <time>2019-03-16T09:44:56Z</time>
      </trkpt>
      <trkpt lat="31.487767333164811" lon="-7.445261618122459">
        <ele>1403.1800000000001</ele>
        <time>2019-03-16T09:45:00Z</time>
      </trkpt>
      <trkpt lat="31.487679993733764" lon="-7.445352058857679">
        <ele>1402.22</ele>
        <time>2019-03-16T09:45:01Z</time>
      </trkpt>
      <trkpt lat="31.487604221329093" lon="-7.445455742999911">
        <ele>1401.26</ele>
        <time>2019-03-16T09:45:02Z</time>
      </trkpt>
      <trkpt lat="31.487541859969497" lon="-7.445574179291725">
        <ele>1394.53</ele>
        <time>2019-03-16T09:45:03Z</time>
      </trkpt>
      <trkpt lat="31.487485785037279" lon="-7.445704517886043">
        <ele>1393.5699999999999</ele>
        <time>2019-03-16T09:45:04Z</time>
      </trkpt>
      <trkpt lat="31.487430883571506" lon="-7.445839969441295">
        <ele>1393.0899999999999</ele>
        <time>2019-03-16T09:45:08Z</time>
      </trkpt>
      <trkpt lat="31.487081022933125" lon="-7.446639519184828">
        <ele>1392.1300000000001</ele>
        <time>2019-03-16T09:45:09Z</time>
      </trkpt>
      <trkpt lat="31.486995862796903" lon="-7.44675200432539">
        <ele>1391.1700000000001</ele>
        <time>2019-03-16T09:45:10Z</time>
      </trkpt>
      <trkpt lat="31.486897962167859" lon="-7.446857951581478">
        <ele>1390.2</ele>
        <time>2019-03-16T09:45:11Z</time>
      </trkpt>
      <trkpt lat="31.486312402412295" lon="-7.447464466094971">
        <ele>1387.8</ele>
        <time>2019-03-16T09:45:12Z</time>
      </trkpt>
      <trkpt lat="31.486243670806289" lon="-7.44757535867393">
        <ele>1386.3599999999999</ele>
        <time>2019-03-16T09:45:14Z</time>
      </trkpt>
      <trkpt lat="31.486188769340515" lon="-7.447697063907981">
        <ele>1385.4000000000001</ele>
        <time>2019-03-16T09:45:15Z</time>
      </trkpt>
      <trkpt lat="31.486147865653038" lon="-7.44783041998744">
        <ele>1380.1099999999999</ele>
        <time>2019-03-16T09:45:16Z</time>
      </trkpt>
      <trkpt lat="31.486117523163557" lon="-7.447972577065229">
        <ele>1379.6300000000001</ele>
        <time>2019-03-16T09:45:17Z</time>
      </trkpt>
      <trkpt lat="31.486091036349535" lon="-7.44811624288559">
        <ele>1378.6700000000001</ele>
        <time>2019-03-16T09:45:18Z</time>
      </trkpt>
      <trkpt lat="31.486032446846366" lon="-7.448411034420133">
        <ele>1377.71</ele>
        <time>2019-03-16T09:45:21Z</time>
      </trkpt>
      <trkpt lat="31.485986094921827" lon="-7.448553694412112">
        <ele>1376.75</ele>
        <time>2019-03-16T09:45:22Z</time>
      </trkpt>
      <trkpt lat="31.485923230648041" lon="-7.448688307777047">
        <ele>1372.4200000000001</ele>
        <time>2019-03-16T09:45:23Z</time>
      </trkpt>
      <trkpt lat="31.485513271763921" lon="-7.449310077354312">
        <ele>1371.9400000000001</ele>
        <time>2019-03-16T09:45:24Z</time>
      </trkpt>
      <trkpt lat="31.485423669219017" lon="-7.449387107044458">
        <ele>1370.98</ele>
        <time>2019-03-16T09:45:25Z</time>
      </trkpt>
      <trkpt lat="31.48531780578196" lon="-7.449453240260482">
        <ele>1370.5</ele>
        <time>2019-03-16T09:45:26Z</time>
      </trkpt>
      <trkpt lat="31.485203560441732" lon="-7.449509734287858">
        <ele>1369.54</ele>
        <time>2019-03-16T09:45:27Z</time>
      </trkpt>
      <trkpt lat="31.485085794702172" lon="-7.449560109525919">
        <ele>1369.05</ele>
        <time>2019-03-16T09:45:30Z</time>
      </trkpt>
      <trkpt lat="31.484622023999691" lon="-7.449791366234422">
        <ele>1368.0899999999999</ele>
        <time>2019-03-16T09:45:31Z</time>
      </trkpt>
      <trkpt lat="31.484555890783668" lon="-7.449857415631414">
        <ele>1367.1300000000001</ele>
        <time>2019-03-16T09:45:42Z</time>
      </trkpt>
      <trkpt lat="31.484504090622067" lon="-7.449936792254448">
        <ele>1363.77</ele>
        <time>2019-03-16T09:45:45Z</time>
      </trkpt>
      <trkpt lat="31.484458325430751" lon="-7.450031004846096">
        <ele>1363.29</ele>
        <time>2019-03-16T09:45:46Z</time>
      </trkpt>
      <trkpt lat="31.484417757019401" lon="-7.450135108083487">
        <ele>1362.8099999999999</ele>
        <time>2019-03-16T09:45:47Z</time>
      </trkpt>
      <trkpt lat="31.484390515834093" lon="-7.450250945985317">
        <ele>1362.3299999999999</ele>
        <time>2019-03-16T09:45:48Z</time>
      </trkpt>
      <trkpt lat="31.484377440065145" lon="-7.450379272922874">
        <ele>1361.8399999999999</ele>
        <time>2019-03-16T09:45:49Z</time>
      </trkpt>
      <trkpt lat="31.484373332932591" lon="-7.450514975935221">
        <ele>1360.8800000000001</ele>
        <time>2019-03-16T09:45:50Z</time>
      </trkpt>
      <trkpt lat="31.484368806704879" lon="-7.4511325545609">
        <ele>1359.9200000000001</ele>
        <time>2019-03-16T09:45:56Z</time>
      </trkpt>
      <trkpt lat="31.484393868595362" lon="-7.451208243146539">
        <ele>1358.96</ele>
        <time>2019-03-16T09:45:57Z</time>
      </trkpt>
      <trkpt lat="31.484436532482505" lon="-7.451269011944532">
        <ele>1358.48</ele>
        <time>2019-03-16T09:45:58Z</time>
      </trkpt>
      <trkpt lat="31.48449495434761" lon="-7.451309747993946">
        <ele>1358</ele>
        <time>2019-03-16T09:45:59Z</time>
      </trkpt>
      <trkpt lat="31.484566535800695" lon="-7.451328858733177">
        <ele>1356.5599999999999</ele>
        <time>2019-03-16T09:46:00Z</time>
      </trkpt>
      <trkpt lat="31.48464297875762" lon="-7.451320979744196">
        <ele>1356.0799999999999</ele>
        <time>2019-03-16T09:46:01Z</time>
      </trkpt>
      <trkpt lat="31.484712632372975" lon="-7.451281500980258">
        <ele>1355.5999999999999</ele>
        <time>2019-03-16T09:46:12Z</time>
      </trkpt>
      <trkpt lat="31.484772562980652" lon="-7.451218804344535">
        <ele>1354.6300000000001</ele>
        <time>2019-03-16T09:46:15Z</time>
      </trkpt>
      <trkpt lat="31.484826290979981" lon="-7.451142277568579">
        <ele>1354.1500000000001</ele>
        <time>2019-03-16T09:46:16Z</time>
      </trkpt>
      <trkpt lat="31.484879935160279" lon="-7.451052842661738">
        <ele>1353.1900000000001</ele>
        <time>2019-03-16T09:46:17Z</time>
      </trkpt>
      <trkpt lat="31.485141785815358" lon="-7.450658557936549">
        <ele>1346.9400000000001</ele>
        <time>2019-03-16T09:46:18Z</time>
      </trkpt>
      <trkpt lat="31.485225856304169" lon="-7.450587982311845">
        <ele>1342.1400000000001</ele>
        <time>2019-03-16T09:46:19Z</time>
      </trkpt>
      <trkpt lat="31.48531780578196" lon="-7.450546827167273">
        <ele>1341.1800000000001</ele>
        <time>2019-03-16T09:46:20Z</time>
      </trkpt>
      <trkpt lat="31.485415622591972" lon="-7.450537271797657">
        <ele>1340.22</ele>
        <time>2019-03-16T09:46:32Z</time>
      </trkpt>
      <trkpt lat="31.485519055277109" lon="-7.45055453851819">
        <ele>1337.3299999999999</ele>
        <time>2019-03-16T09:46:33Z</time>
      </trkpt>
      <trkpt lat="31.485630786046386" lon="-7.450588485226035">
        <ele>1336.3699999999999</ele>
        <time>2019-03-16T09:46:34Z</time>
      </trkpt>
      <trkpt lat="31.486854543909431" lon="-7.450882187113166">
        <ele>1335.8900000000001</ele>
        <time>2019-03-16T09:46:35Z</time>
      </trkpt>
      <trkpt lat="31.487702121958137" lon="-7.450875649228692">
        <ele>1334.9300000000001</ele>
        <time>2019-03-16T09:46:36Z</time>
      </trkpt>
      <trkpt lat="31.487832292914391" lon="-7.450908171012998">
        <ele>1333.97</ele>
        <time>2019-03-16T09:46:37Z</time>
      </trkpt>
      <trkpt lat="31.487961709499359" lon="-7.450959300622344">
        <ele>1331.0799999999999</ele>
        <time>2019-03-16T09:46:38Z</time>
      </trkpt>
      <trkpt lat="31.48831794038415" lon="-7.451089052483439">
        <ele>1330.5999999999999</ele>
        <time>2019-03-16T09:46:39Z</time>
      </trkpt>
      <trkpt lat="31.488427743315697" lon="-7.451087459921837">
        <ele>1329.6400000000001</ele>
        <time>2019-03-16T09:46:40Z</time>
      </trkpt>
      <trkpt lat="31.488535702228546" lon="-7.451061811298132">
        <ele>1323.3900000000001</ele>
        <time>2019-03-16T09:46:53Z</time>
      </trkpt>
      <trkpt lat="31.488644164055586" lon="-7.451021578162909">
        <ele>1319.0699999999999</ele>
        <time>2019-03-16T09:46:54Z</time>
      </trkpt>
      <trkpt lat="31.488757487386465" lon="-7.450977908447385">
        <ele>1318.0999999999999</ele>
        <time>2019-03-16T09:46:55Z</time>
      </trkpt>
      <trkpt lat="31.489103911444545" lon="-7.450904818251729">
        <ele>1317.1400000000001</ele>
        <time>2019-03-16T09:46:56Z</time>
      </trkpt>
      <trkpt lat="31.489216312766075" lon="-7.450915798544884">
        <ele>1312.3399999999999</ele>
        <time>2019-03-16T09:46:57Z</time>
      </trkpt>
      <trkpt lat="31.48933039046824" lon="-7.450939351692796">
        <ele>1311.3800000000001</ele>
        <time>2019-03-16T09:46:58Z</time>
      </trkpt>
      <trkpt lat="31.4903858397156" lon="-7.451149737462401">
        <ele>1307.53</ele>
        <time>2019-03-16T09:47:14Z</time>
      </trkpt>
      <trkpt lat="31.49102789349854" lon="-7.451316872611642">
        <ele>1306.5699999999999</ele>
        <time>2019-03-16T09:47:25Z</time>
      </trkpt>
      <trkpt lat="31.491139959543943" lon="-7.451373869553208">
        <ele>1301.28</ele>
        <time>2019-03-16T09:47:26Z</time>
      </trkpt>
      <trkpt lat="31.491247080266476" lon="-7.451447378844023">
        <ele>1294.55</ele>
        <time>2019-03-16T09:47:27Z</time>
      </trkpt>
      <trkpt lat="31.491906568408012" lon="-7.451955322176218">
        <ele>1293.5899999999999</ele>
        <time>2019-03-16T09:47:28Z</time>
      </trkpt>
      <trkpt lat="31.492030704393983" lon="-7.452018354088068">
        <ele>1292.1500000000001</ele>
        <time>2019-03-16T09:47:29Z</time>
      </trkpt>
      <trkpt lat="31.492657167837024" lon="-7.452264279127121">
        <ele>1282.0599999999999</ele>
        <time>2019-03-16T09:47:35Z</time>
      </trkpt>
      <trkpt lat="31.492776526138186" lon="-7.452333094552159">
        <ele>1270.52</ele>
        <time>2019-03-16T09:47:36Z</time>
      </trkpt>
      <trkpt lat="31.493620751425624" lon="-7.452963162213564">
        <ele>1260.4300000000001</ele>
        <time>2019-03-16T09:47:37Z</time>
      </trkpt>
      <trkpt lat="31.4943110011518" lon="-7.453737650066614">
        <ele>1257.0599999999999</ele>
        <time>2019-03-16T09:47:38Z</time>
      </trkpt>
      <trkpt lat="31.494391467422247" lon="-7.453874442726374">
        <ele>1256.5799999999999</ele>
        <time>2019-03-16T09:47:39Z</time>
      </trkpt>
      <trkpt lat="31.494461791589856" lon="-7.454027999192476">
        <ele>1255.6199999999999</ele>
        <time>2019-03-16T09:47:40Z</time>
      </trkpt>
      <trkpt lat="31.49506981484592" lon="-7.455206997692585">
        <ele>1255.1400000000001</ele>
        <time>2019-03-16T09:47:41Z</time>
      </trkpt>
      <trkpt lat="31.495647663250566" lon="-7.456732671707869">
        <ele>1254.1800000000001</ele>
        <time>2019-03-16T09:47:49Z</time>
      </trkpt>
      <trkpt lat="31.496052928268909" lon="-7.458267733454704">
        <ele>1251.29</ele>
        <time>2019-03-16T09:47:50Z</time>
      </trkpt>
      <trkpt lat="31.496274378150702" lon="-7.458873158320785">
        <ele>1250.8099999999999</ele>
        <time>2019-03-16T09:47:51Z</time>
      </trkpt>
      <trkpt lat="31.496308324858546" lon="-7.459032498300076">
        <ele>1250.3299999999999</ele>
        <time>2019-03-16T09:47:52Z</time>
      </trkpt>
      <trkpt lat="31.496326429769397" lon="-7.459201645106077">
        <ele>1249.8499999999999</ele>
        <time>2019-03-16T09:47:53Z</time>
      </trkpt>
      <trkpt lat="31.496330033987761" lon="-7.459377329796553">
        <ele>1249.3699999999999</ele>
        <time>2019-03-16T09:47:54Z</time>
      </trkpt>
      <trkpt lat="31.496329195797443" lon="-7.459548320621252">
        <ele>1248.4100000000001</ele>
        <time>2019-03-16T09:47:55Z</time>
      </trkpt>
      <trkpt lat="31.496317042037845" lon="-7.460030866786838">
        <ele>1247.9300000000001</ele>
        <time>2019-03-16T09:47:56Z</time>
      </trkpt>
      <trkpt lat="31.496290555223823" lon="-7.460123067721725">
        <ele>1247.45</ele>
        <time>2019-03-16T09:47:57Z</time>
      </trkpt>
      <trkpt lat="31.496246801689267" lon="-7.460214849561453">
        <ele>1246.97</ele>
        <time>2019-03-16T09:47:58Z</time>
      </trkpt>
      <trkpt lat="31.496189218014479" lon="-7.460301937535405">
        <ele>1246.01</ele>
        <time>2019-03-16T09:47:59Z</time>
      </trkpt>
      <trkpt lat="31.496125599369407" lon="-7.460389528423548">
        <ele>1243.5999999999999</ele>
        <time>2019-03-16T09:48:00Z</time>
      </trkpt>
      <trkpt lat="31.496014790609479" lon="-7.46057191863656">
        <ele>1243.1199999999999</ele>
        <time>2019-03-16T09:48:01Z</time>
      </trkpt>
      <trkpt lat="31.495979754254222" lon="-7.460669483989477">
        <ele>1242.6400000000001</ele>
        <time>2019-03-16T09:48:02Z</time>
      </trkpt>
      <trkpt lat="31.495958464220166" lon="-7.460774509236217">
        <ele>1242.6400000000001</ele>
        <time>2019-03-16T09:48:13Z</time>
      </trkpt>
      <trkpt lat="31.495947064831853" lon="-7.460887832567096">
        <ele>1242.6400000000001</ele>
        <time>2019-03-16T09:48:14Z</time>
      </trkpt>
      <trkpt lat="31.495938012376428" lon="-7.461004592478275">
        <ele>1242.6400000000001</ele>
        <time>2019-03-16T09:48:15Z</time>
      </trkpt>
      <trkpt lat="31.495942957699299" lon="-7.461367696523666">
        <ele>1242.6400000000001</ele>
        <time>2019-03-16T09:48:16Z</time>
      </trkpt>
      <trkpt lat="31.495973970741034" lon="-7.461484037339687">
        <ele>1242.1600000000001</ele>
        <time>2019-03-16T09:48:17Z</time>
      </trkpt>
      <trkpt lat="31.496019568294287" lon="-7.461591912433505">
        <ele>1242.6400000000001</ele>
        <time>2019-03-16T09:48:18Z</time>
      </trkpt>
      <trkpt lat="31.496083941310644" lon="-7.461688723415136">
        <ele>1240.24</ele>
        <time>2019-03-16T09:48:19Z</time>
      </trkpt>
      <trkpt lat="31.496164407581091" lon="-7.461772123351693">
        <ele>1240.24</ele>
        <time>2019-03-16T09:48:20Z</time>
      </trkpt>
      <trkpt lat="31.496255351230502" lon="-7.46184035204351">
        <ele>1240.24</ele>
        <time>2019-03-16T09:48:21Z</time>
      </trkpt>
      <trkpt lat="31.496350569650531" lon="-7.461897097527981">
        <ele>1240.24</ele>
        <time>2019-03-16T09:48:22Z</time>
      </trkpt>
      <trkpt lat="31.496636224910617" lon="-7.462121061980724">
        <ele>1239.76</ele>
        <time>2019-03-16T09:48:23Z</time>
      </trkpt>
      <trkpt lat="31.496724989265203" lon="-7.462215777486563">
        <ele>1239.28</ele>
        <time>2019-03-16T09:48:24Z</time>
      </trkpt>
      <trkpt lat="31.497773062437773" lon="-7.463327553123236">
        <ele>1238.8</ele>
        <time>2019-03-16T09:48:25Z</time>
      </trkpt>
      <trkpt lat="31.498085791245103" lon="-7.463530646637082">
        <ele>1235.9100000000001</ele>
        <time>2019-03-16T09:48:26Z</time>
      </trkpt>
      <trkpt lat="31.498197186738253" lon="-7.463552355766296">
        <ele>1235.9100000000001</ele>
        <time>2019-03-16T09:48:39Z</time>
      </trkpt>
      <trkpt lat="31.498312102630734" lon="-7.463546404615045">
        <ele>1234.95</ele>
        <time>2019-03-16T09:48:43Z</time>
      </trkpt>
      <trkpt lat="31.498424839228392" lon="-7.463515643030405">
        <ele>1234.47</ele>
        <time>2019-03-16T09:48:44Z</time>
      </trkpt>
      <trkpt lat="31.498534055426717" lon="-7.463464681059122">
        <ele>1233.51</ele>
        <time>2019-03-16T09:48:52Z</time>
      </trkpt>
      <trkpt lat="31.498644445091486" lon="-7.463402068242431">
        <ele>1232.55</ele>
        <time>2019-03-16T09:48:53Z</time>
      </trkpt>
      <trkpt lat="31.499297646805644" lon="-7.463029492646456">
        <ele>1222.9300000000001</ele>
        <time>2019-03-16T09:48:54Z</time>
      </trkpt>
      <trkpt lat="31.499395715072751" lon="-7.46302236802876">
        <ele>1220.05</ele>
        <time>2019-03-16T09:48:55Z</time>
      </trkpt>
      <trkpt lat="31.499495292082429" lon="-7.463043658062816">
        <ele>1219.0899999999999</ele>
        <time>2019-03-16T09:48:56Z</time>
      </trkpt>
      <trkpt lat="31.499594617635012" lon="-7.463092356920242">
        <ele>1218.1300000000001</ele>
        <time>2019-03-16T09:48:57Z</time>
      </trkpt>
      <trkpt lat="31.499698469415307" lon="-7.463160501793027">
        <ele>1217.1700000000001</ele>
        <time>2019-03-16T09:49:03Z</time>
      </trkpt>
      <trkpt lat="31.499806260690093" lon="-7.463242560625076">
        <ele>1216.21</ele>
        <time>2019-03-16T09:49:04Z</time>
      </trkpt>
      <trkpt lat="31.501121465116739" lon="-7.464291388168931">
        <ele>1214.76</ele>
        <time>2019-03-16T09:49:05Z</time>
      </trkpt>
      <trkpt lat="31.501513989642262" lon="-7.46445793658495">
        <ele>1203.71</ele>
        <time>2019-03-16T09:49:06Z</time>
      </trkpt>
      <trkpt lat="31.501641813665628" lon="-7.464472437277436">
        <ele>1202.75</ele>
        <time>2019-03-16T09:49:07Z</time>
      </trkpt>
      <trkpt lat="31.501768380403519" lon="-7.464462043717504">
        <ele>1201.79</ele>
        <time>2019-03-16T09:49:08Z</time>
      </trkpt>
      <trkpt lat="31.501889666542411" lon="-7.46442373842001">
        <ele>1201.3</ele>
        <time>2019-03-16T09:49:12Z</time>
      </trkpt>
      <trkpt lat="31.502011707052588" lon="-7.464366238564253">
        <ele>1199.8599999999999</ele>
        <time>2019-03-16T09:49:13Z</time>
      </trkpt>
      <trkpt lat="31.502141207456589" lon="-7.464302368462086">
        <ele>1199.3800000000001</ele>
        <time>2019-03-16T09:49:18Z</time>
      </trkpt>
      <trkpt lat="31.503629079088569" lon="-7.463632822036743">
        <ele>1198.4200000000001</ele>
        <time>2019-03-16T09:49:19Z</time>
      </trkpt>
      <trkpt lat="31.503747347742319" lon="-7.463618321344256">
        <ele>1197.46</ele>
        <time>2019-03-16T09:49:20Z</time>
      </trkpt>
      <trkpt lat="31.50387299247086" lon="-7.463621841743588">
        <ele>1196.02</ele>
        <time>2019-03-16T09:49:26Z</time>
      </trkpt>
      <trkpt lat="31.504005594179034" lon="-7.46364489197731">
        <ele>1183.52</ele>
        <time>2019-03-16T09:49:27Z</time>
      </trkpt>
      <trkpt lat="31.504140710458159" lon="-7.463691243901849">
        <ele>1182.5599999999999</ele>
        <time>2019-03-16T09:49:32Z</time>
      </trkpt>
      <trkpt lat="31.504267947748303" lon="-7.46376165188849">
        <ele>1181.5999999999999</ele>
        <time>2019-03-16T09:49:33Z</time>
      </trkpt>
      <trkpt lat="31.504378840327263" lon="-7.463857708498836">
        <ele>1180.6400000000001</ele>
        <time>2019-03-16T09:49:34Z</time>
      </trkpt>
      <trkpt lat="31.504473891109228" lon="-7.463969020172954">
        <ele>1179.6700000000001</ele>
        <time>2019-03-16T09:49:35Z</time>
      </trkpt>
      <trkpt lat="31.504562571644783" lon="-7.464085025712848">
        <ele>1178.71</ele>
        <time>2019-03-16T09:49:36Z</time>
      </trkpt>
      <trkpt lat="31.505651213228703" lon="-7.465449431911111">
        <ele>1165.74</ele>
        <time>2019-03-16T09:49:37Z</time>
      </trkpt>
      <trkpt lat="31.505744336172938" lon="-7.465517995879054">
        <ele>1156.1199999999999</ele>
        <time>2019-03-16T09:49:38Z</time>
      </trkpt>
      <trkpt lat="31.505844164639711" lon="-7.465576082468033">
        <ele>1154.6800000000001</ele>
        <time>2019-03-16T09:49:39Z</time>
      </trkpt>
      <trkpt lat="31.505950782448053" lon="-7.465624194592238">
        <ele>1153.72</ele>
        <time>2019-03-16T09:49:40Z</time>
      </trkpt>
      <trkpt lat="31.506059244275093" lon="-7.465663673356175">
        <ele>1152.28</ele>
        <time>2019-03-16T09:49:41Z</time>
      </trkpt>
      <trkpt lat="31.506168125197291" lon="-7.465696949511766">
        <ele>1151.3199999999999</ele>
        <time>2019-03-16T09:49:52Z</time>
      </trkpt>
      <trkpt lat="31.50792664848268" lon="-7.466289047151804">
        <ele>1145.0699999999999</ele>
        <time>2019-03-16T09:49:55Z</time>
      </trkpt>
      <trkpt lat="31.509355427697301" lon="-7.466826997697353">
        <ele>1144.1099999999999</ele>
        <time>2019-03-16T09:49:56Z</time>
      </trkpt>
      <trkpt lat="31.509492052718997" lon="-7.466930933296681">
        <ele>1143.6300000000001</ele>
        <time>2019-03-16T09:49:57Z</time>
      </trkpt>
      <trkpt lat="31.509617445990443" lon="-7.467064373195171">
        <ele>1142.1800000000001</ele>
        <time>2019-03-16T09:49:58Z</time>
      </trkpt>
      <trkpt lat="31.509739570319653" lon="-7.467219019308686">
        <ele>1141.22</ele>
        <time>2019-03-16T09:49:59Z</time>
      </trkpt>
      <trkpt lat="31.509859012439847" lon="-7.467386154457927">
        <ele>1140.26</ele>
        <time>2019-03-16T09:50:10Z</time>
      </trkpt>
      <trkpt lat="31.510582622140646" lon="-7.468326184898615">
        <ele>1138.8199999999999</ele>
        <time>2019-03-16T09:50:23Z</time>
      </trkpt>
      <trkpt lat="31.510724443942308" lon="-7.468435820192099">
        <ele>1129.21</ele>
        <time>2019-03-16T09:50:33Z</time>
      </trkpt>
      <trkpt lat="31.510876240208745" lon="-7.468526596203446">
        <ele>1127.76</ele>
        <time>2019-03-16T09:50:37Z</time>
      </trkpt>
      <trkpt lat="31.51104505173862" lon="-7.468600692227483">
        <ele>1126.8</ele>
        <time>2019-03-16T09:50:38Z</time>
      </trkpt>
      <trkpt lat="31.511229537427425" lon="-7.4686567671597">
        <ele>1125.3599999999999</ele>
        <time>2019-03-16T09:50:39Z</time>
      </trkpt>
      <trkpt lat="31.51142667979002" lon="-7.468692809343338">
        <ele>1124.4000000000001</ele>
        <time>2019-03-16T09:50:40Z</time>
      </trkpt>
      <trkpt lat="31.511629354208708" lon="-7.468715105205774">
        <ele>1123.4400000000001</ele>
        <time>2019-03-16T09:50:41Z</time>
      </trkpt>
      <trkpt lat="31.512994850054383" lon="-7.468862123787403">
        <ele>1122.48</ele>
        <time>2019-03-16T09:50:42Z</time>
      </trkpt>
      <trkpt lat="31.513109598308802" lon="-7.468912666663528">
        <ele>1121.52</ele>
        <time>2019-03-16T09:50:43Z</time>
      </trkpt>
      <trkpt lat="31.513205487281084" lon="-7.468992378562689">
        <ele>1121.03</ele>
        <time>2019-03-16T09:50:55Z</time>
      </trkpt>
      <trkpt lat="31.513277990743518" lon="-7.469098744913936">
        <ele>1120.55</ele>
        <time>2019-03-16T09:50:56Z</time>
      </trkpt>
      <trkpt lat="31.513325432315469" lon="-7.469226066023111">
        <ele>1120.0699999999999</ele>
        <time>2019-03-16T09:50:57Z</time>
      </trkpt>
      <trkpt lat="31.513342950493097" lon="-7.469363193958998">
        <ele>1119.5899999999999</ele>
        <time>2019-03-16T09:51:13Z</time>
      </trkpt>
      <trkpt lat="31.513331551104784" lon="-7.469496969133616">
        <ele>1119.1099999999999</ele>
        <time>2019-03-16T09:51:20Z</time>
      </trkpt>
      <trkpt lat="31.513292156159878" lon="-7.469621859490871">
        <ele>1118.6300000000001</ele>
        <time>2019-03-16T09:51:33Z</time>
      </trkpt>
      <trkpt lat="31.513229040428996" lon="-7.469730321317911">
        <ele>1112.8599999999999</ele>
        <time>2019-03-16T09:51:36Z</time>
      </trkpt>
      <trkpt lat="31.513145053759217" lon="-7.469820929691196">
        <ele>1111.9000000000001</ele>
        <time>2019-03-16T09:51:37Z</time>
      </trkpt>
      <trkpt lat="31.51304011233151" lon="-7.469889326021075">
        <ele>1111.4200000000001</ele>
        <time>2019-03-16T09:51:38Z</time>
      </trkpt>
      <trkpt lat="31.512922933325171" lon="-7.469934169203043">
        <ele>1110.9400000000001</ele>
        <time>2019-03-16T09:51:39Z</time>
      </trkpt>
      <trkpt lat="31.512801647186279" lon="-7.469965349882841">
        <ele>1110.46</ele>
        <time>2019-03-16T09:51:40Z</time>
      </trkpt>
      <trkpt lat="31.512677427381277" lon="-7.469990495592356">
        <ele>1110.46</ele>
        <time>2019-03-16T09:51:41Z</time>
      </trkpt>
      <trkpt lat="31.511352080851793" lon="-7.470306660979986">
        <ele>1109.98</ele>
        <time>2019-03-16T09:51:42Z</time>
      </trkpt>
      <trkpt lat="31.511260299012065" lon="-7.470358712598681">
        <ele>1109.5</ele>
        <time>2019-03-16T09:51:43Z</time>
      </trkpt>
      <trkpt lat="31.511184694245458" lon="-7.470429120585322">
        <ele>1109.02</ele>
        <time>2019-03-16T09:51:44Z</time>
      </trkpt>
      <trkpt lat="31.511127445846796" lon="-7.470514951273799">
        <ele>1108.54</ele>
        <time>2019-03-16T09:51:45Z</time>
      </trkpt>
      <trkpt lat="31.511086961254478" lon="-7.470614444464445">
        <ele>1108.54</ele>
        <time>2019-03-16T09:51:54Z</time>
      </trkpt>
      <trkpt lat="31.511060306802392" lon="-7.470725504681468">
        <ele>1107.5799999999999</ele>
        <time>2019-03-16T09:52:03Z</time>
      </trkpt>
      <trkpt lat="31.511051254346967" lon="-7.470845198258758">
        <ele>1107.0999999999999</ele>
        <time>2019-03-16T09:52:04Z</time>
      </trkpt>
      <trkpt lat="31.511060306802392" lon="-7.470962712541223">
        <ele>1106.6099999999999</ele>
        <time>2019-03-16T09:52:05Z</time>
      </trkpt>
      <trkpt lat="31.511087380349636" lon="-7.471079472452402">
        <ele>1096.04</ele>
        <time>2019-03-16T09:52:06Z</time>
      </trkpt>
      <trkpt lat="31.511129625141621" lon="-7.471193298697472">
        <ele>1092.2</ele>
        <time>2019-03-16T09:52:07Z</time>
      </trkpt>
      <trkpt lat="31.511186035349965" lon="-7.471293462440372">
        <ele>1091.23</ele>
        <time>2019-03-16T09:52:08Z</time>
      </trkpt>
      <trkpt lat="31.511261304840446" lon="-7.471378538757563">
        <ele>1084.02</ele>
        <time>2019-03-16T09:52:09Z</time>
      </trkpt>
      <trkpt lat="31.511353505775332" lon="-7.471449114382267">
        <ele>1083.54</ele>
        <time>2019-03-16T09:52:10Z</time>
      </trkpt>
      <trkpt lat="31.511457106098533" lon="-7.47151231393218">
        <ele>1083.0599999999999</ele>
        <time>2019-03-16T09:52:15Z</time>
      </trkpt>
      <trkpt lat="31.512856381013989" lon="-7.47240942902863">
        <ele>1083.0599999999999</ele>
        <time>2019-03-16T09:52:16Z</time>
      </trkpt>
      <trkpt lat="31.513346722349524" lon="-7.472675805911422">
        <ele>1082.5799999999999</ele>
        <time>2019-03-16T09:52:17Z</time>
      </trkpt>
      <trkpt lat="31.513487370684743" lon="-7.472714865580201">
        <ele>1081.6199999999999</ele>
        <time>2019-03-16T09:52:18Z</time>
      </trkpt>
      <trkpt lat="31.514601744711399" lon="-7.47283648699522">
        <ele>1080.1800000000001</ele>
        <time>2019-03-16T09:52:19Z</time>
      </trkpt>
      <trkpt lat="31.514734430238605" lon="-7.472818298265338">
        <ele>1079.7</ele>
        <time>2019-03-16T09:52:20Z</time>
      </trkpt>
      <trkpt lat="31.514862421900034" lon="-7.472780495882034">
        <ele>1079.22</ele>
        <time>2019-03-16T09:52:21Z</time>
      </trkpt>
      <trkpt lat="31.514983624219894" lon="-7.47272064909339">
        <ele>1078.74</ele>
        <time>2019-03-16T09:52:32Z</time>
      </trkpt>
      <trkpt lat="31.515100551769137" lon="-7.472647139802575">
        <ele>1077.78</ele>
        <time>2019-03-16T09:52:33Z</time>
      </trkpt>
      <trkpt lat="31.515214964747429" lon="-7.472564997151494">
        <ele>1077.29</ele>
        <time>2019-03-16T09:52:34Z</time>
      </trkpt>
      <trkpt lat="31.515957182273269" lon="-7.472185380756855">
        <ele>1074.8900000000001</ele>
        <time>2019-03-16T09:52:35Z</time>
      </trkpt>
      <trkpt lat="31.516097327694297" lon="-7.47216509655118">
        <ele>1074.4100000000001</ele>
        <time>2019-03-16T09:52:36Z</time>
      </trkpt>
      <trkpt lat="31.516238814219832" lon="-7.472160570323467">
        <ele>1071.05</ele>
        <time>2019-03-16T09:52:37Z</time>
      </trkpt>
      <trkpt lat="31.516381138935685" lon="-7.472172556445003">
        <ele>1070.0799999999999</ele>
        <time>2019-03-16T09:52:41Z</time>
      </trkpt>
      <trkpt lat="31.516521703451872" lon="-7.472201976925135">
        <ele>1068.6400000000001</ele>
        <time>2019-03-16T09:52:42Z</time>
      </trkpt>
      <trkpt lat="31.516661429777741" lon="-7.472242377698422">
        <ele>1062.8699999999999</ele>
        <time>2019-03-16T09:52:43Z</time>
      </trkpt>
      <trkpt lat="31.517200134694576" lon="-7.472403477877379">
        <ele>1061.4300000000001</ele>
        <time>2019-03-16T09:52:44Z</time>
      </trkpt>
      <trkpt lat="31.517327455803752" lon="-7.472470281645656">
        <ele>1056.6300000000001</ele>
        <time>2019-03-16T09:52:45Z</time>
      </trkpt>
      <trkpt lat="31.517947213724256" lon="-7.472814777866006">
        <ele>1056.1500000000001</ele>
        <time>2019-03-16T09:52:46Z</time>
      </trkpt>
      <trkpt lat="31.518084593117237" lon="-7.472849898040295">
        <ele>1055.6700000000001</ele>
        <time>2019-03-16T09:52:47Z</time>
      </trkpt>
      <trkpt lat="31.518234461545944" lon="-7.472859704867005">
        <ele>1054.7</ele>
        <time>2019-03-16T09:52:48Z</time>
      </trkpt>
      <trkpt lat="31.519302735105157" lon="-7.472806395962834">
        <ele>1054.22</ele>
        <time>2019-03-16T09:52:49Z</time>
      </trkpt>
      <trkpt lat="31.519476575776935" lon="-7.472827853634954">
        <ele>1053.26</ele>
        <time>2019-03-16T09:52:50Z</time>
      </trkpt>
      <trkpt lat="31.520324321463704" lon="-7.472969172522426">
        <ele>1052.78</ele>
        <time>2019-03-16T09:52:51Z</time>
      </trkpt>
      <trkpt lat="31.520488355308771" lon="-7.472955929115415">
        <ele>1052.3</ele>
        <time>2019-03-16T09:52:52Z</time>
      </trkpt>
      <trkpt lat="31.52065054513514" lon="-7.472914690151811">
        <ele>1051.8199999999999</ele>
        <time>2019-03-16T09:53:00Z</time>
      </trkpt>
      <trkpt lat="31.520808208733797" lon="-7.47285408899188">
        <ele>1050.8599999999999</ele>
        <time>2019-03-16T09:53:01Z</time>
      </trkpt>
      <trkpt lat="31.520958077162504" lon="-7.472786363214254">
        <ele>1041.73</ele>
        <time>2019-03-16T09:53:02Z</time>
      </trkpt>
      <trkpt lat="31.52110350318253" lon="-7.472731377929449">
        <ele>1039.3199999999999</ele>
        <time>2019-03-16T09:53:03Z</time>
      </trkpt>
      <trkpt lat="31.521249515935779" lon="-7.472701705992222">
        <ele>1038.3599999999999</ele>
        <time>2019-03-16T09:53:04Z</time>
      </trkpt>
      <trkpt lat="31.521394858136773" lon="-7.472702460363507">
        <ele>1037.4000000000001</ele>
        <time>2019-03-16T09:53:05Z</time>
      </trkpt>
      <trkpt lat="31.521543385460973" lon="-7.47272752225399">
        <ele>1036.9200000000001</ele>
        <time>2019-03-16T09:53:06Z</time>
      </trkpt>
      <trkpt lat="31.521695265546441" lon="-7.472767252475023">
        <ele>1036.4400000000001</ele>
        <time>2019-03-16T09:53:07Z</time>
      </trkpt>
      <trkpt lat="31.523437947034836" lon="-7.473371755331755">
        <ele>1025.3800000000001</ele>
        <time>2019-03-16T09:53:11Z</time>
      </trkpt>
      <trkpt lat="31.523847654461861" lon="-7.473652297630906">
        <ele>1019.13</ele>
        <time>2019-03-16T09:53:12Z</time>
      </trkpt>
      <trkpt lat="31.523959636688232" lon="-7.473771153017879">
        <ele>1009.52</ele>
        <time>2019-03-16T09:53:13Z</time>
      </trkpt>
      <trkpt lat="31.524056363850832" lon="-7.473912891000509">
        <ele>1006.16</ele>
        <time>2019-03-16T09:53:14Z</time>
      </trkpt>
      <trkpt lat="31.524141691625118" lon="-7.474069548770785">
        <ele>1005.6799999999999</ele>
        <time>2019-03-16T09:53:15Z</time>
      </trkpt>
      <trkpt lat="31.524227438494563" lon="-7.474232409149408">
        <ele>1004.72</ele>
        <time>2019-03-16T09:53:16Z</time>
      </trkpt>
      <trkpt lat="31.525277942419052" lon="-7.476244904100895">
        <ele>1004.23</ele>
        <time>2019-03-16T09:53:17Z</time>
      </trkpt>
      <trkpt lat="31.526648718863726" lon="-7.478620922192931">
        <ele>1003.27</ele>
        <time>2019-03-16T09:53:18Z</time>
      </trkpt>
      <trkpt lat="31.527835763990879" lon="-7.479907376691699">
        <ele>1002.3099999999999</ele>
        <time>2019-03-16T09:53:19Z</time>
      </trkpt>
      <trkpt lat="31.528262319043279" lon="-7.480344660580158">
        <ele>1001.35</ele>
        <time>2019-03-16T09:53:28Z</time>
      </trkpt>
      <trkpt lat="31.528349155560136" lon="-7.480474412441254">
        <ele>990.29999999999995</ele>
        <time>2019-03-16T09:53:29Z</time>
      </trkpt>
      <trkpt lat="31.528424173593521" lon="-7.480615815147758">
        <ele>989.33000000000004</ele>
        <time>2019-03-16T09:53:30Z</time>
      </trkpt>
      <trkpt lat="31.528488211333752" lon="-7.480765851214528">
        <ele>988.85000000000002</ele>
        <time>2019-03-16T09:53:31Z</time>
      </trkpt>
      <trkpt lat="31.52854336425662" lon="-7.480920413509011">
        <ele>975.88</ele>
        <time>2019-03-16T09:53:32Z</time>
      </trkpt>
      <trkpt lat="31.52859122492373" lon="-7.481078077107668">
        <ele>971.54999999999995</ele>
        <time>2019-03-16T09:53:33Z</time>
      </trkpt>
      <trkpt lat="31.52863129042089" lon="-7.481240518391132">
        <ele>962.41999999999996</ele>
        <time>2019-03-16T09:53:34Z</time>
      </trkpt>
      <trkpt lat="31.529084499925375" lon="-7.483224095776677">
        <ele>961.94000000000005</ele>
        <time>2019-03-16T09:53:35Z</time>
      </trkpt>
      <trkpt lat="31.529150800779462" lon="-7.483362145721912">
        <ele>961.94000000000005</ele>
        <time>2019-03-16T09:53:36Z</time>
      </trkpt>
      <trkpt lat="31.529229590669274" lon="-7.483489131554961">
        <ele>961.94000000000005</ele>
        <time>2019-03-16T09:53:37Z</time>
      </trkpt>
      <trkpt lat="31.530689550563693" lon="-7.48558335006237">
        <ele>961.94000000000005</ele>
        <time>2019-03-16T09:53:45Z</time>
      </trkpt>
      <trkpt lat="31.531407963484526" lon="-7.48631433583796">
        <ele>962.41999999999996</ele>
        <time>2019-03-16T09:53:46Z</time>
      </trkpt>
      <trkpt lat="31.533099850639701" lon="-7.487091505900025">
        <ele>962.41999999999996</ele>
        <time>2019-03-16T09:53:47Z</time>
      </trkpt>
      <trkpt lat="31.533441748470068" lon="-7.487271632999182">
        <ele>962.89999999999998</ele>
        <time>2019-03-16T09:53:48Z</time>
      </trkpt>
      <trkpt lat="31.533540152013302" lon="-7.487347153946757">
        <ele>963.38</ele>
        <time>2019-03-16T09:53:49Z</time>
      </trkpt>
      <trkpt lat="31.533629167824984" lon="-7.487436756491661">
        <ele>963.38</ele>
        <time>2019-03-16T09:54:01Z</time>
      </trkpt>
      <trkpt lat="31.533707706257701" lon="-7.487539853900671">
        <ele>963.86000000000001</ele>
        <time>2019-03-16T09:54:02Z</time>
      </trkpt>
      <trkpt lat="31.533772833645344" lon="-7.487654685974121">
        <ele>961.94000000000005</ele>
        <time>2019-03-16T09:54:03Z</time>
      </trkpt>
      <trkpt lat="31.533825304359198" lon="-7.487778821960092">
        <ele>955.69000000000005</ele>
        <time>2019-03-16T09:54:04Z</time>
      </trkpt>
      <trkpt lat="31.533862352371216" lon="-7.487911591306329">
        <ele>955.21000000000004</ele>
        <time>2019-03-16T09:54:05Z</time>
      </trkpt>
      <trkpt lat="31.533881463110447" lon="-7.488049473613501">
        <ele>954.25</ele>
        <time>2019-03-16T09:54:06Z</time>
      </trkpt>
      <trkpt lat="31.533884899690747" lon="-7.48818869702518">
        <ele>953.27999999999997</ele>
        <time>2019-03-16T09:54:13Z</time>
      </trkpt>
      <trkpt lat="31.53388112783432" lon="-7.488324986770749">
        <ele>952.32000000000005</ele>
        <time>2019-03-16T09:54:14Z</time>
      </trkpt>
      <trkpt lat="31.533854557201266" lon="-7.48977086506784">
        <ele>951.84000000000003</ele>
        <time>2019-03-16T09:54:15Z</time>
      </trkpt>
      <trkpt lat="31.533836033195257" lon="-7.491455879062414">
        <ele>951.36000000000001</ele>
        <time>2019-03-16T09:54:16Z</time>
      </trkpt>
      <trkpt lat="31.533864615485072" lon="-7.49162913300097">
        <ele>950.88</ele>
        <time>2019-03-16T09:54:17Z</time>
      </trkpt>
      <trkpt lat="31.533916667103767" lon="-7.491793418303132">
        <ele>948.96000000000004</ele>
        <time>2019-03-16T09:54:20Z</time>
      </trkpt>
      <trkpt lat="31.533990260213614" lon="-7.491944041103125">
        <ele>948.48000000000002</ele>
        <time>2019-03-16T09:54:21Z</time>
      </trkpt>
      <trkpt lat="31.534083969891071" lon="-7.49207722954452">
        <ele>948.48000000000002</ele>
        <time>2019-03-16T09:54:22Z</time>
      </trkpt>
      <trkpt lat="31.534199304878712" lon="-7.492188876494765">
        <ele>948</ele>
        <time>2019-03-16T09:54:23Z</time>
      </trkpt>
      <trkpt lat="31.534328386187553" lon="-7.492288034409285">
        <ele>947.51999999999998</ele>
        <time>2019-03-16T09:54:24Z</time>
      </trkpt>
      <trkpt lat="31.534462999552488" lon="-7.492388030514121">
        <ele>947.03999999999996</ele>
        <time>2019-03-16T09:54:25Z</time>
      </trkpt>
      <trkpt lat="31.535130953416228" lon="-7.492896309122443">
        <ele>946.55999999999995</ele>
        <time>2019-03-16T09:54:41Z</time>
      </trkpt>
      <trkpt lat="31.535241091623902" lon="-7.493022624403238">
        <ele>939.83000000000004</ele>
        <time>2019-03-16T09:54:51Z</time>
      </trkpt>
      <trkpt lat="31.535337315872312" lon="-7.493167296051979">
        <ele>938.86000000000001</ele>
        <time>2019-03-16T09:55:02Z</time>
      </trkpt>
      <trkpt lat="31.535413004457951" lon="-7.493329653516412">
        <ele>938.38</ele>
        <time>2019-03-16T09:55:12Z</time>
      </trkpt>
      <trkpt lat="31.535465307533741" lon="-7.493496369570494">
        <ele>937.41999999999996</ele>
        <time>2019-03-16T09:55:23Z</time>
      </trkpt>
      <trkpt lat="31.535498080775142" lon="-7.493662247434259">
        <ele>936.46000000000004</ele>
        <time>2019-03-16T09:55:41Z</time>
      </trkpt>
      <trkpt lat="31.535518700256944" lon="-7.493829131126404">
        <ele>935.98000000000002</ele>
        <time>2019-03-16T09:55:50Z</time>
      </trkpt>
      <trkpt lat="31.535752722993493" lon="-7.49572386033833">
        <ele>934.53999999999996</ele>
        <time>2019-03-16T09:55:59Z</time>
      </trkpt>
      <trkpt lat="31.535801840946078" lon="-7.495883284136653">
        <ele>934.53999999999996</ele>
        <time>2019-03-16T09:56:12Z</time>
      </trkpt>
      <trkpt lat="31.535869063809514" lon="-7.496026949957013">
        <ele>934.53999999999996</ele>
        <time>2019-03-16T09:56:24Z</time>
      </trkpt>
      <trkpt lat="31.535953721031547" lon="-7.496149241924286">
        <ele>935.01999999999998</ele>
        <time>2019-03-16T09:56:34Z</time>
      </trkpt>
      <trkpt lat="31.536051286384463" lon="-7.496257368475199">
        <ele>935.01999999999998</ele>
        <time>2019-03-16T09:56:47Z</time>
      </trkpt>
      <trkpt lat="31.536156143993139" lon="-7.496356777846813">
        <ele>934.53999999999996</ele>
        <time>2019-03-16T09:57:01Z</time>
      </trkpt>
      <trkpt lat="31.536556044593453" lon="-7.496745362877846">
        <ele>934.53999999999996</ele>
        <time>2019-03-16T09:57:17Z</time>
      </trkpt>
      <trkpt lat="31.536636594682932" lon="-7.496862206608057">
        <ele>934.53999999999996</ele>
        <time>2019-03-16T09:57:19Z</time>
      </trkpt>
      <trkpt lat="31.536708846688271" lon="-7.496992964297533">
        <ele>934.53999999999996</ele>
        <time>2019-03-16T09:57:20Z</time>
      </trkpt>
      <trkpt lat="31.536769280210137" lon="-7.497137133032084">
        <ele>934.05999999999995</ele>
        <time>2019-03-16T09:57:30Z</time>
      </trkpt>
      <trkpt lat="31.536813033744693" lon="-7.497294042259455">
        <ele>933.58000000000004</ele>
        <time>2019-03-16T09:57:42Z</time>
      </trkpt>
      <trkpt lat="31.536839017644525" lon="-7.497459081932902">
        <ele>933.58000000000004</ele>
        <time>2019-03-16T09:57:49Z</time>
      </trkpt>
      <trkpt lat="31.536846645176411" lon="-7.497626468539238">
        <ele>933.58000000000004</ele>
        <time>2019-03-16T09:57:50Z</time>
      </trkpt>
      <trkpt lat="31.536834826692939" lon="-7.497793771326542">
        <ele>933.10000000000002</ele>
        <time>2019-03-16T09:57:55Z</time>
      </trkpt>
      <trkpt lat="31.536804316565394" lon="-7.497964175418019">
        <ele>933.10000000000002</ele>
        <time>2019-03-16T09:57:56Z</time>
      </trkpt>
      <trkpt lat="31.536760395392776" lon="-7.498130220919848">
        <ele>932.62</ele>
        <time>2019-03-16T09:57:57Z</time>
      </trkpt>
      <trkpt lat="31.536705745384097" lon="-7.498292326927185">
        <ele>932.62</ele>
        <time>2019-03-16T09:57:58Z</time>
      </trkpt>
      <trkpt lat="31.53664237819612" lon="-7.498455187305808">
        <ele>932.13999999999999</ele>
        <time>2019-03-16T09:57:59Z</time>
      </trkpt>
      <trkpt lat="31.5361581556499" lon="-7.499830657616258">
        <ele>932.13999999999999</ele>
        <time>2019-03-16T09:58:08Z</time>
      </trkpt>
      <trkpt lat="31.536139296367764" lon="-7.500006090849638">
        <ele>931.64999999999998</ele>
        <time>2019-03-16T09:58:19Z</time>
      </trkpt>
      <trkpt lat="31.536143403500319" lon="-7.500180350616574">
        <ele>931.64999999999998</ele>
        <time>2019-03-16T09:58:29Z</time>
      </trkpt>
      <trkpt lat="31.536170477047563" lon="-7.500354191288352">
        <ele>930.69000000000005</ele>
        <time>2019-03-16T09:58:32Z</time>
      </trkpt>
      <trkpt lat="31.536220014095306" lon="-7.500527445226908">
        <ele>930.69000000000005</ele>
        <time>2019-03-16T09:58:33Z</time>
      </trkpt>
      <trkpt lat="31.536288494244218" lon="-7.500698016956449">
        <ele>930.21000000000004</ele>
        <time>2019-03-16T09:58:47Z</time>
      </trkpt>
      <trkpt lat="31.536369631066918" lon="-7.500865152105689">
        <ele>930.21000000000004</ele>
        <time>2019-03-16T09:58:55Z</time>
      </trkpt>
      <trkpt lat="31.536456802859902" lon="-7.501031868159771">
        <ele>930.21000000000004</ele>
        <time>2019-03-16T09:59:05Z</time>
      </trkpt>
      <trkpt lat="31.536767352372408" lon="-7.501676436513662">
        <ele>930.21000000000004</ele>
        <time>2019-03-16T09:59:22Z</time>
      </trkpt>
      <trkpt lat="31.536810602992773" lon="-7.501838207244873">
        <ele>929.73000000000002</ele>
        <time>2019-03-16T09:59:26Z</time>
      </trkpt>
      <trkpt lat="31.536828121170402" lon="-7.50200710259378">
        <ele>929.73000000000002</ele>
        <time>2019-03-16T09:59:27Z</time>
      </trkpt>
      <trkpt lat="31.536821164190769" lon="-7.502181027084589">
        <ele>926.37</ele>
        <time>2019-03-16T09:59:28Z</time>
      </trkpt>
      <trkpt lat="31.536789396777749" lon="-7.50235696323216">
        <ele>925.88999999999999</ele>
        <time>2019-03-16T09:59:29Z</time>
      </trkpt>
      <trkpt lat="31.536732735112309" lon="-7.502529881894589">
        <ele>925.88999999999999</ele>
        <time>2019-03-16T09:59:30Z</time>
      </trkpt>
      <trkpt lat="31.536648999899626" lon="-7.502695256844163">
        <ele>925.40999999999997</ele>
        <time>2019-03-16T09:59:31Z</time>
      </trkpt>
      <trkpt lat="31.536540118977427" lon="-7.502850070595741">
        <ele>925.40999999999997</ele>
        <time>2019-03-16T09:59:32Z</time>
      </trkpt>
      <trkpt lat="31.536416988819838" lon="-7.50299658626318">
        <ele>924.92999999999995</ele>
        <time>2019-03-16T09:59:33Z</time>
      </trkpt>
      <trkpt lat="31.535464720800519" lon="-7.504391167312861">
        <ele>924.45000000000005</ele>
        <time>2019-03-16T09:59:34Z</time>
      </trkpt>
      <trkpt lat="31.535410489886999" lon="-7.504552016034722">
        <ele>923.48000000000002</ele>
        <time>2019-03-16T09:59:35Z</time>
      </trkpt>
      <trkpt lat="31.535381572321057" lon="-7.504716385155916">
        <ele>923</ele>
        <time>2019-03-16T09:59:36Z</time>
      </trkpt>
      <trkpt lat="31.535374950617552" lon="-7.504882011562586">
        <ele>922.03999999999996</ele>
        <time>2019-03-16T09:59:37Z</time>
      </trkpt>
      <trkpt lat="31.535387691110373" lon="-7.505043027922511">
        <ele>914.83000000000004</ele>
        <time>2019-03-16T09:59:47Z</time>
      </trkpt>
      <trkpt lat="31.53542130254209" lon="-7.505196919664741">
        <ele>913.87</ele>
        <time>2019-03-16T09:59:51Z</time>
      </trkpt>
      <trkpt lat="31.535474192351103" lon="-7.505339244380593">
        <ele>912.90999999999997</ele>
        <time>2019-03-16T09:59:52Z</time>
      </trkpt>
      <trkpt lat="31.535541834309697" lon="-7.505471343174577">
        <ele>912.42999999999995</ele>
        <time>2019-03-16T09:59:53Z</time>
      </trkpt>
      <trkpt lat="31.535619702190161" lon="-7.50559656880796">
        <ele>911.95000000000005</ele>
        <time>2019-03-16T09:59:54Z</time>
      </trkpt>
      <trkpt lat="31.535703353583813" lon="-7.505718860775232">
        <ele>912.42999999999995</ele>
        <time>2019-03-16T09:59:55Z</time>
      </trkpt>
      <trkpt lat="31.536333672702312" lon="-7.506695352494717">
        <ele>912.42999999999995</ele>
        <time>2019-03-16T10:00:05Z</time>
      </trkpt>
      <trkpt lat="31.536368960514665" lon="-7.506835581734777">
        <ele>912.90999999999997</ele>
        <time>2019-03-16T10:00:19Z</time>
      </trkpt>
      <trkpt lat="31.536383545026183" lon="-7.506986623629928">
        <ele>913.87</ele>
        <time>2019-03-16T10:00:29Z</time>
      </trkpt>
      <trkpt lat="31.536384802311659" lon="-7.507144622504711">
        <ele>914.35000000000002</ele>
        <time>2019-03-16T10:00:30Z</time>
      </trkpt>
      <trkpt lat="31.536380192264915" lon="-7.507307399064302">
        <ele>914.83000000000004</ele>
        <time>2019-03-16T10:00:31Z</time>
      </trkpt>
      <trkpt lat="31.536312801763415" lon="-7.509231632575393">
        <ele>917.72000000000003</ele>
        <time>2019-03-16T10:00:32Z</time>
      </trkpt>
      <trkpt lat="31.536321016028523" lon="-7.509358953684568">
        <ele>918.20000000000005</ele>
        <time>2019-03-16T10:00:33Z</time>
      </trkpt>
      <trkpt lat="31.53634088113904" lon="-7.50948216766119">
        <ele>919.15999999999997</ele>
        <time>2019-03-16T10:00:46Z</time>
      </trkpt>
      <trkpt lat="31.536373989656568" lon="-7.509600687772036">
        <ele>919.63999999999999</ele>
        <time>2019-03-16T10:01:02Z</time>
      </trkpt>
      <trkpt lat="31.536415815353394" lon="-7.509713843464851">
        <ele>920.12</ele>
        <time>2019-03-16T10:01:19Z</time>
      </trkpt>
      <trkpt lat="31.53646401129663" lon="-7.509828926995397">
        <ele>921.55999999999995</ele>
        <time>2019-03-16T10:01:20Z</time>
      </trkpt>
      <trkpt lat="31.536893332377076" lon="-7.510680025443435">
        <ele>922.03999999999996</ele>
        <time>2019-03-16T10:01:29Z</time>
      </trkpt>
      <trkpt lat="31.536981090903282" lon="-7.510775160044432">
        <ele>923</ele>
        <time>2019-03-16T10:01:41Z</time>
      </trkpt>
      <trkpt lat="31.537078404799104" lon="-7.510858476161957">
        <ele>923.48000000000002</ele>
        <time>2019-03-16T10:02:02Z</time>
      </trkpt>
      <trkpt lat="31.53718326240778" lon="-7.510927962139249">
        <ele>923.96000000000004</ele>
        <time>2019-03-16T10:02:11Z</time>
      </trkpt>
      <trkpt lat="31.537291891872883" lon="-7.510987725108862">
        <ele>924.92999999999995</ele>
        <time>2019-03-16T10:02:12Z</time>
      </trkpt>
      <trkpt lat="31.537615517154336" lon="-7.511211605742574">
        <ele>935.5</ele>
        <time>2019-03-16T10:02:13Z</time>
      </trkpt>
      <trkpt lat="31.537714507430792" lon="-7.511308584362268">
        <ele>931.16999999999996</ele>
        <time>2019-03-16T10:02:14Z</time>
      </trkpt>
      <trkpt lat="31.537804948166013" lon="-7.511420398950577">
        <ele>935.01999999999998</ele>
        <time>2019-03-16T10:02:15Z</time>
      </trkpt>
      <trkpt lat="31.537886336445808" lon="-7.511541936546564">
        <ele>945.59000000000003</ele>
        <time>2019-03-16T10:02:16Z</time>
      </trkpt>
      <trkpt lat="31.53795775026083" lon="-7.511669928207994">
        <ele>946.07000000000005</ele>
        <time>2019-03-16T10:02:17Z</time>
      </trkpt>
      <trkpt lat="31.53802128508687" lon="-7.511802949011326">
        <ele>948</ele>
        <time>2019-03-16T10:02:18Z</time>
      </trkpt>
      <trkpt lat="31.53905083425343" lon="-7.514098165556788">
        <ele>955.69000000000005</ele>
        <time>2019-03-16T10:02:31Z</time>
      </trkpt>
      <trkpt lat="31.539638321846724" lon="-7.515804888680577">
        <ele>957.13</ele>
        <time>2019-03-16T10:02:46Z</time>
      </trkpt>
      <trkpt lat="31.54052697122097" lon="-7.518139081075788">
        <ele>956.16999999999996</ele>
        <time>2019-03-16T10:02:49Z</time>
      </trkpt>
      <trkpt lat="31.541100796312094" lon="-7.520138332620263">
        <ele>956.64999999999998</ele>
        <time>2019-03-16T10:02:50Z</time>
      </trkpt>
      <trkpt lat="31.541521400213242" lon="-7.522517452016473">
        <ele>957.61000000000001</ele>
        <time>2019-03-16T10:02:51Z</time>
      </trkpt>
      <trkpt lat="31.542293122038245" lon="-7.526770597323775">
        <ele>952.32000000000005</ele>
        <time>2019-03-16T10:02:52Z</time>
      </trkpt>
      <trkpt lat="31.542562432587147" lon="-7.528448738157749">
        <ele>946.55999999999995</ele>
        <time>2019-03-16T10:02:53Z</time>
      </trkpt>
      <trkpt lat="31.542628230527043" lon="-7.530151857063174">
        <ele>938.86000000000001</ele>
        <time>2019-03-16T10:02:54Z</time>
      </trkpt>
      <trkpt lat="31.542952693998814" lon="-7.532486971467733">
        <ele>937.41999999999996</ele>
        <time>2019-03-16T10:02:55Z</time>
      </trkpt>
      <trkpt lat="31.543250838294625" lon="-7.534179612994194">
        <ele>936.46000000000004</ele>
        <time>2019-03-16T10:03:03Z</time>
      </trkpt>
      <trkpt lat="31.543392576277256" lon="-7.535042027011514">
        <ele>927.80999999999995</ele>
        <time>2019-03-16T10:03:04Z</time>
      </trkpt>
      <trkpt lat="31.543483939021826" lon="-7.536417497321963">
        <ele>919.15999999999997</ele>
        <time>2019-03-16T10:03:05Z</time>
      </trkpt>
      <trkpt lat="31.543469438329339" lon="-7.538013746961951">
        <ele>914.35000000000002</ele>
        <time>2019-03-16T10:03:06Z</time>
      </trkpt>
      <trkpt lat="31.543408334255219" lon="-7.540033282712102">
        <ele>912.90999999999997</ele>
        <time>2019-03-16T10:03:07Z</time>
      </trkpt>
      <trkpt lat="31.543425181880593" lon="-7.54032488912344">
        <ele>908.58000000000004</ele>
        <time>2019-03-16T10:03:08Z</time>
      </trkpt>
      <trkpt lat="31.543454937636852" lon="-7.540476182475686">
        <ele>908.10000000000002</ele>
        <time>2019-03-16T10:03:09Z</time>
      </trkpt>
      <trkpt lat="31.543779065832496" lon="-7.54203898832202">
        <ele>907.13999999999999</ele>
        <time>2019-03-16T10:03:23Z</time>
      </trkpt>
      <trkpt lat="31.543966569006443" lon="-7.544036228209734">
        <ele>906.65999999999997</ele>
        <time>2019-03-16T10:03:36Z</time>
      </trkpt>
      <trkpt lat="31.543978806585073" lon="-7.545235762372613">
        <ele>906.17999999999995</ele>
        <time>2019-03-16T10:03:43Z</time>
      </trkpt>
      <trkpt lat="31.54394393786788" lon="-7.545398119837046">
        <ele>900.40999999999997</ele>
        <time>2019-03-16T10:04:01Z</time>
      </trkpt>
      <trkpt lat="31.543733719736338" lon="-7.546212002635002">
        <ele>891.27999999999997</ele>
        <time>2019-03-16T10:04:02Z</time>
      </trkpt>
      <trkpt lat="31.543725840747356" lon="-7.546382155269384">
        <ele>884.07000000000005</ele>
        <time>2019-03-16T10:04:03Z</time>
      </trkpt>
      <trkpt lat="31.54374017380178" lon="-7.546551804989576">
        <ele>883.59000000000003</ele>
        <time>2019-03-16T10:04:04Z</time>
      </trkpt>
      <trkpt lat="31.543776383623481" lon="-7.546717012301087">
        <ele>883.11000000000001</ele>
        <time>2019-03-16T10:04:05Z</time>
      </trkpt>
      <trkpt lat="31.543821394443512" lon="-7.546879202127457">
        <ele>878.77999999999997</ele>
        <time>2019-03-16T10:04:06Z</time>
      </trkpt>
      <trkpt lat="31.544060278683901" lon="-7.548361122608185">
        <ele>873.98000000000002</ele>
        <time>2019-03-16T10:04:08Z</time>
      </trkpt>
      <trkpt lat="31.544070839881897" lon="-7.550489958375692">
        <ele>864.36000000000001</ele>
        <time>2019-03-16T10:04:09Z</time>
      </trkpt>
      <trkpt lat="31.544025409966707" lon="-7.55253329873085">
        <ele>850.41999999999996</ele>
        <time>2019-03-16T10:04:10Z</time>
      </trkpt>
      <trkpt lat="31.544004287570715" lon="-7.553107207641006">
        <ele>848.01999999999998</ele>
        <time>2019-03-16T10:04:21Z</time>
      </trkpt>
      <trkpt lat="31.544025158509612" lon="-7.553289849311113">
        <ele>847.53999999999996</ele>
        <time>2019-03-16T10:04:32Z</time>
      </trkpt>
      <trkpt lat="31.5444574970752" lon="-7.555762846022844">
        <ele>847.53999999999996</ele>
        <time>2019-03-16T10:04:47Z</time>
      </trkpt>
      <trkpt lat="31.544938450679183" lon="-7.557287346571684">
        <ele>847.05999999999995</ele>
        <time>2019-03-16T10:04:58Z</time>
      </trkpt>
      <trkpt lat="31.545809414237738" lon="-7.559222392737865">
        <ele>846.58000000000004</ele>
        <time>2019-03-16T10:04:59Z</time>
      </trkpt>
      <trkpt lat="31.547558885067701" lon="-7.562833148986101">
        <ele>846.10000000000002</ele>
        <time>2019-03-16T10:05:00Z</time>
      </trkpt>
      <trkpt lat="31.547864908352494" lon="-7.563514513894916">
        <ele>845.13999999999999</ele>
        <time>2019-03-16T10:05:01Z</time>
      </trkpt>
      <trkpt lat="31.547895921394229" lon="-7.563671842217445">
        <ele>843.69000000000005</ele>
        <time>2019-03-16T10:05:02Z</time>
      </trkpt>
      <trkpt lat="31.547906985506415" lon="-7.563832104206085">
        <ele>842.73000000000002</ele>
        <time>2019-03-16T10:05:03Z</time>
      </trkpt>
      <trkpt lat="31.54789986088872" lon="-7.563994210213423">
        <ele>841.28999999999996</ele>
        <time>2019-03-16T10:05:04Z</time>
      </trkpt>
      <trkpt lat="31.547876978293061" lon="-7.56415044888854">
        <ele>840.33000000000004</ele>
        <time>2019-03-16T10:05:11Z</time>
      </trkpt>
      <trkpt lat="31.547841690480709" lon="-7.564294533804059">
        <ele>839.85000000000002</ele>
        <time>2019-03-16T10:05:12Z</time>
      </trkpt>
      <trkpt lat="31.547794081270695" lon="-7.564431158825755">
        <ele>830.24000000000001</ele>
        <time>2019-03-16T10:05:13Z</time>
      </trkpt>
      <trkpt lat="31.547733061015606" lon="-7.564560826867819">
        <ele>826.38999999999999</ele>
        <time>2019-03-16T10:05:23Z</time>
      </trkpt>
      <trkpt lat="31.547659384086728" lon="-7.564679346978664">
        <ele>825.42999999999995</ele>
        <time>2019-03-16T10:05:25Z</time>
      </trkpt>
      <trkpt lat="31.547575062140822" lon="-7.564785880967975">
        <ele>824.47000000000003</ele>
        <time>2019-03-16T10:05:26Z</time>
      </trkpt>
      <trkpt lat="31.547485878691077" lon="-7.564882440492511">
        <ele>823.50999999999999</ele>
        <time>2019-03-16T10:05:27Z</time>
      </trkpt>
      <trkpt lat="31.547396862879395" lon="-7.564971121028066">
        <ele>823.02999999999997</ele>
        <time>2019-03-16T10:05:28Z</time>
      </trkpt>
      <trkpt lat="31.54634602367878" lon="-7.565915593877435">
        <ele>819.17999999999995</ele>
        <time>2019-03-16T10:05:29Z</time>
      </trkpt>
      <trkpt lat="31.545922989025712" lon="-7.566354386508465">
        <ele>817.74000000000001</ele>
        <time>2019-03-16T10:05:30Z</time>
      </trkpt>
      <trkpt lat="31.545840175822377" lon="-7.566493945196271">
        <ele>818.22000000000003</ele>
        <time>2019-03-16T10:05:31Z</time>
      </trkpt>
      <trkpt lat="31.545776976272464" lon="-7.566650016233325">
        <ele>818.22000000000003</ele>
        <time>2019-03-16T10:05:32Z</time>
      </trkpt>
      <trkpt lat="31.545732887461782" lon="-7.56681639701128">
        <ele>818.22000000000003</ele>
        <time>2019-03-16T10:05:33Z</time>
      </trkpt>
      <trkpt lat="31.545700784772635" lon="-7.566983532160521">
        <ele>818.70000000000005</ele>
        <time>2019-03-16T10:05:40Z</time>
      </trkpt>
      <trkpt lat="31.545494087040424" lon="-7.568478109315038">
        <ele>818.70000000000005</ele>
        <time>2019-03-16T10:05:48Z</time>
      </trkpt>
      <trkpt lat="31.545499283820391" lon="-7.570501249283552">
        <ele>818.22000000000003</ele>
        <time>2019-03-16T10:05:52Z</time>
      </trkpt>
      <trkpt lat="31.545614199712873" lon="-7.571859788149595">
        <ele>815.82000000000005</ele>
        <time>2019-03-16T10:05:53Z</time>
      </trkpt>
      <trkpt lat="31.54566147364676" lon="-7.571988953277469">
        <ele>816.29999999999995</ele>
        <time>2019-03-16T10:05:54Z</time>
      </trkpt>
      <trkpt lat="31.545720901340246" lon="-7.5721116643399">
        <ele>816.29999999999995</ele>
        <time>2019-03-16T10:05:55Z</time>
      </trkpt>
      <trkpt lat="31.545789381489158" lon="-7.572228759527206">
        <ele>814.85000000000002</ele>
        <time>2019-03-16T10:05:56Z</time>
      </trkpt>
      <trkpt lat="31.545861382037401" lon="-7.572339316830039">
        <ele>814.85000000000002</ele>
        <time>2019-03-16T10:05:57Z</time>
      </trkpt>
      <trkpt lat="31.546893613412976" lon="-7.573631471022964">
        <ele>813.88999999999999</ele>
        <time>2019-03-16T10:05:58Z</time>
      </trkpt>
      <trkpt lat="31.548184594139457" lon="-7.575387815013528">
        <ele>812.45000000000005</ele>
        <time>2019-03-16T10:05:59Z</time>
      </trkpt>
      <trkpt lat="31.549647152423859" lon="-7.577565852552652">
        <ele>811.49000000000001</ele>
        <time>2019-03-16T10:06:02Z</time>
      </trkpt>
      <trkpt lat="31.549690989777446" lon="-7.577711865305901">
        <ele>811.00999999999999</ele>
        <time>2019-03-16T10:06:03Z</time>
      </trkpt>
      <trkpt lat="31.550003299489617" lon="-7.579329991713166">
        <ele>810.52999999999997</ele>
        <time>2019-03-16T10:06:05Z</time>
      </trkpt>
      <trkpt lat="31.550526162609458" lon="-7.581641636788845">
        <ele>809.57000000000005</ele>
        <time>2019-03-16T10:06:06Z</time>
      </trkpt>
      <trkpt lat="31.551398215815425" lon="-7.585451630875468">
        <ele>809.09000000000003</ele>
        <time>2019-03-16T10:06:07Z</time>
      </trkpt>
      <trkpt lat="31.552104642614722" lon="-7.586961966007948">
        <ele>808.61000000000001</ele>
        <time>2019-03-16T10:06:08Z</time>
      </trkpt>
      <trkpt lat="31.552157113328576" lon="-7.587124658748508">
        <ele>808.13</ele>
        <time>2019-03-16T10:06:09Z</time>
      </trkpt>
      <trkpt lat="31.552187874913216" lon="-7.587295984849334">
        <ele>798.99000000000001</ele>
        <time>2019-03-16T10:06:10Z</time>
      </trkpt>
      <trkpt lat="31.55219885520637" lon="-7.587472423911095">
        <ele>791.77999999999997</ele>
        <time>2019-03-16T10:06:11Z</time>
      </trkpt>
      <trkpt lat="31.552192652598023" lon="-7.587647270411253">
        <ele>790.82000000000005</ele>
        <time>2019-03-16T10:06:12Z</time>
      </trkpt>
      <trkpt lat="31.552168177440763" lon="-7.587826140224934">
        <ele>790.34000000000003</ele>
        <time>2019-03-16T10:06:13Z</time>
      </trkpt>
      <trkpt lat="31.552130039781332" lon="-7.588008111342788">
        <ele>789.86000000000001</ele>
        <time>2019-03-16T10:06:14Z</time>
      </trkpt>
      <trkpt lat="31.552083604037762" lon="-7.588192597031593">
        <ele>789.38</ele>
        <time>2019-03-16T10:06:15Z</time>
      </trkpt>
      <trkpt lat="31.551431827247143" lon="-7.590721165761352">
        <ele>788.89999999999998</ele>
        <time>2019-03-16T10:06:16Z</time>
      </trkpt>
      <trkpt lat="31.55090200714767" lon="-7.593651562929153">
        <ele>788.89999999999998</ele>
        <time>2019-03-16T10:06:21Z</time>
      </trkpt>
      <trkpt lat="31.550794970244169" lon="-7.59419621899724">
        <ele>788.41999999999996</ele>
        <time>2019-03-16T10:06:22Z</time>
      </trkpt>
      <trkpt lat="31.550733530893922" lon="-7.594356229528785">
        <ele>783.13</ele>
        <time>2019-03-16T10:06:23Z</time>
      </trkpt>
      <trkpt lat="31.550653399899602" lon="-7.59450601413846">
        <ele>782.64999999999998</ele>
        <time>2019-03-16T10:06:24Z</time>
      </trkpt>
      <trkpt lat="31.550556840375066" lon="-7.594643477350473">
        <ele>782.16999999999996</ele>
        <time>2019-03-16T10:06:25Z</time>
      </trkpt>
      <trkpt lat="31.550442259758711" lon="-7.594767529517412">
        <ele>781.69000000000005</ele>
        <time>2019-03-16T10:06:36Z</time>
      </trkpt>
      <trkpt lat="31.55031225644052" lon="-7.594877416267991">
        <ele>781.21000000000004</ele>
        <time>2019-03-16T10:06:44Z</time>
      </trkpt>
      <trkpt lat="31.550171440467238" lon="-7.594979424029589">
        <ele>781.21000000000004</ele>
        <time>2019-03-16T10:06:45Z</time>
      </trkpt>
      <trkpt lat="31.54904717579484" lon="-7.595845190808177">
        <ele>780.73000000000002</ele>
        <time>2019-03-16T10:06:46Z</time>
      </trkpt>
      <trkpt lat="31.548952627927065" lon="-7.595986090600491">
        <ele>774.48000000000002</ele>
        <time>2019-03-16T10:06:56Z</time>
      </trkpt>
      <trkpt lat="31.548878364264965" lon="-7.596141826361418">
        <ele>773.03999999999996</ele>
        <time>2019-03-16T10:07:11Z</time>
      </trkpt>
      <trkpt lat="31.548825055360794" lon="-7.596311895176768">
        <ele>773.51999999999998</ele>
        <time>2019-03-16T10:07:21Z</time>
      </trkpt>
      <trkpt lat="31.548788510262966" lon="-7.596490010619164">
        <ele>771.60000000000002</ele>
        <time>2019-03-16T10:07:22Z</time>
      </trkpt>
      <trkpt lat="31.548772668465972" lon="-7.596678351983428">
        <ele>771.60000000000002</ele>
        <time>2019-03-16T10:07:23Z</time>
      </trkpt>
      <trkpt lat="31.54876671731472" lon="-7.596874488517642">
        <ele>771.60000000000002</ele>
        <time>2019-03-16T10:07:24Z</time>
      </trkpt>
      <trkpt lat="31.54872665181756" lon="-7.599743530154228">
        <ele>771.60000000000002</ele>
        <time>2019-03-16T10:07:25Z</time>
      </trkpt>
      <trkpt lat="31.548452060669661" lon="-7.60256739333272">
        <ele>771.11000000000001</ele>
        <time>2019-03-16T10:07:26Z</time>
      </trkpt>
      <trkpt lat="31.548580974340439" lon="-7.603846220299602">
        <ele>770.63</ele>
        <time>2019-03-16T10:07:27Z</time>
      </trkpt>
      <trkpt lat="31.548876687884331" lon="-7.606754824519157">
        <ele>769.66999999999996</ele>
        <time>2019-03-16T10:07:28Z</time>
      </trkpt>
      <trkpt lat="31.548871407285333" lon="-7.606907794252038">
        <ele>769.19000000000005</ele>
        <time>2019-03-16T10:07:29Z</time>
      </trkpt>
      <trkpt lat="31.548848524689674" lon="-7.607058333232999">
        <ele>768.71000000000004</ele>
        <time>2019-03-16T10:07:30Z</time>
      </trkpt>
      <trkpt lat="31.548807788640261" lon="-7.607202921062708">
        <ele>766.30999999999995</ele>
        <time>2019-03-16T10:07:31Z</time>
      </trkpt>
      <trkpt lat="31.54875498265028" lon="-7.607343485578895">
        <ele>761.01999999999998</ele>
        <time>2019-03-16T10:07:32Z</time>
      </trkpt>
      <trkpt lat="31.548695890232921" lon="-7.607482792809606">
        <ele>758.13999999999999</ele>
        <time>2019-03-16T10:07:33Z</time>
      </trkpt>
      <trkpt lat="31.548592541366816" lon="-7.60777716524899">
        <ele>758.13999999999999</ele>
        <time>2019-03-16T10:07:34Z</time>
      </trkpt>
      <trkpt lat="31.548559684306383" lon="-7.607936002314091">
        <ele>758.13999999999999</ele>
        <time>2019-03-16T10:07:35Z</time>
      </trkpt>
      <trkpt lat="31.548540741205215" lon="-7.608102718368173">
        <ele>758.13999999999999</ele>
        <time>2019-03-16T10:07:44Z</time>
      </trkpt>
      <trkpt lat="31.548344772309065" lon="-7.610133066773415">
        <ele>758.13999999999999</ele>
        <time>2019-03-16T10:08:01Z</time>
      </trkpt>
      <trkpt lat="31.547725349664688" lon="-7.612168779596686">
        <ele>757.65999999999997</ele>
        <time>2019-03-16T10:08:15Z</time>
      </trkpt>
      <trkpt lat="31.546719186007977" lon="-7.615462951362133">
        <ele>757.65999999999997</ele>
        <time>2019-03-16T10:08:19Z</time>
      </trkpt>
      <trkpt lat="31.545963725075126" lon="-7.617710893973708">
        <ele>757.17999999999995</ele>
        <time>2019-03-16T10:08:20Z</time>
      </trkpt>
      <trkpt lat="31.545868087559938" lon="-7.617864785715938">
        <ele>753.80999999999995</ele>
        <time>2019-03-16T10:08:21Z</time>
      </trkpt>
      <trkpt lat="31.54576264321804" lon="-7.618007194250822">
        <ele>752.85000000000002</ele>
        <time>2019-03-16T10:08:22Z</time>
      </trkpt>
      <trkpt lat="31.545645380392671" lon="-7.618134850636125">
        <ele>752.85000000000002</ele>
        <time>2019-03-16T10:08:23Z</time>
      </trkpt>
      <trkpt lat="31.545511856675148" lon="-7.618246581405401">
        <ele>750.45000000000005</ele>
        <time>2019-03-16T10:08:24Z</time>
      </trkpt>
      <trkpt lat="31.545366179198027" lon="-7.618344817310572">
        <ele>750.45000000000005</ele>
        <time>2019-03-16T10:08:25Z</time>
      </trkpt>
      <trkpt lat="31.545212035998702" lon="-7.618432659655809">
        <ele>750.45000000000005</ele>
        <time>2019-03-16T10:08:26Z</time>
      </trkpt>
      <trkpt lat="31.544180223718286" lon="-7.61907865293324">
        <ele>749.97000000000003</ele>
        <time>2019-03-16T10:08:27Z</time>
      </trkpt>
      <trkpt lat="31.544065810739994" lon="-7.619203627109528">
        <ele>749.97000000000003</ele>
        <time>2019-03-16T10:08:28Z</time>
      </trkpt>
      <trkpt lat="31.54395860619843" lon="-7.619341593235731">
        <ele>749.97000000000003</ele>
        <time>2019-03-16T10:08:43Z</time>
      </trkpt>
      <trkpt lat="31.543149333447218" lon="-7.620917391031981">
        <ele>750.45000000000005</ele>
        <time>2019-03-16T10:08:46Z</time>
      </trkpt>
      <trkpt lat="31.543057635426521" lon="-7.621282087638974">
        <ele>750.92999999999995</ele>
        <time>2019-03-16T10:08:47Z</time>
      </trkpt>
      <trkpt lat="31.543030310422182" lon="-7.621473027393222">
        <ele>751.40999999999997</ele>
        <time>2019-03-16T10:08:48Z</time>
      </trkpt>
      <trkpt lat="31.543016647920012" lon="-7.621666230261326">
        <ele>751.88999999999999</ele>
        <time>2019-03-16T10:08:49Z</time>
      </trkpt>
      <trkpt lat="31.543016145005822" lon="-7.621862953528762">
        <ele>755.25</ele>
        <time>2019-03-16T10:08:50Z</time>
      </trkpt>
      <trkpt lat="31.543028047308326" lon="-7.622059341520071">
        <ele>757.17999999999995</ele>
        <time>2019-03-16T10:08:51Z</time>
      </trkpt>
      <trkpt lat="31.543057132512331" lon="-7.622250951826572">
        <ele>756.21000000000004</ele>
        <time>2019-03-16T10:08:54Z</time>
      </trkpt>
      <trkpt lat="31.543105915188789" lon="-7.622434347867966">
        <ele>755.73000000000002</ele>
        <time>2019-03-16T10:08:55Z</time>
      </trkpt>
      <trkpt lat="31.543174814432859" lon="-7.622613469138742">
        <ele>755.25</ele>
        <time>2019-03-16T10:08:56Z</time>
      </trkpt>
      <trkpt lat="31.543255364522338" lon="-7.622786890715361">
        <ele>754.28999999999996</ele>
        <time>2019-03-16T10:08:57Z</time>
      </trkpt>
      <trkpt lat="31.543626096099615" lon="-7.624051887542009">
        <ele>753.80999999999995</ele>
        <time>2019-03-16T10:08:58Z</time>
      </trkpt>
      <trkpt lat="31.543645961210132" lon="-7.625577226281166">
        <ele>752.85000000000002</ele>
        <time>2019-03-16T10:08:59Z</time>
      </trkpt>
      <trkpt lat="31.543829021975398" lon="-7.626308212056756">
        <ele>752.37</ele>
        <time>2019-03-16T10:09:00Z</time>
      </trkpt>
      <trkpt lat="31.54384721070528" lon="-7.626495631411672">
        <ele>752.37</ele>
        <time>2019-03-16T10:09:01Z</time>
      </trkpt>
      <trkpt lat="31.543838996440172" lon="-7.626681374385953">
        <ele>751.40999999999997</ele>
        <time>2019-03-16T10:09:16Z</time>
      </trkpt>
      <trkpt lat="31.543810162693262" lon="-7.626863848417997">
        <ele>751.40999999999997</ele>
        <time>2019-03-16T10:09:25Z</time>
      </trkpt>
      <trkpt lat="31.543759535998106" lon="-7.627041628584266">
        <ele>750.92999999999995</ele>
        <time>2019-03-16T10:09:33Z</time>
      </trkpt>
      <trkpt lat="31.543690217658877" lon="-7.627213206142187">
        <ele>750.45000000000005</ele>
        <time>2019-03-16T10:09:34Z</time>
      </trkpt>
      <trkpt lat="31.543604889884591" lon="-7.627372546121478">
        <ele>750.45000000000005</ele>
        <time>2019-03-16T10:09:47Z</time>
      </trkpt>
      <trkpt lat="31.543514030054212" lon="-7.62752216309309">
        <ele>750.45000000000005</ele>
        <time>2019-03-16T10:10:04Z</time>
      </trkpt>
      <trkpt lat="31.543273720890284" lon="-7.627955339848995">
        <ele>750.92999999999995</ele>
        <time>2019-03-16T10:10:18Z</time>
      </trkpt>
      <trkpt lat="31.543225105851889" lon="-7.628109231591225">
        <ele>750.92999999999995</ele>
        <time>2019-03-16T10:10:39Z</time>
      </trkpt>
      <trkpt lat="31.543156625702977" lon="-7.628418439999223">
        <ele>750.92999999999995</ele>
        <time>2019-03-16T10:10:51Z</time>
      </trkpt>
      <trkpt lat="31.543144136667252" lon="-7.628570906817913">
        <ele>750.45000000000005</ele>
        <time>2019-03-16T10:11:04Z</time>
      </trkpt>
      <trkpt lat="31.543150003999472" lon="-7.628724128007889">
        <ele>750.45000000000005</ele>
        <time>2019-03-16T10:11:21Z</time>
      </trkpt>
      <trkpt lat="31.543175568804145" lon="-7.628873158246279">
        <ele>749.97000000000003</ele>
        <time>2019-03-16T10:11:46Z</time>
      </trkpt>
      <trkpt lat="31.543218987062573" lon="-7.629015566781163">
        <ele>749.49000000000001</ele>
        <time>2019-03-16T10:12:05Z</time>
      </trkpt>
      <trkpt lat="31.543279672041535" lon="-7.629151437431574">
        <ele>748.51999999999998</ele>
        <time>2019-03-16T10:12:22Z</time>
      </trkpt>
      <trkpt lat="31.543356953188777" lon="-7.629281943663955">
        <ele>746.12</ele>
        <time>2019-03-16T10:12:30Z</time>
      </trkpt>
      <trkpt lat="31.543447561562061" lon="-7.629403062164784">
        <ele>746.12</ele>
        <time>2019-03-16T10:12:34Z</time>
      </trkpt>
      <trkpt lat="31.543545462191105" lon="-7.629517558962107">
        <ele>746.12</ele>
        <time>2019-03-16T10:12:35Z</time>
      </trkpt>
      <trkpt lat="31.543650152161717" lon="-7.629624344408512">
        <ele>746.12</ele>
        <time>2019-03-16T10:12:36Z</time>
      </trkpt>
      <trkpt lat="31.543761966750026" lon="-7.629722496494651">
        <ele>746.12</ele>
        <time>2019-03-16T10:12:37Z</time>
      </trkpt>
      <trkpt lat="31.543877720832825" lon="-7.629818972200155">
        <ele>745.15999999999997</ele>
        <time>2019-03-16T10:12:38Z</time>
      </trkpt>
      <trkpt lat="31.544364793226123" lon="-7.630397072061896">
        <ele>743.72000000000003</ele>
        <time>2019-03-16T10:12:39Z</time>
      </trkpt>
      <trkpt lat="31.544435368850827" lon="-7.630539899691939">
        <ele>743.72000000000003</ele>
        <time>2019-03-16T10:12:40Z</time>
      </trkpt>
      <trkpt lat="31.544492952525616" lon="-7.630689768120647">
        <ele>743.72000000000003</ele>
        <time>2019-03-16T10:12:41Z</time>
      </trkpt>
      <trkpt lat="31.544535700231791" lon="-7.630850533023477">
        <ele>739.38999999999999</ele>
        <time>2019-03-16T10:12:42Z</time>
      </trkpt>
      <trkpt lat="31.54457182623446" lon="-7.631016662344337">
        <ele>735.07000000000005</ele>
        <time>2019-03-16T10:12:43Z</time>
      </trkpt>
      <trkpt lat="31.545007769018412" lon="-7.632860345765948">
        <ele>731.70000000000005</ele>
        <time>2019-03-16T10:12:55Z</time>
      </trkpt>
      <trkpt lat="31.545346649363637" lon="-7.634132215753198">
        <ele>731.22000000000003</ele>
        <time>2019-03-16T10:13:04Z</time>
      </trkpt>
      <trkpt lat="31.545414458960295" lon="-7.634273702278733">
        <ele>731.22000000000003</ele>
        <time>2019-03-16T10:13:14Z</time>
      </trkpt>
      <trkpt lat="31.545498445630074" lon="-7.634400520473719">
        <ele>730.74000000000001</ele>
        <time>2019-03-16T10:13:15Z</time>
      </trkpt>
      <trkpt lat="31.546407798305154" lon="-7.635414144024253">
        <ele>730.74000000000001</ele>
        <time>2019-03-16T10:13:16Z</time>
      </trkpt>
      <trkpt lat="31.547821238636971" lon="-7.636949373409152">
        <ele>730.74000000000001</ele>
        <time>2019-03-16T10:13:17Z</time>
      </trkpt>
      <trkpt lat="31.548603186383843" lon="-7.637813128530979">
        <ele>730.25999999999999</ele>
        <time>2019-03-16T10:13:18Z</time>
      </trkpt>
      <trkpt lat="31.54867535457015" lon="-7.637859899550676">
        <ele>730.25999999999999</ele>
        <time>2019-03-16T10:13:19Z</time>
      </trkpt>
      <trkpt lat="31.54874718748033" lon="-7.637902479618788">
        <ele>729.77999999999997</ele>
        <time>2019-03-16T10:13:20Z</time>
      </trkpt>
      <trkpt lat="31.548808291554451" lon="-7.637960147112608">
        <ele>729.77999999999997</ele>
        <time>2019-03-16T10:13:21Z</time>
      </trkpt>
      <trkpt lat="31.548847183585167" lon="-7.638039188459516">
        <ele>729.29999999999995</ele>
        <time>2019-03-16T10:13:22Z</time>
      </trkpt>
      <trkpt lat="31.54885615222156" lon="-7.638124348595738">
        <ele>729.29999999999995</ele>
        <time>2019-03-16T10:13:23Z</time>
      </trkpt>
      <trkpt lat="31.548834694549441" lon="-7.638204982504249">
        <ele>729.29999999999995</ele>
        <time>2019-03-16T10:13:24Z</time>
      </trkpt>
      <trkpt lat="31.548779457807541" lon="-7.638269858434796">
        <ele>728.82000000000005</ele>
        <time>2019-03-16T10:13:25Z</time>
      </trkpt>
      <trkpt lat="31.548699662089348" lon="-7.63831545598805">
        <ele>728.34000000000003</ele>
        <time>2019-03-16T10:13:26Z</time>
      </trkpt>
      <trkpt lat="31.548615507781506" lon="-7.638359544798732">
        <ele>724.97000000000003</ele>
        <time>2019-03-16T10:13:27Z</time>
      </trkpt>
      <trkpt lat="31.548540992662311" lon="-7.638418637216091">
        <ele>719.20000000000005</ele>
        <time>2019-03-16T10:13:28Z</time>
      </trkpt>
      <trkpt lat="31.548478631302714" lon="-7.638500696048141">
        <ele>715.84000000000003</ele>
        <time>2019-03-16T10:13:41Z</time>
      </trkpt>
      <trkpt lat="31.548435380682349" lon="-7.638604883104563">
        <ele>714.39999999999998</ele>
        <time>2019-03-16T10:13:53Z</time>
      </trkpt>
      <trkpt lat="31.5484051220119" lon="-7.638722565025091">
        <ele>713.91999999999996</ele>
        <time>2019-03-16T10:14:06Z</time>
      </trkpt>
      <trkpt lat="31.54837871901691" lon="-7.638847287744284">
        <ele>713.44000000000005</ele>
        <time>2019-03-16T10:14:18Z</time>
      </trkpt>
      <trkpt lat="31.54805819503963" lon="-7.640216052532196">
        <ele>712.95000000000005</ele>
        <time>2019-03-16T10:14:30Z</time>
      </trkpt>
      <trkpt lat="31.547407004982233" lon="-7.643019631505013">
        <ele>712.47000000000003</ele>
        <time>2019-03-16T10:14:41Z</time>
      </trkpt>
      <trkpt lat="31.547196535393596" lon="-7.645390788093209">
        <ele>711.99000000000001</ele>
        <time>2019-03-16T10:14:43Z</time>
      </trkpt>
      <trkpt lat="31.547123361378908" lon="-7.646041056141257">
        <ele>711.50999999999999</ele>
        <time>2019-03-16T10:14:44Z</time>
      </trkpt>
      <trkpt lat="31.547079440206289" lon="-7.646192265674472">
        <ele>711.50999999999999</ele>
        <time>2019-03-16T10:14:46Z</time>
      </trkpt>
      <trkpt lat="31.547015402466059" lon="-7.646334506571293">
        <ele>711.02999999999997</ele>
        <time>2019-03-16T10:14:47Z</time>
      </trkpt>
      <trkpt lat="31.546936277300119" lon="-7.646463001146913">
        <ele>710.54999999999995</ele>
        <time>2019-03-16T10:14:55Z</time>
      </trkpt>
      <trkpt lat="31.546841729432344" lon="-7.646576575934887">
        <ele>708.63</ele>
        <time>2019-03-16T10:15:12Z</time>
      </trkpt>
      <trkpt lat="31.546732513234019" lon="-7.646668860688806">
        <ele>707.66999999999996</ele>
        <time>2019-03-16T10:15:24Z</time>
      </trkpt>
      <trkpt lat="31.546615837141871" lon="-7.646739520132542">
        <ele>707.66999999999996</ele>
        <time>2019-03-16T10:15:41Z</time>
      </trkpt>
      <trkpt lat="31.546493461355567" lon="-7.646791907027364">
        <ele>707.19000000000005</ele>
        <time>2019-03-16T10:15:48Z</time>
      </trkpt>
      <trkpt lat="31.546363877132535" lon="-7.646832726895809">
        <ele>707.19000000000005</ele>
        <time>2019-03-16T10:16:00Z</time>
      </trkpt>
      <trkpt lat="31.546229431405663" lon="-7.64686893671751">
        <ele>707.19000000000005</ele>
        <time>2019-03-16T10:16:20Z</time>
      </trkpt>
      <trkpt lat="31.544147282838821" lon="-7.647456340491772">
        <ele>706.71000000000004</ele>
        <time>2019-03-16T10:16:39Z</time>
      </trkpt>
      <trkpt lat="31.54375777579844" lon="-7.647610986605287">
        <ele>706.23000000000002</ele>
        <time>2019-03-16T10:16:52Z</time>
      </trkpt>
      <trkpt lat="31.543634561821818" lon="-7.647682316601276">
        <ele>706.23000000000002</ele>
        <time>2019-03-16T10:17:05Z</time>
      </trkpt>
      <trkpt lat="31.543514030054212" lon="-7.647763201966882">
        <ele>706.23000000000002</ele>
        <time>2019-03-16T10:17:16Z</time>
      </trkpt>
      <trkpt lat="31.543396348133683" lon="-7.647852804511786">
        <ele>705.75</ele>
        <time>2019-03-16T10:17:17Z</time>
      </trkpt>
      <trkpt lat="31.543283443897963" lon="-7.647953135892749">
        <ele>705.75</ele>
        <time>2019-03-16T10:17:18Z</time>
      </trkpt>
      <trkpt lat="31.543174227699637" lon="-7.648061765357852">
        <ele>705.75</ele>
        <time>2019-03-16T10:17:19Z</time>
      </trkpt>
      <trkpt lat="31.542888320982456" lon="-7.648429144173861">
        <ele>705.75</ele>
        <time>2019-03-16T10:17:20Z</time>
      </trkpt>
      <trkpt lat="31.542815398424864" lon="-7.648572893813252">
        <ele>705.25999999999999</ele>
        <time>2019-03-16T10:17:21Z</time>
      </trkpt>
      <trkpt lat="31.542758904397488" lon="-7.648724857717753">
        <ele>703.34000000000003</ele>
        <time>2019-03-16T10:17:22Z</time>
      </trkpt>
      <trkpt lat="31.542719006538391" lon="-7.648884700611234">
        <ele>704.29999999999995</ele>
        <time>2019-03-16T10:17:33Z</time>
      </trkpt>
      <trkpt lat="31.54269402846694" lon="-7.649049153551459">
        <ele>704.77999999999997</ele>
        <time>2019-03-16T10:17:48Z</time>
      </trkpt>
      <trkpt lat="31.542685562744737" lon="-7.64921436086297">
        <ele>704.77999999999997</ele>
        <time>2019-03-16T10:18:05Z</time>
      </trkpt>
      <trkpt lat="31.542689586058259" lon="-7.649381998926401">
        <ele>697.57000000000005</ele>
        <time>2019-03-16T10:18:20Z</time>
      </trkpt>
      <trkpt lat="31.542701153084636" lon="-7.649552235379815">
        <ele>694.69000000000005</ele>
        <time>2019-03-16T10:18:38Z</time>
      </trkpt>
      <trkpt lat="31.542939366772771" lon="-7.652171580120921">
        <ele>690.84000000000003</ele>
        <time>2019-03-16T10:18:53Z</time>
      </trkpt>
      <trkpt lat="31.543530877679586" lon="-7.65368334017694">
        <ele>687</ele>
        <time>2019-03-16T10:19:02Z</time>
      </trkpt>
      <trkpt lat="31.544142505154014" lon="-7.654982870444655">
        <ele>684.12</ele>
        <time>2019-03-16T10:19:04Z</time>
      </trkpt>
      <trkpt lat="31.544250212609768" lon="-7.655120501294732">
        <ele>681.71000000000004</ele>
        <time>2019-03-16T10:19:05Z</time>
      </trkpt>
      <trkpt lat="31.545903291553259" lon="-7.656799480319023">
        <ele>678.83000000000004</ele>
        <time>2019-03-16T10:19:13Z</time>
      </trkpt>
      <trkpt lat="31.547903213649988" lon="-7.658833181485534">
        <ele>674.98000000000002</ele>
        <time>2019-03-16T10:19:28Z</time>
      </trkpt>
      <trkpt lat="31.549345403909683" lon="-7.660503862425685">
        <ele>672.10000000000002</ele>
        <time>2019-03-16T10:19:50Z</time>
      </trkpt>
      <trkpt lat="31.551245916634798" lon="-7.663350608199835">
        <ele>668.25</ele>
        <time>2019-03-16T10:20:07Z</time>
      </trkpt>
      <trkpt lat="31.552136829122901" lon="-7.665022043511272">
        <ele>667.76999999999998</ele>
        <time>2019-03-16T10:20:27Z</time>
      </trkpt>
      <trkpt lat="31.552609819918871" lon="-7.667173342779279">
        <ele>667.28999999999996</ele>
        <time>2019-03-16T10:20:40Z</time>
      </trkpt>
      <trkpt lat="31.553116254508495" lon="-7.669958146288991">
        <ele>667.28999999999996</ele>
        <time>2019-03-16T10:20:41Z</time>
      </trkpt>
      <trkpt lat="31.553700724616647" lon="-7.674099812284112">
        <ele>667.28999999999996</ele>
        <time>2019-03-16T10:20:42Z</time>
      </trkpt>
      <trkpt lat="31.55412694439292" lon="-7.677125344052911">
        <ele>667.28999999999996</ele>
        <time>2019-03-16T10:20:43Z</time>
      </trkpt>
      <trkpt lat="31.554491892457008" lon="-7.679674029350281">
        <ele>667.28999999999996</ele>
        <time>2019-03-16T10:20:44Z</time>
      </trkpt>
      <trkpt lat="31.554589122533798" lon="-7.680326895788312">
        <ele>667.28999999999996</ele>
        <time>2019-03-16T10:20:45Z</time>
      </trkpt>
      <trkpt lat="31.554640755057335" lon="-7.680564438924193">
        <ele>666.80999999999995</ele>
        <time>2019-03-16T10:20:53Z</time>
      </trkpt>
      <trkpt lat="31.554674534127116" lon="-7.680629063397646">
        <ele>666.80999999999995</ele>
        <time>2019-03-16T10:21:08Z</time>
      </trkpt>
      <trkpt lat="31.554713174700737" lon="-7.68069670535624">
        <ele>666.80999999999995</ele>
        <time>2019-03-16T10:21:23Z</time>
      </trkpt>
      <trkpt lat="31.554739661514759" lon="-7.680767280980945">
        <ele>666.80999999999995</ele>
        <time>2019-03-16T10:21:46Z</time>
      </trkpt>
      <trkpt lat="31.554746199399233" lon="-7.680842718109489">
        <ele>665.37</ele>
        <time>2019-03-16T10:22:03Z</time>
      </trkpt>
      <trkpt lat="31.554736811667681" lon="-7.680924525484443">
        <ele>662.97000000000003</ele>
        <time>2019-03-16T10:22:12Z</time>
      </trkpt>
      <trkpt lat="31.554723149165511" lon="-7.681014882400632">
        <ele>660.55999999999995</ele>
        <time>2019-03-16T10:22:30Z</time>
      </trkpt>
      <trkpt lat="31.554714348167181" lon="-7.681116722524166">
        <ele>660.55999999999995</ele>
        <time>2019-03-16T10:22:37Z</time>
      </trkpt>
      <trkpt lat="31.554714851081371" lon="-7.681225184351206">
        <ele>660.08000000000004</ele>
        <time>2019-03-16T10:22:38Z</time>
      </trkpt>
      <trkpt lat="31.554723987355828" lon="-7.681337334215641">
        <ele>660.08000000000004</ele>
        <time>2019-03-16T10:22:46Z</time>
      </trkpt>
      <trkpt lat="31.554943844676018" lon="-7.682894188910723">
        <ele>660.08000000000004</ele>
        <time>2019-03-16T10:22:48Z</time>
      </trkpt>
      <trkpt lat="31.555362185463309" lon="-7.684040833264589">
        <ele>660.08000000000004</ele>
        <time>2019-03-16T10:22:49Z</time>
      </trkpt>
      <trkpt lat="31.55578731559217" lon="-7.684845076873899">
        <ele>660.55999999999995</ele>
        <time>2019-03-16T10:22:50Z</time>
      </trkpt>
      <trkpt lat="31.555828554555774" lon="-7.684891261160374">
        <ele>660.55999999999995</ele>
        <time>2019-03-16T10:22:51Z</time>
      </trkpt>
      <trkpt lat="31.555875157937407" lon="-7.684929398819804">
        <ele>660.55999999999995</ele>
        <time>2019-03-16T10:22:52Z</time>
      </trkpt>
      <trkpt lat="31.555928634479642" lon="-7.684960914775729">
        <ele>660.55999999999995</ele>
        <time>2019-03-16T10:23:04Z</time>
      </trkpt>
      <trkpt lat="31.555984206497669" lon="-7.684983462095261">
        <ele>660.55999999999995</ele>
        <time>2019-03-16T10:23:15Z</time>
      </trkpt>
      <trkpt lat="31.556036677211523" lon="-7.685014475136995">
        <ele>660.55999999999995</ele>
        <time>2019-03-16T10:23:27Z</time>
      </trkpt>
      <trkpt lat="31.556080682203174" lon="-7.685063593089581">
        <ele>660.08000000000004</ele>
        <time>2019-03-16T10:23:30Z</time>
      </trkpt>
      <trkpt lat="31.556107085198164" lon="-7.68512804992497">
        <ele>659.60000000000002</ele>
        <time>2019-03-16T10:23:31Z</time>
      </trkpt>
      <trkpt lat="31.556117730215192" lon="-7.685210360214114">
        <ele>659.60000000000002</ele>
        <time>2019-03-16T10:23:32Z</time>
      </trkpt>
      <trkpt lat="31.556125106289983" lon="-7.68530398607254">
        <ele>659.12</ele>
        <time>2019-03-16T10:23:40Z</time>
      </trkpt>
      <trkpt lat="31.556140361353755" lon="-7.685406412929297">
        <ele>658.15999999999997</ele>
        <time>2019-03-16T10:23:51Z</time>
      </trkpt>
      <trkpt lat="31.556165926158428" lon="-7.685511354357004">
        <ele>655.27999999999997</ele>
        <time>2019-03-16T10:23:58Z</time>
      </trkpt>
      <trkpt lat="31.556202052161098" lon="-7.685613194480538">
        <ele>652.38999999999999</ele>
        <time>2019-03-16T10:23:59Z</time>
      </trkpt>
      <trkpt lat="31.556246476247907" lon="-7.685711598023772">
        <ele>648.07000000000005</ele>
        <time>2019-03-16T10:24:07Z</time>
      </trkpt>
      <trkpt lat="31.556294756010175" lon="-7.685812180861831">
        <ele>646.13999999999999</ele>
        <time>2019-03-16T10:24:19Z</time>
      </trkpt>
      <trkpt lat="31.557047115638852" lon="-7.687186226248741">
        <ele>645.65999999999997</ele>
        <time>2019-03-16T10:24:28Z</time>
      </trkpt>
      <trkpt lat="31.558102397248149" lon="-7.688579466193914">
        <ele>645.65999999999997</ele>
        <time>2019-03-16T10:24:40Z</time>
      </trkpt>
      <trkpt lat="31.5591358859092" lon="-7.690219217911363">
        <ele>645.65999999999997</ele>
        <time>2019-03-16T10:24:50Z</time>
      </trkpt>
      <trkpt lat="31.559945493936539" lon="-7.691822005435824">
        <ele>645.65999999999997</ele>
        <time>2019-03-16T10:24:51Z</time>
      </trkpt>
      <trkpt lat="31.560388142243028" lon="-7.693716064095497">
        <ele>643.74000000000001</ele>
        <time>2019-03-16T10:24:52Z</time>
      </trkpt>
      <trkpt lat="31.560696428641677" lon="-7.69526076503098">
        <ele>638.92999999999995</ele>
        <time>2019-03-16T10:24:53Z</time>
      </trkpt>
      <trkpt lat="31.560774631798267" lon="-7.695462349802256">
        <ele>635.57000000000005</ele>
        <time>2019-03-16T10:24:54Z</time>
      </trkpt>
      <trkpt lat="31.560786366462708" lon="-7.695574248209596">
        <ele>631.24000000000001</ele>
        <time>2019-03-16T10:24:55Z</time>
      </trkpt>
      <trkpt lat="31.560778236016631" lon="-7.69584615714848">
        <ele>629.79999999999995</ele>
        <time>2019-03-16T10:24:56Z</time>
      </trkpt>
      <trkpt lat="31.560790808871388" lon="-7.696006083860993">
        <ele>627.39999999999998</ele>
        <time>2019-03-16T10:24:57Z</time>
      </trkpt>
      <trkpt lat="31.561072105541825" lon="-7.697610044851899">
        <ele>621.63</ele>
        <time>2019-03-16T10:24:58Z</time>
      </trkpt>
      <trkpt lat="31.561730839312077" lon="-7.701448369771242">
        <ele>616.34000000000003</ele>
        <time>2019-03-16T10:24:59Z</time>
      </trkpt>
      <trkpt lat="31.562174241989851" lon="-7.703987918794155">
        <ele>614.41999999999996</ele>
        <time>2019-03-16T10:25:10Z</time>
      </trkpt>
      <trkpt lat="31.562758460640907" lon="-7.70709341391921">
        <ele>612.5</ele>
        <time>2019-03-16T10:25:20Z</time>
      </trkpt>
      <trkpt lat="31.562993489205837" lon="-7.70844055339694">
        <ele>608.64999999999998</ele>
        <time>2019-03-16T10:25:35Z</time>
      </trkpt>
      <trkpt lat="31.56353160738945" lon="-7.711245305836201">
        <ele>608.64999999999998</ele>
        <time>2019-03-16T10:25:46Z</time>
      </trkpt>
      <trkpt lat="31.564496029168367" lon="-7.716355584561825">
        <ele>608.64999999999998</ele>
        <time>2019-03-16T10:26:02Z</time>
      </trkpt>
      <trkpt lat="31.565384091809392" lon="-7.721214406192303">
        <ele>608.16999999999996</ele>
        <time>2019-03-16T10:26:22Z</time>
      </trkpt>
      <trkpt lat="31.565914414823055" lon="-7.724040281027556">
        <ele>608.16999999999996</ele>
        <time>2019-03-16T10:26:37Z</time>
      </trkpt>
      <trkpt lat="31.566287744790316" lon="-7.726326948031783">
        <ele>607.69000000000005</ele>
        <time>2019-03-16T10:26:51Z</time>
      </trkpt>
      <trkpt lat="31.566590080037713" lon="-7.727781292051077">
        <ele>607.69000000000005</ele>
        <time>2019-03-16T10:27:10Z</time>
      </trkpt>
      <trkpt lat="31.566613130271435" lon="-7.727898806333542">
        <ele>605.76999999999998</ele>
        <time>2019-03-16T10:27:26Z</time>
      </trkpt>
      <trkpt lat="31.566613465547562" lon="-7.728020260110498">
        <ele>602.39999999999998</ele>
        <time>2019-03-16T10:27:37Z</time>
      </trkpt>
      <trkpt lat="31.566607598215342" lon="-7.728143222630024">
        <ele>598.08000000000004</ele>
        <time>2019-03-16T10:27:44Z</time>
      </trkpt>
      <trkpt lat="31.566612040624022" lon="-7.728267107158899">
        <ele>593.75</ele>
        <time>2019-03-16T10:27:58Z</time>
      </trkpt>
      <trkpt lat="31.566627882421017" lon="-7.728394595906138">
        <ele>588.46000000000004</ele>
        <time>2019-03-16T10:28:03Z</time>
      </trkpt>
      <trkpt lat="31.566648501902819" lon="-7.7285261079669">
        <ele>585.10000000000002</ele>
        <time>2019-03-16T10:28:04Z</time>
      </trkpt>
      <trkpt lat="31.566899456083775" lon="-7.730282871052623">
        <ele>582.70000000000005</ele>
        <time>2019-03-16T10:28:05Z</time>
      </trkpt>
      <trkpt lat="31.567362556234002" lon="-7.733326675370336">
        <ele>582.70000000000005</ele>
        <time>2019-03-16T10:28:06Z</time>
      </trkpt>
      <trkpt lat="31.56783546321094" lon="-7.736865263432264">
        <ele>582.22000000000003</ele>
        <time>2019-03-16T10:28:07Z</time>
      </trkpt>
      <trkpt lat="31.568410880863667" lon="-7.740431344136596">
        <ele>580.76999999999998</ele>
        <time>2019-03-16T10:28:15Z</time>
      </trkpt>
      <trkpt lat="31.569146811962128" lon="-7.744888672605157">
        <ele>576.92999999999995</ele>
        <time>2019-03-16T10:28:31Z</time>
      </trkpt>
      <trkpt lat="31.569752153009176" lon="-7.74817873723805">
        <ele>571.15999999999997</ele>
        <time>2019-03-16T10:28:47Z</time>
      </trkpt>
      <trkpt lat="31.570056667551398" lon="-7.749693179503083">
        <ele>567.32000000000005</ele>
        <time>2019-03-16T10:29:00Z</time>
      </trkpt>
      <trkpt lat="31.570138055831194" lon="-7.749968273565173">
        <ele>563.47000000000003</ele>
        <time>2019-03-16T10:29:11Z</time>
      </trkpt>
      <trkpt lat="31.570155574008822" lon="-7.750113364309073">
        <ele>561.07000000000005</ele>
        <time>2019-03-16T10:29:24Z</time>
      </trkpt>
      <trkpt lat="31.570391021668911" lon="-7.751530325040221">
        <ele>561.07000000000005</ele>
        <time>2019-03-16T10:29:41Z</time>
      </trkpt>
      <trkpt lat="31.571016060188413" lon="-7.754728607833386">
        <ele>561.07000000000005</ele>
        <time>2019-03-16T10:29:50Z</time>
      </trkpt>
      <trkpt lat="31.572039239108562" lon="-7.759809549897909">
        <ele>560.59000000000003</ele>
        <time>2019-03-16T10:30:04Z</time>
      </trkpt>
      <trkpt lat="31.572814900428057" lon="-7.763459701091051">
        <ele>560.59000000000003</ele>
        <time>2019-03-16T10:30:19Z</time>
      </trkpt>
      <trkpt lat="31.57367991283536" lon="-7.767534479498863">
        <ele>560.11000000000001</ele>
        <time>2019-03-16T10:30:38Z</time>
      </trkpt>
      <trkpt lat="31.574260778725147" lon="-7.769913347437978">
        <ele>559.13999999999999</ele>
        <time>2019-03-16T10:30:49Z</time>
      </trkpt>
      <trkpt lat="31.57430537045002" lon="-7.770055839791894">
        <ele>554.82000000000005</ele>
        <time>2019-03-16T10:30:59Z</time>
      </trkpt>
      <trkpt lat="31.574326911941171" lon="-7.770205372944474">
        <ele>550.97000000000003</ele>
        <time>2019-03-16T10:31:06Z</time>
      </trkpt>
      <trkpt lat="31.574338395148516" lon="-7.77036152780056">
        <ele>545.69000000000005</ele>
        <time>2019-03-16T10:31:07Z</time>
      </trkpt>
      <trkpt lat="31.574364881962538" lon="-7.7705252263695">
        <ele>542.79999999999995</ele>
        <time>2019-03-16T10:31:08Z</time>
      </trkpt>
      <trkpt lat="31.574402432888746" lon="-7.770698564127088">
        <ele>541.36000000000001</ele>
        <time>2019-03-16T10:31:09Z</time>
      </trkpt>
      <trkpt lat="31.574784563854337" lon="-7.772412076592445">
        <ele>537.02999999999997</ele>
        <time>2019-03-16T10:31:10Z</time>
      </trkpt>
      <trkpt lat="31.575603140518069" lon="-7.77608678676188">
        <ele>537.02999999999997</ele>
        <time>2019-03-16T10:31:11Z</time>
      </trkpt>
      <trkpt lat="31.576407719403505" lon="-7.779709780588746">
        <ele>537.02999999999997</ele>
        <time>2019-03-16T10:31:12Z</time>
      </trkpt>
      <trkpt lat="31.577571295201778" lon="-7.785053914412856">
        <ele>537.02999999999997</ele>
        <time>2019-03-16T10:31:13Z</time>
      </trkpt>
      <trkpt lat="31.578467739745975" lon="-7.788772797212005">
        <ele>536.07000000000005</ele>
        <time>2019-03-16T10:31:14Z</time>
      </trkpt>
      <trkpt lat="31.579433754086494" lon="-7.790471808984876">
        <ele>536.07000000000005</ele>
        <time>2019-03-16T10:31:21Z</time>
      </trkpt>
      <trkpt lat="31.5816455706954" lon="-7.793540339916945">
        <ele>535.59000000000003</ele>
        <time>2019-03-16T10:31:30Z</time>
      </trkpt>
      <trkpt lat="31.582062318921089" lon="-7.794326646253467">
        <ele>535.59000000000003</ele>
        <time>2019-03-16T10:31:50Z</time>
      </trkpt>
      <trkpt lat="31.582072293385863" lon="-7.794441981241107">
        <ele>535.59000000000003</ele>
        <time>2019-03-16T10:32:09Z</time>
      </trkpt>
      <trkpt lat="31.581975733861327" lon="-7.795581081882119">
        <ele>536.07000000000005</ele>
        <time>2019-03-16T10:32:31Z</time>
      </trkpt>
      <trkpt lat="31.581888562068343" lon="-7.795846620574594">
        <ele>536.54999999999995</ele>
        <time>2019-03-16T10:32:49Z</time>
      </trkpt>
      <trkpt lat="31.581832654774189" lon="-7.795966984704137">
        <ele>537.50999999999999</ele>
        <time>2019-03-16T10:33:03Z</time>
      </trkpt>
      <trkpt lat="31.581769287586212" lon="-7.796082487329841">
        <ele>537.50999999999999</ele>
        <time>2019-03-16T10:33:16Z</time>
      </trkpt>
      <trkpt lat="31.581699382513762" lon="-7.796192709356546">
        <ele>537.50999999999999</ele>
        <time>2019-03-16T10:33:21Z</time>
      </trkpt>
      <trkpt lat="31.581627214327455" lon="-7.796296896412969">
        <ele>537.50999999999999</ele>
        <time>2019-03-16T10:33:22Z</time>
      </trkpt>
      <trkpt lat="31.580606382340193" lon="-7.797577735036612">
        <ele>538.48000000000002</ele>
        <time>2019-03-16T10:33:23Z</time>
      </trkpt>
      <trkpt lat="31.579595105722547" lon="-7.798956809565425">
        <ele>538.96000000000004</ele>
        <time>2019-03-16T10:33:24Z</time>
      </trkpt>
      <trkpt lat="31.578724477440119" lon="-7.800535708665848">
        <ele>538.48000000000002</ele>
        <time>2019-03-16T10:33:25Z</time>
      </trkpt>
      <trkpt lat="31.578657757490873" lon="-7.800936950370669">
        <ele>538.48000000000002</ele>
        <time>2019-03-16T10:33:26Z</time>
      </trkpt>
      <trkpt lat="31.578653231263161" lon="-7.801073743030429">
        <ele>537.50999999999999</ele>
        <time>2019-03-16T10:33:27Z</time>
      </trkpt>
      <trkpt lat="31.578647950664163" lon="-7.801219755783677">
        <ele>536.54999999999995</ele>
        <time>2019-03-16T10:33:28Z</time>
      </trkpt>
      <trkpt lat="31.578596737235785" lon="-7.802628586068749">
        <ele>536.07000000000005</ele>
        <time>2019-03-16T10:33:29Z</time>
      </trkpt>
      <trkpt lat="31.578576704487205" lon="-7.804867224767804">
        <ele>536.54999999999995</ele>
        <time>2019-03-16T10:33:38Z</time>
      </trkpt>
      <trkpt lat="31.578602772206068" lon="-7.805942120030522">
        <ele>538.48000000000002</ele>
        <time>2019-03-16T10:33:48Z</time>
      </trkpt>
      <trkpt lat="31.57858089543879" lon="-7.806074302643538">
        <ele>538.48000000000002</ele>
        <time>2019-03-16T10:34:02Z</time>
      </trkpt>
      <trkpt lat="31.578321643173695" lon="-7.807328989729285">
        <ele>538.48000000000002</ele>
        <time>2019-03-16T10:34:22Z</time>
      </trkpt>
      <trkpt lat="31.577691826969385" lon="-7.809199411422014">
        <ele>538.48000000000002</ele>
        <time>2019-03-16T10:34:40Z</time>
      </trkpt>
      <trkpt lat="31.577435005456209" lon="-7.810507575049996">
        <ele>538.48000000000002</ele>
        <time>2019-03-16T10:34:48Z</time>
      </trkpt>
      <trkpt lat="31.57693418674171" lon="-7.81218177638948">
        <ele>538.48000000000002</ele>
        <time>2019-03-16T10:34:50Z</time>
      </trkpt>
      <trkpt lat="31.576442923396826" lon="-7.813371084630489">
        <ele>538.48000000000002</ele>
        <time>2019-03-16T10:34:51Z</time>
      </trkpt>
      <trkpt lat="31.576427165418863" lon="-7.813483737409115">
        <ele>538.48000000000002</ele>
        <time>2019-03-16T10:34:52Z</time>
      </trkpt>
      <trkpt lat="31.576429177075624" lon="-7.813598569482565">
        <ele>538.48000000000002</ele>
        <time>2019-03-16T10:34:53Z</time>
      </trkpt>
      <trkpt lat="31.576435463503003" lon="-7.813715245574713">
        <ele>537.99000000000001</ele>
        <time>2019-03-16T10:34:54Z</time>
      </trkpt>
      <trkpt lat="31.576424818485975" lon="-7.813834436237812">
        <ele>535.59000000000003</ele>
        <time>2019-03-16T10:34:55Z</time>
      </trkpt>
      <trkpt lat="31.576392967253923" lon="-7.813952956348658">
        <ele>534.63</ele>
        <time>2019-03-16T10:34:56Z</time>
      </trkpt>
      <trkpt lat="31.576355835422873" lon="-7.814076002687216">
        <ele>534.14999999999998</ele>
        <time>2019-03-16T10:34:57Z</time>
      </trkpt>
      <trkpt lat="31.576335718855262" lon="-7.814209358766675">
        <ele>532.71000000000004</ele>
        <time>2019-03-16T10:34:58Z</time>
      </trkpt>
      <trkpt lat="31.576339658349752" lon="-7.814351767301559">
        <ele>531.26999999999998</ele>
        <time>2019-03-16T10:35:05Z</time>
      </trkpt>
      <trkpt lat="31.576360864564776" lon="-7.81449937261641">
        <ele>530.29999999999995</ele>
        <time>2019-03-16T10:35:18Z</time>
      </trkpt>
      <trkpt lat="31.576648531481624" lon="-7.81635370105505">
        <ele>528.86000000000001</ele>
        <time>2019-03-16T10:35:32Z</time>
      </trkpt>
      <trkpt lat="31.577121773734689" lon="-7.818004181608558">
        <ele>527.89999999999998</ele>
        <time>2019-03-16T10:35:37Z</time>
      </trkpt>
      <trkpt lat="31.577581604942679" lon="-7.820582371205092">
        <ele>527.41999999999996</ele>
        <time>2019-03-16T10:35:38Z</time>
      </trkpt>
      <trkpt lat="31.577486302703619" lon="-7.82259494997561">
        <ele>527.89999999999998</ele>
        <time>2019-03-16T10:35:39Z</time>
      </trkpt>
      <trkpt lat="31.577311288565397" lon="-7.825643951073289">
        <ele>527.41999999999996</ele>
        <time>2019-03-16T10:35:40Z</time>
      </trkpt>
      <trkpt lat="31.577234258875251" lon="-7.829655529931188">
        <ele>527.89999999999998</ele>
        <time>2019-03-16T10:35:41Z</time>
      </trkpt>
      <trkpt lat="31.577042900025845" lon="-7.832754654809833">
        <ele>526.94000000000005</ele>
        <time>2019-03-16T10:35:42Z</time>
      </trkpt>
      <trkpt lat="31.576567059382796" lon="-7.835451783612371">
        <ele>527.89999999999998</ele>
        <time>2019-03-16T10:35:43Z</time>
      </trkpt>
      <trkpt lat="31.575906733050942" lon="-7.839283738285303">
        <ele>527.89999999999998</ele>
        <time>2019-03-16T10:35:44Z</time>
      </trkpt>
      <trkpt lat="31.575236851349473" lon="-7.842963896691799">
        <ele>527.89999999999998</ele>
        <time>2019-03-16T10:35:45Z</time>
      </trkpt>
      <trkpt lat="31.575024956837296" lon="-7.845475114881992">
        <ele>527.89999999999998</ele>
        <time>2019-03-16T10:35:52Z</time>
      </trkpt>
      <trkpt lat="31.575460564345121" lon="-7.847030879929662">
        <ele>527.89999999999998</ele>
        <time>2019-03-16T10:36:07Z</time>
      </trkpt>
      <trkpt lat="31.576586673036218" lon="-7.850020285695791">
        <ele>528.86000000000001</ele>
        <time>2019-03-16T10:36:23Z</time>
      </trkpt>
      <trkpt lat="31.576820695772767" lon="-7.85088018514216">
        <ele>528.38</ele>
        <time>2019-03-16T10:36:39Z</time>
      </trkpt>
      <trkpt lat="31.576877860352397" lon="-7.851025611162186">
        <ele>528.86000000000001</ele>
        <time>2019-03-16T10:36:50Z</time>
      </trkpt>
      <trkpt lat="31.576932510361075" lon="-7.851171372458339">
        <ele>529.82000000000005</ele>
        <time>2019-03-16T10:36:58Z</time>
      </trkpt>
      <trkpt lat="31.576968217268586" lon="-7.851323839277029">
        <ele>527.89999999999998</ele>
        <time>2019-03-16T10:37:04Z</time>
      </trkpt>
      <trkpt lat="31.57698942348361" lon="-7.851483430713415">
        <ele>524.05999999999995</ele>
        <time>2019-03-16T10:37:05Z</time>
      </trkpt>
      <trkpt lat="31.577273067086935" lon="-7.852959567680955">
        <ele>523.58000000000004</ele>
        <time>2019-03-16T10:37:06Z</time>
      </trkpt>
      <trkpt lat="31.57760608009994" lon="-7.856409475207329">
        <ele>522.61000000000001</ele>
        <time>2019-03-16T10:37:07Z</time>
      </trkpt>
      <trkpt lat="31.577946972101927" lon="-7.860429603606463">
        <ele>522.61000000000001</ele>
        <time>2019-03-16T10:37:15Z</time>
      </trkpt>
      <trkpt lat="31.578386351466179" lon="-7.864009262993932">
        <ele>522.13</ele>
        <time>2019-03-16T10:37:16Z</time>
      </trkpt>
      <trkpt lat="31.579559734091163" lon="-7.866752156987786">
        <ele>518.76999999999998</ele>
        <time>2019-03-16T10:37:17Z</time>
      </trkpt>
      <trkpt lat="31.580855408683419" lon="-7.869723038747907">
        <ele>517.80999999999995</ele>
        <time>2019-03-16T10:37:18Z</time>
      </trkpt>
      <trkpt lat="31.582583757117391" lon="-7.873318791389465">
        <ele>516.85000000000002</ele>
        <time>2019-03-16T10:37:19Z</time>
      </trkpt>
      <trkpt lat="31.583169149234891" lon="-7.875180579721928">
        <ele>516.85000000000002</ele>
        <time>2019-03-16T10:37:20Z</time>
      </trkpt>
      <trkpt lat="31.583699723705649" lon="-7.878267299383879">
        <ele>516.85000000000002</ele>
        <time>2019-03-16T10:37:21Z</time>
      </trkpt>
      <trkpt lat="31.584518048912287" lon="-7.881465330719948">
        <ele>516.85000000000002</ele>
        <time>2019-03-16T10:37:22Z</time>
      </trkpt>
      <trkpt lat="31.585947247222066" lon="-7.885251855477691">
        <ele>516.85000000000002</ele>
        <time>2019-03-16T10:37:23Z</time>
      </trkpt>
      <trkpt lat="31.586642861366272" lon="-7.887095287442207">
        <ele>516.85000000000002</ele>
        <time>2019-03-16T10:37:24Z</time>
      </trkpt>
      <trkpt lat="31.587013006210327" lon="-7.887963065877557">
        <ele>516.85000000000002</ele>
        <time>2019-03-16T10:37:25Z</time>
      </trkpt>
      <trkpt lat="31.58718173392117" lon="-7.888201111927629">
        <ele>516.85000000000002</ele>
        <time>2019-03-16T10:37:26Z</time>
      </trkpt>
      <trkpt lat="31.587230768054724" lon="-7.888248050585389">
        <ele>516.85000000000002</ele>
        <time>2019-03-16T10:37:28Z</time>
      </trkpt>
      <trkpt lat="31.587281143292785" lon="-7.888298844918609">
        <ele>516.85000000000002</ele>
        <time>2019-03-16T10:37:29Z</time>
      </trkpt>
      <trkpt lat="31.587326992303133" lon="-7.88836682215333">
        <ele>515.88</ele>
        <time>2019-03-16T10:37:30Z</time>
      </trkpt>
      <trkpt lat="31.587362196296453" lon="-7.888457765802741">
        <ele>513.96000000000004</ele>
        <time>2019-03-16T10:37:38Z</time>
      </trkpt>
      <trkpt lat="31.587392538785934" lon="-7.888559941202402">
        <ele>510.12</ele>
        <time>2019-03-16T10:37:53Z</time>
      </trkpt>
      <trkpt lat="31.58743386156857" lon="-7.888665134087205">
        <ele>506.75</ele>
        <time>2019-03-16T10:38:10Z</time>
      </trkpt>
      <trkpt lat="31.587492702528834" lon="-7.888771584257484">
        <ele>502.91000000000003</ele>
        <time>2019-03-16T10:38:31Z</time>
      </trkpt>
      <trkpt lat="31.587571324780583" lon="-7.888882476836443">
        <ele>499.06</ele>
        <time>2019-03-16T10:38:45Z</time>
      </trkpt>
      <trkpt lat="31.588440109044313" lon="-7.889735167846084">
        <ele>497.13999999999999</ele>
        <time>2019-03-16T10:38:52Z</time>
      </trkpt>
      <trkpt lat="31.590122608467937" lon="-7.890886422246695">
        <ele>496.66000000000003</ele>
        <time>2019-03-16T10:39:03Z</time>
      </trkpt>
      <trkpt lat="31.594107113778591" lon="-7.893555304035544">
        <ele>496.18000000000001</ele>
        <time>2019-03-16T10:39:16Z</time>
      </trkpt>
      <trkpt lat="31.597827589139342" lon="-7.896098205819726">
        <ele>496.18000000000001</ele>
        <time>2019-03-16T10:39:27Z</time>
      </trkpt>
      <trkpt lat="31.602002447471023" lon="-7.898958111181855">
        <ele>496.18000000000001</ele>
        <time>2019-03-16T10:39:37Z</time>
      </trkpt>
      <trkpt lat="31.605290332809091" lon="-7.901210496202111">
        <ele>496.18000000000001</ele>
        <time>2019-03-16T10:39:47Z</time>
      </trkpt>
      <trkpt lat="31.607916802167892" lon="-7.903010426089168">
        <ele>496.66000000000003</ele>
        <time>2019-03-16T10:39:55Z</time>
      </trkpt>
      <trkpt lat="31.610038345679641" lon="-7.90444272570312">
        <ele>496.18000000000001</ele>
        <time>2019-03-16T10:39:56Z</time>
      </trkpt>
      <trkpt lat="31.61068425513804" lon="-7.904843464493752">
        <ele>496.66000000000003</ele>
        <time>2019-03-16T10:39:57Z</time>
      </trkpt>
      <trkpt lat="31.61079908721149" lon="-7.904874393716455">
        <ele>496.66000000000003</ele>
        <time>2019-03-16T10:39:59Z</time>
      </trkpt>
      <trkpt lat="31.610900843515992" lon="-7.904908256605268">
        <ele>496.66000000000003</ele>
        <time>2019-03-16T10:40:00Z</time>
      </trkpt>
      <trkpt lat="31.61098524928093" lon="-7.904964834451675">
        <ele>495.69999999999999</ele>
        <time>2019-03-16T10:40:01Z</time>
      </trkpt>
      <trkpt lat="31.611052891239524" lon="-7.905047396197915">
        <ele>493.29000000000002</ele>
        <time>2019-03-16T10:40:03Z</time>
      </trkpt>
      <trkpt lat="31.611118940636516" lon="-7.905139848589897">
        <ele>490.88999999999999</ele>
        <time>2019-03-16T10:40:04Z</time>
      </trkpt>
      <trkpt lat="31.611198065802455" lon="-7.905227355659008">
        <ele>488.00999999999999</ele>
        <time>2019-03-16T10:40:05Z</time>
      </trkpt>
      <trkpt lat="31.611291859298944" lon="-7.905303798615933">
        <ele>485.60000000000002</ele>
        <time>2019-03-16T10:40:15Z</time>
      </trkpt>
      <trkpt lat="31.611398560926318" lon="-7.905375966802239">
        <ele>484.63999999999999</ele>
        <time>2019-03-16T10:40:24Z</time>
      </trkpt>
      <trkpt lat="31.612601531669497" lon="-7.906201416626573">
        <ele>484.63999999999999</ele>
        <time>2019-03-16T10:40:39Z</time>
      </trkpt>
      <trkpt lat="31.614377573132515" lon="-7.907412350177765">
        <ele>484.63999999999999</ele>
        <time>2019-03-16T10:40:53Z</time>
      </trkpt>
      <trkpt lat="31.617357172071934" lon="-7.909448314458132">
        <ele>484.16000000000003</ele>
        <time>2019-03-16T10:41:05Z</time>
      </trkpt>
      <trkpt lat="31.621616603806615" lon="-7.912349123507738">
        <ele>484.16000000000003</ele>
        <time>2019-03-16T10:41:15Z</time>
      </trkpt>
      <trkpt lat="31.62527278997004" lon="-7.91485195979476">
        <ele>484.16000000000003</ele>
        <time>2019-03-16T10:41:37Z</time>
      </trkpt>
      <trkpt lat="31.626590173691511" lon="-7.91575594805181">
        <ele>483.68000000000001</ele>
        <time>2019-03-16T10:41:57Z</time>
      </trkpt>
      <trkpt lat="31.626834589987993" lon="-7.915897266939282">
        <ele>483.68000000000001</ele>
        <time>2019-03-16T10:42:10Z</time>
      </trkpt>
      <trkpt lat="31.626949924975634" lon="-7.915941858664155">
        <ele>483.68000000000001</ele>
        <time>2019-03-16T10:42:27Z</time>
      </trkpt>
      <trkpt lat="31.627056710422039" lon="-7.91597094386816">
        <ele>483.68000000000001</ele>
        <time>2019-03-16T10:42:37Z</time>
      </trkpt>
      <trkpt lat="31.627155113965273" lon="-7.916006231680512">
        <ele>483.68000000000001</ele>
        <time>2019-03-16T10:42:45Z</time>
      </trkpt>
      <trkpt lat="31.627240609377623" lon="-7.916072532534599">
        <ele>482.24000000000001</ele>
        <time>2019-03-16T10:42:52Z</time>
      </trkpt>
      <trkpt lat="31.627315459772944" lon="-7.916164817288518">
        <ele>480.31999999999999</ele>
        <time>2019-03-16T10:43:06Z</time>
      </trkpt>
      <trkpt lat="31.627393243834376" lon="-7.916265232488513">
        <ele>479.83999999999997</ele>
        <time>2019-03-16T10:43:16Z</time>
      </trkpt>
      <trkpt lat="31.627482678741217" lon="-7.916361540555954">
        <ele>479.83999999999997</ele>
        <time>2019-03-16T10:43:30Z</time>
      </trkpt>
      <trkpt lat="31.627586362883449" lon="-7.916453154757619">
        <ele>479.83999999999997</ele>
        <time>2019-03-16T10:43:39Z</time>
      </trkpt>
      <trkpt lat="31.628590933978558" lon="-7.917156731709838">
        <ele>479.83999999999997</ele>
        <time>2019-03-16T10:43:47Z</time>
      </trkpt>
      <trkpt lat="31.630854969844222" lon="-7.918664300814271">
        <ele>479.83999999999997</ele>
        <time>2019-03-16T10:43:55Z</time>
      </trkpt>
      <trkpt lat="31.633144738152623" lon="-7.920234985649586">
        <ele>479.35000000000002</ele>
        <time>2019-03-16T10:44:03Z</time>
      </trkpt>
      <trkpt lat="31.633656118065119" lon="-7.920554587617517">
        <ele>479.35000000000002</ele>
        <time>2019-03-16T10:44:15Z</time>
      </trkpt>
      <trkpt lat="31.633745552971959" lon="-7.920584594830871">
        <ele>479.35000000000002</ele>
        <time>2019-03-16T10:44:25Z</time>
      </trkpt>
      <trkpt lat="31.633830042555928" lon="-7.920616362243891">
        <ele>479.35000000000002</ele>
        <time>2019-03-16T10:44:34Z</time>
      </trkpt>
      <trkpt lat="31.633907994255424" lon="-7.920666569843888">
        <ele>478.38999999999999</ele>
        <time>2019-03-16T10:44:45Z</time>
      </trkpt>
      <trkpt lat="31.633979240432382" lon="-7.920738821849227">
        <ele>475.99000000000001</ele>
        <time>2019-03-16T10:44:50Z</time>
      </trkpt>
      <trkpt lat="31.634051157161593" lon="-7.920820126309991">
        <ele>475.02999999999997</ele>
        <time>2019-03-16T10:44:57Z</time>
      </trkpt>
      <trkpt lat="31.634132042527199" lon="-7.920899922028184">
        <ele>474.06999999999999</ele>
        <time>2019-03-16T10:45:07Z</time>
      </trkpt>
      <trkpt lat="31.634224997833371" lon="-7.920972928404808">
        <ele>472.63</ele>
        <time>2019-03-16T10:45:22Z</time>
      </trkpt>
      <trkpt lat="31.634329603984952" lon="-7.921041995286942">
        <ele>471.66000000000003</ele>
        <time>2019-03-16T10:45:30Z</time>
      </trkpt>
      <trkpt lat="31.635279022157192" lon="-7.921693352982402">
        <ele>471.18000000000001</ele>
        <time>2019-03-16T10:45:31Z</time>
      </trkpt>
      <trkpt lat="31.637787139043212" lon="-7.923403428867459">
        <ele>471.66000000000003</ele>
        <time>2019-03-16T10:45:32Z</time>
      </trkpt>
      <trkpt lat="31.640686355531216" lon="-7.925381138920784">
        <ele>471.66000000000003</ele>
        <time>2019-03-16T10:45:37Z</time>
      </trkpt>
      <trkpt lat="31.643805094063282" lon="-7.927516344934702">
        <ele>471.18000000000001</ele>
        <time>2019-03-16T10:45:38Z</time>
      </trkpt>
      <trkpt lat="31.645634779706597" lon="-7.928764829412103">
        <ele>471.18000000000001</ele>
        <time>2019-03-16T10:45:39Z</time>
      </trkpt>
      <trkpt lat="31.646841773763299" lon="-7.929260618984699">
        <ele>471.18000000000001</ele>
        <time>2019-03-16T10:45:46Z</time>
      </trkpt>
      <trkpt lat="31.647467901930213" lon="-7.929448876529932">
        <ele>471.18000000000001</ele>
        <time>2019-03-16T10:45:56Z</time>
      </trkpt>
      <trkpt lat="31.647527497261763" lon="-7.929470418021083">
        <ele>471.18000000000001</ele>
        <time>2019-03-16T10:46:06Z</time>
      </trkpt>
      <trkpt lat="31.647574352100492" lon="-7.929481817409396">
        <ele>470.69999999999999</ele>
        <time>2019-03-16T10:46:15Z</time>
      </trkpt>
      <trkpt lat="31.647602515295148" lon="-7.929486175999045">
        <ele>470.69999999999999</ele>
        <time>2019-03-16T10:46:23Z</time>
      </trkpt>
      <trkpt lat="31.647719694301486" lon="-7.929463963955641">
        <ele>470.69999999999999</ele>
        <time>2019-03-16T10:46:32Z</time>
      </trkpt>
      <trkpt lat="31.647761771455407" lon="-7.9294453561306">
        <ele>470.69999999999999</ele>
        <time>2019-03-16T10:46:41Z</time>
      </trkpt>
      <trkpt lat="31.647803680971265" lon="-7.929428173229098">
        <ele>470.69999999999999</ele>
        <time>2019-03-16T10:46:48Z</time>
      </trkpt>
      <trkpt lat="31.647845925763249" lon="-7.929420461878181">
        <ele>470.69999999999999</ele>
        <time>2019-03-16T10:46:57Z</time>
      </trkpt>
      <trkpt lat="31.647891020402312" lon="-7.929426413029432">
        <ele>470.69999999999999</ele>
        <time>2019-03-16T10:47:07Z</time>
      </trkpt>
      <trkpt lat="31.647937875241041" lon="-7.929450804367662">
        <ele>471.18000000000001</ele>
        <time>2019-03-16T10:47:26Z</time>
      </trkpt>
      <trkpt lat="31.647976934909821" lon="-7.929490031674504">
        <ele>471.18000000000001</ele>
        <time>2019-03-16T10:47:40Z</time>
      </trkpt>
      <trkpt lat="31.648005852475762" lon="-7.929537557065487">
        <ele>471.18000000000001</ele>
        <time>2019-03-16T10:47:49Z</time>
      </trkpt>
      <trkpt lat="31.648022867739201" lon="-7.92959488928318">
        <ele>470.69999999999999</ele>
        <time>2019-03-16T10:48:02Z</time>
      </trkpt>
      <trkpt lat="31.648020772263408" lon="-7.929660435765982">
        <ele>469.74000000000001</ele>
        <time>2019-03-16T10:48:13Z</time>
      </trkpt>
      <trkpt lat="31.648000488057733" lon="-7.929730676114559">
        <ele>468.77999999999997</ele>
        <time>2019-03-16T10:48:14Z</time>
      </trkpt>
      <trkpt lat="31.647968217730522" lon="-7.929808041080833">
        <ele>470.22000000000003</ele>
        <time>2019-03-16T10:48:17Z</time>
      </trkpt>
      <trkpt lat="31.647910214960575" lon="-7.929982636123896">
        <ele>469.25999999999999</ele>
        <time>2019-03-16T10:48:18Z</time>
      </trkpt>
      <trkpt lat="31.647894959896803" lon="-7.930086739361286">
        <ele>469.25999999999999</ele>
        <time>2019-03-16T10:48:28Z</time>
      </trkpt>
      <trkpt lat="31.647885404527187" lon="-7.930202996358275">
        <ele>468.77999999999997</ele>
        <time>2019-03-16T10:48:41Z</time>
      </trkpt>
      <trkpt lat="31.647889763116837" lon="-7.931421641260386">
        <ele>468.30000000000001</ele>
        <time>2019-03-16T10:48:52Z</time>
      </trkpt>
      <trkpt lat="31.647956650704145" lon="-7.934202672913671">
        <ele>469.25999999999999</ele>
        <time>2019-03-16T10:49:02Z</time>
      </trkpt>
      <trkpt lat="31.648014234378934" lon="-7.93732744641602">
        <ele>468.30000000000001</ele>
        <time>2019-03-16T10:49:14Z</time>
      </trkpt>
      <trkpt lat="31.648077350109816" lon="-7.941279597580433">
        <ele>467.33999999999997</ele>
        <time>2019-03-16T10:49:20Z</time>
      </trkpt>
      <trkpt lat="31.648099813610315" lon="-7.94356525875628">
        <ele>467.33999999999997</ele>
        <time>2019-03-16T10:49:21Z</time>
      </trkpt>
      <trkpt lat="31.648100651800632" lon="-7.944105556234717">
        <ele>467.81999999999999</ele>
        <time>2019-03-16T10:49:22Z</time>
      </trkpt>
      <trkpt lat="31.648119511082768" lon="-7.94519922696054">
        <ele>467.81999999999999</ele>
        <time>2019-03-16T10:49:23Z</time>
      </trkpt>
      <trkpt lat="31.648147087544203" lon="-7.946842918172479">
        <ele>467.81999999999999</ele>
        <time>2019-03-16T10:49:24Z</time>
      </trkpt>
      <trkpt lat="31.648170053958893" lon="-7.94821503572166">
        <ele>467.81999999999999</ele>
        <time>2019-03-16T10:49:25Z</time>
      </trkpt>
      <trkpt lat="31.648184638470411" lon="-7.948894305154681">
        <ele>467.81999999999999</ele>
        <time>2019-03-16T10:49:31Z</time>
      </trkpt>
      <trkpt lat="31.648201905190945" lon="-7.950301459059119">
        <ele>467.81999999999999</ele>
        <time>2019-03-16T10:49:44Z</time>
      </trkpt>
      <trkpt lat="31.648243982344866" lon="-7.95169117860496">
        <ele>467.81999999999999</ele>
        <time>2019-03-16T10:49:54Z</time>
      </trkpt>
      <trkpt lat="31.648266026750207" lon="-7.951816320419312">
        <ele>467.81999999999999</ele>
        <time>2019-03-16T10:50:34Z</time>
      </trkpt>
      <trkpt lat="31.648306930437684" lon="-7.951925536617637">
        <ele>467.81999999999999</ele>
        <time>2019-03-16T10:50:45Z</time>
      </trkpt>
      <trkpt lat="31.648388234898448" lon="-7.952101891860366">
        <ele>465.89999999999998</ele>
        <time>2019-03-16T10:50:54Z</time>
      </trkpt>
      <trkpt lat="31.648392593488097" lon="-7.952194763347507">
        <ele>465.42000000000002</ele>
        <time>2019-03-16T10:51:04Z</time>
      </trkpt>
      <trkpt lat="31.648362502455711" lon="-7.952291406691074">
        <ele>464.93000000000001</ele>
        <time>2019-03-16T10:51:17Z</time>
      </trkpt>
      <trkpt lat="31.648278934881091" lon="-7.952505312860012">
        <ele>464.93000000000001</ele>
        <time>2019-03-16T10:51:31Z</time>
      </trkpt>
      <trkpt lat="31.648262087255716" lon="-7.952624587342143">
        <ele>465.42000000000002</ele>
        <time>2019-03-16T10:51:42Z</time>
      </trkpt>
      <trkpt lat="31.648261332884431" lon="-7.952756183221936">
        <ele>463.00999999999999</ele>
        <time>2019-03-16T10:51:54Z</time>
      </trkpt>
      <trkpt lat="31.648289496079087" lon="-7.954177334904671">
        <ele>462.05000000000001</ele>
        <time>2019-03-16T10:52:06Z</time>
      </trkpt>
      <trkpt lat="31.648310869932175" lon="-7.955725472420454">
        <ele>461.56999999999999</ele>
        <time>2019-03-16T10:52:23Z</time>
      </trkpt>
      <trkpt lat="31.648356467485428" lon="-7.958612535148859">
        <ele>461.56999999999999</ele>
        <time>2019-03-16T10:52:37Z</time>
      </trkpt>
      <trkpt lat="31.648383373394608" lon="-7.961345203220844">
        <ele>460.61000000000001</ele>
        <time>2019-03-16T10:52:45Z</time>
      </trkpt>
      <trkpt lat="31.648267116397619" lon="-7.96339332126081">
        <ele>459.64999999999998</ele>
        <time>2019-03-16T10:52:55Z</time>
      </trkpt>
      <trkpt lat="31.648068632930517" lon="-7.964966604486108">
        <ele>460.13</ele>
        <time>2019-03-16T10:53:08Z</time>
      </trkpt>
      <trkpt lat="31.647462286055088" lon="-7.968955133110285">
        <ele>460.13</ele>
        <time>2019-03-16T10:53:14Z</time>
      </trkpt>
      <trkpt lat="31.646844120696187" lon="-7.972477963194251">
        <ele>460.13</ele>
        <time>2019-03-16T10:53:15Z</time>
      </trkpt>
      <trkpt lat="31.646511945873499" lon="-7.974344361573458">
        <ele>461.56999999999999</ele>
        <time>2019-03-16T10:53:16Z</time>
      </trkpt>
      <trkpt lat="31.64618706330657" lon="-7.976523572579026">
        <ele>461.56999999999999</ele>
        <time>2019-03-16T10:53:17Z</time>
      </trkpt>
      <trkpt lat="31.646036943420768" lon="-7.977522276341915">
        <ele>461.56999999999999</ele>
        <time>2019-03-16T10:53:18Z</time>
      </trkpt>
      <trkpt lat="31.646014228463173" lon="-7.977614896371961">
        <ele>461.08999999999997</ele>
        <time>2019-03-16T10:53:19Z</time>
      </trkpt>
      <trkpt lat="31.645959243178368" lon="-7.977901389822364">
        <ele>460.13</ele>
        <time>2019-03-16T10:53:27Z</time>
      </trkpt>
      <trkpt lat="31.645795041695237" lon="-7.979035880416632">
        <ele>459.64999999999998</ele>
        <time>2019-03-16T10:53:37Z</time>
      </trkpt>
      <trkpt lat="31.645657075569034" lon="-7.979896031320095">
        <ele>459.64999999999998</ele>
        <time>2019-03-16T10:53:46Z</time>
      </trkpt>
      <trkpt lat="31.645578453317285" lon="-7.980410596355796">
        <ele>460.61000000000001</ele>
      </trkpt>
      <trkpt lat="31.645543165504932" lon="-7.980705806985498">
        <ele>461.08999999999997</ele>
      </trkpt>
      <trkpt lat="31.645442247390747" lon="-7.981367306783795">
        <ele>460.13</ele>
      </trkpt>
      <trkpt lat="31.645402684807777" lon="-7.981588337570429">
        <ele>460.13</ele>
      </trkpt>
      <trkpt lat="31.645382903516293" lon="-7.981766285374761">
        <ele>459.64999999999998</ele>
      </trkpt>
      <trkpt lat="31.64528165012598" lon="-7.982408255338669">
        <ele>458.69</ele>
      </trkpt>
      <trkpt lat="31.645165057852864" lon="-7.983125662431121">
        <ele>458.20999999999998</ele>
      </trkpt>
      <trkpt lat="31.645069504156709" lon="-7.983778780326247">
        <ele>458.20999999999998</ele>
      </trkpt>
      <trkpt lat="31.644938578829169" lon="-7.985023325309157">
        <ele>458.20999999999998</ele>
      </trkpt>
      <trkpt lat="31.644907984882593" lon="-7.985303029417992">
        <ele>458.20999999999998</ele>
      </trkpt>
      <trkpt lat="31.644867165014148" lon="-7.985705276951194">
        <ele>457.72000000000003</ele>
      </trkpt>
      <trkpt lat="31.644809078425169" lon="-7.986420672386885">
        <ele>457.24000000000001</ele>
      </trkpt>
      <trkpt lat="31.644792733713984" lon="-7.986594932153821">
        <ele>457.24000000000001</ele>
      </trkpt>
      <trkpt lat="31.644785944372416" lon="-7.987170433625579">
        <ele>457.72000000000003</ele>
      </trkpt>
      <trkpt lat="31.644805055111647" lon="-7.987231956794858">
        <ele>457.24000000000001</ele>
      </trkpt>
      <trkpt lat="31.644828272983432" lon="-7.987282583490014">
        <ele>457.24000000000001</ele>
      </trkpt>
      <trkpt lat="31.644878732040524" lon="-7.987470421940088">
        <ele>457.24000000000001</ele>
      </trkpt>
      <trkpt lat="31.644869847223163" lon="-7.987529681995511">
        <ele>456.75999999999999</ele>
      </trkpt>
      <trkpt lat="31.644849814474583" lon="-7.987601095810533">
        <ele>456.27999999999997</ele>
      </trkpt>
      <trkpt lat="31.644661305472255" lon="-7.988374661654234">
        <ele>457.72000000000003</ele>
      </trkpt>
      <trkpt lat="31.644533397629857" lon="-7.989987758919597">
        <ele>458.20999999999998</ele>
      </trkpt>
      <trkpt lat="31.644453266635537" lon="-7.991282595321536">
        <ele>458.69</ele>
      </trkpt>
      <trkpt lat="31.644378248602152" lon="-7.992286998778582">
        <ele>460.13</ele>
      </trkpt>
      <trkpt lat="31.644124360755086" lon="-7.993363318964839">
        <ele>460.61000000000001</ele>
      </trkpt>
      <trkpt lat="31.64338088594377" lon="-7.994624124839902">
        <ele>461.08999999999997</ele>
      </trkpt>
      <trkpt lat="31.642527021467686" lon="-7.995381597429514">
        <ele>462.05000000000001</ele>
      </trkpt>
      <trkpt lat="31.642199875786901" lon="-7.995661552995443">
        <ele>462.05000000000001</ele>
      </trkpt>
      <trkpt lat="31.641760496422648" lon="-7.996013090014458">
        <ele>462.05000000000001</ele>
      </trkpt>
      <trkpt lat="31.640857011079788" lon="-7.996710380539298">
        <ele>462.05000000000001</ele>
      </trkpt>
      <trkpt lat="31.639066049829125" lon="-7.998113678768277">
        <ele>463.00999999999999</ele>
      </trkpt>
      <trkpt lat="31.637992998585105" lon="-7.998962514102459">
        <ele>463.00999999999999</ele>
      </trkpt>
      <trkpt lat="31.637777416035533" lon="-7.999132834374905">
        <ele>464.44999999999999</ele>
      </trkpt>
      <trkpt lat="31.637618662789464" lon="-7.999288570135832">
        <ele>464.44999999999999</ele>
      </trkpt>
      <trkpt lat="31.637329570949078" lon="-7.999544804915786">
        <ele>463.49000000000001</ele>
      </trkpt>
      <trkpt lat="31.637270729988813" lon="-7.999564167112112">
        <ele>465.42000000000002</ele>
      </trkpt>
      <trkpt lat="31.637046346440911" lon="-7.999643376097083">
        <ele>464.93000000000001</ele>
      </trkpt>
      <trkpt lat="31.636971160769463" lon="-7.999686794355512">
        <ele>464.44999999999999</ele>
      </trkpt>
      <trkpt lat="31.636314187198877" lon="-8.000154923647642">
        <ele>463.97000000000003</ele>
      </trkpt>
      <trkpt lat="31.635613376274705" lon="-8.000646103173494">
        <ele>463.97000000000003</ele>
      </trkpt>
      <trkpt lat="31.635243818163872" lon="-8.000863026827574">
        <ele>463.97000000000003</ele>
      </trkpt>
      <trkpt lat="31.634855316951871" lon="-8.001123033463955">
        <ele>463.97000000000003</ele>
      </trkpt>
      <trkpt lat="31.634273193776608" lon="-8.001573728397489">
        <ele>463.97000000000003</ele>
      </trkpt>
      <trkpt lat="31.633958704769611" lon="-8.001835159957409">
        <ele>463.49000000000001</ele>
      </trkpt>
      <trkpt lat="31.633916962891817" lon="-8.001887463033199">
        <ele>462.05000000000001</ele>
      </trkpt>
      <trkpt lat="31.63388242945075" lon="-8.001959966495633">
        <ele>461.56999999999999</ele>
      </trkpt>
      <trkpt lat="31.633861307054758" lon="-8.002047808840871">
        <ele>462.52999999999997</ele>
      </trkpt>
      <trkpt lat="31.633851500228047" lon="-8.002140428870916">
        <ele>463.00999999999999</ele>
      </trkpt>
      <trkpt lat="31.6338452976197" lon="-8.002232126891613">
        <ele>463.49000000000001</ele>
      </trkpt>
      <trkpt lat="31.633783020079136" lon="-8.00265901722014">
        <ele>464.93000000000001</ele>
      </trkpt>
      <trkpt lat="31.633648741990328" lon="-8.003307357430458">
        <ele>464.93000000000001</ele>
      </trkpt>
      <trkpt lat="31.633598115295172" lon="-8.003523107618094">
        <ele>463.49000000000001</ele>
      </trkpt>
      <trkpt lat="31.633594762533903" lon="-8.003528472036123">
        <ele>463.49000000000001</ele>
      </trkpt>
      <trkpt lat="31.633526533842087" lon="-8.003799542784691">
        <ele>464.44999999999999</ele>
      </trkpt>
      <trkpt lat="31.633375408127904" lon="-8.004435142502189">
        <ele>466.38</ele>
      </trkpt>
      <trkpt lat="31.633106349036098" lon="-8.005506098270416">
        <ele>465.89999999999998</ele>
      </trkpt>
      <trkpt lat="31.632762188091874" lon="-8.006903864443302">
        <ele>465.89999999999998</ele>
      </trkpt>
      <trkpt lat="31.632439652457833" lon="-8.008285788819194">
        <ele>465.89999999999998</ele>
      </trkpt>
      <trkpt lat="31.63220152258873" lon="-8.009076369926333">
        <ele>465.89999999999998</ele>
      </trkpt>
      <trkpt lat="31.631936151534319" lon="-8.00993325188756">
        <ele>464.93000000000001</ele>
      </trkpt>
      <trkpt lat="31.631562486290932" lon="-8.011156339198351">
        <ele>463.97000000000003</ele>
      </trkpt>
      <trkpt lat="31.63102931343019" lon="-8.01302625797689">
        <ele>463.49000000000001</ele>
      </trkpt>
      <trkpt lat="31.630666796118021" lon="-8.014278095215559">
        <ele>463.00999999999999</ele>
      </trkpt>
      <trkpt lat="31.630590856075287" lon="-8.014495605602861">
        <ele>463.00999999999999</ele>
      </trkpt>
      <trkpt lat="31.630495470017195" lon="-8.014739518985152">
        <ele>463.00999999999999</ele>
      </trkpt>
      <trkpt lat="31.630247868597507" lon="-8.015622217208147">
        <ele>462.52999999999997</ele>
      </trkpt>
      <trkpt lat="31.630224986001849" lon="-8.016036618500948">
        <ele>461.08999999999997</ele>
      </trkpt>
      <trkpt lat="31.630215514451265" lon="-8.016114570200443">
        <ele>461.56999999999999</ele>
      </trkpt>
      <trkpt lat="31.630197325721383" lon="-8.016180032864213">
        <ele>462.05000000000001</ele>
      </trkpt>
      <trkpt lat="31.630174778401852" lon="-8.016226384788752"/>
      <trkpt lat="31.630153823643923" lon="-8.016254296526313"/>
      <trkpt lat="31.630135718733072" lon="-8.016269467771053"/>
      <trkpt lat="31.630035303533077" lon="-8.016290422528982"/>
      <trkpt lat="31.629727687686682" lon="-8.016047598794103"/>
      <trkpt lat="31.629383945837617" lon="-8.015846852213144"/>
      <trkpt lat="31.629350837320089" lon="-8.015828663483262"/>
      <trkpt lat="31.629305994138122" lon="-8.015795722603798"/>
      <trkpt lat="31.629248494282365" lon="-8.015914242714644"/>
      <trkpt lat="31.62923407740891" lon="-8.015929581597447">
        <ele>469.09857199999999</ele>
        <time>2019-04-16T09:37:41Z</time>
      </trkpt>
      <trkpt lat="31.776653984561563" lon="-7.98278602771461">
        <ele>231.628998</ele>
        <time>2019-03-16T11:51:32Z</time>
      </trkpt>
      <trkpt lat="33.232028977945447" lon="-7.572071012109518">
        <ele>199.465485</ele>
        <time>2019-03-16T14:08:31Z</time>
      </trkpt>
      <trkpt lat="33.368420982733369" lon="-7.620166959241033">
        <ele>142.603928</ele>
        <time>2019-03-16T14:22:01Z</time>
      </trkpt>
      <trkpt lat="33.49655999802053" lon="-7.628567973151803">
        <ele>138.207809</ele>
        <time>2019-03-16T14:32:16Z</time>
      </trkpt>
      <trkpt lat="33.567500989884138" lon="-7.468327023088932">
        <ele>19.175377000000001</ele>
        <time>2019-03-16T14:44:07Z</time>
      </trkpt>
      <trkpt lat="33.797625973820686" lon="-7.172934003174305">
        <ele>33.609909000000002</ele>
        <time>2019-03-16T15:35:25Z</time>
      </trkpt>
      <trkpt lat="33.872184008359909" lon="-7.013453962281346">
        <ele>148.668442</ele>
        <time>2019-03-16T15:51:07Z</time>
      </trkpt>
      <trkpt lat="33.964718962088227" lon="-6.74158500507474">
        <ele>143.53619399999999</ele>
        <time>2019-03-16T16:23:59Z</time>
      </trkpt>
      <trkpt lat="33.973238999024034" lon="-6.73806301318109">
        <ele>162.40154999999999</ele>
        <time>2019-03-16T16:26:00Z</time>
      </trkpt>
      <trkpt lat="34.010904002934694" lon="-6.683736965060234">
        <ele>135.63028</ele>
        <time>2019-03-16T16:33:24Z</time>
      </trkpt>
      <trkpt lat="34.031725991517305" lon="-6.690636025741696">
        <ele>135.188751</ele>
        <time>2019-03-16T16:40:47Z</time>
      </trkpt>
      <trkpt lat="34.050648976117373" lon="-6.673852019011974">
        <ele>129.308075</ele>
        <time>2019-03-16T16:44:12Z</time>
      </trkpt>
      <trkpt lat="34.082431979477406" lon="-6.655448963865638">
        <ele>117.02853399999999</ele>
        <time>2019-03-16T16:50:43Z</time>
      </trkpt>
      <trkpt lat="34.181178007274866" lon="-6.581812016665936">
        <ele>30.032314</ele>
        <time>2019-03-16T17:09:14Z</time>
      </trkpt>
      <trkpt lat="34.227854982018471" lon="-6.522859996184707">
        <ele>26.956879000000001</ele>
        <time>2019-03-16T17:22:33Z</time>
      </trkpt>
      <trkpt lat="34.226163011044264" lon="-6.506822984665632">
        <ele>25.684376</ele>
        <time>2019-03-16T17:25:26Z</time>
      </trkpt>
      <trkpt lat="34.246607981622219" lon="-6.510656028985977">
        <ele>29.596572999999999</ele>
        <time>2019-03-16T17:31:02Z</time>
      </trkpt>
      <trkpt lat="34.2462860327214" lon="-6.507725967094302">
        <ele>35.071705000000001</ele>
        <time>2019-03-16T17:31:41Z</time>
      </trkpt>
      <trkpt lat="34.288640962913632" lon="-6.459368001669645">
        <ele>17.366085000000002</ele>
        <time>2019-03-16T17:46:49Z</time>
      </trkpt>
      <trkpt lat="34.292466966435313" lon="-6.499859970062971">
        <ele>0</ele>
        <time>2019-03-16T17:53:44Z</time>
      </trkpt>
      <trkpt lat="34.308023527264595" lon="-6.50857413187623">
        <ele>0</ele>
        <time>2019-04-16T10:04:38Z</time>
      </trkpt>
      <trkpt lat="34.642189387232065" lon="-6.408318020403385">
        <ele>0</ele>
        <time>2019-04-16T10:08:27Z</time>
      </trkpt>
      <trkpt lat="35.677979970350862" lon="-5.92760045081377">
        <ele>462.05000000000001</ele>
        <time>2019-04-16T10:14:10Z</time>
      </trkpt>
      <trkpt lat="35.777227822691202" lon="-5.799824539572001">
        <ele>461.56999999999999</ele>
        <time>2019-04-16T10:20:20Z</time>
      </trkpt>
      <trkpt lat="31.629248494282365" lon="-8.015914242714644">
        <ele>462.52999999999997</ele>
        <time>2019-03-16T11:26:01Z</time>
      </trkpt>
      <trkpt lat="31.629305994138122" lon="-8.015795722603798">
        <ele>463.00999999999999</ele>
        <time>2019-03-16T11:26:08Z</time>
      </trkpt>
      <trkpt lat="31.628623958677053" lon="-8.015286102890968">
        <ele>463.00999999999999</ele>
        <time>2019-03-16T11:26:18Z</time>
      </trkpt>
      <trkpt lat="31.628205114975572" lon="-8.015019223093987">
        <ele>463.00999999999999</ele>
        <time>2019-03-16T11:26:21Z</time>
      </trkpt>
      <trkpt lat="31.627333899959922" lon="-8.014456126838923">
        <ele>463.00999999999999</ele>
        <time>2019-03-16T11:26:22Z</time>
      </trkpt>
      <trkpt lat="31.62714178673923" lon="-8.01431329920888">
        <ele>463.00999999999999</ele>
        <time>2019-03-16T11:26:23Z</time>
      </trkpt>
      <trkpt lat="31.627101553604007" lon="-8.01425663754344">
        <ele>463.00999999999999</ele>
        <time>2019-03-16T11:26:24Z</time>
      </trkpt>
      <trkpt lat="31.627085795626044" lon="-8.01419410854578">
        <ele>462.52999999999997</ele>
        <time>2019-03-16T11:26:25Z</time>
      </trkpt>
      <trkpt lat="31.627086717635393" lon="-8.014140129089356">
        <ele>462.52999999999997</ele>
        <time>2019-03-16T11:26:26Z</time>
      </trkpt>
      <trkpt lat="31.627099709585309" lon="-8.014097046107054">
        <ele>462.52999999999997</ele>
        <time>2019-03-16T11:26:27Z</time>
      </trkpt>
      <trkpt lat="31.627119826152921" lon="-8.014062093570828">
        <ele>462.52999999999997</ele>
        <time>2019-03-16T11:26:28Z</time>
      </trkpt>
      <trkpt lat="31.627153689041734" lon="-8.014036864042282">
        <ele>462.52999999999997</ele>
        <time>2019-03-16T11:26:29Z</time>
      </trkpt>
      <trkpt lat="31.627197945490479" lon="-8.014022279530764">
        <ele>462.52999999999997</ele>
        <time>2019-03-16T11:26:30Z</time>
      </trkpt>
      <trkpt lat="31.627252427861094" lon="-8.014027057215571">
        <ele>461.08999999999997</ele>
        <time>2019-03-16T11:26:31Z</time>
      </trkpt>
      <trkpt lat="31.627311771735549" lon="-8.014052622020245">
        <ele>459.64999999999998</ele>
        <time>2019-03-16T11:26:32Z</time>
      </trkpt>
      <trkpt lat="31.627375055104494" lon="-8.01409000530839">
        <ele>459.64999999999998</ele>
        <time>2019-03-16T11:26:45Z</time>
      </trkpt>
      <trkpt lat="31.627441104501486" lon="-8.01413401030004">
        <ele>459.17000000000002</ele>
        <time>2019-03-16T11:26:59Z</time>
      </trkpt>
      <trkpt lat="31.628456236794591" lon="-8.014811016619206">
        <ele>459.64999999999998</ele>
        <time>2019-03-16T11:27:08Z</time>
      </trkpt>
      <trkpt lat="31.629550913348794" lon="-8.015535464510322">
        <ele>460.61000000000001</ele>
        <time>2019-03-16T11:27:19Z</time>
      </trkpt>
      <trkpt lat="31.630091043189168" lon="-8.015861939638853">
        <ele>461.08999999999997</ele>
        <time>2019-03-16T11:27:27Z</time>
      </trkpt>
      <trkpt lat="31.630781795829535" lon="-8.016108367592096">
        <ele>459.64999999999998</ele>
        <time>2019-03-16T11:27:42Z</time>
      </trkpt>
      <trkpt lat="31.63110014051199" lon="-8.016198389232159">
        <ele>457.72000000000003</ele>
        <time>2019-03-16T11:27:52Z</time>
      </trkpt>
      <trkpt lat="31.631223103031516" lon="-8.016240801662207">
        <ele>459.64999999999998</ele>
        <time>2019-03-16T11:28:06Z</time>
      </trkpt>
      <trkpt lat="31.631756611168385" lon="-8.016373738646507">
        <ele>460.61000000000001</ele>
        <time>2019-03-16T11:28:18Z</time>
      </trkpt>
      <trkpt lat="31.632987828925252" lon="-8.016651012003422">
        <ele>458.20999999999998</ele>
        <time>2019-03-16T11:28:26Z</time>
      </trkpt>
      <trkpt lat="31.634076554328203" lon="-8.016927111893892">
        <ele>457.24000000000001</ele>
        <time>2019-03-16T11:28:50Z</time>
      </trkpt>
      <trkpt lat="31.634119469672441" lon="-8.016943372786045">
        <ele>458.69</ele>
        <time>2019-03-16T11:29:00Z</time>
      </trkpt>
      <trkpt lat="31.634247209876776" lon="-8.016982516273856">
        <ele>459.64999999999998</ele>
        <time>2019-03-16T11:29:13Z</time>
      </trkpt>
      <trkpt lat="31.634992863982916" lon="-8.017147723585367">
        <ele>459.17000000000002</ele>
        <time>2019-03-16T11:29:20Z</time>
      </trkpt>
      <trkpt lat="31.636261129751801" lon="-8.017483083531261">
        <ele>459.64999999999998</ele>
        <time>2019-03-16T11:29:28Z</time>
      </trkpt>
      <trkpt lat="31.636691289022565" lon="-8.017589617520571">
        <ele>458.69</ele>
        <time>2019-03-16T11:29:36Z</time>
      </trkpt>
      <trkpt lat="31.637151120230556" lon="-8.017670251429081">
        <ele>459.64999999999998</ele>
        <time>2019-03-16T11:29:47Z</time>
      </trkpt>
      <trkpt lat="31.63750609382987" lon="-8.017741832882166">
        <ele>460.13</ele>
        <time>2019-03-16T11:30:00Z</time>
      </trkpt>
      <trkpt lat="31.638409998267889" lon="-8.017977112904191">
        <ele>458.69</ele>
        <time>2019-03-16T11:30:13Z</time>
      </trkpt>
      <trkpt lat="31.639746744185686" lon="-8.018333511427045">
        <ele>455.80000000000001</ele>
        <time>2019-03-16T11:30:23Z</time>
      </trkpt>
      <trkpt lat="31.640941081568599" lon="-8.018621262162924">
        <ele>453.88</ele>
        <time>2019-03-16T11:30:37Z</time>
      </trkpt>
      <trkpt lat="31.641754796728492" lon="-8.018817566335201">
        <ele>451.95999999999998</ele>
        <time>2019-03-16T11:30:48Z</time>
      </trkpt>
      <trkpt lat="31.643263623118401" lon="-8.019181592389941">
        <ele>449.06999999999999</ele>
        <time>2019-03-16T11:31:00Z</time>
      </trkpt>
      <trkpt lat="31.644210023805499" lon="-8.019389379769564">
        <ele>447.14999999999998</ele>
        <time>2019-03-16T11:31:07Z</time>
      </trkpt>
      <trkpt lat="31.644974369555712" lon="-8.019543690606952">
        <ele>446.19</ele>
        <time>2019-03-16T11:31:21Z</time>
      </trkpt>
      <trkpt lat="31.645552217960358" lon="-8.019647039473057">
        <ele>446.19</ele>
        <time>2019-03-16T11:31:36Z</time>
      </trkpt>
      <trkpt lat="31.647077053785324" lon="-8.019921546801925">
        <ele>446.19</ele>
        <time>2019-03-16T11:31:42Z</time>
      </trkpt>
      <trkpt lat="31.648846222087741" lon="-8.020272916182876">
        <ele>445.23000000000002</ele>
        <time>2019-03-16T11:32:02Z</time>
      </trkpt>
      <trkpt lat="31.649083429947495" lon="-8.020324464887381">
        <ele>443.31</ele>
        <time>2019-03-16T11:32:20Z</time>
      </trkpt>
      <trkpt lat="31.649084184318781" lon="-8.020327147096396">
        <ele>442.33999999999997</ele>
        <time>2019-03-16T11:32:30Z</time>
      </trkpt>
      <trkpt lat="31.649262383580208" lon="-8.020369727164507">
        <ele>440.89999999999998</ele>
        <time>2019-03-16T11:32:40Z</time>
      </trkpt>
      <trkpt lat="31.649847105145454" lon="-8.020466957241297">
        <ele>441.38</ele>
        <time>2019-03-16T11:32:52Z</time>
      </trkpt>
      <trkpt lat="31.650612959638238" lon="-8.020382719114423">
        <ele>440.89999999999998</ele>
        <time>2019-03-16T11:33:06Z</time>
      </trkpt>
      <trkpt lat="31.651576207950711" lon="-8.02003713324666">
        <ele>439.94</ele>
        <time>2019-03-16T11:33:14Z</time>
      </trkpt>
      <trkpt lat="31.652784375473857" lon="-8.019561124965549">
        <ele>440.42000000000002</ele>
        <time>2019-03-16T11:33:24Z</time>
      </trkpt>
      <trkpt lat="31.653111604973674" lon="-8.019443610683084">
        <ele>440.42000000000002</ele>
        <time>2019-03-16T11:33:35Z</time>
      </trkpt>
      <trkpt lat="31.653287541121244" lon="-8.019370185211301">
        <ele>440.89999999999998</ele>
        <time>2019-03-16T11:33:39Z</time>
      </trkpt>
      <trkpt lat="31.653928756713867" lon="-8.01905351690948">
        <ele>440.89999999999998</ele>
        <time>2019-03-16T11:33:40Z</time>
      </trkpt>
      <trkpt lat="31.654095808044076" lon="-8.018904402852058">
        <ele>440.89999999999998</ele>
        <time>2019-03-16T11:33:41Z</time>
      </trkpt>
      <trkpt lat="31.654134448617697" lon="-8.018881268799305">
        <ele>440.89999999999998</ele>
        <time>2019-03-16T11:33:42Z</time>
      </trkpt>
      <trkpt lat="31.654171328991652" lon="-8.018864756450057">
        <ele>441.38</ele>
        <time>2019-03-16T11:33:43Z</time>
      </trkpt>
      <trkpt lat="31.654207538813353" lon="-8.018854446709156">
        <ele>441.38</ele>
        <time>2019-03-16T11:33:44Z</time>
      </trkpt>
      <trkpt lat="31.654244419187307" lon="-8.018847405910492">
        <ele>441.86000000000001</ele>
        <time>2019-03-16T11:33:45Z</time>
      </trkpt>
      <trkpt lat="31.65428901091218" lon="-8.018846735358238">
        <ele>441.86000000000001</ele>
        <time>2019-03-16T11:33:46Z</time>
      </trkpt>
      <trkpt lat="31.654341565445065" lon="-8.018855201080442">
        <ele>441.86000000000001</ele>
        <time>2019-03-16T11:33:47Z</time>
      </trkpt>
      <trkpt lat="31.654406022280455" lon="-8.018866013735533">
        <ele>441.86000000000001</ele>
        <time>2019-03-16T11:33:48Z</time>
      </trkpt>
      <trkpt lat="31.654481794685125" lon="-8.018866265192628">
        <ele>439.45999999999998</ele>
        <time>2019-03-16T11:33:49Z</time>
      </trkpt>
      <trkpt lat="31.654567122459412" lon="-8.018851010128856">
        <ele>437.06</ele>
        <time>2019-03-16T11:33:50Z</time>
      </trkpt>
      <trkpt lat="31.654653623700142" lon="-8.018825277686119">
        <ele>437.06</ele>
        <time>2019-03-16T11:34:02Z</time>
      </trkpt>
      <trkpt lat="31.65474196895957" lon="-8.018791498616338">
        <ele>436.57999999999998</ele>
        <time>2019-03-16T11:34:14Z</time>
      </trkpt>
      <trkpt lat="31.655937563627958" lon="-8.018313897773624">
        <ele>436.10000000000002</ele>
        <time>2019-03-16T11:34:21Z</time>
      </trkpt>
      <trkpt lat="31.657234579324722" lon="-8.017765302211046">
        <ele>434.64999999999998</ele>
        <time>2019-03-16T11:34:35Z</time>
      </trkpt>
      <trkpt lat="31.657478073611856" lon="-8.017638316377997">
        <ele>433.69</ele>
        <time>2019-03-16T11:34:44Z</time>
      </trkpt>
      <trkpt lat="31.657697763293982" lon="-8.017508899793029">
        <ele>434.17000000000002</ele>
        <time>2019-03-16T11:34:53Z</time>
      </trkpt>
      <trkpt lat="31.658300086855888" lon="-8.017097599804401">
        <ele>431.29000000000002</ele>
        <time>2019-03-16T11:35:10Z</time>
      </trkpt>
      <trkpt lat="31.659313710406423" lon="-8.016429226845503">
        <ele>427.92000000000002</ele>
        <time>2019-03-16T11:35:25Z</time>
      </trkpt>
      <trkpt lat="31.661311453208327" lon="-8.015094827860594">
        <ele>428.39999999999998</ele>
        <time>2019-03-16T11:35:44Z</time>
      </trkpt>
      <trkpt lat="31.663102163001895" lon="-8.013893868774176">
        <ele>429.37</ele>
        <time>2019-03-16T11:35:57Z</time>
      </trkpt>
      <trkpt lat="31.665162770077586" lon="-8.012518314644694">
        <ele>429.37</ele>
        <time>2019-03-16T11:36:02Z</time>
      </trkpt>
      <trkpt lat="31.666424078866839" lon="-8.011675011366606">
        <ele>428.88999999999999</ele>
        <time>2019-03-16T11:36:31Z</time>
      </trkpt>
      <trkpt lat="31.666502617299557" lon="-8.011615332216024">
        <ele>428.39999999999998</ele>
        <time>2019-03-16T11:36:41Z</time>
      </trkpt>
      <trkpt lat="31.666573276743293" lon="-8.011558167636395">
        <ele>428.39999999999998</ele>
        <time>2019-03-16T11:36:47Z</time>
      </trkpt>
      <trkpt lat="31.666996814310551" lon="-8.011213839054108">
        <ele>428.39999999999998</ele>
        <time>2019-03-16T11:36:48Z</time>
      </trkpt>
      <trkpt lat="31.667149364948273" lon="-8.011018373072147">
        <ele>428.39999999999998</ele>
        <time>2019-03-16T11:36:49Z</time>
      </trkpt>
      <trkpt lat="31.667189681902528" lon="-8.010990377515554">
        <ele>428.88999999999999</ele>
        <time>2019-03-16T11:36:50Z</time>
      </trkpt>
      <trkpt lat="31.667231423780322" lon="-8.010970260947943">
        <ele>428.88999999999999</ele>
        <time>2019-03-16T11:36:51Z</time>
      </trkpt>
      <trkpt lat="31.667280793190002" lon="-8.010954083874822">
        <ele>428.39999999999998</ele>
        <time>2019-03-16T11:36:53Z</time>
      </trkpt>
      <trkpt lat="31.667341478168964" lon="-8.010942684486508">
        <ele>427.44</ele>
        <time>2019-03-16T11:36:54Z</time>
      </trkpt>
      <trkpt lat="31.667489251121879" lon="-8.010899433866143">
        <ele>426.48000000000002</ele>
        <time>2019-03-16T11:36:55Z</time>
      </trkpt>
      <trkpt lat="31.667566364631057" lon="-8.010857524350286">
        <ele>424.56</ele>
        <time>2019-03-16T11:37:04Z</time>
      </trkpt>
      <trkpt lat="31.66764909401536" lon="-8.010803041979671">
        <ele>423.60000000000002</ele>
        <time>2019-03-16T11:37:13Z</time>
      </trkpt>
      <trkpt lat="31.668593734502792" lon="-8.010109690949321">
        <ele>419.75</ele>
        <time>2019-03-16T11:37:30Z</time>
      </trkpt>
      <trkpt lat="31.669367384165525" lon="-8.009285498410463">
        <ele>415.91000000000003</ele>
        <time>2019-03-16T11:37:46Z</time>
      </trkpt>
      <trkpt lat="31.670935386791825" lon="-8.007596293464303">
        <ele>416.38999999999999</ele>
        <time>2019-03-16T11:38:07Z</time>
      </trkpt>
      <trkpt lat="31.672638338059187" lon="-8.005773313343525">
        <ele>416.87</ele>
        <time>2019-03-16T11:38:26Z</time>
      </trkpt>
      <trkpt lat="31.674908995628357" lon="-8.003340633586049">
        <ele>416.87</ele>
        <time>2019-03-16T11:38:35Z</time>
      </trkpt>
      <trkpt lat="31.676765503361821" lon="-8.001358229666948">
        <ele>416.38999999999999</ele>
        <time>2019-03-16T11:38:44Z</time>
      </trkpt>
      <trkpt lat="31.677365228533745" lon="-8.000753642991185">
        <ele>415.43000000000001</ele>
        <time>2019-03-16T11:38:54Z</time>
      </trkpt>
      <trkpt lat="31.677575195208192" lon="-8.000523895025253">
        <ele>414.94999999999999</ele>
        <time>2019-03-16T11:39:02Z</time>
      </trkpt>
      <trkpt lat="31.678097639232874" lon="-7.999970186501741">
        <ele>414.94999999999999</ele>
        <time>2019-03-16T11:39:16Z</time>
      </trkpt>
      <trkpt lat="31.678778165951371" lon="-7.999226544052362">
        <ele>414.47000000000003</ele>
        <time>2019-03-16T11:39:18Z</time>
      </trkpt>
      <trkpt lat="31.680065039545298" lon="-7.997842021286488">
        <ele>414.47000000000003</ele>
        <time>2019-03-16T11:39:19Z</time>
      </trkpt>
      <trkpt lat="31.680162353441119" lon="-7.997706150636077">
        <ele>414.47000000000003</ele>
        <time>2019-03-16T11:39:20Z</time>
      </trkpt>
      <trkpt lat="31.68019319884479" lon="-7.997629875317216">
        <ele>414.47000000000003</ele>
        <time>2019-03-16T11:39:22Z</time>
      </trkpt>
      <trkpt lat="31.680211219936609" lon="-7.997551755979657">
        <ele>414.47000000000003</ele>
        <time>2019-03-16T11:39:23Z</time>
      </trkpt>
      <trkpt lat="31.680238712579012" lon="-7.997419992461801">
        <ele>414.47000000000003</ele>
        <time>2019-03-16T11:39:24Z</time>
      </trkpt>
      <trkpt lat="31.680266289040446" lon="-7.997369198128581">
        <ele>414.47000000000003</ele>
        <time>2019-03-16T11:39:25Z</time>
      </trkpt>
      <trkpt lat="31.680308785289526" lon="-7.997327204793692">
        <ele>414.47000000000003</ele>
        <time>2019-03-16T11:39:26Z</time>
      </trkpt>
      <trkpt lat="31.68036955408752" lon="-7.997293593361974">
        <ele>414.47000000000003</ele>
        <time>2019-03-16T11:39:27Z</time>
      </trkpt>
      <trkpt lat="31.680446164682508" lon="-7.997266352176666">
        <ele>413.98000000000002</ele>
        <time>2019-03-16T11:39:28Z</time>
      </trkpt>
      <trkpt lat="31.680529396981001" lon="-7.997237266972661">
        <ele>413.98000000000002</ele>
        <time>2019-03-16T11:39:29Z</time>
      </trkpt>
      <trkpt lat="31.680614808574319" lon="-7.997190747410059">
        <ele>413.01999999999998</ele>
        <time>2019-03-16T11:39:30Z</time>
      </trkpt>
      <trkpt lat="31.680703489109874" lon="-7.997125284746289">
        <ele>412.06</ele>
        <time>2019-03-16T11:39:31Z</time>
      </trkpt>
      <trkpt lat="31.680798204615712" lon="-7.997041633352637">
        <ele>410.13999999999999</ele>
        <time>2019-03-16T11:39:41Z</time>
      </trkpt>
      <trkpt lat="31.680900044739246" lon="-7.996942894533277">
        <ele>409.66000000000003</ele>
        <time>2019-03-16T11:39:54Z</time>
      </trkpt>
      <trkpt lat="31.682046269997954" lon="-7.995719220489264">
        <ele>410.13999999999999</ele>
        <time>2019-03-16T11:40:09Z</time>
      </trkpt>
      <trkpt lat="31.683701360598207" lon="-7.994199497625232">
        <ele>410.62</ele>
        <time>2019-03-16T11:40:15Z</time>
      </trkpt>
      <trkpt lat="31.685583433136344" lon="-7.99288060516119">
        <ele>410.13999999999999</ele>
        <time>2019-03-16T11:40:21Z</time>
      </trkpt>
      <trkpt lat="31.685951231047511" lon="-7.992608277127147">
        <ele>410.13999999999999</ele>
        <time>2019-03-16T11:40:22Z</time>
      </trkpt>
      <trkpt lat="31.68604745529592" lon="-7.992493696510792">
        <ele>410.13999999999999</ele>
        <time>2019-03-16T11:40:23Z</time>
      </trkpt>
      <trkpt lat="31.686072768643498" lon="-7.992445752024651">
        <ele>410.13999999999999</ele>
        <time>2019-03-16T11:40:27Z</time>
      </trkpt>
      <trkpt lat="31.686088861897588" lon="-7.992397975176573">
        <ele>410.13999999999999</ele>
        <time>2019-03-16T11:40:28Z</time>
      </trkpt>
      <trkpt lat="31.686144601553679" lon="-7.992217093706131">
        <ele>410.13999999999999</ele>
        <time>2019-03-16T11:40:29Z</time>
      </trkpt>
      <trkpt lat="31.686171675100923" lon="-7.992171999067068">
        <ele>410.13999999999999</ele>
        <time>2019-03-16T11:40:30Z</time>
      </trkpt>
      <trkpt lat="31.686211070045829" lon="-7.992126569151878">
        <ele>410.13999999999999</ele>
        <time>2019-03-16T11:40:31Z</time>
      </trkpt>
      <trkpt lat="31.686266642063856" lon="-7.992088850587606">
        <ele>409.66000000000003</ele>
        <time>2019-03-16T11:40:32Z</time>
      </trkpt>
      <trkpt lat="31.686338810250163" lon="-7.992068314924836">
        <ele>409.66000000000003</ele>
        <time>2019-03-16T11:40:33Z</time>
      </trkpt>
      <trkpt lat="31.686422545462847" lon="-7.99208072014153">
        <ele>409.66000000000003</ele>
        <time>2019-03-16T11:40:34Z</time>
      </trkpt>
      <trkpt lat="31.686509381979704" lon="-7.992121540009975">
        <ele>410.62</ele>
        <time>2019-03-16T11:40:37Z</time>
      </trkpt>
      <trkpt lat="31.68660250492394" lon="-7.992172837257385">
        <ele>412.06</ele>
        <time>2019-03-16T11:40:47Z</time>
      </trkpt>
      <trkpt lat="31.686926800757647" lon="-7.992297895252705">
        <ele>411.10000000000002</ele>
        <time>2019-03-16T11:40:59Z</time>
      </trkpt>
      <trkpt lat="31.688322806730866" lon="-7.992362855002284">
        <ele>411.10000000000002</ele>
        <time>2019-03-16T11:41:13Z</time>
      </trkpt>
      <trkpt lat="31.690155090764165" lon="-7.991823982447386">
        <ele>410.62</ele>
        <time>2019-03-16T11:41:23Z</time>
      </trkpt>
      <trkpt lat="31.692649628967047" lon="-7.991127111017704">
        <ele>410.62</ele>
        <time>2019-03-16T11:41:34Z</time>
      </trkpt>
      <trkpt lat="31.694306815043092" lon="-7.990189092233777">
        <ele>411.57999999999998</ele>
        <time>2019-03-16T11:41:40Z</time>
      </trkpt>
      <trkpt lat="31.695804493501782" lon="-7.988715972751379">
        <ele>411.57999999999998</ele>
        <time>2019-03-16T11:41:47Z</time>
      </trkpt>
      <trkpt lat="31.696361470967531" lon="-7.988112140446901">
        <ele>412.06</ele>
        <time>2019-03-16T11:41:57Z</time>
      </trkpt>
      <trkpt lat="31.696682246401906" lon="-7.987757585942745">
        <ele>411.10000000000002</ele>
        <time>2019-03-16T11:42:12Z</time>
      </trkpt>
      <trkpt lat="31.696781488135457" lon="-7.987656835466623">
        <ele>411.10000000000002</ele>
        <time>2019-03-16T11:42:22Z</time>
      </trkpt>
      <trkpt lat="31.696900092065334" lon="-7.987515768036246">
        <ele>411.10000000000002</ele>
        <time>2019-03-16T11:42:27Z</time>
      </trkpt>
      <trkpt lat="31.696993801742792" lon="-7.987352572381496">
        <ele>411.10000000000002</ele>
        <time>2019-03-16T11:42:28Z</time>
      </trkpt>
      <trkpt lat="31.697085248306394" lon="-7.987095583230257">
        <ele>411.10000000000002</ele>
        <time>2019-03-16T11:42:29Z</time>
      </trkpt>
      <trkpt lat="31.697128247469664" lon="-7.987043112516403">
        <ele>411.10000000000002</ele>
        <time>2019-03-16T11:42:30Z</time>
      </trkpt>
      <trkpt lat="31.697174934670329" lon="-7.98700581304729">
        <ele>410.62</ele>
        <time>2019-03-16T11:42:31Z</time>
      </trkpt>
      <trkpt lat="31.697227573022246" lon="-7.98698091879487">
        <ele>410.62</ele>
        <time>2019-03-16T11:42:32Z</time>
      </trkpt>
      <trkpt lat="31.697289431467652" lon="-7.986963232979178">
        <ele>410.13999999999999</ele>
        <time>2019-03-16T11:42:33Z</time>
      </trkpt>
      <trkpt lat="31.697360845282674" lon="-7.986941356211901">
        <ele>410.13999999999999</ele>
        <time>2019-03-16T11:42:34Z</time>
      </trkpt>
      <trkpt lat="31.697442149743438" lon="-7.986904056742787">
        <ele>410.13999999999999</ele>
        <time>2019-03-16T11:42:35Z</time>
      </trkpt>
      <trkpt lat="31.697526723146439" lon="-7.986844545230269">
        <ele>412.06</ele>
        <time>2019-03-16T11:42:36Z</time>
      </trkpt>
      <trkpt lat="31.697611883282661" lon="-7.986768186092377">
        <ele>413.01999999999998</ele>
        <time>2019-03-16T11:42:45Z</time>
      </trkpt>
      <trkpt lat="31.697697378695011" lon="-7.986684031784535">
        <ele>413.01999999999998</ele>
        <time>2019-03-16T11:42:56Z</time>
      </trkpt>
      <trkpt lat="31.698632379993796" lon="-7.98572656698525">
        <ele>413.01999999999998</ele>
        <time>2019-03-16T11:43:04Z</time>
      </trkpt>
      <trkpt lat="31.699894946068525" lon="-7.984413458034396">
        <ele>413.5</ele>
        <time>2019-03-16T11:43:07Z</time>
      </trkpt>
      <trkpt lat="31.700622495263815" lon="-7.983695715665817">
        <ele>413.5</ele>
        <time>2019-03-16T11:43:09Z</time>
      </trkpt>
      <trkpt lat="31.70079960487783" lon="-7.983527909964323">
        <ele>413.5</ele>
        <time>2019-03-16T11:43:10Z</time>
      </trkpt>
      <trkpt lat="31.700904043391347" lon="-7.983402851969004">
        <ele>413.5</ele>
        <time>2019-03-16T11:43:11Z</time>
      </trkpt>
      <trkpt lat="31.700959615409374" lon="-7.983356332406402">
        <ele>413.5</ele>
        <time>2019-03-16T11:43:12Z</time>
      </trkpt>
      <trkpt lat="31.701021306216717" lon="-7.983330097049475">
        <ele>413.98000000000002</ele>
        <time>2019-03-16T11:43:13Z</time>
      </trkpt>
      <trkpt lat="31.701091881841421" lon="-7.983325822278857">
        <ele>414.47000000000003</ele>
        <time>2019-03-16T11:43:15Z</time>
      </trkpt>
      <trkpt lat="31.701171929016709" lon="-7.983326660469174">
        <ele>414.47000000000003</ele>
        <time>2019-03-16T11:43:22Z</time>
      </trkpt>
      <trkpt lat="31.701354822143912" lon="-7.983308890834451">
        <ele>417.35000000000002</ele>
        <time>2019-03-16T11:43:29Z</time>
      </trkpt>
      <trkpt lat="31.702230144292116" lon="-7.983182910829783">
        <ele>418.31</ele>
        <time>2019-03-16T11:43:42Z</time>
      </trkpt>
      <trkpt lat="31.703415513038635" lon="-7.983374604955316">
        <ele>418.79000000000002</ele>
        <time>2019-03-16T11:43:55Z</time>
      </trkpt>
      <trkpt lat="31.705972077324986" lon="-7.983747515827417">
        <ele>418.31</ele>
        <time>2019-03-16T11:44:08Z</time>
      </trkpt>
      <trkpt lat="31.708351951092482" lon="-7.983877519145608">
        <ele>418.79000000000002</ele>
        <time>2019-03-16T11:44:12Z</time>
      </trkpt>
      <trkpt lat="31.710316082462668" lon="-7.983383741229773">
        <ele>419.26999999999998</ele>
        <time>2019-03-16T11:44:14Z</time>
      </trkpt>
      <trkpt lat="31.710740374401212" lon="-7.983224485069513">
        <ele>420.23000000000002</ele>
        <time>2019-03-16T11:44:15Z</time>
      </trkpt>
      <trkpt lat="31.710923602804542" lon="-7.983121974393725">
        <ele>421.19</ele>
        <time>2019-03-16T11:44:16Z</time>
      </trkpt>
      <trkpt lat="31.711028628051281" lon="-7.983091799542308">
        <ele>422.16000000000003</ele>
        <time>2019-03-16T11:44:24Z</time>
      </trkpt>
      <trkpt lat="31.711143711581826" lon="-7.983084926381707">
        <ele>425.51999999999998</ele>
        <time>2019-03-16T11:44:36Z</time>
      </trkpt>
      <trkpt lat="31.712222965434194" lon="-7.982904380187392">
        <ele>427.92000000000002</ele>
        <time>2019-03-16T11:44:51Z</time>
      </trkpt>
      <trkpt lat="31.714075701311231" lon="-7.98243273049593">
        <ele>428.88999999999999</ele>
        <time>2019-03-16T11:45:14Z</time>
      </trkpt>
      <trkpt lat="31.716587841510773" lon="-7.981930319219828">
        <ele>428.88999999999999</ele>
        <time>2019-03-16T11:45:32Z</time>
      </trkpt>
      <trkpt lat="31.720502860844135" lon="-7.981578446924686">
        <ele>429.37</ele>
        <time>2019-03-16T11:45:41Z</time>
      </trkpt>
      <trkpt lat="31.7235560528934" lon="-7.981311483308673">
        <ele>429.85000000000002</ele>
        <time>2019-03-16T11:45:42Z</time>
      </trkpt>
      <trkpt lat="31.724865306168795" lon="-7.981157004833221">
        <ele>429.85000000000002</ele>
        <time>2019-03-16T11:45:44Z</time>
      </trkpt>
      <trkpt lat="31.724963877350092" lon="-7.981124734506011">
        <ele>429.85000000000002</ele>
        <time>2019-03-16T11:45:45Z</time>
      </trkpt>
      <trkpt lat="31.725148530676961" lon="-7.981052231043577">
        <ele>429.37</ele>
        <time>2019-03-16T11:45:46Z</time>
      </trkpt>
      <trkpt lat="31.725247772410512" lon="-7.981037646532059">
        <ele>428.88999999999999</ele>
        <time>2019-03-16T11:45:47Z</time>
      </trkpt>
      <trkpt lat="31.725351540371776" lon="-7.981050219386816">
        <ele>428.88999999999999</ele>
        <time>2019-03-16T11:45:48Z</time>
      </trkpt>
      <trkpt lat="31.725457487627864" lon="-7.981082405894995">
        <ele>428.88999999999999</ele>
        <time>2019-03-16T11:45:49Z</time>
      </trkpt>
      <trkpt lat="31.725566955283284" lon="-7.981112413108349">
        <ele>428.88999999999999</ele>
        <time>2019-03-16T11:45:50Z</time>
      </trkpt>
      <trkpt lat="31.725684972479939" lon="-7.981130518019199">
        <ele>431.76999999999998</ele>
        <time>2019-03-16T11:45:51Z</time>
      </trkpt>
      <trkpt lat="31.725810449570417" lon="-7.981137726455927">
        <ele>434.64999999999998</ele>
        <time>2019-03-16T11:45:52Z</time>
      </trkpt>
      <trkpt lat="31.725942632183433" lon="-7.981133200228214">
        <ele>438.01999999999998</ele>
        <time>2019-03-16T11:46:05Z</time>
      </trkpt>
      <trkpt lat="31.726080263033509" lon="-7.981122555211186">
        <ele>440.89999999999998</ele>
        <time>2019-03-16T11:46:23Z</time>
      </trkpt>
      <trkpt lat="31.728150341659784" lon="-7.980938740074635">
        <ele>440.42000000000002</ele>
        <time>2019-03-16T11:46:35Z</time>
      </trkpt>
      <trkpt lat="31.73135893419385" lon="-7.980635398998857">
        <ele>440.89999999999998</ele>
        <time>2019-03-16T11:46:45Z</time>
      </trkpt>
      <trkpt lat="31.733394814655185" lon="-7.98020507209003">
        <ele>442.81999999999999</ele>
        <time>2019-03-16T11:46:57Z</time>
      </trkpt>
      <trkpt lat="31.734835328534245" lon="-7.979583470150828">
        <ele>443.31</ele>
        <time>2019-03-16T11:47:08Z</time>
      </trkpt>
      <trkpt lat="31.736563257873058" lon="-7.978841001167893">
        <ele>443.31</ele>
        <time>2019-03-16T11:47:17Z</time>
      </trkpt>
      <trkpt lat="31.738286996260285" lon="-7.978265667334199">
        <ele>444.26999999999998</ele>
        <time>2019-03-16T11:47:18Z</time>
      </trkpt>
      <trkpt lat="31.739482926204801" lon="-7.977953609079123">
        <ele>445.23000000000002</ele>
        <time>2019-03-16T11:47:19Z</time>
      </trkpt>
      <trkpt lat="31.739601362496614" lon="-7.977947574108839">
        <ele>444.75</ele>
        <time>2019-03-16T11:47:28Z</time>
      </trkpt>
      <trkpt lat="31.739722229540348" lon="-7.977958470582962">
        <ele>448.11000000000001</ele>
        <time>2019-03-16T11:47:44Z</time>
      </trkpt>
      <trkpt lat="31.740934671834111" lon="-7.977841040119529">
        <ele>450.51999999999998</ele>
        <time>2019-03-16T11:47:59Z</time>
      </trkpt>
      <trkpt lat="31.743264254182577" lon="-7.977732410654426">
        <ele>452.44</ele>
        <time>2019-03-16T11:48:16Z</time>
      </trkpt>
      <trkpt lat="31.745637003332376" lon="-7.977806841954589">
        <ele>452.44</ele>
        <time>2019-03-16T11:48:37Z</time>
      </trkpt>
      <trkpt lat="31.748516103252769" lon="-7.977905161678791">
        <ele>452.92000000000002</ele>
        <time>2019-03-16T11:48:50Z</time>
      </trkpt>
      <trkpt lat="31.751954946666956" lon="-7.978020580485463">
        <ele>452.92000000000002</ele>
        <time>2019-03-16T11:48:51Z</time>
      </trkpt>
      <trkpt lat="31.753961574286222" lon="-7.978201042860746">
        <ele>454.83999999999997</ele>
        <time>2019-03-16T11:48:52Z</time>
      </trkpt>
      <trkpt lat="31.754092583432794" lon="-7.978193834424019">
        <ele>456.27999999999997</ele>
        <time>2019-03-16T11:48:53Z</time>
      </trkpt>
      <trkpt lat="31.75422384403646" lon="-7.978206407278776">
        <ele>457.24000000000001</ele>
        <time>2019-03-16T11:49:03Z</time>
      </trkpt>
      <trkpt lat="31.754353512078524" lon="-7.978242198005319">
        <ele>459.17000000000002</ele>
        <time>2019-03-16T11:49:19Z</time>
      </trkpt>
      <trkpt lat="31.755672488361597" lon="-7.978523829951882">
        <ele>460.13</ele>
        <time>2019-03-16T11:49:30Z</time>
      </trkpt>
      <trkpt lat="31.757973488420248" lon="-7.978862458840013">
        <ele>461.08999999999997</ele>
        <time>2019-03-16T11:49:44Z</time>
      </trkpt>
      <trkpt lat="31.759961424395442" lon="-7.979119783267379">
        <ele>461.56999999999999</ele>
        <time>2019-03-16T11:49:56Z</time>
      </trkpt>
      <trkpt lat="31.762579511851072" lon="-7.979135038331151">
        <ele>463.00999999999999</ele>
        <time>2019-03-16T11:50:09Z</time>
      </trkpt>
      <trkpt lat="31.764689655974507" lon="-7.979500405490398">
        <ele>463.00999999999999</ele>
        <time>2019-03-16T11:50:20Z</time>
      </trkpt>
      <trkpt lat="31.766896694898605" lon="-7.980150254443288">
        <ele>463.49000000000001</ele>
        <time>2019-03-16T11:50:30Z</time>
      </trkpt>
      <trkpt lat="31.768355900421739" lon="-7.98058032989502">
        <ele>463.97000000000003</ele>
        <time>2019-03-16T11:50:31Z</time>
      </trkpt>
      <trkpt lat="31.769608072936535" lon="-7.98092532902956">
        <ele>463.97000000000003</ele>
        <time>2019-03-16T11:50:32Z</time>
      </trkpt>
      <trkpt lat="31.769696166738868" lon="-7.980919880792499">
        <ele>464.44999999999999</ele>
        <time>2019-03-16T11:50:34Z</time>
      </trkpt>
      <trkpt lat="31.769776968285441" lon="-7.980892136693001">
        <ele>464.44999999999999</ele>
        <time>2019-03-16T11:50:35Z</time>
      </trkpt>
      <trkpt lat="31.769938403740525" lon="-7.980829188600183">
        <ele>464.44999999999999</ele>
        <time>2019-03-16T11:50:36Z</time>
      </trkpt>
      <trkpt lat="31.770022390410304" lon="-7.980830864980817">
        <ele>464.44999999999999</ele>
        <time>2019-03-16T11:50:37Z</time>
      </trkpt>
      <trkpt lat="31.770102772861719" lon="-7.980862045660615">
        <ele>464.44999999999999</ele>
        <time>2019-03-16T11:50:38Z</time>
      </trkpt>
      <trkpt lat="31.770174941048026" lon="-7.980918455868959">
        <ele>464.44999999999999</ele>
        <time>2019-03-16T11:50:39Z</time>
      </trkpt>
      <trkpt lat="31.770235290750861" lon="-7.980995569378138">
        <ele>464.44999999999999</ele>
        <time>2019-03-16T11:50:40Z</time>
      </trkpt>
      <trkpt lat="31.770290527492762" lon="-7.981077041476965">
        <ele>464.44999999999999</ele>
        <time>2019-03-16T11:50:41Z</time>
      </trkpt>
      <trkpt lat="31.770358253270388" lon="-7.981146359816194">
        <ele>464.93000000000001</ele>
        <time>2019-03-16T11:50:42Z</time>
      </trkpt>
      <trkpt lat="31.770439390093088" lon="-7.981190867722035">
        <ele>467.33999999999997</ele>
        <time>2019-03-16T11:50:43Z</time>
      </trkpt>
      <trkpt lat="31.770531423389912" lon="-7.981218947097659">
        <ele>468.77999999999997</ele>
        <time>2019-03-16T11:51:01Z</time>
      </trkpt>
      <trkpt lat="31.770628485828638" lon="-7.981244847178459">
        <ele>469.25999999999999</ele>
        <time>2019-03-16T11:51:18Z</time>
      </trkpt>
      <trkpt lat="31.772609213367105" lon="-7.981775086373091">
        <ele>468.30000000000001</ele>
        <time>2019-03-16T11:51:30Z</time>
      </trkpt>
      <trkpt lat="31.774870399385691" lon="-7.982406998053193">
        <ele>469.25999999999999</ele>
        <time>2019-03-16T11:51:36Z</time>
      </trkpt>
      <trkpt lat="31.77650285884738" lon="-7.982751158997417">
        <ele>471.18000000000001</ele>
        <time>2019-03-16T11:51:46Z</time>
      </trkpt>
      <trkpt lat="31.776796393096447" lon="-7.982821734622121">
        <ele>474.55000000000001</ele>
        <time>2019-03-16T11:51:55Z</time>
      </trkpt>
      <trkpt lat="31.776949781924486" lon="-7.982840090990067">
        <ele>478.87</ele>
        <time>2019-03-16T11:52:07Z</time>
      </trkpt>
      <trkpt lat="31.777637852355838" lon="-7.983006723225117">
        <ele>482.24000000000001</ele>
        <time>2019-03-16T11:52:20Z</time>
      </trkpt>
      <trkpt lat="31.779083646833897" lon="-7.983303191140294">
        <ele>485.60000000000002</ele>
        <time>2019-03-16T11:52:37Z</time>
      </trkpt>
      <trkpt lat="31.781154982745647" lon="-7.983575938269496">
        <ele>487.52999999999997</ele>
        <time>2019-03-16T11:52:50Z</time>
      </trkpt>
      <trkpt lat="31.784260142594576" lon="-7.983754891902208">
        <ele>491.37</ele>
        <time>2019-03-16T11:53:03Z</time>
      </trkpt>
      <trkpt lat="31.786900609731674" lon="-7.983712144196034">
        <ele>496.66000000000003</ele>
        <time>2019-03-16T11:53:13Z</time>
      </trkpt>
      <trkpt lat="31.789592625573277" lon="-7.983469907194376">
        <ele>502.91000000000003</ele>
        <time>2019-03-16T11:53:28Z</time>
      </trkpt>
      <trkpt lat="31.791688101366162" lon="-7.983287433162332">
        <ele>510.12</ele>
        <time>2019-03-16T11:53:46Z</time>
      </trkpt>
      <trkpt lat="31.795094003900886" lon="-7.982921982184053">
        <ele>517.80999999999995</ele>
        <time>2019-03-16T11:54:00Z</time>
      </trkpt>
      <trkpt lat="31.799321416765451" lon="-7.982618389651179">
        <ele>524.05999999999995</ele>
        <time>2019-03-16T11:54:16Z</time>
      </trkpt>
      <trkpt lat="31.802574852481484" lon="-7.982888035476208">
        <ele>525.01999999999998</ele>
        <time>2019-03-16T11:54:31Z</time>
      </trkpt>
      <trkpt lat="31.806338410824537" lon="-7.983815828338265">
        <ele>523.09000000000003</ele>
        <time>2019-03-16T11:54:46Z</time>
      </trkpt>
      <trkpt lat="31.809794520959258" lon="-7.985268579795957">
        <ele>521.64999999999998</ele>
        <time>2019-03-16T11:55:00Z</time>
      </trkpt>
      <trkpt lat="31.813008980825543" lon="-7.987191891297698">
        <ele>525.01999999999998</ele>
        <time>2019-03-16T11:55:11Z</time>
      </trkpt>
      <trkpt lat="31.816050438210368" lon="-7.988973297178745">
        <ele>533.66999999999996</ele>
        <time>2019-03-16T11:55:23Z</time>
      </trkpt>
      <trkpt lat="31.818739268928766" lon="-7.990104937925935">
        <ele>546.64999999999998</ele>
        <time>2019-03-16T11:55:36Z</time>
      </trkpt>
      <trkpt lat="31.822064789012074" lon="-7.99099350348115">
        <ele>555.77999999999997</ele>
        <time>2019-03-16T11:55:50Z</time>
      </trkpt>
      <trkpt lat="31.825667582452297" lon="-7.99139566719532">
        <ele>564.42999999999995</ele>
        <time>2019-03-16T11:56:11Z</time>
      </trkpt>
      <trkpt lat="31.829392416402698" lon="-7.991319978609681">
        <ele>574.03999999999996</ele>
        <time>2019-03-16T11:56:25Z</time>
      </trkpt>
      <trkpt lat="31.834911815822124" lon="-7.99120263196528">
        <ele>579.80999999999995</ele>
        <time>2019-03-16T11:56:40Z</time>
      </trkpt>
      <trkpt lat="31.838689707219601" lon="-7.99151829443872">
        <ele>583.65999999999997</ele>
        <time>2019-03-16T11:56:57Z</time>
      </trkpt>
      <trkpt lat="31.842589387670159" lon="-7.992287501692772">
        <ele>587.01999999999998</ele>
        <time>2019-03-16T11:57:13Z</time>
      </trkpt>
      <trkpt lat="31.846815207973123" lon="-7.993670599535108">
        <ele>591.83000000000004</ele>
        <time>2019-03-16T11:57:28Z</time>
      </trkpt>
      <trkpt lat="31.850708518177271" lon="-7.995470361784101">
        <ele>592.30999999999995</ele>
        <time>2019-03-16T11:57:43Z</time>
      </trkpt>
      <trkpt lat="31.854263702407479" lon="-7.997607076540589">
        <ele>589.90999999999997</ele>
        <time>2019-03-16T11:57:57Z</time>
      </trkpt>
      <trkpt lat="31.857612524181604" lon="-8.000178644433618">
        <ele>582.22000000000003</ele>
        <time>2019-03-16T11:58:11Z</time>
      </trkpt>
      <trkpt lat="31.860726904124022" lon="-8.003025725483894">
        <ele>577.40999999999997</ele>
        <time>2019-03-16T11:58:25Z</time>
      </trkpt>
      <trkpt lat="31.86365176923573" lon="-8.006354095414281">
        <ele>573.08000000000004</ele>
        <time>2019-03-16T11:58:43Z</time>
      </trkpt>
      <trkpt lat="31.86638611368835" lon="-8.010096698999405">
        <ele>569.24000000000001</ele>
        <time>2019-03-16T11:58:55Z</time>
      </trkpt>
      <trkpt lat="31.869920510798693" lon="-8.01478385925293">
        <ele>564.42999999999995</ele>
        <time>2019-03-16T11:59:06Z</time>
      </trkpt>
      <trkpt lat="31.872450420632958" lon="-8.017351822927594">
        <ele>558.17999999999995</ele>
        <time>2019-03-16T11:59:17Z</time>
      </trkpt>
      <trkpt lat="31.875078231096268" lon="-8.019425589591265">
        <ele>552.40999999999997</ele>
        <time>2019-03-16T11:59:30Z</time>
      </trkpt>
      <trkpt lat="31.877733618021011" lon="-8.020979929715395">
        <ele>0</ele>
        <time>2019-03-16T11:59:44Z</time>
      </trkpt>
      <trkpt lat="31.880895858630538" lon="-8.022358752787113">
        <ele>0</ele>
        <time>2019-03-16T11:59:57Z</time>
      </trkpt>
      <trkpt lat="31.884427489712834" lon="-8.023300543427467">
        <ele>0</ele>
        <time>2017-03-20T21:39:45Z</time>
      </trkpt>
      <trkpt lat="31.887900196015835" lon="-8.023736821487546">
        <ele>0</ele>
        <time>2019-03-16T16:26:09Z</time>
      </trkpt>
      <trkpt lat="31.890200022608042" lon="-8.024019962176681">
        <ele>0</ele>
        <time>2019-03-16T16:26:10Z</time>
      </trkpt>
      <trkpt lat="31.907690037041903" lon="-8.025900023058057">
        <ele>0</ele>
        <time>2019-03-16T16:26:11Z</time>
      </trkpt>
      <trkpt lat="31.908659990876913" lon="-8.025960037484765">
        <ele>0</ele>
        <time>2019-03-16T16:26:12Z</time>
      </trkpt>
      <trkpt lat="31.909519974142313" lon="-8.025989960879087">
        <ele>0</ele>
        <time>2019-03-16T16:26:14Z</time>
      </trkpt>
      <trkpt lat="31.910279961302876" lon="-8.025989960879087">
        <ele>0</ele>
        <time>2019-03-16T16:26:23Z</time>
      </trkpt>
      <trkpt lat="31.911240024492145" lon="-8.025960037484765">
        <ele>0</ele>
        <time>2019-03-16T16:26:25Z</time>
      </trkpt>
      <trkpt lat="31.912869969382882" lon="-8.025840008631349">
        <ele>0</ele>
        <time>2019-03-16T16:26:29Z</time>
      </trkpt>
      <trkpt lat="31.913840007036924" lon="-8.025710005313158">
        <ele>0</ele>
        <time>2019-03-16T16:26:34Z</time>
      </trkpt>
      <trkpt lat="31.914699990302324" lon="-8.025570027530193">
        <ele>0</ele>
        <time>2019-03-16T16:26:35Z</time>
      </trkpt>
      <trkpt lat="31.916730003431439" lon="-8.025140035897493">
        <ele>0</ele>
        <time>2019-03-16T16:26:42Z</time>
      </trkpt>
      <trkpt lat="31.918809972703457" lon="-8.024509968236089">
        <ele>0</ele>
        <time>2019-03-16T16:26:47Z</time>
      </trkpt>
      <trkpt lat="31.919399974867702" lon="-8.024300001561642">
        <ele>0</ele>
        <time>2019-03-16T16:26:48Z</time>
      </trkpt>
      <trkpt lat="31.921039978042245" lon="-8.023630036041141">
        <ele>0</ele>
        <time>2019-03-16T16:26:49Z</time>
      </trkpt>
      <trkpt lat="31.921439962461591" lon="-8.023410011082888">
        <ele>0</ele>
        <time>2019-03-16T16:26:50Z</time>
      </trkpt>
      <trkpt lat="31.924790041521192" lon="-8.02176003344357">
        <ele>0</ele>
        <time>2019-03-16T16:26:51Z</time>
      </trkpt>
      <trkpt lat="31.927009988576174" lon="-8.020620010793209">
        <ele>0</ele>
        <time>2019-03-16T16:26:52Z</time>
      </trkpt>
      <trkpt lat="31.929119965061545" lon="-8.019589958712459">
        <ele>0</ele>
        <time>2019-03-16T16:26:53Z</time>
      </trkpt>
      <trkpt lat="31.930150017142296" lon="-8.019149992614985">
        <ele>0</ele>
        <time>2019-03-16T16:26:54Z</time>
      </trkpt>
      <trkpt lat="31.931409984827042" lon="-8.018650012090802">
        <ele>0</ele>
        <time>2019-03-16T16:27:03Z</time>
      </trkpt>
      <trkpt lat="31.932880003005266" lon="-8.01810996606946">
        <ele>0</ele>
        <time>2019-03-16T16:27:17Z</time>
      </trkpt>
      <trkpt lat="31.935000037774444" lon="-8.017479982227087">
        <ele>0</ele>
        <time>2019-03-16T16:27:26Z</time>
      </trkpt>
      <trkpt lat="31.936150034889579" lon="-8.017179993912578">
        <ele>0</ele>
        <time>2019-03-16T16:27:27Z</time>
      </trkpt>
      <trkpt lat="31.938030011951923" lon="-8.016759976744652">
        <ele>0</ele>
        <time>2019-03-16T16:27:28Z</time>
      </trkpt>
      <trkpt lat="31.939050005748868" lon="-8.016580017283559">
        <ele>0</ele>
        <time>2019-03-16T16:27:29Z</time>
      </trkpt>
      <trkpt lat="31.940920008346438" lon="-8.016320010647178">
        <ele>0</ele>
        <time>2019-03-16T16:27:30Z</time>
      </trkpt>
      <trkpt lat="31.941670021042228" lon="-8.01623996347189">
        <ele>0</ele>
        <time>2019-03-16T16:27:31Z</time>
      </trkpt>
      <trkpt lat="31.943220002576709" lon="-8.016120018437505">
        <ele>0</ele>
        <time>2019-03-16T16:27:32Z</time>
      </trkpt>
      <trkpt lat="31.945110037922859" lon="-8.016050029546022">
        <ele>0</ele>
        <time>2019-03-16T16:27:33Z</time>
      </trkpt>
      <trkpt lat="31.949090017005801" lon="-8.016090011224151">
        <ele>0</ele>
        <time>2019-03-16T16:27:43Z</time>
      </trkpt>
      <trkpt lat="31.950029963627458" lon="-8.016069978475571">
        <ele>0</ele>
        <time>2019-03-16T16:27:57Z</time>
      </trkpt>
      <trkpt lat="31.951309964060783" lon="-8.016099985688925">
        <ele>0</ele>
        <time>2019-03-16T16:28:12Z</time>
      </trkpt>
      <trkpt lat="31.953720012679696" lon="-8.016109960153699">
        <ele>0</ele>
        <time>2019-03-16T16:28:18Z</time>
      </trkpt>
      <trkpt lat="31.956480005756021" lon="-8.016169974580407">
        <ele>0</ele>
        <time>2019-03-16T16:28:19Z</time>
      </trkpt>
      <trkpt lat="31.960919983685017" lon="-8.016199981793761">
        <ele>0</ele>
        <time>2019-03-16T16:28:20Z</time>
      </trkpt>
      <trkpt lat="31.962840026244521" lon="-8.016139967367053">
        <ele>0</ele>
        <time>2019-03-16T16:28:21Z</time>
      </trkpt>
      <trkpt lat="31.963749965652823" lon="-8.016080036759377">
        <ele>0</ele>
        <time>2019-03-16T16:28:22Z</time>
      </trkpt>
      <trkpt lat="31.965900007635355" lon="-8.015879960730672">
        <ele>0</ele>
        <time>2019-03-16T16:28:23Z</time>
      </trkpt>
      <trkpt lat="31.967760035768151" lon="-8.015590030699968">
        <ele>0</ele>
        <time>2019-03-16T16:28:35Z</time>
      </trkpt>
      <trkpt lat="31.97007997892797" lon="-8.015070017427206">
        <ele>0</ele>
        <time>2019-03-16T16:28:44Z</time>
      </trkpt>
      <trkpt lat="31.972579965367913" lon="-8.014380019158125">
        <ele>0</ele>
        <time>2019-03-16T16:28:45Z</time>
      </trkpt>
      <trkpt lat="31.973949987441301" lon="-8.013909962028265">
        <ele>0</ele>
        <time>2019-03-16T16:28:46Z</time>
      </trkpt>
      <trkpt lat="31.976100029423833" lon="-8.013100018724799">
        <ele>0</ele>
        <time>2019-03-16T16:28:47Z</time>
      </trkpt>
      <trkpt lat="31.980939991772175" lon="-8.011179976165295">
        <ele>0</ele>
        <time>2019-03-16T16:28:48Z</time>
      </trkpt>
      <trkpt lat="31.983599988743663" lon="-8.010219996795058">
        <ele>0</ele>
        <time>2019-03-16T16:28:49Z</time>
      </trkpt>
      <trkpt lat="31.985330013558269" lon="-8.009710041806102">
        <ele>0</ele>
        <time>2019-03-16T16:29:00Z</time>
      </trkpt>
      <trkpt lat="31.986320000141859" lon="-8.009460009634495">
        <ele>0</ele>
        <time>2019-03-16T16:29:16Z</time>
      </trkpt>
      <trkpt lat="31.987420041114092" lon="-8.009209977462888">
        <ele>0</ele>
        <time>2019-03-16T16:29:29Z</time>
      </trkpt>
      <trkpt lat="31.988619994372129" lon="-8.008970003575087">
        <ele>0</ele>
        <time>2019-03-16T16:29:39Z</time>
      </trkpt>
      <trkpt lat="31.990659981966019" lon="-8.008649982511997">
        <ele>0</ele>
        <time>2019-03-16T16:29:52Z</time>
      </trkpt>
      <trkpt lat="31.992099992930889" lon="-8.008479997515678">
        <ele>0</ele>
        <time>2019-03-16T16:30:03Z</time>
      </trkpt>
      <trkpt lat="31.992899961769581" lon="-8.00841998308897">
        <ele>0</ele>
        <time>2019-03-16T16:30:12Z</time>
      </trkpt>
      <trkpt lat="32.004409991204739" lon="-8.007959984242916">
        <ele>0</ele>
        <time>2019-03-16T16:30:27Z</time>
      </trkpt>
      <trkpt lat="32.006660029292107" lon="-8.007789999246597">
        <ele>0</ele>
        <time>2019-03-16T16:30:39Z</time>
      </trkpt>
      <trkpt lat="32.008700016885996" lon="-8.00755999982357">
        <ele>0</ele>
        <time>2019-03-16T16:30:51Z</time>
      </trkpt>
      <trkpt lat="32.009799974039197" lon="-8.0074099637568">
        <ele>0</ele>
        <time>2019-03-16T16:30:52Z</time>
      </trkpt>
      <trkpt lat="32.012159982696176" lon="-8.007009979337454">
        <ele>0</ele>
        <time>2019-03-16T16:30:53Z</time>
      </trkpt>
      <trkpt lat="32.013320038095117" lon="-8.006770005449653">
        <ele>0</ele>
        <time>2019-03-16T16:30:54Z</time>
      </trkpt>
      <trkpt lat="32.016350012272596" lon="-8.005980011075735">
        <ele>0</ele>
        <time>2019-03-16T16:30:55Z</time>
      </trkpt>
      <trkpt lat="32.017339998856187" lon="-8.005689997226">
        <ele>0</ele>
        <time>2019-03-16T16:30:56Z</time>
      </trkpt>
      <trkpt lat="32.020410038530827" lon="-8.004700010642409">
        <ele>0</ele>
        <time>2019-03-16T16:30:57Z</time>
      </trkpt>
      <trkpt lat="32.031009960919619" lon="-8.001159997656941">
        <ele>0</ele>
        <time>2019-03-16T16:30:58Z</time>
      </trkpt>
      <trkpt lat="32.032700004056096" lon="-8.000620035454631">
        <ele>0</ele>
        <time>2019-03-16T16:30:59Z</time>
      </trkpt>
      <trkpt lat="32.034660028293729" lon="-7.999940011650324">
        <ele>0</ele>
        <time>2019-03-16T16:31:00Z</time>
      </trkpt>
      <trkpt lat="32.03896002843976" lon="-7.998530007898808">
        <ele>0</ele>
        <time>2019-03-16T16:31:01Z</time>
      </trkpt>
      <trkpt lat="32.039999971166253" lon="-7.998239994049072">
        <ele>0</ele>
        <time>2019-03-16T16:31:02Z</time>
      </trkpt>
      <trkpt lat="32.041639974340796" lon="-7.997819976881146">
        <ele>0</ele>
        <time>2019-03-16T16:31:03Z</time>
      </trkpt>
      <trkpt lat="32.042960040271282" lon="-7.997529963031411">
        <ele>0</ele>
        <time>2019-03-16T16:31:11Z</time>
      </trkpt>
      <trkpt lat="32.043569991365075" lon="-7.997419992461801">
        <ele>0</ele>
        <time>2019-03-16T16:31:12Z</time>
      </trkpt>
      <trkpt lat="32.044789977371693" lon="-7.997150011360645">
        <ele>0</ele>
        <time>2019-03-16T16:31:13Z</time>
      </trkpt>
      <trkpt lat="32.051630029454827" lon="-7.995749982073903">
        <ele>0</ele>
        <time>2019-03-16T16:31:14Z</time>
      </trkpt>
      <trkpt lat="32.05309996381402" lon="-7.995470026507974">
        <ele>0</ele>
        <time>2019-03-16T16:31:15Z</time>
      </trkpt>
      <trkpt lat="32.054550033062696" lon="-7.995159979909658">
        <ele>0</ele>
        <time>2019-03-16T16:31:16Z</time>
      </trkpt>
      <trkpt lat="32.05675003118813" lon="-7.994769969955087">
        <ele>0</ele>
        <time>2019-03-16T16:31:17Z</time>
      </trkpt>
      <trkpt lat="32.058569993823767" lon="-7.99453997053206">
        <ele>0</ele>
        <time>2019-03-16T16:31:18Z</time>
      </trkpt>
      <trkpt lat="32.060519959777594" lon="-7.994379960000515">
        <ele>0</ele>
        <time>2019-03-16T16:31:19Z</time>
      </trkpt>
      <trkpt lat="32.061569960787892" lon="-7.994339978322387">
        <ele>0</ele>
        <time>2019-03-16T16:31:20Z</time>
      </trkpt>
      <trkpt lat="32.063169982284307" lon="-7.994320029392839">
        <ele>0</ele>
        <time>2019-03-16T16:31:21Z</time>
      </trkpt>
      <trkpt lat="32.06470001488924" lon="-7.994379960000515">
        <ele>0</ele>
        <time>2019-03-16T16:31:22Z</time>
      </trkpt>
      <trkpt lat="32.066449988633394" lon="-7.994520021602511">
        <ele>0</ele>
        <time>2019-03-16T16:31:23Z</time>
      </trkpt>
      <trkpt lat="32.068770015612245" lon="-7.994810035452247">
        <ele>0</ele>
        <time>2019-03-16T16:31:24Z</time>
      </trkpt>
      <trkpt lat="32.069709962233901" lon="-7.994980020448566">
        <ele>0</ele>
        <time>2019-03-16T16:31:25Z</time>
      </trkpt>
      <trkpt lat="32.072039963677526" lon="-7.995510008186102">
        <ele>0</ele>
        <time>2019-03-16T16:31:26Z</time>
      </trkpt>
      <trkpt lat="32.076120022684336" lon="-7.996590016409755">
        <ele>0</ele>
        <time>2019-03-16T16:31:27Z</time>
      </trkpt>
      <trkpt lat="32.083789967000484" lon="-7.998709967359901">
        <ele>0</ele>
        <time>2019-03-16T16:31:28Z</time>
      </trkpt>
      <trkpt lat="32.086349967867136" lon="-7.999299969524145">
        <ele>0</ele>
        <time>2019-03-16T16:31:29Z</time>
      </trkpt>
      <trkpt lat="32.087940014898777" lon="-7.99958998337388">
        <ele>0</ele>
        <time>2019-03-16T16:31:30Z</time>
      </trkpt>
      <trkpt lat="32.089480021968484" lon="-7.999789975583553">
        <ele>0</ele>
        <time>2019-03-16T16:31:40Z</time>
      </trkpt>
      <trkpt lat="32.091899961233139" lon="-7.999989967793226">
        <ele>0</ele>
        <time>2019-03-16T16:31:41Z</time>
      </trkpt>
      <trkpt lat="32.093139979988337" lon="-8.00001997500658">
        <ele>0</ele>
        <time>2019-03-16T16:31:42Z</time>
      </trkpt>
      <trkpt lat="32.094719968736172" lon="-8.000000026077032">
        <ele>0</ele>
        <time>2019-03-16T16:31:43Z</time>
      </trkpt>
      <trkpt lat="32.095880024135113" lon="-7.999959960579872">
        <ele>0</ele>
        <time>2019-03-16T16:31:44Z</time>
      </trkpt>
      <trkpt lat="32.097680037841201" lon="-7.999830041080713">
        <ele>0</ele>
        <time>2019-03-16T16:31:45Z</time>
      </trkpt>
      <trkpt lat="32.103240005671978" lon="-7.999199973419309">
        <ele>0</ele>
        <time>2019-03-16T16:31:46Z</time>
      </trkpt>
      <trkpt lat="32.10448999889195" lon="-7.999099977314472">
        <ele>0</ele>
        <time>2019-03-16T16:31:55Z</time>
      </trkpt>
      <trkpt lat="32.104780012741685" lon="-7.999090002849698">
        <ele>0</ele>
        <time>2019-03-16T16:32:04Z</time>
      </trkpt>
      <trkpt lat="32.10550001822412" lon="-7.999039962887764">
        <ele>0</ele>
        <time>2019-03-16T16:32:13Z</time>
      </trkpt>
      <trkpt lat="32.105709984898567" lon="-7.999039962887764">
        <ele>0</ele>
        <time>2019-03-16T16:32:26Z</time>
      </trkpt>
      <trkpt lat="32.106130002066493" lon="-7.999020013958216">
        <ele>0</ele>
        <time>2019-03-16T16:32:40Z</time>
      </trkpt>
      <trkpt lat="32.106699971482158" lon="-7.999020013958216">
        <ele>0</ele>
        <time>2019-03-16T16:32:57Z</time>
      </trkpt>
      <trkpt lat="32.106929970905185" lon="-7.999010039493442">
        <ele>0</ele>
        <time>2019-03-16T16:33:03Z</time>
      </trkpt>
      <trkpt lat="32.10865999571979" lon="-7.99902998842299">
        <ele>0</ele>
        <time>2019-03-16T16:33:05Z</time>
      </trkpt>
      <trkpt lat="32.109010023996234" lon="-7.99905002117157">
        <ele>0</ele>
        <time>2019-03-16T16:33:06Z</time>
      </trkpt>
      <trkpt lat="32.109180008992553" lon="-7.99905002117157">
        <ele>0</ele>
        <time>2019-03-16T16:33:07Z</time>
      </trkpt>
      <trkpt lat="32.109359968453646" lon="-7.999069970101118">
        <ele>0</ele>
        <time>2019-03-16T16:33:08Z</time>
      </trkpt>
      <trkpt lat="32.110599987208843" lon="-7.999150017276406">
        <ele>0</ele>
        <time>2019-03-16T16:33:09Z</time>
      </trkpt>
      <trkpt lat="32.111289985477924" lon="-7.999229980632663">
        <ele>0</ele>
        <time>2019-03-16T16:33:10Z</time>
      </trkpt>
      <trkpt lat="32.111440021544695" lon="-7.999240038916469">
        <ele>0</ele>
        <time>2019-03-16T16:33:11Z</time>
      </trkpt>
      <trkpt lat="32.112409975379705" lon="-7.999359983950853">
        <ele>0</ele>
        <time>2019-03-16T16:33:20Z</time>
      </trkpt>
      <trkpt lat="32.112880032509565" lon="-7.999440031126142">
        <ele>0</ele>
        <time>2019-03-16T16:33:27Z</time>
      </trkpt>
      <trkpt lat="32.113069966435432" lon="-7.99945998005569">
        <ele>0</ele>
        <time>2019-03-16T16:33:28Z</time>
      </trkpt>
      <trkpt lat="32.113810004666448" lon="-7.99958998337388">
        <ele>0</ele>
        <time>2019-03-16T16:33:29Z</time>
      </trkpt>
      <trkpt lat="32.114809965714812" lon="-7.999789975583553">
        <ele>0</ele>
        <time>2019-03-16T16:33:39Z</time>
      </trkpt>
      <trkpt lat="32.115010041743517" lon="-7.999840015545487">
        <ele>0</ele>
        <time>2019-03-16T16:33:49Z</time>
      </trkpt>
      <trkpt lat="32.11521003395319" lon="-7.999870022758842">
        <ele>0</ele>
        <time>2019-03-16T16:33:57Z</time>
      </trkpt>
      <trkpt lat="32.11607001721859" lon="-8.00004000775516">
        <ele>0</ele>
        <time>2019-03-16T16:33:58Z</time>
      </trkpt>
      <trkpt lat="32.116330023854971" lon="-8.000079989433289">
        <ele>0</ele>
        <time>2019-03-16T16:34:00Z</time>
      </trkpt>
      <trkpt lat="32.118449974805117" lon="-8.000509981065989">
        <ele>0</ele>
        <time>2019-03-16T16:34:01Z</time>
      </trkpt>
      <trkpt lat="32.118639992550015" lon="-8.000539988279343">
        <ele>0</ele>
        <time>2019-03-16T16:34:03Z</time>
      </trkpt>
      <trkpt lat="32.119380030781031" lon="-8.000690024346113">
        <ele>0</ele>
        <time>2019-03-16T16:34:04Z</time>
      </trkpt>
      <trkpt lat="32.119710026308894" lon="-8.00076998770237">
        <ele>0</ele>
        <time>2019-03-16T16:34:05Z</time>
      </trkpt>
      <trkpt lat="32.122649978846312" lon="-8.00135001540184">
        <ele>0</ele>
        <time>2019-03-16T16:34:06Z</time>
      </trkpt>
      <trkpt lat="32.122960025444627" lon="-8.001399971544743">
        <ele>0</ele>
        <time>2019-03-16T16:34:07Z</time>
      </trkpt>
      <trkpt lat="32.12326998822391" lon="-8.001469960436225">
        <ele>0</ele>
        <time>2019-03-16T16:34:08Z</time>
      </trkpt>
      <trkpt lat="32.123980019241571" lon="-8.001599963754416">
        <ele>0</ele>
        <time>2019-03-16T16:34:09Z</time>
      </trkpt>
      <trkpt lat="32.124889958649874" lon="-8.001789981499314">
        <ele>0</ele>
        <time>2019-03-16T16:34:10Z</time>
      </trkpt>
      <trkpt lat="32.125209979712963" lon="-8.001840021461248">
        <ele>0</ele>
        <time>2019-03-16T16:34:18Z</time>
      </trkpt>
      <trkpt lat="32.128229979425669" lon="-8.002400016412139">
        <ele>0</ele>
        <time>2019-03-16T16:34:20Z</time>
      </trkpt>
      <trkpt lat="32.128459978848696" lon="-8.002430023625493">
        <ele>0</ele>
        <time>2019-03-16T16:34:21Z</time>
      </trkpt>
      <trkpt lat="32.128589982166886" lon="-8.002460030838847">
        <ele>0</ele>
        <time>2019-03-16T16:34:23Z</time>
      </trkpt>
      <trkpt lat="32.12907001376152" lon="-8.00253001973033">
        <ele>0</ele>
        <time>2019-03-16T16:34:24Z</time>
      </trkpt>
      <trkpt lat="32.129270005971193" lon="-8.002570001408458">
        <ele>0</ele>
        <time>2019-03-16T16:34:29Z</time>
      </trkpt>
      <trkpt lat="32.129449965432286" lon="-8.002590034157038">
        <ele>0</ele>
        <time>2019-03-16T16:35:51Z</time>
      </trkpt>
      <trkpt lat="32.129590027034283" lon="-8.002620041370392">
        <ele>0</ele>
        <time>2019-03-16T16:35:52Z</time>
      </trkpt>
      <trkpt lat="32.130640028044581" lon="-8.002760019153357">
        <ele>0</ele>
        <time>2019-03-16T16:35:53Z</time>
      </trkpt>
      <trkpt lat="32.130759973078966" lon="-8.002769993618131">
        <ele>0</ele>
        <time>2019-03-16T16:35:54Z</time>
      </trkpt>
      <trkpt lat="32.130889976397157" lon="-8.002790026366711">
        <ele>0</ele>
        <time>2019-03-16T16:35:55Z</time>
      </trkpt>
      <trkpt lat="32.131330026313663" lon="-8.002830008044839">
        <ele>0</ele>
        <time>2019-03-16T16:36:01Z</time>
      </trkpt>
      <trkpt lat="32.131460029631853" lon="-8.002850040793419">
        <ele>0</ele>
        <time>2019-03-16T16:36:02Z</time>
      </trkpt>
      <trkpt lat="32.131630014628172" lon="-8.002860015258193">
        <ele>0</ele>
        <time>2019-03-16T16:36:03Z</time>
      </trkpt>
      <trkpt lat="32.131839981302619" lon="-8.002890022471547">
        <ele>0</ele>
        <time>2019-03-16T16:36:05Z</time>
      </trkpt>
      <trkpt lat="32.131920028477907" lon="-8.002890022471547">
        <ele>0</ele>
        <time>2019-03-16T16:36:08Z</time>
      </trkpt>
      <trkpt lat="32.132020024582744" lon="-8.002909971401095">
        <ele>0</ele>
        <time>2019-03-16T16:36:11Z</time>
      </trkpt>
      <trkpt lat="32.133230036124587" lon="-8.002979960292578">
        <ele>0</ele>
        <time>2019-03-16T16:36:16Z</time>
      </trkpt>
      <trkpt lat="32.133419970050454" lon="-8.002979960292578">
        <ele>0</ele>
        <time>2019-03-16T16:36:19Z</time>
      </trkpt>
      <trkpt lat="32.134339967742562" lon="-8.003039974719286">
        <ele>0</ele>
        <time>2019-03-16T16:36:23Z</time>
      </trkpt>
      <trkpt lat="32.134689996019006" lon="-8.003039974719286">
        <ele>0</ele>
        <time>2019-03-16T16:36:28Z</time>
      </trkpt>
      <trkpt lat="32.134910020977259" lon="-8.003050033003092">
        <ele>0</ele>
        <time>2019-03-16T16:36:39Z</time>
      </trkpt>
      <trkpt lat="32.13530003093183" lon="-8.003050033003092">
        <ele>0</ele>
        <time>2019-03-16T16:36:44Z</time>
      </trkpt>
      <trkpt lat="32.135509997606277" lon="-8.003060007467866">
        <ele>0</ele>
        <time>2019-03-16T16:36:46Z</time>
      </trkpt>
      <trkpt lat="32.135930014774203" lon="-8.003050033003092">
        <ele>0</ele>
        <time>2019-03-16T16:36:54Z</time>
      </trkpt>
      <trkpt lat="32.136260010302067" lon="-8.003060007467866">
        <ele>0</ele>
        <time>2019-03-16T16:36:55Z</time>
      </trkpt>
      <trkpt lat="32.136759990826249" lon="-8.003039974719286">
        <ele>0</ele>
        <time>2019-03-16T16:36:57Z</time>
      </trkpt>
      <trkpt lat="32.137200040742755" lon="-8.002999993041158">
        <ele>0</ele>
        <time>2019-03-16T16:37:01Z</time>
      </trkpt>
      <trkpt lat="32.138009984046221" lon="-8.002950036898255">
        <ele>0</ele>
        <time>2019-03-16T16:37:03Z</time>
      </trkpt>
      <trkpt lat="32.139470027759671" lon="-8.002800000831485">
        <ele>0</ele>
        <time>2019-03-16T16:37:12Z</time>
      </trkpt>
      <trkpt lat="32.141120005398989" lon="-8.002560026943684">
        <ele>0</ele>
        <time>2019-03-16T16:37:15Z</time>
      </trkpt>
      <trkpt lat="32.142160031944513" lon="-8.002379983663559">
        <ele>0</ele>
        <time>2019-03-16T16:37:18Z</time>
      </trkpt>
      <trkpt lat="32.143879998475313" lon="-8.002019980922341">
        <ele>0</ele>
        <time>2019-03-16T16:37:22Z</time>
      </trkpt>
      <trkpt lat="32.145940018817782" lon="-8.001480018720031">
        <ele>0</ele>
        <time>2019-03-16T16:37:24Z</time>
      </trkpt>
      <trkpt lat="32.148259961977601" lon="-8.000730006024241">
        <ele>0</ele>
        <time>2019-03-16T16:37:34Z</time>
      </trkpt>
      <trkpt lat="32.148790033534169" lon="-8.000539988279343">
        <ele>0</ele>
        <time>2019-03-16T16:37:38Z</time>
      </trkpt>
      <trkpt lat="32.149269981309772" lon="-8.00033999606967">
        <ele>0</ele>
        <time>2019-03-16T16:37:45Z</time>
      </trkpt>
      <trkpt lat="32.149659991264343" lon="-8.000200018286705">
        <ele>0</ele>
        <time>2019-03-16T16:37:57Z</time>
      </trkpt>
      <trkpt lat="32.14991002343595" lon="-8.000089963898063">
        <ele>0</ele>
        <time>2019-03-16T16:38:10Z</time>
      </trkpt>
      <trkpt lat="32.150259967893362" lon="-7.999959960579872">
        <ele>0</ele>
        <time>2019-03-16T16:38:21Z</time>
      </trkpt>
      <trkpt lat="32.154199965298176" lon="-7.998339990153909">
        <ele>0</ele>
        <time>2019-03-16T16:38:22Z</time>
      </trkpt>
      <trkpt lat="32.154370034113526" lon="-7.998260026797652">
        <ele>0</ele>
        <time>2019-03-16T16:38:25Z</time>
      </trkpt>
      <trkpt lat="32.159100025892258" lon="-7.996379965916276">
        <ele>0</ele>
        <time>2019-03-16T16:38:31Z</time>
      </trkpt>
      <trkpt lat="32.159679969772696" lon="-7.996119959279895">
        <ele>0</ele>
        <time>2019-03-16T16:38:33Z</time>
      </trkpt>
      <trkpt lat="32.163430033251643" lon="-7.994609959423542">
        <ele>0</ele>
        <time>2019-03-16T16:38:34Z</time>
      </trkpt>
      <trkpt lat="32.165900012478232" lon="-7.993770008906722">
        <ele>0</ele>
        <time>2019-03-16T16:38:35Z</time>
      </trkpt>
      <trkpt lat="32.166899973526597" lon="-7.993479995056987">
        <ele>0</ele>
        <time>2019-03-16T16:38:36Z</time>
      </trkpt>
      <trkpt lat="32.16727003455162" lon="-7.993389973416925">
        <ele>0</ele>
        <time>2019-03-16T16:38:37Z</time>
      </trkpt>
      <trkpt lat="32.167610004544258" lon="-7.993289977312088">
        <ele>0</ele>
        <time>2019-03-16T16:38:38Z</time>
      </trkpt>
      <trkpt lat="32.168729994446039" lon="-7.993019996210933">
        <ele>0</ele>
        <time>2019-03-16T16:38:39Z</time>
      </trkpt>
      <trkpt lat="32.168959993869066" lon="-7.992980014532805">
        <ele>0</ele>
        <time>2019-03-16T16:38:40Z</time>
      </trkpt>
      <trkpt lat="32.169549996033311" lon="-7.99284003674984">
        <ele>0</ele>
        <time>2019-03-16T16:38:41Z</time>
      </trkpt>
      <trkpt lat="32.17391001060605" lon="-7.991979969665408">
        <ele>0</ele>
        <time>2019-03-16T16:38:43Z</time>
      </trkpt>
      <trkpt lat="32.174019981175661" lon="-7.991949962452054">
        <ele>0</ele>
        <time>2019-03-16T16:38:44Z</time>
      </trkpt>
      <trkpt lat="32.174149984493852" lon="-7.991930013522506">
        <ele>0</ele>
        <time>2019-03-16T16:38:45Z</time>
      </trkpt>
      <trkpt lat="32.176040019840002" lon="-7.991540003567934">
        <ele>0</ele>
        <time>2019-03-16T16:38:46Z</time>
      </trkpt>
      <trkpt lat="32.177559994161129" lon="-7.991270022466779">
        <ele>0</ele>
        <time>2019-03-16T16:38:47Z</time>
      </trkpt>
      <trkpt lat="32.179399989545345" lon="-7.9910599719733">
        <ele>0</ele>
        <time>2019-03-16T16:38:52Z</time>
      </trkpt>
      <trkpt lat="32.180559961125255" lon="-7.990980008617044">
        <ele>0</ele>
        <time>2019-03-16T16:38:53Z</time>
      </trkpt>
      <trkpt lat="32.182150008156896" lon="-7.990959975868464">
        <ele>0</ele>
        <time>2019-03-16T16:38:55Z</time>
      </trkpt>
      <trkpt lat="32.183650033548474" lon="-7.991000041365624">
        <ele>0</ele>
        <time>2019-03-16T16:38:56Z</time>
      </trkpt>
      <trkpt lat="32.185190040618181" lon="-7.991119986400008">
        <ele>0</ele>
        <time>2019-03-16T16:39:08Z</time>
      </trkpt>
      <trkpt lat="32.186009958386421" lon="-7.991210008040071">
        <ele>0</ele>
        <time>2019-03-16T16:39:16Z</time>
      </trkpt>
      <trkpt lat="32.186169968917966" lon="-7.991219982504845">
        <ele>0</ele>
        <time>2019-03-16T16:39:21Z</time>
      </trkpt>
      <trkpt lat="32.188250022009015" lon="-7.991449981927872">
        <ele>0</ele>
        <time>2019-03-16T16:39:28Z</time>
      </trkpt>
      <trkpt lat="32.1887999586761" lon="-7.991489963606">
        <ele>0</ele>
        <time>2019-03-16T16:39:31Z</time>
      </trkpt>
      <trkpt lat="32.190329991281033" lon="-7.991560036316514">
        <ele>0</ele>
        <time>2019-03-16T16:39:34Z</time>
      </trkpt>
      <trkpt lat="32.190870037302375" lon="-7.991570010781288">
        <ele>0</ele>
        <time>2019-03-16T16:39:36Z</time>
      </trkpt>
      <trkpt lat="32.192789996042848" lon="-7.991540003567934">
        <ele>0</ele>
        <time>2019-03-16T16:39:37Z</time>
      </trkpt>
      <trkpt lat="32.19384997151792" lon="-7.991479989141226">
        <ele>0</ele>
        <time>2019-03-16T16:39:38Z</time>
      </trkpt>
      <trkpt lat="32.194639965891838" lon="-7.991410000249744">
        <ele>0</ele>
        <time>2019-03-16T16:39:39Z</time>
      </trkpt>
      <trkpt lat="32.196859996765852" lon="-7.991159968078136">
        <ele>0</ele>
        <time>2019-03-16T16:39:40Z</time>
      </trkpt>
      <trkpt lat="32.198109989985824" lon="-7.990950001403689">
        <ele>0</ele>
        <time>2019-03-16T16:39:41Z</time>
      </trkpt>
      <trkpt lat="32.198890009894967" lon="-7.990799965336919">
        <ele>0</ele>
        <time>2019-03-16T16:39:55Z</time>
      </trkpt>
      <trkpt lat="32.199619989842176" lon="-7.990640038624406">
        <ele>0</ele>
        <time>2019-03-16T16:40:11Z</time>
      </trkpt>
      <trkpt lat="32.200600001960993" lon="-7.990399980917573">
        <ele>0</ele>
        <time>2019-03-16T16:40:21Z</time>
      </trkpt>
      <trkpt lat="32.200669990852475" lon="-7.990390006452799">
        <ele>0</ele>
        <time>2019-03-16T16:40:34Z</time>
      </trkpt>
      <trkpt lat="32.2021400090307" lon="-7.989979963749647">
        <ele>0</ele>
        <time>2019-03-16T16:40:38Z</time>
      </trkpt>
      <trkpt lat="32.202909970656037" lon="-7.989730015397072">
        <ele>0</ele>
        <time>2019-03-16T16:40:44Z</time>
      </trkpt>
      <trkpt lat="32.203299980610609" lon="-7.98961996100843">
        <ele>0</ele>
        <time>2019-03-16T16:40:52Z</time>
      </trkpt>
      <trkpt lat="32.205050038173795" lon="-7.988989977166057">
        <ele>0</ele>
        <time>2019-03-16T16:40:53Z</time>
      </trkpt>
      <trkpt lat="32.206479990854859" lon="-7.988420007750392">
        <ele>0</ele>
        <time>2019-03-16T16:40:54Z</time>
      </trkpt>
      <trkpt lat="32.207380039617419" lon="-7.98802999779582">
        <ele>0</ele>
        <time>2019-03-16T16:41:03Z</time>
      </trkpt>
      <trkpt lat="32.209320031106472" lon="-7.987089967355132">
        <ele>0</ele>
        <time>2019-03-16T16:41:10Z</time>
      </trkpt>
      <trkpt lat="32.210080018267035" lon="-7.986689982935786">
        <ele>0</ele>
        <time>2019-03-16T16:41:23Z</time>
      </trkpt>
      <trkpt lat="32.212719982489944" lon="-7.985200015828013">
        <ele>0</ele>
        <time>2019-03-16T16:41:24Z</time>
      </trkpt>
      <trkpt lat="32.213160032406449" lon="-7.984930034726858">
        <ele>0</ele>
        <time>2019-03-16T16:41:25Z</time>
      </trkpt>
      <trkpt lat="32.215040009468794" lon="-7.983850026503205">
        <ele>0</ele>
        <time>2019-03-16T16:41:26Z</time>
      </trkpt>
      <trkpt lat="32.215899992734194" lon="-7.983400002121925">
        <ele>0</ele>
        <time>2019-03-16T16:41:27Z</time>
      </trkpt>
      <trkpt lat="32.21632000990212" lon="-7.983200009912252">
        <ele>0</ele>
        <time>2019-03-16T16:41:28Z</time>
      </trkpt>
      <trkpt lat="32.217370010912418" lon="-7.982740011066198">
        <ele>0</ele>
        <time>2019-03-16T16:41:38Z</time>
      </trkpt>
      <trkpt lat="32.218970032408834" lon="-7.982150008901954">
        <ele>0</ele>
        <time>2019-03-16T16:41:51Z</time>
      </trkpt>
      <trkpt lat="32.220069989562035" lon="-7.981810038909316">
        <ele>0</ele>
        <time>2019-03-16T16:42:04Z</time>
      </trkpt>
      <trkpt lat="32.221249993890524" lon="-7.981509966775775">
        <ele>0</ele>
        <time>2019-03-16T16:42:14Z</time>
      </trkpt>
      <trkpt lat="32.222060021013021" lon="-7.981339981779456">
        <ele>0</ele>
        <time>2019-03-16T16:42:23Z</time>
      </trkpt>
      <trkpt lat="32.222569976001978" lon="-7.981249960139394">
        <ele>0</ele>
        <time>2019-03-16T16:42:39Z</time>
      </trkpt>
      <trkpt lat="32.22394997254014" lon="-7.981060026213527">
        <ele>0</ele>
        <time>2019-03-16T16:42:54Z</time>
      </trkpt>
      <trkpt lat="32.224950017407537" lon="-7.980970004573464">
        <ele>0</ele>
        <time>2019-03-16T16:43:10Z</time>
      </trkpt>
      <trkpt lat="32.226309981197119" lon="-7.980909990146756">
        <ele>0</ele>
        <time>2019-03-16T16:43:21Z</time>
      </trkpt>
      <trkpt lat="32.226599995046854" lon="-7.980909990146756">
        <ele>0</ele>
        <time>2019-03-16T16:43:32Z</time>
      </trkpt>
      <trkpt lat="32.226630002260208" lon="-7.980900015681982">
        <ele>0</ele>
        <time>2019-03-16T16:43:48Z</time>
      </trkpt>
      <trkpt lat="32.227159989997745" lon="-7.980909990146756">
        <ele>0</ele>
        <time>2019-03-16T16:44:00Z</time>
      </trkpt>
      <trkpt lat="32.233520010486245" lon="-7.980840001255274">
        <ele>0</ele>
        <time>2019-03-16T16:44:10Z</time>
      </trkpt>
      <trkpt lat="32.23668996244669" lon="-7.980860034003854">
        <ele>0</ele>
        <time>2019-03-16T16:44:20Z</time>
      </trkpt>
      <trkpt lat="32.236760035157204" lon="-7.980870008468628">
        <ele>0</ele>
        <time>2019-03-16T16:44:32Z</time>
      </trkpt>
      <trkpt lat="32.238199962303042" lon="-7.980879982933402">
        <ele>0</ele>
        <time>2019-03-16T16:44:42Z</time>
      </trkpt>
      <trkpt lat="32.239560009911656" lon="-7.980840001255274">
        <ele>0</ele>
        <time>2019-03-16T16:44:51Z</time>
      </trkpt>
      <trkpt lat="32.240380011498928" lon="-7.980779986828566">
        <ele>0</ele>
        <time>2019-03-16T16:44:57Z</time>
      </trkpt>
      <trkpt lat="32.241249969229102" lon="-7.980689965188503">
        <ele>0</ele>
        <time>2019-03-16T16:44:58Z</time>
      </trkpt>
      <trkpt lat="32.242680005729198" lon="-7.980459965765476">
        <ele>0</ele>
        <time>2019-03-16T16:44:59Z</time>
      </trkpt>
      <trkpt lat="32.243160037323833" lon="-7.98035996966064">
        <ele>0</ele>
        <time>2019-03-16T16:45:10Z</time>
      </trkpt>
      <trkpt lat="32.243730006739497" lon="-7.980210017412901">
        <ele>0</ele>
        <time>2019-03-16T16:45:22Z</time>
      </trkpt>
      <trkpt lat="32.244929959997535" lon="-7.979820007458329">
        <ele>0</ele>
        <time>2019-03-16T16:45:33Z</time>
      </trkpt>
      <trkpt lat="32.246060008183122" lon="-7.979360008612275">
        <ele>0</ele>
        <time>2019-03-16T16:45:42Z</time>
      </trkpt>
      <trkpt lat="32.246729973703623" lon="-7.979060020297766">
        <ele>0</ele>
        <time>2019-03-16T16:45:45Z</time>
      </trkpt>
      <trkpt lat="32.247609989717603" lon="-7.97861997038126">
        <ele>0</ele>
        <time>2019-03-16T16:45:46Z</time>
      </trkpt>
      <trkpt lat="32.248629983514547" lon="-7.978040026500821">
        <ele>0</ele>
        <time>2019-03-16T16:45:57Z</time>
      </trkpt>
      <trkpt lat="32.252339981496334" lon="-7.975659985095263">
        <ele>0</ele>
        <time>2019-03-16T16:46:08Z</time>
      </trkpt>
      <trkpt lat="32.252829987555742" lon="-7.975329989567399">
        <ele>0</ele>
        <time>2019-03-16T16:46:21Z</time>
      </trkpt>
      <trkpt lat="32.253270037472248" lon="-7.975060008466244">
        <ele>0</ele>
        <time>2019-03-16T16:46:26Z</time>
      </trkpt>
      <trkpt lat="32.253289986401796" lon="-7.975039975717664">
        <ele>0</ele>
        <time>2019-03-16T16:46:29Z</time>
      </trkpt>
      <trkpt lat="32.25331999361515" lon="-7.975020026788116">
        <ele>0</ele>
        <time>2019-03-16T16:46:30Z</time>
      </trkpt>
      <trkpt lat="32.253370033577085" lon="-7.974969986826181">
        <ele>0</ele>
        <time>2019-03-16T16:46:31Z</time>
      </trkpt>
      <trkpt lat="32.253389982506633" lon="-7.974939979612827">
        <ele>0</ele>
        <time>2019-03-16T16:46:32Z</time>
      </trkpt>
      <trkpt lat="32.253410015255213" lon="-7.974920030683279">
        <ele>0</ele>
        <time>2019-03-16T16:46:33Z</time>
      </trkpt>
      <trkpt lat="32.253459971398115" lon="-7.974890023469925">
        <ele>0</ele>
        <time>2019-03-16T16:46:40Z</time>
      </trkpt>
      <trkpt lat="32.253489978611469" lon="-7.974860016256571">
        <ele>0</ele>
        <time>2019-03-16T16:46:44Z</time>
      </trkpt>
      <trkpt lat="32.253589974716306" lon="-7.974790027365089">
        <ele>0</ele>
        <time>2019-03-16T16:46:45Z</time>
      </trkpt>
      <trkpt lat="32.254990004003048" lon="-7.973989974707365">
        <ele>0</ele>
        <time>2019-03-16T16:46:55Z</time>
      </trkpt>
      <trkpt lat="32.256750036031008" lon="-7.973090009763837">
        <ele>0</ele>
        <time>2019-03-16T16:47:00Z</time>
      </trkpt>
      <trkpt lat="32.258270010352135" lon="-7.972400011494756">
        <ele>0</ele>
        <time>2019-03-16T16:47:06Z</time>
      </trkpt>
      <trkpt lat="32.258749958127737" lon="-7.972209993749857">
        <ele>0</ele>
        <time>2019-03-16T16:47:07Z</time>
      </trkpt>
      <trkpt lat="32.259220015257597" lon="-7.97200002707541">
        <ele>0</ele>
        <time>2019-03-16T16:47:10Z</time>
      </trkpt>
      <trkpt lat="32.260769996792078" lon="-7.971419999375939">
        <ele>0</ele>
        <time>2019-03-16T16:47:12Z</time>
      </trkpt>
      <trkpt lat="32.26260001771152" lon="-7.970809964463115">
        <ele>0</ele>
        <time>2019-03-16T16:47:13Z</time>
      </trkpt>
      <trkpt lat="32.26386995986104" lon="-7.970449961721897">
        <ele>0</ele>
        <time>2019-03-16T16:47:14Z</time>
      </trkpt>
      <trkpt lat="32.26522003300488" lon="-7.970119966194034">
        <ele>0</ele>
        <time>2019-03-16T16:47:16Z</time>
      </trkpt>
      <trkpt lat="32.266740007326007" lon="-7.969800028949976">
        <ele>0</ele>
        <time>2019-03-16T16:47:17Z</time>
      </trkpt>
      <trkpt lat="32.268140036612749" lon="-7.969559971243143">
        <ele>0</ele>
        <time>2019-03-16T16:47:25Z</time>
      </trkpt>
      <trkpt lat="32.27269995957613" lon="-7.96892998740077">
        <ele>0</ele>
        <time>2019-03-16T16:47:35Z</time>
      </trkpt>
      <trkpt lat="32.274719998240471" lon="-7.968599991872907">
        <ele>0</ele>
        <time>2019-03-16T16:47:39Z</time>
      </trkpt>
      <trkpt lat="32.27587996982038" lon="-7.9683499597013">
        <ele>0</ele>
        <time>2019-03-16T16:47:50Z</time>
      </trkpt>
      <trkpt lat="32.276160009205341" lon="-7.968279970809817">
        <ele>0</ele>
        <time>2019-03-16T16:47:53Z</time>
      </trkpt>
      <trkpt lat="32.277159970253706" lon="-7.96807000413537">
        <ele>0</ele>
        <time>2019-03-16T16:47:54Z</time>
      </trkpt>
      <trkpt lat="32.277330039069057" lon="-7.968019964173436">
        <ele>0</ele>
        <time>2019-03-16T16:48:03Z</time>
      </trkpt>
      <trkpt lat="32.277849968522787" lon="-7.967900019139051">
        <ele>0</ele>
        <time>2019-03-16T16:48:10Z</time>
      </trkpt>
      <trkpt lat="32.278620013967156" lon="-7.967689968645573">
        <ele>0</ele>
        <time>2019-03-16T16:48:11Z</time>
      </trkpt>
      <trkpt lat="32.280680034309626" lon="-7.96708001755178">
        <ele>0</ele>
        <time>2019-03-16T16:48:13Z</time>
      </trkpt>
      <trkpt lat="32.281370032578707" lon="-7.966859992593527">
        <ele>0</ele>
        <time>2019-03-16T16:48:14Z</time>
      </trkpt>
      <trkpt lat="32.283259984105825" lon="-7.966190027073026">
        <ele>0</ele>
        <time>2019-03-16T16:48:15Z</time>
      </trkpt>
      <trkpt lat="32.284829998388886" lon="-7.965570017695427">
        <ele>0</ele>
        <time>2019-03-16T16:48:16Z</time>
      </trkpt>
      <trkpt lat="32.285970021039248" lon="-7.965080011636019">
        <ele>0</ele>
        <time>2019-03-16T16:48:17Z</time>
      </trkpt>
      <trkpt lat="32.29356000199914" lon="-7.961519965901971">
        <ele>0</ele>
        <time>2019-03-16T16:48:18Z</time>
      </trkpt>
      <trkpt lat="32.295019961893559" lon="-7.960919989272952">
        <ele>0</ele>
        <time>2019-03-16T16:48:19Z</time>
      </trkpt>
      <trkpt lat="32.296210024505854" lon="-7.960489997640252">
        <ele>0</ele>
        <time>2019-03-16T16:48:20Z</time>
      </trkpt>
      <trkpt lat="32.296979986131191" lon="-7.960239965468645">
        <ele>0</ele>
        <time>2019-03-16T16:48:21Z</time>
      </trkpt>
      <trkpt lat="32.298689978197217" lon="-7.959760017693043">
        <ele>0</ele>
        <time>2019-03-16T16:48:32Z</time>
      </trkpt>
      <trkpt lat="32.29976998642087" lon="-7.95951995998621">
        <ele>0</ele>
        <time>2019-03-16T16:48:42Z</time>
      </trkpt>
      <trkpt lat="32.30118996463716" lon="-7.959240004420281">
        <ele>0</ele>
        <time>2019-03-16T16:48:44Z</time>
      </trkpt>
      <trkpt lat="32.302680015563965" lon="-7.959030037745833">
        <ele>0</ele>
        <time>2019-03-16T16:48:47Z</time>
      </trkpt>
      <trkpt lat="32.303419969975948" lon="-7.958949990570545">
        <ele>0</ele>
        <time>2019-03-16T16:48:50Z</time>
      </trkpt>
      <trkpt lat="32.3042600043118" lon="-7.958880001679063">
        <ele>0</ele>
        <time>2019-03-16T16:48:51Z</time>
      </trkpt>
      <trkpt lat="32.305080005899072" lon="-7.958840020000935">
        <ele>0</ele>
        <time>2019-03-16T16:48:52Z</time>
      </trkpt>
      <trkpt lat="32.318579982966185" lon="-7.958670035004616">
        <ele>0</ele>
        <time>2019-03-16T16:48:53Z</time>
      </trkpt>
      <trkpt lat="32.320019993931055" lon="-7.958559980615974">
        <ele>0</ele>
        <time>2019-03-16T16:48:54Z</time>
      </trkpt>
      <trkpt lat="32.321320027112961" lon="-7.958410028368235">
        <ele>0</ele>
        <time>2019-03-16T16:48:55Z</time>
      </trkpt>
      <trkpt lat="32.322110021486878" lon="-7.958289999514818">
        <ele>0</ele>
        <time>2019-03-16T16:48:56Z</time>
      </trkpt>
      <trkpt lat="32.323650028556585" lon="-7.957999985665083">
        <ele>0</ele>
        <time>2019-03-16T16:49:07Z</time>
      </trkpt>
      <trkpt lat="32.324229972437024" lon="-7.957869982346892">
        <ele>0</ele>
        <time>2019-03-16T16:49:11Z</time>
      </trkpt>
      <trkpt lat="32.325499998405576" lon="-7.957530012354255">
        <ele>0</ele>
        <time>2019-03-16T16:49:12Z</time>
      </trkpt>
      <trkpt lat="32.32651999220252" lon="-7.95721996575594">
        <ele>0</ele>
        <time>2019-03-16T16:49:13Z</time>
      </trkpt>
      <trkpt lat="32.337459968402982" lon="-7.953530000522733">
        <ele>0</ele>
        <time>2019-03-16T16:49:14Z</time>
      </trkpt>
      <trkpt lat="32.337600030004978" lon="-7.953499993309379">
        <ele>0</ele>
        <time>2019-03-16T16:49:15Z</time>
      </trkpt>
      <trkpt lat="32.337710000574589" lon="-7.953499993309379">
        <ele>0</ele>
        <time>2019-03-16T16:49:16Z</time>
      </trkpt>
      <trkpt lat="32.337779989466071" lon="-7.953509967774153">
        <ele>0</ele>
        <time>2019-03-16T16:49:17Z</time>
      </trkpt>
      <trkpt lat="32.337870011106133" lon="-7.953499993309379">
        <ele>0</ele>
        <time>2019-03-16T16:49:23Z</time>
      </trkpt>
      <trkpt lat="32.33794997446239" lon="-7.953479960560799">
        <ele>0</ele>
        <time>2019-03-16T16:49:24Z</time>
      </trkpt>
      <trkpt lat="32.3420300334692" lon="-7.952110022306442">
        <ele>0</ele>
        <time>2019-03-16T16:49:25Z</time>
      </trkpt>
      <trkpt lat="32.343699960038066" lon="-7.951509961858392">
        <ele>0</ele>
        <time>2019-03-16T16:49:26Z</time>
      </trkpt>
      <trkpt lat="32.344960011541843" lon="-7.951009981334209">
        <ele>0</ele>
        <time>2019-03-16T16:49:27Z</time>
      </trkpt>
      <trkpt lat="32.346019987016916" lon="-7.950549982488155">
        <ele>0</ele>
        <time>2019-03-16T16:49:28Z</time>
      </trkpt>
      <trkpt lat="32.346999999135733" lon="-7.950089983642101">
        <ele>0</ele>
        <time>2019-03-16T16:49:29Z</time>
      </trkpt>
      <trkpt lat="32.348860027268529" lon="-7.949120029807091">
        <ele>0</ele>
        <time>2019-03-16T16:49:30Z</time>
      </trkpt>
      <trkpt lat="32.350579993799329" lon="-7.948119984939694">
        <ele>0</ele>
        <time>2019-03-16T16:49:31Z</time>
      </trkpt>
      <trkpt lat="32.353760004043579" lon="-7.946119979023933">
        <ele>0</ele>
        <time>2019-03-16T16:49:32Z</time>
      </trkpt>
      <trkpt lat="32.354180021211505" lon="-7.945840023458004">
        <ele>0</ele>
        <time>2019-03-16T16:49:42Z</time>
      </trkpt>
      <trkpt lat="32.365489974617958" lon="-7.938729990273714">
        <ele>0</ele>
        <time>2019-03-16T16:49:49Z</time>
      </trkpt>
      <trkpt lat="32.366290027275681" lon="-7.93824995867908">
        <ele>0</ele>
        <time>2019-03-16T16:49:57Z</time>
      </trkpt>
      <trkpt lat="32.367159985005856" lon="-7.937760036438704">
        <ele>0</ele>
        <time>2019-03-16T16:50:08Z</time>
      </trkpt>
      <trkpt lat="32.368379971012473" lon="-7.937129968777299">
        <ele>0</ele>
        <time>2019-03-16T16:50:22Z</time>
      </trkpt>
      <trkpt lat="32.369199972599745" lon="-7.936750017106533">
        <ele>0</ele>
        <time>2019-03-16T16:50:31Z</time>
      </trkpt>
      <trkpt lat="32.370730005204678" lon="-7.936130007728934">
        <ele>0</ele>
        <time>2019-03-16T16:50:40Z</time>
      </trkpt>
      <trkpt lat="32.371880002319813" lon="-7.935709990561009">
        <ele>0</ele>
        <time>2019-03-16T16:50:46Z</time>
      </trkpt>
      <trkpt lat="32.372979959473014" lon="-7.935359962284565">
        <ele>0</ele>
        <time>2019-03-16T16:50:53Z</time>
      </trkpt>
      <trkpt lat="32.374170022085309" lon="-7.935010017827153">
        <ele>0</ele>
        <time>2019-03-16T16:50:59Z</time>
      </trkpt>
      <trkpt lat="32.375439964234829" lon="-7.934699971228838">
        <ele>0</ele>
        <time>2019-03-16T16:51:00Z</time>
      </trkpt>
      <trkpt lat="32.376739997416735" lon="-7.934459997341037">
        <ele>0</ele>
        <time>2019-03-16T16:51:01Z</time>
      </trkpt>
      <trkpt lat="32.377710035070777" lon="-7.934320019558072">
        <ele>0</ele>
        <time>2019-03-16T16:51:02Z</time>
      </trkpt>
      <trkpt lat="32.379239983856678" lon="-7.934150034561753">
        <ele>0</ele>
        <time>2019-03-16T16:51:03Z</time>
      </trkpt>
      <trkpt lat="32.380040036514401" lon="-7.934099994599819">
        <ele>0</ele>
        <time>2019-03-16T16:51:15Z</time>
      </trkpt>
      <trkpt lat="32.381729995831847" lon="-7.934060012921691">
        <ele>0</ele>
        <time>2019-03-16T16:51:23Z</time>
      </trkpt>
      <trkpt lat="32.383549958467484" lon="-7.934130001813173">
        <ele>0</ele>
        <time>2019-03-16T16:51:31Z</time>
      </trkpt>
      <trkpt lat="32.384389992803335" lon="-7.934199990704656">
        <ele>0</ele>
        <time>2019-03-16T16:51:32Z</time>
      </trkpt>
      <trkpt lat="32.385370004922152" lon="-7.934309961274266">
        <ele>0</ele>
        <time>2019-03-16T16:51:33Z</time>
      </trkpt>
      <trkpt lat="32.386350017040968" lon="-7.934459997341037">
        <ele>0</ele>
        <time>2019-03-16T16:51:34Z</time>
      </trkpt>
      <trkpt lat="32.38770998083055" lon="-7.934729978442192">
        <ele>0</ele>
        <time>2019-03-16T16:51:35Z</time>
      </trkpt>
      <trkpt lat="32.388780014589429" lon="-7.934980010613799">
        <ele>0</ele>
        <time>2019-03-16T16:51:45Z</time>
      </trkpt>
      <trkpt lat="32.390980012714863" lon="-7.93556003831327">
        <ele>0</ele>
        <time>2019-03-16T16:51:54Z</time>
      </trkpt>
      <trkpt lat="32.392940036952496" lon="-7.93612003326416">
        <ele>0</ele>
        <time>2019-03-16T16:52:02Z</time>
      </trkpt>
      <trkpt lat="32.395849982276559" lon="-7.936889994889498">
        <ele>0</ele>
        <time>2019-03-16T16:52:10Z</time>
      </trkpt>
      <trkpt lat="32.400519959628582" lon="-7.938209977000952">
        <ele>0</ele>
        <time>2019-03-16T16:52:20Z</time>
      </trkpt>
      <trkpt lat="32.40231997333467" lon="-7.938669975847006">
        <ele>0</ele>
        <time>2019-03-16T16:52:30Z</time>
      </trkpt>
      <trkpt lat="32.403209963813424" lon="-7.938829986378551">
        <ele>0</ele>
        <time>2019-03-16T16:52:38Z</time>
      </trkpt>
      <trkpt lat="32.40453002974391" lon="-7.939010029658675">
        <ele>0</ele>
        <time>2019-03-16T16:52:48Z</time>
      </trkpt>
      <trkpt lat="32.405480034649372" lon="-7.939059985801578">
        <ele>0</ele>
        <time>2019-03-16T16:52:58Z</time>
      </trkpt>
      <trkpt lat="32.40635996684432" lon="-7.939069960266352">
        <ele>0</ele>
        <time>2019-03-16T16:53:05Z</time>
      </trkpt>
      <trkpt lat="32.407660000026226" lon="-7.939020004123449">
        <ele>0</ele>
        <time>2019-03-16T16:53:16Z</time>
      </trkpt>
      <trkpt lat="32.40857002325356" lon="-7.938940040767193">
        <ele>0</ele>
        <time>2019-03-16T16:53:21Z</time>
      </trkpt>
      <trkpt lat="32.409090036526322" lon="-7.938880026340485">
        <ele>0</ele>
        <time>2019-03-16T16:53:31Z</time>
      </trkpt>
      <trkpt lat="32.409739969298244" lon="-7.938780030235648">
        <ele>0</ele>
        <time>2019-03-16T16:53:40Z</time>
      </trkpt>
      <trkpt lat="32.410710006952286" lon="-7.938580038025975">
        <ele>0</ele>
        <time>2019-03-16T16:53:51Z</time>
      </trkpt>
      <trkpt lat="32.412080029025674" lon="-7.938190028071404">
        <ele>0</ele>
        <time>2019-03-16T16:53:52Z</time>
      </trkpt>
      <trkpt lat="32.41349003277719" lon="-7.937679989263415">
        <ele>0</ele>
        <time>2019-03-16T16:54:01Z</time>
      </trkpt>
      <trkpt lat="32.414499968290329" lon="-7.937240023165941">
        <ele>0</ele>
        <time>2019-03-16T16:54:02Z</time>
      </trkpt>
      <trkpt lat="32.415249980986118" lon="-7.936880020424724">
        <ele>0</ele>
        <time>2019-03-16T16:54:12Z</time>
      </trkpt>
      <trkpt lat="32.416030000895262" lon="-7.936460003256798">
        <ele>0</ele>
        <time>2019-03-16T16:54:21Z</time>
      </trkpt>
      <trkpt lat="32.421559961512685" lon="-7.933240011334419">
        <ele>0</ele>
        <time>2019-03-16T16:54:31Z</time>
      </trkpt>
      <trkpt lat="32.422309974208474" lon="-7.932829968631268">
        <ele>0</ele>
        <time>2019-03-16T16:54:39Z</time>
      </trkpt>
      <trkpt lat="32.423010030761361" lon="-7.932499973103404">
        <ele>0</ele>
        <time>2019-03-16T16:54:53Z</time>
      </trkpt>
      <trkpt lat="32.423900021240115" lon="-7.932129995897412">
        <ele>0</ele>
        <time>2019-03-16T16:55:01Z</time>
      </trkpt>
      <trkpt lat="32.424860000610352" lon="-7.931790025904775">
        <ele>0</ele>
        <time>2019-03-16T16:55:03Z</time>
      </trkpt>
      <trkpt lat="32.425789972767234" lon="-7.931530019268394">
        <ele>0</ele>
        <time>2019-03-16T16:55:13Z</time>
      </trkpt>
      <trkpt lat="32.426560018211603" lon="-7.931370008736849">
        <ele>0</ele>
        <time>2019-03-16T16:55:26Z</time>
      </trkpt>
      <trkpt lat="32.427389994263649" lon="-7.931230030953884">
        <ele>0</ele>
        <time>2019-03-16T16:55:28Z</time>
      </trkpt>
      <trkpt lat="32.428230028599501" lon="-7.931140009313822">
        <ele>0</ele>
        <time>2019-03-16T16:55:29Z</time>
      </trkpt>
      <trkpt lat="32.429009964689612" lon="-7.931089969351888">
        <ele>0</ele>
        <time>2019-03-16T16:55:30Z</time>
      </trkpt>
      <trkpt lat="32.429880006238818" lon="-7.931079994887114">
        <ele>0</ele>
        <time>2019-03-16T16:55:31Z</time>
      </trkpt>
      <trkpt lat="32.435320029035211" lon="-7.931379983201623">
        <ele>0</ele>
        <time>2019-03-16T16:55:32Z</time>
      </trkpt>
      <trkpt lat="32.437030021101236" lon="-7.931509986519814">
        <ele>0</ele>
        <time>2019-03-16T16:55:41Z</time>
      </trkpt>
      <trkpt lat="32.440010039135814" lon="-7.931690029799938">
        <ele>0</ele>
        <time>2019-03-16T16:55:50Z</time>
      </trkpt>
      <trkpt lat="32.441219966858625" lon="-7.931720037013292">
        <ele>0</ele>
        <time>2019-03-16T16:56:02Z</time>
      </trkpt>
      <trkpt lat="32.442060001194477" lon="-7.931709978729487">
        <ele>0</ele>
        <time>2019-03-16T16:56:10Z</time>
      </trkpt>
      <trkpt lat="32.444789987057447" lon="-7.931579975411296">
        <ele>0</ele>
        <time>2019-03-16T16:56:17Z</time>
      </trkpt>
      <trkpt lat="32.446429990231991" lon="-7.931470004841685">
        <ele>0</ele>
        <time>2019-03-16T16:56:25Z</time>
      </trkpt>
      <trkpt lat="32.455499963834882" lon="-7.931019980460405">
        <ele>0</ele>
        <time>2019-03-16T16:56:38Z</time>
      </trkpt>
      <trkpt lat="32.456609979271889" lon="-7.930940017104149">
        <ele>0</ele>
        <time>2019-03-16T16:56:49Z</time>
      </trkpt>
      <trkpt lat="32.457719994708896" lon="-7.930810013785958">
        <ele>0</ele>
        <time>2019-03-16T16:56:59Z</time>
      </trkpt>
      <trkpt lat="32.458779970183969" lon="-7.93064002878964">
        <ele>0</ele>
        <time>2019-03-16T16:57:07Z</time>
      </trkpt>
      <trkpt lat="32.459810022264719" lon="-7.930420003831387">
        <ele>0</ele>
        <time>2019-03-16T16:57:16Z</time>
      </trkpt>
      <trkpt lat="32.460600016638637" lon="-7.930220011621714">
        <ele>0</ele>
        <time>2019-03-16T16:57:30Z</time>
      </trkpt>
      <trkpt lat="32.461429992690682" lon="-7.929980037733913">
        <ele>0</ele>
        <time>2019-03-16T16:57:42Z</time>
      </trkpt>
      <trkpt lat="32.463239980861545" lon="-7.92933002114296">
        <ele>0</ele>
        <time>2019-03-16T16:57:55Z</time>
      </trkpt>
      <trkpt lat="32.464219992980361" lon="-7.928910003975034">
        <ele>0</ele>
        <time>2019-03-16T16:58:00Z</time>
      </trkpt>
      <trkpt lat="32.465109983459115" lon="-7.928499961271882">
        <ele>0</ele>
        <time>2019-03-16T16:58:01Z</time>
      </trkpt>
      <trkpt lat="32.467200011014938" lon="-7.927469993010163">
        <ele>0</ele>
        <time>2019-03-16T16:58:02Z</time>
      </trkpt>
      <trkpt lat="32.468059994280338" lon="-7.927079983055592">
        <ele>0</ele>
        <time>2019-03-16T16:58:03Z</time>
      </trkpt>
      <trkpt lat="32.468849988654256" lon="-7.926749987527728">
        <ele>0</ele>
        <time>2019-03-16T16:58:04Z</time>
      </trkpt>
      <trkpt lat="32.469839975237846" lon="-7.926380010321736">
        <ele>0</ele>
        <time>2019-03-16T16:58:05Z</time>
      </trkpt>
      <trkpt lat="32.470819987356663" lon="-7.926069963723421">
        <ele>0</ele>
        <time>2019-03-16T16:58:06Z</time>
      </trkpt>
      <trkpt lat="32.471779966726899" lon="-7.925810040906072">
        <ele>0</ele>
        <time>2019-03-16T16:58:07Z</time>
      </trkpt>
      <trkpt lat="32.472859974950552" lon="-7.925560008734465">
        <ele>0</ele>
        <time>2019-03-16T16:58:08Z</time>
      </trkpt>
      <trkpt lat="32.473890027031302" lon="-7.92537996545434">
        <ele>0</ele>
        <time>2019-03-16T16:58:09Z</time>
      </trkpt>
      <trkpt lat="32.476520016789436" lon="-7.925160024315119">
        <ele>0</ele>
        <time>2019-03-16T16:58:10Z</time>
      </trkpt>
      <trkpt lat="32.477359967306256" lon="-7.925109984353185">
        <ele>0</ele>
        <time>2019-03-16T16:58:11Z</time>
      </trkpt>
      <trkpt lat="32.479610005393624" lon="-7.924879984930158">
        <ele>0</ele>
        <time>2019-03-16T16:58:12Z</time>
      </trkpt>
      <trkpt lat="32.480620024725795" lon="-7.924730032682419">
        <ele>0</ele>
        <time>2019-03-16T16:58:13Z</time>
      </trkpt>
      <trkpt lat="32.482400005683303" lon="-7.924349997192621">
        <ele>0</ele>
        <time>2019-03-16T16:58:14Z</time>
      </trkpt>
      <trkpt lat="32.483229981735349" lon="-7.924119997769594">
        <ele>0</ele>
        <time>2019-03-16T16:58:15Z</time>
      </trkpt>
      <trkpt lat="32.484089965000749" lon="-7.923859991133213">
        <ele>0</ele>
        <time>2019-03-16T16:58:16Z</time>
      </trkpt>
      <trkpt lat="32.484850035980344" lon="-7.923580035567284">
        <ele>0</ele>
        <time>2019-03-16T16:58:17Z</time>
      </trkpt>
      <trkpt lat="32.486070021986961" lon="-7.923090029507875">
        <ele>0</ele>
        <time>2019-03-16T16:58:18Z</time>
      </trkpt>
      <trkpt lat="32.486850041896105" lon="-7.922740001231432">
        <ele>0</ele>
        <time>2019-03-16T16:58:19Z</time>
      </trkpt>
      <trkpt lat="32.49100998044014" lon="-7.92060999199748">
        <ele>0</ele>
        <time>2019-03-16T16:58:24Z</time>
      </trkpt>
      <trkpt lat="32.492440016940236" lon="-7.920000040903688">
        <ele>0</ele>
        <time>2019-03-16T16:58:25Z</time>
      </trkpt>
      <trkpt lat="32.493939958512783" lon="-7.919450020417571">
        <ele>0</ele>
        <time>2019-03-16T16:58:26Z</time>
      </trkpt>
      <trkpt lat="32.495149970054626" lon="-7.919090017676354">
        <ele>0</ele>
        <time>2019-03-16T16:58:27Z</time>
      </trkpt>
      <trkpt lat="32.496589981019497" lon="-7.91876002214849">
        <ele>0</ele>
        <time>2019-03-16T16:58:28Z</time>
      </trkpt>
      <trkpt lat="32.497469997033477" lon="-7.918600011616945">
        <ele>0</ele>
        <time>2019-03-16T16:58:29Z</time>
      </trkpt>
      <trkpt lat="32.498840019106865" lon="-7.918409993872047">
        <ele>0</ele>
        <time>2019-03-16T16:58:30Z</time>
      </trkpt>
      <trkpt lat="32.500139968469739" lon="-7.918319972231984">
        <ele>0</ele>
        <time>2019-03-16T16:58:31Z</time>
      </trkpt>
      <trkpt lat="32.502150032669306" lon="-7.918319972231984">
        <ele>0</ele>
        <time>2019-03-16T16:58:32Z</time>
      </trkpt>
      <trkpt lat="32.503200033679605" lon="-7.918400019407272">
        <ele>0</ele>
        <time>2019-03-16T16:58:33Z</time>
      </trkpt>
      <trkpt lat="32.503370018675923" lon="-7.918419968336821">
        <ele>0</ele>
        <time>2019-03-16T16:58:34Z</time>
      </trkpt>
      <trkpt lat="32.503430033102632" lon="-7.918419968336821">
        <ele>0</ele>
        <time>2019-03-16T16:58:35Z</time>
      </trkpt>
      <trkpt lat="32.507240027189255" lon="-7.918809978291392">
        <ele>0</ele>
        <time>2019-03-16T16:58:36Z</time>
      </trkpt>
      <trkpt lat="32.508750027045608" lon="-7.918909974396229">
        <ele>0</ele>
        <time>2019-03-16T16:58:37Z</time>
      </trkpt>
      <trkpt lat="32.510279975831509" lon="-7.918930007144809">
        <ele>0</ele>
        <time>2019-03-16T16:58:38Z</time>
      </trkpt>
      <trkpt lat="32.511649997904897" lon="-7.918860018253326">
        <ele>0</ele>
        <time>2019-03-16T16:58:39Z</time>
      </trkpt>
      <trkpt lat="32.512909965589643" lon="-7.91873998939991">
        <ele>0</ele>
        <time>2019-03-16T16:58:42Z</time>
      </trkpt>
      <trkpt lat="32.514200024306774" lon="-7.918549971655011">
        <ele>0</ele>
        <time>2019-03-16T16:58:52Z</time>
      </trkpt>
      <trkpt lat="32.515550013631582" lon="-7.918279990553856">
        <ele>0</ele>
        <time>2019-03-16T16:59:10Z</time>
      </trkpt>
      <trkpt lat="32.516849962994456" lon="-7.917940020561218">
        <ele>0</ele>
        <time>2019-03-16T16:59:23Z</time>
      </trkpt>
      <trkpt lat="32.518149996176362" lon="-7.917569959536195">
        <ele>0</ele>
        <time>2019-03-16T16:59:31Z</time>
      </trkpt>
      <trkpt lat="32.519179964438081" lon="-7.917210040614009">
        <ele>0</ele>
        <time>2019-03-16T16:59:43Z</time>
      </trkpt>
      <trkpt lat="32.523569986224174" lon="-7.915550004690886">
        <ele>0</ele>
        <time>2019-03-16T16:59:52Z</time>
      </trkpt>
      <trkpt lat="32.526519997045398" lon="-7.914509978145361">
        <ele>0</ele>
        <time>2019-03-16T17:00:01Z</time>
      </trkpt>
      <trkpt lat="32.527519958093762" lon="-7.914130026474595">
        <ele>0</ele>
        <time>2019-03-16T17:00:12Z</time>
      </trkpt>
      <trkpt lat="32.528750002384186" lon="-7.913589980453253">
        <ele>0</ele>
        <time>2019-03-16T17:00:20Z</time>
      </trkpt>
      <trkpt lat="32.529309997335076" lon="-7.913310024887323">
        <ele>0</ele>
        <time>2019-03-16T17:00:31Z</time>
      </trkpt>
      <trkpt lat="32.531010014936328" lon="-7.912349961698055">
        <ele>0</ele>
        <time>2019-03-16T17:00:32Z</time>
      </trkpt>
      <trkpt lat="32.531920038163662" lon="-7.911749985069037">
        <ele>0</ele>
        <time>2019-03-16T17:00:33Z</time>
      </trkpt>
      <trkpt lat="32.532729981467128" lon="-7.911170041188598">
        <ele>0</ele>
        <time>2019-03-16T17:00:34Z</time>
      </trkpt>
      <trkpt lat="32.533540008589625" lon="-7.910560006275773">
        <ele>0</ele>
        <time>2019-03-16T17:00:46Z</time>
      </trkpt>
      <trkpt lat="32.539849989116192" lon="-7.905349982902408">
        <ele>0</ele>
        <time>2019-03-16T17:00:58Z</time>
      </trkpt>
      <trkpt lat="32.540669990703464" lon="-7.904599970206618">
        <ele>0</ele>
        <time>2019-03-16T17:01:13Z</time>
      </trkpt>
      <trkpt lat="32.541380021721125" lon="-7.903899997472763">
        <ele>0</ele>
        <time>2019-03-16T17:01:30Z</time>
      </trkpt>
      <trkpt lat="32.542130034416914" lon="-7.90311997756362">
        <ele>0</ele>
        <time>2019-03-16T17:01:40Z</time>
      </trkpt>
      <trkpt lat="32.542839981615543" lon="-7.902320008724928">
        <ele>0</ele>
        <time>2019-03-16T17:01:56Z</time>
      </trkpt>
      <trkpt lat="32.543599968776107" lon="-7.90137997828424">
        <ele>0</ele>
        <time>2019-03-16T17:02:06Z</time>
      </trkpt>
      <trkpt lat="32.544309999793768" lon="-7.900450006127358">
        <ele>0</ele>
        <time>2019-03-16T17:02:14Z</time>
      </trkpt>
      <trkpt lat="32.545079961419106" lon="-7.899339990690351">
        <ele>0</ele>
        <time>2019-03-16T17:02:28Z</time>
      </trkpt>
      <trkpt lat="32.545740036293864" lon="-7.898319996893406">
        <ele>0</ele>
        <time>2019-03-16T17:02:42Z</time>
      </trkpt>
      <trkpt lat="32.551599992439151" lon="-7.888360032811761">
        <ele>0</ele>
        <time>2019-03-16T17:02:56Z</time>
      </trkpt>
      <trkpt lat="32.552949981763959" lon="-7.886219965294004">
        <ele>0</ele>
        <time>2019-03-16T17:03:12Z</time>
      </trkpt>
      <trkpt lat="32.553899986669421" lon="-7.884769979864359">
        <ele>0</ele>
        <time>2019-03-16T17:03:22Z</time>
      </trkpt>
      <trkpt lat="32.553969975560904" lon="-7.884650034829974">
        <ele>0</ele>
        <time>2019-03-16T17:03:35Z</time>
      </trkpt>
      <trkpt lat="32.556210039183497" lon="-7.881449991837144">
        <ele>0</ele>
        <time>2019-03-16T17:03:47Z</time>
      </trkpt>
      <trkpt lat="32.557179993018508" lon="-7.880139984190464">
        <ele>0</ele>
        <time>2019-03-16T17:04:01Z</time>
      </trkpt>
      <trkpt lat="32.558910017833114" lon="-7.877909978851676">
        <ele>0</ele>
        <time>2019-03-16T17:04:14Z</time>
      </trkpt>
      <trkpt lat="32.568209990859032" lon="-7.866559959948063">
        <ele>0</ele>
        <time>2019-03-16T17:04:28Z</time>
      </trkpt>
      <trkpt lat="32.569810012355447" lon="-7.864279998466373">
        <ele>0</ele>
        <time>2019-03-16T17:04:45Z</time>
      </trkpt>
      <trkpt lat="32.570539992302656" lon="-7.863150034099817">
        <ele>0</ele>
        <time>2019-03-16T17:04:58Z</time>
      </trkpt>
      <trkpt lat="32.571269972249866" lon="-7.861880008131266">
        <ele>0</ele>
        <time>2019-03-16T17:05:13Z</time>
      </trkpt>
      <trkpt lat="32.571870032697916" lon="-7.860790025442839">
        <ele>0</ele>
        <time>2019-03-16T17:05:31Z</time>
      </trkpt>
      <trkpt lat="32.580150011926889" lon="-7.843960002064705">
        <ele>0</ele>
        <time>2019-03-16T17:05:45Z</time>
      </trkpt>
      <trkpt lat="32.580719981342554" lon="-7.84296004101634">
        <ele>0</ele>
        <time>2019-03-16T17:06:00Z</time>
      </trkpt>
      <trkpt lat="32.581349965184927" lon="-7.841920014470816">
        <ele>0</ele>
        <time>2019-03-16T17:06:06Z</time>
      </trkpt>
      <trkpt lat="32.581860003992915" lon="-7.841139994561672">
        <ele>0</ele>
        <time>2019-03-16T17:06:09Z</time>
      </trkpt>
      <trkpt lat="32.582700038328767" lon="-7.839940041303635">
        <ele>0</ele>
        <time>2019-03-16T17:06:22Z</time>
      </trkpt>
      <trkpt lat="32.583319963887334" lon="-7.839139988645911">
        <ele>0</ele>
        <time>2019-03-16T17:06:35Z</time>
      </trkpt>
      <trkpt lat="32.58389001712203" lon="-7.83844999037683">
        <ele>0</ele>
        <time>2019-03-16T17:06:51Z</time>
      </trkpt>
      <trkpt lat="32.584450012072921" lon="-7.837810032069683">
        <ele>0</ele>
        <time>2019-03-16T17:07:01Z</time>
      </trkpt>
      <trkpt lat="32.585140010342002" lon="-7.837069993838668">
        <ele>0</ele>
        <time>2019-03-16T17:07:13Z</time>
      </trkpt>
      <trkpt lat="32.586310040205717" lon="-7.835919996723533">
        <ele>0</ele>
        <time>2019-03-16T17:07:25Z</time>
      </trkpt>
      <trkpt lat="32.586949998512864" lon="-7.835339969024062">
        <ele>0</ele>
        <time>2019-03-16T17:07:37Z</time>
      </trkpt>
      <trkpt lat="32.587999999523163" lon="-7.834460036829114">
        <ele>0</ele>
        <time>2019-03-16T17:07:47Z</time>
      </trkpt>
      <trkpt lat="32.589129963889718" lon="-7.833589995279908">
        <ele>0</ele>
        <time>2019-03-16T17:07:58Z</time>
      </trkpt>
      <trkpt lat="32.589270025491714" lon="-7.833499973639846">
        <ele>0</ele>
        <time>2019-03-16T17:08:08Z</time>
      </trkpt>
      <trkpt lat="32.589809987694025" lon="-7.83312002196908">
        <ele>0</ele>
        <time>2019-03-16T17:08:19Z</time>
      </trkpt>
      <trkpt lat="32.591059980913997" lon="-7.832340002059937">
        <ele>0</ele>
        <time>2019-03-16T17:08:30Z</time>
      </trkpt>
      <trkpt lat="32.59170999750495" lon="-7.831979999318719">
        <ele>0</ele>
        <time>2019-03-16T17:08:44Z</time>
      </trkpt>
      <trkpt lat="32.592309974133968" lon="-7.831670036539435">
        <ele>0</ele>
        <time>2019-03-16T17:08:54Z</time>
      </trkpt>
      <trkpt lat="32.598200021311641" lon="-7.828850029036403">
        <ele>0</ele>
        <time>2019-03-16T17:08:55Z</time>
      </trkpt>
      <trkpt lat="32.598960008472204" lon="-7.828460019081831">
        <ele>0</ele>
        <time>2019-03-16T17:09:04Z</time>
      </trkpt>
      <trkpt lat="32.599650006741285" lon="-7.828049976378679">
        <ele>0</ele>
        <time>2019-03-16T17:09:11Z</time>
      </trkpt>
      <trkpt lat="32.600449975579977" lon="-7.827540021389723">
        <ele>0</ele>
        <time>2019-03-16T17:09:19Z</time>
      </trkpt>
      <trkpt lat="32.601359998807311" lon="-7.82691003754735">
        <ele>0</ele>
        <time>2019-03-16T17:09:31Z</time>
      </trkpt>
      <trkpt lat="32.602129960432649" lon="-7.826339984312654">
        <ele>0</ele>
        <time>2019-03-16T17:09:44Z</time>
      </trkpt>
      <trkpt lat="32.602890031412244" lon="-7.825740007683635">
        <ele>0</ele>
        <time>2019-03-16T17:09:56Z</time>
      </trkpt>
      <trkpt lat="32.603750014677644" lon="-7.82499996945262">
        <ele>0</ele>
        <time>2019-03-16T17:10:03Z</time>
      </trkpt>
      <trkpt lat="32.604310009628534" lon="-7.824480039998889">
        <ele>0</ele>
        <time>2019-03-16T17:10:05Z</time>
      </trkpt>
      <trkpt lat="32.605339977890253" lon="-7.823419980704784">
        <ele>0</ele>
        <time>2019-03-16T17:10:10Z</time>
      </trkpt>
      <trkpt lat="32.605429999530315" lon="-7.823340017348528">
        <ele>0</ele>
        <time>2019-03-16T17:10:14Z</time>
      </trkpt>
      <trkpt lat="32.606029976159334" lon="-7.822690000757575">
        <ele>0</ele>
        <time>2019-03-16T17:10:22Z</time>
      </trkpt>
      <trkpt lat="32.606640011072159" lon="-7.82196999527514">
        <ele>0</ele>
        <time>2019-03-16T17:10:32Z</time>
      </trkpt>
      <trkpt lat="32.607220038771629" lon="-7.821249989792705">
        <ele>0</ele>
        <time>2019-03-16T17:10:38Z</time>
      </trkpt>
      <trkpt lat="32.607999974861741" lon="-7.820199988782406">
        <ele>0</ele>
        <time>2019-03-16T17:10:40Z</time>
      </trkpt>
      <trkpt lat="32.60861998423934" lon="-7.819270016625524">
        <ele>0</ele>
        <time>2019-03-16T17:10:48Z</time>
      </trkpt>
      <trkpt lat="32.609249968081713" lon="-7.818280030041933">
        <ele>0</ele>
        <time>2019-03-16T17:10:52Z</time>
      </trkpt>
      <trkpt lat="32.60990995913744" lon="-7.817170014604926">
        <ele>0</ele>
        <time>2019-03-16T17:11:03Z</time>
      </trkpt>
      <trkpt lat="32.615400021895766" lon="-7.807590002194047">
        <ele>0</ele>
        <time>2019-03-16T17:11:14Z</time>
      </trkpt>
      <trkpt lat="32.616299986839294" lon="-7.806189972907305">
        <ele>0</ele>
        <time>2019-03-16T17:11:25Z</time>
      </trkpt>
      <trkpt lat="32.61790000833571" lon="-7.803980000317097">
        <ele>0</ele>
        <time>2019-03-16T17:11:29Z</time>
      </trkpt>
      <trkpt lat="32.618529992178082" lon="-7.803250020369887">
        <ele>0</ele>
        <time>2019-03-16T17:11:33Z</time>
      </trkpt>
      <trkpt lat="32.620409969240427" lon="-7.801280021667481">
        <ele>0</ele>
        <time>2019-03-16T17:11:43Z</time>
      </trkpt>
      <trkpt lat="32.620850019156933" lon="-7.800850030034781">
        <ele>0</ele>
        <time>2019-03-16T17:11:44Z</time>
      </trkpt>
      <trkpt lat="32.621519984677434" lon="-7.800239995121956">
        <ele>0</ele>
        <time>2019-03-16T17:11:48Z</time>
      </trkpt>
      <trkpt lat="32.623949982225895" lon="-7.798390025272965">
        <ele>0</ele>
        <time>2019-03-16T17:11:51Z</time>
      </trkpt>
      <trkpt lat="32.625599959865212" lon="-7.797340024262667">
        <ele>0</ele>
        <time>2019-03-16T17:11:58Z</time>
      </trkpt>
      <trkpt lat="32.626260034739971" lon="-7.796950014308095">
        <ele>0</ele>
        <time>2019-03-16T17:12:04Z</time>
      </trkpt>
      <trkpt lat="32.626939974725246" lon="-7.796599986031652">
        <ele>0</ele>
        <time>2019-03-16T17:12:14Z</time>
      </trkpt>
      <trkpt lat="32.629229994490743" lon="-7.795510003343225">
        <ele>0</ele>
        <time>2019-03-16T17:12:15Z</time>
      </trkpt>
      <trkpt lat="32.629659986123443" lon="-7.795340018346906">
        <ele>0</ele>
        <time>2019-03-16T17:12:26Z</time>
      </trkpt>
      <trkpt lat="32.630519969388843" lon="-7.794929975643754">
        <ele>0</ele>
        <time>2019-03-16T17:12:27Z</time>
      </trkpt>
      <trkpt lat="32.631099997088313" lon="-7.794629987329245">
        <ele>0</ele>
        <time>2019-03-16T17:12:36Z</time>
      </trkpt>
      <trkpt lat="32.632140023633838" lon="-7.794039985165">
        <ele>0</ele>
        <time>2019-03-16T17:12:37Z</time>
      </trkpt>
      <trkpt lat="32.633320027962327" lon="-7.793259965255857">
        <ele>0</ele>
        <time>2019-03-16T17:12:41Z</time>
      </trkpt>
      <trkpt lat="32.634619977325201" lon="-7.792280036956072">
        <ele>0</ele>
        <time>2019-03-16T17:12:43Z</time>
      </trkpt>
      <trkpt lat="32.635160023346543" lon="-7.791830012574792">
        <ele>0</ele>
        <time>2019-03-16T17:12:47Z</time>
      </trkpt>
      <trkpt lat="32.635190030559897" lon="-7.791820038110018">
        <ele>0</ele>
        <time>2019-03-16T17:12:55Z</time>
      </trkpt>
      <trkpt lat="32.636169958859682" lon="-7.790949996560812">
        <ele>0</ele>
        <time>2019-03-16T17:13:04Z</time>
      </trkpt>
      <trkpt lat="32.636849982663989" lon="-7.790299979969859">
        <ele>0</ele>
        <time>2019-03-16T17:13:12Z</time>
      </trkpt>
      <trkpt lat="32.637669984251261" lon="-7.789470003917813">
        <ele>0</ele>
        <time>2019-03-16T17:13:17Z</time>
      </trkpt>
      <trkpt lat="32.638450004160404" lon="-7.788619995117188">
        <ele>0</ele>
        <time>2019-03-16T17:13:19Z</time>
      </trkpt>
      <trkpt lat="32.641230029985309" lon="-7.785300007089973">
        <ele>0</ele>
        <time>2019-03-16T17:13:23Z</time>
      </trkpt>
      <trkpt lat="32.643549973145127" lon="-7.782619977369905">
        <ele>0</ele>
        <time>2019-03-16T17:13:25Z</time>
      </trkpt>
      <trkpt lat="32.645460041239858" lon="-7.780180005356669">
        <ele>0</ele>
        <time>2019-03-16T17:13:30Z</time>
      </trkpt>
      <trkpt lat="32.648230008780956" lon="-7.776930006220937">
        <ele>0</ele>
        <time>2019-03-16T17:13:33Z</time>
      </trkpt>
      <trkpt lat="32.653649998828769" lon="-7.770379967987537">
        <ele>0</ele>
        <time>2019-03-16T17:13:35Z</time>
      </trkpt>
      <trkpt lat="32.654479974880815" lon="-7.769449995830655">
        <ele>0</ele>
        <time>2019-03-16T17:13:37Z</time>
      </trkpt>
      <trkpt lat="32.655380023643374" lon="-7.768520023673773">
        <ele>0</ele>
        <time>2019-03-16T17:13:39Z</time>
      </trkpt>
      <trkpt lat="32.657759981229901" lon="-7.766209971159697">
        <ele>0</ele>
        <time>2019-03-16T17:13:44Z</time>
      </trkpt>
      <trkpt lat="32.658430030569434" lon="-7.765479991212487">
        <ele>0</ele>
        <time>2019-03-16T17:13:49Z</time>
      </trkpt>
      <trkpt lat="32.666319999843836" lon="-7.757829995825887">
        <ele>0</ele>
        <time>2019-03-16T17:13:51Z</time>
      </trkpt>
      <trkpt lat="32.666749991476536" lon="-7.757430011406541">
        <ele>0</ele>
        <time>2019-03-16T17:13:54Z</time>
      </trkpt>
      <trkpt lat="32.668029991909862" lon="-7.756180018186569">
        <ele>0</ele>
        <time>2019-03-16T17:14:01Z</time>
      </trkpt>
      <trkpt lat="32.669040011242032" lon="-7.755249962210655">
        <ele>0</ele>
        <time>2019-03-16T17:14:06Z</time>
      </trkpt>
      <trkpt lat="32.669390039518476" lon="-7.754949973896146">
        <ele>0</ele>
        <time>2019-03-16T17:14:08Z</time>
      </trkpt>
      <trkpt lat="32.670199982821941" lon="-7.754329964518547">
        <ele>0</ele>
        <time>2019-03-16T17:14:17Z</time>
      </trkpt>
      <trkpt lat="32.670729970559478" lon="-7.753969961777329">
        <ele>0</ele>
        <time>2019-03-16T17:14:25Z</time>
      </trkpt>
      <trkpt lat="32.671879967674613" lon="-7.753269989043474">
        <ele>0</ele>
        <time>2019-03-16T17:14:36Z</time>
      </trkpt>
      <trkpt lat="32.674920000135899" lon="-7.75149998255074">
        <ele>0</ele>
        <time>2019-03-16T17:14:51Z</time>
      </trkpt>
      <trkpt lat="32.67616999335587" lon="-7.750730020925403">
        <ele>0</ele>
        <time>2019-03-16T17:14:58Z</time>
      </trkpt>
      <trkpt lat="32.679140036925673" lon="-7.749079959467053">
        <ele>0</ele>
        <time>2019-03-16T17:15:00Z</time>
      </trkpt>
      <trkpt lat="32.68732002004981" lon="-7.74430001154542">
        <ele>0</ele>
        <time>2019-03-16T17:15:08Z</time>
      </trkpt>
      <trkpt lat="32.688979972153902" lon="-7.743429969996214">
        <ele>0</ele>
        <time>2019-03-16T17:15:09Z</time>
      </trkpt>
      <trkpt lat="32.68938004039228" lon="-7.743240036070347">
        <ele>0</ele>
        <time>2019-03-16T17:15:15Z</time>
      </trkpt>
      <trkpt lat="32.690489972010255" lon="-7.742769978940487">
        <ele>0</ele>
        <time>2019-03-16T17:15:22Z</time>
      </trkpt>
      <trkpt lat="32.691179970279336" lon="-7.742499997839332">
        <ele>0</ele>
        <time>2019-03-16T17:15:27Z</time>
      </trkpt>
      <trkpt lat="32.694120006635785" lon="-7.741529960185289">
        <ele>0</ele>
        <time>2019-03-16T17:15:31Z</time>
      </trkpt>
      <trkpt lat="32.695239996537566" lon="-7.741219997406006">
        <ele>0</ele>
        <time>2019-03-16T17:15:36Z</time>
      </trkpt>
      <trkpt lat="32.697100024670362" lon="-7.74079998023808">
        <ele>0</ele>
        <time>2019-03-16T17:15:43Z</time>
      </trkpt>
      <trkpt lat="32.698900038376451" lon="-7.740529999136925">
        <ele>0</ele>
        <time>2019-03-16T17:15:48Z</time>
      </trkpt>
      <trkpt lat="32.705489974468946" lon="-7.739640008658171">
        <ele>0</ele>
        <time>2019-03-16T17:15:51Z</time>
      </trkpt>
      <trkpt lat="32.715020030736923" lon="-7.738260012120009">
        <ele>0</ele>
        <time>2019-03-16T17:15:54Z</time>
      </trkpt>
      <trkpt lat="32.717179963365197" lon="-7.738039987161756">
        <ele>0</ele>
        <time>2019-03-16T17:15:56Z</time>
      </trkpt>
      <trkpt lat="32.718500029295683" lon="-7.737839994952083">
        <ele>0</ele>
        <time>2019-03-16T17:16:00Z</time>
      </trkpt>
      <trkpt lat="32.720280010253191" lon="-7.737530032172799">
        <ele>0</ele>
        <time>2019-03-16T17:16:03Z</time>
      </trkpt>
      <trkpt lat="32.721790010109544" lon="-7.73731998167932">
        <ele>0</ele>
        <time>2019-03-16T17:16:08Z</time>
      </trkpt>
      <trkpt lat="32.722800029441714" lon="-7.737249992787838">
        <ele>0</ele>
        <time>2019-03-16T17:16:17Z</time>
      </trkpt>
      <trkpt lat="32.72365003824234" lon="-7.737219985574484">
        <ele>0</ele>
        <time>2019-03-16T17:16:22Z</time>
      </trkpt>
      <trkpt lat="32.72451002150774" lon="-7.737229960039258">
        <ele>0</ele>
        <time>2019-03-16T17:16:25Z</time>
      </trkpt>
      <trkpt lat="32.725249975919724" lon="-7.737270025536418">
        <ele>0</ele>
        <time>2019-03-16T17:16:29Z</time>
      </trkpt>
      <trkpt lat="32.727609984576702" lon="-7.737459959462285">
        <ele>0</ele>
        <time>2019-03-16T17:16:37Z</time>
      </trkpt>
      <trkpt lat="32.728310041129589" lon="-7.737630028277636">
        <ele>0</ele>
        <time>2019-03-16T17:16:41Z</time>
      </trkpt>
      <trkpt lat="32.730320021510124" lon="-7.738020038232207">
        <ele>0</ele>
        <time>2019-03-16T17:16:46Z</time>
      </trkpt>
      <trkpt lat="32.730750013142824" lon="-7.738139983266592">
        <ele>0</ele>
        <time>2019-03-16T17:16:51Z</time>
      </trkpt>
      <trkpt lat="32.731400029733777" lon="-7.738360008224845">
        <ele>0</ele>
        <time>2019-03-16T17:16:55Z</time>
      </trkpt>
      <trkpt lat="32.732959985733032" lon="-7.738980017602444">
        <ele>0</ele>
        <time>2019-03-16T17:17:01Z</time>
      </trkpt>
      <trkpt lat="32.738300012424588" lon="-7.741210022941232">
        <ele>0</ele>
        <time>2019-03-16T17:17:11Z</time>
      </trkpt>
      <trkpt lat="32.74000003002584" lon="-7.741870013996959">
        <ele>0</ele>
        <time>2019-03-16T17:17:20Z</time>
      </trkpt>
      <trkpt lat="32.741139968857169" lon="-7.742279972881079">
        <ele>0</ele>
        <time>2019-03-16T17:17:21Z</time>
      </trkpt>
      <trkpt lat="32.742249984294176" lon="-7.742599993944168">
        <ele>0</ele>
        <time>2019-03-16T17:17:23Z</time>
      </trkpt>
      <trkpt lat="32.74447001516819" lon="-7.743029985576868">
        <ele>0</ele>
        <time>2019-03-16T17:17:33Z</time>
      </trkpt>
      <trkpt lat="32.746849972754717" lon="-7.743180021643639">
        <ele>0</ele>
        <time>2019-03-16T17:17:36Z</time>
      </trkpt>
      <trkpt lat="32.747810035943985" lon="-7.743189996108413">
        <ele>0</ele>
        <time>2019-03-16T17:17:42Z</time>
      </trkpt>
      <trkpt lat="32.749450039118528" lon="-7.74314003996551">
        <ele>0</ele>
        <time>2019-03-16T17:17:45Z</time>
      </trkpt>
      <trkpt lat="32.750429967418313" lon="-7.743039960041642">
        <ele>0</ele>
        <time>2019-03-16T17:17:51Z</time>
      </trkpt>
      <trkpt lat="32.751290034502745" lon="-7.742929989472032">
        <ele>0</ele>
        <time>2019-03-16T17:17:56Z</time>
      </trkpt>
      <trkpt lat="32.752719987183809" lon="-7.742709964513779">
        <ele>0</ele>
        <time>2019-03-16T17:18:03Z</time>
      </trkpt>
      <trkpt lat="32.759170029312372" lon="-7.741589974611998">
        <ele>0</ele>
        <time>2019-03-16T17:18:07Z</time>
      </trkpt>
      <trkpt lat="32.760769966989756" lon="-7.74122997187078">
        <ele>0</ele>
        <time>2019-03-16T17:18:11Z</time>
      </trkpt>
      <trkpt lat="32.762599987909198" lon="-7.740709958598018">
        <ele>0</ele>
        <time>2019-03-16T17:18:16Z</time>
      </trkpt>
      <trkpt lat="32.76352996006608" lon="-7.740379963070154">
        <ele>0</ele>
        <time>2019-03-16T17:18:19Z</time>
      </trkpt>
      <trkpt lat="32.764369994401932" lon="-7.740049967542291">
        <ele>0</ele>
        <time>2019-03-16T17:18:22Z</time>
      </trkpt>
      <trkpt lat="32.765700034797192" lon="-7.739479998126626">
        <ele>0</ele>
        <time>2019-03-16T17:18:24Z</time>
      </trkpt>
      <trkpt lat="32.770800003781915" lon="-7.737110015004873">
        <ele>0</ele>
        <time>2019-03-16T17:18:28Z</time>
      </trkpt>
      <trkpt lat="32.772010015323758" lon="-7.736580027267337">
        <ele>0</ele>
        <time>2019-03-16T17:18:32Z</time>
      </trkpt>
      <trkpt lat="32.773550022393465" lon="-7.735860021784902">
        <ele>0</ele>
        <time>2019-03-16T17:18:35Z</time>
      </trkpt>
      <trkpt lat="32.774909986183047" lon="-7.735170023515821">
        <ele>0</ele>
        <time>2019-03-16T17:18:42Z</time>
      </trkpt>
      <trkpt lat="32.775729987770319" lon="-7.734719999134541">
        <ele>0</ele>
        <time>2019-03-16T17:18:43Z</time>
      </trkpt>
      <trkpt lat="32.776740007102489" lon="-7.734120022505522">
        <ele>0</ele>
        <time>2019-03-16T17:18:46Z</time>
      </trkpt>
      <trkpt lat="32.777760000899434" lon="-7.733460031449795">
        <ele>0</ele>
        <time>2019-03-16T17:18:55Z</time>
      </trkpt>
      <trkpt lat="32.779479967430234" lon="-7.732250019907951">
        <ele>0</ele>
        <time>2019-03-16T17:18:57Z</time>
      </trkpt>
      <trkpt lat="32.780680004507303" lon="-7.731319963932037">
        <ele>0</ele>
        <time>2019-03-16T17:19:02Z</time>
      </trkpt>
      <trkpt lat="32.793989963829517" lon="-7.720619961619377">
        <ele>0</ele>
        <time>2019-03-16T17:19:04Z</time>
      </trkpt>
      <trkpt lat="32.794690020382404" lon="-7.720089973881841">
        <ele>0</ele>
        <time>2019-03-16T17:19:08Z</time>
      </trkpt>
      <trkpt lat="32.796170013025403" lon="-7.718879962339997">
        <ele>0</ele>
        <time>2019-03-16T17:19:16Z</time>
      </trkpt>
      <trkpt lat="32.796999989077449" lon="-7.718249978497624">
        <ele>0</ele>
        <time>2019-03-16T17:19:23Z</time>
      </trkpt>
      <trkpt lat="32.797459987923503" lon="-7.717919982969761">
        <ele>0</ele>
        <time>2019-03-16T17:19:29Z</time>
      </trkpt>
      <trkpt lat="32.798779970034957" lon="-7.717059999704361">
        <ele>0</ele>
        <time>2019-03-16T17:19:35Z</time>
      </trkpt>
      <trkpt lat="32.799780014902353" lon="-7.71647997200489">
        <ele>0</ele>
        <time>2019-03-16T17:19:44Z</time>
      </trkpt>
      <trkpt lat="32.801390010863543" lon="-7.715649995952845">
        <ele>0</ele>
        <time>2019-03-16T17:19:49Z</time>
      </trkpt>
      <trkpt lat="32.80205000191927" lon="-7.715350007638335">
        <ele>0</ele>
        <time>2019-03-16T17:19:57Z</time>
      </trkpt>
      <trkpt lat="32.812569960951805" lon="-7.710859989747405">
        <ele>0</ele>
        <time>2019-03-16T17:20:01Z</time>
      </trkpt>
      <trkpt lat="32.813779972493649" lon="-7.710279962047935">
        <ele>0</ele>
        <time>2019-03-16T17:20:03Z</time>
      </trkpt>
      <trkpt lat="32.814819999039173" lon="-7.70973002538085">
        <ele>0</ele>
        <time>2019-03-16T17:20:08Z</time>
      </trkpt>
      <trkpt lat="32.815570011734962" lon="-7.70930003374815">
        <ele>0</ele>
        <time>2019-03-16T17:20:10Z</time>
      </trkpt>
      <trkpt lat="32.817119993269444" lon="-7.708350028842688">
        <ele>0</ele>
        <time>2019-03-16T17:20:13Z</time>
      </trkpt>
      <trkpt lat="32.818130012601614" lon="-7.707649972289801">
        <ele>0</ele>
        <time>2019-03-16T17:20:17Z</time>
      </trkpt>
      <trkpt lat="32.819489976391196" lon="-7.706610029563308">
        <ele>0</ele>
        <time>2019-03-16T17:20:21Z</time>
      </trkpt>
      <trkpt lat="32.822109991684556" lon="-7.704399973154068">
        <ele>0</ele>
        <time>2019-03-16T17:20:23Z</time>
      </trkpt>
      <trkpt lat="32.830979973077774" lon="-7.696700021624565">
        <ele>0</ele>
        <time>2019-03-16T17:20:29Z</time>
      </trkpt>
      <trkpt lat="32.832059981301427" lon="-7.695859987288714">
        <ele>0</ele>
        <time>2019-03-16T17:20:32Z</time>
      </trkpt>
      <trkpt lat="32.833049967885017" lon="-7.695169989019632">
        <ele>0</ele>
        <time>2019-03-16T17:20:36Z</time>
      </trkpt>
      <trkpt lat="32.834069961681962" lon="-7.694530030712485">
        <ele>0</ele>
        <time>2019-03-16T17:20:39Z</time>
      </trkpt>
      <trkpt lat="32.835070006549358" lon="-7.693950003013015">
        <ele>0</ele>
        <time>2019-03-16T17:20:41Z</time>
      </trkpt>
      <trkpt lat="32.836419995874166" lon="-7.693269979208708">
        <ele>0</ele>
        <time>2019-03-16T17:20:47Z</time>
      </trkpt>
      <trkpt lat="32.837699996307492" lon="-7.692719958722591">
        <ele>0</ele>
        <time>2019-03-16T17:20:51Z</time>
      </trkpt>
      <trkpt lat="32.840060004964471" lon="-7.691840026527643">
        <ele>0</ele>
        <time>2019-03-16T17:20:55Z</time>
      </trkpt>
      <trkpt lat="32.852790020406246" lon="-7.686880035325885">
        <ele>0</ele>
        <time>2019-03-16T17:21:02Z</time>
      </trkpt>
      <trkpt lat="32.853020019829273" lon="-7.686799988150597">
        <ele>0</ele>
        <time>2019-03-16T17:21:05Z</time>
      </trkpt>
      <trkpt lat="32.856939984485507" lon="-7.685289988294244">
        <ele>0</ele>
        <time>2019-03-16T17:21:09Z</time>
      </trkpt>
      <trkpt lat="32.857099995017052" lon="-7.685219999402762">
        <ele>0</ele>
        <time>2019-03-16T17:21:14Z</time>
      </trkpt>
      <trkpt lat="32.858330039307475" lon="-7.684810040518642">
        <ele>0</ele>
        <time>2019-03-16T17:21:19Z</time>
      </trkpt>
      <trkpt lat="32.859529992565513" lon="-7.684439979493618">
        <ele>0</ele>
        <time>2019-03-16T17:21:24Z</time>
      </trkpt>
      <trkpt lat="32.859620014205575" lon="-7.68442003056407">
        <ele>0</ele>
        <time>2019-03-16T17:21:27Z</time>
      </trkpt>
      <trkpt lat="32.860080013051629" lon="-7.684279968962073">
        <ele>0</ele>
        <time>2019-03-16T17:21:30Z</time>
      </trkpt>
      <trkpt lat="32.860779985785484" lon="-7.684090035036206">
        <ele>0</ele>
        <time>2019-03-16T17:21:33Z</time>
      </trkpt>
      <trkpt lat="32.877589976415038" lon="-7.680299989879131">
        <ele>0</ele>
        <time>2019-03-16T17:21:37Z</time>
      </trkpt>
      <trkpt lat="32.8789699729532" lon="-7.679920038208365">
        <ele>0</ele>
        <time>2019-03-16T17:21:39Z</time>
      </trkpt>
      <trkpt lat="32.879949985072017" lon="-7.67960999161005">
        <ele>0</ele>
        <time>2019-03-16T17:21:44Z</time>
      </trkpt>
      <trkpt lat="32.88161002099514" lon="-7.679010014981031">
        <ele>0</ele>
        <time>2019-03-16T17:21:54Z</time>
      </trkpt>
      <trkpt lat="32.882160041481256" lon="-7.678789990022779">
        <ele>0</ele>
        <time>2019-03-16T17:22:00Z</time>
      </trkpt>
      <trkpt lat="32.882930003106594" lon="-7.678450020030141">
        <ele>0</ele>
        <time>2019-03-16T17:22:05Z</time>
      </trkpt>
      <trkpt lat="32.88479003123939" lon="-7.677539996802807">
        <ele>0</ele>
        <time>2019-03-16T17:22:14Z</time>
      </trkpt>
      <trkpt lat="32.886549979448318" lon="-7.676529977470636">
        <ele>0</ele>
        <time>2019-03-16T17:22:16Z</time>
      </trkpt>
      <trkpt lat="32.887940034270287" lon="-7.675639986991882">
        <ele>0</ele>
        <time>2019-03-16T17:22:26Z</time>
      </trkpt>
      <trkpt lat="32.888939995318651" lon="-7.674959963187575">
        <ele>0</ele>
        <time>2019-03-16T17:22:31Z</time>
      </trkpt>
      <trkpt lat="32.89041998796165" lon="-7.673860006034374">
        <ele>0</ele>
        <time>2019-03-16T17:22:45Z</time>
      </trkpt>
      <trkpt lat="32.890970008447766" lon="-7.673390032723546">
        <ele>0</ele>
        <time>2019-03-16T17:22:52Z</time>
      </trkpt>
      <trkpt lat="32.89130000397563" lon="-7.673130026087165">
        <ele>0</ele>
        <time>2019-03-16T17:22:54Z</time>
      </trkpt>
      <trkpt lat="32.89228999055922" lon="-7.672259984537959">
        <ele>0</ele>
        <time>2019-03-16T17:22:55Z</time>
      </trkpt>
      <trkpt lat="32.89357996545732" lon="-7.671009991317987">
        <ele>0</ele>
        <time>2019-03-16T17:22:56Z</time>
      </trkpt>
      <trkpt lat="32.897040015086532" lon="-7.667299993336201">
        <ele>0</ele>
        <time>2019-03-16T17:22:57Z</time>
      </trkpt>
      <trkpt lat="32.897449973970652" lon="-7.666890034452081">
        <ele>0</ele>
        <time>2019-03-16T17:22:58Z</time>
      </trkpt>
      <trkpt lat="32.897800002247095" lon="-7.666500024497509">
        <ele>0</ele>
        <time>2019-03-16T17:23:04Z</time>
      </trkpt>
      <trkpt lat="32.89852000772953" lon="-7.66575001180172">
        <ele>0</ele>
        <time>2019-03-16T17:23:07Z</time>
      </trkpt>
      <trkpt lat="32.898640036582947" lon="-7.665590001270175">
        <ele>0</ele>
        <time>2019-03-16T17:23:08Z</time>
      </trkpt>
      <trkpt lat="32.900659991428256" lon="-7.663469966500998">
        <ele>0</ele>
        <time>2019-03-16T17:23:16Z</time>
      </trkpt>
      <trkpt lat="32.901340015232563" lon="-7.66272003762424">
        <ele>0</ele>
        <time>2019-03-16T17:23:17Z</time>
      </trkpt>
      <trkpt lat="32.913599973544478" lon="-7.649779971688986">
        <ele>0</ele>
        <time>2019-03-16T17:23:18Z</time>
      </trkpt>
      <trkpt lat="32.914749970659614" lon="-7.648680014535785">
        <ele>0</ele>
        <time>2019-03-16T17:23:29Z</time>
      </trkpt>
      <trkpt lat="32.915699975565076" lon="-7.647860012948513">
        <ele>0</ele>
        <time>2019-03-16T17:23:45Z</time>
      </trkpt>
      <trkpt lat="32.916400032117963" lon="-7.647309992462397">
        <ele>0</ele>
        <time>2019-03-16T17:23:59Z</time>
      </trkpt>
      <trkpt lat="32.917880024760962" lon="-7.646239958703518">
        <ele>0</ele>
        <time>2019-03-16T17:24:09Z</time>
      </trkpt>
      <trkpt lat="32.91850003413856" lon="-7.645839974284172">
        <ele>0</ele>
        <time>2019-03-16T17:24:14Z</time>
      </trkpt>
      <trkpt lat="32.919409973546863" lon="-7.645300012081862">
        <ele>0</ele>
        <time>2019-03-16T17:24:16Z</time>
      </trkpt>
      <trkpt lat="32.920600036159158" lon="-7.644670028239489">
        <ele>0</ele>
        <time>2019-03-16T17:24:17Z</time>
      </trkpt>
      <trkpt lat="32.926209960132837" lon="-7.642210023477674">
        <ele>0</ele>
        <time>2019-03-16T17:24:28Z</time>
      </trkpt>
      <trkpt lat="32.928789993748069" lon="-7.641120040789247">
        <ele>0</ele>
        <time>2019-03-16T17:24:35Z</time>
      </trkpt>
      <trkpt lat="32.931040031835437" lon="-7.64009996317327">
        <ele>0</ele>
        <time>2019-03-16T17:24:36Z</time>
      </trkpt>
      <trkpt lat="32.932130014523864" lon="-7.639509961009026">
        <ele>0</ele>
        <time>2019-03-16T17:24:37Z</time>
      </trkpt>
      <trkpt lat="32.933500036597252" lon="-7.63870001770556">
        <ele>0</ele>
        <time>2019-03-16T17:24:38Z</time>
      </trkpt>
      <trkpt lat="32.934209983795881" lon="-7.6382299605757">
        <ele>0</ele>
        <time>2019-03-16T17:24:39Z</time>
      </trkpt>
      <trkpt lat="32.935480009764433" lon="-7.637280039489269">
        <ele>0</ele>
        <time>2019-03-16T17:24:40Z</time>
      </trkpt>
      <trkpt lat="32.936479970812798" lon="-7.636449979618192">
        <ele>0</ele>
        <time>2019-03-16T17:24:41Z</time>
      </trkpt>
      <trkpt lat="32.938040010631084" lon="-7.634990019723773">
        <ele>0</ele>
        <time>2019-03-16T17:24:42Z</time>
      </trkpt>
      <trkpt lat="32.938620038330555" lon="-7.63434000313282">
        <ele>0</ele>
        <time>2019-03-16T17:24:45Z</time>
      </trkpt>
      <trkpt lat="32.938720034435391" lon="-7.634240007027984">
        <ele>0</ele>
        <time>2019-03-16T17:24:46Z</time>
      </trkpt>
      <trkpt lat="32.939350018277764" lon="-7.633540034294128">
        <ele>0</ele>
        <time>2019-03-16T17:24:53Z</time>
      </trkpt>
      <trkpt lat="32.940210001543164" lon="-7.632509982213378">
        <ele>0</ele>
        <time>2019-03-16T17:24:59Z</time>
      </trkpt>
      <trkpt lat="32.941020028665662" lon="-7.631459981203079">
        <ele>0</ele>
        <time>2019-03-16T17:25:00Z</time>
      </trkpt>
      <trkpt lat="32.942359959706664" lon="-7.629459975287318">
        <ele>0</ele>
        <time>2019-03-16T17:25:01Z</time>
      </trkpt>
      <trkpt lat="32.94290998019278" lon="-7.62856001034379">
        <ele>0</ele>
        <time>2019-03-16T17:25:11Z</time>
      </trkpt>
      <trkpt lat="32.94408998452127" lon="-7.626250041648746">
        <ele>0</ele>
        <time>2019-03-16T17:25:20Z</time>
      </trkpt>
      <trkpt lat="32.944819964468479" lon="-7.624569972977042">
        <ele>0</ele>
        <time>2019-03-16T17:25:26Z</time>
      </trkpt>
      <trkpt lat="32.945590009912848" lon="-7.622889988124371">
        <ele>0</ele>
        <time>2019-03-16T17:25:28Z</time>
      </trkpt>
      <trkpt lat="32.946760039776564" lon="-7.620559986680746">
        <ele>0</ele>
        <time>2019-03-16T17:25:29Z</time>
      </trkpt>
      <trkpt lat="32.947560008615255" lon="-7.619209997355938">
        <ele>0</ele>
        <time>2019-03-16T17:25:30Z</time>
      </trkpt>
      <trkpt lat="32.947780033573508" lon="-7.6188700273633">
        <ele>0</ele>
        <time>2019-03-16T17:25:31Z</time>
      </trkpt>
      <trkpt lat="32.948930030688643" lon="-7.617290038615465">
        <ele>0</ele>
        <time>2019-03-16T17:25:32Z</time>
      </trkpt>
      <trkpt lat="32.957979971542954" lon="-7.60673001408577">
        <ele>0</ele>
        <time>2019-03-16T17:25:41Z</time>
      </trkpt>
      <trkpt lat="32.958940034732223" lon="-7.605710020288825">
        <ele>0</ele>
        <time>2019-03-16T17:25:53Z</time>
      </trkpt>
      <trkpt lat="32.959779985249043" lon="-7.604879960417748">
        <ele>0</ele>
        <time>2019-03-16T17:26:02Z</time>
      </trkpt>
      <trkpt lat="32.96059001237154" lon="-7.604149980470538">
        <ele>0</ele>
        <time>2019-03-16T17:26:12Z</time>
      </trkpt>
      <trkpt lat="32.962079979479313" lon="-7.602890012785792">
        <ele>0</ele>
        <time>2019-03-16T17:26:23Z</time>
      </trkpt>
      <trkpt lat="32.963269958272576" lon="-7.60196004062891">
        <ele>0</ele>
        <time>2019-03-16T17:26:34Z</time>
      </trkpt>
      <trkpt lat="32.964290035888553" lon="-7.601229976862669">
        <ele>0</ele>
        <time>2019-03-16T17:26:40Z</time>
      </trkpt>
      <trkpt lat="32.964920019730926" lon="-7.600799985229969">
        <ele>0</ele>
        <time>2019-03-16T17:26:45Z</time>
      </trkpt>
      <trkpt lat="32.96508003026247" lon="-7.600720021873713">
        <ele>0</ele>
        <time>2019-03-16T17:26:56Z</time>
      </trkpt>
      <trkpt lat="32.965280022472143" lon="-7.600590018555522">
        <ele>0</ele>
        <time>2019-03-16T17:27:07Z</time>
      </trkpt>
      <trkpt lat="32.966149980202317" lon="-7.60009003803134">
        <ele>0</ele>
        <time>2019-03-16T17:27:16Z</time>
      </trkpt>
      <trkpt lat="32.967299977317452" lon="-7.599500035867095">
        <ele>0</ele>
        <time>2019-03-16T17:27:28Z</time>
      </trkpt>
      <trkpt lat="32.968249982222915" lon="-7.599050011485815">
        <ele>0</ele>
        <time>2019-03-16T17:27:36Z</time>
      </trkpt>
      <trkpt lat="32.96952998265624" lon="-7.598520023748279">
        <ele>0</ele>
        <time>2019-03-16T17:27:43Z</time>
      </trkpt>
      <trkpt lat="32.978110034018755" lon="-7.595180002972484">
        <ele>0</ele>
        <time>2019-03-16T17:27:50Z</time>
      </trkpt>
      <trkpt lat="32.979620033875108" lon="-7.594559993594885">
        <ele>0</ele>
        <time>2019-03-16T17:27:57Z</time>
      </trkpt>
      <trkpt lat="32.980900034308434" lon="-7.594079962000251">
        <ele>0</ele>
        <time>2019-03-16T17:28:01Z</time>
      </trkpt>
      <trkpt lat="32.981500010937452" lon="-7.593830013647676">
        <ele>0</ele>
        <time>2019-03-16T17:28:03Z</time>
      </trkpt>
      <trkpt lat="32.989760041236877" lon="-7.590589988976717">
        <ele>0</ele>
        <time>2019-03-16T17:28:09Z</time>
      </trkpt>
      <trkpt lat="32.990650031715631" lon="-7.590269967913628">
        <ele>0</ele>
        <time>2019-03-16T17:28:10Z</time>
      </trkpt>
      <trkpt lat="32.991870017722249" lon="-7.589869983494282">
        <ele>0</ele>
        <time>2019-03-16T17:28:14Z</time>
      </trkpt>
      <trkpt lat="32.994000026956201" lon="-7.589309988543391">
        <ele>0</ele>
        <time>2019-03-16T17:28:26Z</time>
      </trkpt>
      <trkpt lat="32.994960006326437" lon="-7.589089963585138">
        <ele>0</ele>
        <time>2019-03-16T17:28:32Z</time>
      </trkpt>
      <trkpt lat="32.996690031141043" lon="-7.588749993592501">
        <ele>0</ele>
        <time>2019-03-16T17:28:42Z</time>
      </trkpt>
      <trkpt lat="32.998579982668161" lon="-7.58848998695612">
        <ele>0</ele>
        <time>2019-03-16T17:28:52Z</time>
      </trkpt>
      <trkpt lat="33.00053003244102" lon="-7.588359983637929">
        <ele>0</ele>
        <time>2019-03-16T17:28:55Z</time>
      </trkpt>
      <trkpt lat="33.001560000702739" lon="-7.588350009173155">
        <ele>0</ele>
        <time>2019-03-16T17:29:00Z</time>
      </trkpt>
      <trkpt lat="33.003030018880963" lon="-7.588380016386509">
        <ele>0</ele>
        <time>2019-03-16T17:29:13Z</time>
      </trkpt>
      <trkpt lat="33.004329968243837" lon="-7.588459979742765">
        <ele>0</ele>
        <time>2019-03-16T17:29:22Z</time>
      </trkpt>
      <trkpt lat="33.005769979208708" lon="-7.588580008596182">
        <ele>0</ele>
        <time>2019-03-16T17:29:34Z</time>
      </trkpt>
      <trkpt lat="33.007040005177259" lon="-7.588740019127727">
        <ele>0</ele>
        <time>2019-03-16T17:29:43Z</time>
      </trkpt>
      <trkpt lat="33.007939970120788" lon="-7.588889971375465">
        <ele>0</ele>
        <time>2019-03-16T17:29:53Z</time>
      </trkpt>
      <trkpt lat="33.010090012103319" lon="-7.589319963008165">
        <ele>0</ele>
        <time>2019-03-16T17:29:57Z</time>
      </trkpt>
      <trkpt lat="33.010599967092276" lon="-7.589439991861582">
        <ele>0</ele>
        <time>2019-03-16T17:30:07Z</time>
      </trkpt>
      <trkpt lat="33.011240009218454" lon="-7.589620035141707">
        <ele>0</ele>
        <time>2019-03-16T17:30:13Z</time>
      </trkpt>
      <trkpt lat="33.014469975605607" lon="-7.590629970654845">
        <ele>0</ele>
        <time>2019-03-16T17:30:21Z</time>
      </trkpt>
      <trkpt lat="33.014729982241988" lon="-7.590729966759682">
        <ele>0</ele>
        <time>2019-03-16T17:30:31Z</time>
      </trkpt>
      <trkpt lat="33.015289977192879" lon="-7.590970024466515">
        <ele>0</ele>
        <time>2019-03-16T17:30:39Z</time>
      </trkpt>
      <trkpt lat="33.016729988157749" lon="-7.591679971665144">
        <ele>0</ele>
        <time>2019-03-16T17:30:50Z</time>
      </trkpt>
      <trkpt lat="33.01784997805953" lon="-7.592190010473132">
        <ele>0</ele>
        <time>2019-03-16T17:30:59Z</time>
      </trkpt>
      <trkpt lat="33.018920011818409" lon="-7.592599969357252">
        <ele>0</ele>
        <time>2019-03-16T17:31:05Z</time>
      </trkpt>
      <trkpt lat="33.022960005328059" lon="-7.59439998306334">
        <ele>0</ele>
        <time>2019-03-16T17:31:11Z</time>
      </trkpt>
      <trkpt lat="33.025610027834773" lon="-7.595619969069958">
        <ele>0</ele>
        <time>2019-03-16T17:31:14Z</time>
      </trkpt>
      <trkpt lat="33.029599981382489" lon="-7.597349993884563">
        <ele>0</ele>
        <time>2019-03-16T17:31:15Z</time>
      </trkpt>
      <trkpt lat="33.030270030722022" lon="-7.597570018842816">
        <ele>0</ele>
        <time>2019-03-16T17:31:16Z</time>
      </trkpt>
      <trkpt lat="33.030570019036531" lon="-7.597640007734299">
        <ele>0</ele>
        <time>2019-03-16T17:31:17Z</time>
      </trkpt>
      <trkpt lat="33.031430002301931" lon="-7.5978799816221">
        <ele>0</ele>
        <time>2019-03-16T17:31:18Z</time>
      </trkpt>
      <trkpt lat="33.03250003606081" lon="-7.598230009898543">
        <ele>0</ele>
        <time>2019-03-16T17:31:19Z</time>
      </trkpt>
      <trkpt lat="33.033190034329891" lon="-7.598430002108216">
        <ele>0</ele>
        <time>2019-03-16T17:31:20Z</time>
      </trkpt>
      <trkpt lat="33.033680040389299" lon="-7.598539972677827">
        <ele>0</ele>
        <time>2019-03-16T17:31:21Z</time>
      </trkpt>
      <trkpt lat="33.03424003534019" lon="-7.598639968782663">
        <ele>0</ele>
        <time>2019-03-16T17:31:30Z</time>
      </trkpt>
      <trkpt lat="33.035760009661317" lon="-7.598769972100854">
        <ele>0</ele>
        <time>2019-03-16T17:31:42Z</time>
      </trkpt>
      <trkpt lat="33.036680007353425" lon="-7.598729990422726">
        <ele>0</ele>
        <time>2019-03-16T17:31:43Z</time>
      </trkpt>
      <trkpt lat="33.037160038948059" lon="-7.5987399648875">
        <ele>0</ele>
        <time>2019-03-16T17:31:51Z</time>
      </trkpt>
      <trkpt lat="33.038269970566034" lon="-7.598729990422726">
        <ele>0</ele>
        <time>2019-03-16T17:31:52Z</time>
      </trkpt>
      <trkpt lat="33.045089989900589" lon="-7.598120039328933">
        <ele>0</ele>
        <time>2019-03-16T17:31:53Z</time>
      </trkpt>
      <trkpt lat="33.045949973165989" lon="-7.598090032115579">
        <ele>0</ele>
        <time>2019-03-16T17:31:55Z</time>
      </trkpt>
      <trkpt lat="33.046350041404366" lon="-7.598090032115579">
        <ele>0</ele>
        <time>2019-03-16T17:32:07Z</time>
      </trkpt>
      <trkpt lat="33.047259980812669" lon="-7.598130013793707">
        <ele>0</ele>
        <time>2019-03-16T17:32:18Z</time>
      </trkpt>
      <trkpt lat="33.047689972445369" lon="-7.598169995471835">
        <ele>0</ele>
        <time>2019-03-16T17:32:21Z</time>
      </trkpt>
      <trkpt lat="33.048769980669022" lon="-7.59833000600338">
        <ele>0</ele>
        <time>2019-03-16T17:32:25Z</time>
      </trkpt>
      <trkpt lat="33.049700036644936" lon="-7.598539972677827">
        <ele>0</ele>
        <time>2019-03-16T17:32:28Z</time>
      </trkpt>
      <trkpt lat="33.052809974178672" lon="-7.599359974265099">
        <ele>0</ele>
        <time>2019-03-16T17:32:33Z</time>
      </trkpt>
      <trkpt lat="33.053329987451434" lon="-7.599480003118515">
        <ele>0</ele>
        <time>2019-03-16T17:32:41Z</time>
      </trkpt>
      <trkpt lat="33.05420002900064" lon="-7.599610006436706">
        <ele>0</ele>
        <time>2019-03-16T17:32:50Z</time>
      </trkpt>
      <trkpt lat="33.054479984566569" lon="-7.59961998090148">
        <ele>0</ele>
        <time>2019-03-16T17:32:55Z</time>
      </trkpt>
      <trkpt lat="33.054999997839332" lon="-7.599659962579608">
        <ele>0</ele>
        <time>2019-03-16T17:32:59Z</time>
      </trkpt>
      <trkpt lat="33.055669963359833" lon="-7.599679995328188">
        <ele>0</ele>
        <time>2019-03-16T17:33:01Z</time>
      </trkpt>
      <trkpt lat="33.056149994954467" lon="-7.599679995328188">
        <ele>0</ele>
        <time>2019-03-16T17:33:10Z</time>
      </trkpt>
      <trkpt lat="33.056690040975809" lon="-7.599659962579608">
        <ele>0</ele>
        <time>2019-03-16T17:33:18Z</time>
      </trkpt>
      <trkpt lat="33.060170039534569" lon="-7.599359974265099">
        <ele>0</ele>
        <time>2019-03-16T17:33:20Z</time>
      </trkpt>
      <trkpt lat="33.060919968411326" lon="-7.599310018122196">
        <ele>0</ele>
        <time>2019-03-16T17:33:23Z</time>
      </trkpt>
      <trkpt lat="33.065790021792054" lon="-7.598880026489496">
        <ele>0</ele>
        <time>2019-03-16T17:33:26Z</time>
      </trkpt>
      <trkpt lat="33.066710019484162" lon="-7.59878003038466">
        <ele>0</ele>
        <time>2019-03-16T17:33:30Z</time>
      </trkpt>
      <trkpt lat="33.06750001385808" lon="-7.598660001531243">
        <ele>0</ele>
        <time>2019-03-16T17:33:33Z</time>
      </trkpt>
      <trkpt lat="33.068250026553869" lon="-7.598520023748279">
        <ele>0</ele>
        <time>2019-03-16T17:33:38Z</time>
      </trkpt>
      <trkpt lat="33.069129958748817" lon="-7.598299998790026">
        <ele>0</ele>
        <time>2019-03-16T17:33:43Z</time>
      </trkpt>
      <trkpt lat="33.070009974762797" lon="-7.59803001768887">
        <ele>0</ele>
        <time>2019-03-16T17:33:46Z</time>
      </trkpt>
      <trkpt lat="33.071159971877933" lon="-7.597600026056171">
        <ele>0</ele>
        <time>2019-03-16T17:33:58Z</time>
      </trkpt>
      <trkpt lat="33.072269987314939" lon="-7.597099961712956">
        <ele>0</ele>
        <time>2019-03-16T17:34:01Z</time>
      </trkpt>
      <trkpt lat="33.073340021073818" lon="-7.596559999510646">
        <ele>0</ele>
        <time>2019-03-16T17:34:03Z</time>
      </trkpt>
      <trkpt lat="33.074309974908829" lon="-7.595969997346401">
        <ele>0</ele>
        <time>2019-03-16T17:34:07Z</time>
      </trkpt>
      <trkpt lat="33.074369989335537" lon="-7.595939990133047">
        <ele>0</ele>
        <time>2019-03-16T17:34:17Z</time>
      </trkpt>
      <trkpt lat="33.075489979237318" lon="-7.595200035721064">
        <ele>0</ele>
        <time>2019-03-16T17:34:23Z</time>
      </trkpt>
      <trkpt lat="33.076119963079691" lon="-7.59474003687501">
        <ele>0</ele>
        <time>2019-03-16T17:34:27Z</time>
      </trkpt>
      <trkpt lat="33.076590020209551" lon="-7.594369975849986">
        <ele>0</ele>
        <time>2019-03-16T17:34:32Z</time>
      </trkpt>
      <trkpt lat="33.079310031607747" lon="-7.592109963297844">
        <ele>0</ele>
        <time>2019-03-16T17:34:43Z</time>
      </trkpt>
      <trkpt lat="33.079350013285875" lon="-7.592090014368296">
        <ele>0</ele>
        <time>2019-03-16T17:34:46Z</time>
      </trkpt>
      <trkpt lat="33.079729964956641" lon="-7.59180000051856">
        <ele>0</ele>
        <time>2019-03-16T17:34:48Z</time>
      </trkpt>
      <trkpt lat="33.080479977652431" lon="-7.591279987245798">
        <ele>0</ele>
        <time>2019-03-16T17:34:56Z</time>
      </trkpt>
      <trkpt lat="33.081099987030029" lon="-7.590900035575032">
        <ele>0</ele>
        <time>2019-03-16T17:35:00Z</time>
      </trkpt>
      <trkpt lat="33.0825399979949" lon="-7.590150022879243">
        <ele>0</ele>
        <time>2019-03-16T17:35:12Z</time>
      </trkpt>
      <trkpt lat="33.083459995687008" lon="-7.589760012924671">
        <ele>0</ele>
        <time>2019-03-16T17:35:14Z</time>
      </trkpt>
      <trkpt lat="33.099170029163361" lon="-7.58412997238338">
        <ele>0</ele>
        <time>2019-03-16T17:35:18Z</time>
      </trkpt>
      <trkpt lat="33.101570019498467" lon="-7.583350036293268">
        <ele>0</ele>
        <time>2019-03-16T17:35:21Z</time>
      </trkpt>
      <trkpt lat="33.103010030463338" lon="-7.582960026338697">
        <ele>0</ele>
        <time>2019-03-16T17:35:27Z</time>
      </trkpt>
      <trkpt lat="33.104460015892982" lon="-7.582640005275607">
        <ele>0</ele>
        <time>2019-03-16T17:35:34Z</time>
      </trkpt>
      <trkpt lat="33.105169963091612" lon="-7.582500027492642">
        <ele>0</ele>
        <time>2019-03-16T17:35:44Z</time>
      </trkpt>
      <trkpt lat="33.125500017777085" lon="-7.579290010035038">
        <ele>0</ele>
        <time>2019-03-16T17:35:49Z</time>
      </trkpt>
      <trkpt lat="33.127340013161302" lon="-7.578939981758595">
        <ele>0</ele>
        <time>2019-03-16T17:35:57Z</time>
      </trkpt>
      <trkpt lat="33.129670014604926" lon="-7.578430026769638">
        <ele>0</ele>
        <time>2019-03-16T17:36:08Z</time>
      </trkpt>
      <trkpt lat="33.132579959928989" lon="-7.577670039609075">
        <ele>0</ele>
        <time>2019-03-16T17:36:12Z</time>
      </trkpt>
      <trkpt lat="33.13401997089386" lon="-7.577259996905923">
        <ele>0</ele>
        <time>2019-03-16T17:36:22Z</time>
      </trkpt>
      <trkpt lat="33.151230029761791" lon="-7.571979984641075">
        <ele>0</ele>
        <time>2019-03-16T17:36:27Z</time>
      </trkpt>
      <trkpt lat="33.153400020673871" lon="-7.571410015225411">
        <ele>0</ele>
        <time>2019-03-16T17:36:38Z</time>
      </trkpt>
      <trkpt lat="33.154569966718554" lon="-7.571140034124255">
        <ele>0</ele>
        <time>2019-03-16T17:36:40Z</time>
      </trkpt>
      <trkpt lat="33.155979970470071" lon="-7.570859994739294">
        <ele>0</ele>
        <time>2019-03-16T17:36:46Z</time>
      </trkpt>
      <trkpt lat="33.156929975375533" lon="-7.570699984207749">
        <ele>0</ele>
        <time>2019-03-16T17:36:58Z</time>
      </trkpt>
      <trkpt lat="33.158769970759749" lon="-7.570430003106594">
        <ele>0</ele>
        <time>2019-03-16T17:36:59Z</time>
      </trkpt>
      <trkpt lat="33.159940000623465" lon="-7.570339981466532">
        <ele>0</ele>
        <time>2019-03-16T17:37:06Z</time>
      </trkpt>
      <trkpt lat="33.160290028899908" lon="-7.570299999788404">
        <ele>0</ele>
        <time>2019-03-16T17:37:07Z</time>
      </trkpt>
      <trkpt lat="33.162590023130178" lon="-7.570160022005439">
        <ele>0</ele>
        <time>2019-03-16T17:37:12Z</time>
      </trkpt>
      <trkpt lat="33.16427000798285" lon="-7.570130014792085">
        <ele>0</ele>
        <time>2019-03-16T17:37:21Z</time>
      </trkpt>
      <trkpt lat="33.165550008416176" lon="-7.570139989256859">
        <ele>0</ele>
        <time>2019-03-16T17:37:26Z</time>
      </trkpt>
      <trkpt lat="33.167369971051812" lon="-7.570209978148341">
        <ele>0</ele>
        <time>2019-03-16T17:37:32Z</time>
      </trkpt>
      <trkpt lat="33.168430030345917" lon="-7.570299999788404">
        <ele>0</ele>
        <time>2019-03-16T17:37:36Z</time>
      </trkpt>
      <trkpt lat="33.170540006831288" lon="-7.570550031960011">
        <ele>0</ele>
        <time>2019-03-16T17:37:42Z</time>
      </trkpt>
      <trkpt lat="33.172070039436221" lon="-7.570790005847812">
        <ele>0</ele>
        <time>2019-03-16T17:37:48Z</time>
      </trkpt>
      <trkpt lat="33.173859994858503" lon="-7.571150008589029">
        <ele>0</ele>
        <time>2019-03-16T17:37:54Z</time>
      </trkpt>
      <trkpt lat="33.176159989088774" lon="-7.571700029075146">
        <ele>0</ele>
        <time>2019-03-16T17:37:58Z</time>
      </trkpt>
      <trkpt lat="33.177850032225251" lon="-7.57213999517262">
        <ele>0</ele>
        <time>2019-03-16T17:38:01Z</time>
      </trkpt>
      <trkpt lat="33.179709976539016" lon="-7.572579961270094">
        <ele>0</ele>
        <time>2019-03-16T17:38:04Z</time>
      </trkpt>
      <trkpt lat="33.189029982313514" lon="-7.574929995462298">
        <ele>0</ele>
        <time>2019-03-16T17:38:11Z</time>
      </trkpt>
      <trkpt lat="33.191139958798885" lon="-7.575329979881644">
        <ele>0</ele>
        <time>2019-03-16T17:38:23Z</time>
      </trkpt>
      <trkpt lat="33.192549962550402" lon="-7.575540030375123">
        <ele>0</ele>
        <time>2019-03-16T17:38:30Z</time>
      </trkpt>
      <trkpt lat="33.194679971784353" lon="-7.57572996430099">
        <ele>0</ele>
        <time>2019-03-16T17:38:33Z</time>
      </trkpt>
      <trkpt lat="33.195540038868785" lon="-7.575780004262924">
        <ele>0</ele>
        <time>2019-03-16T17:38:42Z</time>
      </trkpt>
      <trkpt lat="33.196860020980239" lon="-7.575810011476278">
        <ele>0</ele>
        <time>2019-03-16T17:38:50Z</time>
      </trkpt>
      <trkpt lat="33.1984300352633" lon="-7.575800037011504">
        <ele>0</ele>
        <time>2019-03-16T17:38:52Z</time>
      </trkpt>
      <trkpt lat="33.1992900185287" lon="-7.575759971514344">
        <ele>0</ele>
        <time>2019-03-16T17:38:56Z</time>
      </trkpt>
      <trkpt lat="33.222340000793338" lon="-7.574060037732124">
        <ele>0</ele>
        <time>2019-03-16T17:38:58Z</time>
      </trkpt>
      <trkpt lat="33.224089974537492" lon="-7.573910001665354">
        <ele>0</ele>
        <time>2019-03-16T17:39:02Z</time>
      </trkpt>
      <trkpt lat="33.225329993292689" lon="-7.573749991133809">
        <ele>0</ele>
        <time>2019-03-16T17:39:07Z</time>
      </trkpt>
      <trkpt lat="33.227980015799403" lon="-7.573299966752529">
        <ele>0</ele>
        <time>2019-03-16T17:39:09Z</time>
      </trkpt>
      <trkpt lat="33.228470021858811" lon="-7.573199970647693">
        <ele>0</ele>
        <time>2019-03-16T17:39:19Z</time>
      </trkpt>
      <trkpt lat="33.229460008442402" lon="-7.572959996759892">
        <ele>0</ele>
        <time>2019-03-16T17:39:22Z</time>
      </trkpt>
      <trkpt lat="33.230410013347864" lon="-7.572690015658736">
        <ele>0</ele>
        <time>2019-03-16T17:39:33Z</time>
      </trkpt>
      <trkpt lat="33.232289990410209" lon="-7.572109987959266">
        <ele>0</ele>
        <time>2019-03-16T17:39:39Z</time>
      </trkpt>
      <trkpt lat="33.235509982332587" lon="-7.570910034701228">
        <ele>0</ele>
        <time>2019-03-16T17:39:43Z</time>
      </trkpt>
      <trkpt lat="33.238050034269691" lon="-7.569679990410805">
        <ele>0</ele>
        <time>2019-03-16T17:39:53Z</time>
      </trkpt>
      <trkpt lat="33.240710031241179" lon="-7.568199997767806">
        <ele>0</ele>
        <time>2019-03-16T17:39:59Z</time>
      </trkpt>
      <trkpt lat="33.241949966177344" lon="-7.567430036142469">
        <ele>0</ele>
        <time>2019-03-16T17:40:03Z</time>
      </trkpt>
      <trkpt lat="33.243670016527176" lon="-7.566299987956882">
        <ele>0</ele>
        <time>2019-03-16T17:40:09Z</time>
      </trkpt>
      <trkpt lat="33.246139995753765" lon="-7.564759980887175">
        <ele>0</ele>
        <time>2019-03-16T17:40:13Z</time>
      </trkpt>
      <trkpt lat="33.247039960697293" lon="-7.56416997872293">
        <ele>0</ele>
        <time>2019-03-16T17:40:18Z</time>
      </trkpt>
      <trkpt lat="33.247789973393083" lon="-7.563749961555004">
        <ele>0</ele>
        <time>2019-03-16T17:40:26Z</time>
      </trkpt>
      <trkpt lat="33.249369962140918" lon="-7.56272996775806">
        <ele>0</ele>
        <time>2019-03-16T17:40:29Z</time>
      </trkpt>
      <trkpt lat="33.25336997397244" lon="-7.560229981318116">
        <ele>0</ele>
        <time>2019-03-16T17:40:39Z</time>
      </trkpt>
      <trkpt lat="33.255629986524582" lon="-7.558759963139892">
        <ele>0</ele>
        <time>2019-03-16T17:40:49Z</time>
      </trkpt>
      <trkpt lat="33.257950013503432" lon="-7.557300003245473">
        <ele>0</ele>
        <time>2019-03-16T17:40:50Z</time>
      </trkpt>
      <trkpt lat="33.259130017831922" lon="-7.556480001658201">
        <ele>0</ele>
        <time>2019-03-16T17:40:59Z</time>
      </trkpt>
      <trkpt lat="33.26050003990531" lon="-7.555460007861257">
        <ele>0</ele>
        <time>2019-03-16T17:41:03Z</time>
      </trkpt>
      <trkpt lat="33.260580003261566" lon="-7.555390018969774">
        <ele>0</ele>
        <time>2019-03-16T17:41:15Z</time>
      </trkpt>
      <trkpt lat="33.26711998321116" lon="-7.550319973379374">
        <ele>0</ele>
        <time>2019-03-16T17:41:25Z</time>
      </trkpt>
      <trkpt lat="33.267600014805794" lon="-7.549970028921962">
        <ele>0</ele>
        <time>2019-03-16T17:41:34Z</time>
      </trkpt>
      <trkpt lat="33.267869995906949" lon="-7.549789985641837">
        <ele>0</ele>
        <time>2019-03-16T17:41:46Z</time>
      </trkpt>
      <trkpt lat="33.268050039187074" lon="-7.549750003963709">
        <ele>0</ele>
        <time>2019-03-16T17:41:47Z</time>
      </trkpt>
      <trkpt lat="33.268599975854158" lon="-7.549410033971071">
        <ele>0</ele>
        <time>2019-03-16T17:41:49Z</time>
      </trkpt>
      <trkpt lat="33.269240017980337" lon="-7.549050031229854">
        <ele>0</ele>
        <time>2019-03-16T17:41:50Z</time>
      </trkpt>
      <trkpt lat="33.270429996773601" lon="-7.548460029065609">
        <ele>0</ele>
        <time>2019-03-16T17:42:01Z</time>
      </trkpt>
      <trkpt lat="33.271070038899779" lon="-7.548189964145422">
        <ele>0</ele>
        <time>2019-03-16T17:42:10Z</time>
      </trkpt>
      <trkpt lat="33.27174000442028" lon="-7.547949990257621">
        <ele>0</ele>
        <time>2019-03-16T17:42:20Z</time>
      </trkpt>
      <trkpt lat="33.272439977154136" lon="-7.547719990834594">
        <ele>0</ele>
        <time>2019-03-16T17:42:21Z</time>
      </trkpt>
      <trkpt lat="33.273150008171797" lon="-7.547529973089695">
        <ele>0</ele>
        <time>2019-03-16T17:42:25Z</time>
      </trkpt>
      <trkpt lat="33.27375995926559" lon="-7.547399969771504">
        <ele>0</ele>
        <time>2019-03-16T17:42:26Z</time>
      </trkpt>
      <trkpt lat="33.274690015241504" lon="-7.54723995923996">
        <ele>0</ele>
        <time>2019-03-16T17:42:31Z</time>
      </trkpt>
      <trkpt lat="33.275140039622784" lon="-7.547180028632283">
        <ele>0</ele>
        <time>2019-03-16T17:42:32Z</time>
      </trkpt>
      <trkpt lat="33.276430014520884" lon="-7.547080032527447">
        <ele>0</ele>
        <time>2019-03-16T17:42:35Z</time>
      </trkpt>
      <trkpt lat="33.277599960565567" lon="-7.547020018100739">
        <ele>0</ele>
        <time>2019-03-16T17:42:36Z</time>
      </trkpt>
      <trkpt lat="33.284839997068048" lon="-7.546760011464357">
        <ele>0</ele>
        <time>2019-03-16T17:42:43Z</time>
      </trkpt>
      <trkpt lat="33.285069996491075" lon="-7.546760011464357">
        <ele>0</ele>
        <time>2019-03-16T17:42:45Z</time>
      </trkpt>
      <trkpt lat="33.285529995337129" lon="-7.546790018677712">
        <ele>0</ele>
        <time>2019-03-16T17:42:46Z</time>
      </trkpt>
      <trkpt lat="33.286020001396537" lon="-7.546860007569194">
        <ele>0</ele>
        <time>2019-03-16T17:42:49Z</time>
      </trkpt>
      <trkpt lat="33.286440018564463" lon="-7.546950029209256">
        <ele>0</ele>
        <time>2019-03-16T17:42:58Z</time>
      </trkpt>
      <trkpt lat="33.286819970235229" lon="-7.547050025314093">
        <ele>0</ele>
        <time>2019-03-16T17:42:59Z</time>
      </trkpt>
      <trkpt lat="33.287060027942061" lon="-7.547129988670349">
        <ele>0</ele>
        <time>2019-03-16T17:43:00Z</time>
      </trkpt>
      <trkpt lat="33.28768003731966" lon="-7.54736996255815">
        <ele>0</ele>
        <time>2019-03-16T17:43:01Z</time>
      </trkpt>
      <trkpt lat="33.288010032847524" lon="-7.547529973089695">
        <ele>0</ele>
        <time>2019-03-16T17:43:02Z</time>
      </trkpt>
      <trkpt lat="33.288480006158352" lon="-7.547780005261302">
        <ele>0</ele>
        <time>2019-03-16T17:43:10Z</time>
      </trkpt>
      <trkpt lat="33.288889965042472" lon="-7.548049986362457">
        <ele>0</ele>
        <time>2019-03-16T17:43:19Z</time>
      </trkpt>
      <trkpt lat="33.288930030539632" lon="-7.548070019111037">
        <ele>0</ele>
        <time>2019-03-16T17:43:33Z</time>
      </trkpt>
      <trkpt lat="33.289290033280849" lon="-7.548330025747418">
        <ele>0</ele>
        <time>2019-03-16T17:43:44Z</time>
      </trkpt>
      <trkpt lat="33.289929991587996" lon="-7.548869987949729">
        <ele>0</ele>
        <time>2019-03-16T17:43:57Z</time>
      </trkpt>
      <trkpt lat="33.290370041504502" lon="-7.549329986795783">
        <ele>0</ele>
        <time>2019-03-16T17:44:06Z</time>
      </trkpt>
      <trkpt lat="33.292689984664321" lon="-7.551910020411015">
        <ele>0</ele>
        <time>2019-03-16T17:44:17Z</time>
      </trkpt>
      <trkpt lat="33.292810013517737" lon="-7.552029965445399">
        <ele>0</ele>
        <time>2019-03-16T17:44:26Z</time>
      </trkpt>
      <trkpt lat="33.292929958552122" lon="-7.55220003426075">
        <ele>0</ele>
        <time>2019-03-16T17:44:34Z</time>
      </trkpt>
      <trkpt lat="33.296180041506886" lon="-7.555829985067248">
        <ele>0</ele>
        <time>2019-03-16T17:44:35Z</time>
      </trkpt>
      <trkpt lat="33.296629982069135" lon="-7.556370031088591">
        <ele>0</ele>
        <time>2019-03-16T17:44:36Z</time>
      </trkpt>
      <trkpt lat="33.296980010345578" lon="-7.556830029934645">
        <ele>0</ele>
        <time>2019-03-16T17:44:37Z</time>
      </trkpt>
      <trkpt lat="33.297519972547889" lon="-7.557629998773336">
        <ele>0</ele>
        <time>2019-03-16T17:44:38Z</time>
      </trkpt>
      <trkpt lat="33.297790037468076" lon="-7.558069964870811">
        <ele>0</ele>
        <time>2019-03-16T17:44:39Z</time>
      </trkpt>
      <trkpt lat="33.298109974712133" lon="-7.558649992570281">
        <ele>0</ele>
        <time>2019-03-16T17:44:40Z</time>
      </trkpt>
      <trkpt lat="33.298369981348515" lon="-7.559200013056397">
        <ele>0</ele>
        <time>2019-03-16T17:44:42Z</time>
      </trkpt>
      <trkpt lat="33.298820005729795" lon="-7.560240039601922">
        <ele>0</ele>
        <time>2019-03-16T17:44:46Z</time>
      </trkpt>
      <trkpt lat="33.299050005152822" lon="-7.560900030657649">
        <ele>0</ele>
        <time>2019-03-16T17:44:48Z</time>
      </trkpt>
      <trkpt lat="33.299280004575849" lon="-7.561620036140084">
        <ele>0</ele>
        <time>2019-03-16T17:44:49Z</time>
      </trkpt>
      <trkpt lat="33.29954001121223" lon="-7.562610022723675">
        <ele>0</ele>
        <time>2019-03-16T17:44:58Z</time>
      </trkpt>
      <trkpt lat="33.30229002982378" lon="-7.574070012196899">
        <ele>0</ele>
        <time>2019-03-16T17:45:02Z</time>
      </trkpt>
      <trkpt lat="33.302400000393391" lon="-7.574430014938116">
        <ele>0</ele>
        <time>2019-03-16T17:45:10Z</time>
      </trkpt>
      <trkpt lat="33.302780035883188" lon="-7.575979996472597">
        <ele>0</ele>
        <time>2019-03-16T17:45:18Z</time>
      </trkpt>
      <trkpt lat="33.303089998662472" lon="-7.577129993587732">
        <ele>0</ele>
        <time>2019-03-16T17:45:27Z</time>
      </trkpt>
      <trkpt lat="33.303399961441755" lon="-7.578140012919903">
        <ele>0</ele>
        <time>2019-03-16T17:45:36Z</time>
      </trkpt>
      <trkpt lat="33.303649993613362" lon="-7.578849960118532">
        <ele>0</ele>
        <time>2019-03-16T17:45:39Z</time>
      </trkpt>
      <trkpt lat="33.303979989141226" lon="-7.579710027202964">
        <ele>0</ele>
        <time>2019-03-16T17:45:45Z</time>
      </trkpt>
      <trkpt lat="33.304349966347218" lon="-7.580600017681718">
        <ele>0</ele>
        <time>2019-03-16T17:45:49Z</time>
      </trkpt>
      <trkpt lat="33.304850030690432" lon="-7.581729982048273">
        <ele>0</ele>
        <time>2019-03-16T17:45:53Z</time>
      </trkpt>
      <trkpt lat="33.305099979043007" lon="-7.582189980894327">
        <ele>0</ele>
        <time>2019-03-16T17:46:00Z</time>
      </trkpt>
      <trkpt lat="33.305369960144162" lon="-7.582740001380444">
        <ele>0</ele>
        <time>2019-03-16T17:46:04Z</time>
      </trkpt>
      <trkpt lat="33.31369997933507" lon="-7.596899969503284">
        <ele>0</ele>
        <time>2019-03-16T17:46:09Z</time>
      </trkpt>
      <trkpt lat="33.314979979768395" lon="-7.598989997059107">
        <ele>0</ele>
        <time>2019-03-16T17:46:16Z</time>
      </trkpt>
      <trkpt lat="33.315399996936321" lon="-7.599630039185286">
        <ele>0</ele>
        <time>2019-03-16T17:46:21Z</time>
      </trkpt>
      <trkpt lat="33.316480005159974" lon="-7.600990002974868">
        <ele>0</ele>
        <time>2019-03-16T17:46:30Z</time>
      </trkpt>
      <trkpt lat="33.316970011219382" lon="-7.601529965177178">
        <ele>0</ele>
        <time>2019-03-16T17:46:35Z</time>
      </trkpt>
      <trkpt lat="33.317379970103502" lon="-7.601949982345104">
        <ele>0</ele>
        <time>2019-03-16T17:46:37Z</time>
      </trkpt>
      <trkpt lat="33.317980030551553" lon="-7.602520035579801">
        <ele>0</ele>
        <time>2019-03-16T17:46:42Z</time>
      </trkpt>
      <trkpt lat="33.318519992753863" lon="-7.602980034425855">
        <ele>0</ele>
        <time>2019-03-16T17:46:49Z</time>
      </trkpt>
      <trkpt lat="33.318970017135143" lon="-7.603340037167072">
        <ele>0</ele>
        <time>2019-03-16T17:46:58Z</time>
      </trkpt>
      <trkpt lat="33.319790018722415" lon="-7.603940013796091">
        <ele>0</ele>
        <time>2019-03-16T17:47:06Z</time>
      </trkpt>
      <trkpt lat="33.320340039208531" lon="-7.604300016537309">
        <ele>0</ele>
        <time>2019-03-16T17:47:15Z</time>
      </trkpt>
      <trkpt lat="33.320859968662262" lon="-7.604600004851818">
        <ele>0</ele>
        <time>2019-03-16T17:47:26Z</time>
      </trkpt>
      <trkpt lat="33.321270011365414" lon="-7.604820029810071">
        <ele>0</ele>
        <time>2019-03-16T17:47:38Z</time>
      </trkpt>
      <trkpt lat="33.321500010788441" lon="-7.604899993166328">
        <ele>0</ele>
        <time>2019-03-16T17:47:51Z</time>
      </trkpt>
      <trkpt lat="33.322580019012094" lon="-7.605389999225736">
        <ele>0</ele>
        <time>2019-03-16T17:47:52Z</time>
      </trkpt>
      <trkpt lat="33.324239971116185" lon="-7.60598000138998">
        <ele>0</ele>
        <time>2019-03-16T17:47:58Z</time>
      </trkpt>
      <trkpt lat="33.325470015406609" lon="-7.6063899602741">
        <ele>0</ele>
        <time>2019-03-16T17:48:05Z</time>
      </trkpt>
      <trkpt lat="33.32760002464056" lon="-7.607220020145178">
        <ele>0</ele>
        <time>2019-03-16T17:48:07Z</time>
      </trkpt>
      <trkpt lat="33.332679960876703" lon="-7.609109971672297">
        <ele>0</ele>
        <time>2019-03-16T17:48:18Z</time>
      </trkpt>
      <trkpt lat="33.332699993625283" lon="-7.609109971672297">
        <ele>0</ele>
        <time>2019-03-16T17:48:20Z</time>
      </trkpt>
      <trkpt lat="33.342129969969392" lon="-7.61261997744441">
        <ele>0</ele>
        <time>2019-03-16T17:48:27Z</time>
      </trkpt>
      <trkpt lat="33.344470029696822" lon="-7.613430004566908">
        <ele>0</ele>
        <time>2019-03-16T17:48:31Z</time>
      </trkpt>
      <trkpt lat="33.348979996517301" lon="-7.615090040490031">
        <ele>0</ele>
        <time>2019-03-16T17:48:38Z</time>
      </trkpt>
      <trkpt lat="33.35058999247849" lon="-7.615650035440922">
        <ele>0</ele>
        <time>2019-03-16T17:48:47Z</time>
      </trkpt>
      <trkpt lat="33.352209962904453" lon="-7.616280019283295">
        <ele>0</ele>
        <time>2019-03-16T17:48:54Z</time>
      </trkpt>
      <trkpt lat="33.35826002061367" lon="-7.618450010195375">
        <ele>0</ele>
        <time>2019-03-16T17:48:55Z</time>
      </trkpt>
      <trkpt lat="33.35899000056088" lon="-7.618659976869822">
        <ele>0</ele>
        <time>2019-03-16T17:48:57Z</time>
      </trkpt>
      <trkpt lat="33.36032004095614" lon="-7.619010005146265">
        <ele>0</ele>
        <time>2019-03-16T17:49:00Z</time>
      </trkpt>
      <trkpt lat="33.361659971997142" lon="-7.619260037317872">
        <ele>0</ele>
        <time>2019-03-16T17:49:01Z</time>
      </trkpt>
      <trkpt lat="33.364649964496493" lon="-7.619690028950572">
        <ele>0</ele>
        <time>2019-03-16T17:49:02Z</time>
      </trkpt>
      <trkpt lat="33.367429990321398" lon="-7.62005003169179">
        <ele>0</ele>
        <time>2019-03-16T17:49:03Z</time>
      </trkpt>
      <trkpt lat="33.372400039806962" lon="-7.620929963886738">
        <ele>0</ele>
        <time>2019-03-16T17:49:04Z</time>
      </trkpt>
      <trkpt lat="33.373349960893393" lon="-7.621049992740154">
        <ele>0</ele>
        <time>2019-03-16T17:49:05Z</time>
      </trkpt>
      <trkpt lat="33.375639980658889" lon="-7.621249984949827">
        <ele>0</ele>
        <time>2019-03-16T17:49:06Z</time>
      </trkpt>
      <trkpt lat="33.378640031442046" lon="-7.6214499771595">
        <ele>0</ele>
        <time>2019-03-16T17:49:07Z</time>
      </trkpt>
      <trkpt lat="33.379879966378212" lon="-7.621560031548142">
        <ele>0</ele>
        <time>2019-03-16T17:49:08Z</time>
      </trkpt>
      <trkpt lat="33.381100036203861" lon="-7.621639994904399">
        <ele>0</ele>
        <time>2019-03-16T17:49:16Z</time>
      </trkpt>
      <trkpt lat="33.381619965657592" lon="-7.621630020439625">
        <ele>0</ele>
        <time>2019-03-16T17:49:32Z</time>
      </trkpt>
      <trkpt lat="33.381900005042553" lon="-7.621609987691045">
        <ele>0</ele>
        <time>2019-03-16T17:49:42Z</time>
      </trkpt>
      <trkpt lat="33.3825399633497" lon="-7.621509991586208">
        <ele>0</ele>
        <time>2019-03-16T17:49:55Z</time>
      </trkpt>
      <trkpt lat="33.383229961618781" lon="-7.621349981054664">
        <ele>0</ele>
        <time>2019-03-16T17:50:06Z</time>
      </trkpt>
      <trkpt lat="33.383960025385022" lon="-7.621079999953508">
        <ele>0</ele>
        <time>2019-03-16T17:50:15Z</time>
      </trkpt>
      <trkpt lat="33.384929979220033" lon="-7.620599968358874">
        <ele>0</ele>
        <time>2019-03-16T17:50:30Z</time>
      </trkpt>
      <trkpt lat="33.385489974170923" lon="-7.620339961722493">
        <ele>0</ele>
        <time>2019-03-16T17:50:45Z</time>
      </trkpt>
      <trkpt lat="33.38601996190846" lon="-7.620150027796626">
        <ele>0</ele>
        <time>2019-03-16T17:51:01Z</time>
      </trkpt>
      <trkpt lat="33.386550033465028" lon="-7.619990017265081">
        <ele>0</ele>
        <time>2019-03-16T17:51:04Z</time>
      </trkpt>
      <trkpt lat="33.387040039524436" lon="-7.619890021160245">
        <ele>0</ele>
        <time>2019-03-16T17:51:05Z</time>
      </trkpt>
      <trkpt lat="33.387529961764812" lon="-7.619830006733537">
        <ele>0</ele>
        <time>2019-03-16T17:51:06Z</time>
      </trkpt>
      <trkpt lat="33.387940004467964" lon="-7.619799999520183">
        <ele>0</ele>
        <time>2019-03-16T17:51:15Z</time>
      </trkpt>
      <trkpt lat="33.388509973883629" lon="-7.619799999520183">
        <ele>0</ele>
        <time>2019-03-16T17:51:22Z</time>
      </trkpt>
      <trkpt lat="33.388620028272271" lon="-7.619809973984957">
        <ele>0</ele>
        <time>2019-03-16T17:51:30Z</time>
      </trkpt>
      <trkpt lat="33.388880034908652" lon="-7.619809973984957">
        <ele>0</ele>
        <time>2019-03-16T17:51:39Z</time>
      </trkpt>
      <trkpt lat="33.389640022069216" lon="-7.619879962876439">
        <ele>0</ele>
        <time>2019-03-16T17:51:43Z</time>
      </trkpt>
      <trkpt lat="33.389749992638826" lon="-7.619879962876439">
        <ele>0</ele>
        <time>2019-03-16T17:51:44Z</time>
      </trkpt>
      <trkpt lat="33.391320006921887" lon="-7.62000996619463">
        <ele>0</ele>
        <time>2019-03-16T17:51:45Z</time>
      </trkpt>
      <trkpt lat="33.397329999133945" lon="-7.620620001107454">
        <ele>0</ele>
        <time>2019-03-16T17:51:46Z</time>
      </trkpt>
      <trkpt lat="33.397639961913228" lon="-7.620670041069388">
        <ele>0</ele>
        <time>2019-03-16T17:51:47Z</time>
      </trkpt>
      <trkpt lat="33.398740002885461" lon="-7.620900040492415">
        <ele>0</ele>
        <time>2019-03-16T17:51:48Z</time>
      </trkpt>
      <trkpt lat="33.398970002308488" lon="-7.620959971100092">
        <ele>0</ele>
        <time>2019-03-16T17:51:49Z</time>
      </trkpt>
      <trkpt lat="33.399460008367896" lon="-7.621119981631637">
        <ele>0</ele>
        <time>2019-03-16T17:51:50Z</time>
      </trkpt>
      <trkpt lat="33.400029977783561" lon="-7.621330032125115">
        <ele>0</ele>
        <time>2019-03-16T17:51:51Z</time>
      </trkpt>
      <trkpt lat="33.400809997692704" lon="-7.621670002117753">
        <ele>0</ele>
        <time>2019-03-16T17:51:52Z</time>
      </trkpt>
      <trkpt lat="33.404099978506565" lon="-7.623259965330362">
        <ele>0</ele>
        <time>2019-03-16T17:51:53Z</time>
      </trkpt>
      <trkpt lat="33.406940018758178" lon="-7.624590005725622">
        <ele>0</ele>
        <time>2019-03-16T17:51:54Z</time>
      </trkpt>
      <trkpt lat="33.408870035782456" lon="-7.625440014526248">
        <ele>0</ele>
        <time>2019-03-16T17:51:55Z</time>
      </trkpt>
      <trkpt lat="33.409749967977405" lon="-7.625779984518886">
        <ele>0</ele>
        <time>2019-03-16T17:51:56Z</time>
      </trkpt>
      <trkpt lat="33.410069989040494" lon="-7.625879980623722">
        <ele>0</ele>
        <time>2019-03-16T17:51:57Z</time>
      </trkpt>
      <trkpt lat="33.410309962928295" lon="-7.62593999505043">
        <ele>0</ele>
        <time>2019-03-16T17:51:58Z</time>
      </trkpt>
      <trkpt lat="33.410320021212101" lon="-7.62593999505043">
        <ele>0</ele>
        <time>2019-03-16T17:52:55Z</time>
      </trkpt>
      <trkpt lat="33.410529987886548" lon="-7.625990035012364">
        <ele>0</ele>
        <time>2019-03-16T17:53:03Z</time>
      </trkpt>
      <trkpt lat="33.410729980096221" lon="-7.626019958406687">
        <ele>0</ele>
        <time>2019-03-16T17:53:17Z</time>
      </trkpt>
      <trkpt lat="33.410870041698217" lon="-7.626049965620041">
        <ele>0</ele>
        <time>2019-03-16T17:53:28Z</time>
      </trkpt>
      <trkpt lat="33.411700017750263" lon="-7.626149961724877">
        <ele>0</ele>
        <time>2019-03-16T17:53:40Z</time>
      </trkpt>
      <trkpt lat="33.42868996784091" lon="-7.627510009333491">
        <ele>0</ele>
        <time>2019-03-16T17:53:46Z</time>
      </trkpt>
      <trkpt lat="33.432550001889467" lon="-7.627860037609935">
        <ele>0</ele>
        <time>2019-03-16T17:53:48Z</time>
      </trkpt>
      <trkpt lat="33.433560021221638" lon="-7.62797998264432">
        <ele>0</ele>
        <time>2019-03-16T17:53:49Z</time>
      </trkpt>
      <trkpt lat="33.433879958465695" lon="-7.628039997071028">
        <ele>0</ele>
        <time>2019-03-16T17:53:50Z</time>
      </trkpt>
      <trkpt lat="33.4345100261271" lon="-7.628200007602572">
        <ele>0</ele>
        <time>2019-03-16T17:53:57Z</time>
      </trkpt>
      <trkpt lat="33.437519967556" lon="-7.629259983077645">
        <ele>0</ele>
        <time>2019-03-16T17:54:06Z</time>
      </trkpt>
      <trkpt lat="33.437719959765673" lon="-7.629340030252934">
        <ele>0</ele>
        <time>2019-03-16T17:54:17Z</time>
      </trkpt>
      <trkpt lat="33.447610018774867" lon="-7.632860010489821">
        <ele>0</ele>
        <time>2019-03-16T17:54:18Z</time>
      </trkpt>
      <trkpt lat="33.448070017620921" lon="-7.63300996273756">
        <ele>0</ele>
        <time>2019-03-16T17:54:19Z</time>
      </trkpt>
      <trkpt lat="33.448700001463294" lon="-7.633169973269105">
        <ele>0</ele>
        <time>2019-03-16T17:54:20Z</time>
      </trkpt>
      <trkpt lat="33.449280029162765" lon="-7.633269969373941">
        <ele>0</ele>
        <time>2019-03-16T17:54:21Z</time>
      </trkpt>
      <trkpt lat="33.449459988623857" lon="-7.633290002122521">
        <ele>0</ele>
        <time>2019-03-16T17:54:22Z</time>
      </trkpt>
      <trkpt lat="33.450159961357713" lon="-7.63332998380065">
        <ele>0</ele>
        <time>2019-03-16T17:54:23Z</time>
      </trkpt>
      <trkpt lat="33.460069969296455" lon="-7.633299976587296">
        <ele>0</ele>
        <time>2019-03-16T17:54:24Z</time>
      </trkpt>
      <trkpt lat="33.461049981415272" lon="-7.633320009335876">
        <ele>0</ele>
        <time>2019-03-16T17:54:25Z</time>
      </trkpt>
      <trkpt lat="33.479260001331568" lon="-7.633280027657747">
        <ele>0</ele>
        <time>2019-03-16T17:54:26Z</time>
      </trkpt>
      <trkpt lat="33.479290008544922" lon="-7.633269969373941">
        <ele>0</ele>
        <time>2019-03-16T17:54:27Z</time>
      </trkpt>
      <trkpt lat="33.479620004072785" lon="-7.633259994909167">
        <ele>0</ele>
        <time>2019-03-16T17:54:28Z</time>
      </trkpt>
      <trkpt lat="33.479949999600649" lon="-7.633229987695813">
        <ele>0</ele>
        <time>2019-03-16T17:54:29Z</time>
      </trkpt>
      <trkpt lat="33.480419972911477" lon="-7.633169973269105">
        <ele>0</ele>
        <time>2019-03-16T17:54:30Z</time>
      </trkpt>
      <trkpt lat="33.480890030041337" lon="-7.633069977164269">
        <ele>0</ele>
        <time>2019-03-16T17:54:31Z</time>
      </trkpt>
      <trkpt lat="33.481329996138811" lon="-7.632950032129884">
        <ele>0</ele>
        <time>2019-03-16T17:54:39Z</time>
      </trkpt>
      <trkpt lat="33.481390010565519" lon="-7.632939973846078">
        <ele>0</ele>
        <time>2019-03-16T17:54:50Z</time>
      </trkpt>
      <trkpt lat="33.496460001915693" lon="-7.628620024770498">
        <ele>0</ele>
        <time>2019-03-16T17:55:00Z</time>
      </trkpt>
      <trkpt lat="33.4967100340873" lon="-7.628499995917082">
        <ele>0</ele>
        <time>2019-03-16T17:55:10Z</time>
      </trkpt>
      <trkpt lat="33.496859986335039" lon="-7.628439981490374">
        <ele>0</ele>
        <time>2019-03-16T17:55:22Z</time>
      </trkpt>
      <trkpt lat="33.497540010139346" lon="-7.628230014815927">
        <ele>0</ele>
        <time>2019-03-16T17:55:34Z</time>
      </trkpt>
      <trkpt lat="33.497789958491921" lon="-7.62813001871109">
        <ele>0</ele>
        <time>2019-03-16T17:55:44Z</time>
      </trkpt>
      <trkpt lat="33.498169993981719" lon="-7.627949975430965">
        <ele>0</ele>
        <time>2019-03-16T17:55:55Z</time>
      </trkpt>
      <trkpt lat="33.498560003936291" lon="-7.627689968794584">
        <ele>0</ele>
        <time>2019-03-16T17:56:02Z</time>
      </trkpt>
      <trkpt lat="33.500669980421662" lon="-7.625909987837076">
        <ele>0</ele>
        <time>2019-03-16T17:56:11Z</time>
      </trkpt>
      <trkpt lat="33.500980027019978" lon="-7.625579992309213">
        <ele>0</ele>
        <time>2019-03-16T17:56:23Z</time>
      </trkpt>
      <trkpt lat="33.501159986481071" lon="-7.625319985672832">
        <ele>0</ele>
        <time>2019-03-16T17:56:30Z</time>
      </trkpt>
      <trkpt lat="33.501350004225969" lon="-7.624980015680194">
        <ele>0</ele>
        <time>2019-03-16T17:56:37Z</time>
      </trkpt>
      <trkpt lat="33.501670025289059" lon="-7.624329999089241">
        <ele>0</ele>
        <time>2019-03-16T17:56:45Z</time>
      </trkpt>
      <trkpt lat="33.501700032502413" lon="-7.624290017411113">
        <ele>0</ele>
        <time>2019-03-16T17:56:55Z</time>
      </trkpt>
      <trkpt lat="33.501719981431961" lon="-7.624250035732985">
        <ele>0</ele>
        <time>2019-03-16T17:57:05Z</time>
      </trkpt>
      <trkpt lat="33.501759963110089" lon="-7.624209970235825">
        <ele>0</ele>
        <time>2019-03-16T17:57:15Z</time>
      </trkpt>
      <trkpt lat="33.501810003072023" lon="-7.624169988557696">
        <ele>0</ele>
        <time>2019-03-16T17:57:29Z</time>
      </trkpt>
      <trkpt lat="33.501949980854988" lon="-7.623890032991767">
        <ele>0</ele>
        <time>2019-03-16T17:57:53Z</time>
      </trkpt>
      <trkpt lat="33.502500001341105" lon="-7.622870039194822">
        <ele>0</ele>
        <time>2019-03-16T17:58:15Z</time>
      </trkpt>
      <trkpt lat="33.502909960225224" lon="-7.62219998985529">
        <ele>0</ele>
        <time>2019-03-16T17:58:34Z</time>
      </trkpt>
      <trkpt lat="33.502929992973804" lon="-7.622160008177161">
        <ele>0</ele>
        <time>2019-03-16T17:58:46Z</time>
      </trkpt>
      <trkpt lat="33.50319997407496" lon="-7.621719958260655">
        <ele>0</ele>
        <time>2019-03-16T17:58:55Z</time>
      </trkpt>
      <trkpt lat="33.50380003452301" lon="-7.620799960568547">
        <ele>0</ele>
        <time>2019-03-16T17:59:05Z</time>
      </trkpt>
      <trkpt lat="33.504609977826476" lon="-7.61962004005909">
        <ele>0</ele>
        <time>2019-03-16T17:59:29Z</time>
      </trkpt>
      <trkpt lat="33.506570002064109" lon="-7.616670029237866">
        <ele>0</ele>
        <time>2019-03-16T17:59:54Z</time>
      </trkpt>
      <trkpt lat="33.507870035246015" lon="-7.614640016108751">
        <ele>0</ele>
        <time>2019-03-16T18:00:18Z</time>
      </trkpt>
      <trkpt lat="33.50859004072845" lon="-7.61339002288878">
        <ele>0</ele>
        <time>2019-03-16T18:00:27Z</time>
      </trkpt>
      <trkpt lat="33.508890029042959" lon="-7.612840002402663">
        <ele>0</ele>
        <time>2019-03-16T18:00:36Z</time>
      </trkpt>
      <trkpt lat="33.509099995717406" lon="-7.612380003556609">
        <ele>0</ele>
        <time>2019-03-16T18:00:45Z</time>
      </trkpt>
      <trkpt lat="33.509439965710044" lon="-7.611710038036108">
        <ele>0</ele>
        <time>2019-03-16T18:00:56Z</time>
      </trkpt>
      <trkpt lat="33.50955999456346" lon="-7.611429998651147">
        <ele>0</ele>
        <time>2019-03-16T18:01:22Z</time>
      </trkpt>
      <trkpt lat="33.509729979559779" lon="-7.611090028658509">
        <ele>0</ele>
        <time>2019-03-16T18:01:38Z</time>
      </trkpt>
      <trkpt lat="33.510089982300997" lon="-7.610249994322658">
        <ele>0</ele>
        <time>2019-03-16T18:01:47Z</time>
      </trkpt>
      <trkpt lat="33.510110015049577" lon="-7.610219987109304">
        <ele>0</ele>
        <time>2019-03-16T18:01:56Z</time>
      </trkpt>
      <trkpt lat="33.510609995573759" lon="-7.608930012211204">
        <ele>0</ele>
        <time>2019-03-16T18:02:05Z</time>
      </trkpt>
      <trkpt lat="33.511069994419813" lon="-7.607640037313104">
        <ele>0</ele>
        <time>2019-03-16T18:02:16Z</time>
      </trkpt>
      <trkpt lat="33.511929977685213" lon="-7.604779964312911">
        <ele>0</ele>
        <time>2019-03-16T18:02:33Z</time>
      </trkpt>
      <trkpt lat="33.511989992111921" lon="-7.604470001533628">
        <ele>0</ele>
        <time>2019-03-16T18:02:47Z</time>
      </trkpt>
      <trkpt lat="33.515409976243973" lon="-7.592689990997315">
        <ele>0</ele>
        <time>2019-03-16T18:03:02Z</time>
      </trkpt>
      <trkpt lat="33.516710009425879" lon="-7.58805999532342">
        <ele>0</ele>
        <time>2019-03-16T18:03:13Z</time>
      </trkpt>
      <trkpt lat="33.517360026016831" lon="-7.58602000772953">
        <ele>0</ele>
        <time>2019-03-16T18:03:22Z</time>
      </trkpt>
      <trkpt lat="33.518099980428815" lon="-7.583989994600415">
        <ele>0</ele>
        <time>2019-03-16T18:03:32Z</time>
      </trkpt>
      <trkpt lat="33.518629968166351" lon="-7.582630030810833">
        <ele>0</ele>
        <time>2019-03-16T18:03:42Z</time>
      </trkpt>
      <trkpt lat="33.519160039722919" lon="-7.581369979307056">
        <ele>0</ele>
        <time>2019-03-16T18:03:54Z</time>
      </trkpt>
      <trkpt lat="33.519560024142265" lon="-7.580479988828301">
        <ele>0</ele>
        <time>2019-03-16T18:04:13Z</time>
      </trkpt>
      <trkpt lat="33.520810017362237" lon="-7.577880006283522">
        <ele>0</ele>
        <time>2019-03-16T18:04:33Z</time>
      </trkpt>
      <trkpt lat="33.522079959511757" lon="-7.575589986518025">
        <ele>0</ele>
        <time>2019-03-16T18:04:45Z</time>
      </trkpt>
      <trkpt lat="33.523549977689981" lon="-7.573180021718144">
        <ele>0</ele>
        <time>2019-03-16T18:04:58Z</time>
      </trkpt>
      <trkpt lat="33.524480033665895" lon="-7.571809999644756">
        <ele>0</ele>
        <time>2019-03-16T18:05:10Z</time>
      </trkpt>
      <trkpt lat="33.526209974661469" lon="-7.569370027631521">
        <ele>0</ele>
        <time>2019-03-16T18:05:21Z</time>
      </trkpt>
      <trkpt lat="33.526250040158629" lon="-7.569300038740039">
        <ele>0</ele>
        <time>2019-03-16T18:05:32Z</time>
      </trkpt>
      <trkpt lat="33.526690006256104" lon="-7.568699978291988">
        <ele>0</ele>
        <time>2019-03-16T18:05:47Z</time>
      </trkpt>
      <trkpt lat="33.526839958503842" lon="-7.568469978868961">
        <ele>0</ele>
        <time>2019-03-16T18:05:57Z</time>
      </trkpt>
      <trkpt lat="33.527500033378601" lon="-7.567540006712079">
        <ele>0</ele>
        <time>2019-03-16T18:06:12Z</time>
      </trkpt>
      <trkpt lat="33.52767001837492" lon="-7.567249992862344">
        <ele>0</ele>
        <time>2019-03-16T18:06:24Z</time>
      </trkpt>
      <trkpt lat="33.527979981154203" lon="-7.56678999401629">
        <ele>0</ele>
        <time>2019-03-16T18:06:35Z</time>
      </trkpt>
      <trkpt lat="33.52810001000762" lon="-7.566590001806617">
        <ele>0</ele>
        <time>2019-03-16T18:06:54Z</time>
      </trkpt>
      <trkpt lat="33.528179973363876" lon="-7.566429991275072">
        <ele>0</ele>
        <time>2019-03-16T18:07:12Z</time>
      </trkpt>
      <trkpt lat="33.528379965573549" lon="-7.566069988533855">
        <ele>0</ele>
        <time>2019-03-16T18:07:27Z</time>
      </trkpt>
      <trkpt lat="33.528490019962192" lon="-7.565890029072762">
        <ele>0</ele>
        <time>2019-03-16T18:07:38Z</time>
      </trkpt>
      <trkpt lat="33.5289800260216" lon="-7.564949998632073">
        <ele>0</ele>
        <time>2019-03-16T18:07:49Z</time>
      </trkpt>
      <trkpt lat="33.529140036553144" lon="-7.56462000310421">
        <ele>0</ele>
        <time>2019-03-16T18:08:00Z</time>
      </trkpt>
      <trkpt lat="33.529189992696047" lon="-7.564480025321245">
        <ele>0</ele>
        <time>2019-03-16T18:08:14Z</time>
      </trkpt>
      <trkpt lat="33.52951998822391" lon="-7.563730012625456">
        <ele>0</ele>
        <time>2019-03-16T18:08:27Z</time>
      </trkpt>
      <trkpt lat="33.529870016500354" lon="-7.562829963862896">
        <ele>0</ele>
        <time>2019-03-16T18:08:39Z</time>
      </trkpt>
      <trkpt lat="33.530119964852929" lon="-7.562109958380461">
        <ele>0</ele>
        <time>2019-03-16T18:08:52Z</time>
      </trkpt>
      <trkpt lat="33.531340034678578" lon="-7.557990001514554">
        <ele>0</ele>
        <time>2019-03-16T18:09:09Z</time>
      </trkpt>
      <trkpt lat="33.532109996303916" lon="-7.555820010602474">
        <ele>0</ele>
        <time>2019-03-16T18:09:28Z</time>
      </trkpt>
      <trkpt lat="33.532319962978363" lon="-7.555309971794486">
        <ele>0</ele>
        <time>2019-03-16T18:09:44Z</time>
      </trkpt>
      <trkpt lat="33.532600002363324" lon="-7.554709995165467">
        <ele>0</ele>
        <time>2019-03-16T18:09:56Z</time>
      </trkpt>
      <trkpt lat="33.532630009576678" lon="-7.554619973525405">
        <ele>0</ele>
        <time>2019-03-16T18:10:15Z</time>
      </trkpt>
      <trkpt lat="33.533680010586977" lon="-7.552230041474104">
        <ele>0</ele>
        <time>2019-03-16T18:10:33Z</time>
      </trkpt>
      <trkpt lat="33.534040013328195" lon="-7.551339967176318">
        <ele>0</ele>
        <time>2019-03-16T18:10:46Z</time>
      </trkpt>
      <trkpt lat="33.534630015492439" lon="-7.549780011177063">
        <ele>0</ele>
        <time>2019-03-16T18:11:08Z</time>
      </trkpt>
      <trkpt lat="33.53489002212882" lon="-7.549029998481274">
        <ele>0</ele>
        <time>2019-03-16T18:11:31Z</time>
      </trkpt>
      <trkpt lat="33.535180035978556" lon="-7.548070019111037">
        <ele>0</ele>
        <time>2019-03-16T18:11:46Z</time>
      </trkpt>
      <trkpt lat="33.535280032083392" lon="-7.547780005261302">
        <ele>0</ele>
        <time>2019-03-16T18:11:59Z</time>
      </trkpt>
      <trkpt lat="33.535420009866357" lon="-7.547310031950474">
        <ele>0</ele>
        <time>2019-03-16T18:12:12Z</time>
      </trkpt>
      <trkpt lat="33.536059968173504" lon="-7.545380014926195">
        <ele>0</ele>
        <time>2019-03-16T18:12:22Z</time>
      </trkpt>
      <trkpt lat="33.536570006981492" lon="-7.544060032814741">
        <ele>0</ele>
        <time>2019-03-16T18:12:34Z</time>
      </trkpt>
      <trkpt lat="33.537150034680963" lon="-7.542699985206127">
        <ele>0</ele>
        <time>2019-03-16T18:12:47Z</time>
      </trkpt>
      <trkpt lat="33.5379199963063" lon="-7.541040033102036">
        <ele>0</ele>
        <time>2019-03-16T18:13:02Z</time>
      </trkpt>
      <trkpt lat="33.538330039009452" lon="-7.540199998766184">
        <ele>0</ele>
        <time>2019-03-16T18:13:15Z</time>
      </trkpt>
      <trkpt lat="33.538349987939" lon="-7.54014995880425">
        <ele>0</ele>
        <time>2019-03-16T18:13:26Z</time>
      </trkpt>
      <trkpt lat="33.538459958508611" lon="-7.539939992129803">
        <ele>0</ele>
        <time>2019-03-16T18:13:41Z</time>
      </trkpt>
      <trkpt lat="33.538560038432479" lon="-7.53971996717155">
        <ele>0</ele>
        <time>2019-03-16T18:13:51Z</time>
      </trkpt>
      <trkpt lat="33.538570012897253" lon="-7.539709992706776">
        <ele>0</ele>
        <time>2019-03-16T18:14:08Z</time>
      </trkpt>
      <trkpt lat="33.542110025882721" lon="-7.532310029491782">
        <ele>0</ele>
        <time>2019-03-16T18:14:18Z</time>
      </trkpt>
      <trkpt lat="33.542830031365156" lon="-7.530870018526912">
        <ele>0</ele>
        <time>2019-03-16T18:14:29Z</time>
      </trkpt>
      <trkpt lat="33.543630000203848" lon="-7.529369993135333">
        <ele>0</ele>
        <time>2019-03-16T18:14:44Z</time>
      </trkpt>
      <trkpt lat="33.544719982892275" lon="-7.527469983324409">
        <ele>0</ele>
        <time>2019-03-16T18:14:55Z</time>
      </trkpt>
      <trkpt lat="33.545520035549998" lon="-7.526200041174889">
        <ele>0</ele>
        <time>2019-03-16T18:15:09Z</time>
      </trkpt>
      <trkpt lat="33.546550003811717" lon="-7.524630026891828">
        <ele>0</ele>
        <time>2019-03-16T18:15:25Z</time>
      </trkpt>
      <trkpt lat="33.547520041465759" lon="-7.523250030353665">
        <ele>0</ele>
        <time>2019-03-16T18:15:37Z</time>
      </trkpt>
      <trkpt lat="33.548050029203296" lon="-7.522579981014133">
        <ele>0</ele>
        <time>2019-03-16T18:15:54Z</time>
      </trkpt>
      <trkpt lat="33.548580016940832" lon="-7.521870033815503">
        <ele>0</ele>
        <time>2019-03-16T18:16:09Z</time>
      </trkpt>
      <trkpt lat="33.551140017807484" lon="-7.518590027466416">
        <ele>0</ele>
        <time>2019-03-16T18:16:25Z</time>
      </trkpt>
      <trkpt lat="33.55194996111095" lon="-7.517510019242764">
        <ele>0</ele>
        <time>2019-03-16T18:16:36Z</time>
      </trkpt>
      <trkpt lat="33.552729981020093" lon="-7.516409978270531">
        <ele>0</ele>
        <time>2019-03-16T18:16:54Z</time>
      </trkpt>
      <trkpt lat="33.553660036996007" lon="-7.51499000005424">
        <ele>0</ele>
        <time>2019-03-16T18:17:04Z</time>
      </trkpt>
      <trkpt lat="33.554550027474761" lon="-7.513500032946467">
        <ele>0</ele>
        <time>2019-03-16T18:17:15Z</time>
      </trkpt>
      <trkpt lat="33.555659959092736" lon="-7.511449987068772">
        <ele>0</ele>
        <time>2019-03-16T18:17:30Z</time>
      </trkpt>
      <trkpt lat="33.559220004826784" lon="-7.504240041598678">
        <ele>0</ele>
        <time>2019-03-16T18:17:41Z</time>
      </trkpt>
      <trkpt lat="33.560089962556958" lon="-7.50241999514401">
        <ele>0</ele>
        <time>2019-03-16T18:17:55Z</time>
      </trkpt>
      <trkpt lat="33.562439996749163" lon="-7.497720010578632">
        <ele>0</ele>
        <time>2019-03-16T18:18:06Z</time>
      </trkpt>
      <trkpt lat="33.562809973955154" lon="-7.496939990669489">
        <ele>0</ele>
        <time>2019-03-16T18:18:25Z</time>
      </trkpt>
      <trkpt lat="33.563259998336434" lon="-7.49591002240777">
        <ele>0</ele>
        <time>2019-03-16T18:18:36Z</time>
      </trkpt>
      <trkpt lat="33.563670041039586" lon="-7.494849963113666">
        <ele>0</ele>
        <time>2019-03-16T18:18:48Z</time>
      </trkpt>
      <trkpt lat="33.563840026035905" lon="-7.494370015338063">
        <ele>0</ele>
        <time>2019-03-16T18:19:03Z</time>
      </trkpt>
      <trkpt lat="33.564070025458932" lon="-7.493650009855628">
        <ele>0</ele>
        <time>2019-03-16T18:19:03Z</time>
      </trkpt>
      <trkpt lat="33.564370013773441" lon="-7.492549968883395">
        <ele>0</ele>
        <time>2019-03-16T18:19:13Z</time>
      </trkpt>
      <trkpt lat="33.564600013196468" lon="-7.491580015048385">
        <ele>0</ele>
        <time>2019-03-16T18:19:24Z</time>
      </trkpt>
      <trkpt lat="33.564749965444207" lon="-7.490799995139241">
        <ele>0</ele>
        <time>2019-03-16T18:19:40Z</time>
      </trkpt>
      <trkpt lat="33.56499002315104" lon="-7.489010039716959">
        <ele>0</ele>
        <time>2019-03-16T18:19:52Z</time>
      </trkpt>
      <trkpt lat="33.565069986507297" lon="-7.488230019807816">
        <ele>0</ele>
        <time>2019-03-16T18:20:03Z</time>
      </trkpt>
      <trkpt lat="33.565799966454506" lon="-7.479200027883053">
        <ele>0</ele>
        <time>2019-03-16T18:20:14Z</time>
      </trkpt>
      <trkpt lat="33.565950002521276" lon="-7.477850038558245">
        <ele>0</ele>
        <time>2019-03-16T18:20:27Z</time>
      </trkpt>
      <trkpt lat="33.566200034692883" lon="-7.476029992103577">
        <ele>0</ele>
        <time>2019-03-16T18:20:38Z</time>
      </trkpt>
      <trkpt lat="33.566890032961965" lon="-7.472120001912117">
        <ele>0</ele>
        <time>2019-03-16T18:20:49Z</time>
      </trkpt>
      <trkpt lat="33.568059979006648" lon="-7.465929966419935">
        <ele>0</ele>
        <time>2019-03-16T18:21:00Z</time>
      </trkpt>
      <trkpt lat="33.568210015073419" lon="-7.46525002643466">
        <ele>0</ele>
        <time>2019-03-16T18:21:12Z</time>
      </trkpt>
      <trkpt lat="33.568380000069737" lon="-7.464579977095127">
        <ele>0</ele>
        <time>2019-03-16T18:21:27Z</time>
      </trkpt>
      <trkpt lat="33.568609999492764" lon="-7.463800041005015">
        <ele>0</ele>
        <time>2019-03-16T18:21:38Z</time>
      </trkpt>
      <trkpt lat="33.568860031664371" lon="-7.463029995560646">
        <ele>0</ele>
        <time>2019-03-16T18:21:52Z</time>
      </trkpt>
      <trkpt lat="33.569060023874044" lon="-7.46250000782311">
        <ele>0</ele>
        <time>2019-03-16T18:22:05Z</time>
      </trkpt>
      <trkpt lat="33.569609960541129" lon="-7.461259989067912">
        <ele>0</ele>
        <time>2019-03-16T18:22:23Z</time>
      </trkpt>
      <trkpt lat="33.570180013775826" lon="-7.460139999166131">
        <ele>0</ele>
        <time>2019-03-16T18:22:35Z</time>
      </trkpt>
      <trkpt lat="33.570689968764782" lon="-7.459299964830279">
        <ele>0</ele>
        <time>2019-03-16T18:22:55Z</time>
      </trkpt>
      <trkpt lat="33.570990040898323" lon="-7.458850024268031">
        <ele>0</ele>
        <time>2019-03-16T18:23:16Z</time>
      </trkpt>
      <trkpt lat="33.571430006995797" lon="-7.458260022103787">
        <ele>0</ele>
        <time>2019-03-16T18:23:33Z</time>
      </trkpt>
      <trkpt lat="33.572180019691586" lon="-7.457329966127873">
        <ele>0</ele>
        <time>2019-03-16T18:23:56Z</time>
      </trkpt>
      <trkpt lat="33.572640018537641" lon="-7.45682998560369">
        <ele>0</ele>
        <time>2019-03-16T18:24:13Z</time>
      </trkpt>
      <trkpt lat="33.573040002956986" lon="-7.45642002671957">
        <ele>0</ele>
        <time>2019-03-16T18:24:34Z</time>
      </trkpt>
      <trkpt lat="33.573190039023757" lon="-7.456299997866154">
        <ele>0</ele>
        <time>2019-03-16T18:24:58Z</time>
      </trkpt>
      <trkpt lat="33.573920018970966" lon="-7.455649981275201">
        <ele>0</ele>
        <time>2019-03-16T18:25:11Z</time>
      </trkpt>
      <trkpt lat="33.574350010603666" lon="-7.455300036817789">
        <ele>0</ele>
        <time>2019-03-16T18:25:23Z</time>
      </trkpt>
      <trkpt lat="33.574870023876429" lon="-7.454910026863217">
        <ele>0</ele>
        <time>2019-03-16T18:25:41Z</time>
      </trkpt>
      <trkpt lat="33.575270008295774" lon="-7.45463996194303">
        <ele>0</ele>
        <time>2019-03-16T18:25:54Z</time>
      </trkpt>
      <trkpt lat="33.576009962707758" lon="-7.454179963096976">
        <ele>0</ele>
        <time>2019-03-16T18:26:09Z</time>
      </trkpt>
      <trkpt lat="33.576629972085357" lon="-7.453830018639565">
        <ele>0</ele>
        <time>2019-03-16T18:26:32Z</time>
      </trkpt>
      <trkpt lat="33.577100029215217" lon="-7.453600019216538">
        <ele>0</ele>
        <time>2019-03-16T18:26:43Z</time>
      </trkpt>
      <trkpt lat="33.577700005844235" lon="-7.453359961509705">
        <ele>0</ele>
        <time>2019-03-16T18:26:54Z</time>
      </trkpt>
      <trkpt lat="33.578520007431507" lon="-7.453080005943775">
        <ele>0</ele>
        <time>2019-03-16T18:27:07Z</time>
      </trkpt>
      <trkpt lat="33.579240012913942" lon="-7.452880013734102">
        <ele>0</ele>
        <time>2019-03-16T18:27:29Z</time>
      </trkpt>
      <trkpt lat="33.580199992284179" lon="-7.452659988775849">
        <ele>0</ele>
        <time>2019-03-16T18:27:42Z</time>
      </trkpt>
      <trkpt lat="33.583150003105402" lon="-7.452139975503087">
        <ele>0</ele>
        <time>2019-03-16T18:27:53Z</time>
      </trkpt>
      <trkpt lat="33.585589975118637" lon="-7.451670002192259">
        <ele>0</ele>
        <time>2019-03-16T18:28:03Z</time>
      </trkpt>
      <trkpt lat="33.586880033835769" lon="-7.45134998112917">
        <ele>0</ele>
        <time>2019-03-16T18:28:14Z</time>
      </trkpt>
      <trkpt lat="33.587199971079826" lon="-7.451249985024333">
        <ele>0</ele>
        <time>2019-03-16T18:28:27Z</time>
      </trkpt>
      <trkpt lat="33.588119968771935" lon="-7.450910015031695">
        <ele>0</ele>
        <time>2019-03-16T18:28:37Z</time>
      </trkpt>
      <trkpt lat="33.588530011475086" lon="-7.450729971751571">
        <ele>0</ele>
        <time>2019-03-16T18:28:47Z</time>
      </trkpt>
      <trkpt lat="33.588920021429658" lon="-7.450540037825704">
        <ele>0</ele>
        <time>2019-03-16T18:29:00Z</time>
      </trkpt>
      <trkpt lat="33.589510023593903" lon="-7.450199984014034">
        <ele>0</ele>
        <time>2019-03-16T18:29:11Z</time>
      </trkpt>
      <trkpt lat="33.590079993009567" lon="-7.449850039556623">
        <ele>0</ele>
        <time>2019-03-16T18:29:24Z</time>
      </trkpt>
      <trkpt lat="33.590360032394528" lon="-7.449660021811724">
        <ele>0</ele>
        <time>2019-03-16T18:29:35Z</time>
      </trkpt>
      <trkpt lat="33.59057997353375" lon="-7.449490036815405">
        <ele>0</ele>
        <time>2019-03-16T18:29:46Z</time>
      </trkpt>
      <trkpt lat="33.590960009023547" lon="-7.449219971895218">
        <ele>0</ele>
        <time>2019-03-16T18:29:57Z</time>
      </trkpt>
      <trkpt lat="33.591350018978119" lon="-7.448910009115934">
        <ele>0</ele>
        <time>2019-03-16T18:30:15Z</time>
      </trkpt>
      <trkpt lat="33.591710021719337" lon="-7.448550006374717">
        <ele>0</ele>
        <time>2019-03-16T18:30:30Z</time>
      </trkpt>
      <trkpt lat="33.591970028355718" lon="-7.44832000695169">
        <ele>0</ele>
        <time>2019-03-16T18:30:41Z</time>
      </trkpt>
      <trkpt lat="33.592560030519962" lon="-7.447699997574091">
        <ele>0</ele>
        <time>2019-03-16T18:30:58Z</time>
      </trkpt>
      <trkpt lat="33.592869993299246" lon="-7.447349969297648">
        <ele>0</ele>
        <time>2019-03-16T18:31:09Z</time>
      </trkpt>
      <trkpt lat="33.598259976133704" lon="-7.440839996561408">
        <ele>0</ele>
        <time>2019-03-16T18:31:23Z</time>
      </trkpt>
      <trkpt lat="33.598939999938011" lon="-7.440080009400845">
        <ele>0</ele>
        <time>2019-03-16T18:31:33Z</time>
      </trkpt>
      <trkpt lat="33.599479962140322" lon="-7.439529988914728">
        <ele>0</ele>
        <time>2019-03-16T18:31:44Z</time>
      </trkpt>
      <trkpt lat="33.599810041487217" lon="-7.439230000600219">
        <ele>0</ele>
        <time>2019-03-16T18:32:06Z</time>
      </trkpt>
      <trkpt lat="33.60057002864778" lon="-7.43860999122262">
        <ele>0</ele>
        <time>2019-03-16T18:32:24Z</time>
      </trkpt>
      <trkpt lat="33.601060034707189" lon="-7.438230039551854">
        <ele>0</ele>
        <time>2019-03-16T18:32:35Z</time>
      </trkpt>
      <trkpt lat="33.601630004122853" lon="-7.437829971313477">
        <ele>0</ele>
        <time>2019-03-16T18:32:46Z</time>
      </trkpt>
      <trkpt lat="33.60218002460897" lon="-7.437480026856065">
        <ele>0</ele>
        <time>2019-03-16T18:33:02Z</time>
      </trkpt>
      <trkpt lat="33.602440031245351" lon="-7.437329990789294">
        <ele>0</ele>
        <time>2019-03-16T18:33:15Z</time>
      </trkpt>
      <trkpt lat="33.602629965171218" lon="-7.437199987471104">
        <ele>0</ele>
        <time>2019-03-16T18:33:28Z</time>
      </trkpt>
      <trkpt lat="33.603760013356805" lon="-7.436619959771633">
        <ele>0</ele>
        <time>2019-03-16T18:33:43Z</time>
      </trkpt>
      <trkpt lat="33.604210037738085" lon="-7.436430025845766">
        <ele>0</ele>
        <time>2019-03-16T18:33:54Z</time>
      </trkpt>
      <trkpt lat="33.604859970510006" lon="-7.436179993674159">
        <ele>0</ele>
        <time>2019-03-16T18:34:06Z</time>
      </trkpt>
      <trkpt lat="33.605620041489601" lon="-7.435910012573004">
        <ele>0</ele>
        <time>2019-03-16T18:34:17Z</time>
      </trkpt>
      <trkpt lat="33.606129996478558" lon="-7.435750002041459">
        <ele>0</ele>
        <time>2019-03-16T18:34:25Z</time>
      </trkpt>
      <trkpt lat="33.607259960845113" lon="-7.435489995405078">
        <ele>0</ele>
        <time>2019-03-16T18:34:37Z</time>
      </trkpt>
      <trkpt lat="33.611449990421534" lon="-7.434449968859553">
        <ele>0</ele>
        <time>2019-03-16T18:34:59Z</time>
      </trkpt>
      <trkpt lat="33.612890001386404" lon="-7.434070017188788">
        <ele>0</ele>
        <time>2019-03-16T18:35:11Z</time>
      </trkpt>
      <trkpt lat="33.613900020718575" lon="-7.433829959481955">
        <ele>0</ele>
        <time>2019-03-16T18:35:23Z</time>
      </trkpt>
      <trkpt lat="33.614100012928247" lon="-7.433770028874278">
        <ele>0</ele>
        <time>2019-03-16T18:35:36Z</time>
      </trkpt>
      <trkpt lat="33.615789972245693" lon="-7.433359986171126">
        <ele>0</ele>
        <time>2019-03-16T18:35:50Z</time>
      </trkpt>
      <trkpt lat="33.617710014805198" lon="-7.432779958471656">
        <ele>0</ele>
        <time>2019-03-16T18:36:08Z</time>
      </trkpt>
      <trkpt lat="33.618990015238523" lon="-7.432300010696054">
        <ele>0</ele>
        <time>2019-03-16T18:36:20Z</time>
      </trkpt>
      <trkpt lat="33.619619999080896" lon="-7.432019971311092">
        <ele>0</ele>
        <time>2019-03-16T18:36:28Z</time>
      </trkpt>
      <trkpt lat="33.619910012930632" lon="-7.431870019063354">
        <ele>0</ele>
        <time>2019-03-16T18:36:37Z</time>
      </trkpt>
      <trkpt lat="33.620010009035468" lon="-7.431830037385225">
        <ele>0</ele>
        <time>2019-03-16T18:36:48Z</time>
      </trkpt>
      <trkpt lat="33.620460033416748" lon="-7.431610012426972">
        <ele>0</ele>
        <time>2019-03-16T18:38:15Z</time>
      </trkpt>
      <trkpt lat="33.621759982779622" lon="-7.430880032479763">
        <ele>0</ele>
        <time>2019-03-16T18:38:23Z</time>
      </trkpt>
      <trkpt lat="33.624970000237226" lon="-7.428799979388714">
        <ele>0</ele>
        <time>2019-03-16T18:38:31Z</time>
      </trkpt>
      <trkpt lat="33.632629970088601" lon="-7.423730017617345">
        <ele>0</ele>
        <time>2019-03-16T18:38:42Z</time>
      </trkpt>
      <trkpt lat="33.634090013802052" lon="-7.422889983281493">
        <ele>0</ele>
        <time>2019-03-16T18:38:59Z</time>
      </trkpt>
      <trkpt lat="33.635530024766922" lon="-7.422250024974346">
        <ele>0</ele>
        <time>2019-03-16T18:39:15Z</time>
      </trkpt>
      <trkpt lat="33.636290011927485" lon="-7.421990018337965">
        <ele>0</ele>
        <time>2019-03-16T18:39:33Z</time>
      </trkpt>
      <trkpt lat="33.637010017409921" lon="-7.421820033341646">
        <ele>0</ele>
        <time>2019-03-16T18:39:59Z</time>
      </trkpt>
      <trkpt lat="33.637819960713387" lon="-7.421649964526296">
        <ele>0</ele>
        <time>2019-03-16T18:40:16Z</time>
      </trkpt>
      <trkpt lat="33.638610038906336" lon="-7.421539993956685">
        <ele>0</ele>
        <time>2019-03-16T18:40:34Z</time>
      </trkpt>
      <trkpt lat="33.639059979468584" lon="-7.421500012278557">
        <ele>0</ele>
        <time>2019-03-16T18:40:54Z</time>
      </trkpt>
      <trkpt lat="33.640599986538291" lon="-7.421419965103269">
        <ele>0</ele>
        <time>2019-03-16T18:41:07Z</time>
      </trkpt>
      <trkpt lat="33.642309978604317" lon="-7.421409990638495">
        <ele>0</ele>
        <time>2019-03-16T18:41:20Z</time>
      </trkpt>
      <trkpt lat="33.643710007891059" lon="-7.421360034495592">
        <ele>0</ele>
        <time>2019-03-16T18:41:39Z</time>
      </trkpt>
      <trkpt lat="33.644009996205568" lon="-7.421330027282238">
        <ele>0</ele>
        <time>2019-03-16T18:41:54Z</time>
      </trkpt>
      <trkpt lat="33.644490027800202" lon="-7.421260038390756">
        <ele>0</ele>
        <time>2019-03-16T18:42:15Z</time>
      </trkpt>
      <trkpt lat="33.645250014960766" lon="-7.421089969575405">
        <ele>0</ele>
        <time>2019-03-16T18:42:35Z</time>
      </trkpt>
      <trkpt lat="33.645499963313341" lon="-7.421010006219149">
        <ele>0</ele>
        <time>2019-03-16T18:42:51Z</time>
      </trkpt>
      <trkpt lat="33.645949987694621" lon="-7.42084002122283">
        <ele>0</ele>
        <time>2019-03-16T18:43:11Z</time>
      </trkpt>
      <trkpt lat="33.64611997269094" lon="-7.420740025117993">
        <ele>0</ele>
        <time>2019-03-16T18:43:32Z</time>
      </trkpt>
      <trkpt lat="33.646470000967383" lon="-7.420580014586449">
        <ele>0</ele>
        <time>2019-03-16T18:43:44Z</time>
      </trkpt>
      <trkpt lat="33.64699998870492" lon="-7.420259993523359">
        <ele>0</ele>
        <time>2019-03-16T18:43:56Z</time>
      </trkpt>
      <trkpt lat="33.647599965333939" lon="-7.419809969142079">
        <ele>0</ele>
        <time>2019-03-16T18:44:08Z</time>
      </trkpt>
      <trkpt lat="33.647980000823736" lon="-7.419449966400862">
        <ele>0</ele>
        <time>2019-03-16T18:44:21Z</time>
      </trkpt>
      <trkpt lat="33.64846003241837" lon="-7.418900029733777">
        <ele>0</ele>
        <time>2019-03-16T18:44:34Z</time>
      </trkpt>
      <trkpt lat="33.649109965190291" lon="-7.418080028146505">
        <ele>0</ele>
        <time>2019-03-16T18:44:57Z</time>
      </trkpt>
      <trkpt lat="33.649450019001961" lon="-7.417699992656708">
        <ele>0</ele>
        <time>2019-03-16T18:45:15Z</time>
      </trkpt>
      <trkpt lat="33.649740032851696" lon="-7.417400004342198">
        <ele>0</ele>
        <time>2019-03-16T18:45:32Z</time>
      </trkpt>
      <trkpt lat="33.650170024484396" lon="-7.416989961639047">
        <ele>0</ele>
        <time>2019-03-16T18:45:45Z</time>
      </trkpt>
      <trkpt lat="33.650900004431605" lon="-7.41637003608048">
        <ele>0</ele>
        <time>2019-03-16T18:46:01Z</time>
      </trkpt>
      <trkpt lat="33.651740038767457" lon="-7.415569983422756">
        <ele>0</ele>
        <time>2019-03-16T18:46:17Z</time>
      </trkpt>
      <trkpt lat="33.65191999822855" lon="-7.415430005639792">
        <ele>0</ele>
        <time>2019-03-16T18:46:35Z</time>
      </trkpt>
      <trkpt lat="33.658399963751435" lon="-7.408240009099245">
        <ele>0</ele>
        <time>2019-03-16T18:46:54Z</time>
      </trkpt>
      <trkpt lat="33.658789973706007" lon="-7.407780010253191">
        <ele>0</ele>
        <time>2019-03-16T18:47:03Z</time>
      </trkpt>
      <trkpt lat="33.659209990873933" lon="-7.407339960336685">
        <ele>0</ele>
        <time>2019-03-16T18:47:17Z</time>
      </trkpt>
      <trkpt lat="33.6620800383389" lon="-7.404119968414307">
        <ele>0</ele>
        <time>2019-03-16T18:47:33Z</time>
      </trkpt>
      <trkpt lat="33.66219000890851" lon="-7.404009997844696">
        <ele>0</ele>
        <time>2019-03-16T18:47:50Z</time>
      </trkpt>
      <trkpt lat="33.662310037761927" lon="-7.403840012848377">
        <ele>0</ele>
        <time>2019-03-16T18:48:03Z</time>
      </trkpt>
      <trkpt lat="33.66291998885572" lon="-7.40315998904407">
        <ele>0</ele>
        <time>2019-03-16T18:48:15Z</time>
      </trkpt>
      <trkpt lat="33.664239970967174" lon="-7.401619981974363">
        <ele>0</ele>
        <time>2019-03-16T18:48:35Z</time>
      </trkpt>
      <trkpt lat="33.664429988712072" lon="-7.401370033621788">
        <ele>0</ele>
        <time>2019-03-16T18:48:55Z</time>
      </trkpt>
      <trkpt lat="33.665819959715009" lon="-7.399419983848929">
        <ele>0</ele>
        <time>2019-03-16T18:49:10Z</time>
      </trkpt>
      <trkpt lat="33.666820004582405" lon="-7.397890035063028">
        <ele>0</ele>
        <time>2019-03-16T18:49:32Z</time>
      </trkpt>
      <trkpt lat="33.667919961735606" lon="-7.396030006930232">
        <ele>0</ele>
        <time>2019-03-16T18:49:53Z</time>
      </trkpt>
      <trkpt lat="33.668569978326559" lon="-7.394819995388389">
        <ele>0</ele>
        <time>2019-03-16T18:50:07Z</time>
      </trkpt>
      <trkpt lat="33.669219994917512" lon="-7.393549969419837">
        <ele>0</ele>
        <time>2019-03-16T18:50:24Z</time>
      </trkpt>
      <trkpt lat="33.670090036466718" lon="-7.391660017892718">
        <ele>0</ele>
        <time>2019-03-16T18:50:37Z</time>
      </trkpt>
      <trkpt lat="33.673120010644197" lon="-7.384519977495074">
        <ele>0</ele>
        <time>2019-03-16T18:50:55Z</time>
      </trkpt>
      <trkpt lat="33.674109997227788" lon="-7.382379993796349">
        <ele>0</ele>
        <time>2019-03-16T18:51:15Z</time>
      </trkpt>
      <trkpt lat="33.675129991024733" lon="-7.380279991775751">
        <ele>0</ele>
        <time>2019-03-16T18:51:34Z</time>
      </trkpt>
      <trkpt lat="33.675169972702861" lon="-7.380219977349043">
        <ele>0</ele>
        <time>2019-03-16T18:51:53Z</time>
      </trkpt>
      <trkpt lat="33.676379984244704" lon="-7.377840019762516">
        <ele>0</ele>
        <time>2019-03-16T18:52:10Z</time>
      </trkpt>
      <trkpt lat="33.676400016993284" lon="-7.377819987013936">
        <ele>0</ele>
        <time>2019-03-16T18:52:25Z</time>
      </trkpt>
      <trkpt lat="33.677109964191914" lon="-7.376549961045384">
        <ele>0</ele>
        <time>2019-03-16T18:52:38Z</time>
      </trkpt>
      <trkpt lat="33.678119983524084" lon="-7.37482002004981">
        <ele>0</ele>
        <time>2019-03-16T18:52:54Z</time>
      </trkpt>
      <trkpt lat="33.680080007761717" lon="-7.371700024232268">
        <ele>0</ele>
        <time>2019-03-16T18:53:15Z</time>
      </trkpt>
      <trkpt lat="33.680679984390736" lon="-7.370680030435324">
        <ele>0</ele>
        <time>2019-03-16T18:53:30Z</time>
      </trkpt>
      <trkpt lat="33.684789966791868" lon="-7.364069977775216">
        <ele>0</ele>
        <time>2019-03-16T18:53:44Z</time>
      </trkpt>
      <trkpt lat="33.685420034453273" lon="-7.363100023940206">
        <ele>0</ele>
        <time>2019-03-16T18:53:57Z</time>
      </trkpt>
      <trkpt lat="33.6865100171417" lon="-7.361539984121919">
        <ele>0</ele>
        <time>2019-03-16T18:54:12Z</time>
      </trkpt>
      <trkpt lat="33.68696004152298" lon="-7.360930033028126">
        <ele>0</ele>
        <time>2019-03-16T18:54:34Z</time>
      </trkpt>
      <trkpt lat="33.688829960301518" lon="-7.358519984409213">
        <ele>0</ele>
        <time>2019-03-16T18:54:45Z</time>
      </trkpt>
      <trkpt lat="33.689950034022331" lon="-7.357190027832985">
        <ele>0</ele>
        <time>2019-03-16T18:54:57Z</time>
      </trkpt>
      <trkpt lat="33.690670039504766" lon="-7.356389975175262">
        <ele>0</ele>
        <time>2019-03-16T18:55:08Z</time>
      </trkpt>
      <trkpt lat="33.692380031570792" lon="-7.354609994217753">
        <ele>0</ele>
        <time>2019-03-16T18:55:20Z</time>
      </trkpt>
      <trkpt lat="33.694179961457849" lon="-7.352930009365082">
        <ele>0</ele>
        <time>2019-03-16T18:55:31Z</time>
      </trkpt>
      <trkpt lat="33.695630030706525" lon="-7.35165998339653">
        <ele>0</ele>
        <time>2019-03-16T18:55:43Z</time>
      </trkpt>
      <trkpt lat="33.696490013971925" lon="-7.350960010662675">
        <ele>0</ele>
        <time>2019-03-16T18:55:56Z</time>
      </trkpt>
      <trkpt lat="33.698060028254986" lon="-7.349740024656057">
        <ele>0</ele>
        <time>2019-03-16T18:56:16Z</time>
      </trkpt>
      <trkpt lat="33.699029982089996" lon="-7.34903996810317">
        <ele>0</ele>
        <time>2019-03-16T18:56:32Z</time>
      </trkpt>
      <trkpt lat="33.701010039076209" lon="-7.347740018740296">
        <ele>0</ele>
        <time>2019-03-16T18:56:44Z</time>
      </trkpt>
      <trkpt lat="33.702520038932562" lon="-7.346829995512962">
        <ele>0</ele>
        <time>2019-03-16T18:56:57Z</time>
      </trkpt>
      <trkpt lat="33.705980004742742" lon="-7.344920011237264">
        <ele>0</ele>
        <time>2019-03-16T18:57:19Z</time>
      </trkpt>
      <trkpt lat="33.707150034606457" lon="-7.344220038503408">
        <ele>0</ele>
        <time>2019-03-16T18:57:39Z</time>
      </trkpt>
      <trkpt lat="33.70818997733295" lon="-7.343429960310459">
        <ele>0</ele>
        <time>2019-03-16T18:57:51Z</time>
      </trkpt>
      <trkpt lat="33.708690041676164" lon="-7.343020001426339">
        <ele>0</ele>
        <time>2019-03-16T18:58:03Z</time>
      </trkpt>
      <trkpt lat="33.709230003878474" lon="-7.342539969831705">
        <ele>0</ele>
        <time>2019-03-16T18:58:14Z</time>
      </trkpt>
      <trkpt lat="33.71005997993052" lon="-7.341719968244433">
        <ele>0</ele>
        <time>2019-03-16T18:58:26Z</time>
      </trkpt>
      <trkpt lat="33.7105100043118" lon="-7.341229962185025">
        <ele>0</ele>
        <time>2019-03-16T18:58:36Z</time>
      </trkpt>
      <trkpt lat="33.711650026962161" lon="-7.339860023930669">
        <ele>0</ele>
        <time>2019-03-16T18:58:48Z</time>
      </trkpt>
      <trkpt lat="33.712619980797172" lon="-7.338529983535409">
        <ele>0</ele>
        <time>2019-03-16T18:59:02Z</time>
      </trkpt>
      <trkpt lat="33.713499996811152" lon="-7.337389960885048">
        <ele>0</ele>
        <time>2019-03-16T18:59:14Z</time>
      </trkpt>
      <trkpt lat="33.713829992339015" lon="-7.3369400203228">
        <ele>0</ele>
        <time>2019-03-16T18:59:24Z</time>
      </trkpt>
      <trkpt lat="33.713950021192431" lon="-7.336799958720803">
        <ele>0</ele>
        <time>2019-03-16T18:59:34Z</time>
      </trkpt>
      <trkpt lat="33.715599998831749" lon="-7.334570037201047">
        <ele>0</ele>
        <time>2019-03-16T18:59:51Z</time>
      </trkpt>
      <trkpt lat="33.716220008209348" lon="-7.333679962903261">
        <ele>0</ele>
        <time>2019-03-16T19:00:07Z</time>
      </trkpt>
      <trkpt lat="33.716879999265075" lon="-7.332680001854897">
        <ele>0</ele>
        <time>2019-03-16T19:00:29Z</time>
      </trkpt>
      <trkpt lat="33.717860011383891" lon="-7.331079980358481">
        <ele>0</ele>
        <time>2019-03-16T19:00:51Z</time>
      </trkpt>
      <trkpt lat="33.719289964064956" lon="-7.328559961169958">
        <ele>0</ele>
        <time>2019-03-16T19:01:03Z</time>
      </trkpt>
      <trkpt lat="33.721040021628141" lon="-7.325030006468296">
        <ele>0</ele>
        <time>2019-03-16T19:01:17Z</time>
      </trkpt>
      <trkpt lat="33.721609991043806" lon="-7.323959972709417">
        <ele>0</ele>
        <time>2019-03-16T19:01:33Z</time>
      </trkpt>
      <trkpt lat="33.722280040383339" lon="-7.322779968380928">
        <ele>0</ele>
        <time>2019-03-16T19:01:46Z</time>
      </trkpt>
      <trkpt lat="33.72340003028512" lon="-7.320909965783358">
        <ele>0</ele>
        <time>2019-03-16T19:01:55Z</time>
      </trkpt>
      <trkpt lat="33.724290020763874" lon="-7.31955997645855">
        <ele>0</ele>
        <time>2019-03-16T19:02:04Z</time>
      </trkpt>
      <trkpt lat="33.725540013983846" lon="-7.31781997717917">
        <ele>0</ele>
        <time>2019-03-16T19:02:14Z</time>
      </trkpt>
      <trkpt lat="33.727299962192774" lon="-7.315549990162253">
        <ele>0</ele>
        <time>2019-03-16T19:02:27Z</time>
      </trkpt>
      <trkpt lat="33.72741999104619" lon="-7.315429961308837">
        <ele>0</ele>
        <time>2019-03-16T19:02:37Z</time>
      </trkpt>
      <trkpt lat="33.727840008214116" lon="-7.314920006319881">
        <ele>0</ele>
        <time>2019-03-16T19:02:47Z</time>
      </trkpt>
      <trkpt lat="33.729749992489815" lon="-7.312699975445867">
        <ele>0</ele>
        <time>2019-03-16T19:02:58Z</time>
      </trkpt>
      <trkpt lat="33.736849967390299" lon="-7.30464999563992">
        <ele>0</ele>
        <time>2019-03-16T19:03:09Z</time>
      </trkpt>
      <trkpt lat="33.738300036638975" lon="-7.302960036322475">
        <ele>0</ele>
        <time>2019-03-16T19:03:19Z</time>
      </trkpt>
      <trkpt lat="33.739290023222566" lon="-7.301759999245405">
        <ele>0</ele>
        <time>2019-03-16T19:03:29Z</time>
      </trkpt>
      <trkpt lat="33.7410600297153" lon="-7.299520019441843">
        <ele>0</ele>
        <time>2019-03-16T19:03:40Z</time>
      </trkpt>
      <trkpt lat="33.742680000141263" lon="-7.297399984672666">
        <ele>0</ele>
        <time>2019-03-16T19:03:49Z</time>
      </trkpt>
      <trkpt lat="33.744020015001297" lon="-7.295559989288449">
        <ele>0</ele>
        <time>2019-03-16T19:04:07Z</time>
      </trkpt>
      <trkpt lat="33.746280027553439" lon="-7.29223002679646">
        <ele>0</ele>
        <time>2019-03-16T19:04:23Z</time>
      </trkpt>
      <trkpt lat="33.748429985716939" lon="-7.288809958845377">
        <ele>0</ele>
        <time>2019-03-16T19:04:36Z</time>
      </trkpt>
      <trkpt lat="33.749049995094538" lon="-7.287730034440756">
        <ele>0</ele>
        <time>2019-03-16T19:04:53Z</time>
      </trkpt>
      <trkpt lat="33.749149991199374" lon="-7.287579998373985">
        <ele>0</ele>
        <time>2019-03-16T19:05:04Z</time>
      </trkpt>
      <trkpt lat="33.750480031594634" lon="-7.285259971395135">
        <ele>0</ele>
        <time>2019-03-16T19:05:15Z</time>
      </trkpt>
      <trkpt lat="33.752590008080006" lon="-7.281300025060773">
        <ele>0</ele>
        <time>2019-03-16T19:05:28Z</time>
      </trkpt>
      <trkpt lat="33.753740005195141" lon="-7.278940016403794">
        <ele>0</ele>
        <time>2019-03-16T19:05:40Z</time>
      </trkpt>
      <trkpt lat="33.754959991201758" lon="-7.276350008323789">
        <ele>0</ele>
        <time>2019-03-16T19:05:52Z</time>
      </trkpt>
      <trkpt lat="33.755879988893867" lon="-7.274229973554611">
        <ele>0</ele>
        <time>2019-03-16T19:06:16Z</time>
      </trkpt>
      <trkpt lat="33.755889963358641" lon="-7.274219999089837">
        <ele>0</ele>
        <time>2019-03-16T19:06:28Z</time>
      </trkpt>
      <trkpt lat="33.75663997605443" lon="-7.272440018132329">
        <ele>0</ele>
        <time>2019-03-16T19:06:40Z</time>
      </trkpt>
      <trkpt lat="33.757450003176928" lon="-7.270430037751794">
        <ele>0</ele>
        <time>2019-03-16T19:06:51Z</time>
      </trkpt>
      <trkpt lat="33.758479971438646" lon="-7.267669960856438">
        <ele>0</ele>
        <time>2019-03-16T19:07:03Z</time>
      </trkpt>
      <trkpt lat="33.758920021355152" lon="-7.266430025920272">
        <ele>0</ele>
        <time>2019-03-16T19:07:21Z</time>
      </trkpt>
      <trkpt lat="33.760200021788478" lon="-7.263039965182543">
        <ele>0</ele>
        <time>2019-03-16T19:07:33Z</time>
      </trkpt>
      <trkpt lat="33.760879961773753" lon="-7.261380013078451">
        <ele>0</ele>
        <time>2019-03-16T19:07:46Z</time>
      </trkpt>
      <trkpt lat="33.761959969997406" lon="-7.259020004421473">
        <ele>0</ele>
        <time>2019-03-16T19:07:56Z</time>
      </trkpt>
      <trkpt lat="33.762990022078156" lon="-7.257019998505712">
        <ele>0</ele>
        <time>2019-03-16T19:08:06Z</time>
      </trkpt>
      <trkpt lat="33.764029964804649" lon="-7.255149995908141">
        <ele>0</ele>
        <time>2019-03-16T19:08:15Z</time>
      </trkpt>
      <trkpt lat="33.765360005199909" lon="-7.252980004996061">
        <ele>0</ele>
        <time>2019-03-16T19:08:30Z</time>
      </trkpt>
      <trkpt lat="33.76854001544416" lon="-7.248039962723851">
        <ele>0</ele>
        <time>2019-03-16T19:08:40Z</time>
      </trkpt>
      <trkpt lat="33.771530007943511" lon="-7.243550028651953">
        <ele>0</ele>
        <time>2019-03-16T19:08:48Z</time>
      </trkpt>
      <trkpt lat="33.771569989621639" lon="-7.243499988690019">
        <ele>0</ele>
        <time>2019-03-16T19:08:57Z</time>
      </trkpt>
      <trkpt lat="33.779200036078691" lon="-7.231759959831834">
        <ele>0</ele>
        <time>2019-03-16T19:09:06Z</time>
      </trkpt>
      <trkpt lat="33.779770005494356" lon="-7.230829987674952">
        <ele>0</ele>
        <time>2019-03-16T19:09:17Z</time>
      </trkpt>
      <trkpt lat="33.78095998428762" lon="-7.228710036724806">
        <ele>0</ele>
        <time>2019-03-16T19:09:26Z</time>
      </trkpt>
      <trkpt lat="33.781879981979728" lon="-7.226970037445426">
        <ele>0</ele>
        <time>2019-03-16T19:09:35Z</time>
      </trkpt>
      <trkpt lat="33.783210022374988" lon="-7.224069982767105">
        <ele>0</ele>
        <time>2019-03-16T19:09:44Z</time>
      </trkpt>
      <trkpt lat="33.783870013430715" lon="-7.222459986805916">
        <ele>0</ele>
        <time>2019-03-16T19:10:06Z</time>
      </trkpt>
      <trkpt lat="33.784669982269406" lon="-7.220269963145256">
        <ele>0</ele>
        <time>2019-03-16T19:10:21Z</time>
      </trkpt>
      <trkpt lat="33.785169962793589" lon="-7.218740014359355">
        <ele>0</ele>
        <time>2019-03-16T19:10:32Z</time>
      </trkpt>
      <trkpt lat="33.794749975204468" lon="-7.187369987368584">
        <ele>0</ele>
        <time>2019-03-16T19:10:44Z</time>
      </trkpt>
      <trkpt lat="33.795179966837168" lon="-7.185829980298877">
        <ele>0</ele>
        <time>2019-03-16T19:10:55Z</time>
      </trkpt>
      <trkpt lat="33.795829983428121" lon="-7.183250030502677">
        <ele>0</ele>
        <time>2019-03-16T19:11:07Z</time>
      </trkpt>
      <trkpt lat="33.796089990064502" lon="-7.182000037282705">
        <ele>0</ele>
        <time>2019-03-16T19:11:17Z</time>
      </trkpt>
      <trkpt lat="33.796259975060821" lon="-7.18128003180027">
        <ele>0</ele>
        <time>2019-03-16T19:11:28Z</time>
      </trkpt>
      <trkpt lat="33.796679992228746" lon="-7.17911004088819">
        <ele>0</ele>
        <time>2019-03-16T19:11:47Z</time>
      </trkpt>
      <trkpt lat="33.796970006078482" lon="-7.177429972216487">
        <ele>0</ele>
        <time>2019-03-16T19:11:59Z</time>
      </trkpt>
      <trkpt lat="33.797669978812337" lon="-7.172769969329238">
        <ele>0</ele>
        <time>2019-03-16T19:12:11Z</time>
      </trkpt>
      <trkpt lat="33.797780033200979" lon="-7.172169992700219">
        <ele>0</ele>
        <time>2019-03-16T19:12:23Z</time>
      </trkpt>
      <trkpt lat="33.797829989343882" lon="-7.171649979427457">
        <ele>0</ele>
        <time>2019-03-16T19:12:35Z</time>
      </trkpt>
      <trkpt lat="33.797829989343882" lon="-7.171619972214103">
        <ele>0</ele>
        <time>2019-03-16T19:12:48Z</time>
      </trkpt>
      <trkpt lat="33.797950018197298" lon="-7.170329997316003">
        <ele>0</ele>
        <time>2019-03-16T19:13:05Z</time>
      </trkpt>
      <trkpt lat="33.798240032047033" lon="-7.168050035834312">
        <ele>0</ele>
        <time>2019-03-16T19:13:28Z</time>
      </trkpt>
      <trkpt lat="33.798489980399609" lon="-7.166450014337897">
        <ele>0</ele>
        <time>2019-03-16T19:13:54Z</time>
      </trkpt>
      <trkpt lat="33.798700030893087" lon="-7.165449969470501">
        <ele>0</ele>
        <time>2019-03-16T19:14:13Z</time>
      </trkpt>
      <trkpt lat="33.798759961500764" lon="-7.165079992264509">
        <ele>0</ele>
        <time>2019-03-16T19:14:30Z</time>
      </trkpt>
      <trkpt lat="33.799019968137145" lon="-7.163850031793118">
        <ele>0</ele>
        <time>2019-03-16T19:14:48Z</time>
      </trkpt>
      <trkpt lat="33.799620028585196" lon="-7.161509972065687">
        <ele>0</ele>
        <time>2019-03-16T19:15:07Z</time>
      </trkpt>
      <trkpt lat="33.80061998963356" lon="-7.15814002789557">
        <ele>0</ele>
        <time>2019-03-16T19:15:22Z</time>
      </trkpt>
      <trkpt lat="33.80104998126626" lon="-7.156849969178438">
        <ele>0</ele>
        <time>2019-03-16T19:15:43Z</time>
      </trkpt>
      <trkpt lat="33.801980037242174" lon="-7.154379989951849">
        <ele>0</ele>
        <time>2019-03-16T19:15:56Z</time>
      </trkpt>
      <trkpt lat="33.802589988335967" lon="-7.152939978986979">
        <ele>0</ele>
        <time>2019-03-16T19:16:09Z</time>
      </trkpt>
      <trkpt lat="33.803479978814721" lon="-7.150980038568378">
        <ele>0</ele>
        <time>2019-03-16T19:16:27Z</time>
      </trkpt>
      <trkpt lat="33.803969984874129" lon="-7.149970019236207">
        <ele>0</ele>
        <time>2019-03-16T19:16:42Z</time>
      </trkpt>
      <trkpt lat="33.805530024692416" lon="-7.147110030055046">
        <ele>0</ele>
        <time>2019-03-16T19:16:56Z</time>
      </trkpt>
      <trkpt lat="33.807449983432889" lon="-7.143970001488924">
        <ele>0</ele>
        <time>2019-03-16T19:17:07Z</time>
      </trkpt>
      <trkpt lat="33.808090025559068" lon="-7.143019996583462">
        <ele>0</ele>
        <time>2019-03-16T19:17:18Z</time>
      </trkpt>
      <trkpt lat="33.808309966698289" lon="-7.14262998662889">
        <ele>0</ele>
        <time>2019-03-16T19:17:29Z</time>
      </trkpt>
      <trkpt lat="33.814660012722015" lon="-7.132570026442409">
        <ele>0</ele>
        <time>2019-03-16T19:17:44Z</time>
      </trkpt>
      <trkpt lat="33.815749995410442" lon="-7.130789961665869">
        <ele>0</ele>
        <time>2019-03-16T19:17:56Z</time>
      </trkpt>
      <trkpt lat="33.816070016473532" lon="-7.130219992250204">
        <ele>0</ele>
        <time>2019-03-16T19:18:07Z</time>
      </trkpt>
      <trkpt lat="33.816799996420741" lon="-7.12879003956914">
        <ele>0</ele>
        <time>2019-03-16T19:18:20Z</time>
      </trkpt>
      <trkpt lat="33.817310035228729" lon="-7.127680024132133">
        <ele>0</ele>
        <time>2019-03-16T19:18:38Z</time>
      </trkpt>
      <trkpt lat="33.818059964105487" lon="-7.125650011003017">
        <ele>0</ele>
        <time>2019-03-16T19:18:58Z</time>
      </trkpt>
      <trkpt lat="33.818979961797595" lon="-7.122860010713339">
        <ele>0</ele>
        <time>2019-03-16T19:19:18Z</time>
      </trkpt>
      <trkpt lat="33.820249987766147" lon="-7.11876000277698">
        <ele>0</ele>
        <time>2019-03-16T19:19:39Z</time>
      </trkpt>
      <trkpt lat="33.820609990507364" lon="-7.117679994553328">
        <ele>0</ele>
        <time>2019-03-16T19:19:53Z</time>
      </trkpt>
      <trkpt lat="33.821769962087274" lon="-7.114710034802556">
        <ele>0</ele>
        <time>2019-03-16T19:20:06Z</time>
      </trkpt>
      <trkpt lat="33.82279003970325" lon="-7.112599974498153">
        <ele>0</ele>
        <time>2019-03-16T19:20:19Z</time>
      </trkpt>
      <trkpt lat="33.823230005800724" lon="-7.111790031194687">
        <ele>0</ele>
        <time>2019-03-16T19:20:32Z</time>
      </trkpt>
      <trkpt lat="33.823239980265498" lon="-7.111779972910881">
        <ele>0</ele>
        <time>2019-03-16T19:20:51Z</time>
      </trkpt>
      <trkpt lat="33.823810033500195" lon="-7.110729971900582">
        <ele>0</ele>
        <time>2019-03-16T19:21:09Z</time>
      </trkpt>
      <trkpt lat="33.824370028451085" lon="-7.109760018065572">
        <ele>0</ele>
        <time>2019-03-16T19:21:27Z</time>
      </trkpt>
      <trkpt lat="33.824909990653396" lon="-7.108900034800172">
        <ele>0</ele>
        <time>2019-03-16T19:21:38Z</time>
      </trkpt>
      <trkpt lat="33.82627003826201" lon="-7.106879996135831">
        <ele>0</ele>
        <time>2019-03-16T19:21:51Z</time>
      </trkpt>
      <trkpt lat="33.827820019796491" lon="-7.104689972475171">
        <ele>0</ele>
        <time>2019-03-16T19:22:03Z</time>
      </trkpt>
      <trkpt lat="33.829100020229816" lon="-7.102670017629862">
        <ele>0</ele>
        <time>2019-03-16T19:22:16Z</time>
      </trkpt>
      <trkpt lat="33.829679964110255" lon="-7.101690005511046">
        <ele>0</ele>
        <time>2019-03-16T19:22:29Z</time>
      </trkpt>
      <trkpt lat="33.830190002918243" lon="-7.100779982283711">
        <ele>0</ele>
        <time>2019-03-16T19:22:38Z</time>
      </trkpt>
      <trkpt lat="33.830410027876496" lon="-7.100349990651012">
        <ele>0</ele>
        <time>2019-03-16T19:22:52Z</time>
      </trkpt>
      <trkpt lat="33.830450009554625" lon="-7.100259969010949">
        <ele>0</ele>
        <time>2019-03-16T19:23:07Z</time>
      </trkpt>
      <trkpt lat="33.836239976808429" lon="-7.089889962226152">
        <ele>0</ele>
        <time>2019-03-16T19:23:24Z</time>
      </trkpt>
      <trkpt lat="33.837010022252798" lon="-7.088460009545088">
        <ele>0</ele>
        <time>2019-03-16T19:23:34Z</time>
      </trkpt>
      <trkpt lat="33.838090030476451" lon="-7.086599981412292">
        <ele>0</ele>
        <time>2019-03-16T19:23:46Z</time>
      </trkpt>
      <trkpt lat="33.83869000710547" lon="-7.085640002042055">
        <ele>0</ele>
        <time>2019-03-16T19:23:59Z</time>
      </trkpt>
      <trkpt lat="33.839219994843006" lon="-7.084840033203363">
        <ele>0</ele>
        <time>2019-03-16T19:24:16Z</time>
      </trkpt>
      <trkpt lat="33.839630037546158" lon="-7.084269979968667">
        <ele>0</ele>
        <time>2019-03-16T19:24:31Z</time>
      </trkpt>
      <trkpt lat="33.840239988639951" lon="-7.08347998559475">
        <ele>0</ele>
        <time>2019-03-16T19:24:48Z</time>
      </trkpt>
      <trkpt lat="33.840699987486005" lon="-7.082940023392439">
        <ele>0</ele>
        <time>2019-03-16T19:25:01Z</time>
      </trkpt>
      <trkpt lat="33.841819977387786" lon="-7.08173998631537">
        <ele>0</ele>
        <time>2019-03-16T19:25:14Z</time>
      </trkpt>
      <trkpt lat="33.843110036104918" lon="-7.080469960346818">
        <ele>0</ele>
        <time>2019-03-16T19:25:28Z</time>
      </trkpt>
      <trkpt lat="33.845120016485453" lon="-7.078559976071119">
        <ele>0</ele>
        <time>2019-03-16T19:25:42Z</time>
      </trkpt>
      <trkpt lat="33.846159959211946" lon="-7.077509975060821">
        <ele>0</ele>
        <time>2019-03-16T19:25:56Z</time>
      </trkpt>
      <trkpt lat="33.847129996865988" lon="-7.076449999585748">
        <ele>0</ele>
        <time>2019-03-16T19:26:12Z</time>
      </trkpt>
      <trkpt lat="33.847610028460622" lon="-7.075869971886277">
        <ele>0</ele>
        <time>2019-03-16T19:26:25Z</time>
      </trkpt>
      <trkpt lat="33.847859976813197" lon="-7.075590016320348">
        <ele>0</ele>
        <time>2019-03-16T19:26:47Z</time>
      </trkpt>
      <trkpt lat="33.848440004512668" lon="-7.074789963662624">
        <ele>0</ele>
        <time>2019-03-16T19:27:02Z</time>
      </trkpt>
      <trkpt lat="33.84896001778543" lon="-7.074020002037287">
        <ele>0</ele>
        <time>2019-03-16T19:27:19Z</time>
      </trkpt>
      <trkpt lat="33.849409958347678" lon="-7.073299996554852">
        <ele>0</ele>
        <time>2019-03-16T19:27:39Z</time>
      </trkpt>
      <trkpt lat="33.849810026586056" lon="-7.072600023820996">
        <ele>0</ele>
        <time>2019-03-16T19:27:52Z</time>
      </trkpt>
      <trkpt lat="33.850660035386682" lon="-7.070849966257811">
        <ele>0</ele>
        <time>2019-03-16T19:28:04Z</time>
      </trkpt>
      <trkpt lat="33.850900009274483" lon="-7.07028997130692">
        <ele>0</ele>
        <time>2019-03-16T19:28:16Z</time>
      </trkpt>
      <trkpt lat="33.851290019229054" lon="-7.069269977509975">
        <ele>0</ele>
        <time>2019-03-16T19:28:28Z</time>
      </trkpt>
      <trkpt lat="33.851480036973953" lon="-7.068720040842891">
        <ele>0</ele>
        <time>2019-03-16T19:28:44Z</time>
      </trkpt>
      <trkpt lat="33.851780025288463" lon="-7.067770035937429">
        <ele>0</ele>
        <time>2019-03-16T19:29:01Z</time>
      </trkpt>
      <trkpt lat="33.852159976959229" lon="-7.066230028867722">
        <ele>0</ele>
        <time>2019-03-16T19:29:19Z</time>
      </trkpt>
      <trkpt lat="33.852329961955547" lon="-7.065450008958578">
        <ele>0</ele>
        <time>2019-03-16T19:29:36Z</time>
      </trkpt>
      <trkpt lat="33.852600026875734" lon="-7.063940009102225">
        <ele>0</ele>
        <time>2019-03-16T19:29:54Z</time>
      </trkpt>
      <trkpt lat="33.854940002784133" lon="-7.048649992793798">
        <ele>0</ele>
        <time>2019-03-16T19:30:07Z</time>
      </trkpt>
      <trkpt lat="33.855160027742386" lon="-7.047339985147119">
        <ele>0</ele>
        <time>2019-03-16T19:30:20Z</time>
      </trkpt>
      <trkpt lat="33.855630001053214" lon="-7.044830024242401">
        <ele>0</ele>
        <time>2019-03-16T19:30:31Z</time>
      </trkpt>
      <trkpt lat="33.856169963255525" lon="-7.042460041120648">
        <ele>0</ele>
        <time>2019-03-16T19:30:44Z</time>
      </trkpt>
      <trkpt lat="33.85645997710526" lon="-7.041280036792159">
        <ele>0</ele>
        <time>2019-03-16T19:31:05Z</time>
      </trkpt>
      <trkpt lat="33.856779998168349" lon="-7.040159963071346">
        <ele>0</ele>
        <time>2019-03-16T19:31:20Z</time>
      </trkpt>
      <trkpt lat="33.856849987059832" lon="-7.039959970861673">
        <ele>0</ele>
        <time>2019-03-16T19:31:40Z</time>
      </trkpt>
      <trkpt lat="33.857599999755621" lon="-7.037510024383664">
        <ele>0</ele>
        <time>2019-03-16T19:31:56Z</time>
      </trkpt>
      <trkpt lat="33.858050024136901" lon="-7.036130027845502">
        <ele>0</ele>
        <time>2019-03-16T19:32:06Z</time>
      </trkpt>
      <trkpt lat="33.858619993552566" lon="-7.034560013562441">
        <ele>0</ele>
        <time>2019-03-16T19:32:14Z</time>
      </trkpt>
      <trkpt lat="33.858619993552566" lon="-7.034550039097667">
        <ele>0</ele>
        <time>2019-03-16T19:32:22Z</time>
      </trkpt>
      <trkpt lat="33.859339999035001" lon="-7.032729992642999">
        <ele>0</ele>
        <time>2019-03-16T19:32:30Z</time>
      </trkpt>
      <trkpt lat="33.860280029475689" lon="-7.030650023370981">
        <ele>0</ele>
        <time>2019-03-16T19:32:38Z</time>
      </trkpt>
      <trkpt lat="33.861159961670637" lon="-7.028840035200119">
        <ele>0</ele>
        <time>2019-03-16T19:32:47Z</time>
      </trkpt>
      <trkpt lat="33.861879967153072" lon="-7.027430031448603">
        <ele>0</ele>
        <time>2019-03-16T19:32:55Z</time>
      </trkpt>
      <trkpt lat="33.862640038132668" lon="-7.02605003491044">
        <ele>0</ele>
        <time>2019-03-16T19:33:03Z</time>
      </trkpt>
      <trkpt lat="33.863879973068833" lon="-7.023939974606037">
        <ele>0</ele>
        <time>2019-03-16T19:33:12Z</time>
      </trkpt>
      <trkpt lat="33.864759989082813" lon="-7.022580010816455">
        <ele>0</ele>
        <time>2019-03-16T19:33:24Z</time>
      </trkpt>
      <trkpt lat="33.865990033373237" lon="-7.020819978788495">
        <ele>0</ele>
        <time>2019-03-16T19:33:35Z</time>
      </trkpt>
      <trkpt lat="33.867129972204566" lon="-7.019249964505434">
        <ele>0</ele>
        <time>2019-03-16T19:33:55Z</time>
      </trkpt>
      <trkpt lat="33.868760000914335" lon="-7.017209976911545">
        <ele>0</ele>
        <time>2019-03-16T19:34:10Z</time>
      </trkpt>
      <trkpt lat="33.869310021400452" lon="-7.016549985855818">
        <ele>0</ele>
        <time>2019-03-16T19:34:24Z</time>
      </trkpt>
      <trkpt lat="33.87036002241075" lon="-7.015409963205457">
        <ele>0</ele>
        <time>2019-03-16T19:34:40Z</time>
      </trkpt>
      <trkpt lat="33.872290039435029" lon="-7.013390008360148">
        <ele>0</ele>
        <time>2019-03-16T19:34:50Z</time>
      </trkpt>
      <trkpt lat="33.872419958934188" lon="-7.013229997828603">
        <ele>0</ele>
        <time>2019-03-16T19:35:00Z</time>
      </trkpt>
      <trkpt lat="33.874110002070665" lon="-7.011550012975931">
        <ele>0</ele>
        <time>2019-03-16T19:35:18Z</time>
      </trkpt>
      <trkpt lat="33.874530019238591" lon="-7.011080039665103">
        <ele>0</ele>
        <time>2019-03-16T19:35:31Z</time>
      </trkpt>
      <trkpt lat="33.874809974804521" lon="-7.010660022497177">
        <ele>0</ele>
        <time>2019-03-16T19:35:42Z</time>
      </trkpt>
      <trkpt lat="33.874990018084645" lon="-7.010289961472154">
        <ele>0</ele>
        <time>2019-03-16T19:35:59Z</time>
      </trkpt>
      <trkpt lat="33.875169977545738" lon="-7.009770032018423">
        <ele>0</ele>
        <time>2019-03-16T19:36:19Z</time>
      </trkpt>
      <trkpt lat="33.875280031934381" lon="-7.009239960461855">
        <ele>0</ele>
        <time>2019-03-16T19:36:30Z</time>
      </trkpt>
      <trkpt lat="33.875329988077283" lon="-7.008660016581416">
        <ele>0</ele>
        <time>2019-03-16T19:36:42Z</time>
      </trkpt>
      <trkpt lat="33.875310039147735" lon="-7.008060039952397">
        <ele>0</ele>
        <time>2019-03-16T19:36:55Z</time>
      </trkpt>
      <trkpt lat="33.875209959223866" lon="-7.007510019466281">
        <ele>0</ele>
        <time>2019-03-16T19:37:19Z</time>
      </trkpt>
      <trkpt lat="33.875029999762774" lon="-7.006969973444939">
        <ele>0</ele>
        <time>2019-03-16T19:37:41Z</time>
      </trkpt>
      <trkpt lat="33.874790025874972" lon="-7.006530007347465">
        <ele>0</ele>
        <time>2019-03-16T19:38:04Z</time>
      </trkpt>
      <trkpt lat="33.874539993703365" lon="-7.006109990179539">
        <ele>0</ele>
        <time>2019-03-16T19:38:23Z</time>
      </trkpt>
      <trkpt lat="33.873650003224611" lon="-7.005089996382594">
        <ele>0</ele>
        <time>2019-03-16T19:38:38Z</time>
      </trkpt>
      <trkpt lat="33.87336996383965" lon="-7.004739968106151">
        <ele>0</ele>
        <time>2019-03-16T19:38:50Z</time>
      </trkpt>
      <trkpt lat="33.872189959511161" lon="-7.003459967672825">
        <ele>0</ele>
        <time>2019-03-16T19:39:03Z</time>
      </trkpt>
      <trkpt lat="33.869340028613806" lon="-6.999920038506389">
        <ele>0</ele>
        <time>2019-03-16T19:39:14Z</time>
      </trkpt>
      <trkpt lat="33.868790008127689" lon="-6.999149993062019">
        <ele>0</ele>
        <time>2019-03-16T19:39:21Z</time>
      </trkpt>
      <trkpt lat="33.868339983746409" lon="-6.998480027541518">
        <ele>0</ele>
        <time>2019-03-16T19:39:33Z</time>
      </trkpt>
      <trkpt lat="33.867280008271337" lon="-6.996699962764978">
        <ele>0</ele>
        <time>2019-03-16T19:39:48Z</time>
      </trkpt>
      <trkpt lat="33.866239981725812" lon="-6.994819985702634">
        <ele>0</ele>
        <time>2019-03-16T19:39:56Z</time>
      </trkpt>
      <trkpt lat="33.865189980715513" lon="-6.992600038647652">
        <ele>0</ele>
        <time>2019-03-16T19:39:57Z</time>
      </trkpt>
      <trkpt lat="33.862209962680936" lon="-6.985179958865047">
        <ele>0</ele>
        <time>2019-03-16T19:40:04Z</time>
      </trkpt>
      <trkpt lat="33.861110005527735" lon="-6.982230031862855">
        <ele>0</ele>
        <time>2019-03-16T19:40:12Z</time>
      </trkpt>
      <trkpt lat="33.860759977251291" lon="-6.98119000531733">
        <ele>0</ele>
        <time>2019-03-16T19:40:23Z</time>
      </trkpt>
      <trkpt lat="33.860510028898716" lon="-6.980209993198514">
        <ele>0</ele>
        <time>2019-03-16T19:40:31Z</time>
      </trkpt>
      <trkpt lat="33.860290003940463" lon="-6.979169966652989">
        <ele>0</ele>
        <time>2019-03-16T19:40:42Z</time>
      </trkpt>
      <trkpt lat="33.860139967873693" lon="-6.978339990600944">
        <ele>0</ele>
        <time>2019-03-16T19:40:45Z</time>
      </trkpt>
      <trkpt lat="33.860029997304082" lon="-6.977229975163937">
        <ele>0</ele>
        <time>2019-03-16T19:40:46Z</time>
      </trkpt>
      <trkpt lat="33.859990015625954" lon="-6.976420031860471">
        <ele>0</ele>
        <time>2019-03-16T19:40:49Z</time>
      </trkpt>
      <trkpt lat="33.859999990090728" lon="-6.975549990311265">
        <ele>0</ele>
        <time>2019-03-16T19:40:50Z</time>
      </trkpt>
      <trkpt lat="33.860050030052662" lon="-6.974430000409484">
        <ele>0</ele>
        <time>2019-03-16T19:40:51Z</time>
      </trkpt>
      <trkpt lat="33.860129993408918" lon="-6.97351997718215">
        <ele>0</ele>
        <time>2019-03-16T19:40:52Z</time>
      </trkpt>
      <trkpt lat="33.860320011153817" lon="-6.972369980067015">
        <ele>0</ele>
        <time>2019-03-16T19:40:53Z</time>
      </trkpt>
      <trkpt lat="33.86054003611207" lon="-6.971330037340522">
        <ele>0</ele>
        <time>2019-03-16T19:40:54Z</time>
      </trkpt>
      <trkpt lat="33.860819991677999" lon="-6.970290010794997">
        <ele>0</ele>
        <time>2019-03-16T19:40:55Z</time>
      </trkpt>
      <trkpt lat="33.861179994419217" lon="-6.969249984249473">
        <ele>0</ele>
        <time>2019-03-16T19:41:04Z</time>
      </trkpt>
      <trkpt lat="33.861560029909015" lon="-6.968290004879236">
        <ele>0</ele>
        <time>2019-03-16T19:41:05Z</time>
      </trkpt>
      <trkpt lat="33.861930007115006" lon="-6.967479977756739">
        <ele>0</ele>
        <time>2019-03-16T19:41:14Z</time>
      </trkpt>
      <trkpt lat="33.862859979271889" lon="-6.965620033442974">
        <ele>0</ele>
        <time>2019-03-16T19:41:28Z</time>
      </trkpt>
      <trkpt lat="33.863349985331297" lon="-6.964489985257387">
        <ele>0</ele>
        <time>2019-03-16T19:41:40Z</time>
      </trkpt>
      <trkpt lat="33.86357001028955" lon="-6.963880034163594">
        <ele>0</ele>
        <time>2019-03-16T19:41:55Z</time>
      </trkpt>
      <trkpt lat="33.863770002499223" lon="-6.963209984824061">
        <ele>0</ele>
        <time>2019-03-16T19:42:10Z</time>
      </trkpt>
      <trkpt lat="33.863949961960316" lon="-6.962459972128272">
        <ele>0</ele>
        <time>2019-03-16T19:42:26Z</time>
      </trkpt>
      <trkpt lat="33.864079965278506" lon="-6.961699984967709">
        <ele>0</ele>
        <time>2019-03-16T19:42:42Z</time>
      </trkpt>
      <trkpt lat="33.864160012453794" lon="-6.960949972271919">
        <ele>0</ele>
        <time>2019-03-16T19:42:52Z</time>
      </trkpt>
      <trkpt lat="33.864199994131923" lon="-6.960189985111356">
        <ele>0</ele>
        <time>2019-03-16T19:43:01Z</time>
      </trkpt>
      <trkpt lat="33.864199994131923" lon="-6.959199998527765">
        <ele>0</ele>
        <time>2019-03-16T19:43:10Z</time>
      </trkpt>
      <trkpt lat="33.864169986918569" lon="-6.958400029689074">
        <ele>0</ele>
        <time>2019-03-16T19:43:17Z</time>
      </trkpt>
      <trkpt lat="33.864099998027086" lon="-6.95759997703135">
        <ele>0</ele>
        <time>2019-03-16T19:43:28Z</time>
      </trkpt>
      <trkpt lat="33.863949961960316" lon="-6.95671996101737">
        <ele>0</ele>
        <time>2019-03-16T19:43:42Z</time>
      </trkpt>
      <trkpt lat="33.863739995285869" lon="-6.955780014395714">
        <ele>0</ele>
        <time>2019-03-16T19:43:54Z</time>
      </trkpt>
      <trkpt lat="33.863489963114262" lon="-6.95497996173799">
        <ele>0</ele>
        <time>2019-03-16T19:44:08Z</time>
      </trkpt>
      <trkpt lat="33.863059971481562" lon="-6.953789982944727">
        <ele>0</ele>
        <time>2019-03-16T19:44:20Z</time>
      </trkpt>
      <trkpt lat="33.862459994852543" lon="-6.952360030263662">
        <ele>0</ele>
        <time>2019-03-16T19:44:34Z</time>
      </trkpt>
      <trkpt lat="33.862439962103963" lon="-6.952339997515082">
        <ele>0</ele>
        <time>2019-03-16T19:44:45Z</time>
      </trkpt>
      <trkpt lat="33.861899999901652" lon="-6.951180025935173">
        <ele>0</ele>
        <time>2019-03-16T19:44:55Z</time>
      </trkpt>
      <trkpt lat="33.861430026590824" lon="-6.950070010498166">
        <ele>0</ele>
        <time>2019-03-16T19:45:04Z</time>
      </trkpt>
      <trkpt lat="33.861309997737408" lon="-6.949830036610365">
        <ele>0</ele>
        <time>2019-03-16T19:45:19Z</time>
      </trkpt>
      <trkpt lat="33.86009001173079" lon="-6.947099966928363">
        <ele>0</ele>
        <time>2019-03-16T19:45:30Z</time>
      </trkpt>
      <trkpt lat="33.85923002846539" lon="-6.945319985970855">
        <ele>0</ele>
        <time>2019-03-16T19:45:41Z</time>
      </trkpt>
      <trkpt lat="33.8582400418818" lon="-6.943049998953939">
        <ele>0</ele>
        <time>2019-03-16T19:45:56Z</time>
      </trkpt>
      <trkpt lat="33.857500003650784" lon="-6.941430028527975">
        <ele>0</ele>
        <time>2019-03-16T19:46:08Z</time>
      </trkpt>
      <trkpt lat="33.85704000480473" lon="-6.940359994769096">
        <ele>0</ele>
        <time>2019-03-16T19:46:18Z</time>
      </trkpt>
      <trkpt lat="33.856970015913248" lon="-6.940169977024198">
        <ele>0</ele>
        <time>2019-03-16T19:46:28Z</time>
      </trkpt>
      <trkpt lat="33.856779998168349" lon="-6.939730010926724">
        <ele>0</ele>
        <time>2019-03-16T19:46:38Z</time>
      </trkpt>
      <trkpt lat="33.855860000476241" lon="-6.937000025063753">
        <ele>0</ele>
        <time>2019-03-16T19:46:45Z</time>
      </trkpt>
      <trkpt lat="33.855560012161732" lon="-6.935839969664812">
        <ele>0</ele>
        <time>2019-03-16T19:46:59Z</time>
      </trkpt>
      <trkpt lat="33.855279972776771" lon="-6.934580001980066">
        <ele>0</ele>
        <time>2019-03-16T19:47:19Z</time>
      </trkpt>
      <trkpt lat="33.855030024424195" lon="-6.933249961584806">
        <ele>0</ele>
        <time>2019-03-16T19:47:31Z</time>
      </trkpt>
      <trkpt lat="33.854860039427876" lon="-6.932089990004897">
        <ele>0</ele>
        <time>2019-03-16T19:47:43Z</time>
      </trkpt>
      <trkpt lat="33.854559967294335" lon="-6.930359965190291">
        <ele>0</ele>
        <time>2019-03-16T19:47:54Z</time>
      </trkpt>
      <trkpt lat="33.854319993406534" lon="-6.929160011932254">
        <ele>0</ele>
        <time>2019-03-16T19:48:04Z</time>
      </trkpt>
      <trkpt lat="33.854010030627251" lon="-6.927940025925636">
        <ele>0</ele>
        <time>2019-03-16T19:48:14Z</time>
      </trkpt>
      <trkpt lat="33.853190029039979" lon="-6.925759976729751">
        <ele>0</ele>
        <time>2019-03-16T19:48:26Z</time>
      </trkpt>
      <trkpt lat="33.852800019085407" lon="-6.924860011786223">
        <ele>0</ele>
        <time>2019-03-16T19:48:35Z</time>
      </trkpt>
      <trkpt lat="33.852219991385937" lon="-6.92378000356257">
        <ele>0</ele>
        <time>2019-03-16T19:48:46Z</time>
      </trkpt>
      <trkpt lat="33.851439971476793" lon="-6.922520035877824">
        <ele>0</ele>
        <time>2019-03-16T19:49:00Z</time>
      </trkpt>
      <trkpt lat="33.850870002061129" lon="-6.92174001596868">
        <ele>0</ele>
        <time>2019-03-16T19:49:13Z</time>
      </trkpt>
      <trkpt lat="33.850749973207712" lon="-6.921559972688556">
        <ele>0</ele>
        <time>2019-03-16T19:49:21Z</time>
      </trkpt>
      <trkpt lat="33.849420016631484" lon="-6.919740010052919">
        <ele>0</ele>
        <time>2019-03-16T19:49:30Z</time>
      </trkpt>
      <trkpt lat="33.848790032789111" lon="-6.918780030682683">
        <ele>0</ele>
        <time>2019-03-16T19:49:42Z</time>
      </trkpt>
      <trkpt lat="33.848549975082278" lon="-6.918360013514757">
        <ele>0</ele>
        <time>2019-03-16T19:49:49Z</time>
      </trkpt>
      <trkpt lat="33.847899958491325" lon="-6.917010024189949">
        <ele>0</ele>
        <time>2019-03-16T19:49:52Z</time>
      </trkpt>
      <trkpt lat="33.847559988498688" lon="-6.916190022602677">
        <ele>0</ele>
        <time>2019-03-16T19:49:53Z</time>
      </trkpt>
      <trkpt lat="33.847280032932758" lon="-6.915449984371662">
        <ele>0</ele>
        <time>2019-03-16T19:50:01Z</time>
      </trkpt>
      <trkpt lat="33.847039975225925" lon="-6.91465001553297">
        <ele>0</ele>
        <time>2019-03-16T19:50:12Z</time>
      </trkpt>
      <trkpt lat="33.846869990229607" lon="-6.913999998942018">
        <ele>0</ele>
        <time>2019-03-16T19:50:26Z</time>
      </trkpt>
      <trkpt lat="33.846690030768514" lon="-6.913219979032874">
        <ele>0</ele>
        <time>2019-03-16T19:50:37Z</time>
      </trkpt>
      <trkpt lat="33.846560027450323" lon="-6.912480024620891">
        <ele>0</ele>
        <time>2019-03-16T19:50:53Z</time>
      </trkpt>
      <trkpt lat="33.846460031345487" lon="-6.911800000816584">
        <ele>0</ele>
        <time>2019-03-16T19:51:01Z</time>
      </trkpt>
      <trkpt lat="33.84634000249207" lon="-6.910329982638359">
        <ele>0</ele>
        <time>2019-03-16T19:51:07Z</time>
      </trkpt>
      <trkpt lat="33.846240006387234" lon="-6.899469969794154">
        <ele>0</ele>
        <time>2019-03-16T19:51:15Z</time>
      </trkpt>
      <trkpt lat="33.846179991960526" lon="-6.89844997599721">
        <ele>0</ele>
        <time>2019-03-16T19:51:27Z</time>
      </trkpt>
      <trkpt lat="33.846049988642335" lon="-6.897239964455366">
        <ele>0</ele>
        <time>2019-03-16T19:51:39Z</time>
      </trkpt>
      <trkpt lat="33.845659978687763" lon="-6.895320005714893">
        <ele>0</ele>
        <time>2019-03-16T19:51:58Z</time>
      </trkpt>
      <trkpt lat="33.845429979264736" lon="-6.894360026344657">
        <ele>0</ele>
        <time>2019-03-16T19:52:04Z</time>
      </trkpt>
      <trkpt lat="33.845069976523519" lon="-6.893189996480942">
        <ele>0</ele>
        <time>2019-03-16T19:52:06Z</time>
      </trkpt>
      <trkpt lat="33.844639984890819" lon="-6.892000017687678">
        <ele>0</ele>
        <time>2019-03-16T19:52:07Z</time>
      </trkpt>
      <trkpt lat="33.844419959932566" lon="-6.891459971666336">
        <ele>0</ele>
        <time>2019-03-16T19:52:08Z</time>
      </trkpt>
      <trkpt lat="33.844079989939928" lon="-6.890720017254353">
        <ele>0</ele>
        <time>2019-03-16T19:52:09Z</time>
      </trkpt>
      <trkpt lat="33.843700038269162" lon="-6.889960030093789">
        <ele>0</ele>
        <time>2019-03-16T19:52:10Z</time>
      </trkpt>
      <trkpt lat="33.843229981139302" lon="-6.889129970222712">
        <ele>0</ele>
        <time>2019-03-16T19:52:18Z</time>
      </trkpt>
      <trkpt lat="33.842869978398085" lon="-6.888550026342273">
        <ele>0</ele>
        <time>2019-03-16T19:52:31Z</time>
      </trkpt>
      <trkpt lat="33.841340029612184" lon="-6.886339969933033">
        <ele>0</ele>
        <time>2019-03-16T19:52:40Z</time>
      </trkpt>
      <trkpt lat="33.840390024706721" lon="-6.88482997007668">
        <ele>0</ele>
        <time>2019-03-16T19:52:47Z</time>
      </trkpt>
      <trkpt lat="33.840179974213243" lon="-6.88439997844398">
        <ele>0</ele>
        <time>2019-03-16T19:52:48Z</time>
      </trkpt>
      <trkpt lat="33.839849978685379" lon="-6.883790027350187">
        <ele>0</ele>
        <time>2019-03-16T19:52:49Z</time>
      </trkpt>
      <trkpt lat="33.839470027014613" lon="-6.882900036871433">
        <ele>0</ele>
        <time>2019-03-16T19:52:51Z</time>
      </trkpt>
      <trkpt lat="33.839089991524816" lon="-6.881890017539263">
        <ele>0</ele>
        <time>2019-03-16T19:52:52Z</time>
      </trkpt>
      <trkpt lat="33.838520022109151" lon="-6.879980033263564">
        <ele>0</ele>
        <time>2019-03-16T19:53:04Z</time>
      </trkpt>
      <trkpt lat="33.838339978829026" lon="-6.879170006141067">
        <ele>0</ele>
        <time>2019-03-16T19:53:15Z</time>
      </trkpt>
      <trkpt lat="33.838169993832707" lon="-6.878310022875667">
        <ele>0</ele>
        <time>2019-03-16T19:53:28Z</time>
      </trkpt>
      <trkpt lat="33.838049964979291" lon="-6.877469988539815">
        <ele>0</ele>
        <time>2019-03-16T19:53:41Z</time>
      </trkpt>
      <trkpt lat="33.837949968874454" lon="-6.875490015372634">
        <ele>0</ele>
        <time>2019-03-16T19:53:56Z</time>
      </trkpt>
      <trkpt lat="33.83796002715826" lon="-6.874449988827109">
        <ele>0</ele>
        <time>2019-03-16T19:54:03Z</time>
      </trkpt>
      <trkpt lat="33.838020041584969" lon="-6.873529991135001">
        <ele>0</ele>
        <time>2019-03-16T19:54:12Z</time>
      </trkpt>
      <trkpt lat="33.838220033794641" lon="-6.871840031817555">
        <ele>0</ele>
        <time>2019-03-16T19:54:15Z</time>
      </trkpt>
      <trkpt lat="33.840249963104725" lon="-6.858350029215217">
        <ele>0</ele>
        <time>2019-03-16T19:54:16Z</time>
      </trkpt>
      <trkpt lat="33.840899979695678" lon="-6.854450013488531">
        <ele>0</ele>
        <time>2019-03-16T19:54:17Z</time>
      </trkpt>
      <trkpt lat="33.841189993545413" lon="-6.853119973093271">
        <ele>0</ele>
        <time>2019-03-16T19:54:25Z</time>
      </trkpt>
      <trkpt lat="33.841640017926693" lon="-6.851349966600537">
        <ele>0</ele>
        <time>2019-03-16T19:54:33Z</time>
      </trkpt>
      <trkpt lat="33.842190038412809" lon="-6.849509971216321">
        <ele>0</ele>
        <time>2019-03-16T19:54:40Z</time>
      </trkpt>
      <trkpt lat="33.842590022832155" lon="-6.848359974101186">
        <ele>0</ele>
        <time>2019-03-16T19:54:57Z</time>
      </trkpt>
      <trkpt lat="33.847669959068298" lon="-6.83468003757298">
        <ele>0</ele>
        <time>2019-03-16T19:55:07Z</time>
      </trkpt>
      <trkpt lat="33.848210005089641" lon="-6.833489974960685">
        <ele>0</ele>
        <time>2019-03-16T19:55:08Z</time>
      </trkpt>
      <trkpt lat="33.848779974505305" lon="-6.832120036706328">
        <ele>0</ele>
        <time>2019-03-16T19:55:09Z</time>
      </trkpt>
      <trkpt lat="33.850040026009083" lon="-6.829860024154186">
        <ele>0</ele>
        <time>2019-03-16T19:55:10Z</time>
      </trkpt>
      <trkpt lat="33.851480036973953" lon="-6.827830011025071">
        <ele>0</ele>
        <time>2019-03-16T19:55:11Z</time>
      </trkpt>
      <trkpt lat="33.85370995849371" lon="-6.825160039588809">
        <ele>0</ele>
        <time>2019-03-16T19:55:12Z</time>
      </trkpt>
      <trkpt lat="33.85648000985384" lon="-6.821939963847399">
        <ele>0</ele>
        <time>2019-03-16T19:55:13Z</time>
      </trkpt>
      <trkpt lat="33.858110038563609" lon="-6.819859994575381">
        <ele>0</ele>
        <time>2019-03-16T19:55:14Z</time>
      </trkpt>
      <trkpt lat="33.858529971912503" lon="-6.819350039586425">
        <ele>0</ele>
        <time>2019-03-16T19:55:15Z</time>
      </trkpt>
      <trkpt lat="33.859779965132475" lon="-6.817639963701367">
        <ele>0</ele>
        <time>2019-03-16T19:55:16Z</time>
      </trkpt>
      <trkpt lat="33.859860012307763" lon="-6.817520018666983">
        <ele>0</ele>
        <time>2019-03-16T19:55:27Z</time>
      </trkpt>
      <trkpt lat="33.861000034958124" lon="-6.815970037132502">
        <ele>0</ele>
        <time>2019-03-16T19:55:40Z</time>
      </trkpt>
      <trkpt lat="33.863649973645806" lon="-6.812219973653555">
        <ele>0</ele>
        <time>2019-03-16T19:55:50Z</time>
      </trkpt>
      <trkpt lat="33.866790002211928" lon="-6.807640017941594">
        <ele>0</ele>
        <time>2019-03-16T19:56:00Z</time>
      </trkpt>
      <trkpt lat="33.867990039288998" lon="-6.805960033088923">
        <ele>0</ele>
        <time>2019-03-16T19:56:11Z</time>
      </trkpt>
      <trkpt lat="33.870669985190034" lon="-6.802090024575591">
        <ele>0</ele>
        <time>2019-03-16T19:56:19Z</time>
      </trkpt>
      <trkpt lat="33.871610015630722" lon="-6.800850005820394">
        <ele>0</ele>
        <time>2019-03-16T19:56:34Z</time>
      </trkpt>
      <trkpt lat="33.872349970042706" lon="-6.79996001534164">
        <ele>0</ele>
        <time>2019-03-16T19:56:37Z</time>
      </trkpt>
      <trkpt lat="33.87338999658823" lon="-6.798840025439858">
        <ele>0</ele>
        <time>2019-03-16T19:56:38Z</time>
      </trkpt>
      <trkpt lat="33.87427001260221" lon="-6.798020023852587">
        <ele>0</ele>
        <time>2019-03-16T19:56:39Z</time>
      </trkpt>
      <trkpt lat="33.875220017507672" lon="-6.797200022265315">
        <ele>0</ele>
        <time>2019-03-16T19:56:40Z</time>
      </trkpt>
      <trkpt lat="33.875880008563399" lon="-6.796710016205907">
        <ele>0</ele>
      </trkpt>
      <trkpt lat="33.877109969034791" lon="-6.795839974656701">
        <ele>0</ele>
      </trkpt>
      <trkpt lat="33.878140021115541" lon="-6.795200016349554">
        <ele>0</ele>
      </trkpt>
      <trkpt lat="33.879439970478415" lon="-6.794529967010021">
        <ele>0</ele>
      </trkpt>
      <trkpt lat="33.882719976827502" lon="-6.793170003220439">
        <ele>0</ele>
      </trkpt>
      <trkpt lat="33.889660025015473" lon="-6.790440017357469">
        <ele>0</ele>
      </trkpt>
      <trkpt lat="33.892450025305152" lon="-6.78939001634717">
        <ele>0</ele>
      </trkpt>
      <trkpt lat="33.893890036270022" lon="-6.788779981434345">
        <ele>0</ele>
      </trkpt>
      <trkpt lat="33.89551998116076" lon="-6.787929972633719">
        <ele>0</ele>
      </trkpt>
      <trkpt lat="33.89639999717474" lon="-6.787399984896183">
        <ele>0</ele>
      </trkpt>
      <trkpt lat="33.89728001318872" lon="-6.786830015480518">
        <ele>0</ele>
      </trkpt>
      <trkpt lat="33.89899997971952" lon="-6.785550015047193">
        <ele>0</ele>
      </trkpt>
      <trkpt lat="33.899930035695434" lon="-6.784760020673275">
        <ele>0</ele>
      </trkpt>
      <trkpt lat="33.901480017229915" lon="-6.783369965851307">
        <ele>0</ele>
      </trkpt>
      <trkpt lat="33.902509985491633" lon="-6.782240001484752">
        <ele>0</ele>
      </trkpt>
      <trkpt lat="33.903359994292259" lon="-6.781459981575608">
        <ele>0</ele>
      </trkpt>
      <trkpt lat="33.905910020694137" lon="-6.779029984027147">
        <ele>0</ele>
      </trkpt>
      <trkpt lat="33.906890032812953" lon="-6.778209982439876">
        <ele>0</ele>
      </trkpt>
      <trkpt lat="33.907889993861318" lon="-6.777429962530732">
        <ele>0</ele>
      </trkpt>
      <trkpt lat="33.909069998189807" lon="-6.776560004800558">
        <ele>0</ele>
      </trkpt>
      <trkpt lat="33.90985001809895" lon="-6.77606999874115">
        <ele>0</ele>
      </trkpt>
      <trkpt lat="33.911230014637113" lon="-6.775270029902458">
        <ele>0</ele>
      </trkpt>
      <trkpt lat="33.913860004395247" lon="-6.773819960653782">
        <ele>0</ele>
      </trkpt>
      <trkpt lat="33.915040008723736" lon="-6.773119987919927">
        <ele>0</ele>
      </trkpt>
      <trkpt lat="33.915969980880618" lon="-6.772499978542328">
        <ele>0</ele>
      </trkpt>
      <trkpt lat="33.916780008003116" lon="-6.771930009126663">
        <ele>0</ele>
      </trkpt>
      <trkpt lat="33.91764996573329" lon="-6.771189970895648">
        <ele>0</ele>
      </trkpt>
      <trkpt lat="33.918510032817721" lon="-6.770529979839921">
        <ele>0</ele>
      </trkpt>
      <trkpt lat="33.919449979439378" lon="-6.769630014896393">
        <ele>0</ele>
      </trkpt>
      <trkpt lat="33.920269981026649" lon="-6.768740024417639">
        <ele>0</ele>
      </trkpt>
      <trkpt lat="33.923270031809807" lon="-6.76534996367991">
        <ele>0</ele>
      </trkpt>
      <trkpt lat="33.92489000223577" lon="-6.76362999714911">
        <ele>0</ele>
      </trkpt>
      <trkpt lat="33.926339987665415" lon="-6.762300040572882">
        <ele>0</ele>
      </trkpt>
      <trkpt lat="33.927220003679395" lon="-6.761609958484769">
        <ele>0</ele>
      </trkpt>
      <trkpt lat="33.927789973095059" lon="-6.761230006814003">
        <ele>0</ele>
      </trkpt>
      <trkpt lat="33.928319960832596" lon="-6.760930018499494">
        <ele>0</ele>
      </trkpt>
      <trkpt lat="33.928869981318712" lon="-6.760649979114533">
        <ele>0</ele>
      </trkpt>
      <trkpt lat="33.929420001804829" lon="-6.760410005226731">
        <ele>0</ele>
      </trkpt>
      <trkpt lat="33.930230028927326" lon="-6.760089984163642">
        <ele>0</ele>
      </trkpt>
      <trkpt lat="33.931160001084208" lon="-6.759810028597713">
        <ele>0</ele>
      </trkpt>
      <trkpt lat="33.932119980454445" lon="-6.759659992530942">
        <ele>0</ele>
      </trkpt>
      <trkpt lat="33.93270998261869" lon="-6.759629985317588">
        <ele>0</ele>
      </trkpt>
      <trkpt lat="33.933680020272732" lon="-6.759639959782362">
        <ele>0</ele>
      </trkpt>
      <trkpt lat="33.942110035568476" lon="-6.759520014747977">
        <ele>0</ele>
      </trkpt>
      <trkpt lat="33.942830041050911" lon="-6.759480033069849">
        <ele>0</ele>
      </trkpt>
      <trkpt lat="33.943509981036186" lon="-6.759480033069849">
        <ele>0</ele>
      </trkpt>
      <trkpt lat="33.94399001263082" lon="-6.759450025856495">
        <ele>0</ele>
      </trkpt>
      <trkpt lat="33.944529974833131" lon="-6.759339971467853">
        <ele>0</ele>
      </trkpt>
      <trkpt lat="33.945530019700527" lon="-6.759060015901923">
        <ele>0</ele>
      </trkpt>
      <trkpt lat="33.946290006861091" lon="-6.758800009265542">
        <ele>0</ele>
      </trkpt>
      <trkpt lat="33.946989979594946" lon="-6.758540002629161">
        <ele>0</ele>
      </trkpt>
      <trkpt lat="33.947890028357506" lon="-6.758140018209815">
        <ele>0</ele>
      </trkpt>
      <trkpt lat="33.948539961129427" lon="-6.757799964398146">
        <ele>0</ele>
      </trkpt>
      <trkpt lat="33.949279999360442" lon="-6.757350023835897">
        <ele>0</ele>
      </trkpt>
      <trkpt lat="33.949990030378103" lon="-6.756849959492683">
        <ele>0</ele>
      </trkpt>
      <trkpt lat="33.950720010325313" lon="-6.756219975650311">
        <ele>0</ele>
      </trkpt>
      <trkpt lat="33.951410008594394" lon="-6.755569959059358">
        <ele>0</ele>
      </trkpt>
      <trkpt lat="33.952920008450747" lon="-6.753879999741912">
        <ele>0</ele>
      </trkpt>
      <trkpt lat="33.953359974548221" lon="-6.753199975937605">
        <ele>0</ele>
      </trkpt>
      <trkpt lat="33.953800024464726" lon="-6.752460021525621">
        <ele>0</ele>
      </trkpt>
      <trkpt lat="33.955749990418553" lon="-6.748950015753508">
        <ele>0</ele>
      </trkpt>
      <trkpt lat="33.95643001422286" lon="-6.747919963672757">
        <ele>0</ele>
      </trkpt>
      <trkpt lat="33.957150019705296" lon="-6.747059980407357">
        <ele>0</ele>
      </trkpt>
      <trkpt lat="33.957840017974377" lon="-6.746320025995374">
        <ele>0</ele>
      </trkpt>
      <trkpt lat="33.958609979599714" lon="-6.745579987764359">
        <ele>0</ele>
      </trkpt>
      <trkpt lat="33.95932998508215" lon="-6.744919996708632">
        <ele>0</ele>
      </trkpt>
      <trkpt lat="33.960419967770576" lon="-6.744139976799488">
        <ele>0</ele>
      </trkpt>
      <trkpt lat="33.961840029805899" lon="-6.74321997910738">
        <ele>0</ele>
      </trkpt>
      <trkpt lat="33.963439967483282" lon="-6.742299981415272">
        <ele>0</ele>
      </trkpt>
      <trkpt lat="33.966939998790622" lon="-6.740199979394674">
        <ele>0</ele>
      </trkpt>
      <trkpt lat="33.968559969216585" lon="-6.739379977807403">
        <ele>147.22</ele>
      </trkpt>
      <trkpt lat="33.969690017402172" lon="-6.738919978961349">
        <ele>144.81999999999999</ele>
      </trkpt>
      <trkpt lat="33.97091000340879" lon="-6.738570034503937">
        <ele>144.81999999999999</ele>
      </trkpt>
      <trkpt lat="33.972310032695532" lon="-6.738259987905622">
        <ele>144.81999999999999</ele>
      </trkpt>
      <trkpt lat="33.973816344514489" lon="-6.737942984327674">
        <ele>144.81999999999999</ele>
      </trkpt>
      <trkpt lat="33.974834326654673" lon="-6.737653221935034">
        <ele>144.81999999999999</ele>
      </trkpt>
      <trkpt lat="33.975000204518437" lon="-6.737553477287293">
        <ele>140.97</ele>
      </trkpt>
      <trkpt lat="33.975155940279365" lon="-6.737428922206163">
        <ele>140.49000000000001</ele>
      </trkpt>
      <trkpt lat="33.975300611928105" lon="-6.737280478700995">
        <ele>140.97</ele>
      </trkpt>
      <trkpt lat="33.975548297166824" lon="-6.736952913925052">
        <ele>140.97</ele>
      </trkpt>
      <trkpt lat="33.976510791108012" lon="-6.735784392803907">
        <ele>140.97</ele>
      </trkpt>
      <trkpt lat="33.97673106752336" lon="-6.735582053661346">
        <ele>140.49000000000001</ele>
      </trkpt>
      <trkpt lat="33.976996522396803" lon="-6.735119288787246">
        <ele>140.97</ele>
      </trkpt>
      <trkpt lat="33.977365158498287" lon="-6.734847966581583">
        <ele>140.49000000000001</ele>
      </trkpt>
      <trkpt lat="33.977460460737348" lon="-6.734904041513801">
        <ele>140.49000000000001</ele>
      </trkpt>
      <trkpt lat="33.978333519771695" lon="-6.735042845830321">
        <ele>140.49000000000001</ele>
      </trkpt>
      <trkpt lat="33.979002144187689" lon="-6.734906639903784">
        <ele>140.00999999999999</ele>
      </trkpt>
      <trkpt lat="33.979090740904212" lon="-6.734852660447359">
        <ele>140.49000000000001</ele>
      </trkpt>
      <trkpt lat="33.97915561683476" lon="-6.734776385128498">
        <ele>140.49000000000001</ele>
      </trkpt>
      <trkpt lat="33.979193838313222" lon="-6.734676389023662">
        <ele>140.49000000000001</ele>
      </trkpt>
      <trkpt lat="33.979200711473823" lon="-6.73456247895956">
        <ele>140.97</ele>
      </trkpt>
      <trkpt lat="33.97918252274394" lon="-6.734446305781603">
        <ele>144.34</ele>
      </trkpt>
      <trkpt lat="33.979148995131254" lon="-6.734330635517836">
        <ele>149.13999999999999</ele>
      </trkpt>
      <trkpt lat="33.979105912148952" lon="-6.734215132892132">
        <ele>150.09999999999999</ele>
      </trkpt>
      <trkpt lat="33.978654379025102" lon="-6.732845949009061">
        <ele>150.58000000000001</ele>
      </trkpt>
      <trkpt lat="33.977848459035158" lon="-6.730253426358104">
        <ele>151.06</ele>
      </trkpt>
      <trkpt lat="33.977332888171077" lon="-6.728598838672042">
        <ele>151.53999999999999</ele>
      </trkpt>
      <trkpt lat="33.977308748289943" lon="-6.728440504521132">
        <ele>152.50999999999999</ele>
      </trkpt>
      <trkpt lat="33.977305311709642" lon="-6.728283260017633">
        <ele>152.50999999999999</ele>
      </trkpt>
      <trkpt lat="33.977324757725" lon="-6.728132721036673">
        <ele>152.99000000000001</ele>
      </trkpt>
      <trkpt lat="33.977369349449873" lon="-6.727987546473742">
        <ele>154.91</ele>
      </trkpt>
      <trkpt lat="33.977436991408467" lon="-6.727844467386603">
        <ele>154.43000000000001</ele>
      </trkpt>
      <trkpt lat="33.977523325011134" lon="-6.727707926183939">
        <ele>157.78999999999999</ele>
      </trkpt>
      <trkpt lat="33.977626422420144" lon="-6.727576665580273">
        <ele>157.31</ele>
      </trkpt>
      <trkpt lat="33.978828638792038" lon="-6.726077394559979">
        <ele>156.83000000000001</ele>
      </trkpt>
      <trkpt lat="33.98084775544703" lon="-6.723581263795495">
        <ele>156.83000000000001</ele>
      </trkpt>
      <trkpt lat="33.98299427703023" lon="-6.720933420583606">
        <ele>156.83000000000001</ele>
      </trkpt>
      <trkpt lat="33.983637504279613" lon="-6.720068324357271">
        <ele>157.31</ele>
      </trkpt>
      <trkpt lat="33.983695674687624" lon="-6.719921641051769">
        <ele>157.78999999999999</ele>
      </trkpt>
      <trkpt lat="33.983737332746387" lon="-6.719760121777654">
        <ele>165.47999999999999</ele>
      </trkpt>
      <trkpt lat="33.983759125694633" lon="-6.71958695165813">
        <ele>170.77000000000001</ele>
      </trkpt>
      <trkpt lat="33.983762646093965" lon="-6.719404896721244">
        <ele>171.25</ele>
      </trkpt>
      <trkpt lat="33.983760718256235" lon="-6.719218734651804">
        <ele>172.21000000000001</ele>
      </trkpt>
      <trkpt lat="33.983712438493967" lon="-6.716708103194833">
        <ele>172.69</ele>
      </trkpt>
      <trkpt lat="33.98370967246592" lon="-6.714876405894756">
        <ele>173.16999999999999</ele>
      </trkpt>
      <trkpt lat="33.983742278069258" lon="-6.714713545516133">
        <ele>173.16999999999999</ele>
      </trkpt>
      <trkpt lat="33.983796928077936" lon="-6.714562671259046">
        <ele>171.25</ele>
      </trkpt>
      <trkpt lat="33.983873622491956" lon="-6.714425208047032">
        <ele>172.21000000000001</ele>
      </trkpt>
      <trkpt lat="33.98396766744554" lon="-6.714296462014318">
        <ele>171.72999999999999</ele>
      </trkpt>
      <trkpt lat="33.984073027968407" lon="-6.71417199075222">
        <ele>168.37</ele>
      </trkpt>
      <trkpt lat="33.9854168985039" lon="-6.712583201006055">
        <ele>165.47999999999999</ele>
      </trkpt>
      <trkpt lat="33.987500304356217" lon="-6.71010953374207">
        <ele>167.41</ele>
      </trkpt>
      <trkpt lat="33.989104768261313" lon="-6.708168871700764">
        <ele>169.33000000000001</ele>
      </trkpt>
      <trkpt lat="33.990502282977104" lon="-6.706828437745571">
        <ele>172.21000000000001</ele>
      </trkpt>
      <trkpt lat="33.992304224520922" lon="-6.705151805654168">
        <ele>172.69</ele>
      </trkpt>
      <trkpt lat="33.993533179163933" lon="-6.703455308452249">
        <ele>169.81</ele>
      </trkpt>
      <trkpt lat="33.994575133547187" lon="-6.701999874785543">
        <ele>169.33000000000001</ele>
      </trkpt>
      <trkpt lat="33.996511604636908" lon="-6.699354462325573">
        <ele>168.84999999999999</ele>
      </trkpt>
      <trkpt lat="33.998014815151691" lon="-6.697335429489613">
        <ele>168.84999999999999</ele>
      </trkpt>
      <trkpt lat="33.999382741749287" lon="-6.695465762168169">
        <ele>168.37</ele>
      </trkpt>
      <trkpt lat="33.999471170827746" lon="-6.69529284350574">
        <ele>168.84999999999999</ele>
      </trkpt>
      <trkpt lat="33.999551134184003" lon="-6.695112213492394">
        <ele>168.84999999999999</ele>
      </trkpt>
      <trkpt lat="33.999620201066136" lon="-6.694923536852002">
        <ele>169.33000000000001</ele>
      </trkpt>
      <trkpt lat="33.99967267177999" lon="-6.69472748413682">
        <ele>169.33000000000001</ele>
      </trkpt>
      <trkpt lat="33.999710055068135" lon="-6.694527491927147">
        <ele>169.81</ele>
      </trkpt>
      <trkpt lat="33.99973226711154" lon="-6.694327667355537">
        <ele>170.28999999999999</ele>
      </trkpt>
      <trkpt lat="33.999738050624728" lon="-6.694131027907133">
        <ele>170.28999999999999</ele>
      </trkpt>
      <trkpt lat="33.99973033927381" lon="-6.693934975191951">
        <ele>170.77000000000001</ele>
      </trkpt>
      <trkpt lat="33.999711563810706" lon="-6.693739509209991">
        <ele>166.93000000000001</ele>
      </trkpt>
      <trkpt lat="33.999683568254113" lon="-6.693549659103155">
        <ele>165.96000000000001</ele>
      </trkpt>
      <trkpt lat="33.999646520242095" lon="-6.693364251405001">
        <ele>165.47999999999999</ele>
      </trkpt>
      <trkpt lat="33.999601341784" lon="-6.693180939182639">
        <ele>165</ele>
      </trkpt>
      <trkpt lat="33.99933647364378" lon="-6.691697426140308">
        <ele>164.52000000000001</ele>
      </trkpt>
      <trkpt lat="33.999354243278503" lon="-6.691515035927296">
        <ele>164.03999999999999</ele>
      </trkpt>
      <trkpt lat="33.99938483722508" lon="-6.691335160285235">
        <ele>164.03999999999999</ele>
      </trkpt>
      <trkpt lat="33.999430267140269" lon="-6.691162157803774">
        <ele>163.56</ele>
      </trkpt>
      <trkpt lat="33.999489778652787" lon="-6.691000973805785">
        <ele>163.56</ele>
      </trkpt>
      <trkpt lat="33.999562449753284" lon="-6.690851021558046">
        <ele>163.56</ele>
      </trkpt>
      <trkpt lat="33.999647861346602" lon="-6.690713809803128">
        <ele>163.56</ele>
      </trkpt>
      <trkpt lat="33.999740816652775" lon="-6.69059026055038">
        <ele>163.08000000000001</ele>
      </trkpt>
      <trkpt lat="33.999844500795007" lon="-6.690478613600135">
        <ele>163.08000000000001</ele>
      </trkpt>
      <trkpt lat="33.999958829954267" lon="-6.690379958599806">
        <ele>163.08000000000001</ele>
      </trkpt>
      <trkpt lat="34.00008263066411" lon="-6.690293038263917">
        <ele>163.08000000000001</ele>
      </trkpt>
      <trkpt lat="34.000216154381633" lon="-6.690224893391132">
        <ele>163.08000000000001</ele>
      </trkpt>
      <trkpt lat="34.000355042517185" lon="-6.690173260867596">
        <ele>163.08000000000001</ele>
      </trkpt>
      <trkpt lat="34.000498373061419" lon="-6.690139481797814">
        <ele>163.08000000000001</ele>
      </trkpt>
      <trkpt lat="34.000644218176603" lon="-6.690125903114677">
        <ele>163.08000000000001</ele>
      </trkpt>
      <trkpt lat="34.000785704702139" lon="-6.690124729648233">
        <ele>163.08000000000001</ele>
      </trkpt>
      <trkpt lat="34.000921659171581" lon="-6.690140068531036">
        <ele>167.41</ele>
      </trkpt>
      <trkpt lat="34.001056188717484" lon="-6.690169489011169">
        <ele>167.88999999999999</ele>
      </trkpt>
      <trkpt lat="34.00119130499661" lon="-6.690210560336709">
        <ele>168.37</ele>
      </trkpt>
      <trkpt lat="34.001325415447354" lon="-6.690260767936707">
        <ele>168.37</ele>
      </trkpt>
      <trkpt lat="34.002618826925755" lon="-6.690651280805469">
        <ele>168.37</ele>
      </trkpt>
      <trkpt lat="34.002722930163145" lon="-6.690648682415485">
        <ele>168.37</ele>
      </trkpt>
      <trkpt lat="34.002820160239935" lon="-6.690635271370411">
        <ele>168.37</ele>
      </trkpt>
      <trkpt lat="34.002910349518061" lon="-6.69061322696507">
        <ele>166.93000000000001</ele>
      </trkpt>
      <trkpt lat="34.002997102215886" lon="-6.690584057942033">
        <ele>165.47999999999999</ele>
      </trkpt>
      <trkpt lat="34.003073461353779" lon="-6.690553044900298">
        <ele>165</ele>
      </trkpt>
      <trkpt lat="34.003139175474644" lon="-6.690520858392119">
        <ele>167.88999999999999</ele>
      </trkpt>
      <trkpt lat="34.003665558993816" lon="-6.690025152638555">
        <ele>166.93000000000001</ele>
      </trkpt>
      <trkpt lat="34.004301493987441" lon="-6.68918595649302">
        <ele>159.72</ele>
      </trkpt>
      <trkpt lat="34.005233980715275" lon="-6.688120197504759">
        <ele>159.24000000000001</ele>
      </trkpt>
      <trkpt lat="34.006582126021385" lon="-6.686489665880799">
        <ele>158.75</ele>
      </trkpt>
      <trkpt lat="34.008170245215297" lon="-6.684646736830473">
        <ele>158.75</ele>
      </trkpt>
      <trkpt lat="34.010039325803518" lon="-6.682649413123727">
        <ele>158.75</ele>
      </trkpt>
      <trkpt lat="34.010465210303664" lon="-6.682199891656637">
        <ele>158.75</ele>
      </trkpt>
      <trkpt lat="34.010537881404161" lon="-6.682175667956471">
        <ele>159.24000000000001</ele>
      </trkpt>
      <trkpt lat="34.010568307712674" lon="-6.682201903313398">
        <ele>159.24000000000001</ele>
      </trkpt>
      <trkpt lat="34.010584484785795" lon="-6.682244734838605">
        <ele>159.72</ele>
      </trkpt>
      <trkpt lat="34.010590938851237" lon="-6.682298798114061">
        <ele>161.63999999999999</ele>
      </trkpt>
      <trkpt lat="34.010593369603157" lon="-6.682356130331755">
        <ele>163.08000000000001</ele>
      </trkpt>
      <trkpt lat="34.010597141459584" lon="-6.68241404928267">
        <ele>163.08000000000001</ele>
      </trkpt>
      <trkpt lat="34.010609043762088" lon="-6.682480182498694">
        <ele>163.08000000000001</ele>
      </trkpt>
      <trkpt lat="34.010806437581778" lon="-6.683359360322356">
        <ele>162.59999999999999</ele>
      </trkpt>
      <trkpt lat="34.010971980169415" lon="-6.683881971985102">
        <ele>164.03999999999999</ele>
      </trkpt>
      <trkpt lat="34.011009866371751" lon="-6.683897478505969">
        <ele>164.03999999999999</ele>
      </trkpt>
      <trkpt lat="34.011051189154387" lon="-6.683907704427838">
        <ele>164.03999999999999</ele>
      </trkpt>
      <trkpt lat="34.011766836047173" lon="-6.684045670554042">
        <ele>164.03999999999999</ele>
      </trkpt>
      <trkpt lat="34.012718768790364" lon="-6.684026224538684">
        <ele>164.03999999999999</ele>
      </trkpt>
      <trkpt lat="34.013457633554935" lon="-6.684092609211803">
        <ele>163.08000000000001</ele>
      </trkpt>
      <trkpt lat="34.01353214867413" lon="-6.684126807376742">
        <ele>163.08000000000001</ele>
      </trkpt>
      <trkpt lat="34.013669360429049" lon="-6.684201573953033">
        <ele>163.08000000000001</ele>
      </trkpt>
      <trkpt lat="34.013741025701165" lon="-6.684218002483249">
        <ele>162.59999999999999</ele>
      </trkpt>
      <trkpt lat="34.013894163072109" lon="-6.684241974726319">
        <ele>162.59999999999999</ele>
      </trkpt>
      <trkpt lat="34.0139723662287" lon="-6.684257397428155">
        <ele>162.59999999999999</ele>
      </trkpt>
      <trkpt lat="34.014052581042051" lon="-6.684255721047521">
        <ele>162.59999999999999</ele>
      </trkpt>
      <trkpt lat="34.014135813340545" lon="-6.684251111000776">
        <ele>162.12</ele>
      </trkpt>
      <trkpt lat="34.014220219105482" lon="-6.684264605864883">
        <ele>159.24000000000001</ele>
      </trkpt>
      <trkpt lat="34.014305714517832" lon="-6.684284890070558">
        <ele>158.75</ele>
      </trkpt>
      <trkpt lat="34.014393640682101" lon="-6.684291763231158">
        <ele>158.27000000000001</ele>
      </trkpt>
      <trkpt lat="34.014485673978925" lon="-6.684287153184414">
        <ele>157.31</ele>
      </trkpt>
      <trkpt lat="34.015343729406595" lon="-6.684514889493585">
        <ele>156.83000000000001</ele>
      </trkpt>
      <trkpt lat="34.01554916985333" lon="-6.684605833142996">
        <ele>155.38999999999999</ele>
      </trkpt>
      <trkpt lat="34.0156474057585" lon="-6.684630895033479">
        <ele>154.91</ele>
      </trkpt>
      <trkpt lat="34.015840860083699" lon="-6.68467246927321">
        <ele>154.91</ele>
      </trkpt>
      <trkpt lat="34.015924260020256" lon="-6.684700297191739">
        <ele>154.91</ele>
      </trkpt>
      <trkpt lat="34.016121067106724" lon="-6.684770453721285">
        <ele>154.91</ele>
      </trkpt>
      <trkpt lat="34.016191139817238" lon="-6.684810686856508">
        <ele>154.91</ele>
      </trkpt>
      <trkpt lat="34.01623229496181" lon="-6.68483717367053">
        <ele>153.94999999999999</ele>
      </trkpt>
      <trkpt lat="34.01628602296114" lon="-6.684859050437808">
        <ele>153.47</ele>
      </trkpt>
      <trkpt lat="34.016348719596863" lon="-6.684870533645153">
        <ele>152.99000000000001</ele>
      </trkpt>
      <trkpt lat="34.016417199745774" lon="-6.684874473139644">
        <ele>152.50999999999999</ele>
      </trkpt>
      <trkpt lat="34.016914749518037" lon="-6.684888806194067">
        <ele>151.53999999999999</ele>
      </trkpt>
      <trkpt lat="34.016994461417198" lon="-6.684869946911931">
        <ele>150.58000000000001</ele>
      </trkpt>
      <trkpt lat="34.017074257135391" lon="-6.684853434562683">
        <ele>149.13999999999999</ele>
      </trkpt>
      <trkpt lat="34.017245415598154" lon="-6.684863660484552">
        <ele>148.66</ele>
      </trkpt>
      <trkpt lat="34.017516653984785" lon="-6.684906659647822">
        <ele>148.18000000000001</ele>
      </trkpt>
      <trkpt lat="34.017775319516659" lon="-6.68499056249857">
        <ele>148.18000000000001</ele>
      </trkpt>
      <trkpt lat="34.01825618930161" lon="-6.685110004618764">
        <ele>145.30000000000001</ele>
      </trkpt>
      <trkpt lat="34.018542682752013" lon="-6.685112016275525">
        <ele>143.84999999999999</ele>
      </trkpt>
      <trkpt lat="34.018900841474533" lon="-6.685221400111914">
        <ele>143.37</ele>
      </trkpt>
      <trkpt lat="34.01932479813695" lon="-6.685406472533941">
        <ele>140.97</ele>
      </trkpt>
      <trkpt lat="34.020381001755595" lon="-6.685676956549287">
        <ele>140.49000000000001</ele>
      </trkpt>
      <trkpt lat="34.020831026136875" lon="-6.685754153877497">
        <ele>140.00999999999999</ele>
      </trkpt>
      <trkpt lat="34.0209851693362" lon="-6.685743927955627">
        <ele>139.05000000000001</ele>
      </trkpt>
      <trkpt lat="34.021548768505454" lon="-6.685908967629075">
        <ele>138.09</ele>
      </trkpt>
      <trkpt lat="34.021624960005283" lon="-6.685939561575651">
        <ele>136.16</ele>
      </trkpt>
      <trkpt lat="34.021777426823974" lon="-6.685969233512878">
        <ele>135.19999999999999</ele>
      </trkpt>
      <trkpt lat="34.022084623575211" lon="-6.685994546860457">
        <ele>134.72</ele>
      </trkpt>
      <trkpt lat="34.022232396528125" lon="-6.686009466648102">
        <ele>133.75999999999999</ele>
      </trkpt>
      <trkpt lat="34.022924238815904" lon="-6.686160005629063">
        <ele>133.28</ele>
      </trkpt>
      <trkpt lat="34.023138480260968" lon="-6.686218846589327">
        <ele>131.36000000000001</ele>
      </trkpt>
      <trkpt lat="34.02333989739418" lon="-6.686219265684485">
        <ele>130.88</ele>
      </trkpt>
      <trkpt lat="34.023604346439242" lon="-6.686330996453762">
        <ele>128.94999999999999</ele>
      </trkpt>
      <trkpt lat="34.023761255666614" lon="-6.686377264559269">
        <ele>128.47</ele>
      </trkpt>
      <trkpt lat="34.024514285847545" lon="-6.686686975881457">
        <ele>129.43000000000001</ele>
      </trkpt>
      <trkpt lat="34.024769263342023" lon="-6.686788313090801">
        <ele>128.94999999999999</ele>
      </trkpt>
      <trkpt lat="34.025126583874226" lon="-6.686825612559915">
        <ele>128.94999999999999</ele>
      </trkpt>
      <trkpt lat="34.025451634079218" lon="-6.686960477381945">
        <ele>128.47</ele>
      </trkpt>
      <trkpt lat="34.02573955245316" lon="-6.686968356370926">
        <ele>128.47</ele>
      </trkpt>
      <trkpt lat="34.026070050895214" lon="-6.687099868431687">
        <ele>128.94999999999999</ele>
      </trkpt>
      <trkpt lat="34.026101483032107" lon="-6.687121074646711">
        <ele>129.43000000000001</ele>
      </trkpt>
      <trkpt lat="34.026229390874505" lon="-6.687172958627343">
        <ele>129.43000000000001</ele>
      </trkpt>
      <trkpt lat="34.026482943445444" lon="-6.687297597527504">
        <ele>129.43000000000001</ele>
      </trkpt>
      <trkpt lat="34.02655896730721" lon="-6.687351996079087">
        <ele>129.43000000000001</ele>
      </trkpt>
      <trkpt lat="34.02659023180604" lon="-6.687392648309469">
        <ele>129.91999999999999</ele>
      </trkpt>
      <trkpt lat="34.026611270383" lon="-6.687440844252706">
        <ele>129.91999999999999</ele>
      </trkpt>
      <trkpt lat="34.026625351980329" lon="-6.687493901699781">
        <ele>129.91999999999999</ele>
      </trkpt>
      <trkpt lat="34.026641445234418" lon="-6.687543354928494">
        <ele>130.40000000000001</ele>
      </trkpt>
      <trkpt lat="34.026665249839425" lon="-6.687588952481747">
        <ele>130.40000000000001</ele>
      </trkpt>
      <trkpt lat="34.026692491024733" lon="-6.687634214758873">
        <ele>130.88</ele>
      </trkpt>
      <trkpt lat="34.026721743866801" lon="-6.687673274427652">
        <ele>130.88</ele>
      </trkpt>
      <trkpt lat="34.026752421632409" lon="-6.687711328268051">
        <ele>130.40000000000001</ele>
      </trkpt>
      <trkpt lat="34.026817297562957" lon="-6.687780814245343">
        <ele>129.91999999999999</ele>
      </trkpt>
      <trkpt lat="34.026851411908865" lon="-6.687805876135826">
        <ele>128.94999999999999</ele>
      </trkpt>
      <trkpt lat="34.026885777711868" lon="-6.687829345464706">
        <ele>128.94999999999999</ele>
      </trkpt>
      <trkpt lat="34.026921652257442" lon="-6.687845438718796">
        <ele>128.47</ele>
      </trkpt>
      <trkpt lat="34.026954006403685" lon="-6.687856754288077">
        <ele>128.47</ele>
      </trkpt>
      <trkpt lat="34.027111753821373" lon="-6.687925234436989">
        <ele>128.94999999999999</ele>
      </trkpt>
      <trkpt lat="34.027153747156262" lon="-6.687940657138825">
        <ele>127.98999999999999</ele>
      </trkpt>
      <trkpt lat="34.027239661663771" lon="-6.68796731159091">
        <ele>128.47</ele>
      </trkpt>
      <trkpt lat="34.027282912284136" lon="-6.687986338511109">
        <ele>128.94999999999999</ele>
      </trkpt>
      <trkpt lat="34.027722626924515" lon="-6.688184319064021">
        <ele>129.43000000000001</ele>
      </trkpt>
      <trkpt lat="34.027908202260733" lon="-6.688224049285054">
        <ele>128.94999999999999</ele>
      </trkpt>
      <trkpt lat="34.02815924026072" lon="-6.688239388167858">
        <ele>129.43000000000001</ele>
      </trkpt>
      <trkpt lat="34.028482781723142" lon="-6.688164873048663">
        <ele>129.43000000000001</ele>
      </trkpt>
      <trkpt lat="34.028645139187574" lon="-6.688169315457344">
        <ele>129.43000000000001</ele>
      </trkpt>
      <trkpt lat="34.028815710917115" lon="-6.68820527382195">
        <ele>129.91999999999999</ele>
      </trkpt>
      <trkpt lat="34.028925681486726" lon="-6.688213152810931">
        <ele>129.91999999999999</ele>
      </trkpt>
      <trkpt lat="34.028978403657675" lon="-6.688229329884052">
        <ele>130.40000000000001</ele>
      </trkpt>
      <trkpt lat="34.029030120000243" lon="-6.688256906345487">
        <ele>132.80000000000001</ele>
      </trkpt>
      <trkpt lat="34.029079908505082" lon="-6.688292194157839">
        <ele>134.72</ele>
      </trkpt>
      <trkpt lat="34.029126595705748" lon="-6.688335193321109">
        <ele>134.72</ele>
      </trkpt>
      <trkpt lat="34.029171355068684" lon="-6.688383724540472">
        <ele>134.72</ele>
      </trkpt>
      <trkpt lat="34.029863113537431" lon="-6.689001554623246">
        <ele>136.16</ele>
      </trkpt>
      <trkpt lat="34.030675487592816" lon="-6.689646793529391">
        <ele>135.68000000000001</ele>
      </trkpt>
      <trkpt lat="34.030989473685622" lon="-6.689895568415523">
        <ele>136.16</ele>
      </trkpt>
      <trkpt lat="34.03128745034337" lon="-6.690167225897312">
        <ele>135.68000000000001</ele>
      </trkpt>
      <trkpt lat="34.031437234953046" lon="-6.690304856747389">
        <ele>135.68000000000001</ele>
      </trkpt>
      <trkpt lat="34.031620966270566" lon="-6.690523540601134">
        <ele>133.75999999999999</ele>
      </trkpt>
      <trkpt lat="34.031847612932324" lon="-6.690659746527672">
        <ele>133.75999999999999</ele>
      </trkpt>
      <trkpt lat="34.031875357031822" lon="-6.690638205036521">
        <ele>132.80000000000001</ele>
      </trkpt>
      <trkpt lat="34.031902682036161" lon="-6.690601157024503">
        <ele>132.80000000000001</ele>
      </trkpt>
      <trkpt lat="34.032072499394417" lon="-6.690428489819169">
        <ele>132.80000000000001</ele>
      </trkpt>
      <trkpt lat="34.032193282619119" lon="-6.690389094874263">
        <ele>132.80000000000001</ele>
      </trkpt>
      <trkpt lat="34.032277353107929" lon="-6.690433351323009">
        <ele>132.80000000000001</ele>
      </trkpt>
      <trkpt lat="34.032323118299246" lon="-6.690460592508316">
        <ele>132.80000000000001</ele>
      </trkpt>
      <trkpt lat="34.032369386404753" lon="-6.690483642742038">
        <ele>137.13</ele>
      </trkpt>
      <trkpt lat="34.032422695308924" lon="-6.690480792894959">
        <ele>142.88999999999999</ele>
      </trkpt>
      <trkpt lat="34.032478854060173" lon="-6.690445840358734">
        <ele>143.37</ele>
      </trkpt>
      <trkpt lat="34.032542891800404" lon="-6.690395129844546">
        <ele>143.84999999999999</ele>
      </trkpt>
      <trkpt lat="34.033399522304535" lon="-6.689617624506354">
        <ele>139.53</ele>
      </trkpt>
      <trkpt lat="34.034906169399619" lon="-6.688213823363185">
        <ele>139.53</ele>
      </trkpt>
      <trkpt lat="34.036402674391866" lon="-6.686854781582952">
        <ele>136.63999999999999</ele>
      </trkpt>
      <trkpt lat="34.037391906604171" lon="-6.685942579060793">
        <ele>131.84</ele>
      </trkpt>
      <trkpt lat="34.038502424955368" lon="-6.684935912489891">
        <ele>128.94999999999999</ele>
      </trkpt>
      <trkpt lat="34.04054693877697" lon="-6.683062054216862">
        <ele>130.88</ele>
      </trkpt>
      <trkpt lat="34.042353322729468" lon="-6.681426744908094">
        <ele>135.68000000000001</ele>
      </trkpt>
      <trkpt lat="34.044348802417517" lon="-6.679611392319202">
        <ele>137.13</ele>
      </trkpt>
      <trkpt lat="34.045547917485237" lon="-6.678544627502561">
        <ele>135.19999999999999</ele>
      </trkpt>
      <trkpt lat="34.046703614294529" lon="-6.677460260689259">
        <ele>135.68000000000001</ele>
      </trkpt>
      <trkpt lat="34.048297349363565" lon="-6.676006251946092">
        <ele>139.05000000000001</ele>
      </trkpt>
      <trkpt lat="34.049588162451982" lon="-6.674810322001576">
        <ele>139.05000000000001</ele>
      </trkpt>
      <trkpt lat="34.050493994727731" lon="-6.673991493880749">
        <ele>140.49000000000001</ele>
      </trkpt>
      <trkpt lat="34.051259346306324" lon="-6.673279283568263">
        <ele>139.05000000000001</ele>
      </trkpt>
      <trkpt lat="34.052291996777058" lon="-6.672532958909869">
        <ele>139.05000000000001</ele>
      </trkpt>
      <trkpt lat="34.053104119375348" lon="-6.671835752204061">
        <ele>138.09</ele>
      </trkpt>
      <trkpt lat="34.053852120414376" lon="-6.671233680099249">
        <ele>131.84</ele>
      </trkpt>
      <trkpt lat="34.054238358512521" lon="-6.670738896355033">
        <ele>126.55</ele>
      </trkpt>
      <trkpt lat="34.054313963279128" lon="-6.670684162527323">
        <ele>122.70999999999999</ele>
      </trkpt>
      <trkpt lat="34.054404487833381" lon="-6.670640241354704">
        <ele>123.67</ele>
      </trkpt>
      <trkpt lat="34.055516514927149" lon="-6.670028194785118">
        <ele>124.15000000000001</ele>
      </trkpt>
      <trkpt lat="34.056654190644622" lon="-6.669349344447255">
        <ele>124.63</ele>
      </trkpt>
      <trkpt lat="34.057514676824212" lon="-6.66886093094945">
        <ele>122.22</ele>
      </trkpt>
      <trkpt lat="34.058064445853233" lon="-6.668572761118412">
        <ele>119.34</ele>
      </trkpt>
      <trkpt lat="34.058293690904975" lon="-6.668480392545462">
        <ele>117.42</ele>
      </trkpt>
      <trkpt lat="34.058367032557726" lon="-6.668437477201223">
        <ele>115.98</ele>
      </trkpt>
      <trkpt lat="34.059351989999413" lon="-6.667850408703089">
        <ele>115.98</ele>
      </trkpt>
      <trkpt lat="34.060346251353621" lon="-6.667310278862715">
        <ele>115.98</ele>
      </trkpt>
      <trkpt lat="34.061624994501472" lon="-6.666594129055738">
        <ele>115.98</ele>
      </trkpt>
      <trkpt lat="34.062096141278744" lon="-6.666329009458423">
        <ele>115.98</ele>
      </trkpt>
      <trkpt lat="34.06234416179359" lon="-6.666207136586309">
        <ele>115.98</ele>
      </trkpt>
      <trkpt lat="34.062426220625639" lon="-6.666147205978632">
        <ele>115.5</ele>
      </trkpt>
      <trkpt lat="34.062512386590242" lon="-6.666085431352258">
        <ele>115.5</ele>
      </trkpt>
      <trkpt lat="34.062605174258351" lon="-6.666029524058104">
        <ele>115.01000000000001</ele>
      </trkpt>
      <trkpt lat="34.062704248353839" lon="-6.665977723896503">
        <ele>115.01000000000001</ele>
      </trkpt>
      <trkpt lat="34.063334232196212" lon="-6.665640100836754">
        <ele>114.05</ele>
      </trkpt>
      <trkpt lat="34.063607063144445" lon="-6.665518395602703">
        <ele>114.05</ele>
      </trkpt>
      <trkpt lat="34.063670095056295" lon="-6.665480174124241">
        <ele>113.56999999999999</ele>
      </trkpt>
      <trkpt lat="34.064424047246575" lon="-6.665072478353977">
        <ele>113.56999999999999</ele>
      </trkpt>
      <trkpt lat="34.064819170162082" lon="-6.66484440676868">
        <ele>113.56999999999999</ele>
      </trkpt>
      <trkpt lat="34.065325437113643" lon="-6.664533857256174">
        <ele>113.56999999999999</ele>
      </trkpt>
      <trkpt lat="34.065418057143688" lon="-6.664486331865192">
        <ele>114.05</ele>
      </trkpt>
      <trkpt lat="34.065667083486915" lon="-6.664379630237818">
        <ele>114.05</ele>
      </trkpt>
      <trkpt lat="34.065802367404103" lon="-6.66433528997004">
        <ele>114.05</ele>
      </trkpt>
      <trkpt lat="34.065861962735653" lon="-6.664299750700593">
        <ele>114.05</ele>
      </trkpt>
      <trkpt lat="34.065923234447837" lon="-6.664252728223801">
        <ele>112.61</ele>
      </trkpt>
      <trkpt lat="34.066067487001419" lon="-6.664140662178397">
        <ele>112.61</ele>
      </trkpt>
      <trkpt lat="34.066149210557342" lon="-6.664094729349017">
        <ele>112.13</ele>
      </trkpt>
      <trkpt lat="34.066788414493203" lon="-6.663755932822824">
        <ele>112.61</ele>
      </trkpt>
      <trkpt lat="34.067577738314867" lon="-6.663334323093295">
        <ele>112.61</ele>
      </trkpt>
      <trkpt lat="34.067824753001332" lon="-6.663169283419848">
        <ele>111.65000000000001</ele>
      </trkpt>
      <trkpt lat="34.068735195323825" lon="-6.662661423906684">
        <ele>111.65000000000001</ele>
      </trkpt>
      <trkpt lat="34.068941893056035" lon="-6.662580287083983">
        <ele>111.65000000000001</ele>
      </trkpt>
      <trkpt lat="34.069006601348519" lon="-6.662547430023551">
        <ele>111.65000000000001</ele>
      </trkpt>
      <trkpt lat="34.069729708135128" lon="-6.662111654877663">
        <ele>111.65000000000001</ele>
      </trkpt>
      <trkpt lat="34.070252738893032" lon="-6.661827424541116">
        <ele>111.65000000000001</ele>
      </trkpt>
      <trkpt lat="34.07030688598752" lon="-6.661812337115407">
        <ele>111.65000000000001</ele>
      </trkpt>
      <trkpt lat="34.070408390834928" lon="-6.661777887493372">
        <ele>111.65000000000001</ele>
      </trkpt>
      <trkpt lat="34.07044904306531" lon="-6.66174846701324">
        <ele>111.65000000000001</ele>
      </trkpt>
      <trkpt lat="34.070486258715391" lon="-6.661712843924761">
        <ele>111.65000000000001</ele>
      </trkpt>
      <trkpt lat="34.070528503507376" lon="-6.661675795912743">
        <ele>111.65000000000001</ele>
      </trkpt>
      <trkpt lat="34.070580890402198" lon="-6.661640759557486">
        <ele>111.65000000000001</ele>
      </trkpt>
      <trkpt lat="34.070646269246936" lon="-6.6616106685251">
        <ele>111.17</ele>
      </trkpt>
      <trkpt lat="34.070721790194511" lon="-6.661582253873348">
        <ele>111.17</ele>
      </trkpt>
      <trkpt lat="34.070797059684992" lon="-6.661541853100061">
        <ele>111.17</ele>
      </trkpt>
      <trkpt lat="34.070876017212868" lon="-6.661492651328445">
        <ele>111.17</ele>
      </trkpt>
      <trkpt lat="34.071854436770082" lon="-6.66098915040493">
        <ele>111.17</ele>
      </trkpt>
      <trkpt lat="34.072716766968369" lon="-6.660473579540849">
        <ele>111.17</ele>
      </trkpt>
      <trkpt lat="34.072879208251834" lon="-6.660404093563557">
        <ele>110.69</ele>
      </trkpt>
      <trkpt lat="34.073085738345981" lon="-6.660338714718819">
        <ele>110.69</ele>
      </trkpt>
      <trkpt lat="34.073260081931949" lon="-6.660261768847704">
        <ele>110.20999999999999</ele>
      </trkpt>
      <trkpt lat="34.073316743597388" lon="-6.660262690857053">
        <ele>110.69</ele>
      </trkpt>
      <trkpt lat="34.073379524052143" lon="-6.660268139094114">
        <ele>110.20999999999999</ele>
      </trkpt>
      <trkpt lat="34.073451273143291" lon="-6.660267217084765">
        <ele>109.73</ele>
      </trkpt>
      <trkpt lat="34.073528554290533" lon="-6.66025472804904">
        <ele>110.20999999999999</ele>
      </trkpt>
      <trkpt lat="34.07360658980906" lon="-6.660229414701462">
        <ele>110.20999999999999</ele>
      </trkpt>
      <trkpt lat="34.073683451861143" lon="-6.660194797441363">
        <ele>110.20999999999999</ele>
      </trkpt>
      <trkpt lat="34.07456137239933" lon="-6.659762123599649">
        <ele>110.20999999999999</ele>
      </trkpt>
      <trkpt lat="34.074858175590634" lon="-6.659593731164932">
        <ele>110.20999999999999</ele>
      </trkpt>
      <trkpt lat="34.07492782920599" lon="-6.65958040393889">
        <ele>110.20999999999999</ele>
      </trkpt>
      <trkpt lat="34.074991615489125" lon="-6.659565735608339">
        <ele>110.20999999999999</ele>
      </trkpt>
      <trkpt lat="34.07504802569747" lon="-6.659538662061095">
        <ele>110.69</ele>
      </trkpt>
      <trkpt lat="34.075096221640706" lon="-6.659498093649745">
        <ele>110.69</ele>
      </trkpt>
      <trkpt lat="34.075143160298467" lon="-6.659449143335223">
        <ele>110.69</ele>
      </trkpt>
      <trkpt lat="34.07519806176424" lon="-6.659396924078465">
        <ele>110.69</ele>
      </trkpt>
      <trkpt lat="34.075626125559211" lon="-6.659063575789332">
        <ele>110.69</ele>
      </trkpt>
      <trkpt lat="34.075699467211962" lon="-6.659026276320219">
        <ele>110.69</ele>
      </trkpt>
      <trkpt lat="34.075764259323478" lon="-6.658992497250438">
        <ele>110.69</ele>
      </trkpt>
      <trkpt lat="34.075813796371222" lon="-6.658953269943595">
        <ele>110.69</ele>
      </trkpt>
      <trkpt lat="34.075853610411286" lon="-6.65890758857131">
        <ele>110.69</ele>
      </trkpt>
      <trkpt lat="34.075895268470049" lon="-6.658857297152281">
        <ele>111.17</ele>
      </trkpt>
      <trkpt lat="34.075947236269712" lon="-6.658811029046774">
        <ele>114.53</ele>
      </trkpt>
      <trkpt lat="34.076007921248674" lon="-6.658767024055123">
        <ele>115.5</ele>
      </trkpt>
      <trkpt lat="34.076078999787569" lon="-6.658729640766978">
        <ele>116.94</ele>
      </trkpt>
      <trkpt lat="34.076162735000253" lon="-6.658704243600369">
        <ele>120.78</ele>
      </trkpt>
      <trkpt lat="34.077130677178502" lon="-6.658249022439122">
        <ele>126.06999999999999</ele>
      </trkpt>
      <trkpt lat="34.077601153403521" lon="-6.658005528151989">
        <ele>127.98999999999999</ele>
      </trkpt>
      <trkpt lat="34.078267430886626" lon="-6.657656170427799">
        <ele>128.94999999999999</ele>
      </trkpt>
      <trkpt lat="34.079301841557026" lon="-6.657090643420816">
        <ele>129.91999999999999</ele>
      </trkpt>
      <trkpt lat="34.0807019546628" lon="-6.656325375661254">
        <ele>130.88</ele>
      </trkpt>
      <trkpt lat="34.081458924338222" lon="-6.655925391241908">
        <ele>131.36000000000001</ele>
      </trkpt>
      <trkpt lat="34.082265766337514" lon="-6.655537309125066">
        <ele>131.36000000000001</ele>
      </trkpt>
      <trkpt lat="34.082462154328823" lon="-6.655429098755121">
        <ele>131.36000000000001</ele>
      </trkpt>
      <trkpt lat="34.082629708573222" lon="-6.655321139842272">
        <ele>131.36000000000001</ele>
      </trkpt>
      <trkpt lat="34.082849314436316" lon="-6.655171103775501">
        <ele>131.36000000000001</ele>
      </trkpt>
      <trkpt lat="34.082900276407599" lon="-6.655148891732097">
        <ele>130.40000000000001</ele>
      </trkpt>
      <trkpt lat="34.082954255864024" lon="-6.65512609295547">
        <ele>128.47</ele>
      </trkpt>
      <trkpt lat="34.083011755719781" lon="-6.655092732980847">
        <ele>129.91999999999999</ele>
      </trkpt>
      <trkpt lat="34.083076296374202" lon="-6.655052332207561">
        <ele>129.91999999999999</ele>
      </trkpt>
      <trkpt lat="34.084057481959462" lon="-6.654495522379875">
        <ele>129.91999999999999</ele>
      </trkpt>
      <trkpt lat="34.084657961502671" lon="-6.654185894876719">
        <ele>130.40000000000001</ele>
      </trkpt>
      <trkpt lat="34.085370004177094" lon="-6.653841650113463">
        <ele>130.40000000000001</ele>
      </trkpt>
      <trkpt lat="34.08543630503118" lon="-6.653788089752197">
        <ele>134.24000000000001</ele>
      </trkpt>
      <trkpt lat="34.085499253123999" lon="-6.653733607381582">
        <ele>135.68000000000001</ele>
      </trkpt>
      <trkpt lat="34.085566475987434" lon="-6.65368658490479">
        <ele>134.24000000000001</ele>
      </trkpt>
      <trkpt lat="34.085641829296947" lon="-6.653644759207964">
        <ele>132.31999999999999</ele>
      </trkpt>
      <trkpt lat="34.086584374308586" lon="-6.653147544711828">
        <ele>129.43000000000001</ele>
      </trkpt>
      <trkpt lat="34.087197761982679" lon="-6.652814699336886">
        <ele>130.88</ele>
      </trkpt>
      <trkpt lat="34.087958838790655" lon="-6.652400800958276">
        <ele>130.88</ele>
      </trkpt>
      <trkpt lat="34.088659146800637" lon="-6.652015820145607">
        <ele>130.40000000000001</ele>
      </trkpt>
      <trkpt lat="34.089662292972207" lon="-6.651467392221093">
        <ele>130.88</ele>
      </trkpt>
      <trkpt lat="34.090660493820906" lon="-6.650937404483557">
        <ele>129.91999999999999</ele>
      </trkpt>
      <trkpt lat="34.091412015259266" lon="-6.650508502498269">
        <ele>125.59</ele>
      </trkpt>
      <trkpt lat="34.092404767870903" lon="-6.64997641928494">
        <ele>123.67</ele>
      </trkpt>
      <trkpt lat="34.093315126374364" lon="-6.649460764601827">
        <ele>120.3</ele>
      </trkpt>
      <trkpt lat="34.093848802149296" lon="-6.649167062714696">
        <ele>116.94</ele>
      </trkpt>
      <trkpt lat="34.095103070139885" lon="-6.648474298417568">
        <ele>114.53</ele>
      </trkpt>
      <trkpt lat="34.095604056492448" lon="-6.648209849372506">
        <ele>114.53</ele>
      </trkpt>
      <trkpt lat="34.09668548963964" lon="-6.647612554952502">
        <ele>115.5</ele>
      </trkpt>
      <trkpt lat="34.097640523687005" lon="-6.647085417062044">
        <ele>115.98</ele>
      </trkpt>
      <trkpt lat="34.098847517743707" lon="-6.64643389172852">
        <ele>117.90000000000001</ele>
      </trkpt>
      <trkpt lat="34.098936449736357" lon="-6.646377565339208">
        <ele>118.38</ele>
      </trkpt>
      <trkpt lat="34.099822333082557" lon="-6.645878339186311">
        <ele>118.86</ele>
      </trkpt>
      <trkpt lat="34.09990212880075" lon="-6.645837770774961">
        <ele>116.94</ele>
      </trkpt>
      <trkpt lat="34.100904604420066" lon="-6.64526947773993">
        <ele>114.05</ele>
      </trkpt>
      <trkpt lat="34.101829966530204" lon="-6.644766898825765">
        <ele>112.61</ele>
      </trkpt>
      <trkpt lat="34.102867813780904" lon="-6.644184105098248">
        <ele>112.61</ele>
      </trkpt>
      <trkpt lat="34.103694772347808" lon="-6.643714969977737">
        <ele>113.09</ele>
      </trkpt>
      <trkpt lat="34.105278784409165" lon="-6.642851801589131">
        <ele>116.45999999999999</ele>
      </trkpt>
      <trkpt lat="34.106055116280913" lon="-6.64241393096745">
        <ele>116.45999999999999</ele>
      </trkpt>
      <trkpt lat="34.106252761557698" lon="-6.642320891842246">
        <ele>116.45999999999999</ele>
      </trkpt>
      <trkpt lat="34.107293291017413" lon="-6.641753101721406">
        <ele>116.45999999999999</ele>
      </trkpt>
      <trkpt lat="34.108673539012671" lon="-6.640983056277037">
        <ele>116.45999999999999</ele>
      </trkpt>
      <trkpt lat="34.108846541494131" lon="-6.640905858948827">
        <ele>116.45999999999999</ele>
      </trkpt>
      <trkpt lat="34.108918039128184" lon="-6.640859926119447">
        <ele>117.90000000000001</ele>
      </trkpt>
      <trkpt lat="34.108989369124174" lon="-6.640810975804925">
        <ele>119.34</ele>
      </trkpt>
      <trkpt lat="34.109070338308811" lon="-6.640769233927131">
        <ele>123.67</ele>
      </trkpt>
      <trkpt lat="34.109158096835017" lon="-6.640732521191239">
        <ele>125.59</ele>
      </trkpt>
      <trkpt lat="34.110075747594237" lon="-6.64022826589644">
        <ele>126.06999999999999</ele>
      </trkpt>
      <trkpt lat="34.111021645367146" lon="-6.639702217653394">
        <ele>125.11</ele>
      </trkpt>
      <trkpt lat="34.112357972189784" lon="-6.638969220221043">
        <ele>127.51000000000001</ele>
      </trkpt>
      <trkpt lat="34.113162215799093" lon="-6.638496145606041">
        <ele>129.43000000000001</ele>
      </trkpt>
      <trkpt lat="34.113655323162675" lon="-6.638238066807389">
        <ele>127.51000000000001</ele>
      </trkpt>
      <trkpt lat="34.11438069306314" lon="-6.637829700484872">
        <ele>127.51000000000001</ele>
      </trkpt>
      <trkpt lat="34.11579773761332" lon="-6.637043813243508">
        <ele>127.51000000000001</ele>
      </trkpt>
      <trkpt lat="34.116940107196569" lon="-6.636407291516662">
        <ele>125.11</ele>
      </trkpt>
      <trkpt lat="34.117995304986835" lon="-6.635799771174789">
        <ele>124.15000000000001</ele>
      </trkpt>
      <trkpt lat="34.118754621595144" lon="-6.635394170880318">
        <ele>127.03</ele>
      </trkpt>
      <trkpt lat="34.119624076411128" lon="-6.634883629158139">
        <ele>128.47</ele>
      </trkpt>
      <trkpt lat="34.121065093204379" lon="-6.63407008163631">
        <ele>128.47</ele>
      </trkpt>
      <trkpt lat="34.12216798402369" lon="-6.633463148027659">
        <ele>128.94999999999999</ele>
      </trkpt>
      <trkpt lat="34.123482266440988" lon="-6.632725289091468">
        <ele>128.94999999999999</ele>
      </trkpt>
      <trkpt lat="34.12391577847302" lon="-6.632462097331882">
        <ele>128.94999999999999</ele>
      </trkpt>
      <trkpt lat="34.123986605554819" lon="-6.632439885288477">
        <ele>128.94999999999999</ele>
      </trkpt>
      <trkpt lat="34.12405114620924" lon="-6.632430581375957">
        <ele>128.94999999999999</ele>
      </trkpt>
      <trkpt lat="34.124099928885698" lon="-6.6324214451015">
        <ele>129.43000000000001</ele>
      </trkpt>
      <trkpt lat="34.124130858108401" lon="-6.632400071248412">
        <ele>129.43000000000001</ele>
      </trkpt>
      <trkpt lat="34.124147286638618" lon="-6.632368387654424">
        <ele>129.43000000000001</ele>
      </trkpt>
      <trkpt lat="34.124152148142457" lon="-6.632324382662773">
        <ele>129.91999999999999</ele>
      </trkpt>
      <trkpt lat="34.124138401821256" lon="-6.632270067930222">
        <ele>130.40000000000001</ele>
      </trkpt>
      <trkpt lat="34.124121889472008" lon="-6.632203431800008">
        <ele>130.88</ele>
      </trkpt>
      <trkpt lat="34.124120883643627" lon="-6.632125144824386">
        <ele>131.36000000000001</ele>
      </trkpt>
      <trkpt lat="34.124135551974177" lon="-6.632033530622721">
        <ele>131.84</ele>
      </trkpt>
      <trkpt lat="34.124157344922423" lon="-6.631933031603694">
        <ele>131.84</ele>
      </trkpt>
      <trkpt lat="34.124184334650636" lon="-6.631832784041762">
        <ele>131.84</ele>
      </trkpt>
      <trkpt lat="34.12421241402626" lon="-6.63174326531589">
        <ele>131.36000000000001</ele>
      </trkpt>
      <trkpt lat="34.124233284965158" lon="-6.63165919482708">
        <ele>131.36000000000001</ele>
      </trkpt>
      <trkpt lat="34.124253150075674" lon="-6.631578477099538">
        <ele>131.36000000000001</ele>
      </trkpt>
      <trkpt lat="34.12428324110806" lon="-6.631503710523248">
        <ele>130.40000000000001</ele>
      </trkpt>
      <trkpt lat="34.124319702386856" lon="-6.631442857906222">
        <ele>129.91999999999999</ele>
      </trkpt>
      <trkpt lat="34.124361863359809" lon="-6.63138653151691">
        <ele>129.91999999999999</ele>
      </trkpt>
      <trkpt lat="34.124411987140775" lon="-6.631321236491203">
        <ele>129.43000000000001</ele>
      </trkpt>
      <trkpt lat="34.124635867774487" lon="-6.631006915122271">
        <ele>129.43000000000001</ele>
      </trkpt>
      <trkpt lat="34.124672748148441" lon="-6.630992917343974">
        <ele>129.43000000000001</ele>
      </trkpt>
      <trkpt lat="34.124703174456954" lon="-6.631010603159666">
        <ele>129.91999999999999</ele>
      </trkpt>
      <trkpt lat="34.124726308509707" lon="-6.631041532382369">
        <ele>129.91999999999999</ele>
      </trkpt>
      <trkpt lat="34.124747598543763" lon="-6.631089728325605">
        <ele>129.91999999999999</ele>
      </trkpt>
      <trkpt lat="34.124771989881992" lon="-6.631143372505903">
        <ele>129.91999999999999</ele>
      </trkpt>
      <trkpt lat="34.124804511666298" lon="-6.631203470751643">
        <ele>129.91999999999999</ele>
      </trkpt>
      <trkpt lat="34.124849271029234" lon="-6.631275303661823">
        <ele>130.40000000000001</ele>
      </trkpt>
      <trkpt lat="34.124909369274974" lon="-6.631349064409733">
        <ele>129.91999999999999</ele>
      </trkpt>
      <trkpt lat="34.124978017061949" lon="-6.631415029987693">
        <ele>129.43000000000001</ele>
      </trkpt>
      <trkpt lat="34.12505672313273" lon="-6.63146523758769">
        <ele>128.47</ele>
      </trkpt>
      <trkpt lat="34.125143475830555" lon="-6.631489377468824">
        <ele>128.47</ele>
      </trkpt>
      <trkpt lat="34.125230731442571" lon="-6.631485521793366">
        <ele>127.98999999999999</ele>
      </trkpt>
      <trkpt lat="34.125312874093652" lon="-6.631449814885855">
        <ele>127.51000000000001</ele>
      </trkpt>
      <trkpt lat="34.125391328707337" lon="-6.63138996809721">
        <ele>127.03</ele>
      </trkpt>
      <trkpt lat="34.125472465530038" lon="-6.631320314481854">
        <ele>125.11</ele>
      </trkpt>
      <trkpt lat="34.125715289264917" lon="-6.63112417794764">
        <ele>124.63</ele>
      </trkpt>
      <trkpt lat="34.126673173159361" lon="-6.630284227430821">
        <ele>124.15000000000001</ele>
      </trkpt>
      <trkpt lat="34.128594556823373" lon="-6.628606589511037">
        <ele>124.63</ele>
      </trkpt>
      <trkpt lat="34.129987210035324" lon="-6.627399511635304">
        <ele>126.06999999999999</ele>
      </trkpt>
      <trkpt lat="34.130700007081032" lon="-6.626782855018973">
        <ele>125.59</ele>
      </trkpt>
      <trkpt lat="34.131812285631895" lon="-6.625830084085465">
        <ele>125.11</ele>
      </trkpt>
      <trkpt lat="34.132564729079604" lon="-6.625185683369637">
        <ele>123.67</ele>
      </trkpt>
      <trkpt lat="34.133313233032823" lon="-6.624550251290202">
        <ele>123.67</ele>
      </trkpt>
      <trkpt lat="34.134227279573679" lon="-6.623758496716619">
        <ele>123.67</ele>
      </trkpt>
      <trkpt lat="34.134871512651443" lon="-6.623203279450536">
        <ele>123.19</ele>
      </trkpt>
      <trkpt lat="34.13580902852118" lon="-6.622407669201493">
        <ele>124.15000000000001</ele>
      </trkpt>
      <trkpt lat="34.135870886966586" lon="-6.622348492965102">
        <ele>125.11</ele>
      </trkpt>
      <trkpt lat="34.135934170335531" lon="-6.622282695025206">
        <ele>125.11</ele>
      </trkpt>
      <trkpt lat="34.136007344350219" lon="-6.622216729447246">
        <ele>125.59</ele>
      </trkpt>
      <trkpt lat="34.136955421417952" lon="-6.621386921033263">
        <ele>123.67</ele>
      </trkpt>
      <trkpt lat="34.13796971552074" lon="-6.620506569743156">
        <ele>119.81999999999999</ele>
      </trkpt>
      <trkpt lat="34.139351891353726" lon="-6.619301922619343">
        <ele>117.90000000000001</ele>
      </trkpt>
      <trkpt lat="34.141027769073844" lon="-6.617852188646793">
        <ele>115.98</ele>
      </trkpt>
      <trkpt lat="34.141876939684153" lon="-6.617117431014776">
        <ele>113.56999999999999</ele>
      </trkpt>
      <trkpt lat="34.143225839361548" lon="-6.615938767790794">
        <ele>112.13</ele>
      </trkpt>
      <trkpt lat="34.144110465422273" lon="-6.615185318514705">
        <ele>112.61</ele>
      </trkpt>
      <trkpt lat="34.144671717658639" lon="-6.614698497578502">
        <ele>111.65000000000001</ele>
      </trkpt>
      <trkpt lat="34.145920956507325" lon="-6.613614298403263">
        <ele>107.81</ele>
      </trkpt>
      <trkpt lat="34.147261725738645" lon="-6.612444100901485">
        <ele>105.88</ele>
      </trkpt>
      <trkpt lat="34.148596879094839" lon="-6.611287230625749">
        <ele>105.88</ele>
      </trkpt>
      <trkpt lat="34.150024065747857" lon="-6.610070345923305">
        <ele>107.31999999999999</ele>
      </trkpt>
      <trkpt lat="34.150963174179196" lon="-6.609288901090622">
        <ele>109.25</ele>
      </trkpt>
      <trkpt lat="34.152092635631561" lon="-6.608316013589501">
        <ele>110.20999999999999</ele>
      </trkpt>
      <trkpt lat="34.153015147894621" lon="-6.607516799122095">
        <ele>111.17</ele>
      </trkpt>
      <trkpt lat="34.154139328747988" lon="-6.606551539152861">
        <ele>110.20999999999999</ele>
      </trkpt>
      <trkpt lat="34.15518463589251" lon="-6.605658447369933">
        <ele>107.81</ele>
      </trkpt>
      <trkpt lat="34.156414344906807" lon="-6.604605680331588">
        <ele>107.81</ele>
      </trkpt>
      <trkpt lat="34.157888973131776" lon="-6.603337749838829">
        <ele>106.36</ele>
      </trkpt>
      <trkpt lat="34.159047435969114" lon="-6.602345835417509">
        <ele>105.40000000000001</ele>
      </trkpt>
      <trkpt lat="34.160441933199763" lon="-6.601139511913061">
        <ele>104.44</ele>
      </trkpt>
      <trkpt lat="34.162161396816373" lon="-6.599660776555538">
        <ele>104.44</ele>
      </trkpt>
      <trkpt lat="34.163461094722152" lon="-6.598545564338565">
        <ele>104.92</ele>
      </trkpt>
      <trkpt lat="34.164967071264982" lon="-6.597265060991049">
        <ele>107.81</ele>
      </trkpt>
      <trkpt lat="34.165527401492" lon="-6.596769187599421">
        <ele>109.25</ele>
      </trkpt>
      <trkpt lat="34.165716413408518" lon="-6.596533320844173">
        <ele>108.77</ele>
      </trkpt>
      <trkpt lat="34.166750656440854" lon="-6.595641151070595">
        <ele>109.25</ele>
      </trkpt>
      <trkpt lat="34.167786492034793" lon="-6.594742359593511">
        <ele>107.31999999999999</ele>
      </trkpt>
      <trkpt lat="34.169117538258433" lon="-6.593604767695069">
        <ele>108.77</ele>
      </trkpt>
      <trkpt lat="34.169930499047041" lon="-6.592866070568562">
        <ele>109.73</ele>
      </trkpt>
      <trkpt lat="34.170925682410598" lon="-6.59202947281301">
        <ele>113.09</ele>
      </trkpt>
      <trkpt lat="34.171963529661298" lon="-6.591154485940933">
        <ele>112.13</ele>
      </trkpt>
      <trkpt lat="34.173014536499977" lon="-6.590249240398407">
        <ele>113.09</ele>
      </trkpt>
      <trkpt lat="34.173932354897261" lon="-6.58947785384953">
        <ele>114.05</ele>
      </trkpt>
      <trkpt lat="34.175102803856134" lon="-6.588463727384806">
        <ele>113.09</ele>
      </trkpt>
      <trkpt lat="34.176069153472781" lon="-6.587618077173829">
        <ele>113.09</ele>
      </trkpt>
      <trkpt lat="34.177223090082407" lon="-6.586650889366865">
        <ele>113.09</ele>
      </trkpt>
      <trkpt lat="34.178404854610562" lon="-6.585645815357566">
        <ele>114.53</ele>
      </trkpt>
      <trkpt lat="34.179729782044888" lon="-6.584475701674819">
        <ele>116.45999999999999</ele>
      </trkpt>
      <trkpt lat="34.180247532203794" lon="-6.583655616268516">
        <ele>117.90000000000001</ele>
      </trkpt>
      <trkpt lat="34.180311821401119" lon="-6.583558134734631">
        <ele>116.45999999999999</ele>
      </trkpt>
      <trkpt lat="34.180807694792747" lon="-6.582608800381422">
        <ele>115.5</ele>
      </trkpt>
      <trkpt lat="34.181145653128624" lon="-6.581919053569436">
        <ele>114.53</ele>
      </trkpt>
      <trkpt lat="34.181188149377704" lon="-6.581766754388809">
        <ele>114.53</ele>
      </trkpt>
      <trkpt lat="34.181199548766017" lon="-6.581744542345405">
        <ele>114.05</ele>
      </trkpt>
      <trkpt lat="34.181253109127283" lon="-6.581575311720371">
        <ele>115.01000000000001</ele>
      </trkpt>
      <trkpt lat="34.181216899305582" lon="-6.58146777190268">
        <ele>115.5</ele>
      </trkpt>
      <trkpt lat="34.181390907615423" lon="-6.58102503977716">
        <ele>117.42</ele>
      </trkpt>
      <trkpt lat="34.181473972275853" lon="-6.580880200490356">
        <ele>118.38</ele>
      </trkpt>
      <trkpt lat="34.181681592017412" lon="-6.580433612689376">
        <ele>117.90000000000001</ele>
      </trkpt>
      <trkpt lat="34.181875381618738" lon="-6.580057181417942">
        <ele>118.38</ele>
      </trkpt>
      <trkpt lat="34.182265056297183" lon="-6.579235084354878">
        <ele>118.86</ele>
      </trkpt>
      <trkpt lat="34.182856567203999" lon="-6.578145353123546">
        <ele>118.86</ele>
      </trkpt>
      <trkpt lat="34.183201817795634" lon="-6.577495587989688">
        <ele>119.34</ele>
      </trkpt>
      <trkpt lat="34.183288486674428" lon="-6.577279167249799">
        <ele>117.42</ele>
      </trkpt>
      <trkpt lat="34.183717891573906" lon="-6.576337795704603">
        <ele>116.94</ele>
      </trkpt>
      <trkpt lat="34.183971276506782" lon="-6.57593697309494">
        <ele>116.94</ele>
      </trkpt>
      <trkpt lat="34.18461668305099" lon="-6.574588660150766">
        <ele>116.94</ele>
      </trkpt>
      <trkpt lat="34.185243733227253" lon="-6.573196593672037">
        <ele>117.90000000000001</ele>
      </trkpt>
      <trkpt lat="34.185944711789489" lon="-6.571706123650074">
        <ele>117.90000000000001</ele>
      </trkpt>
      <trkpt lat="34.186206813901663" lon="-6.571159707382321">
        <ele>118.86</ele>
      </trkpt>
      <trkpt lat="34.186379816383123" lon="-6.570626618340612">
        <ele>118.86</ele>
      </trkpt>
      <trkpt lat="34.186917012557387" lon="-6.56948366202414">
        <ele>118.86</ele>
      </trkpt>
      <trkpt lat="34.186947271227837" lon="-6.569400429725647">
        <ele>118.86</ele>
      </trkpt>
      <trkpt lat="34.187088841572404" lon="-6.569138579070568">
        <ele>120.78</ele>
      </trkpt>
      <trkpt lat="34.187169307842851" lon="-6.56899549998343">
        <ele>121.26000000000001</ele>
      </trkpt>
      <trkpt lat="34.187393272295594" lon="-6.568493423983455">
        <ele>122.70999999999999</ele>
      </trkpt>
      <trkpt lat="34.187538782134652" lon="-6.568143228068948">
        <ele>122.70999999999999</ele>
      </trkpt>
      <trkpt lat="34.187952345237136" lon="-6.567260110750794">
        <ele>122.22</ele>
      </trkpt>
      <trkpt lat="34.187991824001074" lon="-6.567160869017243">
        <ele>122.22</ele>
      </trkpt>
      <trkpt lat="34.188494570553303" lon="-6.56612821854651">
        <ele>121.26000000000001</ele>
      </trkpt>
      <trkpt lat="34.188527511432767" lon="-6.566044399514794">
        <ele>120.78</ele>
      </trkpt>
      <trkpt lat="34.188908552750945" lon="-6.56527410261333">
        <ele>119.34</ele>
      </trkpt>
      <trkpt lat="34.188954485580325" lon="-6.565177962183952">
        <ele>118.38</ele>
      </trkpt>
      <trkpt lat="34.189127907156944" lon="-6.564799016341567">
        <ele>117.90000000000001</ele>
      </trkpt>
      <trkpt lat="34.18918733485043" lon="-6.564633809030056">
        <ele>114.53</ele>
      </trkpt>
      <trkpt lat="34.189364276826382" lon="-6.564334323629737">
        <ele>112.13</ele>
      </trkpt>
      <trkpt lat="34.189665857702494" lon="-6.563533851876855">
        <ele>111.17</ele>
      </trkpt>
      <trkpt lat="34.190095514059067" lon="-6.562661966308951">
        <ele>109.73</ele>
      </trkpt>
      <trkpt lat="34.190451744943857" lon="-6.561896866187453">
        <ele>109.25</ele>
      </trkpt>
      <trkpt lat="34.19055693782866" lon="-6.561633003875613">
        <ele>107.81</ele>
      </trkpt>
      <trkpt lat="34.190595410764217" lon="-6.561538623645902">
        <ele>106.84</ele>
      </trkpt>
      <trkpt lat="34.190719295293093" lon="-6.561225475743413">
        <ele>105.88</ele>
      </trkpt>
      <trkpt lat="34.190753325819969" lon="-6.561045683920384">
        <ele>104.92</ele>
      </trkpt>
      <trkpt lat="34.190885676071048" lon="-6.560671096667647">
        <ele>104.44</ele>
      </trkpt>
      <trkpt lat="34.19110125862062" lon="-6.560434056445956">
        <ele>103</ele>
      </trkpt>
      <trkpt lat="34.191211145371199" lon="-6.560271615162492">
        <ele>102.52</ele>
      </trkpt>
      <trkpt lat="34.191263448446989" lon="-6.560120154172182">
        <ele>103</ele>
      </trkpt>
      <trkpt lat="34.191307704895735" lon="-6.560005322098732">
        <ele>103</ele>
      </trkpt>
      <trkpt lat="34.191471068188548" lon="-6.559659149497747">
        <ele>102.04000000000001</ele>
      </trkpt>
      <trkpt lat="34.191599478945136" lon="-6.559394281357527">
        <ele>102.52</ele>
      </trkpt>
      <trkpt lat="34.191649267449975" lon="-6.559261679649353">
        <ele>102.52</ele>
      </trkpt>
      <trkpt lat="34.191740714013577" lon="-6.559046935290098">
        <ele>100.59999999999999</ele>
      </trkpt>
      <trkpt lat="34.191995188593864" lon="-6.558547960594297">
        <ele>100.11</ele>
      </trkpt>
      <trkpt lat="34.192231893539429" lon="-6.558033814653754">
        <ele>102.04000000000001</ele>
      </trkpt>
      <trkpt lat="34.192302636802197" lon="-6.5578259434551">
        <ele>103</ele>
      </trkpt>
      <trkpt lat="34.192793816328049" lon="-6.556837549433112">
        <ele>101.56</ele>
      </trkpt>
      <trkpt lat="34.193211486563087" lon="-6.555962227284908">
        <ele>101.08</ele>
      </trkpt>
      <trkpt lat="34.193851109594107" lon="-6.554541075602174">
        <ele>98.670000000000002</ele>
      </trkpt>
      <trkpt lat="34.194911168888211" lon="-6.552283829078078">
        <ele>98.189999999999998</ele>
      </trkpt>
      <trkpt lat="34.195374352857471" lon="-6.551607074216008">
        <ele>95.310000000000002</ele>
      </trkpt>
      <trkpt lat="34.195532603189349" lon="-6.551546473056078">
        <ele>92.900000000000006</ele>
      </trkpt>
      <trkpt lat="34.196202317252755" lon="-6.551171718165278">
        <ele>90.980000000000004</ele>
      </trkpt>
      <trkpt lat="34.19627733528614" lon="-6.551100807264447">
        <ele>90.5</ele>
      </trkpt>
      <trkpt lat="34.19658369384706" lon="-6.550697134807706">
        <ele>90.5</ele>
      </trkpt>
      <trkpt lat="34.197163637727499" lon="-6.550313998013735">
        <ele>90.019999999999996</ele>
      </trkpt>
      <trkpt lat="34.197527831420302" lon="-6.550003532320261">
        <ele>90.019999999999996</ele>
      </trkpt>
      <trkpt lat="34.197763027623296" lon="-6.549632465466857">
        <ele>90.019999999999996</ele>
      </trkpt>
      <trkpt lat="34.19811355881393" lon="-6.54921974055469">
        <ele>89.540000000000006</ele>
      </trkpt>
      <trkpt lat="34.198684114962816" lon="-6.548814978450537">
        <ele>89.060000000000002</ele>
      </trkpt>
      <trkpt lat="34.198978487402201" lon="-6.548408623784781">
        <ele>88.579999999999998</ele>
      </trkpt>
      <trkpt lat="34.199185520410538" lon="-6.548245763406158">
        <ele>89.060000000000002</ele>
      </trkpt>
      <trkpt lat="34.199464721605182" lon="-6.548128500580788">
        <ele>88.579999999999998</ele>
      </trkpt>
      <trkpt lat="34.199670748785138" lon="-6.548089189454913">
        <ele>88.099999999999994</ele>
      </trkpt>
      <trkpt lat="34.200018178671598" lon="-6.547879558056593">
        <ele>87.620000000000005</ele>
      </trkpt>
      <trkpt lat="34.200255889445543" lon="-6.547702867537737">
        <ele>86.180000000000007</ele>
      </trkpt>
      <trkpt lat="34.200584208592772" lon="-6.547539085149765">
        <ele>84.730000000000004</ele>
      </trkpt>
      <trkpt lat="34.200936080887914" lon="-6.546935755759478">
        <ele>84.25</ele>
      </trkpt>
      <trkpt lat="34.201281080022454" lon="-6.546524288132787">
        <ele>84.730000000000004</ele>
      </trkpt>
      <trkpt lat="34.201528513804078" lon="-6.546254307031632">
        <ele>84.25</ele>
      </trkpt>
      <trkpt lat="34.201823975890875" lon="-6.546065546572208">
        <ele>82.329999999999998</ele>
      </trkpt>
      <trkpt lat="34.202294368296862" lon="-6.545410668477416">
        <ele>81.849999999999994</ele>
      </trkpt>
      <trkpt lat="34.202528893947601" lon="-6.544970283284783">
        <ele>80.409999999999997</ele>
      </trkpt>
      <trkpt lat="34.202895099297166" lon="-6.544419676065445">
        <ele>78.969999999999999</ele>
      </trkpt>
      <trkpt lat="34.203352751210332" lon="-6.544008292257786">
        <ele>77.519999999999996</ele>
      </trkpt>
      <trkpt lat="34.203668748959899" lon="-6.543623730540276">
        <ele>77.519999999999996</ele>
      </trkpt>
      <trkpt lat="34.204051969572902" lon="-6.542996931821108">
        <ele>77.519999999999996</ele>
      </trkpt>
      <trkpt lat="34.204779351130128" lon="-6.542265275493264">
        <ele>77.040000000000006</ele>
      </trkpt>
      <trkpt lat="34.205097611993551" lon="-6.541956989094615">
        <ele>77.040000000000006</ele>
      </trkpt>
      <trkpt lat="34.205134324729443" lon="-6.541907452046871">
        <ele>77.040000000000006</ele>
      </trkpt>
      <trkpt lat="34.205208085477352" lon="-6.541788596659899">
        <ele>76.560000000000002</ele>
      </trkpt>
      <trkpt lat="34.205641178414226" lon="-6.541089545935392">
        <ele>76.560000000000002</ele>
      </trkpt>
      <trkpt lat="34.205786939710379" lon="-6.540832221508026">
        <ele>76.560000000000002</ele>
      </trkpt>
      <trkpt lat="34.206031942740083" lon="-6.540347160771489">
        <ele>75.120000000000005</ele>
      </trkpt>
      <trkpt lat="34.20620284974575" lon="-6.540143815800548">
        <ele>74.640000000000001</ele>
      </trkpt>
      <trkpt lat="34.206521948799491" lon="-6.539595304057002">
        <ele>73.680000000000007</ele>
      </trkpt>
      <trkpt lat="34.206687910482287" lon="-6.539142178371549">
        <ele>72.239999999999995</ele>
      </trkpt>
      <trkpt lat="34.207158889621496" lon="-6.538611771538854">
        <ele>72.719999999999999</ele>
      </trkpt>
      <trkpt lat="34.207430966198444" lon="-6.538263084366918">
        <ele>72.719999999999999</ele>
      </trkpt>
      <trkpt lat="34.207745958119631" lon="-6.537951529026032">
        <ele>72.239999999999995</ele>
      </trkpt>
      <trkpt lat="34.208111325278878" lon="-6.537531595677137">
        <ele>71.760000000000005</ele>
      </trkpt>
      <trkpt lat="34.208290362730622" lon="-6.537236049771309">
        <ele>70.310000000000002</ele>
      </trkpt>
      <trkpt lat="34.208498485386372" lon="-6.536972271278501">
        <ele>68.870000000000005</ele>
      </trkpt>
      <trkpt lat="34.208641061559319" lon="-6.536796251311898">
        <ele>66.469999999999999</ele>
      </trkpt>
      <trkpt lat="34.208979187533259" lon="-6.536421244964004">
        <ele>65.989999999999995</ele>
      </trkpt>
      <trkpt lat="34.20937011949718" lon="-6.536150593310595">
        <ele>65.030000000000001</ele>
      </trkpt>
      <trkpt lat="34.209617972373962" lon="-6.535945236682892">
        <ele>62.619999999999997</ele>
      </trkpt>
      <trkpt lat="34.210264720022678" lon="-6.535884635522962">
        <ele>62.140000000000001</ele>
      </trkpt>
      <trkpt lat="34.21037913300097" lon="-6.535896621644497">
        <ele>60.700000000000003</ele>
      </trkpt>
      <trkpt lat="34.210706278681755" lon="-6.535998797044158">
        <ele>60.700000000000003</ele>
      </trkpt>
      <trkpt lat="34.211590150371194" lon="-6.536012627184391">
        <ele>61.18</ele>
      </trkpt>
      <trkpt lat="34.211706994101405" lon="-6.535990750417113">
        <ele>62.619999999999997</ele>
      </trkpt>
      <trkpt lat="34.211971946060658" lon="-6.535810120403767">
        <ele>64.069999999999993</ele>
      </trkpt>
      <trkpt lat="34.212040845304728" lon="-6.535702748224139">
        <ele>65.030000000000001</ele>
      </trkpt>
      <trkpt lat="34.212187612429261" lon="-6.535366298630834">
        <ele>65.989999999999995</ele>
      </trkpt>
      <trkpt lat="34.212634284049273" lon="-6.534538334235549">
        <ele>64.549999999999997</ele>
      </trkpt>
      <trkpt lat="34.213007111102343" lon="-6.533693438395858">
        <ele>63.100000000000001</ele>
      </trkpt>
      <trkpt lat="34.213356468826532" lon="-6.532987263053656">
        <ele>62.140000000000001</ele>
      </trkpt>
      <trkpt lat="34.213711442425847" lon="-6.532255774363875">
        <ele>61.659999999999997</ele>
      </trkpt>
      <trkpt lat="34.21444695442915" lon="-6.531481118872762">
        <ele>61.659999999999997</ele>
      </trkpt>
      <trkpt lat="34.214934194460511" lon="-6.531087253242731">
        <ele>61.659999999999997</ele>
      </trkpt>
      <trkpt lat="34.215655876323581" lon="-6.530278734862804">
        <ele>61.18</ele>
      </trkpt>
      <trkpt lat="34.216079246252775" lon="-6.530025182291865">
        <ele>61.18</ele>
      </trkpt>
      <trkpt lat="34.216325841844082" lon="-6.529951589182019">
        <ele>61.18</ele>
      </trkpt>
      <trkpt lat="34.216748038306832" lon="-6.529534421861172">
        <ele>60.700000000000003</ele>
      </trkpt>
      <trkpt lat="34.216911485418677" lon="-6.529353624209762">
        <ele>60.700000000000003</ele>
      </trkpt>
      <trkpt lat="34.217142658308148" lon="-6.529143154621124">
        <ele>60.219999999999999</ele>
      </trkpt>
      <trkpt lat="34.217451028525829" lon="-6.528822965919972">
        <ele>59.259999999999998</ele>
      </trkpt>
      <trkpt lat="34.217740036547184" lon="-6.528434716165066">
        <ele>57.82</ele>
      </trkpt>
      <trkpt lat="34.217854952439666" lon="-6.528256265446544">
        <ele>56.859999999999999</ele>
      </trkpt>
      <trkpt lat="34.218172458931804" lon="-6.528012435883284">
        <ele>56.369999999999997</ele>
      </trkpt>
      <trkpt lat="34.218426179140806" lon="-6.527869859710336">
        <ele>53.969999999999999</ele>
      </trkpt>
      <trkpt lat="34.218755085021257" lon="-6.527636088430882">
        <ele>52.530000000000001</ele>
      </trkpt>
      <trkpt lat="34.219007296487689" lon="-6.527405921369791">
        <ele>51.090000000000003</ele>
      </trkpt>
      <trkpt lat="34.219172839075327" lon="-6.52729201130569">
        <ele>48.200000000000003</ele>
      </trkpt>
      <trkpt lat="34.219609200954437" lon="-6.526845674961805">
        <ele>46.759999999999998</ele>
      </trkpt>
      <trkpt lat="34.2199323233217" lon="-6.526556918397546">
        <ele>44.840000000000003</ele>
      </trkpt>
      <trkpt lat="34.220182355493307" lon="-6.526275370270014">
        <ele>41.950000000000003</ele>
      </trkpt>
      <trkpt lat="34.220729609951377" lon="-6.525973286479712">
        <ele>40.509999999999998</ele>
      </trkpt>
      <trkpt lat="34.220959777012467" lon="-6.525792321190238">
        <ele>38.590000000000003</ele>
      </trkpt>
      <trkpt lat="34.221295220777392" lon="-6.525593921542168">
        <ele>37.630000000000003</ele>
      </trkpt>
      <trkpt lat="34.221773911267519" lon="-6.525425361469388">
        <ele>36.670000000000002</ele>
      </trkpt>
      <trkpt lat="34.222299121320248" lon="-6.525360066443682">
        <ele>36.189999999999998</ele>
      </trkpt>
      <trkpt lat="34.222857523709536" lon="-6.525195948779583">
        <ele>35.229999999999997</ele>
      </trkpt>
      <trkpt lat="34.223137311637402" lon="-6.525045409798622">
        <ele>34.740000000000002</ele>
      </trkpt>
      <trkpt lat="34.223422799259424" lon="-6.524936025962234">
        <ele>33.299999999999997</ele>
      </trkpt>
      <trkpt lat="34.223702838644385" lon="-6.52481758967042">
        <ele>31.859999999999999</ele>
      </trkpt>
      <trkpt lat="34.224076587706804" lon="-6.524772914126515">
        <ele>32.340000000000003</ele>
      </trkpt>
      <trkpt lat="34.224242800846696" lon="-6.524834521114826">
        <ele>32.82</ele>
      </trkpt>
      <trkpt lat="34.224546309560537" lon="-6.524675684049726">
        <ele>31.379999999999999</ele>
      </trkpt>
      <trkpt lat="34.225077051669359" lon="-6.523963138461113">
        <ele>31.379999999999999</ele>
      </trkpt>
      <trkpt lat="34.2254030238837" lon="-6.523373555392027">
        <ele>29.460000000000001</ele>
      </trkpt>
      <trkpt lat="34.225713154301047" lon="-6.523065101355314">
        <ele>29.940000000000001</ele>
      </trkpt>
      <trkpt lat="34.226550422608852" lon="-6.522900564596057">
        <ele>28.98</ele>
      </trkpt>
      <trkpt lat="34.22673549503088" lon="-6.522909197956324">
        <ele>29.940000000000001</ele>
      </trkpt>
      <trkpt lat="34.227592460811138" lon="-6.522764023393393">
        <ele>29.940000000000001</ele>
      </trkpt>
      <trkpt lat="34.227830255404115" lon="-6.522834096103907">
        <ele>29.940000000000001</ele>
      </trkpt>
      <trkpt lat="34.227849449962378" lon="-6.522873071953654">
        <ele>29.940000000000001</ele>
      </trkpt>
      <trkpt lat="34.227855568751693" lon="-6.522868713364005">
        <ele>29.940000000000001</ele>
      </trkpt>
      <trkpt lat="34.227892030030489" lon="-6.522874496877194">
        <ele>29.940000000000001</ele>
      </trkpt>
      <trkpt lat="34.227922707796097" lon="-6.52285773307085">
        <ele>30.420000000000002</ele>
      </trkpt>
      <trkpt lat="34.227949865162373" lon="-6.522821690887213">
        <ele>30.420000000000002</ele>
      </trkpt>
      <trkpt lat="34.227971993386745" lon="-6.52277123183012">
        <ele>29.940000000000001</ele>
      </trkpt>
      <trkpt lat="34.227995211258531" lon="-6.522705098614097">
        <ele>30.420000000000002</ele>
      </trkpt>
      <trkpt lat="34.228273825719953" lon="-6.522017531096935">
        <ele>30.420000000000002</ele>
      </trkpt>
      <trkpt lat="34.228405756875873" lon="-6.521556610241532">
        <ele>30.420000000000002</ele>
      </trkpt>
      <trkpt lat="34.228428974747658" lon="-6.521387631073594">
        <ele>31.379999999999999</ele>
      </trkpt>
      <trkpt lat="34.228353034704924" lon="-6.519931191578507">
        <ele>34.259999999999998</ele>
      </trkpt>
      <trkpt lat="34.228305509313941" lon="-6.519764307886362">
        <ele>34.740000000000002</ele>
      </trkpt>
      <trkpt lat="34.22824683599174" lon="-6.519604884088039">
        <ele>35.710000000000001</ele>
      </trkpt>
      <trkpt lat="34.227348212152719" lon="-6.517950547859073">
        <ele>35.710000000000001</ele>
      </trkpt>
      <trkpt lat="34.225944159552455" lon="-6.515493476763368">
        <ele>35.710000000000001</ele>
      </trkpt>
      <trkpt lat="34.22477949410677" lon="-6.513432282954454">
        <ele>35.710000000000001</ele>
      </trkpt>
      <trkpt lat="34.224231988191605" lon="-6.512462245300412">
        <ele>35.229999999999997</ele>
      </trkpt>
      <trkpt lat="34.224092178046703" lon="-6.512231910601258">
        <ele>35.229999999999997</ele>
      </trkpt>
      <trkpt lat="34.224028894677758" lon="-6.512079611420631">
        <ele>35.229999999999997</ele>
      </trkpt>
      <trkpt lat="34.223982375115156" lon="-6.511997133493424">
        <ele>35.229999999999997</ele>
      </trkpt>
      <trkpt lat="34.223486920818686" lon="-6.511123487725854">
        <ele>35.229999999999997</ele>
      </trkpt>
      <trkpt lat="34.223293969407678" lon="-6.510765496641398">
        <ele>35.229999999999997</ele>
      </trkpt>
      <trkpt lat="34.223275193944573" lon="-6.510707410052419">
        <ele>35.229999999999997</ele>
      </trkpt>
      <trkpt lat="34.223271841183305" lon="-6.510647144168615">
        <ele>35.229999999999997</ele>
      </trkpt>
      <trkpt lat="34.223279384896159" lon="-6.510593080893159">
        <ele>35.229999999999997</ele>
      </trkpt>
      <trkpt lat="34.223290113732219" lon="-6.51055159047246">
        <ele>34.740000000000002</ele>
      </trkpt>
      <trkpt lat="34.223301177844405" lon="-6.510522002354264">
        <ele>34.259999999999998</ele>
      </trkpt>
      <trkpt lat="34.223311068490148" lon="-6.510504316538572">
        <ele>33.780000000000001</ele>
      </trkpt>
      <trkpt lat="34.223321629688144" lon="-6.510491576045752">
        <ele>29.940000000000001</ele>
      </trkpt>
      <trkpt lat="34.223379297181964" lon="-6.510395016521215">
        <ele>29.940000000000001</ele>
      </trkpt>
      <trkpt lat="34.223397988826036" lon="-6.51034489274025">
        <ele>29.460000000000001</ele>
      </trkpt>
      <trkpt lat="34.223647769540548" lon="-6.509723626077175">
        <ele>27.530000000000001</ele>
      </trkpt>
      <trkpt lat="34.223990505561233" lon="-6.50894838385284">
        <ele>26.57</ele>
      </trkpt>
      <trkpt lat="34.224071139469743" lon="-6.508834138512611">
        <ele>27.050000000000001</ele>
      </trkpt>
      <trkpt lat="34.224161077290773" lon="-6.508727101609111">
        <ele>27.050000000000001</ele>
      </trkpt>
      <trkpt lat="34.225058695301414" lon="-6.50790617801249">
        <ele>27.050000000000001</ele>
      </trkpt>
      <trkpt lat="34.225745676085353" lon="-6.50728122331202">
        <ele>26.57</ele>
      </trkpt>
      <trkpt lat="34.22615303657949" lon="-6.506838323548436">
        <ele>26.57</ele>
      </trkpt>
      <trkpt lat="34.226223025470972" lon="-6.50672759860754">
        <ele>26.57</ele>
      </trkpt>
      <trkpt lat="34.226258229464293" lon="-6.506690969690681">
        <ele>24.649999999999999</ele>
      </trkpt>
      <trkpt lat="34.226299887523055" lon="-6.506669009104371">
        <ele>23.690000000000001</ele>
      </trkpt>
      <trkpt lat="34.226343557238579" lon="-6.506658028811216">
        <ele>23.210000000000001</ele>
      </trkpt>
      <trkpt lat="34.226383958011866" lon="-6.506652161478996">
        <ele>21.289999999999999</ele>
      </trkpt>
      <trkpt lat="34.226568024605513" lon="-6.506600277498364">
        <ele>19.84</ele>
      </trkpt>
      <trkpt lat="34.226970439776778" lon="-6.506487792357802">
        <ele>18.879999999999999</ele>
      </trkpt>
      <trkpt lat="34.227282498031855" lon="-6.506463149562478">
        <ele>18.399999999999999</ele>
      </trkpt>
      <trkpt lat="34.227766720578074" lon="-6.506471615284681">
        <ele>18.879999999999999</ele>
      </trkpt>
      <trkpt lat="34.228466190397739" lon="-6.506433645263314">
        <ele>18.879999999999999</ele>
      </trkpt>
      <trkpt lat="34.229321731254458" lon="-6.506470274180174">
        <ele>19.359999999999999</ele>
      </trkpt>
      <trkpt lat="34.229724314063787" lon="-6.506835054606199">
        <ele>18.879999999999999</ele>
      </trkpt>
      <trkpt lat="34.230165285989642" lon="-6.507082404568791">
        <ele>17.440000000000001</ele>
      </trkpt>
      <trkpt lat="34.231219310313463" lon="-6.507155243307352">
        <ele>14.56</ele>
      </trkpt>
      <trkpt lat="34.232277441769838" lon="-6.507202181965113">
        <ele>11.67</ele>
      </trkpt>
      <trkpt lat="34.232978252694011" lon="-6.507091540843248">
        <ele>9.27</ele>
      </trkpt>
      <trkpt lat="34.233886180445552" lon="-6.506823822855949">
        <ele>9.75</ele>
      </trkpt>
      <trkpt lat="34.234389262273908" lon="-6.506660040467978">
        <ele>10.23</ele>
      </trkpt>
      <trkpt lat="34.234780948609114" lon="-6.506470022723079">
        <ele>10.710000000000001</ele>
      </trkpt>
      <trkpt lat="34.235126283019781" lon="-6.506385449320078">
        <ele>11.19</ele>
      </trkpt>
      <trkpt lat="34.235282521694899" lon="-6.506072385236621">
        <ele>11.67</ele>
      </trkpt>
      <trkpt lat="34.235485112294555" lon="-6.505988482385874">
        <ele>12.15</ele>
      </trkpt>
      <trkpt lat="34.235620982944965" lon="-6.505999797955155">
        <ele>13.6</ele>
      </trkpt>
      <trkpt lat="34.23582692630589" lon="-6.50607330724597">
        <ele>13.6</ele>
      </trkpt>
      <trkpt lat="34.235855508595705" lon="-6.506100548431277">
        <ele>15.039999999999999</ele>
      </trkpt>
      <trkpt lat="34.235970508307219" lon="-6.506331218406558">
        <ele>17.920000000000002</ele>
      </trkpt>
      <trkpt lat="34.236191036179662" lon="-6.507581127807498">
        <ele>18.399999999999999</ele>
      </trkpt>
      <trkpt lat="34.236308466643095" lon="-6.508163837715983">
        <ele>17.920000000000002</ele>
      </trkpt>
      <trkpt lat="34.236507285386324" lon="-6.509135467931628">
        <ele>13.6</ele>
      </trkpt>
      <trkpt lat="34.236711217090487" lon="-6.510180942714214">
        <ele>12.15</ele>
      </trkpt>
      <trkpt lat="34.236771231517196" lon="-6.51050029322505">
        <ele>10.710000000000001</ele>
      </trkpt>
      <trkpt lat="34.236971894279122" lon="-6.510575478896499">
        <ele>12.15</ele>
      </trkpt>
      <trkpt lat="34.23778292723" lon="-6.510198209434748">
        <ele>12.15</ele>
      </trkpt>
      <trkpt lat="34.238192215561867" lon="-6.510044569149613">
        <ele>11.67</ele>
      </trkpt>
      <trkpt lat="34.239066196605563" lon="-6.509813647717238">
        <ele>12.15</ele>
      </trkpt>
      <trkpt lat="34.239768767729402" lon="-6.509571578353643">
        <ele>15.52</ele>
      </trkpt>
      <trkpt lat="34.240209572017193" lon="-6.509498069062829">
        <ele>20.32</ele>
      </trkpt>
      <trkpt lat="34.240498580038548" lon="-6.509468480944634">
        <ele>24.170000000000002</ele>
      </trkpt>
      <trkpt lat="34.241317994892597" lon="-6.509288772940636">
        <ele>22.73</ele>
      </trkpt>
      <trkpt lat="34.241860471665859" lon="-6.50934568606317">
        <ele>24.170000000000002</ele>
      </trkpt>
      <trkpt lat="34.242569413036108" lon="-6.50962857529521">
        <ele>25.129999999999999</ele>
      </trkpt>
      <trkpt lat="34.243401568382978" lon="-6.510124281048775">
        <ele>26.09</ele>
      </trkpt>
      <trkpt lat="34.24431829713285" lon="-6.510311365127564">
        <ele>26.09</ele>
      </trkpt>
      <trkpt lat="34.245697287842631" lon="-6.510605150833726">
        <ele>26.09</ele>
      </trkpt>
      <trkpt lat="34.246526844799519" lon="-6.510677570477128">
        <ele>26.09</ele>
      </trkpt>
      <trkpt lat="34.246611669659615" lon="-6.510643539950252">
        <ele>26.57</ele>
      </trkpt>
      <trkpt lat="34.246605886146426" lon="-6.510638510808349">
        <ele>26.57</ele>
      </trkpt>
      <trkpt lat="34.246612256392837" lon="-6.510566091164947">
        <ele>26.57</ele>
      </trkpt>
      <trkpt lat="34.246598007157445" lon="-6.510527366772294">
        <ele>27.050000000000001</ele>
      </trkpt>
      <trkpt lat="34.246580237522721" lon="-6.510488139465451">
        <ele>27.050000000000001</ele>
      </trkpt>
      <trkpt lat="34.246563389897346" lon="-6.510439356788993">
        <ele>27.050000000000001</ele>
      </trkpt>
      <trkpt lat="34.246554169803858" lon="-6.510375989601016">
        <ele>29.460000000000001</ele>
      </trkpt>
      <trkpt lat="34.246552241966128" lon="-6.510300971567631">
        <ele>29.460000000000001</ele>
      </trkpt>
      <trkpt lat="34.246557019650936" lon="-6.510212793946266">
        <ele>29.460000000000001</ele>
      </trkpt>
      <trkpt lat="34.246566910296679" lon="-6.510112965479493">
        <ele>29.460000000000001</ele>
      </trkpt>
      <trkpt lat="34.246549475938082" lon="-6.509014517068863">
        <ele>29.460000000000001</ele>
      </trkpt>
      <trkpt lat="34.246263736858964" lon="-6.507613062858582">
        <ele>29.460000000000001</ele>
      </trkpt>
      <trkpt lat="34.246260467916727" lon="-6.507547600194812">
        <ele>28.98</ele>
      </trkpt>
      <trkpt lat="34.246273878961802" lon="-6.507242331281304">
        <ele>30.420000000000002</ele>
      </trkpt>
      <trkpt lat="34.246274214237928" lon="-6.507193213328719">
        <ele>31.379999999999999</ele>
      </trkpt>
      <trkpt lat="34.246282344684005" lon="-6.507143508642912">
        <ele>31.859999999999999</ele>
      </trkpt>
      <trkpt lat="34.246335318312049" lon="-6.507058599963784">
        <ele>31.859999999999999</ele>
      </trkpt>
      <trkpt lat="34.246630445122719" lon="-6.506450995802879">
        <ele>31.859999999999999</ele>
      </trkpt>
      <trkpt lat="34.246930181980133" lon="-6.505556982010603">
        <ele>32.340000000000003</ele>
      </trkpt>
      <trkpt lat="34.246991034597158" lon="-6.505419267341495">
        <ele>31.859999999999999</ele>
      </trkpt>
      <trkpt lat="34.247066974639893" lon="-6.505139982327819">
        <ele>28.98</ele>
      </trkpt>
      <trkpt lat="34.247165126726031" lon="-6.504871845245361">
        <ele>28.02</ele>
      </trkpt>
      <trkpt lat="34.247348355129361" lon="-6.50449306704104">
        <ele>27.530000000000001</ele>
      </trkpt>
      <trkpt lat="34.247877085581422" lon="-6.503930892795324">
        <ele>27.050000000000001</ele>
      </trkpt>
      <trkpt lat="34.248413778841496" lon="-6.503334855660796">
        <ele>24.170000000000002</ele>
      </trkpt>
      <trkpt lat="34.248657859861851" lon="-6.502992119640112">
        <ele>23.210000000000001</ele>
      </trkpt>
      <trkpt lat="34.248885093256831" lon="-6.502752732485533">
        <ele>23.210000000000001</ele>
      </trkpt>
      <trkpt lat="34.249002523720264" lon="-6.502652820199728">
        <ele>22.25</ele>
      </trkpt>
      <trkpt lat="34.24958037212491" lon="-6.502045467495918">
        <ele>20.809999999999999</ele>
      </trkpt>
      <trkpt lat="34.249925538897514" lon="-6.501590916886926">
        <ele>20.32</ele>
      </trkpt>
      <trkpt lat="34.250032156705856" lon="-6.501471642404795">
        <ele>19.84</ele>
      </trkpt>
      <trkpt lat="34.250212283805013" lon="-6.501315403729677">
        <ele>19.84</ele>
      </trkpt>
      <trkpt lat="34.250372294336557" lon="-6.5011484362185">
        <ele>20.32</ele>
      </trkpt>
      <trkpt lat="34.250550242140889" lon="-6.501000830903649">
        <ele>20.32</ele>
      </trkpt>
      <trkpt lat="34.250581758096814" lon="-6.500879796221852">
        <ele>23.210000000000001</ele>
      </trkpt>
      <trkpt lat="34.250735817477107" lon="-6.500677959993482">
        <ele>24.649999999999999</ele>
      </trkpt>
      <trkpt lat="34.25087914802134" lon="-6.50045407935977">
        <ele>25.129999999999999</ele>
      </trkpt>
      <trkpt lat="34.250971265137196" lon="-6.500332038849592">
        <ele>26.57</ele>
      </trkpt>
      <trkpt lat="34.251479795202613" lon="-6.499719154089689">
        <ele>29.460000000000001</ele>
      </trkpt>
      <trkpt lat="34.251569649204612" lon="-6.499606836587191">
        <ele>30.420000000000002</ele>
      </trkpt>
      <trkpt lat="34.251637542620301" lon="-6.499538607895374">
        <ele>30.899999999999999</ele>
      </trkpt>
      <trkpt lat="34.251844072714448" lon="-6.499399887397885">
        <ele>30.899999999999999</ele>
      </trkpt>
      <trkpt lat="34.25242954865098" lon="-6.498739477247">
        <ele>31.859999999999999</ele>
      </trkpt>
      <trkpt lat="34.252837579697371" lon="-6.4982904586941">
        <ele>32.340000000000003</ele>
      </trkpt>
      <trkpt lat="34.252974959090352" lon="-6.498093232512474">
        <ele>32.82</ele>
      </trkpt>
      <trkpt lat="34.253176208585501" lon="-6.497900281101465">
        <ele>32.82</ele>
      </trkpt>
      <trkpt lat="34.253684990108013" lon="-6.497275829315186">
        <ele>33.780000000000001</ele>
      </trkpt>
      <trkpt lat="34.253839468583465" lon="-6.497066868469119">
        <ele>34.740000000000002</ele>
      </trkpt>
      <trkpt lat="34.253900572657585" lon="-6.496933763846755">
        <ele>34.740000000000002</ele>
      </trkpt>
      <trkpt lat="34.25421648658812" lon="-6.496615670621395">
        <ele>34.259999999999998</ele>
      </trkpt>
      <trkpt lat="34.254353195428848" lon="-6.49645121768117">
        <ele>34.740000000000002</ele>
      </trkpt>
      <trkpt lat="34.25468604080379" lon="-6.496057687327266">
        <ele>34.740000000000002</ele>
      </trkpt>
      <trkpt lat="34.254762819036841" lon="-6.495959619060159">
        <ele>34.259999999999998</ele>
      </trkpt>
      <trkpt lat="34.254912436008453" lon="-6.495794160291553">
        <ele>34.259999999999998</ele>
      </trkpt>
      <trkpt lat="34.255026262253523" lon="-6.495588216930628">
        <ele>34.259999999999998</ele>
      </trkpt>
      <trkpt lat="34.255162635818124" lon="-6.495311111211777">
        <ele>34.740000000000002</ele>
      </trkpt>
      <trkpt lat="34.25548785366118" lon="-6.495111286640167">
        <ele>35.229999999999997</ele>
      </trkpt>
      <trkpt lat="34.255911307409406" lon="-6.494580125436187">
        <ele>34.740000000000002</ele>
      </trkpt>
      <trkpt lat="34.256146252155304" lon="-6.494344174861908">
        <ele>35.710000000000001</ele>
      </trkpt>
      <trkpt lat="34.256519414484501" lon="-6.493891719728708">
        <ele>37.149999999999999</ele>
      </trkpt>
      <trkpt lat="34.257070692256093" lon="-6.493234159424901">
        <ele>40.030000000000001</ele>
      </trkpt>
      <trkpt lat="34.257307732477784" lon="-6.492929812520742">
        <ele>40.509999999999998</ele>
      </trkpt>
      <trkpt lat="34.25791634246707" lon="-6.492283903062344">
        <ele>41.469999999999999</ele>
      </trkpt>
      <trkpt lat="34.258216917514801" lon="-6.491878554224968">
        <ele>43.880000000000003</ele>
      </trkpt>
      <trkpt lat="34.258949495851994" lon="-6.490975320339203">
        <ele>43.880000000000003</ele>
      </trkpt>
      <trkpt lat="34.259086456149817" lon="-6.490797540172935">
        <ele>44.840000000000003</ele>
      </trkpt>
      <trkpt lat="34.259474202990532" lon="-6.490377523005009">
        <ele>44.840000000000003</ele>
      </trkpt>
      <trkpt lat="34.260431081056595" lon="-6.48924739100039">
        <ele>44.359999999999999</ele>
      </trkpt>
      <trkpt lat="34.260490508750081" lon="-6.489171450957656">
        <ele>43.880000000000003</ele>
      </trkpt>
      <trkpt lat="34.260628977790475" lon="-6.488838186487556">
        <ele>43.399999999999999</ele>
      </trkpt>
      <trkpt lat="34.26065269857645" lon="-6.488832151517272">
        <ele>43.399999999999999</ele>
      </trkpt>
      <trkpt lat="34.260863587260246" lon="-6.488699046894908">
        <ele>42.920000000000002</ele>
      </trkpt>
      <trkpt lat="34.26136608235538" lon="-6.488113738596439">
        <ele>40.990000000000002</ele>
      </trkpt>
      <trkpt lat="34.26150731742382" lon="-6.487783994525671">
        <ele>39.549999999999997</ele>
      </trkpt>
      <trkpt lat="34.261573115363717" lon="-6.487490125000477">
        <ele>38.109999999999999</ele>
      </trkpt>
      <trkpt lat="34.261666825041175" lon="-6.487427344545722">
        <ele>37.149999999999999</ele>
      </trkpt>
      <trkpt lat="34.261959018185735" lon="-6.487371018156409">
        <ele>37.630000000000003</ele>
      </trkpt>
      <trkpt lat="34.262193627655506" lon="-6.48705443367362">
        <ele>38.590000000000003</ele>
      </trkpt>
      <trkpt lat="34.262379622086883" lon="-6.486758971586824">
        <ele>40.030000000000001</ele>
      </trkpt>
      <trkpt lat="34.262504512444139" lon="-6.486632572486997">
        <ele>40.990000000000002</ele>
      </trkpt>
      <trkpt lat="34.262586571276188" lon="-6.486484045162797">
        <ele>40.030000000000001</ele>
      </trkpt>
      <trkpt lat="34.262685813009739" lon="-6.486343983560801">
        <ele>40.509999999999998</ele>
      </trkpt>
      <trkpt lat="34.262981191277504" lon="-6.486089592799544">
        <ele>39.07</ele>
      </trkpt>
      <trkpt lat="34.263701448217034" lon="-6.485256012529135">
        <ele>39.07</ele>
      </trkpt>
      <trkpt lat="34.263813011348248" lon="-6.485014194622636">
        <ele>39.549999999999997</ele>
      </trkpt>
      <trkpt lat="34.263823153451085" lon="-6.484967339783907">
        <ele>40.030000000000001</ele>
      </trkpt>
      <trkpt lat="34.264060528948903" lon="-6.484754271805286">
        <ele>40.509999999999998</ele>
      </trkpt>
      <trkpt lat="34.264238812029362" lon="-6.484473226591945">
        <ele>40.990000000000002</ele>
      </trkpt>
      <trkpt lat="34.264285918325186" lon="-6.484384210780263">
        <ele>41.469999999999999</ele>
      </trkpt>
      <trkpt lat="34.264423465356231" lon="-6.484239203855395">
        <ele>42.439999999999998</ele>
      </trkpt>
      <trkpt lat="34.264476103708148" lon="-6.484158486127853">
        <ele>43.880000000000003</ele>
      </trkpt>
      <trkpt lat="34.264669055119157" lon="-6.484013563022018">
        <ele>44.359999999999999</ele>
      </trkpt>
      <trkpt lat="34.26485882140696" lon="-6.483878195285797">
        <ele>45.799999999999997</ele>
      </trkpt>
      <trkpt lat="34.264913806691766" lon="-6.483796974644065">
        <ele>46.759999999999998</ele>
      </trkpt>
      <trkpt lat="34.265146488323808" lon="-6.483513498678803">
        <ele>48.200000000000003</ele>
      </trkpt>
      <trkpt lat="34.265212789177895" lon="-6.483437307178974">
        <ele>49.159999999999997</ele>
      </trkpt>
      <trkpt lat="34.265682846307755" lon="-6.482893070206046">
        <ele>49.159999999999997</ele>
      </trkpt>
      <trkpt lat="34.266051147133112" lon="-6.482441537082195">
        <ele>49.649999999999999</ele>
      </trkpt>
      <trkpt lat="34.266185844317079" lon="-6.482144314795733">
        <ele>50.130000000000003</ele>
      </trkpt>
      <trkpt lat="34.266547774896026" lon="-6.481642825528979">
        <ele>49.649999999999999</ele>
      </trkpt>
      <trkpt lat="34.266841560602188" lon="-6.481321463361383">
        <ele>49.649999999999999</ele>
      </trkpt>
      <trkpt lat="34.266981622204185" lon="-6.481121554970741">
        <ele>50.130000000000003</ele>
      </trkpt>
      <trkpt lat="34.267201144248247" lon="-6.48100177757442">
        <ele>49.649999999999999</ele>
      </trkpt>
      <trkpt lat="34.267362831160426" lon="-6.480824835598469">
        <ele>49.159999999999997</ele>
      </trkpt>
      <trkpt lat="34.267636248841882" lon="-6.480447733774781">
        <ele>48.68</ele>
      </trkpt>
      <trkpt lat="34.267979236319661" lon="-6.480088904500008">
        <ele>48.200000000000003</ele>
      </trkpt>
      <trkpt lat="34.268080154433846" lon="-6.47998932749033">
        <ele>48.68</ele>
      </trkpt>
      <trkpt lat="34.268628247082233" lon="-6.479306370019913">
        <ele>48.200000000000003</ele>
      </trkpt>
      <trkpt lat="34.269385887309909" lon="-6.478399615734816">
        <ele>48.68</ele>
      </trkpt>
      <trkpt lat="34.269464006647468" lon="-6.478319317102432">
        <ele>49.159999999999997</ele>
      </trkpt>
      <trkpt lat="34.270070269703865" lon="-6.47753493860364">
        <ele>49.649999999999999</ele>
      </trkpt>
      <trkpt lat="34.270333712920547" lon="-6.477269316092134">
        <ele>51.57</ele>
      </trkpt>
      <trkpt lat="34.271218422800303" lon="-6.476194420829415">
        <ele>51.57</ele>
      </trkpt>
      <trkpt lat="34.271946558728814" lon="-6.475344579666853">
        <ele>51.57</ele>
      </trkpt>
      <trkpt lat="34.272621218115091" lon="-6.474506724625826">
        <ele>51.57</ele>
      </trkpt>
      <trkpt lat="34.27367708645761" lon="-6.473272237926722">
        <ele>53.009999999999998</ele>
      </trkpt>
      <trkpt lat="34.273749757558107" lon="-6.47315832786262">
        <ele>53.969999999999999</ele>
      </trkpt>
      <trkpt lat="34.273890657350421" lon="-6.472942577674985">
        <ele>56.859999999999999</ele>
      </trkpt>
      <trkpt lat="34.273973638191819" lon="-6.472847945988178">
        <ele>56.859999999999999</ele>
      </trkpt>
      <trkpt lat="34.274925319477916" lon="-6.471789311617613">
        <ele>58.299999999999997</ele>
      </trkpt>
      <trkpt lat="34.275667117908597" lon="-6.470845341682434">
        <ele>58.780000000000001</ele>
      </trkpt>
      <trkpt lat="34.276470523327589" lon="-6.469938922673464">
        <ele>60.700000000000003</ele>
      </trkpt>
      <trkpt lat="34.276535650715232" lon="-6.469845548272133">
        <ele>60.700000000000003</ele>
      </trkpt>
      <trkpt lat="34.27678526379168" lon="-6.469450760632753">
        <ele>61.18</ele>
      </trkpt>
      <trkpt lat="34.276827592402697" lon="-6.469353949651122">
        <ele>61.659999999999997</ele>
      </trkpt>
      <trkpt lat="34.276971844956279" lon="-6.469013225287199">
        <ele>63.100000000000001</ele>
      </trkpt>
      <trkpt lat="34.27700461819768" lon="-6.468992689624429">
        <ele>63.579999999999998</ele>
      </trkpt>
      <trkpt lat="34.277122551575303" lon="-6.46896930411458">
        <ele>63.579999999999998</ele>
      </trkpt>
      <trkpt lat="34.27717125043273" lon="-6.468949103727937">
        <ele>64.549999999999997</ele>
      </trkpt>
      <trkpt lat="34.277608282864094" lon="-6.468739053234458">
        <ele>65.989999999999995</ele>
      </trkpt>
      <trkpt lat="34.277729569002986" lon="-6.46869613789022">
        <ele>66.469999999999999</ele>
      </trkpt>
      <trkpt lat="34.277788996696472" lon="-6.468667052686214">
        <ele>66.469999999999999</ele>
      </trkpt>
      <trkpt lat="34.277953114360571" lon="-6.468577617779374">
        <ele>66.469999999999999</ele>
      </trkpt>
      <trkpt lat="34.278475558385253" lon="-6.468337895348668">
        <ele>66.469999999999999</ele>
      </trkpt>
      <trkpt lat="34.278531465679407" lon="-6.468300260603428">
        <ele>67.430000000000007</ele>
      </trkpt>
      <trkpt lat="34.278575889766216" lon="-6.468264553695917">
        <ele>68.870000000000005</ele>
      </trkpt>
      <trkpt lat="34.278609082102776" lon="-6.468233624473214">
        <ele>70.310000000000002</ele>
      </trkpt>
      <trkpt lat="34.278633641079068" lon="-6.468205042183399">
        <ele>71.269999999999996</ele>
      </trkpt>
      <trkpt lat="34.278897503390908" lon="-6.467826431617141">
        <ele>71.760000000000005</ele>
      </trkpt>
      <trkpt lat="34.279309809207916" lon="-6.467151856049895">
        <ele>71.760000000000005</ele>
      </trkpt>
      <trkpt lat="34.279790511354804" lon="-6.466246778145433">
        <ele>73.200000000000003</ele>
      </trkpt>
      <trkpt lat="34.279979271814227" lon="-6.465661469846964">
        <ele>74.640000000000001</ele>
      </trkpt>
      <trkpt lat="34.279979271814227" lon="-6.465658452361822">
        <ele>74.159999999999997</ele>
      </trkpt>
      <trkpt lat="34.280067030340433" lon="-6.465333066880703">
        <ele>74.159999999999997</ele>
      </trkpt>
      <trkpt lat="34.280301220715046" lon="-6.464613731950522">
        <ele>74.159999999999997</ele>
      </trkpt>
      <trkpt lat="34.280488137155771" lon="-6.463933791965246">
        <ele>74.159999999999997</ele>
      </trkpt>
      <trkpt lat="34.280741522088647" lon="-6.463181599974632">
        <ele>73.680000000000007</ele>
      </trkpt>
      <trkpt lat="34.280777648091316" lon="-6.463106330484152">
        <ele>73.680000000000007</ele>
      </trkpt>
      <trkpt lat="34.280805811285973" lon="-6.463031815364957">
        <ele>73.680000000000007</ele>
      </trkpt>
      <trkpt lat="34.280821736901999" lon="-6.462965095415711">
        <ele>73.200000000000003</ele>
      </trkpt>
      <trkpt lat="34.280830956995487" lon="-6.462904997169972">
        <ele>72.719999999999999</ele>
      </trkpt>
      <trkpt lat="34.280842691659927" lon="-6.462848586961627">
        <ele>71.760000000000005</ele>
      </trkpt>
      <trkpt lat="34.280854174867272" lon="-6.462791841477156">
        <ele>71.269999999999996</ele>
      </trkpt>
      <trkpt lat="34.280871609225869" lon="-6.462679523974657">
        <ele>68.870000000000005</ele>
      </trkpt>
      <trkpt lat="34.280950650572777" lon="-6.462406693026424">
        <ele>68.390000000000001</ele>
      </trkpt>
      <trkpt lat="34.280980657786131" lon="-6.462263278663158">
        <ele>68.870000000000005</ele>
      </trkpt>
      <trkpt lat="34.281011587008834" lon="-6.462181303650141">
        <ele>67.430000000000007</ele>
      </trkpt>
      <trkpt lat="34.281332027167082" lon="-6.461249068379402">
        <ele>64.069999999999993</ele>
      </trkpt>
      <trkpt lat="34.281476614996791" lon="-6.460911110043526">
        <ele>60.219999999999999</ele>
      </trkpt>
      <trkpt lat="34.281966872513294" lon="-6.460298392921686">
        <ele>58.780000000000001</ele>
      </trkpt>
      <trkpt lat="34.282558215782046" lon="-6.46006403490901">
        <ele>54.93</ele>
      </trkpt>
      <trkpt lat="34.283268079161644" lon="-6.460046097636223">
        <ele>52.530000000000001</ele>
      </trkpt>
      <trkpt lat="34.283814076334238" lon="-6.459919782355428">
        <ele>52.049999999999997</ele>
      </trkpt>
      <trkpt lat="34.284002333879471" lon="-6.459829593077302">
        <ele>50.609999999999999</ele>
      </trkpt>
      <trkpt lat="34.284418579190969" lon="-6.459676036611199">
        <ele>49.649999999999999</ele>
      </trkpt>
      <trkpt lat="34.284574398770928" lon="-6.459660781547427">
        <ele>48.200000000000003</ele>
      </trkpt>
      <trkpt lat="34.284784030169249" lon="-6.459598587825894">
        <ele>45.799999999999997</ele>
      </trkpt>
      <trkpt lat="34.285336313769221" lon="-6.459504123777151">
        <ele>44.359999999999999</ele>
      </trkpt>
      <trkpt lat="34.285655161365867" lon="-6.459362804889679">
        <ele>40.030000000000001</ele>
      </trkpt>
      <trkpt lat="34.285987503826618" lon="-6.45917278714478">
        <ele>39.07</ele>
      </trkpt>
      <trkpt lat="34.286561580374837" lon="-6.459155101329088">
        <ele>38.590000000000003</ele>
      </trkpt>
      <trkpt lat="34.286806583404541" lon="-6.459174882620573">
        <ele>36.670000000000002</ele>
      </trkpt>
      <trkpt lat="34.287419719621539" lon="-6.45902082324028">
        <ele>35.229999999999997</ele>
      </trkpt>
      <trkpt lat="34.287677966058254" lon="-6.459057619795203">
        <ele>35.229999999999997</ele>
      </trkpt>
      <trkpt lat="34.287783829495311" lon="-6.459141690284014">
        <ele>36.670000000000002</ele>
      </trkpt>
      <trkpt lat="34.288151124492288" lon="-6.459265490993857">
        <ele>36.670000000000002</ele>
      </trkpt>
      <trkpt lat="34.288626965135336" lon="-6.459367582574487">
        <ele>34.259999999999998</ele>
      </trkpt>
      <trkpt lat="34.289033152163029" lon="-6.459408821538091">
        <ele>29.460000000000001</ele>
      </trkpt>
      <trkpt lat="34.289791127666831" lon="-6.459509152919054">
        <ele>27.530000000000001</ele>
      </trkpt>
      <trkpt lat="34.290512977167964" lon="-6.459668073803186">
        <ele>27.530000000000001</ele>
      </trkpt>
      <trkpt lat="34.291334487497807" lon="-6.45996286533773">
        <ele>24.170000000000002</ele>
      </trkpt>
      <trkpt lat="34.292381973937154" lon="-6.460323203355074">
        <ele>19.84</ele>
      </trkpt>
      <trkpt lat="34.29391167126596" lon="-6.46089325658977">
        <ele>19.84</ele>
      </trkpt>
      <trkpt lat="34.294029688462615" lon="-6.460935417562723">
        <ele>19.359999999999999</ele>
      </trkpt>
      <trkpt lat="34.294819850474596" lon="-6.460929298773408">
        <ele>19.84</ele>
      </trkpt>
      <trkpt lat="34.295528624206781" lon="-6.461129793897271">
        <ele>21.289999999999999</ele>
      </trkpt>
      <trkpt lat="34.295596685260534" lon="-6.461324505507946">
        <ele>22.25</ele>
      </trkpt>
      <trkpt lat="34.295820817351341" lon="-6.462881695479155">
        <ele>20.809999999999999</ele>
      </trkpt>
      <trkpt lat="34.295864570885897" lon="-6.463156957179308">
        <ele>17.920000000000002</ele>
      </trkpt>
      <trkpt lat="34.296363294124603" lon="-6.463632714003325">
        <ele>17.440000000000001</ele>
      </trkpt>
      <trkpt lat="34.296748945489526" lon="-6.463866820558906">
        <ele>17.440000000000001</ele>
      </trkpt>
      <trkpt lat="34.297523349523544" lon="-6.463771099224687">
        <ele>17.440000000000001</ele>
      </trkpt>
      <trkpt lat="34.298371430486441" lon="-6.463566664606333">
        <ele>17.440000000000001</ele>
      </trkpt>
      <trkpt lat="34.298538314178586" lon="-6.463504638522863">
        <ele>17.440000000000001</ele>
      </trkpt>
      <trkpt lat="34.298565303906798" lon="-6.463474212214351">
        <ele>17.440000000000001</ele>
      </trkpt>
      <trkpt lat="34.298636130988598" lon="-6.463390393182635">
        <ele>17.440000000000001</ele>
      </trkpt>
      <trkpt lat="34.298791782930493" lon="-6.463411096483469">
        <ele>16.960000000000001</ele>
      </trkpt>
      <trkpt lat="34.298818269744515" lon="-6.463481588289142">
        <ele>16.48</ele>
      </trkpt>
      <trkpt lat="34.298819862306118" lon="-6.46357043646276">
        <ele>16.48</ele>
      </trkpt>
      <trkpt lat="34.298806618899107" lon="-6.463672611862421">
        <ele>16.48</ele>
      </trkpt>
      <trkpt lat="34.298790441825986" lon="-6.463785767555237">
        <ele>16.48</ele>
      </trkpt>
      <trkpt lat="34.298777868971229" lon="-6.463906886056066">
        <ele>16.48</ele>
      </trkpt>
      <trkpt lat="34.298771834000945" lon="-6.464038314297795">
        <ele>19.359999999999999</ele>
      </trkpt>
      <trkpt lat="34.298774348571897" lon="-6.464182147756219">
        <ele>20.809999999999999</ele>
      </trkpt>
      <trkpt lat="34.298783987760544" lon="-6.464337632060051">
        <ele>27.050000000000001</ele>
      </trkpt>
      <trkpt lat="34.299038797616959" lon="-6.465772865340114">
        <ele>32.340000000000003</ele>
      </trkpt>
      <trkpt lat="34.29970046505332" lon="-6.469100816175342">
        <ele>33.780000000000001</ele>
      </trkpt>
      <trkpt lat="34.299885956570506" lon="-6.471291845664382">
        <ele>33.780000000000001</ele>
      </trkpt>
      <trkpt lat="34.299604408442974" lon="-6.474249232560396">
        <ele>31.859999999999999</ele>
      </trkpt>
      <trkpt lat="34.29894651286304" lon="-6.476632375270128">
        <ele>26.09</ele>
      </trkpt>
      <trkpt lat="34.298626994714141" lon="-6.478771101683378">
        <ele>24.170000000000002</ele>
      </trkpt>
      <trkpt lat="34.298170348629355" lon="-6.482460564002395">
        <ele>23.690000000000001</ele>
      </trkpt>
      <trkpt lat="34.297232162207365" lon="-6.486089341342449">
        <ele>23.210000000000001</ele>
      </trkpt>
      <trkpt lat="34.29627520032227" lon="-6.489856168627739">
        <ele>18.399999999999999</ele>
      </trkpt>
      <trkpt lat="34.29617989808321" lon="-6.490455307066441">
        <ele>16.48</ele>
      </trkpt>
      <trkpt lat="34.296176293864846" lon="-6.490654209628701">
        <ele>15.52</ele>
      </trkpt>
      <trkpt lat="34.296187525615096" lon="-6.490853615105152">
        <ele>15.039999999999999</ele>
      </trkpt>
      <trkpt lat="34.296426745131612" lon="-6.49258959107101">
        <ele>14.56</ele>
      </trkpt>
      <trkpt lat="34.296543505042791" lon="-6.49332451634109">
        <ele>14.56</ele>
      </trkpt>
      <trkpt lat="34.29661625996232" lon="-6.493632467463613">
        <ele>15.039999999999999</ele>
      </trkpt>
      <trkpt lat="34.296713070943952" lon="-6.493848217651248">
        <ele>15.039999999999999</ele>
      </trkpt>
      <trkpt lat="34.296806529164314" lon="-6.494055753573775">
        <ele>15.039999999999999</ele>
      </trkpt>
      <trkpt lat="34.296820443123579" lon="-6.494112247601152">
        <ele>15.039999999999999</ele>
      </trkpt>
      <trkpt lat="34.296824047341943" lon="-6.494166059419513">
        <ele>15.039999999999999</ele>
      </trkpt>
      <trkpt lat="34.296821784228086" lon="-6.494216183200479">
        <ele>15.039999999999999</ele>
      </trkpt>
      <trkpt lat="34.296809043735266" lon="-6.494266139343381">
        <ele>15.039999999999999</ele>
      </trkpt>
      <trkpt lat="34.296783311292529" lon="-6.494321459904313">
        <ele>15.039999999999999</ele>
      </trkpt>
      <trkpt lat="34.296744838356972" lon="-6.494371499866247">
        <ele>15.039999999999999</ele>
      </trkpt>
      <trkpt lat="34.296697312965989" lon="-6.494410140439868">
        <ele>15.039999999999999</ele>
      </trkpt>
      <trkpt lat="34.296647608280182" lon="-6.494436375796795">
        <ele>15.039999999999999</ele>
      </trkpt>
      <trkpt lat="34.296596394851804" lon="-6.494454061612487">
        <ele>15.039999999999999</ele>
      </trkpt>
      <trkpt lat="34.296540571376681" lon="-6.494471663609147">
        <ele>15.039999999999999</ele>
      </trkpt>
      <trkpt lat="34.296477539464831" lon="-6.494497815147042">
        <ele>15.039999999999999</ele>
      </trkpt>
      <trkpt lat="34.296409226953983" lon="-6.494538048282266">
        <ele>13.119999999999999</ele>
      </trkpt>
      <trkpt lat="34.296339070424438" lon="-6.494592279195786">
        <ele>14.56</ele>
      </trkpt>
      <trkpt lat="34.296267740428448" lon="-6.494661262258887">
        <ele>16</ele>
      </trkpt>
      <trkpt lat="34.296196829527617" lon="-6.494738878682256">
        <ele>16.960000000000001</ele>
      </trkpt>
      <trkpt lat="34.295439776033163" lon="-6.495596179738641">
        <ele>17.440000000000001</ele>
      </trkpt>
      <trkpt lat="34.294991176575422" lon="-6.496075037866831">
        <ele>17.440000000000001</ele>
      </trkpt>
      <trkpt lat="34.294029604643583" lon="-6.497195614501834">
        <ele>17.920000000000002</ele>
      </trkpt>
      <trkpt lat="34.293345138430595" lon="-6.498201107606292">
        <ele>17.440000000000001</ele>
      </trkpt>
      <trkpt lat="34.292568974196911" lon="-6.499621672555804">
        <ele>17.920000000000002</ele>
      </trkpt>
      <trkpt lat="34.292453890666366" lon="-6.499884529039264">
        <ele>16.960000000000001</ele>
      </trkpt>
      <trkpt lat="34.29240963421762" lon="-6.499946303665638">
        <ele>15.039999999999999</ele>
      </trkpt>
      <trkpt lat="34.292372167110443" lon="-6.499972958117724">
        <ele>14.08</ele>
      </trkpt>
      <trkpt lat="34.292324474081397" lon="-6.499985530972481">
        <ele>14.08</ele>
      </trkpt>
      <trkpt lat="34.291729275137186" lon="-6.500080162659288">
        <ele>14.08</ele>
      </trkpt>
      <trkpt lat="34.290570979937911" lon="-6.50047511793673">
        <ele>14.08</ele>
      </trkpt>
      <trkpt lat="34.288979675620794" lon="-6.50104190222919">
        <ele>13.6</ele>
      </trkpt>
      <trkpt lat="34.288872135803103" lon="-6.501109041273594">
        <ele>13.6</ele>
      </trkpt>
      <trkpt lat="34.288778845220804" lon="-6.501194536685944">
        <ele>13.119999999999999</ele>
      </trkpt>
      <trkpt lat="34.288702988997102" lon="-6.501300232484937">
        <ele>13.119999999999999</ele>
      </trkpt>
      <trkpt lat="34.288649177178741" lon="-6.501424284651876">
        <ele>12.630000000000001</ele>
      </trkpt>
      <trkpt lat="34.288624282926321" lon="-6.501563005149365">
        <ele>12.630000000000001</ele>
      </trkpt>
      <trkpt lat="34.288628557696939" lon="-6.501700635999441">
        <ele>12.630000000000001</ele>
      </trkpt>
      <trkpt lat="34.288665689527988" lon="-6.501832734793425">
        <ele>12.630000000000001</ele>
      </trkpt>
      <trkpt lat="34.288734253495932" lon="-6.501951841637492">
        <ele>12.15</ele>
      </trkpt>
      <trkpt lat="34.288829807192087" lon="-6.502047227695584">
        <ele>12.15</ele>
      </trkpt>
      <trkpt lat="34.28894623182714" lon="-6.502113277092576">
        <ele>12.15</ele>
      </trkpt>
      <trkpt lat="34.289077324792743" lon="-6.502142027020454">
        <ele>11.19</ele>
      </trkpt>
      <trkpt lat="34.289218308404088" lon="-6.502141691744328">
        <ele>12.15</ele>
      </trkpt>
      <trkpt lat="34.289365746080875" lon="-6.502130040898919">
        <ele>15.52</ele>
      </trkpt>
      <trkpt lat="34.289520056918263" lon="-6.502109169960022">
        <ele>19.84</ele>
      </trkpt>
      <trkpt lat="34.291039444506168" lon="-6.5019790828228">
        <ele>18.879999999999999</ele>
      </trkpt>
      <trkpt lat="34.293526941910386" lon="-6.502044796943665">
        <ele>16.48</ele>
      </trkpt>
      <trkpt lat="34.29599616676569" lon="-6.502522900700569">
        <ele>16.960000000000001</ele>
      </trkpt>
      <trkpt lat="34.298451645299792" lon="-6.503474917262793">
        <ele>17.920000000000002</ele>
      </trkpt>
      <trkpt lat="34.301467705518007" lon="-6.505068987607956">
        <ele>18.399999999999999</ele>
      </trkpt>
      <trkpt lat="34.304078752174973" lon="-6.50656683370471">
        <ele>18.879999999999999</ele>
      </trkpt>
      <trkpt lat="34.305805843323469" lon="-6.507472414523363">
        <ele>19.359999999999999</ele>
      </trkpt>
      <trkpt lat="34.307285835966468" lon="-6.508191581815481">
        <ele>18.399999999999999</ele>
      </trkpt>
      <trkpt lat="34.307809369638562" lon="-6.508456533774734">
        <ele>17.440000000000001</ele>
      </trkpt>
      <trkpt lat="34.30788547731936" lon="-6.508503640070558">
        <ele>15.52</ele>
      </trkpt>
      <trkpt lat="34.308009529486299" lon="-6.508558709174395">
        <ele>13.6</ele>
      </trkpt>
      <trkpt lat="34.308556532487273" lon="-6.508905468508601">
        <ele>11.19</ele>
      </trkpt>
      <trkpt lat="34.309549033641815" lon="-6.509587755426765">
        <ele>9.27</ele>
      </trkpt>
      <trkpt lat="34.311078898608685" lon="-6.510558128356934">
        <ele>9.75</ele>
      </trkpt>
      <trkpt lat="34.313024170696735" lon="-6.511406544595957">
        <ele>9.75</ele>
      </trkpt>
      <trkpt lat="34.315187707543373" lon="-6.511927815154195">
        <ele>10.710000000000001</ele>
      </trkpt>
      <trkpt lat="34.317623237147927" lon="-6.511961426585913">
        <ele>11.67</ele>
      </trkpt>
      <trkpt lat="34.321246230974793" lon="-6.511382404714823">
        <ele>11.19</ele>
      </trkpt>
      <trkpt lat="34.327386226505041" lon="-6.510387388989329">
        <ele>10.23</ele>
      </trkpt>
      <trkpt lat="34.333378532901406" lon="-6.50943361222744">
        <ele>10.710000000000001</ele>
      </trkpt>
      <trkpt lat="34.338630633428693" lon="-6.508576897904277">
        <ele>11.19</ele>
      </trkpt>
      <trkpt lat="34.342023124918342" lon="-6.508316807448864">
        <ele>11.19</ele>
      </trkpt>
      <trkpt lat="34.34450869448483" lon="-6.5087363217026">
        <ele>9.75</ele>
      </trkpt>
      <trkpt lat="34.347088225185871" lon="-6.509764362126589">
        <ele>10.23</ele>
      </trkpt>
      <trkpt lat="34.353015152737498" lon="-6.512734405696392">
        <ele>9.27</ele>
      </trkpt>
      <trkpt lat="34.359254725277424" lon="-6.515861442312598">
        <ele>9.27</ele>
      </trkpt>
      <trkpt lat="34.365397486835718" lon="-6.518904408439994">
        <ele>8.789999999999999</ele>
      </trkpt>
      <trkpt lat="34.36785782687366" lon="-6.519655091688037">
        <ele>8.310000000000001</ele>
      </trkpt>
      <trkpt lat="34.370381617918611" lon="-6.519832871854305">
        <ele>8.789999999999999</ele>
      </trkpt>
      <trkpt lat="34.372793175280094" lon="-6.519465995952487">
        <ele>8.789999999999999</ele>
      </trkpt>
      <trkpt lat="34.375626174733043" lon="-6.51851573958993">
        <ele>8.789999999999999</ele>
      </trkpt>
      <trkpt lat="34.382363045588136" lon="-6.516258325427771">
        <ele>9.75</ele>
      </trkpt>
      <trkpt lat="34.386784248054028" lon="-6.514816302806139">
        <ele>11.67</ele>
      </trkpt>
      <trkpt lat="34.38925925642252" lon="-6.514399973675609">
        <ele>13.119999999999999</ele>
      </trkpt>
      <trkpt lat="34.391652541235089" lon="-6.514525702223182">
        <ele>12.15</ele>
      </trkpt>
      <trkpt lat="34.393693869933486" lon="-6.515046218410134">
        <ele>10.710000000000001</ele>
      </trkpt>
      <trkpt lat="34.395967461168766" lon="-6.516102673485875">
        <ele>10.23</ele>
      </trkpt>
      <trkpt lat="34.399166917428374" lon="-6.518272664397955">
        <ele>9.75</ele>
      </trkpt>
      <trkpt lat="34.401844432577491" lon="-6.520072594285011">
        <ele>10.23</ele>
      </trkpt>
      <trkpt lat="34.405102143064141" lon="-6.522236466407776">
        <ele>14.08</ele>
      </trkpt>
      <trkpt lat="34.407658958807588" lon="-6.523453686386347">
        <ele>18.399999999999999</ele>
      </trkpt>
      <trkpt lat="34.410012848675251" lon="-6.523953331634402">
        <ele>24.170000000000002</ele>
      </trkpt>
      <trkpt lat="34.412682149559259" lon="-6.523869512602687">
        <ele>23.690000000000001</ele>
      </trkpt>
      <trkpt lat="34.415183141827583" lon="-6.52323056012392">
        <ele>22.25</ele>
      </trkpt>
      <trkpt lat="34.418063834309578" lon="-6.522004622966051">
        <ele>19.84</ele>
      </trkpt>
      <trkpt lat="34.42275719717145" lon="-6.519995145499706">
        <ele>23.210000000000001</ele>
      </trkpt>
      <trkpt lat="34.427679553627968" lon="-6.517753573134542">
        <ele>25.129999999999999</ele>
      </trkpt>
      <trkpt lat="34.430363271385431" lon="-6.515845265239477">
        <ele>23.210000000000001</ele>
      </trkpt>
      <trkpt lat="34.432958057150245" lon="-6.513330861926079">
        <ele>22.25</ele>
      </trkpt>
      <trkpt lat="34.43557689897716" lon="-6.510993149131537">
        <ele>24.170000000000002</ele>
      </trkpt>
      <trkpt lat="34.438228597864509" lon="-6.50932808406651">
        <ele>28.5</ele>
      </trkpt>
      <trkpt lat="34.441080037504435" lon="-6.508179930970073">
        <ele>28.98</ele>
      </trkpt>
      <trkpt lat="34.444996900856495" lon="-6.506573623046279">
        <ele>25.609999999999999</ele>
      </trkpt>
      <trkpt lat="34.447369733825326" lon="-6.504975948482752">
        <ele>25.129999999999999</ele>
      </trkpt>
      <trkpt lat="34.450676562264562" lon="-6.502711242064834">
        <ele>22.73</ele>
      </trkpt>
      <trkpt lat="34.453602768480778" lon="-6.501342812553048">
        <ele>19.84</ele>
      </trkpt>
      <trkpt lat="34.456506762653589" lon="-6.500557847321034">
        <ele>21.77</ele>
      </trkpt>
      <trkpt lat="34.461601618677378" lon="-6.499468199908733">
        <ele>24.170000000000002</ele>
      </trkpt>
      <trkpt lat="34.466060204431415" lon="-6.498511657118797">
        <ele>25.609999999999999</ele>
      </trkpt>
      <trkpt lat="34.469780931249261" lon="-6.497503481805325">
        <ele>26.09</ele>
      </trkpt>
      <trkpt lat="34.472425505518913" lon="-6.496176877990365">
        <ele>26.09</ele>
      </trkpt>
      <trkpt lat="34.474868578836322" lon="-6.4943584240973">
        <ele>26.09</ele>
      </trkpt>
      <trkpt lat="34.477091543376446" lon="-6.49209463968873">
        <ele>24.649999999999999</ele>
      </trkpt>
      <trkpt lat="34.479838879778981" lon="-6.489334143698216">
        <ele>26.57</ele>
      </trkpt>
      <trkpt lat="34.482595352455974" lon="-6.487346207723022">
        <ele>27.530000000000001</ele>
      </trkpt>
      <trkpt lat="34.485459867864847" lon="-6.486014826223254">
        <ele>23.690000000000001</ele>
      </trkpt>
      <trkpt lat="34.488770551979542" lon="-6.485047303140163">
        <ele>23.210000000000001</ele>
      </trkpt>
      <trkpt lat="34.493163088336587" lon="-6.483798818662763">
        <ele>27.050000000000001</ele>
      </trkpt>
      <trkpt lat="34.498038254678249" lon="-6.482433406636119">
        <ele>25.129999999999999</ele>
      </trkpt>
      <trkpt lat="34.502114960923791" lon="-6.481052739545703">
        <ele>22.25</ele>
      </trkpt>
      <trkpt lat="34.505009735003114" lon="-6.479462357237935">
        <ele>19.84</ele>
      </trkpt>
      <trkpt lat="34.509269585832953" lon="-6.476646792143583">
        <ele>12.15</ele>
      </trkpt>
      <trkpt lat="34.513193741440773" lon="-6.474082348868251">
        <ele>11.67</ele>
      </trkpt>
      <trkpt lat="34.51615615747869" lon="-6.472699167206883">
        <ele>12.630000000000001</ele>
      </trkpt>
      <trkpt lat="34.521344220265746" lon="-6.470693461596966">
        <ele>11.67</ele>
      </trkpt>
      <trkpt lat="34.526908714324236" lon="-6.468510311096907">
        <ele>14.08</ele>
      </trkpt>
      <trkpt lat="34.530661795288324" lon="-6.466999892145395">
        <ele>15.52</ele>
      </trkpt>
      <trkpt lat="34.533805260434747" lon="-6.465145647525787">
        <ele>15.039999999999999</ele>
      </trkpt>
      <trkpt lat="34.536707913503051" lon="-6.462938524782658">
        <ele>12.630000000000001</ele>
      </trkpt>
      <trkpt lat="34.539123075082898" lon="-6.461564227938652">
        <ele>13.119999999999999</ele>
      </trkpt>
      <trkpt lat="34.542200574651361" lon="-6.460485141724348">
        <ele>14.56</ele>
      </trkpt>
      <trkpt lat="34.545699097216129" lon="-6.459935205057263">
        <ele>17.920000000000002</ele>
      </trkpt>
      <trkpt lat="34.550004545599222" lon="-6.459311926737428">
        <ele>20.32</ele>
      </trkpt>
      <trkpt lat="34.553661234676838" lon="-6.458571469411254">
        <ele>19.84</ele>
      </trkpt>
      <trkpt lat="34.55666882917285" lon="-6.457385011017323">
        <ele>19.84</ele>
      </trkpt>
      <trkpt lat="34.560641516000032" lon="-6.455451222136617">
        <ele>22.25</ele>
      </trkpt>
      <trkpt lat="34.563375189900398" lon="-6.4545679371804">
        <ele>25.609999999999999</ele>
      </trkpt>
      <trkpt lat="34.568113479763269" lon="-6.453363709151745">
        <ele>26.57</ele>
      </trkpt>
      <trkpt lat="34.570953771471977" lon="-6.452107178047299">
        <ele>26.57</ele>
      </trkpt>
      <trkpt lat="34.573839409276843" lon="-6.450311774387956">
        <ele>26.09</ele>
      </trkpt>
      <trkpt lat="34.577700952067971" lon="-6.447793347761035">
        <ele>24.170000000000002</ele>
      </trkpt>
      <trkpt lat="34.580635456368327" lon="-6.446355599910021">
        <ele>22.25</ele>
      </trkpt>
      <trkpt lat="34.58455097861588" lon="-6.444970238953829">
        <ele>21.77</ele>
      </trkpt>
      <trkpt lat="34.588886350393295" lon="-6.443404499441385">
        <ele>21.289999999999999</ele>
      </trkpt>
      <trkpt lat="34.591986481100321" lon="-6.441629128530622">
        <ele>22.25</ele>
      </trkpt>
      <trkpt lat="34.596350183710456" lon="-6.438766373321414">
        <ele>22.73</ele>
      </trkpt>
      <trkpt lat="34.600124135613441" lon="-6.436316845938563">
        <ele>22.25</ele>
      </trkpt>
      <trkpt lat="34.604226658120751" lon="-6.433756677433848">
        <ele>22.25</ele>
      </trkpt>
      <trkpt lat="34.607249842956662" lon="-6.432533506304026">
        <ele>21.289999999999999</ele>
      </trkpt>
      <trkpt lat="34.612194076180458" lon="-6.430791830644012">
        <ele>20.32</ele>
      </trkpt>
      <trkpt lat="34.61477268487215" lon="-6.429254170507193">
        <ele>20.32</ele>
      </trkpt>
      <trkpt lat="34.617275688797235" lon="-6.42710454761982">
        <ele>22.25</ele>
      </trkpt>
      <trkpt lat="34.620661558583379" lon="-6.424096282571554">
        <ele>25.129999999999999</ele>
      </trkpt>
      <trkpt lat="34.623303953558207" lon="-6.422346644103527">
        <ele>25.609999999999999</ele>
      </trkpt>
      <trkpt lat="34.626353373751044" lon="-6.420299699530006">
        <ele>22.73</ele>
      </trkpt>
      <trkpt lat="34.628432169556618" lon="-6.418354008346796">
        <ele>19.84</ele>
      </trkpt>
      <trkpt lat="34.631967069581151" lon="-6.414339663460851">
        <ele>19.84</ele>
      </trkpt>
      <trkpt lat="34.634332861751318" lon="-6.41232792288065">
        <ele>21.289999999999999</ele>
      </trkpt>
      <trkpt lat="34.637298127636313" lon="-6.410575183108449">
        <ele>21.77</ele>
      </trkpt>
      <trkpt lat="34.641148438677192" lon="-6.408928725868464">
        <ele>22.73</ele>
      </trkpt>
      <trkpt lat="34.641148438677192" lon="-6.408928725868464">
        <ele>20.809999999999999</ele>
      </trkpt>
      <trkpt lat="34.643588494509459" lon="-6.407455103471875">
        <ele>18.399999999999999</ele>
      </trkpt>
      <trkpt lat="34.646105412393808" lon="-6.40532735735178">
        <ele>18.399999999999999</ele>
      </trkpt>
      <trkpt lat="34.649856900796294" lon="-6.402179952710867">
        <ele>21.77</ele>
      </trkpt>
      <trkpt lat="34.65293113142252" lon="-6.400318248197436">
        <ele>23.210000000000001</ele>
      </trkpt>
      <trkpt lat="34.655843423679471" lon="-6.398530304431915">
        <ele>21.77</ele>
      </trkpt>
      <trkpt lat="34.658514652401209" lon="-6.396350674331188">
        <ele>21.289999999999999</ele>
      </trkpt>
      <trkpt lat="34.661341030150652" lon="-6.393363447859883">
        <ele>21.77</ele>
      </trkpt>
      <trkpt lat="34.663845039904118" lon="-6.391121875494719">
        <ele>22.25</ele>
      </trkpt>
      <trkpt lat="34.666638979688287" lon="-6.389432502910495">
        <ele>23.210000000000001</ele>
      </trkpt>
      <trkpt lat="34.669589828699827" lon="-6.3883426040411">
        <ele>24.649999999999999</ele>
      </trkpt>
      <trkpt lat="34.672942170873284" lon="-6.387783782556653">
        <ele>28.02</ele>
      </trkpt>
      <trkpt lat="34.677280308678746" lon="-6.387050868943334">
        <ele>31.379999999999999</ele>
      </trkpt>
      <trkpt lat="34.680344061926007" lon="-6.38597521930933">
        <ele>34.259999999999998</ele>
      </trkpt>
      <trkpt lat="34.684177609160542" lon="-6.384357092902064">
        <ele>34.259999999999998</ele>
      </trkpt>
      <trkpt lat="34.68784955330193" lon="-6.383360149338841">
        <ele>32.82</ele>
      </trkpt>
      <trkpt lat="34.692780543118715" lon="-6.38213706202805">
        <ele>31.859999999999999</ele>
      </trkpt>
      <trkpt lat="34.69584446400404" lon="-6.381111284717917">
        <ele>29.460000000000001</ele>
      </trkpt>
      <trkpt lat="34.701025653630495" lon="-6.378825791180134">
        <ele>29.460000000000001</ele>
      </trkpt>
      <trkpt lat="34.70663683488965" lon="-6.376371486112475">
        <ele>31.859999999999999</ele>
      </trkpt>
      <trkpt lat="34.711463218554854" lon="-6.374188419431448">
        <ele>33.780000000000001</ele>
      </trkpt>
      <trkpt lat="34.718047706410289" lon="-6.371170515194535">
        <ele>35.710000000000001</ele>
      </trkpt>
      <trkpt lat="34.722682144492865" lon="-6.368590900674462">
        <ele>37.630000000000003</ele>
      </trkpt>
      <trkpt lat="34.728031223639846" lon="-6.365515496581793">
        <ele>33.780000000000001</ele>
      </trkpt>
      <trkpt lat="34.734228299930692" lon="-6.36189166456461">
        <ele>29.940000000000001</ele>
      </trkpt>
      <trkpt lat="34.737452734261751" lon="-6.359479101374745">
        <ele>26.09</ele>
      </trkpt>
      <trkpt lat="34.740178026258945" lon="-6.356786834076047">
        <ele>21.289999999999999</ele>
      </trkpt>
      <trkpt lat="34.744042418897152" lon="-6.352701913565397">
        <ele>19.84</ele>
      </trkpt>
      <trkpt lat="34.746973151341081" lon="-6.349838068708777">
        <ele>20.809999999999999</ele>
      </trkpt>
      <trkpt lat="34.750663703307509" lon="-6.346981013193727">
        <ele>21.77</ele>
      </trkpt>
      <trkpt lat="34.756258204579353" lon="-6.342531563714147">
        <ele>22.73</ele>
      </trkpt>
      <trkpt lat="34.758657356724143" lon="-6.339933928102255">
        <ele>22.25</ele>
      </trkpt>
      <trkpt lat="34.76075098849833" lon="-6.33687780238688">
        <ele>14.56</ele>
      </trkpt>
      <trkpt lat="34.76288141682744" lon="-6.332945935428143">
        <ele>7.35</ele>
      </trkpt>
      <trkpt lat="34.766345154494047" lon="-6.326494887471199">
        <ele>10.23</ele>
      </trkpt>
      <trkpt lat="34.76853777654469" lon="-6.32276913151145">
        <ele>18.399999999999999</ele>
      </trkpt>
      <trkpt lat="34.770864676684141" lon="-6.31988181732595">
        <ele>23.210000000000001</ele>
      </trkpt>
      <trkpt lat="34.773246478289366" lon="-6.317666815593839">
        <ele>26.09</ele>
      </trkpt>
      <trkpt lat="34.776102108880877" lon="-6.315712071955204">
        <ele>25.609999999999999</ele>
      </trkpt>
      <trkpt lat="34.779619909822941" lon="-6.313883727416396">
        <ele>25.129999999999999</ele>
      </trkpt>
      <trkpt lat="34.782039681449533" lon="-6.312212208285928">
        <ele>28.5</ele>
      </trkpt>
      <trkpt lat="34.784198524430394" lon="-6.310112541541457">
        <ele>28.98</ele>
      </trkpt>
      <trkpt lat="34.786669006571174" lon="-6.306914342567325">
        <ele>26.09</ele>
      </trkpt>
      <trkpt lat="34.788804380223155" lon="-6.304419217631221">
        <ele>23.690000000000001</ele>
      </trkpt>
      <trkpt lat="34.791286597028375" lon="-6.30150499753654">
        <ele>20.32</ele>
      </trkpt>
      <trkpt lat="34.793009161949158" lon="-6.298593292012811">
        <ele>17.920000000000002</ele>
      </trkpt>
      <trkpt lat="34.794315565377474" lon="-6.295377910137177">
        <ele>17.440000000000001</ele>
      </trkpt>
      <trkpt lat="34.795189965516329" lon="-6.291850302368403">
        <ele>19.359999999999999</ele>
      </trkpt>
      <trkpt lat="34.796301992610097" lon="-6.285664374008775">
        <ele>17.920000000000002</ele>
      </trkpt>
      <trkpt lat="34.797398010268807" lon="-6.280477736145258">
        <ele>14.08</ele>
      </trkpt>
      <trkpt lat="34.798734923824668" lon="-6.276912661269307">
        <ele>13.119999999999999</ele>
      </trkpt>
      <trkpt lat="34.800759153440595" lon="-6.271499125286937">
        <ele>16.48</ele>
      </trkpt>
      <trkpt lat="34.801568761467934" lon="-6.267838329076767">
        <ele>22.25</ele>
      </trkpt>
      <trkpt lat="34.802734265103936" lon="-6.263212272897363">
        <ele>18.399999999999999</ele>
      </trkpt>
      <trkpt lat="34.804047709330916" lon="-6.260119853541255">
        <ele>16.48</ele>
      </trkpt>
      <trkpt lat="34.80583481490612" lon="-6.25703833065927">
        <ele>15.52</ele>
      </trkpt>
      <trkpt lat="34.809522517025471" lon="-6.250893222168088">
        <ele>13.6</ele>
      </trkpt>
      <trkpt lat="34.812484681606293" lon="-6.246045716106892">
        <ele>13.119999999999999</ele>
      </trkpt>
      <trkpt lat="34.814559957012534" lon="-6.243485631421208">
        <ele>16.960000000000001</ele>
      </trkpt>
      <trkpt lat="34.816968077793717" lon="-6.241358891129494">
        <ele>26.09</ele>
      </trkpt>
      <trkpt lat="34.820861220359802" lon="-6.23858624137938">
        <ele>28.02</ele>
      </trkpt>
      <trkpt lat="34.824201827868819" lon="-6.236513312906027">
        <ele>27.530000000000001</ele>
      </trkpt>
      <trkpt lat="34.827655423432589" lon="-6.234971126541495">
        <ele>22.73</ele>
      </trkpt>
      <trkpt lat="34.831616040319204" lon="-6.233004983514547">
        <ele>20.809999999999999</ele>
      </trkpt>
      <trkpt lat="34.83428374864161" lon="-6.230888804420829">
        <ele>16.48</ele>
      </trkpt>
      <trkpt lat="34.836955480277538" lon="-6.228727698326111">
        <ele>10.710000000000001</ele>
      </trkpt>
      <trkpt lat="34.839514056220651" lon="-6.227351808920503">
        <ele>13.119999999999999</ele>
      </trkpt>
      <trkpt lat="34.841369641944766" lon="-6.226712102070451">
        <ele>13.119999999999999</ele>
      </trkpt>
      <trkpt lat="34.844692312180996" lon="-6.225838037207723">
        <ele>9.75</ele>
      </trkpt>
      <trkpt lat="34.850972536951303" lon="-6.224235501140356">
        <ele>13.6</ele>
      </trkpt>
      <trkpt lat="34.854224380105734" lon="-6.22340795584023">
        <ele>17.440000000000001</ele>
      </trkpt>
      <trkpt lat="34.857590887695551" lon="-6.222534812986851">
        <ele>21.289999999999999</ele>
      </trkpt>
      <trkpt lat="34.861380262300372" lon="-6.221257327124476">
        <ele>23.210000000000001</ele>
      </trkpt>
      <trkpt lat="34.865187825635076" lon="-6.219573402777314">
        <ele>24.170000000000002</ele>
      </trkpt>
      <trkpt lat="34.869944052770734" lon="-6.217143656685948">
        <ele>24.649999999999999</ele>
      </trkpt>
      <trkpt lat="34.872911917045712" lon="-6.215619575232267">
        <ele>36.670000000000002</ele>
      </trkpt>
      <trkpt lat="34.874681336805224" lon="-6.214672084897757">
        <ele>38.109999999999999</ele>
      </trkpt>
      <trkpt lat="34.876213297247887" lon="-6.213873960077763">
        <ele>39.549999999999997</ele>
      </trkpt>
      <trkpt lat="34.87754987552762" lon="-6.213179770857096">
        <ele>40.990000000000002</ele>
      </trkpt>
      <trkpt lat="34.878870109096169" lon="-6.212554313242436">
        <ele>44.359999999999999</ele>
      </trkpt>
      <trkpt lat="34.880388071760535" lon="-6.211918210610747">
        <ele>46.759999999999998</ele>
      </trkpt>
      <trkpt lat="34.881466068327427" lon="-6.211545383557677">
        <ele>48.68</ele>
      </trkpt>
      <trkpt lat="34.883037926629186" lon="-6.211019000038505">
        <ele>54.93</ele>
      </trkpt>
      <trkpt lat="34.884448265656829" lon="-6.210711887106299">
        <ele>61.18</ele>
      </trkpt>
      <trkpt lat="34.885840499773622" lon="-6.21039379388094">
        <ele>68.390000000000001</ele>
      </trkpt>
      <trkpt lat="34.888670146465302" lon="-6.210053823888302">
        <ele>78.969999999999999</ele>
      </trkpt>
      <trkpt lat="34.890951616689563" lon="-6.209801528602839">
        <ele>86.659999999999997</ele>
      </trkpt>
      <trkpt lat="34.891200726851821" lon="-6.209768755361438">
        <ele>89.540000000000006</ele>
      </trkpt>
      <trkpt lat="34.892248967662454" lon="-6.209634728729725">
        <ele>84.25</ele>
      </trkpt>
      <trkpt lat="34.893865333870053" lon="-6.209462815895677">
        <ele>82.329999999999998</ele>
      </trkpt>
      <trkpt lat="34.896570844575763" lon="-6.209194930270314">
        <ele>77.040000000000006</ele>
      </trkpt>
      <trkpt lat="34.901184579357505" lon="-6.208682795986533">
        <ele>69.349999999999994</ele>
      </trkpt>
      <trkpt lat="34.905381146818399" lon="-6.207766570150852">
        <ele>65.989999999999995</ele>
      </trkpt>
      <trkpt lat="34.909860603511333" lon="-6.206406522542238">
        <ele>57.82</ele>
      </trkpt>
      <trkpt lat="34.916246272623539" lon="-6.204426800832152">
        <ele>50.609999999999999</ele>
      </trkpt>
      <trkpt lat="34.920410485938191" lon="-6.203436143696308">
        <ele>46.759999999999998</ele>
      </trkpt>
      <trkpt lat="34.924936294555664" lon="-6.202827366068959">
        <ele>44.359999999999999</ele>
      </trkpt>
      <trkpt lat="34.929992845281959" lon="-6.202258905395865">
        <ele>45.32</ele>
      </trkpt>
      <trkpt lat="34.933312917128205" lon="-6.202030163258314">
        <ele>45.32</ele>
      </trkpt>
      <trkpt lat="34.936837172135711" lon="-6.202224036678672">
        <ele>43.880000000000003</ele>
      </trkpt>
      <trkpt lat="34.942234866321087" lon="-6.202420089393854">
        <ele>44.840000000000003</ele>
      </trkpt>
      <trkpt lat="34.946552300825715" lon="-6.201976854354143">
        <ele>51.090000000000003</ele>
      </trkpt>
      <trkpt lat="34.952569585293531" lon="-6.201351648196578">
        <ele>59.740000000000002</ele>
      </trkpt>
      <trkpt lat="34.958423087373376" lon="-6.20076147839427">
        <ele>61.659999999999997</ele>
      </trkpt>
      <trkpt lat="34.963106056675315" lon="-6.200277674943209">
        <ele>57.82</ele>
      </trkpt>
      <trkpt lat="34.968928378075361" lon="-6.199712147936225">
        <ele>54.93</ele>
      </trkpt>
      <trkpt lat="34.975083041936159" lon="-6.199147207662463">
        <ele>55.890000000000001</ele>
      </trkpt>
      <trkpt lat="34.978445190936327" lon="-6.199151650071144">
        <ele>53.969999999999999</ele>
      </trkpt>
      <trkpt lat="34.981673648580909" lon="-6.199295399710536">
        <ele>53.009999999999998</ele>
      </trkpt>
      <trkpt lat="34.98441394418478" lon="-6.199399586766958">
        <ele>54.93</ele>
      </trkpt>
      <trkpt lat="34.987226072698832" lon="-6.199157768860459">
        <ele>63.579999999999998</ele>
      </trkpt>
      <trkpt lat="34.990116823464632" lon="-6.198332738131285">
        <ele>74.159999999999997</ele>
      </trkpt>
      <trkpt lat="34.995387447997928" lon="-6.196289397776127">
        <ele>81.849999999999994</ele>
      </trkpt>
      <trkpt lat="34.999515283852816" lon="-6.194430626928806">
        <ele>83.769999999999996</ele>
      </trkpt>
      <trkpt lat="35.003171972930431" lon="-6.192500106990337">
        <ele>81.849999999999994</ele>
      </trkpt>
      <trkpt lat="35.005862899124622" lon="-6.191119188442826">
        <ele>78.480000000000004</ele>
      </trkpt>
      <trkpt lat="35.009130416437984" lon="-6.189781939610839">
        <ele>76.560000000000002</ele>
      </trkpt>
      <trkpt lat="35.012308331206441" lon="-6.18883847258985">
        <ele>69.829999999999998</ele>
      </trkpt>
      <trkpt lat="35.015780199319124" lon="-6.188116036355496">
        <ele>64.549999999999997</ele>
      </trkpt>
      <trkpt lat="35.019422303885221" lon="-6.187393767759204">
        <ele>64.549999999999997</ele>
      </trkpt>
      <trkpt lat="35.021220222115517" lon="-6.187041057273746">
        <ele>62.619999999999997</ele>
      </trkpt>
      <trkpt lat="35.024664429947734" lon="-6.186367906630039">
        <ele>60.219999999999999</ele>
      </trkpt>
      <trkpt lat="35.028837360441685" lon="-6.185545809566975">
        <ele>58.780000000000001</ele>
      </trkpt>
      <trkpt lat="35.03329636529088" lon="-6.184568982571363">
        <ele>53.009999999999998</ele>
      </trkpt>
      <trkpt lat="35.036513842642307" lon="-6.183384452015162">
        <ele>47.719999999999999</ele>
      </trkpt>
      <trkpt lat="35.039418591186404" lon="-6.181786861270666">
        <ele>45.799999999999997</ele>
      </trkpt>
      <trkpt lat="35.044266013428569" lon="-6.178741632029414">
        <ele>44.840000000000003</ele>
      </trkpt>
      <trkpt lat="35.049432953819633" lon="-6.175501942634583">
        <ele>40.990000000000002</ele>
      </trkpt>
      <trkpt lat="35.053337328135967" lon="-6.173210749402642">
        <ele>36.189999999999998</ele>
      </trkpt>
      <trkpt lat="35.059060910716653" lon="-6.170402225106955">
        <ele>33.780000000000001</ele>
      </trkpt>
      <trkpt lat="35.064575867727399" lon="-6.16759923286736">
        <ele>31.859999999999999</ele>
      </trkpt>
      <trkpt lat="35.067985206842422" lon="-6.165238972753286">
        <ele>30.899999999999999</ele>
      </trkpt>
      <trkpt lat="35.071766199544072" lon="-6.162245292216539">
        <ele>30.420000000000002</ele>
      </trkpt>
      <trkpt lat="35.074296109378338" lon="-6.160265821963549">
        <ele>28.98</ele>
      </trkpt>
      <trkpt lat="35.077808042988181" lon="-6.157654440030456">
        <ele>27.050000000000001</ele>
      </trkpt>
      <trkpt lat="35.081927161663771" lon="-6.155055882409215">
        <ele>24.649999999999999</ele>
      </trkpt>
      <trkpt lat="35.085925832390785" lon="-6.152514824643731">
        <ele>24.170000000000002</ele>
      </trkpt>
      <trkpt lat="35.090063139796257" lon="-6.149906544014812">
        <ele>23.210000000000001</ele>
      </trkpt>
      <trkpt lat="35.093838851898909" lon="-6.147536896169186">
        <ele>23.690000000000001</ele>
      </trkpt>
      <trkpt lat="35.097377607598901" lon="-6.145726907998323">
        <ele>25.129999999999999</ele>
      </trkpt>
      <trkpt lat="35.100676054134965" lon="-6.144562996923924">
        <ele>25.609999999999999</ele>
      </trkpt>
      <trkpt lat="35.104741444811225" lon="-6.143589355051518">
        <ele>26.09</ele>
      </trkpt>
      <trkpt lat="35.109899248927832" lon="-6.142430221661925">
        <ele>26.57</ele>
      </trkpt>
      <trkpt lat="35.113591561093926" lon="-6.142078349366784">
        <ele>28.5</ele>
      </trkpt>
      <trkpt lat="35.117068123072386" lon="-6.142316898331046">
        <ele>32.82</ele>
      </trkpt>
      <trkpt lat="35.120261628180742" lon="-6.143019637092948">
        <ele>38.590000000000003</ele>
      </trkpt>
      <trkpt lat="35.123867522925138" lon="-6.144258566200733">
        <ele>44.840000000000003</ele>
      </trkpt>
      <trkpt lat="35.129229174926877" lon="-6.146144662052393">
        <ele>58.299999999999997</ele>
      </trkpt>
      <trkpt lat="35.132022276520729" lon="-6.146866260096431">
        <ele>61.659999999999997</ele>
      </trkpt>
      <trkpt lat="35.135123748332262" lon="-6.146993916481733">
        <ele>53.969999999999999</ele>
      </trkpt>
      <trkpt lat="35.137747367843986" lon="-6.146611617878079">
        <ele>42.920000000000002</ele>
      </trkpt>
      <trkpt lat="35.140470564365387" lon="-6.145691284909844">
        <ele>32.82</ele>
      </trkpt>
      <trkpt lat="35.142801990732551" lon="-6.144432574510574">
        <ele>19.84</ele>
      </trkpt>
      <trkpt lat="35.14515177346766" lon="-6.142598614096642">
        <ele>11.19</ele>
      </trkpt>
      <trkpt lat="35.147411450743675" lon="-6.140099046751857">
        <ele>8.310000000000001</ele>
      </trkpt>
      <trkpt lat="35.150676369667053" lon="-6.13581488840282">
        <ele>7.35</ele>
      </trkpt>
      <trkpt lat="35.153357237577438" lon="-6.132445614784956">
        <ele>7.83</ele>
      </trkpt>
      <trkpt lat="35.155624207109213" lon="-6.130352821201086">
        <ele>8.789999999999999</ele>
      </trkpt>
      <trkpt lat="35.158334411680698" lon="-6.128574265167117">
        <ele>10.23</ele>
      </trkpt>
      <trkpt lat="35.163027187809348" lon="-6.126002110540867">
        <ele>8.310000000000001</ele>
      </trkpt>
      <trkpt lat="35.167388040572405" lon="-6.123591810464859">
        <ele>6.87</ele>
      </trkpt>
      <trkpt lat="35.169955585151911" lon="-6.1216607876122">
        <ele>7.35</ele>
      </trkpt>
      <trkpt lat="35.172244347631931" lon="-6.119190892204642">
        <ele>10.710000000000001</ele>
      </trkpt>
      <trkpt lat="35.174016281962395" lon="-6.116549838334322">
        <ele>12.630000000000001</ele>
      </trkpt>
      <trkpt lat="35.175590654835105" lon="-6.113384328782558">
        <ele>14.08</ele>
      </trkpt>
      <trkpt lat="35.176553316414356" lon="-6.110398024320602">
        <ele>17.920000000000002</ele>
      </trkpt>
      <trkpt lat="35.177317997440696" lon="-6.106531536206603">
        <ele>23.210000000000001</ele>
      </trkpt>
      <trkpt lat="35.178332626819611" lon="-6.102200858294964">
        <ele>30.420000000000002</ele>
      </trkpt>
      <trkpt lat="35.179696949198842" lon="-6.098783724009991">
        <ele>40.030000000000001</ele>
      </trkpt>
      <trkpt lat="35.181021289899945" lon="-6.096432600170374">
        <ele>54.93</ele>
      </trkpt>
      <trkpt lat="35.182114960625768" lon="-6.094726799055934">
        <ele>72.719999999999999</ele>
      </trkpt>
      <trkpt lat="35.183740463107824" lon="-6.092206444591284">
        <ele>84.25</ele>
      </trkpt>
      <trkpt lat="35.185434529557824" lon="-6.089608557522297">
        <ele>92.900000000000006</ele>
      </trkpt>
      <trkpt lat="35.187727147713304" lon="-6.086074411869049">
        <ele>98.189999999999998</ele>
      </trkpt>
      <trkpt lat="35.190056562423706" lon="-6.082478575408459">
        <ele>102.52</ele>
      </trkpt>
      <trkpt lat="35.191280907019973" lon="-6.080587282776833">
        <ele>106.84</ele>
      </trkpt>
      <trkpt lat="35.192726617679" lon="-6.078367587178946">
        <ele>110.20999999999999</ele>
      </trkpt>
      <trkpt lat="35.194379109889269" lon="-6.075811190530658">
        <ele>113.09</ele>
      </trkpt>
      <trkpt lat="35.195891037583351" lon="-6.073623429983854">
        <ele>115.01000000000001</ele>
      </trkpt>
      <trkpt lat="35.197466751560569" lon="-6.071980576962233">
        <ele>116.45999999999999</ele>
      </trkpt>
      <trkpt lat="35.199393080547452" lon="-6.070689763873816">
        <ele>119.34</ele>
      </trkpt>
      <trkpt lat="35.20168955437839" lon="-6.069798935204744">
        <ele>124.63</ele>
      </trkpt>
      <trkpt lat="35.204535042867064" lon="-6.069083707407117">
        <ele>132.80000000000001</ele>
      </trkpt>
      <trkpt lat="35.206651138141751" lon="-6.068039322271943">
        <ele>138.56999999999999</ele>
      </trkpt>
      <trkpt lat="35.208491133525968" lon="-6.066582044586539">
        <ele>144.34</ele>
      </trkpt>
      <trkpt lat="35.21022099070251" lon="-6.064692595973611">
        <ele>153.94999999999999</ele>
      </trkpt>
      <trkpt lat="35.212240777909756" lon="-6.062894091010094">
        <ele>161.63999999999999</ele>
      </trkpt>
      <trkpt lat="35.214414205402136" lon="-6.061692796647549">
        <ele>165.96000000000001</ele>
      </trkpt>
      <trkpt lat="35.21674320101738" lon="-6.061052083969116">
        <ele>170.77000000000001</ele>
      </trkpt>
      <trkpt lat="35.219402443617582" lon="-6.060993829742074">
        <ele>173.16999999999999</ele>
      </trkpt>
      <trkpt lat="35.221501188352704" lon="-6.061483165249229">
        <ele>176.06</ele>
      </trkpt>
      <trkpt lat="35.225458703935146" lon="-6.062922589480877">
        <ele>178.94</ele>
      </trkpt>
      <trkpt lat="35.228847088292241" lon="-6.064404929056764">
        <ele>181.34999999999999</ele>
      </trkpt>
      <trkpt lat="35.231402898207307" lon="-6.066164877265692">
        <ele>184.71000000000001</ele>
      </trkpt>
      <trkpt lat="35.234662368893623" lon="-6.06866704300046">
        <ele>186.63</ele>
      </trkpt>
      <trkpt lat="35.237012654542923" lon="-6.069749984890223">
        <ele>189.52000000000001</ele>
      </trkpt>
      <trkpt lat="35.239413902163506" lon="-6.070285169407725">
        <ele>191.44</ele>
      </trkpt>
      <trkpt lat="35.242211781442165" lon="-6.070350799709559">
        <ele>193.84</ele>
      </trkpt>
      <trkpt lat="35.24485400877893" lon="-6.070544337853789">
        <ele>195.28</ele>
      </trkpt>
      <trkpt lat="35.247478215023875" lon="-6.071247328072786">
        <ele>197.21000000000001</ele>
      </trkpt>
      <trkpt lat="35.252835843712091" lon="-6.07300853356719">
        <ele>198.65000000000001</ele>
      </trkpt>
      <trkpt lat="35.255615031346679" lon="-6.073404578492045">
        <ele>198.65000000000001</ele>
      </trkpt>
      <trkpt lat="35.258450210094452" lon="-6.07319955714047">
        <ele>197.69</ele>
      </trkpt>
      <trkpt lat="35.261032255366445" lon="-6.07245440594852">
        <ele>195.28</ele>
      </trkpt>
      <trkpt lat="35.263730138540268" lon="-6.071114055812359">
        <ele>195.28</ele>
      </trkpt>
      <trkpt lat="35.267728138715029" lon="-6.069059567525983">
        <ele>195.28</ele>
      </trkpt>
      <trkpt lat="35.270504392683506" lon="-6.068281978368759">
        <ele>194.80000000000001</ele>
      </trkpt>
      <trkpt lat="35.273618856444955" lon="-6.067976374179125">
        <ele>193.36000000000001</ele>
      </trkpt>
      <trkpt lat="35.275941733270884" lon="-6.06752660125494">
        <ele>190.96000000000001</ele>
      </trkpt>
      <trkpt lat="35.278110969811678" lon="-6.066452376544476">
        <ele>189.52000000000001</ele>
      </trkpt>
      <trkpt lat="35.279848370701075" lon="-6.064987387508154">
        <ele>184.71000000000001</ele>
      </trkpt>
      <trkpt lat="35.282537117600441" lon="-6.06197627261281">
        <ele>180.38</ele>
      </trkpt>
      <trkpt lat="35.283938487991691" lon="-6.059692371636629">
        <ele>172.69</ele>
      </trkpt>
      <trkpt lat="35.284671820700169" lon="-6.057477537542582">
        <ele>157.78999999999999</ele>
      </trkpt>
      <trkpt lat="35.28504079207778" lon="-6.054779989644885">
        <ele>146.25999999999999</ele>
      </trkpt>
      <trkpt lat="35.284854713827372" lon="-6.052101384848356">
        <ele>136.16</ele>
      </trkpt>
      <trkpt lat="35.28444517403841" lon="-6.048957081511617">
        <ele>126.55</ele>
      </trkpt>
      <trkpt lat="35.284606190398335" lon="-6.046351483091712">
        <ele>127.51000000000001</ele>
      </trkpt>
      <trkpt lat="35.285283867269754" lon="-6.043839426711202">
        <ele>127.98999999999999</ele>
      </trkpt>
      <trkpt lat="35.28640067204833" lon="-6.041599866002798">
        <ele>127.03</ele>
      </trkpt>
      <trkpt lat="35.289480937644839" lon="-6.03639998473227">
        <ele>123.19</ele>
      </trkpt>
      <trkpt lat="35.291714798659086" lon="-6.033053677529097">
        <ele>119.34</ele>
      </trkpt>
      <trkpt lat="35.293767275288701" lon="-6.030925177037716">
        <ele>114.05</ele>
      </trkpt>
      <trkpt lat="35.29636038467288" lon="-6.029081828892231">
        <ele>113.09</ele>
      </trkpt>
      <trkpt lat="35.298917451873422" lon="-6.027880283072591">
        <ele>107.31999999999999</ele>
      </trkpt>
      <trkpt lat="35.301614413037896" lon="-6.026516044512391">
        <ele>94.349999999999994</ele>
      </trkpt>
      <trkpt lat="35.303698992356658" lon="-6.024714941158891">
        <ele>87.620000000000005</ele>
      </trkpt>
      <trkpt lat="35.305675696581602" lon="-6.022216714918613">
        <ele>90.5</ele>
      </trkpt>
      <trkpt lat="35.3091433737427" lon="-6.017906153574586">
        <ele>94.829999999999998</ele>
      </trkpt>
      <trkpt lat="35.311597259715199" lon="-6.015719901770353">
        <ele>98.670000000000002</ele>
      </trkpt>
      <trkpt lat="35.314222807064652" lon="-6.01404913701117">
        <ele>103</ele>
      </trkpt>
      <trkpt lat="35.316986236721277" lon="-6.01286075077951">
        <ele>101.08</ele>
      </trkpt>
      <trkpt lat="35.319785540923476" lon="-6.012197071686387">
        <ele>94.829999999999998</ele>
      </trkpt>
      <trkpt lat="35.322860693559051" lon="-6.012076791375876">
        <ele>83.290000000000006</ele>
      </trkpt>
      <trkpt lat="35.327122388407588" lon="-6.012373762205243">
        <ele>73.680000000000007</ele>
      </trkpt>
      <trkpt lat="35.332840941846371" lon="-6.01283635944128">
        <ele>64.069999999999993</ele>
      </trkpt>
      <trkpt lat="35.339285954833031" lon="-6.013368275016546">
        <ele>56.859999999999999</ele>
      </trkpt>
      <trkpt lat="35.344145530834794" lon="-6.013770019635558">
        <ele>53.969999999999999</ele>
      </trkpt>
      <trkpt lat="35.348531613126397" lon="-6.014459347352386">
        <ele>53.490000000000002</ele>
      </trkpt>
      <trkpt lat="35.353188263252378" lon="-6.015655109658837">
        <ele>52.530000000000001</ele>
      </trkpt>
      <trkpt lat="35.35812302492559" lon="-6.016863863915205">
        <ele>51.090000000000003</ele>
      </trkpt>
      <trkpt lat="35.362148098647594" lon="-6.017293436452746">
        <ele>49.649999999999999</ele>
      </trkpt>
      <trkpt lat="35.367693062871695" lon="-6.017703898251057">
        <ele>47.240000000000002</ele>
      </trkpt>
      <trkpt lat="35.370994191616774" lon="-6.018305802717805">
        <ele>44.840000000000003</ele>
      </trkpt>
      <trkpt lat="35.374095747247338" lon="-6.019217586144805">
        <ele>43.399999999999999</ele>
      </trkpt>
      <trkpt lat="35.378320310264826" lon="-6.020789528265595">
        <ele>43.880000000000003</ele>
      </trkpt>
      <trkpt lat="35.381993511691689" lon="-6.022167261689901">
        <ele>48.68</ele>
      </trkpt>
      <trkpt lat="35.385519107803702" lon="-6.02319186553359">
        <ele>60.700000000000003</ele>
      </trkpt>
      <trkpt lat="35.388324530795217" lon="-6.023405268788338">
        <ele>68.390000000000001</ele>
      </trkpt>
      <trkpt lat="35.39116658270359" lon="-6.023053899407387">
        <ele>71.760000000000005</ele>
      </trkpt>
      <trkpt lat="35.393937220796943" lon="-6.022180588915944">
        <ele>69.829999999999998</ele>
      </trkpt>
      <trkpt lat="35.39748452603817" lon="-6.020819116383791">
        <ele>65.989999999999995</ele>
      </trkpt>
      <trkpt lat="35.400468902662396" lon="-6.020268006250262">
        <ele>61.659999999999997</ele>
      </trkpt>
      <trkpt lat="35.403201403096318" lon="-6.02030991576612">
        <ele>52.530000000000001</ele>
      </trkpt>
      <trkpt lat="35.406378898769617" lon="-6.020961357280612">
        <ele>41.469999999999999</ele>
      </trkpt>
      <trkpt lat="35.410760538652539" lon="-6.022218307480216">
        <ele>28.5</ele>
      </trkpt>
      <trkpt lat="35.415756152942777" lon="-6.023555640131235">
        <ele>17.440000000000001</ele>
      </trkpt>
      <trkpt lat="35.420621680095792" lon="-6.024896996095777">
        <ele>19.359999999999999</ele>
      </trkpt>
      <trkpt lat="35.425591561943293" lon="-6.026256624609232">
        <ele>31.379999999999999</ele>
      </trkpt>
      <trkpt lat="35.428904592990875" lon="-6.02700169198215">
        <ele>38.590000000000003</ele>
      </trkpt>
      <trkpt lat="35.431905146688223" lon="-6.027231272310019">
        <ele>45.799999999999997</ele>
      </trkpt>
      <trkpt lat="35.435155229642987" lon="-6.026972187682986">
        <ele>43.399999999999999</ele>
      </trkpt>
      <trkpt lat="35.438437582924962" lon="-6.026167524978519">
        <ele>30.899999999999999</ele>
      </trkpt>
      <trkpt lat="35.443175118416548" lon="-6.024466417729855">
        <ele>23.210000000000001</ele>
      </trkpt>
      <trkpt lat="35.447540581226349" lon="-6.02291383780539">
        <ele>15.039999999999999</ele>
      </trkpt>
      <trkpt lat="35.451894560828805" lon="-6.02116210386157">
        <ele>9.75</ele>
      </trkpt>
      <trkpt lat="35.454439809545875" lon="-6.019735923036933">
        <ele>9.27</ele>
      </trkpt>
      <trkpt lat="35.457238694652915" lon="-6.017757961526513">
        <ele>10.710000000000001</ele>
      </trkpt>
      <trkpt lat="35.459747901186347" lon="-6.01561713963747">
        <ele>10.710000000000001</ele>
      </trkpt>
      <trkpt lat="35.462338663637638" lon="-6.012797132134438">
        <ele>10.23</ele>
      </trkpt>
      <trkpt lat="35.464697415009141" lon="-6.009654002264142">
        <ele>9.75</ele>
      </trkpt>
      <trkpt lat="35.466129966080189" lon="-6.007733624428511">
        <ele>8.789999999999999</ele>
      </trkpt>
      <trkpt lat="35.468288976699114" lon="-6.004870198667049">
        <ele>6.39</ele>
      </trkpt>
      <trkpt lat="35.47075099311769" lon="-6.001595724374056">
        <ele>6.39</ele>
      </trkpt>
      <trkpt lat="35.473702596500516" lon="-5.997818252071738">
        <ele>8.789999999999999</ele>
      </trkpt>
      <trkpt lat="35.475563881918788" lon="-5.996080432087183">
        <ele>13.119999999999999</ele>
      </trkpt>
      <trkpt lat="35.477765388786793" lon="-5.994543274864554">
        <ele>25.129999999999999</ele>
      </trkpt>
      <trkpt lat="35.480032274499536" lon="-5.993470642715693">
        <ele>34.259999999999998</ele>
      </trkpt>
      <trkpt lat="35.483064176514745" lon="-5.992328356951475">
        <ele>40.030000000000001</ele>
      </trkpt>
      <trkpt lat="35.486032040789723" lon="-5.9912218619138">
        <ele>34.740000000000002</ele>
      </trkpt>
      <trkpt lat="35.489477170631289" lon="-5.989931132644415">
        <ele>27.530000000000001</ele>
      </trkpt>
      <trkpt lat="35.491638695821166" lon="-5.989134348928928">
        <ele>20.809999999999999</ele>
      </trkpt>
      <trkpt lat="35.49379812553525" lon="-5.988326165825129">
        <ele>13.6</ele>
      </trkpt>
      <trkpt lat="35.496448818594217" lon="-5.98747062496841">
        <ele>6.87</ele>
      </trkpt>
      <trkpt lat="35.498959366232157" lon="-5.987005680799484">
        <ele>6.39</ele>
      </trkpt>
      <trkpt lat="35.501025086268783" lon="-5.986894285306335">
        <ele>8.789999999999999</ele>
      </trkpt>
      <trkpt lat="35.503375623375177" lon="-5.987047338858247">
        <ele>9.75</ele>
      </trkpt>
      <trkpt lat="35.505387280136347" lon="-5.987414130941033">
        <ele>8.789999999999999</ele>
      </trkpt>
      <trkpt lat="35.509013459086418" lon="-5.988262798637152">
        <ele>9.75</ele>
      </trkpt>
      <trkpt lat="35.511864144355059" lon="-5.988934021443129">
        <ele>8.789999999999999</ele>
      </trkpt>
      <trkpt lat="35.515422597527504" lon="-5.989779839292169">
        <ele>9.27</ele>
      </trkpt>
      <trkpt lat="35.519958464428782" lon="-5.990853477269411">
        <ele>9.27</ele>
      </trkpt>
      <trkpt lat="35.523193208500743" lon="-5.991353876888752">
        <ele>8.310000000000001</ele>
      </trkpt>
      <trkpt lat="35.526311444118619" lon="-5.991297299042344">
        <ele>14.56</ele>
      </trkpt>
      <trkpt lat="35.529402438551188" lon="-5.990718947723508">
        <ele>31.859999999999999</ele>
      </trkpt>
      <trkpt lat="35.532512292265892" lon="-5.989578003063798">
        <ele>50.130000000000003</ele>
      </trkpt>
      <trkpt lat="35.536328237503767" lon="-5.987734319642186">
        <ele>54.450000000000003</ele>
      </trkpt>
      <trkpt lat="35.540281981229782" lon="-5.985798938199878">
        <ele>53.490000000000002</ele>
      </trkpt>
      <trkpt lat="35.544494222849607" lon="-5.983762387186289">
        <ele>50.130000000000003</ele>
      </trkpt>
      <trkpt lat="35.548609318211675" lon="-5.981746874749661">
        <ele>44.359999999999999</ele>
      </trkpt>
      <trkpt lat="35.553103610873222" lon="-5.979548385366797">
        <ele>35.229999999999997</ele>
      </trkpt>
      <trkpt lat="35.555997546762228" lon="-5.978120863437653">
        <ele>24.649999999999999</ele>
      </trkpt>
      <trkpt lat="35.55890447460115" lon="-5.97644280642271">
        <ele>14.56</ele>
      </trkpt>
      <trkpt lat="35.561284180730581" lon="-5.974418995901942">
        <ele>13.119999999999999</ele>
      </trkpt>
      <trkpt lat="35.563864046707749" lon="-5.972031326964498">
        <ele>14.56</ele>
      </trkpt>
      <trkpt lat="35.567905465140939" lon="-5.968296770006418">
        <ele>16.48</ele>
      </trkpt>
      <trkpt lat="35.570875592529774" lon="-5.965562090277672">
        <ele>17.440000000000001</ele>
      </trkpt>
      <trkpt lat="35.57479371316731" lon="-5.961950663477182">
        <ele>19.84</ele>
      </trkpt>
      <trkpt lat="35.57799425907433" lon="-5.959038706496358">
        <ele>23.690000000000001</ele>
      </trkpt>
      <trkpt lat="35.580028966069221" lon="-5.957439774647355">
        <ele>28.98</ele>
      </trkpt>
      <trkpt lat="35.581971220672131" lon="-5.956609463319182">
        <ele>41.950000000000003</ele>
      </trkpt>
      <trkpt lat="35.584070300683379" lon="-5.95635331235826">
        <ele>48.200000000000003</ele>
      </trkpt>
      <trkpt lat="35.586211709305644" lon="-5.956716584041715">
        <ele>47.240000000000002</ele>
      </trkpt>
      <trkpt lat="35.588255887851119" lon="-5.957710091024637">
        <ele>40.030000000000001</ele>
      </trkpt>
      <trkpt lat="35.590295791625977" lon="-5.959375072270632">
        <ele>17.440000000000001</ele>
      </trkpt>
      <trkpt lat="35.592139223590493" lon="-5.960605032742024">
        <ele>6.87</ele>
      </trkpt>
      <trkpt lat="35.594044597819448" lon="-5.961230909451842">
        <ele>3.98</ele>
      </trkpt>
      <trkpt lat="35.595994982868433" lon="-5.961369127035141">
        <ele>5.91</ele>
      </trkpt>
      <trkpt lat="35.598736871033907" lon="-5.961432913318276">
        <ele>6.87</ele>
      </trkpt>
      <trkpt lat="35.601757960394025" lon="-5.961477169767022">
        <ele>9.27</ele>
      </trkpt>
      <trkpt lat="35.607752865180373" lon="-5.961561826989055">
        <ele>14.08</ele>
      </trkpt>
      <trkpt lat="35.612172223627567" lon="-5.961370635777712">
        <ele>19.84</ele>
      </trkpt>
      <trkpt lat="35.616152873262763" lon="-5.960623808205128">
        <ele>28.98</ele>
      </trkpt>
      <trkpt lat="35.620536440983415" lon="-5.959432069212198">
        <ele>30.420000000000002</ele>
      </trkpt>
      <trkpt lat="35.623292410746217" lon="-5.959176924079657">
        <ele>26.09</ele>
      </trkpt>
      <trkpt lat="35.626110741868615" lon="-5.959491245448589">
        <ele>23.690000000000001</ele>
      </trkpt>
      <trkpt lat="35.63098213635385" lon="-5.960439406335354">
        <ele>23.210000000000001</ele>
      </trkpt>
      <trkpt lat="35.634484933689237" lon="-5.960803180932999">
        <ele>23.690000000000001</ele>
      </trkpt>
      <trkpt lat="35.63750091008842" lon="-5.960482489317656">
        <ele>21.77</ele>
      </trkpt>
      <trkpt lat="35.641854386776686" lon="-5.959674809128046">
        <ele>21.77</ele>
      </trkpt>
      <trkpt lat="35.64681957475841" lon="-5.958698987960815">
        <ele>22.73</ele>
      </trkpt>
      <trkpt lat="35.649482253938913" lon="-5.957618728280067">
        <ele>23.690000000000001</ele>
      </trkpt>
      <trkpt lat="35.652229590341449" lon="-5.955847213044763">
        <ele>22.25</ele>
      </trkpt>
      <trkpt lat="35.654833344742656" lon="-5.95346063375473">
        <ele>19.84</ele>
      </trkpt>
      <trkpt lat="35.659482283517718" lon="-5.948751429095864">
        <ele>19.359999999999999</ele>
      </trkpt>
      <trkpt lat="35.663612466305494" lon="-5.944575984030962">
        <ele>19.84</ele>
      </trkpt>
      <trkpt lat="35.667849937453866" lon="-5.940295429900289">
        <ele>18.399999999999999</ele>
      </trkpt>
      <trkpt lat="35.671328511089087" lon="-5.936782574281097">
        <ele>18.399999999999999</ele>
      </trkpt>
      <trkpt lat="35.673857666552067" lon="-5.934077566489577">
        <ele>17.920000000000002</ele>
      </trkpt>
      <trkpt lat="35.675518456846476" lon="-5.931904306635261">
        <ele>18.879999999999999</ele>
      </trkpt>
      <trkpt lat="35.676876744255424" lon="-5.929618226364255">
        <ele>19.359999999999999</ele>
      </trkpt>
      <trkpt lat="35.677747121080756" lon="-5.92801870778203">
        <ele>19.359999999999999</ele>
      </trkpt>
      <trkpt lat="35.677964631468058" lon="-5.927615705877543">
        <ele>20.32</ele>
      </trkpt>
      <trkpt lat="35.677959602326155" lon="-5.927609503269196">
        <ele>19.84</ele>
      </trkpt>
      <trkpt lat="35.677991285920143" lon="-5.927563151344657">
        <ele>20.32</ele>
      </trkpt>
      <trkpt lat="35.678007211536169" lon="-5.927536496892571">
        <ele>19.84</ele>
      </trkpt>
      <trkpt lat="35.678023975342512" lon="-5.927492743358016">
        <ele>19.359999999999999</ele>
      </trkpt>
      <trkpt lat="35.678353887051344" lon="-5.926913553848863">
        <ele>19.359999999999999</ele>
      </trkpt>
      <trkpt lat="35.679013207554817" lon="-5.925734471529722">
        <ele>19.359999999999999</ele>
      </trkpt>
      <trkpt lat="35.680136131122708" lon="-5.923925740644336">
        <ele>19.359999999999999</ele>
      </trkpt>
      <trkpt lat="35.680757565423846" lon="-5.922785717993975">
        <ele>19.359999999999999</ele>
      </trkpt>
      <trkpt lat="35.681304316967726" lon="-5.921734962612391">
        <ele>18.879999999999999</ele>
      </trkpt>
      <trkpt lat="35.681364582851529" lon="-5.921540083363652">
        <ele>18.399999999999999</ele>
      </trkpt>
      <trkpt lat="35.681378161534667" lon="-5.921465568244457">
        <ele>19.359999999999999</ele>
      </trkpt>
      <trkpt lat="35.681422417983413" lon="-5.921237077564001">
        <ele>19.359999999999999</ele>
      </trkpt>
      <trkpt lat="35.681450497359037" lon="-5.921170525252819">
        <ele>20.32</ele>
      </trkpt>
      <trkpt lat="35.681490479037166" lon="-5.921115539968014">
        <ele>20.32</ele>
      </trkpt>
      <trkpt lat="35.681540016084909" lon="-5.921078156679869">
        <ele>18.879999999999999</ele>
      </trkpt>
      <trkpt lat="35.681592654436827" lon="-5.921054603531957">
        <ele>18.879999999999999</ele>
      </trkpt>
      <trkpt lat="35.681643364951015" lon="-5.921045383438468">
        <ele>19.359999999999999</ele>
      </trkpt>
      <trkpt lat="35.681691896170378" lon="-5.921042785048485">
        <ele>18.399999999999999</ele>
      </trkpt>
      <trkpt lat="35.682059526443481" lon="-5.920909680426121">
        <ele>19.84</ele>
      </trkpt>
      <trkpt lat="35.682113338261843" lon="-5.920866178348661">
        <ele>23.210000000000001</ele>
      </trkpt>
      <trkpt lat="35.682800319045782" lon="-5.920281289145351">
        <ele>23.210000000000001</ele>
      </trkpt>
      <trkpt lat="35.684311576187611" lon="-5.919022411108017">
        <ele>25.609999999999999</ele>
      </trkpt>
      <trkpt lat="35.685771871358156" lon="-5.918076429516077">
        <ele>25.129999999999999</ele>
      </trkpt>
      <trkpt lat="35.687855696305633" lon="-5.917097004130483">
        <ele>25.129999999999999</ele>
      </trkpt>
      <trkpt lat="35.690077403560281" lon="-5.916575398296118">
        <ele>24.649999999999999</ele>
      </trkpt>
      <trkpt lat="35.69261678494513" lon="-5.916466098278761">
        <ele>26.57</ele>
      </trkpt>
      <trkpt lat="35.69516153074801" lon="-5.916379177942872">
        <ele>28.02</ele>
      </trkpt>
      <trkpt lat="35.696293339133263" lon="-5.916296448558569">
        <ele>28.02</ele>
      </trkpt>
      <trkpt lat="35.696993982419372" lon="-5.916281025856733">
        <ele>30.420000000000002</ele>
      </trkpt>
      <trkpt lat="35.698183123022318" lon="-5.916239619255066">
        <ele>31.859999999999999</ele>
      </trkpt>
      <trkpt lat="35.699258353561163" lon="-5.915821949020028">
        <ele>31.379999999999999</ele>
      </trkpt>
      <trkpt lat="35.700664417818189" lon="-5.914548235014081">
        <ele>31.859999999999999</ele>
      </trkpt>
      <trkpt lat="35.70216360501945" lon="-5.913135465234518">
        <ele>32.340000000000003</ele>
      </trkpt>
      <trkpt lat="35.703442515805364" lon="-5.911926627159119">
        <ele>29.940000000000001</ele>
      </trkpt>
      <trkpt lat="35.704716481268406" lon="-5.910705719143152">
        <ele>26.09</ele>
      </trkpt>
      <trkpt lat="35.70560890249908" lon="-5.9098588116467">
        <ele>22.73</ele>
      </trkpt>
      <trkpt lat="35.706478273496032" lon="-5.908949878066778">
        <ele>21.289999999999999</ele>
      </trkpt>
      <trkpt lat="35.707225352525711" lon="-5.908269602805376">
        <ele>19.359999999999999</ele>
      </trkpt>
      <trkpt lat="35.707708904519677" lon="-5.907786386087537">
        <ele>16.960000000000001</ele>
      </trkpt>
      <trkpt lat="35.70777889341116" lon="-5.907718325033784">
        <ele>16.48</ele>
      </trkpt>
      <trkpt lat="35.708161443471909" lon="-5.907292943447828">
        <ele>16.48</ele>
      </trkpt>
      <trkpt lat="35.708749769255519" lon="-5.906802350655198">
        <ele>16.960000000000001</ele>
      </trkpt>
      <trkpt lat="35.709558790549636" lon="-5.906080333516002">
        <ele>16.48</ele>
      </trkpt>
      <trkpt lat="35.710845664143562" lon="-5.904891612008214">
        <ele>16.48</ele>
      </trkpt>
      <trkpt lat="35.711954673752189" lon="-5.903872456401587">
        <ele>19.359999999999999</ele>
      </trkpt>
      <trkpt lat="35.71295983158052" lon="-5.903375241905451">
        <ele>20.32</ele>
      </trkpt>
      <trkpt lat="35.714045874774456" lon="-5.903407847508788">
        <ele>20.32</ele>
      </trkpt>
      <trkpt lat="35.714809633791447" lon="-5.903569282963872">
        <ele>21.289999999999999</ele>
      </trkpt>
      <trkpt lat="35.714956736192107" lon="-5.903593087568879">
        <ele>21.289999999999999</ele>
      </trkpt>
      <trkpt lat="35.714991185814142" lon="-5.903589567169547">
        <ele>21.77</ele>
      </trkpt>
      <trkpt lat="35.715166619047523" lon="-5.90362049639225">
        <ele>21.289999999999999</ele>
      </trkpt>
      <trkpt lat="35.715974131599069" lon="-5.903834570199251">
        <ele>22.73</ele>
      </trkpt>
      <trkpt lat="35.717327557504177" lon="-5.90409298427403">
        <ele>25.129999999999999</ele>
      </trkpt>
      <trkpt lat="35.718602277338505" lon="-5.903811436146498">
        <ele>25.129999999999999</ele>
      </trkpt>
      <trkpt lat="35.71978747844696" lon="-5.902952207252383">
        <ele>25.129999999999999</ele>
      </trkpt>
      <trkpt lat="35.720813171938062" lon="-5.901480345055461">
        <ele>26.09</ele>
      </trkpt>
      <trkpt lat="35.721880691125989" lon="-5.899933548644185">
        <ele>26.09</ele>
      </trkpt>
      <trkpt lat="35.722341863438487" lon="-5.89927121065557">
        <ele>25.609999999999999</ele>
      </trkpt>
      <trkpt lat="35.722663393244147" lon="-5.898829400539398">
        <ele>26.57</ele>
      </trkpt>
      <trkpt lat="35.722809489816427" lon="-5.898615829646587">
        <ele>30.420000000000002</ele>
      </trkpt>
      <trkpt lat="35.723048374056816" lon="-5.898263454437256">
        <ele>32.82</ele>
      </trkpt>
      <trkpt lat="35.723477611318231" lon="-5.897622238844633">
        <ele>34.259999999999998</ele>
      </trkpt>
      <trkpt lat="35.724021093919873" lon="-5.896536279469729">
        <ele>33.780000000000001</ele>
      </trkpt>
      <trkpt lat="35.724474806338549" lon="-5.89513692073524">
        <ele>38.109999999999999</ele>
      </trkpt>
      <trkpt lat="35.72458527982235" lon="-5.894697122275829">
        <ele>42.920000000000002</ele>
      </trkpt>
      <trkpt lat="35.724601875990629" lon="-5.894528226926923">
        <ele>42.439999999999998</ele>
      </trkpt>
      <trkpt lat="35.724620232358575" lon="-5.894470391795039">
        <ele>42.920000000000002</ele>
      </trkpt>
      <trkpt lat="35.72494494728744" lon="-5.893729934468865">
        <ele>42.920000000000002</ele>
      </trkpt>
      <trkpt lat="35.725557245314121" lon="-5.891897734254599">
        <ele>42.920000000000002</ele>
      </trkpt>
      <trkpt lat="35.726366769522429" lon="-5.88939112611115">
        <ele>42.439999999999998</ele>
      </trkpt>
      <trkpt lat="35.726992646232247" lon="-5.887526487931609">
        <ele>42.439999999999998</ele>
      </trkpt>
      <trkpt lat="35.728007610887289" lon="-5.884410180151463">
        <ele>42.439999999999998</ele>
      </trkpt>
      <trkpt lat="35.728313215076923" lon="-5.883311899378896">
        <ele>45.799999999999997</ele>
      </trkpt>
      <trkpt lat="35.728391753509641" lon="-5.882954495027661">
        <ele>52.530000000000001</ele>
      </trkpt>
      <trkpt lat="35.728682018816471" lon="-5.882155364379287">
        <ele>55.890000000000001</ele>
      </trkpt>
      <trkpt lat="35.729301022365689" lon="-5.880346046760678">
        <ele>58.780000000000001</ele>
      </trkpt>
      <trkpt lat="35.729999402537942" lon="-5.878090225160122">
        <ele>58.780000000000001</ele>
      </trkpt>
      <trkpt lat="35.731104137375951" lon="-5.874612238258123">
        <ele>58.780000000000001</ele>
      </trkpt>
      <trkpt lat="35.731275044381618" lon="-5.873860968276858">
        <ele>58.299999999999997</ele>
      </trkpt>
      <trkpt lat="35.73132885619998" lon="-5.873664328828454">
        <ele>58.299999999999997</ele>
      </trkpt>
      <trkpt lat="35.731377387419343" lon="-5.873569361865521">
        <ele>58.780000000000001</ele>
      </trkpt>
      <trkpt lat="35.731430444866419" lon="-5.873465845361352">
        <ele>61.659999999999997</ele>
      </trkpt>
      <trkpt lat="35.731483167037368" lon="-5.873343218117952">
        <ele>63.100000000000001</ele>
      </trkpt>
      <trkpt lat="35.731536643579602" lon="-5.873202402144671">
        <ele>65.030000000000001</ele>
      </trkpt>
      <trkpt lat="35.73198507539928" lon="-5.871748561039567">
        <ele>68.870000000000005</ele>
      </trkpt>
      <trkpt lat="35.732752857729793" lon="-5.869243964552879">
        <ele>70.790000000000006</ele>
      </trkpt>
      <trkpt lat="35.7332135271281" lon="-5.867997407913208">
        <ele>71.760000000000005</ele>
      </trkpt>
      <trkpt lat="35.733315786346793" lon="-5.867595579475164">
        <ele>71.760000000000005</ele>
      </trkpt>
      <trkpt lat="35.733343362808228" lon="-5.867525925859809">
        <ele>71.760000000000005</ele>
      </trkpt>
      <trkpt lat="35.733383093029261" lon="-5.867463396862149">
        <ele>71.269999999999996</ele>
      </trkpt>
      <trkpt lat="35.73347588069737" lon="-5.867319311946631">
        <ele>71.269999999999996</ele>
      </trkpt>
      <trkpt lat="35.733524998649955" lon="-5.867221746593714">
        <ele>72.239999999999995</ele>
      </trkpt>
      <trkpt lat="35.734115336090326" lon="-5.865756506100297">
        <ele>72.719999999999999</ele>
      </trkpt>
      <trkpt lat="35.734805669635534" lon="-5.86407040245831">
        <ele>71.760000000000005</ele>
      </trkpt>
      <trkpt lat="35.735571691766381" lon="-5.862210961058736">
        <ele>72.719999999999999</ele>
      </trkpt>
      <trkpt lat="35.736457072198391" lon="-5.860029486939311">
        <ele>72.239999999999995</ele>
      </trkpt>
      <trkpt lat="35.737270200625062" lon="-5.85737619549036">
        <ele>72.239999999999995</ele>
      </trkpt>
      <trkpt lat="35.73748704046011" lon="-5.856520319357514">
        <ele>72.239999999999995</ele>
      </trkpt>
      <trkpt lat="35.737575553357601" lon="-5.855893855914474">
        <ele>71.760000000000005</ele>
      </trkpt>
      <trkpt lat="35.737595921382308" lon="-5.855797631666064">
        <ele>71.269999999999996</ele>
      </trkpt>
      <trkpt lat="35.737615618854761" lon="-5.855751531198621">
        <ele>71.269999999999996</ele>
      </trkpt>
      <trkpt lat="35.737636657431722" lon="-5.855709034949541">
        <ele>70.790000000000006</ele>
      </trkpt>
      <trkpt lat="35.737764481455088" lon="-5.855379877611995">
        <ele>71.269999999999996</ele>
      </trkpt>
      <trkpt lat="35.737999258562922" lon="-5.854467255994678">
        <ele>70.790000000000006</ele>
      </trkpt>
      <trkpt lat="35.73812766931951" lon="-5.854007173329592">
        <ele>69.349999999999994</ele>
      </trkpt>
      <trkpt lat="35.738239903002977" lon="-5.853572320193052">
        <ele>68.870000000000005</ele>
      </trkpt>
      <trkpt lat="35.738253649324179" lon="-5.853176694363356">
        <ele>68.390000000000001</ele>
      </trkpt>
      <trkpt lat="35.738247949630022" lon="-5.853120032697916">
        <ele>62.140000000000001</ele>
      </trkpt>
      <trkpt lat="35.738252392038703" lon="-5.853057000786066">
        <ele>60.700000000000003</ele>
      </trkpt>
      <trkpt lat="35.738274855539203" lon="-5.852992627769709">
        <ele>59.259999999999998</ele>
      </trkpt>
      <trkpt lat="35.738313747569919" lon="-5.852929092943668">
        <ele>58.780000000000001</ele>
      </trkpt>
      <trkpt lat="35.738359512761235" lon="-5.852861450985074">
        <ele>58.780000000000001</ele>
      </trkpt>
      <trkpt lat="35.738408798351884" lon="-5.85277620702982">
        <ele>58.780000000000001</ele>
      </trkpt>
      <trkpt lat="35.73845355771482" lon="-5.852671600878239">
        <ele>59.259999999999998</ele>
      </trkpt>
      <trkpt lat="35.738492365926504" lon="-5.852557271718979">
        <ele>59.259999999999998</ele>
      </trkpt>
      <trkpt lat="35.738525642082095" lon="-5.852439841255546">
        <ele>0</ele>
      </trkpt>
      <trkpt lat="35.738927302882075" lon="-5.850844345986843">
        <ele>0</ele>
      </trkpt>
      <trkpt lat="35.739537253975868" lon="-5.848655244335532">
        <ele>0</ele>
      </trkpt>
      <trkpt lat="35.74045155197382" lon="-5.84713107906282">
        <ele>0</ele>
      </trkpt>
      <trkpt lat="35.74179332703352" lon="-5.84589877165854">
        <ele>0</ele>
      </trkpt>
      <trkpt lat="35.743073662742972" lon="-5.844912976026535">
        <ele>0</ele>
      </trkpt>
      <trkpt lat="35.743598369881511" lon="-5.844509890303016">
        <ele>0</ele>
      </trkpt>
      <trkpt lat="35.744174793362617" lon="-5.84398141130805">
        <ele>0</ele>
      </trkpt>
      <trkpt lat="35.744259031489491" lon="-5.843860628083348">
        <ele>0</ele>
      </trkpt>
      <trkpt lat="35.744295241311193" lon="-5.843830285593867">
        <ele>0</ele>
      </trkpt>
      <trkpt lat="35.744332121685147" lon="-5.843815533444285">
        <ele>0</ele>
      </trkpt>
      <trkpt lat="35.744367660954595" lon="-5.843819305300713">
        <ele>0</ele>
      </trkpt>
      <trkpt lat="35.744390040636063" lon="-5.843800026923418">
        <ele>0</ele>
      </trkpt>
      <trkpt lat="35.745840026065707" lon="-5.842690011486411">
        <ele>0</ele>
      </trkpt>
      <trkpt lat="35.747250029817224" lon="-5.841559963300824">
        <ele>0</ele>
      </trkpt>
      <trkpt lat="35.747380033135414" lon="-5.841440018266439">
        <ele>0</ele>
      </trkpt>
      <trkpt lat="35.747539959847927" lon="-5.841310014948249">
        <ele>0</ele>
      </trkpt>
      <trkpt lat="35.747539959847927" lon="-5.841270033270121">
        <ele>0</ele>
      </trkpt>
      <trkpt lat="35.747550018131733" lon="-5.841259974986315">
        <ele>0</ele>
      </trkpt>
      <trkpt lat="35.747550018131733" lon="-5.841240026056767">
        <ele>0</ele>
      </trkpt>
      <trkpt lat="35.747559992596507" lon="-5.841229967772961">
        <ele>0</ele>
      </trkpt>
      <trkpt lat="35.747559992596507" lon="-5.841219993308187">
        <ele>0</ele>
      </trkpt>
      <trkpt lat="35.747569967061281" lon="-5.841219993308187">
        <ele>0</ele>
      </trkpt>
      <trkpt lat="35.747569967061281" lon="-5.841210018843412">
        <ele>0</ele>
      </trkpt>
      <trkpt lat="35.747599974274635" lon="-5.841180011630058">
        <ele>0</ele>
      </trkpt>
      <trkpt lat="35.747610032558441" lon="-5.841180011630058">
        <ele>0</ele>
      </trkpt>
      <trkpt lat="35.747610032558441" lon="-5.841170037165284">
        <ele>0</ele>
      </trkpt>
      <trkpt lat="35.747620007023215" lon="-5.841170037165284">
        <ele>0</ele>
      </trkpt>
      <trkpt lat="35.747629981487989" lon="-5.841159978881478">
        <ele>0</ele>
      </trkpt>
      <trkpt lat="35.747659988701344" lon="-5.841159978881478">
        <ele>0</ele>
      </trkpt>
      <trkpt lat="35.747669963166118" lon="-5.841150004416704">
        <ele>0</ele>
      </trkpt>
      <trkpt lat="35.747680021449924" lon="-5.841150004416704">
        <ele>0</ele>
      </trkpt>
      <trkpt lat="35.747680021449924" lon="-5.841159978881478">
        <ele>0</ele>
      </trkpt>
      <trkpt lat="35.747720003128052" lon="-5.841159978881478">
        <ele>0</ele>
      </trkpt>
      <trkpt lat="35.747720003128052" lon="-5.841170037165284">
        <ele>0</ele>
      </trkpt>
      <trkpt lat="35.747729977592826" lon="-5.841170037165284">
        <ele>0</ele>
      </trkpt>
      <trkpt lat="35.749009978026152" lon="-5.840069996193051">
        <ele>0</ele>
      </trkpt>
      <trkpt lat="35.749320024624467" lon="-5.839689960703254">
        <ele>0</ele>
      </trkpt>
      <trkpt lat="35.749569972977042" lon="-5.839189980179071">
        <ele>0</ele>
      </trkpt>
      <trkpt lat="35.74962998740375" lon="-5.839019995182753">
        <ele>0</ele>
      </trkpt>
      <trkpt lat="35.749789997935295" lon="-5.838429993018508">
        <ele>0</ele>
      </trkpt>
      <trkpt lat="35.749889994040132" lon="-5.837679980322719">
        <ele>0</ele>
      </trkpt>
      <trkpt lat="35.74992997571826" lon="-5.837449980899692">
        <ele>0</ele>
      </trkpt>
      <trkpt lat="35.750019997358322" lon="-5.836770040914416">
        <ele>0</ele>
      </trkpt>
      <trkpt lat="35.750170033425093" lon="-5.835920032113791">
        <ele>0</ele>
      </trkpt>
      <trkpt lat="35.750240022316575" lon="-5.835649967193604">
        <ele>0</ele>
      </trkpt>
      <trkpt lat="35.750319985672832" lon="-5.835400018841028">
        <ele>0</ele>
      </trkpt>
      <trkpt lat="35.750410007312894" lon="-5.835179993882775">
        <ele>0</ele>
      </trkpt>
      <trkpt lat="35.750549985095859" lon="-5.834929961711168">
        <ele>0</ele>
      </trkpt>
      <trkpt lat="35.75093999505043" lon="-5.834380025044084">
        <ele>0</ele>
      </trkpt>
      <trkpt lat="35.751139987260103" lon="-5.834190007299185">
        <ele>0</ele>
      </trkpt>
      <trkpt lat="35.751279965043068" lon="-5.834069978445768">
        <ele>0</ele>
      </trkpt>
      <trkpt lat="35.7517100404948" lon="-5.833799997344613">
        <ele>0</ele>
      </trkpt>
      <trkpt lat="35.754500040784478" lon="-5.832210034132004">
        <ele>0</ele>
      </trkpt>
      <trkpt lat="35.754719981923699" lon="-5.832069972530007">
        <ele>0</ele>
      </trkpt>
      <trkpt lat="35.754719981923699" lon="-5.831999983638525">
        <ele>0</ele>
      </trkpt>
      <trkpt lat="35.754730040207505" lon="-5.831990009173751">
        <ele>0</ele>
      </trkpt>
      <trkpt lat="35.754730040207505" lon="-5.831969976425171">
        <ele>0</ele>
      </trkpt>
      <trkpt lat="35.754740014672279" lon="-5.831960001960397">
        <ele>0</ele>
      </trkpt>
      <trkpt lat="35.754740014672279" lon="-5.831950027495623">
        <ele>0</ele>
      </trkpt>
      <trkpt lat="35.754749989137053" lon="-5.831939969211817">
        <ele>0</ele>
      </trkpt>
      <trkpt lat="35.754749989137053" lon="-5.831929994747043">
        <ele>0</ele>
      </trkpt>
      <trkpt lat="35.754759963601828" lon="-5.831909961998463">
        <ele>0</ele>
      </trkpt>
      <trkpt lat="35.754789970815182" lon="-5.83188003860414">
        <ele>0</ele>
      </trkpt>
      <trkpt lat="35.754800029098988" lon="-5.83188003860414">
        <ele>0</ele>
      </trkpt>
      <trkpt lat="35.754810003563762" lon="-5.831869980320334">
        <ele>0</ele>
      </trkpt>
      <trkpt lat="35.754819978028536" lon="-5.831869980320334">
        <ele>0</ele>
      </trkpt>
      <trkpt lat="35.754830036312342" lon="-5.83186000585556">
        <ele>0</ele>
      </trkpt>
      <trkpt lat="35.754840010777116" lon="-5.83186000585556">
        <ele>0</ele>
      </trkpt>
      <trkpt lat="35.75484998524189" lon="-5.831850031390786">
        <ele>0</ele>
      </trkpt>
      <trkpt lat="35.754900025203824" lon="-5.831850031390786">
        <ele>0</ele>
      </trkpt>
      <trkpt lat="35.754909999668598" lon="-5.83186000585556">
        <ele>0</ele>
      </trkpt>
      <trkpt lat="35.754940006881952" lon="-5.83186000585556">
        <ele>0</ele>
      </trkpt>
      <trkpt lat="35.754940006881952" lon="-5.831869980320334">
        <ele>0</ele>
      </trkpt>
      <trkpt lat="35.754949981346726" lon="-5.831869980320334">
        <ele>0</ele>
      </trkpt>
      <trkpt lat="35.754960039630532" lon="-5.83188003860414">
        <ele>0</ele>
      </trkpt>
      <trkpt lat="35.755190039053559" lon="-5.831779958680272">
        <ele>0</ele>
      </trkpt>
      <trkpt lat="35.756050022318959" lon="-5.831179982051253">
        <ele>0</ele>
      </trkpt>
      <trkpt lat="35.758199980482459" lon="-5.829369993880391">
        <ele>0</ele>
      </trkpt>
      <trkpt lat="35.758429979905486" lon="-5.829149968922138">
        <ele>0</ele>
      </trkpt>
      <trkpt lat="35.758489994332194" lon="-5.829079980030656">
        <ele>0</ele>
      </trkpt>
      <trkpt lat="35.758599964901805" lon="-5.828930027782917">
        <ele>0</ele>
      </trkpt>
      <trkpt lat="35.758619997650385" lon="-5.828909995034337">
        <ele>0</ele>
      </trkpt>
      <trkpt lat="35.758689986541867" lon="-5.828789966180921">
        <ele>0</ele>
      </trkpt>
      <trkpt lat="35.758689986541867" lon="-5.828770017251372">
        <ele>0</ele>
      </trkpt>
      <trkpt lat="35.758699961006641" lon="-5.828770017251372">
        <ele>0</ele>
      </trkpt>
      <trkpt lat="35.758699961006641" lon="-5.828740010038018">
        <ele>0</ele>
      </trkpt>
      <trkpt lat="35.758710019290447" lon="-5.828730035573244">
        <ele>0</ele>
      </trkpt>
      <trkpt lat="35.758710019290447" lon="-5.828719977289438">
        <ele>0</ele>
      </trkpt>
      <trkpt lat="35.758719993755221" lon="-5.828710002824664">
        <ele>0</ele>
      </trkpt>
      <trkpt lat="35.758719993755221" lon="-5.82870002835989">
        <ele>0</ele>
      </trkpt>
      <trkpt lat="35.758729968219995" lon="-5.82870002835989">
        <ele>0</ele>
      </trkpt>
      <trkpt lat="35.758729968219995" lon="-5.828689970076084">
        <ele>0</ele>
      </trkpt>
      <trkpt lat="35.758740026503801" lon="-5.828689970076084">
        <ele>0</ele>
      </trkpt>
      <trkpt lat="35.758740026503801" lon="-5.82867999561131">
        <ele>0</ele>
      </trkpt>
      <trkpt lat="35.758750000968575" lon="-5.82867999561131">
        <ele>0</ele>
      </trkpt>
      <trkpt lat="35.75875997543335" lon="-5.828670021146536">
        <ele>0</ele>
      </trkpt>
      <trkpt lat="35.758770033717155" lon="-5.828670021146536">
        <ele>0</ele>
      </trkpt>
      <trkpt lat="35.75878000818193" lon="-5.82865996286273">
        <ele>0</ele>
      </trkpt>
      <trkpt lat="35.758919985964894" lon="-5.828380007296801">
        <ele>0</ele>
      </trkpt>
      <trkpt lat="35.758959967643023" lon="-5.828280011191964">
        <ele>0</ele>
      </trkpt>
      <trkpt lat="35.759119978174567" lon="-5.827660001814365">
        <ele>0</ele>
      </trkpt>
      <trkpt lat="35.759179992601275" lon="-5.827320031821728">
        <ele>0</ele>
      </trkpt>
      <trkpt lat="35.75920999981463" lon="-5.82691996358335">
        <ele>0</ele>
      </trkpt>
      <trkpt lat="35.75920999981463" lon="-5.826459964737296">
        <ele>0</ele>
      </trkpt>
      <trkpt lat="35.759159959852695" lon="-5.825710035860539">
        <ele>0</ele>
      </trkpt>
      <trkpt lat="35.759010007604957" lon="-5.824249992147088">
        <ele>0</ele>
      </trkpt>
      <trkpt lat="35.758989974856377" lon="-5.823840033262968">
        <ele>0</ele>
      </trkpt>
      <trkpt lat="35.758989974856377" lon="-5.823510037735105">
        <ele>0</ele>
      </trkpt>
      <trkpt lat="35.759019982069731" lon="-5.823220023885369">
        <ele>0</ele>
      </trkpt>
      <trkpt lat="35.759130036458373" lon="-5.822579981759191">
        <ele>0</ele>
      </trkpt>
      <trkpt lat="35.759260039776564" lon="-5.822049994021654">
        <ele>0</ele>
      </trkpt>
      <trkpt lat="35.759379984810948" lon="-5.821689991280437">
        <ele>0</ele>
      </trkpt>
      <trkpt lat="35.759579977020621" lon="-5.821209959685803">
        <ele>0</ele>
      </trkpt>
      <trkpt lat="35.759909972548485" lon="-5.820530019700527">
        <ele>0</ele>
      </trkpt>
      <trkpt lat="35.760139971971512" lon="-5.82014998421073">
        <ele>0</ele>
      </trkpt>
      <trkpt lat="35.760339964181185" lon="-5.819889977574348">
        <ele>0</ele>
      </trkpt>
      <trkpt lat="35.760569963604212" lon="-5.819629970937967">
        <ele>0</ele>
      </trkpt>
      <trkpt lat="35.760789988562465" lon="-5.81939997151494">
        <ele>0</ele>
      </trkpt>
      <trkpt lat="35.761730019003153" lon="-5.818490032106638">
        <ele>0</ele>
      </trkpt>
      <trkpt lat="35.762120028957725" lon="-5.818140003830195">
        <ele>0</ele>
      </trkpt>
      <trkpt lat="35.763100041076541" lon="-5.817129984498024">
        <ele>0</ele>
      </trkpt>
      <trkpt lat="35.7632299605757" lon="-5.817010039463639">
        <ele>0</ele>
      </trkpt>
      <trkpt lat="35.763479992747307" lon="-5.816699992865324">
        <ele>0</ele>
      </trkpt>
      <trkpt lat="35.763709992170334" lon="-5.816290033981204">
        <ele>0</ele>
      </trkpt>
      <trkpt lat="35.76380998827517" lon="-5.816049976274371">
        <ele>0</ele>
      </trkpt>
      <trkpt lat="35.763909984380007" lon="-5.815770020708442">
        <ele>0</ele>
      </trkpt>
      <trkpt lat="35.764049962162971" lon="-5.815240032970905">
        <ele>0</ele>
      </trkpt>
      <trkpt lat="35.764330001547933" lon="-5.813779989257455">
        <ele>0</ele>
      </trkpt>
      <trkpt lat="35.764469979330897" lon="-5.81318998709321">
        <ele>0</ele>
      </trkpt>
      <trkpt lat="35.764469979330897" lon="-5.813170038163662">
        <ele>0</ele>
      </trkpt>
      <trkpt lat="35.764480037614703" lon="-5.813129972666502">
        <ele>0</ele>
      </trkpt>
      <trkpt lat="35.764490012079477" lon="-5.81305998377502">
        <ele>0</ele>
      </trkpt>
      <trkpt lat="35.764639964327216" lon="-5.812490014359355">
        <ele>0</ele>
      </trkpt>
      <trkpt lat="35.76471003703773" lon="-5.812139986082912">
        <ele>0</ele>
      </trkpt>
      <trkpt lat="35.764769967645407" lon="-5.811909986659885">
        <ele>0</ele>
      </trkpt>
      <trkpt lat="35.764869963750243" lon="-5.811630031093955">
        <ele>0</ele>
      </trkpt>
      <trkpt lat="35.764980018138885" lon="-5.811400031670928">
        <ele>0</ele>
      </trkpt>
      <trkpt lat="35.765170035883784" lon="-5.811089985072613">
        <ele>0</ele>
      </trkpt>
      <trkpt lat="35.765410009771585" lon="-5.810650018975139">
        <ele>0</ele>
      </trkpt>
      <trkpt lat="35.766209978610277" lon="-5.809359960258007">
        <ele>0</ele>
      </trkpt>
      <trkpt lat="35.766529999673367" lon="-5.808789990842342">
        <ele>0</ele>
      </trkpt>
      <trkpt lat="35.766890002414584" lon="-5.808239970356226">
        <ele>0</ele>
      </trkpt>
      <trkpt lat="35.767259979620576" lon="-5.807639993727207">
        <ele>0</ele>
      </trkpt>
      <trkpt lat="35.767879988998175" lon="-5.80655001103878">
        <ele>0</ele>
      </trkpt>
      <trkpt lat="35.768390027806163" lon="-5.805749958381057">
        <ele>0</ele>
      </trkpt>
      <trkpt lat="35.768920015543699" lon="-5.804829960688949">
        <ele>0</ele>
      </trkpt>
      <trkpt lat="35.76948001049459" lon="-5.803969977423549">
        <ele>0</ele>
      </trkpt>
      <trkpt lat="35.769519992172718" lon="-5.803880039602518">
        <ele>0</ele>
      </trkpt>
      <trkpt lat="35.76961001381278" lon="-5.803720029070973">
        <ele>0</ele>
      </trkpt>
      <trkpt lat="35.769670028239489" lon="-5.803639981895685">
        <ele>0</ele>
      </trkpt>
      <trkpt lat="35.769940009340644" lon="-5.803330019116402">
        <ele>0</ele>
      </trkpt>
      <trkpt lat="35.77004000544548" lon="-5.803249971941114">
        <ele>0</ele>
      </trkpt>
      <trkpt lat="35.770140001550317" lon="-5.803209990262985">
        <ele>0</ele>
      </trkpt>
      <trkpt lat="35.770560018718243" lon="-5.803000023588538">
        <ele>0</ele>
      </trkpt>
      <trkpt lat="35.771859968081117" lon="-5.802259985357523">
        <ele>0</ele>
      </trkpt>
      <trkpt lat="35.771919982507825" lon="-5.802240036427975">
        <ele>0</ele>
      </trkpt>
      <trkpt lat="35.772040011361241" lon="-5.802180022001267">
        <ele>0</ele>
      </trkpt>
      <trkpt lat="35.772119974717498" lon="-5.802120007574558">
        <ele>0</ele>
      </trkpt>
      <trkpt lat="35.772260036319494" lon="-5.80203996039927">
        <ele>0</ele>
      </trkpt>
      <trkpt lat="35.7723477948457" lon="-5.801971312612295">
        <ele>0</ele>
      </trkpt>
      <trkpt lat="35.773183554410934" lon="-5.801528664305806">
        <ele>0</ele>
      </trkpt>
      <trkpt lat="35.773536935448647" lon="-5.801360020413995">
        <ele>0</ele>
      </trkpt>
      <trkpt lat="35.77460914850235" lon="-5.800710842013359"/>
      <trkpt lat="35.775222033262253" lon="-5.800395682454109"/>
      <trkpt lat="35.775274336338043" lon="-5.800317227840424"/>
      <trkpt lat="35.775314150378108" lon="-5.800165263935924"/>
      <trkpt lat="35.775405848398805" lon="-5.800091419368982"/>
      <trkpt lat="35.775514142587781" lon="-5.800085300579667"/>
      <trkpt lat="35.775618329644203" lon="-5.800174148753285"/>
      <trkpt lat="35.776275722309947" lon="-5.799802159890533"/>
      <trkpt lat="35.77693797647953" lon="-5.799449281767011"/>
      <trkpt lat="35.777034116908908" lon="-5.799422627314925"/>
      <trkpt lat="35.777153475210071" lon="-5.799646088853478"/>
      <trkpt lat="35.777227822691202" lon="-5.799824539572001"/>
      <trkpt lat="35.777227822691202" lon="-5.799824539572001">
        <ele>3.90257</ele>
        <time>2019-04-16T10:20:20Z</time>
      </trkpt>
      <trkpt lat="35.788713963702321" lon="-5.806356137618423">
        <ele>6.08487</ele>
        <time>2017-03-28T23:17:59Z</time>
      </trkpt>
      <trkpt lat="36.011104127392173" lon="-5.601269826292992">
        <ele>0</ele>
        <time>2017-03-28T23:17:59Z</time>
      </trkpt>
      <trkpt lat="36.252764035016298" lon="-5.981009937822819">
        <ele>0</ele>
        <time>2019-04-16T10:34:53Z</time>
      </trkpt>
      <trkpt lat="36.981179751455784" lon="-5.949473949149251">
        <ele>0</ele>
        <time>2019-04-16T10:36:50Z</time>
      </trkpt>
      <trkpt lat="37.627053251489997" lon="-6.142983427271247">
        <ele>0</ele>
        <time>2019-04-21T18:00:07Z</time>
      </trkpt>
      <trkpt lat="37.960059056058526" lon="-7.251826403662562">
        <ele>0</ele>
        <time>2019-04-16T10:39:18Z</time>
      </trkpt>
      <trkpt lat="38.552963370457292" lon="-7.969959201291204">
        <ele>0</ele>
        <time>2019-04-16T10:45:36Z</time>
      </trkpt>
      <trkpt lat="35.777219692245126" lon="-5.799830239266157">
        <ele>0</ele>
        <time>2017-03-21T12:11:35Z</time>
      </trkpt>
      <trkpt lat="35.777103519067168" lon="-5.800547981634736">
        <ele>21.289999999999999</ele>
        <time>2017-03-21T12:11:48Z</time>
      </trkpt>
      <trkpt lat="35.777054987847805" lon="-5.80101284198463">
        <ele>20.809999999999999</ele>
        <time>2017-03-21T12:11:54Z</time>
      </trkpt>
      <trkpt lat="35.77701173722744" lon="-5.801546601578593">
        <ele>20.32</ele>
        <time>2017-03-21T12:12:01Z</time>
      </trkpt>
      <trkpt lat="35.776971001178026" lon="-5.802233079448342">
        <ele>18.399999999999999</ele>
        <time>2017-03-21T12:12:09Z</time>
      </trkpt>
      <trkpt lat="35.776960607618093" lon="-5.802467940375209">
        <ele>13.119999999999999</ele>
        <time>2017-03-21T12:12:15Z</time>
      </trkpt>
      <trkpt lat="35.777031183242798" lon="-5.802496271207929">
        <ele>9.75</ele>
        <time>2017-03-21T12:12:17Z</time>
      </trkpt>
      <trkpt lat="35.778162321075797" lon="-5.802619401365519">
        <ele>9.27</ele>
        <time>2017-03-21T12:12:18Z</time>
      </trkpt>
      <trkpt lat="35.778702953830361" lon="-5.802684025838971">
        <ele>9.27</ele>
        <time>2017-03-21T12:12:19Z</time>
      </trkpt>
      <trkpt lat="35.779010402038693" lon="-5.802698275074363">
        <ele>8.789999999999999</ele>
        <time>2017-03-21T12:12:20Z</time>
      </trkpt>
      <trkpt lat="35.779225900769234" lon="-5.802627699449658">
        <ele>8.310000000000001</ele>
        <time>2017-03-21T12:12:21Z</time>
      </trkpt>
      <trkpt lat="35.779268983751535" lon="-5.802602721378207">
        <ele>8.310000000000001</ele>
        <time>2017-03-21T12:12:22Z</time>
      </trkpt>
      <trkpt lat="35.779360514134169" lon="-5.80257355235517">
        <ele>7.83</ele>
        <time>2017-03-21T12:12:33Z</time>
      </trkpt>
      <trkpt lat="35.779415415599942" lon="-5.802578330039978">
        <ele>6.87</ele>
        <time>2017-03-21T12:12:48Z</time>
      </trkpt>
      <trkpt lat="35.779464701190591" lon="-5.802614958956838">
        <ele>6.39</ele>
        <time>2017-03-21T12:12:59Z</time>
      </trkpt>
      <trkpt lat="35.77949688769877" lon="-5.802678829059005">
        <ele>6.39</ele>
        <time>2017-03-21T12:13:08Z</time>
      </trkpt>
      <trkpt lat="35.779520189389586" lon="-5.802756361663342">
        <ele>5.42</ele>
        <time>2017-03-21T12:13:09Z</time>
      </trkpt>
      <trkpt lat="35.77954089269042" lon="-5.802838923409581">
        <ele>5.42</ele>
        <time>2017-03-21T12:13:10Z</time>
      </trkpt>
      <trkpt lat="35.780013464391232" lon="-5.803881799802184">
        <ele>4.94</ele>
        <time>2017-03-21T12:13:11Z</time>
      </trkpt>
      <trkpt lat="35.780878141522408" lon="-5.805573770776391">
        <ele>4.46</ele>
        <time>2017-03-21T12:13:12Z</time>
      </trkpt>
      <trkpt lat="35.781729323789477" lon="-5.806882940232754">
        <ele>4.46</ele>
        <time>2017-03-21T12:13:13Z</time>
      </trkpt>
      <trkpt lat="35.782576398923993" lon="-5.807455088943243">
        <ele>3.98</ele>
        <time>2017-03-21T12:13:20Z</time>
      </trkpt>
      <trkpt lat="35.782647561281919" lon="-5.807479731738567">
        <ele>3.5</ele>
        <time>2017-03-21T12:13:32Z</time>
      </trkpt>
      <trkpt lat="35.782710928469896" lon="-5.807493226602674">
        <ele>3.5</ele>
        <time>2017-03-21T12:13:42Z</time>
      </trkpt>
      <trkpt lat="35.782769517973065" lon="-5.807506218552589">
        <ele>2.54</ele>
        <time>2017-03-21T12:13:56Z</time>
      </trkpt>
      <trkpt lat="35.782824754714966" lon="-5.807523904368281">
        <ele>2.06</ele>
        <time>2017-03-21T12:14:04Z</time>
      </trkpt>
      <trkpt lat="35.782879488542676" lon="-5.807544607669115">
        <ele>1.58</ele>
        <time>2017-03-21T12:14:05Z</time>
      </trkpt>
      <trkpt lat="35.783505365252495" lon="-5.8076645527035">
        <ele>1.58</ele>
        <time>2017-03-21T12:14:06Z</time>
      </trkpt>
      <trkpt lat="35.784626612439752" lon="-5.807730183005333">
        <ele>1.58</ele>
        <time>2017-03-21T12:14:07Z</time>
      </trkpt>
      <trkpt lat="35.785590279847383" lon="-5.807879883795977">
        <ele>1.58</ele>
        <time>2017-03-21T12:14:08Z</time>
      </trkpt>
      <trkpt lat="35.786786209791899" lon="-5.808035368099809">
        <ele>1.58</ele>
        <time>2017-03-21T12:14:19Z</time>
      </trkpt>
      <trkpt lat="35.787428431212902" lon="-5.808048946782947">
        <ele>1.58</ele>
        <time>2017-03-21T12:14:21Z</time>
      </trkpt>
      <trkpt lat="35.787508562207222" lon="-5.808029249310494">
        <ele>1.58</ele>
        <time>2017-03-21T12:14:22Z</time>
      </trkpt>
      <trkpt lat="35.787588274106383" lon="-5.807997062802315">
        <ele>1.58</ele>
        <time>2017-03-21T12:14:23Z</time>
      </trkpt>
      <trkpt lat="35.787667315453291" lon="-5.80795381218195">
        <ele>1.58</ele>
        <time>2017-03-21T12:14:24Z</time>
      </trkpt>
      <trkpt lat="35.787743926048279" lon="-5.80790595151484">
        <ele>1.58</ele>
        <time>2017-03-21T12:14:25Z</time>
      </trkpt>
      <trkpt lat="35.788479521870613" lon="-5.807282505556941">
        <ele>1.58</ele>
        <time>2017-03-21T12:14:26Z</time>
      </trkpt>
      <trkpt lat="35.788577925413847" lon="-5.807134648784995">
        <ele>1.58</ele>
        <time>2017-03-21T12:14:33Z</time>
      </trkpt>
      <trkpt lat="35.788616733625531" lon="-5.807050410658121">
        <ele>2.06</ele>
        <time>2017-03-21T12:14:42Z</time>
      </trkpt>
      <trkpt lat="35.788647327572107" lon="-5.80696290358901">
        <ele>1.1</ele>
        <time>2017-03-21T12:14:42Z</time>
      </trkpt>
      <trkpt lat="35.788672054186463" lon="-5.806873720139265">
        <ele>1.1</ele>
        <time>2017-03-21T12:14:50Z</time>
      </trkpt>
      <trkpt lat="35.788688398897648" lon="-5.806785542517901">
        <ele>0.14</ele>
        <time>2017-03-21T12:14:59Z</time>
      </trkpt>
      <trkpt lat="35.788697535172105" lon="-5.80670733936131">
        <ele>0.14</ele>
        <time>2017-03-21T12:15:40Z</time>
      </trkpt>
      <trkpt lat="35.788711365312338" lon="-5.806518662720919">
        <ele>-1.3</ele>
        <time>2017-03-21T12:15:59Z</time>
      </trkpt>
      <trkpt lat="35.788738522678614" lon="-5.806293524801731">
        <ele>-1.79</ele>
        <time>2016-03-21T13:22:27Z</time>
      </trkpt>
      <trkpt lat="35.788738522678614" lon="-5.806293524801731">
        <ele>0.62</ele>
        <time>2016-03-21T13:22:28Z</time>
      </trkpt>
      <trkpt lat="35.788751933723688" lon="-5.806114738807082">
        <ele>0.62</ele>
        <time>2016-03-21T13:22:29Z</time>
      </trkpt>
      <trkpt lat="35.788769451901317" lon="-5.805878536775708">
        <ele>0.62</ele>
        <time>2016-03-21T13:22:37Z</time>
      </trkpt>
      <trkpt lat="35.788768026977777" lon="-5.805884571745992">
        <ele>0.62</ele>
        <time>2016-03-21T13:24:00Z</time>
      </trkpt>
      <trkpt lat="35.788823515176773" lon="-5.805726740509272">
        <ele>1.1</ele>
        <time>2016-03-21T13:24:38Z</time>
      </trkpt>
      <trkpt lat="35.788852265104651" lon="-5.805617440491915">
        <ele>4.46</ele>
        <time>2016-03-21T13:25:08Z</time>
      </trkpt>
      <trkpt lat="35.788859389722347" lon="-5.805554995313287">
        <ele>3.98</ele>
        <time>2016-03-21T13:25:10Z</time>
      </trkpt>
      <trkpt lat="35.788863077759743" lon="-5.805479139089584">
        <ele>3.98</ele>
        <time>2016-03-21T13:25:11Z</time>
      </trkpt>
      <trkpt lat="35.788910016417503" lon="-5.80486717633903">
        <ele>3.02</ele>
        <time>2016-03-21T13:25:13Z</time>
      </trkpt>
      <trkpt lat="35.788987632840872" lon="-5.804449925199151">
        <ele>3.5</ele>
        <time>2016-03-21T13:25:19Z</time>
      </trkpt>
      <trkpt lat="35.789034571498632" lon="-5.804380606859922">
        <ele>3.02</ele>
        <time>2016-03-21T13:25:28Z</time>
      </trkpt>
      <trkpt lat="35.789032559841871" lon="-5.804265020415187">
        <ele>1.1</ele>
        <time>2016-03-21T13:25:30Z</time>
      </trkpt>
      <trkpt lat="35.789015209302306" lon="-5.804236019030213">
        <ele>1.1</ele>
        <time>2016-03-21T13:32:38Z</time>
      </trkpt>
      <trkpt lat="35.788988303393126" lon="-5.804246664047241">
        <ele>2.54</ele>
        <time>2016-03-21T13:32:52Z</time>
      </trkpt>
      <trkpt lat="35.788922840729356" lon="-5.804228559136391">
        <ele>1.58</ele>
        <time>2016-03-21T13:33:21Z</time>
      </trkpt>
      <trkpt lat="35.788701139390469" lon="-5.804172484204173">
        <ele>3.98</ele>
        <time>2016-03-21T13:33:36Z</time>
      </trkpt>
      <trkpt lat="35.788750927895308" lon="-5.80382295884192">
        <ele>4.46</ele>
        <time>2016-03-21T13:33:46Z</time>
      </trkpt>
      <trkpt lat="35.788811361417174" lon="-5.803818348795176">
        <ele>2.54</ele>
        <time>2016-03-21T15:20:49Z</time>
      </trkpt>
      <trkpt lat="35.789025686681271" lon="-5.803893115371466">
        <ele>-6.59</ele>
        <time>2016-03-21T15:21:11Z</time>
      </trkpt>
      <trkpt lat="35.789202377200127" lon="-5.803970145061612">
        <ele>-11.4</ele>
        <time>2016-03-21T15:21:44Z</time>
      </trkpt>
      <trkpt lat="35.789210759103298" lon="-5.803977102041245">
        <ele>1.58</ele>
        <time>2016-03-21T15:21:49Z</time>
      </trkpt>
      <trkpt lat="35.789365069940686" lon="-5.804002247750759">
        <ele>1.1</ele>
        <time>2016-03-21T15:21:52Z</time>
      </trkpt>
      <trkpt lat="35.789379822090268" lon="-5.803873836994171">
        <ele>0.62</ele>
        <time>2016-03-21T15:21:53Z</time>
      </trkpt>
      <trkpt lat="35.789306983351707" lon="-5.803110077977181">
        <ele>0.14</ele>
        <time>2016-03-21T15:22:02Z</time>
      </trkpt>
      <trkpt lat="36.010360987856984" lon="-5.602407502010465">
        <ele>-0.82</ele>
        <time>2016-03-21T15:22:10Z</time>
      </trkpt>
      <trkpt lat="36.010263506323099" lon="-5.602041045203805">
        <ele>-0.82</ele>
        <time>2016-03-21T15:25:11Z</time>
      </trkpt>
      <trkpt lat="36.010165773332119" lon="-5.601784810423851">
        <ele>0.14</ele>
        <time>2016-03-21T15:25:11Z</time>
      </trkpt>
      <trkpt lat="36.010197037830949" lon="-5.60163670219481">
        <ele>0.14</ele>
        <time>2016-03-21T15:25:12Z</time>
      </trkpt>
      <trkpt lat="36.010227799415588" lon="-5.60159320011735">
        <ele>0.14</ele>
        <time>2016-03-21T15:25:16Z</time>
      </trkpt>
      <trkpt lat="36.010551173239946" lon="-5.601160861551762">
        <ele>0.62</ele>
        <time>2016-03-21T15:25:17Z</time>
      </trkpt>
      <trkpt lat="36.010804725810885" lon="-5.601098164916039">
        <ele>0.62</ele>
        <time>2016-03-21T15:25:18Z</time>
      </trkpt>
      <trkpt lat="36.011302275583148" lon="-5.601348448544741">
        <ele>1.1</ele>
        <time>2016-03-21T15:25:19Z</time>
      </trkpt>
      <trkpt lat="36.011302275583148" lon="-5.601348448544741">
        <ele>1.1</ele>
        <time>2016-03-21T15:25:20Z</time>
      </trkpt>
      <trkpt lat="36.0113341268152" lon="-5.601374600082636">
        <ele>1.1</ele>
        <time>2016-03-21T15:25:26Z</time>
      </trkpt>
      <trkpt lat="36.011410653591156" lon="-5.60155020095408">
        <ele>2.06</ele>
        <time>2016-03-21T15:25:27Z</time>
      </trkpt>
      <trkpt lat="36.011407217010856" lon="-5.601608790457249">
        <ele>2.06</ele>
        <time>2016-03-21T15:25:28Z</time>
      </trkpt>
      <trkpt lat="36.011393386870623" lon="-5.60166846960783">
        <ele>2.06</ele>
        <time>2016-03-21T15:25:29Z</time>
      </trkpt>
      <trkpt lat="36.011374024674296" lon="-5.601725298911333">
        <ele>2.54</ele>
        <time>2016-03-21T15:25:30Z</time>
      </trkpt>
      <trkpt lat="36.011350890621543" lon="-5.601782379671931">
        <ele>2.54</ele>
        <time>2016-03-21T15:25:31Z</time>
      </trkpt>
      <trkpt lat="36.011223066598177" lon="-5.602151099592447">
        <ele>2.54</ele>
        <time>2016-03-21T15:25:32Z</time>
      </trkpt>
      <trkpt lat="36.011218037456274" lon="-5.602207174524665">
        <ele>2.54</ele>
        <time>2016-03-21T15:25:33Z</time>
      </trkpt>
      <trkpt lat="36.011220887303352" lon="-5.602262411266565">
        <ele>2.54</ele>
        <time>2016-03-21T15:25:34Z</time>
      </trkpt>
      <trkpt lat="36.011230358853936" lon="-5.602313121780753">
        <ele>2.54</ele>
        <time>2016-03-21T15:25:47Z</time>
      </trkpt>
      <trkpt lat="36.011242512613535" lon="-5.602358384057879">
        <ele>3.98</ele>
        <time>2016-03-21T15:26:00Z</time>
      </trkpt>
      <trkpt lat="36.011254079639912" lon="-5.602400628849864">
        <ele>3.5</ele>
        <time>2016-03-21T15:26:15Z</time>
      </trkpt>
      <trkpt lat="36.011262126266956" lon="-5.602439353242517">
        <ele>7.35</ele>
        <time>2016-03-21T15:26:29Z</time>
      </trkpt>
      <trkpt lat="36.011265981942415" lon="-5.602470869198442">
        <ele>6.87</ele>
        <time>2016-03-21T15:26:42Z</time>
      </trkpt>
      <trkpt lat="36.011266484856606" lon="-5.602493165060878">
        <ele>7.35</ele>
        <time>2016-03-21T15:26:53Z</time>
      </trkpt>
      <trkpt lat="36.011241339147091" lon="-5.602636998519301">
        <ele>6.87</ele>
        <time>2016-03-21T15:27:01Z</time>
      </trkpt>
      <trkpt lat="36.01113572716713" lon="-5.602861130610108">
        <ele>6.39</ele>
        <time>2016-03-21T15:27:16Z</time>
      </trkpt>
      <trkpt lat="36.010947553440928" lon="-5.603482984006405">
        <ele>7.35</ele>
        <time>2016-03-21T15:27:28Z</time>
      </trkpt>
      <trkpt lat="36.010989379137754" lon="-5.603989167138934">
        <ele>12.630000000000001</ele>
        <time>2016-03-21T15:27:38Z</time>
      </trkpt>
      <trkpt lat="36.011273106560111" lon="-5.604242719709873">
        <ele>16.960000000000001</ele>
        <time>2016-03-21T15:27:46Z</time>
      </trkpt>
      <trkpt lat="36.011347454041243" lon="-5.604299465194345">
        <ele>19.359999999999999</ele>
        <time>2016-03-21T15:27:55Z</time>
      </trkpt>
      <trkpt lat="36.011621290817857" lon="-5.604493757709861">
        <ele>20.809999999999999</ele>
        <time>2016-03-21T15:28:01Z</time>
      </trkpt>
      <trkpt lat="36.012340877205133" lon="-5.604932550340891">
        <ele>22.25</ele>
        <time>2016-03-21T15:28:02Z</time>
      </trkpt>
      <trkpt lat="36.013050070032477" lon="-5.605362961068749">
        <ele>22.73</ele>
        <time>2016-03-21T15:28:03Z</time>
      </trkpt>
      <trkpt lat="36.013503866270185" lon="-5.605618609115481">
        <ele>22.73</ele>
        <time>2016-03-21T15:28:04Z</time>
      </trkpt>
      <trkpt lat="36.013714000582695" lon="-5.605480894446373">
        <ele>23.210000000000001</ele>
        <time>2016-03-21T15:28:05Z</time>
      </trkpt>
      <trkpt lat="36.014011725783348" lon="-5.604922492057085">
        <ele>23.690000000000001</ele>
        <time>2016-03-21T15:28:06Z</time>
      </trkpt>
      <trkpt lat="36.014257567003369" lon="-5.604501301422715">
        <ele>24.170000000000002</ele>
        <time>2016-03-21T15:28:07Z</time>
      </trkpt>
      <trkpt lat="36.014301236718893" lon="-5.604465343058109">
        <ele>24.649999999999999</ele>
        <time>2016-03-21T15:28:08Z</time>
      </trkpt>
      <trkpt lat="36.01434700191021" lon="-5.604449585080147">
        <ele>25.129999999999999</ele>
        <time>2016-03-21T15:28:09Z</time>
      </trkpt>
      <trkpt lat="36.014386983588338" lon="-5.604450507089496">
        <ele>25.129999999999999</ele>
        <time>2016-03-21T15:28:10Z</time>
      </trkpt>
      <trkpt lat="36.014418080449104" lon="-5.60446291230619">
        <ele>24.649999999999999</ele>
        <time>2016-03-21T15:28:11Z</time>
      </trkpt>
      <trkpt lat="36.014442723244429" lon="-5.60448738746345">
        <ele>24.170000000000002</ele>
        <time>2016-03-21T15:28:12Z</time>
      </trkpt>
      <trkpt lat="36.014463678002357" lon="-5.604522591456771">
        <ele>23.690000000000001</ele>
        <time>2016-03-21T15:28:13Z</time>
      </trkpt>
      <trkpt lat="36.014481615275145" lon="-5.604573637247086">
        <ele>23.690000000000001</ele>
        <time>2016-03-21T15:28:25Z</time>
      </trkpt>
      <trkpt lat="36.014502989128232" lon="-5.604637507349253">
        <ele>21.289999999999999</ele>
        <time>2016-03-21T15:28:41Z</time>
      </trkpt>
      <trkpt lat="36.014532409608364" lon="-5.604701042175293">
        <ele>19.359999999999999</ele>
        <time>2016-03-21T15:28:56Z</time>
      </trkpt>
      <trkpt lat="36.014569876715541" lon="-5.604760218411684">
        <ele>16.960000000000001</ele>
        <time>2016-03-21T15:29:10Z</time>
      </trkpt>
      <trkpt lat="36.014614719897509" lon="-5.604815036058426">
        <ele>12.630000000000001</ele>
        <time>2016-03-21T15:29:22Z</time>
      </trkpt>
      <trkpt lat="36.014663334935904" lon="-5.604869434610009">
        <ele>12.630000000000001</ele>
        <time>2016-03-21T15:29:31Z</time>
      </trkpt>
      <trkpt lat="36.015385435894132" lon="-5.60560679063201">
        <ele>14.08</ele>
        <time>2016-03-21T15:29:38Z</time>
      </trkpt>
      <trkpt lat="36.016390509903431" lon="-5.606635082513094">
        <ele>16</ele>
        <time>2016-03-21T15:29:47Z</time>
      </trkpt>
      <trkpt lat="36.017359709367156" lon="-5.607599839568138">
        <ele>19.359999999999999</ele>
        <time>2016-03-21T15:29:55Z</time>
      </trkpt>
      <trkpt lat="36.018406357616186" lon="-5.608535762876272">
        <ele>17.920000000000002</ele>
        <time>2016-03-21T15:30:05Z</time>
      </trkpt>
      <trkpt lat="36.019285451620817" lon="-5.609207740053535">
        <ele>13.6</ele>
        <time>2016-03-21T15:30:15Z</time>
      </trkpt>
      <trkpt lat="36.019727010279894" lon="-5.609532203525305">
        <ele>9.75</ele>
        <time>2016-03-21T15:30:25Z</time>
      </trkpt>
      <trkpt lat="36.020419439300895" lon="-5.610062023624778">
        <ele>6.87</ele>
        <time>2016-03-21T15:30:33Z</time>
      </trkpt>
      <trkpt lat="36.02136567234993" lon="-5.610786639153957">
        <ele>4.94</ele>
        <time>2016-03-21T15:30:41Z</time>
      </trkpt>
      <trkpt lat="36.021927008405328" lon="-5.61121235601604">
        <ele>4.46</ele>
        <time>2016-03-21T15:30:42Z</time>
      </trkpt>
      <trkpt lat="36.022778190672398" lon="-5.611638743430376">
        <ele>4.46</ele>
        <time>2016-03-21T15:30:44Z</time>
      </trkpt>
      <trkpt lat="36.023520659655333" lon="-5.611583003774285">
        <ele>4.46</ele>
        <time>2016-03-21T15:30:45Z</time>
      </trkpt>
      <trkpt lat="36.024393551051617" lon="-5.611533131450415">
        <ele>4.94</ele>
        <time>2016-03-21T15:30:47Z</time>
      </trkpt>
      <trkpt lat="36.025266526266932" lon="-5.611600102856755">
        <ele>5.42</ele>
        <time>2016-03-21T15:30:55Z</time>
      </trkpt>
      <trkpt lat="36.02593288756907" lon="-5.611667325720191">
        <ele>5.91</ele>
        <time>2016-03-21T15:31:02Z</time>
      </trkpt>
      <trkpt lat="36.026012180373073" lon="-5.611656093969941">
        <ele>7.35</ele>
        <time>2016-03-21T15:31:08Z</time>
      </trkpt>
      <trkpt lat="36.026174118742347" lon="-5.611641593277454">
        <ele>7.83</ele>
        <time>2016-03-21T15:31:17Z</time>
      </trkpt>
      <trkpt lat="36.026255507022142" lon="-5.611664224416018">
        <ele>7.35</ele>
        <time>2016-03-21T15:31:24Z</time>
      </trkpt>
      <trkpt lat="36.026438567787409" lon="-5.611734464764595">
        <ele>7.35</ele>
        <time>2016-03-21T15:31:25Z</time>
      </trkpt>
      <trkpt lat="36.027474654838443" lon="-5.611874023452401">
        <ele>7.35</ele>
        <time>2016-03-21T15:31:26Z</time>
      </trkpt>
      <trkpt lat="36.028521470725536" lon="-5.611729938536882">
        <ele>7.35</ele>
        <time>2016-03-21T15:31:27Z</time>
      </trkpt>
      <trkpt lat="36.028947271406651" lon="-5.611569341272116">
        <ele>7.35</ele>
        <time>2016-03-21T15:31:28Z</time>
      </trkpt>
      <trkpt lat="36.029006615281105" lon="-5.611530533060432">
        <ele>6.87</ele>
        <time>2016-03-21T15:31:29Z</time>
      </trkpt>
      <trkpt lat="36.029146173968911" lon="-5.611457694321871">
        <ele>6.87</ele>
        <time>2016-03-21T15:31:36Z</time>
      </trkpt>
      <trkpt lat="36.029189340770245" lon="-5.611455515027046">
        <ele>5.91</ele>
        <time>2016-03-21T15:31:45Z</time>
      </trkpt>
      <trkpt lat="36.029239967465401" lon="-5.611469345167279">
        <ele>5.42</ele>
        <time>2016-03-21T15:31:57Z</time>
      </trkpt>
      <trkpt lat="36.029298724606633" lon="-5.611510500311852">
        <ele>5.42</ele>
        <time>2016-03-21T15:32:08Z</time>
      </trkpt>
      <trkpt lat="36.029362510889769" lon="-5.611583841964603">
        <ele>5.42</ele>
        <time>2016-03-21T15:32:20Z</time>
      </trkpt>
      <trkpt lat="36.029427470639348" lon="-5.611669840291143">
        <ele>4.94</ele>
        <time>2016-03-21T15:32:32Z</time>
      </trkpt>
      <trkpt lat="36.030087545514107" lon="-5.612467462196946">
        <ele>3.98</ele>
        <time>2016-03-21T15:32:43Z</time>
      </trkpt>
      <trkpt lat="36.031175600364804" lon="-5.613715779036284">
        <ele>4.46</ele>
        <time>2016-03-21T15:32:50Z</time>
      </trkpt>
      <trkpt lat="36.032889699563384" lon="-5.615634229034185">
        <ele>3.98</ele>
        <time>2016-03-21T15:33:08Z</time>
      </trkpt>
      <trkpt lat="36.034543449059129" lon="-5.617487467825413">
        <ele>3.5</ele>
        <time>2016-03-21T15:33:16Z</time>
      </trkpt>
      <trkpt lat="36.036156043410301" lon="-5.619278009980917">
        <ele>4.94</ele>
        <time>2016-03-21T15:33:30Z</time>
      </trkpt>
      <trkpt lat="36.037654392421246" lon="-5.620909715071321">
        <ele>8.310000000000001</ele>
        <time>2016-03-21T15:33:39Z</time>
      </trkpt>
      <trkpt lat="36.039461111649871" lon="-5.622337572276592">
        <ele>5.42</ele>
        <time>2016-03-21T15:33:54Z</time>
      </trkpt>
      <trkpt lat="36.040382953360677" lon="-5.623740619048476">
        <ele>4.46</ele>
        <time>2016-03-21T15:34:09Z</time>
      </trkpt>
      <trkpt lat="36.042660316452384" lon="-5.627640718594194">
        <ele>6.87</ele>
        <time>2016-03-21T15:34:15Z</time>
      </trkpt>
      <trkpt lat="36.043460872024298" lon="-5.629517678171396">
        <ele>8.789999999999999</ele>
        <time>2016-03-21T15:34:29Z</time>
      </trkpt>
      <trkpt lat="36.044689742848277" lon="-5.633118459954858">
        <ele>10.710000000000001</ele>
        <time>2016-03-21T15:34:40Z</time>
      </trkpt>
      <trkpt lat="36.045809984207153" lon="-5.635314267128706">
        <ele>11.19</ele>
        <time>2016-03-21T15:34:51Z</time>
      </trkpt>
      <trkpt lat="36.048023225739598" lon="-5.638754200190306">
        <ele>12.630000000000001</ele>
        <time>2016-03-21T15:35:08Z</time>
      </trkpt>
      <trkpt lat="36.050087604671717" lon="-5.642000678926706">
        <ele>13.6</ele>
        <time>2016-03-21T15:35:15Z</time>
      </trkpt>
      <trkpt lat="36.050581550225616" lon="-5.64277826808393">
        <ele>14.08</ele>
        <time>2016-03-21T15:35:24Z</time>
      </trkpt>
      <trkpt lat="36.051575895398855" lon="-5.644327662885189">
        <ele>14.56</ele>
        <time>2016-03-21T15:35:39Z</time>
      </trkpt>
      <trkpt lat="36.052509304136038" lon="-5.645815953612328">
        <ele>16</ele>
        <time>2016-03-21T15:35:51Z</time>
      </trkpt>
      <trkpt lat="36.053703222423792" lon="-5.647699115797877">
        <ele>14.56</ele>
        <time>2016-03-21T15:36:03Z</time>
      </trkpt>
      <trkpt lat="36.055728206411004" lon="-5.650886166840792">
        <ele>15.52</ele>
        <time>2016-03-21T15:36:14Z</time>
      </trkpt>
      <trkpt lat="36.056273533031344" lon="-5.652348222211003">
        <ele>16.960000000000001</ele>
        <time>2016-03-21T15:36:29Z</time>
      </trkpt>
      <trkpt lat="36.05638132430613" lon="-5.654501533135772">
        <ele>18.399999999999999</ele>
        <time>2016-03-21T15:36:43Z</time>
      </trkpt>
      <trkpt lat="36.056474531069398" lon="-5.658209435641766">
        <ele>18.399999999999999</ele>
        <time>2016-03-21T15:37:06Z</time>
      </trkpt>
      <trkpt lat="36.056732945144176" lon="-5.661130528897047">
        <ele>15.039999999999999</ele>
        <time>2016-03-21T15:37:18Z</time>
      </trkpt>
      <trkpt lat="36.057440042495728" lon="-5.663694217801094">
        <ele>14.56</ele>
        <time>2016-03-21T15:37:32Z</time>
      </trkpt>
      <trkpt lat="36.058564810082316" lon="-5.665704868733883">
        <ele>12.15</ele>
        <time>2016-03-21T15:37:48Z</time>
      </trkpt>
      <trkpt lat="36.060329368337989" lon="-5.668764682486653">
        <ele>11.19</ele>
        <time>2016-03-21T15:38:02Z</time>
      </trkpt>
      <trkpt lat="36.062208339571953" lon="-5.671723829582334">
        <ele>9.75</ele>
        <time>2016-03-21T15:38:17Z</time>
      </trkpt>
      <trkpt lat="36.065745754167438" lon="-5.676493719220161">
        <ele>10.23</ele>
        <time>2016-03-21T15:38:26Z</time>
      </trkpt>
      <trkpt lat="36.067412914708257" lon="-5.678737135604024">
        <ele>7.35</ele>
        <time>2016-03-21T15:38:34Z</time>
      </trkpt>
      <trkpt lat="36.06922248378396" lon="-5.681395540013909">
        <ele>6.87</ele>
        <time>2016-03-21T15:38:49Z</time>
      </trkpt>
      <trkpt lat="36.071168510243297" lon="-5.684580160304904">
        <ele>11.67</ele>
        <time>2016-03-21T15:39:00Z</time>
      </trkpt>
      <trkpt lat="36.073541259393096" lon="-5.686764903366566">
        <ele>14.08</ele>
        <time>2016-03-21T15:39:10Z</time>
      </trkpt>
      <trkpt lat="36.075984416529536" lon="-5.689008235931397">
        <ele>12.630000000000001</ele>
        <time>2016-03-21T15:39:16Z</time>
      </trkpt>
      <trkpt lat="36.077345553785563" lon="-5.690005598589778">
        <ele>13.6</ele>
        <time>2016-03-21T15:39:22Z</time>
      </trkpt>
      <trkpt lat="36.078982790932059" lon="-5.690572969615459">
        <ele>14.08</ele>
        <time>2016-03-21T15:39:29Z</time>
      </trkpt>
      <trkpt lat="36.082246284931898" lon="-5.691680470481515">
        <ele>14.56</ele>
        <time>2016-03-21T15:39:36Z</time>
      </trkpt>
      <trkpt lat="36.084711402654648" lon="-5.692016584798694">
        <ele>19.359999999999999</ele>
        <time>2016-03-21T15:39:45Z</time>
      </trkpt>
      <trkpt lat="36.086911484599113" lon="-5.692006777971983">
        <ele>17.920000000000002</ele>
        <time>2016-03-21T15:39:55Z</time>
      </trkpt>
      <trkpt lat="36.088210428133607" lon="-5.692571885883808">
        <ele>17.920000000000002</ele>
        <time>2016-03-21T15:39:56Z</time>
      </trkpt>
      <trkpt lat="36.089205024763942" lon="-5.693639907985926">
        <ele>17.920000000000002</ele>
        <time>2016-03-21T15:40:05Z</time>
      </trkpt>
      <trkpt lat="36.090230718255043" lon="-5.695023005828261">
        <ele>19.359999999999999</ele>
        <time>2016-03-21T15:40:06Z</time>
      </trkpt>
      <trkpt lat="36.091574337333441" lon="-5.695896316319704">
        <ele>19.84</ele>
        <time>2016-03-21T15:40:07Z</time>
      </trkpt>
      <trkpt lat="36.093237139284611" lon="-5.696958638727665">
        <ele>19.84</ele>
        <time>2016-03-21T15:40:08Z</time>
      </trkpt>
      <trkpt lat="36.094932798296213" lon="-5.6985092908144">
        <ele>19.84</ele>
        <time>2016-03-21T15:40:09Z</time>
      </trkpt>
      <trkpt lat="36.095116529613733" lon="-5.698607191443443">
        <ele>20.32</ele>
        <time>2016-03-21T15:40:23Z</time>
      </trkpt>
      <trkpt lat="36.096902880817652" lon="-5.699335411190987">
        <ele>19.84</ele>
        <time>2016-03-21T15:40:27Z</time>
      </trkpt>
      <trkpt lat="36.097081750631332" lon="-5.699460636824369">
        <ele>20.809999999999999</ele>
        <time>2016-03-21T15:40:28Z</time>
      </trkpt>
      <trkpt lat="36.097251065075397" lon="-5.699612349271774">
        <ele>21.289999999999999</ele>
        <time>2016-03-21T15:40:38Z</time>
      </trkpt>
      <trkpt lat="36.097409902140498" lon="-5.699782082810998">
        <ele>23.690000000000001</ele>
        <time>2016-03-21T15:40:42Z</time>
      </trkpt>
      <trkpt lat="36.097565889358521" lon="-5.699965478852391">
        <ele>23.690000000000001</ele>
        <time>2016-03-21T15:40:43Z</time>
      </trkpt>
      <trkpt lat="36.099849287420511" lon="-5.702519780024886">
        <ele>23.690000000000001</ele>
        <time>2016-03-21T15:40:44Z</time>
      </trkpt>
      <trkpt lat="36.10045270062983" lon="-5.703124534338713">
        <ele>23.690000000000001</ele>
        <time>2016-03-21T15:40:52Z</time>
      </trkpt>
      <trkpt lat="36.100588571280241" lon="-5.703301141038537">
        <ele>23.690000000000001</ele>
        <time>2016-03-21T15:41:04Z</time>
      </trkpt>
      <trkpt lat="36.101912325248122" lon="-5.70536719635129">
        <ele>24.170000000000002</ele>
        <time>2016-03-21T15:41:14Z</time>
      </trkpt>
      <trkpt lat="36.102444911375642" lon="-5.706090889871121">
        <ele>27.050000000000001</ele>
        <time>2016-03-21T15:41:15Z</time>
      </trkpt>
      <trkpt lat="36.10260316170752" lon="-5.706236148253083">
        <ele>27.050000000000001</ele>
        <time>2016-03-21T15:41:26Z</time>
      </trkpt>
      <trkpt lat="36.102776080369949" lon="-5.706361290067434">
        <ele>32.82</ele>
        <time>2016-03-21T15:41:34Z</time>
      </trkpt>
      <trkpt lat="36.10444231890142" lon="-5.707261506468058">
        <ele>35.229999999999997</ele>
        <time>2016-03-21T15:41:41Z</time>
      </trkpt>
      <trkpt lat="36.107185631990433" lon="-5.708571597933769">
        <ele>37.630000000000003</ele>
        <time>2016-03-21T15:41:53Z</time>
      </trkpt>
      <trkpt lat="36.109309773892164" lon="-5.709547670558095">
        <ele>47.719999999999999</ele>
        <time>2016-03-21T15:41:59Z</time>
      </trkpt>
      <trkpt lat="36.109534576535225" lon="-5.709582203999162">
        <ele>52.049999999999997</ele>
        <time>2016-03-21T15:42:05Z</time>
      </trkpt>
      <trkpt lat="36.112153250724077" lon="-5.709714470431209">
        <ele>56.369999999999997</ele>
        <time>2016-03-21T15:42:13Z</time>
      </trkpt>
      <trkpt lat="36.114137666299939" lon="-5.709529230371118">
        <ele>63.100000000000001</ele>
        <time>2016-03-21T15:42:18Z</time>
      </trkpt>
      <trkpt lat="36.115827793255448" lon="-5.708617530763149">
        <ele>63.100000000000001</ele>
        <time>2016-03-21T15:42:27Z</time>
      </trkpt>
      <trkpt lat="36.118754167109728" lon="-5.707010719925165">
        <ele>71.760000000000005</ele>
        <time>2016-03-21T15:42:35Z</time>
      </trkpt>
      <trkpt lat="36.12030029296875" lon="-5.706879794597626">
        <ele>76.560000000000002</ele>
        <time>2016-03-21T15:42:47Z</time>
      </trkpt>
      <trkpt lat="36.121819848194718" lon="-5.707380613312125">
        <ele>83.769999999999996</ele>
        <time>2016-03-21T15:42:54Z</time>
      </trkpt>
      <trkpt lat="36.123763024806976" lon="-5.708461208269">
        <ele>79.930000000000007</ele>
        <time>2016-03-21T15:42:55Z</time>
      </trkpt>
      <trkpt lat="36.125158863142133" lon="-5.708598922938108">
        <ele>78.969999999999999</ele>
        <time>2016-03-21T15:42:56Z</time>
      </trkpt>
      <trkpt lat="36.127563547343016" lon="-5.708586350083351">
        <ele>78</ele>
        <time>2016-03-21T15:42:57Z</time>
      </trkpt>
      <trkpt lat="36.129543352872133" lon="-5.708778547123075">
        <ele>77.519999999999996</ele>
        <time>2016-03-21T15:42:58Z</time>
      </trkpt>
      <trkpt lat="36.132611129432917" lon="-5.708822887390852">
        <ele>76.079999999999998</ele>
        <time>2016-03-21T15:42:59Z</time>
      </trkpt>
      <trkpt lat="36.134369568899274" lon="-5.709218010306358">
        <ele>75.120000000000005</ele>
        <time>2016-03-21T15:43:00Z</time>
      </trkpt>
      <trkpt lat="36.134601915255189" lon="-5.709319515153766">
        <ele>74.159999999999997</ele>
        <time>2016-03-21T15:43:07Z</time>
      </trkpt>
      <trkpt lat="36.134822610765696" lon="-5.709447925910354">
        <ele>64.549999999999997</ele>
        <time>2016-03-21T15:43:21Z</time>
      </trkpt>
      <trkpt lat="36.135032158344984" lon="-5.70960215292871">
        <ele>47.719999999999999</ele>
        <time>2016-03-21T15:43:33Z</time>
      </trkpt>
      <trkpt lat="36.135231480002403" lon="-5.709782028570771">
        <ele>39.07</ele>
        <time>2016-03-21T15:43:45Z</time>
      </trkpt>
      <trkpt lat="36.135420240461826" lon="-5.709981936961412">
        <ele>36.670000000000002</ele>
        <time>2016-03-21T15:43:57Z</time>
      </trkpt>
      <trkpt lat="36.13560070283711" lon="-5.710193496197462">
        <ele>38.590000000000003</ele>
        <time>2016-03-21T15:44:04Z</time>
      </trkpt>
      <trkpt lat="36.137027218937874" lon="-5.711489422246814">
        <ele>38.109999999999999</ele>
        <time>2016-03-21T15:44:12Z</time>
      </trkpt>
      <trkpt lat="36.140353661030531" lon="-5.713301841169596">
        <ele>36.189999999999998</ele>
        <time>2016-03-21T15:44:26Z</time>
      </trkpt>
      <trkpt lat="36.143228318542242" lon="-5.714877638965845">
        <ele>37.149999999999999</ele>
        <time>2016-03-21T15:44:37Z</time>
      </trkpt>
      <trkpt lat="36.145636104047298" lon="-5.716154538094997">
        <ele>36.189999999999998</ele>
        <time>2016-03-21T15:44:51Z</time>
      </trkpt>
      <trkpt lat="36.148061323910952" lon="-5.717477705329657">
        <ele>38.109999999999999</ele>
        <time>2016-03-21T15:44:57Z</time>
      </trkpt>
      <trkpt lat="36.149249961599708" lon="-5.718620410189033">
        <ele>42.439999999999998</ele>
        <time>2016-03-21T15:45:06Z</time>
      </trkpt>
      <trkpt lat="36.150250257924199" lon="-5.720330402255058">
        <ele>45.32</ele>
        <time>2016-03-21T15:45:19Z</time>
      </trkpt>
      <trkpt lat="36.152004925534129" lon="-5.723497504368424">
        <ele>35.229999999999997</ele>
        <time>2016-03-21T15:45:32Z</time>
      </trkpt>
      <trkpt lat="36.153727658092976" lon="-5.726475510746241">
        <ele>36.189999999999998</ele>
        <time>2016-03-21T15:45:45Z</time>
      </trkpt>
      <trkpt lat="36.155884405598044" lon="-5.73029656894505">
        <ele>30.420000000000002</ele>
        <time>2016-03-21T15:46:03Z</time>
      </trkpt>
      <trkpt lat="36.156999701634049" lon="-5.731729539111257">
        <ele>22.25</ele>
        <time>2016-03-21T15:46:24Z</time>
      </trkpt>
      <trkpt lat="36.158979004248977" lon="-5.73345210403204">
        <ele>18.399999999999999</ele>
        <time>2016-03-21T15:46:45Z</time>
      </trkpt>
      <trkpt lat="36.162351965904236" lon="-5.735604241490364">
        <ele>20.32</ele>
        <time>2016-03-21T15:46:55Z</time>
      </trkpt>
      <trkpt lat="36.165604647248983" lon="-5.73776182718575">
        <ele>19.84</ele>
        <time>2016-03-21T15:47:02Z</time>
      </trkpt>
      <trkpt lat="36.168506881222129" lon="-5.740244379267097">
        <ele>19.359999999999999</ele>
        <time>2016-03-21T15:47:18Z</time>
      </trkpt>
      <trkpt lat="36.172638321295381" lon="-5.743842478841543">
        <ele>11.67</ele>
        <time>2016-03-21T15:47:19Z</time>
      </trkpt>
      <trkpt lat="36.177463615313172" lon="-5.748005853965879">
        <ele>11.67</ele>
        <time>2016-03-21T15:47:31Z</time>
      </trkpt>
      <trkpt lat="36.1822110414505" lon="-5.752132264897227">
        <ele>12.630000000000001</ele>
        <time>2016-03-21T15:47:48Z</time>
      </trkpt>
      <trkpt lat="36.184330573305488" lon="-5.754126152023673">
        <ele>13.119999999999999</ele>
        <time>2016-03-21T15:48:08Z</time>
      </trkpt>
      <trkpt lat="36.185286613181233" lon="-5.755840670317411">
        <ele>13.119999999999999</ele>
        <time>2016-03-21T15:48:28Z</time>
      </trkpt>
      <trkpt lat="36.187066761776805" lon="-5.760119967162609">
        <ele>17.440000000000001</ele>
        <time>2016-03-21T15:48:43Z</time>
      </trkpt>
      <trkpt lat="36.187226437032223" lon="-5.760349128395319">
        <ele>19.84</ele>
        <time>2016-03-21T15:48:57Z</time>
      </trkpt>
      <trkpt lat="36.1894241720438" lon="-5.763115910813212">
        <ele>20.809999999999999</ele>
        <time>2016-03-21T15:49:12Z</time>
      </trkpt>
      <trkpt lat="36.192765198647976" lon="-5.767304515466094">
        <ele>23.210000000000001</ele>
        <time>2016-03-21T15:49:27Z</time>
      </trkpt>
      <trkpt lat="36.196704693138599" lon="-5.772221591323614">
        <ele>25.129999999999999</ele>
        <time>2016-03-21T15:49:37Z</time>
      </trkpt>
      <trkpt lat="36.200613928958774" lon="-5.777086112648249">
        <ele>26.09</ele>
        <time>2016-03-21T15:49:49Z</time>
      </trkpt>
      <trkpt lat="36.203575003892183" lon="-5.780810695141554">
        <ele>29.460000000000001</ele>
        <time>2016-03-21T15:49:51Z</time>
      </trkpt>
      <trkpt lat="36.206338852643967" lon="-5.784232774749398">
        <ele>29.460000000000001</ele>
        <time>2016-03-21T15:49:52Z</time>
      </trkpt>
      <trkpt lat="36.209015278145671" lon="-5.787564916536212">
        <ele>29.460000000000001</ele>
        <time>2016-03-21T15:49:53Z</time>
      </trkpt>
      <trkpt lat="36.211673347279429" lon="-5.790745848789811">
        <ele>29.460000000000001</ele>
        <time>2016-03-21T15:50:04Z</time>
      </trkpt>
      <trkpt lat="36.213562712073326" lon="-5.792599925771356">
        <ele>25.609999999999999</ele>
        <time>2016-03-21T15:50:15Z</time>
      </trkpt>
      <trkpt lat="36.21567964553833" lon="-5.794504294171929">
        <ele>25.129999999999999</ele>
        <time>2016-03-21T15:50:16Z</time>
      </trkpt>
      <trkpt lat="36.215968485921621" lon="-5.794850131496787">
        <ele>25.129999999999999</ele>
        <time>2016-03-21T15:50:17Z</time>
      </trkpt>
      <trkpt lat="36.216091783717275" lon="-5.795051380991936">
        <ele>25.609999999999999</ele>
        <time>2016-03-21T15:50:18Z</time>
      </trkpt>
      <trkpt lat="36.216203263029456" lon="-5.795265957713127">
        <ele>25.609999999999999</ele>
        <time>2016-03-21T15:50:19Z</time>
      </trkpt>
      <trkpt lat="36.217311099171638" lon="-5.79783970490098">
        <ele>25.609999999999999</ele>
        <time>2016-03-21T15:50:30Z</time>
      </trkpt>
      <trkpt lat="36.218087682500482" lon="-5.800454271957278">
        <ele>22.73</ele>
        <time>2016-03-21T15:50:37Z</time>
      </trkpt>
      <trkpt lat="36.218196982517838" lon="-5.80066398717463">
        <ele>18.399999999999999</ele>
        <time>2016-03-21T15:50:53Z</time>
      </trkpt>
      <trkpt lat="36.218323297798634" lon="-5.800865488126874">
        <ele>14.56</ele>
        <time>2016-03-21T15:51:03Z</time>
      </trkpt>
      <trkpt lat="36.218465203419328" lon="-5.801060115918517">
        <ele>10.710000000000001</ele>
        <time>2016-03-21T15:51:21Z</time>
      </trkpt>
      <trkpt lat="36.218615910038352" lon="-5.801254408434033">
        <ele>7.83</ele>
        <time>2016-03-21T15:51:40Z</time>
      </trkpt>
      <trkpt lat="36.220462610945106" lon="-5.803624140098691">
        <ele>5.91</ele>
        <time>2016-03-21T15:51:59Z</time>
      </trkpt>
      <trkpt lat="36.221471456810832" lon="-5.805239249020815">
        <ele>12.630000000000001</ele>
        <time>2016-03-21T15:52:05Z</time>
      </trkpt>
      <trkpt lat="36.223265267908573" lon="-5.809634970501065">
        <ele>11.19</ele>
        <time>2016-03-21T15:52:11Z</time>
      </trkpt>
      <trkpt lat="36.224559182301164" lon="-5.812769467011094">
        <ele>8.310000000000001</ele>
        <time>2016-03-21T15:52:25Z</time>
      </trkpt>
      <trkpt lat="36.226915586739779" lon="-5.818522972986102">
        <ele>8.310000000000001</ele>
        <time>2016-03-21T15:52:41Z</time>
      </trkpt>
      <trkpt lat="36.229345751926303" lon="-5.824523745104671">
        <ele>21.289999999999999</ele>
        <time>2016-03-21T15:52:47Z</time>
      </trkpt>
      <trkpt lat="36.231719255447388" lon="-5.830563073977828">
        <ele>21.289999999999999</ele>
        <time>2016-03-21T15:52:54Z</time>
      </trkpt>
      <trkpt lat="36.232027625665069" lon="-5.832556206732988">
        <ele>16.48</ele>
        <time>2016-03-21T15:53:11Z</time>
      </trkpt>
      <trkpt lat="36.231770133599639" lon="-5.834569036960602">
        <ele>11.67</ele>
        <time>2016-03-21T15:53:21Z</time>
      </trkpt>
      <trkpt lat="36.230494156479836" lon="-5.839222921058536">
        <ele>13.119999999999999</ele>
        <time>2016-03-21T15:53:22Z</time>
      </trkpt>
      <trkpt lat="36.229061773046851" lon="-5.844298163428903">
        <ele>14.08</ele>
        <time>2016-03-21T15:53:32Z</time>
      </trkpt>
      <trkpt lat="36.228196257725358" lon="-5.845886366441846">
        <ele>16.960000000000001</ele>
        <time>2016-03-21T15:53:40Z</time>
      </trkpt>
      <trkpt lat="36.226712660863996" lon="-5.847370885312557">
        <ele>12.15</ele>
        <time>2016-03-21T15:53:46Z</time>
      </trkpt>
      <trkpt lat="36.222989670932293" lon="-5.850974349305034">
        <ele>10.23</ele>
        <time>2016-03-21T15:53:53Z</time>
      </trkpt>
      <trkpt lat="36.220911294221878" lon="-5.853112656623125">
        <ele>10.23</ele>
        <time>2016-03-21T15:54:09Z</time>
      </trkpt>
      <trkpt lat="36.220762096345425" lon="-5.853358414024115">
        <ele>18.399999999999999</ele>
        <time>2016-03-21T15:54:24Z</time>
      </trkpt>
      <trkpt lat="36.219410179182887" lon="-5.856174398213625">
        <ele>8.310000000000001</ele>
        <time>2016-03-21T15:54:30Z</time>
      </trkpt>
      <trkpt lat="36.218593781813979" lon="-5.858475146815181">
        <ele>9.75</ele>
        <time>2016-03-21T15:54:37Z</time>
      </trkpt>
      <trkpt lat="36.218491019681096" lon="-5.860383287072182">
        <ele>13.6</ele>
        <time>2016-03-21T15:54:54Z</time>
      </trkpt>
      <trkpt lat="36.218971638008952" lon="-5.862665930762887">
        <ele>24.170000000000002</ele>
        <time>2016-03-21T15:55:09Z</time>
      </trkpt>
      <trkpt lat="36.220319699496031" lon="-5.867828261107206">
        <ele>19.359999999999999</ele>
        <time>2016-03-21T15:55:21Z</time>
      </trkpt>
      <trkpt lat="36.221613110974431" lon="-5.872707366943359">
        <ele>20.32</ele>
        <time>2016-03-21T15:55:38Z</time>
      </trkpt>
      <trkpt lat="36.222381899133325" lon="-5.874357679858804">
        <ele>35.229999999999997</ele>
        <time>2016-03-21T15:55:46Z</time>
      </trkpt>
      <trkpt lat="36.223775893449783" lon="-5.875951247289777">
        <ele>45.32</ele>
        <time>2016-03-21T15:55:51Z</time>
      </trkpt>
      <trkpt lat="36.227281205356121" lon="-5.87967574596405">
        <ele>49.649999999999999</ele>
        <time>2016-03-21T15:56:06Z</time>
      </trkpt>
      <trkpt lat="36.230397848412395" lon="-5.882774703204632">
        <ele>51.57</ele>
        <time>2016-03-21T15:56:13Z</time>
      </trkpt>
      <trkpt lat="36.233260938897729" lon="-5.884499531239271">
        <ele>50.130000000000003</ele>
        <time>2016-03-21T15:56:14Z</time>
      </trkpt>
      <trkpt lat="36.23745784163475" lon="-5.8869225718081">
        <ele>50.130000000000003</ele>
        <time>2016-03-21T15:56:15Z</time>
      </trkpt>
      <trkpt lat="36.239511994645" lon="-5.887673925608397">
        <ele>49.649999999999999</ele>
        <time>2016-03-21T15:56:16Z</time>
      </trkpt>
      <trkpt lat="36.240567276254296" lon="-5.888637593016028">
        <ele>49.159999999999997</ele>
        <time>2016-03-21T15:56:17Z</time>
      </trkpt>
      <trkpt lat="36.243420979008079" lon="-5.892303418368101">
        <ele>48.68</ele>
        <time>2016-03-21T15:56:18Z</time>
      </trkpt>
      <trkpt lat="36.244607353582978" lon="-5.893924226984382">
        <ele>48.68</ele>
        <time>2016-03-21T15:56:29Z</time>
      </trkpt>
      <trkpt lat="36.244714558124542" lon="-5.894166463986039">
        <ele>46.280000000000001</ele>
        <time>2016-03-21T15:56:50Z</time>
      </trkpt>
      <trkpt lat="36.244800304993987" lon="-5.894422950223088">
        <ele>43.880000000000003</ele>
        <time>2016-03-21T15:57:06Z</time>
      </trkpt>
      <trkpt lat="36.244866019114852" lon="-5.89469569735229">
        <ele>38.590000000000003</ele>
        <time>2016-03-21T15:57:27Z</time>
      </trkpt>
      <trkpt lat="36.244914047420025" lon="-5.89497959241271">
        <ele>34.259999999999998</ele>
        <time>2016-03-21T15:57:39Z</time>
      </trkpt>
      <trkpt lat="36.244956040754914" lon="-5.895272204652429">
        <ele>26.57</ele>
        <time>2016-03-21T15:57:53Z</time>
      </trkpt>
      <trkpt lat="36.245461301878095" lon="-5.898786401376128">
        <ele>25.129999999999999</ele>
        <time>2016-03-21T15:58:13Z</time>
      </trkpt>
      <trkpt lat="36.246509375050664" lon="-5.905908672139049">
        <ele>37.630000000000003</ele>
        <time>2016-03-21T15:58:32Z</time>
      </trkpt>
      <trkpt lat="36.247311607003212" lon="-5.911215674132109">
        <ele>50.609999999999999</ele>
        <time>2016-03-21T15:58:47Z</time>
      </trkpt>
      <trkpt lat="36.248368984088302" lon="-5.91800183057785">
        <ele>59.259999999999998</ele>
        <time>2016-03-21T15:58:56Z</time>
      </trkpt>
      <trkpt lat="36.249364418908954" lon="-5.921784164384008">
        <ele>48.200000000000003</ele>
        <time>2016-03-21T15:59:00Z</time>
      </trkpt>
      <trkpt lat="36.250518942251801" lon="-5.926156751811504">
        <ele>43.880000000000003</ele>
        <time>2016-03-21T15:59:01Z</time>
      </trkpt>
      <trkpt lat="36.252209572121501" lon="-5.932502439245582">
        <ele>42.439999999999998</ele>
        <time>2016-03-21T15:59:02Z</time>
      </trkpt>
      <trkpt lat="36.253749243915081" lon="-5.93838594853878">
        <ele>41.469999999999999</ele>
        <time>2016-03-21T15:59:03Z</time>
      </trkpt>
      <trkpt lat="36.25496587716043" lon="-5.943017872050405">
        <ele>40.030000000000001</ele>
        <time>2016-03-21T15:59:04Z</time>
      </trkpt>
      <trkpt lat="36.255479520186782" lon="-5.94582824036479">
        <ele>39.07</ele>
        <time>2016-03-21T15:59:05Z</time>
      </trkpt>
      <trkpt lat="36.255613211542368" lon="-5.94681722112">
        <ele>37.630000000000003</ele>
        <time>2016-03-21T15:59:06Z</time>
      </trkpt>
      <trkpt lat="36.255606170743704" lon="-5.947030875831842">
        <ele>36.189999999999998</ele>
        <time>2016-03-21T15:59:07Z</time>
      </trkpt>
      <trkpt lat="36.255572056397796" lon="-5.947241932153702">
        <ele>35.229999999999997</ele>
        <time>2016-03-21T15:59:18Z</time>
      </trkpt>
      <trkpt lat="36.255505001172423" lon="-5.947450390085578">
        <ele>23.210000000000001</ele>
        <time>2016-03-21T15:59:25Z</time>
      </trkpt>
      <trkpt lat="36.255414308980107" lon="-5.947652980685234">
        <ele>25.129999999999999</ele>
        <time>2016-03-21T15:59:26Z</time>
      </trkpt>
      <trkpt lat="36.255294531583786" lon="-5.947845093905926">
        <ele>25.129999999999999</ele>
        <time>2016-03-21T15:59:27Z</time>
      </trkpt>
      <trkpt lat="36.255153631791472" lon="-5.948027903214097">
        <ele>25.129999999999999</ele>
        <time>2016-03-21T15:59:28Z</time>
      </trkpt>
      <trkpt lat="36.254997896030545" lon="-5.948209539055824">
        <ele>25.129999999999999</ele>
        <time>2016-03-21T15:59:29Z</time>
      </trkpt>
      <trkpt lat="36.253156056627631" lon="-5.950467539951205">
        <ele>24.649999999999999</ele>
        <time>2016-03-21T15:59:30Z</time>
      </trkpt>
      <trkpt lat="36.252215607091784" lon="-5.951761119067669">
        <ele>24.649999999999999</ele>
        <time>2016-03-21T15:59:31Z</time>
      </trkpt>
      <trkpt lat="36.252133715897799" lon="-5.95196052454412">
        <ele>23.690000000000001</ele>
        <time>2016-03-21T15:59:32Z</time>
      </trkpt>
      <trkpt lat="36.25207562930882" lon="-5.952174011617899">
        <ele>23.210000000000001</ele>
        <time>2016-03-21T15:59:33Z</time>
      </trkpt>
      <trkpt lat="36.252036904916167" lon="-5.952395796775818">
        <ele>22.73</ele>
        <time>2016-03-21T15:59:34Z</time>
      </trkpt>
      <trkpt lat="36.252024667337537" lon="-5.952621018514037">
        <ele>22.25</ele>
        <time>2016-03-21T15:59:35Z</time>
      </trkpt>
      <trkpt lat="36.252042604610324" lon="-5.952846491709352">
        <ele>21.77</ele>
        <time>2016-03-21T15:59:36Z</time>
      </trkpt>
      <trkpt lat="36.252089710906148" lon="-5.953066516667604">
        <ele>20.809999999999999</ele>
        <time>2016-03-21T15:59:37Z</time>
      </trkpt>
      <trkpt lat="36.252165986225009" lon="-5.953280171379447">
        <ele>20.32</ele>
        <time>2016-03-21T15:59:50Z</time>
      </trkpt>
      <trkpt lat="36.252261623740196" lon="-5.953481923788786">
        <ele>15.52</ele>
        <time>2016-03-21T15:59:59Z</time>
      </trkpt>
      <trkpt lat="36.252379221841693" lon="-5.953669846057892">
        <ele>12.15</ele>
        <time>2016-03-21T16:00:08Z</time>
      </trkpt>
      <trkpt lat="36.252515595406294" lon="-5.953846368938685">
        <ele>11.19</ele>
        <time>2016-03-21T16:00:09Z</time>
      </trkpt>
      <trkpt lat="36.252667475491762" lon="-5.954013084992766">
        <ele>10.710000000000001</ele>
        <time>2016-03-21T16:00:10Z</time>
      </trkpt>
      <trkpt lat="36.252828575670719" lon="-5.954176615923643">
        <ele>10.23</ele>
        <time>2016-03-21T16:00:11Z</time>
      </trkpt>
      <trkpt lat="36.255007199943066" lon="-5.956219704821706">
        <ele>10.23</ele>
        <time>2016-03-21T16:00:12Z</time>
      </trkpt>
      <trkpt lat="36.256544943898916" lon="-5.957341371104121">
        <ele>10.23</ele>
        <time>2016-03-21T16:00:24Z</time>
      </trkpt>
      <trkpt lat="36.258018901571631" lon="-5.958326831459999">
        <ele>8.789999999999999</ele>
        <time>2016-03-21T16:00:32Z</time>
      </trkpt>
      <trkpt lat="36.258135326206684" lon="-5.958476448431611">
        <ele>9.27</ele>
        <time>2016-03-21T16:00:33Z</time>
      </trkpt>
      <trkpt lat="36.25823674723506" lon="-5.958644840866327">
        <ele>9.27</ele>
        <time>2016-03-21T16:00:34Z</time>
      </trkpt>
      <trkpt lat="36.258331462740898" lon="-5.958827063441277">
        <ele>9.75</ele>
        <time>2016-03-21T16:00:35Z</time>
      </trkpt>
      <trkpt lat="36.25842148438096" lon="-5.959019511938095">
        <ele>9.75</ele>
        <time>2016-03-21T16:00:36Z</time>
      </trkpt>
      <trkpt lat="36.259505096822977" lon="-5.961096212267876">
        <ele>10.23</ele>
        <time>2016-03-21T16:00:37Z</time>
      </trkpt>
      <trkpt lat="36.260436829179525" lon="-5.962056443095207">
        <ele>10.23</ele>
        <time>2016-03-21T16:00:38Z</time>
      </trkpt>
      <trkpt lat="36.260555516928434" lon="-5.962204467505217">
        <ele>10.710000000000001</ele>
        <time>2016-03-21T16:00:39Z</time>
      </trkpt>
      <trkpt lat="36.260655848309398" lon="-5.962374368682504">
        <ele>10.710000000000001</ele>
        <time>2016-03-21T16:00:50Z</time>
      </trkpt>
      <trkpt lat="36.260733297094703" lon="-5.962571427226067">
        <ele>12.15</ele>
        <time>2016-03-21T16:01:00Z</time>
      </trkpt>
      <trkpt lat="36.260788198560476" lon="-5.962788350880146">
        <ele>16.48</ele>
        <time>2016-03-21T16:01:10Z</time>
      </trkpt>
      <trkpt lat="36.260826420038939" lon="-5.963018769398332">
        <ele>16</ele>
        <time>2016-03-21T16:01:20Z</time>
      </trkpt>
      <trkpt lat="36.260852990671992" lon="-5.963259665295482">
        <ele>17.920000000000002</ele>
        <time>2016-03-21T16:01:27Z</time>
      </trkpt>
      <trkpt lat="36.260874951258302" lon="-5.963507015258074">
        <ele>23.210000000000001</ele>
        <time>2016-03-21T16:01:35Z</time>
      </trkpt>
      <trkpt lat="36.260943096131086" lon="-5.966456355527043">
        <ele>28.02</ele>
        <time>2016-03-21T16:01:50Z</time>
      </trkpt>
      <trkpt lat="36.260762717574835" lon="-5.969079053029418">
        <ele>26.09</ele>
        <time>2019-02-17T12:50:36Z</time>
      </trkpt>
      <trkpt lat="36.260606646537781" lon="-5.971200009807944">
        <ele>23.690000000000001</ele>
        <time>2019-02-17T12:50:44Z</time>
      </trkpt>
      <trkpt lat="36.260294755920768" lon="-5.973345944657922">
        <ele>30.420000000000002</ele>
        <time>2019-02-17T12:50:49Z</time>
      </trkpt>
      <trkpt lat="36.25965571962297" lon="-5.974750248715282">
        <ele>36.189999999999998</ele>
        <time>2019-02-17T12:50:50Z</time>
      </trkpt>
      <trkpt lat="36.258424669504166" lon="-5.976249100640416">
        <ele>36.670000000000002</ele>
        <time>2019-02-17T12:50:51Z</time>
      </trkpt>
      <trkpt lat="36.256014704704285" lon="-5.979376221075654">
        <ele>36.670000000000002</ele>
        <time>2019-02-17T12:50:52Z</time>
      </trkpt>
      <trkpt lat="36.255418919026852" lon="-5.980508113279939">
        <ele>36.670000000000002</ele>
        <time>2019-02-17T12:50:53Z</time>
      </trkpt>
      <trkpt lat="36.254848362877965" lon="-5.982235874980688">
        <ele>37.149999999999999</ele>
        <time>2019-02-17T12:50:54Z</time>
      </trkpt>
      <trkpt lat="36.254698242992163" lon="-5.983136259019375">
        <ele>37.149999999999999</ele>
        <time>2019-02-17T12:50:55Z</time>
      </trkpt>
      <trkpt lat="36.254719365388155" lon="-5.983269447460771">
        <ele>37.149999999999999</ele>
        <time>2019-02-17T12:50:56Z</time>
      </trkpt>
      <trkpt lat="36.254775440320373" lon="-5.983380256220698">
        <ele>37.630000000000003</ele>
        <time>2019-02-17T12:50:57Z</time>
      </trkpt>
      <trkpt lat="36.254855571314692" lon="-5.983459465205669">
        <ele>37.630000000000003</ele>
        <time>2019-02-17T12:50:58Z</time>
      </trkpt>
      <trkpt lat="36.254942575469613" lon="-5.983511516824365">
        <ele>37.630000000000003</ele>
        <time>2019-02-17T12:50:59Z</time>
      </trkpt>
      <trkpt lat="36.255021281540394" lon="-5.983566334471107">
        <ele>37.149999999999999</ele>
        <time>2019-02-17T12:51:00Z</time>
      </trkpt>
      <trkpt lat="36.25508364289999" lon="-5.983636071905494">
        <ele>37.149999999999999</ele>
        <time>2019-02-17T12:51:01Z</time>
      </trkpt>
      <trkpt lat="36.255122954025865" lon="-5.983721986413002">
        <ele>36.670000000000002</ele>
        <time>2019-02-17T12:51:02Z</time>
      </trkpt>
      <trkpt lat="36.255133515223861" lon="-5.983819048851728">
        <ele>36.189999999999998</ele>
        <time>2019-02-17T12:51:03Z</time>
      </trkpt>
      <trkpt lat="36.255113231018186" lon="-5.983914602547884">
        <ele>36.189999999999998</ele>
        <time>2019-02-17T12:51:04Z</time>
      </trkpt>
      <trkpt lat="36.255063526332378" lon="-5.983991883695126">
        <ele>36.189999999999998</ele>
        <time>2019-02-17T12:51:07Z</time>
      </trkpt>
      <trkpt lat="36.254991525784135" lon="-5.984039157629013">
        <ele>35.229999999999997</ele>
        <time>2019-02-17T12:51:08Z</time>
      </trkpt>
      <trkpt lat="36.254909299314022" lon="-5.984051311388612">
        <ele>35.229999999999997</ele>
        <time>2019-02-17T12:51:09Z</time>
      </trkpt>
      <trkpt lat="36.254827491939068" lon="-5.984027003869414">
        <ele>34.740000000000002</ele>
        <time>2019-02-17T12:51:14Z</time>
      </trkpt>
      <trkpt lat="36.254753228276968" lon="-5.983968833461404">
        <ele>32.82</ele>
        <time>2019-02-17T12:51:15Z</time>
      </trkpt>
      <trkpt lat="36.254686256870627" lon="-5.983892977237701">
        <ele>32.82</ele>
        <time>2019-02-17T12:51:16Z</time>
      </trkpt>
      <trkpt lat="36.254454916343093" lon="-5.983675215393305">
        <ele>32.82</ele>
        <time>2019-02-17T12:51:17Z</time>
      </trkpt>
      <trkpt lat="36.254361625760794" lon="-5.983623415231705">
        <ele>32.340000000000003</ele>
        <time>2019-02-17T12:51:18Z</time>
      </trkpt>
      <trkpt lat="36.254269173368812" lon="-5.983580918982625">
        <ele>32.340000000000003</ele>
        <time>2019-02-17T12:51:19Z</time>
      </trkpt>
      <trkpt lat="36.253824764862657" lon="-5.983420237898827">
        <ele>32.340000000000003</ele>
        <time>2019-02-17T12:51:20Z</time>
      </trkpt>
      <trkpt lat="36.253743041306734" lon="-5.983415711671114">
        <ele>32.340000000000003</ele>
        <time>2019-02-17T12:51:21Z</time>
      </trkpt>
      <trkpt lat="36.253665676340461" lon="-5.98342970944941">
        <ele>31.859999999999999</ele>
        <time>2019-02-17T12:51:22Z</time>
      </trkpt>
      <trkpt lat="36.253594933077693" lon="-5.983456866815686">
        <ele>31.859999999999999</ele>
        <time>2019-02-17T12:51:23Z</time>
      </trkpt>
      <trkpt lat="36.253526788204908" lon="-5.983485532924533">
        <ele>31.859999999999999</ele>
        <time>2019-02-17T12:51:24Z</time>
      </trkpt>
      <trkpt lat="36.253456128761172" lon="-5.983506487682462">
        <ele>31.859999999999999</ele>
        <time>2019-02-17T12:51:25Z</time>
      </trkpt>
      <trkpt lat="36.25338270328939" lon="-5.983509588986635">
        <ele>31.859999999999999</ele>
        <time>2019-02-17T12:51:35Z</time>
      </trkpt>
      <trkpt lat="36.253312211483717" lon="-5.983479917049408">
        <ele>27.050000000000001</ele>
        <time>2019-02-17T12:51:40Z</time>
      </trkpt>
      <trkpt lat="36.253249766305089" lon="-5.98342384211719">
        <ele>26.09</ele>
        <time>2019-02-17T12:51:41Z</time>
      </trkpt>
      <trkpt lat="36.253205761313438" lon="-5.983339939266443">
        <ele>26.09</ele>
        <time>2019-02-17T12:51:42Z</time>
      </trkpt>
      <trkpt lat="36.25317407771945" lon="-5.983243882656097">
        <ele>26.09</ele>
        <time>2019-02-17T12:51:43Z</time>
      </trkpt>
      <trkpt lat="36.253148261457682" lon="-5.983138354495168">
        <ele>26.09</ele>
        <time>2019-02-17T12:51:44Z</time>
      </trkpt>
      <trkpt lat="36.252812398597598" lon="-5.98199556581676">
        <ele>26.09</ele>
        <time>2019-02-17T12:51:45Z</time>
      </trkpt>
      <trkpt lat="36.252632606774569" lon="-5.981501452624798">
        <ele>26.09</ele>
        <time>2019-02-17T12:51:46Z</time>
      </trkpt>
      <trkpt lat="36.252611484378576" lon="-5.98142777569592">
        <ele>26.09</ele>
        <time>2019-02-17T12:51:58Z</time>
      </trkpt>
      <trkpt lat="36.252605617046356" lon="-5.981359463185072">
        <ele>27.530000000000001</ele>
        <time>2016-03-21T16:02:23Z</time>
      </trkpt>
      <trkpt lat="36.252612490206957" lon="-5.98130171187222">
        <ele>0</ele>
        <time>2016-03-21T16:02:30Z</time>
      </trkpt>
      <trkpt lat="36.252624895423651" lon="-5.981257790699601">
        <ele>0</ele>
        <time>2016-03-21T16:02:39Z</time>
      </trkpt>
      <trkpt lat="36.252637300640345" lon="-5.981225017458201">
        <ele>0</ele>
        <time>2016-03-21T16:02:47Z</time>
      </trkpt>
      <trkpt lat="36.252648197114468" lon="-5.98119811154902">
        <ele>0</ele>
        <time>2016-03-21T16:02:55Z</time>
      </trkpt>
      <trkpt lat="36.25275238417089" lon="-5.981005411595106">
        <ele>0</ele>
        <time>2016-03-21T16:03:04Z</time>
      </trkpt>
      <trkpt lat="36.252781469374895" lon="-5.981016727164388">
        <ele>0</ele>
        <time>2016-03-21T16:03:11Z</time>
      </trkpt>
      <trkpt lat="36.252714414149523" lon="-5.981125021353364">
        <ele>0</ele>
        <time>2016-03-21T16:03:30Z</time>
      </trkpt>
      <trkpt lat="36.252743918448687" lon="-5.981190651655197">
        <ele>0</ele>
        <time>2016-03-21T16:03:39Z</time>
      </trkpt>
      <trkpt lat="36.252822792157531" lon="-5.981167182326317">
        <ele>0</ele>
        <time>2016-03-21T16:03:46Z</time>
      </trkpt>
      <trkpt lat="36.2529072817415" lon="-5.981253013014793">
        <ele>0</ele>
        <time>2016-03-21T16:03:53Z</time>
      </trkpt>
      <trkpt lat="36.252945335581899" lon="-5.981358792632818">
        <ele>0</ele>
        <time>2016-03-21T16:04:00Z</time>
      </trkpt>
      <trkpt lat="36.252935193479061" lon="-5.981503967195749">
        <ele>0</ele>
        <time>2016-03-21T16:04:07Z</time>
      </trkpt>
      <trkpt lat="36.252887081354856" lon="-5.981673197820783">
        <ele>0</ele>
        <time>2016-03-21T16:04:14Z</time>
      </trkpt>
      <trkpt lat="36.252851877361536" lon="-5.981882074847817">
        <ele>0</ele>
        <time>2016-03-21T16:04:28Z</time>
      </trkpt>
      <trkpt lat="36.252877861261368" lon="-5.982132609933615">
        <ele>0</ele>
        <time>2016-03-21T16:04:36Z</time>
      </trkpt>
      <trkpt lat="36.252990094944835" lon="-5.982522871345282">
        <ele>0</ele>
        <time>2016-03-21T16:04:43Z</time>
      </trkpt>
      <trkpt lat="36.253060000017285" lon="-5.98272412084043">
        <ele>0</ele>
        <time>2016-03-21T16:04:51Z</time>
      </trkpt>
      <trkpt lat="36.253141891211271" lon="-5.982855716720223">
        <ele>0</ele>
        <time>2016-03-21T16:04:59Z</time>
      </trkpt>
      <trkpt lat="36.253257729113102" lon="-5.982940038666129">
        <ele>0</ele>
        <time>2016-03-21T16:05:07Z</time>
      </trkpt>
      <trkpt lat="36.253372896462679" lon="-5.98298504948616">
        <ele>0</ele>
        <time>2016-03-21T16:05:14Z</time>
      </trkpt>
      <trkpt lat="36.253491248935461" lon="-5.982985300943255">
        <ele>0</ele>
        <time>2016-03-21T16:05:22Z</time>
      </trkpt>
      <trkpt lat="36.253599710762501" lon="-5.983050093054771">
        <ele>0</ele>
        <time>2016-03-21T16:05:31Z</time>
      </trkpt>
      <trkpt lat="36.253673387691379" lon="-5.983172133564949">
        <ele>0</ele>
        <time>2016-03-21T16:05:38Z</time>
      </trkpt>
      <trkpt lat="36.253724852576852" lon="-5.983312530443072">
        <ele>0</ele>
        <time>2016-03-21T16:05:50Z</time>
      </trkpt>
      <trkpt lat="36.253879247233272" lon="-5.983396768569946">
        <ele>0</ele>
        <time>2016-03-21T16:06:07Z</time>
      </trkpt>
      <trkpt lat="36.25399449840188" lon="-5.983437085524201">
        <ele>0</ele>
        <time>2016-03-21T16:06:23Z</time>
      </trkpt>
      <trkpt lat="36.254275962710381" lon="-5.983549151569605">
        <ele>0</ele>
        <time>2016-03-21T16:06:31Z</time>
      </trkpt>
      <trkpt lat="36.254424573853612" lon="-5.983588127419353">
        <ele>0</ele>
        <time>2016-03-21T16:06:38Z</time>
      </trkpt>
      <trkpt lat="36.254611574113369" lon="-5.983574548736215">
        <ele>0</ele>
        <time>2016-03-21T16:06:46Z</time>
      </trkpt>
      <trkpt lat="36.254786169156432" lon="-5.983525346964598">
        <ele>0</ele>
        <time>2016-03-21T16:06:54Z</time>
      </trkpt>
      <trkpt lat="36.254871832206845" lon="-5.983476061373949">
        <ele>0</ele>
        <time>2016-03-21T16:07:02Z</time>
      </trkpt>
      <trkpt lat="36.254983311519027" lon="-5.983506068587303">
        <ele>0</ele>
        <time>2016-03-21T16:07:10Z</time>
      </trkpt>
      <trkpt lat="36.255046930164099" lon="-5.983543787151575">
        <ele>0</ele>
        <time>2016-03-21T16:07:24Z</time>
      </trkpt>
      <trkpt lat="36.25509780831635" lon="-5.983650488778949">
        <ele>0</ele>
        <time>2016-03-21T16:07:35Z</time>
      </trkpt>
      <trkpt lat="36.255127564072609" lon="-5.983741516247392">
        <ele>0</ele>
        <time>2016-03-21T16:07:48Z</time>
      </trkpt>
      <trkpt lat="36.255142400041223" lon="-5.983851151540875">
        <ele>0</ele>
        <time>2016-03-21T16:08:06Z</time>
      </trkpt>
      <trkpt lat="36.255080876871943" lon="-5.983972018584609">
        <ele>0</ele>
        <time>2016-03-21T16:08:13Z</time>
      </trkpt>
      <trkpt lat="36.254995800554752" lon="-5.984028512611985">
        <ele>0</ele>
        <time>2016-03-21T16:08:24Z</time>
      </trkpt>
      <trkpt lat="36.254881471395493" lon="-5.984081653878093">
        <ele>0</ele>
        <time>2016-03-21T16:08:36Z</time>
      </trkpt>
      <trkpt lat="36.254738308489323" lon="-5.984199084341526">
        <ele>0</ele>
        <time>2016-03-21T16:08:47Z</time>
      </trkpt>
      <trkpt lat="36.254622302949429" lon="-5.984384911134839">
        <ele>0</ele>
        <time>2016-03-21T16:08:58Z</time>
      </trkpt>
      <trkpt lat="36.254469333216548" lon="-5.984758911654353">
        <ele>0</ele>
        <time>2016-03-21T16:09:10Z</time>
      </trkpt>
      <trkpt lat="36.254283506423235" lon="-5.985188316553831">
        <ele>0</ele>
        <time>2016-03-21T16:09:16Z</time>
      </trkpt>
      <trkpt lat="36.25412056222558" lon="-5.985616045072675">
        <ele>33.780000000000001</ele>
        <time>2016-03-21T16:09:23Z</time>
      </trkpt>
      <trkpt lat="36.254014447331429" lon="-5.986065231263638">
        <ele>36.670000000000002</ele>
        <time>2016-03-21T16:09:30Z</time>
      </trkpt>
      <trkpt lat="36.253933059051633" lon="-5.986495893448591">
        <ele>39.549999999999997</ele>
        <time>2016-03-21T16:09:37Z</time>
      </trkpt>
      <trkpt lat="36.253898860886693" lon="-5.987160662189126">
        <ele>43.880000000000003</ele>
        <time>2016-03-21T16:09:43Z</time>
      </trkpt>
      <trkpt lat="36.25389575958252" lon="-5.987346405163407">
        <ele>48.68</ele>
        <time>2016-03-21T16:09:50Z</time>
      </trkpt>
      <trkpt lat="36.253941021859646" lon="-5.989616811275482">
        <ele>51.090000000000003</ele>
        <time>2016-03-21T16:09:57Z</time>
      </trkpt>
      <trkpt lat="36.253668693825603" lon="-5.992164993658662">
        <ele>52.049999999999997</ele>
        <time>2016-03-21T16:10:06Z</time>
      </trkpt>
      <trkpt lat="36.252928487956524" lon="-5.995393451303244">
        <ele>50.609999999999999</ele>
        <time>2016-03-21T16:10:14Z</time>
      </trkpt>
      <trkpt lat="36.252722293138504" lon="-5.998378749936819">
        <ele>43.399999999999999</ele>
        <time>2016-03-21T16:10:22Z</time>
      </trkpt>
      <trkpt lat="36.252312334254384" lon="-6.001336136832833">
        <ele>39.07</ele>
        <time>2016-03-21T16:10:32Z</time>
      </trkpt>
      <trkpt lat="36.251283455640078" lon="-6.00456140935421">
        <ele>37.630000000000003</ele>
        <time>2016-03-21T16:10:39Z</time>
      </trkpt>
      <trkpt lat="36.250660931691527" lon="-6.007152087986469">
        <ele>36.670000000000002</ele>
        <time>2016-03-21T16:10:47Z</time>
      </trkpt>
      <trkpt lat="36.249639010056853" lon="-6.014399752020836">
        <ele>36.189999999999998</ele>
        <time>2016-03-21T16:11:10Z</time>
      </trkpt>
      <trkpt lat="36.249411776661873" lon="-6.017952589318156">
        <ele>38.109999999999999</ele>
        <time>2016-03-21T16:11:22Z</time>
      </trkpt>
      <trkpt lat="36.24985777772963" lon="-6.020688693970442">
        <ele>35.710000000000001</ele>
        <time>2016-03-21T16:11:36Z</time>
      </trkpt>
      <trkpt lat="36.250838208943605" lon="-6.023209132254124">
        <ele>34.259999999999998</ele>
        <time>2016-03-21T16:11:52Z</time>
      </trkpt>
      <trkpt lat="36.25231702812016" lon="-6.025354396551848">
        <ele>37.149999999999999</ele>
        <time>2016-03-21T16:11:59Z</time>
      </trkpt>
      <trkpt lat="36.254178564995527" lon="-6.026958525180817">
        <ele>44.840000000000003</ele>
        <time>2016-03-21T16:12:06Z</time>
      </trkpt>
      <trkpt lat="36.256285691633821" lon="-6.02795697748661">
        <ele>49.649999999999999</ele>
        <time>2016-03-21T16:12:12Z</time>
      </trkpt>
      <trkpt lat="36.260568592697382" lon="-6.029293807223439">
        <ele>51.57</ele>
        <time>2016-03-21T16:12:19Z</time>
      </trkpt>
      <trkpt lat="36.262985849753022" lon="-6.029695048928261">
        <ele>49.159999999999997</ele>
        <time>2016-03-21T16:12:27Z</time>
      </trkpt>
      <trkpt lat="36.265126168727875" lon="-6.029381146654487">
        <ele>43.880000000000003</ele>
        <time>2016-03-21T16:12:38Z</time>
      </trkpt>
      <trkpt lat="36.267473017796874" lon="-6.0284514259547">
        <ele>35.710000000000001</ele>
        <time>2016-03-21T16:12:49Z</time>
      </trkpt>
      <trkpt lat="36.269844509661198" lon="-6.027853293344379">
        <ele>28.5</ele>
        <time>2016-03-21T16:13:04Z</time>
      </trkpt>
      <trkpt lat="36.272307448089123" lon="-6.027954211458564">
        <ele>21.77</ele>
        <time>2016-03-21T16:13:24Z</time>
      </trkpt>
      <trkpt lat="36.274382639676332" lon="-6.028629457578063">
        <ele>14.56</ele>
        <time>2016-03-21T16:13:36Z</time>
      </trkpt>
      <trkpt lat="36.276566125452518" lon="-6.030007442459464">
        <ele>14.56</ele>
        <time>2016-03-21T16:13:46Z</time>
      </trkpt>
      <trkpt lat="36.278703678399324" lon="-6.032157149165869">
        <ele>14.56</ele>
        <time>2016-03-21T16:13:58Z</time>
      </trkpt>
      <trkpt lat="36.279995832592249" lon="-6.034381538629532">
        <ele>16.48</ele>
        <time>2016-03-21T16:14:13Z</time>
      </trkpt>
      <trkpt lat="36.281664920970798" lon="-6.038636695593596">
        <ele>19.359999999999999</ele>
        <time>2016-03-21T16:14:27Z</time>
      </trkpt>
      <trkpt lat="36.28383457660675" lon="-6.044719442725182">
        <ele>23.210000000000001</ele>
        <time>2016-03-21T16:14:39Z</time>
      </trkpt>
      <trkpt lat="36.285867188125849" lon="-6.050267172977328">
        <ele>28.02</ele>
        <time>2016-03-21T16:14:45Z</time>
      </trkpt>
      <trkpt lat="36.287232683971524" lon="-6.052653333172202">
        <ele>34.259999999999998</ele>
        <time>2016-03-21T16:14:51Z</time>
      </trkpt>
      <trkpt lat="36.28872130997479" lon="-6.054345136508346">
        <ele>42.439999999999998</ele>
        <time>2016-03-21T16:14:57Z</time>
      </trkpt>
      <trkpt lat="36.29071687348187" lon="-6.055780705064535">
        <ele>43.399999999999999</ele>
        <time>2016-03-21T16:15:03Z</time>
      </trkpt>
      <trkpt lat="36.292937491089106" lon="-6.056713694706559">
        <ele>38.109999999999999</ele>
        <time>2016-03-21T16:15:13Z</time>
      </trkpt>
      <trkpt lat="36.295323232188821" lon="-6.057053580880165">
        <ele>44.359999999999999</ele>
        <time>2016-03-21T16:15:20Z</time>
      </trkpt>
      <trkpt lat="36.297764545306563" lon="-6.056736828759313">
        <ele>51.090000000000003</ele>
        <time>2016-03-21T16:15:27Z</time>
      </trkpt>
      <trkpt lat="36.302162865176797" lon="-6.055900901556015">
        <ele>61.18</ele>
        <time>2016-03-21T16:15:34Z</time>
      </trkpt>
      <trkpt lat="36.305802455171943" lon="-6.055821105837822">
        <ele>71.760000000000005</ele>
        <time>2016-03-21T16:15:45Z</time>
      </trkpt>
      <trkpt lat="36.310157859697938" lon="-6.056403564289212">
        <ele>74.159999999999997</ele>
        <time>2016-03-21T16:15:54Z</time>
      </trkpt>
      <trkpt lat="36.316151926293969" lon="-6.057187523692846">
        <ele>66.469999999999999</ele>
        <time>2016-03-21T16:16:04Z</time>
      </trkpt>
      <trkpt lat="36.318165762349963" lon="-6.057148883119226">
        <ele>57.340000000000003</ele>
        <time>2016-03-21T16:16:15Z</time>
      </trkpt>
      <trkpt lat="36.321256421506405" lon="-6.056706150993705">
        <ele>57.82</ele>
        <time>2016-03-21T16:16:22Z</time>
      </trkpt>
      <trkpt lat="36.324780257418752" lon="-6.055622957646847">
        <ele>62.619999999999997</ele>
        <time>2016-03-21T16:16:29Z</time>
      </trkpt>
      <trkpt lat="36.328044841066003" lon="-6.054046824574471">
        <ele>68.870000000000005</ele>
        <time>2016-03-21T16:16:36Z</time>
      </trkpt>
      <trkpt lat="36.331189647316933" lon="-6.05190172791481">
        <ele>75.120000000000005</ele>
        <time>2016-03-21T16:16:44Z</time>
      </trkpt>
      <trkpt lat="36.334603261202574" lon="-6.04943367652595">
        <ele>80.409999999999997</ele>
        <time>2016-03-21T16:17:01Z</time>
      </trkpt>
      <trkpt lat="36.336501594632864" lon="-6.04884828440845">
        <ele>83.769999999999996</ele>
        <time>2016-03-21T16:17:18Z</time>
      </trkpt>
      <trkpt lat="36.338708885014057" lon="-6.048882398754358">
        <ele>85.209999999999994</ele>
        <time>2016-03-21T16:17:29Z</time>
      </trkpt>
      <trkpt lat="36.340767648071051" lon="-6.049604332074523">
        <ele>85.209999999999994</ele>
        <time>2016-03-21T16:17:43Z</time>
      </trkpt>
      <trkpt lat="36.342598423361778" lon="-6.050940910354257">
        <ele>83.290000000000006</ele>
        <time>2016-03-21T16:17:57Z</time>
      </trkpt>
      <trkpt lat="36.34389091283083" lon="-6.052527520805597">
        <ele>81.370000000000005</ele>
        <time>2016-03-21T16:18:08Z</time>
      </trkpt>
      <trkpt lat="36.345014255493879" lon="-6.054798429831862">
        <ele>79.450000000000003</ele>
        <time>2016-03-21T16:18:15Z</time>
      </trkpt>
      <trkpt lat="36.345661506056786" lon="-6.057352479547262">
        <ele>77.519999999999996</ele>
        <time>2016-03-21T16:18:24Z</time>
      </trkpt>
      <trkpt lat="36.346624670550227" lon="-6.060682106763125">
        <ele>74.640000000000001</ele>
        <time>2016-03-21T16:18:30Z</time>
      </trkpt>
      <trkpt lat="36.347968960180879" lon="-6.063429275527597">
        <ele>64.069999999999993</ele>
        <time>2016-03-21T16:18:36Z</time>
      </trkpt>
      <trkpt lat="36.349736535921693" lon="-6.065820632502437">
        <ele>58.780000000000001</ele>
        <time>2016-03-21T16:18:43Z</time>
      </trkpt>
      <trkpt lat="36.351925302296877" lon="-6.068798638880253">
        <ele>52.530000000000001</ele>
        <time>2016-03-21T16:19:00Z</time>
      </trkpt>
      <trkpt lat="36.353006986901164" lon="-6.071260320022702">
        <ele>43.399999999999999</ele>
        <time>2016-03-21T16:19:16Z</time>
      </trkpt>
      <trkpt lat="36.353720370680094" lon="-6.074341591447592">
        <ele>39.07</ele>
        <time>2016-03-21T16:19:31Z</time>
      </trkpt>
      <trkpt lat="36.355295497924089" lon="-6.083465963602066">
        <ele>37.149999999999999</ele>
        <time>2016-03-21T16:19:49Z</time>
      </trkpt>
      <trkpt lat="36.355769410729408" lon="-6.088218502700329">
        <ele>35.710000000000001</ele>
        <time>2016-03-21T16:20:09Z</time>
      </trkpt>
      <trkpt lat="36.355724986642599" lon="-6.093780398368835">
        <ele>36.670000000000002</ele>
        <time>2016-03-21T16:20:16Z</time>
      </trkpt>
      <trkpt lat="36.355534717440605" lon="-6.100082416087389">
        <ele>38.590000000000003</ele>
        <time>2016-03-21T16:20:21Z</time>
      </trkpt>
      <trkpt lat="36.355997649952769" lon="-6.102731097489595">
        <ele>37.149999999999999</ele>
        <time>2016-03-21T16:20:22Z</time>
      </trkpt>
      <trkpt lat="36.356925694271922" lon="-6.105165705084801">
        <ele>28.98</ele>
        <time>2016-03-21T16:20:23Z</time>
      </trkpt>
      <trkpt lat="36.358069740235806" lon="-6.106974016875029">
        <ele>27.530000000000001</ele>
        <time>2016-03-21T16:20:24Z</time>
      </trkpt>
      <trkpt lat="36.359717957675457" lon="-6.108674369752407">
        <ele>36.189999999999998</ele>
        <time>2016-03-21T16:20:25Z</time>
      </trkpt>
      <trkpt lat="36.361875962466002" lon="-6.110053528100252">
        <ele>34.740000000000002</ele>
        <time>2016-03-21T16:20:26Z</time>
      </trkpt>
      <trkpt lat="36.365037197247148" lon="-6.111504603177309">
        <ele>33.299999999999997</ele>
        <time>2016-03-21T16:20:27Z</time>
      </trkpt>
      <trkpt lat="36.368441423401237" lon="-6.112477658316493">
        <ele>31.859999999999999</ele>
        <time>2016-03-21T16:20:28Z</time>
      </trkpt>
      <trkpt lat="36.373148364946246" lon="-6.11331014893949">
        <ele>26.57</ele>
        <time>2016-03-21T16:20:29Z</time>
      </trkpt>
      <trkpt lat="36.379192974418402" lon="-6.114359060302377">
        <ele>26.57</ele>
        <time>2016-03-21T16:20:30Z</time>
      </trkpt>
      <trkpt lat="36.382708428427577" lon="-6.115206554532051">
        <ele>21.289999999999999</ele>
        <time>2016-03-21T16:20:31Z</time>
      </trkpt>
      <trkpt lat="36.385499518364668" lon="-6.116518070921302">
        <ele>19.359999999999999</ele>
        <time>2016-03-21T16:20:32Z</time>
      </trkpt>
      <trkpt lat="36.388903660699725" lon="-6.118314480409026">
        <ele>16.960000000000001</ele>
        <time>2016-03-21T16:20:33Z</time>
      </trkpt>
      <trkpt lat="36.392881795763969" lon="-6.121432632207871">
        <ele>14.56</ele>
        <time>2016-03-21T16:20:34Z</time>
      </trkpt>
      <trkpt lat="36.396617023274302" lon="-6.124071171507239">
        <ele>13.119999999999999</ele>
        <time>2016-03-21T16:20:35Z</time>
      </trkpt>
      <trkpt lat="36.399916224181652" lon="-6.125958943739533">
        <ele>12.630000000000001</ele>
        <time>2016-03-21T16:20:44Z</time>
      </trkpt>
      <trkpt lat="36.401644153520465" lon="-6.126244766637683">
        <ele>13.119999999999999</ele>
        <time>2016-03-21T16:20:54Z</time>
      </trkpt>
      <trkpt lat="36.403317768126726" lon="-6.125917537137866">
        <ele>12.630000000000001</ele>
        <time>2016-03-21T16:21:04Z</time>
      </trkpt>
      <trkpt lat="36.404790719971061" lon="-6.125043304637075">
        <ele>12.630000000000001</ele>
        <time>2016-03-21T16:21:12Z</time>
      </trkpt>
      <trkpt lat="36.405989332124591" lon="-6.123726004734635">
        <ele>13.6</ele>
        <time>2016-03-21T16:21:22Z</time>
      </trkpt>
      <trkpt lat="36.407599914819002" lon="-6.121222665533423">
        <ele>14.56</ele>
        <time>2016-03-21T16:21:37Z</time>
      </trkpt>
      <trkpt lat="36.4090505708009" lon="-6.119851218536496">
        <ele>13.6</ele>
        <time>2016-03-21T16:21:44Z</time>
      </trkpt>
      <trkpt lat="36.410772297531366" lon="-6.119017135351896">
        <ele>22.73</ele>
        <time>2016-03-21T16:21:50Z</time>
      </trkpt>
      <trkpt lat="36.412568120285869" lon="-6.118779256939888">
        <ele>30.899999999999999</ele>
        <time>2016-03-21T16:21:57Z</time>
      </trkpt>
      <trkpt lat="36.415438670665026" lon="-6.11858488060534">
        <ele>35.229999999999997</ele>
        <time>2016-03-21T16:22:11Z</time>
      </trkpt>
      <trkpt lat="36.417776886373758" lon="-6.117818942293525">
        <ele>36.189999999999998</ele>
        <time>2016-03-21T16:22:28Z</time>
      </trkpt>
      <trkpt lat="36.420243848115206" lon="-6.116383289918304">
        <ele>36.670000000000002</ele>
        <time>2016-03-21T16:22:53Z</time>
      </trkpt>
      <trkpt lat="36.422789264470339" lon="-6.114572715014219">
        <ele>36.670000000000002</ele>
        <time>2016-03-21T16:23:06Z</time>
      </trkpt>
      <trkpt lat="36.424538651481271" lon="-6.114015821367502">
        <ele>33.780000000000001</ele>
        <time>2016-03-21T16:23:25Z</time>
      </trkpt>
      <trkpt lat="36.426437320187688" lon="-6.11410710029304">
        <ele>26.57</ele>
        <time>2016-03-21T16:23:42Z</time>
      </trkpt>
      <trkpt lat="36.428227024152875" lon="-6.114804809913039">
        <ele>19.84</ele>
        <time>2016-03-21T16:23:49Z</time>
      </trkpt>
      <trkpt lat="36.429959144443274" lon="-6.116177346557379">
        <ele>15.52</ele>
        <time>2016-03-21T16:23:59Z</time>
      </trkpt>
      <trkpt lat="36.433478537946939" lon="-6.119604539126158">
        <ele>14.08</ele>
        <time>2016-03-21T16:24:09Z</time>
      </trkpt>
      <trkpt lat="36.436969935894012" lon="-6.123362900689244">
        <ele>12.630000000000001</ele>
        <time>2016-03-21T16:24:24Z</time>
      </trkpt>
      <trkpt lat="36.43896977417171" lon="-6.1261195410043">
        <ele>6.39</ele>
        <time>2016-03-21T16:24:37Z</time>
      </trkpt>
      <trkpt lat="36.441207323223352" lon="-6.130091473460197">
        <ele>5.91</ele>
        <time>2016-03-21T16:24:47Z</time>
      </trkpt>
      <trkpt lat="36.443053688853979" lon="-6.134388204663992">
        <ele>4.94</ele>
        <time>2016-03-21T16:25:01Z</time>
      </trkpt>
      <trkpt lat="36.444230759516358" lon="-6.137920925393701">
        <ele>4.46</ele>
        <time>2016-03-21T16:25:12Z</time>
      </trkpt>
      <trkpt lat="36.444387836381793" lon="-6.140268025919795">
        <ele>3.98</ele>
        <time>2016-03-21T16:25:26Z</time>
      </trkpt>
      <trkpt lat="36.444437792524695" lon="-6.143227927386761">
        <ele>3.98</ele>
        <time>2016-03-21T16:25:38Z</time>
      </trkpt>
      <trkpt lat="36.444995356723666" lon="-6.145094996318221">
        <ele>3.98</ele>
        <time>2016-03-21T16:25:46Z</time>
      </trkpt>
      <trkpt lat="36.445965562015772" lon="-6.146652353927493">
        <ele>3.98</ele>
        <time>2016-03-21T16:25:54Z</time>
      </trkpt>
      <trkpt lat="36.447518393397331" lon="-6.148114325478673">
        <ele>5.42</ele>
        <time>2016-03-21T16:26:04Z</time>
      </trkpt>
      <trkpt lat="36.451345905661583" lon="-6.151484102010727">
        <ele>7.35</ele>
        <time>2016-03-21T16:26:16Z</time>
      </trkpt>
      <trkpt lat="36.454831268638372" lon="-6.154558584094048">
        <ele>7.35</ele>
        <time>2016-03-21T16:26:22Z</time>
      </trkpt>
      <trkpt lat="36.457890244200826" lon="-6.157231153920293">
        <ele>7.35</ele>
        <time>2016-03-21T16:26:23Z</time>
      </trkpt>
      <trkpt lat="36.461365381255746" lon="-6.160204969346523">
        <ele>7.35</ele>
        <time>2016-03-21T16:26:24Z</time>
      </trkpt>
      <trkpt lat="36.465154169127345" lon="-6.16337550804019">
        <ele>7.35</ele>
        <time>2016-03-21T16:26:25Z</time>
      </trkpt>
      <trkpt lat="36.466277344152331" lon="-6.1643161252141">
        <ele>7.35</ele>
        <time>2016-03-21T16:26:26Z</time>
      </trkpt>
      <trkpt lat="36.466879583895206" lon="-6.164790876209736">
        <ele>6.87</ele>
        <time>2016-03-21T16:26:27Z</time>
      </trkpt>
      <trkpt lat="36.467004893347621" lon="-6.164848208427429">
        <ele>6.87</ele>
        <time>2016-03-21T16:26:28Z</time>
      </trkpt>
      <trkpt lat="36.467139422893524" lon="-6.164872935041785">
        <ele>6.39</ele>
        <time>2016-03-21T16:26:30Z</time>
      </trkpt>
      <trkpt lat="36.467278311029077" lon="-6.164865391328931">
        <ele>5.91</ele>
        <time>2016-03-21T16:26:31Z</time>
      </trkpt>
      <trkpt lat="36.467417702078819" lon="-6.164834043011069">
        <ele>5.42</ele>
        <time>2016-03-21T16:26:32Z</time>
      </trkpt>
      <trkpt lat="36.467556757852435" lon="-6.164782075211406">
        <ele>5.42</ele>
        <time>2016-03-21T16:26:35Z</time>
      </trkpt>
      <trkpt lat="36.46769187413156" lon="-6.164709404110909">
        <ele>5.42</ele>
        <time>2016-03-21T16:26:36Z</time>
      </trkpt>
      <trkpt lat="36.467819614335895" lon="-6.164614940062165">
        <ele>5.42</ele>
        <time>2016-03-21T16:26:37Z</time>
      </trkpt>
      <trkpt lat="36.467941990122199" lon="-6.164504550397396">
        <ele>4.94</ele>
        <time>2016-03-21T16:26:38Z</time>
      </trkpt>
      <trkpt lat="36.468056654557586" lon="-6.16438016295433">
        <ele>4.94</ele>
        <time>2016-03-21T16:26:39Z</time>
      </trkpt>
      <trkpt lat="36.468152794986963" lon="-6.164237419143319">
        <ele>4.46</ele>
        <time>2016-03-21T16:26:40Z</time>
      </trkpt>
      <trkpt lat="36.468229489400983" lon="-6.16408109664917">
        <ele>4.94</ele>
        <time>2016-03-21T16:26:49Z</time>
      </trkpt>
      <trkpt lat="36.468289084732533" lon="-6.163917062804103">
        <ele>5.91</ele>
        <time>2016-03-21T16:26:59Z</time>
      </trkpt>
      <trkpt lat="36.468335436657071" lon="-6.163747915998101">
        <ele>5.91</ele>
        <time>2016-03-21T16:27:09Z</time>
      </trkpt>
      <trkpt lat="36.468374077230692" lon="-6.163577092811465">
        <ele>4.46</ele>
        <time>2016-03-21T16:27:24Z</time>
      </trkpt>
      <trkpt lat="36.468598376959562" lon="-6.161825694143772">
        <ele>4.94</ele>
        <time>2016-03-21T16:27:36Z</time>
      </trkpt>
      <trkpt lat="36.468363348394632" lon="-6.159667856991291">
        <ele>5.42</ele>
        <time>2016-03-21T16:27:53Z</time>
      </trkpt>
      <trkpt lat="36.468074172735214" lon="-6.157258059829474">
        <ele>5.91</ele>
        <time>2016-03-21T16:28:11Z</time>
      </trkpt>
      <trkpt lat="36.468275422230363" lon="-6.155170546844602">
        <ele>5.42</ele>
        <time>2016-03-21T16:28:31Z</time>
      </trkpt>
      <trkpt lat="36.469012862071395" lon="-6.152486829087138">
        <ele>3.98</ele>
        <time>2016-03-21T16:28:46Z</time>
      </trkpt>
      <trkpt lat="36.470334101468325" lon="-6.148193618282676">
        <ele>3.98</ele>
        <time>2016-03-21T16:29:01Z</time>
      </trkpt>
      <trkpt lat="36.471451660618186" lon="-6.146548502147198">
        <ele>4.94</ele>
        <time>2016-03-21T16:29:16Z</time>
      </trkpt>
      <trkpt lat="36.472747251391411" lon="-6.145580308511853">
        <ele>5.42</ele>
        <time>2016-03-21T16:29:32Z</time>
      </trkpt>
      <trkpt lat="36.474528992548585" lon="-6.145073790103197">
        <ele>4.94</ele>
        <time>2016-03-21T16:29:46Z</time>
      </trkpt>
      <trkpt lat="36.478306632488966" lon="-6.14471772685647">
        <ele>6.87</ele>
        <time>2016-03-21T16:29:56Z</time>
      </trkpt>
      <trkpt lat="36.482988093048334" lon="-6.144266277551651">
        <ele>7.35</ele>
        <time>2016-03-21T16:30:06Z</time>
      </trkpt>
      <trkpt lat="36.489950604736805" lon="-6.143547864630818">
        <ele>6.87</ele>
        <time>2016-03-21T16:30:16Z</time>
      </trkpt>
      <trkpt lat="36.493612071499228" lon="-6.143494807183743">
        <ele>7.35</ele>
        <time>2016-03-21T16:30:26Z</time>
      </trkpt>
      <trkpt lat="36.499045388773084" lon="-6.144124288111925">
        <ele>7.83</ele>
        <time>2016-03-21T16:30:37Z</time>
      </trkpt>
      <trkpt lat="36.503852158784866" lon="-6.144877402111888">
        <ele>10.23</ele>
        <time>2016-03-21T16:30:45Z</time>
      </trkpt>
      <trkpt lat="36.505673127248883" lon="-6.145759932696819">
        <ele>10.23</ele>
        <time>2016-03-21T16:30:53Z</time>
      </trkpt>
      <trkpt lat="36.508069261908531" lon="-6.147612584754825">
        <ele>15.52</ele>
        <time>2016-03-21T16:31:06Z</time>
      </trkpt>
      <trkpt lat="36.510284682735801" lon="-6.149784838780761">
        <ele>14.56</ele>
        <time>2016-03-21T16:31:21Z</time>
      </trkpt>
      <trkpt lat="36.513577094301581" lon="-6.152998125180602">
        <ele>14.08</ele>
        <time>2016-03-21T16:31:37Z</time>
      </trkpt>
      <trkpt lat="36.516349744051695" lon="-6.155898096039891">
        <ele>20.32</ele>
        <time>2016-03-21T16:31:52Z</time>
      </trkpt>
      <trkpt lat="36.518159648403525" lon="-6.158083258196712">
        <ele>26.09</ele>
        <time>2016-03-21T16:32:00Z</time>
      </trkpt>
      <trkpt lat="36.520901704207063" lon="-6.161085655912757">
        <ele>28.5</ele>
        <time>2016-03-21T16:32:08Z</time>
      </trkpt>
      <trkpt lat="36.523217540234327" lon="-6.163015840575099">
        <ele>28.5</ele>
        <time>2016-03-21T16:32:16Z</time>
      </trkpt>
      <trkpt lat="36.526407524943352" lon="-6.165538541972637">
        <ele>17.440000000000001</ele>
        <time>2016-03-21T16:32:27Z</time>
      </trkpt>
      <trkpt lat="36.529024858027697" lon="-6.167702078819275">
        <ele>16</ele>
        <time>2016-03-21T16:32:34Z</time>
      </trkpt>
      <trkpt lat="36.530974907800555" lon="-6.168472627177835">
        <ele>16</ele>
        <time>2016-03-21T16:32:41Z</time>
      </trkpt>
      <trkpt lat="36.532993353903294" lon="-6.168636409565806">
        <ele>15.52</ele>
        <time>2016-03-21T16:32:53Z</time>
      </trkpt>
      <trkpt lat="36.535337856039405" lon="-6.16834388114512">
        <ele>15.52</ele>
        <time>2016-03-21T16:33:04Z</time>
      </trkpt>
      <trkpt lat="36.537898192182183" lon="-6.168014472350478">
        <ele>14.56</ele>
        <time>2016-03-21T16:33:14Z</time>
      </trkpt>
      <trkpt lat="36.539036454632878" lon="-6.167908608913422">
        <ele>14.08</ele>
        <time>2016-03-21T16:33:24Z</time>
      </trkpt>
      <trkpt lat="36.539188837632537" lon="-6.16785479709506">
        <ele>13.6</ele>
        <time>2016-03-21T16:33:37Z</time>
      </trkpt>
      <trkpt lat="36.539327055215836" lon="-6.167775923386216">
        <ele>12.15</ele>
        <time>2016-03-21T16:33:50Z</time>
      </trkpt>
      <trkpt lat="36.539450939744711" lon="-6.167671484872699">
        <ele>11.67</ele>
        <time>2016-03-21T16:33:59Z</time>
      </trkpt>
      <trkpt lat="36.539559653028846" lon="-6.167541313916445">
        <ele>11.19</ele>
        <time>2016-03-21T16:34:11Z</time>
      </trkpt>
      <trkpt lat="36.539657050743699" lon="-6.16739253513515">
        <ele>9.27</ele>
        <time>2016-03-21T16:34:20Z</time>
      </trkpt>
      <trkpt lat="36.539751766249537" lon="-6.167233195155859">
        <ele>9.27</ele>
        <time>2016-03-21T16:34:32Z</time>
      </trkpt>
      <trkpt lat="36.539963660761714" lon="-6.166932284832001">
        <ele>8.789999999999999</ele>
        <time>2016-03-21T16:34:47Z</time>
      </trkpt>
      <trkpt lat="36.540085365995765" lon="-6.166804879903793">
        <ele>8.789999999999999</ele>
        <time>2016-03-21T16:35:02Z</time>
      </trkpt>
      <trkpt lat="36.540215956047177" lon="-6.166695076972246">
        <ele>8.789999999999999</ele>
        <time>2016-03-21T16:35:18Z</time>
      </trkpt>
      <trkpt lat="36.540594231337309" lon="-6.166396765038371">
        <ele>9.27</ele>
        <time>2016-03-21T16:35:26Z</time>
      </trkpt>
      <trkpt lat="36.540686264634132" lon="-6.166273383423686">
        <ele>11.19</ele>
        <time>2016-03-21T16:35:35Z</time>
      </trkpt>
      <trkpt lat="36.54075164347887" lon="-6.166131058707833">
        <ele>13.6</ele>
        <time>2016-03-21T16:35:45Z</time>
      </trkpt>
      <trkpt lat="36.540791289880872" lon="-6.165982447564602">
        <ele>16.48</ele>
        <time>2016-03-21T16:35:57Z</time>
      </trkpt>
      <trkpt lat="36.540811574086547" lon="-6.165833668783307">
        <ele>21.289999999999999</ele>
        <time>2016-03-21T16:36:08Z</time>
      </trkpt>
      <trkpt lat="36.540819285437465" lon="-6.165681285783649">
        <ele>23.690000000000001</ele>
        <time>2016-03-21T16:36:19Z</time>
      </trkpt>
      <trkpt lat="36.540866056457162" lon="-6.164083946496248">
        <ele>27.050000000000001</ele>
        <time>2016-03-21T16:36:29Z</time>
      </trkpt>
      <trkpt lat="36.541051212698221" lon="-6.161900293081999">
        <ele>20.809999999999999</ele>
        <time>2016-03-21T16:36:39Z</time>
      </trkpt>
      <trkpt lat="36.541259754449129" lon="-6.15917625837028">
        <ele>13.6</ele>
        <time>2016-03-21T16:36:49Z</time>
      </trkpt>
      <trkpt lat="36.541684046387672" lon="-6.154575515538454">
        <ele>16</ele>
        <time>2016-03-21T16:37:01Z</time>
      </trkpt>
      <trkpt lat="36.542202215641737" lon="-6.150550022721291">
        <ele>19.359999999999999</ele>
        <time>2016-03-21T16:37:17Z</time>
      </trkpt>
      <trkpt lat="36.543157752603292" lon="-6.144634578377008">
        <ele>20.32</ele>
        <time>2016-03-21T16:37:32Z</time>
      </trkpt>
      <trkpt lat="36.544450828805566" lon="-6.138502629473805">
        <ele>22.73</ele>
        <time>2016-03-21T16:37:46Z</time>
      </trkpt>
      <trkpt lat="36.546254027634859" lon="-6.131638353690505">
        <ele>21.77</ele>
        <time>2016-03-21T16:38:02Z</time>
      </trkpt>
      <trkpt lat="36.547963600605726" lon="-6.126616420224309">
        <ele>19.359999999999999</ele>
        <time>2016-03-21T16:38:20Z</time>
      </trkpt>
      <trkpt lat="36.550041055306792" lon="-6.121866395696998">
        <ele>16.48</ele>
        <time>2016-03-21T16:38:37Z</time>
      </trkpt>
      <trkpt lat="36.552496533840895" lon="-6.117400769144297">
        <ele>13.119999999999999</ele>
        <time>2016-03-21T16:38:56Z</time>
      </trkpt>
      <trkpt lat="36.55545350164175" lon="-6.112987361848354">
        <ele>13.119999999999999</ele>
        <time>2016-03-21T16:39:10Z</time>
      </trkpt>
      <trkpt lat="36.558404015377164" lon="-6.109387669712305">
        <ele>19.359999999999999</ele>
        <time>2016-03-21T16:39:26Z</time>
      </trkpt>
      <trkpt lat="36.560840215533972" lon="-6.107255816459656">
        <ele>27.050000000000001</ele>
        <time>2016-03-21T16:39:42Z</time>
      </trkpt>
      <trkpt lat="36.563515802845359" lon="-6.105653364211321">
        <ele>35.229999999999997</ele>
        <time>2016-03-21T16:40:00Z</time>
      </trkpt>
      <trkpt lat="36.566377300769091" lon="-6.104604033753276">
        <ele>42.920000000000002</ele>
        <time>2016-03-21T16:40:14Z</time>
      </trkpt>
      <trkpt lat="36.569263022392988" lon="-6.104145795106888">
        <ele>49.159999999999997</ele>
        <time>2016-03-21T16:40:29Z</time>
      </trkpt>
      <trkpt lat="36.572418389841914" lon="-6.10353073105216">
        <ele>62.140000000000001</ele>
        <time>2016-03-21T16:40:43Z</time>
      </trkpt>
      <trkpt lat="36.574504226446152" lon="-6.102341171354055">
        <ele>71.269999999999996</ele>
        <time>2016-03-21T16:40:58Z</time>
      </trkpt>
      <trkpt lat="36.576274484395981" lon="-6.100518610328436">
        <ele>74.640000000000001</ele>
        <time>2016-03-21T16:41:14Z</time>
      </trkpt>
      <trkpt lat="36.57890816219151" lon="-6.09707934781909">
        <ele>73.200000000000003</ele>
        <time>2016-03-21T16:41:29Z</time>
      </trkpt>
      <trkpt lat="36.582243824377656" lon="-6.093317968770862">
        <ele>65.510000000000005</ele>
        <time>2016-03-21T16:41:47Z</time>
      </trkpt>
      <trkpt lat="36.585960192605853" lon="-6.089801676571369">
        <ele>53.009999999999998</ele>
        <time>2016-03-21T16:42:03Z</time>
      </trkpt>
      <trkpt lat="36.589709082618356" lon="-6.086856527253985">
        <ele>45.32</ele>
        <time>2016-03-21T16:42:16Z</time>
      </trkpt>
      <trkpt lat="36.591891562566161" lon="-6.085715079680085">
        <ele>38.590000000000003</ele>
        <time>2016-03-21T16:42:31Z</time>
      </trkpt>
      <trkpt lat="36.594262970611453" lon="-6.085178973153234">
        <ele>30.420000000000002</ele>
        <time>2016-03-21T16:42:45Z</time>
      </trkpt>
      <trkpt lat="36.596689615398645" lon="-6.085306378081441">
        <ele>29.460000000000001</ele>
        <time>2016-03-21T16:42:59Z</time>
      </trkpt>
      <trkpt lat="36.599807180464268" lon="-6.086056726053357">
        <ele>26.09</ele>
        <time>2016-03-21T16:43:12Z</time>
      </trkpt>
      <trkpt lat="36.60187860019505" lon="-6.086025042459369">
        <ele>21.289999999999999</ele>
        <time>2016-03-21T16:43:28Z</time>
      </trkpt>
      <trkpt lat="36.603900650516152" lon="-6.08541140332818">
        <ele>16.48</ele>
        <time>2016-03-21T16:43:41Z</time>
      </trkpt>
      <trkpt lat="36.607294650748372" lon="-6.084006680175662">
        <ele>12.630000000000001</ele>
        <time>2016-03-21T16:43:55Z</time>
      </trkpt>
      <trkpt lat="36.610638778656721" lon="-6.083209225907922">
        <ele>12.630000000000001</ele>
        <time>2016-03-21T16:44:09Z</time>
      </trkpt>
      <trkpt lat="36.613785764202476" lon="-6.083052316680551">
        <ele>11.67</ele>
        <time>2016-03-21T16:44:24Z</time>
      </trkpt>
      <trkpt lat="36.616907520219684" lon="-6.083451462909579">
        <ele>13.6</ele>
        <time>2016-03-21T16:44:37Z</time>
      </trkpt>
      <trkpt lat="36.620877105742693" lon="-6.0844795871526">
        <ele>15.52</ele>
        <time>2016-03-21T16:44:47Z</time>
      </trkpt>
      <trkpt lat="36.624692967161536" lon="-6.085076378658414">
        <ele>12.15</ele>
        <time>2016-03-21T16:44:56Z</time>
      </trkpt>
      <trkpt lat="36.627291357144713" lon="-6.085861595347524">
        <ele>12.15</ele>
        <time>2016-03-21T16:45:05Z</time>
      </trkpt>
      <trkpt lat="36.630759872496128" lon="-6.08744602650404">
        <ele>11.67</ele>
        <time>2016-03-21T16:45:14Z</time>
      </trkpt>
      <trkpt lat="36.633503017947078" lon="-6.088166115805507">
        <ele>11.67</ele>
        <time>2016-03-21T16:45:31Z</time>
      </trkpt>
      <trkpt lat="36.637230617925525" lon="-6.088318498805165">
        <ele>12.15</ele>
        <time>2016-03-21T16:45:45Z</time>
      </trkpt>
      <trkpt lat="36.642014924436808" lon="-6.087903091683984">
        <ele>11.67</ele>
        <time>2016-03-21T16:45:59Z</time>
      </trkpt>
      <trkpt lat="36.646757489070296" lon="-6.086893323808909">
        <ele>11.67</ele>
        <time>2016-03-21T16:46:08Z</time>
      </trkpt>
      <trkpt lat="36.651754528284073" lon="-6.085234377533197">
        <ele>12.15</ele>
        <time>2016-03-21T16:46:17Z</time>
      </trkpt>
      <trkpt lat="36.654293909668922" lon="-6.08474588021636">
        <ele>13.119999999999999</ele>
        <time>2016-03-21T16:46:33Z</time>
      </trkpt>
      <trkpt lat="36.657145768404007" lon="-6.084721991792321">
        <ele>13.6</ele>
        <time>2016-03-21T16:46:45Z</time>
      </trkpt>
      <trkpt lat="36.660237181931734" lon="-6.085335714742541">
        <ele>13.6</ele>
        <time>2016-03-21T16:46:59Z</time>
      </trkpt>
      <trkpt lat="36.663815332576632" lon="-6.086750496178865">
        <ele>16</ele>
        <time>2016-03-21T16:47:10Z</time>
      </trkpt>
      <trkpt lat="36.667148731648922" lon="-6.087827235460281">
        <ele>18.399999999999999</ele>
        <time>2016-03-21T16:47:20Z</time>
      </trkpt>
      <trkpt lat="36.670590844005346" lon="-6.088249180465937">
        <ele>16.960000000000001</ele>
        <time>2016-03-21T16:47:31Z</time>
      </trkpt>
      <trkpt lat="36.67370555922389" lon="-6.088054804131389">
        <ele>15.52</ele>
        <time>2016-03-21T16:47:41Z</time>
      </trkpt>
      <trkpt lat="36.676802085712552" lon="-6.087350305169821">
        <ele>15.52</ele>
        <time>2016-03-21T16:47:52Z</time>
      </trkpt>
      <trkpt lat="36.679776404052973" lon="-6.086086062714458">
        <ele>17.920000000000002</ele>
        <time>2016-03-21T16:48:06Z</time>
      </trkpt>
      <trkpt lat="36.683051465079188" lon="-6.083997040987015">
        <ele>17.920000000000002</ele>
        <time>2016-03-21T16:48:17Z</time>
      </trkpt>
      <trkpt lat="36.687328750267625" lon="-6.080992463976145">
        <ele>16.48</ele>
        <time>2016-03-21T16:48:27Z</time>
      </trkpt>
      <trkpt lat="36.691628582775593" lon="-6.078692637383938">
        <ele>17.920000000000002</ele>
        <time>2016-03-21T16:48:38Z</time>
      </trkpt>
      <trkpt lat="36.695808973163366" lon="-6.077046180143952">
        <ele>19.84</ele>
        <time>2016-03-21T16:48:49Z</time>
      </trkpt>
      <trkpt lat="36.70069788582623" lon="-6.075729299336672">
        <ele>20.32</ele>
        <time>2016-03-21T16:48:59Z</time>
      </trkpt>
      <trkpt lat="36.70620328746736" lon="-6.074199853464961">
        <ele>19.84</ele>
        <time>2016-03-21T16:49:10Z</time>
      </trkpt>
      <trkpt lat="36.711334185674787" lon="-6.072254665195942">
        <ele>21.77</ele>
        <time>2016-03-21T16:49:26Z</time>
      </trkpt>
      <trkpt lat="36.716959699988365" lon="-6.069554938003421">
        <ele>24.649999999999999</ele>
        <time>2016-03-21T16:49:38Z</time>
      </trkpt>
      <trkpt lat="36.720970021560788" lon="-6.067119659855962">
        <ele>26.57</ele>
        <time>2016-03-21T16:49:50Z</time>
      </trkpt>
      <trkpt lat="36.725340178236365" lon="-6.06410619802773">
        <ele>28.5</ele>
        <time>2016-03-21T16:50:02Z</time>
      </trkpt>
      <trkpt lat="36.72954604960978" lon="-6.060604574158788">
        <ele>30.420000000000002</ele>
        <time>2016-03-21T16:50:14Z</time>
      </trkpt>
      <trkpt lat="36.734068589285016" lon="-6.056333156302571">
        <ele>31.859999999999999</ele>
        <time>2016-03-21T16:50:26Z</time>
      </trkpt>
      <trkpt lat="36.737534925341606" lon="-6.053199917078018">
        <ele>32.340000000000003</ele>
        <time>2016-03-21T16:50:39Z</time>
      </trkpt>
      <trkpt lat="36.741346344351768" lon="-6.050302544608712">
        <ele>35.229999999999997</ele>
        <time>2016-03-21T16:50:54Z</time>
      </trkpt>
      <trkpt lat="36.745058856904507" lon="-6.047968938946724">
        <ele>40.509999999999998</ele>
        <time>2016-03-21T16:51:10Z</time>
      </trkpt>
      <trkpt lat="36.749338824301958" lon="-6.04578603990376">
        <ele>44.840000000000003</ele>
        <time>2016-03-21T16:51:29Z</time>
      </trkpt>
      <trkpt lat="36.754156574606895" lon="-6.043928358703852">
        <ele>49.649999999999999</ele>
        <time>2016-03-21T16:51:43Z</time>
      </trkpt>
      <trkpt lat="36.75888673402369" lon="-6.042724214494228">
        <ele>51.090000000000003</ele>
        <time>2016-03-21T16:51:58Z</time>
      </trkpt>
      <trkpt lat="36.764599336311221" lon="-6.04190488345921">
        <ele>52.530000000000001</ele>
        <time>2016-03-21T16:52:11Z</time>
      </trkpt>
      <trkpt lat="36.769646164029837" lon="-6.04184134863317">
        <ele>48.68</ele>
        <time>2016-03-21T16:52:25Z</time>
      </trkpt>
      <trkpt lat="36.773571744561195" lon="-6.042225658893585">
        <ele>37.630000000000003</ele>
        <time>2016-03-21T16:52:38Z</time>
      </trkpt>
      <trkpt lat="36.778035024181008" lon="-6.042998302727938">
        <ele>35.229999999999997</ele>
        <time>2016-03-21T16:52:51Z</time>
      </trkpt>
      <trkpt lat="36.782318344339728" lon="-6.043575312942267">
        <ele>32.82</ele>
        <time>2016-03-21T16:53:05Z</time>
      </trkpt>
      <trkpt lat="36.786728817969561" lon="-6.043614121153951">
        <ele>30.420000000000002</ele>
        <time>2016-03-21T16:53:21Z</time>
      </trkpt>
      <trkpt lat="36.790914237499237" lon="-6.043146830052137">
        <ele>37.630000000000003</ele>
        <time>2016-03-21T16:53:33Z</time>
      </trkpt>
      <trkpt lat="36.796135660260916" lon="-6.04262949898839">
        <ele>42.920000000000002</ele>
        <time>2016-03-21T16:53:44Z</time>
      </trkpt>
      <trkpt lat="36.800312614068389" lon="-6.042180312797427">
        <ele>42.920000000000002</ele>
        <time>2016-03-21T16:53:55Z</time>
      </trkpt>
      <trkpt lat="36.804740857332945" lon="-6.0411421302706">
        <ele>43.880000000000003</ele>
        <time>2016-03-21T16:54:08Z</time>
      </trkpt>
      <trkpt lat="36.809051837772131" lon="-6.039565997198224">
        <ele>47.719999999999999</ele>
        <time>2016-03-21T16:54:19Z</time>
      </trkpt>
      <trkpt lat="36.813457785174251" lon="-6.037595076486468">
        <ele>51.57</ele>
        <time>2016-03-21T16:54:30Z</time>
      </trkpt>
      <trkpt lat="36.817294768989086" lon="-6.03626805357635">
        <ele>60.219999999999999</ele>
        <time>2016-03-21T16:54:39Z</time>
      </trkpt>
      <trkpt lat="36.820240169763565" lon="-6.035030633211136">
        <ele>64.549999999999997</ele>
        <time>2016-03-21T16:54:52Z</time>
      </trkpt>
      <trkpt lat="36.822676453739405" lon="-6.033178316429257">
        <ele>66.469999999999999</ele>
        <time>2016-03-21T16:55:02Z</time>
      </trkpt>
      <trkpt lat="36.824712082743645" lon="-6.030776146799326">
        <ele>70.310000000000002</ele>
        <time>2016-03-21T16:55:10Z</time>
      </trkpt>
      <trkpt lat="36.826286455616355" lon="-6.027937782928348">
        <ele>74.159999999999997</ele>
        <time>2016-03-21T16:55:17Z</time>
      </trkpt>
      <trkpt lat="36.828957935795188" lon="-6.022441936656833">
        <ele>85.209999999999994</ele>
        <time>2016-03-21T16:55:25Z</time>
      </trkpt>
      <trkpt lat="36.831489857286215" lon="-6.018165741115809">
        <ele>92.420000000000002</ele>
        <time>2016-03-21T16:55:35Z</time>
      </trkpt>
      <trkpt lat="36.834499798715115" lon="-6.014144439250231">
        <ele>90.019999999999996</ele>
        <time>2016-03-21T16:55:53Z</time>
      </trkpt>
      <trkpt lat="36.83677950873971" lon="-6.011980902403593">
        <ele>86.659999999999997</ele>
        <time>2016-03-21T16:56:04Z</time>
      </trkpt>
      <trkpt lat="36.839300869032741" lon="-6.010282058268786">
        <ele>83.290000000000006</ele>
        <time>2016-03-21T16:56:14Z</time>
      </trkpt>
      <trkpt lat="36.843834724277258" lon="-6.007426930591464">
        <ele>81.370000000000005</ele>
        <time>2016-03-21T16:56:23Z</time>
      </trkpt>
      <trkpt lat="36.846902081742883" lon="-6.004634667187929">
        <ele>77.040000000000006</ele>
        <time>2016-03-21T16:56:32Z</time>
      </trkpt>
      <trkpt lat="36.850360287353396" lon="-6.000933805480599">
        <ele>70.310000000000002</ele>
        <time>2016-03-21T16:56:42Z</time>
      </trkpt>
      <trkpt lat="36.853294456377625" lon="-5.998476315289736">
        <ele>65.989999999999995</ele>
        <time>2016-03-21T16:56:54Z</time>
      </trkpt>
      <trkpt lat="36.85610281303525" lon="-5.99671695381403">
        <ele>63.579999999999998</ele>
        <time>2016-03-21T16:57:05Z</time>
      </trkpt>
      <trkpt lat="36.85936639085412" lon="-5.995261939242482">
        <ele>59.259999999999998</ele>
        <time>2016-03-21T16:57:17Z</time>
      </trkpt>
      <trkpt lat="36.862308271229267" lon="-5.994432047009468">
        <ele>60.219999999999999</ele>
        <time>2016-03-21T16:57:34Z</time>
      </trkpt>
      <trkpt lat="36.865625996142626" lon="-5.993984621018171">
        <ele>56.369999999999997</ele>
        <time>2016-03-21T16:57:46Z</time>
      </trkpt>
      <trkpt lat="36.869872519746423" lon="-5.993932820856571">
        <ele>52.530000000000001</ele>
        <time>2016-03-21T16:57:58Z</time>
      </trkpt>
      <trkpt lat="36.873185969889164" lon="-5.993375089019537">
        <ele>50.130000000000003</ele>
        <time>2016-03-21T16:58:13Z</time>
      </trkpt>
      <trkpt lat="36.876128101721406" lon="-5.992278819903731">
        <ele>47.240000000000002</ele>
        <time>2016-03-21T16:58:28Z</time>
      </trkpt>
      <trkpt lat="36.879110047593713" lon="-5.99067460745573">
        <ele>45.32</ele>
        <time>2016-03-21T16:58:45Z</time>
      </trkpt>
      <trkpt lat="36.881903149187565" lon="-5.98847527988255">
        <ele>43.880000000000003</ele>
        <time>2016-03-21T16:59:01Z</time>
      </trkpt>
      <trkpt lat="36.88418528996408" lon="-5.985993817448616">
        <ele>40.990000000000002</ele>
        <time>2016-03-21T16:59:18Z</time>
      </trkpt>
      <trkpt lat="36.886354023590684" lon="-5.982961412519217">
        <ele>38.109999999999999</ele>
        <time>2016-03-21T16:59:35Z</time>
      </trkpt>
      <trkpt lat="36.889470918104053" lon="-5.978714386001229">
        <ele>35.229999999999997</ele>
        <time>2016-03-21T16:59:50Z</time>
      </trkpt>
      <trkpt lat="36.892133094370365" lon="-5.975990183651447">
        <ele>32.82</ele>
        <time>2016-03-21T17:00:08Z</time>
      </trkpt>
      <trkpt lat="36.895018396899104" lon="-5.973728075623512">
        <ele>29.940000000000001</ele>
        <time>2016-03-21T17:00:25Z</time>
      </trkpt>
      <trkpt lat="36.898171249777079" lon="-5.971908615902066">
        <ele>28.5</ele>
        <time>2016-03-21T17:00:43Z</time>
      </trkpt>
      <trkpt lat="36.901559550315142" lon="-5.97056114114821">
        <ele>27.530000000000001</ele>
        <time>2016-03-21T17:01:00Z</time>
      </trkpt>
      <trkpt lat="36.905036112293601" lon="-5.969796795397997">
        <ele>27.530000000000001</ele>
        <time>2016-03-21T17:01:18Z</time>
      </trkpt>
      <trkpt lat="36.90879849717021" lon="-5.969611806795001">
        <ele>25.609999999999999</ele>
        <time>2016-03-21T17:01:36Z</time>
      </trkpt>
      <trkpt lat="36.913122050464153" lon="-5.969917662441731">
        <ele>26.57</ele>
        <time>2016-03-21T17:01:52Z</time>
      </trkpt>
      <trkpt lat="36.917798398062587" lon="-5.969896791502833">
        <ele>22.25</ele>
        <time>2016-03-21T17:02:10Z</time>
      </trkpt>
      <trkpt lat="36.923337243497372" lon="-5.969310225918889">
        <ele>16.48</ele>
        <time>2016-03-21T17:02:27Z</time>
      </trkpt>
      <trkpt lat="36.927376985549927" lon="-5.969049884006381">
        <ele>16.48</ele>
        <time>2016-03-21T17:02:45Z</time>
      </trkpt>
      <trkpt lat="36.931661143898964" lon="-5.969261191785336">
        <ele>24.170000000000002</ele>
        <time>2016-03-21T17:03:04Z</time>
      </trkpt>
      <trkpt lat="36.935298554599285" lon="-5.969280302524567">
        <ele>29.460000000000001</ele>
        <time>2016-03-21T17:03:23Z</time>
      </trkpt>
      <trkpt lat="36.93922539241612" lon="-5.968698933720589">
        <ele>28.02</ele>
        <time>2016-03-21T17:03:40Z</time>
      </trkpt>
      <trkpt lat="36.942889709025621" lon="-5.967564191669226">
        <ele>20.809999999999999</ele>
        <time>2016-03-21T17:03:59Z</time>
      </trkpt>
      <trkpt lat="36.946355542168021" lon="-5.965929720550776">
        <ele>14.08</ele>
        <time>2016-03-21T17:04:14Z</time>
      </trkpt>
      <trkpt lat="36.949827242642641" lon="-5.963671384379268">
        <ele>15.52</ele>
        <time>2016-03-21T17:04:34Z</time>
      </trkpt>
      <trkpt lat="36.953689455986023" lon="-5.960693042725325">
        <ele>16</ele>
        <time>2016-03-21T17:04:54Z</time>
      </trkpt>
      <trkpt lat="36.95680869743228" lon="-5.95897039398551">
        <ele>15.039999999999999</ele>
        <time>2016-03-21T17:05:13Z</time>
      </trkpt>
      <trkpt lat="36.959852669388056" lon="-5.957916034385562">
        <ele>16.960000000000001</ele>
        <time>2016-03-21T17:05:32Z</time>
      </trkpt>
      <trkpt lat="36.962990518659353" lon="-5.957399122416973">
        <ele>19.84</ele>
        <time>2016-03-21T17:05:51Z</time>
      </trkpt>
      <trkpt lat="36.966785173863173" lon="-5.957273058593273">
        <ele>21.289999999999999</ele>
        <time>2016-03-21T17:06:04Z</time>
      </trkpt>
      <trkpt lat="36.969983205199242" lon="-5.956781627610326">
        <ele>22.73</ele>
        <time>2016-03-21T17:06:20Z</time>
      </trkpt>
      <trkpt lat="36.973032541573048" lon="-5.955738835036755">
        <ele>23.210000000000001</ele>
        <time>2016-03-21T17:06:38Z</time>
      </trkpt>
      <trkpt lat="36.975068254396319" lon="-5.954722026363015">
        <ele>23.210000000000001</ele>
        <time>2016-03-21T17:06:54Z</time>
      </trkpt>
      <trkpt lat="36.977767059579492" lon="-5.952890999615192">
        <ele>22.25</ele>
        <time>2016-03-21T17:07:09Z</time>
      </trkpt>
      <trkpt lat="36.979521978646517" lon="-5.951323416084051">
        <ele>20.809999999999999</ele>
        <time>2016-03-21T17:07:22Z</time>
      </trkpt>
      <trkpt lat="36.98049302212894" lon="-5.950232176110148">
        <ele>19.84</ele>
        <time>2016-03-21T17:07:34Z</time>
      </trkpt>
      <trkpt lat="36.980945225805044" lon="-5.949699589982629">
        <ele>22.25</ele>
        <time>2016-03-21T17:07:47Z</time>
      </trkpt>
      <trkpt lat="36.98102124966681" lon="-5.949608478695154">
        <ele>21.289999999999999</ele>
        <time>2016-03-21T17:08:05Z</time>
      </trkpt>
      <trkpt lat="36.981153767555952" lon="-5.949479229748249">
        <ele>20.809999999999999</ele>
        <time>2016-03-21T17:08:24Z</time>
      </trkpt>
      <trkpt lat="36.981179751455784" lon="-5.949473949149251">
        <ele>23.690000000000001</ele>
        <time>2016-03-21T17:08:41Z</time>
      </trkpt>
      <trkpt lat="36.981233479455113" lon="-5.949407899752259">
        <ele>30.420000000000002</ele>
        <time>2016-03-21T17:09:00Z</time>
      </trkpt>
      <trkpt lat="36.981589207425714" lon="-5.949032893404365">
        <ele>35.710000000000001</ele>
        <time>2016-03-21T17:09:19Z</time>
      </trkpt>
      <trkpt lat="36.98231952264905" lon="-5.948326718062162">
        <ele>38.590000000000003</ele>
        <time>2016-03-21T17:09:37Z</time>
      </trkpt>
      <trkpt lat="36.983472118154168" lon="-5.947179738432169">
        <ele>48.68</ele>
        <time>2016-03-21T17:09:54Z</time>
      </trkpt>
      <trkpt lat="36.985153527930379" lon="-5.945759927853942">
        <ele>53.969999999999999</ele>
        <time>2016-03-21T17:10:11Z</time>
      </trkpt>
      <trkpt lat="36.98759819380939" lon="-5.944117158651352">
        <ele>52.049999999999997</ele>
        <time>2016-03-21T17:10:28Z</time>
      </trkpt>
      <trkpt lat="36.990231955423951" lon="-5.94285249710083">
        <ele>31.379999999999999</ele>
        <time>2016-03-21T17:10:43Z</time>
      </trkpt>
      <trkpt lat="36.993424957618117" lon="-5.941897127777338">
        <ele>20.809999999999999</ele>
        <time>2016-03-21T17:10:57Z</time>
      </trkpt>
      <trkpt lat="36.998092504218221" lon="-5.940979477018118">
        <ele>14.56</ele>
        <time>2016-03-21T17:11:16Z</time>
      </trkpt>
      <trkpt lat="37.001337306573987" lon="-5.939808944240212">
        <ele>9.27</ele>
        <time>2016-03-21T17:11:35Z</time>
      </trkpt>
      <trkpt lat="37.004513628780842" lon="-5.938114458695054">
        <ele>6.39</ele>
        <time>2016-03-21T17:11:47Z</time>
      </trkpt>
      <trkpt lat="37.008293028920889" lon="-5.935553871095181">
        <ele>10.710000000000001</ele>
        <time>2016-03-21T17:11:59Z</time>
      </trkpt>
      <trkpt lat="37.012367807328701" lon="-5.933072241023183">
        <ele>9.75</ele>
        <time>2016-03-21T17:12:06Z</time>
      </trkpt>
      <trkpt lat="37.017230149358511" lon="-5.930755566805601">
        <ele>7.35</ele>
        <time>2016-03-21T17:12:13Z</time>
      </trkpt>
      <trkpt lat="37.021936420351267" lon="-5.929052699357271">
        <ele>8.310000000000001</ele>
        <time>2016-03-21T17:12:20Z</time>
      </trkpt>
      <trkpt lat="37.026928095147014" lon="-5.927805555984378">
        <ele>8.310000000000001</ele>
        <time>2016-03-21T17:12:28Z</time>
      </trkpt>
      <trkpt lat="37.031972827389836" lon="-5.927120083943009">
        <ele>9.27</ele>
        <time>2016-03-21T17:12:35Z</time>
      </trkpt>
      <trkpt lat="37.036195127293468" lon="-5.926954038441181">
        <ele>9.75</ele>
        <time>2016-03-21T17:12:51Z</time>
      </trkpt>
      <trkpt lat="37.04117682762444" lon="-5.927255535498262">
        <ele>12.15</ele>
        <time>2016-03-21T17:13:11Z</time>
      </trkpt>
      <trkpt lat="37.045920146629214" lon="-5.928035890683532">
        <ele>11.19</ele>
        <time>2016-03-21T17:13:27Z</time>
      </trkpt>
      <trkpt lat="37.050981558859348" lon="-5.929438350722194">
        <ele>10.23</ele>
        <time>2016-03-21T17:13:35Z</time>
      </trkpt>
      <trkpt lat="37.055603507906199" lon="-5.931233502924442">
        <ele>8.789999999999999</ele>
        <time>2016-03-21T17:13:45Z</time>
      </trkpt>
      <trkpt lat="37.060450594872236" lon="-5.933183049783111">
        <ele>9.27</ele>
        <time>2016-03-21T17:13:58Z</time>
      </trkpt>
      <trkpt lat="37.065434139221907" lon="-5.934706795960665">
        <ele>7.83</ele>
        <time>2016-03-21T17:14:12Z</time>
      </trkpt>
      <trkpt lat="37.069934047758579" lon="-5.935705834999681">
        <ele>7.83</ele>
        <time>2016-03-21T17:14:20Z</time>
      </trkpt>
      <trkpt lat="37.075091013684869" lon="-5.936383344233036">
        <ele>8.310000000000001</ele>
        <time>2016-03-21T17:14:28Z</time>
      </trkpt>
      <trkpt lat="37.080037677660584" lon="-5.936608063057065">
        <ele>6.39</ele>
        <time>2016-03-21T17:14:36Z</time>
      </trkpt>
      <trkpt lat="37.085359515622258" lon="-5.936371944844723">
        <ele>5.91</ele>
        <time>2016-03-21T17:14:47Z</time>
      </trkpt>
      <trkpt lat="37.090903474017978" lon="-5.935646910220385">
        <ele>6.39</ele>
        <time>2016-03-21T17:15:03Z</time>
      </trkpt>
      <trkpt lat="37.096529910340905" lon="-5.934831015765667">
        <ele>7.83</ele>
        <time>2016-03-21T17:15:14Z</time>
      </trkpt>
      <trkpt lat="37.101438185200095" lon="-5.934122912585735">
        <ele>8.310000000000001</ele>
        <time>2016-03-21T17:15:28Z</time>
      </trkpt>
      <trkpt lat="37.10687343031168" lon="-5.933212637901306">
        <ele>8.789999999999999</ele>
        <time>2016-03-21T17:15:40Z</time>
      </trkpt>
      <trkpt lat="37.1111826505512" lon="-5.932208569720388">
        <ele>10.23</ele>
        <time>2016-03-21T17:15:48Z</time>
      </trkpt>
      <trkpt lat="37.116913609206676" lon="-5.930441161617637">
        <ele>9.75</ele>
        <time>2016-03-21T17:15:56Z</time>
      </trkpt>
      <trkpt lat="37.122595114633441" lon="-5.928182825446129">
        <ele>9.27</ele>
        <time>2016-03-21T17:16:05Z</time>
      </trkpt>
      <trkpt lat="37.127921227365732" lon="-5.925560966134071">
        <ele>9.75</ele>
        <time>2016-03-21T17:16:14Z</time>
      </trkpt>
      <trkpt lat="37.133192019537091" lon="-5.92248598113656">
        <ele>11.19</ele>
        <time>2016-03-21T17:16:28Z</time>
      </trkpt>
      <trkpt lat="37.138359379023314" lon="-5.919222822412849">
        <ele>14.08</ele>
        <time>2016-03-21T17:16:47Z</time>
      </trkpt>
      <trkpt lat="37.141847340390086" lon="-5.917366817593575">
        <ele>15.52</ele>
        <time>2016-03-21T17:17:00Z</time>
      </trkpt>
      <trkpt lat="37.146139880642295" lon="-5.915507962927222">
        <ele>16.960000000000001</ele>
        <time>2016-03-21T17:17:13Z</time>
      </trkpt>
      <trkpt lat="37.151181846857071" lon="-5.913607953116298">
        <ele>20.32</ele>
        <time>2016-03-21T17:17:27Z</time>
      </trkpt>
      <trkpt lat="37.155555859208107" lon="-5.91147081926465">
        <ele>25.129999999999999</ele>
        <time>2016-03-21T17:17:43Z</time>
      </trkpt>
      <trkpt lat="37.159588309004903" lon="-5.909683043137193">
        <ele>29.940000000000001</ele>
        <time>2016-03-21T17:17:56Z</time>
      </trkpt>
      <trkpt lat="37.163216834887862" lon="-5.908734714612365">
        <ele>27.050000000000001</ele>
        <time>2016-03-21T17:18:11Z</time>
      </trkpt>
      <trkpt lat="37.166674118489027" lon="-5.908410837873817">
        <ele>27.530000000000001</ele>
        <time>2016-03-21T17:18:22Z</time>
      </trkpt>
      <trkpt lat="37.170433904975653" lon="-5.908672185614705">
        <ele>30.420000000000002</ele>
        <time>2016-03-21T17:18:33Z</time>
      </trkpt>
      <trkpt lat="37.175601264461875" lon="-5.909620765596628">
        <ele>35.710000000000001</ele>
        <time>2016-03-21T17:18:46Z</time>
      </trkpt>
      <trkpt lat="37.181134913116693" lon="-5.91041000559926">
        <ele>40.030000000000001</ele>
        <time>2016-03-21T17:18:58Z</time>
      </trkpt>
      <trkpt lat="37.186213424429297" lon="-5.910749975591898">
        <ele>34.740000000000002</ele>
        <time>2016-03-21T17:19:08Z</time>
      </trkpt>
      <trkpt lat="37.191813793033361" lon="-5.910684429109097">
        <ele>36.670000000000002</ele>
        <time>2016-03-21T17:19:17Z</time>
      </trkpt>
      <trkpt lat="37.197385830804706" lon="-5.910218479111791">
        <ele>40.990000000000002</ele>
        <time>2016-03-21T17:19:30Z</time>
      </trkpt>
      <trkpt lat="37.20261387526989" lon="-5.909418845549226">
        <ele>42.439999999999998</ele>
        <time>2016-03-21T17:19:40Z</time>
      </trkpt>
      <trkpt lat="37.207667995244265" lon="-5.908898329362273">
        <ele>43.880000000000003</ele>
        <time>2016-03-21T17:19:51Z</time>
      </trkpt>
      <trkpt lat="37.212842479348183" lon="-5.908797411248088">
        <ele>48.200000000000003</ele>
        <time>2016-03-21T17:20:00Z</time>
      </trkpt>
      <trkpt lat="37.217853348702192" lon="-5.909155402332544">
        <ele>51.090000000000003</ele>
        <time>2016-03-21T17:20:09Z</time>
      </trkpt>
      <trkpt lat="37.222230713814497" lon="-5.909762335941196">
        <ele>56.859999999999999</ele>
        <time>2016-03-21T17:20:10Z</time>
      </trkpt>
      <trkpt lat="37.22615503706038" lon="-5.910370359197259">
        <ele>60.700000000000003</ele>
        <time>2016-03-21T17:20:11Z</time>
      </trkpt>
      <trkpt lat="37.231399342417717" lon="-5.910798506811261">
        <ele>59.740000000000002</ele>
        <time>2016-03-21T17:20:12Z</time>
      </trkpt>
      <trkpt lat="37.236741380766034" lon="-5.910902777686715">
        <ele>54.93</ele>
        <time>2016-03-21T17:20:13Z</time>
      </trkpt>
      <trkpt lat="37.240200424566865" lon="-5.910561634227634">
        <ele>53.490000000000002</ele>
        <time>2016-03-21T17:20:14Z</time>
      </trkpt>
      <trkpt lat="37.243610937148333" lon="-5.910178916528821">
        <ele>52.530000000000001</ele>
        <time>2016-03-21T17:20:15Z</time>
      </trkpt>
      <trkpt lat="37.245461912825704" lon="-5.910608572885394">
        <ele>51.090000000000003</ele>
        <time>2016-03-21T17:20:16Z</time>
      </trkpt>
      <trkpt lat="37.247168468311429" lon="-5.91156410984695">
        <ele>48.68</ele>
        <time>2016-03-21T17:20:17Z</time>
      </trkpt>
      <trkpt lat="37.248687855899334" lon="-5.913071846589446">
        <ele>45.799999999999997</ele>
        <time>2016-03-21T17:20:18Z</time>
      </trkpt>
      <trkpt lat="37.250105571001768" lon="-5.915367985144258">
        <ele>44.840000000000003</ele>
        <time>2016-03-21T17:20:19Z</time>
      </trkpt>
      <trkpt lat="37.250895481556654" lon="-5.917760180309415">
        <ele>44.359999999999999</ele>
        <time>2016-03-21T17:20:20Z</time>
      </trkpt>
      <trkpt lat="37.251992169767618" lon="-5.923561463132501">
        <ele>45.799999999999997</ele>
        <time>2016-03-21T17:20:21Z</time>
      </trkpt>
      <trkpt lat="37.253350373357534" lon="-5.93103401362896">
        <ele>43.399999999999999</ele>
        <time>2016-03-21T17:20:22Z</time>
      </trkpt>
      <trkpt lat="37.25440951064229" lon="-5.93699723482132">
        <ele>41.950000000000003</ele>
        <time>2016-03-21T17:20:23Z</time>
      </trkpt>
      <trkpt lat="37.254696590825915" lon="-5.93937149271369">
        <ele>40.990000000000002</ele>
        <time>2016-03-21T17:20:24Z</time>
      </trkpt>
      <trkpt lat="37.254901025444269" lon="-5.9423394408077">
        <ele>39.07</ele>
        <time>2016-03-21T17:20:25Z</time>
      </trkpt>
      <trkpt lat="37.255072435364127" lon="-5.946865836158395">
        <ele>34.740000000000002</ele>
        <time>2016-03-21T17:20:26Z</time>
      </trkpt>
      <trkpt lat="37.255502259358764" lon="-5.951801436021924">
        <ele>30.420000000000002</ele>
        <time>2016-03-21T17:20:27Z</time>
      </trkpt>
      <trkpt lat="37.256226036697626" lon="-5.954490518197417">
        <ele>29.460000000000001</ele>
        <time>2016-03-21T17:20:28Z</time>
      </trkpt>
      <trkpt lat="37.25738575682044" lon="-5.9569694660604">
        <ele>29.460000000000001</ele>
        <time>2016-03-21T17:20:29Z</time>
      </trkpt>
      <trkpt lat="37.258889051154256" lon="-5.959124537184835">
        <ele>22.73</ele>
        <time>2016-03-21T17:20:30Z</time>
      </trkpt>
      <trkpt lat="37.261351989582181" lon="-5.961586302146316">
        <ele>21.289999999999999</ele>
        <time>2016-03-21T17:20:31Z</time>
      </trkpt>
      <trkpt lat="37.265040026977658" lon="-5.965064456686378">
        <ele>19.84</ele>
        <time>2016-03-21T17:20:39Z</time>
      </trkpt>
      <trkpt lat="37.267230721190572" lon="-5.967912040650845">
        <ele>19.359999999999999</ele>
        <time>2016-03-21T17:20:48Z</time>
      </trkpt>
      <trkpt lat="37.269651917740703" lon="-5.97190928645432">
        <ele>20.809999999999999</ele>
        <time>2016-03-21T17:20:56Z</time>
      </trkpt>
      <trkpt lat="37.271937327459455" lon="-5.975228184834123">
        <ele>23.690000000000001</ele>
        <time>2016-03-21T17:21:05Z</time>
      </trkpt>
      <trkpt lat="37.273810934275389" lon="-5.97688939422369">
        <ele>22.25</ele>
        <time>2016-03-21T17:21:18Z</time>
      </trkpt>
      <trkpt lat="37.275899536907673" lon="-5.978024723008275">
        <ele>20.32</ele>
        <time>2016-03-21T17:21:30Z</time>
      </trkpt>
      <trkpt lat="37.278414275497198" lon="-5.978741878643632">
        <ele>19.359999999999999</ele>
        <time>2016-03-21T17:21:45Z</time>
      </trkpt>
      <trkpt lat="37.281048037111759" lon="-5.978980008512735">
        <ele>17.920000000000002</ele>
        <time>2016-03-21T17:21:57Z</time>
      </trkpt>
      <trkpt lat="37.285182494670153" lon="-5.978857716545463">
        <ele>17.440000000000001</ele>
        <time>2016-03-21T17:22:09Z</time>
      </trkpt>
      <trkpt lat="37.290809266269207" lon="-5.978464521467686">
        <ele>17.920000000000002</ele>
        <time>2016-03-21T17:22:20Z</time>
      </trkpt>
      <trkpt lat="37.294651865959167" lon="-5.978709189221263">
        <ele>16.48</ele>
        <time>2016-03-21T17:22:33Z</time>
      </trkpt>
      <trkpt lat="37.298413161188364" lon="-5.979493400081992">
        <ele>19.359999999999999</ele>
        <time>2016-03-21T17:22:43Z</time>
      </trkpt>
      <trkpt lat="37.302418705075979" lon="-5.98087172023952">
        <ele>21.289999999999999</ele>
        <time>2016-03-21T17:22:58Z</time>
      </trkpt>
      <trkpt lat="37.306996816769242" lon="-5.982422456145287">
        <ele>19.359999999999999</ele>
        <time>2016-03-21T17:23:12Z</time>
      </trkpt>
      <trkpt lat="37.310833800584078" lon="-5.982955964282155">
        <ele>18.399999999999999</ele>
        <time>2016-03-21T17:23:26Z</time>
      </trkpt>
      <trkpt lat="37.315242430195212" lon="-5.982906930148602">
        <ele>17.440000000000001</ele>
        <time>2016-03-21T17:23:43Z</time>
      </trkpt>
      <trkpt lat="37.318450603634119" lon="-5.983099462464452">
        <ele>18.399999999999999</ele>
        <time>2016-03-21T17:23:58Z</time>
      </trkpt>
      <trkpt lat="37.321421736851335" lon="-5.983823910355568">
        <ele>19.359999999999999</ele>
        <time>2016-03-21T17:24:10Z</time>
      </trkpt>
      <trkpt lat="37.324891425669193" lon="-5.984894363209605">
        <ele>24.170000000000002</ele>
        <time>2016-03-21T17:24:23Z</time>
      </trkpt>
      <trkpt lat="37.327995160594583" lon="-5.985532309859991">
        <ele>25.129999999999999</ele>
        <time>2016-03-21T17:24:30Z</time>
      </trkpt>
      <trkpt lat="37.330531189218163" lon="-5.985674969851971">
        <ele>22.73</ele>
        <time>2016-03-21T17:24:37Z</time>
      </trkpt>
      <trkpt lat="37.332392642274499" lon="-5.985582768917084">
        <ele>19.84</ele>
        <time>2016-03-21T17:24:44Z</time>
      </trkpt>
      <trkpt lat="37.335044676437974" lon="-5.98512914031744">
        <ele>19.84</ele>
        <time>2016-03-21T17:24:53Z</time>
      </trkpt>
      <trkpt lat="37.337151132524014" lon="-5.984452804550529">
        <ele>19.359999999999999</ele>
        <time>2016-03-21T17:25:01Z</time>
      </trkpt>
      <trkpt lat="37.339216852560639" lon="-5.983280008658767">
        <ele>18.879999999999999</ele>
        <time>2016-03-21T17:25:02Z</time>
      </trkpt>
      <trkpt lat="37.340793237090111" lon="-5.982040241360664">
        <ele>18.399999999999999</ele>
        <time>2016-03-21T17:25:03Z</time>
      </trkpt>
      <trkpt lat="37.341859666630626" lon="-5.980820674449205">
        <ele>17.920000000000002</ele>
        <time>2016-03-21T17:25:04Z</time>
      </trkpt>
      <trkpt lat="37.341937283053994" lon="-5.980667620897293">
        <ele>17.920000000000002</ele>
        <time>2016-03-21T17:25:05Z</time>
      </trkpt>
      <trkpt lat="37.342002829536796" lon="-5.980507778003812">
        <ele>17.440000000000001</ele>
        <time>2016-03-21T17:25:06Z</time>
      </trkpt>
      <trkpt lat="37.342054378241301" lon="-5.98034743219614">
        <ele>17.440000000000001</ele>
        <time>2016-03-21T17:25:07Z</time>
      </trkpt>
      <trkpt lat="37.342094024643302" lon="-5.98019446246326">
        <ele>16.48</ele>
        <time>2016-03-21T17:25:08Z</time>
      </trkpt>
      <trkpt lat="37.342114392668009" lon="-5.980051551014185">
        <ele>16</ele>
        <time>2016-03-21T17:25:09Z</time>
      </trkpt>
      <trkpt lat="37.342114225029945" lon="-5.979923140257597">
        <ele>15.52</ele>
        <time>2016-03-21T17:25:10Z</time>
      </trkpt>
      <trkpt lat="37.342093354091048" lon="-5.979810822755098">
        <ele>15.039999999999999</ele>
        <time>2016-03-21T17:25:11Z</time>
      </trkpt>
      <trkpt lat="37.342052618041635" lon="-5.979710575193167">
        <ele>14.56</ele>
        <time>2016-03-21T17:25:26Z</time>
      </trkpt>
      <trkpt lat="37.341993106529117" lon="-5.979624325409532">
        <ele>14.08</ele>
        <time>2016-03-21T17:25:39Z</time>
      </trkpt>
      <trkpt lat="37.341915490105748" lon="-5.979554168879986">
        <ele>13.6</ele>
        <time>2016-03-21T17:25:49Z</time>
      </trkpt>
      <trkpt lat="37.341824462637305" lon="-5.979508487507701">
        <ele>13.6</ele>
        <time>2016-03-21T17:26:00Z</time>
      </trkpt>
      <trkpt lat="37.341728322207928" lon="-5.979486610740423">
        <ele>13.119999999999999</ele>
        <time>2016-03-21T17:26:07Z</time>
      </trkpt>
      <trkpt lat="37.341627907007933" lon="-5.979491388425231">
        <ele>13.119999999999999</ele>
        <time>2016-03-21T17:26:08Z</time>
      </trkpt>
      <trkpt lat="37.341529419645667" lon="-5.979523826390505">
        <ele>13.119999999999999</ele>
        <time>2016-03-21T17:26:09Z</time>
      </trkpt>
      <trkpt lat="37.341435207054019" lon="-5.979587193578482">
        <ele>12.630000000000001</ele>
        <time>2016-03-21T17:26:10Z</time>
      </trkpt>
      <trkpt lat="37.341352058574557" lon="-5.979681573808193">
        <ele>12.15</ele>
        <time>2016-03-21T17:26:11Z</time>
      </trkpt>
      <trkpt lat="37.341285925358534" lon="-5.979799255728722">
        <ele>12.15</ele>
        <time>2016-03-21T17:26:12Z</time>
      </trkpt>
      <trkpt lat="37.341241501271725" lon="-5.979930516332388">
        <ele>11.67</ele>
        <time>2016-03-21T17:26:13Z</time>
      </trkpt>
      <trkpt lat="37.341218367218971" lon="-5.980070326477289">
        <ele>12.630000000000001</ele>
        <time>2016-03-21T17:26:14Z</time>
      </trkpt>
      <trkpt lat="37.341215265914798" lon="-5.980214662849903">
        <ele>15.52</ele>
        <time>2016-03-21T17:26:15Z</time>
      </trkpt>
      <trkpt lat="37.341228257864714" lon="-5.980362100526691">
        <ele>20.809999999999999</ele>
        <time>2016-03-21T17:26:16Z</time>
      </trkpt>
      <trkpt lat="37.341249128803611" lon="-5.980513393878937">
        <ele>28.02</ele>
        <time>2016-03-21T17:26:17Z</time>
      </trkpt>
      <trkpt lat="37.341502597555518" lon="-5.982001349329948">
        <ele>35.229999999999997</ele>
        <time>2016-03-21T17:26:18Z</time>
      </trkpt>
      <trkpt lat="37.342001404613256" lon="-5.984118282794952">
        <ele>44.840000000000003</ele>
        <time>2016-03-21T17:26:19Z</time>
      </trkpt>
      <trkpt lat="37.342801121994853" lon="-5.985647309571505">
        <ele>53.009999999999998</ele>
        <time>2016-03-21T17:26:20Z</time>
      </trkpt>
      <trkpt lat="37.343578208237886" lon="-5.986617682501674">
        <ele>57.340000000000003</ele>
        <time>2016-03-21T17:26:31Z</time>
      </trkpt>
      <trkpt lat="37.344685709103942" lon="-5.987937999889255">
        <ele>54.450000000000003</ele>
        <time>2016-03-21T17:26:46Z</time>
      </trkpt>
      <trkpt lat="37.345724478363991" lon="-5.989178689196706">
        <ele>46.759999999999998</ele>
        <time>2016-03-21T17:27:02Z</time>
      </trkpt>
      <trkpt lat="37.347105899825692" lon="-5.990828583016992">
        <ele>38.109999999999999</ele>
        <time>2016-03-21T17:27:14Z</time>
      </trkpt>
      <trkpt lat="37.348338710144162" lon="-5.992289129644632">
        <ele>26.57</ele>
        <time>2016-03-21T17:27:21Z</time>
      </trkpt>
      <trkpt lat="37.349599516019225" lon="-5.993774151429534">
        <ele>21.77</ele>
        <time>2016-03-21T17:27:29Z</time>
      </trkpt>
      <trkpt lat="37.350669214501977" lon="-5.995037220418453">
        <ele>17.920000000000002</ele>
        <time>2016-03-21T17:27:35Z</time>
      </trkpt>
      <trkpt lat="37.351846871897578" lon="-5.996410679072142">
        <ele>15.039999999999999</ele>
        <time>2016-03-21T17:27:43Z</time>
      </trkpt>
      <trkpt lat="37.353110611438751" lon="-5.997904753312469">
        <ele>14.08</ele>
        <time>2016-03-21T17:27:50Z</time>
      </trkpt>
      <trkpt lat="37.354829488322139" lon="-5.999947171658278">
        <ele>13.119999999999999</ele>
        <time>2016-03-21T17:27:59Z</time>
      </trkpt>
      <trkpt lat="37.356427917256951" lon="-6.00184659473598">
        <ele>10.23</ele>
        <time>2016-03-21T17:28:09Z</time>
      </trkpt>
      <trkpt lat="37.358033051714301" lon="-6.003750460222364">
        <ele>10.710000000000001</ele>
        <time>2016-03-21T17:28:21Z</time>
      </trkpt>
      <trkpt lat="37.360225087031722" lon="-6.006346503272653">
        <ele>12.15</ele>
        <time>2016-03-21T17:28:35Z</time>
      </trkpt>
      <trkpt lat="37.36232073046267" lon="-6.008829055353999">
        <ele>14.08</ele>
        <time>2016-03-21T17:28:50Z</time>
      </trkpt>
      <trkpt lat="37.364086546003819" lon="-6.01092872209847">
        <ele>16.960000000000001</ele>
        <time>2016-03-21T17:28:56Z</time>
      </trkpt>
      <trkpt lat="37.365880776196718" lon="-6.013078009709716">
        <ele>19.359999999999999</ele>
        <time>2016-03-21T17:29:02Z</time>
      </trkpt>
      <trkpt lat="37.36711903475225" lon="-6.013991637155414">
        <ele>19.359999999999999</ele>
        <time>2016-03-21T17:29:12Z</time>
      </trkpt>
      <trkpt lat="37.368510430678725" lon="-6.014305371791124">
        <ele>19.84</ele>
        <time>2016-03-21T17:38:35Z</time>
      </trkpt>
      <trkpt lat="37.369839800521731" lon="-6.01407160051167">
        <ele>19.84</ele>
        <time>2016-03-21T17:38:47Z</time>
      </trkpt>
      <trkpt lat="37.371135726571083" lon="-6.013893485069275">
        <ele>19.84</ele>
        <time>2016-03-21T17:38:57Z</time>
      </trkpt>
      <trkpt lat="37.372236186638474" lon="-6.01439212448895">
        <ele>19.84</ele>
        <time>2016-03-21T17:39:05Z</time>
      </trkpt>
      <trkpt lat="37.372359149158001" lon="-6.014518272131681">
        <ele>20.32</ele>
        <time>2016-03-21T17:39:12Z</time>
      </trkpt>
      <trkpt lat="37.372470293194056" lon="-6.014666967093945">
        <ele>20.809999999999999</ele>
        <time>2016-03-21T17:39:21Z</time>
      </trkpt>
      <trkpt lat="37.372565008699894" lon="-6.014832006767392">
        <ele>20.809999999999999</ele>
        <time>2016-03-21T17:39:36Z</time>
      </trkpt>
      <trkpt lat="37.372645726427436" lon="-6.015011379495263">
        <ele>21.289999999999999</ele>
        <time>2016-03-21T17:39:50Z</time>
      </trkpt>
      <trkpt lat="37.372710183262825" lon="-6.015206510201097">
        <ele>21.289999999999999</ele>
        <time>2016-03-21T17:39:58Z</time>
      </trkpt>
      <trkpt lat="37.3727563675493" lon="-6.0154153034091">
        <ele>21.77</ele>
        <time>2016-03-21T17:40:09Z</time>
      </trkpt>
      <trkpt lat="37.372780507430434" lon="-6.015630718320608">
        <ele>22.25</ele>
        <time>2016-03-21T17:40:19Z</time>
      </trkpt>
      <trkpt lat="37.372781597077847" lon="-6.015849485993385">
        <ele>21.77</ele>
        <time>2016-03-21T17:40:30Z</time>
      </trkpt>
      <trkpt lat="37.372762486338615" lon="-6.016067331656814">
        <ele>19.359999999999999</ele>
        <time>2016-03-21T17:40:49Z</time>
      </trkpt>
      <trkpt lat="37.372728958725929" lon="-6.016284758225083">
        <ele>18.399999999999999</ele>
        <time>2016-03-21T17:41:10Z</time>
      </trkpt>
      <trkpt lat="37.372332997620106" lon="-6.01951589807868">
        <ele>18.399999999999999</ele>
        <time>2016-03-21T17:41:19Z</time>
      </trkpt>
      <trkpt lat="37.372283125296235" lon="-6.022052429616451">
        <ele>18.399999999999999</ele>
        <time>2016-03-21T17:41:27Z</time>
      </trkpt>
      <trkpt lat="37.37235814332962" lon="-6.023660330101848">
        <ele>17.920000000000002</ele>
        <time>2016-03-21T17:41:34Z</time>
      </trkpt>
      <trkpt lat="37.372595351189375" lon="-6.025516921654344">
        <ele>17.920000000000002</ele>
        <time>2016-03-21T17:41:43Z</time>
      </trkpt>
      <trkpt lat="37.372828703373671" lon="-6.026502884924412">
        <ele>17.920000000000002</ele>
        <time>2016-03-21T17:41:56Z</time>
      </trkpt>
      <trkpt lat="37.372892405837774" lon="-6.026632552966476">
        <ele>17.920000000000002</ele>
        <time>2016-03-21T17:42:03Z</time>
      </trkpt>
      <trkpt lat="37.372969686985016" lon="-6.026750989258289">
        <ele>17.920000000000002</ele>
        <time>2016-03-21T17:42:11Z</time>
      </trkpt>
      <trkpt lat="37.373058786615729" lon="-6.02686339057982">
        <ele>18.399999999999999</ele>
        <time>2016-03-21T17:42:18Z</time>
      </trkpt>
      <trkpt lat="37.373161884024739" lon="-6.026970678940415">
        <ele>18.399999999999999</ele>
        <time>2016-03-21T17:42:30Z</time>
      </trkpt>
      <trkpt lat="37.373276632279158" lon="-6.027067489922047">
        <ele>18.399999999999999</ele>
        <time>2016-03-21T17:42:43Z</time>
      </trkpt>
      <trkpt lat="37.37340621650219" lon="-6.027153739705682">
        <ele>18.399999999999999</ele>
        <time>2016-03-21T17:42:50Z</time>
      </trkpt>
      <trkpt lat="37.37354745157063" lon="-6.027226243168116">
        <ele>17.920000000000002</ele>
        <time>2016-03-21T17:43:01Z</time>
      </trkpt>
      <trkpt lat="37.373700840398669" lon="-6.027278043329716">
        <ele>17.920000000000002</ele>
        <time>2016-03-21T17:43:08Z</time>
      </trkpt>
      <trkpt lat="37.373860012739897" lon="-6.027307631447911">
        <ele>17.440000000000001</ele>
        <time>2016-03-21T17:43:18Z</time>
      </trkpt>
      <trkpt lat="37.37401993945241" lon="-6.027316097170115">
        <ele>18.879999999999999</ele>
        <time>2016-03-21T17:43:40Z</time>
      </trkpt>
      <trkpt lat="37.374180369079113" lon="-6.027302015572786">
        <ele>21.289999999999999</ele>
        <time>2016-03-21T17:43:57Z</time>
      </trkpt>
      <trkpt lat="37.374342642724514" lon="-6.02726555429399">
        <ele>19.359999999999999</ele>
        <time>2016-03-21T17:44:07Z</time>
      </trkpt>
      <trkpt lat="37.374508017674088" lon="-6.027212496846914">
        <ele>17.920000000000002</ele>
        <time>2016-03-21T17:44:17Z</time>
      </trkpt>
      <trkpt lat="37.376584885641932" lon="-6.02663766592741">
        <ele>20.809999999999999</ele>
        <time>2016-03-21T17:44:26Z</time>
      </trkpt>
      <trkpt lat="37.379836980253458" lon="-6.026140199974179">
        <ele>24.170000000000002</ele>
        <time>2016-03-21T17:44:36Z</time>
      </trkpt>
      <trkpt lat="37.38318270072341" lon="-6.025631669908762">
        <ele>21.289999999999999</ele>
        <time>2016-03-21T17:44:49Z</time>
      </trkpt>
      <trkpt lat="37.385769858956337" lon="-6.025533098727465">
        <ele>20.32</ele>
        <time>2016-03-21T17:45:01Z</time>
      </trkpt>
      <trkpt lat="37.387302573770285" lon="-6.025082906708121">
        <ele>20.32</ele>
        <time>2016-03-21T17:45:11Z</time>
      </trkpt>
      <trkpt lat="37.389118764549494" lon="-6.024536658078432">
        <ele>20.32</ele>
        <time>2016-03-21T17:45:20Z</time>
      </trkpt>
      <trkpt lat="37.390519380569458" lon="-6.024882411584258">
        <ele>21.289999999999999</ele>
        <time>2016-03-21T17:45:32Z</time>
      </trkpt>
      <trkpt lat="37.392471944913268" lon="-6.025491692125797">
        <ele>21.77</ele>
        <time>2016-03-21T17:45:43Z</time>
      </trkpt>
      <trkpt lat="37.394271120429039" lon="-6.025370070710778">
        <ele>19.84</ele>
        <time>2016-03-21T17:45:53Z</time>
      </trkpt>
      <trkpt lat="37.396453348919749" lon="-6.02552991360426">
        <ele>19.84</ele>
        <time>2016-03-21T17:46:05Z</time>
      </trkpt>
      <trkpt lat="37.398829953745008" lon="-6.026255367323756">
        <ele>19.84</ele>
        <time>2016-03-21T17:46:16Z</time>
      </trkpt>
      <trkpt lat="37.401547199115157" lon="-6.027731336653233">
        <ele>21.289999999999999</ele>
        <time>2016-03-21T17:46:25Z</time>
      </trkpt>
      <trkpt lat="37.4045773409307" lon="-6.02987676858902">
        <ele>0</ele>
        <time>2016-03-21T17:46:34Z</time>
      </trkpt>
      <trkpt lat="37.407820550724864" lon="-6.032157484441996">
        <ele>0</ele>
        <time>2016-03-21T17:46:47Z</time>
      </trkpt>
      <trkpt lat="37.409275397658348" lon="-6.032489910721779">
        <ele>0</ele>
        <time>2016-03-21T17:46:57Z</time>
      </trkpt>
      <trkpt lat="37.410575095564127" lon="-6.032358314841986">
        <ele>0</ele>
        <time>2016-03-21T17:47:07Z</time>
      </trkpt>
      <trkpt lat="37.412217948585749" lon="-6.032157987356186">
        <ele>0</ele>
        <time>2016-03-21T17:47:17Z</time>
      </trkpt>
      <trkpt lat="37.412880035117269" lon="-6.032029995694757">
        <ele>0</ele>
        <time>2016-03-21T17:47:27Z</time>
      </trkpt>
      <trkpt lat="37.413310026749969" lon="-6.031969981268048">
        <ele>0</ele>
        <time>2016-03-21T17:47:38Z</time>
      </trkpt>
      <trkpt lat="37.413499960675836" lon="-6.03192999958992">
        <ele>0</ele>
        <time>2016-03-21T17:47:51Z</time>
      </trkpt>
      <trkpt lat="37.413689978420734" lon="-6.031899992376566">
        <ele>0</ele>
        <time>2016-03-21T17:48:00Z</time>
      </trkpt>
      <trkpt lat="37.413759967312217" lon="-6.031879959627986">
        <ele>0</ele>
        <time>2016-03-21T17:48:14Z</time>
      </trkpt>
      <trkpt lat="37.413889970630407" lon="-6.031860010698438">
        <ele>0</ele>
        <time>2016-03-21T17:48:24Z</time>
      </trkpt>
      <trkpt lat="37.413910003378987" lon="-6.031860010698438">
        <ele>0</ele>
        <time>2016-03-21T17:48:36Z</time>
      </trkpt>
      <trkpt lat="37.413989966735244" lon="-6.031839977949858">
        <ele>0</ele>
        <time>2016-03-21T17:48:45Z</time>
      </trkpt>
      <trkpt lat="37.41410999558866" lon="-6.031820029020309">
        <ele>0</ele>
        <time>2016-03-21T17:48:54Z</time>
      </trkpt>
      <trkpt lat="37.41413002833724" lon="-6.031820029020309">
        <ele>0</ele>
        <time>2016-03-21T17:49:02Z</time>
      </trkpt>
      <trkpt lat="37.415670035406947" lon="-6.031569996848702">
        <ele>0</ele>
        <time>2016-03-21T17:49:10Z</time>
      </trkpt>
      <trkpt lat="37.415710017085075" lon="-6.031560022383928">
        <ele>0</ele>
        <time>2016-03-21T17:49:19Z</time>
      </trkpt>
      <trkpt lat="37.415749998763204" lon="-6.031560022383928">
        <ele>0</ele>
        <time>2016-03-21T17:49:28Z</time>
      </trkpt>
      <trkpt lat="37.415770031511784" lon="-6.031549964100123">
        <ele>0</ele>
        <time>2016-03-21T17:49:41Z</time>
      </trkpt>
      <trkpt lat="37.415859969332814" lon="-6.031539989635348">
        <ele>0</ele>
        <time>2016-03-21T17:49:53Z</time>
      </trkpt>
      <trkpt lat="37.416049987077713" lon="-6.03150000795722">
        <ele>0</ele>
        <time>2016-03-21T17:50:01Z</time>
      </trkpt>
      <trkpt lat="37.416189964860678" lon="-6.03147997520864">
        <ele>0</ele>
        <time>2016-03-21T17:50:08Z</time>
      </trkpt>
      <trkpt lat="37.416820032522082" lon="-6.031339997425675">
        <ele>0</ele>
        <time>2016-03-21T17:50:09Z</time>
      </trkpt>
      <trkpt lat="37.417069980874658" lon="-6.031270008534193">
        <ele>0</ele>
        <time>2016-03-21T17:50:10Z</time>
      </trkpt>
      <trkpt lat="37.417329987511039" lon="-6.031160037964582">
        <ele>0</ele>
        <time>2016-03-21T17:50:11Z</time>
      </trkpt>
      <trkpt lat="37.417759979143739" lon="-6.03094001300633">
        <ele>0</ele>
        <time>2016-03-21T17:50:12Z</time>
      </trkpt>
      <trkpt lat="37.418029960244894" lon="-6.030770028010011">
        <ele>0</ele>
        <time>2016-03-21T17:50:13Z</time>
      </trkpt>
      <trkpt lat="37.419099994003773" lon="-6.029950026422739">
        <ele>0</ele>
        <time>2016-03-21T17:50:14Z</time>
      </trkpt>
      <trkpt lat="37.419410040602088" lon="-6.029690019786358">
        <ele>0</ele>
        <time>2016-03-21T17:50:15Z</time>
      </trkpt>
      <trkpt lat="37.419569967314601" lon="-6.029569990932941">
        <ele>0</ele>
        <time>2016-03-21T17:50:16Z</time>
      </trkpt>
      <trkpt lat="37.419899962842464" lon="-6.029349965974689">
        <ele>0</ele>
        <time>2016-03-21T17:50:17Z</time>
      </trkpt>
      <trkpt lat="37.420219983905554" lon="-6.029160032048821">
        <ele>0</ele>
        <time>2016-03-21T17:50:18Z</time>
      </trkpt>
      <trkpt lat="37.420700015500188" lon="-6.028930032625794">
        <ele>0</ele>
        <time>2016-03-21T17:50:19Z</time>
      </trkpt>
      <trkpt lat="37.42122002877295" lon="-6.02874998934567">
        <ele>0</ele>
        <time>2016-03-21T17:50:20Z</time>
      </trkpt>
      <trkpt lat="37.421659994870424" lon="-6.028629960492253">
        <ele>0</ele>
        <time>2016-03-21T17:50:21Z</time>
      </trkpt>
      <trkpt lat="37.421829979866743" lon="-6.028600037097931">
        <ele>0</ele>
        <time>2016-03-21T17:50:22Z</time>
      </trkpt>
      <trkpt lat="37.422289978712797" lon="-6.028559971600771">
        <ele>0</ele>
        <time>2016-03-21T17:50:23Z</time>
      </trkpt>
      <trkpt lat="37.422630032524467" lon="-6.028549997135997">
        <ele>0</ele>
        <time>2016-03-21T17:50:24Z</time>
      </trkpt>
      <trkpt lat="37.42296002805233" lon="-6.028570029884577">
        <ele>0</ele>
        <time>2016-03-21T17:50:25Z</time>
      </trkpt>
      <trkpt lat="37.423430001363158" lon="-6.028640018776059">
        <ele>0</ele>
        <time>2016-03-21T17:50:26Z</time>
      </trkpt>
      <trkpt lat="37.423460008576512" lon="-6.028640018776059">
        <ele>0</ele>
        <time>2016-03-21T17:50:27Z</time>
      </trkpt>
      <trkpt lat="37.424080017954111" lon="-6.028830036520958">
        <ele>0</ele>
        <time>2016-03-21T17:50:34Z</time>
      </trkpt>
      <trkpt lat="37.424240028485656" lon="-6.028889967128635">
        <ele>0</ele>
        <time>2016-03-21T17:50:35Z</time>
      </trkpt>
      <trkpt lat="37.424470027908683" lon="-6.029009995982051">
        <ele>0</ele>
        <time>2016-03-21T17:50:37Z</time>
      </trkpt>
      <trkpt lat="37.425049971789122" lon="-6.029270002618432">
        <ele>0</ele>
        <time>2016-03-21T17:50:38Z</time>
      </trkpt>
      <trkpt lat="37.427720027044415" lon="-6.030729962512851">
        <ele>0</ele>
        <time>2016-03-21T17:50:39Z</time>
      </trkpt>
      <trkpt lat="37.4282699637115" lon="-6.031010001897812">
        <ele>0</ele>
        <time>2016-03-21T17:50:40Z</time>
      </trkpt>
      <trkpt lat="37.42874002084136" lon="-6.031219968572259">
        <ele>0</ele>
        <time>2016-03-21T17:50:41Z</time>
      </trkpt>
      <trkpt lat="37.429449968039989" lon="-6.031409986317158">
        <ele>0</ele>
        <time>2016-03-21T17:50:42Z</time>
      </trkpt>
      <trkpt lat="37.430770033970475" lon="-6.031649960204959">
        <ele>0</ele>
        <time>2016-03-21T17:50:43Z</time>
      </trkpt>
      <trkpt lat="37.436149958521128" lon="-6.032469961792231">
        <ele>0</ele>
        <time>2016-03-21T17:50:44Z</time>
      </trkpt>
      <trkpt lat="37.436230005696416" lon="-6.032489994540811">
        <ele>0</ele>
        <time>2016-03-21T17:50:45Z</time>
      </trkpt>
      <trkpt lat="37.439159983769059" lon="-6.032940018922091">
        <ele>0</ele>
        <time>2016-03-21T17:50:46Z</time>
      </trkpt>
      <trkpt lat="37.440030025318265" lon="-6.033130036666989">
        <ele>0</ele>
        <time>2016-03-21T17:50:53Z</time>
      </trkpt>
      <trkpt lat="37.44017000310123" lon="-6.033170018345118">
        <ele>0</ele>
        <time>2016-03-21T17:51:03Z</time>
      </trkpt>
      <trkpt lat="37.440200010314584" lon="-6.033170018345118">
        <ele>0</ele>
        <time>2016-03-21T17:51:12Z</time>
      </trkpt>
      <trkpt lat="37.44030000641942" lon="-6.033200025558472">
        <ele>0</ele>
        <time>2016-03-21T17:51:22Z</time>
      </trkpt>
      <trkpt lat="37.440499998629093" lon="-6.0332400072366">
        <ele>0</ele>
        <time>2016-03-21T17:51:23Z</time>
      </trkpt>
      <trkpt lat="37.441199971362948" lon="-6.033430024981499">
        <ele>0</ele>
        <time>2016-03-21T17:51:24Z</time>
      </trkpt>
      <trkpt lat="37.442300012335181" lon="-6.033809976652265">
        <ele>0</ele>
        <time>2016-03-21T17:51:25Z</time>
      </trkpt>
      <trkpt lat="37.443269966170192" lon="-6.034269975498319">
        <ele>0</ele>
        <time>2016-03-21T17:51:26Z</time>
      </trkpt>
      <trkpt lat="37.4441899638623" lon="-6.034810021519661">
        <ele>0</ele>
        <time>2016-03-21T17:51:27Z</time>
      </trkpt>
      <trkpt lat="37.4441899638623" lon="-6.034819995984435">
        <ele>0</ele>
        <time>2016-03-21T17:51:38Z</time>
      </trkpt>
      <trkpt lat="37.444200022146106" lon="-6.034819995984435">
        <ele>0</ele>
        <time>2016-03-21T17:51:52Z</time>
      </trkpt>
      <trkpt lat="37.444879962131381" lon="-6.035289969295263">
        <ele>0</ele>
        <time>2016-03-21T17:51:57Z</time>
      </trkpt>
      <trkpt lat="37.445659982040524" lon="-6.035920036956668">
        <ele>0</ele>
        <time>2016-03-21T17:51:58Z</time>
      </trkpt>
      <trkpt lat="37.446110006421804" lon="-6.036320021376014">
        <ele>0</ele>
        <time>2016-03-21T17:51:59Z</time>
      </trkpt>
      <trkpt lat="37.447309959679842" lon="-6.037500025704503">
        <ele>0</ele>
        <time>2016-03-21T17:52:00Z</time>
      </trkpt>
      <trkpt lat="37.449439968913794" lon="-6.039709998294711">
        <ele>0</ele>
        <time>2016-03-21T17:52:01Z</time>
      </trkpt>
      <trkpt lat="37.45057001709938" lon="-6.040820013731718">
        <ele>0</ele>
        <time>2016-03-21T17:52:09Z</time>
      </trkpt>
      <trkpt lat="37.451230008155107" lon="-6.041389983147383">
        <ele>0</ele>
        <time>2016-03-21T17:52:18Z</time>
      </trkpt>
      <trkpt lat="37.452010028064251" lon="-6.042019966989756">
        <ele>0</ele>
        <time>2016-03-21T17:52:33Z</time>
      </trkpt>
      <trkpt lat="37.453119959682226" lon="-6.042739972472191">
        <ele>0</ele>
        <time>2016-03-21T17:52:37Z</time>
      </trkpt>
      <trkpt lat="37.454099971801043" lon="-6.043299967423081">
        <ele>0</ele>
        <time>2016-03-21T17:52:43Z</time>
      </trkpt>
      <trkpt lat="37.455079983919859" lon="-6.043779999017716">
        <ele>0</ele>
        <time>2016-03-21T17:53:08Z</time>
      </trkpt>
      <trkpt lat="37.456159992143512" lon="-6.044149976223707">
        <ele>0</ele>
        <time>2016-03-21T17:53:34Z</time>
      </trkpt>
      <trkpt lat="37.456710012629628" lon="-6.044309986755252">
        <ele>27.530000000000001</ele>
        <time>2016-03-21T17:54:01Z</time>
      </trkpt>
      <trkpt lat="37.457049982622266" lon="-6.04439003393054">
        <ele>26.57</ele>
        <time>2016-03-21T17:54:25Z</time>
      </trkpt>
      <trkpt lat="37.457149978727102" lon="-6.044420041143894">
        <ele>25.129999999999999</ele>
        <time>2016-03-21T17:54:51Z</time>
      </trkpt>
      <trkpt lat="37.457929998636246" lon="-6.044539986178279">
        <ele>24.649999999999999</ele>
        <time>2016-03-21T17:55:20Z</time>
      </trkpt>
      <trkpt lat="37.459890022873878" lon="-6.044630007818341">
        <ele>25.609999999999999</ele>
        <time>2016-03-21T17:55:36Z</time>
      </trkpt>
      <trkpt lat="37.4615260027349" lon="-6.044477289542556">
        <ele>27.050000000000001</ele>
        <time>2016-03-21T17:55:43Z</time>
      </trkpt>
      <trkpt lat="37.464118441566825" lon="-6.044265981763601">
        <ele>29.460000000000001</ele>
        <time>2016-03-21T17:55:50Z</time>
      </trkpt>
      <trkpt lat="37.466479958966374" lon="-6.044415598735213">
        <ele>31.859999999999999</ele>
        <time>2016-03-21T17:55:56Z</time>
      </trkpt>
      <trkpt lat="37.468419698998332" lon="-6.045210873708129">
        <ele>33.299999999999997</ele>
        <time>2016-03-21T17:56:05Z</time>
      </trkpt>
      <trkpt lat="37.469955179840326" lon="-6.046469835564494">
        <ele>36.670000000000002</ele>
        <time>2016-03-21T17:56:15Z</time>
      </trkpt>
      <trkpt lat="37.471582526341081" lon="-6.048561623319984">
        <ele>39.549999999999997</ele>
        <time>2016-03-21T17:56:32Z</time>
      </trkpt>
      <trkpt lat="37.47400464490056" lon="-6.051955120638013">
        <ele>37.630000000000003</ele>
        <time>2016-03-21T17:56:35Z</time>
      </trkpt>
      <trkpt lat="37.476479988545179" lon="-6.05506606400013">
        <ele>32.82</ele>
        <time>2016-03-21T17:56:36Z</time>
      </trkpt>
      <trkpt lat="37.478253347799182" lon="-6.056372886523604">
        <ele>27.530000000000001</ele>
        <time>2016-03-21T17:56:37Z</time>
      </trkpt>
      <trkpt lat="37.4809446092695" lon="-6.057577198371291">
        <ele>28.02</ele>
        <time>2016-03-21T17:56:38Z</time>
      </trkpt>
      <trkpt lat="37.483289698138833" lon="-6.059041349217296">
        <ele>33.299999999999997</ele>
        <time>2016-03-21T17:56:39Z</time>
      </trkpt>
      <trkpt lat="37.485712571069598" lon="-6.061303960159421">
        <ele>38.109999999999999</ele>
        <time>2016-03-21T17:56:54Z</time>
      </trkpt>
      <trkpt lat="37.490049367770553" lon="-6.065471107140183">
        <ele>44.840000000000003</ele>
        <time>2016-03-21T17:57:00Z</time>
      </trkpt>
      <trkpt lat="37.494720937684178" lon="-6.069949474185705">
        <ele>53.969999999999999</ele>
        <time>2016-03-21T17:57:01Z</time>
      </trkpt>
      <trkpt lat="37.496852958574891" lon="-6.071385880932212">
        <ele>57.340000000000003</ele>
        <time>2016-03-21T17:57:02Z</time>
      </trkpt>
      <trkpt lat="37.498933430761099" lon="-6.071999771520495">
        <ele>59.740000000000002</ele>
        <time>2016-03-21T17:57:03Z</time>
      </trkpt>
      <trkpt lat="37.500843331217766" lon="-6.071906313300133">
        <ele>60.700000000000003</ele>
        <time>2016-03-21T17:57:04Z</time>
      </trkpt>
      <trkpt lat="37.503289505839348" lon="-6.071127131581307">
        <ele>61.18</ele>
        <time>2016-03-21T17:57:05Z</time>
      </trkpt>
      <trkpt lat="37.506872434169054" lon="-6.07017352245748">
        <ele>68.870000000000005</ele>
        <time>2016-03-21T17:57:19Z</time>
      </trkpt>
      <trkpt lat="37.508816448971629" lon="-6.070283073931932">
        <ele>70.310000000000002</ele>
        <time>2016-03-21T17:57:29Z</time>
      </trkpt>
      <trkpt lat="37.510976884514093" lon="-6.071027051657438">
        <ele>70.310000000000002</ele>
        <time>2016-03-21T17:57:41Z</time>
      </trkpt>
      <trkpt lat="37.512749824672937" lon="-6.072232536971569">
        <ele>69.829999999999998</ele>
        <time>2016-03-21T17:57:51Z</time>
      </trkpt>
      <trkpt lat="37.515572430565953" lon="-6.074938718229532">
        <ele>69.349999999999994</ele>
        <time>2016-03-21T17:57:58Z</time>
      </trkpt>
      <trkpt lat="37.518706424161792" lon="-6.077659567818046">
        <ele>73.200000000000003</ele>
        <time>2016-03-21T17:58:15Z</time>
      </trkpt>
      <trkpt lat="37.52065253444016" lon="-6.078539164736867">
        <ele>78.969999999999999</ele>
        <time>2016-03-21T17:58:30Z</time>
      </trkpt>
      <trkpt lat="37.523768087849021" lon="-6.079934751614928">
        <ele>82.810000000000002</ele>
        <time>2016-03-21T17:58:36Z</time>
      </trkpt>
      <trkpt lat="37.525498867034912" lon="-6.081436034291983">
        <ele>86.659999999999997</ele>
        <time>2016-03-21T17:58:43Z</time>
      </trkpt>
      <trkpt lat="37.527590822428465" lon="-6.084142634645104">
        <ele>90.5</ele>
        <time>2016-03-21T17:58:53Z</time>
      </trkpt>
      <trkpt lat="37.532130377367139" lon="-6.090265111997724">
        <ele>95.790000000000006</ele>
        <time>2016-03-21T17:59:06Z</time>
      </trkpt>
      <trkpt lat="37.535615153610706" lon="-6.094913883134723">
        <ele>104.44</ele>
        <time>2016-03-21T17:59:19Z</time>
      </trkpt>
      <trkpt lat="37.537906346842647" lon="-6.097220666706562">
        <ele>112.61</ele>
        <time>2016-03-21T17:59:25Z</time>
      </trkpt>
      <trkpt lat="37.540486045181751" lon="-6.098981285467744">
        <ele>118.38</ele>
        <time>2016-03-21T17:59:32Z</time>
      </trkpt>
      <trkpt lat="37.542988378554583" lon="-6.100050816312432">
        <ele>123.19</ele>
        <time>2016-03-21T17:59:36Z</time>
      </trkpt>
      <trkpt lat="37.545831352472305" lon="-6.100616762414575">
        <ele>130.40000000000001</ele>
        <time>2016-03-21T17:59:37Z</time>
      </trkpt>
      <trkpt lat="37.549415035173297" lon="-6.101285135373473">
        <ele>137.61000000000001</ele>
        <time>2016-03-21T17:59:38Z</time>
      </trkpt>
      <trkpt lat="37.552570821717381" lon="-6.102609392255545">
        <ele>146.74000000000001</ele>
        <time>2016-03-21T17:59:39Z</time>
      </trkpt>
      <trkpt lat="37.555330311879516" lon="-6.103371558710933">
        <ele>158.75</ele>
        <time>2016-03-21T17:59:40Z</time>
      </trkpt>
      <trkpt lat="37.557904310524464" lon="-6.10344179905951">
        <ele>166.44999999999999</ele>
        <time>2016-03-21T17:59:53Z</time>
      </trkpt>
      <trkpt lat="37.561355223879218" lon="-6.102963360026479">
        <ele>168.37</ele>
        <time>2016-03-21T18:00:00Z</time>
      </trkpt>
      <trkpt lat="37.564429705962539" lon="-6.102978866547346">
        <ele>168.37</ele>
        <time>2016-03-21T18:00:07Z</time>
      </trkpt>
      <trkpt lat="37.567146364599466" lon="-6.103584710508585">
        <ele>169.81</ele>
        <time>2016-03-21T18:00:22Z</time>
      </trkpt>
      <trkpt lat="37.570223612710834" lon="-6.104994378983975">
        <ele>172.69</ele>
        <time>2016-03-21T18:00:33Z</time>
      </trkpt>
      <trkpt lat="37.572875479236245" lon="-6.106884581968188">
        <ele>179.41999999999999</ele>
        <time>2016-03-21T18:00:40Z</time>
      </trkpt>
      <trkpt lat="37.574874730780721" lon="-6.108938902616501">
        <ele>187.11000000000001</ele>
        <time>2016-03-21T18:00:47Z</time>
      </trkpt>
      <trkpt lat="37.576677594333887" lon="-6.111468225717545">
        <ele>197.69</ele>
        <time>2016-03-21T18:00:58Z</time>
      </trkpt>
      <trkpt lat="37.579118655994534" lon="-6.115511739626527">
        <ele>208.74000000000001</ele>
        <time>2016-03-21T18:01:08Z</time>
      </trkpt>
      <trkpt lat="37.581327706575394" lon="-6.118234349414706">
        <ele>221.24000000000001</ele>
        <time>2016-03-21T18:01:09Z</time>
      </trkpt>
      <trkpt lat="37.583829704672098" lon="-6.120445327833295">
        <ele>228.93000000000001</ele>
        <time>2016-03-21T18:01:10Z</time>
      </trkpt>
      <trkpt lat="37.586525743827224" lon="-6.122080637142062">
        <ele>236.62</ele>
        <time>2016-03-21T18:01:11Z</time>
      </trkpt>
      <trkpt lat="37.589333513751626" lon="-6.123125273734331">
        <ele>238.53999999999999</ele>
        <time>2016-03-21T18:01:12Z</time>
      </trkpt>
      <trkpt lat="37.592473542317748" lon="-6.123622572049499">
        <ele>240.94999999999999</ele>
        <time>2016-03-21T18:01:13Z</time>
      </trkpt>
      <trkpt lat="37.596157221123576" lon="-6.123595414683223">
        <ele>246.22999999999999</ele>
        <time>2016-03-21T18:01:14Z</time>
      </trkpt>
      <trkpt lat="37.598668187856674" lon="-6.123984083533287">
        <ele>253.44</ele>
        <time>2016-03-21T18:01:15Z</time>
      </trkpt>
      <trkpt lat="37.602475499734282" lon="-6.124817663803697">
        <ele>259.69</ele>
        <time>2016-03-21T18:01:16Z</time>
      </trkpt>
      <trkpt lat="37.605248233303428" lon="-6.12465706653893">
        <ele>265.94</ele>
        <time>2016-03-21T18:01:17Z</time>
      </trkpt>
      <trkpt lat="37.60861448943615" lon="-6.123915184289217">
        <ele>273.63</ele>
        <time>2016-03-21T18:01:18Z</time>
      </trkpt>
      <trkpt lat="37.611189996823668" lon="-6.123878555372357">
        <ele>283.25</ele>
        <time>2016-03-21T18:01:19Z</time>
      </trkpt>
      <trkpt lat="37.613760307431221" lon="-6.124466713517904">
        <ele>298.14999999999998</ele>
        <time>2016-03-21T18:01:20Z</time>
      </trkpt>
      <trkpt lat="37.615944379940629" lon="-6.125514954328537">
        <ele>302.94999999999999</ele>
        <time>2016-03-21T18:01:25Z</time>
      </trkpt>
      <trkpt lat="37.617925526574254" lon="-6.127028726041317">
        <ele>304.38999999999999</ele>
        <time>2016-03-21T18:01:26Z</time>
      </trkpt>
      <trkpt lat="37.619912372902036" lon="-6.129151443019509">
        <ele>304.38999999999999</ele>
        <time>2016-03-21T18:01:27Z</time>
      </trkpt>
      <trkpt lat="37.621545502915978" lon="-6.131709851324558">
        <ele>304.88</ele>
        <time>2016-03-21T18:01:28Z</time>
      </trkpt>
      <trkpt lat="37.623672997578979" lon="-6.135630570352078">
        <ele>304.88</ele>
        <time>2016-03-21T18:01:29Z</time>
      </trkpt>
      <trkpt lat="37.625441579148173" lon="-6.13931592553854">
        <ele>304.88</ele>
        <time>2016-03-21T18:01:30Z</time>
      </trkpt>
      <trkpt lat="37.626361325383186" lon="-6.141486922279">
        <ele>305.36000000000001</ele>
        <time>2016-03-21T18:01:31Z</time>
      </trkpt>
      <trkpt lat="37.627053251489997" lon="-6.142983427271247">
        <ele>305.83999999999997</ele>
        <time>2016-03-21T18:01:38Z</time>
      </trkpt>
      <trkpt lat="37.627170430496335" lon="-6.143147880211473">
        <ele>306.31999999999999</ele>
        <time>2016-03-21T18:01:39Z</time>
      </trkpt>
      <trkpt lat="37.62729624286294" lon="-6.143291294574738">
        <ele>307.27999999999997</ele>
        <time>2016-03-21T18:01:45Z</time>
      </trkpt>
      <trkpt lat="37.627429263666272" lon="-6.143419537693262">
        <ele>308.24000000000001</ele>
        <time>2016-03-21T18:01:46Z</time>
      </trkpt>
      <trkpt lat="37.627569912001491" lon="-6.143531519919634">
        <ele>309.19999999999999</ele>
        <time>2016-03-21T18:01:47Z</time>
      </trkpt>
      <trkpt lat="37.62771743349731" lon="-6.143628498539329">
        <ele>310.16000000000003</ele>
        <time>2016-03-21T18:01:48Z</time>
      </trkpt>
      <trkpt lat="37.627872750163078" lon="-6.143708880990744">
        <ele>311.12</ele>
        <time>2016-03-21T18:01:49Z</time>
      </trkpt>
      <trkpt lat="37.628033682703972" lon="-6.143769901245832">
        <ele>312.08999999999997</ele>
        <time>2016-03-21T18:01:50Z</time>
      </trkpt>
      <trkpt lat="37.628201153129339" lon="-6.143810637295246">
        <ele>312.56999999999999</ele>
        <time>2016-03-21T18:01:51Z</time>
      </trkpt>
      <trkpt lat="37.628372646868229" lon="-6.143828826025128">
        <ele>313.52999999999997</ele>
        <time>2016-03-21T18:01:52Z</time>
      </trkpt>
      <trkpt lat="37.62854372151196" lon="-6.143824802711606">
        <ele>314.00999999999999</ele>
        <time>2016-03-21T18:01:53Z</time>
      </trkpt>
      <trkpt lat="37.628711443394423" lon="-6.143800830468535">
        <ele>314.49000000000001</ele>
        <time>2016-03-21T18:01:54Z</time>
      </trkpt>
      <trkpt lat="37.628873884677887" lon="-6.143758753314614">
        <ele>314.97000000000003</ele>
        <time>2016-03-21T18:01:55Z</time>
      </trkpt>
      <trkpt lat="37.629026938229799" lon="-6.143703684210777">
        <ele>315.44999999999999</ele>
        <time>2016-03-21T18:01:58Z</time>
      </trkpt>
      <trkpt lat="37.62917160987854" lon="-6.143634198233485">
        <ele>315.93000000000001</ele>
        <time>2016-03-21T18:01:59Z</time>
      </trkpt>
      <trkpt lat="37.629309827461839" lon="-6.143551301211119">
        <ele>317.85000000000002</ele>
        <time>2016-03-21T18:02:00Z</time>
      </trkpt>
      <trkpt lat="37.629439830780029" lon="-6.14345264621079">
        <ele>317.85000000000002</ele>
        <time>2016-03-21T18:02:01Z</time>
      </trkpt>
      <trkpt lat="37.629562877118587" lon="-6.143343346193433">
        <ele>318.32999999999998</ele>
        <time>2016-03-21T18:02:02Z</time>
      </trkpt>
      <trkpt lat="37.629677625373006" lon="-6.143226251006126">
        <ele>318.32999999999998</ele>
        <time>2016-03-21T18:02:03Z</time>
      </trkpt>
      <trkpt lat="37.629786171019077" lon="-6.14310278557241">
        <ele>318.81</ele>
        <time>2016-03-21T18:02:15Z</time>
      </trkpt>
      <trkpt lat="37.630420513451099" lon="-6.142316814512014">
        <ele>318.81</ele>
        <time>2016-03-21T18:02:26Z</time>
      </trkpt>
      <trkpt lat="37.63045915402472" lon="-6.142209526151419">
        <ele>318.81</ele>
        <time>2016-03-21T18:02:34Z</time>
      </trkpt>
      <trkpt lat="37.630515983328223" lon="-6.14200291223824">
        <ele>319.30000000000001</ele>
        <time>2016-03-21T18:02:43Z</time>
      </trkpt>
      <trkpt lat="37.630561916157603" lon="-6.141917333006859">
        <ele>318.81</ele>
        <time>2016-03-21T18:02:58Z</time>
      </trkpt>
      <trkpt lat="37.630625115707517" lon="-6.141855306923389">
        <ele>318.81</ele>
        <time>2016-03-21T18:03:06Z</time>
      </trkpt>
      <trkpt lat="37.630702648311853" lon="-6.141823539510369">
        <ele>318.81</ele>
        <time>2016-03-21T18:03:07Z</time>
      </trkpt>
      <trkpt lat="37.630787389352918" lon="-6.141824964433909">
        <ele>318.81</ele>
        <time>2016-03-21T18:03:08Z</time>
      </trkpt>
      <trkpt lat="37.630872465670109" lon="-6.141857737675309">
        <ele>320.25999999999999</ele>
        <time>2016-03-21T18:03:09Z</time>
      </trkpt>
      <trkpt lat="37.630958966910839" lon="-6.141908280551434">
        <ele>324.10000000000002</ele>
        <time>2016-03-21T18:03:10Z</time>
      </trkpt>
      <trkpt lat="37.631051251664758" lon="-6.141957817599177">
        <ele>326.5</ele>
        <time>2016-03-21T18:03:11Z</time>
      </trkpt>
      <trkpt lat="37.631153259426355" lon="-6.141998721286655">
        <ele>323.13999999999999</ele>
        <time>2016-03-21T18:03:16Z</time>
      </trkpt>
      <trkpt lat="37.63126683421433" lon="-6.14203367382288">
        <ele>322.66000000000003</ele>
        <time>2016-03-21T18:03:17Z</time>
      </trkpt>
      <trkpt lat="37.632228909060359" lon="-6.142469281330705">
        <ele>322.18000000000001</ele>
        <time>2016-03-21T18:03:23Z</time>
      </trkpt>
      <trkpt lat="37.633590046316385" lon="-6.143542500212789">
        <ele>322.18000000000001</ele>
        <time>2016-03-21T18:03:24Z</time>
      </trkpt>
      <trkpt lat="37.634374257177114" lon="-6.14478126168251">
        <ele>322.18000000000001</ele>
        <time>2016-03-21T18:03:25Z</time>
      </trkpt>
      <trkpt lat="37.635171879082918" lon="-6.146624945104122">
        <ele>322.18000000000001</ele>
        <time>2016-03-21T18:03:26Z</time>
      </trkpt>
      <trkpt lat="37.635275227949023" lon="-6.146781099960208">
        <ele>324.57999999999998</ele>
        <time>2016-03-21T18:03:27Z</time>
      </trkpt>
      <trkpt lat="37.635388299822807" lon="-6.146925268694758">
        <ele>327.94999999999999</ele>
        <time>2016-03-21T18:03:28Z</time>
      </trkpt>
      <trkpt lat="37.635513357818127" lon="-6.147056361660361">
        <ele>329.38999999999999</ele>
        <time>2016-03-21T18:03:29Z</time>
      </trkpt>
      <trkpt lat="37.635652581229806" lon="-6.147173792123795">
        <ele>329.38999999999999</ele>
        <time>2016-03-21T18:03:30Z</time>
      </trkpt>
      <trkpt lat="37.635803371667862" lon="-6.14728351123631">
        <ele>329.38999999999999</ele>
        <time>2016-03-21T18:03:31Z</time>
      </trkpt>
      <trkpt lat="37.637623753398657" lon="-6.148397633805871">
        <ele>329.87</ele>
        <time>2016-03-21T18:03:41Z</time>
      </trkpt>
      <trkpt lat="37.639936739578843" lon="-6.149959601461887">
        <ele>329.87</ele>
        <time>2016-03-21T18:03:42Z</time>
      </trkpt>
      <trkpt lat="37.640480138361454" lon="-6.15029294975102">
        <ele>327.94999999999999</ele>
        <time>2016-03-21T18:03:43Z</time>
      </trkpt>
      <trkpt lat="37.640526993200183" lon="-6.150364279747009">
        <ele>328.91000000000003</ele>
        <time>2016-03-21T18:03:44Z</time>
      </trkpt>
      <trkpt lat="37.640553060919046" lon="-6.150455810129643">
        <ele>338.04000000000002</ele>
        <time>2016-03-21T18:03:45Z</time>
      </trkpt>
      <trkpt lat="37.640568232163787" lon="-6.150561925023794">
        <ele>339.95999999999998</ele>
        <time>2016-03-21T18:03:46Z</time>
      </trkpt>
      <trkpt lat="37.64058155938983" lon="-6.150682205334306">
        <ele>340.44</ele>
        <time>2016-03-21T18:03:47Z</time>
      </trkpt>
      <trkpt lat="37.640759674832225" lon="-6.152034038677812">
        <ele>337.07999999999998</ele>
        <time>2016-03-21T18:03:54Z</time>
      </trkpt>
      <trkpt lat="37.641056980937719" lon="-6.154114929959178">
        <ele>335.16000000000003</ele>
        <time>2016-03-21T18:04:06Z</time>
      </trkpt>
      <trkpt lat="37.641580263152719" lon="-6.157805314287543">
        <ele>334.19999999999999</ele>
        <time>2016-03-21T18:04:22Z</time>
      </trkpt>
      <trkpt lat="37.641685036942363" lon="-6.158329769968987">
        <ele>333.23000000000002</ele>
        <time>2016-03-21T18:04:32Z</time>
      </trkpt>
      <trkpt lat="37.641687467694283" lon="-6.158378552645445">
        <ele>333.70999999999998</ele>
        <time>2016-03-21T18:04:41Z</time>
      </trkpt>
      <trkpt lat="37.641671458259225" lon="-6.158359441906214">
        <ele>334.68000000000001</ele>
        <time>2016-03-21T18:04:42Z</time>
      </trkpt>
      <trkpt lat="37.641661651432514" lon="-6.158346114680171">
        <ele>335.63999999999999</ele>
        <time>2016-03-21T18:04:43Z</time>
      </trkpt>
      <trkpt lat="37.64166047796607" lon="-6.158353826031089">
        <ele>338.04000000000002</ele>
        <time>2016-03-21T18:04:53Z</time>
      </trkpt>
      <trkpt lat="37.641668440774083" lon="-6.158357597887516">
        <ele>339.48000000000002</ele>
        <time>2016-03-21T18:04:54Z</time>
      </trkpt>
      <trkpt lat="37.641661735251546" lon="-6.158342761918902">
        <ele>339</ele>
        <time>2016-03-21T18:04:55Z</time>
      </trkpt>
      <trkpt lat="37.641657460480928" lon="-6.158350640907884">
        <ele>332.75</ele>
        <time>2016-03-21T18:05:04Z</time>
      </trkpt>
      <trkpt lat="37.64165947213769" lon="-6.158625734969974">
        <ele>326.01999999999998</ele>
        <time>2016-03-21T18:05:10Z</time>
      </trkpt>
      <trkpt lat="37.641599038615823" lon="-6.159469624981284">
        <ele>323.13999999999999</ele>
        <time>2016-03-21T18:05:19Z</time>
      </trkpt>
      <trkpt lat="37.641176087781787" lon="-6.160579724237323">
        <ele>321.22000000000003</ele>
        <time>2016-03-21T18:05:28Z</time>
      </trkpt>
      <trkpt lat="37.640376035124063" lon="-6.161418668925762">
        <ele>320.25999999999999</ele>
        <time>2016-03-21T18:05:41Z</time>
      </trkpt>
      <trkpt lat="37.638620948418975" lon="-6.162543352693319">
        <ele>319.30000000000001</ele>
        <time>2016-03-21T18:05:42Z</time>
      </trkpt>
      <trkpt lat="37.63621517457068" lon="-6.164077324792743">
        <ele>318.32999999999998</ele>
        <time>2016-03-21T18:05:43Z</time>
      </trkpt>
      <trkpt lat="37.632017014548182" lon="-6.166790295392275">
        <ele>316.88999999999999</ele>
        <time>2016-03-21T18:05:44Z</time>
      </trkpt>
      <trkpt lat="37.631433214992285" lon="-6.167340148240328">
        <ele>305.36000000000001</ele>
        <time>2016-03-21T18:05:45Z</time>
      </trkpt>
      <trkpt lat="37.631268342956901" lon="-6.16756402887404">
        <ele>299.11000000000001</ele>
        <time>2016-03-21T18:05:46Z</time>
      </trkpt>
      <trkpt lat="37.631113613024354" lon="-6.167811714112759">
        <ele>298.14999999999998</ele>
        <time>2016-03-21T18:05:55Z</time>
      </trkpt>
      <trkpt lat="37.630973216146231" lon="-6.168076582252979">
        <ele>297.18000000000001</ele>
        <time>2016-03-21T18:13:08Z</time>
      </trkpt>
      <trkpt lat="37.630841620266438" lon="-6.168355867266655">
        <ele>296.22000000000003</ele>
        <time>2016-03-21T18:13:18Z</time>
      </trkpt>
      <trkpt lat="37.628964073956013" lon="-6.172622842714191">
        <ele>295.25999999999999</ele>
        <time>2016-03-21T18:13:29Z</time>
      </trkpt>
      <trkpt lat="37.628360912203789" lon="-6.174156647175551">
        <ele>294.30000000000001</ele>
        <time>2016-03-21T18:13:44Z</time>
      </trkpt>
      <trkpt lat="37.628314644098282" lon="-6.174415312707424">
        <ele>285.64999999999998</ele>
        <time>2016-03-21T18:13:53Z</time>
      </trkpt>
      <trkpt lat="37.628295365720987" lon="-6.1746721342206">
        <ele>279.39999999999998</ele>
        <time>2016-03-21T18:14:02Z</time>
      </trkpt>
      <trkpt lat="37.628298215568066" lon="-6.174923842772842">
        <ele>268.35000000000002</ele>
        <time>2016-03-21T18:14:11Z</time>
      </trkpt>
      <trkpt lat="37.628312464803457" lon="-6.175170354545116">
        <ele>256.81</ele>
        <time>2016-03-21T18:14:13Z</time>
      </trkpt>
      <trkpt lat="37.628335934132338" lon="-6.175412423908711">
        <ele>246.72</ele>
        <time>2016-03-21T18:14:14Z</time>
      </trkpt>
      <trkpt lat="37.62881244532764" lon="-6.178767196834087">
        <ele>231.81</ele>
        <time>2016-03-21T18:14:15Z</time>
      </trkpt>
      <trkpt lat="37.629618281498551" lon="-6.181359887123108">
        <ele>225.56999999999999</ele>
        <time>2016-03-21T18:14:16Z</time>
      </trkpt>
      <trkpt lat="37.630784539505839" lon="-6.184580633416772">
        <ele>222.19999999999999</ele>
        <time>2016-03-21T18:14:17Z</time>
      </trkpt>
      <trkpt lat="37.632389003410935" lon="-6.186823546886444">
        <ele>218.84</ele>
        <time>2016-03-21T18:14:18Z</time>
      </trkpt>
      <trkpt lat="37.633894309401512" lon="-6.187959294766188">
        <ele>225.09</ele>
        <time>2016-03-21T18:14:19Z</time>
      </trkpt>
      <trkpt lat="37.637905301526189" lon="-6.190791791304946">
        <ele>238.53999999999999</ele>
        <time>2016-03-21T18:14:27Z</time>
      </trkpt>
      <trkpt lat="37.641360489651561" lon="-6.193438209593296">
        <ele>239.99000000000001</ele>
        <time>2016-03-21T18:14:42Z</time>
      </trkpt>
      <trkpt lat="37.642312757670879" lon="-6.19499959051609">
        <ele>241.91</ele>
        <time>2016-03-21T18:14:47Z</time>
      </trkpt>
      <trkpt lat="37.642986495047808" lon="-6.197183579206467">
        <ele>238.06</ele>
        <time>2016-03-21T18:14:48Z</time>
      </trkpt>
      <trkpt lat="37.644062647596002" lon="-6.200157729908824">
        <ele>233.25999999999999</ele>
        <time>2016-03-21T18:14:49Z</time>
      </trkpt>
      <trkpt lat="37.645816979929805" lon="-6.20369422249496">
        <ele>231.81</ele>
        <time>2016-03-21T18:14:50Z</time>
      </trkpt>
      <trkpt lat="37.647685054689646" lon="-6.207445794716477">
        <ele>230.37</ele>
        <time>2016-03-21T18:14:51Z</time>
      </trkpt>
      <trkpt lat="37.648210264742374" lon="-6.209254106506705">
        <ele>228.93000000000001</ele>
        <time>2016-03-21T18:14:56Z</time>
      </trkpt>
      <trkpt lat="37.648343788459897" lon="-6.211623921990395">
        <ele>227.49000000000001</ele>
        <time>2016-03-21T18:14:57Z</time>
      </trkpt>
      <trkpt lat="37.648458201438189" lon="-6.212954381480813">
        <ele>213.06999999999999</ele>
        <time>2016-03-21T18:14:58Z</time>
      </trkpt>
      <trkpt lat="37.648533638566732" lon="-6.213268116116524">
        <ele>214.03</ele>
        <time>2016-03-21T18:14:59Z</time>
      </trkpt>
      <trkpt lat="37.648633299395442" lon="-6.213571121916175">
        <ele>214.99000000000001</ele>
        <time>2016-03-21T18:15:00Z</time>
      </trkpt>
      <trkpt lat="37.648752154782414" lon="-6.213865242898464">
        <ele>220.75999999999999</ele>
        <time>2016-03-21T18:15:14Z</time>
      </trkpt>
      <trkpt lat="37.648881487548351" lon="-6.21415626257658">
        <ele>222.19999999999999</ele>
        <time>2016-03-21T18:15:21Z</time>
      </trkpt>
      <trkpt lat="37.650785688310862" lon="-6.217843713238835">
        <ele>225.56999999999999</ele>
        <time>2016-03-21T18:15:28Z</time>
      </trkpt>
      <trkpt lat="37.651772741228342" lon="-6.219739783555269">
        <ele>232.78</ele>
        <time>2016-03-21T18:15:39Z</time>
      </trkpt>
      <trkpt lat="37.652760213240981" lon="-6.221590675413609">
        <ele>239.02000000000001</ele>
        <time>2016-03-21T18:15:49Z</time>
      </trkpt>
      <trkpt lat="37.655445355921984" lon="-6.225110488012433">
        <ele>250.08000000000001</ele>
        <time>2016-03-21T18:15:56Z</time>
      </trkpt>
      <trkpt lat="37.657316531985998" lon="-6.227810801938176">
        <ele>251.03999999999999</ele>
        <time>2016-03-21T18:16:00Z</time>
      </trkpt>
      <trkpt lat="37.658660653978586" lon="-6.228919643908739">
        <ele>252.47999999999999</ele>
        <time>2016-03-21T18:16:01Z</time>
      </trkpt>
      <trkpt lat="37.659871838986874" lon="-6.230187574401498">
        <ele>253.93000000000001</ele>
        <time>2016-03-21T18:16:02Z</time>
      </trkpt>
      <trkpt lat="37.66150857321918" lon="-6.232834327965975">
        <ele>255.37</ele>
        <time>2016-03-21T18:16:03Z</time>
      </trkpt>
      <trkpt lat="37.662676339969039" lon="-6.235528355464339">
        <ele>256.81</ele>
        <time>2016-03-21T18:16:04Z</time>
      </trkpt>
      <trkpt lat="37.662832494825125" lon="-6.235753744840622">
        <ele>258.25</ele>
        <time>2016-03-21T18:16:09Z</time>
      </trkpt>
      <trkpt lat="37.663005162030458" lon="-6.235952731221914">
        <ele>260.17000000000002</ele>
        <time>2016-03-21T18:16:10Z</time>
      </trkpt>
      <trkpt lat="37.663191324099898" lon="-6.236124895513058">
        <ele>261.62</ele>
        <time>2016-03-21T18:16:11Z</time>
      </trkpt>
      <trkpt lat="37.663390310481191" lon="-6.236273590475321">
        <ele>263.54000000000002</ele>
        <time>2016-03-21T18:16:19Z</time>
      </trkpt>
      <trkpt lat="37.663601953536272" lon="-6.236395295709372">
        <ele>264.98000000000002</ele>
        <time>2016-03-21T18:16:31Z</time>
      </trkpt>
      <trkpt lat="37.663820972666144" lon="-6.2364905141294">
        <ele>266.42000000000002</ele>
        <time>2016-03-21T18:16:43Z</time>
      </trkpt>
      <trkpt lat="37.664046278223395" lon="-6.236557234078646">
        <ele>267.86000000000001</ele>
        <time>2016-03-21T18:16:49Z</time>
      </trkpt>
      <trkpt lat="37.664276780560613" lon="-6.236593946814537">
        <ele>275.06999999999999</ele>
        <time>2016-03-21T18:16:50Z</time>
      </trkpt>
      <trkpt lat="37.664509965106845" lon="-6.236597886309028">
        <ele>276.51999999999998</ele>
        <time>2016-03-21T18:16:51Z</time>
      </trkpt>
      <trkpt lat="37.664743484929204" lon="-6.236577937379479">
        <ele>278.44</ele>
        <time>2016-03-21T18:16:52Z</time>
      </trkpt>
      <trkpt lat="37.664975244551897" lon="-6.236539715901017">
        <ele>279.88</ele>
        <time>2016-03-21T18:16:53Z</time>
      </trkpt>
      <trkpt lat="37.665204321965575" lon="-6.23648657463491">
        <ele>281.31999999999999</ele>
        <time>2016-03-21T18:17:03Z</time>
      </trkpt>
      <trkpt lat="37.666331101208925" lon="-6.236323211342096">
        <ele>283.25</ele>
        <time>2016-03-21T18:17:15Z</time>
      </trkpt>
      <trkpt lat="37.666551796719432" lon="-6.236354811117053">
        <ele>284.69</ele>
        <time>2016-03-21T18:17:25Z</time>
      </trkpt>
      <trkpt lat="37.666768971830606" lon="-6.236414909362793">
        <ele>291.89999999999998</ele>
        <time>2016-03-21T18:17:36Z</time>
      </trkpt>
      <trkpt lat="37.666979944333434" lon="-6.23650174587965">
        <ele>293.33999999999997</ele>
        <time>2016-03-21T18:17:52Z</time>
      </trkpt>
      <trkpt lat="37.667181445285678" lon="-6.236615404486656">
        <ele>298.63</ele>
        <time>2016-03-21T18:17:59Z</time>
      </trkpt>
      <trkpt lat="37.667376575991511" lon="-6.236749682575464">
        <ele>299.11000000000001</ele>
        <time>2016-03-21T18:18:00Z</time>
      </trkpt>
      <trkpt lat="37.667565084993839" lon="-6.236898126080632">
        <ele>298.63</ele>
        <time>2016-03-21T18:18:01Z</time>
      </trkpt>
      <trkpt lat="37.668871488422155" lon="-6.237979894503951">
        <ele>298.63</ele>
        <time>2016-03-21T18:18:02Z</time>
      </trkpt>
      <trkpt lat="37.669078186154366" lon="-6.238082908093929">
        <ele>297.67000000000002</ele>
        <time>2016-03-21T18:18:03Z</time>
      </trkpt>
      <trkpt lat="37.670362126082182" lon="-6.238610967993736">
        <ele>297.18000000000001</ele>
        <time>2016-03-21T18:18:09Z</time>
      </trkpt>
      <trkpt lat="37.67055993899703" lon="-6.238748263567686">
        <ele>295.74000000000001</ele>
        <time>2016-03-21T18:18:10Z</time>
      </trkpt>
      <trkpt lat="37.67074367031455" lon="-6.238909112289548">
        <ele>294.77999999999997</ele>
        <time>2016-03-21T18:18:11Z</time>
      </trkpt>
      <trkpt lat="37.670913571491838" lon="-6.23909393325448">
        <ele>293.81999999999999</ele>
        <time>2016-03-21T18:18:12Z</time>
      </trkpt>
      <trkpt lat="37.671067882329226" lon="-6.239300463348627">
        <ele>292.38</ele>
        <time>2016-03-21T18:18:13Z</time>
      </trkpt>
      <trkpt lat="37.671205261722207" lon="-6.239528702571988">
        <ele>290.94</ele>
        <time>2016-03-21T18:18:22Z</time>
      </trkpt>
      <trkpt lat="37.671327386051416" lon="-6.239777645096183">
        <ele>286.61000000000001</ele>
        <time>2016-03-21T18:18:38Z</time>
      </trkpt>
      <trkpt lat="37.67143115401268" lon="-6.240045195445418">
        <ele>285.17000000000002</ele>
        <time>2016-03-21T18:18:40Z</time>
      </trkpt>
      <trkpt lat="37.671515643596649" lon="-6.240329593420029">
        <ele>283.73000000000002</ele>
        <time>2016-03-21T18:18:41Z</time>
      </trkpt>
      <trkpt lat="37.67158605158329" lon="-6.240621283650398">
        <ele>282.27999999999997</ele>
        <time>2016-03-21T18:18:42Z</time>
      </trkpt>
      <trkpt lat="37.671646568924189" lon="-6.240918841212988">
        <ele>281.31999999999999</ele>
        <time>2016-03-21T18:18:43Z</time>
      </trkpt>
      <trkpt lat="37.671837424859405" lon="-6.241768514737487">
        <ele>280.36000000000001</ele>
        <time>2016-03-21T18:18:44Z</time>
      </trkpt>
      <trkpt lat="37.67193490639329" lon="-6.242032460868359">
        <ele>277.48000000000002</ele>
        <time>2016-03-21T18:18:45Z</time>
      </trkpt>
      <trkpt lat="37.672051917761564" lon="-6.242288863286376">
        <ele>269.79000000000002</ele>
        <time>2016-03-21T18:18:46Z</time>
      </trkpt>
      <trkpt lat="37.672189380973577" lon="-6.242534872144461">
        <ele>264.01999999999998</ele>
        <time>2016-03-21T18:18:52Z</time>
      </trkpt>
      <trkpt lat="37.672343943268061" lon="-6.242773169651628">
        <ele>258.73000000000002</ele>
        <time>2016-03-21T18:18:53Z</time>
      </trkpt>
      <trkpt lat="37.672510491684079" lon="-6.24300685711205">
        <ele>256.32999999999998</ele>
        <time>2016-03-21T18:18:54Z</time>
      </trkpt>
      <trkpt lat="37.674678722396493" lon="-6.245931973680854">
        <ele>255.37</ele>
        <time>2016-03-21T18:18:55Z</time>
      </trkpt>
      <trkpt lat="37.676512179896235" lon="-6.248865555971861">
        <ele>255.37</ele>
        <time>2016-03-21T18:18:56Z</time>
      </trkpt>
      <trkpt lat="37.677465369924903" lon="-6.250921469181776">
        <ele>255.37</ele>
        <time>2016-03-21T18:18:57Z</time>
      </trkpt>
      <trkpt lat="37.678293082863092" lon="-6.252950308844447">
        <ele>255.37</ele>
        <time>2016-03-21T18:18:58Z</time>
      </trkpt>
      <trkpt lat="37.679965691640973" lon="-6.255651544779539">
        <ele>255.84999999999999</ele>
        <time>2016-03-21T18:19:02Z</time>
      </trkpt>
      <trkpt lat="37.68111920915544" lon="-6.256733229383826">
        <ele>256.32999999999998</ele>
        <time>2016-03-21T18:19:03Z</time>
      </trkpt>
      <trkpt lat="37.681248458102345" lon="-6.256907405331731">
        <ele>260.17000000000002</ele>
        <time>2016-03-21T18:19:04Z</time>
      </trkpt>
      <trkpt lat="37.681361027061939" lon="-6.25710329040885">
        <ele>261.13999999999999</ele>
        <time>2016-03-21T18:19:05Z</time>
      </trkpt>
      <trkpt lat="37.68145389854908" lon="-6.257318453863263">
        <ele>266.42000000000002</ele>
        <time>2016-03-21T18:19:06Z</time>
      </trkpt>
      <trkpt lat="37.681528329849243" lon="-6.257547363638878">
        <ele>266.89999999999998</ele>
        <time>2016-03-21T18:19:07Z</time>
      </trkpt>
      <trkpt lat="37.681590775027871" lon="-6.257784822955728">
        <ele>268.35000000000002</ele>
        <time>2016-03-21T18:19:08Z</time>
      </trkpt>
      <trkpt lat="37.68178422935307" lon="-6.258970694616437">
        <ele>269.31</ele>
        <time>2016-03-21T18:19:09Z</time>
      </trkpt>
      <trkpt lat="37.681782552972436" lon="-6.259208070114255">
        <ele>270.26999999999998</ele>
        <time>2016-03-21T18:19:10Z</time>
      </trkpt>
      <trkpt lat="37.681730585172772" lon="-6.260669874027371">
        <ele>271.23000000000002</ele>
        <time>2016-03-21T18:19:11Z</time>
      </trkpt>
      <trkpt lat="37.681777440011501" lon="-6.260913452133536">
        <ele>272.67000000000002</ele>
        <time>2016-03-21T18:19:12Z</time>
      </trkpt>
      <trkpt lat="37.681844830513" lon="-6.261150743812323">
        <ele>273.63</ele>
        <time>2016-03-21T18:19:13Z</time>
      </trkpt>
      <trkpt lat="37.681931667029858" lon="-6.261378396302462">
        <ele>274.58999999999997</ele>
        <time>2016-03-21T18:19:16Z</time>
      </trkpt>
      <trkpt lat="37.682041553780437" lon="-6.261594649404287">
        <ele>279.88</ele>
        <time>2016-03-21T18:19:17Z</time>
      </trkpt>
      <trkpt lat="37.682169545441866" lon="-6.261800676584244">
        <ele>280.36000000000001</ele>
        <time>2016-03-21T18:19:18Z</time>
      </trkpt>
      <trkpt lat="37.682313043624163" lon="-6.261990694329143">
        <ele>280.36000000000001</ele>
        <time>2016-03-21T18:19:19Z</time>
      </trkpt>
      <trkpt lat="37.682471545413136" lon="-6.262162020429969">
        <ele>280.36000000000001</ele>
        <time>2016-03-21T18:19:20Z</time>
      </trkpt>
      <trkpt lat="37.682642117142677" lon="-6.262321192771196">
        <ele>279.88</ele>
        <time>2016-03-21T18:19:21Z</time>
      </trkpt>
      <trkpt lat="37.68440131098032" lon="-6.264006374403834">
        <ele>279.88</ele>
        <time>2016-03-21T18:19:22Z</time>
      </trkpt>
      <trkpt lat="37.684538271278143" lon="-6.264245510101318">
        <ele>279.39999999999998</ele>
        <time>2016-03-21T18:19:23Z</time>
      </trkpt>
      <trkpt lat="37.684656204655766" lon="-6.264504930004478">
        <ele>283.25</ele>
        <time>2016-03-21T18:19:24Z</time>
      </trkpt>
      <trkpt lat="37.68475360237062" lon="-6.264782287180424">
        <ele>293.81999999999999</ele>
        <time>2016-03-21T18:19:25Z</time>
      </trkpt>
      <trkpt lat="37.684833901003003" lon="-6.265073558315635">
        <ele>301.50999999999999</ele>
        <time>2016-03-21T18:19:26Z</time>
      </trkpt>
      <trkpt lat="37.68490070477128" lon="-6.26537480391562">
        <ele>300.06999999999999</ele>
        <time>2016-03-21T18:19:27Z</time>
      </trkpt>
      <trkpt lat="37.684960048645735" lon="-6.265678899362683">
        <ele>303.43000000000001</ele>
        <time>2016-03-21T18:19:28Z</time>
      </trkpt>
      <trkpt lat="37.685609394684434" lon="-6.267692316323519">
        <ele>303.43000000000001</ele>
        <time>2016-03-21T18:19:29Z</time>
      </trkpt>
      <trkpt lat="37.687439499422908" lon="-6.270760931074619">
        <ele>303.91000000000003</ele>
        <time>2016-03-21T18:19:30Z</time>
      </trkpt>
      <trkpt lat="37.690297225490212" lon="-6.27492556348443">
        <ele>307.27999999999997</ele>
        <time>2016-03-21T18:19:31Z</time>
      </trkpt>
      <trkpt lat="37.692298069596291" lon="-6.277345418930054">
        <ele>307.27999999999997</ele>
        <time>2016-03-21T18:19:32Z</time>
      </trkpt>
      <trkpt lat="37.693960536271334" lon="-6.279493868350983">
        <ele>307.75999999999999</ele>
        <time>2016-03-21T18:19:36Z</time>
      </trkpt>
      <trkpt lat="37.694076709449291" lon="-6.279755886644125">
        <ele>309.19999999999999</ele>
        <time>2016-03-21T18:19:37Z</time>
      </trkpt>
      <trkpt lat="37.694178717210889" lon="-6.280029471963644">
        <ele>312.08999999999997</ele>
        <time>2016-03-21T18:19:38Z</time>
      </trkpt>
      <trkpt lat="37.695217905566096" lon="-6.282801786437631">
        <ele>310.63999999999999</ele>
        <time>2016-03-21T18:19:39Z</time>
      </trkpt>
      <trkpt lat="37.695377916097641" lon="-6.283030696213245">
        <ele>311.12</ele>
        <time>2016-03-21T18:19:40Z</time>
      </trkpt>
      <trkpt lat="37.695552594959736" lon="-6.283243764191866">
        <ele>310.63999999999999</ele>
        <time>2016-03-21T18:19:41Z</time>
      </trkpt>
      <trkpt lat="37.697335174307227" lon="-6.285052243620157">
        <ele>310.63999999999999</ele>
        <time>2016-03-21T18:19:51Z</time>
      </trkpt>
      <trkpt lat="37.698243856430054" lon="-6.286679673939943">
        <ele>310.16000000000003</ele>
        <time>2016-03-21T18:19:52Z</time>
      </trkpt>
      <trkpt lat="37.699096128344536" lon="-6.289611831307411">
        <ele>310.16000000000003</ele>
        <time>2016-03-21T18:19:53Z</time>
      </trkpt>
      <trkpt lat="37.700173454359174" lon="-6.292498474940658">
        <ele>309.68000000000001</ele>
        <time>2016-03-21T18:19:54Z</time>
      </trkpt>
      <trkpt lat="37.701915465295315" lon="-6.296554394066334">
        <ele>309.68000000000001</ele>
        <time>2016-03-21T18:19:55Z</time>
      </trkpt>
      <trkpt lat="37.702078577131033" lon="-6.296808365732431">
        <ele>307.27999999999997</ele>
        <time>2016-03-21T18:19:56Z</time>
      </trkpt>
      <trkpt lat="37.702257614582777" lon="-6.297040292993188">
        <ele>299.58999999999997</ele>
        <time>2016-03-21T18:19:57Z</time>
      </trkpt>
      <trkpt lat="37.702452577650547" lon="-6.297250092029572">
        <ele>297.67000000000002</ele>
        <time>2016-03-21T18:19:58Z</time>
      </trkpt>
      <trkpt lat="37.70265793427825" lon="-6.297442289069295">
        <ele>292.86000000000001</ele>
        <time>2016-03-21T18:20:07Z</time>
      </trkpt>
      <trkpt lat="37.702866140753031" lon="-6.297619650140405">
        <ele>292.86000000000001</ele>
        <time>2016-03-21T18:20:08Z</time>
      </trkpt>
      <trkpt lat="37.704514106735587" lon="-6.299027306959033">
        <ele>292.38</ele>
        <time>2016-03-21T18:20:09Z</time>
      </trkpt>
      <trkpt lat="37.704643942415714" lon="-6.299168290570378">
        <ele>292.38</ele>
        <time>2016-03-21T18:20:10Z</time>
      </trkpt>
      <trkpt lat="37.705389512702823" lon="-6.300034560263157">
        <ele>294.77999999999997</ele>
        <time>2016-03-21T18:20:11Z</time>
      </trkpt>
      <trkpt lat="37.705407533794641" lon="-6.300056520849466">
        <ele>295.25999999999999</ele>
        <time>2016-03-21T18:20:12Z</time>
      </trkpt>
      <trkpt lat="37.705901563167572" lon="-6.301076430827379">
        <ele>295.74000000000001</ele>
        <time>2016-03-21T18:20:13Z</time>
      </trkpt>
      <trkpt lat="37.705919584259391" lon="-6.301098307594657">
        <ele>296.22000000000003</ele>
        <time>2016-03-21T18:20:14Z</time>
      </trkpt>
      <trkpt lat="37.706395676359534" lon="-6.302140178158879">
        <ele>296.69999999999999</ele>
        <time>2016-03-21T18:20:15Z</time>
      </trkpt>
      <trkpt lat="37.706462144851685" lon="-6.30226825363934">
        <ele>296.69999999999999</ele>
        <time>2016-03-21T18:20:16Z</time>
      </trkpt>
      <trkpt lat="37.707583978772163" lon="-6.303776744753122">
        <ele>297.18000000000001</ele>
        <time>2016-03-21T18:20:17Z</time>
      </trkpt>
      <trkpt lat="37.709188861772418" lon="-6.305886637419462">
        <ele>297.18000000000001</ele>
        <time>2016-03-21T18:20:25Z</time>
      </trkpt>
      <trkpt lat="37.711336808279157" lon="-6.308845533058047">
        <ele>299.11000000000001</ele>
        <time>2016-03-21T18:20:33Z</time>
      </trkpt>
      <trkpt lat="37.713020900264382" lon="-6.310154786333442">
        <ele>302.47000000000003</ele>
        <time>2016-03-21T18:20:34Z</time>
      </trkpt>
      <trkpt lat="37.714862991124392" lon="-6.311064641922712">
        <ele>302.94999999999999</ele>
        <time>2016-03-21T18:20:35Z</time>
      </trkpt>
      <trkpt lat="37.716685635969043" lon="-6.312292171642184">
        <ele>302.94999999999999</ele>
        <time>2016-03-21T18:20:36Z</time>
      </trkpt>
      <trkpt lat="37.717041783034801" lon="-6.312663909047842">
        <ele>302.94999999999999</ele>
        <time>2016-03-21T18:20:37Z</time>
      </trkpt>
      <trkpt lat="37.717197351157665" lon="-6.312877982854843">
        <ele>302.94999999999999</ele>
        <time>2016-03-21T18:20:49Z</time>
      </trkpt>
      <trkpt lat="37.717333808541298" lon="-6.313112005591393">
        <ele>303.43000000000001</ele>
        <time>2016-03-21T18:20:58Z</time>
      </trkpt>
      <trkpt lat="37.717449562624097" lon="-6.313365222886205">
        <ele>305.36000000000001</ele>
        <time>2016-03-21T18:21:03Z</time>
      </trkpt>
      <trkpt lat="37.717546541243792" lon="-6.313633192330599">
        <ele>305.83999999999997</ele>
        <time>2016-03-21T18:21:10Z</time>
      </trkpt>
      <trkpt lat="37.71762415766716" lon="-6.313911639153957">
        <ele>306.31999999999999</ele>
        <time>2016-03-21T18:21:17Z</time>
      </trkpt>
      <trkpt lat="37.717688363045454" lon="-6.314197545871139">
        <ele>307.27999999999997</ele>
        <time>2016-03-21T18:21:18Z</time>
      </trkpt>
      <trkpt lat="37.718324214220047" lon="-6.316487062722445">
        <ele>308.24000000000001</ele>
        <time>2016-03-21T18:21:19Z</time>
      </trkpt>
      <trkpt lat="37.720148116350174" lon="-6.320702992379665">
        <ele>319.77999999999997</ele>
        <time>2016-03-21T18:21:20Z</time>
      </trkpt>
      <trkpt lat="37.720798971131444" lon="-6.321978382766247">
        <ele>326.5</ele>
        <time>2016-03-21T18:21:21Z</time>
      </trkpt>
      <trkpt lat="37.720885975286365" lon="-6.322251465171576">
        <ele>332.75</ele>
        <time>2016-03-21T18:21:24Z</time>
      </trkpt>
      <trkpt lat="37.720952527597547" lon="-6.322534270584583">
        <ele>339.95999999999998</ele>
        <time>2016-03-21T18:21:25Z</time>
      </trkpt>
      <trkpt lat="37.720999969169497" lon="-6.322824871167541">
        <ele>347.64999999999998</ele>
        <time>2016-03-21T18:21:26Z</time>
      </trkpt>
      <trkpt lat="37.721034418791533" lon="-6.323120668530464">
        <ele>350.06</ele>
        <time>2016-03-21T18:21:27Z</time>
      </trkpt>
      <trkpt lat="37.721275482326746" lon="-6.324545256793499">
        <ele>347.64999999999998</ele>
        <time>2016-03-21T18:21:28Z</time>
      </trkpt>
      <trkpt lat="37.721380423754454" lon="-6.324802413582802">
        <ele>346.69</ele>
        <time>2016-03-21T18:21:29Z</time>
      </trkpt>
      <trkpt lat="37.721508080139756" lon="-6.325044818222523">
        <ele>346.20999999999998</ele>
        <time>2016-03-21T18:21:30Z</time>
      </trkpt>
      <trkpt lat="37.721654009073973" lon="-6.325276661664248">
        <ele>345.73000000000002</ele>
        <time>2016-03-21T18:21:31Z</time>
      </trkpt>
      <trkpt lat="37.721811924129725" lon="-6.325502721592784">
        <ele>345.73000000000002</ele>
        <time>2016-03-21T18:21:32Z</time>
      </trkpt>
      <trkpt lat="37.724226415157318" lon="-6.328833606094122">
        <ele>347.64999999999998</ele>
        <time>2016-03-21T18:21:35Z</time>
      </trkpt>
      <trkpt lat="37.725230231881142" lon="-6.330684581771493">
        <ele>348.13</ele>
        <time>2016-03-21T18:21:36Z</time>
      </trkpt>
      <trkpt lat="37.725671455264091" lon="-6.332859182730317">
        <ele>349.10000000000002</ele>
        <time>2016-03-21T18:21:37Z</time>
      </trkpt>
      <trkpt lat="37.726360866799951" lon="-6.336365165188909">
        <ele>354.86000000000001</ele>
        <time>2016-03-21T18:21:38Z</time>
      </trkpt>
      <trkpt lat="37.72712747566402" lon="-6.339553305879235">
        <ele>362.55000000000001</ele>
        <time>2016-03-21T18:21:39Z</time>
      </trkpt>
      <trkpt lat="37.727838261052966" lon="-6.341729331761599">
        <ele>366.88</ele>
        <time>2016-03-21T18:21:40Z</time>
      </trkpt>
      <trkpt lat="37.728284010663629" lon="-6.342871952801943">
        <ele>367.36000000000001</ele>
        <time>2016-03-21T18:21:41Z</time>
      </trkpt>
      <trkpt lat="37.728429101407528" lon="-6.343117542564869">
        <ele>366.88</ele>
        <time>2016-03-21T18:21:42Z</time>
      </trkpt>
      <trkpt lat="37.728594057261944" lon="-6.343343183398247">
        <ele>366.88</ele>
        <time>2016-03-21T18:21:47Z</time>
      </trkpt>
      <trkpt lat="37.72877611219883" lon="-6.343551892787218">
        <ele>366.88</ele>
        <time>2016-03-21T18:21:48Z</time>
      </trkpt>
      <trkpt lat="37.72896814160049" lon="-6.343754148110747">
        <ele>366.88</ele>
        <time>2016-03-21T18:21:49Z</time>
      </trkpt>
      <trkpt lat="37.729806834831834" lon="-6.344824098050594">
        <ele>370.73000000000002</ele>
        <time>2016-03-21T18:21:50Z</time>
      </trkpt>
      <trkpt lat="37.729925187304616" lon="-6.345064407214522">
        <ele>386.58999999999997</ele>
        <time>2016-03-21T18:21:51Z</time>
      </trkpt>
      <trkpt lat="37.730027865618467" lon="-6.345312427729368">
        <ele>396.19999999999999</ele>
        <time>2016-03-21T18:21:52Z</time>
      </trkpt>
      <trkpt lat="37.730708811432123" lon="-6.347027532756329">
        <ele>395.72000000000003</ele>
        <time>2016-03-21T18:21:53Z</time>
      </trkpt>
      <trkpt lat="37.731733163818717" lon="-6.34901873767376">
        <ele>391.87</ele>
        <time>2016-03-21T18:21:54Z</time>
      </trkpt>
      <trkpt lat="37.732369266450405" lon="-6.351408585906029">
        <ele>394.27999999999997</ele>
        <time>2016-03-21T18:21:55Z</time>
      </trkpt>
      <trkpt lat="37.732711583375931" lon="-6.352770477533341">
        <ele>395.72000000000003</ele>
        <time>2016-03-21T18:21:56Z</time>
      </trkpt>
      <trkpt lat="37.732811579480767" lon="-6.35299033485353">
        <ele>397.16000000000003</ele>
        <time>2016-03-21T18:21:59Z</time>
      </trkpt>
      <trkpt lat="37.732929680496454" lon="-6.35320533066988">
        <ele>398.60000000000002</ele>
        <time>2016-03-21T18:22:00Z</time>
      </trkpt>
      <trkpt lat="37.733065215870738" lon="-6.353413369506598">
        <ele>400.05000000000001</ele>
        <time>2016-03-21T18:22:01Z</time>
      </trkpt>
      <trkpt lat="37.733213491737843" lon="-6.353614870458841">
        <ele>407.74000000000001</ele>
        <time>2016-03-21T18:22:02Z</time>
      </trkpt>
      <trkpt lat="37.734939157962799" lon="-6.355614960193634">
        <ele>408.69999999999999</ele>
        <time>2016-03-21T18:22:03Z</time>
      </trkpt>
      <trkpt lat="37.737148711457849" lon="-6.358176218345761">
        <ele>409.66000000000003</ele>
        <time>2016-03-21T18:22:04Z</time>
      </trkpt>
      <trkpt lat="37.739453567191958" lon="-6.359929041936994">
        <ele>410.62</ele>
        <time>2016-03-21T18:22:05Z</time>
      </trkpt>
      <trkpt lat="37.741874763742089" lon="-6.362072043120861">
        <ele>411.57999999999998</ele>
        <time>2016-03-21T18:22:06Z</time>
      </trkpt>
      <trkpt lat="37.745260549709201" lon="-6.365361688658595">
        <ele>420.70999999999998</ele>
        <time>2016-03-21T18:22:07Z</time>
      </trkpt>
      <trkpt lat="37.74676158092916" lon="-6.36671201325953">
        <ele>444.75</ele>
        <time>2016-03-21T18:22:08Z</time>
      </trkpt>
      <trkpt lat="37.746991328895092" lon="-6.366836149245501">
        <ele>447.63</ele>
        <time>2016-03-21T18:22:09Z</time>
      </trkpt>
      <trkpt lat="37.747232057154179" lon="-6.366928601637483">
        <ele>449.06999999999999</ele>
        <time>2016-03-21T18:22:10Z</time>
      </trkpt>
      <trkpt lat="37.7474778983742" lon="-6.36699641123414">
        <ele>450.02999999999997</ele>
        <time>2016-03-21T18:22:15Z</time>
      </trkpt>
      <trkpt lat="37.747726924717426" lon="-6.367053994908929">
        <ele>451.48000000000002</ele>
        <time>2016-03-21T18:22:16Z</time>
      </trkpt>
      <trkpt lat="37.749079177156091" lon="-6.367632430046797">
        <ele>452.92000000000002</ele>
        <time>2016-03-21T18:22:17Z</time>
      </trkpt>
      <trkpt lat="37.749270452186465" lon="-6.367804510518909">
        <ele>454.36000000000001</ele>
        <time>2016-03-21T18:22:18Z</time>
      </trkpt>
      <trkpt lat="37.749448651447892" lon="-6.367999976500869">
        <ele>455.80000000000001</ele>
        <time>2016-03-21T18:22:19Z</time>
      </trkpt>
      <trkpt lat="37.749618133530021" lon="-6.368213044479489">
        <ele>464.93000000000001</ele>
        <time>2016-03-21T18:22:20Z</time>
      </trkpt>
      <trkpt lat="37.749781496822834" lon="-6.368439272046089">
        <ele>466.38</ele>
        <time>2016-03-21T18:22:21Z</time>
      </trkpt>
      <trkpt lat="37.751437341794372" lon="-6.370383370667696">
        <ele>468.30000000000001</ele>
        <time>2016-03-21T18:22:22Z</time>
      </trkpt>
      <trkpt lat="37.754971655085683" lon="-6.373188374564052">
        <ele>470.22000000000003</ele>
        <time>2016-03-21T18:22:32Z</time>
      </trkpt>
      <trkpt lat="37.755393516272306" lon="-6.37352348305285">
        <ele>471.66000000000003</ele>
        <time>2016-03-21T18:22:40Z</time>
      </trkpt>
      <trkpt lat="37.755581270903349" lon="-6.37372188270092">
        <ele>473.58999999999997</ele>
        <time>2016-03-21T18:22:55Z</time>
      </trkpt>
      <trkpt lat="37.755749579519033" lon="-6.373943500220776">
        <ele>475.50999999999999</ele>
        <time>2016-03-21T18:23:08Z</time>
      </trkpt>
      <trkpt lat="37.755895256996155" lon="-6.37418364174664">
        <ele>481.75999999999999</ele>
        <time>2016-03-21T18:23:09Z</time>
      </trkpt>
      <trkpt lat="37.756022242829204" lon="-6.374440882354975">
        <ele>483.19999999999999</ele>
        <time>2016-03-21T18:23:10Z</time>
      </trkpt>
      <trkpt lat="37.756131291389465" lon="-6.374712875112891">
        <ele>484.63999999999999</ele>
        <time>2016-03-21T18:23:11Z</time>
      </trkpt>
      <trkpt lat="37.756226258352399" lon="-6.374995512887836">
        <ele>485.60000000000002</ele>
        <time>2016-03-21T18:23:12Z</time>
      </trkpt>
      <trkpt lat="37.756824642419815" lon="-6.376676252111793">
        <ele>486.56</ele>
        <time>2016-03-21T18:23:13Z</time>
      </trkpt>
      <trkpt lat="37.756971661001444" lon="-6.376919914036989">
        <ele>488.00999999999999</ele>
        <time>2016-03-21T18:23:14Z</time>
      </trkpt>
      <trkpt lat="37.757139634341002" lon="-6.377141615375876">
        <ele>488.97000000000003</ele>
        <time>2016-03-21T18:23:15Z</time>
      </trkpt>
      <trkpt lat="37.757327053695917" lon="-6.377336075529456">
        <ele>489.93000000000001</ele>
        <time>2016-03-21T18:23:16Z</time>
      </trkpt>
      <trkpt lat="37.757529309019446" lon="-6.377506144344807">
        <ele>491.37</ele>
        <time>2016-03-21T18:23:20Z</time>
      </trkpt>
      <trkpt lat="37.757743299007416" lon="-6.377655426040292">
        <ele>492.32999999999998</ele>
        <time>2016-03-21T18:23:21Z</time>
      </trkpt>
      <trkpt lat="37.757962485775352" lon="-6.377794146537781">
        <ele>493.29000000000002</ele>
        <time>2016-03-21T18:23:22Z</time>
      </trkpt>
      <trkpt lat="37.758826576173306" lon="-6.378369145095348">
        <ele>494.74000000000001</ele>
        <time>2016-03-21T18:23:23Z</time>
      </trkpt>
      <trkpt lat="37.759016929194331" lon="-6.378555139526725">
        <ele>497.62</ele>
        <time>2016-03-21T18:23:24Z</time>
      </trkpt>
      <trkpt lat="37.759191440418363" lon="-6.378762423992157">
        <ele>499.06</ele>
        <time>2016-03-21T18:23:25Z</time>
      </trkpt>
      <trkpt lat="37.75934717617929" lon="-6.378991333767772">
        <ele>500.01999999999998</ele>
        <time>2016-03-21T18:23:26Z</time>
      </trkpt>
      <trkpt lat="37.759484220296144" lon="-6.379240108653903">
        <ele>500.98000000000002</ele>
        <time>2016-03-21T18:23:27Z</time>
      </trkpt>
      <trkpt lat="37.759601902216673" lon="-6.379505479708314">
        <ele>502.43000000000001</ele>
        <time>2016-03-21T18:23:28Z</time>
      </trkpt>
      <trkpt lat="37.759696114808321" lon="-6.379788285121322">
        <ele>503.87</ele>
        <time>2016-03-21T18:23:29Z</time>
      </trkpt>
      <trkpt lat="37.759765181690454" lon="-6.38008433394134">
        <ele>505.31</ele>
        <time>2016-03-21T18:23:31Z</time>
      </trkpt>
      <trkpt lat="37.759805917739868" lon="-6.380389854311943">
        <ele>506.26999999999998</ele>
        <time>2016-03-21T18:23:32Z</time>
      </trkpt>
      <trkpt lat="37.759818909689784" lon="-6.380701242014766">
        <ele>507.23000000000002</ele>
        <time>2016-03-21T18:23:33Z</time>
      </trkpt>
      <trkpt lat="37.759806588292122" lon="-6.381015311926603">
        <ele>507.70999999999998</ele>
        <time>2016-03-21T18:23:34Z</time>
      </trkpt>
      <trkpt lat="37.759780352935195" lon="-6.381329046562314">
        <ele>508.19</ele>
        <time>2016-03-21T18:23:35Z</time>
      </trkpt>
      <trkpt lat="37.759724529460073" lon="-6.382268993183971">
        <ele>508.67000000000002</ele>
        <time>2016-03-21T18:23:36Z</time>
      </trkpt>
      <trkpt lat="37.759748669341207" lon="-6.382577111944556">
        <ele>508.19</ele>
        <time>2016-03-21T18:23:48Z</time>
      </trkpt>
      <trkpt lat="37.75980063714087" lon="-6.382881375029683">
        <ele>507.70999999999998</ele>
        <time>2016-03-21T18:23:57Z</time>
      </trkpt>
      <trkpt lat="37.759876828640699" lon="-6.383178178220987">
        <ele>507.23000000000002</ele>
        <time>2016-03-21T18:24:02Z</time>
      </trkpt>
      <trkpt lat="37.759976824745536" lon="-6.383465845137835">
        <ele>506.26999999999998</ele>
        <time>2016-03-21T18:24:09Z</time>
      </trkpt>
      <trkpt lat="37.76010355912149" lon="-6.383740352466703">
        <ele>505.31</ele>
        <time>2016-03-21T18:24:16Z</time>
      </trkpt>
      <trkpt lat="37.76025602594018" lon="-6.383996922522783">
        <ele>498.10000000000002</ele>
        <time>2016-03-21T18:24:20Z</time>
      </trkpt>
      <trkpt lat="37.760431542992592" lon="-6.384232537820935">
        <ele>496.66000000000003</ele>
        <time>2016-03-21T18:24:21Z</time>
      </trkpt>
      <trkpt lat="37.760627428069711" lon="-6.38444091193378">
        <ele>495.22000000000003</ele>
        <time>2016-03-21T18:24:22Z</time>
      </trkpt>
      <trkpt lat="37.760838652029634" lon="-6.384617602452636">
        <ele>493.76999999999998</ele>
        <time>2016-03-21T18:24:23Z</time>
      </trkpt>
      <trkpt lat="37.761061359196901" lon="-6.384764034301043">
        <ele>492.32999999999998</ele>
        <time>2016-03-21T18:24:24Z</time>
      </trkpt>
      <trkpt lat="37.761293035000563" lon="-6.384877441450954">
        <ele>490.41000000000003</ele>
        <time>2016-03-21T18:24:25Z</time>
      </trkpt>
      <trkpt lat="37.761529069393873" lon="-6.384956985712051">
        <ele>475.02999999999997</ele>
        <time>2016-03-21T18:24:26Z</time>
      </trkpt>
      <trkpt lat="37.761773150414228" lon="-6.385003421455622">
        <ele>474.06999999999999</ele>
        <time>2016-03-21T18:24:27Z</time>
      </trkpt>
      <trkpt lat="37.762025529518723" lon="-6.385023286566138">
        <ele>472.63</ele>
        <time>2016-03-21T18:24:28Z</time>
      </trkpt>
      <trkpt lat="37.762285284698009" lon="-6.385016497224569">
        <ele>471.18000000000001</ele>
        <time>2016-03-21T18:24:29Z</time>
      </trkpt>
      <trkpt lat="37.762550907209516" lon="-6.384997302666307">
        <ele>469.74000000000001</ele>
        <time>2016-03-21T18:24:30Z</time>
      </trkpt>
      <trkpt lat="37.76359286159277" lon="-6.384996799752116">
        <ele>468.30000000000001</ele>
        <time>2016-03-21T18:24:31Z</time>
      </trkpt>
      <trkpt lat="37.763832081109285" lon="-6.385064609348774">
        <ele>466.86000000000001</ele>
        <time>2016-03-21T18:24:34Z</time>
      </trkpt>
      <trkpt lat="37.764062751084566" lon="-6.385166868567467">
        <ele>465.42000000000002</ele>
        <time>2016-03-21T18:24:35Z</time>
      </trkpt>
      <trkpt lat="37.764283865690231" lon="-6.385300392284989">
        <ele>451.95999999999998</ele>
        <time>2016-03-21T18:24:36Z</time>
      </trkpt>
      <trkpt lat="37.764492239803076" lon="-6.385456882417202">
        <ele>450.51999999999998</ele>
        <time>2016-03-21T18:24:37Z</time>
      </trkpt>
      <trkpt lat="37.764692818745971" lon="-6.385633405297995">
        <ele>449.06999999999999</ele>
        <time>2016-03-21T18:24:38Z</time>
      </trkpt>
      <trkpt lat="37.766606826335192" lon="-6.387682110071182">
        <ele>447.14999999999998</ele>
        <time>2016-03-21T18:24:39Z</time>
      </trkpt>
      <trkpt lat="37.766737416386604" lon="-6.387939769774675">
        <ele>445.70999999999998</ele>
        <time>2016-03-21T18:24:40Z</time>
      </trkpt>
      <trkpt lat="37.766846213489771" lon="-6.388218216598034">
        <ele>444.26999999999998</ele>
        <time>2016-03-21T18:24:41Z</time>
      </trkpt>
      <trkpt lat="37.766930786892772" lon="-6.388515774160624">
        <ele>442.81999999999999</ele>
        <time>2016-03-21T18:24:42Z</time>
      </trkpt>
      <trkpt lat="37.766990968957543" lon="-6.388825820758939">
        <ele>441.38</ele>
        <time>2016-03-21T18:24:43Z</time>
      </trkpt>
      <trkpt lat="37.767023574560881" lon="-6.389147182926536">
        <ele>439.94</ele>
        <time>2016-03-21T18:24:44Z</time>
      </trkpt>
      <trkpt lat="37.767029190436006" lon="-6.389474747702479">
        <ele>438.01999999999998</ele>
        <time>2016-03-21T18:24:45Z</time>
      </trkpt>
      <trkpt lat="37.767022317275405" lon="-6.389806587249041">
        <ele>436.57999999999998</ele>
        <time>2016-03-21T18:24:46Z</time>
      </trkpt>
      <trkpt lat="37.766988119110465" lon="-6.392870172858238">
        <ele>424.07999999999998</ele>
        <time>2016-03-21T18:24:58Z</time>
      </trkpt>
      <trkpt lat="37.767040589824319" lon="-6.393204275518656">
        <ele>410.62</ele>
        <time>2016-03-21T18:25:06Z</time>
      </trkpt>
      <trkpt lat="37.767119714990258" lon="-6.393529158085585">
        <ele>408.69999999999999</ele>
        <time>2016-03-21T18:25:13Z</time>
      </trkpt>
      <trkpt lat="37.767225494608283" lon="-6.393841383978725">
        <ele>406.76999999999998</ele>
        <time>2016-03-21T18:25:20Z</time>
      </trkpt>
      <trkpt lat="37.767358012497425" lon="-6.394136426970363">
        <ele>404.85000000000002</ele>
        <time>2016-03-21T18:25:30Z</time>
      </trkpt>
      <trkpt lat="37.767516346648335" lon="-6.394412191584706">
        <ele>403.41000000000003</ele>
        <time>2016-03-21T18:25:31Z</time>
      </trkpt>
      <trkpt lat="37.767697563394904" lon="-6.394666247069836">
        <ele>385.14999999999998</ele>
        <time>2016-03-21T18:25:32Z</time>
      </trkpt>
      <trkpt lat="37.767897974699736" lon="-6.394899431616068">
        <ele>380.33999999999997</ele>
        <time>2016-03-21T18:25:33Z</time>
      </trkpt>
      <trkpt lat="37.768115485087037" lon="-6.395113002508879">
        <ele>379.38</ele>
        <time>2016-03-21T18:25:34Z</time>
      </trkpt>
      <trkpt lat="37.768348418176174" lon="-6.395304864272475">
        <ele>376.97000000000003</ele>
        <time>2016-03-21T18:25:35Z</time>
      </trkpt>
      <trkpt lat="37.768592666834593" lon="-6.395484991371632">
        <ele>373.13</ele>
        <time>2016-03-21T18:25:36Z</time>
      </trkpt>
      <trkpt lat="37.770444396883249" lon="-6.39711644500494">
        <ele>371.69</ele>
        <time>2016-03-21T18:25:37Z</time>
      </trkpt>
      <trkpt lat="37.771902261301875" lon="-6.399134388193488">
        <ele>370.24000000000001</ele>
        <time>2016-03-21T18:25:38Z</time>
      </trkpt>
      <trkpt lat="37.772116083651781" lon="-6.399314012378454">
        <ele>369.27999999999997</ele>
        <time>2016-03-21T18:25:39Z</time>
      </trkpt>
      <trkpt lat="37.772344909608364" lon="-6.399466479197145">
        <ele>367.83999999999997</ele>
        <time>2016-03-21T18:25:40Z</time>
      </trkpt>
      <trkpt lat="37.772587984800339" lon="-6.39959329739213">
        <ele>364.95999999999998</ele>
        <time>2016-03-21T18:25:41Z</time>
      </trkpt>
      <trkpt lat="37.772839358076453" lon="-6.399699999019504">
        <ele>364.48000000000002</ele>
        <time>2016-03-21T18:25:42Z</time>
      </trkpt>
      <trkpt lat="37.776009980589151" lon="-6.401055688038468">
        <ele>364.48000000000002</ele>
        <time>2016-03-21T18:25:43Z</time>
      </trkpt>
      <trkpt lat="37.778119370341301" lon="-6.402642130851746">
        <ele>364</ele>
        <time>2016-03-21T18:25:44Z</time>
      </trkpt>
      <trkpt lat="37.779408926144242" lon="-6.402962235733867">
        <ele>363.51999999999998</ele>
        <time>2016-03-21T18:25:45Z</time>
      </trkpt>
      <trkpt lat="37.781376074999571" lon="-6.402647327631712">
        <ele>363.51999999999998</ele>
        <time>2016-03-21T18:25:51Z</time>
      </trkpt>
      <trkpt lat="37.783169383183122" lon="-6.402426296845079">
        <ele>363.04000000000002</ele>
        <time>2016-03-21T18:25:52Z</time>
      </trkpt>
      <trkpt lat="37.783398879691958" lon="-6.402475666254759">
        <ele>363.04000000000002</ele>
        <time>2016-03-21T18:25:53Z</time>
      </trkpt>
      <trkpt lat="37.783623095601797" lon="-6.402556300163269">
        <ele>362.55000000000001</ele>
        <time>2016-03-21T18:25:54Z</time>
      </trkpt>
      <trkpt lat="37.783841695636511" lon="-6.402662834152579">
        <ele>363.51999999999998</ele>
        <time>2016-03-21T18:25:55Z</time>
      </trkpt>
      <trkpt lat="37.784054512158036" lon="-6.402783617377281">
        <ele>363.51999999999998</ele>
        <time>2016-03-21T18:26:05Z</time>
      </trkpt>
      <trkpt lat="37.78471140190959" lon="-6.403097435832024">
        <ele>364.48000000000002</ele>
        <time>2016-03-21T18:26:16Z</time>
      </trkpt>
      <trkpt lat="37.784945592284203" lon="-6.403155941516161">
        <ele>364.95999999999998</ele>
        <time>2016-03-21T18:26:34Z</time>
      </trkpt>
      <trkpt lat="37.785187745466828" lon="-6.403181422501802">
        <ele>365.44</ele>
        <time>2016-03-21T18:26:42Z</time>
      </trkpt>
      <trkpt lat="37.78543459251523" lon="-6.403172370046377">
        <ele>366.39999999999998</ele>
        <time>2016-03-21T18:26:52Z</time>
      </trkpt>
      <trkpt lat="37.785679679363966" lon="-6.403127778321505">
        <ele>367.36000000000001</ele>
        <time>2016-03-21T18:27:03Z</time>
      </trkpt>
      <trkpt lat="37.785922335460782" lon="-6.403046976774931">
        <ele>368.31999999999999</ele>
        <time>2016-03-21T18:27:14Z</time>
      </trkpt>
      <trkpt lat="37.786160297691822" lon="-6.402931809425354">
        <ele>376.49000000000001</ele>
        <time>2016-03-21T18:27:23Z</time>
      </trkpt>
      <trkpt lat="37.786392727866769" lon="-6.402792083099484">
        <ele>377.94</ele>
        <time>2016-03-21T18:27:32Z</time>
      </trkpt>
      <trkpt lat="37.78662147000432" lon="-6.402643723413348">
        <ele>379.38</ele>
        <time>2016-03-21T18:27:45Z</time>
      </trkpt>
      <trkpt lat="37.78730015270412" lon="-6.402290007099509">
        <ele>380.81999999999999</ele>
        <time>2016-03-21T18:27:54Z</time>
      </trkpt>
      <trkpt lat="37.787538869306445" lon="-6.402238709852099">
        <ele>381.77999999999997</ele>
        <time>2016-03-21T18:28:00Z</time>
      </trkpt>
      <trkpt lat="37.787784123793244" lon="-6.402223706245422">
        <ele>382.25999999999999</ele>
        <time>2016-03-21T18:28:09Z</time>
      </trkpt>
      <trkpt lat="37.788026612251997" lon="-6.402238290756941">
        <ele>382.74000000000001</ele>
        <time>2016-03-21T18:28:23Z</time>
      </trkpt>
      <trkpt lat="37.788269352167845" lon="-6.402288665995002">
        <ele>382.74000000000001</ele>
        <time>2016-03-21T18:28:38Z</time>
      </trkpt>
      <trkpt lat="37.788504548370838" lon="-6.402362678200007">
        <ele>382.74000000000001</ele>
        <time>2016-03-21T18:28:45Z</time>
      </trkpt>
      <trkpt lat="37.788736307993531" lon="-6.402461417019367">
        <ele>382.74000000000001</ele>
        <time>2016-03-21T18:28:48Z</time>
      </trkpt>
      <trkpt lat="37.788964547216892" lon="-6.402572225779295">
        <ele>382.25999999999999</ele>
        <time>2016-03-21T18:28:49Z</time>
      </trkpt>
      <trkpt lat="37.79005067422986" lon="-6.403198018670082">
        <ele>382.25999999999999</ele>
        <time>2016-03-21T18:28:50Z</time>
      </trkpt>
      <trkpt lat="37.790233986452222" lon="-6.403367919847369">
        <ele>382.25999999999999</ele>
        <time>2016-03-21T18:28:51Z</time>
      </trkpt>
      <trkpt lat="37.790402295067906" lon="-6.403561038896442">
        <ele>381.77999999999997</ele>
        <time>2016-03-21T18:28:52Z</time>
      </trkpt>
      <trkpt lat="37.790557192638516" lon="-6.40377645380795">
        <ele>381.30000000000001</ele>
        <time>2016-03-21T18:28:53Z</time>
      </trkpt>
      <trkpt lat="37.790697086602449" lon="-6.404010728001595">
        <ele>380.81999999999999</ele>
        <time>2016-03-21T18:28:54Z</time>
      </trkpt>
      <trkpt lat="37.790819210931659" lon="-6.404261095449328">
        <ele>379.86000000000001</ele>
        <time>2016-03-21T18:28:55Z</time>
      </trkpt>
      <trkpt lat="37.790921637788415" lon="-6.404532417654991">
        <ele>378.89999999999998</ele>
        <time>2016-03-21T18:28:56Z</time>
      </trkpt>
      <trkpt lat="37.791001936420798" lon="-6.404823185876012">
        <ele>377.94</ele>
        <time>2016-03-21T18:29:05Z</time>
      </trkpt>
      <trkpt lat="37.791060945019126" lon="-6.40512652695179">
        <ele>377.44999999999999</ele>
        <time>2016-03-21T18:29:14Z</time>
      </trkpt>
      <trkpt lat="37.791107296943665" lon="-6.405434561893344">
        <ele>376.97000000000003</ele>
        <time>2016-03-21T18:29:15Z</time>
      </trkpt>
      <trkpt lat="37.791276443749666" lon="-6.406336119398475">
        <ele>376.97000000000003</ele>
        <time>2016-03-21T18:29:16Z</time>
      </trkpt>
      <trkpt lat="37.791370237246156" lon="-6.40660953707993">
        <ele>379.86000000000001</ele>
        <time>2016-03-21T18:29:17Z</time>
      </trkpt>
      <trkpt lat="37.791489763185382" lon="-6.406866610050201">
        <ele>380.81999999999999</ele>
        <time>2016-03-21T18:29:18Z</time>
      </trkpt>
      <trkpt lat="37.791632926091552" lon="-6.407106835395098">
        <ele>381.77999999999997</ele>
        <time>2016-03-21T18:29:19Z</time>
      </trkpt>
      <trkpt lat="37.791795283555984" lon="-6.407327614724636">
        <ele>382.74000000000001</ele>
        <time>2016-03-21T18:29:20Z</time>
      </trkpt>
      <trkpt lat="37.791973566636443" lon="-6.407527523115277">
        <ele>383.69999999999999</ele>
        <time>2016-03-21T18:29:21Z</time>
      </trkpt>
      <trkpt lat="37.792167523875833" lon="-6.407707985490561">
        <ele>384.66000000000003</ele>
        <time>2016-03-21T18:29:22Z</time>
      </trkpt>
      <trkpt lat="37.792379166930914" lon="-6.407863888889551">
        <ele>385.63</ele>
        <time>2016-03-21T18:29:27Z</time>
      </trkpt>
      <trkpt lat="37.792607825249434" lon="-6.407989701256156">
        <ele>386.11000000000001</ele>
        <time>2016-03-21T18:29:28Z</time>
      </trkpt>
      <trkpt lat="37.792848888784647" lon="-6.40808617696166">
        <ele>388.99000000000001</ele>
        <time>2016-03-21T18:29:29Z</time>
      </trkpt>
      <trkpt lat="37.793095400556922" lon="-6.408158848062158">
        <ele>391.38999999999999</ele>
        <time>2016-03-21T18:29:30Z</time>
      </trkpt>
      <trkpt lat="37.793348450213671" lon="-6.408216180279851">
        <ele>390.91000000000003</ele>
        <time>2016-03-21T18:29:31Z</time>
      </trkpt>
      <trkpt lat="37.794587714597583" lon="-6.408571992069483">
        <ele>411.57999999999998</ele>
        <time>2016-03-21T18:29:32Z</time>
      </trkpt>
      <trkpt lat="37.79479525052011" lon="-6.408696798607707">
        <ele>413.5</ele>
        <time>2016-03-21T18:29:33Z</time>
      </trkpt>
      <trkpt lat="37.794982250779867" lon="-6.408844823017716">
        <ele>415.43000000000001</ele>
        <time>2016-03-21T18:29:34Z</time>
      </trkpt>
      <trkpt lat="37.795151732861996" lon="-6.409012461081147">
        <ele>416.87</ele>
        <time>2016-03-21T18:29:35Z</time>
      </trkpt>
      <trkpt lat="37.795304786413908" lon="-6.409200467169285">
        <ele>418.79000000000002</ele>
        <time>2016-03-21T18:29:45Z</time>
      </trkpt>
      <trkpt lat="37.795446943491697" lon="-6.409403895959258">
        <ele>420.70999999999998</ele>
        <time>2016-03-21T18:30:00Z</time>
      </trkpt>
      <trkpt lat="37.795582227408886" lon="-6.409618221223354">
        <ele>422.63999999999999</ele>
        <time>2016-03-21T18:30:06Z</time>
      </trkpt>
      <trkpt lat="37.795710470527411" lon="-6.409846460446715">
        <ele>424.07999999999998</ele>
        <time>2016-03-21T18:30:08Z</time>
      </trkpt>
      <trkpt lat="37.797067081555724" lon="-6.412457758560777">
        <ele>425.04000000000002</ele>
        <time>2016-03-21T18:30:09Z</time>
      </trkpt>
      <trkpt lat="37.798029910773039" lon="-6.414848528802395">
        <ele>429.37</ele>
        <time>2016-03-21T18:30:10Z</time>
      </trkpt>
      <trkpt lat="37.799871498718858" lon="-6.419687988236547">
        <ele>429.85000000000002</ele>
        <time>2016-03-21T18:30:24Z</time>
      </trkpt>
      <trkpt lat="37.802043752744794" lon="-6.423448780551553">
        <ele>430.32999999999998</ele>
        <time>2016-03-21T18:30:33Z</time>
      </trkpt>
      <trkpt lat="37.80223217792809" lon="-6.423684814944863">
        <ele>430.81</ele>
        <time>2016-03-21T18:30:48Z</time>
      </trkpt>
      <trkpt lat="37.802438791841269" lon="-6.423893189057708">
        <ele>431.76999999999998</ele>
        <time>2016-03-21T18:31:01Z</time>
      </trkpt>
      <trkpt lat="37.802661331370473" lon="-6.424069292843342">
        <ele>432.73000000000002</ele>
        <time>2016-03-21T18:31:18Z</time>
      </trkpt>
      <trkpt lat="37.802896276116371" lon="-6.42420700751245">
        <ele>434.17000000000002</ele>
        <time>2016-03-21T18:31:26Z</time>
      </trkpt>
      <trkpt lat="37.803139686584473" lon="-6.424307422712445">
        <ele>435.13</ele>
        <time>2016-03-21T18:31:36Z</time>
      </trkpt>
      <trkpt lat="37.803391311317682" lon="-6.424375819042325">
        <ele>436.57999999999998</ele>
        <time>2016-03-21T18:31:37Z</time>
      </trkpt>
      <trkpt lat="37.803648384287953" lon="-6.424413872882724">
        <ele>438.01999999999998</ele>
        <time>2016-03-21T18:31:38Z</time>
      </trkpt>
      <trkpt lat="37.803909312933683" lon="-6.424437928944826">
        <ele>440.42000000000002</ele>
        <time>2016-03-21T18:31:39Z</time>
      </trkpt>
      <trkpt lat="37.804922685027122" lon="-6.424644123762846">
        <ele>441.86000000000001</ele>
        <time>2016-03-21T18:31:40Z</time>
      </trkpt>
      <trkpt lat="37.805149666965008" lon="-6.424764236435294">
        <ele>442.81999999999999</ele>
        <time>2016-03-21T18:31:41Z</time>
      </trkpt>
      <trkpt lat="37.80536332167685" lon="-6.424919972196221">
        <ele>444.26999999999998</ele>
        <time>2016-03-21T18:31:42Z</time>
      </trkpt>
      <trkpt lat="37.80556264333427" lon="-6.425111498683691">
        <ele>445.70999999999998</ele>
        <time>2016-03-21T18:31:43Z</time>
      </trkpt>
      <trkpt lat="37.80574344098568" lon="-6.425331775099039">
        <ele>446.67000000000002</ele>
        <time>2016-03-21T18:31:52Z</time>
      </trkpt>
      <trkpt lat="37.805902194231749" lon="-6.425577364861965">
        <ele>458.20999999999998</ele>
        <time>2016-03-21T18:32:04Z</time>
      </trkpt>
      <trkpt lat="37.806039489805698" lon="-6.425843238830566">
        <ele>454.36000000000001</ele>
        <time>2016-03-21T18:32:12Z</time>
      </trkpt>
      <trkpt lat="37.806153567507863" lon="-6.426127050071955">
        <ele>458.69</ele>
        <time>2016-03-21T18:32:20Z</time>
      </trkpt>
      <trkpt lat="37.806250546127558" lon="-6.426422847434878">
        <ele>463.97000000000003</ele>
        <time>2016-03-21T18:32:33Z</time>
      </trkpt>
      <trkpt lat="37.806341238319874" lon="-6.426721243187785">
        <ele>475.99000000000001</ele>
        <time>2016-03-21T18:32:34Z</time>
      </trkpt>
      <trkpt lat="37.806559838354588" lon="-6.427285596728325">
        <ele>481.75999999999999</ele>
        <time>2016-03-21T18:32:35Z</time>
      </trkpt>
      <trkpt lat="37.806701743975282" lon="-6.427536718547344">
        <ele>483.68000000000001</ele>
        <time>2016-03-21T18:32:43Z</time>
      </trkpt>
      <trkpt lat="37.806866029277444" lon="-6.427765125408769">
        <ele>485.12</ele>
        <time>2016-03-21T18:32:58Z</time>
      </trkpt>
      <trkpt lat="37.807051269337535" lon="-6.427971906960011">
        <ele>486.56</ele>
        <time>2016-03-21T18:33:16Z</time>
      </trkpt>
      <trkpt lat="37.807251177728176" lon="-6.428157649934292">
        <ele>488.00999999999999</ele>
        <time>2016-03-21T18:33:24Z</time>
      </trkpt>
      <trkpt lat="37.807465167716146" lon="-6.42832855693996">
        <ele>489.44999999999999</ele>
        <time>2016-03-21T18:33:25Z</time>
      </trkpt>
      <trkpt lat="37.810080908238888" lon="-6.430500894784927">
        <ele>490.41000000000003</ele>
        <time>2016-03-21T18:33:26Z</time>
      </trkpt>
      <trkpt lat="37.812205720692873" lon="-6.432189680635929">
        <ele>490.88999999999999</ele>
        <time>2016-03-21T18:33:27Z</time>
      </trkpt>
      <trkpt lat="37.813233928754926" lon="-6.433291062712669">
        <ele>491.37</ele>
        <time>2016-03-21T18:33:28Z</time>
      </trkpt>
      <trkpt lat="37.814538069069386" lon="-6.434953361749649">
        <ele>491.37</ele>
        <time>2016-03-21T18:33:29Z</time>
      </trkpt>
      <trkpt lat="37.816041447222233" lon="-6.436287593096495">
        <ele>491.37</ele>
        <time>2016-03-21T18:33:30Z</time>
      </trkpt>
      <trkpt lat="37.81683144159615" lon="-6.437144223600626">
        <ele>490.88999999999999</ele>
        <time>2016-03-21T18:33:31Z</time>
      </trkpt>
      <trkpt lat="37.817051466554403" lon="-6.437283027917147">
        <ele>491.85000000000002</ele>
        <time>2016-03-21T18:33:32Z</time>
      </trkpt>
      <trkpt lat="37.817274089902639" lon="-6.437380760908127">
        <ele>492.81</ele>
        <time>2016-03-21T18:33:33Z</time>
      </trkpt>
      <trkpt lat="37.817498305812478" lon="-6.437446642667055">
        <ele>493.29000000000002</ele>
        <time>2016-03-21T18:33:34Z</time>
      </trkpt>
      <trkpt lat="37.817724533379078" lon="-6.437481259927154">
        <ele>494.25999999999999</ele>
        <time>2016-03-21T18:33:35Z</time>
      </trkpt>
      <trkpt lat="37.817953694611788" lon="-6.437484612688422">
        <ele>495.22000000000003</ele>
        <time>2016-03-21T18:33:41Z</time>
      </trkpt>
      <trkpt lat="37.818184532225132" lon="-6.437455108389258">
        <ele>495.69999999999999</ele>
        <time>2016-03-21T18:33:42Z</time>
      </trkpt>
      <trkpt lat="37.818413274362683" lon="-6.437386125326157">
        <ele>496.66000000000003</ele>
        <time>2016-03-21T18:33:43Z</time>
      </trkpt>
      <trkpt lat="37.818635310977697" lon="-6.437279926612973">
        <ele>497.13999999999999</ele>
        <time>2016-03-21T18:33:46Z</time>
      </trkpt>
      <trkpt lat="37.81884946860373" lon="-6.437141709029675">
        <ele>498.10000000000002</ele>
        <time>2016-03-21T18:33:47Z</time>
      </trkpt>
      <trkpt lat="37.819057004526258" lon="-6.436974322423339">
        <ele>498.57999999999998</ele>
        <time>2016-03-21T18:33:48Z</time>
      </trkpt>
      <trkpt lat="37.819261020049453" lon="-6.436789752915502">
        <ele>499.54000000000002</ele>
        <time>2016-03-21T18:33:49Z</time>
      </trkpt>
      <trkpt lat="37.819867786020041" lon="-6.436334950849414">
        <ele>500.5</ele>
        <time>2016-03-21T18:33:50Z</time>
      </trkpt>
      <trkpt lat="37.820069957524538" lon="-6.436232021078467">
        <ele>501.45999999999998</ele>
        <time>2016-03-21T18:33:51Z</time>
      </trkpt>
      <trkpt lat="37.820282690227032" lon="-6.436163457110524">
        <ele>513</ele>
        <time>2016-03-21T18:33:52Z</time>
      </trkpt>
      <trkpt lat="37.820508917793632" lon="-6.436132863163948">
        <ele>523.09000000000003</ele>
        <time>2016-03-21T18:33:53Z</time>
      </trkpt>
      <trkpt lat="37.820737827569246" lon="-6.436132695525885">
        <ele>536.07000000000005</ele>
        <time>2016-03-21T18:34:02Z</time>
      </trkpt>
      <trkpt lat="37.820960199460387" lon="-6.436168486252427">
        <ele>548.57000000000005</ele>
        <time>2016-03-21T18:34:11Z</time>
      </trkpt>
      <trkpt lat="37.82118072733283" lon="-6.436240151524544">
        <ele>562.99000000000001</ele>
        <time>2016-03-21T18:34:15Z</time>
      </trkpt>
      <trkpt lat="37.821399327367544" lon="-6.436343919485807">
        <ele>564.42999999999995</ele>
        <time>2016-03-21T18:34:16Z</time>
      </trkpt>
      <trkpt lat="37.821610467508435" lon="-6.436472497880459">
        <ele>565.87</ele>
        <time>2016-03-21T18:34:17Z</time>
      </trkpt>
      <trkpt lat="37.821809370070696" lon="-6.436629071831703">
        <ele>567.32000000000005</ele>
        <time>2016-03-21T18:34:18Z</time>
      </trkpt>
      <trkpt lat="37.821996873244643" lon="-6.43681213259697">
        <ele>568.75999999999999</ele>
        <time>2016-03-21T18:34:19Z</time>
      </trkpt>
      <trkpt lat="37.822173312306404" lon="-6.437016483396292">
        <ele>569.72000000000003</ele>
        <time>2016-03-21T18:34:20Z</time>
      </trkpt>
      <trkpt lat="37.822339190170169" lon="-6.437236424535513">
        <ele>570.67999999999995</ele>
        <time>2016-03-21T18:34:21Z</time>
      </trkpt>
      <trkpt lat="37.824488310143352" lon="-6.4399638120085">
        <ele>571.63999999999999</ele>
        <time>2016-03-21T18:34:22Z</time>
      </trkpt>
      <trkpt lat="37.826354037970304" lon="-6.441300557926297">
        <ele>572.60000000000002</ele>
        <time>2016-03-21T18:34:23Z</time>
      </trkpt>
      <trkpt lat="37.827968057245016" lon="-6.442143358290196">
        <ele>573.55999999999995</ele>
        <time>2016-03-21T18:34:31Z</time>
      </trkpt>
      <trkpt lat="37.829299522563815" lon="-6.443089339882135">
        <ele>574.52999999999997</ele>
        <time>2016-03-21T18:34:32Z</time>
      </trkpt>
      <trkpt lat="37.830986045300961" lon="-6.444738395512104">
        <ele>575.97000000000003</ele>
        <time>2016-03-21T18:34:33Z</time>
      </trkpt>
      <trkpt lat="37.831096770241857" lon="-6.444914415478706">
        <ele>576.92999999999995</ele>
        <time>2016-03-21T18:34:43Z</time>
      </trkpt>
      <trkpt lat="37.831180756911635" lon="-6.445103343576193">
        <ele>577.88999999999999</ele>
        <time>2016-03-21T18:34:44Z</time>
      </trkpt>
      <trkpt lat="37.831243621185422" lon="-6.44530400633812">
        <ele>579.33000000000004</ele>
        <time>2016-03-21T18:34:45Z</time>
      </trkpt>
      <trkpt lat="37.831282680854201" lon="-6.44551606848836">
        <ele>580.28999999999996</ele>
        <time>2016-03-21T18:34:46Z</time>
      </trkpt>
      <trkpt lat="37.831305144354701" lon="-6.445727292448282">
        <ele>585.10000000000002</ele>
        <time>2016-03-21T18:34:47Z</time>
      </trkpt>
      <trkpt lat="37.831328026950359" lon="-6.445922506973147">
        <ele>585.58000000000004</ele>
        <time>2016-03-21T18:34:48Z</time>
      </trkpt>
      <trkpt lat="37.831377144902945" lon="-6.446092324331403">
        <ele>586.53999999999996</ele>
        <time>2016-03-21T18:34:55Z</time>
      </trkpt>
      <trkpt lat="37.83145803026855" lon="-6.44623146392405">
        <ele>587.01999999999998</ele>
        <time>2016-03-21T18:34:56Z</time>
      </trkpt>
      <trkpt lat="37.831563474610448" lon="-6.446331376209855">
        <ele>587.98000000000002</ele>
        <time>2016-03-21T18:34:57Z</time>
      </trkpt>
      <trkpt lat="37.831680402159691" lon="-6.446386696770787">
        <ele>597.60000000000002</ele>
        <time>2016-03-21T18:34:58Z</time>
      </trkpt>
      <trkpt lat="37.831802861765027" lon="-6.446405136957765">
        <ele>605.76999999999998</ele>
        <time>2016-03-21T18:34:59Z</time>
      </trkpt>
      <trkpt lat="37.831930099055171" lon="-6.446392228826881">
        <ele>606.25</ele>
        <time>2016-03-21T18:35:00Z</time>
      </trkpt>
      <trkpt lat="37.832059012725949" lon="-6.44635115750134">
        <ele>607.69000000000005</ele>
        <time>2016-03-21T18:35:01Z</time>
      </trkpt>
      <trkpt lat="37.832186920568347" lon="-6.446287371218205">
        <ele>613.94000000000005</ele>
        <time>2016-03-21T18:35:02Z</time>
      </trkpt>
      <trkpt lat="37.832313487306237" lon="-6.44620849750936">
        <ele>622.11000000000001</ele>
        <time>2016-03-21T18:35:03Z</time>
      </trkpt>
      <trkpt lat="37.833069786429405" lon="-6.445758640766144">
        <ele>622.11000000000001</ele>
        <time>2016-03-21T18:35:04Z</time>
      </trkpt>
      <trkpt lat="37.833182858303189" lon="-6.445765094831586">
        <ele>618.75</ele>
        <time>2016-03-21T18:35:05Z</time>
      </trkpt>
      <trkpt lat="37.833288721740246" lon="-6.445817900821567">
        <ele>606.73000000000002</ele>
        <time>2016-03-21T18:35:06Z</time>
      </trkpt>
      <trkpt lat="37.833376144990325" lon="-6.445910353213549">
        <ele>598.08000000000004</ele>
        <time>2016-03-21T18:35:07Z</time>
      </trkpt>
      <trkpt lat="37.833457617089152" lon="-6.446020659059286">
        <ele>607.21000000000004</ele>
        <time>2016-03-21T18:35:08Z</time>
      </trkpt>
      <trkpt lat="37.834481550380588" lon="-6.447364026680589">
        <ele>614.41999999999996</ele>
        <time>2016-03-21T18:35:09Z</time>
      </trkpt>
      <trkpt lat="37.835516883060336" lon="-6.448945691809058">
        <ele>606.25</ele>
        <time>2016-03-21T18:35:10Z</time>
      </trkpt>
      <trkpt lat="37.837034594267607" lon="-6.452150512486696">
        <ele>603.85000000000002</ele>
        <time>2016-03-21T18:35:11Z</time>
      </trkpt>
      <trkpt lat="37.837760634720325" lon="-6.453946838155389">
        <ele>611.05999999999995</ele>
        <time>2016-03-21T18:35:12Z</time>
      </trkpt>
      <trkpt lat="37.8389189299196" lon="-6.456383373588324">
        <ele>616.82000000000005</ele>
        <time>2016-03-21T18:35:18Z</time>
      </trkpt>
      <trkpt lat="37.840230697765946" lon="-6.459415778517723">
        <ele>619.23000000000002</ele>
        <time>2016-03-21T18:35:19Z</time>
      </trkpt>
      <trkpt lat="37.841110210865736" lon="-6.463065007701516">
        <ele>619.71000000000004</ele>
        <time>2016-03-21T18:35:20Z</time>
      </trkpt>
      <trkpt lat="37.841936498880386" lon="-6.465904461219907">
        <ele>619.71000000000004</ele>
        <time>2016-03-21T18:35:29Z</time>
      </trkpt>
      <trkpt lat="37.843443816527724" lon="-6.468543922528625">
        <ele>619.71000000000004</ele>
        <time>2016-03-21T18:35:30Z</time>
      </trkpt>
      <trkpt lat="37.84584229812026" lon="-6.472703777253628">
        <ele>619.23000000000002</ele>
        <time>2016-03-21T18:35:31Z</time>
      </trkpt>
      <trkpt lat="37.847376018762589" lon="-6.475364109501243">
        <ele>618.75</ele>
        <time>2016-03-21T18:35:43Z</time>
      </trkpt>
      <trkpt lat="37.848410932347178" lon="-6.476613935083151">
        <ele>618.25999999999999</ele>
        <time>2016-03-21T18:35:47Z</time>
      </trkpt>
      <trkpt lat="37.850505486130714" lon="-6.47828939370811">
        <ele>617.77999999999997</ele>
        <time>2016-03-21T18:35:48Z</time>
      </trkpt>
      <trkpt lat="37.854012558236718" lon="-6.480914270505309">
        <ele>617.29999999999995</ele>
        <time>2016-03-21T18:35:49Z</time>
      </trkpt>
      <trkpt lat="37.857888098806143" lon="-6.482826936990023">
        <ele>606.73000000000002</ele>
        <time>2016-03-21T18:35:50Z</time>
      </trkpt>
      <trkpt lat="37.859696075320244" lon="-6.483454490080476">
        <ele>594.71000000000004</ele>
        <time>2016-03-21T18:35:51Z</time>
      </trkpt>
      <trkpt lat="37.860396634787321" lon="-6.483720531687141">
        <ele>593.26999999999998</ele>
        <time>2016-03-21T18:35:52Z</time>
      </trkpt>
      <trkpt lat="37.860606517642736" lon="-6.483854223042727">
        <ele>592.30999999999995</ele>
        <time>2016-03-21T18:35:53Z</time>
      </trkpt>
      <trkpt lat="37.860807264223695" lon="-6.48400979116559">
        <ele>590.87</ele>
        <time>2016-03-21T18:35:54Z</time>
      </trkpt>
      <trkpt lat="37.860994767397642" lon="-6.484188577160239">
        <ele>589.90999999999997</ele>
        <time>2016-03-21T18:35:55Z</time>
      </trkpt>
      <trkpt lat="37.861169194802642" lon="-6.484390748664737">
        <ele>588.95000000000005</ele>
        <time>2016-03-21T18:35:56Z</time>
      </trkpt>
      <trkpt lat="37.861327026039362" lon="-6.484612450003624">
        <ele>587.98000000000002</ele>
        <time>2016-03-21T18:35:57Z</time>
      </trkpt>
      <trkpt lat="37.861471027135849" lon="-6.484852004796267">
        <ele>586.53999999999996</ele>
        <time>2016-03-21T18:35:58Z</time>
      </trkpt>
      <trkpt lat="37.861603880301118" lon="-6.485108993947506">
        <ele>585.58000000000004</ele>
        <time>2016-03-21T18:35:59Z</time>
      </trkpt>
      <trkpt lat="37.861727429553866" lon="-6.485380567610264">
        <ele>580.76999999999998</ele>
        <time>2016-03-21T18:36:00Z</time>
      </trkpt>
      <trkpt lat="37.862968957051635" lon="-6.487857671454549">
        <ele>580.76999999999998</ele>
        <time>2016-03-21T18:36:01Z</time>
      </trkpt>
      <trkpt lat="37.864302601665258" lon="-6.490094969049096">
        <ele>580.28999999999996</ele>
        <time>2016-03-21T18:36:10Z</time>
      </trkpt>
      <trkpt lat="37.864381056278944" lon="-6.490351120010018">
        <ele>580.28999999999996</ele>
        <time>2016-03-21T18:36:13Z</time>
      </trkpt>
      <trkpt lat="37.864434532821178" lon="-6.490613557398319">
        <ele>579.80999999999995</ele>
        <time>2016-03-21T18:36:14Z</time>
      </trkpt>
      <trkpt lat="37.864465797320008" lon="-6.49087892845273">
        <ele>579.33000000000004</ele>
        <time>2016-03-21T18:36:24Z</time>
      </trkpt>
      <trkpt lat="37.864478453993797" lon="-6.491146897897124">
        <ele>578.85000000000002</ele>
        <time>2016-03-21T18:36:38Z</time>
      </trkpt>
      <trkpt lat="37.864476190879941" lon="-6.491417214274406">
        <ele>578.37</ele>
        <time>2016-03-21T18:36:47Z</time>
      </trkpt>
      <trkpt lat="37.864453559741378" lon="-6.491686692461371">
        <ele>578.37</ele>
        <time>2016-03-21T18:36:58Z</time>
      </trkpt>
      <trkpt lat="37.864409470930696" lon="-6.491957511752844">
        <ele>572.60000000000002</ele>
        <time>2016-03-21T18:36:59Z</time>
      </trkpt>
      <trkpt lat="37.864353563636541" lon="-6.492229085415602">
        <ele>567.32000000000005</ele>
        <time>2016-03-21T18:37:00Z</time>
      </trkpt>
      <trkpt lat="37.864108560606837" lon="-6.493620648980141">
        <ele>573.55999999999995</ele>
        <time>2016-03-21T18:37:01Z</time>
      </trkpt>
      <trkpt lat="37.86410822533071" lon="-6.493897335603833">
        <ele>575.00999999999999</ele>
        <time>2016-03-21T18:37:02Z</time>
      </trkpt>
      <trkpt lat="37.86413018591702" lon="-6.49417033419013">
        <ele>575.97000000000003</ele>
        <time>2016-03-21T18:37:03Z</time>
      </trkpt>
      <trkpt lat="37.864174023270607" lon="-6.494440734386444">
        <ele>576.92999999999995</ele>
        <time>2016-03-21T18:37:04Z</time>
      </trkpt>
      <trkpt lat="37.86423864774406" lon="-6.494707949459553">
        <ele>596.63999999999999</ele>
        <time>2016-03-21T18:37:05Z</time>
      </trkpt>
      <trkpt lat="37.864326490089297" lon="-6.494969800114632">
        <ele>607.69000000000005</ele>
        <time>2016-03-21T18:37:10Z</time>
      </trkpt>
      <trkpt lat="37.864439226686954" lon="-6.495222682133317">
        <ele>615.38</ele>
        <time>2016-03-21T18:37:11Z</time>
      </trkpt>
      <trkpt lat="37.864572079852223" lon="-6.495467266067863">
        <ele>627.39999999999998</ele>
        <time>2016-03-21T18:37:12Z</time>
      </trkpt>
      <trkpt lat="37.864714739844203" lon="-6.49570950306952">
        <ele>631.24000000000001</ele>
        <time>2016-03-21T18:37:13Z</time>
      </trkpt>
      <trkpt lat="37.866299171000719" lon="-6.498331027105451">
        <ele>634.13</ele>
        <time>2016-03-21T18:37:14Z</time>
      </trkpt>
      <trkpt lat="37.868716595694423" lon="-6.502388454973698">
        <ele>639.40999999999997</ele>
        <time>2016-03-21T18:37:15Z</time>
      </trkpt>
      <trkpt lat="37.869167206808925" lon="-6.504167765378952">
        <ele>639.88999999999999</ele>
        <time>2016-03-21T18:37:16Z</time>
      </trkpt>
      <trkpt lat="37.869319254532456" lon="-6.504770256578922">
        <ele>640.38</ele>
        <time>2016-03-21T18:37:17Z</time>
      </trkpt>
      <trkpt lat="37.869428973644972" lon="-6.505056414753199">
        <ele>641.34000000000003</ele>
        <time>2016-03-21T18:37:18Z</time>
      </trkpt>
      <trkpt lat="37.869561575353146" lon="-6.505329580977559">
        <ele>641.82000000000005</ele>
        <time>2016-03-21T18:37:19Z</time>
      </trkpt>
      <trkpt lat="37.87168487906456" lon="-6.509074531495571">
        <ele>642.77999999999997</ele>
        <time>2016-03-21T18:37:20Z</time>
      </trkpt>
      <trkpt lat="37.873356817290187" lon="-6.511178640648723">
        <ele>643.74000000000001</ele>
        <time>2016-03-21T18:37:21Z</time>
      </trkpt>
      <trkpt lat="37.876189397647977" lon="-6.514754444360733">
        <ele>644.70000000000005</ele>
        <time>2016-03-21T18:37:28Z</time>
      </trkpt>
      <trkpt lat="37.878303229808807" lon="-6.518070241436362">
        <ele>651.42999999999995</ele>
        <time>2016-03-21T18:37:40Z</time>
      </trkpt>
      <trkpt lat="37.88037272170186" lon="-6.52275413274765">
        <ele>661.51999999999998</ele>
        <time>2016-03-21T18:37:51Z</time>
      </trkpt>
      <trkpt lat="37.881156010553241" lon="-6.525054294615984">
        <ele>668.73000000000002</ele>
        <time>2016-03-21T18:37:53Z</time>
      </trkpt>
      <trkpt lat="37.881587343290448" lon="-6.527953678742051">
        <ele>673.05999999999995</ele>
        <time>2016-03-21T18:37:54Z</time>
      </trkpt>
      <trkpt lat="37.881576614454389" lon="-6.528226677328348">
        <ele>669.70000000000005</ele>
        <time>2016-03-21T18:37:55Z</time>
      </trkpt>
      <trkpt lat="37.88154250010848" lon="-6.528497831895948">
        <ele>669.22000000000003</ele>
        <time>2016-03-21T18:37:56Z</time>
      </trkpt>
      <trkpt lat="37.881488688290119" lon="-6.528768818825483">
        <ele>669.22000000000003</ele>
        <time>2016-03-21T18:37:57Z</time>
      </trkpt>
      <trkpt lat="37.88141786120832" lon="-6.529037291184068">
        <ele>669.70000000000005</ele>
        <time>2016-03-21T18:37:58Z</time>
      </trkpt>
      <trkpt lat="37.881329180672765" lon="-6.529299560934305">
        <ele>675.94000000000005</ele>
        <time>2016-03-21T18:37:59Z</time>
      </trkpt>
      <trkpt lat="37.881223149597645" lon="-6.529552778229117">
        <ele>672.58000000000004</ele>
        <time>2016-03-21T18:38:08Z</time>
      </trkpt>
      <trkpt lat="37.881103875115514" lon="-6.529798954725266">
        <ele>671.13999999999999</ele>
        <time>2016-03-21T18:38:17Z</time>
      </trkpt>
      <trkpt lat="37.880067033693194" lon="-6.532198190689087">
        <ele>670.65999999999997</ele>
        <time>2016-03-21T18:38:23Z</time>
      </trkpt>
      <trkpt lat="37.879381058737636" lon="-6.535747339949012">
        <ele>670.17999999999995</ele>
        <time>2016-03-21T18:38:32Z</time>
      </trkpt>
      <trkpt lat="37.87935683503747" lon="-6.538235591724515">
        <ele>670.17999999999995</ele>
        <time>2016-03-21T18:38:34Z</time>
      </trkpt>
      <trkpt lat="37.879825131967664" lon="-6.540699535980821">
        <ele>669.70000000000005</ele>
        <time>2016-03-21T18:38:35Z</time>
      </trkpt>
      <trkpt lat="37.880727192386985" lon="-6.544461417943239">
        <ele>669.22000000000003</ele>
        <time>2016-03-21T18:38:36Z</time>
      </trkpt>
      <trkpt lat="37.880840264260769" lon="-6.544683957472444">
        <ele>668.73000000000002</ele>
        <time>2016-03-21T18:38:37Z</time>
      </trkpt>
      <trkpt lat="37.88096590898931" lon="-6.544887470081449">
        <ele>668.25</ele>
        <time>2016-03-21T18:38:38Z</time>
      </trkpt>
      <trkpt lat="37.881882805377245" lon="-6.546524539589882">
        <ele>667.76999999999998</ele>
        <time>2016-03-21T18:38:50Z</time>
      </trkpt>
      <trkpt lat="37.883100947365165" lon="-6.550027672201395">
        <ele>667.76999999999998</ele>
        <time>2016-03-21T18:38:58Z</time>
      </trkpt>
      <trkpt lat="37.884399723261595" lon="-6.554469158872962">
        <ele>667.28999999999996</ele>
        <time>2016-03-21T18:39:07Z</time>
      </trkpt>
      <trkpt lat="37.885022582486272" lon="-6.556363636627793">
        <ele>667.28999999999996</ele>
        <time>2016-03-21T18:39:15Z</time>
      </trkpt>
      <trkpt lat="37.885129200294614" lon="-6.556547451764345">
        <ele>667.28999999999996</ele>
        <time>2016-03-21T18:39:16Z</time>
      </trkpt>
      <trkpt lat="37.885244367644191" lon="-6.556700505316258">
        <ele>667.28999999999996</ele>
        <time>2016-03-21T18:39:17Z</time>
      </trkpt>
      <trkpt lat="37.885371772572398" lon="-6.556822713464499">
        <ele>667.76999999999998</ele>
        <time>2016-03-21T18:39:18Z</time>
      </trkpt>
      <trkpt lat="37.885508229956031" lon="-6.556914998218417">
        <ele>668.25</ele>
        <time>2016-03-21T18:39:19Z</time>
      </trkpt>
      <trkpt lat="37.88565038703382" lon="-6.556981215253472">
        <ele>668.73000000000002</ele>
        <time>2016-03-21T18:39:20Z</time>
      </trkpt>
      <trkpt lat="37.885798998177052" lon="-6.557018598541617">
        <ele>669.22000000000003</ele>
        <time>2016-03-21T18:39:21Z</time>
      </trkpt>
      <trkpt lat="37.885946519672871" lon="-6.557031087577343">
        <ele>669.70000000000005</ele>
        <time>2016-03-21T18:39:31Z</time>
      </trkpt>
      <trkpt lat="37.886088090017438" lon="-6.557018933817744">
        <ele>669.70000000000005</ele>
        <time>2016-03-21T18:39:32Z</time>
      </trkpt>
      <trkpt lat="37.886217841878533" lon="-6.556991273537278">
        <ele>670.17999999999995</ele>
        <time>2016-03-21T18:39:33Z</time>
      </trkpt>
      <trkpt lat="37.886338122189045" lon="-6.556953471153975">
        <ele>670.65999999999997</ele>
        <time>2016-03-21T18:39:34Z</time>
      </trkpt>
      <trkpt lat="37.886451529338956" lon="-6.556911477819085">
        <ele>671.13999999999999</ele>
        <time>2016-03-21T18:39:35Z</time>
      </trkpt>
      <trkpt lat="37.886950504034758" lon="-6.556724812835455">
        <ele>676.90999999999997</ele>
        <time>2016-03-21T18:39:45Z</time>
      </trkpt>
      <trkpt lat="37.88699408993125" lon="-6.556692207232118">
        <ele>684.60000000000002</ele>
        <time>2016-03-21T18:39:46Z</time>
      </trkpt>
      <trkpt lat="37.887026779353619" lon="-6.556653482839465">
        <ele>689.88</ele>
        <time>2016-03-21T18:39:47Z</time>
      </trkpt>
      <trkpt lat="37.887142533436418" lon="-6.55651300214231">
        <ele>691.33000000000004</ele>
        <time>2016-03-21T18:39:48Z</time>
      </trkpt>
      <trkpt lat="37.887201206758618" lon="-6.556476624682546">
        <ele>692.28999999999996</ele>
        <time>2016-03-21T18:39:49Z</time>
      </trkpt>
      <trkpt lat="37.887266250327229" lon="-6.556464051827788">
        <ele>693.73000000000002</ele>
        <time>2016-03-21T18:40:00Z</time>
      </trkpt>
      <trkpt lat="37.887332802638412" lon="-6.556476205587387">
        <ele>695.16999999999996</ele>
        <time>2016-03-21T18:40:01Z</time>
      </trkpt>
      <trkpt lat="37.887403126806021" lon="-6.556500596925616">
        <ele>696.61000000000001</ele>
        <time>2016-03-21T18:40:02Z</time>
      </trkpt>
      <trkpt lat="37.887482503429055" lon="-6.556518701836467">
        <ele>697.57000000000005</ele>
        <time>2016-03-21T18:40:03Z</time>
      </trkpt>
      <trkpt lat="37.887571435421705" lon="-6.556517025455833">
        <ele>698.52999999999997</ele>
        <time>2016-03-21T18:40:04Z</time>
      </trkpt>
      <trkpt lat="37.887667156755924" lon="-6.556496489793062">
        <ele>699.98000000000002</ele>
        <time>2016-03-21T18:40:05Z</time>
      </trkpt>
      <trkpt lat="37.888675332069397" lon="-6.55614553950727">
        <ele>708.14999999999998</ele>
        <time>2016-03-21T18:40:06Z</time>
      </trkpt>
      <trkpt lat="37.889856761321425" lon="-6.55547758564353">
        <ele>709.11000000000001</ele>
        <time>2016-03-21T18:40:07Z</time>
      </trkpt>
      <trkpt lat="37.890359507873654" lon="-6.555057652294636">
        <ele>709.59000000000003</ele>
        <time>2016-03-21T18:40:17Z</time>
      </trkpt>
      <trkpt lat="37.890488673001528" lon="-6.555004259571433">
        <ele>709.59000000000003</ele>
        <time>2016-03-21T18:40:23Z</time>
      </trkpt>
      <trkpt lat="37.890623789280653" lon="-6.554988166317344">
        <ele>710.54999999999995</ele>
        <time>2016-03-21T18:40:30Z</time>
      </trkpt>
      <trkpt lat="37.890758654102683" lon="-6.555016497150064">
        <ele>711.02999999999997</ele>
        <time>2016-03-21T18:40:31Z</time>
      </trkpt>
      <trkpt lat="37.890886897221208" lon="-6.555088916793466">
        <ele>711.50999999999999</ele>
        <time>2016-03-21T18:40:32Z</time>
      </trkpt>
      <trkpt lat="37.890998208895326" lon="-6.55520006082952">
        <ele>712.47000000000003</ele>
        <time>2016-03-21T18:40:40Z</time>
      </trkpt>
      <trkpt lat="37.891092170029879" lon="-6.555338194593787">
        <ele>712.47000000000003</ele>
        <time>2016-03-21T18:40:50Z</time>
      </trkpt>
      <trkpt lat="37.891175737604499" lon="-6.555493008345366">
        <ele>710.54999999999995</ele>
        <time>2016-03-21T18:40:55Z</time>
      </trkpt>
      <trkpt lat="37.891259305179119" lon="-6.555657042190433">
        <ele>710.54999999999995</ele>
        <time>2016-03-21T18:40:56Z</time>
      </trkpt>
      <trkpt lat="37.892021890729666" lon="-6.556966882199049">
        <ele>710.54999999999995</ele>
        <time>2016-03-21T18:40:57Z</time>
      </trkpt>
      <trkpt lat="37.89214082993567" lon="-6.557085150852799">
        <ele>710.07000000000005</ele>
        <time>2016-03-21T18:40:58Z</time>
      </trkpt>
      <trkpt lat="37.892274437472224" lon="-6.557184476405382">
        <ele>709.59000000000003</ele>
        <time>2016-03-21T18:40:59Z</time>
      </trkpt>
      <trkpt lat="37.89386373013258" lon="-6.558174462988973">
        <ele>709.11000000000001</ele>
        <time>2016-03-21T18:41:07Z</time>
      </trkpt>
      <trkpt lat="37.89402742870152" lon="-6.558247720822692">
        <ele>709.11000000000001</ele>
        <time>2016-03-21T18:41:08Z</time>
      </trkpt>
      <trkpt lat="37.894196826964617" lon="-6.558287953957915">
        <ele>708.63</ele>
        <time>2016-03-21T18:41:09Z</time>
      </trkpt>
      <trkpt lat="37.894369997084141" lon="-6.558286612853408">
        <ele>708.63</ele>
        <time>2016-03-21T18:41:19Z</time>
      </trkpt>
      <trkpt lat="37.894545765593648" lon="-6.55825543217361">
        <ele>708.14999999999998</ele>
        <time>2016-03-21T18:41:26Z</time>
      </trkpt>
      <trkpt lat="37.894727569073439" lon="-6.558208242058754">
        <ele>708.14999999999998</ele>
        <time>2016-03-21T18:41:27Z</time>
      </trkpt>
      <trkpt lat="37.896026512607932" lon="-6.557919317856431">
        <ele>708.14999999999998</ele>
        <time>2016-03-21T18:41:35Z</time>
      </trkpt>
      <trkpt lat="37.896193061023951" lon="-6.557923005893827">
        <ele>708.14999999999998</ele>
        <time>2016-03-21T18:41:46Z</time>
      </trkpt>
      <trkpt lat="37.896354161202908" lon="-6.557953432202339">
        <ele>708.63</ele>
        <time>2016-03-21T18:41:52Z</time>
      </trkpt>
      <trkpt lat="37.89650964550674" lon="-6.558003723621368">
        <ele>708.63</ele>
        <time>2016-03-21T18:41:58Z</time>
      </trkpt>
      <trkpt lat="37.896659765392542" lon="-6.558074383065105">
        <ele>709.11000000000001</ele>
        <time>2016-03-21T18:42:02Z</time>
      </trkpt>
      <trkpt lat="37.896801922470331" lon="-6.558166667819023">
        <ele>709.59000000000003</ele>
        <time>2016-03-21T18:42:03Z</time>
      </trkpt>
      <trkpt lat="37.896935613825917" lon="-6.558278650045395">
        <ele>709.59000000000003</ele>
        <time>2016-03-21T18:42:04Z</time>
      </trkpt>
      <trkpt lat="37.897059079259634" lon="-6.558409743010998">
        <ele>713.91999999999996</ele>
        <time>2016-03-21T18:42:05Z</time>
      </trkpt>
      <trkpt lat="37.897173576056957" lon="-6.558558773249388">
        <ele>714.88</ele>
        <time>2016-03-21T18:42:06Z</time>
      </trkpt>
      <trkpt lat="37.897279439494014" lon="-6.558724986389279">
        <ele>714.88</ele>
        <time>2016-03-21T18:42:16Z</time>
      </trkpt>
      <trkpt lat="37.897373316809535" lon="-6.558909974992275">
        <ele>712.95000000000005</ele>
        <time>2016-03-21T18:42:17Z</time>
      </trkpt>
      <trkpt lat="37.89745076559484" lon="-6.559109631925821">
        <ele>712.95000000000005</ele>
        <time>2016-03-21T18:42:18Z</time>
      </trkpt>
      <trkpt lat="37.897512540221214" lon="-6.559319850057364">
        <ele>713.44000000000005</ele>
        <time>2016-03-21T18:42:27Z</time>
      </trkpt>
      <trkpt lat="37.897555874660611" lon="-6.559534929692745">
        <ele>721.61000000000001</ele>
        <time>2016-03-21T18:42:34Z</time>
      </trkpt>
      <trkpt lat="37.897576075047255" lon="-6.559759229421616">
        <ele>724.00999999999999</ele>
        <time>2016-03-21T18:42:43Z</time>
      </trkpt>
      <trkpt lat="37.897573057562113" lon="-6.559989312663674">
        <ele>724.00999999999999</ele>
        <time>2016-03-21T18:42:49Z</time>
      </trkpt>
      <trkpt lat="37.897552354261279" lon="-6.560222581028938">
        <ele>724.49000000000001</ele>
        <time>2016-03-21T18:42:50Z</time>
      </trkpt>
      <trkpt lat="37.897525196895003" lon="-6.560461046174169">
        <ele>724.49000000000001</ele>
        <time>2016-03-21T18:42:51Z</time>
      </trkpt>
      <trkpt lat="37.897415142506361" lon="-6.561839869245887">
        <ele>724.49000000000001</ele>
        <time>2016-03-21T18:43:02Z</time>
      </trkpt>
      <trkpt lat="37.897435761988163" lon="-6.562041118741036">
        <ele>724.97000000000003</ele>
        <time>2016-03-21T18:43:09Z</time>
      </trkpt>
      <trkpt lat="37.897473396733403" lon="-6.5622328966856">
        <ele>725.45000000000005</ele>
        <time>2016-03-21T18:43:10Z</time>
      </trkpt>
      <trkpt lat="37.897869190201163" lon="-6.563980774953961">
        <ele>725.92999999999995</ele>
        <time>2016-03-21T18:43:11Z</time>
      </trkpt>
      <trkpt lat="37.897875644266605" lon="-6.564202308654785">
        <ele>725.45000000000005</ele>
        <time>2016-03-21T18:43:12Z</time>
      </trkpt>
      <trkpt lat="37.897868938744068" lon="-6.564424429088831">
        <ele>725.45000000000005</ele>
        <time>2016-03-21T18:43:13Z</time>
      </trkpt>
      <trkpt lat="37.897752178832889" lon="-6.566949561238289">
        <ele>725.45000000000005</ele>
        <time>2016-03-21T18:43:14Z</time>
      </trkpt>
      <trkpt lat="37.897750921547413" lon="-6.567442836239934">
        <ele>725.45000000000005</ele>
        <time>2016-03-21T18:43:15Z</time>
      </trkpt>
      <trkpt lat="37.897773971781135" lon="-6.567532187327743">
        <ele>725.45000000000005</ele>
        <time>2016-03-21T18:43:18Z</time>
      </trkpt>
      <trkpt lat="37.897808253765106" lon="-6.567609384655953">
        <ele>725.45000000000005</ele>
        <time>2016-03-21T18:43:19Z</time>
      </trkpt>
      <trkpt lat="37.897842535749078" lon="-6.567681049928069">
        <ele>725.45000000000005</ele>
        <time>2016-03-21T18:43:20Z</time>
      </trkpt>
      <trkpt lat="37.897865166887641" lon="-6.567752463743091">
        <ele>727.37</ele>
        <time>2016-03-21T18:43:21Z</time>
      </trkpt>
      <trkpt lat="37.897870782762766" lon="-6.567822452634573">
        <ele>728.82000000000005</ele>
        <time>2016-03-21T18:43:22Z</time>
      </trkpt>
      <trkpt lat="37.897855443879962" lon="-6.567887663841248">
        <ele>728.82000000000005</ele>
        <time>2016-03-21T18:43:27Z</time>
      </trkpt>
      <trkpt lat="37.897825855761766" lon="-6.567945247516036">
        <ele>734.10000000000002</ele>
        <time>2016-03-21T18:43:28Z</time>
      </trkpt>
      <trkpt lat="37.897784616798162" lon="-6.567990509793162">
        <ele>732.65999999999997</ele>
        <time>2016-03-21T18:43:29Z</time>
      </trkpt>
      <trkpt lat="37.897738683968782" lon="-6.568027138710022">
        <ele>724.49000000000001</ele>
        <time>2016-03-21T18:43:30Z</time>
      </trkpt>
      <trkpt lat="37.897695517167449" lon="-6.568061839789152">
        <ele>721.13</ele>
        <time>2016-03-21T18:43:31Z</time>
      </trkpt>
      <trkpt lat="37.897654362022877" lon="-6.56810618005693">
        <ele>721.13</ele>
        <time>2016-03-21T18:43:32Z</time>
      </trkpt>
      <trkpt lat="37.897619074210525" lon="-6.568169128149748">
        <ele>721.13</ele>
        <time>2016-03-21T18:43:33Z</time>
      </trkpt>
      <trkpt lat="37.897589234635234" lon="-6.5682493429631">
        <ele>721.13</ele>
        <time>2016-03-21T18:43:34Z</time>
      </trkpt>
      <trkpt lat="37.897563502192497" lon="-6.568339029327035">
        <ele>721.13</ele>
        <time>2016-03-21T18:43:44Z</time>
      </trkpt>
      <trkpt lat="37.897246917709708" lon="-6.569442423060536">
        <ele>721.13</ele>
        <time>2016-03-21T18:43:51Z</time>
      </trkpt>
      <trkpt lat="37.897151783108711" lon="-6.569896973669529">
        <ele>721.61000000000001</ele>
        <time>2016-03-21T18:43:52Z</time>
      </trkpt>
      <trkpt lat="37.897140216082335" lon="-6.57007441855967">
        <ele>722.57000000000005</ele>
        <time>2016-03-21T18:43:53Z</time>
      </trkpt>
      <trkpt lat="37.897051619365811" lon="-6.572158997878432">
        <ele>726.88999999999999</ele>
        <time>2016-03-21T18:43:54Z</time>
      </trkpt>
      <trkpt lat="37.896795300766826" lon="-6.575397178530693">
        <ele>727.86000000000001</ele>
        <time>2016-03-21T18:43:55Z</time>
      </trkpt>
      <trkpt lat="37.896529845893383" lon="-6.577614191919565">
        <ele>729.29999999999995</ele>
        <time>2016-03-21T18:43:56Z</time>
      </trkpt>
      <trkpt lat="37.896622298285365" lon="-6.580663612112403">
        <ele>730.25999999999999</ele>
        <time>2016-03-21T18:43:57Z</time>
      </trkpt>
      <trkpt lat="37.896599834784865" lon="-6.580930324271321">
        <ele>731.22000000000003</ele>
        <time>2016-03-21T18:44:01Z</time>
      </trkpt>
      <trkpt lat="37.896558009088039" lon="-6.581196449697018">
        <ele>731.70000000000005</ele>
        <time>2016-03-21T18:44:02Z</time>
      </trkpt>
      <trkpt lat="37.896494809538126" lon="-6.581461150199175">
        <ele>732.65999999999997</ele>
        <time>2016-03-21T18:44:03Z</time>
      </trkpt>
      <trkpt lat="37.896411409601569" lon="-6.581720821559429">
        <ele>733.13999999999999</ele>
        <time>2016-03-21T18:44:04Z</time>
      </trkpt>
      <trkpt lat="37.896306468173862" lon="-6.58197152428329">
        <ele>733.62</ele>
        <time>2016-03-21T18:44:05Z</time>
      </trkpt>
      <trkpt lat="37.896183421835303" lon="-6.582214264199138">
        <ele>734.10000000000002</ele>
        <time>2016-03-21T18:44:14Z</time>
      </trkpt>
      <trkpt lat="37.896053418517113" lon="-6.582451220601797">
        <ele>734.58000000000004</ele>
        <time>2016-03-21T18:44:28Z</time>
      </trkpt>
      <trkpt lat="37.895443718880415" lon="-6.5836719609797">
        <ele>734.58000000000004</ele>
        <time>2016-03-21T18:44:40Z</time>
      </trkpt>
      <trkpt lat="37.895370461046696" lon="-6.583937164396048">
        <ele>731.22000000000003</ele>
        <time>2016-03-21T18:44:48Z</time>
      </trkpt>
      <trkpt lat="37.895316565409303" lon="-6.584212593734264">
        <ele>721.13</ele>
        <time>2016-03-21T18:44:52Z</time>
      </trkpt>
      <trkpt lat="37.895283959805965" lon="-6.584497829899192">
        <ele>716.32000000000005</ele>
        <time>2016-03-21T18:44:53Z</time>
      </trkpt>
      <trkpt lat="37.895274655893445" lon="-6.584789101034403">
        <ele>715.84000000000003</ele>
        <time>2016-03-21T18:44:54Z</time>
      </trkpt>
      <trkpt lat="37.895288905128837" lon="-6.585082048550248">
        <ele>715.36000000000001</ele>
        <time>2016-03-21T18:44:55Z</time>
      </trkpt>
      <trkpt lat="37.895329976454377" lon="-6.585374493151903">
        <ele>714.88</ele>
        <time>2016-03-21T18:44:56Z</time>
      </trkpt>
      <trkpt lat="37.895395439118147" lon="-6.58566408790648">
        <ele>714.39999999999998</ele>
        <time>2016-03-21T18:44:57Z</time>
      </trkpt>
      <trkpt lat="37.895482946187258" lon="-6.585943540558219">
        <ele>714.39999999999998</ele>
        <time>2016-03-21T18:44:58Z</time>
      </trkpt>
      <trkpt lat="37.895589061081409" lon="-6.58620941452682">
        <ele>714.39999999999998</ele>
        <time>2016-03-21T18:44:59Z</time>
      </trkpt>
      <trkpt lat="37.895708754658699" lon="-6.586459949612618">
        <ele>713.91999999999996</ele>
        <time>2016-03-21T18:45:00Z</time>
      </trkpt>
      <trkpt lat="37.895830627530813" lon="-6.586706461384893">
        <ele>712.95000000000005</ele>
        <time>2016-03-21T18:45:01Z</time>
      </trkpt>
      <trkpt lat="37.896483158692718" lon="-6.588593563064933">
        <ele>712.47000000000003</ele>
        <time>2016-03-21T18:45:02Z</time>
      </trkpt>
      <trkpt lat="37.897509103640914" lon="-6.591892763972282">
        <ele>712.47000000000003</ele>
        <time>2016-03-21T18:45:03Z</time>
      </trkpt>
      <trkpt lat="37.898593386635184" lon="-6.594573296606541">
        <ele>713.44000000000005</ele>
        <time>2016-03-21T18:45:04Z</time>
      </trkpt>
      <trkpt lat="37.898761443793774" lon="-6.595010999590159">
        <ele>713.91999999999996</ele>
        <time>2016-03-21T18:45:05Z</time>
      </trkpt>
      <trkpt lat="37.898817854002118" lon="-6.595236053690314">
        <ele>713.91999999999996</ele>
        <time>2016-03-21T18:45:06Z</time>
      </trkpt>
      <trkpt lat="37.89885900914669" lon="-6.595463873818517">
        <ele>713.91999999999996</ele>
        <time>2016-03-21T18:45:07Z</time>
      </trkpt>
      <trkpt lat="37.898882143199444" lon="-6.595688844099641">
        <ele>713.91999999999996</ele>
        <time>2016-03-21T18:45:08Z</time>
      </trkpt>
      <trkpt lat="37.898889519274235" lon="-6.595903839915991">
        <ele>713.91999999999996</ele>
        <time>2016-03-21T18:45:16Z</time>
      </trkpt>
      <trkpt lat="37.898885579779744" lon="-6.596112633123994">
        <ele>716.79999999999995</ele>
        <time>2016-03-21T18:45:22Z</time>
      </trkpt>
      <trkpt lat="37.898877784609795" lon="-6.596310026943684">
        <ele>722.09000000000003</ele>
        <time>2016-03-21T18:45:23Z</time>
      </trkpt>
      <trkpt lat="37.898781560361385" lon="-6.597729753702879">
        <ele>725.45000000000005</ele>
        <time>2016-03-21T18:45:24Z</time>
      </trkpt>
      <trkpt lat="37.898730430752039" lon="-6.599292559549213">
        <ele>730.25999999999999</ele>
        <time>2016-03-21T18:45:25Z</time>
      </trkpt>
      <trkpt lat="37.899104598909616" lon="-6.600604662671685">
        <ele>731.22000000000003</ele>
        <time>2016-03-21T18:45:26Z</time>
      </trkpt>
      <trkpt lat="37.900205729529262" lon="-6.602656720206142">
        <ele>732.17999999999995</ele>
        <time>2016-03-21T18:45:29Z</time>
      </trkpt>
      <trkpt lat="37.900405721738935" lon="-6.603155191987753">
        <ele>733.13999999999999</ele>
        <time>2016-03-21T18:45:30Z</time>
      </trkpt>
      <trkpt lat="37.900477889925241" lon="-6.60341938957572">
        <ele>734.10000000000002</ele>
        <time>2016-03-21T18:45:31Z</time>
      </trkpt>
      <trkpt lat="37.900525834411383" lon="-6.603695070371032">
        <ele>735.54999999999995</ele>
        <time>2016-03-21T18:45:32Z</time>
      </trkpt>
      <trkpt lat="37.90055793710053" lon="-6.603976534679532">
        <ele>736.99000000000001</ele>
        <time>2016-03-21T18:45:33Z</time>
      </trkpt>
      <trkpt lat="37.900583166629076" lon="-6.604261687025428">
        <ele>745.63999999999999</ele>
        <time>2016-03-21T18:45:34Z</time>
      </trkpt>
      <trkpt lat="37.900921041145921" lon="-6.607803041115403">
        <ele>746.60000000000002</ele>
        <time>2016-03-21T18:45:35Z</time>
      </trkpt>
      <trkpt lat="37.901818659156561" lon="-6.610110076144338">
        <ele>746.60000000000002</ele>
        <time>2016-03-21T18:45:36Z</time>
      </trkpt>
      <trkpt lat="37.902785008773208" lon="-6.612769570201635">
        <ele>747.08000000000004</ele>
        <time>2016-03-21T18:45:49Z</time>
      </trkpt>
      <trkpt lat="37.903202595189214" lon="-6.615212140604854">
        <ele>747.55999999999995</ele>
        <time>2016-03-21T18:46:00Z</time>
      </trkpt>
      <trkpt lat="37.903207037597895" lon="-6.6154860612005">
        <ele>744.67999999999995</ele>
        <time>2016-03-21T18:46:03Z</time>
      </trkpt>
      <trkpt lat="37.903190022334456" lon="-6.615756629034877">
        <ele>744.67999999999995</ele>
        <time>2016-03-21T18:46:14Z</time>
      </trkpt>
      <trkpt lat="37.903152471408248" lon="-6.6160230897367">
        <ele>745.15999999999997</ele>
        <time>2016-03-21T18:46:24Z</time>
      </trkpt>
      <trkpt lat="37.903098743408918" lon="-6.616287371143699">
        <ele>745.15999999999997</ele>
        <time>2016-03-21T18:46:36Z</time>
      </trkpt>
      <trkpt lat="37.903028167784214" lon="-6.616546791046858">
        <ele>745.63999999999999</ele>
        <time>2016-03-21T18:46:43Z</time>
      </trkpt>
      <trkpt lat="37.902943678200245" lon="-6.61680243909359">
        <ele>749.49000000000001</ele>
        <time>2016-03-21T18:46:44Z</time>
      </trkpt>
      <trkpt lat="37.901883870363235" lon="-6.619398901239038">
        <ele>750.45000000000005</ele>
        <time>2016-03-21T18:46:45Z</time>
      </trkpt>
      <trkpt lat="37.901730816811323" lon="-6.619628313928843">
        <ele>750.92999999999995</ele>
        <time>2016-03-21T18:46:49Z</time>
      </trkpt>
      <trkpt lat="37.901558736339211" lon="-6.619841046631336">
        <ele>751.88999999999999</ele>
        <time>2016-03-21T18:46:50Z</time>
      </trkpt>
      <trkpt lat="37.901372322812676" lon="-6.62003911100328">
        <ele>752.85000000000002</ele>
        <time>2016-03-21T18:46:51Z</time>
      </trkpt>
      <trkpt lat="37.90117702446878" lon="-6.620227871462703">
        <ele>754.28999999999996</ele>
        <time>2016-03-21T18:46:52Z</time>
      </trkpt>
      <trkpt lat="37.899183221161366" lon="-6.622236846014857">
        <ele>755.73000000000002</ele>
        <time>2016-03-21T18:46:53Z</time>
      </trkpt>
      <trkpt lat="37.89904173463583" lon="-6.622495595365763">
        <ele>756.69000000000005</ele>
        <time>2016-03-21T18:47:05Z</time>
      </trkpt>
      <trkpt lat="37.898927740752697" lon="-6.622774377465248">
        <ele>762.46000000000004</ele>
        <time>2016-03-21T18:47:14Z</time>
      </trkpt>
      <trkpt lat="37.898837551474571" lon="-6.623065313324332">
        <ele>756.21000000000004</ele>
        <time>2016-03-21T18:47:15Z</time>
      </trkpt>
      <trkpt lat="37.898762281984091" lon="-6.623365636914969">
        <ele>747.08000000000004</ele>
        <time>2016-03-21T18:47:16Z</time>
      </trkpt>
      <trkpt lat="37.898049149662256" lon="-6.626931466162205">
        <ele>746.12</ele>
        <time>2016-03-21T18:47:28Z</time>
      </trkpt>
      <trkpt lat="37.898034984245896" lon="-6.627247715368867">
        <ele>745.63999999999999</ele>
        <time>2016-03-21T18:47:29Z</time>
      </trkpt>
      <trkpt lat="37.898042444139719" lon="-6.627566646784544">
        <ele>742.75999999999999</ele>
        <time>2016-03-21T18:47:32Z</time>
      </trkpt>
      <trkpt lat="37.898072032257915" lon="-6.627884991466999">
        <ele>731.22000000000003</ele>
        <time>2016-03-21T18:47:33Z</time>
      </trkpt>
      <trkpt lat="37.898122910410166" lon="-6.628200318664312">
        <ele>725.92999999999995</ele>
        <time>2016-03-21T18:47:34Z</time>
      </trkpt>
      <trkpt lat="37.898194910958409" lon="-6.628509946167469">
        <ele>724.97000000000003</ele>
        <time>2016-03-21T18:47:36Z</time>
      </trkpt>
      <trkpt lat="37.898283759132028" lon="-6.628814209252596">
        <ele>724.00999999999999</ele>
        <time>2016-03-21T18:47:37Z</time>
      </trkpt>
      <trkpt lat="37.898383000865579" lon="-6.6291144490242">
        <ele>723.04999999999995</ele>
        <time>2016-03-21T18:47:38Z</time>
      </trkpt>
      <trkpt lat="37.899345746263862" lon="-6.632013916969299">
        <ele>722.09000000000003</ele>
        <time>2016-03-21T18:47:39Z</time>
      </trkpt>
      <trkpt lat="37.899502236396074" lon="-6.633929181843996">
        <ele>724.97000000000003</ele>
        <time>2016-03-21T18:47:40Z</time>
      </trkpt>
      <trkpt lat="37.899544732645154" lon="-6.636311654001474">
        <ele>725.92999999999995</ele>
        <time>2016-03-21T18:47:41Z</time>
      </trkpt>
      <trkpt lat="37.899594185873866" lon="-6.636630082502961">
        <ele>726.88999999999999</ele>
        <time>2016-03-21T18:47:42Z</time>
      </trkpt>
      <trkpt lat="37.899664677679539" lon="-6.636941386386752">
        <ele>725.45000000000005</ele>
        <time>2016-03-21T18:47:43Z</time>
      </trkpt>
      <trkpt lat="37.900131298229098" lon="-6.639460315927863">
        <ele>715.36000000000001</ele>
        <time>2016-03-21T18:47:44Z</time>
      </trkpt>
      <trkpt lat="37.900180080905557" lon="-6.642945008352399">
        <ele>713.91999999999996</ele>
        <time>2016-03-21T18:47:45Z</time>
      </trkpt>
      <trkpt lat="37.900213776156306" lon="-6.644527092576027">
        <ele>700.46000000000004</ele>
        <time>2016-03-21T18:47:46Z</time>
      </trkpt>
      <trkpt lat="37.900273874402046" lon="-6.644823476672173">
        <ele>682.66999999999996</ele>
        <time>2016-03-21T18:47:47Z</time>
      </trkpt>
      <trkpt lat="37.900356100872159" lon="-6.6451121494174">
        <ele>682.66999999999996</ele>
        <time>2016-03-21T18:47:48Z</time>
      </trkpt>
      <trkpt lat="37.900454755872488" lon="-6.645396631211042">
        <ele>680.26999999999998</ele>
        <time>2016-03-21T18:47:49Z</time>
      </trkpt>
      <trkpt lat="37.90056430734694" lon="-6.645678179338574">
        <ele>675.94000000000005</ele>
        <time>2016-03-21T18:47:59Z</time>
      </trkpt>
      <trkpt lat="37.901516910642385" lon="-6.647741636261344">
        <ele>674.5</ele>
        <time>2016-03-21T18:48:07Z</time>
      </trkpt>
      <trkpt lat="37.90167105384171" lon="-6.647952860221267">
        <ele>673.05999999999995</ele>
        <time>2016-03-21T18:48:16Z</time>
      </trkpt>
      <trkpt lat="37.901838859543204" lon="-6.648150756955147">
        <ele>671.62</ele>
        <time>2016-03-21T18:48:23Z</time>
      </trkpt>
      <trkpt lat="37.90374138392508" lon="-6.650226283818483">
        <ele>669.70000000000005</ele>
        <time>2016-03-21T18:48:30Z</time>
      </trkpt>
      <trkpt lat="37.905051643028855" lon="-6.651838878169656">
        <ele>662.49000000000001</ele>
        <time>2016-03-21T18:48:44Z</time>
      </trkpt>
      <trkpt lat="37.905186172574759" lon="-6.652114056050777">
        <ele>661.51999999999998</ele>
        <time>2016-03-21T18:48:45Z</time>
      </trkpt>
      <trkpt lat="37.906208848580718" lon="-6.654344899579883">
        <ele>660.55999999999995</ele>
        <time>2016-03-21T18:48:46Z</time>
      </trkpt>
      <trkpt lat="37.908052112907171" lon="-6.657191142439842">
        <ele>652.87</ele>
        <time>2016-03-21T18:48:47Z</time>
      </trkpt>
      <trkpt lat="37.909138994291425" lon="-6.658399477601051">
        <ele>651.90999999999997</ele>
        <time>2016-03-21T18:48:48Z</time>
      </trkpt>
      <trkpt lat="37.910559475421906" lon="-6.65904588997364">
        <ele>646.13999999999999</ele>
        <time>2016-03-21T18:48:49Z</time>
      </trkpt>
      <trkpt lat="37.911521047353745" lon="-6.659373706206679">
        <ele>639.88999999999999</ele>
        <time>2016-03-21T18:48:50Z</time>
      </trkpt>
      <trkpt lat="37.91173042729497" lon="-6.659497255459428">
        <ele>638.92999999999995</ele>
        <time>2016-03-21T18:48:51Z</time>
      </trkpt>
      <trkpt lat="37.911927485838532" lon="-6.65965081192553">
        <ele>637.97000000000003</ele>
        <time>2016-03-21T18:48:52Z</time>
      </trkpt>
      <trkpt lat="37.912119766697288" lon="-6.659827334806323">
        <ele>625.47000000000003</ele>
        <time>2016-03-21T18:48:53Z</time>
      </trkpt>
      <trkpt lat="37.912315735593438" lon="-6.660016765818">
        <ele>623.54999999999995</ele>
        <time>2016-03-21T18:48:54Z</time>
      </trkpt>
      <trkpt lat="37.914219852536917" lon="-6.662026830017567">
        <ele>622.59000000000003</ele>
        <time>2016-03-21T18:49:04Z</time>
      </trkpt>
      <trkpt lat="37.914357651025057" lon="-6.6622668877244">
        <ele>622.11000000000001</ele>
        <time>2016-03-21T18:49:12Z</time>
      </trkpt>
      <trkpt lat="37.914483966305852" lon="-6.662527145817876">
        <ele>621.14999999999998</ele>
        <time>2016-03-21T18:49:20Z</time>
      </trkpt>
      <trkpt lat="37.915536230430007" lon="-6.665060659870505">
        <ele>620.19000000000005</ele>
        <time>2016-03-21T18:49:21Z</time>
      </trkpt>
      <trkpt lat="37.916109971702099" lon="-6.666863355785608">
        <ele>619.71000000000004</ele>
        <time>2016-03-21T18:49:22Z</time>
      </trkpt>
      <trkpt lat="37.916448768228292" lon="-6.669538440182805">
        <ele>619.23000000000002</ele>
        <time>2016-03-21T18:49:23Z</time>
      </trkpt>
      <trkpt lat="37.916826540604234" lon="-6.671304926276207">
        <ele>618.25999999999999</ele>
        <time>2016-03-21T18:49:24Z</time>
      </trkpt>
      <trkpt lat="37.916846824809909" lon="-6.671605836600065">
        <ele>618.25999999999999</ele>
        <time>2016-03-21T18:49:25Z</time>
      </trkpt>
      <trkpt lat="37.916844142600894" lon="-6.671913703903556">
        <ele>618.25999999999999</ele>
        <time>2016-03-21T18:49:26Z</time>
      </trkpt>
      <trkpt lat="37.916561672464013" lon="-6.675487831234932">
        <ele>618.25999999999999</ele>
        <time>2016-03-21T18:49:33Z</time>
      </trkpt>
      <trkpt lat="37.916169315576553" lon="-6.677602753043175">
        <ele>618.25999999999999</ele>
        <time>2016-03-21T18:49:45Z</time>
      </trkpt>
      <trkpt lat="37.916145343333483" lon="-6.677904920652509">
        <ele>616.34000000000003</ele>
        <time>2016-03-21T18:49:50Z</time>
      </trkpt>
      <trkpt lat="37.916145846247673" lon="-6.678214129060507">
        <ele>615.86000000000001</ele>
        <time>2016-03-21T18:49:51Z</time>
      </trkpt>
      <trkpt lat="37.916173674166203" lon="-6.67852652259171">
        <ele>615.38</ele>
        <time>2016-03-21T18:49:52Z</time>
      </trkpt>
      <trkpt lat="37.916228072717786" lon="-6.678836569190025">
        <ele>614.89999999999998</ele>
        <time>2016-03-21T18:49:53Z</time>
      </trkpt>
      <trkpt lat="37.916304348036647" lon="-6.679141754284501">
        <ele>614.41999999999996</ele>
        <time>2016-03-21T18:49:54Z</time>
      </trkpt>
      <trkpt lat="37.91638657450676" lon="-6.679440988227725">
        <ele>613.46000000000004</ele>
        <time>2016-03-21T18:49:55Z</time>
      </trkpt>
      <trkpt lat="37.91658447124064" lon="-6.680324859917164">
        <ele>612.98000000000002</ele>
        <time>2016-03-21T18:49:56Z</time>
      </trkpt>
      <trkpt lat="37.91661573573947" lon="-6.680623507127166">
        <ele>612.5</ele>
        <time>2016-03-21T18:50:06Z</time>
      </trkpt>
      <trkpt lat="37.916627386584878" lon="-6.680925423279405">
        <ele>606.25</ele>
        <time>2016-03-21T18:50:12Z</time>
      </trkpt>
      <trkpt lat="37.916625794023275" lon="-6.681231865659356">
        <ele>605.76999999999998</ele>
        <time>2016-03-21T18:50:13Z</time>
      </trkpt>
      <trkpt lat="37.916608024388552" lon="-6.681541660800576">
        <ele>605.76999999999998</ele>
        <time>2016-03-21T18:50:19Z</time>
      </trkpt>
      <trkpt lat="37.916580783203244" lon="-6.683057611808181">
        <ele>605.76999999999998</ele>
        <time>2016-03-21T18:50:25Z</time>
      </trkpt>
      <trkpt lat="37.916629146784544" lon="-6.683337818831205">
        <ele>605.28999999999996</ele>
        <time>2016-03-21T18:50:31Z</time>
      </trkpt>
      <trkpt lat="37.916701985523105" lon="-6.683606375008822">
        <ele>604.33000000000004</ele>
        <time>2016-03-21T18:50:32Z</time>
      </trkpt>
      <trkpt lat="37.916795276105404" lon="-6.683863615617156">
        <ele>603.36000000000001</ele>
        <time>2016-03-21T18:50:33Z</time>
      </trkpt>
      <trkpt lat="37.916911952197552" lon="-6.684111887589097">
        <ele>602.88</ele>
        <time>2016-03-21T18:50:34Z</time>
      </trkpt>
      <trkpt lat="37.91704966686666" lon="-6.684350101277232">
        <ele>600.96000000000004</ele>
        <time>2016-03-21T18:50:35Z</time>
      </trkpt>
      <trkpt lat="37.917206743732095" lon="-6.684577334672213">
        <ele>600.96000000000004</ele>
        <time>2016-03-21T18:50:36Z</time>
      </trkpt>
      <trkpt lat="37.917372034862638" lon="-6.684800712391734">
        <ele>600.96000000000004</ele>
        <time>2016-03-21T18:50:37Z</time>
      </trkpt>
      <trkpt lat="37.919199038296938" lon="-6.686850674450398">
        <ele>601.44000000000005</ele>
        <time>2016-03-21T18:50:38Z</time>
      </trkpt>
      <trkpt lat="37.920446265488863" lon="-6.68798390775919">
        <ele>601.91999999999996</ele>
        <time>2016-03-21T18:50:39Z</time>
      </trkpt>
      <trkpt lat="37.920571155846119" lon="-6.688179960474372">
        <ele>599.03999999999996</ele>
        <time>2016-03-21T18:50:40Z</time>
      </trkpt>
      <trkpt lat="37.920684311538935" lon="-6.688391268253326">
        <ele>590.38999999999999</ele>
        <time>2016-03-21T18:50:41Z</time>
      </trkpt>
      <trkpt lat="37.920784391462803" lon="-6.688620680943131">
        <ele>590.87</ele>
        <time>2016-03-21T18:50:43Z</time>
      </trkpt>
      <trkpt lat="37.920869886875153" lon="-6.688865767791867">
        <ele>589.90999999999997</ele>
        <time>2016-03-21T18:50:44Z</time>
      </trkpt>
      <trkpt lat="37.920940797775984" lon="-6.689124517142773">
        <ele>589.42999999999995</ele>
        <time>2016-03-21T18:50:45Z</time>
      </trkpt>
      <trkpt lat="37.921000560745597" lon="-6.68939265422523">
        <ele>588.95000000000005</ele>
        <time>2016-03-21T18:50:54Z</time>
      </trkpt>
      <trkpt lat="37.921164929866791" lon="-6.690484648570418">
        <ele>588.95000000000005</ele>
        <time>2016-03-21T18:51:04Z</time>
      </trkpt>
      <trkpt lat="37.921168198809028" lon="-6.690750690177083">
        <ele>588.95000000000005</ele>
        <time>2016-03-21T18:51:15Z</time>
      </trkpt>
      <trkpt lat="37.92115512304008" lon="-6.691010110080242">
        <ele>588.46000000000004</ele>
        <time>2016-03-21T18:51:29Z</time>
      </trkpt>
      <trkpt lat="37.921130144968629" lon="-6.691266680136323">
        <ele>588.46000000000004</ele>
        <time>2016-03-21T18:51:40Z</time>
      </trkpt>
      <trkpt lat="37.921096282079816" lon="-6.691518975421786">
        <ele>588.46000000000004</ele>
        <time>2016-03-21T18:51:49Z</time>
      </trkpt>
      <trkpt lat="37.92090249247849" lon="-6.693701287731528">
        <ele>588.46000000000004</ele>
        <time>2016-03-21T18:51:52Z</time>
      </trkpt>
      <trkpt lat="37.921101227402687" lon="-6.697340290993452">
        <ele>588.46000000000004</ele>
        <time>2016-03-21T18:51:53Z</time>
      </trkpt>
      <trkpt lat="37.921231733635068" lon="-6.700547877699137">
        <ele>588.46000000000004</ele>
        <time>2016-03-21T18:51:54Z</time>
      </trkpt>
      <trkpt lat="37.920861421152949" lon="-6.702378652989864">
        <ele>588.46000000000004</ele>
        <time>2016-03-21T18:51:55Z</time>
      </trkpt>
      <trkpt lat="37.920708954334259" lon="-6.70324919745326">
        <ele>587.98000000000002</ele>
        <time>2016-03-21T18:51:56Z</time>
      </trkpt>
      <trkpt lat="37.920702248811722" lon="-6.703467965126038">
        <ele>587.98000000000002</ele>
        <time>2016-03-21T18:51:58Z</time>
      </trkpt>
      <trkpt lat="37.920710127800703" lon="-6.703686397522688">
        <ele>587.98000000000002</ele>
        <time>2016-03-21T18:51:59Z</time>
      </trkpt>
      <trkpt lat="37.92073342949152" lon="-6.703903740271926">
        <ele>587.5</ele>
        <time>2016-03-21T18:52:00Z</time>
      </trkpt>
      <trkpt lat="37.920771902427077" lon="-6.704112533479929">
        <ele>587.5</ele>
        <time>2016-03-21T18:52:01Z</time>
      </trkpt>
      <trkpt lat="37.920820266008377" lon="-6.704306406900287">
        <ele>587.5</ele>
        <time>2016-03-21T18:52:02Z</time>
      </trkpt>
      <trkpt lat="37.920878771692514" lon="-6.704482678323984">
        <ele>587.5</ele>
        <time>2016-03-21T18:52:03Z</time>
      </trkpt>
      <trkpt lat="37.920947000384331" lon="-6.704652076587081">
        <ele>585.10000000000002</ele>
        <time>2016-03-21T18:52:05Z</time>
      </trkpt>
      <trkpt lat="37.921024365350604" lon="-6.704811835661531">
        <ele>584.62</ele>
        <time>2016-03-21T18:52:06Z</time>
      </trkpt>
      <trkpt lat="37.921111453324556" lon="-6.704962626099587">
        <ele>584.13999999999999</ele>
        <time>2016-03-21T18:52:07Z</time>
      </trkpt>
      <trkpt lat="37.921204324811697" lon="-6.70510838739574">
        <ele>583.65999999999997</ele>
        <time>2016-03-21T18:52:08Z</time>
      </trkpt>
      <trkpt lat="37.921300800517201" lon="-6.705240737646818">
        <ele>582.70000000000005</ele>
        <time>2016-03-21T18:52:09Z</time>
      </trkpt>
      <trkpt lat="37.921398198232055" lon="-6.705357078462839">
        <ele>580.76999999999998</ele>
        <time>2016-03-21T18:52:10Z</time>
      </trkpt>
      <trkpt lat="37.921495344489813" lon="-6.705460092052817">
        <ele>579.80999999999995</ele>
        <time>2016-03-21T18:52:11Z</time>
      </trkpt>
      <trkpt lat="37.921594837680459" lon="-6.705551454797387">
        <ele>579.33000000000004</ele>
        <time>2016-03-21T18:52:12Z</time>
      </trkpt>
      <trkpt lat="37.921696593984962" lon="-6.705631585791707">
        <ele>579.33000000000004</ele>
        <time>2016-03-21T18:52:14Z</time>
      </trkpt>
      <trkpt lat="37.921798517927527" lon="-6.705698473379016">
        <ele>578.85000000000002</ele>
        <time>2016-03-21T18:52:15Z</time>
      </trkpt>
      <trkpt lat="37.922373851761222" lon="-6.706143971532583">
        <ele>578.37</ele>
        <time>2016-03-21T18:52:16Z</time>
      </trkpt>
      <trkpt lat="37.922679791226983" lon="-6.706446725875139">
        <ele>578.37</ele>
        <time>2016-03-21T18:52:17Z</time>
      </trkpt>
      <trkpt lat="37.922746175900102" lon="-6.706484695896506">
        <ele>577.88999999999999</ele>
        <time>2016-03-21T18:52:18Z</time>
      </trkpt>
      <trkpt lat="37.922819014638662" lon="-6.706512691453099">
        <ele>571.15999999999997</ele>
        <time>2016-03-21T18:52:22Z</time>
      </trkpt>
      <trkpt lat="37.922890009358525" lon="-6.706521324813366">
        <ele>564.90999999999997</ele>
        <time>2016-03-21T18:52:23Z</time>
      </trkpt>
      <trkpt lat="37.922961171716452" lon="-6.706522665917873">
        <ele>562.50999999999999</ele>
        <time>2016-03-21T18:52:24Z</time>
      </trkpt>
      <trkpt lat="37.92317122220993" lon="-6.706528952345252">
        <ele>556.25999999999999</ele>
        <time>2016-03-21T18:52:25Z</time>
      </trkpt>
      <trkpt lat="37.923248838633299" lon="-6.706547727808356">
        <ele>553.38</ele>
        <time>2016-03-21T18:52:26Z</time>
      </trkpt>
      <trkpt lat="37.923328885808587" lon="-6.706584105268121">
        <ele>550.00999999999999</ele>
        <time>2016-03-21T18:52:27Z</time>
      </trkpt>
      <trkpt lat="37.92339694686234" lon="-6.706635570153594">
        <ele>549.04999999999995</ele>
        <time>2016-03-21T18:52:28Z</time>
      </trkpt>
      <trkpt lat="37.923447322100401" lon="-6.706702709197998">
        <ele>548.57000000000005</ele>
        <time>2016-03-21T18:52:38Z</time>
      </trkpt>
      <trkpt lat="37.92347414419055" lon="-6.706785019487143">
        <ele>548.09000000000003</ele>
        <time>2016-03-21T18:52:41Z</time>
      </trkpt>
      <trkpt lat="37.923484034836292" lon="-6.706874873489142">
        <ele>546.64999999999998</ele>
        <time>2016-03-21T18:52:42Z</time>
      </trkpt>
      <trkpt lat="37.923486717045307" lon="-6.706966990604997">
        <ele>546.64999999999998</ele>
        <time>2016-03-21T18:52:43Z</time>
      </trkpt>
      <trkpt lat="37.923731720075011" lon="-6.708282949402928">
        <ele>546.64999999999998</ele>
        <time>2016-03-21T18:52:44Z</time>
      </trkpt>
      <trkpt lat="37.924020728096366" lon="-6.709471084177494">
        <ele>546.64999999999998</ele>
        <time>2016-03-21T18:52:45Z</time>
      </trkpt>
      <trkpt lat="37.924121310934424" lon="-6.709784818813205">
        <ele>546.16999999999996</ele>
        <time>2016-03-21T18:52:46Z</time>
      </trkpt>
      <trkpt lat="37.92451785877347" lon="-6.710658883675933">
        <ele>542.32000000000005</ele>
        <time>2016-03-21T18:52:47Z</time>
      </trkpt>
      <trkpt lat="37.924678036943078" lon="-6.711178477853537">
        <ele>537.50999999999999</ele>
        <time>2016-03-21T18:52:48Z</time>
      </trkpt>
      <trkpt lat="37.924925051629543" lon="-6.712074922397733">
        <ele>537.02999999999997</ele>
        <time>2016-03-21T18:52:56Z</time>
      </trkpt>
      <trkpt lat="37.925058742985129" lon="-6.712619578465819">
        <ele>537.02999999999997</ele>
        <time>2016-03-21T18:52:57Z</time>
      </trkpt>
      <trkpt lat="37.925055557861924" lon="-6.712689651176333">
        <ele>533.66999999999996</ele>
        <time>2016-03-21T18:52:58Z</time>
      </trkpt>
      <trkpt lat="37.925049774348736" lon="-6.712756454944611">
        <ele>533.19000000000005</ele>
        <time>2016-03-21T18:52:59Z</time>
      </trkpt>
      <trkpt lat="37.925019515678287" lon="-6.713036494329572">
        <ele>532.71000000000004</ele>
        <time>2016-03-21T18:53:00Z</time>
      </trkpt>
      <trkpt lat="37.925015827640891" lon="-6.713111093267798">
        <ele>532.71000000000004</ele>
        <time>2016-03-21T18:53:01Z</time>
      </trkpt>
      <trkpt lat="37.92501482181251" lon="-6.713191727176309">
        <ele>532.23000000000002</ele>
        <time>2016-03-21T18:53:08Z</time>
      </trkpt>
      <trkpt lat="37.925020270049572" lon="-6.713275630027056">
        <ele>532.23000000000002</ele>
        <time>2016-03-21T18:53:21Z</time>
      </trkpt>
      <trkpt lat="37.925029657781124" lon="-6.713361376896501">
        <ele>532.23000000000002</ele>
        <time>2016-03-21T18:53:30Z</time>
      </trkpt>
      <trkpt lat="37.925124792382121" lon="-6.714600641280413">
        <ele>532.23000000000002</ele>
        <time>2016-03-21T18:53:33Z</time>
      </trkpt>
      <trkpt lat="37.925285808742046" lon="-6.715644188225269">
        <ele>532.23000000000002</ele>
        <time>2016-03-21T18:53:34Z</time>
      </trkpt>
      <trkpt lat="37.925330065190792" lon="-6.715735215693712">
        <ele>532.23000000000002</ele>
        <time>2016-03-21T18:53:35Z</time>
      </trkpt>
      <trkpt lat="37.925379266962409" lon="-6.715822471305728">
        <ele>532.23000000000002</ele>
        <time>2016-03-21T18:53:36Z</time>
      </trkpt>
      <trkpt lat="37.926076641306281" lon="-6.717082774266601">
        <ele>532.23000000000002</ele>
        <time>2016-03-21T18:53:37Z</time>
      </trkpt>
      <trkpt lat="37.926119724288583" lon="-6.717206155881286">
        <ele>532.23000000000002</ele>
        <time>2016-03-21T18:53:38Z</time>
      </trkpt>
      <trkpt lat="37.926222989335656" lon="-6.717547299340367">
        <ele>532.71000000000004</ele>
        <time>2016-03-21T18:53:39Z</time>
      </trkpt>
      <trkpt lat="37.926271269097924" lon="-6.717640673741698">
        <ele>532.71000000000004</ele>
        <time>2016-03-21T18:53:40Z</time>
      </trkpt>
      <trkpt lat="37.92632726021111" lon="-6.717722732573748">
        <ele>532.71000000000004</ele>
        <time>2016-03-21T18:53:41Z</time>
      </trkpt>
      <trkpt lat="37.92643379420042" lon="-6.717891292646527">
        <ele>532.71000000000004</ele>
        <time>2016-03-21T18:53:48Z</time>
      </trkpt>
      <trkpt lat="37.926472434774041" lon="-6.718000089749694">
        <ele>532.71000000000004</ele>
        <time>2016-03-21T18:53:58Z</time>
      </trkpt>
      <trkpt lat="37.92649632319808" lon="-6.718122297897935">
        <ele>533.19000000000005</ele>
        <time>2016-03-21T18:53:59Z</time>
      </trkpt>
      <trkpt lat="37.926502861082554" lon="-6.718255570158362">
        <ele>541.36000000000001</ele>
        <time>2016-03-21T18:54:00Z</time>
      </trkpt>
      <trkpt lat="37.926503112539649" lon="-6.718393201008439">
        <ele>549.52999999999997</ele>
        <time>2016-03-21T18:54:01Z</time>
      </trkpt>
      <trkpt lat="37.926512584090233" lon="-6.718523288145661">
        <ele>552.40999999999997</ele>
        <time>2016-03-21T18:54:02Z</time>
      </trkpt>
      <trkpt lat="37.92654175311327" lon="-6.718636611476541">
        <ele>548.57000000000005</ele>
        <time>2016-03-21T18:54:03Z</time>
      </trkpt>
      <trkpt lat="37.926590451970696" lon="-6.718726884573698">
        <ele>549.04999999999995</ele>
        <time>2016-03-21T18:54:04Z</time>
      </trkpt>
      <trkpt lat="37.926656920462847" lon="-6.718793269246817">
        <ele>563.47000000000003</ele>
        <time>2016-03-21T18:54:05Z</time>
      </trkpt>
      <trkpt lat="37.926735710352659" lon="-6.718846661970019">
        <ele>564.42999999999995</ele>
        <time>2016-03-21T18:54:06Z</time>
      </trkpt>
      <trkpt lat="37.926821624860168" lon="-6.718899132683873">
        <ele>565.38999999999999</ele>
        <time>2016-03-21T18:54:07Z</time>
      </trkpt>
      <trkpt lat="37.926908880472183" lon="-6.718967696651816">
        <ele>565.87</ele>
        <time>2016-03-21T18:54:14Z</time>
      </trkpt>
      <trkpt lat="37.926991945132613" lon="-6.719063837081194">
        <ele>566.35000000000002</ele>
        <time>2016-03-21T18:54:15Z</time>
      </trkpt>
      <trkpt lat="37.927069813013077" lon="-6.71918973326683">
        <ele>567.32000000000005</ele>
        <time>2016-03-21T18:54:16Z</time>
      </trkpt>
      <trkpt lat="37.927686050534248" lon="-6.72080609947443">
        <ele>567.79999999999995</ele>
        <time>2016-03-21T18:54:24Z</time>
      </trkpt>
      <trkpt lat="37.928009675815701" lon="-6.722211912274361">
        <ele>568.27999999999997</ele>
        <time>2016-03-21T18:54:25Z</time>
      </trkpt>
      <trkpt lat="37.928018476814032" lon="-6.724129524081945">
        <ele>568.75999999999999</ele>
        <time>2016-03-21T18:54:26Z</time>
      </trkpt>
      <trkpt lat="37.928031468763947" lon="-6.726013859733939">
        <ele>569.24000000000001</ele>
        <time>2016-03-21T18:54:27Z</time>
      </trkpt>
      <trkpt lat="37.928563468158245" lon="-6.727930968627334">
        <ele>569.72000000000003</ele>
        <time>2016-03-21T18:54:28Z</time>
      </trkpt>
      <trkpt lat="37.929848162457347" lon="-6.731742387637496">
        <ele>567.32000000000005</ele>
        <time>2016-03-21T18:54:41Z</time>
      </trkpt>
      <trkpt lat="37.929898370057344" lon="-6.73199225217104">
        <ele>563.95000000000005</ele>
        <time>2016-03-21T18:54:44Z</time>
      </trkpt>
      <trkpt lat="37.929923012852669" lon="-6.732243038713932">
        <ele>570.20000000000005</ele>
        <time>2016-03-21T18:54:45Z</time>
      </trkpt>
      <trkpt lat="37.929932819679379" lon="-6.732493573799729">
        <ele>571.63999999999999</ele>
        <time>2016-03-21T18:54:58Z</time>
      </trkpt>
      <trkpt lat="37.929929886013269" lon="-6.732749054208398">
        <ele>573.08000000000004</ele>
        <time>2016-03-21T18:55:08Z</time>
      </trkpt>
      <trkpt lat="37.929909853264689" lon="-6.733007468283176">
        <ele>574.52999999999997</ele>
        <time>2016-03-21T18:55:09Z</time>
      </trkpt>
      <trkpt lat="37.929871212691069" lon="-6.733267474919558">
        <ele>575.49000000000001</ele>
        <time>2016-03-21T18:55:10Z</time>
      </trkpt>
      <trkpt lat="37.929816395044327" lon="-6.733524380251765">
        <ele>576.45000000000005</ele>
        <time>2016-03-21T18:55:11Z</time>
      </trkpt>
      <trkpt lat="37.929738946259022" lon="-6.733774412423372">
        <ele>577.88999999999999</ele>
        <time>2016-03-21T18:55:12Z</time>
      </trkpt>
      <trkpt lat="37.92964406311512" lon="-6.734017571434379">
        <ele>585.10000000000002</ele>
        <time>2016-03-21T18:55:13Z</time>
      </trkpt>
      <trkpt lat="37.929540881887078" lon="-6.734257377684116">
        <ele>579.80999999999995</ele>
        <time>2016-03-21T18:55:14Z</time>
      </trkpt>
      <trkpt lat="37.928557014092803" lon="-6.736808326095343">
        <ele>572.60000000000002</ele>
        <time>2016-03-21T18:55:15Z</time>
      </trkpt>
      <trkpt lat="37.927647829055786" lon="-6.738744461908937">
        <ele>570.67999999999995</ele>
        <time>2016-03-21T18:55:16Z</time>
      </trkpt>
      <trkpt lat="37.926487689837813" lon="-6.740604573860765">
        <ele>568.75999999999999</ele>
        <time>2016-03-21T18:55:17Z</time>
      </trkpt>
      <trkpt lat="37.926395824179053" lon="-6.74088628962636">
        <ele>566.83000000000004</ele>
        <time>2016-03-21T18:55:19Z</time>
      </trkpt>
      <trkpt lat="37.926329439505935" lon="-6.741181332617998">
        <ele>565.38999999999999</ele>
        <time>2016-03-21T18:55:20Z</time>
      </trkpt>
      <trkpt lat="37.926288200542331" lon="-6.741484589874744">
        <ele>563.47000000000003</ele>
        <time>2016-03-21T18:55:21Z</time>
      </trkpt>
      <trkpt lat="37.926275292411447" lon="-6.741796731948853">
        <ele>561.54999999999995</ele>
        <time>2016-03-21T18:55:22Z</time>
      </trkpt>
      <trkpt lat="37.926286440342665" lon="-6.742109293118119">
        <ele>541.84000000000003</ele>
        <time>2016-03-21T18:55:23Z</time>
      </trkpt>
      <trkpt lat="37.926314519718289" lon="-6.74242252483964">
        <ele>530.78999999999996</ele>
        <time>2016-03-21T18:55:24Z</time>
      </trkpt>
      <trkpt lat="37.926262216642499" lon="-6.744552785530686">
        <ele>529.82000000000005</ele>
        <time>2016-03-21T18:55:25Z</time>
      </trkpt>
      <trkpt lat="37.925489991903305" lon="-6.748089948669076">
        <ele>521.64999999999998</ele>
        <time>2016-03-21T18:55:32Z</time>
      </trkpt>
      <trkpt lat="37.925233338028193" lon="-6.749594835564494">
        <ele>511.56</ele>
        <time>2016-03-21T18:55:33Z</time>
      </trkpt>
      <trkpt lat="37.925231410190463" lon="-6.74989121966064">
        <ele>499.54000000000002</ele>
        <time>2016-03-21T18:55:43Z</time>
      </trkpt>
      <trkpt lat="37.925256388261914" lon="-6.750186262652278">
        <ele>497.62</ele>
        <time>2016-03-21T18:55:48Z</time>
      </trkpt>
      <trkpt lat="37.92530357837677" lon="-6.750478958711028">
        <ele>495.69999999999999</ele>
        <time>2016-03-21T18:55:49Z</time>
      </trkpt>
      <trkpt lat="37.925372142344713" lon="-6.750769810751081">
        <ele>493.76999999999998</ele>
        <time>2016-03-21T18:55:50Z</time>
      </trkpt>
      <trkpt lat="37.925461828708649" lon="-6.751060243695974">
        <ele>491.85000000000002</ele>
        <time>2016-03-21T18:55:51Z</time>
      </trkpt>
      <trkpt lat="37.925566351041198" lon="-6.75135319121182">
        <ele>489.93000000000001</ele>
        <time>2016-03-21T18:55:52Z</time>
      </trkpt>
      <trkpt lat="37.926836460828781" lon="-6.754198847338557">
        <ele>488.00999999999999</ele>
        <time>2016-03-21T18:55:53Z</time>
      </trkpt>
      <trkpt lat="37.927573900669813" lon="-6.755764586851001">
        <ele>486.07999999999998</ele>
        <time>2016-03-21T18:55:54Z</time>
      </trkpt>
      <trkpt lat="37.927632154896855" lon="-6.756059462204576">
        <ele>484.63999999999999</ele>
        <time>2016-03-21T18:55:55Z</time>
      </trkpt>
      <trkpt lat="37.927668616175652" lon="-6.757900882512331">
        <ele>482.72000000000003</ele>
        <time>2016-03-21T18:55:56Z</time>
      </trkpt>
      <trkpt lat="37.92714424431324" lon="-6.759580783545971">
        <ele>481.75999999999999</ele>
        <time>2016-03-21T18:55:57Z</time>
      </trkpt>
      <trkpt lat="37.926243022084236" lon="-6.760904369875789">
        <ele>479.35000000000002</ele>
        <time>2016-03-21T18:56:09Z</time>
      </trkpt>
      <trkpt lat="37.926121233031154" lon="-6.761117018759251">
        <ele>478.38999999999999</ele>
        <time>2016-03-21T18:56:16Z</time>
      </trkpt>
      <trkpt lat="37.926030457019806" lon="-6.761337798088789">
        <ele>477.91000000000003</ele>
        <time>2016-03-21T18:56:21Z</time>
      </trkpt>
      <trkpt lat="37.925969185307622" lon="-6.761567797511816">
        <ele>475.02999999999997</ele>
        <time>2016-03-21T18:56:22Z</time>
      </trkpt>
      <trkpt lat="37.925939429551363" lon="-6.761806095018983">
        <ele>468.30000000000001</ele>
        <time>2016-03-21T18:56:23Z</time>
      </trkpt>
      <trkpt lat="37.925939178094268" lon="-6.762052355334163">
        <ele>459.64999999999998</ele>
        <time>2016-03-21T18:56:24Z</time>
      </trkpt>
      <trkpt lat="37.925967257469893" lon="-6.762303560972214">
        <ele>449.55000000000001</ele>
        <time>2016-03-21T18:56:25Z</time>
      </trkpt>
      <trkpt lat="37.926020817831159" lon="-6.762551078572869">
        <ele>444.26999999999998</ele>
        <time>2016-03-21T18:56:35Z</time>
      </trkpt>
      <trkpt lat="37.926098853349686" lon="-6.762785352766514">
        <ele>441.38</ele>
        <time>2016-03-21T18:56:45Z</time>
      </trkpt>
      <trkpt lat="37.926192143931985" lon="-6.762999845668674">
        <ele>441.38</ele>
        <time>2016-03-21T18:56:54Z</time>
      </trkpt>
      <trkpt lat="37.926291720941663" lon="-6.763193467631936">
        <ele>441.86000000000001</ele>
        <time>2016-03-21T18:56:56Z</time>
      </trkpt>
      <trkpt lat="37.926466902717948" lon="-6.763585405424237">
        <ele>441.86000000000001</ele>
        <time>2016-03-21T18:56:57Z</time>
      </trkpt>
      <trkpt lat="37.926525743678212" lon="-6.763798892498016">
        <ele>441.86000000000001</ele>
        <time>2016-03-21T18:56:58Z</time>
      </trkpt>
      <trkpt lat="37.926565641537309" lon="-6.764016402885318">
        <ele>441.86000000000001</ele>
        <time>2016-03-21T18:57:00Z</time>
      </trkpt>
      <trkpt lat="37.926811063662171" lon="-6.765652801841497">
        <ele>441.86000000000001</ele>
        <time>2016-03-21T18:57:01Z</time>
      </trkpt>
      <trkpt lat="37.926794299855828" lon="-6.767216362059116">
        <ele>441.86000000000001</ele>
        <time>2016-03-21T18:57:02Z</time>
      </trkpt>
      <trkpt lat="37.926484169438481" lon="-6.768824849277735">
        <ele>441.86000000000001</ele>
        <time>2016-03-21T18:57:03Z</time>
      </trkpt>
      <trkpt lat="37.926013860851526" lon="-6.770927449688315">
        <ele>441.38</ele>
        <time>2016-03-21T18:57:04Z</time>
      </trkpt>
      <trkpt lat="37.925651175901294" lon="-6.772490004077554">
        <ele>441.38</ele>
        <time>2016-03-21T18:57:05Z</time>
      </trkpt>
      <trkpt lat="37.925328472629189" lon="-6.773875784128904">
        <ele>440.89999999999998</ele>
        <time>2016-03-21T18:57:06Z</time>
      </trkpt>
      <trkpt lat="37.925203330814838" lon="-6.774351373314858">
        <ele>440.42000000000002</ele>
        <time>2016-03-21T18:57:07Z</time>
      </trkpt>
      <trkpt lat="37.925140131264925" lon="-6.774473330006003">
        <ele>439.94</ele>
        <time>2016-03-21T18:57:08Z</time>
      </trkpt>
      <trkpt lat="37.925059413537383" lon="-6.774574918672442">
        <ele>439.94</ele>
        <time>2016-03-21T18:57:16Z</time>
      </trkpt>
      <trkpt lat="37.924966206774116" lon="-6.774662425741553">
        <ele>439.94</ele>
        <time>2016-03-21T18:57:26Z</time>
      </trkpt>
      <trkpt lat="37.924864869564772" lon="-6.774745741859078">
        <ele>439.45999999999998</ele>
        <time>2016-03-21T18:57:34Z</time>
      </trkpt>
      <trkpt lat="37.924667056649923" lon="-6.774880606681109">
        <ele>439.45999999999998</ele>
        <time>2016-03-21T18:57:42Z</time>
      </trkpt>
      <trkpt lat="37.92456035502255" lon="-6.77490022033453">
        <ele>439.45999999999998</ele>
        <time>2016-03-21T18:57:43Z</time>
      </trkpt>
      <trkpt lat="37.924450216814876" lon="-6.774875912815332">
        <ele>439.45999999999998</ele>
        <time>2016-03-21T18:57:44Z</time>
      </trkpt>
      <trkpt lat="37.924344772472978" lon="-6.774807432666421">
        <ele>439.45999999999998</ele>
        <time>2016-03-21T18:57:53Z</time>
      </trkpt>
      <trkpt lat="37.924241088330746" lon="-6.774715650826693">
        <ele>439.45999999999998</ele>
        <time>2016-03-21T18:58:01Z</time>
      </trkpt>
      <trkpt lat="37.924141511321068" lon="-6.77461875602603">
        <ele>439.45999999999998</ele>
        <time>2016-03-21T18:58:07Z</time>
      </trkpt>
      <trkpt lat="37.923916457220912" lon="-6.774454219266772">
        <ele>439.45999999999998</ele>
        <time>2016-03-21T18:58:18Z</time>
      </trkpt>
      <trkpt lat="37.923794165253639" lon="-6.774396970868111">
        <ele>438.98000000000002</ele>
        <time>2016-03-21T18:58:25Z</time>
      </trkpt>
      <trkpt lat="37.923670196905732" lon="-6.774362688884139">
        <ele>439.45999999999998</ele>
        <time>2016-03-21T18:58:38Z</time>
      </trkpt>
      <trkpt lat="37.92354648001492" lon="-6.774363946169615">
        <ele>439.45999999999998</ele>
        <time>2016-03-21T18:58:46Z</time>
      </trkpt>
      <trkpt lat="37.923421505838633" lon="-6.774402838200331">
        <ele>439.45999999999998</ele>
        <time>2016-03-21T18:58:55Z</time>
      </trkpt>
      <trkpt lat="37.923300638794899" lon="-6.774469055235386">
        <ele>439.94</ele>
        <time>2016-03-21T18:58:56Z</time>
      </trkpt>
      <trkpt lat="37.923186728730798" lon="-6.774550611153245">
        <ele>440.42000000000002</ele>
        <time>2016-03-21T18:58:57Z</time>
      </trkpt>
      <trkpt lat="37.923078266903758" lon="-6.77463686093688">
        <ele>440.42000000000002</ele>
        <time>2016-03-21T18:58:58Z</time>
      </trkpt>
      <trkpt lat="37.922871401533484" lon="-6.774773066863418">
        <ele>440.89999999999998</ele>
        <time>2016-03-21T18:58:59Z</time>
      </trkpt>
      <trkpt lat="37.92276319116354" lon="-6.774794105440378">
        <ele>447.14999999999998</ele>
        <time>2016-03-21T18:59:00Z</time>
      </trkpt>
      <trkpt lat="37.922654058784246" lon="-6.774775246158242">
        <ele>450.02999999999997</ele>
        <time>2016-03-21T18:59:08Z</time>
      </trkpt>
      <trkpt lat="37.922548949718475" lon="-6.774719590321183">
        <ele>450.51999999999998</ele>
        <time>2016-03-21T18:59:20Z</time>
      </trkpt>
      <trkpt lat="37.922444259747863" lon="-6.774644069373608">
        <ele>451.48000000000002</ele>
        <time>2016-03-21T18:59:32Z</time>
      </trkpt>
      <trkpt lat="37.922003706917167" lon="-6.77431482821703">
        <ele>452.44</ele>
        <time>2016-03-21T18:59:44Z</time>
      </trkpt>
      <trkpt lat="37.921886527910829" lon="-6.774252885952592">
        <ele>452.92000000000002</ele>
        <time>2016-03-21T18:59:53Z</time>
      </trkpt>
      <trkpt lat="37.921760883182287" lon="-6.774217095226049">
        <ele>453.88</ele>
        <time>2016-03-21T18:59:54Z</time>
      </trkpt>
      <trkpt lat="37.921630041673779" lon="-6.774213491007686">
        <ele>454.83999999999997</ele>
        <time>2016-03-21T18:59:55Z</time>
      </trkpt>
      <trkpt lat="37.921496098861098" lon="-6.774236541241407">
        <ele>455.80000000000001</ele>
        <time>2016-03-21T19:00:02Z</time>
      </trkpt>
      <trkpt lat="37.92135939002037" lon="-6.774281552061439">
        <ele>467.33999999999997</ele>
        <time>2016-03-21T19:00:03Z</time>
      </trkpt>
      <trkpt lat="37.921220166608691" lon="-6.774338884279132">
        <ele>469.25999999999999</ele>
        <time>2016-03-21T19:00:13Z</time>
      </trkpt>
      <trkpt lat="37.919740173965693" lon="-6.775226108729839">
        <ele>470.69999999999999</ele>
        <time>2016-03-21T19:00:16Z</time>
      </trkpt>
      <trkpt lat="37.919325437396765" lon="-6.775693818926811">
        <ele>472.63</ele>
        <time>2016-03-21T19:00:25Z</time>
      </trkpt>
      <trkpt lat="37.919206917285919" lon="-6.775876712054014">
        <ele>474.06999999999999</ele>
        <time>2016-03-21T19:00:33Z</time>
      </trkpt>
      <trkpt lat="37.919102814048529" lon="-6.776071675121784">
        <ele>475.50999999999999</ele>
        <time>2016-03-21T19:00:41Z</time>
      </trkpt>
      <trkpt lat="37.919013882055879" lon="-6.776280049234629">
        <ele>486.56</ele>
        <time>2016-03-21T19:00:48Z</time>
      </trkpt>
      <trkpt lat="37.918944228440523" lon="-6.776505606248975">
        <ele>507.23000000000002</ele>
        <time>2016-03-21T19:00:57Z</time>
      </trkpt>
      <trkpt lat="37.918894523754716" lon="-6.776742897927761">
        <ele>520.21000000000004</ele>
        <time>2016-03-21T19:01:01Z</time>
      </trkpt>
      <trkpt lat="37.918865270912647" lon="-6.776987900957465">
        <ele>525.5</ele>
        <time>2016-03-21T19:01:02Z</time>
      </trkpt>
      <trkpt lat="37.918848507106304" lon="-6.777234328910708">
        <ele>526.94000000000005</ele>
        <time>2016-03-21T19:01:03Z</time>
      </trkpt>
      <trkpt lat="37.918627560138702" lon="-6.779176583513618">
        <ele>528.38</ele>
        <time>2016-03-21T19:01:04Z</time>
      </trkpt>
      <trkpt lat="37.918542735278606" lon="-6.779398284852505">
        <ele>529.82000000000005</ele>
        <time>2016-03-21T19:01:05Z</time>
      </trkpt>
      <trkpt lat="37.918438296765089" lon="-6.779606742784381">
        <ele>531.26999999999998</ele>
        <time>2016-03-21T19:01:06Z</time>
      </trkpt>
      <trkpt lat="37.918319944292307" lon="-6.779792569577694">
        <ele>532.71000000000004</ele>
        <time>2016-03-21T19:01:14Z</time>
      </trkpt>
      <trkpt lat="37.918189857155085" lon="-6.779962135478854">
        <ele>534.14999999999998</ele>
        <time>2016-03-21T19:01:26Z</time>
      </trkpt>
      <trkpt lat="37.918054489418864" lon="-6.780118625611067">
        <ele>536.07000000000005</ele>
        <time>2016-03-21T19:01:36Z</time>
      </trkpt>
      <trkpt lat="37.916967188939452" lon="-6.780889676883817">
        <ele>537.50999999999999</ele>
        <time>2016-03-21T19:01:43Z</time>
      </trkpt>
      <trkpt lat="37.914813039824367" lon="-6.782260118052363">
        <ele>541.84000000000003</ele>
        <time>2016-03-21T19:01:45Z</time>
      </trkpt>
      <trkpt lat="37.913634544238448" lon="-6.783843375742436">
        <ele>545.20000000000005</ele>
        <time>2016-03-21T19:01:46Z</time>
      </trkpt>
      <trkpt lat="37.913230452686548" lon="-6.784363137558103">
        <ele>545.20000000000005</ele>
        <time>2016-03-21T19:01:47Z</time>
      </trkpt>
      <trkpt lat="37.913074633106589" lon="-6.784506300464273">
        <ele>545.69000000000005</ele>
        <time>2016-03-21T19:01:48Z</time>
      </trkpt>
      <trkpt lat="37.912909593433142" lon="-6.784630352631211">
        <ele>545.69000000000005</ele>
        <time>2016-03-21T19:01:49Z</time>
      </trkpt>
      <trkpt lat="37.912733824923635" lon="-6.784736132249236">
        <ele>546.16999999999996</ele>
        <time>2016-03-21T19:01:50Z</time>
      </trkpt>
      <trkpt lat="37.912549758329988" lon="-6.784820035099983">
        <ele>546.64999999999998</ele>
        <time>2016-03-21T19:01:51Z</time>
      </trkpt>
      <trkpt lat="37.912358734756708" lon="-6.784884994849563">
        <ele>547.61000000000001</ele>
        <time>2016-03-21T19:01:52Z</time>
      </trkpt>
      <trkpt lat="37.912162346765399" lon="-6.784934783354402">
        <ele>547.61000000000001</ele>
        <time>2016-03-21T19:02:06Z</time>
      </trkpt>
      <trkpt lat="37.911961348727345" lon="-6.784969065338373">
        <ele>548.09000000000003</ele>
        <time>2016-03-21T19:02:20Z</time>
      </trkpt>
      <trkpt lat="37.911755908280611" lon="-6.7849953006953">
        <ele>548.09000000000003</ele>
        <time>2016-03-21T19:02:27Z</time>
      </trkpt>
      <trkpt lat="37.910287482663989" lon="-6.785527467727661">
        <ele>550.97000000000003</ele>
        <time>2016-03-21T19:02:36Z</time>
      </trkpt>
      <trkpt lat="37.908338606357574" lon="-6.786842001602054">
        <ele>551.92999999999995</ele>
        <time>2016-03-21T19:02:42Z</time>
      </trkpt>
      <trkpt lat="37.908194772899151" lon="-6.787015590816736">
        <ele>552.89999999999998</ele>
        <time>2016-03-21T19:02:48Z</time>
      </trkpt>
      <trkpt lat="37.908064434304833" lon="-6.787209883332253">
        <ele>562.02999999999997</ele>
        <time>2016-03-21T19:02:49Z</time>
      </trkpt>
      <trkpt lat="37.90794993750751" lon="-6.78742085583508">
        <ele>563.47000000000003</ele>
        <time>2016-03-21T19:02:50Z</time>
      </trkpt>
      <trkpt lat="37.907854216173291" lon="-6.787650939077139">
        <ele>564.42999999999995</ele>
        <time>2016-03-21T19:02:51Z</time>
      </trkpt>
      <trkpt lat="37.907779281958938" lon="-6.787897953763604">
        <ele>565.87</ele>
        <time>2016-03-21T19:02:52Z</time>
      </trkpt>
      <trkpt lat="37.907725805416703" lon="-6.78815477527678">
        <ele>566.83000000000004</ele>
        <time>2016-03-21T19:03:02Z</time>
      </trkpt>
      <trkpt lat="37.907698396593332" lon="-6.788424588739872">
        <ele>583.17999999999995</ele>
        <time>2016-03-21T19:03:20Z</time>
      </trkpt>
      <trkpt lat="37.907693786546588" lon="-6.788699012249708">
        <ele>587.01999999999998</ele>
        <time>2016-03-21T19:03:37Z</time>
      </trkpt>
      <trkpt lat="37.907702922821045" lon="-6.788973519578576">
        <ele>588.46000000000004</ele>
        <time>2016-03-21T19:03:43Z</time>
      </trkpt>
      <trkpt lat="37.907748939469457" lon="-6.790965562686324">
        <ele>605.76999999999998</ele>
        <time>2016-03-21T19:03:53Z</time>
      </trkpt>
      <trkpt lat="37.907698564231396" lon="-6.791251134127379">
        <ele>615.38</ele>
        <time>2016-03-21T19:04:06Z</time>
      </trkpt>
      <trkpt lat="37.907628742977977" lon="-6.791533268988133">
        <ele>615.38</ele>
        <time>2016-03-21T19:04:24Z</time>
      </trkpt>
      <trkpt lat="37.906997334212065" lon="-6.793726393952966">
        <ele>615.38</ele>
        <time>2016-03-21T19:04:33Z</time>
      </trkpt>
      <trkpt lat="37.906978894025087" lon="-6.794013977050781">
        <ele>614.89999999999998</ele>
        <time>2016-03-21T19:04:42Z</time>
      </trkpt>
      <trkpt lat="37.906984090805054" lon="-6.794308265671134">
        <ele>614.89999999999998</ele>
        <time>2016-03-21T19:05:00Z</time>
      </trkpt>
      <trkpt lat="37.907009907066822" lon="-6.794602051377296">
        <ele>614.41999999999996</ele>
        <time>2016-03-21T19:05:13Z</time>
      </trkpt>
      <trkpt lat="37.907046871259809" lon="-6.794897262006998">
        <ele>613.46000000000004</ele>
        <time>2016-03-21T19:05:25Z</time>
      </trkpt>
      <trkpt lat="37.907477449625731" lon="-6.798813035711646">
        <ele>612.98000000000002</ele>
        <time>2016-03-21T19:05:27Z</time>
      </trkpt>
      <trkpt lat="37.907461356371641" lon="-6.799637731164694">
        <ele>612.5</ele>
        <time>2016-03-21T19:05:28Z</time>
      </trkpt>
      <trkpt lat="37.907420787960291" lon="-6.799907712265849">
        <ele>612.5</ele>
        <time>2016-03-21T19:05:37Z</time>
      </trkpt>
      <trkpt lat="37.906643701717257" lon="-6.803408917039633">
        <ele>612.5</ele>
        <time>2016-03-21T19:05:56Z</time>
      </trkpt>
      <trkpt lat="37.906075492501259" lon="-6.806107889860869">
        <ele>612.01999999999998</ele>
        <time>2016-03-21T19:05:57Z</time>
      </trkpt>
      <trkpt lat="37.906064344570041" lon="-6.806379212066531">
        <ele>611.53999999999996</ele>
        <time>2016-03-21T19:05:58Z</time>
      </trkpt>
      <trkpt lat="37.906074821949005" lon="-6.806653384119272">
        <ele>611.05999999999995</ele>
        <time>2016-03-21T19:05:59Z</time>
      </trkpt>
      <trkpt lat="37.906103488057852" lon="-6.806921605020762">
        <ele>610.57000000000005</ele>
        <time>2016-03-21T19:06:09Z</time>
      </trkpt>
      <trkpt lat="37.90614690631628" lon="-6.807180857285857">
        <ele>610.57000000000005</ele>
        <time>2016-03-21T19:06:16Z</time>
      </trkpt>
      <trkpt lat="37.906213123351336" lon="-6.807431560009718">
        <ele>610.57000000000005</ele>
        <time>2016-03-21T19:06:31Z</time>
      </trkpt>
      <trkpt lat="37.906299876049161" lon="-6.807671869173646">
        <ele>616.34000000000003</ele>
        <time>2016-03-21T19:06:40Z</time>
      </trkpt>
      <trkpt lat="37.906411271542311" lon="-6.807898851111531">
        <ele>617.77999999999997</ele>
        <time>2016-03-21T19:06:53Z</time>
      </trkpt>
      <trkpt lat="37.906551836058497" lon="-6.808111919090152">
        <ele>629.32000000000005</ele>
        <time>2016-03-21T19:07:06Z</time>
      </trkpt>
      <trkpt lat="37.906699860468507" lon="-6.808305876329541">
        <ele>637.49000000000001</ele>
        <time>2016-03-21T19:07:08Z</time>
      </trkpt>
      <trkpt lat="37.907030275091529" lon="-6.80864249356091">
        <ele>639.40999999999997</ele>
        <time>2016-03-21T19:07:09Z</time>
      </trkpt>
      <trkpt lat="37.90721501223743" lon="-6.808772580698133">
        <ele>640.86000000000001</ele>
        <time>2016-03-21T19:07:10Z</time>
      </trkpt>
      <trkpt lat="37.907410813495517" lon="-6.808884060010314">
        <ele>642.29999999999995</ele>
        <time>2016-03-21T19:07:11Z</time>
      </trkpt>
      <trkpt lat="37.907619019970298" lon="-6.808972069993615">
        <ele>643.74000000000001</ele>
        <time>2016-03-21T19:07:12Z</time>
      </trkpt>
      <trkpt lat="37.907836614176631" lon="-6.809036443009973">
        <ele>645.17999999999995</ele>
        <time>2016-03-21T19:07:13Z</time>
      </trkpt>
      <trkpt lat="37.90805789642036" lon="-6.809074664488435">
        <ele>647.10000000000002</ele>
        <time>2016-03-21T19:07:14Z</time>
      </trkpt>
      <trkpt lat="37.908281106501818" lon="-6.80910031311214">
        <ele>648.54999999999995</ele>
        <time>2016-03-21T19:07:20Z</time>
      </trkpt>
      <trkpt lat="37.909746514633298" lon="-6.80940818041563">
        <ele>649.99000000000001</ele>
        <time>2016-03-21T19:07:21Z</time>
      </trkpt>
      <trkpt lat="37.909927731379867" lon="-6.809517228975892">
        <ele>651.90999999999997</ele>
        <time>2016-03-21T19:07:22Z</time>
      </trkpt>
      <trkpt lat="37.911649039015174" lon="-6.810874342918396">
        <ele>669.70000000000005</ele>
        <time>2016-03-21T19:07:23Z</time>
      </trkpt>
      <trkpt lat="37.912477338686585" lon="-6.811609184369445">
        <ele>676.90999999999997</ele>
        <time>2016-03-21T19:07:24Z</time>
      </trkpt>
      <trkpt lat="37.912616394460201" lon="-6.81178973056376">
        <ele>679.30999999999995</ele>
        <time>2016-03-21T19:07:25Z</time>
      </trkpt>
      <trkpt lat="37.912741200998425" lon="-6.811986705288291">
        <ele>679.30999999999995</ele>
        <time>2016-03-21T19:07:41Z</time>
      </trkpt>
      <trkpt lat="37.912853015586734" lon="-6.812198432162404">
        <ele>679.78999999999996</ele>
        <time>2016-03-21T19:07:44Z</time>
      </trkpt>
      <trkpt lat="37.912951670587063" lon="-6.812421642243862">
        <ele>679.78999999999996</ele>
        <time>2016-03-21T19:07:45Z</time>
      </trkpt>
      <trkpt lat="37.913038339465857" lon="-6.812650887295604">
        <ele>679.78999999999996</ele>
        <time>2016-03-21T19:07:46Z</time>
      </trkpt>
      <trkpt lat="37.913106987252831" lon="-6.812888011336327">
        <ele>676.90999999999997</ele>
        <time>2016-03-21T19:07:47Z</time>
      </trkpt>
      <trkpt lat="37.913157613947988" lon="-6.813129996880889">
        <ele>671.62</ele>
        <time>2016-03-21T19:07:48Z</time>
      </trkpt>
      <trkpt lat="37.913190722465515" lon="-6.813376005738974">
        <ele>665.85000000000002</ele>
        <time>2016-03-21T19:07:49Z</time>
      </trkpt>
      <trkpt lat="37.9132139403373" lon="-6.813620757311583">
        <ele>664.88999999999999</ele>
        <time>2016-03-21T19:07:53Z</time>
      </trkpt>
      <trkpt lat="37.913350313901901" lon="-6.816484853625298">
        <ele>664.88999999999999</ele>
        <time>2016-03-21T19:07:54Z</time>
      </trkpt>
      <trkpt lat="37.913429187610745" lon="-6.8176210206002">
        <ele>664.40999999999997</ele>
        <time>2016-03-21T19:07:55Z</time>
      </trkpt>
      <trkpt lat="37.913538236171007" lon="-6.818216219544411">
        <ele>662.97000000000003</ele>
        <time>2016-03-21T19:07:56Z</time>
      </trkpt>
      <trkpt lat="37.913573607802391" lon="-6.818317640572786">
        <ele>662.49000000000001</ele>
        <time>2016-03-21T19:07:57Z</time>
      </trkpt>
      <trkpt lat="37.913621719926596" lon="-6.818416547030211">
        <ele>662.00999999999999</ele>
        <time>2016-03-21T19:07:58Z</time>
      </trkpt>
      <trkpt lat="37.913680644705892" lon="-6.818517632782459">
        <ele>661.51999999999998</ele>
        <time>2016-03-21T19:08:09Z</time>
      </trkpt>
      <trkpt lat="37.913745939731598" lon="-6.818622825667262">
        <ele>660.55999999999995</ele>
        <time>2016-03-21T19:08:23Z</time>
      </trkpt>
      <trkpt lat="37.914513805881143" lon="-6.819861084222794">
        <ele>660.08000000000004</ele>
        <time>2016-03-21T19:08:34Z</time>
      </trkpt>
      <trkpt lat="37.915319809690118" lon="-6.821141000837088">
        <ele>659.12</ele>
        <time>2016-03-21T19:08:36Z</time>
      </trkpt>
      <trkpt lat="37.915799589827657" lon="-6.822523344308138">
        <ele>658.63999999999999</ele>
        <time>2016-03-21T19:08:37Z</time>
      </trkpt>
      <trkpt lat="37.915870165452361" lon="-6.82272425852716">
        <ele>658.15999999999997</ele>
        <time>2016-03-21T19:08:38Z</time>
      </trkpt>
      <trkpt lat="37.915915763005614" lon="-6.822804138064385">
        <ele>652.38999999999999</ele>
        <time>2016-03-21T19:08:46Z</time>
      </trkpt>
      <trkpt lat="37.915973765775561" lon="-6.822862308472395">
        <ele>640.86000000000001</ele>
        <time>2016-03-21T19:08:48Z</time>
      </trkpt>
      <trkpt lat="37.916090525686741" lon="-6.822954593226314">
        <ele>634.13</ele>
        <time>2016-03-21T19:08:49Z</time>
      </trkpt>
      <trkpt lat="37.916130088269711" lon="-6.823029946535826">
        <ele>627.88</ele>
        <time>2016-03-21T19:08:50Z</time>
      </trkpt>
      <trkpt lat="37.916157077997923" lon="-6.823119632899761">
        <ele>626.91999999999996</ele>
        <time>2016-03-21T19:08:51Z</time>
      </trkpt>
      <trkpt lat="37.916158586740494" lon="-6.823209822177887">
        <ele>626.44000000000005</ele>
        <time>2016-03-21T19:08:52Z</time>
      </trkpt>
      <trkpt lat="37.916156575083733" lon="-6.823297999799252">
        <ele>622.59000000000003</ele>
        <time>2016-03-21T19:08:53Z</time>
      </trkpt>
      <trkpt lat="37.916102092713118" lon="-6.823395062237978">
        <ele>621.14999999999998</ele>
        <time>2016-03-21T19:08:54Z</time>
      </trkpt>
      <trkpt lat="37.91608071886003" lon="-6.823497824370861">
        <ele>621.63</ele>
        <time>2016-03-21T19:09:04Z</time>
      </trkpt>
      <trkpt lat="37.916074432432652" lon="-6.823608968406916">
        <ele>618.25999999999999</ele>
        <time>2016-03-21T19:09:09Z</time>
      </trkpt>
      <trkpt lat="37.916092034429312" lon="-6.823728661984205">
        <ele>618.25999999999999</ele>
        <time>2016-03-21T19:09:10Z</time>
      </trkpt>
      <trkpt lat="37.916330667212605" lon="-6.8250379152596">
        <ele>612.01999999999998</ele>
        <time>2016-03-21T19:09:11Z</time>
      </trkpt>
      <trkpt lat="37.916873563081026" lon="-6.827186616137624">
        <ele>604.33000000000004</ele>
        <time>2016-03-21T19:09:12Z</time>
      </trkpt>
      <trkpt lat="37.917914260178804" lon="-6.828926615417004">
        <ele>596.14999999999998</ele>
        <time>2016-03-21T19:09:13Z</time>
      </trkpt>
      <trkpt lat="37.918745493516326" lon="-6.830558823421598">
        <ele>594.71000000000004</ele>
        <time>2016-03-21T19:09:14Z</time>
      </trkpt>
      <trkpt lat="37.918805927038193" lon="-6.830801730975509">
        <ele>593.75</ele>
        <time>2016-03-21T19:09:15Z</time>
      </trkpt>
      <trkpt lat="37.918849010020494" lon="-6.831053690984845">
        <ele>592.78999999999996</ele>
        <time>2016-03-21T19:09:16Z</time>
      </trkpt>
      <trkpt lat="37.919100802391768" lon="-6.833262406289578">
        <ele>591.83000000000004</ele>
        <time>2016-03-21T19:09:23Z</time>
      </trkpt>
      <trkpt lat="37.919810079038143" lon="-6.83495270088315">
        <ele>590.38999999999999</ele>
        <time>2016-03-21T19:09:24Z</time>
      </trkpt>
      <trkpt lat="37.920608120039105" lon="-6.835994403809309">
        <ele>579.33000000000004</ele>
        <time>2016-03-21T19:09:25Z</time>
      </trkpt>
      <trkpt lat="37.922541322186589" lon="-6.837760638445616">
        <ele>561.54999999999995</ele>
        <time>2016-03-21T19:09:26Z</time>
      </trkpt>
      <trkpt lat="37.923622922971845" lon="-6.839235350489616">
        <ele>546.16999999999996</ele>
        <time>2016-03-21T19:09:27Z</time>
      </trkpt>
      <trkpt lat="37.925468115136027" lon="-6.842190474271774">
        <ele>527.41999999999996</ele>
        <time>2016-03-21T19:09:41Z</time>
      </trkpt>
      <trkpt lat="37.926456509158015" lon="-6.843974310904741">
        <ele>517.80999999999995</ele>
        <time>2016-03-21T19:09:47Z</time>
      </trkpt>
      <trkpt lat="37.92725371196866" lon="-6.846118653193116">
        <ele>516.85000000000002</ele>
        <time>2016-03-21T19:09:48Z</time>
      </trkpt>
      <trkpt lat="37.927386146038771" lon="-6.846311520785093">
        <ele>516.37</ele>
        <time>2016-03-21T19:09:49Z</time>
      </trkpt>
      <trkpt lat="37.927528051659465" lon="-6.846484690904617">
        <ele>511.56</ele>
        <time>2016-03-21T19:10:00Z</time>
      </trkpt>
      <trkpt lat="37.927681440487504" lon="-6.846642186865211">
        <ele>511.07999999999998</ele>
        <time>2016-03-21T19:10:15Z</time>
      </trkpt>
      <trkpt lat="37.927842205390334" lon="-6.846784930676222">
        <ele>511.07999999999998</ele>
        <time>2016-03-21T19:10:17Z</time>
      </trkpt>
      <trkpt lat="37.928012190386653" lon="-6.846914933994412">
        <ele>513</ele>
        <time>2016-03-21T19:10:18Z</time>
      </trkpt>
      <trkpt lat="37.929396713152528" lon="-6.848190240561962">
        <ele>519.25</ele>
        <time>2016-03-21T19:10:19Z</time>
      </trkpt>
      <trkpt lat="37.931457404047251" lon="-6.850683856755495">
        <ele>515.39999999999998</ele>
        <time>2016-03-21T19:10:20Z</time>
      </trkpt>
      <trkpt lat="37.933193044736981" lon="-6.853800248354673">
        <ele>509.63999999999999</ele>
        <time>2016-03-21T19:10:21Z</time>
      </trkpt>
      <trkpt lat="37.934756185859442" lon="-6.857041362673044">
        <ele>506.26999999999998</ele>
        <time>2016-03-21T19:10:22Z</time>
      </trkpt>
      <trkpt lat="37.935794787481427" lon="-6.859468845650554">
        <ele>501.94999999999999</ele>
        <time>2016-03-21T19:10:23Z</time>
      </trkpt>
      <trkpt lat="37.935946080833673" lon="-6.859664898365736">
        <ele>499.06</ele>
        <time>2016-03-21T19:10:27Z</time>
      </trkpt>
      <trkpt lat="37.936112293973565" lon="-6.859847204759717">
        <ele>498.57999999999998</ele>
        <time>2016-03-21T19:10:28Z</time>
      </trkpt>
      <trkpt lat="37.937305541709065" lon="-6.861100718379021">
        <ele>498.10000000000002</ele>
        <time>2016-03-21T19:10:29Z</time>
      </trkpt>
      <trkpt lat="37.937429929152131" lon="-6.861329209059477">
        <ele>497.62</ele>
        <time>2016-03-21T19:10:30Z</time>
      </trkpt>
      <trkpt lat="37.938637174665928" lon="-6.863795500248671">
        <ele>497.13999999999999</ele>
        <time>2016-03-21T19:10:31Z</time>
      </trkpt>
      <trkpt lat="37.93897295370698" lon="-6.864491449669004">
        <ele>496.66000000000003</ele>
        <time>2016-03-21T19:10:32Z</time>
      </trkpt>
      <trkpt lat="37.939699245616794" lon="-6.86669890768826">
        <ele>490.88999999999999</ele>
        <time>2016-03-21T19:10:33Z</time>
      </trkpt>
      <trkpt lat="37.940045418217778" lon="-6.86872229911387">
        <ele>479.83999999999997</ele>
        <time>2016-03-21T19:10:34Z</time>
      </trkpt>
      <trkpt lat="37.93982857838273" lon="-6.871024388819933">
        <ele>469.74000000000001</ele>
        <time>2016-03-21T19:10:35Z</time>
      </trkpt>
      <trkpt lat="37.940039718523622" lon="-6.872876873239875">
        <ele>460.13</ele>
        <time>2016-03-21T19:10:36Z</time>
      </trkpt>
      <trkpt lat="37.940426962450147" lon="-6.8751619476825">
        <ele>456.75999999999999</ele>
        <time>2016-03-21T19:10:37Z</time>
      </trkpt>
      <trkpt lat="37.940470799803734" lon="-6.876071803271771">
        <ele>455.31999999999999</ele>
        <time>2016-03-21T19:10:38Z</time>
      </trkpt>
      <trkpt lat="37.940517654642463" lon="-6.876298282295466">
        <ele>453.88</ele>
        <time>2016-03-21T19:10:49Z</time>
      </trkpt>
      <trkpt lat="37.940583452582359" lon="-6.876523504033685">
        <ele>452.44</ele>
        <time>2016-03-21T19:11:08Z</time>
      </trkpt>
      <trkpt lat="37.940670289099216" lon="-6.876745792105794">
        <ele>451</ele>
        <time>2016-03-21T19:11:14Z</time>
      </trkpt>
      <trkpt lat="37.9407764878124" lon="-6.876962967216969">
        <ele>449.55000000000001</ele>
        <time>2016-03-21T19:11:22Z</time>
      </trkpt>
      <trkpt lat="37.940896516665816" lon="-6.877175867557526">
        <ele>448.11000000000001</ele>
        <time>2016-03-21T19:11:35Z</time>
      </trkpt>
      <trkpt lat="37.941773934289813" lon="-6.879096832126379">
        <ele>446.19</ele>
        <time>2016-03-21T19:11:42Z</time>
      </trkpt>
      <trkpt lat="37.942859558388591" lon="-6.882655033841729">
        <ele>425.51999999999998</ele>
        <time>2016-03-21T19:11:51Z</time>
      </trkpt>
      <trkpt lat="37.943770000711083" lon="-6.885374207049608">
        <ele>408.69999999999999</ele>
        <time>2016-03-21T19:11:59Z</time>
      </trkpt>
      <trkpt lat="37.944845566526055" lon="-6.886765938252211">
        <ele>400.52999999999997</ele>
        <time>2016-03-21T19:12:12Z</time>
      </trkpt>
      <trkpt lat="37.945122085511684" lon="-6.887147901579738">
        <ele>388.99000000000001</ele>
        <time>2016-03-21T19:12:14Z</time>
      </trkpt>
      <trkpt lat="37.94523767195642" lon="-6.887357868254185">
        <ele>380.81999999999999</ele>
        <time>2016-03-21T19:12:15Z</time>
      </trkpt>
      <trkpt lat="37.945334566757083" lon="-6.887581665068865">
        <ele>374.56999999999999</ele>
        <time>2016-03-21T19:12:23Z</time>
      </trkpt>
      <trkpt lat="37.945413859561086" lon="-6.887817950919271">
        <ele>373.13</ele>
        <time>2016-03-21T19:12:28Z</time>
      </trkpt>
      <trkpt lat="37.945477562025189" lon="-6.888062031939626">
        <ele>372.17000000000002</ele>
        <time>2016-03-21T19:12:29Z</time>
      </trkpt>
      <trkpt lat="37.945524668321013" lon="-6.888314830139279">
        <ele>371.20999999999998</ele>
        <time>2016-03-21T19:12:30Z</time>
      </trkpt>
      <trkpt lat="37.945554172620177" lon="-6.8885796982795">
        <ele>370.24000000000001</ele>
        <time>2016-03-21T19:12:31Z</time>
      </trkpt>
      <trkpt lat="37.945573115721345" lon="-6.888852193951607">
        <ele>357.26999999999998</ele>
        <time>2016-03-21T19:12:32Z</time>
      </trkpt>
      <trkpt lat="37.945961197838187" lon="-6.892643244937062">
        <ele>339</ele>
        <time>2016-03-21T19:12:42Z</time>
      </trkpt>
      <trkpt lat="37.946365876123309" lon="-6.896647196263075">
        <ele>327.94999999999999</ele>
        <time>2016-03-21T19:12:58Z</time>
      </trkpt>
      <trkpt lat="37.946795364841819" lon="-6.898531280457974">
        <ele>321.69999999999999</ele>
        <time>2016-03-21T19:13:08Z</time>
      </trkpt>
      <trkpt lat="37.94728553853929" lon="-6.900660619139671">
        <ele>314.97000000000003</ele>
        <time>2016-03-21T19:13:14Z</time>
      </trkpt>
      <trkpt lat="37.947012623772025" lon="-6.902102557942271">
        <ele>302.94999999999999</ele>
        <time>2016-03-21T19:13:15Z</time>
      </trkpt>
      <trkpt lat="37.946583051234484" lon="-6.903523039072752">
        <ele>302.94999999999999</ele>
        <time>2016-03-21T19:13:22Z</time>
      </trkpt>
      <trkpt lat="37.946553630754352" lon="-6.903771311044693">
        <ele>304.38999999999999</ele>
        <time>2016-03-21T19:13:23Z</time>
      </trkpt>
      <trkpt lat="37.946540890261531" lon="-6.904024360701442">
        <ele>304.38999999999999</ele>
        <time>2016-03-21T19:13:24Z</time>
      </trkpt>
      <trkpt lat="37.946542985737324" lon="-6.904282858595252">
        <ele>311.60000000000002</ele>
        <time>2016-03-21T19:13:25Z</time>
      </trkpt>
      <trkpt lat="37.946556229144335" lon="-6.904545463621616">
        <ele>322.66000000000003</ele>
        <time>2016-03-21T19:13:26Z</time>
      </trkpt>
      <trkpt lat="37.946810200810432" lon="-6.907456163316965">
        <ele>319.77999999999997</ele>
        <time>2016-03-21T19:13:36Z</time>
      </trkpt>
      <trkpt lat="37.947288053110242" lon="-6.913207406178117">
        <ele>319.30000000000001</ele>
        <time>2016-03-21T19:13:45Z</time>
      </trkpt>
      <trkpt lat="37.947731539607048" lon="-6.918770978227258">
        <ele>319.30000000000001</ele>
        <time>2016-03-21T19:14:04Z</time>
      </trkpt>
      <trkpt lat="37.948060780763626" lon="-6.920443419367075">
        <ele>317.37</ele>
        <time>2016-03-21T19:14:21Z</time>
      </trkpt>
      <trkpt lat="37.94915939681232" lon="-6.923160664737225">
        <ele>318.32999999999998</ele>
        <time>2016-03-21T19:14:37Z</time>
      </trkpt>
      <trkpt lat="37.950699403882027" lon="-6.9268764462322">
        <ele>318.32999999999998</ele>
        <time>2016-03-21T19:14:53Z</time>
      </trkpt>
      <trkpt lat="37.952884314581752" lon="-6.932067610323429">
        <ele>318.32999999999998</ele>
        <time>2016-03-21T19:15:04Z</time>
      </trkpt>
      <trkpt lat="37.953814873471856" lon="-6.934483023360372">
        <ele>318.32999999999998</ele>
        <time>2016-03-21T19:15:14Z</time>
      </trkpt>
      <trkpt lat="37.954273615032434" lon="-6.937101194635034">
        <ele>321.69999999999999</ele>
        <time>2016-03-21T19:15:27Z</time>
      </trkpt>
      <trkpt lat="37.95522035099566" lon="-6.942572649568319">
        <ele>324.10000000000002</ele>
        <time>2016-03-21T19:15:47Z</time>
      </trkpt>
      <trkpt lat="37.955841701477766" lon="-6.946370992809534">
        <ele>325.06</ele>
        <time>2016-03-21T19:16:02Z</time>
      </trkpt>
      <trkpt lat="37.9561663325876" lon="-6.949809920042753">
        <ele>327.94999999999999</ele>
        <time>2016-03-21T19:16:17Z</time>
      </trkpt>
      <trkpt lat="37.95615560375154" lon="-6.950335716828704">
        <ele>326.5</ele>
        <time>2016-03-21T19:16:31Z</time>
      </trkpt>
      <trkpt lat="37.956121740862727" lon="-6.950593292713165">
        <ele>333.23000000000002</ele>
        <time>2016-03-21T19:16:36Z</time>
      </trkpt>
      <trkpt lat="37.955811442807317" lon="-6.952942991629243">
        <ele>334.19999999999999</ele>
        <time>2016-03-21T19:16:37Z</time>
      </trkpt>
      <trkpt lat="37.955812364816666" lon="-6.958243288099766">
        <ele>334.68000000000001</ele>
        <time>2016-03-21T19:16:38Z</time>
      </trkpt>
      <trkpt lat="37.955844299867749" lon="-6.958506228402257">
        <ele>334.68000000000001</ele>
        <time>2016-03-21T19:16:39Z</time>
      </trkpt>
      <trkpt lat="37.95589366927743" lon="-6.958765732124448">
        <ele>335.16000000000003</ele>
        <time>2016-03-21T19:16:40Z</time>
      </trkpt>
      <trkpt lat="37.955956952646375" lon="-6.959024481475353">
        <ele>335.16000000000003</ele>
        <time>2016-03-21T19:16:47Z</time>
      </trkpt>
      <trkpt lat="37.95674929395318" lon="-6.961558079347014">
        <ele>335.16000000000003</ele>
        <time>2016-03-21T19:16:48Z</time>
      </trkpt>
      <trkpt lat="37.957007624208927" lon="-6.963321967050433">
        <ele>335.16000000000003</ele>
        <time>2016-03-21T19:16:56Z</time>
      </trkpt>
      <trkpt lat="37.957230834290385" lon="-6.967595061287284">
        <ele>335.63999999999999</ele>
        <time>2016-03-21T19:17:02Z</time>
      </trkpt>
      <trkpt lat="37.957421271130443" lon="-6.96995641104877">
        <ele>335.63999999999999</ele>
        <time>2016-03-21T19:17:14Z</time>
      </trkpt>
      <trkpt lat="37.958302544429898" lon="-6.973291905596852">
        <ele>336.12</ele>
        <time>2016-03-21T19:17:15Z</time>
      </trkpt>
      <trkpt lat="37.959306696429849" lon="-6.976704346016049">
        <ele>336.60000000000002</ele>
        <time>2016-03-21T19:17:16Z</time>
      </trkpt>
      <trkpt lat="37.959559746086597" lon="-6.97710013948381">
        <ele>336.60000000000002</ele>
        <time>2016-03-21T19:17:17Z</time>
      </trkpt>
      <trkpt lat="37.959712045267224" lon="-6.977274566888809">
        <ele>337.07999999999998</ele>
        <time>2016-03-21T19:17:18Z</time>
      </trkpt>
      <trkpt lat="37.959877420216799" lon="-6.977427117526531">
        <ele>340.92000000000002</ele>
        <time>2016-03-21T19:17:19Z</time>
      </trkpt>
      <trkpt lat="37.960050674155354" lon="-6.977558294311166">
        <ele>340.92000000000002</ele>
        <time>2016-03-21T19:17:28Z</time>
      </trkpt>
      <trkpt lat="37.960232309997082" lon="-6.977670276537538">
        <ele>340.44</ele>
        <time>2016-03-21T19:17:29Z</time>
      </trkpt>
      <trkpt lat="37.960422327741981" lon="-6.977767841890454">
        <ele>340.44</ele>
        <time>2016-03-21T19:17:30Z</time>
      </trkpt>
      <trkpt lat="37.960618464276195" lon="-6.977855013683438">
        <ele>339.95999999999998</ele>
        <time>2016-03-21T19:17:40Z</time>
      </trkpt>
      <trkpt lat="37.961723282933235" lon="-6.978383995592594">
        <ele>339</ele>
        <time>2016-03-21T19:17:53Z</time>
      </trkpt>
      <trkpt lat="37.961889160797" lon="-6.978525398299098">
        <ele>338.51999999999998</ele>
        <time>2016-03-21T19:18:05Z</time>
      </trkpt>
      <trkpt lat="37.962045734748244" lon="-6.97868574410677">
        <ele>337.07999999999998</ele>
        <time>2016-03-21T19:18:09Z</time>
      </trkpt>
      <trkpt lat="37.962192418053746" lon="-6.978862015530467">
        <ele>336.12</ele>
        <time>2016-03-21T19:18:10Z</time>
      </trkpt>
      <trkpt lat="37.962331892922521" lon="-6.97905127890408">
        <ele>335.63999999999999</ele>
        <time>2016-03-21T19:18:11Z</time>
      </trkpt>
      <trkpt lat="37.962468098849058" lon="-6.979253282770515">
        <ele>335.16000000000003</ele>
        <time>2016-03-21T19:18:12Z</time>
      </trkpt>
      <trkpt lat="37.964610429480672" lon="-6.982610402628779">
        <ele>334.19999999999999</ele>
        <time>2016-03-21T19:18:13Z</time>
      </trkpt>
      <trkpt lat="37.964955428615212" lon="-6.983236530795693">
        <ele>333.70999999999998</ele>
        <time>2016-03-21T19:18:14Z</time>
      </trkpt>
      <trkpt lat="37.965044276788831" lon="-6.983469044789672">
        <ele>324.57999999999998</ele>
        <time>2016-03-21T19:18:15Z</time>
      </trkpt>
      <trkpt lat="37.965115690603852" lon="-6.983711281791329">
        <ele>313.05000000000001</ele>
        <time>2016-03-21T19:18:16Z</time>
      </trkpt>
      <trkpt lat="37.965168748050928" lon="-6.983964163810015">
        <ele>307.75999999999999</ele>
        <time>2016-03-21T19:18:17Z</time>
      </trkpt>
      <trkpt lat="37.965207975357771" lon="-6.984225260093808">
        <ele>307.27999999999997</ele>
        <time>2016-03-21T19:18:18Z</time>
      </trkpt>
      <trkpt lat="37.965237060561776" lon="-6.984488954767585">
        <ele>306.31999999999999</ele>
        <time>2016-03-21T19:18:19Z</time>
      </trkpt>
      <trkpt lat="37.965329261496663" lon="-6.985552115365863">
        <ele>305.83999999999997</ele>
        <time>2016-03-21T19:18:23Z</time>
      </trkpt>
      <trkpt lat="37.965379469096661" lon="-6.985813463106751">
        <ele>302.47000000000003</ele>
        <time>2016-03-21T19:18:24Z</time>
      </trkpt>
      <trkpt lat="37.965446105226874" lon="-6.986071206629276">
        <ele>302.47000000000003</ele>
        <time>2016-03-21T19:18:25Z</time>
      </trkpt>
      <trkpt lat="37.965532774105668" lon="-6.986322579905391">
        <ele>301.99000000000001</ele>
        <time>2016-03-21T19:18:26Z</time>
      </trkpt>
      <trkpt lat="37.965639056637883" lon="-6.986563224345446">
        <ele>301.99000000000001</ele>
        <time>2016-03-21T19:18:27Z</time>
      </trkpt>
      <trkpt lat="37.965758331120014" lon="-6.986798923462629">
        <ele>301.50999999999999</ele>
        <time>2016-03-21T19:18:28Z</time>
      </trkpt>
      <trkpt lat="37.967243772000074" lon="-6.989342579618096">
        <ele>301.02999999999997</ele>
        <time>2016-03-21T19:18:29Z</time>
      </trkpt>
      <trkpt lat="37.969418037682772" lon="-6.992393843829632">
        <ele>300.55000000000001</ele>
        <time>2016-03-21T19:18:30Z</time>
      </trkpt>
      <trkpt lat="37.97095812857151" lon="-6.994807831943035">
        <ele>300.06999999999999</ele>
        <time>2016-03-21T19:18:31Z</time>
      </trkpt>
      <trkpt lat="37.971130460500717" lon="-6.995260706171393">
        <ele>294.30000000000001</ele>
        <time>2016-03-21T19:18:32Z</time>
      </trkpt>
      <trkpt lat="37.971194749698043" lon="-6.995510403066874">
        <ele>291.89999999999998</ele>
        <time>2016-03-21T19:18:33Z</time>
      </trkpt>
      <trkpt lat="37.971243280917406" lon="-6.995774349197745">
        <ele>291.42000000000002</ele>
        <time>2016-03-21T19:18:34Z</time>
      </trkpt>
      <trkpt lat="37.971384013071656" lon="-6.997900251299143">
        <ele>290.94</ele>
        <time>2016-03-21T19:18:35Z</time>
      </trkpt>
      <trkpt lat="37.971328357234597" lon="-6.998408949002624">
        <ele>289.97000000000003</ele>
        <time>2016-03-21T19:18:36Z</time>
      </trkpt>
      <trkpt lat="37.971267672255635" lon="-6.99865797534585">
        <ele>289.49000000000001</ele>
        <time>2016-03-21T19:18:37Z</time>
      </trkpt>
      <trkpt lat="37.971188211813569" lon="-6.998900296166539">
        <ele>288.52999999999997</ele>
        <time>2016-03-21T19:18:38Z</time>
      </trkpt>
      <trkpt lat="37.971092239022255" lon="-6.999135743826628">
        <ele>288.05000000000001</ele>
        <time>2016-03-21T19:18:39Z</time>
      </trkpt>
      <trkpt lat="37.970978748053312" lon="-6.999365240335465">
        <ele>287.08999999999997</ele>
        <time>2016-03-21T19:18:47Z</time>
      </trkpt>
      <trkpt lat="37.970849666744471" lon="-6.999588701874018">
        <ele>281.80000000000001</ele>
        <time>2016-03-21T19:18:55Z</time>
      </trkpt>
      <trkpt lat="37.970709605142474" lon="-6.999806798994541">
        <ele>281.31999999999999</ele>
        <time>2016-03-21T19:19:03Z</time>
      </trkpt>
      <trkpt lat="37.969169849529862" lon="-7.002071756869555">
        <ele>280.83999999999997</ele>
        <time>2016-03-21T19:19:11Z</time>
      </trkpt>
      <trkpt lat="37.968645477667451" lon="-7.003178922459483">
        <ele>279.88</ele>
        <time>2016-03-21T19:19:26Z</time>
      </trkpt>
      <trkpt lat="37.968589570373297" lon="-7.003417555242777">
        <ele>279.39999999999998</ele>
        <time>2016-03-21T19:19:33Z</time>
      </trkpt>
      <trkpt lat="37.968549923971295" lon="-7.003664989024401">
        <ele>275.56</ele>
        <time>2016-03-21T19:19:42Z</time>
      </trkpt>
      <trkpt lat="37.968526287004352" lon="-7.003918793052435">
        <ele>280.36000000000001</ele>
        <time>2016-03-21T19:19:52Z</time>
      </trkpt>
      <trkpt lat="37.968521928414702" lon="-7.004178464412689">
        <ele>281.31999999999999</ele>
        <time>2016-03-21T19:19:59Z</time>
      </trkpt>
      <trkpt lat="37.968533579260111" lon="-7.004443919286132">
        <ele>281.80000000000001</ele>
        <time>2016-03-21T19:20:00Z</time>
      </trkpt>
      <trkpt lat="37.968563251197338" lon="-7.004708033055067">
        <ele>284.20999999999998</ele>
        <time>2016-03-21T19:20:01Z</time>
      </trkpt>
      <trkpt lat="37.96860926784575" lon="-7.004976086318493">
        <ele>279.88</ele>
        <time>2016-03-21T19:20:05Z</time>
      </trkpt>
      <trkpt lat="37.96893322840333" lon="-7.006840305402875">
        <ele>278.44</ele>
        <time>2016-03-21T19:20:06Z</time>
      </trkpt>
      <trkpt lat="37.96893272548914" lon="-7.007106933742762">
        <ele>277.95999999999998</ele>
        <time>2016-03-21T19:20:07Z</time>
      </trkpt>
      <trkpt lat="37.968913614749908" lon="-7.007372472435236">
        <ele>277.48000000000002</ele>
        <time>2016-03-21T19:20:08Z</time>
      </trkpt>
      <trkpt lat="37.968875141814351" lon="-7.007638514041901">
        <ele>277.48000000000002</ele>
        <time>2016-03-21T19:20:09Z</time>
      </trkpt>
      <trkpt lat="37.968821246176958" lon="-7.007906651124358">
        <ele>277</ele>
        <time>2016-03-21T19:20:10Z</time>
      </trkpt>
      <trkpt lat="37.967997640371323" lon="-7.011840445920825">
        <ele>277</ele>
        <time>2016-03-21T19:20:26Z</time>
      </trkpt>
      <trkpt lat="37.967717181891203" lon="-7.013455806300044">
        <ele>277</ele>
        <time>2016-03-21T19:20:38Z</time>
      </trkpt>
      <trkpt lat="37.967710476368666" lon="-7.013728301972151">
        <ele>275.56</ele>
        <time>2016-03-21T19:20:47Z</time>
      </trkpt>
      <trkpt lat="37.967716678977013" lon="-7.014001971110702">
        <ele>275.06999999999999</ele>
        <time>2016-03-21T19:20:56Z</time>
      </trkpt>
      <trkpt lat="37.967995796352625" lon="-7.01719949953258">
        <ele>274.58999999999997</ele>
        <time>2016-03-21T19:21:04Z</time>
      </trkpt>
      <trkpt lat="37.968365605920553" lon="-7.021424062550068">
        <ele>274.11000000000001</ele>
        <time>2016-03-21T19:21:13Z</time>
      </trkpt>
      <trkpt lat="37.96845973469317" lon="-7.021919684484601">
        <ele>273.63</ele>
        <time>2016-03-21T19:21:24Z</time>
      </trkpt>
      <trkpt lat="37.968530142679811" lon="-7.02215563505888">
        <ele>273.14999999999998</ele>
        <time>2016-03-21T19:21:40Z</time>
      </trkpt>
      <trkpt lat="37.968619158491492" lon="-7.022382197901607">
        <ele>272.67000000000002</ele>
        <time>2016-03-21T19:21:49Z</time>
      </trkpt>
      <trkpt lat="37.968725441023707" lon="-7.022597445175052">
        <ele>272.19</ele>
        <time>2016-03-21T19:21:57Z</time>
      </trkpt>
      <trkpt lat="37.968849074095488" lon="-7.022800790145993">
        <ele>271.23000000000002</ele>
        <time>2016-03-21T19:21:58Z</time>
      </trkpt>
      <trkpt lat="37.968987794592977" lon="-7.022992568090558">
        <ele>270.75</ele>
        <time>2016-03-21T19:21:59Z</time>
      </trkpt>
      <trkpt lat="37.969131208956242" lon="-7.023174790665507">
        <ele>270.26999999999998</ele>
        <time>2016-03-21T19:22:00Z</time>
      </trkpt>
      <trkpt lat="37.969646276906133" lon="-7.023883815854788">
        <ele>269.31</ele>
        <time>2016-03-21T19:22:11Z</time>
      </trkpt>
      <trkpt lat="37.969744009897113" lon="-7.02407986856997">
        <ele>263.06</ele>
        <time>2016-03-21T19:22:25Z</time>
      </trkpt>
      <trkpt lat="37.969826823100448" lon="-7.024290086701512">
        <ele>267.38</ele>
        <time>2016-03-21T19:22:38Z</time>
      </trkpt>
      <trkpt lat="37.969891699030995" lon="-7.024517739191651">
        <ele>274.58999999999997</ele>
        <time>2016-03-21T19:22:49Z</time>
      </trkpt>
      <trkpt lat="37.969937799498439" lon="-7.024758635088801">
        <ele>282.27999999999997</ele>
        <time>2016-03-21T19:22:59Z</time>
      </trkpt>
      <trkpt lat="37.969964956864715" lon="-7.025007912889123">
        <ele>290.45999999999998</ele>
        <time>2016-03-21T19:23:11Z</time>
      </trkpt>
      <trkpt lat="37.969971997663379" lon="-7.025262974202633">
        <ele>292.38</ele>
        <time>2016-03-21T19:23:27Z</time>
      </trkpt>
      <trkpt lat="37.969957245513797" lon="-7.02551937662065">
        <ele>290.94</ele>
        <time>2016-03-21T20:17:54Z</time>
      </trkpt>
      <trkpt lat="37.969920784235001" lon="-7.025775946676731">
        <ele>284.69</ele>
        <time>2016-03-21T20:18:04Z</time>
      </trkpt>
      <trkpt lat="37.969864625483751" lon="-7.026030337437987">
        <ele>273.63</ele>
        <time>2016-03-21T20:18:15Z</time>
      </trkpt>
      <trkpt lat="37.969793044030666" lon="-7.026282045990229">
        <ele>272.67000000000002</ele>
        <time>2016-03-21T20:18:25Z</time>
      </trkpt>
      <trkpt lat="37.969711069017649" lon="-7.026532664895058">
        <ele>272.67000000000002</ele>
        <time>2016-03-21T20:18:35Z</time>
      </trkpt>
      <trkpt lat="37.968773636966944" lon="-7.029568506404758">
        <ele>271.23000000000002</ele>
        <time>2016-03-21T20:18:45Z</time>
      </trkpt>
      <trkpt lat="37.967049982398748" lon="-7.034769561141729">
        <ele>269.79000000000002</ele>
        <time>2016-03-21T20:18:59Z</time>
      </trkpt>
      <trkpt lat="37.966853426769376" lon="-7.036234550178051">
        <ele>268.82999999999998</ele>
        <time>2016-03-21T20:19:13Z</time>
      </trkpt>
      <trkpt lat="37.966684447601438" lon="-7.03816750086844">
        <ele>268.35000000000002</ele>
        <time>2016-03-21T20:19:22Z</time>
      </trkpt>
      <trkpt lat="37.96610115095973" lon="-7.040722221136093">
        <ele>267.38</ele>
        <time>2016-03-21T20:19:36Z</time>
      </trkpt>
      <trkpt lat="37.965835779905319" lon="-7.042162986472249">
        <ele>266.89999999999998</ele>
        <time>2016-03-21T20:19:47Z</time>
      </trkpt>
      <trkpt lat="37.965973326936364" lon="-7.044127369299531">
        <ele>262.10000000000002</ele>
        <time>2016-03-21T20:19:58Z</time>
      </trkpt>
      <trkpt lat="37.966342130675912" lon="-7.046079933643341">
        <ele>260.64999999999998</ele>
        <time>2016-03-21T20:20:06Z</time>
      </trkpt>
      <trkpt lat="37.967221224680543" lon="-7.0491230674088">
        <ele>263.54000000000002</ele>
        <time>2016-03-21T20:20:20Z</time>
      </trkpt>
      <trkpt lat="37.967439908534288" lon="-7.049511317163706">
        <ele>265.94</ele>
        <time>2016-03-21T20:20:27Z</time>
      </trkpt>
      <trkpt lat="37.967574270442128" lon="-7.049689767882228">
        <ele>266.42000000000002</ele>
        <time>2016-03-21T20:20:39Z</time>
      </trkpt>
      <trkpt lat="37.968708174303174" lon="-7.050898941233754">
        <ele>270.26999999999998</ele>
        <time>2016-03-21T20:20:51Z</time>
      </trkpt>
      <trkpt lat="37.969161802902818" lon="-7.051844084635377">
        <ele>270.75</ele>
        <time>2016-03-21T20:21:02Z</time>
      </trkpt>
      <trkpt lat="37.969213770702481" lon="-7.052058996632695">
        <ele>270.75</ele>
        <time>2016-03-21T20:21:16Z</time>
      </trkpt>
      <trkpt lat="37.969254171475768" lon="-7.052279273048043">
        <ele>271.23000000000002</ele>
        <time>2016-03-21T20:21:19Z</time>
      </trkpt>
      <trkpt lat="37.969279401004314" lon="-7.052513128146529">
        <ele>271.70999999999998</ele>
        <time>2016-03-21T20:21:20Z</time>
      </trkpt>
      <trkpt lat="37.969294739887118" lon="-7.052759053185582">
        <ele>276.04000000000002</ele>
        <time>2016-03-21T20:21:21Z</time>
      </trkpt>
      <trkpt lat="37.969318544492126" lon="-7.055449392646551">
        <ele>272.67000000000002</ele>
        <time>2016-03-21T20:21:25Z</time>
      </trkpt>
      <trkpt lat="37.969445865601301" lon="-7.059722067788243">
        <ele>264.01999999999998</ele>
        <time>2016-03-21T20:21:26Z</time>
      </trkpt>
      <trkpt lat="37.969894045963883" lon="-7.062511816620827">
        <ele>257.29000000000002</ele>
        <time>2016-03-21T20:21:27Z</time>
      </trkpt>
      <trkpt lat="37.970121698454022" lon="-7.064140336588025">
        <ele>252</ele>
        <time>2016-03-21T20:21:37Z</time>
      </trkpt>
      <trkpt lat="37.970121530815959" lon="-7.06440880894661">
        <ele>250.08000000000001</ele>
        <time>2016-03-21T20:21:45Z</time>
      </trkpt>
      <trkpt lat="37.97006000764668" lon="-7.066296497359872">
        <ele>252</ele>
        <time>2016-03-21T20:21:46Z</time>
      </trkpt>
      <trkpt lat="37.970098732039332" lon="-7.066564550623298">
        <ele>249.12</ele>
        <time>2016-03-21T20:21:47Z</time>
      </trkpt>
      <trkpt lat="37.970155645161867" lon="-7.066828412935138">
        <ele>252.96000000000001</ele>
        <time>2016-03-21T20:21:53Z</time>
      </trkpt>
      <trkpt lat="37.970229405909777" lon="-7.06708992831409">
        <ele>241.43000000000001</ele>
        <time>2016-03-21T20:21:54Z</time>
      </trkpt>
      <trkpt lat="37.970311716198921" lon="-7.067350689321756">
        <ele>239.02000000000001</ele>
        <time>2016-03-21T20:21:55Z</time>
      </trkpt>
      <trkpt lat="37.971145380288363" lon="-7.069912366569042">
        <ele>232.78</ele>
        <time>2016-03-21T20:21:56Z</time>
      </trkpt>
      <trkpt lat="37.971527092158794" lon="-7.072463901713491">
        <ele>222.19999999999999</ele>
        <time>2016-03-21T20:21:57Z</time>
      </trkpt>
      <trkpt lat="37.972102425992489" lon="-7.078081537038088">
        <ele>216.43000000000001</ele>
        <time>2016-03-21T20:21:58Z</time>
      </trkpt>
      <trkpt lat="37.972628306597471" lon="-7.083171112462878">
        <ele>215.47</ele>
        <time>2016-03-21T20:22:04Z</time>
      </trkpt>
      <trkpt lat="37.973132226616144" lon="-7.08815423771739">
        <ele>214.50999999999999</ele>
        <time>2016-03-21T20:22:05Z</time>
      </trkpt>
      <trkpt lat="37.973530283197761" lon="-7.09261491894722">
        <ele>214.03</ele>
        <time>2016-03-21T20:22:06Z</time>
      </trkpt>
      <trkpt lat="37.973755924031138" lon="-7.095784954726696">
        <ele>213.55000000000001</ele>
        <time>2016-03-21T20:22:07Z</time>
      </trkpt>
      <trkpt lat="37.974079549312592" lon="-7.099363440647721">
        <ele>209.69999999999999</ele>
        <time>2016-03-21T20:22:08Z</time>
      </trkpt>
      <trkpt lat="37.974459752440453" lon="-7.103839041665196">
        <ele>209.69999999999999</ele>
        <time>2016-03-21T20:22:09Z</time>
      </trkpt>
      <trkpt lat="37.975021339952946" lon="-7.110412297770381">
        <ele>208.25999999999999</ele>
        <time>2016-03-21T20:22:10Z</time>
      </trkpt>
      <trkpt lat="37.975452756509185" lon="-7.115470441058278">
        <ele>207.30000000000001</ele>
        <time>2016-03-21T20:22:15Z</time>
      </trkpt>
      <trkpt lat="37.976020211353898" lon="-7.120491871610284">
        <ele>208.74000000000001</ele>
        <time>2016-03-21T20:22:16Z</time>
      </trkpt>
      <trkpt lat="37.976677101105452" lon="-7.124998485669494">
        <ele>208.74000000000001</ele>
        <time>2016-03-21T20:22:17Z</time>
      </trkpt>
      <trkpt lat="37.976810876280069" lon="-7.126386277377605">
        <ele>208.74000000000001</ele>
        <time>2016-03-21T20:22:18Z</time>
      </trkpt>
      <trkpt lat="37.976794950664043" lon="-7.126661036163569">
        <ele>209.22</ele>
        <time>2016-03-21T20:22:19Z</time>
      </trkpt>
      <trkpt lat="37.97675471752882" lon="-7.126939231529832">
        <ele>209.22</ele>
        <time>2016-03-21T20:22:20Z</time>
      </trkpt>
      <trkpt lat="37.976697972044349" lon="-7.127217929810286">
        <ele>209.22</ele>
        <time>2016-03-21T20:22:30Z</time>
      </trkpt>
      <trkpt lat="37.976630413904786" lon="-7.127501573413611">
        <ele>209.69999999999999</ele>
        <time>2016-03-21T20:22:43Z</time>
      </trkpt>
      <trkpt lat="37.97633109614253" lon="-7.129491688683629">
        <ele>210.19</ele>
        <time>2016-03-21T20:22:57Z</time>
      </trkpt>
      <trkpt lat="37.976356828585267" lon="-7.129770219326019">
        <ele>210.19</ele>
        <time>2016-03-21T20:23:15Z</time>
      </trkpt>
      <trkpt lat="37.976747676730156" lon="-7.132056970149279">
        <ele>211.63</ele>
        <time>2016-03-21T20:23:29Z</time>
      </trkpt>
      <trkpt lat="37.976695625111461" lon="-7.133793281391263">
        <ele>219.31999999999999</ele>
        <time>2016-03-21T20:23:47Z</time>
      </trkpt>
      <trkpt lat="37.976455902680755" lon="-7.137529347091913">
        <ele>214.03</ele>
        <time>2016-03-21T20:24:02Z</time>
      </trkpt>
      <trkpt lat="37.976486412808299" lon="-7.137810727581382">
        <ele>208.74000000000001</ele>
        <time>2016-03-21T20:24:13Z</time>
      </trkpt>
      <trkpt lat="37.97653678804636" lon="-7.138084648177028">
        <ele>207.78</ele>
        <time>2016-03-21T20:24:22Z</time>
      </trkpt>
      <trkpt lat="37.976608537137508" lon="-7.138345157727599">
        <ele>206.34</ele>
        <time>2016-03-21T20:24:30Z</time>
      </trkpt>
      <trkpt lat="37.97669998370111" lon="-7.138592004776001">
        <ele>205.38</ele>
        <time>2016-03-21T20:24:47Z</time>
      </trkpt>
      <trkpt lat="37.976806182414293" lon="-7.138831811025739">
        <ele>204.90000000000001</ele>
        <time>2016-03-21T20:25:00Z</time>
      </trkpt>
      <trkpt lat="37.977725425735116" lon="-7.140997108072043">
        <ele>203.94</ele>
        <time>2016-03-21T20:25:16Z</time>
      </trkpt>
      <trkpt lat="37.977767670527101" lon="-7.141257533803582">
        <ele>203.46000000000001</ele>
        <time>2016-03-21T20:25:28Z</time>
      </trkpt>
      <trkpt lat="37.977790720760822" lon="-7.141526844352484">
        <ele>202.49000000000001</ele>
        <time>2016-03-21T20:25:40Z</time>
      </trkpt>
      <trkpt lat="37.977819973602891" lon="-7.144473921507597">
        <ele>201.53</ele>
        <time>2016-03-21T20:25:50Z</time>
      </trkpt>
      <trkpt lat="37.97788786701858" lon="-7.148452894762158">
        <ele>200.56999999999999</ele>
        <time>2016-03-21T20:26:04Z</time>
      </trkpt>
      <trkpt lat="37.977930447086692" lon="-7.152006234973669">
        <ele>200.09</ele>
        <time>2016-03-21T20:26:12Z</time>
      </trkpt>
      <trkpt lat="37.977996161207557" lon="-7.153056319803">
        <ele>198.65000000000001</ele>
        <time>2016-03-21T20:26:28Z</time>
      </trkpt>
      <trkpt lat="37.978046536445618" lon="-7.153294365853071">
        <ele>198.16999999999999</ele>
        <time>2016-03-21T20:26:43Z</time>
      </trkpt>
      <trkpt lat="37.978117112070322" lon="-7.153519336134195">
        <ele>198.16999999999999</ele>
        <time>2016-03-21T20:26:52Z</time>
      </trkpt>
      <trkpt lat="37.978205038234591" lon="-7.153733326122165">
        <ele>198.65000000000001</ele>
        <time>2016-03-21T20:27:03Z</time>
      </trkpt>
      <trkpt lat="37.978308303281665" lon="-7.15393097139895">
        <ele>198.65000000000001</ele>
        <time>2016-03-21T20:27:22Z</time>
      </trkpt>
      <trkpt lat="37.978427577763796" lon="-7.15410640463233">
        <ele>198.65000000000001</ele>
        <time>2016-03-21T20:27:35Z</time>
      </trkpt>
      <trkpt lat="37.978561017662287" lon="-7.154265744611621">
        <ele>199.13</ele>
        <time>2016-03-21T20:27:46Z</time>
      </trkpt>
      <trkpt lat="37.978708455339074" lon="-7.15440739877522">
        <ele>199.13</ele>
        <time>2016-03-21T20:27:59Z</time>
      </trkpt>
      <trkpt lat="37.978870058432221" lon="-7.154532624408603">
        <ele>199.61000000000001</ele>
        <time>2016-03-21T20:28:07Z</time>
      </trkpt>
      <trkpt lat="37.979044988751411" lon="-7.154643516987562">
        <ele>199.61000000000001</ele>
        <time>2016-03-21T20:28:19Z</time>
      </trkpt>
      <trkpt lat="37.979227127507329" lon="-7.154747368767858">
        <ele>200.09</ele>
        <time>2016-03-21T20:28:27Z</time>
      </trkpt>
      <trkpt lat="37.979904552921653" lon="-7.155187837779522">
        <ele>200.56999999999999</ele>
        <time>2016-03-21T20:28:43Z</time>
      </trkpt>
      <trkpt lat="37.980047129094601" lon="-7.155329491943121">
        <ele>200.56999999999999</ele>
        <time>2016-03-21T20:28:50Z</time>
      </trkpt>
      <trkpt lat="37.980179898440838" lon="-7.155489251017571">
        <ele>201.05000000000001</ele>
        <time>2016-03-21T20:29:03Z</time>
      </trkpt>
      <trkpt lat="37.980296909809113" lon="-7.15567147359252">
        <ele>201.05000000000001</ele>
        <time>2016-03-21T20:29:20Z</time>
      </trkpt>
      <trkpt lat="37.98039791174233" lon="-7.155871968716383">
        <ele>201.05000000000001</ele>
        <time>2016-03-21T20:29:27Z</time>
      </trkpt>
      <trkpt lat="37.980486508458853" lon="-7.156082857400179">
        <ele>200.56999999999999</ele>
        <time>2016-03-21T20:29:38Z</time>
      </trkpt>
      <trkpt lat="37.980552557855844" lon="-7.156309671700001">
        <ele>197.69</ele>
        <time>2016-03-21T20:29:46Z</time>
      </trkpt>
      <trkpt lat="37.980594718828797" lon="-7.156549897044897">
        <ele>197.69</ele>
        <time>2016-03-21T20:30:06Z</time>
      </trkpt>
      <trkpt lat="37.980618104338646" lon="-7.15679632499814">
        <ele>199.13</ele>
        <time>2016-03-21T20:30:24Z</time>
      </trkpt>
      <trkpt lat="37.98061978071928" lon="-7.157046357169747">
        <ele>199.13</ele>
        <time>2016-03-21T20:30:44Z</time>
      </trkpt>
      <trkpt lat="37.980593461543322" lon="-7.157297311350703">
        <ele>206.34</ele>
        <time>2016-03-21T20:30:55Z</time>
      </trkpt>
      <trkpt lat="37.980549791827798" lon="-7.157541979104281">
        <ele>208.25999999999999</ele>
        <time>2016-03-21T20:31:04Z</time>
      </trkpt>
      <trkpt lat="37.980480054393411" lon="-7.157783545553684">
        <ele>200.56999999999999</ele>
        <time>2016-03-21T20:31:12Z</time>
      </trkpt>
      <trkpt lat="37.980386428534985" lon="-7.158017233014107">
        <ele>198.65000000000001</ele>
        <time>2016-03-21T20:31:21Z</time>
      </trkpt>
      <trkpt lat="37.980268327519298" lon="-7.158241868019104">
        <ele>198.65000000000001</ele>
        <time>2016-03-21T20:31:39Z</time>
      </trkpt>
      <trkpt lat="37.980129355564713" lon="-7.158457031473517">
        <ele>199.13</ele>
        <time>2016-03-21T20:31:49Z</time>
      </trkpt>
      <trkpt lat="37.979978397488594" lon="-7.158667081966996">
        <ele>199.61000000000001</ele>
        <time>2016-03-21T20:31:55Z</time>
      </trkpt>
      <trkpt lat="37.978920349851251" lon="-7.160348407924175">
        <ele>201.53</ele>
        <time>2016-03-21T20:32:03Z</time>
      </trkpt>
      <trkpt lat="37.978352392092347" lon="-7.162398118525744">
        <ele>202.49000000000001</ele>
        <time>2016-03-21T20:32:17Z</time>
      </trkpt>
      <trkpt lat="37.977647809311748" lon="-7.16450490988791">
        <ele>203.46000000000001</ele>
        <time>2016-03-21T20:32:33Z</time>
      </trkpt>
      <trkpt lat="37.977022938430309" lon="-7.166713457554579">
        <ele>204.41999999999999</ele>
        <time>2016-03-21T20:32:41Z</time>
      </trkpt>
      <trkpt lat="37.976380214095116" lon="-7.17142878100276">
        <ele>205.86000000000001</ele>
        <time>2016-03-21T20:32:48Z</time>
      </trkpt>
      <trkpt lat="37.976249875500798" lon="-7.173313116654754">
        <ele>206.81999999999999</ele>
        <time>2016-03-21T20:33:00Z</time>
      </trkpt>
      <trkpt lat="37.976201763376594" lon="-7.175937155261636">
        <ele>217.40000000000001</ele>
        <time>2016-03-21T20:33:07Z</time>
      </trkpt>
      <trkpt lat="37.975799767300487" lon="-7.178954305127263">
        <ele>216.91</ele>
        <time>2016-03-21T20:33:18Z</time>
      </trkpt>
      <trkpt lat="37.97572810202837" lon="-7.181056821718812">
        <ele>216.91</ele>
        <time>2016-03-21T20:33:25Z</time>
      </trkpt>
      <trkpt lat="37.975773364305496" lon="-7.181338956579566">
        <ele>227.97</ele>
        <time>2016-03-21T20:33:34Z</time>
      </trkpt>
      <trkpt lat="37.975834803655744" lon="-7.181618828326464">
        <ele>232.78</ele>
        <time>2016-03-21T20:33:45Z</time>
      </trkpt>
      <trkpt lat="37.976079890504479" lon="-7.182720126584172">
        <ele>225.56999999999999</ele>
        <time>2016-03-21T20:34:00Z</time>
      </trkpt>
      <trkpt lat="37.976103695109487" lon="-7.182992789894342">
        <ele>227.49000000000001</ele>
        <time>2016-03-21T20:34:07Z</time>
      </trkpt>
      <trkpt lat="37.976109897717834" lon="-7.183267548680306">
        <ele>229.88999999999999</ele>
        <time>2016-03-21T20:34:21Z</time>
      </trkpt>
      <trkpt lat="37.976097743958235" lon="-7.183546414598823">
        <ele>229.41</ele>
        <time>2016-03-21T20:34:30Z</time>
      </trkpt>
      <trkpt lat="37.976071173325181" lon="-7.183826537802815">
        <ele>228.93000000000001</ele>
        <time>2016-03-21T20:34:45Z</time>
      </trkpt>
      <trkpt lat="37.976035214960575" lon="-7.184106661006808">
        <ele>227.97</ele>
        <time>2016-03-21T20:34:52Z</time>
      </trkpt>
      <trkpt lat="37.975384527817369" lon="-7.188778650015593">
        <ele>227.49000000000001</ele>
        <time>2016-03-21T20:34:59Z</time>
      </trkpt>
      <trkpt lat="37.974919667467475" lon="-7.192352442070842">
        <ele>227.49000000000001</ele>
        <time>2016-03-21T20:35:10Z</time>
      </trkpt>
      <trkpt lat="37.974253138527274" lon="-7.194859385490418">
        <ele>221.72</ele>
        <time>2016-03-21T20:35:11Z</time>
      </trkpt>
      <trkpt lat="37.973580993711948" lon="-7.197469929233193">
        <ele>217.88</ele>
        <time>2016-03-21T20:35:12Z</time>
      </trkpt>
      <trkpt lat="37.973064668476582" lon="-7.199434731155634">
        <ele>223.63999999999999</ele>
        <time>2016-03-21T20:35:23Z</time>
      </trkpt>
      <trkpt lat="37.972742384299636" lon="-7.202022895216942">
        <ele>225.56999999999999</ele>
        <time>2016-03-21T20:35:36Z</time>
      </trkpt>
      <trkpt lat="37.972146850079298" lon="-7.205173149704933">
        <ele>224.12</ele>
        <time>2016-03-21T20:35:43Z</time>
      </trkpt>
      <trkpt lat="37.970978580415249" lon="-7.209401484578848">
        <ele>222.68000000000001</ele>
        <time>2016-03-21T20:35:52Z</time>
      </trkpt>
      <trkpt lat="37.970278104767203" lon="-7.21158036030829">
        <ele>226.53</ele>
        <time>2016-03-21T20:36:00Z</time>
      </trkpt>
      <trkpt lat="37.969381576403975" lon="-7.21303403377533">
        <ele>221.24000000000001</ele>
        <time>2016-03-21T20:36:10Z</time>
      </trkpt>
      <trkpt lat="37.969305468723178" lon="-7.213241821154952">
        <ele>220.28</ele>
        <time>2016-03-21T20:36:24Z</time>
      </trkpt>
      <trkpt lat="37.969245286658406" lon="-7.213455978780985">
        <ele>222.68000000000001</ele>
        <time>2016-03-21T20:36:40Z</time>
      </trkpt>
      <trkpt lat="37.969196084886789" lon="-7.213671812787652">
        <ele>225.56999999999999</ele>
        <time>2016-03-21T20:36:54Z</time>
      </trkpt>
      <trkpt lat="37.968789814040065" lon="-7.215722948312759">
        <ele>225.09</ele>
        <time>2016-03-21T20:37:06Z</time>
      </trkpt>
      <trkpt lat="37.968374071642756" lon="-7.217786321416497">
        <ele>227.49000000000001</ele>
        <time>2016-03-21T20:37:15Z</time>
      </trkpt>
      <trkpt lat="37.968033934012055" lon="-7.219551466405392">
        <ele>234.69999999999999</ele>
        <time>2016-03-21T20:37:32Z</time>
      </trkpt>
      <trkpt lat="37.967777196317911" lon="-7.220757454633713">
        <ele>237.09999999999999</ele>
        <time>2016-03-21T20:37:49Z</time>
      </trkpt>
      <trkpt lat="37.967582484707236" lon="-7.22157234326005">
        <ele>239.02000000000001</ele>
        <time>2016-03-21T20:38:08Z</time>
      </trkpt>
      <trkpt lat="37.967259278520942" lon="-7.222950328141451">
        <ele>240.47</ele>
        <time>2016-03-21T20:38:22Z</time>
      </trkpt>
      <trkpt lat="37.966764494776726" lon="-7.225068770349026">
        <ele>237.58000000000001</ele>
        <time>2016-03-21T20:38:39Z</time>
      </trkpt>
      <trkpt lat="37.966429470106959" lon="-7.226706678047776">
        <ele>231.81</ele>
        <time>2016-03-21T20:39:01Z</time>
      </trkpt>
      <trkpt lat="37.966119339689612" lon="-7.227821052074432">
        <ele>230.84999999999999</ele>
        <time>2016-03-21T20:39:12Z</time>
      </trkpt>
      <trkpt lat="37.96573905274272" lon="-7.229432389140129">
        <ele>238.53999999999999</ele>
        <time>2016-03-21T20:39:21Z</time>
      </trkpt>
      <trkpt lat="37.965481895953417" lon="-7.231060154736042">
        <ele>239.99000000000001</ele>
        <time>2016-03-21T20:39:29Z</time>
      </trkpt>
      <trkpt lat="37.96539313159883" lon="-7.233010539785028">
        <ele>239.50999999999999</ele>
        <time>2016-03-21T20:39:40Z</time>
      </trkpt>
      <trkpt lat="37.965088533237576" lon="-7.235065279528499">
        <ele>240.47</ele>
        <time>2016-03-21T20:39:52Z</time>
      </trkpt>
      <trkpt lat="37.963887155056" lon="-7.237956784665585">
        <ele>241.43000000000001</ele>
        <time>2016-03-21T20:40:03Z</time>
      </trkpt>
      <trkpt lat="37.962668593972921" lon="-7.240652404725552">
        <ele>251.03999999999999</ele>
        <time>2016-03-21T20:40:17Z</time>
      </trkpt>
      <trkpt lat="37.961958982050419" lon="-7.242493405938149">
        <ele>252.96000000000001</ele>
        <time>2016-03-21T20:40:24Z</time>
      </trkpt>
      <trkpt lat="37.961132861673832" lon="-7.24613668397069">
        <ele>253.93000000000001</ele>
        <time>2016-03-21T20:40:38Z</time>
      </trkpt>
      <trkpt lat="37.960455771535635" lon="-7.248833896592259">
        <ele>254.41</ele>
        <time>2016-03-21T20:40:45Z</time>
      </trkpt>
      <trkpt lat="37.960090572014451" lon="-7.251272611320019">
        <ele>257.76999999999998</ele>
        <time>2016-03-21T20:41:03Z</time>
      </trkpt>
      <trkpt lat="37.959942715242505" lon="-7.252874225378037">
        <ele>257.76999999999998</ele>
        <time>2016-03-21T20:41:21Z</time>
      </trkpt>
      <trkpt lat="37.959603583440185" lon="-7.255293494090438">
        <ele>258.25</ele>
        <time>2016-03-21T20:41:35Z</time>
      </trkpt>
      <trkpt lat="37.959299655631185" lon="-7.25645899772644">
        <ele>258.73000000000002</ele>
        <time>2016-03-21T20:41:43Z</time>
      </trkpt>
      <trkpt lat="37.959010815247893" lon="-7.257551830261946">
        <ele>257.76999999999998</ele>
        <time>2016-03-21T20:41:52Z</time>
      </trkpt>
      <trkpt lat="37.958575710654259" lon="-7.259133998304606">
        <ele>257.76999999999998</ele>
        <time>2016-03-21T20:42:02Z</time>
      </trkpt>
      <trkpt lat="37.958031054586172" lon="-7.261158227920532">
        <ele>257.76999999999998</ele>
        <time>2016-03-21T20:42:08Z</time>
      </trkpt>
      <trkpt lat="37.957326639443636" lon="-7.263801880180836">
        <ele>258.73000000000002</ele>
        <time>2016-03-21T20:42:15Z</time>
      </trkpt>
      <trkpt lat="37.957213735207915" lon="-7.264293897897005">
        <ele>259.20999999999998</ele>
        <time>2016-03-21T20:42:22Z</time>
      </trkpt>
      <trkpt lat="37.957196217030287" lon="-7.264470839872956">
        <ele>260.17000000000002</ele>
        <time>2016-03-21T20:42:35Z</time>
      </trkpt>
      <trkpt lat="37.957194205373526" lon="-7.264656163752079">
        <ele>261.13999999999999</ele>
        <time>2016-03-21T20:42:50Z</time>
      </trkpt>
      <trkpt lat="37.95718414708972" lon="-7.265389077365398">
        <ele>262.10000000000002</ele>
        <time>2016-03-21T20:43:07Z</time>
      </trkpt>
      <trkpt lat="37.957145338878036" lon="-7.265560990199447">
        <ele>263.06</ele>
        <time>2016-03-21T20:43:14Z</time>
      </trkpt>
      <trkpt lat="37.957090856507421" lon="-7.265731142833829">
        <ele>264.98000000000002</ele>
        <time>2016-03-21T20:43:21Z</time>
      </trkpt>
      <trkpt lat="37.956363810226321" lon="-7.267632829025388">
        <ele>264.98000000000002</ele>
        <time>2016-03-21T20:43:28Z</time>
      </trkpt>
      <trkpt lat="37.955780262127519" lon="-7.269296385347843">
        <ele>264.98000000000002</ele>
        <time>2016-03-21T20:43:46Z</time>
      </trkpt>
      <trkpt lat="37.955761905759573" lon="-7.269513979554176">
        <ele>264.98000000000002</ele>
        <time>2016-03-21T20:44:00Z</time>
      </trkpt>
      <trkpt lat="37.955771712586284" lon="-7.26972914300859">
        <ele>264.98000000000002</ele>
        <time>2016-03-21T20:44:15Z</time>
      </trkpt>
      <trkpt lat="37.955928035080433" lon="-7.270980561152101">
        <ele>264.98000000000002</ele>
        <time>2016-03-21T20:44:27Z</time>
      </trkpt>
      <trkpt lat="37.955923089757562" lon="-7.271169237792492">
        <ele>264.5</ele>
        <time>2016-03-21T20:44:33Z</time>
      </trkpt>
      <trkpt lat="37.955892160534859" lon="-7.271346934139729">
        <ele>261.13999999999999</ele>
        <time>2016-03-21T20:44:45Z</time>
      </trkpt>
      <trkpt lat="37.955836839973927" lon="-7.271516332402825">
        <ele>260.64999999999998</ele>
        <time>2016-03-21T20:44:53Z</time>
      </trkpt>
      <trkpt lat="37.955765761435032" lon="-7.271678186953068">
        <ele>260.17000000000002</ele>
        <time>2016-03-21T20:45:02Z</time>
      </trkpt>
      <trkpt lat="37.9556845407933" lon="-7.271834425628185">
        <ele>259.69</ele>
        <time>2016-03-21T20:45:11Z</time>
      </trkpt>
      <trkpt lat="37.955152038484812" lon="-7.272803960368037">
        <ele>259.20999999999998</ele>
        <time>2016-03-21T20:45:25Z</time>
      </trkpt>
      <trkpt lat="37.955096801742911" lon="-7.27296631783247">
        <ele>258.73000000000002</ele>
        <time>2016-03-21T20:45:37Z</time>
      </trkpt>
      <trkpt lat="37.955055730417371" lon="-7.273135464638472">
        <ele>254.88999999999999</ele>
        <time>2016-03-21T20:45:55Z</time>
      </trkpt>
      <trkpt lat="37.955033602192998" lon="-7.273308215662837">
        <ele>247.68000000000001</ele>
        <time>2016-03-21T20:46:04Z</time>
      </trkpt>
      <trkpt lat="37.955033015459776" lon="-7.273486750200391">
        <ele>246.22999999999999</ele>
        <time>2016-03-21T20:46:20Z</time>
      </trkpt>
      <trkpt lat="37.95504936017096" lon="-7.273671822622418">
        <ele>247.19999999999999</ele>
        <time>2016-03-21T20:46:32Z</time>
      </trkpt>
      <trkpt lat="37.955078529193997" lon="-7.273864606395364">
        <ele>243.34999999999999</ele>
        <time>2016-03-21T20:46:40Z</time>
      </trkpt>
      <trkpt lat="37.9552355222404" lon="-7.274873703718185">
        <ele>242.87</ele>
        <time>2016-03-21T20:46:54Z</time>
      </trkpt>
      <trkpt lat="37.955234851688147" lon="-7.275067660957575">
        <ele>246.72</ele>
        <time>2016-03-21T20:47:03Z</time>
      </trkpt>
      <trkpt lat="37.955216243863106" lon="-7.27526237256825">
        <ele>248.63999999999999</ele>
        <time>2016-03-21T20:47:11Z</time>
      </trkpt>
      <trkpt lat="37.955178609117866" lon="-7.275457670912147">
        <ele>245.75</ele>
        <time>2016-03-21T20:47:21Z</time>
      </trkpt>
      <trkpt lat="37.955125216394663" lon="-7.275654645636678">
        <ele>242.87</ele>
        <time>2016-03-21T20:47:34Z</time>
      </trkpt>
      <trkpt lat="37.955063693225384" lon="-7.275855224579573">
        <ele>236.13999999999999</ele>
        <time>2016-03-21T20:47:43Z</time>
      </trkpt>
      <trkpt lat="37.954392302781343" lon="-7.278084475547075">
        <ele>232.30000000000001</ele>
        <time>2016-03-21T20:47:53Z</time>
      </trkpt>
      <trkpt lat="37.953812526538968" lon="-7.281039012596011">
        <ele>226.53</ele>
        <time>2016-03-21T20:48:07Z</time>
      </trkpt>
      <trkpt lat="37.953155133873224" lon="-7.284578522667289">
        <ele>221.24000000000001</ele>
        <time>2016-03-21T20:48:17Z</time>
      </trkpt>
      <trkpt lat="37.952298419550061" lon="-7.289194688200951">
        <ele>215.47</ele>
        <time>2016-03-21T20:48:26Z</time>
      </trkpt>
      <trkpt lat="37.95158738270402" lon="-7.292516520246863">
        <ele>210.66999999999999</ele>
        <time>2016-03-21T20:48:43Z</time>
      </trkpt>
      <trkpt lat="37.950459597632289" lon="-7.296608649194241">
        <ele>206.81999999999999</ele>
        <time>2016-03-21T20:49:02Z</time>
      </trkpt>
      <trkpt lat="37.94969592243433" lon="-7.299889577552676">
        <ele>209.69999999999999</ele>
        <time>2016-03-21T20:49:17Z</time>
      </trkpt>
      <trkpt lat="37.949525266885757" lon="-7.302355533465743">
        <ele>203.46000000000001</ele>
        <time>2016-03-21T20:49:26Z</time>
      </trkpt>
      <trkpt lat="37.949202312156558" lon="-7.304326286539435">
        <ele>202.97999999999999</ele>
        <time>2016-03-21T20:49:43Z</time>
      </trkpt>
      <trkpt lat="37.948515582829714" lon="-7.306057568639517">
        <ele>204.41999999999999</ele>
        <time>2016-03-21T20:49:59Z</time>
      </trkpt>
      <trkpt lat="37.946793437004089" lon="-7.310000248253346">
        <ele>202.49000000000001</ele>
        <time>2016-03-21T20:50:16Z</time>
      </trkpt>
      <trkpt lat="37.945755254477262" lon="-7.313058134168387">
        <ele>205.38</ele>
        <time>2016-03-21T20:50:33Z</time>
      </trkpt>
      <trkpt lat="37.944620763882995" lon="-7.316864524036646">
        <ele>203.46000000000001</ele>
        <time>2016-03-21T20:50:45Z</time>
      </trkpt>
      <trkpt lat="37.943355599418283" lon="-7.319677993655205">
        <ele>201.05000000000001</ele>
        <time>2016-03-21T20:51:07Z</time>
      </trkpt>
      <trkpt lat="37.942300653085113" lon="-7.322397753596306">
        <ele>206.34</ele>
        <time>2016-03-21T20:51:25Z</time>
      </trkpt>
      <trkpt lat="37.941941656172276" lon="-7.324816435575485">
        <ele>212.11000000000001</ele>
        <time>2016-03-21T20:51:37Z</time>
      </trkpt>
      <trkpt lat="37.941599087789655" lon="-7.328589046373963">
        <ele>219.31999999999999</ele>
        <time>2016-03-21T20:51:48Z</time>
      </trkpt>
      <trkpt lat="37.941030208021402" lon="-7.330600535497069">
        <ele>217.88</ele>
        <time>2016-03-21T20:52:05Z</time>
      </trkpt>
      <trkpt lat="37.939447956159711" lon="-7.334482194855809">
        <ele>211.63</ele>
        <time>2016-03-21T20:52:19Z</time>
      </trkpt>
      <trkpt lat="37.937952624633908" lon="-7.338134441524744">
        <ele>212.11000000000001</ele>
        <time>2016-03-21T20:52:32Z</time>
      </trkpt>
      <trkpt lat="37.937335632741451" lon="-7.340195216238499">
        <ele>213.06999999999999</ele>
        <time>2016-03-21T20:52:43Z</time>
      </trkpt>
      <trkpt lat="37.936716629192233" lon="-7.343208594247699">
        <ele>220.75999999999999</ele>
        <time>2016-03-21T20:52:53Z</time>
      </trkpt>
      <trkpt lat="37.935613319277763" lon="-7.348458180204034">
        <ele>224.12</ele>
        <time>2016-03-21T20:53:09Z</time>
      </trkpt>
      <trkpt lat="37.934523336589336" lon="-7.352142781019211">
        <ele>228.44999999999999</ele>
        <time>2016-03-21T20:53:24Z</time>
      </trkpt>
      <trkpt lat="37.933784807100892" lon="-7.355166720226407">
        <ele>229.88999999999999</ele>
        <time>2016-03-21T20:53:31Z</time>
      </trkpt>
      <trkpt lat="37.933394629508257" lon="-7.358763562515378">
        <ele>245.75</ele>
        <time>2016-03-21T20:53:38Z</time>
      </trkpt>
      <trkpt lat="37.932632295414805" lon="-7.360712941735983">
        <ele>253.93000000000001</ele>
        <time>2016-03-21T20:53:51Z</time>
      </trkpt>
      <trkpt lat="37.93161909095943" lon="-7.363586844876409">
        <ele>258.25</ele>
        <time>2016-03-21T20:54:06Z</time>
      </trkpt>
      <trkpt lat="37.931510293856263" lon="-7.365763876587153">
        <ele>262.10000000000002</ele>
        <time>2016-03-21T20:54:17Z</time>
      </trkpt>
      <trkpt lat="37.931396551430225" lon="-7.370204022154212">
        <ele>260.17000000000002</ele>
        <time>2016-03-21T20:54:29Z</time>
      </trkpt>
      <trkpt lat="37.930979551747441" lon="-7.372056003659964">
        <ele>254.88999999999999</ele>
        <time>2016-03-21T20:54:46Z</time>
      </trkpt>
      <trkpt lat="37.929568458348513" lon="-7.375400634482503">
        <ele>247.68000000000001</ele>
        <time>2016-03-21T20:55:00Z</time>
      </trkpt>
      <trkpt lat="37.927682111039758" lon="-7.379878330975771">
        <ele>248.16</ele>
        <time>2016-03-21T20:55:12Z</time>
      </trkpt>
      <trkpt lat="37.927301656454802" lon="-7.381751099601388">
        <ele>250.56</ele>
        <time>2016-03-21T20:55:26Z</time>
      </trkpt>
      <trkpt lat="37.92719604447484" lon="-7.384883249178529">
        <ele>251.03999999999999</ele>
        <time>2016-03-21T20:55:42Z</time>
      </trkpt>
      <trkpt lat="37.926719784736633" lon="-7.386903036385775">
        <ele>249.59999999999999</ele>
        <time>2016-03-21T20:55:58Z</time>
      </trkpt>
      <trkpt lat="37.925054300576448" lon="-7.392199812456965">
        <ele>248.16</ele>
        <time>2016-03-21T20:56:05Z</time>
      </trkpt>
      <trkpt lat="37.923479089513421" lon="-7.397221494466066">
        <ele>243.83000000000001</ele>
        <time>2016-03-21T20:56:22Z</time>
      </trkpt>
      <trkpt lat="37.921780748292804" lon="-7.40263419225812">
        <ele>242.87</ele>
        <time>2016-03-21T20:56:33Z</time>
      </trkpt>
      <trkpt lat="37.921050433069468" lon="-7.405580515041947">
        <ele>241.43000000000001</ele>
        <time>2016-03-21T20:56:40Z</time>
      </trkpt>
      <trkpt lat="37.920905090868473" lon="-7.408089302480221">
        <ele>243.34999999999999</ele>
        <time>2016-03-21T20:56:55Z</time>
      </trkpt>
      <trkpt lat="37.921223770827055" lon="-7.410372868180275">
        <ele>248.16</ele>
        <time>2016-03-21T20:57:08Z</time>
      </trkpt>
      <trkpt lat="37.921964982524514" lon="-7.41290177218616">
        <ele>248.16</ele>
        <time>2016-03-21T20:57:20Z</time>
      </trkpt>
      <trkpt lat="37.924082167446613" lon="-7.417669733986259">
        <ele>244.31</ele>
        <time>2016-03-21T20:57:30Z</time>
      </trkpt>
      <trkpt lat="37.925003422424197" lon="-7.420162260532379">
        <ele>245.75</ele>
        <time>2016-03-21T20:57:42Z</time>
      </trkpt>
      <trkpt lat="37.924967296421528" lon="-7.421659519895911">
        <ele>243.83000000000001</ele>
        <time>2016-03-21T20:57:51Z</time>
      </trkpt>
      <trkpt lat="37.924390202388167" lon="-7.423744769766927">
        <ele>239.50999999999999</ele>
        <time>2016-03-21T20:58:00Z</time>
      </trkpt>
      <trkpt lat="37.923223106190562" lon="-7.427826002240181">
        <ele>231.33000000000001</ele>
        <time>2016-03-21T20:58:16Z</time>
      </trkpt>
      <trkpt lat="37.921887701377273" lon="-7.432506792247295">
        <ele>221.72</ele>
        <time>2016-03-21T20:58:25Z</time>
      </trkpt>
      <trkpt lat="37.920996453613043" lon="-7.434634957462549">
        <ele>216.43000000000001</ele>
        <time>2016-03-21T20:58:37Z</time>
      </trkpt>
      <trkpt lat="37.9203493706882" lon="-7.43660562671721">
        <ele>214.99000000000001</ele>
        <time>2016-03-21T20:58:53Z</time>
      </trkpt>
      <trkpt lat="37.919577732682228" lon="-7.439990993589163">
        <ele>214.03</ele>
        <time>2016-03-21T20:59:07Z</time>
      </trkpt>
      <trkpt lat="37.919593574479222" lon="-7.441808357834816">
        <ele>213.06999999999999</ele>
        <time>2016-03-21T20:59:19Z</time>
      </trkpt>
      <trkpt lat="37.920024488121271" lon="-7.444856101647019">
        <ele>213.06999999999999</ele>
        <time>2016-03-21T20:59:31Z</time>
      </trkpt>
      <trkpt lat="37.920063883066177" lon="-7.446932047605515">
        <ele>212.59</ele>
        <time>2016-03-21T20:59:50Z</time>
      </trkpt>
      <trkpt lat="37.920009568333626" lon="-7.449462376534939">
        <ele>212.11000000000001</ele>
        <time>2016-03-21T21:00:00Z</time>
      </trkpt>
      <trkpt lat="37.920586913824081" lon="-7.452493943274021">
        <ele>208.74000000000001</ele>
        <time>2016-03-21T21:00:13Z</time>
      </trkpt>
      <trkpt lat="37.921453937888145" lon="-7.4568812828511">
        <ele>209.22</ele>
        <time>2016-03-21T21:00:28Z</time>
      </trkpt>
      <trkpt lat="37.921543708071113" lon="-7.458968041464686">
        <ele>209.69999999999999</ele>
        <time>2016-03-21T21:00:38Z</time>
      </trkpt>
      <trkpt lat="37.921495344489813" lon="-7.463195789605379">
        <ele>209.69999999999999</ele>
        <time>2016-03-21T21:00:54Z</time>
      </trkpt>
      <trkpt lat="37.921397527679801" lon="-7.465995848178864">
        <ele>210.19</ele>
        <time>2016-03-21T21:01:08Z</time>
      </trkpt>
      <trkpt lat="37.921059485524893" lon="-7.470585694536567">
        <ele>209.22</ele>
        <time>2016-03-21T21:01:19Z</time>
      </trkpt>
      <trkpt lat="37.920603090897202" lon="-7.472169706597924">
        <ele>208.74000000000001</ele>
        <time>2016-03-21T21:01:29Z</time>
      </trkpt>
      <trkpt lat="37.920015100389719" lon="-7.473301850259304">
        <ele>213.55000000000001</ele>
        <time>2016-03-21T21:01:40Z</time>
      </trkpt>
      <trkpt lat="37.919198619201779" lon="-7.474930118769407">
        <ele>221.72</ele>
        <time>2016-03-21T21:01:49Z</time>
      </trkpt>
      <trkpt lat="37.919161068275571" lon="-7.475114436820149">
        <ele>226.53</ele>
        <time>2016-03-21T21:01:57Z</time>
      </trkpt>
      <trkpt lat="37.919136760756373" lon="-7.475300095975399">
        <ele>227.97</ele>
        <time>2016-03-21T21:01:58Z</time>
      </trkpt>
      <trkpt lat="37.919067610055208" lon="-7.477476708590984">
        <ele>229.41</ele>
        <time>2016-03-21T21:02:05Z</time>
      </trkpt>
      <trkpt lat="37.919036764651537" lon="-7.479998236522079">
        <ele>231.81</ele>
        <time>2016-03-21T21:02:15Z</time>
      </trkpt>
      <trkpt lat="37.919066771864891" lon="-7.480578180402517">
        <ele>233.74000000000001</ele>
        <time>2016-03-21T21:02:29Z</time>
      </trkpt>
      <trkpt lat="37.919225273653865" lon="-7.481564814224839">
        <ele>236.13999999999999</ele>
        <time>2016-03-21T21:02:41Z</time>
      </trkpt>
      <trkpt lat="37.919622156769037" lon="-7.482971549034119">
        <ele>231.33000000000001</ele>
        <time>2016-03-21T21:02:57Z</time>
      </trkpt>
      <trkpt lat="37.920406367629766" lon="-7.485323511064053">
        <ele>225.09</ele>
        <time>2016-03-21T21:03:12Z</time>
      </trkpt>
      <trkpt lat="37.921566171571612" lon="-7.48904381878674">
        <ele>227.00999999999999</ele>
        <time>2016-03-21T21:03:23Z</time>
      </trkpt>
      <trkpt lat="37.922514164820313" lon="-7.493211133405566">
        <ele>232.78</ele>
        <time>2016-03-21T21:03:33Z</time>
      </trkpt>
      <trkpt lat="37.923117997124791" lon="-7.497001430019736">
        <ele>235.18000000000001</ele>
        <time>2016-03-21T21:03:43Z</time>
      </trkpt>
      <trkpt lat="37.923479843884706" lon="-7.500113882124424">
        <ele>229.41</ele>
        <time>2016-03-21T21:03:58Z</time>
      </trkpt>
      <trkpt lat="37.923270463943481" lon="-7.502471460029483">
        <ele>228.93000000000001</ele>
        <time>2016-03-21T21:04:09Z</time>
      </trkpt>
      <trkpt lat="37.922824043780565" lon="-7.506952844560146">
        <ele>224.12</ele>
        <time>2016-03-21T21:04:17Z</time>
      </trkpt>
      <trkpt lat="37.922361362725496" lon="-7.511638579890132">
        <ele>226.53</ele>
      </trkpt>
      <trkpt lat="37.921824418008327" lon="-7.517080446705222">
        <ele>227.00999999999999</ele>
      </trkpt>
      <trkpt lat="37.921591652557254" lon="-7.521182717755437">
        <ele>225.56999999999999</ele>
      </trkpt>
      <trkpt lat="37.921783681958914" lon="-7.526127202436328">
        <ele>226.05000000000001</ele>
      </trkpt>
      <trkpt lat="37.922053746879101" lon="-7.532481942325831">
        <ele>225.56999999999999</ele>
      </trkpt>
      <trkpt lat="37.922279806807637" lon="-7.535393731668592">
        <ele>210.19</ele>
      </trkpt>
      <trkpt lat="37.922902330756187" lon="-7.537703700363636">
        <ele>200.56999999999999</ele>
      </trkpt>
      <trkpt lat="37.923263004049659" lon="-7.53984309732914">
        <ele>201.05000000000001</ele>
      </trkpt>
      <trkpt lat="37.923204330727458" lon="-7.543029896914959">
        <ele>205.86000000000001</ele>
      </trkpt>
      <trkpt lat="37.923343135043979" lon="-7.546522384509444">
        <ele>213.55000000000001</ele>
      </trkpt>
      <trkpt lat="37.924115192145109" lon="-7.549798702821136">
        <ele>220.75999999999999</ele>
      </trkpt>
      <trkpt lat="37.925088750198483" lon="-7.553981775417924">
        <ele>228.93000000000001</ele>
      </trkpt>
      <trkpt lat="37.92514625005424" lon="-7.555980607867241">
        <ele>229.41</ele>
      </trkpt>
      <trkpt lat="37.924973079934716" lon="-7.560288989916444">
        <ele>220.75999999999999</ele>
      </trkpt>
      <trkpt lat="37.925172653049231" lon="-7.562430147081614">
        <ele>208.74000000000001</ele>
      </trkpt>
      <trkpt lat="37.926120646297932" lon="-7.56787670776248">
        <ele>202.00999999999999</ele>
      </trkpt>
      <trkpt lat="37.927070483565331" lon="-7.573500797152519">
        <ele>197.69</ele>
      </trkpt>
      <trkpt lat="37.927810186520219" lon="-7.577761569991708">
        <ele>190.47999999999999</ele>
      </trkpt>
      <trkpt lat="37.928458526730537" lon="-7.579814717173576">
        <ele>186.63</ele>
      </trkpt>
      <trkpt lat="37.929400904104114" lon="-7.581906421110034">
        <ele>189.52000000000001</ele>
      </trkpt>
      <trkpt lat="37.930211685597897" lon="-7.584408838301897">
        <ele>189.03999999999999</ele>
      </trkpt>
      <trkpt lat="37.931071249768138" lon="-7.58563444018364">
        <ele>181.34999999999999</ele>
      </trkpt>
      <trkpt lat="37.932358710095286" lon="-7.586450837552548">
        <ele>177.97999999999999</ele>
      </trkpt>
      <trkpt lat="37.933866698294878" lon="-7.586629539728165">
        <ele>177.02000000000001</ele>
      </trkpt>
      <trkpt lat="37.937035728245974" lon="-7.586731631308794">
        <ele>173.16999999999999</ele>
      </trkpt>
      <trkpt lat="37.940887967124581" lon="-7.586835902184248">
        <ele>168.84999999999999</ele>
      </trkpt>
      <trkpt lat="37.944934498518705" lon="-7.586967833340168">
        <ele>165.47999999999999</ele>
      </trkpt>
      <trkpt lat="37.946457490324974" lon="-7.587517770007253">
        <ele>162.59999999999999</ele>
      </trkpt>
      <trkpt lat="37.947696503251791" lon="-7.588652763515711">
        <ele>157.31</ele>
      </trkpt>
      <trkpt lat="37.948516504839063" lon="-7.590225879102945">
        <ele>152.99000000000001</ele>
      </trkpt>
      <trkpt lat="37.950197663158178" lon="-7.594682117924094">
        <ele>141.44999999999999</ele>
      </trkpt>
      <trkpt lat="37.951639853417873" lon="-7.598498063161969">
        <ele>136.16</ele>
      </trkpt>
      <trkpt lat="37.95310702174902" lon="-7.602374609559774">
        <ele>127.03</ele>
      </trkpt>
      <trkpt lat="37.954234471544623" lon="-7.60509847663343">
        <ele>118.86</ele>
      </trkpt>
      <trkpt lat="37.955169808119535" lon="-7.605987712740898">
        <ele>113.56999999999999</ele>
      </trkpt>
      <trkpt lat="37.957373913377523" lon="-7.607667362317443">
        <ele>104.92</ele>
      </trkpt>
      <trkpt lat="37.958633126690984" lon="-7.609355226159096">
        <ele>100.11</ele>
      </trkpt>
      <trkpt lat="37.95975336804986" lon="-7.611348275095224">
        <ele>99.629999999999995</ele>
      </trkpt>
      <trkpt lat="37.960381340235472" lon="-7.613512398675084">
        <ele>104.44</ele>
      </trkpt>
      <trkpt lat="37.96117284335196" lon="-7.617264306172729">
        <ele>108.77</ele>
      </trkpt>
      <trkpt lat="37.962248828262091" lon="-7.620696444064379">
        <ele>111.17</ele>
      </trkpt>
      <trkpt lat="37.963946918025613" lon="-7.62582709081471">
        <ele>113.09</ele>
      </trkpt>
      <trkpt lat="37.965114768594503" lon="-7.628114679828286">
        <ele>115.01000000000001</ele>
      </trkpt>
      <trkpt lat="37.967506209388375" lon="-7.63193104416132">
        <ele>117.90000000000001</ele>
      </trkpt>
      <trkpt lat="37.969128359109163" lon="-7.634937046095729">
        <ele>118.38</ele>
      </trkpt>
      <trkpt lat="37.969806538894773" lon="-7.637317003682256">
        <ele>124.15000000000001</ele>
      </trkpt>
      <trkpt lat="37.970629390329123" lon="-7.641461854800582">
        <ele>149.13999999999999</ele>
      </trkpt>
      <trkpt lat="37.971308492124081" lon="-7.643693704158068">
        <ele>160.19999999999999</ele>
      </trkpt>
      <trkpt lat="37.972342148423195" lon="-7.645642999559641">
        <ele>163.08000000000001</ele>
      </trkpt>
      <trkpt lat="37.97385860234499" lon="-7.64769078232348">
        <ele>165</ele>
      </trkpt>
      <trkpt lat="37.975997664034367" lon="-7.650514394044876">
        <ele>160.19999999999999</ele>
      </trkpt>
      <trkpt lat="37.977567426860332" lon="-7.652184907346964">
        <ele>155.87</ele>
      </trkpt>
      <trkpt lat="37.979478500783443" lon="-7.653411012142897">
        <ele>155.38999999999999</ele>
      </trkpt>
      <trkpt lat="37.982445945963264" lon="-7.655121171846986">
        <ele>157.31</ele>
      </trkpt>
      <trkpt lat="37.984566483646631" lon="-7.65664542093873">
        <ele>166.44999999999999</ele>
      </trkpt>
      <trkpt lat="37.986178826540709" lon="-7.658634865656495">
        <ele>177.97999999999999</ele>
      </trkpt>
      <trkpt lat="37.988816946744919" lon="-7.662923634052277">
        <ele>175.09999999999999</ele>
      </trkpt>
      <trkpt lat="37.991856141015887" lon="-7.667879434302449">
        <ele>169.33000000000001</ele>
      </trkpt>
      <trkpt lat="37.994047421962023" lon="-7.671471331268549">
        <ele>162.59999999999999</ele>
      </trkpt>
      <trkpt lat="37.99508610740304" lon="-7.673611901700497">
        <ele>165.47999999999999</ele>
      </trkpt>
      <trkpt lat="37.996914703398943" lon="-7.677983399480581">
        <ele>173.16999999999999</ele>
      </trkpt>
      <trkpt lat="37.99868680536747" lon="-7.682197233662009">
        <ele>183.27000000000001</ele>
      </trkpt>
      <trkpt lat="38.000503666698933" lon="-7.686546351760626">
        <ele>186.15000000000001</ele>
      </trkpt>
      <trkpt lat="38.002282474189997" lon="-7.690779464319348">
        <ele>183.75</ele>
      </trkpt>
      <trkpt lat="38.003759030252695" lon="-7.693699635565281">
        <ele>187.11000000000001</ele>
      </trkpt>
      <trkpt lat="38.006831249222159" lon="-7.698935810476542">
        <ele>185.66999999999999</ele>
      </trkpt>
      <trkpt lat="38.009435338899493" lon="-7.703391127288342">
        <ele>178.94</ele>
      </trkpt>
      <trkpt lat="38.010978866368532" lon="-7.706186827272177">
        <ele>170.77000000000001</ele>
      </trkpt>
      <trkpt lat="38.012165408581495" lon="-7.709228536114097">
        <ele>169.33000000000001</ele>
      </trkpt>
      <trkpt lat="38.013969026505947" lon="-7.713928855955601">
        <ele>172.21000000000001</ele>
      </trkpt>
      <trkpt lat="38.015424124896526" lon="-7.717657210305333">
        <ele>165.47999999999999</ele>
      </trkpt>
      <trkpt lat="38.016664059832692" lon="-7.720853229984641">
        <ele>158.27000000000001</ele>
      </trkpt>
      <trkpt lat="38.017938612028956" lon="-7.723630405962467">
        <ele>160.19999999999999</ele>
      </trkpt>
      <trkpt lat="38.019451210275292" lon="-7.725611887872219">
        <ele>161.63999999999999</ele>
      </trkpt>
      <trkpt lat="38.022009702399373" lon="-7.728794831782579">
        <ele>160.68000000000001</ele>
      </trkpt>
      <trkpt lat="38.024483034387231" lon="-7.73191231302917">
        <ele>156.34999999999999</ele>
      </trkpt>
      <trkpt lat="38.025363301858306" lon="-7.733504958450794">
        <ele>157.78999999999999</ele>
      </trkpt>
      <trkpt lat="38.025783905759454" lon="-7.735344702377915">
        <ele>159.24000000000001</ele>
      </trkpt>
      <trkpt lat="38.02585699595511" lon="-7.738702911883593">
        <ele>161.16</ele>
      </trkpt>
      <trkpt lat="38.025918435305357" lon="-7.742928313091397">
        <ele>163.56</ele>
      </trkpt>
      <trkpt lat="38.025859342887998" lon="-7.745790984481573">
        <ele>163.08000000000001</ele>
      </trkpt>
      <trkpt lat="38.025564216077328" lon="-7.749159168452025">
        <ele>160.19999999999999</ele>
      </trkpt>
      <trkpt lat="38.025135733187199" lon="-7.753965854644775">
        <ele>155.87</ele>
      </trkpt>
      <trkpt lat="38.024827865883708" lon="-7.757597314193845">
        <ele>152.99000000000001</ele>
      </trkpt>
      <trkpt lat="38.024535169824958" lon="-7.760940436273813">
        <ele>152.03</ele>
      </trkpt>
      <trkpt lat="38.024388737976551" lon="-7.764807930216193">
        <ele>153.94999999999999</ele>
      </trkpt>
      <trkpt lat="38.024499714374542" lon="-7.769111031666398">
        <ele>157.31</ele>
      </trkpt>
      <trkpt lat="38.024652516469359" lon="-7.773066535592079">
        <ele>155.87</ele>
      </trkpt>
      <trkpt lat="38.025145204737782" lon="-7.774629425257444">
        <ele>153.94999999999999</ele>
      </trkpt>
      <trkpt lat="38.026856370270252" lon="-7.778263399377465">
        <ele>158.75</ele>
      </trkpt>
      <trkpt lat="38.027774943038821" lon="-7.780645620077848">
        <ele>166.44999999999999</ele>
      </trkpt>
      <trkpt lat="38.027824312448502" lon="-7.782324850559235">
        <ele>168.84999999999999</ele>
      </trkpt>
      <trkpt lat="38.027550391852856" lon="-7.785796718671918">
        <ele>169.81</ele>
      </trkpt>
      <trkpt lat="38.027260797098279" lon="-7.788218753412366">
        <ele>173.66</ele>
      </trkpt>
      <trkpt lat="38.026782525703311" lon="-7.790457727387548">
        <ele>180.87</ele>
      </trkpt>
      <trkpt lat="38.026828626170754" lon="-7.792439796030521">
        <ele>182.78999999999999</ele>
      </trkpt>
      <trkpt lat="38.026918396353722" lon="-7.794723864644766">
        <ele>186.63</ele>
      </trkpt>
      <trkpt lat="38.02659384906292" lon="-7.796629322692752">
        <ele>190</ele>
      </trkpt>
      <trkpt lat="38.025764795020223" lon="-7.798439897596836">
        <ele>188.56</ele>
      </trkpt>
      <trkpt lat="38.024309445172548" lon="-7.801369959488511">
        <ele>186.63</ele>
      </trkpt>
      <trkpt lat="38.023973247036338" lon="-7.803230155259371">
        <ele>187.59</ele>
      </trkpt>
      <trkpt lat="38.023948017507792" lon="-7.805877830833197">
        <ele>192.88</ele>
      </trkpt>
      <trkpt lat="38.023861180990934" lon="-7.809498393908143">
        <ele>198.16999999999999</ele>
      </trkpt>
      <trkpt lat="38.023707373067737" lon="-7.812545970082283">
        <ele>204.90000000000001</ele>
      </trkpt>
      <trkpt lat="38.023549122735858" lon="-7.814916037023068">
        <ele>211.15000000000001</ele>
      </trkpt>
      <trkpt lat="38.023397410288453" lon="-7.817541668191552">
        <ele>216.43000000000001</ele>
      </trkpt>
      <trkpt lat="38.023155843839049" lon="-7.821714263409376">
        <ele>221.24000000000001</ele>
      </trkpt>
      <trkpt lat="38.022789051756263" lon="-7.823742851614952">
        <ele>221.72</ele>
      </trkpt>
      <trkpt lat="38.021840220317245" lon="-7.826038906350732">
        <ele>223.63999999999999</ele>
      </trkpt>
      <trkpt lat="38.020514622330666" lon="-7.829176001250744">
        <ele>225.09</ele>
      </trkpt>
      <trkpt lat="38.019925625994802" lon="-7.831350434571505">
        <ele>224.12</ele>
      </trkpt>
      <trkpt lat="38.019649107009172" lon="-7.835063701495528">
        <ele>227.97</ele>
      </trkpt>
      <trkpt lat="38.019587080925703" lon="-7.838328368961811">
        <ele>241.91</ele>
      </trkpt>
      <trkpt lat="38.020048839971423" lon="-7.840893650427461">
        <ele>244.78999999999999</ele>
      </trkpt>
      <trkpt lat="38.020446561276913" lon="-7.842944785952568">
        <ele>247.19999999999999</ele>
      </trkpt>
      <trkpt lat="38.020384116098285" lon="-7.844942193478346">
        <ele>253.44</ele>
      </trkpt>
      <trkpt lat="38.020284874364734" lon="-7.846351023763418">
        <ele>257.76999999999998</ele>
      </trkpt>
      <trkpt lat="38.020354695618153" lon="-7.847313601523638">
        <ele>255.37</ele>
      </trkpt>
      <trkpt lat="38.020379925146699" lon="-7.847403455525637">
        <ele>253.44</ele>
      </trkpt>
      <trkpt lat="38.020602045580745" lon="-7.848291350528598">
        <ele>253.44</ele>
      </trkpt>
      <trkpt lat="38.02122968249023" lon="-7.850063871592283">
        <ele>0</ele>
      </trkpt>
      <trkpt lat="38.022303991019726" lon="-7.852973062545061">
        <ele>0</ele>
      </trkpt>
      <trkpt lat="38.023179983720183" lon="-7.855321168899536">
        <ele>0</ele>
      </trkpt>
      <trkpt lat="38.024265188723803" lon="-7.858271431177855">
        <ele>0</ele>
      </trkpt>
      <trkpt lat="38.02529213950038" lon="-7.861059084534645">
        <ele>0</ele>
      </trkpt>
      <trkpt lat="38.026084648445249" lon="-7.863391265273094">
        <ele>0</ele>
      </trkpt>
      <trkpt lat="38.026464181020856" lon="-7.865698467940092">
        <ele>0</ele>
      </trkpt>
      <trkpt lat="38.026465186849236" lon="-7.8680828679353">
        <ele>0</ele>
      </trkpt>
      <trkpt lat="38.026094455271959" lon="-7.871419368311763">
        <ele>0</ele>
      </trkpt>
      <trkpt lat="38.025866132229567" lon="-7.873462624847889">
        <ele>0</ele>
      </trkpt>
      <trkpt lat="38.025771919637918" lon="-7.874360159039497">
        <ele>0</ele>
      </trkpt>
      <trkpt lat="38.025890020653605" lon="-7.874840022996068">
        <ele>0</ele>
      </trkpt>
      <trkpt lat="38.025890020653605" lon="-7.874849997460842">
        <ele>0</ele>
      </trkpt>
      <trkpt lat="38.02589999511838" lon="-7.874849997460842">
        <ele>0</ele>
      </trkpt>
      <trkpt lat="38.02589999511838" lon="-7.874859971925616">
        <ele>0</ele>
      </trkpt>
      <trkpt lat="38.02605003118515" lon="-7.87491001188755">
        <ele>0</ele>
      </trkpt>
      <trkpt lat="38.026109961792827" lon="-7.874919986352325">
        <ele>0</ele>
      </trkpt>
      <trkpt lat="38.026199983432889" lon="-7.874919986352325">
        <ele>0</ele>
      </trkpt>
      <trkpt lat="38.026369968429208" lon="-7.87491001188755">
        <ele>0</ele>
      </trkpt>
      <trkpt lat="38.033189987763762" lon="-7.872829958796501">
        <ele>0</ele>
      </trkpt>
      <trkpt lat="38.033789964392781" lon="-7.872659973800182">
        <ele>0</ele>
      </trkpt>
      <trkpt lat="38.034260021522641" lon="-7.872599959373474">
        <ele>0</ele>
      </trkpt>
      <trkpt lat="38.034439980983734" lon="-7.8725899849087">
        <ele>0</ele>
      </trkpt>
      <trkpt lat="38.034739969298244" lon="-7.8725899849087">
        <ele>0</ele>
      </trkpt>
      <trkpt lat="38.035129979252815" lon="-7.872640024870634">
        <ele>0</ele>
      </trkpt>
      <trkpt lat="38.035610010847449" lon="-7.872759969905019">
        <ele>0</ele>
      </trkpt>
      <trkpt lat="38.035919973626733" lon="-7.872859966009855">
        <ele>0</ele>
      </trkpt>
      <trkpt lat="38.03619003854692" lon="-7.872989969328046">
        <ele>0</ele>
      </trkpt>
      <trkpt lat="38.042600015178323" lon="-7.876429986208677">
        <ele>0</ele>
      </trkpt>
      <trkpt lat="38.042670004069805" lon="-7.876450018957257">
        <ele>0</ele>
      </trkpt>
      <trkpt lat="38.042700011283159" lon="-7.876450018957257">
        <ele>0</ele>
      </trkpt>
      <trkpt lat="38.042730018496513" lon="-7.876469967886806">
        <ele>0</ele>
      </trkpt>
      <trkpt lat="38.04296001791954" lon="-7.876550015062094">
        <ele>0</ele>
      </trkpt>
      <trkpt lat="38.043450023978949" lon="-7.876699967309833">
        <ele>0</ele>
      </trkpt>
      <trkpt lat="38.043880015611649" lon="-7.876789988949895">
        <ele>0</ele>
      </trkpt>
      <trkpt lat="38.044180003926158" lon="-7.876829970628023">
        <ele>0</ele>
      </trkpt>
      <trkpt lat="38.044500024989247" lon="-7.876829970628023">
        <ele>0</ele>
      </trkpt>
      <trkpt lat="38.044760031625628" lon="-7.876799963414669">
        <ele>0</ele>
      </trkpt>
      <trkpt lat="38.044809987768531" lon="-7.876799963414669">
        <ele>0</ele>
      </trkpt>
      <trkpt lat="38.04545002989471" lon="-7.876680018380284">
        <ele>0</ele>
      </trkpt>
      <trkpt lat="38.04556000046432" lon="-7.87665001116693">
        <ele>0</ele>
      </trkpt>
      <trkpt lat="38.046640008687973" lon="-7.876429986208677">
        <ele>0</ele>
      </trkpt>
      <trkpt lat="38.04671997204423" lon="-7.876429986208677">
        <ele>0</ele>
      </trkpt>
      <trkpt lat="38.05176998488605" lon="-7.875179992988706">
        <ele>0</ele>
      </trkpt>
      <trkpt lat="38.052210034802556" lon="-7.875059964135289">
        <ele>0</ele>
      </trkpt>
      <trkpt lat="38.052559979259968" lon="-7.874940019100905">
        <ele>0</ele>
      </trkpt>
      <trkpt lat="38.052959963679314" lon="-7.87475997582078">
        <ele>0</ele>
      </trkpt>
      <trkpt lat="38.053160039708018" lon="-7.874650005251169">
        <ele>0</ele>
      </trkpt>
      <trkpt lat="38.053479976952076" lon="-7.874450013041496">
        <ele>0</ele>
      </trkpt>
      <trkpt lat="38.056510034948587" lon="-7.872229982167482">
        <ele>0</ele>
      </trkpt>
      <trkpt lat="38.056770041584969" lon="-7.872059997171164">
        <ele>0</ele>
      </trkpt>
      <trkpt lat="38.057019989937544" lon="-7.871909961104393">
        <ele>0</ele>
      </trkpt>
      <trkpt lat="38.057189974933863" lon="-7.871820023283362">
        <ele>0</ele>
      </trkpt>
      <trkpt lat="38.057300029322505" lon="-7.871780041605234">
        <ele>0</ele>
      </trkpt>
      <trkpt lat="38.057379992678761" lon="-7.871739976108074">
        <ele>0</ele>
      </trkpt>
      <trkpt lat="38.057709988206625" lon="-7.871630005538464">
        <ele>0</ele>
      </trkpt>
      <trkpt lat="38.057939987629652" lon="-7.871569991111755">
        <ele>0</ele>
      </trkpt>
      <trkpt lat="38.058130005374551" lon="-7.871530009433627">
        <ele>0</ele>
      </trkpt>
      <trkpt lat="38.058260008692741" lon="-7.871520034968853">
        <ele>0</ele>
      </trkpt>
      <trkpt lat="38.058350030332804" lon="-7.871500002220273">
        <ele>0</ele>
      </trkpt>
      <trkpt lat="38.05845002643764" lon="-7.871500002220273">
        <ele>0</ele>
      </trkpt>
      <trkpt lat="38.058599978685379" lon="-7.871490027755499">
        <ele>0</ele>
      </trkpt>
      <trkpt lat="38.05872998200357" lon="-7.871490027755499">
        <ele>0</ele>
      </trkpt>
      <trkpt lat="38.059219988062978" lon="-7.871539983898401">
        <ele>0</ele>
      </trkpt>
      <trkpt lat="38.059630030766129" lon="-7.871639980003238">
        <ele>0</ele>
      </trkpt>
      <trkpt lat="38.061389978975058" lon="-7.872259989380837">
        <ele>0</ele>
      </trkpt>
      <trkpt lat="38.061770014464855" lon="-7.872350011020899">
        <ele>0</ele>
      </trkpt>
      <trkpt lat="38.062160024419427" lon="-7.872399967163801">
        <ele>0</ele>
      </trkpt>
      <trkpt lat="38.062539976090193" lon="-7.872399967163801">
        <ele>0</ele>
      </trkpt>
      <trkpt lat="38.062799982726574" lon="-7.872380018234253">
        <ele>0</ele>
      </trkpt>
      <trkpt lat="38.063020007684827" lon="-7.872350011020899">
        <ele>0</ele>
      </trkpt>
      <trkpt lat="38.063029982149601" lon="-7.872340036556125">
        <ele>0</ele>
      </trkpt>
      <trkpt lat="38.063749987632036" lon="-7.87218002602458">
        <ele>0</ele>
      </trkpt>
      <trkpt lat="38.06380002759397" lon="-7.872159993276">
        <ele>0</ele>
      </trkpt>
      <trkpt lat="38.071950003504753" lon="-7.870140038430691">
        <ele>0</ele>
      </trkpt>
      <trkpt lat="38.072749972343445" lon="-7.869920013472438">
        <ele>0</ele>
      </trkpt>
      <trkpt lat="38.073529992252588" lon="-7.869639974087477">
        <ele>0</ele>
      </trkpt>
      <trkpt lat="38.073650021106005" lon="-7.869590017944574">
        <ele>0</ele>
      </trkpt>
      <trkpt lat="38.074200041592121" lon="-7.869320036843419">
        <ele>0</ele>
      </trkpt>
      <trkpt lat="38.075130013749003" lon="-7.868800023570657">
        <ele>0</ele>
      </trkpt>
      <trkpt lat="38.07523000985384" lon="-7.868749983608723">
        <ele>0</ele>
      </trkpt>
      <trkpt lat="38.098059967160225" lon="-7.85570003092289">
        <ele>0</ele>
      </trkpt>
      <trkpt lat="38.098460035398602" lon="-7.855489980429411">
        <ele>0</ele>
      </trkpt>
      <trkpt lat="38.098809979856014" lon="-7.855329969897866">
        <ele>0</ele>
      </trkpt>
      <trkpt lat="38.099060012027621" lon="-7.855240032076836">
        <ele>0</ele>
      </trkpt>
      <trkpt lat="38.09907996095717" lon="-7.855240032076836">
        <ele>0</ele>
      </trkpt>
      <trkpt lat="38.09925002977252" lon="-7.855180017650127">
        <ele>0</ele>
      </trkpt>
      <trkpt lat="38.099399982020259" lon="-7.855140035971999">
        <ele>0</ele>
      </trkpt>
      <trkpt lat="38.099520010873675" lon="-7.855120003223419">
        <ele>0</ele>
      </trkpt>
      <trkpt lat="38.099669963121414" lon="-7.855080021545291">
        <ele>0</ele>
      </trkpt>
      <trkpt lat="38.100389968603849" lon="-7.854989999905229">
        <ele>0</ele>
      </trkpt>
      <trkpt lat="38.10591003857553" lon="-7.854509968310595">
        <ele>0</ele>
      </trkpt>
      <trkpt lat="38.10631999745965" lon="-7.854490019381046">
        <ele>0</ele>
      </trkpt>
      <trkpt lat="38.106440026313066" lon="-7.854490019381046">
        <ele>0</ele>
      </trkpt>
      <trkpt lat="38.107479969039559" lon="-7.854439979419112">
        <ele>0</ele>
      </trkpt>
      <trkpt lat="38.107639979571104" lon="-7.854439979419112">
        <ele>0</ele>
      </trkpt>
      <trkpt lat="38.107950026169419" lon="-7.854420030489564">
        <ele>0</ele>
      </trkpt>
      <trkpt lat="38.10805999673903" lon="-7.854420030489564">
        <ele>0</ele>
      </trkpt>
      <trkpt lat="38.109130030497909" lon="-7.85436999052763">
        <ele>0</ele>
      </trkpt>
      <trkpt lat="38.109339997172356" lon="-7.854350041598082">
        <ele>0</ele>
      </trkpt>
      <trkpt lat="38.109609978273511" lon="-7.854350041598082">
        <ele>0</ele>
      </trkpt>
      <trkpt lat="38.110469961538911" lon="-7.854300001636148">
        <ele>0</ele>
      </trkpt>
      <trkpt lat="38.110570041462779" lon="-7.854300001636148">
        <ele>0</ele>
      </trkpt>
      <trkpt lat="38.111140010878444" lon="-7.854239987209439">
        <ele>0</ele>
      </trkpt>
      <trkpt lat="38.111249981448054" lon="-7.854220038279891">
        <ele>0</ele>
      </trkpt>
      <trkpt lat="38.111409991979599" lon="-7.854179972782731">
        <ele>0</ele>
      </trkpt>
      <trkpt lat="38.111730013042688" lon="-7.854079976677895">
        <ele>0</ele>
      </trkpt>
      <trkpt lat="38.112030001357198" lon="-7.85396003164351">
        <ele>0</ele>
      </trkpt>
      <trkpt lat="38.112339964136481" lon="-7.853789962828159">
        <ele>0</ele>
      </trkpt>
      <trkpt lat="38.112480025738478" lon="-7.853700025007129">
        <ele>0</ele>
      </trkpt>
      <trkpt lat="38.112799962982535" lon="-7.853470025584102">
        <ele>0</ele>
      </trkpt>
      <trkpt lat="38.113110009580851" lon="-7.853199960663915">
        <ele>0</ele>
      </trkpt>
      <trkpt lat="38.113270020112395" lon="-7.853050008416176">
        <ele>0</ele>
      </trkpt>
      <trkpt lat="38.113479986786842" lon="-7.852829983457923">
        <ele>0</ele>
      </trkpt>
      <trkpt lat="38.113700011745095" lon="-7.852580035105348">
        <ele>0</ele>
      </trkpt>
      <trkpt lat="38.113960018381476" lon="-7.852260014042258">
        <ele>0</ele>
      </trkpt>
      <trkpt lat="38.116100002080202" lon="-7.849749969318509">
        <ele>0</ele>
      </trkpt>
      <trkpt lat="38.116380041465163" lon="-7.849479988217354">
        <ele>0</ele>
      </trkpt>
      <trkpt lat="38.116690004244447" lon="-7.849219981580973">
        <ele>0</ele>
      </trkpt>
      <trkpt lat="38.116959985345602" lon="-7.849010014906526">
        <ele>0</ele>
      </trkpt>
      <trkpt lat="38.117159977555275" lon="-7.848889986053109">
        <ele>0</ele>
      </trkpt>
      <trkpt lat="38.117280006408691" lon="-7.848810022696853">
        <ele>0</ele>
      </trkpt>
      <trkpt lat="38.117630034685135" lon="-7.848620004951954">
        <ele>0</ele>
      </trkpt>
      <trkpt lat="38.118260018527508" lon="-7.848309958353639">
        <ele>0</ele>
      </trkpt>
      <trkpt lat="38.11833000741899" lon="-7.848250027745962">
        <ele>0</ele>
      </trkpt>
      <trkpt lat="38.118360014632344" lon="-7.848229994997382">
        <ele>0</ele>
      </trkpt>
      <trkpt lat="38.120300006121397" lon="-7.847309997305274">
        <ele>0</ele>
      </trkpt>
      <trkpt lat="38.120400002226233" lon="-7.847270015627146">
        <ele>0</ele>
      </trkpt>
      <trkpt lat="38.12047996558249" lon="-7.847249982878566">
        <ele>0</ele>
      </trkpt>
      <trkpt lat="38.120990004390478" lon="-7.847059965133667">
        <ele>0</ele>
      </trkpt>
      <trkpt lat="38.121340032666922" lon="-7.846880005672574">
        <ele>0</ele>
      </trkpt>
      <trkpt lat="38.122479971498251" lon="-7.846329985186458">
        <ele>0</ele>
      </trkpt>
      <trkpt lat="38.123459983617067" lon="-7.845899993553758">
        <ele>0</ele>
      </trkpt>
      <trkpt lat="38.124419962987304" lon="-7.845520041882992">
        <ele>0</ele>
      </trkpt>
      <trkpt lat="38.124809972941875" lon="-7.84540998749435">
        <ele>0</ele>
      </trkpt>
      <trkpt lat="38.125190008431673" lon="-7.845349973067641">
        <ele>0</ele>
      </trkpt>
      <trkpt lat="38.125310037285089" lon="-7.845309991389513">
        <ele>0</ele>
      </trkpt>
      <trkpt lat="38.125689988955855" lon="-7.845249976962805">
        <ele>0</ele>
      </trkpt>
      <trkpt lat="38.126349980011582" lon="-7.845179988071322">
        <ele>0</ele>
      </trkpt>
      <trkpt lat="38.127009971067309" lon="-7.84508996643126">
        <ele>0</ele>
      </trkpt>
      <trkpt lat="38.127229996025562" lon="-7.845070017501712">
        <ele>0</ele>
      </trkpt>
      <trkpt lat="38.127290010452271" lon="-7.845070017501712">
        <ele>0</ele>
      </trkpt>
      <trkpt lat="38.128289971500635" lon="-7.84495996311307">
        <ele>0</ele>
      </trkpt>
      <trkpt lat="38.128839991986752" lon="-7.844870025292039">
        <ele>0</ele>
      </trkpt>
      <trkpt lat="38.129239976406097" lon="-7.844789978116751">
        <ele>0</ele>
      </trkpt>
      <trkpt lat="38.129390012472868" lon="-7.844749996438623">
        <ele>0</ele>
      </trkpt>
      <trkpt lat="38.129529990255833" lon="-7.84470004029572">
        <ele>0</ele>
      </trkpt>
      <trkpt lat="38.129720008000731" lon="-7.844650000333786">
        <ele>0</ele>
      </trkpt>
      <trkpt lat="38.12978002242744" lon="-7.844629967585206">
        <ele>0</ele>
      </trkpt>
      <trkpt lat="38.13034001737833" lon="-7.844399968162179">
        <ele>0</ele>
      </trkpt>
      <trkpt lat="38.131490014493465" lon="-7.843839973211289">
        <ele>0</ele>
      </trkpt>
      <trkpt lat="38.131580036133528" lon="-7.843790017068386">
        <ele>0</ele>
      </trkpt>
      <trkpt lat="38.134819976985455" lon="-7.842220002785325">
        <ele>0</ele>
      </trkpt>
      <trkpt lat="38.134940005838871" lon="-7.842169962823391">
        <ele>0</ele>
      </trkpt>
      <trkpt lat="38.135079983621836" lon="-7.842099973931909">
        <ele>0</ele>
      </trkpt>
      <trkpt lat="38.13510999083519" lon="-7.84208002500236">
        <ele>0</ele>
      </trkpt>
      <trkpt lat="38.135279975831509" lon="-7.841999977827072">
        <ele>0</ele>
      </trkpt>
      <trkpt lat="38.135300008580089" lon="-7.841980028897524">
        <ele>0</ele>
      </trkpt>
      <trkpt lat="38.135420037433505" lon="-7.84192998893559">
        <ele>0</ele>
      </trkpt>
      <trkpt lat="38.13556001521647" lon="-7.841850025579333">
        <ele>0</ele>
      </trkpt>
      <trkpt lat="38.135679960250854" lon="-7.841799985617399">
        <ele>0</ele>
      </trkpt>
      <trkpt lat="38.135829996317625" lon="-7.841720022261143">
        <ele>0</ele>
      </trkpt>
      <trkpt lat="38.135980032384396" lon="-7.84163000062108">
        <ele>0</ele>
      </trkpt>
      <trkpt lat="38.136169966310263" lon="-7.841530004516244">
        <ele>0</ele>
      </trkpt>
      <trkpt lat="38.136859964579344" lon="-7.841109987348318">
        <ele>0</ele>
      </trkpt>
      <trkpt lat="38.137119971215725" lon="-7.840930027887225">
        <ele>0</ele>
      </trkpt>
      <trkpt lat="38.137469999492168" lon="-7.840730035677552">
        <ele>0</ele>
      </trkpt>
      <trkpt lat="38.137830002233386" lon="-7.840489977970719">
        <ele>0</ele>
      </trkpt>
      <trkpt lat="38.143430035561323" lon="-7.83703001216054">
        <ele>0</ele>
      </trkpt>
      <trkpt lat="38.15292002633214" lon="-7.831050027161837">
        <ele>0</ele>
      </trkpt>
      <trkpt lat="38.153050029650331" lon="-7.830960005521774">
        <ele>0</ele>
      </trkpt>
      <trkpt lat="38.155569965019822" lon="-7.829389991238713">
        <ele>0</ele>
      </trkpt>
      <trkpt lat="38.155919993296266" lon="-7.829129984602332">
        <ele>0</ele>
      </trkpt>
      <trkpt lat="38.157590003684163" lon="-7.828119965270162">
        <ele>0</ele>
      </trkpt>
      <trkpt lat="38.159379959106445" lon="-7.827089997008443">
        <ele>0</ele>
      </trkpt>
      <trkpt lat="38.173809992149472" lon="-7.818120019510388">
        <ele>0</ele>
      </trkpt>
      <trkpt lat="38.17387000657618" lon="-7.818069979548454">
        <ele>0</ele>
      </trkpt>
      <trkpt lat="38.174920007586479" lon="-7.817409988492727">
        <ele>0</ele>
      </trkpt>
      <trkpt lat="38.17518001422286" lon="-7.817219970747829">
        <ele>0</ele>
      </trkpt>
      <trkpt lat="38.175250003114343" lon="-7.817149981856346">
        <ele>0</ele>
      </trkpt>
      <trkpt lat="38.175349999219179" lon="-7.817079992964864">
        <ele>0</ele>
      </trkpt>
      <trkpt lat="38.175440020859241" lon="-7.816989971324801">
        <ele>0</ele>
      </trkpt>
      <trkpt lat="38.175529958680272" lon="-7.816910007968545">
        <ele>0</ele>
      </trkpt>
      <trkpt lat="38.175749983638525" lon="-7.816689983010292">
        <ele>0</ele>
      </trkpt>
      <trkpt lat="38.176100011914968" lon="-7.81629997305572">
        <ele>0</ele>
      </trkpt>
      <trkpt lat="38.176390025764704" lon="-7.815950028598309">
        <ele>0</ele>
      </trkpt>
      <trkpt lat="38.179780002683401" lon="-7.811300000175834">
        <ele>0</ele>
      </trkpt>
      <trkpt lat="38.181680012494326" lon="-7.808749973773956">
        <ele>0</ele>
      </trkpt>
      <trkpt lat="38.182070022448897" lon="-7.808249993249774">
        <ele>0</ele>
      </trkpt>
      <trkpt lat="38.182360036298633" lon="-7.807919997721911">
        <ele>0</ele>
      </trkpt>
      <trkpt lat="38.182609984651208" lon="-7.807659991085529">
        <ele>0</ele>
      </trkpt>
      <trkpt lat="38.182939980179071" lon="-7.8073800355196">
        <ele>0</ele>
      </trkpt>
      <trkpt lat="38.183160005137324" lon="-7.807209966704249">
        <ele>0</ele>
      </trkpt>
      <trkpt lat="38.183369971811771" lon="-7.807060014456511">
        <ele>0</ele>
      </trkpt>
      <trkpt lat="38.183640036731958" lon="-7.806890029460192">
        <ele>0</ele>
      </trkpt>
      <trkpt lat="38.188119996339083" lon="-7.804460031911731">
        <ele>0</ele>
      </trkpt>
      <trkpt lat="38.188150003552437" lon="-7.804439999163151">
        <ele>0</ele>
      </trkpt>
      <trkpt lat="38.188740005716681" lon="-7.804119978100061">
        <ele>0</ele>
      </trkpt>
      <trkpt lat="38.189539974555373" lon="-7.803710019215941">
        <ele>0</ele>
      </trkpt>
      <trkpt lat="38.189859995618463" lon="-7.803570041432977">
        <ele>0</ele>
      </trkpt>
      <trkpt lat="38.19024003110826" lon="-7.803440038114786">
        <ele>0</ele>
      </trkpt>
      <trkpt lat="38.190510012209415" lon="-7.803369965404272">
        <ele>0</ele>
      </trkpt>
      <trkpt lat="38.190900022163987" lon="-7.803310034796596">
        <ele>0</ele>
      </trkpt>
      <trkpt lat="38.191090039908886" lon="-7.803290002048016">
        <ele>0</ele>
      </trkpt>
      <trkpt lat="38.191360021010041" lon="-7.803280027583242">
        <ele>0</ele>
      </trkpt>
      <trkpt lat="38.191639976575971" lon="-7.803280027583242">
        <ele>0</ele>
      </trkpt>
      <trkpt lat="38.19193996489048" lon="-7.80329997651279">
        <ele>0</ele>
      </trkpt>
      <trkpt lat="38.193500004708767" lon="-7.80345001257956">
        <ele>0</ele>
      </trkpt>
      <trkpt lat="38.193960003554821" lon="-7.803469961509109">
        <ele>0</ele>
      </trkpt>
      <trkpt lat="38.194570038467646" lon="-7.803459987044334">
        <ele>0</ele>
      </trkpt>
      <trkpt lat="38.194829961284995" lon="-7.803440038114786">
        <ele>0</ele>
      </trkpt>
      <trkpt lat="38.19514000788331" lon="-7.803399972617626">
        <ele>0</ele>
      </trkpt>
      <trkpt lat="38.195560025051236" lon="-7.803310034796596">
        <ele>0</ele>
      </trkpt>
      <trkpt lat="38.196090012788773" lon="-7.803159998729825">
        <ele>0</ele>
      </trkpt>
      <trkpt lat="38.197059966623783" lon="-7.802830003201962">
        <ele>0</ele>
      </trkpt>
      <trkpt lat="38.197670001536608" lon="-7.80259002931416">
        <ele>0</ele>
      </trkpt>
      <trkpt lat="38.197830012068152" lon="-7.802520040422678">
        <ele>0</ele>
      </trkpt>
      <trkpt lat="38.198120025917888" lon="-7.802370004355907">
        <ele>0</ele>
      </trkpt>
      <trkpt lat="38.198580024763942" lon="-7.802089964970946">
        <ele>0</ele>
      </trkpt>
      <trkpt lat="38.198829973116517" lon="-7.801910005509853">
        <ele>0</ele>
      </trkpt>
      <trkpt lat="38.199279997497797" lon="-7.801519995555282">
        <ele>0</ele>
      </trkpt>
      <trkpt lat="38.199300030246377" lon="-7.801489988341928">
        <ele>0</ele>
      </trkpt>
      <trkpt lat="38.19950002245605" lon="-7.801299970597029">
        <ele>0</ele>
      </trkpt>
      <trkpt lat="38.199549978598952" lon="-7.801159992814064">
        <ele>0</ele>
      </trkpt>
      <trkpt lat="38.199860025197268" lon="-7.800820022821426">
        <ele>0</ele>
      </trkpt>
      <trkpt lat="38.200130006298423" lon="-7.800490027293563">
        <ele>0</ele>
      </trkpt>
      <trkpt lat="38.200179962441325" lon="-7.800409980118275">
        <ele>0</ele>
      </trkpt>
      <trkpt lat="38.200759990140796" lon="-7.799670025706291">
        <ele>0</ele>
      </trkpt>
      <trkpt lat="38.200910026207566" lon="-7.799570029601455">
        <ele>0</ele>
      </trkpt>
      <trkpt lat="38.201040029525757" lon="-7.799340030178428">
        <ele>0</ele>
      </trkpt>
      <trkpt lat="38.20137002505362" lon="-7.798899980261922">
        <ele>0</ele>
      </trkpt>
      <trkpt lat="38.201700020581484" lon="-7.798539977520704">
        <ele>0</ele>
      </trkpt>
      <trkpt lat="38.202620018273592" lon="-7.797480002045631">
        <ele>0</ele>
      </trkpt>
      <trkpt lat="38.206579964607954" lon="-7.792550018057227">
        <ele>0</ele>
      </trkpt>
      <trkpt lat="38.20669999346137" lon="-7.792420014739037">
        <ele>0</ele>
      </trkpt>
      <trkpt lat="38.206839971244335" lon="-7.792250029742718">
        <ele>0</ele>
      </trkpt>
      <trkpt lat="38.206890011206269" lon="-7.792209964245558">
        <ele>0</ele>
      </trkpt>
      <trkpt lat="38.206929992884398" lon="-7.792160008102655">
        <ele>0</ele>
      </trkpt>
      <trkpt lat="38.207210032269359" lon="-7.791860019788146">
        <ele>0</ele>
      </trkpt>
      <trkpt lat="38.20742997340858" lon="-7.791639994829893">
        <ele>0</ele>
      </trkpt>
      <trkpt lat="38.207719987258315" lon="-7.791379988193512">
        <ele>0</ele>
      </trkpt>
      <trkpt lat="38.20798996835947" lon="-7.791170021519065">
        <ele>0</ele>
      </trkpt>
      <trkpt lat="38.20846002548933" lon="-7.79085997492075">
        <ele>0</ele>
      </trkpt>
      <trkpt lat="38.208669992163777" lon="-7.790750004351139">
        <ele>0</ele>
      </trkpt>
      <trkpt lat="38.208969980478287" lon="-7.790610026568174">
        <ele>0</ele>
      </trkpt>
      <trkpt lat="38.209280027076602" lon="-7.790499972179532">
        <ele>0</ele>
      </trkpt>
      <trkpt lat="38.209610022604465" lon="-7.790420008823276">
        <ele>0</ele>
      </trkpt>
      <trkpt lat="38.210010007023811" lon="-7.790359994396567">
        <ele>0</ele>
      </trkpt>
      <trkpt lat="38.210149984806776" lon="-7.790350019931793">
        <ele>0</ele>
      </trkpt>
      <trkpt lat="38.210240006446838" lon="-7.790350019931793">
        <ele>0</ele>
      </trkpt>
      <trkpt lat="38.210319969803095" lon="-7.790339961647987">
        <ele>0</ele>
      </trkpt>
      <trkpt lat="38.21050001308322" lon="-7.790339961647987">
        <ele>0</ele>
      </trkpt>
      <trkpt lat="38.211009968072176" lon="-7.790390001609922">
        <ele>0</ele>
      </trkpt>
      <trkpt lat="38.21146996691823" lon="-7.790499972179532">
        <ele>0</ele>
      </trkpt>
      <trkpt lat="38.211710024625063" lon="-7.79058001935482">
        <ele>0</ele>
      </trkpt>
      <trkpt lat="38.212049994617701" lon="-7.790729971602559">
        <ele>0</ele>
      </trkpt>
      <trkpt lat="38.212449979037046" lon="-7.790940022096038">
        <ele>0</ele>
      </trkpt>
      <trkpt lat="38.212790032848716" lon="-7.791140014305711">
        <ele>0</ele>
      </trkpt>
      <trkpt lat="38.213329995051026" lon="-7.791509991511703">
        <ele>0</ele>
      </trkpt>
      <trkpt lat="38.219639975577593" lon="-7.796309972181916">
        <ele>0</ele>
      </trkpt>
      <trkpt lat="38.219709964469075" lon="-7.79633997939527">
        <ele>0</ele>
      </trkpt>
      <trkpt lat="38.220510017126799" lon="-7.796920007094741">
        <ele>0</ele>
      </trkpt>
      <trkpt lat="38.221230022609234" lon="-7.797480002045631">
        <ele>0</ele>
      </trkpt>
      <trkpt lat="38.221270004287362" lon="-7.797559965401888">
        <ele>0</ele>
      </trkpt>
      <trkpt lat="38.22176001034677" lon="-7.797919968143106">
        <ele>0</ele>
      </trkpt>
      <trkpt lat="38.222009958699346" lon="-7.798090036958456">
        <ele>0</ele>
      </trkpt>
      <trkpt lat="38.222299972549081" lon="-7.798260021954775">
        <ele>0</ele>
      </trkpt>
      <trkpt lat="38.222819985821843" lon="-7.79850997030735">
        <ele>0</ele>
      </trkpt>
      <trkpt lat="38.223240002989769" lon="-7.798660006374121">
        <ele>0</ele>
      </trkpt>
      <trkpt lat="38.223339999094605" lon="-7.798680039122701">
        <ele>0</ele>
      </trkpt>
      <trkpt lat="38.223600005730987" lon="-7.798750028014183">
        <ele>0</ele>
      </trkpt>
      <trkpt lat="38.223750041797757" lon="-7.798780035227537">
        <ele>0</ele>
      </trkpt>
      <trkpt lat="38.223890019580722" lon="-7.798799984157085">
        <ele>0</ele>
      </trkpt>
      <trkpt lat="38.224469963461161" lon="-7.79885002411902">
        <ele>0</ele>
      </trkpt>
      <trkpt lat="38.22970999404788" lon="-7.799010034650564">
        <ele>0</ele>
      </trkpt>
      <trkpt lat="38.230000007897615" lon="-7.799010034650564">
        <ele>0</ele>
      </trkpt>
      <trkpt lat="38.230720013380051" lon="-7.798969969153404">
        <ele>0</ele>
      </trkpt>
      <trkpt lat="38.233140036463737" lon="-7.798760002478957">
        <ele>0</ele>
      </trkpt>
      <trkpt lat="38.23374998755753" lon="-7.798690013587475">
        <ele>0</ele>
      </trkpt>
      <trkpt lat="38.234469993039966" lon="-7.798560010269284">
        <ele>0</ele>
      </trkpt>
      <trkpt lat="38.234999980777502" lon="-7.79842003248632">
        <ele>0</ele>
      </trkpt>
      <trkpt lat="38.23548998683691" lon="-7.798269996419549">
        <ele>0</ele>
      </trkpt>
      <trkpt lat="38.23551001958549" lon="-7.798269996419549">
        <ele>0</ele>
      </trkpt>
      <trkpt lat="38.235930036753416" lon="-7.79810001142323">
        <ele>0</ele>
      </trkpt>
      <trkpt lat="38.23621996678412" lon="-7.79797000810504">
        <ele>0</ele>
      </trkpt>
      <trkpt lat="38.236790020018816" lon="-7.797679994255304">
        <ele>0</ele>
      </trkpt>
      <trkpt lat="38.237269967794418" lon="-7.797400038689375">
        <ele>0</ele>
      </trkpt>
      <trkpt lat="38.237570039927959" lon="-7.79719996266067">
        <ele>0</ele>
      </trkpt>
      <trkpt lat="38.238070020452142" lon="-7.796839959919453">
        <ele>0</ele>
      </trkpt>
      <trkpt lat="38.238579975441098" lon="-7.796439975500107">
        <ele>0</ele>
      </trkpt>
      <trkpt lat="38.241320019587874" lon="-7.794190021231771">
        <ele>0</ele>
      </trkpt>
      <trkpt lat="38.241899963468313" lon="-7.793739996850491">
        <ele>0</ele>
      </trkpt>
      <trkpt lat="38.242939990013838" lon="-7.792999958619475">
        <ele>0</ele>
      </trkpt>
      <trkpt lat="38.243090026080608" lon="-7.792880013585091">
        <ele>0</ele>
      </trkpt>
      <trkpt lat="38.245460009202361" lon="-7.791240010410547">
        <ele>0</ele>
      </trkpt>
      <trkpt lat="38.24565002694726" lon="-7.791100032627583">
        <ele>0</ele>
      </trkpt>
      <trkpt lat="38.246099967509508" lon="-7.790799960494041">
        <ele>0</ele>
      </trkpt>
      <trkpt lat="38.247650032863021" lon="-7.789879962801933">
        <ele>0</ele>
      </trkpt>
      <trkpt lat="38.248059991747141" lon="-7.789600007236004">
        <ele>0</ele>
      </trkpt>
      <trkpt lat="38.248340031132102" lon="-7.789360033348203">
        <ele>0</ele>
      </trkpt>
      <trkpt lat="38.24865996837616" lon="-7.789049986749888">
        <ele>0</ele>
      </trkpt>
      <trkpt lat="38.249290036037564" lon="-7.788310032337904">
        <ele>0</ele>
      </trkpt>
      <trkpt lat="38.249319959431887" lon="-7.788250017911196">
        <ele>0</ele>
      </trkpt>
      <trkpt lat="38.25095996260643" lon="-7.786320000886917">
        <ele>0</ele>
      </trkpt>
      <trkpt lat="38.251530015841126" lon="-7.785609969869256">
        <ele>0</ele>
      </trkpt>
      <trkpt lat="38.251969981938601" lon="-7.7851000148803">
        <ele>0</ele>
      </trkpt>
      <trkpt lat="38.252780009061098" lon="-7.784270038828254">
        <ele>0</ele>
      </trkpt>
      <trkpt lat="38.253130037337542" lon="-7.783950017765164">
        <ele>0</ele>
      </trkpt>
      <trkpt lat="38.253260040655732" lon="-7.783850021660328">
        <ele>0</ele>
      </trkpt>
      <trkpt lat="38.253509989008307" lon="-7.783629996702075">
        <ele>0</ele>
      </trkpt>
      <trkpt lat="38.254510033875704" lon="-7.782819969579577">
        <ele>0</ele>
      </trkpt>
      <trkpt lat="38.255049996078014" lon="-7.782349996268749">
        <ele>0</ele>
      </trkpt>
      <trkpt lat="38.255530027672648" lon="-7.781880022957921">
        <ele>0</ele>
      </trkpt>
      <trkpt lat="38.256109971553087" lon="-7.781260013580322">
        <ele>0</ele>
      </trkpt>
      <trkpt lat="38.256580028682947" lon="-7.78071996755898">
        <ele>0</ele>
      </trkpt>
      <trkpt lat="38.256880016997457" lon="-7.780349990352988">
        <ele>0</ele>
      </trkpt>
      <trkpt lat="38.256999962031841" lon="-7.780219987034798">
        <ele>0</ele>
      </trkpt>
      <trkpt lat="38.258039988577366" lon="-7.778939986601472">
        <ele>0</ele>
      </trkpt>
      <trkpt lat="38.260070001706481" lon="-7.776349978521466">
        <ele>0</ele>
      </trkpt>
      <trkpt lat="38.265169970691204" lon="-7.769970009103417">
        <ele>0</ele>
      </trkpt>
      <trkpt lat="38.265519998967648" lon="-7.769480003044009">
        <ele>0</ele>
      </trkpt>
      <trkpt lat="38.270140020176768" lon="-7.762350020930171">
        <ele>0</ele>
      </trkpt>
      <trkpt lat="38.270259965211153" lon="-7.762180035933852">
        <ele>0</ele>
      </trkpt>
      <trkpt lat="38.270660033449531" lon="-7.761539993807674">
        <ele>0</ele>
      </trkpt>
      <trkpt lat="38.270890032872558" lon="-7.761140009388328">
        <ele>0</ele>
      </trkpt>
      <trkpt lat="38.271450027823448" lon="-7.760099982842803">
        <ele>0</ele>
      </trkpt>
      <trkpt lat="38.27182000502944" lon="-7.759309988468885">
        <ele>0</ele>
      </trkpt>
      <trkpt lat="38.274819971993566" lon="-7.7519700396806">
        <ele>0</ele>
      </trkpt>
      <trkpt lat="38.275170000270009" lon="-7.751250034198165">
        <ele>0</ele>
      </trkpt>
      <trkpt lat="38.275399999693036" lon="-7.750839991495013">
        <ele>0</ele>
      </trkpt>
      <trkpt lat="38.275629999116063" lon="-7.75048996321857">
        <ele>0</ele>
      </trkpt>
      <trkpt lat="38.27575002796948" lon="-7.750330036506057">
        <ele>0</ele>
      </trkpt>
      <trkpt lat="38.276029983535409" lon="-7.749989982694387">
        <ele>0</ele>
      </trkpt>
      <trkpt lat="38.27631002292037" lon="-7.749689994379878">
        <ele>0</ele>
      </trkpt>
      <trkpt lat="38.276849985122681" lon="-7.74919998832047">
        <ele>0</ele>
      </trkpt>
      <trkpt lat="38.277509976178408" lon="-7.748679975047708">
        <ele>0</ele>
      </trkpt>
      <trkpt lat="38.277860004454851" lon="-7.748419968411326">
        <ele>0</ele>
      </trkpt>
      <trkpt lat="38.278959961608052" lon="-7.747550010681152">
        <ele>0</ele>
      </trkpt>
      <trkpt lat="38.279010001569986" lon="-7.747489996254444">
        <ele>0</ele>
      </trkpt>
      <trkpt lat="38.279309989884496" lon="-7.747239964082837">
        <ele>0</ele>
      </trkpt>
      <trkpt lat="38.27976998873055" lon="-7.746779965236783">
        <ele>0</ele>
      </trkpt>
      <trkpt lat="38.280120017006993" lon="-7.746400013566017">
        <ele>0</ele>
      </trkpt>
      <trkpt lat="38.280139965936542" lon="-7.746370006352663">
        <ele>0</ele>
      </trkpt>
      <trkpt lat="38.282030001282692" lon="-7.744209989905357">
        <ele>0</ele>
      </trkpt>
      <trkpt lat="38.282199986279011" lon="-7.743989964947105">
        <ele>0</ele>
      </trkpt>
      <trkpt lat="38.282429985702038" lon="-7.743719983845949">
        <ele>0</ele>
      </trkpt>
      <trkpt lat="38.282620003446937" lon="-7.743480009958148">
        <ele>0</ele>
      </trkpt>
      <trkpt lat="38.282719999551773" lon="-7.743329973891377">
        <ele>0</ele>
      </trkpt>
      <trkpt lat="38.282919991761446" lon="-7.743059992790222">
        <ele>0</ele>
      </trkpt>
      <trkpt lat="38.283300027251244" lon="-7.742509972304106">
        <ele>0</ele>
      </trkpt>
      <trkpt lat="38.283839989453554" lon="-7.74167999625206">
        <ele>0</ele>
      </trkpt>
      <trkpt lat="38.283900003880262" lon="-7.741600032895804">
        <ele>0</ele>
      </trkpt>
      <trkpt lat="38.28557001426816" lon="-7.7390599809587">
        <ele>0</ele>
      </trkpt>
      <trkpt lat="38.286629989743233" lon="-7.737630028277636">
        <ele>0</ele>
      </trkpt>
      <trkpt lat="38.288179971277714" lon="-7.735719960182905">
        <ele>0</ele>
      </trkpt>
      <trkpt lat="38.288739966228604" lon="-7.734980005770922">
        <ele>0</ele>
      </trkpt>
      <trkpt lat="38.289259979501367" lon="-7.734260000288487">
        <ele>0</ele>
      </trkpt>
      <trkpt lat="38.289280012249947" lon="-7.734220018610358">
        <ele>0</ele>
      </trkpt>
      <trkpt lat="38.295039972290397" lon="-7.726329965516925">
        <ele>0</ele>
      </trkpt>
      <trkpt lat="38.295090012252331" lon="-7.726250002160668">
        <ele>0</ele>
      </trkpt>
      <trkpt lat="38.295670039951801" lon="-7.725420026108623">
        <ele>0</ele>
      </trkpt>
      <trkpt lat="38.297870038077235" lon="-7.721940027549863">
        <ele>0</ele>
      </trkpt>
      <trkpt lat="38.300329959020019" lon="-7.71821997128427">
        <ele>0</ele>
      </trkpt>
      <trkpt lat="38.300340017303824" lon="-7.718209996819496">
        <ele>0</ele>
      </trkpt>
      <trkpt lat="38.30248000100255" lon="-7.714799987152219">
        <ele>0</ele>
      </trkpt>
      <trkpt lat="38.302860036492348" lon="-7.714230017736554">
        <ele>0</ele>
      </trkpt>
      <trkpt lat="38.30288995988667" lon="-7.714130021631718">
        <ele>0</ele>
      </trkpt>
      <trkpt lat="38.303669979795814" lon="-7.712850021198392">
        <ele>0</ele>
      </trkpt>
      <trkpt lat="38.30419996753335" lon="-7.712039994075894">
        <ele>0</ele>
      </trkpt>
      <trkpt lat="38.304440025240183" lon="-7.711740005761385">
        <ele>0</ele>
      </trkpt>
      <trkpt lat="38.304710006341338" lon="-7.71142995916307">
        <ele>0</ele>
      </trkpt>
      <trkpt lat="38.304879991337657" lon="-7.711259974166751">
        <ele>0</ele>
      </trkpt>
      <trkpt lat="38.305049976333976" lon="-7.711119996383786">
        <ele>0</ele>
      </trkpt>
      <trkpt lat="38.305200012400746" lon="-7.710980018600822">
        <ele>0</ele>
      </trkpt>
      <trkpt lat="38.305569989606738" lon="-7.71072001196444">
        <ele>0</ele>
      </trkpt>
      <trkpt lat="38.305899985134602" lon="-7.710539968684316">
        <ele>0</ele>
      </trkpt>
      <trkpt lat="38.306399965658784" lon="-7.710330002009869">
        <ele>0</ele>
      </trkpt>
      <trkpt lat="38.308740025386214" lon="-7.709660036489368">
        <ele>0</ele>
      </trkpt>
      <trkpt lat="38.309609983116388" lon="-7.709440011531115">
        <ele>0</ele>
      </trkpt>
      <trkpt lat="38.309950036928058" lon="-7.709340015426278">
        <ele>0</ele>
      </trkpt>
      <trkpt lat="38.310410035774112" lon="-7.709219986572862">
        <ele>0</ele>
      </trkpt>
      <trkpt lat="38.311649970710278" lon="-7.708859983831644">
        <ele>0</ele>
      </trkpt>
      <trkpt lat="38.311700010672212" lon="-7.708840034902096">
        <ele>0</ele>
      </trkpt>
      <trkpt lat="38.311860021203756" lon="-7.708799969404936">
        <ele>0</ele>
      </trkpt>
      <trkpt lat="38.312020031735301" lon="-7.708740038797259">
        <ele>0</ele>
      </trkpt>
      <trkpt lat="38.312120027840137" lon="-7.708710031583905">
        <ele>0</ele>
      </trkpt>
      <trkpt lat="38.312250031158328" lon="-7.708659991621971">
        <ele>0</ele>
      </trkpt>
      <trkpt lat="38.312350027263165" lon="-7.708629984408617">
        <ele>0</ele>
      </trkpt>
      <trkpt lat="38.312450023368001" lon="-7.708590002730489">
        <ele>0</ele>
      </trkpt>
      <trkpt lat="38.312490005046129" lon="-7.708569969981909">
        <ele>0</ele>
      </trkpt>
      <trkpt lat="38.312510037794709" lon="-7.708569969981909">
        <ele>0</ele>
      </trkpt>
      <trkpt lat="38.312520012259483" lon="-7.708580028265715">
        <ele>0</ele>
      </trkpt>
      <trkpt lat="38.312590001150966" lon="-7.708550021052361">
        <ele>0</ele>
      </trkpt>
      <trkpt lat="38.312880015000701" lon="-7.70839998498559">
        <ele>0</ele>
      </trkpt>
      <trkpt lat="38.3130700327456" lon="-7.708280039951205">
        <ele>0</ele>
      </trkpt>
      <trkpt lat="38.313210010528564" lon="-7.708179960027337">
        <ele>0</ele>
      </trkpt>
      <trkpt lat="38.313640002161264" lon="-7.707830015569925">
        <ele>0</ele>
      </trkpt>
      <trkpt lat="38.31403998658061" lon="-7.707440005615354">
        <ele>0</ele>
      </trkpt>
      <trkpt lat="38.314230004325509" lon="-7.707230038940907">
        <ele>0</ele>
      </trkpt>
      <trkpt lat="38.314569974318147" lon="-7.706819996237755">
        <ele>0</ele>
      </trkpt>
      <trkpt lat="38.31494003534317" lon="-7.706299982964993">
        <ele>0</ele>
      </trkpt>
      <trkpt lat="38.314969958737493" lon="-7.70625002682209">
        <ele>0</ele>
      </trkpt>
      <trkpt lat="38.315010024234653" lon="-7.70620996132493">
        <ele>0</ele>
      </trkpt>
      <trkpt lat="38.315040031448007" lon="-7.706160005182028">
        <ele>0</ele>
      </trkpt>
      <trkpt lat="38.315879981964827" lon="-7.704959968104959">
        <ele>0</ele>
      </trkpt>
      <trkpt lat="38.315890040248632" lon="-7.704959968104959">
        <ele>0</ele>
      </trkpt>
      <trkpt lat="38.315960029140115" lon="-7.704840023070574">
        <ele>0</ele>
      </trkpt>
      <trkpt lat="38.316090032458305" lon="-7.704650005325675">
        <ele>0</ele>
      </trkpt>
      <trkpt lat="38.316569980233908" lon="-7.70403997041285">
        <ele>0</ele>
      </trkpt>
      <trkpt lat="38.316780030727386" lon="-7.703820029273629">
        <ele>0</ele>
      </trkpt>
      <trkpt lat="38.316999971866608" lon="-7.70363001152873">
        <ele>0</ele>
      </trkpt>
      <trkpt lat="38.317250004038215" lon="-7.703439993783832">
        <ele>0</ele>
      </trkpt>
      <trkpt lat="38.317489977926016" lon="-7.703290041536093">
        <ele>0</ele>
      </trkpt>
      <trkpt lat="38.317979983985424" lon="-7.70307001657784">
        <ele>0</ele>
      </trkpt>
      <trkpt lat="38.318109987303615" lon="-7.703030034899712">
        <ele>0</ele>
      </trkpt>
      <trkpt lat="38.31837996840477" lon="-7.702970020473003">
        <ele>0</ele>
      </trkpt>
      <trkpt lat="38.318520030006766" lon="-7.702949987724423">
        <ele>0</ele>
      </trkpt>
      <trkpt lat="38.319050017744303" lon="-7.702910006046295">
        <ele>0</ele>
      </trkpt>
      <trkpt lat="38.319150013849139" lon="-7.702919980511069">
        <ele>0</ele>
      </trkpt>
      <trkpt lat="38.31928001716733" lon="-7.702919980511069">
        <ele>0</ele>
      </trkpt>
      <trkpt lat="38.31941002048552" lon="-7.702930038794875">
        <ele>0</ele>
      </trkpt>
      <trkpt lat="38.319519991055131" lon="-7.702930038794875">
        <ele>0</ele>
      </trkpt>
      <trkpt lat="38.31981997936964" lon="-7.702979994937778">
        <ele>0</ele>
      </trkpt>
      <trkpt lat="38.319989964365959" lon="-7.703030034899712">
        <ele>0</ele>
      </trkpt>
      <trkpt lat="38.32024997100234" lon="-7.703140005469322">
        <ele>0</ele>
      </trkpt>
      <trkpt lat="38.321310030296445" lon="-7.703700000420213">
        <ele>0</ele>
      </trkpt>
      <trkpt lat="38.321640025824308" lon="-7.703860010951757">
        <ele>0</ele>
      </trkpt>
      <trkpt lat="38.32185996696353" lon="-7.703939974308014">
        <ele>0</ele>
      </trkpt>
      <trkpt lat="38.322019977495074" lon="-7.703990014269948">
        <ele>0</ele>
      </trkpt>
      <trkpt lat="38.322449969127774" lon="-7.70408003591001">
        <ele>0</ele>
      </trkpt>
      <trkpt lat="38.322760015726089" lon="-7.704109959304333">
        <ele>0</ele>
      </trkpt>
      <trkpt lat="38.323259996250272" lon="-7.70408003591001">
        <ele>0</ele>
      </trkpt>
      <trkpt lat="38.324100030586123" lon="-7.703999988734722">
        <ele>0</ele>
      </trkpt>
      <trkpt lat="38.324849959462881" lon="-7.703999988734722">
        <ele>0</ele>
      </trkpt>
      <trkpt lat="38.325380031019449" lon="-7.703969981521368">
        <ele>0</ele>
      </trkpt>
      <trkpt lat="38.325729975476861" lon="-7.703920025378466">
        <ele>0</ele>
      </trkpt>
      <trkpt lat="38.325840029865503" lon="-7.703890018165112">
        <ele>0</ele>
      </trkpt>
      <trkpt lat="38.32594002597034" lon="-7.703869985416532">
        <ele>0</ele>
      </trkpt>
      <trkpt lat="38.325950000435114" lon="-7.703869985416532">
        <ele>0</ele>
      </trkpt>
      <trkpt lat="38.326189974322915" lon="-7.703799996525049">
        <ele>0</ele>
      </trkpt>
      <trkpt lat="38.326470013707876" lon="-7.703690025955439">
        <ele>0</ele>
      </trkpt>
      <trkpt lat="38.326579984277487" lon="-7.703639985993505">
        <ele>0</ele>
      </trkpt>
      <trkpt lat="38.326649973168969" lon="-7.703600004315376">
        <ele>0</ele>
      </trkpt>
      <trkpt lat="38.326719962060452" lon="-7.703569997102022">
        <ele>0</ele>
      </trkpt>
      <trkpt lat="38.326849965378642" lon="-7.70350000821054">
        <ele>0</ele>
      </trkpt>
      <trkpt lat="38.327099997550249" lon="-7.703349972143769">
        <ele>0</ele>
      </trkpt>
      <trkpt lat="38.327290015295148" lon="-7.703249976038933">
        <ele>0</ele>
      </trkpt>
      <trkpt lat="38.32781002856791" lon="-7.702940013259649">
        <ele>0</ele>
      </trkpt>
      <trkpt lat="38.327959980815649" lon="-7.702840017154813">
        <ele>0</ele>
      </trkpt>
      <trkpt lat="38.328159973025322" lon="-7.702719988301396">
        <ele>0</ele>
      </trkpt>
      <trkpt lat="38.329239981248975" lon="-7.701999982818961">
        <ele>0</ele>
      </trkpt>
      <trkpt lat="38.330770013853908" lon="-7.701089959591627">
        <ele>0</ele>
      </trkpt>
      <trkpt lat="38.331279968842864" lon="-7.700759964063764">
        <ele>0</ele>
      </trkpt>
      <trkpt lat="38.331569982692599" lon="-7.700589979067445">
        <ele>0</ele>
      </trkpt>
      <trkpt lat="38.331950018182397" lon="-7.700350005179644">
        <ele>0</ele>
      </trkpt>
      <trkpt lat="38.33212997764349" lon="-7.700250009074807">
        <ele>0</ele>
      </trkpt>
      <trkpt lat="38.332519987598062" lon="-7.6999999769032">
        <ele>0</ele>
      </trkpt>
      <trkpt lat="38.33313999697566" lon="-7.699650032445788">
        <ele>0</ele>
      </trkpt>
      <trkpt lat="38.333720024675131" lon="-7.699279971420765">
        <ele>0</ele>
      </trkpt>
      <trkpt lat="38.333939965814352" lon="-7.69911996088922">
        <ele>0</ele>
      </trkpt>
      <trkpt lat="38.334289994090796" lon="-7.698840005323291">
        <ele>0</ele>
      </trkpt>
      <trkpt lat="38.334619989618659" lon="-7.698529958724976">
        <ele>0</ele>
      </trkpt>
      <trkpt lat="38.334700036793947" lon="-7.698440020903945">
        <ele>0</ele>
      </trkpt>
      <trkpt lat="38.334789974614978" lon="-7.698349999263883">
        <ele>0</ele>
      </trkpt>
      <trkpt lat="38.335219966247678" lon="-7.697859993204474">
        <ele>0</ele>
      </trkpt>
      <trkpt lat="38.336180029436946" lon="-7.696649981662631">
        <ele>0</ele>
      </trkpt>
      <trkpt lat="38.337079994380474" lon="-7.695450028404594">
        <ele>0</ele>
      </trkpt>
      <trkpt lat="38.337240004912019" lon="-7.695260010659695">
        <ele>0</ele>
      </trkpt>
      <trkpt lat="38.340520011261106" lon="-7.69108003936708">
        <ele>0</ele>
      </trkpt>
      <trkpt lat="38.340629981830716" lon="-7.690960010513663">
        <ele>0</ele>
      </trkpt>
      <trkpt lat="38.341100038960576" lon="-7.690490037202835">
        <ele>0</ele>
      </trkpt>
      <trkpt lat="38.341270023956895" lon="-7.690340001136065">
        <ele>0</ele>
      </trkpt>
      <trkpt lat="38.341279998421669" lon="-7.690340001136065">
        <ele>0</ele>
      </trkpt>
      <trkpt lat="38.34143003448844" lon="-7.690230030566454">
        <ele>0</ele>
      </trkpt>
      <trkpt lat="38.341470016166568" lon="-7.690189965069294">
        <ele>0</ele>
      </trkpt>
      <trkpt lat="38.34183999337256" lon="-7.689949991181493">
        <ele>0</ele>
      </trkpt>
      <trkpt lat="38.342079967260361" lon="-7.689819987863302">
        <ele>0</ele>
      </trkpt>
      <trkpt lat="38.342480035498738" lon="-7.689640028402209">
        <ele>0</ele>
      </trkpt>
      <trkpt lat="38.342739958316088" lon="-7.689550006762147">
        <ele>0</ele>
      </trkpt>
      <trkpt lat="38.343089986592531" lon="-7.689450010657311">
        <ele>0</ele>
      </trkpt>
      <trkpt lat="38.343540010973811" lon="-7.689359989017248">
        <ele>0</ele>
      </trkpt>
      <trkpt lat="38.344109980389476" lon="-7.689290000125766">
        <ele>0</ele>
      </trkpt>
      <trkpt lat="38.344179969280958" lon="-7.689290000125766">
        <ele>0</ele>
      </trkpt>
      <trkpt lat="38.34502000361681" lon="-7.689180029556155">
        <ele>0</ele>
      </trkpt>
      <trkpt lat="38.345489976927638" lon="-7.689099982380867">
        <ele>0</ele>
      </trkpt>
      <trkpt lat="38.345610005781054" lon="-7.689069975167513">
        <ele>0</ele>
      </trkpt>
      <trkpt lat="38.34587998688221" lon="-7.688969979062676">
        <ele>0</ele>
      </trkpt>
      <trkpt lat="38.346119960770011" lon="-7.688860008493066">
        <ele>0</ele>
      </trkpt>
      <trkpt lat="38.346290029585361" lon="-7.688769986853004">
        <ele>0</ele>
      </trkpt>
      <trkpt lat="38.346450040116906" lon="-7.688669990748167">
        <ele>0</ele>
      </trkpt>
      <trkpt lat="38.346579959616065" lon="-7.688579969108105">
        <ele>0</ele>
      </trkpt>
      <trkpt lat="38.346809959039092" lon="-7.688400009647012">
        <ele>0</ele>
      </trkpt>
      <trkpt lat="38.347129980102181" lon="-7.688100021332502">
        <ele>0</ele>
      </trkpt>
      <trkpt lat="38.34817998111248" lon="-7.687050020322204">
        <ele>0</ele>
      </trkpt>
      <trkpt lat="38.348599998280406" lon="-7.686650035902858">
        <ele>0</ele>
      </trkpt>
      <trkpt lat="38.349410025402904" lon="-7.68581997603178">
        <ele>0</ele>
      </trkpt>
      <trkpt lat="38.350590029731393" lon="-7.684680037200451">
        <ele>0</ele>
      </trkpt>
      <trkpt lat="38.350720033049583" lon="-7.684539975598455">
        <ele>0</ele>
      </trkpt>
      <trkpt lat="38.350890018045902" lon="-7.68437996506691">
        <ele>0</ele>
      </trkpt>
      <trkpt lat="38.351020021364093" lon="-7.684239987283945">
        <ele>0</ele>
      </trkpt>
      <trkpt lat="38.351029995828867" lon="-7.684239987283945">
        <ele>0</ele>
      </trkpt>
      <trkpt lat="38.351499969139695" lon="-7.683779988437891">
        <ele>0</ele>
      </trkpt>
      <trkpt lat="38.351629972457886" lon="-7.68367001786828">
        <ele>0</ele>
      </trkpt>
      <trkpt lat="38.351840022951365" lon="-7.68351998180151">
        <ele>0</ele>
      </trkpt>
      <trkpt lat="38.352040015161037" lon="-7.683410011231899">
        <ele>0</ele>
      </trkpt>
      <trkpt lat="38.352330029010773" lon="-7.683280007913709">
        <ele>0</ele>
      </trkpt>
      <trkpt lat="38.352449974045157" lon="-7.68324002623558">
        <ele>0</ele>
      </trkpt>
      <trkpt lat="38.352879965677857" lon="-7.683140030130744">
        <ele>0</ele>
      </trkpt>
      <trkpt lat="38.353169979527593" lon="-7.683129971846938">
        <ele>0</ele>
      </trkpt>
      <trkpt lat="38.353429986163974" lon="-7.683140030130744">
        <ele>0</ele>
      </trkpt>
      <trkpt lat="38.353720000013709" lon="-7.683199960738421">
        <ele>0</ele>
      </trkpt>
      <trkpt lat="38.353940024971962" lon="-7.683280007913709">
        <ele>0</ele>
      </trkpt>
      <trkpt lat="38.354119984433055" lon="-7.683370029553771">
        <ele>0</ele>
      </trkpt>
      <trkpt lat="38.354219980537891" lon="-7.683429960161448">
        <ele>0</ele>
      </trkpt>
      <trkpt lat="38.354509994387627" lon="-7.683630036190152">
        <ele>0</ele>
      </trkpt>
      <trkpt lat="38.354749968275428" lon="-7.683849977329373">
        <ele>0</ele>
      </trkpt>
      <trkpt lat="38.355009974911809" lon="-7.684109983965755">
        <ele>0</ele>
      </trkpt>
      <trkpt lat="38.355309963226318" lon="-7.684439979493618">
        <ele>0</ele>
      </trkpt>
      <trkpt lat="38.356219986453652" lon="-7.685610009357333">
        <ele>0</ele>
      </trkpt>
      <trkpt lat="38.356240019202232" lon="-7.685629958286881">
        <ele>0</ele>
      </trkpt>
      <trkpt lat="38.357599982991815" lon="-7.687359983101487">
        <ele>0</ele>
      </trkpt>
      <trkpt lat="38.358630035072565" lon="-7.688720030710101">
        <ele>0</ele>
      </trkpt>
      <trkpt lat="38.358719972893596" lon="-7.688820026814938">
        <ele>0</ele>
      </trkpt>
      <trkpt lat="38.359149964526296" lon="-7.689350014552474">
        <ele>0</ele>
      </trkpt>
      <trkpt lat="38.359729992225766" lon="-7.690110001713038">
        <ele>0</ele>
      </trkpt>
      <trkpt lat="38.3597800321877" lon="-7.690189965069294">
        <ele>0</ele>
      </trkpt>
      <trkpt lat="38.359890002757311" lon="-7.69033002667129">
        <ele>0</ele>
      </trkpt>
      <trkpt lat="38.359910035505891" lon="-7.690349975600839">
        <ele>0</ele>
      </trkpt>
      <trkpt lat="38.361130021512508" lon="-7.692059967666864">
        <ele>0</ele>
      </trkpt>
      <trkpt lat="38.363999985158443" lon="-7.696359967812896">
        <ele>0</ele>
      </trkpt>
      <trkpt lat="38.364299973472953" lon="-7.696789959445596">
        <ele>0</ele>
      </trkpt>
      <trkpt lat="38.364689983427525" lon="-7.697279965505004">
        <ele>0</ele>
      </trkpt>
      <trkpt lat="38.365059960633516" lon="-7.69769998267293">
        <ele>0</ele>
      </trkpt>
      <trkpt lat="38.365309992805123" lon="-7.697959989309311">
        <ele>0</ele>
      </trkpt>
      <trkpt lat="38.36553999222815" lon="-7.698180014267564">
        <ele>0</ele>
      </trkpt>
      <trkpt lat="38.366510029882193" lon="-7.69916002638638">
        <ele>0</ele>
      </trkpt>
      <trkpt lat="38.367210002616048" lon="-7.699829991906881">
        <ele>0</ele>
      </trkpt>
      <trkpt lat="38.368020029738545" lon="-7.700519990175962">
        <ele>0</ele>
      </trkpt>
      <trkpt lat="38.368280036374927" lon="-7.700719982385635">
        <ele>0</ele>
      </trkpt>
      <trkpt lat="38.368520010262728" lon="-7.700919974595308">
        <ele>0</ele>
      </trkpt>
      <trkpt lat="38.369640000164509" lon="-7.701790016144514">
        <ele>0</ele>
      </trkpt>
      <trkpt lat="38.370169987902045" lon="-7.702220007777214">
        <ele>0</ele>
      </trkpt>
      <trkpt lat="38.371730027720332" lon="-7.703590029850602">
        <ele>0</ele>
      </trkpt>
      <trkpt lat="38.371800016611814" lon="-7.703660018742085">
        <ele>0</ele>
      </trkpt>
      <trkpt lat="38.371809991076589" lon="-7.703660018742085">
        <ele>0</ele>
      </trkpt>
      <trkpt lat="38.37308001704514" lon="-7.704759975895286">
        <ele>0</ele>
      </trkpt>
      <trkpt lat="38.37436999194324" lon="-7.705839984118938">
        <ele>0</ele>
      </trkpt>
      <trkpt lat="38.374920012429357" lon="-7.706269975751638">
        <ele>0</ele>
      </trkpt>
      <trkpt lat="38.375440025702119" lon="-7.706650011241436">
        <ele>0</ele>
      </trkpt>
      <trkpt lat="38.375649992376566" lon="-7.706789989024401">
        <ele>0</ele>
      </trkpt>
      <trkpt lat="38.375670025125146" lon="-7.706799963489175">
        <ele>0</ele>
      </trkpt>
      <trkpt lat="38.376270001754165" lon="-7.707179998978972">
        <ele>0</ele>
      </trkpt>
      <trkpt lat="38.377180024981499" lon="-7.707670005038381">
        <ele>0</ele>
      </trkpt>
      <trkpt lat="38.38105003349483" lon="-7.709589963778853">
        <ele>0</ele>
      </trkpt>
      <trkpt lat="38.381819995120168" lon="-7.710009980946779">
        <ele>0</ele>
      </trkpt>
      <trkpt lat="38.381880009546876" lon="-7.710049962624908">
        <ele>0</ele>
      </trkpt>
      <trkpt lat="38.382179997861385" lon="-7.710220031440258">
        <ele>0</ele>
      </trkpt>
      <trkpt lat="38.383490005508065" lon="-7.711070040240884">
        <ele>0</ele>
      </trkpt>
      <trkpt lat="38.383510038256645" lon="-7.711080014705658">
        <ele>0</ele>
      </trkpt>
      <trkpt lat="38.387590013444424" lon="-7.713789967820048">
        <ele>0</ele>
      </trkpt>
      <trkpt lat="38.387699984014034" lon="-7.713870014995337">
        <ele>0</ele>
      </trkpt>
      <trkpt lat="38.387709958478808" lon="-7.713870014995337">
        <ele>0</ele>
      </trkpt>
      <trkpt lat="38.391799991950393" lon="-7.716469997540116">
        <ele>0</ele>
      </trkpt>
      <trkpt lat="38.391880039125681" lon="-7.71647997200489">
        <ele>0</ele>
      </trkpt>
      <trkpt lat="38.392670033499599" lon="-7.71695002913475">
        <ele>0</ele>
      </trkpt>
      <trkpt lat="38.393219970166683" lon="-7.717259991914034">
        <ele>0</ele>
      </trkpt>
      <trkpt lat="38.393669994547963" lon="-7.717480016872287">
        <ele>0</ele>
      </trkpt>
      <trkpt lat="38.393700001761317" lon="-7.717489991337061">
        <ele>0</ele>
      </trkpt>
      <trkpt lat="38.400609958916903" lon="-7.720440002158284">
        <ele>0</ele>
      </trkpt>
      <trkpt lat="38.400820009410381" lon="-7.720539998263121">
        <ele>0</ele>
      </trkpt>
      <trkpt lat="38.400869965553284" lon="-7.720590038225055">
        <ele>0</ele>
      </trkpt>
      <trkpt lat="38.403659965842962" lon="-7.721710028126836">
        <ele>0</ele>
      </trkpt>
      <trkpt lat="38.404369996860623" lon="-7.722010016441345">
        <ele>0</ele>
      </trkpt>
      <trkpt lat="38.405199972912669" lon="-7.722310004755855">
        <ele>0</ele>
      </trkpt>
      <trkpt lat="38.405670030042529" lon="-7.722430033609271">
        <ele>0</ele>
      </trkpt>
      <trkpt lat="38.406149977818131" lon="-7.722530029714108">
        <ele>0</ele>
      </trkpt>
      <trkpt lat="38.406500006094575" lon="-7.722570011392236">
        <ele>0</ele>
      </trkpt>
      <trkpt lat="38.406869983300567" lon="-7.722589960321784">
        <ele>0</ele>
      </trkpt>
      <trkpt lat="38.40722001157701" lon="-7.722589960321784">
        <ele>0</ele>
      </trkpt>
      <trkpt lat="38.407689984887838" lon="-7.722560036927462">
        <ele>0</ele>
      </trkpt>
      <trkpt lat="38.408409990370274" lon="-7.722460040822625">
        <ele>0</ele>
      </trkpt>
      <trkpt lat="38.412379994988441" lon="-7.721759984269738">
        <ele>0</ele>
      </trkpt>
      <trkpt lat="38.415790004655719" lon="-7.721199989318848">
        <ele>0</ele>
      </trkpt>
      <trkpt lat="38.416289985179901" lon="-7.721079960465431">
        <ele>0</ele>
      </trkpt>
      <trkpt lat="38.416710002347827" lon="-7.720950040966272">
        <ele>0</ele>
      </trkpt>
      <trkpt lat="38.417119961231947" lon="-7.720790030434728">
        <ele>0</ele>
      </trkpt>
      <trkpt lat="38.417479963973165" lon="-7.720619961619377">
        <ele>0</ele>
      </trkpt>
      <trkpt lat="38.417829992249608" lon="-7.72043002769351">
        <ele>0</ele>
      </trkpt>
      <trkpt lat="38.418510016053915" lon="-7.72000003606081">
        <ele>0</ele>
      </trkpt>
      <trkpt lat="38.418740015476942" lon="-7.71982996724546">
        <ele>0</ele>
      </trkpt>
      <trkpt lat="38.420080030336976" lon="-7.718920027837157">
        <ele>0</ele>
      </trkpt>
      <trkpt lat="38.420740021392703" lon="-7.718449970707297">
        <ele>0</ele>
      </trkpt>
      <trkpt lat="38.421960007399321" lon="-7.717619994655252">
        <ele>0</ele>
      </trkpt>
      <trkpt lat="38.422150025144219" lon="-7.717519998550415">
        <ele>0</ele>
      </trkpt>
      <trkpt lat="38.422350017353892" lon="-7.717389995232225">
        <ele>0</ele>
      </trkpt>
      <trkpt lat="38.422559984028339" lon="-7.717280024662614">
        <ele>0</ele>
      </trkpt>
      <trkpt lat="38.422740027308464" lon="-7.717199977487326">
        <ele>0</ele>
      </trkpt>
      <trkpt lat="38.42314001172781" lon="-7.717050025239587">
        <ele>0</ele>
      </trkpt>
      <trkpt lat="38.423370011150837" lon="-7.716980036348105">
        <ele>0</ele>
      </trkpt>
      <trkpt lat="38.423690032213926" lon="-7.716920021921396">
        <ele>0</ele>
      </trkpt>
      <trkpt lat="38.42397996224463" lon="-7.716890014708042">
        <ele>0</ele>
      </trkpt>
      <trkpt lat="38.42410996556282" lon="-7.716869981959462">
        <ele>0</ele>
      </trkpt>
      <trkpt lat="38.424339964985847" lon="-7.716869981959462">
        <ele>0</ele>
      </trkpt>
      <trkpt lat="38.424780014902353" lon="-7.71690996363759">
        <ele>0</ele>
      </trkpt>
      <trkpt lat="38.425080003216863" lon="-7.716969978064299">
        <ele>0</ele>
      </trkpt>
      <trkpt lat="38.425379991531372" lon="-7.717050025239587">
        <ele>0</ele>
      </trkpt>
      <trkpt lat="38.425519969314337" lon="-7.717099981382489">
        <ele>0</ele>
      </trkpt>
      <trkpt lat="38.425809983164072" lon="-7.717220010235906">
        <ele>0</ele>
      </trkpt>
      <trkpt lat="38.426079964265227" lon="-7.71735998801887">
        <ele>0</ele>
      </trkpt>
      <trkpt lat="38.426290014758706" lon="-7.717480016872287">
        <ele>0</ele>
      </trkpt>
      <trkpt lat="38.426820002496243" lon="-7.717859968543053">
        <ele>0</ele>
      </trkpt>
      <trkpt lat="38.426970038563013" lon="-7.717989971861243">
        <ele>0</ele>
      </trkpt>
      <trkpt lat="38.427110016345978" lon="-7.718100026249886">
        <ele>0</ele>
      </trkpt>
      <trkpt lat="38.431380009278655" lon="-7.722040023654699">
        <ele>0</ele>
      </trkpt>
      <trkpt lat="38.431749986484647" lon="-7.722349986433983">
        <ele>0</ele>
      </trkpt>
      <trkpt lat="38.43207998201251" lon="-7.72260001860559">
        <ele>0</ele>
      </trkpt>
      <trkpt lat="38.432269999757409" lon="-7.72273002192378">
        <ele>0</ele>
      </trkpt>
      <trkpt lat="38.432950023561716" lon="-7.7231399808079">
        <ele>0</ele>
      </trkpt>
      <trkpt lat="38.43328001908958" lon="-7.723309965804219">
        <ele>0</ele>
      </trkpt>
      <trkpt lat="38.433399964123964" lon="-7.723360005766153">
        <ele>0</ele>
      </trkpt>
      <trkpt lat="38.434040006250143" lon="-7.723669968545437">
        <ele>0</ele>
      </trkpt>
      <trkpt lat="38.434100020676851" lon="-7.723690001294017">
        <ele>0</ele>
      </trkpt>
      <trkpt lat="38.435239959508181" lon="-7.724189981818199">
        <ele>0</ele>
      </trkpt>
      <trkpt lat="38.438440002501011" lon="-7.72565002553165">
        <ele>0</ele>
      </trkpt>
      <trkpt lat="38.438879968598485" lon="-7.725869966670871">
        <ele>0</ele>
      </trkpt>
      <trkpt lat="38.439269978553057" lon="-7.726099966093898">
        <ele>0</ele>
      </trkpt>
      <trkpt lat="38.43959997408092" lon="-7.726329965516925">
        <ele>0</ele>
      </trkpt>
      <trkpt lat="38.439959976822138" lon="-7.72664001211524">
        <ele>0</ele>
      </trkpt>
      <trkpt lat="38.440080005675554" lon="-7.726779989898205">
        <ele>0</ele>
      </trkpt>
      <trkpt lat="38.440240016207099" lon="-7.72694000042975">
        <ele>0</ele>
      </trkpt>
      <trkpt lat="38.440310005098581" lon="-7.727019963786006">
        <ele>0</ele>
      </trkpt>
      <trkpt lat="38.440389968454838" lon="-7.727100010961294">
        <ele>0</ele>
      </trkpt>
      <trkpt lat="38.440670007839799" lon="-7.727450039237738">
        <ele>0</ele>
      </trkpt>
      <trkpt lat="38.440939988940954" lon="-7.727829990908504">
        <ele>0</ele>
      </trkpt>
      <trkpt lat="38.448010040447116" lon="-7.738989992067218">
        <ele>0</ele>
      </trkpt>
      <trkpt lat="38.448310028761625" lon="-7.739389976486564">
        <ele>0</ele>
      </trkpt>
      <trkpt lat="38.44847003929317" lon="-7.739570019766688">
        <ele>0</ele>
      </trkpt>
      <trkpt lat="38.448629966005683" lon="-7.739770011976361">
        <ele>0</ele>
      </trkpt>
      <trkpt lat="38.450139965862036" lon="-7.741370033472776">
        <ele>0</ele>
      </trkpt>
      <trkpt lat="38.450239961966872" lon="-7.741429964080453">
        <ele>0</ele>
      </trkpt>
      <trkpt lat="38.452350022271276" lon="-7.743600038811564">
        <ele>0</ele>
      </trkpt>
      <trkpt lat="38.452529981732368" lon="-7.743759965524077">
        <ele>0</ele>
      </trkpt>
      <trkpt lat="38.452750006690621" lon="-7.743940008804202">
        <ele>0</ele>
      </trkpt>
      <trkpt lat="38.453149991109967" lon="-7.744219964370132">
        <ele>0</ele>
      </trkpt>
      <trkpt lat="38.453389964997768" lon="-7.744349967688322">
        <ele>0</ele>
      </trkpt>
      <trkpt lat="38.45364997163415" lon="-7.744469996541739">
        <ele>0</ele>
      </trkpt>
      <trkpt lat="38.453979967162013" lon="-7.744579967111349">
        <ele>0</ele>
      </trkpt>
      <trkpt lat="38.454220024868846" lon="-7.744639981538057">
        <ele>0</ele>
      </trkpt>
      <trkpt lat="38.454439966008067" lon="-7.744679963216186">
        <ele>0</ele>
      </trkpt>
      <trkpt lat="38.454799968749285" lon="-7.74473000317812">
        <ele>0</ele>
      </trkpt>
      <trkpt lat="38.455619970336556" lon="-7.744779959321022">
        <ele>0</ele>
      </trkpt>
      <trkpt lat="38.455679984763265" lon="-7.744790017604828">
        <ele>0</ele>
      </trkpt>
      <trkpt lat="38.456169990822673" lon="-7.744829999282956">
        <ele>0</ele>
      </trkpt>
      <trkpt lat="38.456269986927509" lon="-7.744829999282956">
        <ele>0</ele>
      </trkpt>
      <trkpt lat="38.456989992409945" lon="-7.744890013709664">
        <ele>0</ele>
      </trkpt>
      <trkpt lat="38.457050006836653" lon="-7.744899988174439">
        <ele>0</ele>
      </trkpt>
      <trkpt lat="38.457089988514781" lon="-7.744899988174439">
        <ele>0</ele>
      </trkpt>
      <trkpt lat="38.45741000957787" lon="-7.744939969852567">
        <ele>0</ele>
      </trkpt>
      <trkpt lat="38.457630034536123" lon="-7.744980035349727">
        <ele>0</ele>
      </trkpt>
      <trkpt lat="38.457800019532442" lon="-7.745020017027855">
        <ele>0</ele>
      </trkpt>
      <trkpt lat="38.457970004528761" lon="-7.745069973170757">
        <ele>0</ele>
      </trkpt>
      <trkpt lat="38.45824996009469" lon="-7.7451800275594">
        <ele>0</ele>
      </trkpt>
      <trkpt lat="38.458379963412881" lon="-7.745239958167076">
        <ele>0</ele>
      </trkpt>
      <trkpt lat="38.458769973367453" lon="-7.745459983125329">
        <ele>0</ele>
      </trkpt>
      <trkpt lat="38.458829987794161" lon="-7.745529972016811">
        <ele>0</ele>
      </trkpt>
      <trkpt lat="38.459080019965768" lon="-7.745710015296936">
        <ele>0</ele>
      </trkpt>
      <trkpt lat="38.459310019388795" lon="-7.745889974758029">
        <ele>0</ele>
      </trkpt>
      <trkpt lat="38.462969977408648" lon="-7.748930007219315">
        <ele>0</ele>
      </trkpt>
      <trkpt lat="38.463429976254702" lon="-7.749280035495758">
        <ele>0</ele>
      </trkpt>
      <trkpt lat="38.463749997317791" lon="-7.749490002170205">
        <ele>0</ele>
      </trkpt>
      <trkpt lat="38.4640499856323" lon="-7.74965001270175">
        <ele>0</ele>
      </trkpt>
      <trkpt lat="38.464400013908744" lon="-7.749789990484715">
        <ele>0</ele>
      </trkpt>
      <trkpt lat="38.464760016649961" lon="-7.749889986589551">
        <ele>0</ele>
      </trkpt>
      <trkpt lat="38.4649099688977" lon="-7.749919993802905">
        <ele>0</ele>
      </trkpt>
      <trkpt lat="38.465060004964471" lon="-7.749940026551485">
        <ele>0</ele>
      </trkpt>
      <trkpt lat="38.465350018814206" lon="-7.749959975481033">
        <ele>0</ele>
      </trkpt>
      <trkpt lat="38.465640032663941" lon="-7.749959975481033">
        <ele>0</ele>
      </trkpt>
      <trkpt lat="38.46578998491168" lon="-7.749950001016259">
        <ele>0</ele>
      </trkpt>
      <trkpt lat="38.466159962117672" lon="-7.749899961054325">
        <ele>0</ele>
      </trkpt>
      <trkpt lat="38.486910033971071" lon="-7.74649003520608">
        <ele>0</ele>
      </trkpt>
      <trkpt lat="38.487099967896938" lon="-7.74644996970892">
        <ele>0</ele>
      </trkpt>
      <trkpt lat="38.488650033250451" lon="-7.746209995821118">
        <ele>0</ele>
      </trkpt>
      <trkpt lat="38.48895002156496" lon="-7.746179988607764">
        <ele>0</ele>
      </trkpt>
      <trkpt lat="38.48925000987947" lon="-7.74617001414299">
        <ele>0</ele>
      </trkpt>
      <trkpt lat="38.489429969340563" lon="-7.746179988607764">
        <ele>0</ele>
      </trkpt>
      <trkpt lat="38.489540023729205" lon="-7.746179988607764">
        <ele>0</ele>
      </trkpt>
      <trkpt lat="38.489730041474104" lon="-7.746200021356344">
        <ele>0</ele>
      </trkpt>
      <trkpt lat="38.48981000483036" lon="-7.746219970285893">
        <ele>0</ele>
      </trkpt>
      <trkpt lat="38.489889968186617" lon="-7.746230028569698">
        <ele>0</ele>
      </trkpt>
      <trkpt lat="38.490049978718162" lon="-7.746270010247827">
        <ele>0</ele>
      </trkpt>
      <trkpt lat="38.49013002589345" lon="-7.746300017461181">
        <ele>0</ele>
      </trkpt>
      <trkpt lat="38.490209989249706" lon="-7.746319966390729">
        <ele>0</ele>
      </trkpt>
      <trkpt lat="38.490369999781251" lon="-7.746379980817437">
        <ele>0</ele>
      </trkpt>
      <trkpt lat="38.490479970350862" lon="-7.746439995244145">
        <ele>0</ele>
      </trkpt>
      <trkpt lat="38.490579966455698" lon="-7.746479976922274">
        <ele>0</ele>
      </trkpt>
      <trkpt lat="38.490739976987243" lon="-7.746569998562336">
        <ele>0</ele>
      </trkpt>
      <trkpt lat="38.490890013054013" lon="-7.746669994667172">
        <ele>0</ele>
      </trkpt>
      <trkpt lat="38.491050023585558" lon="-7.746790023520589">
        <ele>0</ele>
      </trkpt>
      <trkpt lat="38.491280023008585" lon="-7.746999990195036">
        <ele>0</ele>
      </trkpt>
      <trkpt lat="38.49144003354013" lon="-7.747160000726581">
        <ele>0</ele>
      </trkpt>
      <trkpt lat="38.491499964147806" lon="-7.747229989618063">
        <ele>0</ele>
      </trkpt>
      <trkpt lat="38.491540029644966" lon="-7.747250022366643">
        <ele>0</ele>
      </trkpt>
      <trkpt lat="38.491599960252643" lon="-7.747310036793351">
        <ele>0</ele>
      </trkpt>
      <trkpt lat="38.491810010746121" lon="-7.747589992359281">
        <ele>0</ele>
      </trkpt>
      <trkpt lat="38.492049984633923" lon="-7.747970027849078">
        <ele>0</ele>
      </trkpt>
      <trkpt lat="38.492260035127401" lon="-7.74836003780365">
        <ele>0</ele>
      </trkpt>
      <trkpt lat="38.494200026616454" lon="-7.752349991351366">
        <ele>0</ele>
      </trkpt>
      <trkpt lat="38.494790028780699" lon="-7.753650024533272">
        <ele>0</ele>
      </trkpt>
      <trkpt lat="38.494860017672181" lon="-7.753850016742945">
        <ele>0</ele>
      </trkpt>
      <trkpt lat="38.500329963862896" lon="-7.765370020642877">
        <ele>0</ele>
      </trkpt>
      <trkpt lat="38.500489974394441" lon="-7.765730023384094">
        <ele>0</ele>
      </trkpt>
      <trkpt lat="38.503620028495789" lon="-7.772270003333688">
        <ele>0</ele>
      </trkpt>
      <trkpt lat="38.503739973530173" lon="-7.772539984434843">
        <ele>0</ele>
      </trkpt>
      <trkpt lat="38.50399000570178" lon="-7.773050023242831">
        <ele>0</ele>
      </trkpt>
      <trkpt lat="38.50399000570178" lon="-7.773059997707605">
        <ele>0</ele>
      </trkpt>
      <trkpt lat="38.505360027775168" lon="-7.775919986888766">
        <ele>0</ele>
      </trkpt>
      <trkpt lat="38.505460023880005" lon="-7.776079997420311">
        <ele>0</ele>
      </trkpt>
      <trkpt lat="38.505509980022907" lon="-7.776149986311793">
        <ele>0</ele>
      </trkpt>
      <trkpt lat="38.505520038306713" lon="-7.776170019060373">
        <ele>0</ele>
      </trkpt>
      <trkpt lat="38.511430034413934" lon="-7.785160029307008">
        <ele>0</ele>
      </trkpt>
      <trkpt lat="38.511709989979863" lon="-7.785539980977774">
        <ele>0</ele>
      </trkpt>
      <trkpt lat="38.513540010899305" lon="-7.788389995694161">
        <ele>0</ele>
      </trkpt>
      <trkpt lat="38.526849970221519" lon="-7.808689959347248">
        <ele>0</ele>
      </trkpt>
      <trkpt lat="38.526870002970099" lon="-7.808730024844408">
        <ele>0</ele>
      </trkpt>
      <trkpt lat="38.52702003903687" lon="-7.808969998732209">
        <ele>0</ele>
      </trkpt>
      <trkpt lat="38.527209972962737" lon="-7.809330001473427">
        <ele>0</ele>
      </trkpt>
      <trkpt lat="38.528459966182709" lon="-7.81185002066195">
        <ele>0</ele>
      </trkpt>
      <trkpt lat="38.528610002249479" lon="-7.812180016189814">
        <ele>0</ele>
      </trkpt>
      <trkpt lat="38.542179968208075" lon="-7.839790005236864">
        <ele>0</ele>
      </trkpt>
      <trkpt lat="38.542360011488199" lon="-7.840199964120984">
        <ele>0</ele>
      </trkpt>
      <trkpt lat="38.542509963735938" lon="-7.840600032359362">
        <ele>0</ele>
      </trkpt>
      <trkpt lat="38.545450000092387" lon="-7.849379992112517">
        <ele>0</ele>
      </trkpt>
      <trkpt lat="38.546890011057258" lon="-7.853819970041513">
        <ele>0</ele>
      </trkpt>
      <trkpt lat="38.548170011490583" lon="-7.857640022411943">
        <ele>0</ele>
      </trkpt>
      <trkpt lat="38.548170011490583" lon="-7.857670029625297">
        <ele>0</ele>
      </trkpt>
      <trkpt lat="38.549550008028746" lon="-7.861789986491203">
        <ele>0</ele>
      </trkpt>
      <trkpt lat="38.54955998249352" lon="-7.861840026453137">
        <ele>0</ele>
      </trkpt>
      <trkpt lat="38.550300020724535" lon="-7.864040024578571">
        <ele>0</ele>
      </trkpt>
      <trkpt lat="38.550360035151243" lon="-7.864170027896762">
        <ele>0</ele>
      </trkpt>
      <trkpt lat="38.5517299734056" lon="-7.86827003583312">
        <ele>0</ele>
      </trkpt>
      <trkpt lat="38.551759980618954" lon="-7.868410013616085">
        <ele>0</ele>
      </trkpt>
      <trkpt lat="38.556640008464456" lon="-7.881110021844506">
        <ele>0</ele>
      </trkpt>
      <trkpt lat="38.556789960712194" lon="-7.88154998794198">
        <ele>0</ele>
      </trkpt>
      <trkpt lat="38.557369988411665" lon="-7.883570026606321">
        <ele>0</ele>
      </trkpt>
      <trkpt lat="38.557420028373599" lon="-7.883659964427352">
        <ele>0</ele>
      </trkpt>
      <trkpt lat="38.557479958981276" lon="-7.883819974958897">
        <ele>0</ele>
      </trkpt>
      <trkpt lat="38.557520024478436" lon="-7.883960036560893">
        <ele>0</ele>
      </trkpt>
      <trkpt lat="38.557599987834692" lon="-7.884179977700114">
        <ele>0</ele>
      </trkpt>
      <trkpt lat="38.557720016688108" lon="-7.884400002658367">
        <ele>0</ele>
      </trkpt>
      <trkpt lat="38.557769972831011" lon="-7.884509973227978">
        <ele>0</ele>
      </trkpt>
      <trkpt lat="38.557780031114817" lon="-7.884509973227978">
        <ele>0</ele>
      </trkpt>
      <trkpt lat="38.557790005579591" lon="-7.884520031511784">
        <ele>0</ele>
      </trkpt>
      <trkpt lat="38.557810038328171" lon="-7.884520031511784">
        <ele>0</ele>
      </trkpt>
      <trkpt lat="38.557839961722493" lon="-7.884550038725138">
        <ele>0</ele>
      </trkpt>
      <trkpt lat="38.557859994471073" lon="-7.884560013189912">
        <ele>0</ele>
      </trkpt>
      <trkpt lat="38.557869968935847" lon="-7.884569987654686">
        <ele>0</ele>
      </trkpt>
      <trkpt lat="38.557890001684427" lon="-7.88459999486804">
        <ele>0</ele>
      </trkpt>
      <trkpt lat="38.557899976149201" lon="-7.884630002081394">
        <ele>0</ele>
      </trkpt>
      <trkpt lat="38.557920008897781" lon="-7.884650034829974">
        <ele>0</ele>
      </trkpt>
      <trkpt lat="38.557929983362556" lon="-7.884679958224297">
        <ele>0</ele>
      </trkpt>
      <trkpt lat="38.557929983362556" lon="-7.884709965437651">
        <ele>0</ele>
      </trkpt>
      <trkpt lat="38.557940041646361" lon="-7.884739972651005">
        <ele>0</ele>
      </trkpt>
      <trkpt lat="38.557940041646361" lon="-7.884850027039647">
        <ele>0</ele>
      </trkpt>
      <trkpt lat="38.557929983362556" lon="-7.884869975969195">
        <ele>0</ele>
      </trkpt>
      <trkpt lat="38.557929983362556" lon="-7.884890008717775">
        <ele>0</ele>
      </trkpt>
      <trkpt lat="38.557920008897781" lon="-7.884910041466355">
        <ele>0</ele>
      </trkpt>
      <trkpt lat="38.557910034433007" lon="-7.88492001593113">
        <ele>0</ele>
      </trkpt>
      <trkpt lat="38.557890001684427" lon="-7.884959997609258">
        <ele>0</ele>
      </trkpt>
      <trkpt lat="38.557910034433007" lon="-7.885210029780865">
        <ele>0</ele>
      </trkpt>
      <trkpt lat="38.557940041646361" lon="-7.885359982028604">
        <ele>0</ele>
      </trkpt>
      <trkpt lat="38.558099968358874" lon="-7.886000024154782">
        <ele>0</ele>
      </trkpt>
      <trkpt lat="38.55811002664268" lon="-7.886130027472973">
        <ele>0</ele>
      </trkpt>
      <trkpt lat="38.559000017121434" lon="-7.889239965006709">
        <ele>0</ele>
      </trkpt>
      <trkpt lat="38.559139994904399" lon="-7.889889981597662">
        <ele>0</ele>
      </trkpt>
      <trkpt lat="38.559179976582527" lon="-7.890179995447397">
        <ele>0</ele>
      </trkpt>
      <trkpt lat="38.559219958260655" lon="-7.890639994293451">
        <ele>0</ele>
      </trkpt>
      <trkpt lat="38.559219958260655" lon="-7.890800004824996">
        <ele>0</ele>
      </trkpt>
      <trkpt lat="38.559239991009235" lon="-7.890920033678412">
        <ele>0</ele>
      </trkpt>
      <trkpt lat="38.55924996547401" lon="-7.891480028629303">
        <ele>0</ele>
      </trkpt>
      <trkpt lat="38.559260023757815" lon="-7.891599973663688">
        <ele>0</ele>
      </trkpt>
      <trkpt lat="38.559279972687364" lon="-7.891720002517104">
        <ele>0</ele>
      </trkpt>
      <trkpt lat="38.559290030971169" lon="-7.891729976981878">
        <ele>0</ele>
      </trkpt>
      <trkpt lat="38.559300005435944" lon="-7.891729976981878">
        <ele>0</ele>
      </trkpt>
      <trkpt lat="38.559330012649298" lon="-7.891759984195232">
        <ele>0</ele>
      </trkpt>
      <trkpt lat="38.559330012649298" lon="-7.891769958660007">
        <ele>0</ele>
      </trkpt>
      <trkpt lat="38.559349961578846" lon="-7.891789991408587">
        <ele>0</ele>
      </trkpt>
      <trkpt lat="38.559349961578846" lon="-7.891799965873361">
        <ele>0</ele>
      </trkpt>
      <trkpt lat="38.559360019862652" lon="-7.891810024157167">
        <ele>0</ele>
      </trkpt>
      <trkpt lat="38.559369994327426" lon="-7.891829973086715">
        <ele>0</ele>
      </trkpt>
      <trkpt lat="38.559369994327426" lon="-7.891859980300069">
        <ele>0</ele>
      </trkpt>
      <trkpt lat="38.5593799687922" lon="-7.891870038583875">
        <ele>0</ele>
      </trkpt>
      <trkpt lat="38.5593799687922" lon="-7.891959976404905">
        <ele>0</ele>
      </trkpt>
      <trkpt lat="38.559369994327426" lon="-7.891980009153485">
        <ele>0</ele>
      </trkpt>
      <trkpt lat="38.559369994327426" lon="-7.891989983618259">
        <ele>0</ele>
      </trkpt>
      <trkpt lat="38.559360019862652" lon="-7.892010016366839">
        <ele>0</ele>
      </trkpt>
      <trkpt lat="38.559360019862652" lon="-7.892019990831614">
        <ele>0</ele>
      </trkpt>
      <trkpt lat="38.559349961578846" lon="-7.892029965296388">
        <ele>0</ele>
      </trkpt>
      <trkpt lat="38.559339987114072" lon="-7.892049998044968">
        <ele>0</ele>
      </trkpt>
      <trkpt lat="38.559339987114072" lon="-7.892059972509742">
        <ele>0</ele>
      </trkpt>
      <trkpt lat="38.559309979900718" lon="-7.892089979723096">
        <ele>0</ele>
      </trkpt>
      <trkpt lat="38.559300005435944" lon="-7.892089979723096">
        <ele>0</ele>
      </trkpt>
      <trkpt lat="38.559290030971169" lon="-7.892100038006902">
        <ele>0</ele>
      </trkpt>
      <trkpt lat="38.559209983795881" lon="-7.892300030216575">
        <ele>0</ele>
      </trkpt>
      <trkpt lat="38.559170002117753" lon="-7.892560036852956">
        <ele>0</ele>
      </trkpt>
      <trkpt lat="38.559160027652979" lon="-7.892690040171146">
        <ele>0</ele>
      </trkpt>
      <trkpt lat="38.559130020439625" lon="-7.892800010740757">
        <ele>0</ele>
      </trkpt>
      <trkpt lat="38.559049973264337" lon="-7.893829979002476">
        <ele>0</ele>
      </trkpt>
      <trkpt lat="38.558979984372854" lon="-7.895269989967346">
        <ele>0</ele>
      </trkpt>
      <trkpt lat="38.558979984372854" lon="-7.895839959383011">
        <ele>0</ele>
      </trkpt>
      <trkpt lat="38.559000017121434" lon="-7.896250002086163">
        <ele>0</ele>
      </trkpt>
      <trkpt lat="38.559049973264337" lon="-7.89663003757596">
        <ele>0</ele>
      </trkpt>
      <trkpt lat="38.559160027652979" lon="-7.897309977561235">
        <ele>0</ele>
      </trkpt>
      <trkpt lat="38.559219958260655" lon="-7.897560009732842">
        <ele>0</ele>
      </trkpt>
      <trkpt lat="38.559269998222589" lon="-7.897720020264387">
        <ele>0</ele>
      </trkpt>
      <trkpt lat="38.559330012649298" lon="-7.897859998047352">
        <ele>0</ele>
      </trkpt>
      <trkpt lat="38.559360019862652" lon="-7.897890005260706">
        <ele>0</ele>
      </trkpt>
      <trkpt lat="38.5593799687922" lon="-7.89789997972548">
        <ele>0</ele>
      </trkpt>
      <trkpt lat="38.559409976005554" lon="-7.897929986938834">
        <ele>0</ele>
      </trkpt>
      <trkpt lat="38.55942003428936" lon="-7.897950019687414">
        <ele>0</ele>
      </trkpt>
      <trkpt lat="38.55942003428936" lon="-7.897959994152188">
        <ele>0</ele>
      </trkpt>
      <trkpt lat="38.559439983218908" lon="-7.897999975830317">
        <ele>0</ele>
      </trkpt>
      <trkpt lat="38.559439983218908" lon="-7.898010034114122">
        <ele>0</ele>
      </trkpt>
      <trkpt lat="38.559450041502714" lon="-7.898029983043671">
        <ele>0</ele>
      </trkpt>
      <trkpt lat="38.559450041502714" lon="-7.898120004683733">
        <ele>0</ele>
      </trkpt>
      <trkpt lat="38.559439983218908" lon="-7.898140037432313">
        <ele>0</ele>
      </trkpt>
      <trkpt lat="38.559439983218908" lon="-7.898169960826635">
        <ele>0</ele>
      </trkpt>
      <trkpt lat="38.559430008754134" lon="-7.898189993575215">
        <ele>0</ele>
      </trkpt>
      <trkpt lat="38.55942003428936" lon="-7.89819996803999">
        <ele>0</ele>
      </trkpt>
      <trkpt lat="38.559409976005554" lon="-7.89822000078857">
        <ele>0</ele>
      </trkpt>
      <trkpt lat="38.55940000154078" lon="-7.898229975253344">
        <ele>0</ele>
      </trkpt>
      <trkpt lat="38.559390027076006" lon="-7.898250008001924">
        <ele>0</ele>
      </trkpt>
      <trkpt lat="38.559349961578846" lon="-7.898289989680052">
        <ele>0</ele>
      </trkpt>
      <trkpt lat="38.559330012649298" lon="-7.898299964144826">
        <ele>0</ele>
      </trkpt>
      <trkpt lat="38.559320038184524" lon="-7.898299964144826">
        <ele>0</ele>
      </trkpt>
      <trkpt lat="38.559309979900718" lon="-7.898310022428632">
        <ele>0</ele>
      </trkpt>
      <trkpt lat="38.55924996547401" lon="-7.898310022428632">
        <ele>0</ele>
      </trkpt>
      <trkpt lat="38.559230016544461" lon="-7.898299964144826">
        <ele>0</ele>
      </trkpt>
      <trkpt lat="38.559219958260655" lon="-7.898299964144826">
        <ele>0</ele>
      </trkpt>
      <trkpt lat="38.559209983795881" lon="-7.898289989680052">
        <ele>0</ele>
      </trkpt>
      <trkpt lat="38.559200009331107" lon="-7.898289989680052">
        <ele>0</ele>
      </trkpt>
      <trkpt lat="38.559160027652979" lon="-7.898250008001924">
        <ele>0</ele>
      </trkpt>
      <trkpt lat="38.559160027652979" lon="-7.898240033537149">
        <ele>0</ele>
      </trkpt>
      <trkpt lat="38.559019966050982" lon="-7.898259982466698">
        <ele>0</ele>
      </trkpt>
      <trkpt lat="38.558900021016598" lon="-7.898289989680052">
        <ele>0</ele>
      </trkpt>
      <trkpt lat="38.558579999953508" lon="-7.898399960249662">
        <ele>0</ele>
      </trkpt>
      <trkpt lat="38.558500036597252" lon="-7.898410018533468">
        <ele>0</ele>
      </trkpt>
      <trkpt lat="38.557299999520183" lon="-7.898930031806231">
        <ele>0</ele>
      </trkpt>
      <trkpt lat="38.556730030104518" lon="-7.899160031229258">
        <ele>0</ele>
      </trkpt>
      <trkpt lat="38.556600026786327" lon="-7.899219961836934">
        <ele>0</ele>
      </trkpt>
      <trkpt lat="38.55624002404511" lon="-7.899430012330413">
        <ele>0</ele>
      </trkpt>
      <trkpt lat="38.555950010195374" lon="-7.899650037288666">
        <ele>0</ele>
      </trkpt>
      <trkpt lat="38.555720010772347" lon="-7.899850029498339">
        <ele>0</ele>
      </trkpt>
      <trkpt lat="38.555399989709258" lon="-7.900189999490976">
        <ele>0</ele>
      </trkpt>
      <trkpt lat="38.555299993604422" lon="-7.900329977273941">
        <ele>0</ele>
      </trkpt>
      <trkpt lat="38.555220030248165" lon="-7.900429973378778">
        <ele>0</ele>
      </trkpt>
      <trkpt lat="38.555109975859523" lon="-7.900589983910322">
        <ele>0</ele>
      </trkpt>
      <trkpt lat="38.554900009185076" lon="-7.90094998665154">
        <ele>0</ele>
      </trkpt>
      <trkpt lat="38.554670009762049" lon="-7.901449967175722">
        <ele>0</ele>
      </trkpt>
      <trkpt lat="38.554589962586761" lon="-7.901660017669201">
        <ele>0</ele>
      </trkpt>
      <trkpt lat="38.554489966481924" lon="-7.902009962126613">
        <ele>0</ele>
      </trkpt>
      <trkpt lat="38.554400028660893" lon="-7.90238999761641">
        <ele>0</ele>
      </trkpt>
      <trkpt lat="38.554340014234185" lon="-7.902719993144274">
        <ele>0</ele>
      </trkpt>
      <trkpt lat="38.554219985380769" lon="-7.903890023007989">
        <ele>0</ele>
      </trkpt>
      <trkpt lat="38.554229959845543" lon="-7.9039999935776">
        <ele>0</ele>
      </trkpt>
      <trkpt lat="38.554180003702641" lon="-7.904940024018288">
        <ele>0</ele>
      </trkpt>
      <trkpt lat="38.554200036451221" lon="-7.905370015650988">
        <ele>0</ele>
      </trkpt>
      <trkpt lat="38.554229959845543" lon="-7.905400022864342">
        <ele>0</ele>
      </trkpt>
      <trkpt lat="38.554240018129349" lon="-7.90541997179389">
        <ele>0</ele>
      </trkpt>
      <trkpt lat="38.554249992594123" lon="-7.905430030077696">
        <ele>0</ele>
      </trkpt>
      <trkpt lat="38.554259967058897" lon="-7.905449979007244">
        <ele>0</ele>
      </trkpt>
      <trkpt lat="38.554270025342703" lon="-7.90546003729105">
        <ele>0</ele>
      </trkpt>
      <trkpt lat="38.554270025342703" lon="-7.905479986220598">
        <ele>0</ele>
      </trkpt>
      <trkpt lat="38.554279999807477" lon="-7.905500018969178">
        <ele>0</ele>
      </trkpt>
      <trkpt lat="38.554279999807477" lon="-7.905519967898727">
        <ele>0</ele>
      </trkpt>
      <trkpt lat="38.554289974272251" lon="-7.905540000647306">
        <ele>0</ele>
      </trkpt>
      <trkpt lat="38.554289974272251" lon="-7.905619964003563">
        <ele>0</ele>
      </trkpt>
      <trkpt lat="38.554279999807477" lon="-7.905639996752143">
        <ele>0</ele>
      </trkpt>
      <trkpt lat="38.554279999807477" lon="-7.905660029500723">
        <ele>0</ele>
      </trkpt>
      <trkpt lat="38.554270025342703" lon="-7.905679978430271">
        <ele>0</ele>
      </trkpt>
      <trkpt lat="38.554259967058897" lon="-7.905709985643625">
        <ele>0</ele>
      </trkpt>
      <trkpt lat="38.554249992594123" lon="-7.905719960108399">
        <ele>0</ele>
      </trkpt>
      <trkpt lat="38.554240018129349" lon="-7.905739992856979">
        <ele>0</ele>
      </trkpt>
      <trkpt lat="38.554189978167415" lon="-7.905790032818914">
        <ele>0</ele>
      </trkpt>
      <trkpt lat="38.554170029237866" lon="-7.905800007283688">
        <ele>0</ele>
      </trkpt>
      <trkpt lat="38.554100040346384" lon="-7.906130002811551">
        <ele>0</ele>
      </trkpt>
      <trkpt lat="38.554059974849224" lon="-7.906429991126061">
        <ele>0</ele>
      </trkpt>
      <trkpt lat="38.55405000038445" lon="-7.906569968909025">
        <ele>0</ele>
      </trkpt>
      <trkpt lat="38.553899964317679" lon="-7.907649977132678">
        <ele>0</ele>
      </trkpt>
      <trkpt lat="38.553759986534715" lon="-7.908840039744973">
        <ele>0</ele>
      </trkpt>
      <trkpt lat="38.553750012069941" lon="-7.908880021423101">
        <ele>0</ele>
      </trkpt>
      <trkpt lat="38.553699972108006" lon="-7.909380001947284">
        <ele>0</ele>
      </trkpt>
      <trkpt lat="38.553629983216524" lon="-7.909919964149594">
        <ele>0</ele>
      </trkpt>
      <trkpt lat="38.553590001538396" lon="-7.910350039601326">
        <ele>0</ele>
      </trkpt>
      <trkpt lat="38.553590001538396" lon="-7.910469984635711">
        <ele>0</ele>
      </trkpt>
      <trkpt lat="38.553610034286976" lon="-7.910490017384291">
        <ele>0</ele>
      </trkpt>
      <trkpt lat="38.553629983216524" lon="-7.910499991849065">
        <ele>0</ele>
      </trkpt>
      <trkpt lat="38.55364004150033" lon="-7.910509966313839">
        <ele>0</ele>
      </trkpt>
      <trkpt lat="38.553650015965104" lon="-7.910529999062419">
        <ele>0</ele>
      </trkpt>
      <trkpt lat="38.553659990429878" lon="-7.910539973527193">
        <ele>0</ele>
      </trkpt>
      <trkpt lat="38.553659990429878" lon="-7.910560006275773">
        <ele>0</ele>
      </trkpt>
      <trkpt lat="38.553669964894652" lon="-7.910580039024353">
        <ele>0</ele>
      </trkpt>
      <trkpt lat="38.553680023178458" lon="-7.910590013489127">
        <ele>0</ele>
      </trkpt>
      <trkpt lat="38.553680023178458" lon="-7.910629995167255">
        <ele>0</ele>
      </trkpt>
      <trkpt lat="38.553689997643232" lon="-7.910650027915835">
        <ele>0</ele>
      </trkpt>
      <trkpt lat="38.553689997643232" lon="-7.910709958523512">
        <ele>0</ele>
      </trkpt>
      <trkpt lat="38.553680023178458" lon="-7.910729991272092">
        <ele>0</ele>
      </trkpt>
      <trkpt lat="38.553680023178458" lon="-7.910750024020672">
        <ele>0</ele>
      </trkpt>
      <trkpt lat="38.553669964894652" lon="-7.910759998485446">
        <ele>0</ele>
      </trkpt>
      <trkpt lat="38.553669964894652" lon="-7.910780031234026">
        <ele>0</ele>
      </trkpt>
      <trkpt lat="38.553650015965104" lon="-7.910820012912154">
        <ele>0</ele>
      </trkpt>
      <trkpt lat="38.553629983216524" lon="-7.910839961841703">
        <ele>0</ele>
      </trkpt>
      <trkpt lat="38.55362000875175" lon="-7.910859994590282">
        <ele>0</ele>
      </trkpt>
      <trkpt lat="38.553610034286976" lon="-7.910869969055057">
        <ele>0</ele>
      </trkpt>
      <trkpt lat="38.553590001538396" lon="-7.910880027338862">
        <ele>0</ele>
      </trkpt>
      <trkpt lat="38.553580027073622" lon="-7.910890001803637">
        <ele>0</ele>
      </trkpt>
      <trkpt lat="38.553559994325042" lon="-7.911020005121827">
        <ele>0</ele>
      </trkpt>
      <trkpt lat="38.553559994325042" lon="-7.911170041188598">
        <ele>0</ele>
      </trkpt>
      <trkpt lat="38.553680023178458" lon="-7.913440028205514">
        <ele>0</ele>
      </trkpt>
      <trkpt lat="38.553689997643232" lon="-7.913900027051568">
        <ele>0</ele>
      </trkpt>
      <trkpt lat="38.553729979321361" lon="-7.914579967036843">
        <ele>0</ele>
      </trkpt>
      <trkpt lat="38.553759986534715" lon="-7.914869980886579">
        <ele>0</ele>
      </trkpt>
      <trkpt lat="38.553810026496649" lon="-7.915159994736314">
        <ele>0</ele>
      </trkpt>
      <trkpt lat="38.553870040923357" lon="-7.915220009163022">
        <ele>0</ele>
      </trkpt>
      <trkpt lat="38.553870040923357" lon="-7.91523995809257">
        <ele>0</ele>
      </trkpt>
      <trkpt lat="38.553880015388131" lon="-7.915250016376376">
        <ele>0</ele>
      </trkpt>
      <trkpt lat="38.553889989852905" lon="-7.915269965305924">
        <ele>0</ele>
      </trkpt>
      <trkpt lat="38.553889989852905" lon="-7.915289998054504">
        <ele>0</ele>
      </trkpt>
      <trkpt lat="38.553899964317679" lon="-7.915310030803084">
        <ele>0</ele>
      </trkpt>
      <trkpt lat="38.553899964317679" lon="-7.915450008586049">
        <ele>0</ele>
      </trkpt>
      <trkpt lat="38.553889989852905" lon="-7.915470041334629">
        <ele>0</ele>
      </trkpt>
      <trkpt lat="38.553889989852905" lon="-7.915489990264177">
        <ele>0</ele>
      </trkpt>
      <trkpt lat="38.553880015388131" lon="-7.915519997477531">
        <ele>0</ele>
      </trkpt>
      <trkpt lat="38.553859982639551" lon="-7.915540030226111">
        <ele>0</ele>
      </trkpt>
      <trkpt lat="38.553859982639551" lon="-7.915550004690886">
        <ele>0</ele>
      </trkpt>
      <trkpt lat="38.553850008174777" lon="-7.915570037439466">
        <ele>0</ele>
      </trkpt>
      <trkpt lat="38.553829975426197" lon="-7.915589986369014">
        <ele>0</ele>
      </trkpt>
      <trkpt lat="38.553820000961423" lon="-7.915589986369014">
        <ele>0</ele>
      </trkpt>
      <trkpt lat="38.553810026496649" lon="-7.915640026330948">
        <ele>0</ele>
      </trkpt>
      <trkpt lat="38.553810026496649" lon="-7.915740022435784">
        <ele>0</ele>
      </trkpt>
      <trkpt lat="38.553799968212843" lon="-7.915780004113913">
        <ele>0</ele>
      </trkpt>
      <trkpt lat="38.553799968212843" lon="-7.915930040180683">
        <ele>0</ele>
      </trkpt>
      <trkpt lat="38.553789993748069" lon="-7.915979996323586">
        <ele>0</ele>
      </trkpt>
      <trkpt lat="38.553789993748069" lon="-7.916049985215068">
        <ele>0</ele>
      </trkpt>
      <trkpt lat="38.553799968212843" lon="-7.91611997410655">
        <ele>0</ele>
      </trkpt>
      <trkpt lat="38.553799968212843" lon="-7.916270010173321">
        <ele>0</ele>
      </trkpt>
      <trkpt lat="38.553810026496649" lon="-7.916339999064803">
        <ele>0</ele>
      </trkpt>
      <trkpt lat="38.553810026496649" lon="-7.91641996242106">
        <ele>0</ele>
      </trkpt>
      <trkpt lat="38.553870040923357" lon="-7.916850037872791">
        <ele>0</ele>
      </trkpt>
      <trkpt lat="38.553880015388131" lon="-7.916980041190982">
        <ele>0</ele>
      </trkpt>
      <trkpt lat="38.553910022601485" lon="-7.917099986225367">
        <ele>0</ele>
      </trkpt>
      <trkpt lat="38.553929971531034" lon="-7.917220015078783">
        <ele>0</ele>
      </trkpt>
      <trkpt lat="38.55405000038445" lon="-7.917689988389611">
        <ele>0</ele>
      </trkpt>
      <trkpt lat="38.554089982062578" lon="-7.917789984494448">
        <ele>0</ele>
      </trkpt>
      <trkpt lat="38.554119989275932" lon="-7.917889980599284">
        <ele>0</ele>
      </trkpt>
      <trkpt lat="38.554279999807477" lon="-7.918270016089082">
        <ele>0</ele>
      </trkpt>
      <trkpt lat="38.554330039769411" lon="-7.918360037729144">
        <ele>0</ele>
      </trkpt>
      <trkpt lat="38.554370021447539" lon="-7.918449975550175">
        <ele>0</ele>
      </trkpt>
      <trkpt lat="38.554660035297275" lon="-7.918960014358163">
        <ele>0</ele>
      </trkpt>
      <trkpt lat="38.554709991440177" lon="-7.919020028784871">
        <ele>0</ele>
      </trkpt>
      <trkpt lat="38.554770005866885" lon="-7.919120024889708">
        <ele>0</ele>
      </trkpt>
      <trkpt lat="38.555049961432815" lon="-7.919480027630925">
        <ele>0</ele>
      </trkpt>
      <trkpt lat="38.555130008608103" lon="-7.919559990987182">
        <ele>0</ele>
      </trkpt>
      <trkpt lat="38.555199997499585" lon="-7.91964003816247">
        <ele>0</ele>
      </trkpt>
      <trkpt lat="38.555279960855842" lon="-7.919720001518726">
        <ele>0</ele>
      </trkpt>
      <trkpt lat="38.555290019139647" lon="-7.919740034267306">
        <ele>0</ele>
      </trkpt>
      <trkpt lat="38.5572300106287" lon="-7.921590004116297">
        <ele>0</ele>
      </trkpt>
      <trkpt lat="38.557269992306828" lon="-7.921639960259199">
        <ele>0</ele>
      </trkpt>
      <trkpt lat="38.557320032268763" lon="-7.921680025756359">
        <ele>0</ele>
      </trkpt>
      <trkpt lat="38.557650027796626" lon="-7.922010021284223">
        <ele>0</ele>
      </trkpt>
      <trkpt lat="38.557699983939528" lon="-7.922050002962351">
        <ele>0</ele>
      </trkpt>
      <trkpt lat="38.557739965617657" lon="-7.922099959105253">
        <ele>0</ele>
      </trkpt>
      <trkpt lat="38.557839961722493" lon="-7.922180006280541">
        <ele>0</ele>
      </trkpt>
      <trkpt lat="38.557880027219653" lon="-7.922229962423444">
        <ele>0</ele>
      </trkpt>
      <trkpt lat="38.557929983362556" lon="-7.922270027920604">
        <ele>0</ele>
      </trkpt>
      <trkpt lat="38.5585199855268" lon="-7.922819964587688">
        <ele>0</ele>
      </trkpt>
      <trkpt lat="38.559049973264337" lon="-7.923269988968968">
        <ele>0</ele>
      </trkpt>
      <trkpt lat="38.559269998222589" lon="-7.923399992287159">
        <ele>0</ele>
      </trkpt>
      <trkpt lat="38.559279972687364" lon="-7.923390017822385">
        <ele>0</ele>
      </trkpt>
      <trkpt lat="38.5593799687922" lon="-7.923390017822385">
        <ele>0</ele>
      </trkpt>
      <trkpt lat="38.559409976005554" lon="-7.923409966751933">
        <ele>0</ele>
      </trkpt>
      <trkpt lat="38.55942003428936" lon="-7.923420025035739">
        <ele>0</ele>
      </trkpt>
      <trkpt lat="38.559439983218908" lon="-7.923429999500513">
        <ele>0</ele>
      </trkpt>
      <trkpt lat="38.559450041502714" lon="-7.923450032249093">
        <ele>0</ele>
      </trkpt>
      <trkpt lat="38.559460015967488" lon="-7.923460006713867">
        <ele>0</ele>
      </trkpt>
      <trkpt lat="38.559509972110391" lon="-7.923560002818704">
        <ele>0</ele>
      </trkpt>
      <trkpt lat="38.559509972110391" lon="-7.923620017245412">
        <ele>0</ele>
      </trkpt>
      <trkpt lat="38.559520030394197" lon="-7.92363996617496">
        <ele>0</ele>
      </trkpt>
      <trkpt lat="38.559509972110391" lon="-7.92365999892354">
        <ele>0</ele>
      </trkpt>
      <trkpt lat="38.559509972110391" lon="-7.923699980601668">
        <ele>0</ele>
      </trkpt>
      <trkpt lat="38.560310024768114" lon="-7.92454001493752">
        <ele>0</ele>
      </trkpt>
      <trkpt lat="38.561560017988086" lon="-7.925729993730784">
        <ele>0</ele>
      </trkpt>
      <trkpt lat="38.56156999245286" lon="-7.925750026479363">
        <ele>0</ele>
      </trkpt>
      <trkpt lat="38.562589986249804" lon="-7.9267100058496">
        <ele>0</ele>
      </trkpt>
      <trkpt lat="38.56288000009954" lon="-7.926919972524047">
        <ele>0</ele>
      </trkpt>
      <trkpt lat="38.563189962878823" lon="-7.927109990268946">
        <ele>0</ele>
      </trkpt>
      <trkpt lat="38.563249977305532" lon="-7.927130023017526">
        <ele>0</ele>
      </trkpt>
      <trkpt lat="38.563300017267466" lon="-7.92716003023088">
        <ele>0</ele>
      </trkpt>
      <trkpt lat="38.563649961724877" lon="-7.927320040762425">
        <ele>0</ele>
      </trkpt>
      <trkpt lat="38.563920026645064" lon="-7.927409978583455">
        <ele>0</ele>
      </trkpt>
      <trkpt lat="38.564020022749901" lon="-7.927430011332035">
        <ele>0</ele>
      </trkpt>
      <trkpt lat="38.564090011641383" lon="-7.927460018545389">
        <ele>0</ele>
      </trkpt>
      <trkpt lat="38.564229989424348" lon="-7.927500000223517">
        <ele>0</ele>
      </trkpt>
      <trkpt lat="38.56429997831583" lon="-7.927530007436872">
        <ele>0</ele>
      </trkpt>
      <trkpt lat="38.564780009910464" lon="-7.927660010755062">
        <ele>0</ele>
      </trkpt>
      <trkpt lat="38.564819991588593" lon="-7.927660010755062">
        <ele>0</ele>
      </trkpt>
      <trkpt lat="38.564900038763881" lon="-7.92767995968461">
        <ele>0</ele>
      </trkpt>
      <trkpt lat="38.564900038763881" lon="-7.927669985219836">
        <ele>0</ele>
      </trkpt>
      <trkpt lat="38.564940020442009" lon="-7.927630003541708">
        <ele>0</ele>
      </trkpt>
      <trkpt lat="38.564949994906783" lon="-7.927630003541708">
        <ele>0</ele>
      </trkpt>
      <trkpt lat="38.564959969371557" lon="-7.927620029076934">
        <ele>0</ele>
      </trkpt>
      <trkpt lat="38.56502995826304" lon="-7.927620029076934">
        <ele>0</ele>
      </trkpt>
      <trkpt lat="38.565040016546845" lon="-7.927630003541708">
        <ele>0</ele>
      </trkpt>
      <trkpt lat="38.56504999101162" lon="-7.927630003541708">
        <ele>0</ele>
      </trkpt>
      <trkpt lat="38.5650700237602" lon="-7.927639978006482">
        <ele>0</ele>
      </trkpt>
      <trkpt lat="38.565079998224974" lon="-7.927650036290288">
        <ele>0</ele>
      </trkpt>
      <trkpt lat="38.565089972689748" lon="-7.927669985219836">
        <ele>0</ele>
      </trkpt>
      <trkpt lat="38.565100030973554" lon="-7.92767995968461">
        <ele>0</ele>
      </trkpt>
      <trkpt lat="38.565110005438328" lon="-7.927709966897965">
        <ele>0</ele>
      </trkpt>
      <trkpt lat="38.565110005438328" lon="-7.927729999646545">
        <ele>0</ele>
      </trkpt>
      <trkpt lat="38.565119979903102" lon="-7.927750032395124">
        <ele>0</ele>
      </trkpt>
      <trkpt lat="38.565119979903102" lon="-7.927820021286607">
        <ele>0</ele>
      </trkpt>
      <trkpt lat="38.565110005438328" lon="-7.927839970216155">
        <ele>0</ele>
      </trkpt>
      <trkpt lat="38.565110005438328" lon="-7.927860002964735">
        <ele>0</ele>
      </trkpt>
      <trkpt lat="38.565089972689748" lon="-7.927899984642863">
        <ele>0</ele>
      </trkpt>
      <trkpt lat="38.565089972689748" lon="-7.927920017391443">
        <ele>0</ele>
      </trkpt>
      <trkpt lat="38.565059965476394" lon="-7.927950024604797">
        <ele>0</ele>
      </trkpt>
      <trkpt lat="38.565059965476394" lon="-7.927969973534346">
        <ele>0</ele>
      </trkpt>
      <trkpt lat="38.56504999101162" lon="-7.927990006282926">
        <ele>0</ele>
      </trkpt>
      <trkpt lat="38.565040016546845" lon="-7.9279999807477">
        <ele>0</ele>
      </trkpt>
      <trkpt lat="38.56502995826304" lon="-7.92802001349628">
        <ele>0</ele>
      </trkpt>
      <trkpt lat="38.56502995826304" lon="-7.928039962425828">
        <ele>0</ele>
      </trkpt>
      <trkpt lat="38.565019983798265" lon="-7.928050020709634">
        <ele>0</ele>
      </trkpt>
      <trkpt lat="38.565010009333491" lon="-7.928069969639182">
        <ele>0</ele>
      </trkpt>
      <trkpt lat="38.565010009333491" lon="-7.928090002387762">
        <ele>0</ele>
      </trkpt>
      <trkpt lat="38.564989976584911" lon="-7.92812998406589">
        <ele>0</ele>
      </trkpt>
      <trkpt lat="38.564980002120137" lon="-7.928159991279244">
        <ele>0</ele>
      </trkpt>
      <trkpt lat="38.564980002120137" lon="-7.928180024027824">
        <ele>0</ele>
      </trkpt>
      <trkpt lat="38.564970027655363" lon="-7.928199972957373">
        <ele>0</ele>
      </trkpt>
      <trkpt lat="38.564970027655363" lon="-7.928229980170727">
        <ele>0</ele>
      </trkpt>
      <trkpt lat="38.564959969371557" lon="-7.928250012919307">
        <ele>0</ele>
      </trkpt>
      <trkpt lat="38.564959969371557" lon="-7.928269961848855">
        <ele>0</ele>
      </trkpt>
      <trkpt lat="38.564540036022663" lon="-7.930450011044741">
        <ele>0</ele>
      </trkpt>
      <trkpt lat="38.564540036022663" lon="-7.930489992722869">
        <ele>0</ele>
      </trkpt>
      <trkpt lat="38.564529977738857" lon="-7.930540032684803">
        <ele>0</ele>
      </trkpt>
      <trkpt lat="38.564529977738857" lon="-7.930589988827705">
        <ele>0</ele>
      </trkpt>
      <trkpt lat="38.564510028809309" lon="-7.930680010467768">
        <ele>0</ele>
      </trkpt>
      <trkpt lat="38.564510028809309" lon="-7.930780006572604">
        <ele>0</ele>
      </trkpt>
      <trkpt lat="38.564499970525503" lon="-7.930829962715507">
        <ele>0</ele>
      </trkpt>
      <trkpt lat="38.564499970525503" lon="-7.930940017104149">
        <ele>0</ele>
      </trkpt>
      <trkpt lat="38.564489996060729" lon="-7.930989973247051">
        <ele>0</ele>
      </trkpt>
      <trkpt lat="38.564489996060729" lon="-7.931620040908456">
        <ele>0</ele>
      </trkpt>
      <trkpt lat="38.564499970525503" lon="-7.931679971516132">
        <ele>0</ele>
      </trkpt>
      <trkpt lat="38.564559984952211" lon="-7.932290006428957">
        <ele>0</ele>
      </trkpt>
      <trkpt lat="38.564859973266721" lon="-7.934780018404126">
        <ele>0</ele>
      </trkpt>
      <trkpt lat="38.564959969371557" lon="-7.935779979452491">
        <ele>0</ele>
      </trkpt>
      <trkpt lat="38.564949994906783" lon="-7.935879975557327">
        <ele>0</ele>
      </trkpt>
      <trkpt lat="38.565140012651682" lon="-7.937449989840388">
        <ele>0</ele>
      </trkpt>
      <trkpt lat="38.565219976007938" lon="-7.93824995867908">
        <ele>0</ele>
      </trkpt>
      <trkpt lat="38.565270015969872" lon="-7.938620019704104">
        <ele>0</ele>
      </trkpt>
      <trkpt lat="38.565539997071028" lon="-7.941159987822175">
        <ele>0</ele>
      </trkpt>
      <trkpt lat="38.565579978749156" lon="-7.941259983927012">
        <ele>0</ele>
      </trkpt>
      <trkpt lat="38.565590037032962" lon="-7.941359980031848">
        <ele>0</ele>
      </trkpt>
      <trkpt lat="38.56563001871109" lon="-7.941580004990101">
        <ele>0</ele>
      </trkpt>
      <trkpt lat="38.565839985385537" lon="-7.94321003369987">
        <ele>0</ele>
      </trkpt>
      <trkpt lat="38.566109966486692" lon="-7.945619998499751">
        <ele>0</ele>
      </trkpt>
      <trkpt lat="38.566450020298362" lon="-7.949950005859137">
        <ele>0</ele>
      </trkpt>
      <trkpt lat="38.56646996922791" lon="-7.950110016390681">
        <ele>0</ele>
      </trkpt>
      <trkpt lat="38.566659986972809" lon="-7.952679991722107">
        <ele>0</ele>
      </trkpt>
      <trkpt lat="38.566659986972809" lon="-7.952770013362169">
        <ele>0</ele>
      </trkpt>
      <trkpt lat="38.566750008612871" lon="-7.953430004417896">
        <ele>0</ele>
      </trkpt>
      <trkpt lat="38.566840030252934" lon="-7.953969966620207">
        <ele>0</ele>
      </trkpt>
      <trkpt lat="38.566889986395836" lon="-7.95421002432704">
        <ele>0</ele>
      </trkpt>
      <trkpt lat="38.567149993032217" lon="-7.95517997816205">
        <ele>0</ele>
      </trkpt>
      <trkpt lat="38.567790035158396" lon="-7.957200016826391">
        <ele>0</ele>
      </trkpt>
      <trkpt lat="38.567979969084263" lon="-7.957909964025021">
        <ele>0</ele>
      </trkpt>
      <trkpt lat="38.568109972402453" lon="-7.958619995042682">
        <ele>0</ele>
      </trkpt>
      <trkpt lat="38.568160012364388" lon="-7.959000030532479">
        <ele>0</ele>
      </trkpt>
      <trkpt lat="38.568169986829162" lon="-7.959160041064024">
        <ele>0</ele>
      </trkpt>
      <trkpt lat="38.568179961293936" lon="-7.959209997206926">
        <ele>0</ele>
      </trkpt>
      <trkpt lat="38.568199994042516" lon="-7.959739984944463">
        <ele>0</ele>
      </trkpt>
      <trkpt lat="38.568169986829162" lon="-7.960540037602186">
        <ele>0</ele>
      </trkpt>
      <trkpt lat="38.568150037899613" lon="-7.960799960419536">
        <ele>0</ele>
      </trkpt>
      <trkpt lat="38.568120030686259" lon="-7.961059967055917">
        <ele>0</ele>
      </trkpt>
      <trkpt lat="38.568120030686259" lon="-7.961110007017851">
        <ele>0</ele>
      </trkpt>
      <trkpt lat="38.568060016259551" lon="-7.961340006440878">
        <ele>0</ele>
      </trkpt>
      <trkpt lat="38.567879972979426" lon="-7.96274003572762">
        <ele>0</ele>
      </trkpt>
      <trkpt lat="38.56777997687459" lon="-7.963660033419728">
        <ele>0</ele>
      </trkpt>
      <trkpt lat="38.567760027945042" lon="-7.964429995045066">
        <ele>0</ele>
      </trkpt>
      <trkpt lat="38.56777997687459" lon="-7.964980015531182">
        <ele>0</ele>
      </trkpt>
      <trkpt lat="38.568529989570379" lon="-7.972950031980872">
        <ele>0</ele>
      </trkpt>
      <trkpt lat="38.568559996783733" lon="-7.973099984228611">
        <ele>0</ele>
      </trkpt>
      <trkpt lat="38.568780021741986" lon="-7.975420011207461">
        <ele>0</ele>
      </trkpt>
      <trkpt lat="38.568840036168694" lon="-7.975799962878227">
        <ele>0</ele>
      </trkpt>
      <trkpt lat="38.568919999524951" lon="-7.976179998368025">
        <ele>0</ele>
      </trkpt>
      <trkpt lat="38.569019995629787" lon="-7.976540001109242">
        <ele>0</ele>
      </trkpt>
      <trkpt lat="38.569080010056496" lon="-7.976719960570335">
        <ele>0</ele>
      </trkpt>
      <trkpt lat="38.569099958986044" lon="-7.976809982210398">
        <ele>0</ele>
      </trkpt>
      <trkpt lat="38.569050002843142" lon="-7.976860022172332">
        <ele>0</ele>
      </trkpt>
      <trkpt lat="38.568620011210442" lon="-7.977380035445094">
        <ele>0</ele>
      </trkpt>
      <trkpt lat="38.568520015105605" lon="-7.977439966052771">
        <ele>0</ele>
      </trkpt>
      <trkpt lat="38.568469975143671" lon="-7.977450024336577">
        <ele>0</ele>
      </trkpt>
      <trkpt lat="38.568450026214123" lon="-7.977450024336577">
        <ele>0</ele>
      </trkpt>
      <trkpt lat="38.568220026791096" lon="-7.977480031549931">
        <ele>0</ele>
      </trkpt>
      <trkpt lat="38.567960020154715" lon="-7.977539962157607">
        <ele>0</ele>
      </trkpt>
      <trkpt lat="38.567670006304979" lon="-7.977580027654767">
        <ele>0</ele>
      </trkpt>
      <trkpt lat="38.567570010200143" lon="-7.977580027654767">
        <ele>0</ele>
      </trkpt>
      <trkpt lat="38.56689996086061" lon="-7.977469973266125">
        <ele>0</ele>
      </trkpt>
      <trkpt lat="38.566810023039579" lon="-7.977469973266125">
        <ele>0</ele>
      </trkpt>
      <trkpt lat="38.565939981490374" lon="-7.977390009909868">
        <ele>0</ele>
      </trkpt>
      <trkpt lat="38.565430026501417" lon="-7.977320021018386">
        <ele>0</ele>
      </trkpt>
      <trkpt lat="38.563969982787967" lon="-7.977020032703877">
        <ele>0</ele>
      </trkpt>
      <trkpt lat="38.563679968938231" lon="-7.976999999955297">
        <ele>0</ele>
      </trkpt>
      <trkpt lat="38.563579972833395" lon="-7.976979967206717">
        <ele>0</ele>
      </trkpt>
      <trkpt lat="38.563360031694174" lon="-7.976890029385686">
        <ele>0</ele>
      </trkpt>
      <trkpt lat="38.563109999522567" lon="-7.976760026067495">
        <ele>0</ele>
      </trkpt>
      <trkpt lat="38.561790017411113" lon="-7.976240012794733">
        <ele>0</ele>
      </trkpt>
      <trkpt lat="38.560489984229207" lon="-7.975799962878227">
        <ele>0</ele>
      </trkpt>
      <trkpt lat="38.559969970956445" lon="-7.975640036165714">
        <ele>0</ele>
      </trkpt>
      <trkpt lat="38.559620026499033" lon="-7.975520007312298">
        <ele>0</ele>
      </trkpt>
      <trkpt lat="38.559560012072325" lon="-7.975490000098944">
        <ele>0</ele>
      </trkpt>
      <trkpt lat="38.559490023180842" lon="-7.97543996013701">
        <ele>0</ele>
      </trkpt>
      <trkpt lat="38.559439983218908" lon="-7.975359996780753">
        <ele>0</ele>
      </trkpt>
      <trkpt lat="38.559009991586208" lon="-7.974560027942061">
        <ele>0</ele>
      </trkpt>
      <trkpt lat="38.55886003933847" lon="-7.974340002983809"/>
      <trkpt lat="38.558719977736473" lon="-7.974000032991171"/>
      <trkpt lat="38.558510011062026" lon="-7.973540034145117"/>
      <trkpt lat="38.558340026065707" lon="-7.973250020295382"/>
      <trkpt lat="38.558259978890419" lon="-7.973150024190545"/>
      <trkpt lat="38.557709958404303" lon="-7.972669992595911"/>
      <trkpt lat="38.556019999086857" lon="-7.971789976581931"/>
      <trkpt lat="38.555639963597059" lon="-7.971629966050386"/>
      <trkpt lat="38.55460999533534" lon="-7.971139959990978"/>
      <trkpt lat="38.553780019283295" lon="-7.970809964463115"/>
      <trkpt lat="38.552849963307381" lon="-7.970330016687512"/>
      <trkpt lat="38.552963370457292" lon="-7.969959201291204"/>
    </trkseg>
  </trk>
</gpx>
